<?xml version="1.0" encoding="UTF-8"?>
<gpx version="1.1" creator="https://www.youtrack.es" xsi:schemaLocation="http://www.topografix.com/GPX/1/1 http://www.topografix.com/GPX/1/1/gpx.xsd http://www.garmin.com/xmlschemas/GpxExtensions/v3 http://www.garmin.com/xmlschemas/GpxExtensionsv3.xsd http://www.garmin.com/xmlschemas/TrackPointExtension/v1 http://www.garmin.com/xmlschemas/TrackPointExtensionv1.xsd" xmlns:gpxtpx="http://www.garmin.com/xmlschemas/TrackPointExtension/v1" xmlns:gpxx="http://www.garmin.com/xmlschemas/GpxExtensions/v3" xmlns:xsi="http://www.w3.org/2001/XMLSchema-instance">
  <metadata>
    <link href="https://www.youtrack.es">
      <text>YouTrack.es</text>
    </link>
    <time>2026-05-08T21:23:39Z</time>
  </metadata>
  <trk>
    <src>https://www.youtrack.es</src>
    <link href="https://www.youtrack.es/ruta/24901-st-marti-de-llemena-pas-de-la-casa-andorra--la-seu-durgell-st-marti-de-llemena">
      <text>YouTrack.es</text>
    </link>
    <trkseg>
      <trkpt lat="42.055820" lon="2.642683">
        <ele>326.22104</ele>
        <time>2021-07-02T06:12:36Z</time>
      </trkpt>
      <trkpt lat="42.055828" lon="2.642631">
        <ele>325.94272</ele>
        <time>2021-07-02T06:12:37Z</time>
      </trkpt>
      <trkpt lat="42.055927" lon="2.642795">
        <ele>325.94724</ele>
        <time>2021-07-02T06:12:38Z</time>
      </trkpt>
      <trkpt lat="42.055969" lon="2.642872">
        <ele>325.80722</ele>
        <time>2021-07-02T06:12:39Z</time>
      </trkpt>
      <trkpt lat="42.056175" lon="2.642773">
        <ele>326.08383</ele>
        <time>2021-07-02T06:12:40Z</time>
      </trkpt>
      <trkpt lat="42.056210" lon="2.642826">
        <ele>326.20944</ele>
        <time>2021-07-02T06:12:41Z</time>
      </trkpt>
      <trkpt lat="42.056210" lon="2.642826">
        <ele>326.11874</ele>
        <time>2021-07-02T06:12:42Z</time>
      </trkpt>
      <trkpt lat="42.056248" lon="2.642885">
        <ele>326.41611</ele>
        <time>2021-07-02T06:12:43Z</time>
      </trkpt>
      <trkpt lat="42.056278" lon="2.642933">
        <ele>326.45654</ele>
        <time>2021-07-02T06:12:44Z</time>
      </trkpt>
      <trkpt lat="42.056183" lon="2.643147">
        <ele>326.42963</ele>
        <time>2021-07-02T06:12:45Z</time>
      </trkpt>
      <trkpt lat="42.056210" lon="2.643148">
        <ele>326.55176</ele>
        <time>2021-07-02T06:12:46Z</time>
      </trkpt>
      <trkpt lat="42.056213" lon="2.643148">
        <ele>326.60284</ele>
        <time>2021-07-02T06:12:47Z</time>
      </trkpt>
      <trkpt lat="42.056213" lon="2.643148">
        <ele>326.57416</ele>
        <time>2021-07-02T06:12:48Z</time>
      </trkpt>
      <trkpt lat="42.056213" lon="2.643148">
        <ele>326.64212</ele>
        <time>2021-07-02T06:12:49Z</time>
      </trkpt>
      <trkpt lat="42.056213" lon="2.643148">
        <ele>326.64764</ele>
        <time>2021-07-02T06:12:50Z</time>
      </trkpt>
      <trkpt lat="42.056213" lon="2.643148">
        <ele>326.65298</ele>
        <time>2021-07-02T06:12:51Z</time>
      </trkpt>
      <trkpt lat="42.056213" lon="2.643148">
        <ele>326.64349</ele>
        <time>2021-07-02T06:12:52Z</time>
      </trkpt>
      <trkpt lat="42.056213" lon="2.643148">
        <ele>326.64212</ele>
        <time>2021-07-02T06:12:53Z</time>
      </trkpt>
      <trkpt lat="42.056213" lon="2.643148">
        <ele>326.68332</ele>
        <time>2021-07-02T06:12:54Z</time>
      </trkpt>
      <trkpt lat="42.056213" lon="2.643148">
        <ele>326.62000</ele>
        <time>2021-07-02T06:12:55Z</time>
      </trkpt>
      <trkpt lat="42.056213" lon="2.643148">
        <ele>326.70676</ele>
        <time>2021-07-02T06:12:56Z</time>
      </trkpt>
      <trkpt lat="42.056213" lon="2.643148">
        <ele>326.98462</ele>
        <time>2021-07-02T06:12:57Z</time>
      </trkpt>
      <trkpt lat="42.056229" lon="2.643149">
        <ele>327.02872</ele>
        <time>2021-07-02T06:12:58Z</time>
      </trkpt>
      <trkpt lat="42.056274" lon="2.643150">
        <ele>326.86847</ele>
        <time>2021-07-02T06:12:59Z</time>
      </trkpt>
      <trkpt lat="42.056286" lon="2.643150">
        <ele>326.56165</ele>
        <time>2021-07-02T06:13:00Z</time>
      </trkpt>
      <trkpt lat="42.056313" lon="2.643147">
        <ele>326.43414</ele>
        <time>2021-07-02T06:13:01Z</time>
      </trkpt>
      <trkpt lat="42.056335" lon="2.643144">
        <ele>326.20911</ele>
        <time>2021-07-02T06:13:02Z</time>
      </trkpt>
      <trkpt lat="42.056343" lon="2.643143">
        <ele>326.06619</ele>
        <time>2021-07-02T06:13:03Z</time>
      </trkpt>
      <trkpt lat="42.056355" lon="2.643141">
        <ele>326.15802</ele>
        <time>2021-07-02T06:13:04Z</time>
      </trkpt>
      <trkpt lat="42.056389" lon="2.643103">
        <ele>326.21469</ele>
        <time>2021-07-02T06:13:05Z</time>
      </trkpt>
      <trkpt lat="42.056332" lon="2.643016">
        <ele>326.11874</ele>
        <time>2021-07-02T06:13:06Z</time>
      </trkpt>
      <trkpt lat="42.056316" lon="2.642990">
        <ele>325.78079</ele>
        <time>2021-07-02T06:13:07Z</time>
      </trkpt>
      <trkpt lat="42.056229" lon="2.642853">
        <ele>325.52713</ele>
        <time>2021-07-02T06:13:08Z</time>
      </trkpt>
      <trkpt lat="42.056133" lon="2.642712">
        <ele>324.83020</ele>
        <time>2021-07-02T06:13:09Z</time>
      </trkpt>
      <trkpt lat="42.056072" lon="2.642625">
        <ele>324.49994</ele>
        <time>2021-07-02T06:13:10Z</time>
      </trkpt>
      <trkpt lat="42.056000" lon="2.642516">
        <ele>324.20337</ele>
        <time>2021-07-02T06:13:11Z</time>
      </trkpt>
      <trkpt lat="42.055920" lon="2.642399">
        <ele>323.46814</ele>
        <time>2021-07-02T06:13:12Z</time>
      </trkpt>
      <trkpt lat="42.055836" lon="2.642277">
        <ele>323.08405</ele>
        <time>2021-07-02T06:13:13Z</time>
      </trkpt>
      <trkpt lat="42.055759" lon="2.642161">
        <ele>322.56131</ele>
        <time>2021-07-02T06:13:14Z</time>
      </trkpt>
      <trkpt lat="42.055683" lon="2.642048">
        <ele>321.94223</ele>
        <time>2021-07-02T06:13:15Z</time>
      </trkpt>
      <trkpt lat="42.055603" lon="2.641933">
        <ele>321.60867</ele>
        <time>2021-07-02T06:13:16Z</time>
      </trkpt>
      <trkpt lat="42.055515" lon="2.641787">
        <ele>320.98544</ele>
        <time>2021-07-02T06:13:17Z</time>
      </trkpt>
      <trkpt lat="42.055435" lon="2.641610">
        <ele>319.89890</ele>
        <time>2021-07-02T06:13:18Z</time>
      </trkpt>
      <trkpt lat="42.055359" lon="2.641445">
        <ele>318.90540</ele>
        <time>2021-07-02T06:13:19Z</time>
      </trkpt>
      <trkpt lat="42.055271" lon="2.641301">
        <ele>318.02875</ele>
        <time>2021-07-02T06:13:20Z</time>
      </trkpt>
      <trkpt lat="42.055183" lon="2.641196">
        <ele>316.59995</ele>
        <time>2021-07-02T06:13:21Z</time>
      </trkpt>
      <trkpt lat="42.055088" lon="2.641097">
        <ele>316.17096</ele>
        <time>2021-07-02T06:13:22Z</time>
      </trkpt>
      <trkpt lat="42.054966" lon="2.641013">
        <ele>315.63348</ele>
        <time>2021-07-02T06:13:23Z</time>
      </trkpt>
      <trkpt lat="42.054848" lon="2.640955">
        <ele>315.07419</ele>
        <time>2021-07-02T06:13:24Z</time>
      </trkpt>
      <trkpt lat="42.054710" lon="2.640895">
        <ele>314.25235</ele>
        <time>2021-07-02T06:13:25Z</time>
      </trkpt>
      <trkpt lat="42.054710" lon="2.640895">
        <ele>314.00708</ele>
        <time>2021-07-02T06:13:26Z</time>
      </trkpt>
      <trkpt lat="42.054577" lon="2.640850">
        <ele>313.42346</ele>
        <time>2021-07-02T06:13:27Z</time>
      </trkpt>
      <trkpt lat="42.054405" lon="2.640794">
        <ele>312.19003</ele>
        <time>2021-07-02T06:13:28Z</time>
      </trkpt>
      <trkpt lat="42.054241" lon="2.640740">
        <ele>311.46997</ele>
        <time>2021-07-02T06:13:29Z</time>
      </trkpt>
      <trkpt lat="42.054066" lon="2.640681">
        <ele>310.87454</ele>
        <time>2021-07-02T06:13:30Z</time>
      </trkpt>
      <trkpt lat="42.053925" lon="2.640634">
        <ele>309.41391</ele>
        <time>2021-07-02T06:13:31Z</time>
      </trkpt>
      <trkpt lat="42.053787" lon="2.640589">
        <ele>308.91971</ele>
        <time>2021-07-02T06:13:32Z</time>
      </trkpt>
      <trkpt lat="42.053661" lon="2.640546">
        <ele>308.23322</ele>
        <time>2021-07-02T06:13:33Z</time>
      </trkpt>
      <trkpt lat="42.053509" lon="2.640494">
        <ele>307.05673</ele>
        <time>2021-07-02T06:13:34Z</time>
      </trkpt>
      <trkpt lat="42.053368" lon="2.640446">
        <ele>306.46121</ele>
        <time>2021-07-02T06:13:35Z</time>
      </trkpt>
      <trkpt lat="42.053253" lon="2.640407">
        <ele>307.81601</ele>
        <time>2021-07-02T06:13:36Z</time>
      </trkpt>
      <trkpt lat="42.053146" lon="2.640361">
        <ele>307.43179</ele>
        <time>2021-07-02T06:13:37Z</time>
      </trkpt>
      <trkpt lat="42.053047" lon="2.640310">
        <ele>307.26852</ele>
        <time>2021-07-02T06:13:38Z</time>
      </trkpt>
      <trkpt lat="42.052940" lon="2.640234">
        <ele>304.41470</ele>
        <time>2021-07-02T06:13:39Z</time>
      </trkpt>
      <trkpt lat="42.052853" lon="2.640108">
        <ele>303.75259</ele>
        <time>2021-07-02T06:13:40Z</time>
      </trkpt>
      <trkpt lat="42.052769" lon="2.639974">
        <ele>303.26120</ele>
        <time>2021-07-02T06:13:41Z</time>
      </trkpt>
      <trkpt lat="42.052708" lon="2.639784">
        <ele>302.94870</ele>
        <time>2021-07-02T06:13:42Z</time>
      </trkpt>
      <trkpt lat="42.052650" lon="2.639592">
        <ele>301.39648</ele>
        <time>2021-07-02T06:13:43Z</time>
      </trkpt>
      <trkpt lat="42.052593" lon="2.639398">
        <ele>301.70810</ele>
        <time>2021-07-02T06:13:44Z</time>
      </trkpt>
      <trkpt lat="42.052509" lon="2.639127">
        <ele>300.79843</ele>
        <time>2021-07-02T06:13:45Z</time>
      </trkpt>
      <trkpt lat="42.052441" lon="2.638901">
        <ele>299.41342</ele>
        <time>2021-07-02T06:13:46Z</time>
      </trkpt>
      <trkpt lat="42.052372" lon="2.638669">
        <ele>297.79514</ele>
        <time>2021-07-02T06:13:47Z</time>
      </trkpt>
      <trkpt lat="42.052299" lon="2.638431">
        <ele>296.66379</ele>
        <time>2021-07-02T06:13:48Z</time>
      </trkpt>
      <trkpt lat="42.052231" lon="2.638192">
        <ele>295.08469</ele>
        <time>2021-07-02T06:13:49Z</time>
      </trkpt>
      <trkpt lat="42.052166" lon="2.637977">
        <ele>294.44748</ele>
        <time>2021-07-02T06:13:50Z</time>
      </trkpt>
      <trkpt lat="42.052101" lon="2.637764">
        <ele>293.20309</ele>
        <time>2021-07-02T06:13:51Z</time>
      </trkpt>
      <trkpt lat="42.052040" lon="2.637566">
        <ele>293.03625</ele>
        <time>2021-07-02T06:13:52Z</time>
      </trkpt>
      <trkpt lat="42.051991" lon="2.637372">
        <ele>292.38300</ele>
        <time>2021-07-02T06:13:53Z</time>
      </trkpt>
      <trkpt lat="42.051968" lon="2.637175">
        <ele>292.21011</ele>
        <time>2021-07-02T06:13:54Z</time>
      </trkpt>
      <trkpt lat="42.051971" lon="2.636971">
        <ele>292.45572</ele>
        <time>2021-07-02T06:13:55Z</time>
      </trkpt>
      <trkpt lat="42.051975" lon="2.636762">
        <ele>292.22684</ele>
        <time>2021-07-02T06:13:56Z</time>
      </trkpt>
      <trkpt lat="42.051979" lon="2.636567">
        <ele>292.07379</ele>
        <time>2021-07-02T06:13:57Z</time>
      </trkpt>
      <trkpt lat="42.051987" lon="2.636399">
        <ele>291.99155</ele>
        <time>2021-07-02T06:13:58Z</time>
      </trkpt>
      <trkpt lat="42.051994" lon="2.636250">
        <ele>291.59442</ele>
        <time>2021-07-02T06:13:59Z</time>
      </trkpt>
      <trkpt lat="42.051987" lon="2.636098">
        <ele>291.35672</ele>
        <time>2021-07-02T06:14:00Z</time>
      </trkpt>
      <trkpt lat="42.051968" lon="2.635960">
        <ele>291.00922</ele>
        <time>2021-07-02T06:14:01Z</time>
      </trkpt>
      <trkpt lat="42.051929" lon="2.635861">
        <ele>290.60049</ele>
        <time>2021-07-02T06:14:02Z</time>
      </trkpt>
      <trkpt lat="42.051868" lon="2.635751">
        <ele>290.71234</ele>
        <time>2021-07-02T06:14:03Z</time>
      </trkpt>
      <trkpt lat="42.051777" lon="2.635648">
        <ele>290.76559</ele>
        <time>2021-07-02T06:14:04Z</time>
      </trkpt>
      <trkpt lat="42.051689" lon="2.635550">
        <ele>290.96887</ele>
        <time>2021-07-02T06:14:05Z</time>
      </trkpt>
      <trkpt lat="42.051571" lon="2.635427">
        <ele>291.01056</ele>
        <time>2021-07-02T06:14:06Z</time>
      </trkpt>
      <trkpt lat="42.051414" lon="2.635281">
        <ele>290.85706</ele>
        <time>2021-07-02T06:14:07Z</time>
      </trkpt>
      <trkpt lat="42.051285" lon="2.635163">
        <ele>290.49158</ele>
        <time>2021-07-02T06:14:08Z</time>
      </trkpt>
      <trkpt lat="42.051147" lon="2.635055">
        <ele>290.45847</ele>
        <time>2021-07-02T06:14:09Z</time>
      </trkpt>
      <trkpt lat="42.051006" lon="2.634946">
        <ele>290.09637</ele>
        <time>2021-07-02T06:14:10Z</time>
      </trkpt>
      <trkpt lat="42.050865" lon="2.634852">
        <ele>289.40927</ele>
        <time>2021-07-02T06:14:11Z</time>
      </trkpt>
      <trkpt lat="42.050713" lon="2.634762">
        <ele>288.71045</ele>
        <time>2021-07-02T06:14:12Z</time>
      </trkpt>
      <trkpt lat="42.050579" lon="2.634711">
        <ele>288.34790</ele>
        <time>2021-07-02T06:14:13Z</time>
      </trkpt>
      <trkpt lat="42.050579" lon="2.634711">
        <ele>288.29459</ele>
        <time>2021-07-02T06:14:14Z</time>
      </trkpt>
      <trkpt lat="42.050442" lon="2.634666">
        <ele>287.51895</ele>
        <time>2021-07-02T06:14:15Z</time>
      </trkpt>
      <trkpt lat="42.050293" lon="2.634650">
        <ele>286.81854</ele>
        <time>2021-07-02T06:14:16Z</time>
      </trkpt>
      <trkpt lat="42.050129" lon="2.634632">
        <ele>286.07101</ele>
        <time>2021-07-02T06:14:17Z</time>
      </trkpt>
      <trkpt lat="42.050007" lon="2.634638">
        <ele>284.86459</ele>
        <time>2021-07-02T06:14:18Z</time>
      </trkpt>
      <trkpt lat="42.049904" lon="2.634650">
        <ele>284.33478</ele>
        <time>2021-07-02T06:14:19Z</time>
      </trkpt>
      <trkpt lat="42.049778" lon="2.634696">
        <ele>283.66165</ele>
        <time>2021-07-02T06:14:20Z</time>
      </trkpt>
      <trkpt lat="42.049625" lon="2.634752">
        <ele>282.33496</ele>
        <time>2021-07-02T06:14:21Z</time>
      </trkpt>
      <trkpt lat="42.049469" lon="2.634809">
        <ele>281.14981</ele>
        <time>2021-07-02T06:14:22Z</time>
      </trkpt>
      <trkpt lat="42.049320" lon="2.634863">
        <ele>280.02005</ele>
        <time>2021-07-02T06:14:23Z</time>
      </trkpt>
      <trkpt lat="42.049133" lon="2.634922">
        <ele>278.68060</ele>
        <time>2021-07-02T06:14:24Z</time>
      </trkpt>
      <trkpt lat="42.048950" lon="2.634977">
        <ele>277.49335</ele>
        <time>2021-07-02T06:14:25Z</time>
      </trkpt>
      <trkpt lat="42.048801" lon="2.634993">
        <ele>276.82230</ele>
        <time>2021-07-02T06:14:26Z</time>
      </trkpt>
      <trkpt lat="42.048717" lon="2.634918">
        <ele>276.19904</ele>
        <time>2021-07-02T06:14:27Z</time>
      </trkpt>
      <trkpt lat="42.048706" lon="2.634906">
        <ele>276.37271</ele>
        <time>2021-07-02T06:14:28Z</time>
      </trkpt>
      <trkpt lat="42.048649" lon="2.634836">
        <ele>276.72705</ele>
        <time>2021-07-02T06:14:29Z</time>
      </trkpt>
      <trkpt lat="42.048569" lon="2.634739">
        <ele>278.22513</ele>
        <time>2021-07-02T06:14:30Z</time>
      </trkpt>
      <trkpt lat="42.048450" lon="2.634575">
        <ele>278.43234</ele>
        <time>2021-07-02T06:14:31Z</time>
      </trkpt>
      <trkpt lat="42.048378" lon="2.634457">
        <ele>278.68826</ele>
        <time>2021-07-02T06:14:32Z</time>
      </trkpt>
      <trkpt lat="42.048321" lon="2.634368">
        <ele>279.25778</ele>
        <time>2021-07-02T06:14:33Z</time>
      </trkpt>
      <trkpt lat="42.048275" lon="2.634298">
        <ele>279.63882</ele>
        <time>2021-07-02T06:14:34Z</time>
      </trkpt>
      <trkpt lat="42.048225" lon="2.634223">
        <ele>280.09836</ele>
        <time>2021-07-02T06:14:35Z</time>
      </trkpt>
      <trkpt lat="42.048203" lon="2.634135">
        <ele>280.57764</ele>
        <time>2021-07-02T06:14:36Z</time>
      </trkpt>
      <trkpt lat="42.048203" lon="2.634135">
        <ele>280.70908</ele>
        <time>2021-07-02T06:14:37Z</time>
      </trkpt>
      <trkpt lat="42.048203" lon="2.634135">
        <ele>280.77017</ele>
        <time>2021-07-02T06:14:38Z</time>
      </trkpt>
      <trkpt lat="42.048203" lon="2.634135">
        <ele>280.83420</ele>
        <time>2021-07-02T06:14:39Z</time>
      </trkpt>
      <trkpt lat="42.048203" lon="2.634135">
        <ele>280.88397</ele>
        <time>2021-07-02T06:14:40Z</time>
      </trkpt>
      <trkpt lat="42.048203" lon="2.634135">
        <ele>280.79327</ele>
        <time>2021-07-02T06:14:41Z</time>
      </trkpt>
      <trkpt lat="42.048203" lon="2.634135">
        <ele>280.87369</ele>
        <time>2021-07-02T06:14:42Z</time>
      </trkpt>
      <trkpt lat="42.048203" lon="2.634135">
        <ele>280.94104</ele>
        <time>2021-07-02T06:14:43Z</time>
      </trkpt>
      <trkpt lat="42.048191" lon="2.634137">
        <ele>281.05096</ele>
        <time>2021-07-02T06:14:44Z</time>
      </trkpt>
      <trkpt lat="42.048176" lon="2.634144">
        <ele>281.14832</ele>
        <time>2021-07-02T06:14:45Z</time>
      </trkpt>
      <trkpt lat="42.048157" lon="2.634153">
        <ele>281.14127</ele>
        <time>2021-07-02T06:14:46Z</time>
      </trkpt>
      <trkpt lat="42.048096" lon="2.634181">
        <ele>281.06512</ele>
        <time>2021-07-02T06:14:47Z</time>
      </trkpt>
      <trkpt lat="42.047993" lon="2.634233">
        <ele>280.96347</ele>
        <time>2021-07-02T06:14:48Z</time>
      </trkpt>
      <trkpt lat="42.047916" lon="2.634282">
        <ele>280.80347</ele>
        <time>2021-07-02T06:14:49Z</time>
      </trkpt>
      <trkpt lat="42.047832" lon="2.634335">
        <ele>280.87140</ele>
        <time>2021-07-02T06:14:50Z</time>
      </trkpt>
      <trkpt lat="42.047741" lon="2.634405">
        <ele>280.94461</ele>
        <time>2021-07-02T06:14:51Z</time>
      </trkpt>
      <trkpt lat="42.047741" lon="2.634405">
        <ele>281.01416</ele>
        <time>2021-07-02T06:14:52Z</time>
      </trkpt>
      <trkpt lat="42.047630" lon="2.634533">
        <ele>281.07245</ele>
        <time>2021-07-02T06:14:53Z</time>
      </trkpt>
      <trkpt lat="42.047516" lon="2.634666">
        <ele>281.20874</ele>
        <time>2021-07-02T06:14:54Z</time>
      </trkpt>
      <trkpt lat="42.047390" lon="2.634812">
        <ele>280.86624</ele>
        <time>2021-07-02T06:14:55Z</time>
      </trkpt>
      <trkpt lat="42.047276" lon="2.634950">
        <ele>280.82120</ele>
        <time>2021-07-02T06:14:56Z</time>
      </trkpt>
      <trkpt lat="42.047195" lon="2.635094">
        <ele>280.99518</ele>
        <time>2021-07-02T06:14:57Z</time>
      </trkpt>
      <trkpt lat="42.047161" lon="2.635231">
        <ele>280.97644</ele>
        <time>2021-07-02T06:14:58Z</time>
      </trkpt>
      <trkpt lat="42.047142" lon="2.635398">
        <ele>280.51822</ele>
        <time>2021-07-02T06:14:59Z</time>
      </trkpt>
      <trkpt lat="42.047127" lon="2.635609">
        <ele>280.22736</ele>
        <time>2021-07-02T06:15:00Z</time>
      </trkpt>
      <trkpt lat="42.047073" lon="2.635759">
        <ele>280.08075</ele>
        <time>2021-07-02T06:15:01Z</time>
      </trkpt>
      <trkpt lat="42.047009" lon="2.635893">
        <ele>280.63873</ele>
        <time>2021-07-02T06:15:02Z</time>
      </trkpt>
      <trkpt lat="42.046936" lon="2.636047">
        <ele>280.58017</ele>
        <time>2021-07-02T06:15:03Z</time>
      </trkpt>
      <trkpt lat="42.046848" lon="2.636229">
        <ele>274.91220</ele>
        <time>2021-07-02T06:15:04Z</time>
      </trkpt>
      <trkpt lat="42.046677" lon="2.636586">
        <ele>274.97617</ele>
        <time>2021-07-02T06:15:05Z</time>
      </trkpt>
      <trkpt lat="42.046574" lon="2.636797">
        <ele>274.44492</ele>
        <time>2021-07-02T06:15:06Z</time>
      </trkpt>
      <trkpt lat="42.046444" lon="2.637047">
        <ele>274.69492</ele>
        <time>2021-07-02T06:15:07Z</time>
      </trkpt>
      <trkpt lat="42.046307" lon="2.637304">
        <ele>275.16171</ele>
        <time>2021-07-02T06:15:08Z</time>
      </trkpt>
      <trkpt lat="42.046173" lon="2.637546">
        <ele>275.88528</ele>
        <time>2021-07-02T06:15:09Z</time>
      </trkpt>
      <trkpt lat="42.046040" lon="2.637799">
        <ele>275.77048</ele>
        <time>2021-07-02T06:15:10Z</time>
      </trkpt>
      <trkpt lat="42.045906" lon="2.638070">
        <ele>275.98227</ele>
        <time>2021-07-02T06:15:11Z</time>
      </trkpt>
      <trkpt lat="42.045765" lon="2.638350">
        <ele>274.81625</ele>
        <time>2021-07-02T06:15:12Z</time>
      </trkpt>
      <trkpt lat="42.045647" lon="2.638586">
        <ele>273.68393</ele>
        <time>2021-07-02T06:15:13Z</time>
      </trkpt>
      <trkpt lat="42.045521" lon="2.638834">
        <ele>273.12149</ele>
        <time>2021-07-02T06:15:14Z</time>
      </trkpt>
      <trkpt lat="42.045387" lon="2.639091">
        <ele>271.91159</ele>
        <time>2021-07-02T06:15:15Z</time>
      </trkpt>
      <trkpt lat="42.045250" lon="2.639361">
        <ele>271.33798</ele>
        <time>2021-07-02T06:15:16Z</time>
      </trkpt>
      <trkpt lat="42.045116" lon="2.639619">
        <ele>271.08481</ele>
        <time>2021-07-02T06:15:17Z</time>
      </trkpt>
      <trkpt lat="42.044983" lon="2.639875">
        <ele>270.68088</ele>
        <time>2021-07-02T06:15:18Z</time>
      </trkpt>
      <trkpt lat="42.044849" lon="2.640137">
        <ele>269.53232</ele>
        <time>2021-07-02T06:15:19Z</time>
      </trkpt>
      <trkpt lat="42.044716" lon="2.640392">
        <ele>268.77597</ele>
        <time>2021-07-02T06:15:20Z</time>
      </trkpt>
      <trkpt lat="42.044598" lon="2.640613">
        <ele>268.92490</ele>
        <time>2021-07-02T06:15:21Z</time>
      </trkpt>
      <trkpt lat="42.044472" lon="2.640799">
        <ele>268.11618</ele>
        <time>2021-07-02T06:15:22Z</time>
      </trkpt>
      <trkpt lat="42.044334" lon="2.640947">
        <ele>267.67575</ele>
        <time>2021-07-02T06:15:23Z</time>
      </trkpt>
      <trkpt lat="42.044186" lon="2.641065">
        <ele>267.19955</ele>
        <time>2021-07-02T06:15:24Z</time>
      </trkpt>
      <trkpt lat="42.044006" lon="2.641162">
        <ele>266.62851</ele>
        <time>2021-07-02T06:15:25Z</time>
      </trkpt>
      <trkpt lat="42.043816" lon="2.641267">
        <ele>266.43649</ele>
        <time>2021-07-02T06:15:26Z</time>
      </trkpt>
      <trkpt lat="42.043625" lon="2.641370">
        <ele>266.16110</ele>
        <time>2021-07-02T06:15:27Z</time>
      </trkpt>
      <trkpt lat="42.043430" lon="2.641476">
        <ele>266.11014</ele>
        <time>2021-07-02T06:15:28Z</time>
      </trkpt>
      <trkpt lat="42.043224" lon="2.641588">
        <ele>265.35361</ele>
        <time>2021-07-02T06:15:29Z</time>
      </trkpt>
      <trkpt lat="42.043034" lon="2.641693">
        <ele>264.94089</ele>
        <time>2021-07-02T06:15:30Z</time>
      </trkpt>
      <trkpt lat="42.042835" lon="2.641773">
        <ele>264.48557</ele>
        <time>2021-07-02T06:15:31Z</time>
      </trkpt>
      <trkpt lat="42.042622" lon="2.641838">
        <ele>263.87521</ele>
        <time>2021-07-02T06:15:32Z</time>
      </trkpt>
      <trkpt lat="42.042404" lon="2.641902">
        <ele>262.85617</ele>
        <time>2021-07-02T06:15:33Z</time>
      </trkpt>
      <trkpt lat="42.042221" lon="2.641958">
        <ele>262.39182</ele>
        <time>2021-07-02T06:15:34Z</time>
      </trkpt>
      <trkpt lat="42.042042" lon="2.642011">
        <ele>261.79160</ele>
        <time>2021-07-02T06:15:35Z</time>
      </trkpt>
      <trkpt lat="42.041874" lon="2.642062">
        <ele>261.27255</ele>
        <time>2021-07-02T06:15:36Z</time>
      </trkpt>
      <trkpt lat="42.041874" lon="2.642062">
        <ele>260.60300</ele>
        <time>2021-07-02T06:15:37Z</time>
      </trkpt>
      <trkpt lat="42.041710" lon="2.642111">
        <ele>260.07126</ele>
        <time>2021-07-02T06:15:38Z</time>
      </trkpt>
      <trkpt lat="42.041592" lon="2.642127">
        <ele>259.05002</ele>
        <time>2021-07-02T06:15:39Z</time>
      </trkpt>
      <trkpt lat="42.041485" lon="2.642127">
        <ele>258.65732</ele>
        <time>2021-07-02T06:15:40Z</time>
      </trkpt>
      <trkpt lat="42.041367" lon="2.642074">
        <ele>257.24411</ele>
        <time>2021-07-02T06:15:41Z</time>
      </trkpt>
      <trkpt lat="42.041256" lon="2.641966">
        <ele>256.85880</ele>
        <time>2021-07-02T06:15:42Z</time>
      </trkpt>
      <trkpt lat="42.041145" lon="2.641851">
        <ele>256.60599</ele>
        <time>2021-07-02T06:15:43Z</time>
      </trkpt>
      <trkpt lat="42.041012" lon="2.641715">
        <ele>256.35101</ele>
        <time>2021-07-02T06:15:44Z</time>
      </trkpt>
      <trkpt lat="42.040874" lon="2.641590">
        <ele>256.07870</ele>
        <time>2021-07-02T06:15:45Z</time>
      </trkpt>
      <trkpt lat="42.040722" lon="2.641529">
        <ele>256.00690</ele>
        <time>2021-07-02T06:15:46Z</time>
      </trkpt>
      <trkpt lat="42.040554" lon="2.641477">
        <ele>255.84671</ele>
        <time>2021-07-02T06:15:47Z</time>
      </trkpt>
      <trkpt lat="42.040398" lon="2.641429">
        <ele>255.57622</ele>
        <time>2021-07-02T06:15:48Z</time>
      </trkpt>
      <trkpt lat="42.040279" lon="2.641392">
        <ele>254.97693</ele>
        <time>2021-07-02T06:15:49Z</time>
      </trkpt>
      <trkpt lat="42.040188" lon="2.641385">
        <ele>255.16646</ele>
        <time>2021-07-02T06:15:50Z</time>
      </trkpt>
      <trkpt lat="42.040051" lon="2.641471">
        <ele>255.25990</ele>
        <time>2021-07-02T06:15:51Z</time>
      </trkpt>
      <trkpt lat="42.040043" lon="2.641485">
        <ele>255.76836</ele>
        <time>2021-07-02T06:15:52Z</time>
      </trkpt>
      <trkpt lat="42.040009" lon="2.641568">
        <ele>256.04947</ele>
        <time>2021-07-02T06:15:53Z</time>
      </trkpt>
      <trkpt lat="42.039993" lon="2.641639">
        <ele>256.37189</ele>
        <time>2021-07-02T06:15:54Z</time>
      </trkpt>
      <trkpt lat="42.039967" lon="2.641863">
        <ele>256.32599</ele>
        <time>2021-07-02T06:15:55Z</time>
      </trkpt>
      <trkpt lat="42.039925" lon="2.642085">
        <ele>256.45895</ele>
        <time>2021-07-02T06:15:56Z</time>
      </trkpt>
      <trkpt lat="42.039860" lon="2.642267">
        <ele>256.48138</ele>
        <time>2021-07-02T06:15:57Z</time>
      </trkpt>
      <trkpt lat="42.039772" lon="2.642422">
        <ele>256.85831</ele>
        <time>2021-07-02T06:15:58Z</time>
      </trkpt>
      <trkpt lat="42.039650" lon="2.642578">
        <ele>257.20084</ele>
        <time>2021-07-02T06:15:59Z</time>
      </trkpt>
      <trkpt lat="42.039528" lon="2.642735">
        <ele>258.21469</ele>
        <time>2021-07-02T06:16:00Z</time>
      </trkpt>
      <trkpt lat="42.039345" lon="2.642969">
        <ele>258.21323</ele>
        <time>2021-07-02T06:16:01Z</time>
      </trkpt>
      <trkpt lat="42.039200" lon="2.643149">
        <ele>258.01968</ele>
        <time>2021-07-02T06:16:02Z</time>
      </trkpt>
      <trkpt lat="42.039059" lon="2.643331">
        <ele>257.88388</ele>
        <time>2021-07-02T06:16:03Z</time>
      </trkpt>
      <trkpt lat="42.038918" lon="2.643523">
        <ele>257.78806</ele>
        <time>2021-07-02T06:16:04Z</time>
      </trkpt>
      <trkpt lat="42.038776" lon="2.643707">
        <ele>257.44846</ele>
        <time>2021-07-02T06:16:05Z</time>
      </trkpt>
      <trkpt lat="42.038635" lon="2.643891">
        <ele>257.05106</ele>
        <time>2021-07-02T06:16:06Z</time>
      </trkpt>
      <trkpt lat="42.038490" lon="2.644081">
        <ele>257.14780</ele>
        <time>2021-07-02T06:16:07Z</time>
      </trkpt>
      <trkpt lat="42.038357" lon="2.644257">
        <ele>257.67294</ele>
        <time>2021-07-02T06:16:08Z</time>
      </trkpt>
      <trkpt lat="42.038231" lon="2.644425">
        <ele>257.14926</ele>
        <time>2021-07-02T06:16:09Z</time>
      </trkpt>
      <trkpt lat="42.038109" lon="2.644615">
        <ele>256.02597</ele>
        <time>2021-07-02T06:16:10Z</time>
      </trkpt>
      <trkpt lat="42.037987" lon="2.644814">
        <ele>255.75253</ele>
        <time>2021-07-02T06:16:11Z</time>
      </trkpt>
      <trkpt lat="42.037884" lon="2.645026">
        <ele>255.44040</ele>
        <time>2021-07-02T06:16:12Z</time>
      </trkpt>
      <trkpt lat="42.037781" lon="2.645253">
        <ele>255.77841</ele>
        <time>2021-07-02T06:16:13Z</time>
      </trkpt>
      <trkpt lat="42.037689" lon="2.645477">
        <ele>255.41458</ele>
        <time>2021-07-02T06:16:14Z</time>
      </trkpt>
      <trkpt lat="42.037594" lon="2.645715">
        <ele>254.11539</ele>
        <time>2021-07-02T06:16:15Z</time>
      </trkpt>
      <trkpt lat="42.037502" lon="2.645947">
        <ele>253.88858</ele>
        <time>2021-07-02T06:16:16Z</time>
      </trkpt>
      <trkpt lat="42.037422" lon="2.646167">
        <ele>250.90445</ele>
        <time>2021-07-02T06:16:17Z</time>
      </trkpt>
      <trkpt lat="42.037346" lon="2.646367">
        <ele>250.27495</ele>
        <time>2021-07-02T06:16:18Z</time>
      </trkpt>
      <trkpt lat="42.037266" lon="2.646548">
        <ele>249.91132</ele>
        <time>2021-07-02T06:16:19Z</time>
      </trkpt>
      <trkpt lat="42.037193" lon="2.646723">
        <ele>249.33273</ele>
        <time>2021-07-02T06:16:20Z</time>
      </trkpt>
      <trkpt lat="42.037125" lon="2.646881">
        <ele>249.22374</ele>
        <time>2021-07-02T06:16:21Z</time>
      </trkpt>
      <trkpt lat="42.037056" lon="2.647042">
        <ele>249.08517</ele>
        <time>2021-07-02T06:16:22Z</time>
      </trkpt>
      <trkpt lat="42.036980" lon="2.647191">
        <ele>249.05237</ele>
        <time>2021-07-02T06:16:23Z</time>
      </trkpt>
      <trkpt lat="42.036896" lon="2.647334">
        <ele>249.00543</ele>
        <time>2021-07-02T06:16:24Z</time>
      </trkpt>
      <trkpt lat="42.036800" lon="2.647455">
        <ele>249.19951</ele>
        <time>2021-07-02T06:16:25Z</time>
      </trkpt>
      <trkpt lat="42.036701" lon="2.647574">
        <ele>249.17836</ele>
        <time>2021-07-02T06:16:26Z</time>
      </trkpt>
      <trkpt lat="42.036621" lon="2.647689">
        <ele>249.15048</ele>
        <time>2021-07-02T06:16:27Z</time>
      </trkpt>
      <trkpt lat="42.036549" lon="2.647799">
        <ele>253.79025</ele>
        <time>2021-07-02T06:16:28Z</time>
      </trkpt>
      <trkpt lat="42.036491" lon="2.647886">
        <ele>248.92575</ele>
        <time>2021-07-02T06:16:29Z</time>
      </trkpt>
      <trkpt lat="42.036423" lon="2.647972">
        <ele>249.04570</ele>
        <time>2021-07-02T06:16:30Z</time>
      </trkpt>
      <trkpt lat="42.036423" lon="2.647972">
        <ele>249.25993</ele>
        <time>2021-07-02T06:16:31Z</time>
      </trkpt>
      <trkpt lat="42.036324" lon="2.648041">
        <ele>249.68916</ele>
        <time>2021-07-02T06:16:32Z</time>
      </trkpt>
      <trkpt lat="42.036186" lon="2.648085">
        <ele>250.28239</ele>
        <time>2021-07-02T06:16:33Z</time>
      </trkpt>
      <trkpt lat="42.036022" lon="2.648136">
        <ele>250.80025</ele>
        <time>2021-07-02T06:16:34Z</time>
      </trkpt>
      <trkpt lat="42.035854" lon="2.648188">
        <ele>251.02504</ele>
        <time>2021-07-02T06:16:35Z</time>
      </trkpt>
      <trkpt lat="42.035675" lon="2.648239">
        <ele>251.27333</ele>
        <time>2021-07-02T06:16:36Z</time>
      </trkpt>
      <trkpt lat="42.035480" lon="2.648294">
        <ele>251.44478</ele>
        <time>2021-07-02T06:16:37Z</time>
      </trkpt>
      <trkpt lat="42.035282" lon="2.648347">
        <ele>251.46162</ele>
        <time>2021-07-02T06:16:38Z</time>
      </trkpt>
      <trkpt lat="42.035126" lon="2.648428">
        <ele>251.72270</ele>
        <time>2021-07-02T06:16:39Z</time>
      </trkpt>
      <trkpt lat="42.034969" lon="2.648526">
        <ele>254.57321</ele>
        <time>2021-07-02T06:16:40Z</time>
      </trkpt>
      <trkpt lat="42.034794" lon="2.648634">
        <ele>254.42661</ele>
        <time>2021-07-02T06:16:41Z</time>
      </trkpt>
      <trkpt lat="42.034672" lon="2.648805">
        <ele>254.23685</ele>
        <time>2021-07-02T06:16:42Z</time>
      </trkpt>
      <trkpt lat="42.034542" lon="2.649020">
        <ele>253.60971</ele>
        <time>2021-07-02T06:16:43Z</time>
      </trkpt>
      <trkpt lat="42.034424" lon="2.649240">
        <ele>253.63693</ele>
        <time>2021-07-02T06:16:44Z</time>
      </trkpt>
      <trkpt lat="42.034298" lon="2.649475">
        <ele>253.40866</ele>
        <time>2021-07-02T06:16:45Z</time>
      </trkpt>
      <trkpt lat="42.034180" lon="2.649706">
        <ele>252.73593</ele>
        <time>2021-07-02T06:16:46Z</time>
      </trkpt>
      <trkpt lat="42.034050" lon="2.649958">
        <ele>251.64163</ele>
        <time>2021-07-02T06:16:47Z</time>
      </trkpt>
      <trkpt lat="42.033920" lon="2.650202">
        <ele>251.03867</ele>
        <time>2021-07-02T06:16:48Z</time>
      </trkpt>
      <trkpt lat="42.033794" lon="2.650443">
        <ele>250.92276</ele>
        <time>2021-07-02T06:16:49Z</time>
      </trkpt>
      <trkpt lat="42.033653" lon="2.650704">
        <ele>250.45236</ele>
        <time>2021-07-02T06:16:50Z</time>
      </trkpt>
      <trkpt lat="42.033524" lon="2.650953">
        <ele>250.49918</ele>
        <time>2021-07-02T06:16:51Z</time>
      </trkpt>
      <trkpt lat="42.033390" lon="2.651200">
        <ele>250.48691</ele>
        <time>2021-07-02T06:16:52Z</time>
      </trkpt>
      <trkpt lat="42.033257" lon="2.651454">
        <ele>250.33170</ele>
        <time>2021-07-02T06:16:53Z</time>
      </trkpt>
      <trkpt lat="42.033119" lon="2.651709">
        <ele>250.11813</ele>
        <time>2021-07-02T06:16:54Z</time>
      </trkpt>
      <trkpt lat="42.032986" lon="2.651963">
        <ele>249.98764</ele>
        <time>2021-07-02T06:16:55Z</time>
      </trkpt>
      <trkpt lat="42.032852" lon="2.652213">
        <ele>249.72787</ele>
        <time>2021-07-02T06:16:56Z</time>
      </trkpt>
      <trkpt lat="42.032707" lon="2.652481">
        <ele>249.79184</ele>
        <time>2021-07-02T06:16:57Z</time>
      </trkpt>
      <trkpt lat="42.032570" lon="2.652741">
        <ele>249.86227</ele>
        <time>2021-07-02T06:16:58Z</time>
      </trkpt>
      <trkpt lat="42.032429" lon="2.653011">
        <ele>250.02499</ele>
        <time>2021-07-02T06:16:59Z</time>
      </trkpt>
      <trkpt lat="42.032280" lon="2.653289">
        <ele>249.78220</ele>
        <time>2021-07-02T06:17:00Z</time>
      </trkpt>
      <trkpt lat="42.032143" lon="2.653554">
        <ele>250.01938</ele>
        <time>2021-07-02T06:17:01Z</time>
      </trkpt>
      <trkpt lat="42.031998" lon="2.653825">
        <ele>250.47165</ele>
        <time>2021-07-02T06:17:02Z</time>
      </trkpt>
      <trkpt lat="42.031853" lon="2.654100">
        <ele>250.59152</ele>
        <time>2021-07-02T06:17:03Z</time>
      </trkpt>
      <trkpt lat="42.031712" lon="2.654369">
        <ele>250.57309</ele>
        <time>2021-07-02T06:17:04Z</time>
      </trkpt>
      <trkpt lat="42.031567" lon="2.654642">
        <ele>250.08463</ele>
        <time>2021-07-02T06:17:05Z</time>
      </trkpt>
      <trkpt lat="42.031425" lon="2.654910">
        <ele>249.38925</ele>
        <time>2021-07-02T06:17:06Z</time>
      </trkpt>
      <trkpt lat="42.031277" lon="2.655194">
        <ele>248.83035</ele>
        <time>2021-07-02T06:17:07Z</time>
      </trkpt>
      <trkpt lat="42.031132" lon="2.655470">
        <ele>248.54245</ele>
        <time>2021-07-02T06:17:08Z</time>
      </trkpt>
      <trkpt lat="42.030983" lon="2.655746">
        <ele>247.97617</ele>
        <time>2021-07-02T06:17:09Z</time>
      </trkpt>
      <trkpt lat="42.030838" lon="2.656017">
        <ele>247.09531</ele>
        <time>2021-07-02T06:17:10Z</time>
      </trkpt>
      <trkpt lat="42.030689" lon="2.656294">
        <ele>246.37607</ele>
        <time>2021-07-02T06:17:11Z</time>
      </trkpt>
      <trkpt lat="42.030548" lon="2.656563">
        <ele>245.50272</ele>
        <time>2021-07-02T06:17:12Z</time>
      </trkpt>
      <trkpt lat="42.030403" lon="2.656834">
        <ele>244.67892</ele>
        <time>2021-07-02T06:17:13Z</time>
      </trkpt>
      <trkpt lat="42.030258" lon="2.657106">
        <ele>244.17844</ele>
        <time>2021-07-02T06:17:14Z</time>
      </trkpt>
      <trkpt lat="42.030113" lon="2.657382">
        <ele>243.96841</ele>
        <time>2021-07-02T06:17:15Z</time>
      </trkpt>
      <trkpt lat="42.029968" lon="2.657657">
        <ele>243.09384</ele>
        <time>2021-07-02T06:17:16Z</time>
      </trkpt>
      <trkpt lat="42.029812" lon="2.657948">
        <ele>242.58273</ele>
        <time>2021-07-02T06:17:17Z</time>
      </trkpt>
      <trkpt lat="42.029655" lon="2.658243">
        <ele>241.81784</ele>
        <time>2021-07-02T06:17:18Z</time>
      </trkpt>
      <trkpt lat="42.029507" lon="2.658528">
        <ele>241.18576</ele>
        <time>2021-07-02T06:17:19Z</time>
      </trkpt>
      <trkpt lat="42.029507" lon="2.658528">
        <ele>240.31900</ele>
        <time>2021-07-02T06:17:20Z</time>
      </trkpt>
      <trkpt lat="42.029350" lon="2.658819">
        <ele>239.77548</ele>
        <time>2021-07-02T06:17:21Z</time>
      </trkpt>
      <trkpt lat="42.029202" lon="2.659097">
        <ele>239.48203</ele>
        <time>2021-07-02T06:17:22Z</time>
      </trkpt>
      <trkpt lat="42.029057" lon="2.659357">
        <ele>239.29922</ele>
        <time>2021-07-02T06:17:23Z</time>
      </trkpt>
      <trkpt lat="42.028896" lon="2.659633">
        <ele>238.93118</ele>
        <time>2021-07-02T06:17:24Z</time>
      </trkpt>
      <trkpt lat="42.028732" lon="2.659920">
        <ele>238.98557</ele>
        <time>2021-07-02T06:17:25Z</time>
      </trkpt>
      <trkpt lat="42.028576" lon="2.660195">
        <ele>238.75729</ele>
        <time>2021-07-02T06:17:26Z</time>
      </trkpt>
      <trkpt lat="42.028431" lon="2.660485">
        <ele>238.73221</ele>
        <time>2021-07-02T06:17:27Z</time>
      </trkpt>
      <trkpt lat="42.028286" lon="2.660773">
        <ele>238.85666</ele>
        <time>2021-07-02T06:17:28Z</time>
      </trkpt>
      <trkpt lat="42.028141" lon="2.661062">
        <ele>238.79477</ele>
        <time>2021-07-02T06:17:29Z</time>
      </trkpt>
      <trkpt lat="42.028008" lon="2.661329">
        <ele>238.47629</ele>
        <time>2021-07-02T06:17:30Z</time>
      </trkpt>
      <trkpt lat="42.027866" lon="2.661597">
        <ele>238.42209</ele>
        <time>2021-07-02T06:17:31Z</time>
      </trkpt>
      <trkpt lat="42.027729" lon="2.661857">
        <ele>238.29214</ele>
        <time>2021-07-02T06:17:32Z</time>
      </trkpt>
      <trkpt lat="42.027584" lon="2.662127">
        <ele>238.07578</ele>
        <time>2021-07-02T06:17:33Z</time>
      </trkpt>
      <trkpt lat="42.027451" lon="2.662383">
        <ele>237.59146</ele>
        <time>2021-07-02T06:17:34Z</time>
      </trkpt>
      <trkpt lat="42.027306" lon="2.662653">
        <ele>237.37314</ele>
        <time>2021-07-02T06:17:35Z</time>
      </trkpt>
      <trkpt lat="42.027161" lon="2.662933">
        <ele>237.70822</ele>
        <time>2021-07-02T06:17:36Z</time>
      </trkpt>
      <trkpt lat="42.027023" lon="2.663197">
        <ele>237.40054</ele>
        <time>2021-07-02T06:17:37Z</time>
      </trkpt>
      <trkpt lat="42.026890" lon="2.663459">
        <ele>237.13864</ele>
        <time>2021-07-02T06:17:38Z</time>
      </trkpt>
      <trkpt lat="42.026745" lon="2.663724">
        <ele>236.88101</ele>
        <time>2021-07-02T06:17:39Z</time>
      </trkpt>
      <trkpt lat="42.026608" lon="2.663984">
        <ele>237.02048</ele>
        <time>2021-07-02T06:17:40Z</time>
      </trkpt>
      <trkpt lat="42.026463" lon="2.664247">
        <ele>236.64767</ele>
        <time>2021-07-02T06:17:41Z</time>
      </trkpt>
      <trkpt lat="42.026333" lon="2.664492">
        <ele>236.87430</ele>
        <time>2021-07-02T06:17:42Z</time>
      </trkpt>
      <trkpt lat="42.026218" lon="2.664714">
        <ele>236.61887</ele>
        <time>2021-07-02T06:17:43Z</time>
      </trkpt>
      <trkpt lat="42.026104" lon="2.664934">
        <ele>236.70602</ele>
        <time>2021-07-02T06:17:44Z</time>
      </trkpt>
      <trkpt lat="42.026005" lon="2.665129">
        <ele>236.50235</ele>
        <time>2021-07-02T06:17:45Z</time>
      </trkpt>
      <trkpt lat="42.025902" lon="2.665317">
        <ele>235.07808</ele>
        <time>2021-07-02T06:17:46Z</time>
      </trkpt>
      <trkpt lat="42.025803" lon="2.665494">
        <ele>235.01073</ele>
        <time>2021-07-02T06:17:47Z</time>
      </trkpt>
      <trkpt lat="42.025719" lon="2.665659">
        <ele>234.58412</ele>
        <time>2021-07-02T06:17:48Z</time>
      </trkpt>
      <trkpt lat="42.025673" lon="2.665796">
        <ele>233.94717</ele>
        <time>2021-07-02T06:17:49Z</time>
      </trkpt>
      <trkpt lat="42.025658" lon="2.665930">
        <ele>233.98592</ele>
        <time>2021-07-02T06:17:50Z</time>
      </trkpt>
      <trkpt lat="42.025673" lon="2.666080">
        <ele>234.00386</ele>
        <time>2021-07-02T06:17:51Z</time>
      </trkpt>
      <trkpt lat="42.025723" lon="2.666220">
        <ele>234.40950</ele>
        <time>2021-07-02T06:17:52Z</time>
      </trkpt>
      <trkpt lat="42.025795" lon="2.666339">
        <ele>234.49005</ele>
        <time>2021-07-02T06:17:53Z</time>
      </trkpt>
      <trkpt lat="42.025902" lon="2.666446">
        <ele>234.60339</ele>
        <time>2021-07-02T06:17:54Z</time>
      </trkpt>
      <trkpt lat="42.026005" lon="2.666530">
        <ele>235.24307</ele>
        <time>2021-07-02T06:17:55Z</time>
      </trkpt>
      <trkpt lat="42.026138" lon="2.666645">
        <ele>235.56068</ele>
        <time>2021-07-02T06:17:56Z</time>
      </trkpt>
      <trkpt lat="42.026325" lon="2.666792">
        <ele>235.39249</ele>
        <time>2021-07-02T06:17:57Z</time>
      </trkpt>
      <trkpt lat="42.026325" lon="2.666792">
        <ele>235.57704</ele>
        <time>2021-07-02T06:17:58Z</time>
      </trkpt>
      <trkpt lat="42.026600" lon="2.667021">
        <ele>235.60399</ele>
        <time>2021-07-02T06:17:59Z</time>
      </trkpt>
      <trkpt lat="42.026600" lon="2.667021">
        <ele>235.38708</ele>
        <time>2021-07-02T06:18:00Z</time>
      </trkpt>
      <trkpt lat="42.026730" lon="2.667136">
        <ele>235.35426</ele>
        <time>2021-07-02T06:18:01Z</time>
      </trkpt>
      <trkpt lat="42.026844" lon="2.667238">
        <ele>235.67574</ele>
        <time>2021-07-02T06:18:02Z</time>
      </trkpt>
      <trkpt lat="42.026905" lon="2.667393">
        <ele>235.99297</ele>
        <time>2021-07-02T06:18:03Z</time>
      </trkpt>
      <trkpt lat="42.026970" lon="2.667560">
        <ele>236.27104</ele>
        <time>2021-07-02T06:18:04Z</time>
      </trkpt>
      <trkpt lat="42.027054" lon="2.667779">
        <ele>236.88576</ele>
        <time>2021-07-02T06:18:05Z</time>
      </trkpt>
      <trkpt lat="42.027142" lon="2.668004">
        <ele>237.47021</ele>
        <time>2021-07-02T06:18:06Z</time>
      </trkpt>
      <trkpt lat="42.027206" lon="2.668245">
        <ele>237.27347</ele>
        <time>2021-07-02T06:18:07Z</time>
      </trkpt>
      <trkpt lat="42.027260" lon="2.668471">
        <ele>237.63116</ele>
        <time>2021-07-02T06:18:08Z</time>
      </trkpt>
      <trkpt lat="42.027283" lon="2.668689">
        <ele>237.68224</ele>
        <time>2021-07-02T06:18:09Z</time>
      </trkpt>
      <trkpt lat="42.027302" lon="2.668869">
        <ele>238.76930</ele>
        <time>2021-07-02T06:18:10Z</time>
      </trkpt>
      <trkpt lat="42.027313" lon="2.669102">
        <ele>238.78845</ele>
        <time>2021-07-02T06:18:11Z</time>
      </trkpt>
      <trkpt lat="42.027344" lon="2.669363">
        <ele>238.75636</ele>
        <time>2021-07-02T06:18:12Z</time>
      </trkpt>
      <trkpt lat="42.027382" lon="2.669552">
        <ele>238.77556</ele>
        <time>2021-07-02T06:18:13Z</time>
      </trkpt>
      <trkpt lat="42.027439" lon="2.669725">
        <ele>238.86610</ele>
        <time>2021-07-02T06:18:14Z</time>
      </trkpt>
      <trkpt lat="42.027512" lon="2.669880">
        <ele>238.36165</ele>
        <time>2021-07-02T06:18:15Z</time>
      </trkpt>
      <trkpt lat="42.027538" lon="2.670002">
        <ele>238.24225</ele>
        <time>2021-07-02T06:18:16Z</time>
      </trkpt>
      <trkpt lat="42.027542" lon="2.670095">
        <ele>238.76184</ele>
        <time>2021-07-02T06:18:17Z</time>
      </trkpt>
      <trkpt lat="42.027538" lon="2.670281">
        <ele>238.70609</ele>
        <time>2021-07-02T06:18:18Z</time>
      </trkpt>
      <trkpt lat="42.027519" lon="2.670501">
        <ele>239.64763</ele>
        <time>2021-07-02T06:18:19Z</time>
      </trkpt>
      <trkpt lat="42.027473" lon="2.670688">
        <ele>240.95575</ele>
        <time>2021-07-02T06:18:20Z</time>
      </trkpt>
      <trkpt lat="42.027424" lon="2.670849">
        <ele>241.87083</ele>
        <time>2021-07-02T06:18:21Z</time>
      </trkpt>
      <trkpt lat="42.027348" lon="2.671066">
        <ele>242.45354</ele>
        <time>2021-07-02T06:18:22Z</time>
      </trkpt>
      <trkpt lat="42.027271" lon="2.671365">
        <ele>243.85582</ele>
        <time>2021-07-02T06:18:23Z</time>
      </trkpt>
      <trkpt lat="42.027168" lon="2.671632">
        <ele>243.88315</ele>
        <time>2021-07-02T06:18:24Z</time>
      </trkpt>
      <trkpt lat="42.027058" lon="2.671824">
        <ele>244.44395</ele>
        <time>2021-07-02T06:18:25Z</time>
      </trkpt>
      <trkpt lat="42.026951" lon="2.672015">
        <ele>244.83112</ele>
        <time>2021-07-02T06:18:26Z</time>
      </trkpt>
      <trkpt lat="42.026852" lon="2.672178">
        <ele>245.15581</ele>
        <time>2021-07-02T06:18:27Z</time>
      </trkpt>
      <trkpt lat="42.026783" lon="2.672325">
        <ele>245.46460</ele>
        <time>2021-07-02T06:18:28Z</time>
      </trkpt>
      <trkpt lat="42.026749" lon="2.672486">
        <ele>245.95737</ele>
        <time>2021-07-02T06:18:29Z</time>
      </trkpt>
      <trkpt lat="42.026733" lon="2.672673">
        <ele>246.43988</ele>
        <time>2021-07-02T06:18:30Z</time>
      </trkpt>
      <trkpt lat="42.026752" lon="2.672886">
        <ele>246.70326</ele>
        <time>2021-07-02T06:18:31Z</time>
      </trkpt>
      <trkpt lat="42.026798" lon="2.673115">
        <ele>246.86574</ele>
        <time>2021-07-02T06:18:32Z</time>
      </trkpt>
      <trkpt lat="42.026897" lon="2.673317">
        <ele>243.54684</ele>
        <time>2021-07-02T06:18:33Z</time>
      </trkpt>
      <trkpt lat="42.027012" lon="2.673415">
        <ele>246.48569</ele>
        <time>2021-07-02T06:18:34Z</time>
      </trkpt>
      <trkpt lat="42.027122" lon="2.673505">
        <ele>246.90996</ele>
        <time>2021-07-02T06:18:35Z</time>
      </trkpt>
      <trkpt lat="42.027283" lon="2.673621">
        <ele>246.78064</ele>
        <time>2021-07-02T06:18:36Z</time>
      </trkpt>
      <trkpt lat="42.027439" lon="2.673738">
        <ele>246.64375</ele>
        <time>2021-07-02T06:18:37Z</time>
      </trkpt>
      <trkpt lat="42.027550" lon="2.673864">
        <ele>246.22046</ele>
        <time>2021-07-02T06:18:38Z</time>
      </trkpt>
      <trkpt lat="42.027630" lon="2.673994">
        <ele>245.70566</ele>
        <time>2021-07-02T06:18:39Z</time>
      </trkpt>
      <trkpt lat="42.027695" lon="2.674141">
        <ele>245.77333</ele>
        <time>2021-07-02T06:18:40Z</time>
      </trkpt>
      <trkpt lat="42.027733" lon="2.674307">
        <ele>245.84973</ele>
        <time>2021-07-02T06:18:41Z</time>
      </trkpt>
      <trkpt lat="42.027718" lon="2.674497">
        <ele>246.01433</ele>
        <time>2021-07-02T06:18:42Z</time>
      </trkpt>
      <trkpt lat="42.027687" lon="2.674687">
        <ele>247.47749</ele>
        <time>2021-07-02T06:18:43Z</time>
      </trkpt>
      <trkpt lat="42.027653" lon="2.674835">
        <ele>248.52632</ele>
        <time>2021-07-02T06:18:44Z</time>
      </trkpt>
      <trkpt lat="42.027603" lon="2.675041">
        <ele>248.87189</ele>
        <time>2021-07-02T06:18:45Z</time>
      </trkpt>
      <trkpt lat="42.027534" lon="2.675284">
        <ele>249.66342</ele>
        <time>2021-07-02T06:18:46Z</time>
      </trkpt>
      <trkpt lat="42.027439" lon="2.675510">
        <ele>250.40221</ele>
        <time>2021-07-02T06:18:47Z</time>
      </trkpt>
      <trkpt lat="42.027313" lon="2.675715">
        <ele>250.77826</ele>
        <time>2021-07-02T06:18:48Z</time>
      </trkpt>
      <trkpt lat="42.027187" lon="2.675864">
        <ele>251.04558</ele>
        <time>2021-07-02T06:18:49Z</time>
      </trkpt>
      <trkpt lat="42.027096" lon="2.675934">
        <ele>251.01366</ele>
        <time>2021-07-02T06:18:50Z</time>
      </trkpt>
      <trkpt lat="42.026997" lon="2.675958">
        <ele>251.06570</ele>
        <time>2021-07-02T06:18:51Z</time>
      </trkpt>
      <trkpt lat="42.026997" lon="2.675958">
        <ele>252.80632</ele>
        <time>2021-07-02T06:18:52Z</time>
      </trkpt>
      <trkpt lat="42.026833" lon="2.675955">
        <ele>253.61084</ele>
        <time>2021-07-02T06:18:53Z</time>
      </trkpt>
      <trkpt lat="42.026707" lon="2.675952">
        <ele>254.19676</ele>
        <time>2021-07-02T06:18:54Z</time>
      </trkpt>
      <trkpt lat="42.026485" lon="2.675948">
        <ele>255.54413</ele>
        <time>2021-07-02T06:18:55Z</time>
      </trkpt>
      <trkpt lat="42.026299" lon="2.675944">
        <ele>255.92976</ele>
        <time>2021-07-02T06:18:56Z</time>
      </trkpt>
      <trkpt lat="42.026112" lon="2.675948">
        <ele>256.24271</ele>
        <time>2021-07-02T06:18:57Z</time>
      </trkpt>
      <trkpt lat="42.025925" lon="2.675954">
        <ele>257.44644</ele>
        <time>2021-07-02T06:18:58Z</time>
      </trkpt>
      <trkpt lat="42.025749" lon="2.675960">
        <ele>257.95895</ele>
        <time>2021-07-02T06:18:59Z</time>
      </trkpt>
      <trkpt lat="42.025574" lon="2.675966">
        <ele>258.05304</ele>
        <time>2021-07-02T06:19:00Z</time>
      </trkpt>
      <trkpt lat="42.025387" lon="2.675978">
        <ele>258.25821</ele>
        <time>2021-07-02T06:19:01Z</time>
      </trkpt>
      <trkpt lat="42.025234" lon="2.675988">
        <ele>258.22388</ele>
        <time>2021-07-02T06:19:02Z</time>
      </trkpt>
      <trkpt lat="42.025082" lon="2.675998">
        <ele>258.26547</ele>
        <time>2021-07-02T06:19:03Z</time>
      </trkpt>
      <trkpt lat="42.024952" lon="2.676007">
        <ele>258.51767</ele>
        <time>2021-07-02T06:19:04Z</time>
      </trkpt>
      <trkpt lat="42.024811" lon="2.676091">
        <ele>259.70129</ele>
        <time>2021-07-02T06:19:05Z</time>
      </trkpt>
      <trkpt lat="42.024658" lon="2.676217">
        <ele>259.91827</ele>
        <time>2021-07-02T06:19:06Z</time>
      </trkpt>
      <trkpt lat="42.024506" lon="2.676341">
        <ele>259.73682</ele>
        <time>2021-07-02T06:19:07Z</time>
      </trkpt>
      <trkpt lat="42.024380" lon="2.676445">
        <ele>260.31619</ele>
        <time>2021-07-02T06:19:08Z</time>
      </trkpt>
      <trkpt lat="42.024204" lon="2.676599">
        <ele>260.23767</ele>
        <time>2021-07-02T06:19:09Z</time>
      </trkpt>
      <trkpt lat="42.024036" lon="2.676767">
        <ele>260.01605</ele>
        <time>2021-07-02T06:19:10Z</time>
      </trkpt>
      <trkpt lat="42.023903" lon="2.676935">
        <ele>260.32513</ele>
        <time>2021-07-02T06:19:11Z</time>
      </trkpt>
      <trkpt lat="42.023785" lon="2.677121">
        <ele>258.13742</ele>
        <time>2021-07-02T06:19:12Z</time>
      </trkpt>
      <trkpt lat="42.023666" lon="2.677318">
        <ele>258.56161</ele>
        <time>2021-07-02T06:19:13Z</time>
      </trkpt>
      <trkpt lat="42.023533" lon="2.677531">
        <ele>258.69272</ele>
        <time>2021-07-02T06:19:14Z</time>
      </trkpt>
      <trkpt lat="42.023411" lon="2.677772">
        <ele>258.69626</ele>
        <time>2021-07-02T06:19:15Z</time>
      </trkpt>
      <trkpt lat="42.023281" lon="2.678000">
        <ele>258.46957</ele>
        <time>2021-07-02T06:19:16Z</time>
      </trkpt>
      <trkpt lat="42.023155" lon="2.678222">
        <ele>258.46957</ele>
        <time>2021-07-02T06:19:17Z</time>
      </trkpt>
      <trkpt lat="42.023033" lon="2.678435">
        <ele>258.43375</ele>
        <time>2021-07-02T06:19:18Z</time>
      </trkpt>
      <trkpt lat="42.022919" lon="2.678618">
        <ele>259.84525</ele>
        <time>2021-07-02T06:19:19Z</time>
      </trkpt>
      <trkpt lat="42.022812" lon="2.678769">
        <ele>259.72974</ele>
        <time>2021-07-02T06:19:20Z</time>
      </trkpt>
      <trkpt lat="42.022705" lon="2.678923">
        <ele>258.89291</ele>
        <time>2021-07-02T06:19:21Z</time>
      </trkpt>
      <trkpt lat="42.022625" lon="2.679102">
        <ele>259.23862</ele>
        <time>2021-07-02T06:19:22Z</time>
      </trkpt>
      <trkpt lat="42.022572" lon="2.679272">
        <ele>259.63486</ele>
        <time>2021-07-02T06:19:23Z</time>
      </trkpt>
      <trkpt lat="42.022507" lon="2.679488">
        <ele>259.20639</ele>
        <time>2021-07-02T06:19:24Z</time>
      </trkpt>
      <trkpt lat="42.022434" lon="2.679733">
        <ele>259.95749</ele>
        <time>2021-07-02T06:19:25Z</time>
      </trkpt>
      <trkpt lat="42.022358" lon="2.679989">
        <ele>260.56870</ele>
        <time>2021-07-02T06:19:26Z</time>
      </trkpt>
      <trkpt lat="42.022285" lon="2.680245">
        <ele>259.79416</ele>
        <time>2021-07-02T06:19:27Z</time>
      </trkpt>
      <trkpt lat="42.022209" lon="2.680504">
        <ele>259.64645</ele>
        <time>2021-07-02T06:19:28Z</time>
      </trkpt>
      <trkpt lat="42.022163" lon="2.680661">
        <ele>259.04788</ele>
        <time>2021-07-02T06:19:29Z</time>
      </trkpt>
      <trkpt lat="42.022087" lon="2.680930">
        <ele>259.15610</ele>
        <time>2021-07-02T06:19:30Z</time>
      </trkpt>
      <trkpt lat="42.021999" lon="2.681227">
        <ele>258.64224</ele>
        <time>2021-07-02T06:19:31Z</time>
      </trkpt>
      <trkpt lat="42.021931" lon="2.681473">
        <ele>258.29453</ele>
        <time>2021-07-02T06:19:32Z</time>
      </trkpt>
      <trkpt lat="42.021862" lon="2.681715">
        <ele>257.91904</ele>
        <time>2021-07-02T06:19:33Z</time>
      </trkpt>
      <trkpt lat="42.021790" lon="2.681969">
        <ele>257.58670</ele>
        <time>2021-07-02T06:19:34Z</time>
      </trkpt>
      <trkpt lat="42.021713" lon="2.682224">
        <ele>256.83328</ele>
        <time>2021-07-02T06:19:35Z</time>
      </trkpt>
      <trkpt lat="42.021645" lon="2.682475">
        <ele>256.46500</ele>
        <time>2021-07-02T06:19:36Z</time>
      </trkpt>
      <trkpt lat="42.021645" lon="2.682475">
        <ele>255.89719</ele>
        <time>2021-07-02T06:19:37Z</time>
      </trkpt>
      <trkpt lat="42.021568" lon="2.682727">
        <ele>255.53000</ele>
        <time>2021-07-02T06:19:38Z</time>
      </trkpt>
      <trkpt lat="42.021500" lon="2.682977">
        <ele>255.10092</ele>
        <time>2021-07-02T06:19:39Z</time>
      </trkpt>
      <trkpt lat="42.021427" lon="2.683226">
        <ele>254.88278</ele>
        <time>2021-07-02T06:19:40Z</time>
      </trkpt>
      <trkpt lat="42.021351" lon="2.683489">
        <ele>254.28769</ele>
        <time>2021-07-02T06:19:41Z</time>
      </trkpt>
      <trkpt lat="42.021282" lon="2.683733">
        <ele>252.88406</ele>
        <time>2021-07-02T06:19:42Z</time>
      </trkpt>
      <trkpt lat="42.021221" lon="2.683950">
        <ele>252.97018</ele>
        <time>2021-07-02T06:19:43Z</time>
      </trkpt>
      <trkpt lat="42.021179" lon="2.684156">
        <ele>252.69888</ele>
        <time>2021-07-02T06:19:44Z</time>
      </trkpt>
      <trkpt lat="42.021160" lon="2.684319">
        <ele>250.38756</ele>
        <time>2021-07-02T06:19:45Z</time>
      </trkpt>
      <trkpt lat="42.021183" lon="2.684457">
        <ele>249.36769</ele>
        <time>2021-07-02T06:19:46Z</time>
      </trkpt>
      <trkpt lat="42.021252" lon="2.684622">
        <ele>249.20630</ele>
        <time>2021-07-02T06:19:47Z</time>
      </trkpt>
      <trkpt lat="42.021347" lon="2.684726">
        <ele>249.21568</ele>
        <time>2021-07-02T06:19:48Z</time>
      </trkpt>
      <trkpt lat="42.021458" lon="2.684824">
        <ele>248.68013</ele>
        <time>2021-07-02T06:19:49Z</time>
      </trkpt>
      <trkpt lat="42.021599" lon="2.684913">
        <ele>248.82040</ele>
        <time>2021-07-02T06:19:50Z</time>
      </trkpt>
      <trkpt lat="42.021729" lon="2.684997">
        <ele>248.62311</ele>
        <time>2021-07-02T06:19:51Z</time>
      </trkpt>
      <trkpt lat="42.021893" lon="2.685068">
        <ele>248.33759</ele>
        <time>2021-07-02T06:19:52Z</time>
      </trkpt>
      <trkpt lat="42.022076" lon="2.685146">
        <ele>247.88956</ele>
        <time>2021-07-02T06:19:53Z</time>
      </trkpt>
      <trkpt lat="42.022232" lon="2.685214">
        <ele>247.61607</ele>
        <time>2021-07-02T06:19:54Z</time>
      </trkpt>
      <trkpt lat="42.022373" lon="2.685283">
        <ele>247.27315</ele>
        <time>2021-07-02T06:19:55Z</time>
      </trkpt>
      <trkpt lat="42.022495" lon="2.685353">
        <ele>246.59981</ele>
        <time>2021-07-02T06:19:56Z</time>
      </trkpt>
      <trkpt lat="42.022594" lon="2.685441">
        <ele>246.28310</ele>
        <time>2021-07-02T06:19:57Z</time>
      </trkpt>
      <trkpt lat="42.022690" lon="2.685544">
        <ele>246.21767</ele>
        <time>2021-07-02T06:19:58Z</time>
      </trkpt>
      <trkpt lat="42.022751" lon="2.685681">
        <ele>245.57724</ele>
        <time>2021-07-02T06:19:59Z</time>
      </trkpt>
      <trkpt lat="42.022774" lon="2.685832">
        <ele>245.21242</ele>
        <time>2021-07-02T06:20:00Z</time>
      </trkpt>
      <trkpt lat="42.022774" lon="2.685980">
        <ele>245.49849</ele>
        <time>2021-07-02T06:20:01Z</time>
      </trkpt>
      <trkpt lat="42.022758" lon="2.686144">
        <ele>245.19115</ele>
        <time>2021-07-02T06:20:02Z</time>
      </trkpt>
      <trkpt lat="42.022743" lon="2.686282">
        <ele>245.04951</ele>
        <time>2021-07-02T06:20:03Z</time>
      </trkpt>
      <trkpt lat="42.022713" lon="2.686481">
        <ele>244.65916</ele>
        <time>2021-07-02T06:20:04Z</time>
      </trkpt>
      <trkpt lat="42.022682" lon="2.686716">
        <ele>243.93692</ele>
        <time>2021-07-02T06:20:05Z</time>
      </trkpt>
      <trkpt lat="42.022648" lon="2.686935">
        <ele>243.29245</ele>
        <time>2021-07-02T06:20:06Z</time>
      </trkpt>
      <trkpt lat="42.022591" lon="2.687152">
        <ele>242.88062</ele>
        <time>2021-07-02T06:20:07Z</time>
      </trkpt>
      <trkpt lat="42.022522" lon="2.687400">
        <ele>243.83505</ele>
        <time>2021-07-02T06:20:08Z</time>
      </trkpt>
      <trkpt lat="42.022442" lon="2.687645">
        <ele>243.73422</ele>
        <time>2021-07-02T06:20:09Z</time>
      </trkpt>
      <trkpt lat="42.022350" lon="2.687863">
        <ele>243.26791</ele>
        <time>2021-07-02T06:20:10Z</time>
      </trkpt>
      <trkpt lat="42.022236" lon="2.688081">
        <ele>242.86398</ele>
        <time>2021-07-02T06:20:11Z</time>
      </trkpt>
      <trkpt lat="42.022118" lon="2.688305">
        <ele>242.71872</ele>
        <time>2021-07-02T06:20:12Z</time>
      </trkpt>
      <trkpt lat="42.022018" lon="2.688520">
        <ele>237.90816</ele>
        <time>2021-07-02T06:20:13Z</time>
      </trkpt>
      <trkpt lat="42.022018" lon="2.688520">
        <ele>236.64426</ele>
        <time>2021-07-02T06:20:14Z</time>
      </trkpt>
      <trkpt lat="42.021912" lon="2.688681">
        <ele>235.01328</ele>
        <time>2021-07-02T06:20:15Z</time>
      </trkpt>
      <trkpt lat="42.021793" lon="2.688829">
        <ele>234.39182</ele>
        <time>2021-07-02T06:20:16Z</time>
      </trkpt>
      <trkpt lat="42.021637" lon="2.688959">
        <ele>233.82278</ele>
        <time>2021-07-02T06:20:17Z</time>
      </trkpt>
      <trkpt lat="42.021481" lon="2.689060">
        <ele>232.52359</ele>
        <time>2021-07-02T06:20:18Z</time>
      </trkpt>
      <trkpt lat="42.021324" lon="2.689135">
        <ele>231.53697</ele>
        <time>2021-07-02T06:20:19Z</time>
      </trkpt>
      <trkpt lat="42.021145" lon="2.689159">
        <ele>230.53175</ele>
        <time>2021-07-02T06:20:20Z</time>
      </trkpt>
      <trkpt lat="42.021004" lon="2.689157">
        <ele>228.67990</ele>
        <time>2021-07-02T06:20:21Z</time>
      </trkpt>
      <trkpt lat="42.020855" lon="2.689142">
        <ele>227.81889</ele>
        <time>2021-07-02T06:20:22Z</time>
      </trkpt>
      <trkpt lat="42.020714" lon="2.689166">
        <ele>227.00433</ele>
        <time>2021-07-02T06:20:23Z</time>
      </trkpt>
      <trkpt lat="42.020611" lon="2.689247">
        <ele>226.04881</ele>
        <time>2021-07-02T06:20:24Z</time>
      </trkpt>
      <trkpt lat="42.020596" lon="2.689257">
        <ele>225.64018</ele>
        <time>2021-07-02T06:20:25Z</time>
      </trkpt>
      <trkpt lat="42.020554" lon="2.689375">
        <ele>225.32156</ele>
        <time>2021-07-02T06:20:26Z</time>
      </trkpt>
      <trkpt lat="42.020538" lon="2.689519">
        <ele>225.19627</ele>
        <time>2021-07-02T06:20:27Z</time>
      </trkpt>
      <trkpt lat="42.020557" lon="2.689755">
        <ele>224.23096</ele>
        <time>2021-07-02T06:20:28Z</time>
      </trkpt>
      <trkpt lat="42.020584" lon="2.689953">
        <ele>223.45647</ele>
        <time>2021-07-02T06:20:29Z</time>
      </trkpt>
      <trkpt lat="42.020611" lon="2.690124">
        <ele>222.62041</ele>
        <time>2021-07-02T06:20:30Z</time>
      </trkpt>
      <trkpt lat="42.020660" lon="2.690252">
        <ele>221.79292</ele>
        <time>2021-07-02T06:20:31Z</time>
      </trkpt>
      <trkpt lat="42.020721" lon="2.690325">
        <ele>221.43417</ele>
        <time>2021-07-02T06:20:32Z</time>
      </trkpt>
      <trkpt lat="42.020786" lon="2.690398">
        <ele>221.07420</ele>
        <time>2021-07-02T06:20:33Z</time>
      </trkpt>
      <trkpt lat="42.020878" lon="2.690497">
        <ele>220.11018</ele>
        <time>2021-07-02T06:20:34Z</time>
      </trkpt>
      <trkpt lat="42.020962" lon="2.690603">
        <ele>219.72278</ele>
        <time>2021-07-02T06:20:35Z</time>
      </trkpt>
      <trkpt lat="42.021042" lon="2.690722">
        <ele>219.34181</ele>
        <time>2021-07-02T06:20:36Z</time>
      </trkpt>
      <trkpt lat="42.021114" lon="2.690868">
        <ele>218.45401</ele>
        <time>2021-07-02T06:20:37Z</time>
      </trkpt>
      <trkpt lat="42.021194" lon="2.691030">
        <ele>218.49124</ele>
        <time>2021-07-02T06:20:38Z</time>
      </trkpt>
      <trkpt lat="42.021263" lon="2.691190">
        <ele>218.28934</ele>
        <time>2021-07-02T06:20:39Z</time>
      </trkpt>
      <trkpt lat="42.021332" lon="2.691345">
        <ele>217.49460</ele>
        <time>2021-07-02T06:20:40Z</time>
      </trkpt>
      <trkpt lat="42.021393" lon="2.691483">
        <ele>216.99464</ele>
        <time>2021-07-02T06:20:41Z</time>
      </trkpt>
      <trkpt lat="42.021454" lon="2.691622">
        <ele>216.59834</ele>
        <time>2021-07-02T06:20:42Z</time>
      </trkpt>
      <trkpt lat="42.021507" lon="2.691761">
        <ele>216.03088</ele>
        <time>2021-07-02T06:20:43Z</time>
      </trkpt>
      <trkpt lat="42.021542" lon="2.691892">
        <ele>215.50360</ele>
        <time>2021-07-02T06:20:44Z</time>
      </trkpt>
      <trkpt lat="42.021542" lon="2.692020">
        <ele>214.93683</ele>
        <time>2021-07-02T06:20:45Z</time>
      </trkpt>
      <trkpt lat="42.021534" lon="2.692155">
        <ele>214.86705</ele>
        <time>2021-07-02T06:20:46Z</time>
      </trkpt>
      <trkpt lat="42.021526" lon="2.692288">
        <ele>214.40433</ele>
        <time>2021-07-02T06:20:47Z</time>
      </trkpt>
      <trkpt lat="42.021545" lon="2.692435">
        <ele>214.36577</ele>
        <time>2021-07-02T06:20:48Z</time>
      </trkpt>
      <trkpt lat="42.021587" lon="2.692580">
        <ele>213.94711</ele>
        <time>2021-07-02T06:20:49Z</time>
      </trkpt>
      <trkpt lat="42.021599" lon="2.692732">
        <ele>213.01888</ele>
        <time>2021-07-02T06:20:50Z</time>
      </trkpt>
      <trkpt lat="42.021606" lon="2.692882">
        <ele>212.70912</ele>
        <time>2021-07-02T06:20:51Z</time>
      </trkpt>
      <trkpt lat="42.021618" lon="2.693030">
        <ele>212.18971</ele>
        <time>2021-07-02T06:20:52Z</time>
      </trkpt>
      <trkpt lat="42.021622" lon="2.693172">
        <ele>211.01479</ele>
        <time>2021-07-02T06:20:53Z</time>
      </trkpt>
      <trkpt lat="42.021622" lon="2.693320">
        <ele>210.54059</ele>
        <time>2021-07-02T06:20:54Z</time>
      </trkpt>
      <trkpt lat="42.021618" lon="2.693474">
        <ele>210.11523</ele>
        <time>2021-07-02T06:20:55Z</time>
      </trkpt>
      <trkpt lat="42.021599" lon="2.693647">
        <ele>209.49843</ele>
        <time>2021-07-02T06:20:56Z</time>
      </trkpt>
      <trkpt lat="42.021572" lon="2.693836">
        <ele>208.86305</ele>
        <time>2021-07-02T06:20:57Z</time>
      </trkpt>
      <trkpt lat="42.021572" lon="2.693836">
        <ele>208.41025</ele>
        <time>2021-07-02T06:20:58Z</time>
      </trkpt>
      <trkpt lat="42.021542" lon="2.694055">
        <ele>207.26076</ele>
        <time>2021-07-02T06:20:59Z</time>
      </trkpt>
      <trkpt lat="42.021542" lon="2.694215">
        <ele>206.69012</ele>
        <time>2021-07-02T06:21:00Z</time>
      </trkpt>
      <trkpt lat="42.021572" lon="2.694355">
        <ele>208.50522</ele>
        <time>2021-07-02T06:21:01Z</time>
      </trkpt>
      <trkpt lat="42.021614" lon="2.694457">
        <ele>208.74216</ele>
        <time>2021-07-02T06:21:02Z</time>
      </trkpt>
      <trkpt lat="42.021690" lon="2.694556">
        <ele>207.57651</ele>
        <time>2021-07-02T06:21:03Z</time>
      </trkpt>
      <trkpt lat="42.021774" lon="2.694666">
        <ele>206.47440</ele>
        <time>2021-07-02T06:21:04Z</time>
      </trkpt>
      <trkpt lat="42.021919" lon="2.694856">
        <ele>205.73367</ele>
        <time>2021-07-02T06:21:05Z</time>
      </trkpt>
      <trkpt lat="42.022041" lon="2.695019">
        <ele>205.23361</ele>
        <time>2021-07-02T06:21:06Z</time>
      </trkpt>
      <trkpt lat="42.022141" lon="2.695164">
        <ele>204.22293</ele>
        <time>2021-07-02T06:21:07Z</time>
      </trkpt>
      <trkpt lat="42.022240" lon="2.695304">
        <ele>203.51559</ele>
        <time>2021-07-02T06:21:08Z</time>
      </trkpt>
      <trkpt lat="42.022327" lon="2.695480">
        <ele>201.03064</ele>
        <time>2021-07-02T06:21:09Z</time>
      </trkpt>
      <trkpt lat="42.022392" lon="2.695663">
        <ele>200.64786</ele>
        <time>2021-07-02T06:21:10Z</time>
      </trkpt>
      <trkpt lat="42.022453" lon="2.695869">
        <ele>199.95929</ele>
        <time>2021-07-02T06:21:11Z</time>
      </trkpt>
      <trkpt lat="42.022514" lon="2.696087">
        <ele>200.19174</ele>
        <time>2021-07-02T06:21:12Z</time>
      </trkpt>
      <trkpt lat="42.022560" lon="2.696286">
        <ele>199.23752</ele>
        <time>2021-07-02T06:21:13Z</time>
      </trkpt>
      <trkpt lat="42.022606" lon="2.696449">
        <ele>198.74606</ele>
        <time>2021-07-02T06:21:14Z</time>
      </trkpt>
      <trkpt lat="42.022659" lon="2.696600">
        <ele>198.02866</ele>
        <time>2021-07-02T06:21:15Z</time>
      </trkpt>
      <trkpt lat="42.022720" lon="2.696705">
        <ele>198.22336</ele>
        <time>2021-07-02T06:21:16Z</time>
      </trkpt>
      <trkpt lat="42.022781" lon="2.696773">
        <ele>198.38510</ele>
        <time>2021-07-02T06:21:17Z</time>
      </trkpt>
      <trkpt lat="42.022877" lon="2.696805">
        <ele>197.35065</ele>
        <time>2021-07-02T06:21:18Z</time>
      </trkpt>
      <trkpt lat="42.022976" lon="2.696813">
        <ele>197.35909</ele>
        <time>2021-07-02T06:21:19Z</time>
      </trkpt>
      <trkpt lat="42.023056" lon="2.696813">
        <ele>197.26440</ele>
        <time>2021-07-02T06:21:20Z</time>
      </trkpt>
      <trkpt lat="42.023136" lon="2.696808">
        <ele>197.14432</ele>
        <time>2021-07-02T06:21:21Z</time>
      </trkpt>
      <trkpt lat="42.023220" lon="2.696813">
        <ele>197.04498</ele>
        <time>2021-07-02T06:21:22Z</time>
      </trkpt>
      <trkpt lat="42.023289" lon="2.696817">
        <ele>196.96286</ele>
        <time>2021-07-02T06:21:23Z</time>
      </trkpt>
      <trkpt lat="42.023369" lon="2.696828">
        <ele>196.90955</ele>
        <time>2021-07-02T06:21:24Z</time>
      </trkpt>
      <trkpt lat="42.023441" lon="2.696875">
        <ele>196.77734</ele>
        <time>2021-07-02T06:21:25Z</time>
      </trkpt>
      <trkpt lat="42.023491" lon="2.696947">
        <ele>196.88075</ele>
        <time>2021-07-02T06:21:26Z</time>
      </trkpt>
      <trkpt lat="42.023506" lon="2.697013">
        <ele>196.93474</ele>
        <time>2021-07-02T06:21:27Z</time>
      </trkpt>
      <trkpt lat="42.023510" lon="2.697053">
        <ele>197.24774</ele>
        <time>2021-07-02T06:21:28Z</time>
      </trkpt>
      <trkpt lat="42.023514" lon="2.697109">
        <ele>197.37320</ele>
        <time>2021-07-02T06:21:29Z</time>
      </trkpt>
      <trkpt lat="42.023502" lon="2.697234">
        <ele>197.44046</ele>
        <time>2021-07-02T06:21:30Z</time>
      </trkpt>
      <trkpt lat="42.023441" lon="2.697342">
        <ele>198.01598</ele>
        <time>2021-07-02T06:21:31Z</time>
      </trkpt>
      <trkpt lat="42.023342" lon="2.697420">
        <ele>198.15698</ele>
        <time>2021-07-02T06:21:32Z</time>
      </trkpt>
      <trkpt lat="42.023247" lon="2.697489">
        <ele>198.30763</ele>
        <time>2021-07-02T06:21:33Z</time>
      </trkpt>
      <trkpt lat="42.023132" lon="2.697573">
        <ele>198.23659</ele>
        <time>2021-07-02T06:21:34Z</time>
      </trkpt>
      <trkpt lat="42.023010" lon="2.697663">
        <ele>198.15044</ele>
        <time>2021-07-02T06:21:35Z</time>
      </trkpt>
      <trkpt lat="42.022911" lon="2.697748">
        <ele>198.34070</ele>
        <time>2021-07-02T06:21:36Z</time>
      </trkpt>
      <trkpt lat="42.022823" lon="2.697841">
        <ele>198.35480</ele>
        <time>2021-07-02T06:21:37Z</time>
      </trkpt>
      <trkpt lat="42.022739" lon="2.697947">
        <ele>198.43149</ele>
        <time>2021-07-02T06:21:38Z</time>
      </trkpt>
      <trkpt lat="42.022675" lon="2.698063">
        <ele>198.48212</ele>
        <time>2021-07-02T06:21:39Z</time>
      </trkpt>
      <trkpt lat="42.022675" lon="2.698063">
        <ele>198.54135</ele>
        <time>2021-07-02T06:21:40Z</time>
      </trkpt>
      <trkpt lat="42.022625" lon="2.698193">
        <ele>198.95659</ele>
        <time>2021-07-02T06:21:41Z</time>
      </trkpt>
      <trkpt lat="42.022591" lon="2.698356">
        <ele>199.03630</ele>
        <time>2021-07-02T06:21:42Z</time>
      </trkpt>
      <trkpt lat="42.022564" lon="2.698536">
        <ele>197.73904</ele>
        <time>2021-07-02T06:21:43Z</time>
      </trkpt>
      <trkpt lat="42.022545" lon="2.698712">
        <ele>197.91098</ele>
        <time>2021-07-02T06:21:44Z</time>
      </trkpt>
      <trkpt lat="42.022522" lon="2.698882">
        <ele>200.08495</ele>
        <time>2021-07-02T06:21:45Z</time>
      </trkpt>
      <trkpt lat="42.022499" lon="2.699084">
        <ele>197.06113</ele>
        <time>2021-07-02T06:21:46Z</time>
      </trkpt>
      <trkpt lat="42.022453" lon="2.699432">
        <ele>196.95883</ele>
        <time>2021-07-02T06:21:47Z</time>
      </trkpt>
      <trkpt lat="42.022434" lon="2.699737">
        <ele>196.59781</ele>
        <time>2021-07-02T06:21:48Z</time>
      </trkpt>
      <trkpt lat="42.022388" lon="2.700110">
        <ele>200.23425</ele>
        <time>2021-07-02T06:21:49Z</time>
      </trkpt>
      <trkpt lat="42.022427" lon="2.700254">
        <ele>199.74359</ele>
        <time>2021-07-02T06:21:50Z</time>
      </trkpt>
      <trkpt lat="42.022461" lon="2.700396">
        <ele>199.18378</ele>
        <time>2021-07-02T06:21:51Z</time>
      </trkpt>
      <trkpt lat="42.022507" lon="2.700569">
        <ele>199.07129</ele>
        <time>2021-07-02T06:21:52Z</time>
      </trkpt>
      <trkpt lat="42.022598" lon="2.700731">
        <ele>199.10280</ele>
        <time>2021-07-02T06:21:53Z</time>
      </trkpt>
      <trkpt lat="42.022675" lon="2.700774">
        <ele>199.07086</ele>
        <time>2021-07-02T06:21:54Z</time>
      </trkpt>
      <trkpt lat="42.022816" lon="2.700843">
        <ele>198.96770</ele>
        <time>2021-07-02T06:21:55Z</time>
      </trkpt>
      <trkpt lat="42.022903" lon="2.700911">
        <ele>198.71147</ele>
        <time>2021-07-02T06:21:56Z</time>
      </trkpt>
      <trkpt lat="42.022984" lon="2.701015">
        <ele>198.72372</ele>
        <time>2021-07-02T06:21:57Z</time>
      </trkpt>
      <trkpt lat="42.023048" lon="2.701112">
        <ele>198.81972</ele>
        <time>2021-07-02T06:21:58Z</time>
      </trkpt>
      <trkpt lat="42.023140" lon="2.701258">
        <ele>198.79079</ele>
        <time>2021-07-02T06:21:59Z</time>
      </trkpt>
      <trkpt lat="42.023197" lon="2.701404">
        <ele>198.45483</ele>
        <time>2021-07-02T06:22:00Z</time>
      </trkpt>
      <trkpt lat="42.023216" lon="2.701564">
        <ele>198.31688</ele>
        <time>2021-07-02T06:22:01Z</time>
      </trkpt>
      <trkpt lat="42.023224" lon="2.701712">
        <ele>198.38228</ele>
        <time>2021-07-02T06:22:02Z</time>
      </trkpt>
      <trkpt lat="42.023205" lon="2.701884">
        <ele>198.34058</ele>
        <time>2021-07-02T06:22:03Z</time>
      </trkpt>
      <trkpt lat="42.023170" lon="2.702058">
        <ele>198.46535</ele>
        <time>2021-07-02T06:22:04Z</time>
      </trkpt>
      <trkpt lat="42.023163" lon="2.702219">
        <ele>198.43517</ele>
        <time>2021-07-02T06:22:05Z</time>
      </trkpt>
      <trkpt lat="42.023182" lon="2.702396">
        <ele>198.55716</ele>
        <time>2021-07-02T06:22:06Z</time>
      </trkpt>
      <trkpt lat="42.023205" lon="2.702546">
        <ele>198.33827</ele>
        <time>2021-07-02T06:22:07Z</time>
      </trkpt>
      <trkpt lat="42.023224" lon="2.702690">
        <ele>198.26140</ele>
        <time>2021-07-02T06:22:08Z</time>
      </trkpt>
      <trkpt lat="42.023232" lon="2.702820">
        <ele>198.26166</ele>
        <time>2021-07-02T06:22:09Z</time>
      </trkpt>
      <trkpt lat="42.023228" lon="2.702952">
        <ele>198.03239</ele>
        <time>2021-07-02T06:22:10Z</time>
      </trkpt>
      <trkpt lat="42.023193" lon="2.703103">
        <ele>198.08466</ele>
        <time>2021-07-02T06:22:11Z</time>
      </trkpt>
      <trkpt lat="42.023132" lon="2.703213">
        <ele>198.06296</ele>
        <time>2021-07-02T06:22:12Z</time>
      </trkpt>
      <trkpt lat="42.023033" lon="2.703291">
        <ele>198.14809</ele>
        <time>2021-07-02T06:22:13Z</time>
      </trkpt>
      <trkpt lat="42.022926" lon="2.703358">
        <ele>198.30621</ele>
        <time>2021-07-02T06:22:14Z</time>
      </trkpt>
      <trkpt lat="42.022816" lon="2.703422">
        <ele>198.62732</ele>
        <time>2021-07-02T06:22:15Z</time>
      </trkpt>
      <trkpt lat="42.022724" lon="2.703535">
        <ele>198.88739</ele>
        <time>2021-07-02T06:22:16Z</time>
      </trkpt>
      <trkpt lat="42.022640" lon="2.703661">
        <ele>199.14139</ele>
        <time>2021-07-02T06:22:17Z</time>
      </trkpt>
      <trkpt lat="42.022545" lon="2.703808">
        <ele>199.37076</ele>
        <time>2021-07-02T06:22:18Z</time>
      </trkpt>
      <trkpt lat="42.022457" lon="2.703940">
        <ele>199.39801</ele>
        <time>2021-07-02T06:22:19Z</time>
      </trkpt>
      <trkpt lat="42.022366" lon="2.704080">
        <ele>199.60522</ele>
        <time>2021-07-02T06:22:20Z</time>
      </trkpt>
      <trkpt lat="42.022270" lon="2.704222">
        <ele>199.59953</ele>
        <time>2021-07-02T06:22:21Z</time>
      </trkpt>
      <trkpt lat="42.022163" lon="2.704370">
        <ele>199.65741</ele>
        <time>2021-07-02T06:22:22Z</time>
      </trkpt>
      <trkpt lat="42.022034" lon="2.704525">
        <ele>198.97482</ele>
        <time>2021-07-02T06:22:23Z</time>
      </trkpt>
      <trkpt lat="42.021915" lon="2.704665">
        <ele>198.56059</ele>
        <time>2021-07-02T06:22:24Z</time>
      </trkpt>
      <trkpt lat="42.021805" lon="2.704799">
        <ele>197.98691</ele>
        <time>2021-07-02T06:22:25Z</time>
      </trkpt>
      <trkpt lat="42.021702" lon="2.704933">
        <ele>196.95859</ele>
        <time>2021-07-02T06:22:26Z</time>
      </trkpt>
      <trkpt lat="42.021702" lon="2.704933">
        <ele>196.48811</ele>
        <time>2021-07-02T06:22:27Z</time>
      </trkpt>
      <trkpt lat="42.021587" lon="2.705051">
        <ele>196.21555</ele>
        <time>2021-07-02T06:22:28Z</time>
      </trkpt>
      <trkpt lat="42.021465" lon="2.705160">
        <ele>195.28421</ele>
        <time>2021-07-02T06:22:29Z</time>
      </trkpt>
      <trkpt lat="42.021332" lon="2.705238">
        <ele>195.17030</ele>
        <time>2021-07-02T06:22:30Z</time>
      </trkpt>
      <trkpt lat="42.021175" lon="2.705311">
        <ele>195.35136</ele>
        <time>2021-07-02T06:22:31Z</time>
      </trkpt>
      <trkpt lat="42.021027" lon="2.705381">
        <ele>194.06601</ele>
        <time>2021-07-02T06:22:32Z</time>
      </trkpt>
      <trkpt lat="42.020813" lon="2.705479">
        <ele>192.42935</ele>
        <time>2021-07-02T06:22:33Z</time>
      </trkpt>
      <trkpt lat="42.020592" lon="2.705572">
        <ele>193.87328</ele>
        <time>2021-07-02T06:22:34Z</time>
      </trkpt>
      <trkpt lat="42.020428" lon="2.705638">
        <ele>192.98030</ele>
        <time>2021-07-02T06:22:35Z</time>
      </trkpt>
      <trkpt lat="42.020267" lon="2.705713">
        <ele>192.87102</ele>
        <time>2021-07-02T06:22:36Z</time>
      </trkpt>
      <trkpt lat="42.020111" lon="2.705816">
        <ele>192.40967</ele>
        <time>2021-07-02T06:22:37Z</time>
      </trkpt>
      <trkpt lat="42.019951" lon="2.705946">
        <ele>190.55063</ele>
        <time>2021-07-02T06:22:38Z</time>
      </trkpt>
      <trkpt lat="42.019794" lon="2.706075">
        <ele>190.16336</ele>
        <time>2021-07-02T06:22:39Z</time>
      </trkpt>
      <trkpt lat="42.019623" lon="2.706215">
        <ele>189.55624</ele>
        <time>2021-07-02T06:22:40Z</time>
      </trkpt>
      <trkpt lat="42.019444" lon="2.706360">
        <ele>188.67172</ele>
        <time>2021-07-02T06:22:41Z</time>
      </trkpt>
      <trkpt lat="42.019291" lon="2.706483">
        <ele>186.86215</ele>
        <time>2021-07-02T06:22:42Z</time>
      </trkpt>
      <trkpt lat="42.019135" lon="2.706610">
        <ele>186.77829</ele>
        <time>2021-07-02T06:22:43Z</time>
      </trkpt>
      <trkpt lat="42.018974" lon="2.706766">
        <ele>186.76547</ele>
        <time>2021-07-02T06:22:44Z</time>
      </trkpt>
      <trkpt lat="42.018852" lon="2.706968">
        <ele>186.21872</ele>
        <time>2021-07-02T06:22:45Z</time>
      </trkpt>
      <trkpt lat="42.018730" lon="2.707171">
        <ele>185.96811</ele>
        <time>2021-07-02T06:22:46Z</time>
      </trkpt>
      <trkpt lat="42.018597" lon="2.707394">
        <ele>185.57559</ele>
        <time>2021-07-02T06:22:47Z</time>
      </trkpt>
      <trkpt lat="42.018467" lon="2.707620">
        <ele>185.10562</ele>
        <time>2021-07-02T06:22:48Z</time>
      </trkpt>
      <trkpt lat="42.018341" lon="2.707848">
        <ele>184.83829</ele>
        <time>2021-07-02T06:22:49Z</time>
      </trkpt>
      <trkpt lat="42.018211" lon="2.708083">
        <ele>184.33286</ele>
        <time>2021-07-02T06:22:50Z</time>
      </trkpt>
      <trkpt lat="42.018074" lon="2.708332">
        <ele>183.66794</ele>
        <time>2021-07-02T06:22:51Z</time>
      </trkpt>
      <trkpt lat="42.017944" lon="2.708572">
        <ele>182.99362</ele>
        <time>2021-07-02T06:22:52Z</time>
      </trkpt>
      <trkpt lat="42.017815" lon="2.708811">
        <ele>182.02194</ele>
        <time>2021-07-02T06:22:53Z</time>
      </trkpt>
      <trkpt lat="42.017689" lon="2.709046">
        <ele>181.95090</ele>
        <time>2021-07-02T06:22:54Z</time>
      </trkpt>
      <trkpt lat="42.017555" lon="2.709285">
        <ele>182.09677</ele>
        <time>2021-07-02T06:22:55Z</time>
      </trkpt>
      <trkpt lat="42.017433" lon="2.709517">
        <ele>181.37845</ele>
        <time>2021-07-02T06:22:56Z</time>
      </trkpt>
      <trkpt lat="42.017319" lon="2.709728">
        <ele>181.06845</ele>
        <time>2021-07-02T06:22:57Z</time>
      </trkpt>
      <trkpt lat="42.017204" lon="2.709921">
        <ele>179.44125</ele>
        <time>2021-07-02T06:22:58Z</time>
      </trkpt>
      <trkpt lat="42.017063" lon="2.710065">
        <ele>179.98825</ele>
        <time>2021-07-02T06:22:59Z</time>
      </trkpt>
      <trkpt lat="42.016899" lon="2.710195">
        <ele>179.76126</ele>
        <time>2021-07-02T06:23:00Z</time>
      </trkpt>
      <trkpt lat="42.016720" lon="2.710338">
        <ele>179.34378</ele>
        <time>2021-07-02T06:23:01Z</time>
      </trkpt>
      <trkpt lat="42.016521" lon="2.710493">
        <ele>178.35208</ele>
        <time>2021-07-02T06:23:02Z</time>
      </trkpt>
      <trkpt lat="42.016350" lon="2.710630">
        <ele>177.90500</ele>
        <time>2021-07-02T06:23:03Z</time>
      </trkpt>
      <trkpt lat="42.016201" lon="2.710789">
        <ele>177.40268</ele>
        <time>2021-07-02T06:23:04Z</time>
      </trkpt>
      <trkpt lat="42.016071" lon="2.710969">
        <ele>177.35837</ele>
        <time>2021-07-02T06:23:05Z</time>
      </trkpt>
      <trkpt lat="42.015961" lon="2.711145">
        <ele>179.86459</ele>
        <time>2021-07-02T06:23:06Z</time>
      </trkpt>
      <trkpt lat="42.015881" lon="2.711311">
        <ele>179.35742</ele>
        <time>2021-07-02T06:23:07Z</time>
      </trkpt>
      <trkpt lat="42.015816" lon="2.711485">
        <ele>178.92381</ele>
        <time>2021-07-02T06:23:08Z</time>
      </trkpt>
      <trkpt lat="42.015789" lon="2.711671">
        <ele>178.79208</ele>
        <time>2021-07-02T06:23:09Z</time>
      </trkpt>
      <trkpt lat="42.015785" lon="2.711889">
        <ele>178.43402</ele>
        <time>2021-07-02T06:23:10Z</time>
      </trkpt>
      <trkpt lat="42.015827" lon="2.712076">
        <ele>177.75932</ele>
        <time>2021-07-02T06:23:11Z</time>
      </trkpt>
      <trkpt lat="42.015907" lon="2.712216">
        <ele>177.26535</ele>
        <time>2021-07-02T06:23:12Z</time>
      </trkpt>
      <trkpt lat="42.015972" lon="2.712336">
        <ele>176.91249</ele>
        <time>2021-07-02T06:23:13Z</time>
      </trkpt>
      <trkpt lat="42.015999" lon="2.712487">
        <ele>175.72406</ele>
        <time>2021-07-02T06:23:14Z</time>
      </trkpt>
      <trkpt lat="42.015999" lon="2.712589">
        <ele>175.06462</ele>
        <time>2021-07-02T06:23:15Z</time>
      </trkpt>
      <trkpt lat="42.015972" lon="2.712675">
        <ele>174.70407</ele>
        <time>2021-07-02T06:23:16Z</time>
      </trkpt>
      <trkpt lat="42.015923" lon="2.712776">
        <ele>174.43748</ele>
        <time>2021-07-02T06:23:17Z</time>
      </trkpt>
      <trkpt lat="42.015923" lon="2.712776">
        <ele>174.37503</ele>
        <time>2021-07-02T06:23:18Z</time>
      </trkpt>
      <trkpt lat="42.015869" lon="2.712839">
        <ele>174.65327</ele>
        <time>2021-07-02T06:23:19Z</time>
      </trkpt>
      <trkpt lat="42.015789" lon="2.712880">
        <ele>174.72731</ele>
        <time>2021-07-02T06:23:20Z</time>
      </trkpt>
      <trkpt lat="42.015705" lon="2.712913">
        <ele>174.56941</ele>
        <time>2021-07-02T06:23:21Z</time>
      </trkpt>
      <trkpt lat="42.015583" lon="2.712938">
        <ele>174.18192</ele>
        <time>2021-07-02T06:23:22Z</time>
      </trkpt>
      <trkpt lat="42.015411" lon="2.712922">
        <ele>173.73770</ele>
        <time>2021-07-02T06:23:23Z</time>
      </trkpt>
      <trkpt lat="42.015209" lon="2.712837">
        <ele>173.14381</ele>
        <time>2021-07-02T06:23:24Z</time>
      </trkpt>
      <trkpt lat="42.015045" lon="2.712747">
        <ele>172.98058</ele>
        <time>2021-07-02T06:23:25Z</time>
      </trkpt>
      <trkpt lat="42.014954" lon="2.712739">
        <ele>173.12395</ele>
        <time>2021-07-02T06:23:26Z</time>
      </trkpt>
      <trkpt lat="42.014839" lon="2.712770">
        <ele>173.09265</ele>
        <time>2021-07-02T06:23:27Z</time>
      </trkpt>
      <trkpt lat="42.014736" lon="2.712854">
        <ele>172.99001</ele>
        <time>2021-07-02T06:23:28Z</time>
      </trkpt>
      <trkpt lat="42.014656" lon="2.712958">
        <ele>172.78542</ele>
        <time>2021-07-02T06:23:29Z</time>
      </trkpt>
      <trkpt lat="42.014599" lon="2.713132">
        <ele>172.45586</ele>
        <time>2021-07-02T06:23:30Z</time>
      </trkpt>
      <trkpt lat="42.014599" lon="2.713366">
        <ele>172.29634</ele>
        <time>2021-07-02T06:23:31Z</time>
      </trkpt>
      <trkpt lat="42.014641" lon="2.713541">
        <ele>172.13902</ele>
        <time>2021-07-02T06:23:32Z</time>
      </trkpt>
      <trkpt lat="42.014709" lon="2.713706">
        <ele>171.84750</ele>
        <time>2021-07-02T06:23:33Z</time>
      </trkpt>
      <trkpt lat="42.014793" lon="2.713837">
        <ele>171.64339</ele>
        <time>2021-07-02T06:23:34Z</time>
      </trkpt>
      <trkpt lat="42.014900" lon="2.714006">
        <ele>171.38402</ele>
        <time>2021-07-02T06:23:35Z</time>
      </trkpt>
      <trkpt lat="42.015007" lon="2.714180">
        <ele>171.11086</ele>
        <time>2021-07-02T06:23:36Z</time>
      </trkpt>
      <trkpt lat="42.015072" lon="2.714382">
        <ele>170.54054</ele>
        <time>2021-07-02T06:23:37Z</time>
      </trkpt>
      <trkpt lat="42.015163" lon="2.714595">
        <ele>169.81920</ele>
        <time>2021-07-02T06:23:38Z</time>
      </trkpt>
      <trkpt lat="42.015251" lon="2.714800">
        <ele>169.20741</ele>
        <time>2021-07-02T06:23:39Z</time>
      </trkpt>
      <trkpt lat="42.015350" lon="2.714969">
        <ele>167.57152</ele>
        <time>2021-07-02T06:23:40Z</time>
      </trkpt>
      <trkpt lat="42.015446" lon="2.715126">
        <ele>167.17871</ele>
        <time>2021-07-02T06:23:41Z</time>
      </trkpt>
      <trkpt lat="42.015553" lon="2.715260">
        <ele>166.51208</ele>
        <time>2021-07-02T06:23:42Z</time>
      </trkpt>
      <trkpt lat="42.015667" lon="2.715370">
        <ele>165.19934</ele>
        <time>2021-07-02T06:23:43Z</time>
      </trkpt>
      <trkpt lat="42.015762" lon="2.715480">
        <ele>164.44864</ele>
        <time>2021-07-02T06:23:44Z</time>
      </trkpt>
      <trkpt lat="42.015816" lon="2.715596">
        <ele>164.03561</ele>
        <time>2021-07-02T06:23:45Z</time>
      </trkpt>
      <trkpt lat="42.015839" lon="2.715721">
        <ele>163.23701</ele>
        <time>2021-07-02T06:23:46Z</time>
      </trkpt>
      <trkpt lat="42.015835" lon="2.715861">
        <ele>163.44708</ele>
        <time>2021-07-02T06:23:47Z</time>
      </trkpt>
      <trkpt lat="42.015823" lon="2.716020">
        <ele>163.45703</ele>
        <time>2021-07-02T06:23:48Z</time>
      </trkpt>
      <trkpt lat="42.015808" lon="2.716230">
        <ele>162.82977</ele>
        <time>2021-07-02T06:23:49Z</time>
      </trkpt>
      <trkpt lat="42.015789" lon="2.716427">
        <ele>162.33008</ele>
        <time>2021-07-02T06:23:50Z</time>
      </trkpt>
      <trkpt lat="42.015766" lon="2.716591">
        <ele>161.92647</ele>
        <time>2021-07-02T06:23:51Z</time>
      </trkpt>
      <trkpt lat="42.015717" lon="2.716739">
        <ele>161.16457</ele>
        <time>2021-07-02T06:23:52Z</time>
      </trkpt>
      <trkpt lat="42.015648" lon="2.716865">
        <ele>159.78032</ele>
        <time>2021-07-02T06:23:53Z</time>
      </trkpt>
      <trkpt lat="42.015648" lon="2.716865">
        <ele>159.38661</ele>
        <time>2021-07-02T06:23:54Z</time>
      </trkpt>
      <trkpt lat="42.015583" lon="2.716972">
        <ele>159.02524</ele>
        <time>2021-07-02T06:23:55Z</time>
      </trkpt>
      <trkpt lat="42.015533" lon="2.717095">
        <ele>159.21750</ele>
        <time>2021-07-02T06:23:56Z</time>
      </trkpt>
      <trkpt lat="42.015526" lon="2.717254">
        <ele>158.73506</ele>
        <time>2021-07-02T06:23:57Z</time>
      </trkpt>
      <trkpt lat="42.015549" lon="2.717430">
        <ele>158.35532</ele>
        <time>2021-07-02T06:23:58Z</time>
      </trkpt>
      <trkpt lat="42.015591" lon="2.717603">
        <ele>159.01559</ele>
        <time>2021-07-02T06:23:59Z</time>
      </trkpt>
      <trkpt lat="42.015648" lon="2.717893">
        <ele>158.71477</ele>
        <time>2021-07-02T06:24:00Z</time>
      </trkpt>
      <trkpt lat="42.015663" lon="2.718167">
        <ele>158.07010</ele>
        <time>2021-07-02T06:24:01Z</time>
      </trkpt>
      <trkpt lat="42.015675" lon="2.718419">
        <ele>157.78690</ele>
        <time>2021-07-02T06:24:02Z</time>
      </trkpt>
      <trkpt lat="42.015690" lon="2.718694">
        <ele>157.61545</ele>
        <time>2021-07-02T06:24:03Z</time>
      </trkpt>
      <trkpt lat="42.015709" lon="2.718957">
        <ele>156.34924</ele>
        <time>2021-07-02T06:24:04Z</time>
      </trkpt>
      <trkpt lat="42.015728" lon="2.719208">
        <ele>156.05971</ele>
        <time>2021-07-02T06:24:05Z</time>
      </trkpt>
      <trkpt lat="42.015720" lon="2.719427">
        <ele>155.57675</ele>
        <time>2021-07-02T06:24:06Z</time>
      </trkpt>
      <trkpt lat="42.015701" lon="2.719708">
        <ele>155.59769</ele>
        <time>2021-07-02T06:24:07Z</time>
      </trkpt>
      <trkpt lat="42.015667" lon="2.719977">
        <ele>154.24849</ele>
        <time>2021-07-02T06:24:08Z</time>
      </trkpt>
      <trkpt lat="42.015614" lon="2.720206">
        <ele>152.80028</ele>
        <time>2021-07-02T06:24:09Z</time>
      </trkpt>
      <trkpt lat="42.015575" lon="2.720397">
        <ele>151.92125</ele>
        <time>2021-07-02T06:24:10Z</time>
      </trkpt>
      <trkpt lat="42.015560" lon="2.720570">
        <ele>151.94736</ele>
        <time>2021-07-02T06:24:11Z</time>
      </trkpt>
      <trkpt lat="42.015583" lon="2.720715">
        <ele>151.13498</ele>
        <time>2021-07-02T06:24:12Z</time>
      </trkpt>
      <trkpt lat="42.015617" lon="2.720773">
        <ele>150.77255</ele>
        <time>2021-07-02T06:24:13Z</time>
      </trkpt>
      <trkpt lat="42.015694" lon="2.720843">
        <ele>149.94284</ele>
        <time>2021-07-02T06:24:14Z</time>
      </trkpt>
      <trkpt lat="42.015774" lon="2.720896">
        <ele>148.65219</ele>
        <time>2021-07-02T06:24:15Z</time>
      </trkpt>
      <trkpt lat="42.015907" lon="2.720956">
        <ele>146.81650</ele>
        <time>2021-07-02T06:24:16Z</time>
      </trkpt>
      <trkpt lat="42.016109" lon="2.720969">
        <ele>146.06992</ele>
        <time>2021-07-02T06:24:17Z</time>
      </trkpt>
      <trkpt lat="42.016262" lon="2.720990">
        <ele>146.00113</ele>
        <time>2021-07-02T06:24:18Z</time>
      </trkpt>
      <trkpt lat="42.016434" lon="2.721018">
        <ele>147.34915</ele>
        <time>2021-07-02T06:24:19Z</time>
      </trkpt>
      <trkpt lat="42.016590" lon="2.721095">
        <ele>145.00546</ele>
        <time>2021-07-02T06:24:20Z</time>
      </trkpt>
      <trkpt lat="42.016743" lon="2.721181">
        <ele>144.95920</ele>
        <time>2021-07-02T06:24:21Z</time>
      </trkpt>
      <trkpt lat="42.016888" lon="2.721274">
        <ele>144.88004</ele>
        <time>2021-07-02T06:24:22Z</time>
      </trkpt>
      <trkpt lat="42.017010" lon="2.721358">
        <ele>143.70828</ele>
        <time>2021-07-02T06:24:23Z</time>
      </trkpt>
      <trkpt lat="42.017117" lon="2.721462">
        <ele>143.24136</ele>
        <time>2021-07-02T06:24:24Z</time>
      </trkpt>
      <trkpt lat="42.017178" lon="2.721619">
        <ele>142.98489</ele>
        <time>2021-07-02T06:24:25Z</time>
      </trkpt>
      <trkpt lat="42.017220" lon="2.721816">
        <ele>142.70895</ele>
        <time>2021-07-02T06:24:26Z</time>
      </trkpt>
      <trkpt lat="42.017239" lon="2.722028">
        <ele>143.01682</ele>
        <time>2021-07-02T06:24:27Z</time>
      </trkpt>
      <trkpt lat="42.017262" lon="2.722245">
        <ele>140.60831</ele>
        <time>2021-07-02T06:24:28Z</time>
      </trkpt>
      <trkpt lat="42.017292" lon="2.722500">
        <ele>140.86545</ele>
        <time>2021-07-02T06:24:29Z</time>
      </trkpt>
      <trkpt lat="42.017326" lon="2.722776">
        <ele>140.31387</ele>
        <time>2021-07-02T06:24:30Z</time>
      </trkpt>
      <trkpt lat="42.017357" lon="2.723043">
        <ele>140.76694</ele>
        <time>2021-07-02T06:24:31Z</time>
      </trkpt>
      <trkpt lat="42.017384" lon="2.723288">
        <ele>140.18155</ele>
        <time>2021-07-02T06:24:32Z</time>
      </trkpt>
      <trkpt lat="42.017410" lon="2.723500">
        <ele>140.40872</ele>
        <time>2021-07-02T06:24:33Z</time>
      </trkpt>
      <trkpt lat="42.017433" lon="2.723695">
        <ele>140.17599</ele>
        <time>2021-07-02T06:24:34Z</time>
      </trkpt>
      <trkpt lat="42.017456" lon="2.723876">
        <ele>140.02243</ele>
        <time>2021-07-02T06:24:35Z</time>
      </trkpt>
      <trkpt lat="42.017456" lon="2.724063">
        <ele>140.18176</ele>
        <time>2021-07-02T06:24:36Z</time>
      </trkpt>
      <trkpt lat="42.017384" lon="2.724263">
        <ele>139.95825</ele>
        <time>2021-07-02T06:24:37Z</time>
      </trkpt>
      <trkpt lat="42.017315" lon="2.724442">
        <ele>140.00514</ele>
        <time>2021-07-02T06:24:38Z</time>
      </trkpt>
      <trkpt lat="42.017315" lon="2.724442">
        <ele>140.12576</ele>
        <time>2021-07-02T06:24:39Z</time>
      </trkpt>
      <trkpt lat="42.017223" lon="2.724646">
        <ele>140.33347</ele>
        <time>2021-07-02T06:24:40Z</time>
      </trkpt>
      <trkpt lat="42.017120" lon="2.724877">
        <ele>140.25903</ele>
        <time>2021-07-02T06:24:41Z</time>
      </trkpt>
      <trkpt lat="42.017017" lon="2.725095">
        <ele>139.96512</ele>
        <time>2021-07-02T06:24:42Z</time>
      </trkpt>
      <trkpt lat="42.016911" lon="2.725282">
        <ele>139.64127</ele>
        <time>2021-07-02T06:24:43Z</time>
      </trkpt>
      <trkpt lat="42.016815" lon="2.725451">
        <ele>138.82578</ele>
        <time>2021-07-02T06:24:44Z</time>
      </trkpt>
      <trkpt lat="42.016739" lon="2.725589">
        <ele>138.49069</ele>
        <time>2021-07-02T06:24:45Z</time>
      </trkpt>
      <trkpt lat="42.016651" lon="2.725713">
        <ele>138.75046</ele>
        <time>2021-07-02T06:24:46Z</time>
      </trkpt>
      <trkpt lat="42.016525" lon="2.725805">
        <ele>138.91501</ele>
        <time>2021-07-02T06:24:47Z</time>
      </trkpt>
      <trkpt lat="42.016350" lon="2.725884">
        <ele>139.21539</ele>
        <time>2021-07-02T06:24:48Z</time>
      </trkpt>
      <trkpt lat="42.016159" lon="2.725900">
        <ele>136.20981</ele>
        <time>2021-07-02T06:24:49Z</time>
      </trkpt>
      <trkpt lat="42.015953" lon="2.725874">
        <ele>135.94040</ele>
        <time>2021-07-02T06:24:50Z</time>
      </trkpt>
      <trkpt lat="42.015663" lon="2.725805">
        <ele>135.68045</ele>
        <time>2021-07-02T06:24:51Z</time>
      </trkpt>
      <trkpt lat="42.015488" lon="2.725754">
        <ele>138.51450</ele>
        <time>2021-07-02T06:24:52Z</time>
      </trkpt>
      <trkpt lat="42.015320" lon="2.725706">
        <ele>137.73975</ele>
        <time>2021-07-02T06:24:53Z</time>
      </trkpt>
      <trkpt lat="42.015182" lon="2.725667">
        <ele>137.50410</ele>
        <time>2021-07-02T06:24:54Z</time>
      </trkpt>
      <trkpt lat="42.015038" lon="2.725625">
        <ele>137.18985</ele>
        <time>2021-07-02T06:24:55Z</time>
      </trkpt>
      <trkpt lat="42.014919" lon="2.725583">
        <ele>137.58081</ele>
        <time>2021-07-02T06:24:56Z</time>
      </trkpt>
      <trkpt lat="42.014748" lon="2.725522">
        <ele>137.18251</ele>
        <time>2021-07-02T06:24:57Z</time>
      </trkpt>
      <trkpt lat="42.014568" lon="2.725459">
        <ele>137.12175</ele>
        <time>2021-07-02T06:24:58Z</time>
      </trkpt>
      <trkpt lat="42.014397" lon="2.725399">
        <ele>137.08647</ele>
        <time>2021-07-02T06:24:59Z</time>
      </trkpt>
      <trkpt lat="42.014198" lon="2.725329">
        <ele>137.01692</ele>
        <time>2021-07-02T06:25:00Z</time>
      </trkpt>
      <trkpt lat="42.014023" lon="2.725237">
        <ele>136.30185</ele>
        <time>2021-07-02T06:25:01Z</time>
      </trkpt>
      <trkpt lat="42.013878" lon="2.725139">
        <ele>135.70500</ele>
        <time>2021-07-02T06:25:02Z</time>
      </trkpt>
      <trkpt lat="42.013744" lon="2.725048">
        <ele>135.24757</ele>
        <time>2021-07-02T06:25:03Z</time>
      </trkpt>
      <trkpt lat="42.013622" lon="2.724975">
        <ele>134.61748</ele>
        <time>2021-07-02T06:25:04Z</time>
      </trkpt>
      <trkpt lat="42.013519" lon="2.724967">
        <ele>134.46242</ele>
        <time>2021-07-02T06:25:05Z</time>
      </trkpt>
      <trkpt lat="42.013405" lon="2.724987">
        <ele>134.26698</ele>
        <time>2021-07-02T06:25:06Z</time>
      </trkpt>
      <trkpt lat="42.013290" lon="2.725084">
        <ele>134.18239</ele>
        <time>2021-07-02T06:25:07Z</time>
      </trkpt>
      <trkpt lat="42.013206" lon="2.725180">
        <ele>134.37303</ele>
        <time>2021-07-02T06:25:08Z</time>
      </trkpt>
      <trkpt lat="42.013130" lon="2.725343">
        <ele>134.40991</ele>
        <time>2021-07-02T06:25:09Z</time>
      </trkpt>
      <trkpt lat="42.013073" lon="2.725564">
        <ele>134.67613</ele>
        <time>2021-07-02T06:25:10Z</time>
      </trkpt>
      <trkpt lat="42.013073" lon="2.725564">
        <ele>134.44493</ele>
        <time>2021-07-02T06:25:11Z</time>
      </trkpt>
      <trkpt lat="42.013012" lon="2.725785">
        <ele>134.44386</ele>
        <time>2021-07-02T06:25:12Z</time>
      </trkpt>
      <trkpt lat="42.012955" lon="2.725982">
        <ele>134.38301</ele>
        <time>2021-07-02T06:25:13Z</time>
      </trkpt>
      <trkpt lat="42.012863" lon="2.726297">
        <ele>129.80777</ele>
        <time>2021-07-02T06:25:14Z</time>
      </trkpt>
      <trkpt lat="42.012787" lon="2.726538">
        <ele>129.17868</ele>
        <time>2021-07-02T06:25:15Z</time>
      </trkpt>
      <trkpt lat="42.012699" lon="2.726788">
        <ele>128.93784</ele>
        <time>2021-07-02T06:25:16Z</time>
      </trkpt>
      <trkpt lat="42.012608" lon="2.727056">
        <ele>129.79428</ele>
        <time>2021-07-02T06:25:17Z</time>
      </trkpt>
      <trkpt lat="42.012520" lon="2.727315">
        <ele>129.30655</ele>
        <time>2021-07-02T06:25:18Z</time>
      </trkpt>
      <trkpt lat="42.012436" lon="2.727558">
        <ele>129.33426</ele>
        <time>2021-07-02T06:25:19Z</time>
      </trkpt>
      <trkpt lat="42.012344" lon="2.727800">
        <ele>129.66452</ele>
        <time>2021-07-02T06:25:20Z</time>
      </trkpt>
      <trkpt lat="42.012253" lon="2.728040">
        <ele>130.11349</ele>
        <time>2021-07-02T06:25:21Z</time>
      </trkpt>
      <trkpt lat="42.012180" lon="2.728231">
        <ele>130.02353</ele>
        <time>2021-07-02T06:25:22Z</time>
      </trkpt>
      <trkpt lat="42.012093" lon="2.728454">
        <ele>133.39154</ele>
        <time>2021-07-02T06:25:23Z</time>
      </trkpt>
      <trkpt lat="42.012005" lon="2.728648">
        <ele>130.38571</ele>
        <time>2021-07-02T06:25:24Z</time>
      </trkpt>
      <trkpt lat="42.011913" lon="2.728851">
        <ele>130.04013</ele>
        <time>2021-07-02T06:25:25Z</time>
      </trkpt>
      <trkpt lat="42.011787" lon="2.729106">
        <ele>129.72012</ele>
        <time>2021-07-02T06:25:26Z</time>
      </trkpt>
      <trkpt lat="42.011684" lon="2.729299">
        <ele>129.55142</ele>
        <time>2021-07-02T06:25:27Z</time>
      </trkpt>
      <trkpt lat="42.011566" lon="2.729517">
        <ele>129.52719</ele>
        <time>2021-07-02T06:25:28Z</time>
      </trkpt>
      <trkpt lat="42.011436" lon="2.729747">
        <ele>130.09354</ele>
        <time>2021-07-02T06:25:29Z</time>
      </trkpt>
      <trkpt lat="42.011326" lon="2.729983">
        <ele>130.58347</ele>
        <time>2021-07-02T06:25:30Z</time>
      </trkpt>
      <trkpt lat="42.011211" lon="2.730221">
        <ele>131.89719</ele>
        <time>2021-07-02T06:25:31Z</time>
      </trkpt>
      <trkpt lat="42.011093" lon="2.730467">
        <ele>132.09012</ele>
        <time>2021-07-02T06:25:32Z</time>
      </trkpt>
      <trkpt lat="42.010983" lon="2.730694">
        <ele>131.65292</ele>
        <time>2021-07-02T06:25:33Z</time>
      </trkpt>
      <trkpt lat="42.010849" lon="2.730952">
        <ele>131.85269</ele>
        <time>2021-07-02T06:25:34Z</time>
      </trkpt>
      <trkpt lat="42.010715" lon="2.731187">
        <ele>132.25943</ele>
        <time>2021-07-02T06:25:35Z</time>
      </trkpt>
      <trkpt lat="42.010601" lon="2.731423">
        <ele>132.00009</ele>
        <time>2021-07-02T06:25:36Z</time>
      </trkpt>
      <trkpt lat="42.010487" lon="2.731660">
        <ele>132.32224</ele>
        <time>2021-07-02T06:25:37Z</time>
      </trkpt>
      <trkpt lat="42.010376" lon="2.731892">
        <ele>132.36441</ele>
        <time>2021-07-02T06:25:38Z</time>
      </trkpt>
      <trkpt lat="42.010269" lon="2.732093">
        <ele>131.53915</ele>
        <time>2021-07-02T06:25:39Z</time>
      </trkpt>
      <trkpt lat="42.010174" lon="2.732280">
        <ele>131.70847</ele>
        <time>2021-07-02T06:25:40Z</time>
      </trkpt>
      <trkpt lat="42.010101" lon="2.732475">
        <ele>131.43179</ele>
        <time>2021-07-02T06:25:41Z</time>
      </trkpt>
      <trkpt lat="42.010059" lon="2.732670">
        <ele>131.15352</ele>
        <time>2021-07-02T06:25:42Z</time>
      </trkpt>
      <trkpt lat="42.010052" lon="2.732880">
        <ele>131.33000</ele>
        <time>2021-07-02T06:25:43Z</time>
      </trkpt>
      <trkpt lat="42.010052" lon="2.733145">
        <ele>131.44269</ele>
        <time>2021-07-02T06:25:44Z</time>
      </trkpt>
      <trkpt lat="42.010056" lon="2.733397">
        <ele>131.39862</ele>
        <time>2021-07-02T06:25:45Z</time>
      </trkpt>
      <trkpt lat="42.010056" lon="2.733595">
        <ele>130.93861</ele>
        <time>2021-07-02T06:25:46Z</time>
      </trkpt>
      <trkpt lat="42.010052" lon="2.733768">
        <ele>130.94519</ele>
        <time>2021-07-02T06:25:47Z</time>
      </trkpt>
      <trkpt lat="42.010036" lon="2.733925">
        <ele>130.70096</ele>
        <time>2021-07-02T06:25:48Z</time>
      </trkpt>
      <trkpt lat="42.009995" lon="2.734071">
        <ele>130.47903</ele>
        <time>2021-07-02T06:25:49Z</time>
      </trkpt>
      <trkpt lat="42.009995" lon="2.734071">
        <ele>130.15932</ele>
        <time>2021-07-02T06:25:50Z</time>
      </trkpt>
      <trkpt lat="42.009907" lon="2.734155">
        <ele>130.01190</ele>
        <time>2021-07-02T06:25:51Z</time>
      </trkpt>
      <trkpt lat="42.009823" lon="2.734205">
        <ele>130.46904</ele>
        <time>2021-07-02T06:25:52Z</time>
      </trkpt>
      <trkpt lat="42.009747" lon="2.734247">
        <ele>130.74458</ele>
        <time>2021-07-02T06:25:53Z</time>
      </trkpt>
      <trkpt lat="42.009651" lon="2.734283">
        <ele>130.77144</ele>
        <time>2021-07-02T06:25:54Z</time>
      </trkpt>
      <trkpt lat="42.009464" lon="2.734361">
        <ele>130.79991</ele>
        <time>2021-07-02T06:25:55Z</time>
      </trkpt>
      <trkpt lat="42.009350" lon="2.734435">
        <ele>131.40916</ele>
        <time>2021-07-02T06:25:56Z</time>
      </trkpt>
      <trkpt lat="42.009254" lon="2.734537">
        <ele>131.72887</ele>
        <time>2021-07-02T06:25:57Z</time>
      </trkpt>
      <trkpt lat="42.009182" lon="2.734693">
        <ele>132.48024</ele>
        <time>2021-07-02T06:25:58Z</time>
      </trkpt>
      <trkpt lat="42.009090" lon="2.734902">
        <ele>133.36354</ele>
        <time>2021-07-02T06:25:59Z</time>
      </trkpt>
      <trkpt lat="42.008984" lon="2.735144">
        <ele>133.29767</ele>
        <time>2021-07-02T06:26:00Z</time>
      </trkpt>
      <trkpt lat="42.008896" lon="2.735346">
        <ele>132.82872</ele>
        <time>2021-07-02T06:26:01Z</time>
      </trkpt>
      <trkpt lat="42.008842" lon="2.735499">
        <ele>132.19594</ele>
        <time>2021-07-02T06:26:02Z</time>
      </trkpt>
      <trkpt lat="42.008823" lon="2.735595">
        <ele>131.86406</ele>
        <time>2021-07-02T06:26:03Z</time>
      </trkpt>
      <trkpt lat="42.008801" lon="2.735734">
        <ele>131.97079</ele>
        <time>2021-07-02T06:26:04Z</time>
      </trkpt>
      <trkpt lat="42.008820" lon="2.735883">
        <ele>131.44902</ele>
        <time>2021-07-02T06:26:05Z</time>
      </trkpt>
      <trkpt lat="42.008869" lon="2.736015">
        <ele>131.42400</ele>
        <time>2021-07-02T06:26:06Z</time>
      </trkpt>
      <trkpt lat="42.008934" lon="2.736107">
        <ele>131.63324</ele>
        <time>2021-07-02T06:26:07Z</time>
      </trkpt>
      <trkpt lat="42.009022" lon="2.736183">
        <ele>131.63799</ele>
        <time>2021-07-02T06:26:08Z</time>
      </trkpt>
      <trkpt lat="42.009106" lon="2.736234">
        <ele>132.11696</ele>
        <time>2021-07-02T06:26:09Z</time>
      </trkpt>
      <trkpt lat="42.009239" lon="2.736281">
        <ele>131.86090</ele>
        <time>2021-07-02T06:26:10Z</time>
      </trkpt>
      <trkpt lat="42.009411" lon="2.736387">
        <ele>131.33978</ele>
        <time>2021-07-02T06:26:11Z</time>
      </trkpt>
      <trkpt lat="42.009544" lon="2.736512">
        <ele>130.80409</ele>
        <time>2021-07-02T06:26:12Z</time>
      </trkpt>
      <trkpt lat="42.009621" lon="2.736645">
        <ele>130.78473</ele>
        <time>2021-07-02T06:26:13Z</time>
      </trkpt>
      <trkpt lat="42.009663" lon="2.736783">
        <ele>130.78584</ele>
        <time>2021-07-02T06:26:14Z</time>
      </trkpt>
      <trkpt lat="42.009716" lon="2.736953">
        <ele>130.98335</ele>
        <time>2021-07-02T06:26:15Z</time>
      </trkpt>
      <trkpt lat="42.009773" lon="2.737138">
        <ele>130.93214</ele>
        <time>2021-07-02T06:26:16Z</time>
      </trkpt>
      <trkpt lat="42.009827" lon="2.737314">
        <ele>130.75768</ele>
        <time>2021-07-02T06:26:17Z</time>
      </trkpt>
      <trkpt lat="42.009853" lon="2.737435">
        <ele>130.47018</ele>
        <time>2021-07-02T06:26:18Z</time>
      </trkpt>
      <trkpt lat="42.009865" lon="2.737555">
        <ele>130.63647</ele>
        <time>2021-07-02T06:26:19Z</time>
      </trkpt>
      <trkpt lat="42.009827" lon="2.737681">
        <ele>130.80121</ele>
        <time>2021-07-02T06:26:20Z</time>
      </trkpt>
      <trkpt lat="42.009747" lon="2.737795">
        <ele>131.16884</ele>
        <time>2021-07-02T06:26:21Z</time>
      </trkpt>
      <trkpt lat="42.009624" lon="2.737898">
        <ele>131.92513</ele>
        <time>2021-07-02T06:26:22Z</time>
      </trkpt>
      <trkpt lat="42.009510" lon="2.737949">
        <ele>132.21924</ele>
        <time>2021-07-02T06:26:23Z</time>
      </trkpt>
      <trkpt lat="42.009403" lon="2.737980">
        <ele>132.03693</ele>
        <time>2021-07-02T06:26:24Z</time>
      </trkpt>
      <trkpt lat="42.009281" lon="2.737992">
        <ele>132.61809</ele>
        <time>2021-07-02T06:26:25Z</time>
      </trkpt>
      <trkpt lat="42.009132" lon="2.737981">
        <ele>133.08188</ele>
        <time>2021-07-02T06:26:26Z</time>
      </trkpt>
      <trkpt lat="42.008858" lon="2.737931">
        <ele>134.43889</ele>
        <time>2021-07-02T06:26:27Z</time>
      </trkpt>
      <trkpt lat="42.008640" lon="2.737877">
        <ele>134.47177</ele>
        <time>2021-07-02T06:26:28Z</time>
      </trkpt>
      <trkpt lat="42.008640" lon="2.737877">
        <ele>134.94090</ele>
        <time>2021-07-02T06:26:29Z</time>
      </trkpt>
      <trkpt lat="42.008450" lon="2.737830">
        <ele>134.91061</ele>
        <time>2021-07-02T06:26:30Z</time>
      </trkpt>
      <trkpt lat="42.008244" lon="2.737781">
        <ele>135.23535</ele>
        <time>2021-07-02T06:26:31Z</time>
      </trkpt>
      <trkpt lat="42.008072" lon="2.737747">
        <ele>135.18652</ele>
        <time>2021-07-02T06:26:32Z</time>
      </trkpt>
      <trkpt lat="42.007877" lon="2.737715">
        <ele>133.15964</ele>
        <time>2021-07-02T06:26:33Z</time>
      </trkpt>
      <trkpt lat="42.007702" lon="2.737707">
        <ele>133.12845</ele>
        <time>2021-07-02T06:26:34Z</time>
      </trkpt>
      <trkpt lat="42.007519" lon="2.737702">
        <ele>133.51645</ele>
        <time>2021-07-02T06:26:35Z</time>
      </trkpt>
      <trkpt lat="42.007309" lon="2.737708">
        <ele>133.64804</ele>
        <time>2021-07-02T06:26:36Z</time>
      </trkpt>
      <trkpt lat="42.007099" lon="2.737717">
        <ele>133.68015</ele>
        <time>2021-07-02T06:26:37Z</time>
      </trkpt>
      <trkpt lat="42.006886" lon="2.737726">
        <ele>133.21713</ele>
        <time>2021-07-02T06:26:38Z</time>
      </trkpt>
      <trkpt lat="42.006676" lon="2.737734">
        <ele>132.58133</ele>
        <time>2021-07-02T06:26:39Z</time>
      </trkpt>
      <trkpt lat="42.006462" lon="2.737744">
        <ele>132.05612</ele>
        <time>2021-07-02T06:26:40Z</time>
      </trkpt>
      <trkpt lat="42.006241" lon="2.737754">
        <ele>131.62576</ele>
        <time>2021-07-02T06:26:41Z</time>
      </trkpt>
      <trkpt lat="42.006027" lon="2.737764">
        <ele>131.40891</ele>
        <time>2021-07-02T06:26:42Z</time>
      </trkpt>
      <trkpt lat="42.005821" lon="2.737774">
        <ele>130.59836</ele>
        <time>2021-07-02T06:26:43Z</time>
      </trkpt>
      <trkpt lat="42.005627" lon="2.737784">
        <ele>130.30563</ele>
        <time>2021-07-02T06:26:44Z</time>
      </trkpt>
      <trkpt lat="42.005428" lon="2.737796">
        <ele>130.45786</ele>
        <time>2021-07-02T06:26:45Z</time>
      </trkpt>
      <trkpt lat="42.005230" lon="2.737809">
        <ele>130.04257</ele>
        <time>2021-07-02T06:26:46Z</time>
      </trkpt>
      <trkpt lat="42.005028" lon="2.737822">
        <ele>129.72690</ele>
        <time>2021-07-02T06:26:47Z</time>
      </trkpt>
      <trkpt lat="42.004837" lon="2.737834">
        <ele>129.43893</ele>
        <time>2021-07-02T06:26:48Z</time>
      </trkpt>
      <trkpt lat="42.004635" lon="2.737846">
        <ele>128.73642</ele>
        <time>2021-07-02T06:26:49Z</time>
      </trkpt>
      <trkpt lat="42.004429" lon="2.737858">
        <ele>128.61752</ele>
        <time>2021-07-02T06:26:50Z</time>
      </trkpt>
      <trkpt lat="42.004215" lon="2.737871">
        <ele>127.95273</ele>
        <time>2021-07-02T06:26:51Z</time>
      </trkpt>
      <trkpt lat="42.004021" lon="2.737883">
        <ele>127.62637</ele>
        <time>2021-07-02T06:26:52Z</time>
      </trkpt>
      <trkpt lat="42.003834" lon="2.737919">
        <ele>127.09854</ele>
        <time>2021-07-02T06:26:53Z</time>
      </trkpt>
      <trkpt lat="42.003654" lon="2.737972">
        <ele>128.36275</ele>
        <time>2021-07-02T06:26:54Z</time>
      </trkpt>
      <trkpt lat="42.003498" lon="2.738071">
        <ele>127.00681</ele>
        <time>2021-07-02T06:26:55Z</time>
      </trkpt>
      <trkpt lat="42.003349" lon="2.738224">
        <ele>126.87326</ele>
        <time>2021-07-02T06:26:56Z</time>
      </trkpt>
      <trkpt lat="42.003208" lon="2.738395">
        <ele>126.24289</ele>
        <time>2021-07-02T06:26:57Z</time>
      </trkpt>
      <trkpt lat="42.003048" lon="2.738590">
        <ele>125.71237</ele>
        <time>2021-07-02T06:26:58Z</time>
      </trkpt>
      <trkpt lat="42.002899" lon="2.738796">
        <ele>124.79910</ele>
        <time>2021-07-02T06:26:59Z</time>
      </trkpt>
      <trkpt lat="42.002750" lon="2.738991">
        <ele>124.18735</ele>
        <time>2021-07-02T06:27:00Z</time>
      </trkpt>
      <trkpt lat="42.002602" lon="2.739188">
        <ele>123.47739</ele>
        <time>2021-07-02T06:27:01Z</time>
      </trkpt>
      <trkpt lat="42.002453" lon="2.739382">
        <ele>122.78342</ele>
        <time>2021-07-02T06:27:02Z</time>
      </trkpt>
      <trkpt lat="42.002312" lon="2.739560">
        <ele>122.14224</ele>
        <time>2021-07-02T06:27:03Z</time>
      </trkpt>
      <trkpt lat="42.002171" lon="2.739740">
        <ele>121.62674</ele>
        <time>2021-07-02T06:27:04Z</time>
      </trkpt>
      <trkpt lat="42.002018" lon="2.739934">
        <ele>121.23123</ele>
        <time>2021-07-02T06:27:05Z</time>
      </trkpt>
      <trkpt lat="42.001869" lon="2.740124">
        <ele>120.57480</ele>
        <time>2021-07-02T06:27:06Z</time>
      </trkpt>
      <trkpt lat="42.001709" lon="2.740328">
        <ele>119.99466</ele>
        <time>2021-07-02T06:27:07Z</time>
      </trkpt>
      <trkpt lat="42.001553" lon="2.740529">
        <ele>120.22543</ele>
        <time>2021-07-02T06:27:08Z</time>
      </trkpt>
      <trkpt lat="42.001408" lon="2.740710">
        <ele>120.43430</ele>
        <time>2021-07-02T06:27:09Z</time>
      </trkpt>
      <trkpt lat="42.001270" lon="2.740887">
        <ele>120.36435</ele>
        <time>2021-07-02T06:27:10Z</time>
      </trkpt>
      <trkpt lat="42.001122" lon="2.741076">
        <ele>120.83444</ele>
        <time>2021-07-02T06:27:11Z</time>
      </trkpt>
      <trkpt lat="42.000973" lon="2.741264">
        <ele>120.38522</ele>
        <time>2021-07-02T06:27:12Z</time>
      </trkpt>
      <trkpt lat="42.000824" lon="2.741448">
        <ele>120.51950</ele>
        <time>2021-07-02T06:27:13Z</time>
      </trkpt>
      <trkpt lat="42.000671" lon="2.741627">
        <ele>119.97867</ele>
        <time>2021-07-02T06:27:14Z</time>
      </trkpt>
      <trkpt lat="42.000507" lon="2.741816">
        <ele>119.57962</ele>
        <time>2021-07-02T06:27:15Z</time>
      </trkpt>
      <trkpt lat="42.000507" lon="2.741816">
        <ele>119.57614</ele>
        <time>2021-07-02T06:27:16Z</time>
      </trkpt>
      <trkpt lat="42.000340" lon="2.742024">
        <ele>119.43417</ele>
        <time>2021-07-02T06:27:17Z</time>
      </trkpt>
      <trkpt lat="42.000175" lon="2.742227">
        <ele>119.56387</ele>
        <time>2021-07-02T06:27:18Z</time>
      </trkpt>
      <trkpt lat="42.000015" lon="2.742421">
        <ele>119.45663</ele>
        <time>2021-07-02T06:27:19Z</time>
      </trkpt>
      <trkpt lat="41.999859" lon="2.742609">
        <ele>119.42520</ele>
        <time>2021-07-02T06:27:20Z</time>
      </trkpt>
      <trkpt lat="41.999702" lon="2.742803">
        <ele>119.60751</ele>
        <time>2021-07-02T06:27:21Z</time>
      </trkpt>
      <trkpt lat="41.999542" lon="2.742995">
        <ele>119.58255</ele>
        <time>2021-07-02T06:27:22Z</time>
      </trkpt>
      <trkpt lat="41.999386" lon="2.743187">
        <ele>119.74680</ele>
        <time>2021-07-02T06:27:23Z</time>
      </trkpt>
      <trkpt lat="41.999222" lon="2.743388">
        <ele>119.76205</ele>
        <time>2021-07-02T06:27:24Z</time>
      </trkpt>
      <trkpt lat="41.999069" lon="2.743575">
        <ele>119.77890</ele>
        <time>2021-07-02T06:27:25Z</time>
      </trkpt>
      <trkpt lat="41.998920" lon="2.743764">
        <ele>119.46573</ele>
        <time>2021-07-02T06:27:26Z</time>
      </trkpt>
      <trkpt lat="41.998779" lon="2.743955">
        <ele>119.42508</ele>
        <time>2021-07-02T06:27:27Z</time>
      </trkpt>
      <trkpt lat="41.998638" lon="2.744144">
        <ele>119.74625</ele>
        <time>2021-07-02T06:27:28Z</time>
      </trkpt>
      <trkpt lat="41.998505" lon="2.744330">
        <ele>120.47269</ele>
        <time>2021-07-02T06:27:29Z</time>
      </trkpt>
      <trkpt lat="41.998379" lon="2.744507">
        <ele>118.46888</ele>
        <time>2021-07-02T06:27:30Z</time>
      </trkpt>
      <trkpt lat="41.998253" lon="2.744676">
        <ele>118.19910</ele>
        <time>2021-07-02T06:27:31Z</time>
      </trkpt>
      <trkpt lat="41.998127" lon="2.744851">
        <ele>118.34340</ele>
        <time>2021-07-02T06:27:32Z</time>
      </trkpt>
      <trkpt lat="41.998013" lon="2.745011">
        <ele>118.00569</ele>
        <time>2021-07-02T06:27:33Z</time>
      </trkpt>
      <trkpt lat="41.997890" lon="2.745179">
        <ele>118.13701</ele>
        <time>2021-07-02T06:27:34Z</time>
      </trkpt>
      <trkpt lat="41.997765" lon="2.745353">
        <ele>121.03958</ele>
        <time>2021-07-02T06:27:35Z</time>
      </trkpt>
      <trkpt lat="41.997623" lon="2.745530">
        <ele>120.07681</ele>
        <time>2021-07-02T06:27:36Z</time>
      </trkpt>
      <trkpt lat="41.997482" lon="2.745708">
        <ele>119.36105</ele>
        <time>2021-07-02T06:27:37Z</time>
      </trkpt>
      <trkpt lat="41.997337" lon="2.745890">
        <ele>119.02646</ele>
        <time>2021-07-02T06:27:38Z</time>
      </trkpt>
      <trkpt lat="41.997189" lon="2.746073">
        <ele>118.47879</ele>
        <time>2021-07-02T06:27:39Z</time>
      </trkpt>
      <trkpt lat="41.997044" lon="2.746258">
        <ele>117.56088</ele>
        <time>2021-07-02T06:27:40Z</time>
      </trkpt>
      <trkpt lat="41.996899" lon="2.746451">
        <ele>116.96640</ele>
        <time>2021-07-02T06:27:41Z</time>
      </trkpt>
      <trkpt lat="41.996746" lon="2.746648">
        <ele>116.65445</ele>
        <time>2021-07-02T06:27:42Z</time>
      </trkpt>
      <trkpt lat="41.996593" lon="2.746833">
        <ele>116.31564</ele>
        <time>2021-07-02T06:27:43Z</time>
      </trkpt>
      <trkpt lat="41.996441" lon="2.747017">
        <ele>115.64359</ele>
        <time>2021-07-02T06:27:44Z</time>
      </trkpt>
      <trkpt lat="41.996300" lon="2.747205">
        <ele>115.44528</ele>
        <time>2021-07-02T06:27:45Z</time>
      </trkpt>
      <trkpt lat="41.996159" lon="2.747399">
        <ele>115.31595</ele>
        <time>2021-07-02T06:27:46Z</time>
      </trkpt>
      <trkpt lat="41.996010" lon="2.747602">
        <ele>115.24985</ele>
        <time>2021-07-02T06:27:47Z</time>
      </trkpt>
      <trkpt lat="41.995865" lon="2.747788">
        <ele>114.85605</ele>
        <time>2021-07-02T06:27:48Z</time>
      </trkpt>
      <trkpt lat="41.995720" lon="2.747977">
        <ele>114.50601</ele>
        <time>2021-07-02T06:27:49Z</time>
      </trkpt>
      <trkpt lat="41.995571" lon="2.748171">
        <ele>114.31760</ele>
        <time>2021-07-02T06:27:50Z</time>
      </trkpt>
      <trkpt lat="41.995415" lon="2.748372">
        <ele>114.26199</ele>
        <time>2021-07-02T06:27:51Z</time>
      </trkpt>
      <trkpt lat="41.995255" lon="2.748563">
        <ele>113.94968</ele>
        <time>2021-07-02T06:27:52Z</time>
      </trkpt>
      <trkpt lat="41.995102" lon="2.748744">
        <ele>114.09763</ele>
        <time>2021-07-02T06:27:53Z</time>
      </trkpt>
      <trkpt lat="41.994949" lon="2.748926">
        <ele>114.01486</ele>
        <time>2021-07-02T06:27:54Z</time>
      </trkpt>
      <trkpt lat="41.994804" lon="2.749113">
        <ele>113.37979</ele>
        <time>2021-07-02T06:27:55Z</time>
      </trkpt>
      <trkpt lat="41.994671" lon="2.749288">
        <ele>113.06296</ele>
        <time>2021-07-02T06:27:56Z</time>
      </trkpt>
      <trkpt lat="41.994541" lon="2.749455">
        <ele>112.77133</ele>
        <time>2021-07-02T06:27:57Z</time>
      </trkpt>
      <trkpt lat="41.994411" lon="2.749626">
        <ele>112.84360</ele>
        <time>2021-07-02T06:27:58Z</time>
      </trkpt>
      <trkpt lat="41.994278" lon="2.749798">
        <ele>112.95682</ele>
        <time>2021-07-02T06:27:59Z</time>
      </trkpt>
      <trkpt lat="41.994144" lon="2.749972">
        <ele>112.79581</ele>
        <time>2021-07-02T06:28:00Z</time>
      </trkpt>
      <trkpt lat="41.994007" lon="2.750144">
        <ele>112.94431</ele>
        <time>2021-07-02T06:28:01Z</time>
      </trkpt>
      <trkpt lat="41.994007" lon="2.750144">
        <ele>113.49521</ele>
        <time>2021-07-02T06:28:02Z</time>
      </trkpt>
      <trkpt lat="41.993874" lon="2.750315">
        <ele>113.36356</ele>
        <time>2021-07-02T06:28:03Z</time>
      </trkpt>
      <trkpt lat="41.993748" lon="2.750476">
        <ele>113.38242</ele>
        <time>2021-07-02T06:28:04Z</time>
      </trkpt>
      <trkpt lat="41.993626" lon="2.750630">
        <ele>113.39206</ele>
        <time>2021-07-02T06:28:05Z</time>
      </trkpt>
      <trkpt lat="41.993504" lon="2.750783">
        <ele>113.30820</ele>
        <time>2021-07-02T06:28:06Z</time>
      </trkpt>
      <trkpt lat="41.993389" lon="2.750929">
        <ele>112.09793</ele>
        <time>2021-07-02T06:28:07Z</time>
      </trkpt>
      <trkpt lat="41.993279" lon="2.751065">
        <ele>111.79559</ele>
        <time>2021-07-02T06:28:08Z</time>
      </trkpt>
      <trkpt lat="41.993179" lon="2.751190">
        <ele>111.33128</ele>
        <time>2021-07-02T06:28:09Z</time>
      </trkpt>
      <trkpt lat="41.993080" lon="2.751317">
        <ele>111.04025</ele>
        <time>2021-07-02T06:28:10Z</time>
      </trkpt>
      <trkpt lat="41.992981" lon="2.751443">
        <ele>111.08329</ele>
        <time>2021-07-02T06:28:11Z</time>
      </trkpt>
      <trkpt lat="41.992874" lon="2.751575">
        <ele>110.68816</ele>
        <time>2021-07-02T06:28:12Z</time>
      </trkpt>
      <trkpt lat="41.992771" lon="2.751706">
        <ele>110.59621</ele>
        <time>2021-07-02T06:28:13Z</time>
      </trkpt>
      <trkpt lat="41.992664" lon="2.751841">
        <ele>110.41036</ele>
        <time>2021-07-02T06:28:14Z</time>
      </trkpt>
      <trkpt lat="41.992565" lon="2.751965">
        <ele>109.95428</ele>
        <time>2021-07-02T06:28:15Z</time>
      </trkpt>
      <trkpt lat="41.992470" lon="2.752088">
        <ele>109.74709</ele>
        <time>2021-07-02T06:28:16Z</time>
      </trkpt>
      <trkpt lat="41.992382" lon="2.752195">
        <ele>109.13850</ele>
        <time>2021-07-02T06:28:17Z</time>
      </trkpt>
      <trkpt lat="41.992321" lon="2.752273">
        <ele>108.80161</ele>
        <time>2021-07-02T06:28:18Z</time>
      </trkpt>
      <trkpt lat="41.992302" lon="2.752295">
        <ele>108.42202</ele>
        <time>2021-07-02T06:28:19Z</time>
      </trkpt>
      <trkpt lat="41.992294" lon="2.752306">
        <ele>108.43690</ele>
        <time>2021-07-02T06:28:20Z</time>
      </trkpt>
      <trkpt lat="41.992283" lon="2.752324">
        <ele>108.57838</ele>
        <time>2021-07-02T06:28:21Z</time>
      </trkpt>
      <trkpt lat="41.992271" lon="2.752337">
        <ele>108.56525</ele>
        <time>2021-07-02T06:28:22Z</time>
      </trkpt>
      <trkpt lat="41.992271" lon="2.752337">
        <ele>108.65181</ele>
        <time>2021-07-02T06:28:23Z</time>
      </trkpt>
      <trkpt lat="41.992271" lon="2.752337">
        <ele>108.68099</ele>
        <time>2021-07-02T06:28:24Z</time>
      </trkpt>
      <trkpt lat="41.992271" lon="2.752337">
        <ele>108.98186</ele>
        <time>2021-07-02T06:28:25Z</time>
      </trkpt>
      <trkpt lat="41.992256" lon="2.752357">
        <ele>109.54086</ele>
        <time>2021-07-02T06:28:26Z</time>
      </trkpt>
      <trkpt lat="41.992191" lon="2.752434">
        <ele>109.31336</ele>
        <time>2021-07-02T06:28:27Z</time>
      </trkpt>
      <trkpt lat="41.992119" lon="2.752530">
        <ele>109.37759</ele>
        <time>2021-07-02T06:28:28Z</time>
      </trkpt>
      <trkpt lat="41.992069" lon="2.752590">
        <ele>109.36475</ele>
        <time>2021-07-02T06:28:29Z</time>
      </trkpt>
      <trkpt lat="41.992027" lon="2.752643">
        <ele>109.38527</ele>
        <time>2021-07-02T06:28:30Z</time>
      </trkpt>
      <trkpt lat="41.991974" lon="2.752713">
        <ele>109.42292</ele>
        <time>2021-07-02T06:28:31Z</time>
      </trkpt>
      <trkpt lat="41.991913" lon="2.752791">
        <ele>109.28777</ele>
        <time>2021-07-02T06:28:32Z</time>
      </trkpt>
      <trkpt lat="41.991856" lon="2.752867">
        <ele>109.29610</ele>
        <time>2021-07-02T06:28:33Z</time>
      </trkpt>
      <trkpt lat="41.991791" lon="2.752948">
        <ele>109.30560</ele>
        <time>2021-07-02T06:28:34Z</time>
      </trkpt>
      <trkpt lat="41.991734" lon="2.753022">
        <ele>109.06129</ele>
        <time>2021-07-02T06:28:35Z</time>
      </trkpt>
      <trkpt lat="41.991676" lon="2.753093">
        <ele>108.85084</ele>
        <time>2021-07-02T06:28:36Z</time>
      </trkpt>
      <trkpt lat="41.991627" lon="2.753096">
        <ele>108.69284</ele>
        <time>2021-07-02T06:28:37Z</time>
      </trkpt>
      <trkpt lat="41.991528" lon="2.753136">
        <ele>108.30847</ele>
        <time>2021-07-02T06:28:38Z</time>
      </trkpt>
      <trkpt lat="41.991493" lon="2.753211">
        <ele>108.42108</ele>
        <time>2021-07-02T06:28:39Z</time>
      </trkpt>
      <trkpt lat="41.991516" lon="2.753324">
        <ele>108.50484</ele>
        <time>2021-07-02T06:28:40Z</time>
      </trkpt>
      <trkpt lat="41.991425" lon="2.753447">
        <ele>108.72331</ele>
        <time>2021-07-02T06:28:41Z</time>
      </trkpt>
      <trkpt lat="41.991325" lon="2.753563">
        <ele>108.86311</ele>
        <time>2021-07-02T06:28:42Z</time>
      </trkpt>
      <trkpt lat="41.991325" lon="2.753563">
        <ele>109.13570</ele>
        <time>2021-07-02T06:28:43Z</time>
      </trkpt>
      <trkpt lat="41.991241" lon="2.753663">
        <ele>109.09862</ele>
        <time>2021-07-02T06:28:44Z</time>
      </trkpt>
      <trkpt lat="41.991138" lon="2.753781">
        <ele>109.07018</ele>
        <time>2021-07-02T06:28:45Z</time>
      </trkpt>
      <trkpt lat="41.991055" lon="2.753880">
        <ele>109.08288</ele>
        <time>2021-07-02T06:28:46Z</time>
      </trkpt>
      <trkpt lat="41.990963" lon="2.754007">
        <ele>108.96897</ele>
        <time>2021-07-02T06:28:47Z</time>
      </trkpt>
      <trkpt lat="41.990868" lon="2.754150">
        <ele>108.93579</ele>
        <time>2021-07-02T06:28:48Z</time>
      </trkpt>
      <trkpt lat="41.990791" lon="2.754288">
        <ele>108.92677</ele>
        <time>2021-07-02T06:28:49Z</time>
      </trkpt>
      <trkpt lat="41.990734" lon="2.754447">
        <ele>108.72111</ele>
        <time>2021-07-02T06:28:50Z</time>
      </trkpt>
      <trkpt lat="41.990704" lon="2.754622">
        <ele>108.79357</ele>
        <time>2021-07-02T06:28:51Z</time>
      </trkpt>
      <trkpt lat="41.990700" lon="2.754798">
        <ele>108.43591</ele>
        <time>2021-07-02T06:28:52Z</time>
      </trkpt>
      <trkpt lat="41.990696" lon="2.754970">
        <ele>108.32712</ele>
        <time>2021-07-02T06:28:53Z</time>
      </trkpt>
      <trkpt lat="41.990692" lon="2.755126">
        <ele>108.26763</ele>
        <time>2021-07-02T06:28:54Z</time>
      </trkpt>
      <trkpt lat="41.990692" lon="2.755272">
        <ele>108.23133</ele>
        <time>2021-07-02T06:28:55Z</time>
      </trkpt>
      <trkpt lat="41.990688" lon="2.755429">
        <ele>108.37308</ele>
        <time>2021-07-02T06:28:56Z</time>
      </trkpt>
      <trkpt lat="41.990685" lon="2.755576">
        <ele>108.41019</ele>
        <time>2021-07-02T06:28:57Z</time>
      </trkpt>
      <trkpt lat="41.990685" lon="2.755713">
        <ele>108.32555</ele>
        <time>2021-07-02T06:28:58Z</time>
      </trkpt>
      <trkpt lat="41.990681" lon="2.755829">
        <ele>108.39989</ele>
        <time>2021-07-02T06:28:59Z</time>
      </trkpt>
      <trkpt lat="41.990681" lon="2.755930">
        <ele>108.39055</ele>
        <time>2021-07-02T06:29:00Z</time>
      </trkpt>
      <trkpt lat="41.990681" lon="2.756039">
        <ele>108.52163</ele>
        <time>2021-07-02T06:29:01Z</time>
      </trkpt>
      <trkpt lat="41.990677" lon="2.756147">
        <ele>108.58718</ele>
        <time>2021-07-02T06:29:02Z</time>
      </trkpt>
      <trkpt lat="41.990677" lon="2.756258">
        <ele>108.67627</ele>
        <time>2021-07-02T06:29:03Z</time>
      </trkpt>
      <trkpt lat="41.990677" lon="2.756384">
        <ele>108.75258</ele>
        <time>2021-07-02T06:29:04Z</time>
      </trkpt>
      <trkpt lat="41.990673" lon="2.756506">
        <ele>108.72171</ele>
        <time>2021-07-02T06:29:05Z</time>
      </trkpt>
      <trkpt lat="41.990673" lon="2.756614">
        <ele>108.75161</ele>
        <time>2021-07-02T06:29:06Z</time>
      </trkpt>
      <trkpt lat="41.990669" lon="2.756709">
        <ele>108.67986</ele>
        <time>2021-07-02T06:29:07Z</time>
      </trkpt>
      <trkpt lat="41.990669" lon="2.756781">
        <ele>108.62927</ele>
        <time>2021-07-02T06:29:08Z</time>
      </trkpt>
      <trkpt lat="41.990669" lon="2.756837">
        <ele>108.40628</ele>
        <time>2021-07-02T06:29:09Z</time>
      </trkpt>
      <trkpt lat="41.990669" lon="2.756887">
        <ele>108.35623</ele>
        <time>2021-07-02T06:29:10Z</time>
      </trkpt>
      <trkpt lat="41.990665" lon="2.756899">
        <ele>108.24371</ele>
        <time>2021-07-02T06:29:11Z</time>
      </trkpt>
      <trkpt lat="41.990665" lon="2.756899">
        <ele>108.32845</ele>
        <time>2021-07-02T06:29:12Z</time>
      </trkpt>
      <trkpt lat="41.990665" lon="2.756899">
        <ele>108.31839</ele>
        <time>2021-07-02T06:29:13Z</time>
      </trkpt>
      <trkpt lat="41.990665" lon="2.756899">
        <ele>108.23789</ele>
        <time>2021-07-02T06:29:14Z</time>
      </trkpt>
      <trkpt lat="41.990665" lon="2.756899">
        <ele>108.24489</ele>
        <time>2021-07-02T06:29:15Z</time>
      </trkpt>
      <trkpt lat="41.990665" lon="2.756899">
        <ele>108.30199</ele>
        <time>2021-07-02T06:29:16Z</time>
      </trkpt>
      <trkpt lat="41.990665" lon="2.756899">
        <ele>108.23440</ele>
        <time>2021-07-02T06:29:17Z</time>
      </trkpt>
      <trkpt lat="41.990665" lon="2.756899">
        <ele>108.10612</ele>
        <time>2021-07-02T06:29:18Z</time>
      </trkpt>
      <trkpt lat="41.990665" lon="2.756899">
        <ele>108.01502</ele>
        <time>2021-07-02T06:29:19Z</time>
      </trkpt>
      <trkpt lat="41.990665" lon="2.756899">
        <ele>108.04272</ele>
        <time>2021-07-02T06:29:20Z</time>
      </trkpt>
      <trkpt lat="41.990665" lon="2.756899">
        <ele>108.06378</ele>
        <time>2021-07-02T06:29:21Z</time>
      </trkpt>
      <trkpt lat="41.990665" lon="2.756899">
        <ele>108.06717</ele>
        <time>2021-07-02T06:29:22Z</time>
      </trkpt>
      <trkpt lat="41.990665" lon="2.756899">
        <ele>108.03430</ele>
        <time>2021-07-02T06:29:23Z</time>
      </trkpt>
      <trkpt lat="41.990665" lon="2.756899">
        <ele>108.01153</ele>
        <time>2021-07-02T06:29:24Z</time>
      </trkpt>
      <trkpt lat="41.990665" lon="2.756899">
        <ele>108.04237</ele>
        <time>2021-07-02T06:29:25Z</time>
      </trkpt>
      <trkpt lat="41.990665" lon="2.756899">
        <ele>108.05890</ele>
        <time>2021-07-02T06:29:26Z</time>
      </trkpt>
      <trkpt lat="41.990665" lon="2.756899">
        <ele>108.02932</ele>
        <time>2021-07-02T06:29:27Z</time>
      </trkpt>
      <trkpt lat="41.990665" lon="2.756899">
        <ele>108.05981</ele>
        <time>2021-07-02T06:29:28Z</time>
      </trkpt>
      <trkpt lat="41.990665" lon="2.756899">
        <ele>108.24039</ele>
        <time>2021-07-02T06:29:29Z</time>
      </trkpt>
      <trkpt lat="41.990665" lon="2.756905">
        <ele>108.35055</ele>
        <time>2021-07-02T06:29:30Z</time>
      </trkpt>
      <trkpt lat="41.990665" lon="2.756998">
        <ele>108.43684</ele>
        <time>2021-07-02T06:29:31Z</time>
      </trkpt>
      <trkpt lat="41.990662" lon="2.757134">
        <ele>108.40236</ele>
        <time>2021-07-02T06:29:32Z</time>
      </trkpt>
      <trkpt lat="41.990662" lon="2.757286">
        <ele>108.42313</ele>
        <time>2021-07-02T06:29:33Z</time>
      </trkpt>
      <trkpt lat="41.990658" lon="2.757364">
        <ele>108.64243</ele>
        <time>2021-07-02T06:29:34Z</time>
      </trkpt>
      <trkpt lat="41.990654" lon="2.757513">
        <ele>108.54412</ele>
        <time>2021-07-02T06:29:35Z</time>
      </trkpt>
      <trkpt lat="41.990654" lon="2.757636">
        <ele>108.53223</ele>
        <time>2021-07-02T06:29:36Z</time>
      </trkpt>
      <trkpt lat="41.990650" lon="2.757765">
        <ele>108.76409</ele>
        <time>2021-07-02T06:29:37Z</time>
      </trkpt>
      <trkpt lat="41.990646" lon="2.757901">
        <ele>108.56725</ele>
        <time>2021-07-02T06:29:38Z</time>
      </trkpt>
      <trkpt lat="41.990643" lon="2.758034">
        <ele>108.65039</ele>
        <time>2021-07-02T06:29:39Z</time>
      </trkpt>
      <trkpt lat="41.990639" lon="2.758186">
        <ele>108.49653</ele>
        <time>2021-07-02T06:29:40Z</time>
      </trkpt>
      <trkpt lat="41.990635" lon="2.758325">
        <ele>108.45599</ele>
        <time>2021-07-02T06:29:41Z</time>
      </trkpt>
      <trkpt lat="41.990631" lon="2.758468">
        <ele>108.48613</ele>
        <time>2021-07-02T06:29:42Z</time>
      </trkpt>
      <trkpt lat="41.990627" lon="2.758625">
        <ele>108.41031</ele>
        <time>2021-07-02T06:29:43Z</time>
      </trkpt>
      <trkpt lat="41.990623" lon="2.758764">
        <ele>109.44104</ele>
        <time>2021-07-02T06:29:44Z</time>
      </trkpt>
      <trkpt lat="41.990620" lon="2.758896">
        <ele>111.80758</ele>
        <time>2021-07-02T06:29:45Z</time>
      </trkpt>
      <trkpt lat="41.990616" lon="2.759036">
        <ele>112.44736</ele>
        <time>2021-07-02T06:29:46Z</time>
      </trkpt>
      <trkpt lat="41.990608" lon="2.759168">
        <ele>112.60396</ele>
        <time>2021-07-02T06:29:47Z</time>
      </trkpt>
      <trkpt lat="41.990608" lon="2.759301">
        <ele>112.66768</ele>
        <time>2021-07-02T06:29:48Z</time>
      </trkpt>
      <trkpt lat="41.990608" lon="2.759439">
        <ele>112.62461</ele>
        <time>2021-07-02T06:29:49Z</time>
      </trkpt>
      <trkpt lat="41.990604" lon="2.759580">
        <ele>112.59621</ele>
        <time>2021-07-02T06:29:50Z</time>
      </trkpt>
      <trkpt lat="41.990601" lon="2.759704">
        <ele>112.42812</ele>
        <time>2021-07-02T06:29:51Z</time>
      </trkpt>
      <trkpt lat="41.990601" lon="2.759832">
        <ele>112.35941</ele>
        <time>2021-07-02T06:29:52Z</time>
      </trkpt>
      <trkpt lat="41.990597" lon="2.759959">
        <ele>112.30357</ele>
        <time>2021-07-02T06:29:53Z</time>
      </trkpt>
      <trkpt lat="41.990593" lon="2.760075">
        <ele>112.07589</ele>
        <time>2021-07-02T06:29:54Z</time>
      </trkpt>
      <trkpt lat="41.990589" lon="2.760172">
        <ele>111.95724</ele>
        <time>2021-07-02T06:29:55Z</time>
      </trkpt>
      <trkpt lat="41.990589" lon="2.760262">
        <ele>111.92092</ele>
        <time>2021-07-02T06:29:56Z</time>
      </trkpt>
      <trkpt lat="41.990585" lon="2.760361">
        <ele>111.82365</ele>
        <time>2021-07-02T06:29:57Z</time>
      </trkpt>
      <trkpt lat="41.990585" lon="2.760446">
        <ele>111.66743</ele>
        <time>2021-07-02T06:29:58Z</time>
      </trkpt>
      <trkpt lat="41.990582" lon="2.760497">
        <ele>111.47493</ele>
        <time>2021-07-02T06:29:59Z</time>
      </trkpt>
      <trkpt lat="41.990582" lon="2.760510">
        <ele>111.24216</ele>
        <time>2021-07-02T06:30:00Z</time>
      </trkpt>
      <trkpt lat="41.990582" lon="2.760510">
        <ele>111.32177</ele>
        <time>2021-07-02T06:30:01Z</time>
      </trkpt>
      <trkpt lat="41.990582" lon="2.760510">
        <ele>111.23832</ele>
        <time>2021-07-02T06:30:02Z</time>
      </trkpt>
      <trkpt lat="41.990582" lon="2.760510">
        <ele>111.29477</ele>
        <time>2021-07-02T06:30:03Z</time>
      </trkpt>
      <trkpt lat="41.990582" lon="2.760510">
        <ele>111.24374</ele>
        <time>2021-07-02T06:30:04Z</time>
      </trkpt>
      <trkpt lat="41.990582" lon="2.760510">
        <ele>111.25786</ele>
        <time>2021-07-02T06:30:05Z</time>
      </trkpt>
      <trkpt lat="41.990582" lon="2.760510">
        <ele>111.18448</ele>
        <time>2021-07-02T06:30:06Z</time>
      </trkpt>
      <trkpt lat="41.990582" lon="2.760510">
        <ele>111.19273</ele>
        <time>2021-07-02T06:30:07Z</time>
      </trkpt>
      <trkpt lat="41.990582" lon="2.760510">
        <ele>111.17608</ele>
        <time>2021-07-02T06:30:08Z</time>
      </trkpt>
      <trkpt lat="41.990582" lon="2.760510">
        <ele>111.24175</ele>
        <time>2021-07-02T06:30:09Z</time>
      </trkpt>
      <trkpt lat="41.990582" lon="2.760510">
        <ele>111.15659</ele>
        <time>2021-07-02T06:30:10Z</time>
      </trkpt>
      <trkpt lat="41.990582" lon="2.760510">
        <ele>111.08749</ele>
        <time>2021-07-02T06:30:11Z</time>
      </trkpt>
      <trkpt lat="41.990582" lon="2.760510">
        <ele>111.12029</ele>
        <time>2021-07-02T06:30:12Z</time>
      </trkpt>
      <trkpt lat="41.990582" lon="2.760510">
        <ele>111.27042</ele>
        <time>2021-07-02T06:30:13Z</time>
      </trkpt>
      <trkpt lat="41.990582" lon="2.760517">
        <ele>111.37083</ele>
        <time>2021-07-02T06:30:14Z</time>
      </trkpt>
      <trkpt lat="41.990578" lon="2.760632">
        <ele>111.50151</ele>
        <time>2021-07-02T06:30:15Z</time>
      </trkpt>
      <trkpt lat="41.990578" lon="2.760719">
        <ele>111.61872</ele>
        <time>2021-07-02T06:30:16Z</time>
      </trkpt>
      <trkpt lat="41.990574" lon="2.760831">
        <ele>111.50157</ele>
        <time>2021-07-02T06:30:17Z</time>
      </trkpt>
      <trkpt lat="41.990570" lon="2.760915">
        <ele>111.54283</ele>
        <time>2021-07-02T06:30:18Z</time>
      </trkpt>
      <trkpt lat="41.990562" lon="2.761023">
        <ele>111.69263</ele>
        <time>2021-07-02T06:30:19Z</time>
      </trkpt>
      <trkpt lat="41.990559" lon="2.761135">
        <ele>111.79914</ele>
        <time>2021-07-02T06:30:20Z</time>
      </trkpt>
      <trkpt lat="41.990555" lon="2.761240">
        <ele>111.71905</ele>
        <time>2021-07-02T06:30:21Z</time>
      </trkpt>
      <trkpt lat="41.990547" lon="2.761363">
        <ele>111.71149</ele>
        <time>2021-07-02T06:30:22Z</time>
      </trkpt>
      <trkpt lat="41.990543" lon="2.761494">
        <ele>111.75606</ele>
        <time>2021-07-02T06:30:23Z</time>
      </trkpt>
      <trkpt lat="41.990540" lon="2.761639">
        <ele>111.84706</ele>
        <time>2021-07-02T06:30:24Z</time>
      </trkpt>
      <trkpt lat="41.990536" lon="2.761770">
        <ele>111.83789</ele>
        <time>2021-07-02T06:30:25Z</time>
      </trkpt>
      <trkpt lat="41.990536" lon="2.761894">
        <ele>111.90892</ele>
        <time>2021-07-02T06:30:26Z</time>
      </trkpt>
      <trkpt lat="41.990532" lon="2.762016">
        <ele>111.67584</ele>
        <time>2021-07-02T06:30:27Z</time>
      </trkpt>
      <trkpt lat="41.990528" lon="2.762138">
        <ele>111.45296</ele>
        <time>2021-07-02T06:30:28Z</time>
      </trkpt>
      <trkpt lat="41.990524" lon="2.762247">
        <ele>111.48956</ele>
        <time>2021-07-02T06:30:29Z</time>
      </trkpt>
      <trkpt lat="41.990520" lon="2.762359">
        <ele>111.27971</ele>
        <time>2021-07-02T06:30:30Z</time>
      </trkpt>
      <trkpt lat="41.990520" lon="2.762472">
        <ele>111.25951</ele>
        <time>2021-07-02T06:30:31Z</time>
      </trkpt>
      <trkpt lat="41.990517" lon="2.762589">
        <ele>111.52856</ele>
        <time>2021-07-02T06:30:32Z</time>
      </trkpt>
      <trkpt lat="41.990513" lon="2.762716">
        <ele>111.48242</ele>
        <time>2021-07-02T06:30:33Z</time>
      </trkpt>
      <trkpt lat="41.990513" lon="2.762849">
        <ele>111.61635</ele>
        <time>2021-07-02T06:30:34Z</time>
      </trkpt>
      <trkpt lat="41.990509" lon="2.762986">
        <ele>111.70983</ele>
        <time>2021-07-02T06:30:35Z</time>
      </trkpt>
      <trkpt lat="41.990501" lon="2.763136">
        <ele>111.70130</ele>
        <time>2021-07-02T06:30:36Z</time>
      </trkpt>
      <trkpt lat="41.990494" lon="2.763281">
        <ele>111.58606</ele>
        <time>2021-07-02T06:30:37Z</time>
      </trkpt>
      <trkpt lat="41.990486" lon="2.763427">
        <ele>111.57088</ele>
        <time>2021-07-02T06:30:38Z</time>
      </trkpt>
      <trkpt lat="41.990482" lon="2.763586">
        <ele>111.42154</ele>
        <time>2021-07-02T06:30:39Z</time>
      </trkpt>
      <trkpt lat="41.990482" lon="2.763586">
        <ele>111.48098</ele>
        <time>2021-07-02T06:30:40Z</time>
      </trkpt>
      <trkpt lat="41.990479" lon="2.763745">
        <ele>111.31059</ele>
        <time>2021-07-02T06:30:41Z</time>
      </trkpt>
      <trkpt lat="41.990471" lon="2.763904">
        <ele>111.69092</ele>
        <time>2021-07-02T06:30:42Z</time>
      </trkpt>
      <trkpt lat="41.990463" lon="2.764071">
        <ele>110.90972</ele>
        <time>2021-07-02T06:30:43Z</time>
      </trkpt>
      <trkpt lat="41.990459" lon="2.764237">
        <ele>110.80140</ele>
        <time>2021-07-02T06:30:44Z</time>
      </trkpt>
      <trkpt lat="41.990456" lon="2.764393">
        <ele>110.47399</ele>
        <time>2021-07-02T06:30:45Z</time>
      </trkpt>
      <trkpt lat="41.990448" lon="2.764561">
        <ele>110.14060</ele>
        <time>2021-07-02T06:30:46Z</time>
      </trkpt>
      <trkpt lat="41.990440" lon="2.764733">
        <ele>109.87591</ele>
        <time>2021-07-02T06:30:47Z</time>
      </trkpt>
      <trkpt lat="41.990440" lon="2.764906">
        <ele>109.89537</ele>
        <time>2021-07-02T06:30:48Z</time>
      </trkpt>
      <trkpt lat="41.990437" lon="2.765078">
        <ele>109.68158</ele>
        <time>2021-07-02T06:30:49Z</time>
      </trkpt>
      <trkpt lat="41.990433" lon="2.765249">
        <ele>109.11175</ele>
        <time>2021-07-02T06:30:50Z</time>
      </trkpt>
      <trkpt lat="41.990429" lon="2.765420">
        <ele>108.78674</ele>
        <time>2021-07-02T06:30:51Z</time>
      </trkpt>
      <trkpt lat="41.990425" lon="2.765555">
        <ele>108.50446</ele>
        <time>2021-07-02T06:30:52Z</time>
      </trkpt>
      <trkpt lat="41.990421" lon="2.765686">
        <ele>107.69521</ele>
        <time>2021-07-02T06:30:53Z</time>
      </trkpt>
      <trkpt lat="41.990417" lon="2.765805">
        <ele>107.45255</ele>
        <time>2021-07-02T06:30:54Z</time>
      </trkpt>
      <trkpt lat="41.990417" lon="2.765916">
        <ele>107.29049</ele>
        <time>2021-07-02T06:30:55Z</time>
      </trkpt>
      <trkpt lat="41.990414" lon="2.766030">
        <ele>106.95738</ele>
        <time>2021-07-02T06:30:56Z</time>
      </trkpt>
      <trkpt lat="41.990414" lon="2.766131">
        <ele>106.87914</ele>
        <time>2021-07-02T06:30:57Z</time>
      </trkpt>
      <trkpt lat="41.990349" lon="2.766187">
        <ele>107.08882</ele>
        <time>2021-07-02T06:30:58Z</time>
      </trkpt>
      <trkpt lat="41.990265" lon="2.766231">
        <ele>106.88755</ele>
        <time>2021-07-02T06:30:59Z</time>
      </trkpt>
      <trkpt lat="41.990189" lon="2.766356">
        <ele>102.22372</ele>
        <time>2021-07-02T06:31:00Z</time>
      </trkpt>
      <trkpt lat="41.990173" lon="2.766468">
        <ele>106.99040</ele>
        <time>2021-07-02T06:31:01Z</time>
      </trkpt>
      <trkpt lat="41.990189" lon="2.766583">
        <ele>106.92740</ele>
        <time>2021-07-02T06:31:02Z</time>
      </trkpt>
      <trkpt lat="41.990253" lon="2.766693">
        <ele>106.58965</ele>
        <time>2021-07-02T06:31:03Z</time>
      </trkpt>
      <trkpt lat="41.990383" lon="2.766758">
        <ele>106.37161</ele>
        <time>2021-07-02T06:31:04Z</time>
      </trkpt>
      <trkpt lat="41.990398" lon="2.766887">
        <ele>106.53622</ele>
        <time>2021-07-02T06:31:05Z</time>
      </trkpt>
      <trkpt lat="41.990391" lon="2.767181">
        <ele>106.20237</ele>
        <time>2021-07-02T06:31:06Z</time>
      </trkpt>
      <trkpt lat="41.990391" lon="2.767333">
        <ele>106.03040</ele>
        <time>2021-07-02T06:31:07Z</time>
      </trkpt>
      <trkpt lat="41.990391" lon="2.767506">
        <ele>106.00141</ele>
        <time>2021-07-02T06:31:08Z</time>
      </trkpt>
      <trkpt lat="41.990391" lon="2.767617">
        <ele>105.62536</ele>
        <time>2021-07-02T06:31:09Z</time>
      </trkpt>
      <trkpt lat="41.990387" lon="2.767723">
        <ele>105.49411</ele>
        <time>2021-07-02T06:31:10Z</time>
      </trkpt>
      <trkpt lat="41.990383" lon="2.767826">
        <ele>105.45145</ele>
        <time>2021-07-02T06:31:11Z</time>
      </trkpt>
      <trkpt lat="41.990379" lon="2.767944">
        <ele>105.59649</ele>
        <time>2021-07-02T06:31:12Z</time>
      </trkpt>
      <trkpt lat="41.990376" lon="2.768049">
        <ele>105.32381</ele>
        <time>2021-07-02T06:31:13Z</time>
      </trkpt>
      <trkpt lat="41.990372" lon="2.768141">
        <ele>105.23196</ele>
        <time>2021-07-02T06:31:14Z</time>
      </trkpt>
      <trkpt lat="41.990372" lon="2.768211">
        <ele>105.13852</ele>
        <time>2021-07-02T06:31:15Z</time>
      </trkpt>
      <trkpt lat="41.990368" lon="2.768244">
        <ele>104.95467</ele>
        <time>2021-07-02T06:31:16Z</time>
      </trkpt>
      <trkpt lat="41.990234" lon="2.768156">
        <ele>105.11892</ele>
        <time>2021-07-02T06:31:17Z</time>
      </trkpt>
      <trkpt lat="41.990234" lon="2.768255">
        <ele>104.98058</ele>
        <time>2021-07-02T06:31:18Z</time>
      </trkpt>
      <trkpt lat="41.990234" lon="2.768312">
        <ele>104.95160</ele>
        <time>2021-07-02T06:31:19Z</time>
      </trkpt>
      <trkpt lat="41.990234" lon="2.768315">
        <ele>104.83812</ele>
        <time>2021-07-02T06:31:20Z</time>
      </trkpt>
      <trkpt lat="41.990234" lon="2.768351">
        <ele>104.82201</ele>
        <time>2021-07-02T06:31:21Z</time>
      </trkpt>
      <trkpt lat="41.990234" lon="2.768351">
        <ele>104.80469</ele>
        <time>2021-07-02T06:31:22Z</time>
      </trkpt>
      <trkpt lat="41.990234" lon="2.768357">
        <ele>104.68358</ele>
        <time>2021-07-02T06:31:23Z</time>
      </trkpt>
      <trkpt lat="41.990234" lon="2.768357">
        <ele>104.77168</ele>
        <time>2021-07-02T06:31:24Z</time>
      </trkpt>
      <trkpt lat="41.990234" lon="2.768357">
        <ele>104.64996</ele>
        <time>2021-07-02T06:31:25Z</time>
      </trkpt>
      <trkpt lat="41.990234" lon="2.768357">
        <ele>104.63888</ele>
        <time>2021-07-02T06:31:26Z</time>
      </trkpt>
      <trkpt lat="41.990234" lon="2.768357">
        <ele>105.83130</ele>
        <time>2021-07-02T06:37:39Z</time>
      </trkpt>
      <trkpt lat="41.990234" lon="2.768357">
        <ele>105.83296</ele>
        <time>2021-07-02T06:37:40Z</time>
      </trkpt>
      <trkpt lat="41.990234" lon="2.768357">
        <ele>105.84439</ele>
        <time>2021-07-02T06:37:41Z</time>
      </trkpt>
      <trkpt lat="41.990234" lon="2.768357">
        <ele>105.97815</ele>
        <time>2021-07-02T06:37:42Z</time>
      </trkpt>
      <trkpt lat="41.990234" lon="2.768357">
        <ele>106.06290</ele>
        <time>2021-07-02T06:37:43Z</time>
      </trkpt>
      <trkpt lat="41.990234" lon="2.768357">
        <ele>106.07504</ele>
        <time>2021-07-02T06:37:44Z</time>
      </trkpt>
      <trkpt lat="41.990234" lon="2.768357">
        <ele>105.99147</ele>
        <time>2021-07-02T06:37:45Z</time>
      </trkpt>
      <trkpt lat="41.990234" lon="2.768357">
        <ele>105.98406</ele>
        <time>2021-07-02T06:37:46Z</time>
      </trkpt>
      <trkpt lat="41.990234" lon="2.768357">
        <ele>105.98212</ele>
        <time>2021-07-02T06:37:47Z</time>
      </trkpt>
      <trkpt lat="41.990234" lon="2.768357">
        <ele>105.94877</ele>
        <time>2021-07-02T06:37:48Z</time>
      </trkpt>
      <trkpt lat="41.990234" lon="2.768357">
        <ele>105.94174</ele>
        <time>2021-07-02T06:37:49Z</time>
      </trkpt>
      <trkpt lat="41.990234" lon="2.768357">
        <ele>105.89330</ele>
        <time>2021-07-02T06:37:50Z</time>
      </trkpt>
      <trkpt lat="41.990234" lon="2.768357">
        <ele>105.83354</ele>
        <time>2021-07-02T06:37:51Z</time>
      </trkpt>
      <trkpt lat="41.990234" lon="2.768357">
        <ele>105.74973</ele>
        <time>2021-07-02T06:37:52Z</time>
      </trkpt>
      <trkpt lat="41.990234" lon="2.768357">
        <ele>105.78979</ele>
        <time>2021-07-02T06:37:53Z</time>
      </trkpt>
      <trkpt lat="41.990234" lon="2.768357">
        <ele>105.77898</ele>
        <time>2021-07-02T06:37:54Z</time>
      </trkpt>
      <trkpt lat="41.990234" lon="2.768357">
        <ele>105.73422</ele>
        <time>2021-07-02T06:37:55Z</time>
      </trkpt>
      <trkpt lat="41.990234" lon="2.768357">
        <ele>105.76854</ele>
        <time>2021-07-02T06:37:56Z</time>
      </trkpt>
      <trkpt lat="41.990234" lon="2.768357">
        <ele>105.80053</ele>
        <time>2021-07-02T06:37:57Z</time>
      </trkpt>
      <trkpt lat="41.990234" lon="2.768357">
        <ele>105.74187</ele>
        <time>2021-07-02T06:37:58Z</time>
      </trkpt>
      <trkpt lat="41.990234" lon="2.768357">
        <ele>105.74417</ele>
        <time>2021-07-02T06:37:59Z</time>
      </trkpt>
      <trkpt lat="41.990234" lon="2.768357">
        <ele>105.70625</ele>
        <time>2021-07-02T06:38:00Z</time>
      </trkpt>
      <trkpt lat="41.990234" lon="2.768357">
        <ele>105.73791</ele>
        <time>2021-07-02T06:38:01Z</time>
      </trkpt>
      <trkpt lat="41.990234" lon="2.768357">
        <ele>105.75806</ele>
        <time>2021-07-02T06:38:02Z</time>
      </trkpt>
      <trkpt lat="41.990234" lon="2.768357">
        <ele>105.77868</ele>
        <time>2021-07-02T06:38:03Z</time>
      </trkpt>
      <trkpt lat="41.990234" lon="2.768357">
        <ele>105.81929</ele>
        <time>2021-07-02T06:38:04Z</time>
      </trkpt>
      <trkpt lat="41.990234" lon="2.768357">
        <ele>105.27244</ele>
        <time>2021-07-02T06:38:05Z</time>
      </trkpt>
      <trkpt lat="41.990234" lon="2.768357">
        <ele>103.35949</ele>
        <time>2021-07-02T06:38:06Z</time>
      </trkpt>
      <trkpt lat="41.990234" lon="2.768357">
        <ele>102.46822</ele>
        <time>2021-07-02T06:38:07Z</time>
      </trkpt>
      <trkpt lat="41.990234" lon="2.768357">
        <ele>105.31952</ele>
        <time>2021-07-02T06:38:08Z</time>
      </trkpt>
      <trkpt lat="41.990234" lon="2.768357">
        <ele>103.72724</ele>
        <time>2021-07-02T06:38:09Z</time>
      </trkpt>
      <trkpt lat="41.990234" lon="2.768360">
        <ele>102.70587</ele>
        <time>2021-07-02T06:38:10Z</time>
      </trkpt>
      <trkpt lat="41.990234" lon="2.768422">
        <ele>102.27008</ele>
        <time>2021-07-02T06:38:11Z</time>
      </trkpt>
      <trkpt lat="41.990238" lon="2.768495">
        <ele>101.79095</ele>
        <time>2021-07-02T06:38:12Z</time>
      </trkpt>
      <trkpt lat="41.990238" lon="2.768505">
        <ele>101.56042</ele>
        <time>2021-07-02T06:38:13Z</time>
      </trkpt>
      <trkpt lat="41.990250" lon="2.768540">
        <ele>101.37482</ele>
        <time>2021-07-02T06:38:14Z</time>
      </trkpt>
      <trkpt lat="41.990257" lon="2.768552">
        <ele>101.20235</ele>
        <time>2021-07-02T06:38:15Z</time>
      </trkpt>
      <trkpt lat="41.990292" lon="2.768579">
        <ele>101.68071</ele>
        <time>2021-07-02T06:38:16Z</time>
      </trkpt>
      <trkpt lat="41.990295" lon="2.768583">
        <ele>104.75937</ele>
        <time>2021-07-02T06:38:17Z</time>
      </trkpt>
      <trkpt lat="41.990295" lon="2.768583">
        <ele>106.15624</ele>
        <time>2021-07-02T06:38:18Z</time>
      </trkpt>
      <trkpt lat="41.990295" lon="2.768583">
        <ele>106.26587</ele>
        <time>2021-07-02T06:38:19Z</time>
      </trkpt>
      <trkpt lat="41.990295" lon="2.768583">
        <ele>106.31086</ele>
        <time>2021-07-02T06:38:20Z</time>
      </trkpt>
      <trkpt lat="41.990295" lon="2.768583">
        <ele>106.31626</ele>
        <time>2021-07-02T06:38:21Z</time>
      </trkpt>
      <trkpt lat="41.990299" lon="2.768587">
        <ele>106.36964</ele>
        <time>2021-07-02T06:38:22Z</time>
      </trkpt>
      <trkpt lat="41.990349" lon="2.768630">
        <ele>106.66911</ele>
        <time>2021-07-02T06:38:23Z</time>
      </trkpt>
      <trkpt lat="41.990353" lon="2.768696">
        <ele>106.89113</ele>
        <time>2021-07-02T06:38:24Z</time>
      </trkpt>
      <trkpt lat="41.990349" lon="2.768844">
        <ele>106.91672</ele>
        <time>2021-07-02T06:38:25Z</time>
      </trkpt>
      <trkpt lat="41.990345" lon="2.768953">
        <ele>107.09393</ele>
        <time>2021-07-02T06:38:26Z</time>
      </trkpt>
      <trkpt lat="41.990341" lon="2.769084">
        <ele>107.16312</ele>
        <time>2021-07-02T06:38:27Z</time>
      </trkpt>
      <trkpt lat="41.990337" lon="2.769229">
        <ele>107.18832</ele>
        <time>2021-07-02T06:38:28Z</time>
      </trkpt>
      <trkpt lat="41.990334" lon="2.769380">
        <ele>107.31464</ele>
        <time>2021-07-02T06:38:29Z</time>
      </trkpt>
      <trkpt lat="41.990334" lon="2.769380">
        <ele>107.45252</ele>
        <time>2021-07-02T06:38:30Z</time>
      </trkpt>
      <trkpt lat="41.990330" lon="2.769542">
        <ele>107.85554</ele>
        <time>2021-07-02T06:38:31Z</time>
      </trkpt>
      <trkpt lat="41.990326" lon="2.769712">
        <ele>108.08801</ele>
        <time>2021-07-02T06:38:32Z</time>
      </trkpt>
      <trkpt lat="41.990322" lon="2.769884">
        <ele>108.14841</ele>
        <time>2021-07-02T06:38:33Z</time>
      </trkpt>
      <trkpt lat="41.990318" lon="2.770100">
        <ele>108.63768</ele>
        <time>2021-07-02T06:38:34Z</time>
      </trkpt>
      <trkpt lat="41.990314" lon="2.770320">
        <ele>108.76949</ele>
        <time>2021-07-02T06:38:35Z</time>
      </trkpt>
      <trkpt lat="41.990311" lon="2.770538">
        <ele>108.90348</ele>
        <time>2021-07-02T06:38:36Z</time>
      </trkpt>
      <trkpt lat="41.990307" lon="2.770768">
        <ele>109.90971</ele>
        <time>2021-07-02T06:38:37Z</time>
      </trkpt>
      <trkpt lat="41.990299" lon="2.771000">
        <ele>109.38876</ele>
        <time>2021-07-02T06:38:38Z</time>
      </trkpt>
      <trkpt lat="41.990295" lon="2.771252">
        <ele>108.99239</ele>
        <time>2021-07-02T06:38:39Z</time>
      </trkpt>
      <trkpt lat="41.990288" lon="2.771490">
        <ele>108.78250</ele>
        <time>2021-07-02T06:38:40Z</time>
      </trkpt>
      <trkpt lat="41.990280" lon="2.771702">
        <ele>108.38648</ele>
        <time>2021-07-02T06:38:41Z</time>
      </trkpt>
      <trkpt lat="41.990273" lon="2.771903">
        <ele>108.50403</ele>
        <time>2021-07-02T06:38:42Z</time>
      </trkpt>
      <trkpt lat="41.990265" lon="2.772108">
        <ele>108.34969</ele>
        <time>2021-07-02T06:38:43Z</time>
      </trkpt>
      <trkpt lat="41.990257" lon="2.772305">
        <ele>107.94718</ele>
        <time>2021-07-02T06:38:44Z</time>
      </trkpt>
      <trkpt lat="41.990246" lon="2.772494">
        <ele>107.57003</ele>
        <time>2021-07-02T06:38:45Z</time>
      </trkpt>
      <trkpt lat="41.990234" lon="2.772679">
        <ele>107.55161</ele>
        <time>2021-07-02T06:38:46Z</time>
      </trkpt>
      <trkpt lat="41.990227" lon="2.772873">
        <ele>107.20520</ele>
        <time>2021-07-02T06:38:47Z</time>
      </trkpt>
      <trkpt lat="41.990223" lon="2.773070">
        <ele>106.96203</ele>
        <time>2021-07-02T06:38:48Z</time>
      </trkpt>
      <trkpt lat="41.990215" lon="2.773244">
        <ele>106.52760</ele>
        <time>2021-07-02T06:38:49Z</time>
      </trkpt>
      <trkpt lat="41.990208" lon="2.773406">
        <ele>106.04769</ele>
        <time>2021-07-02T06:38:50Z</time>
      </trkpt>
      <trkpt lat="41.990196" lon="2.773557">
        <ele>105.64314</ele>
        <time>2021-07-02T06:38:51Z</time>
      </trkpt>
      <trkpt lat="41.990189" lon="2.773687">
        <ele>105.41606</ele>
        <time>2021-07-02T06:38:52Z</time>
      </trkpt>
      <trkpt lat="41.990181" lon="2.773822">
        <ele>105.19385</ele>
        <time>2021-07-02T06:38:53Z</time>
      </trkpt>
      <trkpt lat="41.990162" lon="2.773896">
        <ele>105.02061</ele>
        <time>2021-07-02T06:38:54Z</time>
      </trkpt>
      <trkpt lat="41.990097" lon="2.773928">
        <ele>105.05055</ele>
        <time>2021-07-02T06:38:55Z</time>
      </trkpt>
      <trkpt lat="41.990028" lon="2.774119">
        <ele>105.08300</ele>
        <time>2021-07-02T06:38:56Z</time>
      </trkpt>
      <trkpt lat="41.990036" lon="2.774188">
        <ele>105.11168</ele>
        <time>2021-07-02T06:38:57Z</time>
      </trkpt>
      <trkpt lat="41.990108" lon="2.774303">
        <ele>105.27310</ele>
        <time>2021-07-02T06:38:58Z</time>
      </trkpt>
      <trkpt lat="41.990143" lon="2.774318">
        <ele>105.26036</ele>
        <time>2021-07-02T06:38:59Z</time>
      </trkpt>
      <trkpt lat="41.990189" lon="2.774487">
        <ele>105.56044</ele>
        <time>2021-07-02T06:39:00Z</time>
      </trkpt>
      <trkpt lat="41.990185" lon="2.774784">
        <ele>105.64190</ele>
        <time>2021-07-02T06:39:01Z</time>
      </trkpt>
      <trkpt lat="41.990177" lon="2.774980">
        <ele>105.75690</ele>
        <time>2021-07-02T06:39:02Z</time>
      </trkpt>
      <trkpt lat="41.990173" lon="2.775155">
        <ele>105.71243</ele>
        <time>2021-07-02T06:39:03Z</time>
      </trkpt>
      <trkpt lat="41.990170" lon="2.775311">
        <ele>105.77956</ele>
        <time>2021-07-02T06:39:04Z</time>
      </trkpt>
      <trkpt lat="41.990166" lon="2.775497">
        <ele>105.80048</ele>
        <time>2021-07-02T06:39:05Z</time>
      </trkpt>
      <trkpt lat="41.990158" lon="2.775676">
        <ele>105.51470</ele>
        <time>2021-07-02T06:39:06Z</time>
      </trkpt>
      <trkpt lat="41.990154" lon="2.775849">
        <ele>105.24990</ele>
        <time>2021-07-02T06:39:07Z</time>
      </trkpt>
      <trkpt lat="41.990147" lon="2.776012">
        <ele>105.16258</ele>
        <time>2021-07-02T06:39:08Z</time>
      </trkpt>
      <trkpt lat="41.990143" lon="2.776186">
        <ele>105.23592</ele>
        <time>2021-07-02T06:39:09Z</time>
      </trkpt>
      <trkpt lat="41.990135" lon="2.776361">
        <ele>105.12984</ele>
        <time>2021-07-02T06:39:10Z</time>
      </trkpt>
      <trkpt lat="41.990131" lon="2.776545">
        <ele>104.92410</ele>
        <time>2021-07-02T06:39:11Z</time>
      </trkpt>
      <trkpt lat="41.990131" lon="2.776545">
        <ele>104.84156</ele>
        <time>2021-07-02T06:39:12Z</time>
      </trkpt>
      <trkpt lat="41.990128" lon="2.776725">
        <ele>104.95652</ele>
        <time>2021-07-02T06:39:13Z</time>
      </trkpt>
      <trkpt lat="41.990124" lon="2.776888">
        <ele>104.70220</ele>
        <time>2021-07-02T06:39:14Z</time>
      </trkpt>
      <trkpt lat="41.990116" lon="2.777063">
        <ele>104.86078</ele>
        <time>2021-07-02T06:39:15Z</time>
      </trkpt>
      <trkpt lat="41.990112" lon="2.777229">
        <ele>104.88406</ele>
        <time>2021-07-02T06:39:16Z</time>
      </trkpt>
      <trkpt lat="41.990108" lon="2.777402">
        <ele>104.96712</ele>
        <time>2021-07-02T06:39:17Z</time>
      </trkpt>
      <trkpt lat="41.990105" lon="2.777582">
        <ele>104.81789</ele>
        <time>2021-07-02T06:39:18Z</time>
      </trkpt>
      <trkpt lat="41.990101" lon="2.777774">
        <ele>104.84543</ele>
        <time>2021-07-02T06:39:19Z</time>
      </trkpt>
      <trkpt lat="41.990093" lon="2.777962">
        <ele>104.60638</ele>
        <time>2021-07-02T06:39:20Z</time>
      </trkpt>
      <trkpt lat="41.990089" lon="2.778154">
        <ele>104.46767</ele>
        <time>2021-07-02T06:39:21Z</time>
      </trkpt>
      <trkpt lat="41.990078" lon="2.778359">
        <ele>104.58102</ele>
        <time>2021-07-02T06:39:22Z</time>
      </trkpt>
      <trkpt lat="41.990070" lon="2.778561">
        <ele>104.20094</ele>
        <time>2021-07-02T06:39:23Z</time>
      </trkpt>
      <trkpt lat="41.990063" lon="2.778768">
        <ele>104.06919</ele>
        <time>2021-07-02T06:39:24Z</time>
      </trkpt>
      <trkpt lat="41.990055" lon="2.778974">
        <ele>104.33073</ele>
        <time>2021-07-02T06:39:25Z</time>
      </trkpt>
      <trkpt lat="41.990044" lon="2.779190">
        <ele>104.24403</ele>
        <time>2021-07-02T06:39:26Z</time>
      </trkpt>
      <trkpt lat="41.990036" lon="2.779395">
        <ele>104.01124</ele>
        <time>2021-07-02T06:39:27Z</time>
      </trkpt>
      <trkpt lat="41.990028" lon="2.779609">
        <ele>103.97568</ele>
        <time>2021-07-02T06:39:28Z</time>
      </trkpt>
      <trkpt lat="41.990021" lon="2.779815">
        <ele>103.20699</ele>
        <time>2021-07-02T06:39:29Z</time>
      </trkpt>
      <trkpt lat="41.990013" lon="2.780017">
        <ele>103.22771</ele>
        <time>2021-07-02T06:39:30Z</time>
      </trkpt>
      <trkpt lat="41.990005" lon="2.780219">
        <ele>103.33012</ele>
        <time>2021-07-02T06:39:31Z</time>
      </trkpt>
      <trkpt lat="41.989994" lon="2.780432">
        <ele>103.07898</ele>
        <time>2021-07-02T06:39:32Z</time>
      </trkpt>
      <trkpt lat="41.989986" lon="2.780653">
        <ele>102.79271</ele>
        <time>2021-07-02T06:39:33Z</time>
      </trkpt>
      <trkpt lat="41.989979" lon="2.780878">
        <ele>102.64349</ele>
        <time>2021-07-02T06:39:34Z</time>
      </trkpt>
      <trkpt lat="41.989967" lon="2.781087">
        <ele>102.62943</ele>
        <time>2021-07-02T06:39:35Z</time>
      </trkpt>
      <trkpt lat="41.989960" lon="2.781306">
        <ele>102.30156</ele>
        <time>2021-07-02T06:39:36Z</time>
      </trkpt>
      <trkpt lat="41.989948" lon="2.781531">
        <ele>101.85241</ele>
        <time>2021-07-02T06:39:37Z</time>
      </trkpt>
      <trkpt lat="41.989941" lon="2.781746">
        <ele>101.66039</ele>
        <time>2021-07-02T06:39:38Z</time>
      </trkpt>
      <trkpt lat="41.989933" lon="2.781966">
        <ele>101.82458</ele>
        <time>2021-07-02T06:39:39Z</time>
      </trkpt>
      <trkpt lat="41.989925" lon="2.782173">
        <ele>101.79575</ele>
        <time>2021-07-02T06:39:40Z</time>
      </trkpt>
      <trkpt lat="41.989914" lon="2.782407">
        <ele>101.62567</ele>
        <time>2021-07-02T06:39:41Z</time>
      </trkpt>
      <trkpt lat="41.989906" lon="2.782647">
        <ele>101.84677</ele>
        <time>2021-07-02T06:39:42Z</time>
      </trkpt>
      <trkpt lat="41.989895" lon="2.782887">
        <ele>101.80950</ele>
        <time>2021-07-02T06:39:43Z</time>
      </trkpt>
      <trkpt lat="41.989883" lon="2.783144">
        <ele>96.23337</ele>
        <time>2021-07-02T06:39:44Z</time>
      </trkpt>
      <trkpt lat="41.989883" lon="2.783144">
        <ele>95.81833</ele>
        <time>2021-07-02T06:39:45Z</time>
      </trkpt>
      <trkpt lat="41.989876" lon="2.783401">
        <ele>95.68210</ele>
        <time>2021-07-02T06:39:46Z</time>
      </trkpt>
      <trkpt lat="41.989864" lon="2.783657">
        <ele>96.43588</ele>
        <time>2021-07-02T06:39:47Z</time>
      </trkpt>
      <trkpt lat="41.989857" lon="2.783908">
        <ele>96.68948</ele>
        <time>2021-07-02T06:39:48Z</time>
      </trkpt>
      <trkpt lat="41.989853" lon="2.784152">
        <ele>96.58676</ele>
        <time>2021-07-02T06:39:49Z</time>
      </trkpt>
      <trkpt lat="41.989853" lon="2.784401">
        <ele>96.07010</ele>
        <time>2021-07-02T06:39:50Z</time>
      </trkpt>
      <trkpt lat="41.989857" lon="2.784653">
        <ele>96.42416</ele>
        <time>2021-07-02T06:39:51Z</time>
      </trkpt>
      <trkpt lat="41.989861" lon="2.784906">
        <ele>95.87418</ele>
        <time>2021-07-02T06:39:52Z</time>
      </trkpt>
      <trkpt lat="41.989876" lon="2.785175">
        <ele>94.87039</ele>
        <time>2021-07-02T06:39:53Z</time>
      </trkpt>
      <trkpt lat="41.989891" lon="2.785428">
        <ele>93.39346</ele>
        <time>2021-07-02T06:39:54Z</time>
      </trkpt>
      <trkpt lat="41.989906" lon="2.785670">
        <ele>93.53836</ele>
        <time>2021-07-02T06:39:55Z</time>
      </trkpt>
      <trkpt lat="41.989925" lon="2.785925">
        <ele>94.97452</ele>
        <time>2021-07-02T06:39:56Z</time>
      </trkpt>
      <trkpt lat="41.989948" lon="2.786185">
        <ele>95.56387</ele>
        <time>2021-07-02T06:39:57Z</time>
      </trkpt>
      <trkpt lat="41.989971" lon="2.786452">
        <ele>95.17502</ele>
        <time>2021-07-02T06:39:58Z</time>
      </trkpt>
      <trkpt lat="41.989990" lon="2.786705">
        <ele>95.51157</ele>
        <time>2021-07-02T06:39:59Z</time>
      </trkpt>
      <trkpt lat="41.990005" lon="2.786931">
        <ele>97.71603</ele>
        <time>2021-07-02T06:40:00Z</time>
      </trkpt>
      <trkpt lat="41.990021" lon="2.787178">
        <ele>99.02866</ele>
        <time>2021-07-02T06:40:01Z</time>
      </trkpt>
      <trkpt lat="41.990032" lon="2.787433">
        <ele>98.66434</ele>
        <time>2021-07-02T06:40:02Z</time>
      </trkpt>
      <trkpt lat="41.990040" lon="2.787686">
        <ele>99.19717</ele>
        <time>2021-07-02T06:40:03Z</time>
      </trkpt>
      <trkpt lat="41.990009" lon="2.787965">
        <ele>100.33530</ele>
        <time>2021-07-02T06:40:04Z</time>
      </trkpt>
      <trkpt lat="41.989986" lon="2.788248">
        <ele>99.95853</ele>
        <time>2021-07-02T06:40:05Z</time>
      </trkpt>
      <trkpt lat="41.989990" lon="2.788520">
        <ele>99.91086</ele>
        <time>2021-07-02T06:40:06Z</time>
      </trkpt>
      <trkpt lat="41.989986" lon="2.788775">
        <ele>99.46170</ele>
        <time>2021-07-02T06:40:07Z</time>
      </trkpt>
      <trkpt lat="41.989944" lon="2.789012">
        <ele>98.26651</ele>
        <time>2021-07-02T06:40:08Z</time>
      </trkpt>
      <trkpt lat="41.989918" lon="2.789276">
        <ele>98.61246</ele>
        <time>2021-07-02T06:40:09Z</time>
      </trkpt>
      <trkpt lat="41.989902" lon="2.789552">
        <ele>92.47147</ele>
        <time>2021-07-02T06:40:10Z</time>
      </trkpt>
      <trkpt lat="41.989887" lon="2.789805">
        <ele>91.08237</ele>
        <time>2021-07-02T06:40:11Z</time>
      </trkpt>
      <trkpt lat="41.989876" lon="2.790043">
        <ele>90.82553</ele>
        <time>2021-07-02T06:40:12Z</time>
      </trkpt>
      <trkpt lat="41.989857" lon="2.790314">
        <ele>89.83444</ele>
        <time>2021-07-02T06:40:13Z</time>
      </trkpt>
      <trkpt lat="41.989841" lon="2.790578">
        <ele>88.71994</ele>
        <time>2021-07-02T06:40:14Z</time>
      </trkpt>
      <trkpt lat="41.989834" lon="2.790836">
        <ele>87.94467</ele>
        <time>2021-07-02T06:40:15Z</time>
      </trkpt>
      <trkpt lat="41.989830" lon="2.791100">
        <ele>87.86539</ele>
        <time>2021-07-02T06:40:16Z</time>
      </trkpt>
      <trkpt lat="41.989826" lon="2.791364">
        <ele>87.59152</ele>
        <time>2021-07-02T06:40:17Z</time>
      </trkpt>
      <trkpt lat="41.989838" lon="2.791607">
        <ele>88.47916</ele>
        <time>2021-07-02T06:40:18Z</time>
      </trkpt>
      <trkpt lat="41.989864" lon="2.791842">
        <ele>88.35495</ele>
        <time>2021-07-02T06:40:19Z</time>
      </trkpt>
      <trkpt lat="41.989906" lon="2.792064">
        <ele>88.58041</ele>
        <time>2021-07-02T06:40:20Z</time>
      </trkpt>
      <trkpt lat="41.989944" lon="2.792278">
        <ele>89.92386</ele>
        <time>2021-07-02T06:40:21Z</time>
      </trkpt>
      <trkpt lat="41.989979" lon="2.792469">
        <ele>90.34476</ele>
        <time>2021-07-02T06:40:22Z</time>
      </trkpt>
      <trkpt lat="41.990013" lon="2.792662">
        <ele>89.77829</ele>
        <time>2021-07-02T06:40:23Z</time>
      </trkpt>
      <trkpt lat="41.990044" lon="2.792846">
        <ele>90.81326</ele>
        <time>2021-07-02T06:40:24Z</time>
      </trkpt>
      <trkpt lat="41.990074" lon="2.793018">
        <ele>90.53885</ele>
        <time>2021-07-02T06:40:25Z</time>
      </trkpt>
      <trkpt lat="41.990105" lon="2.793183">
        <ele>89.68179</ele>
        <time>2021-07-02T06:40:26Z</time>
      </trkpt>
      <trkpt lat="41.990128" lon="2.793334">
        <ele>88.31241</ele>
        <time>2021-07-02T06:40:27Z</time>
      </trkpt>
      <trkpt lat="41.990154" lon="2.793475">
        <ele>88.55881</ele>
        <time>2021-07-02T06:40:28Z</time>
      </trkpt>
      <trkpt lat="41.990154" lon="2.793475">
        <ele>87.52328</ele>
        <time>2021-07-02T06:40:29Z</time>
      </trkpt>
      <trkpt lat="41.990177" lon="2.793616">
        <ele>88.33780</ele>
        <time>2021-07-02T06:40:30Z</time>
      </trkpt>
      <trkpt lat="41.990204" lon="2.793760">
        <ele>87.80453</ele>
        <time>2021-07-02T06:40:31Z</time>
      </trkpt>
      <trkpt lat="41.990227" lon="2.793895">
        <ele>87.88211</ele>
        <time>2021-07-02T06:40:32Z</time>
      </trkpt>
      <trkpt lat="41.990250" lon="2.794016">
        <ele>88.19931</ele>
        <time>2021-07-02T06:40:33Z</time>
      </trkpt>
      <trkpt lat="41.990273" lon="2.794148">
        <ele>88.03024</ele>
        <time>2021-07-02T06:40:34Z</time>
      </trkpt>
      <trkpt lat="41.990292" lon="2.794248">
        <ele>88.20126</ele>
        <time>2021-07-02T06:40:35Z</time>
      </trkpt>
      <trkpt lat="41.990307" lon="2.794325">
        <ele>88.52768</ele>
        <time>2021-07-02T06:40:36Z</time>
      </trkpt>
      <trkpt lat="41.990318" lon="2.794403">
        <ele>88.62491</ele>
        <time>2021-07-02T06:40:37Z</time>
      </trkpt>
      <trkpt lat="41.990330" lon="2.794470">
        <ele>88.87668</ele>
        <time>2021-07-02T06:40:38Z</time>
      </trkpt>
      <trkpt lat="41.990337" lon="2.794527">
        <ele>88.88144</ele>
        <time>2021-07-02T06:40:39Z</time>
      </trkpt>
      <trkpt lat="41.990345" lon="2.794575">
        <ele>86.85391</ele>
        <time>2021-07-02T06:40:40Z</time>
      </trkpt>
      <trkpt lat="41.990356" lon="2.794614">
        <ele>86.39957</ele>
        <time>2021-07-02T06:40:41Z</time>
      </trkpt>
      <trkpt lat="41.990360" lon="2.794637">
        <ele>84.20853</ele>
        <time>2021-07-02T06:40:42Z</time>
      </trkpt>
      <trkpt lat="41.990372" lon="2.794667">
        <ele>83.47153</ele>
        <time>2021-07-02T06:40:43Z</time>
      </trkpt>
      <trkpt lat="41.990379" lon="2.794698">
        <ele>83.39053</ele>
        <time>2021-07-02T06:40:44Z</time>
      </trkpt>
      <trkpt lat="41.990383" lon="2.794702">
        <ele>83.25485</ele>
        <time>2021-07-02T06:40:45Z</time>
      </trkpt>
      <trkpt lat="41.990410" lon="2.794790">
        <ele>82.65182</ele>
        <time>2021-07-02T06:40:46Z</time>
      </trkpt>
      <trkpt lat="41.990417" lon="2.794817">
        <ele>82.44235</ele>
        <time>2021-07-02T06:40:47Z</time>
      </trkpt>
      <trkpt lat="41.990250" lon="2.795024">
        <ele>80.71103</ele>
        <time>2021-07-02T06:40:48Z</time>
      </trkpt>
      <trkpt lat="41.990215" lon="2.795116">
        <ele>80.68356</ele>
        <time>2021-07-02T06:40:49Z</time>
      </trkpt>
      <trkpt lat="41.990204" lon="2.795254">
        <ele>79.81747</ele>
        <time>2021-07-02T06:40:50Z</time>
      </trkpt>
      <trkpt lat="41.990231" lon="2.795378">
        <ele>79.12210</ele>
        <time>2021-07-02T06:40:51Z</time>
      </trkpt>
      <trkpt lat="41.990288" lon="2.795461">
        <ele>79.06674</ele>
        <time>2021-07-02T06:40:52Z</time>
      </trkpt>
      <trkpt lat="41.990368" lon="2.795524">
        <ele>79.22726</ele>
        <time>2021-07-02T06:40:53Z</time>
      </trkpt>
      <trkpt lat="41.990471" lon="2.795556">
        <ele>79.58377</ele>
        <time>2021-07-02T06:40:54Z</time>
      </trkpt>
      <trkpt lat="41.990555" lon="2.795554">
        <ele>79.77060</ele>
        <time>2021-07-02T06:40:55Z</time>
      </trkpt>
      <trkpt lat="41.990620" lon="2.795514">
        <ele>79.45395</ele>
        <time>2021-07-02T06:40:56Z</time>
      </trkpt>
      <trkpt lat="41.990669" lon="2.795455">
        <ele>79.38889</ele>
        <time>2021-07-02T06:40:57Z</time>
      </trkpt>
      <trkpt lat="41.990707" lon="2.795395">
        <ele>80.49612</ele>
        <time>2021-07-02T06:40:58Z</time>
      </trkpt>
      <trkpt lat="41.990730" lon="2.795296">
        <ele>81.94455</ele>
        <time>2021-07-02T06:40:59Z</time>
      </trkpt>
      <trkpt lat="41.990742" lon="2.795212">
        <ele>82.31613</ele>
        <time>2021-07-02T06:41:00Z</time>
      </trkpt>
      <trkpt lat="41.990742" lon="2.795169">
        <ele>82.52274</ele>
        <time>2021-07-02T06:41:01Z</time>
      </trkpt>
      <trkpt lat="41.990730" lon="2.795100">
        <ele>82.80466</ele>
        <time>2021-07-02T06:41:02Z</time>
      </trkpt>
      <trkpt lat="41.990707" lon="2.795047">
        <ele>83.58853</ele>
        <time>2021-07-02T06:41:03Z</time>
      </trkpt>
      <trkpt lat="41.990707" lon="2.795047">
        <ele>84.50760</ele>
        <time>2021-07-02T06:41:04Z</time>
      </trkpt>
      <trkpt lat="41.990707" lon="2.795047">
        <ele>84.58212</ele>
        <time>2021-07-02T06:41:05Z</time>
      </trkpt>
      <trkpt lat="41.990723" lon="2.795005">
        <ele>85.23276</ele>
        <time>2021-07-02T06:41:06Z</time>
      </trkpt>
      <trkpt lat="41.990765" lon="2.794881">
        <ele>85.00485</ele>
        <time>2021-07-02T06:41:07Z</time>
      </trkpt>
      <trkpt lat="41.990807" lon="2.794768">
        <ele>84.87546</ele>
        <time>2021-07-02T06:41:08Z</time>
      </trkpt>
      <trkpt lat="41.990837" lon="2.794702">
        <ele>84.98422</ele>
        <time>2021-07-02T06:41:09Z</time>
      </trkpt>
      <trkpt lat="41.990875" lon="2.794636">
        <ele>84.80612</ele>
        <time>2021-07-02T06:41:10Z</time>
      </trkpt>
      <trkpt lat="41.990925" lon="2.794567">
        <ele>86.82419</ele>
        <time>2021-07-02T06:41:11Z</time>
      </trkpt>
      <trkpt lat="41.990971" lon="2.794518">
        <ele>86.73044</ele>
        <time>2021-07-02T06:41:12Z</time>
      </trkpt>
      <trkpt lat="41.991035" lon="2.794461">
        <ele>87.53799</ele>
        <time>2021-07-02T06:41:13Z</time>
      </trkpt>
      <trkpt lat="41.991100" lon="2.794408">
        <ele>86.65262</ele>
        <time>2021-07-02T06:41:14Z</time>
      </trkpt>
      <trkpt lat="41.991135" lon="2.794377">
        <ele>86.50125</ele>
        <time>2021-07-02T06:41:15Z</time>
      </trkpt>
      <trkpt lat="41.991165" lon="2.794351">
        <ele>87.26193</ele>
        <time>2021-07-02T06:41:16Z</time>
      </trkpt>
      <trkpt lat="41.991203" lon="2.794317">
        <ele>87.55936</ele>
        <time>2021-07-02T06:41:17Z</time>
      </trkpt>
      <trkpt lat="41.991272" lon="2.794258">
        <ele>87.42264</ele>
        <time>2021-07-02T06:41:18Z</time>
      </trkpt>
      <trkpt lat="41.991325" lon="2.794213">
        <ele>86.37436</ele>
        <time>2021-07-02T06:41:19Z</time>
      </trkpt>
      <trkpt lat="41.991383" lon="2.794163">
        <ele>86.63425</ele>
        <time>2021-07-02T06:41:20Z</time>
      </trkpt>
      <trkpt lat="41.991482" lon="2.794078">
        <ele>85.95175</ele>
        <time>2021-07-02T06:41:21Z</time>
      </trkpt>
      <trkpt lat="41.991524" lon="2.794043">
        <ele>85.95578</ele>
        <time>2021-07-02T06:41:22Z</time>
      </trkpt>
      <trkpt lat="41.991577" lon="2.793993">
        <ele>86.10495</ele>
        <time>2021-07-02T06:41:23Z</time>
      </trkpt>
      <trkpt lat="41.991627" lon="2.793951">
        <ele>86.49539</ele>
        <time>2021-07-02T06:41:24Z</time>
      </trkpt>
      <trkpt lat="41.991631" lon="2.793948">
        <ele>86.56064</ele>
        <time>2021-07-02T06:41:25Z</time>
      </trkpt>
      <trkpt lat="41.991661" lon="2.793923">
        <ele>84.26816</ele>
        <time>2021-07-02T06:41:26Z</time>
      </trkpt>
      <trkpt lat="41.991707" lon="2.793885">
        <ele>84.24478</ele>
        <time>2021-07-02T06:41:27Z</time>
      </trkpt>
      <trkpt lat="41.991760" lon="2.793836">
        <ele>84.45047</ele>
        <time>2021-07-02T06:41:28Z</time>
      </trkpt>
      <trkpt lat="41.991825" lon="2.793777">
        <ele>90.47212</ele>
        <time>2021-07-02T06:41:29Z</time>
      </trkpt>
      <trkpt lat="41.991871" lon="2.793740">
        <ele>84.47787</ele>
        <time>2021-07-02T06:41:30Z</time>
      </trkpt>
      <trkpt lat="41.991909" lon="2.793705">
        <ele>85.85043</ele>
        <time>2021-07-02T06:41:31Z</time>
      </trkpt>
      <trkpt lat="41.991928" lon="2.793688">
        <ele>86.43234</ele>
        <time>2021-07-02T06:41:32Z</time>
      </trkpt>
      <trkpt lat="41.991978" lon="2.793647">
        <ele>86.91293</ele>
        <time>2021-07-02T06:41:33Z</time>
      </trkpt>
      <trkpt lat="41.991997" lon="2.793628">
        <ele>87.11948</ele>
        <time>2021-07-02T06:41:34Z</time>
      </trkpt>
      <trkpt lat="41.992046" lon="2.793588">
        <ele>87.25015</ele>
        <time>2021-07-02T06:41:35Z</time>
      </trkpt>
      <trkpt lat="41.992081" lon="2.793557">
        <ele>87.35062</ele>
        <time>2021-07-02T06:41:36Z</time>
      </trkpt>
      <trkpt lat="41.992096" lon="2.793549">
        <ele>87.01785</ele>
        <time>2021-07-02T06:41:37Z</time>
      </trkpt>
      <trkpt lat="41.992168" lon="2.793520">
        <ele>87.19193</ele>
        <time>2021-07-02T06:41:38Z</time>
      </trkpt>
      <trkpt lat="41.992214" lon="2.793502">
        <ele>86.83920</ele>
        <time>2021-07-02T06:41:39Z</time>
      </trkpt>
      <trkpt lat="41.992264" lon="2.793481">
        <ele>86.64536</ele>
        <time>2021-07-02T06:41:40Z</time>
      </trkpt>
      <trkpt lat="41.992264" lon="2.793481">
        <ele>87.49039</ele>
        <time>2021-07-02T06:41:41Z</time>
      </trkpt>
      <trkpt lat="41.992302" lon="2.793466">
        <ele>87.60568</ele>
        <time>2021-07-02T06:41:42Z</time>
      </trkpt>
      <trkpt lat="41.992329" lon="2.793455">
        <ele>85.93356</ele>
        <time>2021-07-02T06:41:43Z</time>
      </trkpt>
      <trkpt lat="41.992352" lon="2.793446">
        <ele>86.18686</ele>
        <time>2021-07-02T06:41:44Z</time>
      </trkpt>
      <trkpt lat="41.992371" lon="2.793439">
        <ele>86.27713</ele>
        <time>2021-07-02T06:41:45Z</time>
      </trkpt>
      <trkpt lat="41.992371" lon="2.793439">
        <ele>86.56296</ele>
        <time>2021-07-02T06:41:46Z</time>
      </trkpt>
      <trkpt lat="41.992371" lon="2.793439">
        <ele>85.46146</ele>
        <time>2021-07-02T06:41:47Z</time>
      </trkpt>
      <trkpt lat="41.992371" lon="2.793439">
        <ele>84.71359</ele>
        <time>2021-07-02T06:41:48Z</time>
      </trkpt>
      <trkpt lat="41.992371" lon="2.793439">
        <ele>84.76022</ele>
        <time>2021-07-02T06:41:49Z</time>
      </trkpt>
      <trkpt lat="41.992371" lon="2.793439">
        <ele>84.46573</ele>
        <time>2021-07-02T06:41:50Z</time>
      </trkpt>
      <trkpt lat="41.992371" lon="2.793439">
        <ele>84.83151</ele>
        <time>2021-07-02T06:41:51Z</time>
      </trkpt>
      <trkpt lat="41.992371" lon="2.793439">
        <ele>90.09915</ele>
        <time>2021-07-02T06:41:52Z</time>
      </trkpt>
      <trkpt lat="41.992371" lon="2.793439">
        <ele>90.10258</ele>
        <time>2021-07-02T06:41:53Z</time>
      </trkpt>
      <trkpt lat="41.992371" lon="2.793439">
        <ele>90.07458</ele>
        <time>2021-07-02T06:41:54Z</time>
      </trkpt>
      <trkpt lat="41.992371" lon="2.793439">
        <ele>90.06747</ele>
        <time>2021-07-02T06:41:55Z</time>
      </trkpt>
      <trkpt lat="41.992371" lon="2.793439">
        <ele>84.11215</ele>
        <time>2021-07-02T06:41:56Z</time>
      </trkpt>
      <trkpt lat="41.992371" lon="2.793439">
        <ele>83.62601</ele>
        <time>2021-07-02T06:41:57Z</time>
      </trkpt>
      <trkpt lat="41.992371" lon="2.793439">
        <ele>84.62088</ele>
        <time>2021-07-02T06:41:58Z</time>
      </trkpt>
      <trkpt lat="41.992371" lon="2.793439">
        <ele>90.11982</ele>
        <time>2021-07-02T06:41:59Z</time>
      </trkpt>
      <trkpt lat="41.992371" lon="2.793439">
        <ele>84.73709</ele>
        <time>2021-07-02T06:42:00Z</time>
      </trkpt>
      <trkpt lat="41.992371" lon="2.793439">
        <ele>85.26920</ele>
        <time>2021-07-02T06:42:01Z</time>
      </trkpt>
      <trkpt lat="41.992371" lon="2.793439">
        <ele>90.11549</ele>
        <time>2021-07-02T06:42:02Z</time>
      </trkpt>
      <trkpt lat="41.992371" lon="2.793439">
        <ele>85.42325</ele>
        <time>2021-07-02T06:42:03Z</time>
      </trkpt>
      <trkpt lat="41.992371" lon="2.793439">
        <ele>85.20847</ele>
        <time>2021-07-02T06:42:04Z</time>
      </trkpt>
      <trkpt lat="41.992371" lon="2.793439">
        <ele>90.10917</ele>
        <time>2021-07-02T06:42:05Z</time>
      </trkpt>
      <trkpt lat="41.992371" lon="2.793439">
        <ele>90.06466</ele>
        <time>2021-07-02T06:42:06Z</time>
      </trkpt>
      <trkpt lat="41.992371" lon="2.793439">
        <ele>90.07504</ele>
        <time>2021-07-02T06:42:07Z</time>
      </trkpt>
      <trkpt lat="41.992371" lon="2.793439">
        <ele>90.09238</ele>
        <time>2021-07-02T06:42:08Z</time>
      </trkpt>
      <trkpt lat="41.992371" lon="2.793439">
        <ele>90.12758</ele>
        <time>2021-07-02T06:42:09Z</time>
      </trkpt>
      <trkpt lat="41.992371" lon="2.793439">
        <ele>90.11241</ele>
        <time>2021-07-02T06:42:10Z</time>
      </trkpt>
      <trkpt lat="41.992371" lon="2.793439">
        <ele>90.03915</ele>
        <time>2021-07-02T06:42:11Z</time>
      </trkpt>
      <trkpt lat="41.992371" lon="2.793439">
        <ele>90.06377</ele>
        <time>2021-07-02T06:42:12Z</time>
      </trkpt>
      <trkpt lat="41.992371" lon="2.793439">
        <ele>90.02752</ele>
        <time>2021-07-02T06:42:13Z</time>
      </trkpt>
      <trkpt lat="41.992371" lon="2.793439">
        <ele>90.10240</ele>
        <time>2021-07-02T06:42:14Z</time>
      </trkpt>
      <trkpt lat="41.992371" lon="2.793439">
        <ele>90.16234</ele>
        <time>2021-07-02T06:42:15Z</time>
      </trkpt>
      <trkpt lat="41.992371" lon="2.793439">
        <ele>90.11237</ele>
        <time>2021-07-02T06:42:16Z</time>
      </trkpt>
      <trkpt lat="41.992371" lon="2.793439">
        <ele>89.97880</ele>
        <time>2021-07-02T06:42:17Z</time>
      </trkpt>
      <trkpt lat="41.992371" lon="2.793439">
        <ele>90.22135</ele>
        <time>2021-07-02T06:42:18Z</time>
      </trkpt>
      <trkpt lat="41.992371" lon="2.793439">
        <ele>90.12218</ele>
        <time>2021-07-02T06:42:19Z</time>
      </trkpt>
      <trkpt lat="41.992371" lon="2.793439">
        <ele>90.10201</ele>
        <time>2021-07-02T06:42:20Z</time>
      </trkpt>
      <trkpt lat="41.992371" lon="2.793439">
        <ele>90.04379</ele>
        <time>2021-07-02T06:42:21Z</time>
      </trkpt>
      <trkpt lat="41.992371" lon="2.793439">
        <ele>90.00009</ele>
        <time>2021-07-02T06:42:22Z</time>
      </trkpt>
      <trkpt lat="41.992371" lon="2.793439">
        <ele>89.91483</ele>
        <time>2021-07-02T06:42:23Z</time>
      </trkpt>
      <trkpt lat="41.992371" lon="2.793439">
        <ele>90.44285</ele>
        <time>2021-07-02T06:42:24Z</time>
      </trkpt>
      <trkpt lat="41.992371" lon="2.793439">
        <ele>90.63911</ele>
        <time>2021-07-02T06:42:25Z</time>
      </trkpt>
      <trkpt lat="41.992371" lon="2.793439">
        <ele>89.93565</ele>
        <time>2021-07-02T06:42:26Z</time>
      </trkpt>
      <trkpt lat="41.992371" lon="2.793439">
        <ele>89.97846</ele>
        <time>2021-07-02T06:42:27Z</time>
      </trkpt>
      <trkpt lat="41.992371" lon="2.793439">
        <ele>90.31232</ele>
        <time>2021-07-02T06:42:28Z</time>
      </trkpt>
      <trkpt lat="41.992371" lon="2.793439">
        <ele>90.05721</ele>
        <time>2021-07-02T06:42:29Z</time>
      </trkpt>
      <trkpt lat="41.992371" lon="2.793439">
        <ele>90.04740</ele>
        <time>2021-07-02T06:42:30Z</time>
      </trkpt>
      <trkpt lat="41.992371" lon="2.793439">
        <ele>90.14405</ele>
        <time>2021-07-02T06:42:31Z</time>
      </trkpt>
      <trkpt lat="41.992371" lon="2.793439">
        <ele>90.09248</ele>
        <time>2021-07-02T06:42:32Z</time>
      </trkpt>
      <trkpt lat="41.992371" lon="2.793439">
        <ele>90.10178</ele>
        <time>2021-07-02T06:42:33Z</time>
      </trkpt>
      <trkpt lat="41.992371" lon="2.793439">
        <ele>90.10516</ele>
        <time>2021-07-02T06:42:34Z</time>
      </trkpt>
      <trkpt lat="41.992371" lon="2.793439">
        <ele>90.15045</ele>
        <time>2021-07-02T06:42:35Z</time>
      </trkpt>
      <trkpt lat="41.992371" lon="2.793439">
        <ele>90.17938</ele>
        <time>2021-07-02T06:42:36Z</time>
      </trkpt>
      <trkpt lat="41.992371" lon="2.793439">
        <ele>90.12735</ele>
        <time>2021-07-02T06:42:37Z</time>
      </trkpt>
      <trkpt lat="41.992371" lon="2.793439">
        <ele>90.10918</ele>
        <time>2021-07-02T06:42:38Z</time>
      </trkpt>
      <trkpt lat="41.992371" lon="2.793439">
        <ele>90.08994</ele>
        <time>2021-07-02T06:42:39Z</time>
      </trkpt>
      <trkpt lat="41.992371" lon="2.793439">
        <ele>90.06445</ele>
        <time>2021-07-02T06:42:40Z</time>
      </trkpt>
      <trkpt lat="41.992371" lon="2.793439">
        <ele>90.04797</ele>
        <time>2021-07-02T06:42:41Z</time>
      </trkpt>
      <trkpt lat="41.992371" lon="2.793439">
        <ele>90.11882</ele>
        <time>2021-07-02T06:42:42Z</time>
      </trkpt>
      <trkpt lat="41.992371" lon="2.793439">
        <ele>90.12319</ele>
        <time>2021-07-02T06:42:43Z</time>
      </trkpt>
      <trkpt lat="41.992371" lon="2.793439">
        <ele>90.06564</ele>
        <time>2021-07-02T06:42:44Z</time>
      </trkpt>
      <trkpt lat="41.992371" lon="2.793439">
        <ele>90.04504</ele>
        <time>2021-07-02T06:42:45Z</time>
      </trkpt>
      <trkpt lat="41.992371" lon="2.793439">
        <ele>90.10287</ele>
        <time>2021-07-02T06:42:46Z</time>
      </trkpt>
      <trkpt lat="41.992371" lon="2.793439">
        <ele>90.20253</ele>
        <time>2021-07-02T06:42:47Z</time>
      </trkpt>
      <trkpt lat="41.992371" lon="2.793439">
        <ele>90.11822</ele>
        <time>2021-07-02T06:42:48Z</time>
      </trkpt>
      <trkpt lat="41.992371" lon="2.793439">
        <ele>90.18574</ele>
        <time>2021-07-02T06:42:49Z</time>
      </trkpt>
      <trkpt lat="41.992371" lon="2.793439">
        <ele>90.15194</ele>
        <time>2021-07-02T06:42:50Z</time>
      </trkpt>
      <trkpt lat="41.992371" lon="2.793439">
        <ele>90.11772</ele>
        <time>2021-07-02T06:42:51Z</time>
      </trkpt>
      <trkpt lat="41.992371" lon="2.793439">
        <ele>90.12986</ele>
        <time>2021-07-02T06:42:52Z</time>
      </trkpt>
      <trkpt lat="41.992371" lon="2.793439">
        <ele>90.15665</ele>
        <time>2021-07-02T06:42:53Z</time>
      </trkpt>
      <trkpt lat="41.992371" lon="2.793439">
        <ele>90.06869</ele>
        <time>2021-07-02T06:42:54Z</time>
      </trkpt>
      <trkpt lat="41.992371" lon="2.793439">
        <ele>90.20860</ele>
        <time>2021-07-02T06:42:55Z</time>
      </trkpt>
      <trkpt lat="41.992371" lon="2.793439">
        <ele>90.11008</ele>
        <time>2021-07-02T06:42:56Z</time>
      </trkpt>
      <trkpt lat="41.992371" lon="2.793439">
        <ele>90.07016</ele>
        <time>2021-07-02T06:42:57Z</time>
      </trkpt>
      <trkpt lat="41.992371" lon="2.793439">
        <ele>90.06884</ele>
        <time>2021-07-02T06:42:58Z</time>
      </trkpt>
      <trkpt lat="41.992371" lon="2.793439">
        <ele>90.12345</ele>
        <time>2021-07-02T06:42:59Z</time>
      </trkpt>
      <trkpt lat="41.992371" lon="2.793439">
        <ele>90.14581</ele>
        <time>2021-07-02T06:43:00Z</time>
      </trkpt>
      <trkpt lat="41.992371" lon="2.793439">
        <ele>90.12593</ele>
        <time>2021-07-02T06:43:01Z</time>
      </trkpt>
      <trkpt lat="41.992371" lon="2.793439">
        <ele>90.30481</ele>
        <time>2021-07-02T06:43:02Z</time>
      </trkpt>
      <trkpt lat="41.992371" lon="2.793439">
        <ele>90.56748</ele>
        <time>2021-07-02T06:43:03Z</time>
      </trkpt>
      <trkpt lat="41.992470" lon="2.793403">
        <ele>90.53534</ele>
        <time>2021-07-02T06:43:04Z</time>
      </trkpt>
      <trkpt lat="41.992558" lon="2.793379">
        <ele>90.44640</ele>
        <time>2021-07-02T06:43:05Z</time>
      </trkpt>
      <trkpt lat="41.992622" lon="2.793371">
        <ele>90.80434</ele>
        <time>2021-07-02T06:43:06Z</time>
      </trkpt>
      <trkpt lat="41.992672" lon="2.793365">
        <ele>90.91074</ele>
        <time>2021-07-02T06:43:07Z</time>
      </trkpt>
      <trkpt lat="41.992733" lon="2.793365">
        <ele>91.11669</ele>
        <time>2021-07-02T06:43:08Z</time>
      </trkpt>
      <trkpt lat="41.992855" lon="2.793406">
        <ele>91.69710</ele>
        <time>2021-07-02T06:43:09Z</time>
      </trkpt>
      <trkpt lat="41.992966" lon="2.793472">
        <ele>92.77368</ele>
        <time>2021-07-02T06:43:10Z</time>
      </trkpt>
      <trkpt lat="41.993122" lon="2.793584">
        <ele>93.41946</ele>
        <time>2021-07-02T06:43:11Z</time>
      </trkpt>
      <trkpt lat="41.993221" lon="2.793693">
        <ele>93.87205</ele>
        <time>2021-07-02T06:43:12Z</time>
      </trkpt>
      <trkpt lat="41.993347" lon="2.793831">
        <ele>95.64907</ele>
        <time>2021-07-02T06:43:13Z</time>
      </trkpt>
      <trkpt lat="41.993484" lon="2.793991">
        <ele>96.65678</ele>
        <time>2021-07-02T06:43:14Z</time>
      </trkpt>
      <trkpt lat="41.993607" lon="2.794150">
        <ele>97.04524</ele>
        <time>2021-07-02T06:43:15Z</time>
      </trkpt>
      <trkpt lat="41.993710" lon="2.794288">
        <ele>98.49695</ele>
        <time>2021-07-02T06:43:16Z</time>
      </trkpt>
      <trkpt lat="41.993820" lon="2.794441">
        <ele>99.03179</ele>
        <time>2021-07-02T06:43:17Z</time>
      </trkpt>
      <trkpt lat="41.993946" lon="2.794609">
        <ele>99.93212</ele>
        <time>2021-07-02T06:43:18Z</time>
      </trkpt>
      <trkpt lat="41.994061" lon="2.794767">
        <ele>100.82949</ele>
        <time>2021-07-02T06:43:19Z</time>
      </trkpt>
      <trkpt lat="41.994198" lon="2.794954">
        <ele>92.96677</ele>
        <time>2021-07-02T06:43:20Z</time>
      </trkpt>
      <trkpt lat="41.994328" lon="2.795138">
        <ele>93.22238</ele>
        <time>2021-07-02T06:43:21Z</time>
      </trkpt>
      <trkpt lat="41.994328" lon="2.795138">
        <ele>93.49966</ele>
        <time>2021-07-02T06:43:22Z</time>
      </trkpt>
      <trkpt lat="41.994461" lon="2.795339">
        <ele>93.49057</ele>
        <time>2021-07-02T06:43:23Z</time>
      </trkpt>
      <trkpt lat="41.994602" lon="2.795555">
        <ele>93.58176</ele>
        <time>2021-07-02T06:43:24Z</time>
      </trkpt>
      <trkpt lat="41.994743" lon="2.795765">
        <ele>93.38522</ele>
        <time>2021-07-02T06:43:25Z</time>
      </trkpt>
      <trkpt lat="41.994888" lon="2.795983">
        <ele>93.48831</ele>
        <time>2021-07-02T06:43:26Z</time>
      </trkpt>
      <trkpt lat="41.995022" lon="2.796188">
        <ele>93.91916</ele>
        <time>2021-07-02T06:43:27Z</time>
      </trkpt>
      <trkpt lat="41.995159" lon="2.796396">
        <ele>94.41617</ele>
        <time>2021-07-02T06:43:28Z</time>
      </trkpt>
      <trkpt lat="41.995308" lon="2.796593">
        <ele>94.69528</ele>
        <time>2021-07-02T06:43:29Z</time>
      </trkpt>
      <trkpt lat="41.995476" lon="2.796777">
        <ele>95.26346</ele>
        <time>2021-07-02T06:43:30Z</time>
      </trkpt>
      <trkpt lat="41.995609" lon="2.796984">
        <ele>95.46774</ele>
        <time>2021-07-02T06:43:31Z</time>
      </trkpt>
      <trkpt lat="41.995758" lon="2.797214">
        <ele>95.23581</ele>
        <time>2021-07-02T06:43:32Z</time>
      </trkpt>
      <trkpt lat="41.995914" lon="2.797452">
        <ele>94.94553</ele>
        <time>2021-07-02T06:43:33Z</time>
      </trkpt>
      <trkpt lat="41.996075" lon="2.797682">
        <ele>95.10092</ele>
        <time>2021-07-02T06:43:34Z</time>
      </trkpt>
      <trkpt lat="41.996231" lon="2.797910">
        <ele>95.26071</ele>
        <time>2021-07-02T06:43:35Z</time>
      </trkpt>
      <trkpt lat="41.996387" lon="2.798143">
        <ele>96.17661</ele>
        <time>2021-07-02T06:43:36Z</time>
      </trkpt>
      <trkpt lat="41.996552" lon="2.798380">
        <ele>97.12857</ele>
        <time>2021-07-02T06:43:37Z</time>
      </trkpt>
      <trkpt lat="41.996719" lon="2.798617">
        <ele>96.99789</ele>
        <time>2021-07-02T06:43:38Z</time>
      </trkpt>
      <trkpt lat="41.996895" lon="2.798865">
        <ele>96.48666</ele>
        <time>2021-07-02T06:43:39Z</time>
      </trkpt>
      <trkpt lat="41.997066" lon="2.799110">
        <ele>97.07394</ele>
        <time>2021-07-02T06:43:40Z</time>
      </trkpt>
      <trkpt lat="41.997246" lon="2.799350">
        <ele>96.78244</ele>
        <time>2021-07-02T06:43:41Z</time>
      </trkpt>
      <trkpt lat="41.997398" lon="2.799558">
        <ele>96.27206</ele>
        <time>2021-07-02T06:43:42Z</time>
      </trkpt>
      <trkpt lat="41.997543" lon="2.799751">
        <ele>95.99911</ele>
        <time>2021-07-02T06:43:43Z</time>
      </trkpt>
      <trkpt lat="41.997707" lon="2.799972">
        <ele>96.18478</ele>
        <time>2021-07-02T06:43:44Z</time>
      </trkpt>
      <trkpt lat="41.997875" lon="2.800199">
        <ele>97.75552</ele>
        <time>2021-07-02T06:43:45Z</time>
      </trkpt>
      <trkpt lat="41.998035" lon="2.800407">
        <ele>99.11075</ele>
        <time>2021-07-02T06:43:46Z</time>
      </trkpt>
      <trkpt lat="41.998234" lon="2.800667">
        <ele>100.45535</ele>
        <time>2021-07-02T06:43:47Z</time>
      </trkpt>
      <trkpt lat="41.998436" lon="2.800933">
        <ele>100.69980</ele>
        <time>2021-07-02T06:43:48Z</time>
      </trkpt>
      <trkpt lat="41.998665" lon="2.801220">
        <ele>100.93900</ele>
        <time>2021-07-02T06:43:49Z</time>
      </trkpt>
      <trkpt lat="41.998898" lon="2.801501">
        <ele>101.39597</ele>
        <time>2021-07-02T06:43:50Z</time>
      </trkpt>
      <trkpt lat="41.999142" lon="2.801792">
        <ele>102.15005</ele>
        <time>2021-07-02T06:43:51Z</time>
      </trkpt>
      <trkpt lat="41.999363" lon="2.802058">
        <ele>101.47354</ele>
        <time>2021-07-02T06:43:52Z</time>
      </trkpt>
      <trkpt lat="41.999599" lon="2.802344">
        <ele>102.41971</ele>
        <time>2021-07-02T06:43:53Z</time>
      </trkpt>
      <trkpt lat="41.999832" lon="2.802616">
        <ele>102.70023</ele>
        <time>2021-07-02T06:43:54Z</time>
      </trkpt>
      <trkpt lat="42.000065" lon="2.802878">
        <ele>102.33536</ele>
        <time>2021-07-02T06:43:55Z</time>
      </trkpt>
      <trkpt lat="42.000313" lon="2.803144">
        <ele>102.93564</ele>
        <time>2021-07-02T06:43:56Z</time>
      </trkpt>
      <trkpt lat="42.000553" lon="2.803398">
        <ele>103.30234</ele>
        <time>2021-07-02T06:43:57Z</time>
      </trkpt>
      <trkpt lat="42.000805" lon="2.803658">
        <ele>103.14407</ele>
        <time>2021-07-02T06:43:58Z</time>
      </trkpt>
      <trkpt lat="42.001041" lon="2.803899">
        <ele>103.26004</ele>
        <time>2021-07-02T06:43:59Z</time>
      </trkpt>
      <trkpt lat="42.001041" lon="2.803899">
        <ele>103.45621</ele>
        <time>2021-07-02T06:44:00Z</time>
      </trkpt>
      <trkpt lat="42.001293" lon="2.804146">
        <ele>103.45029</ele>
        <time>2021-07-02T06:44:01Z</time>
      </trkpt>
      <trkpt lat="42.001556" lon="2.804406">
        <ele>104.24405</ele>
        <time>2021-07-02T06:44:02Z</time>
      </trkpt>
      <trkpt lat="42.001812" lon="2.804648">
        <ele>104.20255</ele>
        <time>2021-07-02T06:44:03Z</time>
      </trkpt>
      <trkpt lat="42.002068" lon="2.804891">
        <ele>104.19974</ele>
        <time>2021-07-02T06:44:04Z</time>
      </trkpt>
      <trkpt lat="42.002316" lon="2.805103">
        <ele>104.39017</ele>
        <time>2021-07-02T06:44:05Z</time>
      </trkpt>
      <trkpt lat="42.002571" lon="2.805316">
        <ele>104.75076</ele>
        <time>2021-07-02T06:44:06Z</time>
      </trkpt>
      <trkpt lat="42.002831" lon="2.805535">
        <ele>104.46567</ele>
        <time>2021-07-02T06:44:07Z</time>
      </trkpt>
      <trkpt lat="42.003075" lon="2.805738">
        <ele>104.74362</ele>
        <time>2021-07-02T06:44:08Z</time>
      </trkpt>
      <trkpt lat="42.003338" lon="2.805949">
        <ele>104.50699</ele>
        <time>2021-07-02T06:44:09Z</time>
      </trkpt>
      <trkpt lat="42.003593" lon="2.806157">
        <ele>104.59006</ele>
        <time>2021-07-02T06:44:10Z</time>
      </trkpt>
      <trkpt lat="42.003868" lon="2.806352">
        <ele>104.93216</ele>
        <time>2021-07-02T06:44:11Z</time>
      </trkpt>
      <trkpt lat="42.004128" lon="2.806524">
        <ele>104.93765</ele>
        <time>2021-07-02T06:44:12Z</time>
      </trkpt>
      <trkpt lat="42.004379" lon="2.806691">
        <ele>104.92117</ele>
        <time>2021-07-02T06:44:13Z</time>
      </trkpt>
      <trkpt lat="42.004658" lon="2.806865">
        <ele>105.04575</ele>
        <time>2021-07-02T06:44:14Z</time>
      </trkpt>
      <trkpt lat="42.004944" lon="2.807035">
        <ele>105.02328</ele>
        <time>2021-07-02T06:44:15Z</time>
      </trkpt>
      <trkpt lat="42.005226" lon="2.807192">
        <ele>103.85971</ele>
        <time>2021-07-02T06:44:16Z</time>
      </trkpt>
      <trkpt lat="42.005535" lon="2.807350">
        <ele>103.80075</ele>
        <time>2021-07-02T06:44:17Z</time>
      </trkpt>
      <trkpt lat="42.005806" lon="2.807487">
        <ele>103.12692</ele>
        <time>2021-07-02T06:44:18Z</time>
      </trkpt>
      <trkpt lat="42.006077" lon="2.807623">
        <ele>102.73471</ele>
        <time>2021-07-02T06:44:19Z</time>
      </trkpt>
      <trkpt lat="42.006340" lon="2.807754">
        <ele>102.73666</ele>
        <time>2021-07-02T06:44:20Z</time>
      </trkpt>
      <trkpt lat="42.006603" lon="2.807876">
        <ele>102.64529</ele>
        <time>2021-07-02T06:44:21Z</time>
      </trkpt>
      <trkpt lat="42.006878" lon="2.808002">
        <ele>102.51303</ele>
        <time>2021-07-02T06:44:22Z</time>
      </trkpt>
      <trkpt lat="42.007160" lon="2.808134">
        <ele>102.40787</ele>
        <time>2021-07-02T06:44:23Z</time>
      </trkpt>
      <trkpt lat="42.007435" lon="2.808260">
        <ele>101.88962</ele>
        <time>2021-07-02T06:44:24Z</time>
      </trkpt>
      <trkpt lat="42.007694" lon="2.808381">
        <ele>101.38400</ele>
        <time>2021-07-02T06:44:25Z</time>
      </trkpt>
      <trkpt lat="42.007969" lon="2.808509">
        <ele>101.02463</ele>
        <time>2021-07-02T06:44:26Z</time>
      </trkpt>
      <trkpt lat="42.008274" lon="2.808653">
        <ele>101.26309</ele>
        <time>2021-07-02T06:44:27Z</time>
      </trkpt>
      <trkpt lat="42.008545" lon="2.808781">
        <ele>100.18820</ele>
        <time>2021-07-02T06:44:28Z</time>
      </trkpt>
      <trkpt lat="42.008835" lon="2.808918">
        <ele>99.54935</ele>
        <time>2021-07-02T06:44:29Z</time>
      </trkpt>
      <trkpt lat="42.009121" lon="2.809078">
        <ele>100.34897</ele>
        <time>2021-07-02T06:44:30Z</time>
      </trkpt>
      <trkpt lat="42.009388" lon="2.809228">
        <ele>99.18094</ele>
        <time>2021-07-02T06:44:31Z</time>
      </trkpt>
      <trkpt lat="42.009682" lon="2.809392">
        <ele>99.77713</ele>
        <time>2021-07-02T06:44:32Z</time>
      </trkpt>
      <trkpt lat="42.009945" lon="2.809553">
        <ele>99.47726</ele>
        <time>2021-07-02T06:44:33Z</time>
      </trkpt>
      <trkpt lat="42.009945" lon="2.809553">
        <ele>99.03128</ele>
        <time>2021-07-02T06:44:34Z</time>
      </trkpt>
      <trkpt lat="42.010220" lon="2.809746">
        <ele>98.83994</ele>
        <time>2021-07-02T06:44:35Z</time>
      </trkpt>
      <trkpt lat="42.010483" lon="2.809938">
        <ele>97.45773</ele>
        <time>2021-07-02T06:44:36Z</time>
      </trkpt>
      <trkpt lat="42.010735" lon="2.810132">
        <ele>96.63193</ele>
        <time>2021-07-02T06:44:37Z</time>
      </trkpt>
      <trkpt lat="42.011009" lon="2.810346">
        <ele>96.31497</ele>
        <time>2021-07-02T06:44:38Z</time>
      </trkpt>
      <trkpt lat="42.011265" lon="2.810547">
        <ele>96.09604</ele>
        <time>2021-07-02T06:44:39Z</time>
      </trkpt>
      <trkpt lat="42.011520" lon="2.810747">
        <ele>96.05942</ele>
        <time>2021-07-02T06:44:40Z</time>
      </trkpt>
      <trkpt lat="42.011768" lon="2.810964">
        <ele>96.03293</ele>
        <time>2021-07-02T06:44:41Z</time>
      </trkpt>
      <trkpt lat="42.012020" lon="2.811193">
        <ele>95.30148</ele>
        <time>2021-07-02T06:44:42Z</time>
      </trkpt>
      <trkpt lat="42.012268" lon="2.811417">
        <ele>94.63651</ele>
        <time>2021-07-02T06:44:43Z</time>
      </trkpt>
      <trkpt lat="42.012531" lon="2.811638">
        <ele>94.20724</ele>
        <time>2021-07-02T06:44:44Z</time>
      </trkpt>
      <trkpt lat="42.012802" lon="2.811858">
        <ele>94.14200</ele>
        <time>2021-07-02T06:44:45Z</time>
      </trkpt>
      <trkpt lat="42.013050" lon="2.812059">
        <ele>93.66647</ele>
        <time>2021-07-02T06:44:46Z</time>
      </trkpt>
      <trkpt lat="42.013309" lon="2.812269">
        <ele>93.63577</ele>
        <time>2021-07-02T06:44:47Z</time>
      </trkpt>
      <trkpt lat="42.013577" lon="2.812473">
        <ele>92.99326</ele>
        <time>2021-07-02T06:44:48Z</time>
      </trkpt>
      <trkpt lat="42.013851" lon="2.812670">
        <ele>92.77823</ele>
        <time>2021-07-02T06:44:49Z</time>
      </trkpt>
      <trkpt lat="42.014118" lon="2.812852">
        <ele>92.54312</ele>
        <time>2021-07-02T06:44:50Z</time>
      </trkpt>
      <trkpt lat="42.014404" lon="2.813040">
        <ele>93.07126</ele>
        <time>2021-07-02T06:44:51Z</time>
      </trkpt>
      <trkpt lat="42.014687" lon="2.813217">
        <ele>93.34372</ele>
        <time>2021-07-02T06:44:52Z</time>
      </trkpt>
      <trkpt lat="42.014977" lon="2.813385">
        <ele>93.51938</ele>
        <time>2021-07-02T06:44:53Z</time>
      </trkpt>
      <trkpt lat="42.015278" lon="2.813553">
        <ele>93.46219</ele>
        <time>2021-07-02T06:44:54Z</time>
      </trkpt>
      <trkpt lat="42.015560" lon="2.813702">
        <ele>93.02878</ele>
        <time>2021-07-02T06:44:55Z</time>
      </trkpt>
      <trkpt lat="42.015846" lon="2.813854">
        <ele>92.75674</ele>
        <time>2021-07-02T06:44:56Z</time>
      </trkpt>
      <trkpt lat="42.016125" lon="2.813986">
        <ele>92.36209</ele>
        <time>2021-07-02T06:44:57Z</time>
      </trkpt>
      <trkpt lat="42.016418" lon="2.814123">
        <ele>91.84079</ele>
        <time>2021-07-02T06:44:58Z</time>
      </trkpt>
      <trkpt lat="42.016708" lon="2.814259">
        <ele>91.82675</ele>
        <time>2021-07-02T06:44:59Z</time>
      </trkpt>
      <trkpt lat="42.017029" lon="2.814407">
        <ele>90.93344</ele>
        <time>2021-07-02T06:45:00Z</time>
      </trkpt>
      <trkpt lat="42.017326" lon="2.814543">
        <ele>90.30649</ele>
        <time>2021-07-02T06:45:01Z</time>
      </trkpt>
      <trkpt lat="42.017597" lon="2.814669">
        <ele>89.57352</ele>
        <time>2021-07-02T06:45:02Z</time>
      </trkpt>
      <trkpt lat="42.017891" lon="2.814805">
        <ele>89.68661</ele>
        <time>2021-07-02T06:45:03Z</time>
      </trkpt>
      <trkpt lat="42.018192" lon="2.814944">
        <ele>89.29807</ele>
        <time>2021-07-02T06:45:04Z</time>
      </trkpt>
      <trkpt lat="42.018478" lon="2.815076">
        <ele>90.07834</ele>
        <time>2021-07-02T06:45:05Z</time>
      </trkpt>
      <trkpt lat="42.018478" lon="2.815076">
        <ele>89.41788</ele>
        <time>2021-07-02T06:45:06Z</time>
      </trkpt>
      <trkpt lat="42.018784" lon="2.815218">
        <ele>88.48581</ele>
        <time>2021-07-02T06:45:07Z</time>
      </trkpt>
      <trkpt lat="42.019081" lon="2.815359">
        <ele>87.82480</ele>
        <time>2021-07-02T06:45:08Z</time>
      </trkpt>
      <trkpt lat="42.019375" lon="2.815510">
        <ele>87.47409</ele>
        <time>2021-07-02T06:45:09Z</time>
      </trkpt>
      <trkpt lat="42.019657" lon="2.815665">
        <ele>86.78922</ele>
        <time>2021-07-02T06:45:10Z</time>
      </trkpt>
      <trkpt lat="42.019943" lon="2.815822">
        <ele>85.99411</ele>
        <time>2021-07-02T06:45:11Z</time>
      </trkpt>
      <trkpt lat="42.020226" lon="2.815976">
        <ele>85.01791</ele>
        <time>2021-07-02T06:45:12Z</time>
      </trkpt>
      <trkpt lat="42.020508" lon="2.816140">
        <ele>84.37979</ele>
        <time>2021-07-02T06:45:13Z</time>
      </trkpt>
      <trkpt lat="42.020782" lon="2.816304">
        <ele>84.20352</ele>
        <time>2021-07-02T06:45:14Z</time>
      </trkpt>
      <trkpt lat="42.021057" lon="2.816476">
        <ele>82.51492</ele>
        <time>2021-07-02T06:45:15Z</time>
      </trkpt>
      <trkpt lat="42.021332" lon="2.816655">
        <ele>81.93253</ele>
        <time>2021-07-02T06:45:16Z</time>
      </trkpt>
      <trkpt lat="42.021603" lon="2.816834">
        <ele>79.94070</ele>
        <time>2021-07-02T06:45:17Z</time>
      </trkpt>
      <trkpt lat="42.021851" lon="2.817023">
        <ele>79.52390</ele>
        <time>2021-07-02T06:45:18Z</time>
      </trkpt>
      <trkpt lat="42.022083" lon="2.817201">
        <ele>78.45151</ele>
        <time>2021-07-02T06:45:19Z</time>
      </trkpt>
      <trkpt lat="42.022316" lon="2.817398">
        <ele>77.55466</ele>
        <time>2021-07-02T06:45:20Z</time>
      </trkpt>
      <trkpt lat="42.022541" lon="2.817593">
        <ele>77.03677</ele>
        <time>2021-07-02T06:45:21Z</time>
      </trkpt>
      <trkpt lat="42.022778" lon="2.817797">
        <ele>76.56570</ele>
        <time>2021-07-02T06:45:22Z</time>
      </trkpt>
      <trkpt lat="42.023003" lon="2.817999">
        <ele>76.20578</ele>
        <time>2021-07-02T06:45:23Z</time>
      </trkpt>
      <trkpt lat="42.023224" lon="2.818212">
        <ele>75.53610</ele>
        <time>2021-07-02T06:45:24Z</time>
      </trkpt>
      <trkpt lat="42.023441" lon="2.818422">
        <ele>75.31595</ele>
        <time>2021-07-02T06:45:25Z</time>
      </trkpt>
      <trkpt lat="42.023651" lon="2.818642">
        <ele>74.76498</ele>
        <time>2021-07-02T06:45:26Z</time>
      </trkpt>
      <trkpt lat="42.023872" lon="2.818878">
        <ele>74.26230</ele>
        <time>2021-07-02T06:45:27Z</time>
      </trkpt>
      <trkpt lat="42.024090" lon="2.819122">
        <ele>73.93942</ele>
        <time>2021-07-02T06:45:28Z</time>
      </trkpt>
      <trkpt lat="42.024303" lon="2.819372">
        <ele>74.10733</ele>
        <time>2021-07-02T06:45:29Z</time>
      </trkpt>
      <trkpt lat="42.024529" lon="2.819632">
        <ele>73.97372</ele>
        <time>2021-07-02T06:45:30Z</time>
      </trkpt>
      <trkpt lat="42.024750" lon="2.819906">
        <ele>73.73019</ele>
        <time>2021-07-02T06:45:31Z</time>
      </trkpt>
      <trkpt lat="42.024944" lon="2.820162">
        <ele>73.80295</ele>
        <time>2021-07-02T06:45:32Z</time>
      </trkpt>
      <trkpt lat="42.025154" lon="2.820435">
        <ele>73.43991</ele>
        <time>2021-07-02T06:45:33Z</time>
      </trkpt>
      <trkpt lat="42.025345" lon="2.820693">
        <ele>73.30093</ele>
        <time>2021-07-02T06:45:34Z</time>
      </trkpt>
      <trkpt lat="42.025528" lon="2.820963">
        <ele>73.14474</ele>
        <time>2021-07-02T06:45:35Z</time>
      </trkpt>
      <trkpt lat="42.025528" lon="2.820963">
        <ele>72.79984</ele>
        <time>2021-07-02T06:45:36Z</time>
      </trkpt>
      <trkpt lat="42.025730" lon="2.821271">
        <ele>72.85110</ele>
        <time>2021-07-02T06:45:37Z</time>
      </trkpt>
      <trkpt lat="42.025917" lon="2.821561">
        <ele>72.93954</ele>
        <time>2021-07-02T06:45:38Z</time>
      </trkpt>
      <trkpt lat="42.026096" lon="2.821860">
        <ele>72.28934</ele>
        <time>2021-07-02T06:45:39Z</time>
      </trkpt>
      <trkpt lat="42.026264" lon="2.822149">
        <ele>72.34763</ele>
        <time>2021-07-02T06:45:40Z</time>
      </trkpt>
      <trkpt lat="42.026428" lon="2.822434">
        <ele>72.41782</ele>
        <time>2021-07-02T06:45:41Z</time>
      </trkpt>
      <trkpt lat="42.026596" lon="2.822728">
        <ele>72.54971</ele>
        <time>2021-07-02T06:45:42Z</time>
      </trkpt>
      <trkpt lat="42.026752" lon="2.823019">
        <ele>72.66397</ele>
        <time>2021-07-02T06:45:43Z</time>
      </trkpt>
      <trkpt lat="42.026897" lon="2.823313">
        <ele>72.66397</ele>
        <time>2021-07-02T06:45:44Z</time>
      </trkpt>
      <trkpt lat="42.027046" lon="2.823619">
        <ele>72.66397</ele>
        <time>2021-07-02T06:45:45Z</time>
      </trkpt>
      <trkpt lat="42.027088" lon="2.823709">
        <ele>72.66397</ele>
        <time>2021-07-02T06:45:46Z</time>
      </trkpt>
      <trkpt lat="42.027088" lon="2.823709">
        <ele>72.66397</ele>
        <time>2021-07-02T06:45:47Z</time>
      </trkpt>
      <trkpt lat="42.027088" lon="2.823709">
        <ele>73.50919</ele>
        <time>2021-07-02T06:45:48Z</time>
      </trkpt>
      <trkpt lat="42.027088" lon="2.823709">
        <ele>74.59824</ele>
        <time>2021-07-02T06:45:49Z</time>
      </trkpt>
      <trkpt lat="42.027439" lon="2.824447">
        <ele>76.09634</ele>
        <time>2021-07-02T06:45:50Z</time>
      </trkpt>
      <trkpt lat="42.027702" lon="2.824954">
        <ele>75.19339</ele>
        <time>2021-07-02T06:45:51Z</time>
      </trkpt>
      <trkpt lat="42.027828" lon="2.825205">
        <ele>84.74143</ele>
        <time>2021-07-02T06:45:52Z</time>
      </trkpt>
      <trkpt lat="42.027924" lon="2.825422">
        <ele>75.31186</ele>
        <time>2021-07-02T06:45:53Z</time>
      </trkpt>
      <trkpt lat="42.028038" lon="2.825680">
        <ele>85.28896</ele>
        <time>2021-07-02T06:45:54Z</time>
      </trkpt>
      <trkpt lat="42.028137" lon="2.825907">
        <ele>85.32016</ele>
        <time>2021-07-02T06:45:55Z</time>
      </trkpt>
      <trkpt lat="42.028229" lon="2.826120">
        <ele>85.59452</ele>
        <time>2021-07-02T06:45:56Z</time>
      </trkpt>
      <trkpt lat="42.028271" lon="2.826212">
        <ele>85.59259</ele>
        <time>2021-07-02T06:45:57Z</time>
      </trkpt>
      <trkpt lat="42.028271" lon="2.826227">
        <ele>85.68383</ele>
        <time>2021-07-02T06:45:58Z</time>
      </trkpt>
      <trkpt lat="42.028336" lon="2.826661">
        <ele>86.46092</ele>
        <time>2021-07-02T06:45:59Z</time>
      </trkpt>
      <trkpt lat="42.028393" lon="2.826865">
        <ele>87.08137</ele>
        <time>2021-07-02T06:46:00Z</time>
      </trkpt>
      <trkpt lat="42.028416" lon="2.827085">
        <ele>87.34775</ele>
        <time>2021-07-02T06:46:01Z</time>
      </trkpt>
      <trkpt lat="42.028427" lon="2.827296">
        <ele>88.31949</ele>
        <time>2021-07-02T06:46:02Z</time>
      </trkpt>
      <trkpt lat="42.028419" lon="2.827504">
        <ele>89.07336</ele>
        <time>2021-07-02T06:46:03Z</time>
      </trkpt>
      <trkpt lat="42.028389" lon="2.827703">
        <ele>89.57964</ele>
        <time>2021-07-02T06:46:04Z</time>
      </trkpt>
      <trkpt lat="42.028347" lon="2.827914">
        <ele>90.28590</ele>
        <time>2021-07-02T06:46:05Z</time>
      </trkpt>
      <trkpt lat="42.028297" lon="2.828122">
        <ele>90.58646</ele>
        <time>2021-07-02T06:46:06Z</time>
      </trkpt>
      <trkpt lat="42.028240" lon="2.828290">
        <ele>91.07584</ele>
        <time>2021-07-02T06:46:07Z</time>
      </trkpt>
      <trkpt lat="42.028191" lon="2.828429">
        <ele>91.21382</ele>
        <time>2021-07-02T06:46:08Z</time>
      </trkpt>
      <trkpt lat="42.028145" lon="2.828580">
        <ele>92.17793</ele>
        <time>2021-07-02T06:46:09Z</time>
      </trkpt>
      <trkpt lat="42.028099" lon="2.828729">
        <ele>92.64281</ele>
        <time>2021-07-02T06:46:10Z</time>
      </trkpt>
      <trkpt lat="42.028072" lon="2.828886">
        <ele>93.18098</ele>
        <time>2021-07-02T06:46:11Z</time>
      </trkpt>
      <trkpt lat="42.028057" lon="2.829046">
        <ele>94.80650</ele>
        <time>2021-07-02T06:46:12Z</time>
      </trkpt>
      <trkpt lat="42.028065" lon="2.829196">
        <ele>95.48537</ele>
        <time>2021-07-02T06:46:13Z</time>
      </trkpt>
      <trkpt lat="42.028065" lon="2.829196">
        <ele>96.03041</ele>
        <time>2021-07-02T06:46:14Z</time>
      </trkpt>
      <trkpt lat="42.028107" lon="2.829392">
        <ele>96.83836</ele>
        <time>2021-07-02T06:46:15Z</time>
      </trkpt>
      <trkpt lat="42.028183" lon="2.829577">
        <ele>97.99932</ele>
        <time>2021-07-02T06:46:16Z</time>
      </trkpt>
      <trkpt lat="42.028282" lon="2.829732">
        <ele>98.38138</ele>
        <time>2021-07-02T06:46:17Z</time>
      </trkpt>
      <trkpt lat="42.028412" lon="2.829860">
        <ele>98.95499</ele>
        <time>2021-07-02T06:46:18Z</time>
      </trkpt>
      <trkpt lat="42.028561" lon="2.829951">
        <ele>100.04852</ele>
        <time>2021-07-02T06:46:19Z</time>
      </trkpt>
      <trkpt lat="42.028713" lon="2.829986">
        <ele>100.91473</ele>
        <time>2021-07-02T06:46:20Z</time>
      </trkpt>
      <trkpt lat="42.028877" lon="2.829990">
        <ele>100.66862</ele>
        <time>2021-07-02T06:46:21Z</time>
      </trkpt>
      <trkpt lat="42.029030" lon="2.829960">
        <ele>100.86073</ele>
        <time>2021-07-02T06:46:22Z</time>
      </trkpt>
      <trkpt lat="42.029163" lon="2.829922">
        <ele>100.89258</ele>
        <time>2021-07-02T06:46:23Z</time>
      </trkpt>
      <trkpt lat="42.029293" lon="2.829858">
        <ele>100.73737</ele>
        <time>2021-07-02T06:46:24Z</time>
      </trkpt>
      <trkpt lat="42.029408" lon="2.829786">
        <ele>100.74334</ele>
        <time>2021-07-02T06:46:25Z</time>
      </trkpt>
      <trkpt lat="42.029518" lon="2.829713">
        <ele>100.69024</ele>
        <time>2021-07-02T06:46:26Z</time>
      </trkpt>
      <trkpt lat="42.029625" lon="2.829641">
        <ele>100.43617</ele>
        <time>2021-07-02T06:46:27Z</time>
      </trkpt>
      <trkpt lat="42.029724" lon="2.829570">
        <ele>100.40562</ele>
        <time>2021-07-02T06:46:28Z</time>
      </trkpt>
      <trkpt lat="42.029823" lon="2.829474">
        <ele>99.62627</ele>
        <time>2021-07-02T06:46:29Z</time>
      </trkpt>
      <trkpt lat="42.029900" lon="2.829388">
        <ele>99.10097</ele>
        <time>2021-07-02T06:46:30Z</time>
      </trkpt>
      <trkpt lat="42.029976" lon="2.829295">
        <ele>99.25640</ele>
        <time>2021-07-02T06:46:31Z</time>
      </trkpt>
      <trkpt lat="42.030041" lon="2.829204">
        <ele>98.49186</ele>
        <time>2021-07-02T06:46:32Z</time>
      </trkpt>
      <trkpt lat="42.030125" lon="2.829082">
        <ele>98.12255</ele>
        <time>2021-07-02T06:46:33Z</time>
      </trkpt>
      <trkpt lat="42.030212" lon="2.828964">
        <ele>98.02884</ele>
        <time>2021-07-02T06:46:34Z</time>
      </trkpt>
      <trkpt lat="42.030296" lon="2.828858">
        <ele>97.32830</ele>
        <time>2021-07-02T06:46:35Z</time>
      </trkpt>
      <trkpt lat="42.030361" lon="2.828733">
        <ele>96.55167</ele>
        <time>2021-07-02T06:46:36Z</time>
      </trkpt>
      <trkpt lat="42.030411" lon="2.828608">
        <ele>96.04688</ele>
        <time>2021-07-02T06:46:37Z</time>
      </trkpt>
      <trkpt lat="42.030411" lon="2.828608">
        <ele>95.83027</ele>
        <time>2021-07-02T06:46:38Z</time>
      </trkpt>
      <trkpt lat="42.030460" lon="2.828474">
        <ele>95.08871</ele>
        <time>2021-07-02T06:46:39Z</time>
      </trkpt>
      <trkpt lat="42.030502" lon="2.828364">
        <ele>94.39104</ele>
        <time>2021-07-02T06:46:40Z</time>
      </trkpt>
      <trkpt lat="42.030540" lon="2.828255">
        <ele>94.21247</ele>
        <time>2021-07-02T06:46:41Z</time>
      </trkpt>
      <trkpt lat="42.030571" lon="2.828161">
        <ele>93.44305</ele>
        <time>2021-07-02T06:46:42Z</time>
      </trkpt>
      <trkpt lat="42.030598" lon="2.828073">
        <ele>93.39462</ele>
        <time>2021-07-02T06:46:43Z</time>
      </trkpt>
      <trkpt lat="42.030624" lon="2.827984">
        <ele>93.35867</ele>
        <time>2021-07-02T06:46:44Z</time>
      </trkpt>
      <trkpt lat="42.030655" lon="2.827892">
        <ele>93.27708</ele>
        <time>2021-07-02T06:46:45Z</time>
      </trkpt>
      <trkpt lat="42.030682" lon="2.827799">
        <ele>93.12684</ele>
        <time>2021-07-02T06:46:46Z</time>
      </trkpt>
      <trkpt lat="42.030708" lon="2.827711">
        <ele>92.98007</ele>
        <time>2021-07-02T06:46:47Z</time>
      </trkpt>
      <trkpt lat="42.030739" lon="2.827623">
        <ele>92.95808</ele>
        <time>2021-07-02T06:46:48Z</time>
      </trkpt>
      <trkpt lat="42.030762" lon="2.827550">
        <ele>93.12225</ele>
        <time>2021-07-02T06:46:49Z</time>
      </trkpt>
      <trkpt lat="42.030788" lon="2.827463">
        <ele>92.19496</ele>
        <time>2021-07-02T06:46:50Z</time>
      </trkpt>
      <trkpt lat="42.030823" lon="2.827352">
        <ele>91.29468</ele>
        <time>2021-07-02T06:46:51Z</time>
      </trkpt>
      <trkpt lat="42.030849" lon="2.827260">
        <ele>90.30759</ele>
        <time>2021-07-02T06:46:52Z</time>
      </trkpt>
      <trkpt lat="42.030869" lon="2.827208">
        <ele>89.97530</ele>
        <time>2021-07-02T06:46:53Z</time>
      </trkpt>
      <trkpt lat="42.030869" lon="2.827198">
        <ele>89.72487</ele>
        <time>2021-07-02T06:46:54Z</time>
      </trkpt>
      <trkpt lat="42.030876" lon="2.827179">
        <ele>89.56441</ele>
        <time>2021-07-02T06:46:55Z</time>
      </trkpt>
      <trkpt lat="42.030888" lon="2.827145">
        <ele>89.48161</ele>
        <time>2021-07-02T06:46:56Z</time>
      </trkpt>
      <trkpt lat="42.030907" lon="2.827088">
        <ele>89.35518</ele>
        <time>2021-07-02T06:46:57Z</time>
      </trkpt>
      <trkpt lat="42.030914" lon="2.827060">
        <ele>89.37906</ele>
        <time>2021-07-02T06:46:58Z</time>
      </trkpt>
      <trkpt lat="42.030930" lon="2.827013">
        <ele>89.44238</ele>
        <time>2021-07-02T06:46:59Z</time>
      </trkpt>
      <trkpt lat="42.030941" lon="2.826970">
        <ele>89.37830</ele>
        <time>2021-07-02T06:47:00Z</time>
      </trkpt>
      <trkpt lat="42.030956" lon="2.826924">
        <ele>89.41253</ele>
        <time>2021-07-02T06:47:01Z</time>
      </trkpt>
      <trkpt lat="42.030968" lon="2.826884">
        <ele>89.57612</ele>
        <time>2021-07-02T06:47:02Z</time>
      </trkpt>
      <trkpt lat="42.030987" lon="2.826825">
        <ele>89.44608</ele>
        <time>2021-07-02T06:47:03Z</time>
      </trkpt>
      <trkpt lat="42.030998" lon="2.826787">
        <ele>89.52766</ele>
        <time>2021-07-02T06:47:04Z</time>
      </trkpt>
      <trkpt lat="42.031010" lon="2.826762">
        <ele>89.51771</ele>
        <time>2021-07-02T06:47:05Z</time>
      </trkpt>
      <trkpt lat="42.031017" lon="2.826730">
        <ele>89.58637</ele>
        <time>2021-07-02T06:47:06Z</time>
      </trkpt>
      <trkpt lat="42.031033" lon="2.826684">
        <ele>89.74300</ele>
        <time>2021-07-02T06:47:07Z</time>
      </trkpt>
      <trkpt lat="42.031052" lon="2.826622">
        <ele>89.94799</ele>
        <time>2021-07-02T06:47:08Z</time>
      </trkpt>
      <trkpt lat="42.031086" lon="2.826521">
        <ele>90.09553</ele>
        <time>2021-07-02T06:47:09Z</time>
      </trkpt>
      <trkpt lat="42.031120" lon="2.826414">
        <ele>90.12294</ele>
        <time>2021-07-02T06:47:10Z</time>
      </trkpt>
      <trkpt lat="42.031151" lon="2.826325">
        <ele>90.09842</ele>
        <time>2021-07-02T06:47:11Z</time>
      </trkpt>
      <trkpt lat="42.031174" lon="2.826261">
        <ele>89.55744</ele>
        <time>2021-07-02T06:47:12Z</time>
      </trkpt>
      <trkpt lat="42.031185" lon="2.826227">
        <ele>89.45362</ele>
        <time>2021-07-02T06:47:13Z</time>
      </trkpt>
      <trkpt lat="42.031185" lon="2.826226">
        <ele>89.38062</ele>
        <time>2021-07-02T06:47:14Z</time>
      </trkpt>
      <trkpt lat="42.031185" lon="2.826222">
        <ele>89.39738</ele>
        <time>2021-07-02T06:47:15Z</time>
      </trkpt>
      <trkpt lat="42.031185" lon="2.826222">
        <ele>89.44142</ele>
        <time>2021-07-02T06:47:16Z</time>
      </trkpt>
      <trkpt lat="42.031185" lon="2.826222">
        <ele>89.36491</ele>
        <time>2021-07-02T06:47:17Z</time>
      </trkpt>
      <trkpt lat="42.031185" lon="2.826222">
        <ele>89.36624</ele>
        <time>2021-07-02T06:47:18Z</time>
      </trkpt>
      <trkpt lat="42.031185" lon="2.826222">
        <ele>89.38147</ele>
        <time>2021-07-02T06:47:19Z</time>
      </trkpt>
      <trkpt lat="42.031185" lon="2.826222">
        <ele>89.42770</ele>
        <time>2021-07-02T06:47:20Z</time>
      </trkpt>
      <trkpt lat="42.031185" lon="2.826222">
        <ele>89.61202</ele>
        <time>2021-07-02T06:47:21Z</time>
      </trkpt>
      <trkpt lat="42.031185" lon="2.826222">
        <ele>89.36925</ele>
        <time>2021-07-02T06:47:22Z</time>
      </trkpt>
      <trkpt lat="42.031185" lon="2.826222">
        <ele>89.46694</ele>
        <time>2021-07-02T06:47:23Z</time>
      </trkpt>
      <trkpt lat="42.031185" lon="2.826222">
        <ele>89.56344</ele>
        <time>2021-07-02T06:47:24Z</time>
      </trkpt>
      <trkpt lat="42.031185" lon="2.826222">
        <ele>89.75283</ele>
        <time>2021-07-02T06:47:25Z</time>
      </trkpt>
      <trkpt lat="42.031204" lon="2.826173">
        <ele>90.18808</ele>
        <time>2021-07-02T06:47:26Z</time>
      </trkpt>
      <trkpt lat="42.031242" lon="2.826064">
        <ele>90.26469</ele>
        <time>2021-07-02T06:47:27Z</time>
      </trkpt>
      <trkpt lat="42.031292" lon="2.825959">
        <ele>90.32026</ele>
        <time>2021-07-02T06:47:28Z</time>
      </trkpt>
      <trkpt lat="42.031361" lon="2.825869">
        <ele>90.90784</ele>
        <time>2021-07-02T06:47:29Z</time>
      </trkpt>
      <trkpt lat="42.031414" lon="2.825802">
        <ele>91.07334</ele>
        <time>2021-07-02T06:47:30Z</time>
      </trkpt>
      <trkpt lat="42.031483" lon="2.825738">
        <ele>92.20049</ele>
        <time>2021-07-02T06:47:31Z</time>
      </trkpt>
      <trkpt lat="42.031570" lon="2.825680">
        <ele>93.72990</ele>
        <time>2021-07-02T06:47:32Z</time>
      </trkpt>
      <trkpt lat="42.031689" lon="2.825641">
        <ele>94.08305</ele>
        <time>2021-07-02T06:47:33Z</time>
      </trkpt>
      <trkpt lat="42.031796" lon="2.825616">
        <ele>94.67265</ele>
        <time>2021-07-02T06:47:34Z</time>
      </trkpt>
      <trkpt lat="42.031918" lon="2.825630">
        <ele>94.87395</ele>
        <time>2021-07-02T06:47:35Z</time>
      </trkpt>
      <trkpt lat="42.032089" lon="2.825690">
        <ele>95.09795</ele>
        <time>2021-07-02T06:47:36Z</time>
      </trkpt>
      <trkpt lat="42.032207" lon="2.825755">
        <ele>95.71664</ele>
        <time>2021-07-02T06:47:37Z</time>
      </trkpt>
      <trkpt lat="42.032330" lon="2.825858">
        <ele>96.04085</ele>
        <time>2021-07-02T06:47:38Z</time>
      </trkpt>
      <trkpt lat="42.032440" lon="2.825976">
        <ele>96.12234</ele>
        <time>2021-07-02T06:47:39Z</time>
      </trkpt>
      <trkpt lat="42.032543" lon="2.826134">
        <ele>95.89182</ele>
        <time>2021-07-02T06:47:40Z</time>
      </trkpt>
      <trkpt lat="42.032619" lon="2.826314">
        <ele>96.04865</ele>
        <time>2021-07-02T06:47:41Z</time>
      </trkpt>
      <trkpt lat="42.032688" lon="2.826520">
        <ele>95.52793</ele>
        <time>2021-07-02T06:47:42Z</time>
      </trkpt>
      <trkpt lat="42.032726" lon="2.826698">
        <ele>95.40328</ele>
        <time>2021-07-02T06:47:43Z</time>
      </trkpt>
      <trkpt lat="42.032738" lon="2.826924">
        <ele>94.79175</ele>
        <time>2021-07-02T06:47:44Z</time>
      </trkpt>
      <trkpt lat="42.032719" lon="2.827139">
        <ele>93.89244</ele>
        <time>2021-07-02T06:47:45Z</time>
      </trkpt>
      <trkpt lat="42.032688" lon="2.827310">
        <ele>92.76086</ele>
        <time>2021-07-02T06:47:46Z</time>
      </trkpt>
      <trkpt lat="42.032627" lon="2.827486">
        <ele>92.22224</ele>
        <time>2021-07-02T06:47:47Z</time>
      </trkpt>
      <trkpt lat="42.032551" lon="2.827659">
        <ele>92.04790</ele>
        <time>2021-07-02T06:47:48Z</time>
      </trkpt>
      <trkpt lat="42.032455" lon="2.827812">
        <ele>90.92117</ele>
        <time>2021-07-02T06:47:49Z</time>
      </trkpt>
      <trkpt lat="42.032349" lon="2.827933">
        <ele>90.07131</ele>
        <time>2021-07-02T06:47:50Z</time>
      </trkpt>
      <trkpt lat="42.032349" lon="2.827933">
        <ele>89.40607</ele>
        <time>2021-07-02T06:47:51Z</time>
      </trkpt>
      <trkpt lat="42.032238" lon="2.828009">
        <ele>88.58497</ele>
        <time>2021-07-02T06:47:52Z</time>
      </trkpt>
      <trkpt lat="42.032143" lon="2.828045">
        <ele>88.19304</ele>
        <time>2021-07-02T06:47:53Z</time>
      </trkpt>
      <trkpt lat="42.032043" lon="2.828045">
        <ele>87.71000</ele>
        <time>2021-07-02T06:47:54Z</time>
      </trkpt>
      <trkpt lat="42.031918" lon="2.828004">
        <ele>87.09500</ele>
        <time>2021-07-02T06:47:55Z</time>
      </trkpt>
      <trkpt lat="42.031811" lon="2.827912">
        <ele>86.60530</ele>
        <time>2021-07-02T06:47:56Z</time>
      </trkpt>
      <trkpt lat="42.031734" lon="2.827802">
        <ele>86.29410</ele>
        <time>2021-07-02T06:47:57Z</time>
      </trkpt>
      <trkpt lat="42.031685" lon="2.827679">
        <ele>86.02988</ele>
        <time>2021-07-02T06:47:58Z</time>
      </trkpt>
      <trkpt lat="42.031658" lon="2.827548">
        <ele>85.56779</ele>
        <time>2021-07-02T06:47:59Z</time>
      </trkpt>
      <trkpt lat="42.031658" lon="2.827436">
        <ele>85.61818</ele>
        <time>2021-07-02T06:48:00Z</time>
      </trkpt>
      <trkpt lat="42.031677" lon="2.827316">
        <ele>85.53485</ele>
        <time>2021-07-02T06:48:01Z</time>
      </trkpt>
      <trkpt lat="42.031712" lon="2.827213">
        <ele>85.95985</ele>
        <time>2021-07-02T06:48:02Z</time>
      </trkpt>
      <trkpt lat="42.031761" lon="2.827078">
        <ele>86.10754</ele>
        <time>2021-07-02T06:48:03Z</time>
      </trkpt>
      <trkpt lat="42.031822" lon="2.826944">
        <ele>86.22972</ele>
        <time>2021-07-02T06:48:04Z</time>
      </trkpt>
      <trkpt lat="42.031876" lon="2.826805">
        <ele>86.61796</ele>
        <time>2021-07-02T06:48:05Z</time>
      </trkpt>
      <trkpt lat="42.031921" lon="2.826675">
        <ele>86.80875</ele>
        <time>2021-07-02T06:48:06Z</time>
      </trkpt>
      <trkpt lat="42.032028" lon="2.826539">
        <ele>87.17606</ele>
        <time>2021-07-02T06:48:07Z</time>
      </trkpt>
      <trkpt lat="42.032124" lon="2.826384">
        <ele>87.24869</ele>
        <time>2021-07-02T06:48:08Z</time>
      </trkpt>
      <trkpt lat="42.032215" lon="2.826241">
        <ele>88.00341</ele>
        <time>2021-07-02T06:48:09Z</time>
      </trkpt>
      <trkpt lat="42.032318" lon="2.826085">
        <ele>87.84418</ele>
        <time>2021-07-02T06:48:10Z</time>
      </trkpt>
      <trkpt lat="42.032417" lon="2.825954">
        <ele>88.43659</ele>
        <time>2021-07-02T06:48:11Z</time>
      </trkpt>
      <trkpt lat="42.032543" lon="2.825805">
        <ele>89.42199</ele>
        <time>2021-07-02T06:48:12Z</time>
      </trkpt>
      <trkpt lat="42.032646" lon="2.825685">
        <ele>90.25529</ele>
        <time>2021-07-02T06:48:13Z</time>
      </trkpt>
      <trkpt lat="42.032776" lon="2.825538">
        <ele>90.77145</ele>
        <time>2021-07-02T06:48:14Z</time>
      </trkpt>
      <trkpt lat="42.032898" lon="2.825398">
        <ele>91.99706</ele>
        <time>2021-07-02T06:48:15Z</time>
      </trkpt>
      <trkpt lat="42.033035" lon="2.825263">
        <ele>92.58296</ele>
        <time>2021-07-02T06:48:16Z</time>
      </trkpt>
      <trkpt lat="42.033176" lon="2.825126">
        <ele>93.20836</ele>
        <time>2021-07-02T06:48:17Z</time>
      </trkpt>
      <trkpt lat="42.033310" lon="2.825003">
        <ele>94.00182</ele>
        <time>2021-07-02T06:48:18Z</time>
      </trkpt>
      <trkpt lat="42.033474" lon="2.824880">
        <ele>95.37239</ele>
        <time>2021-07-02T06:48:19Z</time>
      </trkpt>
      <trkpt lat="42.033634" lon="2.824756">
        <ele>96.18895</ele>
        <time>2021-07-02T06:48:20Z</time>
      </trkpt>
      <trkpt lat="42.033794" lon="2.824639">
        <ele>97.53960</ele>
        <time>2021-07-02T06:48:21Z</time>
      </trkpt>
      <trkpt lat="42.033958" lon="2.824529">
        <ele>91.68466</ele>
        <time>2021-07-02T06:48:22Z</time>
      </trkpt>
      <trkpt lat="42.033958" lon="2.824529">
        <ele>91.95096</ele>
        <time>2021-07-02T06:48:23Z</time>
      </trkpt>
      <trkpt lat="42.034153" lon="2.824419">
        <ele>92.24576</ele>
        <time>2021-07-02T06:48:24Z</time>
      </trkpt>
      <trkpt lat="42.034351" lon="2.824314">
        <ele>92.98245</ele>
        <time>2021-07-02T06:48:25Z</time>
      </trkpt>
      <trkpt lat="42.034565" lon="2.824220">
        <ele>93.37924</ele>
        <time>2021-07-02T06:48:26Z</time>
      </trkpt>
      <trkpt lat="42.034775" lon="2.824132">
        <ele>93.18887</ele>
        <time>2021-07-02T06:48:27Z</time>
      </trkpt>
      <trkpt lat="42.034985" lon="2.824057">
        <ele>93.42429</ele>
        <time>2021-07-02T06:48:28Z</time>
      </trkpt>
      <trkpt lat="42.035217" lon="2.823984">
        <ele>93.55405</ele>
        <time>2021-07-02T06:48:29Z</time>
      </trkpt>
      <trkpt lat="42.035439" lon="2.823913">
        <ele>94.11020</ele>
        <time>2021-07-02T06:48:30Z</time>
      </trkpt>
      <trkpt lat="42.035667" lon="2.823841">
        <ele>94.43723</ele>
        <time>2021-07-02T06:48:31Z</time>
      </trkpt>
      <trkpt lat="42.035892" lon="2.823770">
        <ele>94.10825</ele>
        <time>2021-07-02T06:48:32Z</time>
      </trkpt>
      <trkpt lat="42.036133" lon="2.823700">
        <ele>93.76450</ele>
        <time>2021-07-02T06:48:33Z</time>
      </trkpt>
      <trkpt lat="42.036362" lon="2.823636">
        <ele>93.88400</ele>
        <time>2021-07-02T06:48:34Z</time>
      </trkpt>
      <trkpt lat="42.036587" lon="2.823567">
        <ele>93.54984</ele>
        <time>2021-07-02T06:48:35Z</time>
      </trkpt>
      <trkpt lat="42.036831" lon="2.823490">
        <ele>93.49521</ele>
        <time>2021-07-02T06:48:36Z</time>
      </trkpt>
      <trkpt lat="42.037067" lon="2.823414">
        <ele>93.65237</ele>
        <time>2021-07-02T06:48:37Z</time>
      </trkpt>
      <trkpt lat="42.037315" lon="2.823336">
        <ele>93.57516</ele>
        <time>2021-07-02T06:48:38Z</time>
      </trkpt>
      <trkpt lat="42.037552" lon="2.823260">
        <ele>92.91586</ele>
        <time>2021-07-02T06:48:39Z</time>
      </trkpt>
      <trkpt lat="42.037781" lon="2.823187">
        <ele>92.92496</ele>
        <time>2021-07-02T06:48:40Z</time>
      </trkpt>
      <trkpt lat="42.037994" lon="2.823119">
        <ele>92.44955</ele>
        <time>2021-07-02T06:48:41Z</time>
      </trkpt>
      <trkpt lat="42.038193" lon="2.823056">
        <ele>92.22751</ele>
        <time>2021-07-02T06:48:42Z</time>
      </trkpt>
      <trkpt lat="42.038399" lon="2.822990">
        <ele>92.61954</ele>
        <time>2021-07-02T06:48:43Z</time>
      </trkpt>
      <trkpt lat="42.038616" lon="2.822918">
        <ele>93.36703</ele>
        <time>2021-07-02T06:48:44Z</time>
      </trkpt>
      <trkpt lat="42.038830" lon="2.822839">
        <ele>93.46762</ele>
        <time>2021-07-02T06:48:45Z</time>
      </trkpt>
      <trkpt lat="42.039047" lon="2.822753">
        <ele>92.97958</ele>
        <time>2021-07-02T06:48:46Z</time>
      </trkpt>
      <trkpt lat="42.039284" lon="2.822666">
        <ele>93.05234</ele>
        <time>2021-07-02T06:48:47Z</time>
      </trkpt>
      <trkpt lat="42.039513" lon="2.822581">
        <ele>93.04477</ele>
        <time>2021-07-02T06:48:48Z</time>
      </trkpt>
      <trkpt lat="42.039738" lon="2.822493">
        <ele>93.63943</ele>
        <time>2021-07-02T06:48:49Z</time>
      </trkpt>
      <trkpt lat="42.039967" lon="2.822412">
        <ele>93.82468</ele>
        <time>2021-07-02T06:48:50Z</time>
      </trkpt>
      <trkpt lat="42.040215" lon="2.822323">
        <ele>94.34866</ele>
        <time>2021-07-02T06:48:51Z</time>
      </trkpt>
      <trkpt lat="42.040447" lon="2.822238">
        <ele>95.51553</ele>
        <time>2021-07-02T06:48:52Z</time>
      </trkpt>
      <trkpt lat="42.040676" lon="2.822153">
        <ele>96.31808</ele>
        <time>2021-07-02T06:48:53Z</time>
      </trkpt>
      <trkpt lat="42.040909" lon="2.822066">
        <ele>97.44272</ele>
        <time>2021-07-02T06:48:54Z</time>
      </trkpt>
      <trkpt lat="42.041142" lon="2.821980">
        <ele>97.58572</ele>
        <time>2021-07-02T06:48:55Z</time>
      </trkpt>
      <trkpt lat="42.041367" lon="2.821896">
        <ele>98.50363</ele>
        <time>2021-07-02T06:48:56Z</time>
      </trkpt>
      <trkpt lat="42.041367" lon="2.821896">
        <ele>98.76376</ele>
        <time>2021-07-02T06:48:57Z</time>
      </trkpt>
      <trkpt lat="42.041603" lon="2.821806">
        <ele>99.62192</ele>
        <time>2021-07-02T06:48:58Z</time>
      </trkpt>
      <trkpt lat="42.041828" lon="2.821719">
        <ele>99.96140</ele>
        <time>2021-07-02T06:48:59Z</time>
      </trkpt>
      <trkpt lat="42.042065" lon="2.821626">
        <ele>100.28928</ele>
        <time>2021-07-02T06:49:00Z</time>
      </trkpt>
      <trkpt lat="42.042309" lon="2.821525">
        <ele>101.01718</ele>
        <time>2021-07-02T06:49:01Z</time>
      </trkpt>
      <trkpt lat="42.042542" lon="2.821427">
        <ele>102.08469</ele>
        <time>2021-07-02T06:49:02Z</time>
      </trkpt>
      <trkpt lat="42.042751" lon="2.821335">
        <ele>102.11508</ele>
        <time>2021-07-02T06:49:03Z</time>
      </trkpt>
      <trkpt lat="42.042957" lon="2.821241">
        <ele>102.20706</ele>
        <time>2021-07-02T06:49:04Z</time>
      </trkpt>
      <trkpt lat="42.043171" lon="2.821145">
        <ele>102.87021</ele>
        <time>2021-07-02T06:49:05Z</time>
      </trkpt>
      <trkpt lat="42.043343" lon="2.821067">
        <ele>102.57120</ele>
        <time>2021-07-02T06:49:06Z</time>
      </trkpt>
      <trkpt lat="42.043507" lon="2.820993">
        <ele>103.65860</ele>
        <time>2021-07-02T06:49:07Z</time>
      </trkpt>
      <trkpt lat="42.043686" lon="2.820910">
        <ele>104.14566</ele>
        <time>2021-07-02T06:49:08Z</time>
      </trkpt>
      <trkpt lat="42.043892" lon="2.820811">
        <ele>105.54282</ele>
        <time>2021-07-02T06:49:09Z</time>
      </trkpt>
      <trkpt lat="42.044109" lon="2.820708">
        <ele>105.86984</ele>
        <time>2021-07-02T06:49:10Z</time>
      </trkpt>
      <trkpt lat="42.044342" lon="2.820598">
        <ele>106.90433</ele>
        <time>2021-07-02T06:49:11Z</time>
      </trkpt>
      <trkpt lat="42.044563" lon="2.820493">
        <ele>108.94901</ele>
        <time>2021-07-02T06:49:12Z</time>
      </trkpt>
      <trkpt lat="42.044800" lon="2.820381">
        <ele>110.34872</ele>
        <time>2021-07-02T06:49:13Z</time>
      </trkpt>
      <trkpt lat="42.045048" lon="2.820262">
        <ele>111.55508</ele>
        <time>2021-07-02T06:49:14Z</time>
      </trkpt>
      <trkpt lat="42.045261" lon="2.820159">
        <ele>112.68747</ele>
        <time>2021-07-02T06:49:15Z</time>
      </trkpt>
      <trkpt lat="42.045483" lon="2.820055">
        <ele>113.49991</ele>
        <time>2021-07-02T06:49:16Z</time>
      </trkpt>
      <trkpt lat="42.045708" lon="2.819946">
        <ele>114.23471</ele>
        <time>2021-07-02T06:49:17Z</time>
      </trkpt>
      <trkpt lat="42.045925" lon="2.819843">
        <ele>115.56760</ele>
        <time>2021-07-02T06:49:18Z</time>
      </trkpt>
      <trkpt lat="42.046158" lon="2.819731">
        <ele>115.48563</ele>
        <time>2021-07-02T06:49:19Z</time>
      </trkpt>
      <trkpt lat="42.046402" lon="2.819619">
        <ele>115.63858</ele>
        <time>2021-07-02T06:49:20Z</time>
      </trkpt>
      <trkpt lat="42.046631" lon="2.819519">
        <ele>116.14780</ele>
        <time>2021-07-02T06:49:21Z</time>
      </trkpt>
      <trkpt lat="42.046867" lon="2.819423">
        <ele>116.25381</ele>
        <time>2021-07-02T06:49:22Z</time>
      </trkpt>
      <trkpt lat="42.047104" lon="2.819334">
        <ele>117.15305</ele>
        <time>2021-07-02T06:49:23Z</time>
      </trkpt>
      <trkpt lat="42.047348" lon="2.819250">
        <ele>116.62033</ele>
        <time>2021-07-02T06:49:24Z</time>
      </trkpt>
      <trkpt lat="42.047588" lon="2.819175">
        <ele>116.98325</ele>
        <time>2021-07-02T06:49:25Z</time>
      </trkpt>
      <trkpt lat="42.047813" lon="2.819111">
        <ele>117.22482</ele>
        <time>2021-07-02T06:49:26Z</time>
      </trkpt>
      <trkpt lat="42.048077" lon="2.819044">
        <ele>117.41183</ele>
        <time>2021-07-02T06:49:27Z</time>
      </trkpt>
      <trkpt lat="42.048325" lon="2.818986">
        <ele>117.47079</ele>
        <time>2021-07-02T06:49:28Z</time>
      </trkpt>
      <trkpt lat="42.048588" lon="2.818933">
        <ele>117.64291</ele>
        <time>2021-07-02T06:49:29Z</time>
      </trkpt>
      <trkpt lat="42.048836" lon="2.818882">
        <ele>118.27890</ele>
        <time>2021-07-02T06:49:30Z</time>
      </trkpt>
      <trkpt lat="42.048836" lon="2.818882">
        <ele>118.80692</ele>
        <time>2021-07-02T06:49:31Z</time>
      </trkpt>
      <trkpt lat="42.049084" lon="2.818831">
        <ele>119.20993</ele>
        <time>2021-07-02T06:49:32Z</time>
      </trkpt>
      <trkpt lat="42.049328" lon="2.818781">
        <ele>119.85184</ele>
        <time>2021-07-02T06:49:33Z</time>
      </trkpt>
      <trkpt lat="42.049564" lon="2.818732">
        <ele>120.37088</ele>
        <time>2021-07-02T06:49:34Z</time>
      </trkpt>
      <trkpt lat="42.049820" lon="2.818680">
        <ele>120.94870</ele>
        <time>2021-07-02T06:49:35Z</time>
      </trkpt>
      <trkpt lat="42.050079" lon="2.818627">
        <ele>121.59341</ele>
        <time>2021-07-02T06:49:36Z</time>
      </trkpt>
      <trkpt lat="42.050331" lon="2.818575">
        <ele>121.94077</ele>
        <time>2021-07-02T06:49:37Z</time>
      </trkpt>
      <trkpt lat="42.050591" lon="2.818523">
        <ele>122.42215</ele>
        <time>2021-07-02T06:49:38Z</time>
      </trkpt>
      <trkpt lat="42.050838" lon="2.818472">
        <ele>122.66446</ele>
        <time>2021-07-02T06:49:39Z</time>
      </trkpt>
      <trkpt lat="42.051083" lon="2.818423">
        <ele>123.41251</ele>
        <time>2021-07-02T06:49:40Z</time>
      </trkpt>
      <trkpt lat="42.051338" lon="2.818371">
        <ele>124.14816</ele>
        <time>2021-07-02T06:49:41Z</time>
      </trkpt>
      <trkpt lat="42.051590" lon="2.818319">
        <ele>124.58041</ele>
        <time>2021-07-02T06:49:42Z</time>
      </trkpt>
      <trkpt lat="42.051830" lon="2.818270">
        <ele>125.17551</ele>
        <time>2021-07-02T06:49:43Z</time>
      </trkpt>
      <trkpt lat="42.052082" lon="2.818219">
        <ele>125.55154</ele>
        <time>2021-07-02T06:49:44Z</time>
      </trkpt>
      <trkpt lat="42.052326" lon="2.818169">
        <ele>125.98373</ele>
        <time>2021-07-02T06:49:45Z</time>
      </trkpt>
      <trkpt lat="42.052586" lon="2.818116">
        <ele>126.77109</ele>
        <time>2021-07-02T06:49:46Z</time>
      </trkpt>
      <trkpt lat="42.052849" lon="2.818058">
        <ele>126.38962</ele>
        <time>2021-07-02T06:49:47Z</time>
      </trkpt>
      <trkpt lat="42.053101" lon="2.817989">
        <ele>126.96646</ele>
        <time>2021-07-02T06:49:48Z</time>
      </trkpt>
      <trkpt lat="42.053356" lon="2.817903">
        <ele>127.24551</ele>
        <time>2021-07-02T06:49:49Z</time>
      </trkpt>
      <trkpt lat="42.053619" lon="2.817809">
        <ele>127.14810</ele>
        <time>2021-07-02T06:49:50Z</time>
      </trkpt>
      <trkpt lat="42.053871" lon="2.817697">
        <ele>127.32938</ele>
        <time>2021-07-02T06:49:51Z</time>
      </trkpt>
      <trkpt lat="42.054131" lon="2.817571">
        <ele>127.11850</ele>
        <time>2021-07-02T06:49:52Z</time>
      </trkpt>
      <trkpt lat="42.054367" lon="2.817448">
        <ele>127.39175</ele>
        <time>2021-07-02T06:49:53Z</time>
      </trkpt>
      <trkpt lat="42.054630" lon="2.817290">
        <ele>127.69162</ele>
        <time>2021-07-02T06:49:54Z</time>
      </trkpt>
      <trkpt lat="42.054878" lon="2.817126">
        <ele>127.78329</ele>
        <time>2021-07-02T06:49:55Z</time>
      </trkpt>
      <trkpt lat="42.055126" lon="2.816945">
        <ele>128.41452</ele>
        <time>2021-07-02T06:49:56Z</time>
      </trkpt>
      <trkpt lat="42.055351" lon="2.816776">
        <ele>129.07236</ele>
        <time>2021-07-02T06:49:57Z</time>
      </trkpt>
      <trkpt lat="42.055569" lon="2.816597">
        <ele>129.47623</ele>
        <time>2021-07-02T06:49:58Z</time>
      </trkpt>
      <trkpt lat="42.055790" lon="2.816417">
        <ele>129.89066</ele>
        <time>2021-07-02T06:49:59Z</time>
      </trkpt>
      <trkpt lat="42.056015" lon="2.816240">
        <ele>130.84494</ele>
        <time>2021-07-02T06:50:00Z</time>
      </trkpt>
      <trkpt lat="42.056252" lon="2.816058">
        <ele>131.55850</ele>
        <time>2021-07-02T06:50:01Z</time>
      </trkpt>
      <trkpt lat="42.056496" lon="2.815871">
        <ele>132.65475</ele>
        <time>2021-07-02T06:50:02Z</time>
      </trkpt>
      <trkpt lat="42.056736" lon="2.815703">
        <ele>133.92899</ele>
        <time>2021-07-02T06:50:03Z</time>
      </trkpt>
      <trkpt lat="42.056976" lon="2.815537">
        <ele>134.69101</ele>
        <time>2021-07-02T06:50:04Z</time>
      </trkpt>
      <trkpt lat="42.056976" lon="2.815537">
        <ele>135.18753</ele>
        <time>2021-07-02T06:50:05Z</time>
      </trkpt>
      <trkpt lat="42.057205" lon="2.815356">
        <ele>135.91641</ele>
        <time>2021-07-02T06:50:06Z</time>
      </trkpt>
      <trkpt lat="42.057453" lon="2.815161">
        <ele>136.72690</ele>
        <time>2021-07-02T06:50:07Z</time>
      </trkpt>
      <trkpt lat="42.057690" lon="2.814970">
        <ele>137.98752</ele>
        <time>2021-07-02T06:50:08Z</time>
      </trkpt>
      <trkpt lat="42.057911" lon="2.814780">
        <ele>138.30173</ele>
        <time>2021-07-02T06:50:09Z</time>
      </trkpt>
      <trkpt lat="42.058140" lon="2.814574">
        <ele>138.72543</ele>
        <time>2021-07-02T06:50:10Z</time>
      </trkpt>
      <trkpt lat="42.058380" lon="2.814352">
        <ele>139.97763</ele>
        <time>2021-07-02T06:50:11Z</time>
      </trkpt>
      <trkpt lat="42.058605" lon="2.814157">
        <ele>141.28397</ele>
        <time>2021-07-02T06:50:12Z</time>
      </trkpt>
      <trkpt lat="42.058834" lon="2.813975">
        <ele>141.59384</ele>
        <time>2021-07-02T06:50:13Z</time>
      </trkpt>
      <trkpt lat="42.059063" lon="2.813797">
        <ele>141.70340</ele>
        <time>2021-07-02T06:50:14Z</time>
      </trkpt>
      <trkpt lat="42.059292" lon="2.813631">
        <ele>142.19131</ele>
        <time>2021-07-02T06:50:15Z</time>
      </trkpt>
      <trkpt lat="42.059540" lon="2.813469">
        <ele>142.16086</ele>
        <time>2021-07-02T06:50:16Z</time>
      </trkpt>
      <trkpt lat="42.059799" lon="2.813310">
        <ele>142.35074</ele>
        <time>2021-07-02T06:50:17Z</time>
      </trkpt>
      <trkpt lat="42.060032" lon="2.813183">
        <ele>142.37558</ele>
        <time>2021-07-02T06:50:18Z</time>
      </trkpt>
      <trkpt lat="42.060287" lon="2.813056">
        <ele>142.95786</ele>
        <time>2021-07-02T06:50:19Z</time>
      </trkpt>
      <trkpt lat="42.060524" lon="2.812951">
        <ele>142.79086</ele>
        <time>2021-07-02T06:50:20Z</time>
      </trkpt>
      <trkpt lat="42.060741" lon="2.812868">
        <ele>142.41537</ele>
        <time>2021-07-02T06:50:21Z</time>
      </trkpt>
      <trkpt lat="42.060959" lon="2.812792">
        <ele>142.16122</ele>
        <time>2021-07-02T06:50:22Z</time>
      </trkpt>
      <trkpt lat="42.061180" lon="2.812733">
        <ele>140.76663</ele>
        <time>2021-07-02T06:50:23Z</time>
      </trkpt>
      <trkpt lat="42.061398" lon="2.812675">
        <ele>139.44485</ele>
        <time>2021-07-02T06:50:24Z</time>
      </trkpt>
      <trkpt lat="42.061630" lon="2.812619">
        <ele>139.10898</ele>
        <time>2021-07-02T06:50:25Z</time>
      </trkpt>
      <trkpt lat="42.061848" lon="2.812575">
        <ele>137.75705</ele>
        <time>2021-07-02T06:50:26Z</time>
      </trkpt>
      <trkpt lat="42.062084" lon="2.812542">
        <ele>137.31906</ele>
        <time>2021-07-02T06:50:27Z</time>
      </trkpt>
      <trkpt lat="42.062309" lon="2.812511">
        <ele>136.61850</ele>
        <time>2021-07-02T06:50:28Z</time>
      </trkpt>
      <trkpt lat="42.062538" lon="2.812477">
        <ele>135.08041</ele>
        <time>2021-07-02T06:50:29Z</time>
      </trkpt>
      <trkpt lat="42.062756" lon="2.812460">
        <ele>133.98013</ele>
        <time>2021-07-02T06:50:30Z</time>
      </trkpt>
      <trkpt lat="42.062992" lon="2.812446">
        <ele>133.52115</ele>
        <time>2021-07-02T06:50:31Z</time>
      </trkpt>
      <trkpt lat="42.063217" lon="2.812439">
        <ele>133.67270</ele>
        <time>2021-07-02T06:50:32Z</time>
      </trkpt>
      <trkpt lat="42.063457" lon="2.812442">
        <ele>133.26260</ele>
        <time>2021-07-02T06:50:33Z</time>
      </trkpt>
      <trkpt lat="42.063675" lon="2.812445">
        <ele>132.98941</ele>
        <time>2021-07-02T06:50:34Z</time>
      </trkpt>
      <trkpt lat="42.063908" lon="2.812460">
        <ele>132.68430</ele>
        <time>2021-07-02T06:50:35Z</time>
      </trkpt>
      <trkpt lat="42.063908" lon="2.812460">
        <ele>131.99179</ele>
        <time>2021-07-02T06:50:36Z</time>
      </trkpt>
      <trkpt lat="42.064152" lon="2.812486">
        <ele>130.95987</ele>
        <time>2021-07-02T06:50:37Z</time>
      </trkpt>
      <trkpt lat="42.064377" lon="2.812510">
        <ele>130.07706</ele>
        <time>2021-07-02T06:50:38Z</time>
      </trkpt>
      <trkpt lat="42.064602" lon="2.812541">
        <ele>129.72580</ele>
        <time>2021-07-02T06:50:39Z</time>
      </trkpt>
      <trkpt lat="42.064838" lon="2.812580">
        <ele>129.39407</ele>
        <time>2021-07-02T06:50:40Z</time>
      </trkpt>
      <trkpt lat="42.065063" lon="2.812627">
        <ele>129.30978</ele>
        <time>2021-07-02T06:50:41Z</time>
      </trkpt>
      <trkpt lat="42.065296" lon="2.812686">
        <ele>129.06137</ele>
        <time>2021-07-02T06:50:42Z</time>
      </trkpt>
      <trkpt lat="42.065529" lon="2.812746">
        <ele>128.78055</ele>
        <time>2021-07-02T06:50:43Z</time>
      </trkpt>
      <trkpt lat="42.065746" lon="2.812806">
        <ele>128.77475</ele>
        <time>2021-07-02T06:50:44Z</time>
      </trkpt>
      <trkpt lat="42.065960" lon="2.812878">
        <ele>128.74820</ele>
        <time>2021-07-02T06:50:45Z</time>
      </trkpt>
      <trkpt lat="42.066177" lon="2.812953">
        <ele>128.99045</ele>
        <time>2021-07-02T06:50:46Z</time>
      </trkpt>
      <trkpt lat="42.066391" lon="2.813031">
        <ele>128.64182</ele>
        <time>2021-07-02T06:50:47Z</time>
      </trkpt>
      <trkpt lat="42.066605" lon="2.813115">
        <ele>128.62296</ele>
        <time>2021-07-02T06:50:48Z</time>
      </trkpt>
      <trkpt lat="42.066830" lon="2.813204">
        <ele>128.48050</ele>
        <time>2021-07-02T06:50:49Z</time>
      </trkpt>
      <trkpt lat="42.067051" lon="2.813290">
        <ele>128.30270</ele>
        <time>2021-07-02T06:50:50Z</time>
      </trkpt>
      <trkpt lat="42.067272" lon="2.813375">
        <ele>128.08463</ele>
        <time>2021-07-02T06:50:51Z</time>
      </trkpt>
      <trkpt lat="42.067497" lon="2.813462">
        <ele>127.86679</ele>
        <time>2021-07-02T06:50:52Z</time>
      </trkpt>
      <trkpt lat="42.067719" lon="2.813546">
        <ele>127.12924</ele>
        <time>2021-07-02T06:50:53Z</time>
      </trkpt>
      <trkpt lat="42.067928" lon="2.813625">
        <ele>126.74960</ele>
        <time>2021-07-02T06:50:54Z</time>
      </trkpt>
      <trkpt lat="42.068150" lon="2.813713">
        <ele>126.58151</ele>
        <time>2021-07-02T06:50:55Z</time>
      </trkpt>
      <trkpt lat="42.068378" lon="2.813804">
        <ele>126.21506</ele>
        <time>2021-07-02T06:50:56Z</time>
      </trkpt>
      <trkpt lat="42.068607" lon="2.813896">
        <ele>126.20395</ele>
        <time>2021-07-02T06:50:57Z</time>
      </trkpt>
      <trkpt lat="42.068840" lon="2.813990">
        <ele>125.46420</ele>
        <time>2021-07-02T06:50:58Z</time>
      </trkpt>
      <trkpt lat="42.069077" lon="2.814086">
        <ele>125.51242</ele>
        <time>2021-07-02T06:50:59Z</time>
      </trkpt>
      <trkpt lat="42.069294" lon="2.814172">
        <ele>125.16306</ele>
        <time>2021-07-02T06:51:00Z</time>
      </trkpt>
      <trkpt lat="42.069527" lon="2.814266">
        <ele>124.69699</ele>
        <time>2021-07-02T06:51:01Z</time>
      </trkpt>
      <trkpt lat="42.069782" lon="2.814370">
        <ele>124.48502</ele>
        <time>2021-07-02T06:51:02Z</time>
      </trkpt>
      <trkpt lat="42.070030" lon="2.814470">
        <ele>124.51041</ele>
        <time>2021-07-02T06:51:03Z</time>
      </trkpt>
      <trkpt lat="42.070278" lon="2.814569">
        <ele>124.45529</ele>
        <time>2021-07-02T06:51:04Z</time>
      </trkpt>
      <trkpt lat="42.070545" lon="2.814677">
        <ele>124.51553</ele>
        <time>2021-07-02T06:51:05Z</time>
      </trkpt>
      <trkpt lat="42.070545" lon="2.814677">
        <ele>123.96017</ele>
        <time>2021-07-02T06:51:06Z</time>
      </trkpt>
      <trkpt lat="42.070812" lon="2.814783">
        <ele>123.36722</ele>
        <time>2021-07-02T06:51:07Z</time>
      </trkpt>
      <trkpt lat="42.071064" lon="2.814885">
        <ele>122.49667</ele>
        <time>2021-07-02T06:51:08Z</time>
      </trkpt>
      <trkpt lat="42.071320" lon="2.814990">
        <ele>122.68784</ele>
        <time>2021-07-02T06:51:09Z</time>
      </trkpt>
      <trkpt lat="42.071575" lon="2.815095">
        <ele>122.86478</ele>
        <time>2021-07-02T06:51:10Z</time>
      </trkpt>
      <trkpt lat="42.071823" lon="2.815196">
        <ele>122.73734</ele>
        <time>2021-07-02T06:51:11Z</time>
      </trkpt>
      <trkpt lat="42.072056" lon="2.815291">
        <ele>122.36612</ele>
        <time>2021-07-02T06:51:12Z</time>
      </trkpt>
      <trkpt lat="42.072281" lon="2.815383">
        <ele>121.82919</ele>
        <time>2021-07-02T06:51:13Z</time>
      </trkpt>
      <trkpt lat="42.072510" lon="2.815479">
        <ele>120.99179</ele>
        <time>2021-07-02T06:51:14Z</time>
      </trkpt>
      <trkpt lat="42.072762" lon="2.815582">
        <ele>120.75589</ele>
        <time>2021-07-02T06:51:15Z</time>
      </trkpt>
      <trkpt lat="42.073006" lon="2.815670">
        <ele>120.49435</ele>
        <time>2021-07-02T06:51:16Z</time>
      </trkpt>
      <trkpt lat="42.073265" lon="2.815764">
        <ele>120.88705</ele>
        <time>2021-07-02T06:51:17Z</time>
      </trkpt>
      <trkpt lat="42.073547" lon="2.815867">
        <ele>120.72629</ele>
        <time>2021-07-02T06:51:18Z</time>
      </trkpt>
      <trkpt lat="42.073807" lon="2.815961">
        <ele>120.15768</ele>
        <time>2021-07-02T06:51:19Z</time>
      </trkpt>
      <trkpt lat="42.074055" lon="2.816051">
        <ele>119.54904</ele>
        <time>2021-07-02T06:51:20Z</time>
      </trkpt>
      <trkpt lat="42.074314" lon="2.816147">
        <ele>119.30252</ele>
        <time>2021-07-02T06:51:21Z</time>
      </trkpt>
      <trkpt lat="42.074558" lon="2.816242">
        <ele>119.52719</ele>
        <time>2021-07-02T06:51:22Z</time>
      </trkpt>
      <trkpt lat="42.074810" lon="2.816340">
        <ele>119.49887</ele>
        <time>2021-07-02T06:51:23Z</time>
      </trkpt>
      <trkpt lat="42.075073" lon="2.816444">
        <ele>118.75821</ele>
        <time>2021-07-02T06:51:24Z</time>
      </trkpt>
      <trkpt lat="42.075329" lon="2.816545">
        <ele>118.00845</ele>
        <time>2021-07-02T06:51:25Z</time>
      </trkpt>
      <trkpt lat="42.075584" lon="2.816646">
        <ele>118.12027</ele>
        <time>2021-07-02T06:51:26Z</time>
      </trkpt>
      <trkpt lat="42.075840" lon="2.816745">
        <ele>117.39938</ele>
        <time>2021-07-02T06:51:27Z</time>
      </trkpt>
      <trkpt lat="42.076099" lon="2.816847">
        <ele>117.54123</ele>
        <time>2021-07-02T06:51:28Z</time>
      </trkpt>
      <trkpt lat="42.076370" lon="2.816954">
        <ele>117.03830</ele>
        <time>2021-07-02T06:51:29Z</time>
      </trkpt>
      <trkpt lat="42.076637" lon="2.817059">
        <ele>116.77084</ele>
        <time>2021-07-02T06:51:30Z</time>
      </trkpt>
      <trkpt lat="42.076904" lon="2.817164">
        <ele>117.51059</ele>
        <time>2021-07-02T06:51:31Z</time>
      </trkpt>
      <trkpt lat="42.077171" lon="2.817269">
        <ele>116.80850</ele>
        <time>2021-07-02T06:51:32Z</time>
      </trkpt>
      <trkpt lat="42.077423" lon="2.817369">
        <ele>117.02109</ele>
        <time>2021-07-02T06:51:33Z</time>
      </trkpt>
      <trkpt lat="42.077675" lon="2.817468">
        <ele>116.76181</ele>
        <time>2021-07-02T06:51:34Z</time>
      </trkpt>
      <trkpt lat="42.077675" lon="2.817468">
        <ele>116.08511</ele>
        <time>2021-07-02T06:51:35Z</time>
      </trkpt>
      <trkpt lat="42.077915" lon="2.817564">
        <ele>116.32584</ele>
        <time>2021-07-02T06:51:36Z</time>
      </trkpt>
      <trkpt lat="42.078152" lon="2.817657">
        <ele>116.76212</ele>
        <time>2021-07-02T06:51:37Z</time>
      </trkpt>
      <trkpt lat="42.078384" lon="2.817748">
        <ele>116.07065</ele>
        <time>2021-07-02T06:51:38Z</time>
      </trkpt>
      <trkpt lat="42.078625" lon="2.817841">
        <ele>115.81003</ele>
        <time>2021-07-02T06:51:39Z</time>
      </trkpt>
      <trkpt lat="42.078869" lon="2.817931">
        <ele>115.40213</ele>
        <time>2021-07-02T06:51:40Z</time>
      </trkpt>
      <trkpt lat="42.079117" lon="2.818014">
        <ele>114.57803</ele>
        <time>2021-07-02T06:51:41Z</time>
      </trkpt>
      <trkpt lat="42.079361" lon="2.818078">
        <ele>114.89340</ele>
        <time>2021-07-02T06:51:42Z</time>
      </trkpt>
      <trkpt lat="42.079609" lon="2.818124">
        <ele>114.06235</ele>
        <time>2021-07-02T06:51:43Z</time>
      </trkpt>
      <trkpt lat="42.079853" lon="2.818154">
        <ele>112.88437</ele>
        <time>2021-07-02T06:51:44Z</time>
      </trkpt>
      <trkpt lat="42.080105" lon="2.818159">
        <ele>111.72678</ele>
        <time>2021-07-02T06:51:45Z</time>
      </trkpt>
      <trkpt lat="42.080341" lon="2.818153">
        <ele>110.26462</ele>
        <time>2021-07-02T06:51:46Z</time>
      </trkpt>
      <trkpt lat="42.080566" lon="2.818133">
        <ele>109.58798</ele>
        <time>2021-07-02T06:51:47Z</time>
      </trkpt>
      <trkpt lat="42.080807" lon="2.818089">
        <ele>108.55966</ele>
        <time>2021-07-02T06:51:48Z</time>
      </trkpt>
      <trkpt lat="42.081024" lon="2.818035">
        <ele>109.10648</ele>
        <time>2021-07-02T06:51:49Z</time>
      </trkpt>
      <trkpt lat="42.081261" lon="2.817959">
        <ele>108.66861</ele>
        <time>2021-07-02T06:51:50Z</time>
      </trkpt>
      <trkpt lat="42.081497" lon="2.817873">
        <ele>109.14169</ele>
        <time>2021-07-02T06:51:51Z</time>
      </trkpt>
      <trkpt lat="42.081745" lon="2.817759">
        <ele>109.00333</ele>
        <time>2021-07-02T06:51:52Z</time>
      </trkpt>
      <trkpt lat="42.081970" lon="2.817623">
        <ele>108.95053</ele>
        <time>2021-07-02T06:51:53Z</time>
      </trkpt>
      <trkpt lat="42.082195" lon="2.817486">
        <ele>108.77866</ele>
        <time>2021-07-02T06:51:54Z</time>
      </trkpt>
      <trkpt lat="42.082424" lon="2.817312">
        <ele>108.69626</ele>
        <time>2021-07-02T06:51:55Z</time>
      </trkpt>
      <trkpt lat="42.082649" lon="2.817167">
        <ele>109.05356</ele>
        <time>2021-07-02T06:51:56Z</time>
      </trkpt>
      <trkpt lat="42.082848" lon="2.816983">
        <ele>108.93558</ele>
        <time>2021-07-02T06:51:57Z</time>
      </trkpt>
      <trkpt lat="42.083054" lon="2.816763">
        <ele>109.09250</ele>
        <time>2021-07-02T06:51:58Z</time>
      </trkpt>
      <trkpt lat="42.083260" lon="2.816542">
        <ele>109.74454</ele>
        <time>2021-07-02T06:51:59Z</time>
      </trkpt>
      <trkpt lat="42.083454" lon="2.816334">
        <ele>110.22372</ele>
        <time>2021-07-02T06:52:00Z</time>
      </trkpt>
      <trkpt lat="42.083656" lon="2.816121">
        <ele>110.93185</ele>
        <time>2021-07-02T06:52:01Z</time>
      </trkpt>
      <trkpt lat="42.083866" lon="2.815900">
        <ele>111.42978</ele>
        <time>2021-07-02T06:52:02Z</time>
      </trkpt>
      <trkpt lat="42.084061" lon="2.815689">
        <ele>111.25388</ele>
        <time>2021-07-02T06:52:03Z</time>
      </trkpt>
      <trkpt lat="42.084259" lon="2.815467">
        <ele>111.00278</ele>
        <time>2021-07-02T06:52:04Z</time>
      </trkpt>
      <trkpt lat="42.084259" lon="2.815467">
        <ele>111.64481</ele>
        <time>2021-07-02T06:52:05Z</time>
      </trkpt>
      <trkpt lat="42.084465" lon="2.815241">
        <ele>110.51865</ele>
        <time>2021-07-02T06:52:06Z</time>
      </trkpt>
      <trkpt lat="42.084660" lon="2.815020">
        <ele>109.49484</ele>
        <time>2021-07-02T06:52:07Z</time>
      </trkpt>
      <trkpt lat="42.084862" lon="2.814788">
        <ele>110.40500</ele>
        <time>2021-07-02T06:52:08Z</time>
      </trkpt>
      <trkpt lat="42.085064" lon="2.814567">
        <ele>110.61447</ele>
        <time>2021-07-02T06:52:09Z</time>
      </trkpt>
      <trkpt lat="42.085266" lon="2.814350">
        <ele>111.32950</ele>
        <time>2021-07-02T06:52:10Z</time>
      </trkpt>
      <trkpt lat="42.085480" lon="2.814123">
        <ele>111.89584</ele>
        <time>2021-07-02T06:52:11Z</time>
      </trkpt>
      <trkpt lat="42.085686" lon="2.813902">
        <ele>111.45511</ele>
        <time>2021-07-02T06:52:12Z</time>
      </trkpt>
      <trkpt lat="42.085888" lon="2.813680">
        <ele>112.19601</ele>
        <time>2021-07-02T06:52:13Z</time>
      </trkpt>
      <trkpt lat="42.086094" lon="2.813453">
        <ele>111.66721</ele>
        <time>2021-07-02T06:52:14Z</time>
      </trkpt>
      <trkpt lat="42.086292" lon="2.813237">
        <ele>112.51266</ele>
        <time>2021-07-02T06:52:15Z</time>
      </trkpt>
      <trkpt lat="42.086506" lon="2.813004">
        <ele>113.05063</ele>
        <time>2021-07-02T06:52:16Z</time>
      </trkpt>
      <trkpt lat="42.086720" lon="2.812768">
        <ele>113.93839</ele>
        <time>2021-07-02T06:52:17Z</time>
      </trkpt>
      <trkpt lat="42.086903" lon="2.812572">
        <ele>112.87369</ele>
        <time>2021-07-02T06:52:18Z</time>
      </trkpt>
      <trkpt lat="42.087097" lon="2.812360">
        <ele>112.46677</ele>
        <time>2021-07-02T06:52:19Z</time>
      </trkpt>
      <trkpt lat="42.087292" lon="2.812151">
        <ele>112.24704</ele>
        <time>2021-07-02T06:52:20Z</time>
      </trkpt>
      <trkpt lat="42.087479" lon="2.811951">
        <ele>112.77530</ele>
        <time>2021-07-02T06:52:21Z</time>
      </trkpt>
      <trkpt lat="42.087677" lon="2.811737">
        <ele>113.27402</ele>
        <time>2021-07-02T06:52:22Z</time>
      </trkpt>
      <trkpt lat="42.087891" lon="2.811507">
        <ele>113.53598</ele>
        <time>2021-07-02T06:52:23Z</time>
      </trkpt>
      <trkpt lat="42.088100" lon="2.811285">
        <ele>114.26584</ele>
        <time>2021-07-02T06:52:24Z</time>
      </trkpt>
      <trkpt lat="42.088295" lon="2.811074">
        <ele>114.46115</ele>
        <time>2021-07-02T06:52:25Z</time>
      </trkpt>
      <trkpt lat="42.088493" lon="2.810860">
        <ele>114.66599</ele>
        <time>2021-07-02T06:52:26Z</time>
      </trkpt>
      <trkpt lat="42.088684" lon="2.810657">
        <ele>113.77896</ele>
        <time>2021-07-02T06:52:27Z</time>
      </trkpt>
      <trkpt lat="42.088894" lon="2.810425">
        <ele>113.35007</ele>
        <time>2021-07-02T06:52:28Z</time>
      </trkpt>
      <trkpt lat="42.089092" lon="2.810209">
        <ele>113.28769</ele>
        <time>2021-07-02T06:52:29Z</time>
      </trkpt>
      <trkpt lat="42.089314" lon="2.809973">
        <ele>112.63950</ele>
        <time>2021-07-02T06:52:30Z</time>
      </trkpt>
      <trkpt lat="42.089523" lon="2.809744">
        <ele>111.99509</ele>
        <time>2021-07-02T06:52:31Z</time>
      </trkpt>
      <trkpt lat="42.089722" lon="2.809511">
        <ele>111.73203</ele>
        <time>2021-07-02T06:52:32Z</time>
      </trkpt>
      <trkpt lat="42.089909" lon="2.809289">
        <ele>110.90005</ele>
        <time>2021-07-02T06:52:33Z</time>
      </trkpt>
      <trkpt lat="42.089909" lon="2.809289">
        <ele>110.51767</ele>
        <time>2021-07-02T06:52:34Z</time>
      </trkpt>
      <trkpt lat="42.090088" lon="2.809055">
        <ele>109.44046</ele>
        <time>2021-07-02T06:52:35Z</time>
      </trkpt>
      <trkpt lat="42.090248" lon="2.808830">
        <ele>109.11014</ele>
        <time>2021-07-02T06:52:36Z</time>
      </trkpt>
      <trkpt lat="42.090401" lon="2.808613">
        <ele>109.68594</ele>
        <time>2021-07-02T06:52:37Z</time>
      </trkpt>
      <trkpt lat="42.090557" lon="2.808388">
        <ele>110.85202</ele>
        <time>2021-07-02T06:52:38Z</time>
      </trkpt>
      <trkpt lat="42.090717" lon="2.808147">
        <ele>110.51999</ele>
        <time>2021-07-02T06:52:39Z</time>
      </trkpt>
      <trkpt lat="42.090889" lon="2.807871">
        <ele>110.20114</ele>
        <time>2021-07-02T06:52:40Z</time>
      </trkpt>
      <trkpt lat="42.091042" lon="2.807619">
        <ele>112.08835</ele>
        <time>2021-07-02T06:52:41Z</time>
      </trkpt>
      <trkpt lat="42.091206" lon="2.807352">
        <ele>110.61899</ele>
        <time>2021-07-02T06:52:42Z</time>
      </trkpt>
      <trkpt lat="42.091362" lon="2.807099">
        <ele>111.24722</ele>
        <time>2021-07-02T06:52:43Z</time>
      </trkpt>
      <trkpt lat="42.091526" lon="2.806831">
        <ele>111.97263</ele>
        <time>2021-07-02T06:52:44Z</time>
      </trkpt>
      <trkpt lat="42.091690" lon="2.806562">
        <ele>111.23788</ele>
        <time>2021-07-02T06:52:45Z</time>
      </trkpt>
      <trkpt lat="42.091854" lon="2.806295">
        <ele>111.96329</ele>
        <time>2021-07-02T06:52:46Z</time>
      </trkpt>
      <trkpt lat="42.092003" lon="2.806053">
        <ele>112.46768</ele>
        <time>2021-07-02T06:52:47Z</time>
      </trkpt>
      <trkpt lat="42.092167" lon="2.805784">
        <ele>111.52451</ele>
        <time>2021-07-02T06:52:48Z</time>
      </trkpt>
      <trkpt lat="42.092331" lon="2.805511">
        <ele>111.29221</ele>
        <time>2021-07-02T06:52:49Z</time>
      </trkpt>
      <trkpt lat="42.092464" lon="2.805292">
        <ele>111.02145</ele>
        <time>2021-07-02T06:52:50Z</time>
      </trkpt>
      <trkpt lat="42.092606" lon="2.805061">
        <ele>112.62637</ele>
        <time>2021-07-02T06:52:51Z</time>
      </trkpt>
      <trkpt lat="42.092739" lon="2.804839">
        <ele>112.54288</ele>
        <time>2021-07-02T06:52:52Z</time>
      </trkpt>
      <trkpt lat="42.092865" lon="2.804631">
        <ele>112.22110</ele>
        <time>2021-07-02T06:52:53Z</time>
      </trkpt>
      <trkpt lat="42.092995" lon="2.804416">
        <ele>111.72147</ele>
        <time>2021-07-02T06:52:54Z</time>
      </trkpt>
      <trkpt lat="42.093128" lon="2.804199">
        <ele>111.43454</ele>
        <time>2021-07-02T06:52:55Z</time>
      </trkpt>
      <trkpt lat="42.093258" lon="2.803986">
        <ele>111.70853</ele>
        <time>2021-07-02T06:52:56Z</time>
      </trkpt>
      <trkpt lat="42.093391" lon="2.803766">
        <ele>112.33157</ele>
        <time>2021-07-02T06:52:57Z</time>
      </trkpt>
      <trkpt lat="42.093510" lon="2.803570">
        <ele>110.86325</ele>
        <time>2021-07-02T06:52:58Z</time>
      </trkpt>
      <trkpt lat="42.093636" lon="2.803363">
        <ele>111.01175</ele>
        <time>2021-07-02T06:52:59Z</time>
      </trkpt>
      <trkpt lat="42.093765" lon="2.803155">
        <ele>110.85031</ele>
        <time>2021-07-02T06:53:00Z</time>
      </trkpt>
      <trkpt lat="42.093899" lon="2.802931">
        <ele>111.95798</ele>
        <time>2021-07-02T06:53:01Z</time>
      </trkpt>
      <trkpt lat="42.094044" lon="2.802694">
        <ele>112.95499</ele>
        <time>2021-07-02T06:53:02Z</time>
      </trkpt>
      <trkpt lat="42.094044" lon="2.802694">
        <ele>116.25772</ele>
        <time>2021-07-02T06:53:03Z</time>
      </trkpt>
      <trkpt lat="42.094177" lon="2.802472">
        <ele>116.99100</ele>
        <time>2021-07-02T06:53:04Z</time>
      </trkpt>
      <trkpt lat="42.094311" lon="2.802239">
        <ele>116.51260</ele>
        <time>2021-07-02T06:53:05Z</time>
      </trkpt>
      <trkpt lat="42.094456" lon="2.801997">
        <ele>115.64914</ele>
        <time>2021-07-02T06:53:06Z</time>
      </trkpt>
      <trkpt lat="42.094604" lon="2.801753">
        <ele>115.78989</ele>
        <time>2021-07-02T06:53:07Z</time>
      </trkpt>
      <trkpt lat="42.094742" lon="2.801530">
        <ele>116.25278</ele>
        <time>2021-07-02T06:53:08Z</time>
      </trkpt>
      <trkpt lat="42.094879" lon="2.801306">
        <ele>116.44748</ele>
        <time>2021-07-02T06:53:09Z</time>
      </trkpt>
      <trkpt lat="42.095016" lon="2.801081">
        <ele>117.84000</ele>
        <time>2021-07-02T06:53:10Z</time>
      </trkpt>
      <trkpt lat="42.095158" lon="2.800856">
        <ele>118.02005</ele>
        <time>2021-07-02T06:53:11Z</time>
      </trkpt>
      <trkpt lat="42.095299" lon="2.800624">
        <ele>118.14474</ele>
        <time>2021-07-02T06:53:12Z</time>
      </trkpt>
      <trkpt lat="42.095444" lon="2.800394">
        <ele>118.79642</ele>
        <time>2021-07-02T06:53:13Z</time>
      </trkpt>
      <trkpt lat="42.095581" lon="2.800171">
        <ele>117.64633</ele>
        <time>2021-07-02T06:53:14Z</time>
      </trkpt>
      <trkpt lat="42.095722" lon="2.799945">
        <ele>117.74185</ele>
        <time>2021-07-02T06:53:15Z</time>
      </trkpt>
      <trkpt lat="42.095856" lon="2.799722">
        <ele>118.50717</ele>
        <time>2021-07-02T06:53:16Z</time>
      </trkpt>
      <trkpt lat="42.095982" lon="2.799514">
        <ele>118.35825</ele>
        <time>2021-07-02T06:53:17Z</time>
      </trkpt>
      <trkpt lat="42.096115" lon="2.799283">
        <ele>118.17020</ele>
        <time>2021-07-02T06:53:18Z</time>
      </trkpt>
      <trkpt lat="42.096256" lon="2.799071">
        <ele>119.58871</ele>
        <time>2021-07-02T06:53:19Z</time>
      </trkpt>
      <trkpt lat="42.096413" lon="2.798873">
        <ele>119.68088</ele>
        <time>2021-07-02T06:53:20Z</time>
      </trkpt>
      <trkpt lat="42.096569" lon="2.798696">
        <ele>120.11600</ele>
        <time>2021-07-02T06:53:21Z</time>
      </trkpt>
      <trkpt lat="42.096737" lon="2.798512">
        <ele>120.07230</ele>
        <time>2021-07-02T06:53:22Z</time>
      </trkpt>
      <trkpt lat="42.096897" lon="2.798367">
        <ele>119.71408</ele>
        <time>2021-07-02T06:53:23Z</time>
      </trkpt>
      <trkpt lat="42.097073" lon="2.798229">
        <ele>120.70694</ele>
        <time>2021-07-02T06:53:24Z</time>
      </trkpt>
      <trkpt lat="42.097267" lon="2.798105">
        <ele>120.86209</ele>
        <time>2021-07-02T06:53:25Z</time>
      </trkpt>
      <trkpt lat="42.097466" lon="2.798007">
        <ele>121.17245</ele>
        <time>2021-07-02T06:53:26Z</time>
      </trkpt>
      <trkpt lat="42.097649" lon="2.797918">
        <ele>120.84256</ele>
        <time>2021-07-02T06:53:27Z</time>
      </trkpt>
      <trkpt lat="42.097851" lon="2.797802">
        <ele>121.38718</ele>
        <time>2021-07-02T06:53:28Z</time>
      </trkpt>
      <trkpt lat="42.098049" lon="2.797750">
        <ele>122.38736</ele>
        <time>2021-07-02T06:53:29Z</time>
      </trkpt>
      <trkpt lat="42.098255" lon="2.797697">
        <ele>123.10043</ele>
        <time>2021-07-02T06:53:30Z</time>
      </trkpt>
      <trkpt lat="42.098541" lon="2.797648">
        <ele>123.68631</ele>
        <time>2021-07-02T06:53:31Z</time>
      </trkpt>
      <trkpt lat="42.098778" lon="2.797614">
        <ele>124.13400</ele>
        <time>2021-07-02T06:53:32Z</time>
      </trkpt>
      <trkpt lat="42.099010" lon="2.797571">
        <ele>123.43527</ele>
        <time>2021-07-02T06:53:33Z</time>
      </trkpt>
      <trkpt lat="42.099239" lon="2.797523">
        <ele>123.43118</ele>
        <time>2021-07-02T06:53:34Z</time>
      </trkpt>
      <trkpt lat="42.099461" lon="2.797482">
        <ele>123.20914</ele>
        <time>2021-07-02T06:53:35Z</time>
      </trkpt>
      <trkpt lat="42.099461" lon="2.797482">
        <ele>122.69028</ele>
        <time>2021-07-02T06:53:36Z</time>
      </trkpt>
      <trkpt lat="42.099670" lon="2.797444">
        <ele>120.73563</ele>
        <time>2021-07-02T06:53:37Z</time>
      </trkpt>
      <trkpt lat="42.099857" lon="2.797410">
        <ele>120.12991</ele>
        <time>2021-07-02T06:53:38Z</time>
      </trkpt>
      <trkpt lat="42.100052" lon="2.797374">
        <ele>119.45578</ele>
        <time>2021-07-02T06:53:39Z</time>
      </trkpt>
      <trkpt lat="42.100269" lon="2.797335">
        <ele>119.06137</ele>
        <time>2021-07-02T06:53:40Z</time>
      </trkpt>
      <trkpt lat="42.100510" lon="2.797298">
        <ele>118.44260</ele>
        <time>2021-07-02T06:53:41Z</time>
      </trkpt>
      <trkpt lat="42.100750" lon="2.797264">
        <ele>118.78995</ele>
        <time>2021-07-02T06:53:42Z</time>
      </trkpt>
      <trkpt lat="42.100986" lon="2.797223">
        <ele>118.56308</ele>
        <time>2021-07-02T06:53:43Z</time>
      </trkpt>
      <trkpt lat="42.101227" lon="2.797180">
        <ele>118.89542</ele>
        <time>2021-07-02T06:53:44Z</time>
      </trkpt>
      <trkpt lat="42.101463" lon="2.797135">
        <ele>118.73703</ele>
        <time>2021-07-02T06:53:45Z</time>
      </trkpt>
      <trkpt lat="42.101727" lon="2.797085">
        <ele>118.99417</ele>
        <time>2021-07-02T06:53:46Z</time>
      </trkpt>
      <trkpt lat="42.101948" lon="2.797042">
        <ele>119.77829</ele>
        <time>2021-07-02T06:53:47Z</time>
      </trkpt>
      <trkpt lat="42.102180" lon="2.796998">
        <ele>120.12070</ele>
        <time>2021-07-02T06:53:48Z</time>
      </trkpt>
      <trkpt lat="42.102428" lon="2.796946">
        <ele>121.30331</ele>
        <time>2021-07-02T06:53:49Z</time>
      </trkpt>
      <trkpt lat="42.102680" lon="2.796867">
        <ele>122.49680</ele>
        <time>2021-07-02T06:53:50Z</time>
      </trkpt>
      <trkpt lat="42.102917" lon="2.796768">
        <ele>123.46609</ele>
        <time>2021-07-02T06:53:51Z</time>
      </trkpt>
      <trkpt lat="42.103149" lon="2.796628">
        <ele>125.33768</ele>
        <time>2021-07-02T06:53:52Z</time>
      </trkpt>
      <trkpt lat="42.103367" lon="2.796474">
        <ele>126.78745</ele>
        <time>2021-07-02T06:53:53Z</time>
      </trkpt>
      <trkpt lat="42.103584" lon="2.796316">
        <ele>128.30038</ele>
        <time>2021-07-02T06:53:54Z</time>
      </trkpt>
      <trkpt lat="42.103783" lon="2.796174">
        <ele>129.29520</ele>
        <time>2021-07-02T06:53:55Z</time>
      </trkpt>
      <trkpt lat="42.103985" lon="2.796031">
        <ele>131.16318</ele>
        <time>2021-07-02T06:53:56Z</time>
      </trkpt>
      <trkpt lat="42.104195" lon="2.795873">
        <ele>131.79971</ele>
        <time>2021-07-02T06:53:57Z</time>
      </trkpt>
      <trkpt lat="42.104393" lon="2.795722">
        <ele>132.30087</ele>
        <time>2021-07-02T06:53:58Z</time>
      </trkpt>
      <trkpt lat="42.104591" lon="2.795582">
        <ele>132.88455</ele>
        <time>2021-07-02T06:53:59Z</time>
      </trkpt>
      <trkpt lat="42.104816" lon="2.795424">
        <ele>133.12137</ele>
        <time>2021-07-02T06:54:00Z</time>
      </trkpt>
      <trkpt lat="42.105038" lon="2.795269">
        <ele>134.04044</ele>
        <time>2021-07-02T06:54:01Z</time>
      </trkpt>
      <trkpt lat="42.105286" lon="2.795098">
        <ele>135.81418</ele>
        <time>2021-07-02T06:54:02Z</time>
      </trkpt>
      <trkpt lat="42.105492" lon="2.794959">
        <ele>136.65854</ele>
        <time>2021-07-02T06:54:03Z</time>
      </trkpt>
      <trkpt lat="42.105740" lon="2.794820">
        <ele>137.18076</ele>
        <time>2021-07-02T06:54:04Z</time>
      </trkpt>
      <trkpt lat="42.105740" lon="2.794820">
        <ele>138.95474</ele>
        <time>2021-07-02T06:54:05Z</time>
      </trkpt>
      <trkpt lat="42.105984" lon="2.794717">
        <ele>141.13736</ele>
        <time>2021-07-02T06:54:06Z</time>
      </trkpt>
      <trkpt lat="42.106239" lon="2.794628">
        <ele>141.85104</ele>
        <time>2021-07-02T06:54:07Z</time>
      </trkpt>
      <trkpt lat="42.106518" lon="2.794550">
        <ele>142.79257</ele>
        <time>2021-07-02T06:54:08Z</time>
      </trkpt>
      <trkpt lat="42.106770" lon="2.794485">
        <ele>144.35849</ele>
        <time>2021-07-02T06:54:09Z</time>
      </trkpt>
      <trkpt lat="42.107025" lon="2.794418">
        <ele>146.42416</ele>
        <time>2021-07-02T06:54:10Z</time>
      </trkpt>
      <trkpt lat="42.107288" lon="2.794350">
        <ele>147.90311</ele>
        <time>2021-07-02T06:54:11Z</time>
      </trkpt>
      <trkpt lat="42.107552" lon="2.794282">
        <ele>148.19919</ele>
        <time>2021-07-02T06:54:12Z</time>
      </trkpt>
      <trkpt lat="42.107800" lon="2.794225">
        <ele>148.73721</ele>
        <time>2021-07-02T06:54:13Z</time>
      </trkpt>
      <trkpt lat="42.108055" lon="2.794165">
        <ele>149.74728</ele>
        <time>2021-07-02T06:54:14Z</time>
      </trkpt>
      <trkpt lat="42.108307" lon="2.794107">
        <ele>151.31601</ele>
        <time>2021-07-02T06:54:15Z</time>
      </trkpt>
      <trkpt lat="42.108555" lon="2.794046">
        <ele>152.26645</ele>
        <time>2021-07-02T06:54:16Z</time>
      </trkpt>
      <trkpt lat="42.108814" lon="2.793981">
        <ele>152.48123</ele>
        <time>2021-07-02T06:54:17Z</time>
      </trkpt>
      <trkpt lat="42.109062" lon="2.793920">
        <ele>153.70041</ele>
        <time>2021-07-02T06:54:18Z</time>
      </trkpt>
      <trkpt lat="42.109322" lon="2.793856">
        <ele>154.53513</ele>
        <time>2021-07-02T06:54:19Z</time>
      </trkpt>
      <trkpt lat="42.109573" lon="2.793790">
        <ele>156.15695</ele>
        <time>2021-07-02T06:54:20Z</time>
      </trkpt>
      <trkpt lat="42.109818" lon="2.793727">
        <ele>157.95792</ele>
        <time>2021-07-02T06:54:21Z</time>
      </trkpt>
      <trkpt lat="42.110085" lon="2.793658">
        <ele>158.88181</ele>
        <time>2021-07-02T06:54:22Z</time>
      </trkpt>
      <trkpt lat="42.110344" lon="2.793574">
        <ele>159.38864</ele>
        <time>2021-07-02T06:54:23Z</time>
      </trkpt>
      <trkpt lat="42.110603" lon="2.793466">
        <ele>160.37387</ele>
        <time>2021-07-02T06:54:24Z</time>
      </trkpt>
      <trkpt lat="42.110851" lon="2.793349">
        <ele>161.48776</ele>
        <time>2021-07-02T06:54:25Z</time>
      </trkpt>
      <trkpt lat="42.111088" lon="2.793191">
        <ele>162.16232</ele>
        <time>2021-07-02T06:54:26Z</time>
      </trkpt>
      <trkpt lat="42.111309" lon="2.793016">
        <ele>162.67270</ele>
        <time>2021-07-02T06:54:27Z</time>
      </trkpt>
      <trkpt lat="42.111542" lon="2.792820">
        <ele>163.35281</ele>
        <time>2021-07-02T06:54:28Z</time>
      </trkpt>
      <trkpt lat="42.111759" lon="2.792628">
        <ele>164.02097</ele>
        <time>2021-07-02T06:54:29Z</time>
      </trkpt>
      <trkpt lat="42.111969" lon="2.792441">
        <ele>164.72482</ele>
        <time>2021-07-02T06:54:30Z</time>
      </trkpt>
      <trkpt lat="42.112186" lon="2.792249">
        <ele>165.57889</ele>
        <time>2021-07-02T06:54:31Z</time>
      </trkpt>
      <trkpt lat="42.112404" lon="2.792026">
        <ele>166.64645</ele>
        <time>2021-07-02T06:54:32Z</time>
      </trkpt>
      <trkpt lat="42.112610" lon="2.791807">
        <ele>167.41354</ele>
        <time>2021-07-02T06:54:33Z</time>
      </trkpt>
      <trkpt lat="42.112816" lon="2.791594">
        <ele>167.90488</ele>
        <time>2021-07-02T06:54:34Z</time>
      </trkpt>
      <trkpt lat="42.113033" lon="2.791400">
        <ele>167.59415</ele>
        <time>2021-07-02T06:54:35Z</time>
      </trkpt>
      <trkpt lat="42.113285" lon="2.791204">
        <ele>169.32053</ele>
        <time>2021-07-02T06:54:36Z</time>
      </trkpt>
      <trkpt lat="42.113525" lon="2.791041">
        <ele>170.81302</ele>
        <time>2021-07-02T06:54:37Z</time>
      </trkpt>
      <trkpt lat="42.113747" lon="2.790896">
        <ele>171.73886</ele>
        <time>2021-07-02T06:54:38Z</time>
      </trkpt>
      <trkpt lat="42.113747" lon="2.790896">
        <ele>172.48569</ele>
        <time>2021-07-02T06:54:39Z</time>
      </trkpt>
      <trkpt lat="42.114002" lon="2.790741">
        <ele>172.78232</ele>
        <time>2021-07-02T06:54:40Z</time>
      </trkpt>
      <trkpt lat="42.114262" lon="2.790585">
        <ele>173.34042</ele>
        <time>2021-07-02T06:54:41Z</time>
      </trkpt>
      <trkpt lat="42.114510" lon="2.790434">
        <ele>174.51144</ele>
        <time>2021-07-02T06:54:42Z</time>
      </trkpt>
      <trkpt lat="42.114769" lon="2.790277">
        <ele>174.29904</ele>
        <time>2021-07-02T06:54:43Z</time>
      </trkpt>
      <trkpt lat="42.115021" lon="2.790125">
        <ele>175.52548</ele>
        <time>2021-07-02T06:54:44Z</time>
      </trkpt>
      <trkpt lat="42.115276" lon="2.789972">
        <ele>176.70236</ele>
        <time>2021-07-02T06:54:45Z</time>
      </trkpt>
      <trkpt lat="42.115520" lon="2.789812">
        <ele>177.46915</ele>
        <time>2021-07-02T06:54:46Z</time>
      </trkpt>
      <trkpt lat="42.115765" lon="2.789647">
        <ele>177.79422</ele>
        <time>2021-07-02T06:54:47Z</time>
      </trkpt>
      <trkpt lat="42.116016" lon="2.789473">
        <ele>178.57419</ele>
        <time>2021-07-02T06:54:48Z</time>
      </trkpt>
      <trkpt lat="42.116261" lon="2.789299">
        <ele>179.36929</ele>
        <time>2021-07-02T06:54:49Z</time>
      </trkpt>
      <trkpt lat="42.116505" lon="2.789119">
        <ele>179.70035</ele>
        <time>2021-07-02T06:54:50Z</time>
      </trkpt>
      <trkpt lat="42.116760" lon="2.788931">
        <ele>179.70395</ele>
        <time>2021-07-02T06:54:51Z</time>
      </trkpt>
      <trkpt lat="42.116985" lon="2.788763">
        <ele>179.86258</ele>
        <time>2021-07-02T06:54:52Z</time>
      </trkpt>
      <trkpt lat="42.117229" lon="2.788578">
        <ele>180.07217</ele>
        <time>2021-07-02T06:54:53Z</time>
      </trkpt>
      <trkpt lat="42.117466" lon="2.788399">
        <ele>180.05441</ele>
        <time>2021-07-02T06:54:54Z</time>
      </trkpt>
      <trkpt lat="42.117699" lon="2.788223">
        <ele>180.36972</ele>
        <time>2021-07-02T06:54:55Z</time>
      </trkpt>
      <trkpt lat="42.117912" lon="2.788062">
        <ele>180.99484</ele>
        <time>2021-07-02T06:54:56Z</time>
      </trkpt>
      <trkpt lat="42.118122" lon="2.787902">
        <ele>180.71005</ele>
        <time>2021-07-02T06:54:57Z</time>
      </trkpt>
      <trkpt lat="42.118359" lon="2.787724">
        <ele>180.69980</ele>
        <time>2021-07-02T06:54:58Z</time>
      </trkpt>
      <trkpt lat="42.118580" lon="2.787555">
        <ele>181.32394</ele>
        <time>2021-07-02T06:54:59Z</time>
      </trkpt>
      <trkpt lat="42.118809" lon="2.787377">
        <ele>181.91837</ele>
        <time>2021-07-02T06:55:00Z</time>
      </trkpt>
      <trkpt lat="42.119038" lon="2.787201">
        <ele>182.22195</ele>
        <time>2021-07-02T06:55:01Z</time>
      </trkpt>
      <trkpt lat="42.119263" lon="2.787029">
        <ele>183.35336</ele>
        <time>2021-07-02T06:55:02Z</time>
      </trkpt>
      <trkpt lat="42.119495" lon="2.786850">
        <ele>184.08896</ele>
        <time>2021-07-02T06:55:03Z</time>
      </trkpt>
      <trkpt lat="42.119705" lon="2.786686">
        <ele>184.56625</ele>
        <time>2021-07-02T06:55:04Z</time>
      </trkpt>
      <trkpt lat="42.119923" lon="2.786520">
        <ele>185.30063</ele>
        <time>2021-07-02T06:55:05Z</time>
      </trkpt>
      <trkpt lat="42.120159" lon="2.786333">
        <ele>185.91031</ele>
        <time>2021-07-02T06:55:06Z</time>
      </trkpt>
      <trkpt lat="42.120380" lon="2.786159">
        <ele>186.16055</ele>
        <time>2021-07-02T06:55:07Z</time>
      </trkpt>
      <trkpt lat="42.120583" lon="2.786002">
        <ele>186.94394</ele>
        <time>2021-07-02T06:55:08Z</time>
      </trkpt>
      <trkpt lat="42.120686" lon="2.785922">
        <ele>187.66489</ele>
        <time>2021-07-02T06:55:09Z</time>
      </trkpt>
      <trkpt lat="42.120838" lon="2.785878">
        <ele>188.20041</ele>
        <time>2021-07-02T06:55:10Z</time>
      </trkpt>
      <trkpt lat="42.120838" lon="2.785878">
        <ele>188.91739</ele>
        <time>2021-07-02T06:55:11Z</time>
      </trkpt>
      <trkpt lat="42.121212" lon="2.785807">
        <ele>189.30466</ele>
        <time>2021-07-02T06:55:12Z</time>
      </trkpt>
      <trkpt lat="42.121387" lon="2.785399">
        <ele>190.17038</ele>
        <time>2021-07-02T06:55:13Z</time>
      </trkpt>
      <trkpt lat="42.121590" lon="2.785245">
        <ele>190.94888</ele>
        <time>2021-07-02T06:55:14Z</time>
      </trkpt>
      <trkpt lat="42.121841" lon="2.785050">
        <ele>191.42770</ele>
        <time>2021-07-02T06:55:15Z</time>
      </trkpt>
      <trkpt lat="42.122025" lon="2.784905">
        <ele>191.80582</ele>
        <time>2021-07-02T06:55:16Z</time>
      </trkpt>
      <trkpt lat="42.122238" lon="2.784751">
        <ele>193.14755</ele>
        <time>2021-07-02T06:55:17Z</time>
      </trkpt>
      <trkpt lat="42.122471" lon="2.784583">
        <ele>193.81729</ele>
        <time>2021-07-02T06:55:18Z</time>
      </trkpt>
      <trkpt lat="42.122665" lon="2.784437">
        <ele>195.23941</ele>
        <time>2021-07-02T06:55:19Z</time>
      </trkpt>
      <trkpt lat="42.122875" lon="2.784268">
        <ele>196.42490</ele>
        <time>2021-07-02T06:55:20Z</time>
      </trkpt>
      <trkpt lat="42.123089" lon="2.784097">
        <ele>197.63510</ele>
        <time>2021-07-02T06:55:21Z</time>
      </trkpt>
      <trkpt lat="42.123283" lon="2.783937">
        <ele>198.49716</ele>
        <time>2021-07-02T06:55:22Z</time>
      </trkpt>
      <trkpt lat="42.123493" lon="2.783766">
        <ele>199.65585</ele>
        <time>2021-07-02T06:55:23Z</time>
      </trkpt>
      <trkpt lat="42.123703" lon="2.783596">
        <ele>200.96567</ele>
        <time>2021-07-02T06:55:24Z</time>
      </trkpt>
      <trkpt lat="42.123924" lon="2.783412">
        <ele>202.21170</ele>
        <time>2021-07-02T06:55:25Z</time>
      </trkpt>
      <trkpt lat="42.124138" lon="2.783207">
        <ele>203.24313</ele>
        <time>2021-07-02T06:55:26Z</time>
      </trkpt>
      <trkpt lat="42.124329" lon="2.783018">
        <ele>204.30276</ele>
        <time>2021-07-02T06:55:27Z</time>
      </trkpt>
      <trkpt lat="42.124523" lon="2.782810">
        <ele>205.26816</ele>
        <time>2021-07-02T06:55:28Z</time>
      </trkpt>
      <trkpt lat="42.124710" lon="2.782581">
        <ele>206.47104</ele>
        <time>2021-07-02T06:55:29Z</time>
      </trkpt>
      <trkpt lat="42.124886" lon="2.782353">
        <ele>207.63034</ele>
        <time>2021-07-02T06:55:30Z</time>
      </trkpt>
      <trkpt lat="42.125057" lon="2.782106">
        <ele>208.74191</ele>
        <time>2021-07-02T06:55:31Z</time>
      </trkpt>
      <trkpt lat="42.125233" lon="2.781847">
        <ele>209.52646</ele>
        <time>2021-07-02T06:55:32Z</time>
      </trkpt>
      <trkpt lat="42.125389" lon="2.781597">
        <ele>210.44943</ele>
        <time>2021-07-02T06:55:33Z</time>
      </trkpt>
      <trkpt lat="42.125546" lon="2.781354">
        <ele>211.04623</ele>
        <time>2021-07-02T06:55:34Z</time>
      </trkpt>
      <trkpt lat="42.125690" lon="2.781122">
        <ele>211.98007</ele>
        <time>2021-07-02T06:55:35Z</time>
      </trkpt>
      <trkpt lat="42.125690" lon="2.781122">
        <ele>213.22983</ele>
        <time>2021-07-02T06:55:36Z</time>
      </trkpt>
      <trkpt lat="42.125843" lon="2.780874">
        <ele>213.56595</ele>
        <time>2021-07-02T06:55:37Z</time>
      </trkpt>
      <trkpt lat="42.125988" lon="2.780637">
        <ele>214.16782</ele>
        <time>2021-07-02T06:55:38Z</time>
      </trkpt>
      <trkpt lat="42.126125" lon="2.780417">
        <ele>215.21194</ele>
        <time>2021-07-02T06:55:39Z</time>
      </trkpt>
      <trkpt lat="42.126251" lon="2.780213">
        <ele>215.11398</ele>
        <time>2021-07-02T06:55:40Z</time>
      </trkpt>
      <trkpt lat="42.126392" lon="2.779987">
        <ele>215.87875</ele>
        <time>2021-07-02T06:55:41Z</time>
      </trkpt>
      <trkpt lat="42.126537" lon="2.779753">
        <ele>216.70792</ele>
        <time>2021-07-02T06:55:42Z</time>
      </trkpt>
      <trkpt lat="42.126682" lon="2.779517">
        <ele>217.10165</ele>
        <time>2021-07-02T06:55:43Z</time>
      </trkpt>
      <trkpt lat="42.126823" lon="2.779290">
        <ele>218.00998</ele>
        <time>2021-07-02T06:55:44Z</time>
      </trkpt>
      <trkpt lat="42.126961" lon="2.779073">
        <ele>218.20200</ele>
        <time>2021-07-02T06:55:45Z</time>
      </trkpt>
      <trkpt lat="42.127102" lon="2.778843">
        <ele>218.93405</ele>
        <time>2021-07-02T06:55:46Z</time>
      </trkpt>
      <trkpt lat="42.127239" lon="2.778626">
        <ele>219.51389</ele>
        <time>2021-07-02T06:55:47Z</time>
      </trkpt>
      <trkpt lat="42.127377" lon="2.778404">
        <ele>220.22269</ele>
        <time>2021-07-02T06:55:48Z</time>
      </trkpt>
      <trkpt lat="42.127518" lon="2.778179">
        <ele>220.39005</ele>
        <time>2021-07-02T06:55:49Z</time>
      </trkpt>
      <trkpt lat="42.127663" lon="2.777946">
        <ele>221.12704</ele>
        <time>2021-07-02T06:55:50Z</time>
      </trkpt>
      <trkpt lat="42.127804" lon="2.777718">
        <ele>221.64877</ele>
        <time>2021-07-02T06:55:51Z</time>
      </trkpt>
      <trkpt lat="42.127953" lon="2.777480">
        <ele>221.90536</ele>
        <time>2021-07-02T06:55:52Z</time>
      </trkpt>
      <trkpt lat="42.128105" lon="2.777234">
        <ele>222.22470</ele>
        <time>2021-07-02T06:55:53Z</time>
      </trkpt>
      <trkpt lat="42.128258" lon="2.776989">
        <ele>222.30014</ele>
        <time>2021-07-02T06:55:54Z</time>
      </trkpt>
      <trkpt lat="42.128414" lon="2.776740">
        <ele>222.51767</ele>
        <time>2021-07-02T06:55:55Z</time>
      </trkpt>
      <trkpt lat="42.128586" lon="2.776472">
        <ele>223.17545</ele>
        <time>2021-07-02T06:55:56Z</time>
      </trkpt>
      <trkpt lat="42.128738" lon="2.776225">
        <ele>223.51511</ele>
        <time>2021-07-02T06:55:57Z</time>
      </trkpt>
      <trkpt lat="42.128895" lon="2.775980">
        <ele>223.53378</ele>
        <time>2021-07-02T06:55:58Z</time>
      </trkpt>
      <trkpt lat="42.129044" lon="2.775745">
        <ele>224.04245</ele>
        <time>2021-07-02T06:55:59Z</time>
      </trkpt>
      <trkpt lat="42.129200" lon="2.775533">
        <ele>224.65671</ele>
        <time>2021-07-02T06:56:00Z</time>
      </trkpt>
      <trkpt lat="42.129356" lon="2.775318">
        <ele>225.81308</ele>
        <time>2021-07-02T06:56:01Z</time>
      </trkpt>
      <trkpt lat="42.129532" lon="2.775108">
        <ele>225.35251</ele>
        <time>2021-07-02T06:56:02Z</time>
      </trkpt>
      <trkpt lat="42.129711" lon="2.774912">
        <ele>225.47641</ele>
        <time>2021-07-02T06:56:03Z</time>
      </trkpt>
      <trkpt lat="42.129883" lon="2.774733">
        <ele>226.27866</ele>
        <time>2021-07-02T06:56:04Z</time>
      </trkpt>
      <trkpt lat="42.130085" lon="2.774560">
        <ele>226.45920</ele>
        <time>2021-07-02T06:56:05Z</time>
      </trkpt>
      <trkpt lat="42.130287" lon="2.774415">
        <ele>227.27170</ele>
        <time>2021-07-02T06:56:06Z</time>
      </trkpt>
      <trkpt lat="42.130486" lon="2.774272">
        <ele>227.21152</ele>
        <time>2021-07-02T06:56:07Z</time>
      </trkpt>
      <trkpt lat="42.130486" lon="2.774272">
        <ele>227.60117</ele>
        <time>2021-07-02T06:56:08Z</time>
      </trkpt>
      <trkpt lat="42.130695" lon="2.774142">
        <ele>227.79111</ele>
        <time>2021-07-02T06:56:09Z</time>
      </trkpt>
      <trkpt lat="42.130894" lon="2.774035">
        <ele>228.05368</ele>
        <time>2021-07-02T06:56:10Z</time>
      </trkpt>
      <trkpt lat="42.131100" lon="2.773944">
        <ele>228.02390</ele>
        <time>2021-07-02T06:56:11Z</time>
      </trkpt>
      <trkpt lat="42.131306" lon="2.773864">
        <ele>228.15964</ele>
        <time>2021-07-02T06:56:12Z</time>
      </trkpt>
      <trkpt lat="42.131508" lon="2.773797">
        <ele>228.49728</ele>
        <time>2021-07-02T06:56:13Z</time>
      </trkpt>
      <trkpt lat="42.131721" lon="2.773747">
        <ele>228.59457</ele>
        <time>2021-07-02T06:56:14Z</time>
      </trkpt>
      <trkpt lat="42.131920" lon="2.773701">
        <ele>228.63443</ele>
        <time>2021-07-02T06:56:15Z</time>
      </trkpt>
      <trkpt lat="42.131920" lon="2.773701">
        <ele>229.02463</ele>
        <time>2021-07-02T06:56:16Z</time>
      </trkpt>
      <trkpt lat="42.132233" lon="2.773728">
        <ele>229.74057</ele>
        <time>2021-07-02T06:56:17Z</time>
      </trkpt>
      <trkpt lat="42.132607" lon="2.773623">
        <ele>229.71664</ele>
        <time>2021-07-02T06:56:18Z</time>
      </trkpt>
      <trkpt lat="42.132816" lon="2.773599">
        <ele>229.39743</ele>
        <time>2021-07-02T06:56:19Z</time>
      </trkpt>
      <trkpt lat="42.133038" lon="2.773574">
        <ele>229.58591</ele>
        <time>2021-07-02T06:56:20Z</time>
      </trkpt>
      <trkpt lat="42.133266" lon="2.773550">
        <ele>229.63376</ele>
        <time>2021-07-02T06:56:21Z</time>
      </trkpt>
      <trkpt lat="42.133469" lon="2.773519">
        <ele>229.61691</ele>
        <time>2021-07-02T06:56:22Z</time>
      </trkpt>
      <trkpt lat="42.133694" lon="2.773481">
        <ele>229.78372</ele>
        <time>2021-07-02T06:56:23Z</time>
      </trkpt>
      <trkpt lat="42.133934" lon="2.773434">
        <ele>229.78757</ele>
        <time>2021-07-02T06:56:24Z</time>
      </trkpt>
      <trkpt lat="42.134174" lon="2.773364">
        <ele>230.51273</ele>
        <time>2021-07-02T06:56:25Z</time>
      </trkpt>
      <trkpt lat="42.134399" lon="2.773283">
        <ele>231.84396</ele>
        <time>2021-07-02T06:56:26Z</time>
      </trkpt>
      <trkpt lat="42.134605" lon="2.773192">
        <ele>231.93692</ele>
        <time>2021-07-02T06:56:27Z</time>
      </trkpt>
      <trkpt lat="42.134815" lon="2.773088">
        <ele>231.75247</ele>
        <time>2021-07-02T06:56:28Z</time>
      </trkpt>
      <trkpt lat="42.135021" lon="2.772967">
        <ele>232.05917</ele>
        <time>2021-07-02T06:56:29Z</time>
      </trkpt>
      <trkpt lat="42.135235" lon="2.772823">
        <ele>232.23141</ele>
        <time>2021-07-02T06:56:30Z</time>
      </trkpt>
      <trkpt lat="42.135445" lon="2.772667">
        <ele>232.77670</ele>
        <time>2021-07-02T06:56:31Z</time>
      </trkpt>
      <trkpt lat="42.135643" lon="2.772496">
        <ele>232.87778</ele>
        <time>2021-07-02T06:56:32Z</time>
      </trkpt>
      <trkpt lat="42.135826" lon="2.772318">
        <ele>233.05869</ele>
        <time>2021-07-02T06:56:33Z</time>
      </trkpt>
      <trkpt lat="42.136005" lon="2.772123">
        <ele>232.98801</ele>
        <time>2021-07-02T06:56:34Z</time>
      </trkpt>
      <trkpt lat="42.136169" lon="2.771932">
        <ele>233.24326</ele>
        <time>2021-07-02T06:56:35Z</time>
      </trkpt>
      <trkpt lat="42.136341" lon="2.771702">
        <ele>232.98141</ele>
        <time>2021-07-02T06:56:36Z</time>
      </trkpt>
      <trkpt lat="42.136505" lon="2.771471">
        <ele>232.99423</ele>
        <time>2021-07-02T06:56:37Z</time>
      </trkpt>
      <trkpt lat="42.136650" lon="2.771238">
        <ele>233.13449</ele>
        <time>2021-07-02T06:56:38Z</time>
      </trkpt>
      <trkpt lat="42.136795" lon="2.770992">
        <ele>233.11081</ele>
        <time>2021-07-02T06:56:39Z</time>
      </trkpt>
      <trkpt lat="42.136795" lon="2.770992">
        <ele>232.95920</ele>
        <time>2021-07-02T06:56:40Z</time>
      </trkpt>
      <trkpt lat="42.136936" lon="2.770743">
        <ele>233.46951</ele>
        <time>2021-07-02T06:56:41Z</time>
      </trkpt>
      <trkpt lat="42.137062" lon="2.770505">
        <ele>233.48007</ele>
        <time>2021-07-02T06:56:42Z</time>
      </trkpt>
      <trkpt lat="42.137196" lon="2.770251">
        <ele>234.37900</ele>
        <time>2021-07-02T06:56:43Z</time>
      </trkpt>
      <trkpt lat="42.137325" lon="2.769999">
        <ele>234.64902</ele>
        <time>2021-07-02T06:56:44Z</time>
      </trkpt>
      <trkpt lat="42.137459" lon="2.769745">
        <ele>235.01553</ele>
        <time>2021-07-02T06:56:45Z</time>
      </trkpt>
      <trkpt lat="42.137581" lon="2.769503">
        <ele>235.52982</ele>
        <time>2021-07-02T06:56:46Z</time>
      </trkpt>
      <trkpt lat="42.137703" lon="2.769269">
        <ele>235.53348</ele>
        <time>2021-07-02T06:56:47Z</time>
      </trkpt>
      <trkpt lat="42.137829" lon="2.769022">
        <ele>235.75253</ele>
        <time>2021-07-02T06:56:48Z</time>
      </trkpt>
      <trkpt lat="42.137962" lon="2.768763">
        <ele>235.55356</ele>
        <time>2021-07-02T06:56:49Z</time>
      </trkpt>
      <trkpt lat="42.138088" lon="2.768515">
        <ele>235.99991</ele>
        <time>2021-07-02T06:56:50Z</time>
      </trkpt>
      <trkpt lat="42.138214" lon="2.768269">
        <ele>235.97409</ele>
        <time>2021-07-02T06:56:51Z</time>
      </trkpt>
      <trkpt lat="42.138344" lon="2.768017">
        <ele>236.02988</ele>
        <time>2021-07-02T06:56:52Z</time>
      </trkpt>
      <trkpt lat="42.138466" lon="2.767776">
        <ele>236.30722</ele>
        <time>2021-07-02T06:56:53Z</time>
      </trkpt>
      <trkpt lat="42.138599" lon="2.767519">
        <ele>236.48557</ele>
        <time>2021-07-02T06:56:54Z</time>
      </trkpt>
      <trkpt lat="42.138729" lon="2.767264">
        <ele>236.51016</ele>
        <time>2021-07-02T06:56:55Z</time>
      </trkpt>
      <trkpt lat="42.138863" lon="2.767008">
        <ele>236.91794</ele>
        <time>2021-07-02T06:56:56Z</time>
      </trkpt>
      <trkpt lat="42.138988" lon="2.766765">
        <ele>237.00046</ele>
        <time>2021-07-02T06:56:57Z</time>
      </trkpt>
      <trkpt lat="42.139114" lon="2.766521">
        <ele>236.88516</ele>
        <time>2021-07-02T06:56:58Z</time>
      </trkpt>
      <trkpt lat="42.139244" lon="2.766268">
        <ele>236.78268</ele>
        <time>2021-07-02T06:56:59Z</time>
      </trkpt>
      <trkpt lat="42.139374" lon="2.766018">
        <ele>237.10886</ele>
        <time>2021-07-02T06:57:00Z</time>
      </trkpt>
      <trkpt lat="42.139496" lon="2.765777">
        <ele>237.37473</ele>
        <time>2021-07-02T06:57:01Z</time>
      </trkpt>
      <trkpt lat="42.139557" lon="2.765668">
        <ele>237.81729</ele>
        <time>2021-07-02T06:57:02Z</time>
      </trkpt>
      <trkpt lat="42.139626" lon="2.765598">
        <ele>237.50693</ele>
        <time>2021-07-02T06:57:03Z</time>
      </trkpt>
      <trkpt lat="42.139923" lon="2.764994">
        <ele>237.91110</ele>
        <time>2021-07-02T06:57:04Z</time>
      </trkpt>
      <trkpt lat="42.140076" lon="2.764766">
        <ele>237.97556</ele>
        <time>2021-07-02T06:57:05Z</time>
      </trkpt>
      <trkpt lat="42.140236" lon="2.764547">
        <ele>238.06522</ele>
        <time>2021-07-02T06:57:06Z</time>
      </trkpt>
      <trkpt lat="42.140404" lon="2.764341">
        <ele>238.22690</ele>
        <time>2021-07-02T06:57:07Z</time>
      </trkpt>
      <trkpt lat="42.140629" lon="2.764114">
        <ele>238.11484</ele>
        <time>2021-07-02T06:57:08Z</time>
      </trkpt>
      <trkpt lat="42.140812" lon="2.763945">
        <ele>238.05362</ele>
        <time>2021-07-02T06:57:09Z</time>
      </trkpt>
      <trkpt lat="42.141022" lon="2.763793">
        <ele>237.84055</ele>
        <time>2021-07-02T06:57:10Z</time>
      </trkpt>
      <trkpt lat="42.141022" lon="2.763793">
        <ele>237.43802</ele>
        <time>2021-07-02T06:57:11Z</time>
      </trkpt>
      <trkpt lat="42.141224" lon="2.763659">
        <ele>237.43564</ele>
        <time>2021-07-02T06:57:12Z</time>
      </trkpt>
      <trkpt lat="42.141418" lon="2.763549">
        <ele>237.08212</ele>
        <time>2021-07-02T06:57:13Z</time>
      </trkpt>
      <trkpt lat="42.141628" lon="2.763446">
        <ele>236.58725</ele>
        <time>2021-07-02T06:57:14Z</time>
      </trkpt>
      <trkpt lat="42.141853" lon="2.763358">
        <ele>235.79868</ele>
        <time>2021-07-02T06:57:15Z</time>
      </trkpt>
      <trkpt lat="42.142071" lon="2.763302">
        <ele>235.30075</ele>
        <time>2021-07-02T06:57:16Z</time>
      </trkpt>
      <trkpt lat="42.142300" lon="2.763256">
        <ele>235.55435</ele>
        <time>2021-07-02T06:57:17Z</time>
      </trkpt>
      <trkpt lat="42.142540" lon="2.763224">
        <ele>234.99484</ele>
        <time>2021-07-02T06:57:18Z</time>
      </trkpt>
      <trkpt lat="42.142780" lon="2.763197">
        <ele>233.95322</ele>
        <time>2021-07-02T06:57:19Z</time>
      </trkpt>
      <trkpt lat="42.143021" lon="2.763169">
        <ele>232.49039</ele>
        <time>2021-07-02T06:57:20Z</time>
      </trkpt>
      <trkpt lat="42.143265" lon="2.763143">
        <ele>232.08994</ele>
        <time>2021-07-02T06:57:21Z</time>
      </trkpt>
      <trkpt lat="42.143497" lon="2.763118">
        <ele>231.85873</ele>
        <time>2021-07-02T06:57:22Z</time>
      </trkpt>
      <trkpt lat="42.143745" lon="2.763091">
        <ele>231.32565</ele>
        <time>2021-07-02T06:57:23Z</time>
      </trkpt>
      <trkpt lat="42.143990" lon="2.763065">
        <ele>231.08286</ele>
        <time>2021-07-02T06:57:24Z</time>
      </trkpt>
      <trkpt lat="42.144253" lon="2.763037">
        <ele>230.96817</ele>
        <time>2021-07-02T06:57:25Z</time>
      </trkpt>
      <trkpt lat="42.144505" lon="2.763011">
        <ele>230.80325</ele>
        <time>2021-07-02T06:57:26Z</time>
      </trkpt>
      <trkpt lat="42.144768" lon="2.762988">
        <ele>230.51157</ele>
        <time>2021-07-02T06:57:27Z</time>
      </trkpt>
      <trkpt lat="42.145031" lon="2.762964">
        <ele>230.13266</ele>
        <time>2021-07-02T06:57:28Z</time>
      </trkpt>
      <trkpt lat="42.145294" lon="2.762940">
        <ele>230.13406</ele>
        <time>2021-07-02T06:57:29Z</time>
      </trkpt>
      <trkpt lat="42.145535" lon="2.762918">
        <ele>229.68600</ele>
        <time>2021-07-02T06:57:30Z</time>
      </trkpt>
      <trkpt lat="42.145794" lon="2.762894">
        <ele>229.49863</ele>
        <time>2021-07-02T06:57:31Z</time>
      </trkpt>
      <trkpt lat="42.146030" lon="2.762872">
        <ele>230.00455</ele>
        <time>2021-07-02T06:57:32Z</time>
      </trkpt>
      <trkpt lat="42.146275" lon="2.762849">
        <ele>230.40500</ele>
        <time>2021-07-02T06:57:33Z</time>
      </trkpt>
      <trkpt lat="42.146526" lon="2.762823">
        <ele>230.06393</ele>
        <time>2021-07-02T06:57:34Z</time>
      </trkpt>
      <trkpt lat="42.146786" lon="2.762797">
        <ele>229.92880</ele>
        <time>2021-07-02T06:57:35Z</time>
      </trkpt>
      <trkpt lat="42.147045" lon="2.762772">
        <ele>229.52121</ele>
        <time>2021-07-02T06:57:36Z</time>
      </trkpt>
      <trkpt lat="42.147285" lon="2.762748">
        <ele>229.26120</ele>
        <time>2021-07-02T06:57:37Z</time>
      </trkpt>
      <trkpt lat="42.147533" lon="2.762723">
        <ele>229.38431</ele>
        <time>2021-07-02T06:57:38Z</time>
      </trkpt>
      <trkpt lat="42.147793" lon="2.762697">
        <ele>229.43674</ele>
        <time>2021-07-02T06:57:39Z</time>
      </trkpt>
      <trkpt lat="42.148052" lon="2.762669">
        <ele>229.64059</ele>
        <time>2021-07-02T06:57:40Z</time>
      </trkpt>
      <trkpt lat="42.148319" lon="2.762642">
        <ele>229.88370</ele>
        <time>2021-07-02T06:57:41Z</time>
      </trkpt>
      <trkpt lat="42.148590" lon="2.762614">
        <ele>229.83383</ele>
        <time>2021-07-02T06:57:42Z</time>
      </trkpt>
      <trkpt lat="42.148846" lon="2.762577">
        <ele>230.07590</ele>
        <time>2021-07-02T06:57:43Z</time>
      </trkpt>
      <trkpt lat="42.149078" lon="2.762543">
        <ele>230.47470</ele>
        <time>2021-07-02T06:57:44Z</time>
      </trkpt>
      <trkpt lat="42.149078" lon="2.762543">
        <ele>230.17972</ele>
        <time>2021-07-02T06:57:45Z</time>
      </trkpt>
      <trkpt lat="42.149315" lon="2.762484">
        <ele>229.82224</ele>
        <time>2021-07-02T06:57:46Z</time>
      </trkpt>
      <trkpt lat="42.149548" lon="2.762419">
        <ele>229.52713</ele>
        <time>2021-07-02T06:57:47Z</time>
      </trkpt>
      <trkpt lat="42.149780" lon="2.762328">
        <ele>229.77853</ele>
        <time>2021-07-02T06:57:48Z</time>
      </trkpt>
      <trkpt lat="42.150024" lon="2.762221">
        <ele>230.20163</ele>
        <time>2021-07-02T06:57:49Z</time>
      </trkpt>
      <trkpt lat="42.150253" lon="2.762095">
        <ele>228.77914</ele>
        <time>2021-07-02T06:57:50Z</time>
      </trkpt>
      <trkpt lat="42.150475" lon="2.761960">
        <ele>228.04721</ele>
        <time>2021-07-02T06:57:51Z</time>
      </trkpt>
      <trkpt lat="42.150703" lon="2.761803">
        <ele>228.25327</ele>
        <time>2021-07-02T06:57:52Z</time>
      </trkpt>
      <trkpt lat="42.150906" lon="2.761634">
        <ele>228.30124</ele>
        <time>2021-07-02T06:57:53Z</time>
      </trkpt>
      <trkpt lat="42.151115" lon="2.761431">
        <ele>228.00754</ele>
        <time>2021-07-02T06:57:54Z</time>
      </trkpt>
      <trkpt lat="42.151321" lon="2.761228">
        <ele>228.20981</ele>
        <time>2021-07-02T06:57:55Z</time>
      </trkpt>
      <trkpt lat="42.151501" lon="2.761010">
        <ele>228.67770</ele>
        <time>2021-07-02T06:57:56Z</time>
      </trkpt>
      <trkpt lat="42.151676" lon="2.760794">
        <ele>230.03098</ele>
        <time>2021-07-02T06:57:57Z</time>
      </trkpt>
      <trkpt lat="42.151840" lon="2.760552">
        <ele>230.11667</ele>
        <time>2021-07-02T06:57:58Z</time>
      </trkpt>
      <trkpt lat="42.151993" lon="2.760315">
        <ele>228.10153</ele>
        <time>2021-07-02T06:57:59Z</time>
      </trkpt>
      <trkpt lat="42.152134" lon="2.760057">
        <ele>228.14481</ele>
        <time>2021-07-02T06:58:00Z</time>
      </trkpt>
      <trkpt lat="42.152271" lon="2.759794">
        <ele>229.83847</ele>
        <time>2021-07-02T06:58:01Z</time>
      </trkpt>
      <trkpt lat="42.152393" lon="2.759514">
        <ele>229.84714</ele>
        <time>2021-07-02T06:58:02Z</time>
      </trkpt>
      <trkpt lat="42.152515" lon="2.759213">
        <ele>229.85825</ele>
        <time>2021-07-02T06:58:03Z</time>
      </trkpt>
      <trkpt lat="42.152611" lon="2.758927">
        <ele>229.64084</ele>
        <time>2021-07-02T06:58:04Z</time>
      </trkpt>
      <trkpt lat="42.152695" lon="2.758632">
        <ele>231.22806</ele>
        <time>2021-07-02T06:58:05Z</time>
      </trkpt>
      <trkpt lat="42.152779" lon="2.758315">
        <ele>231.32242</ele>
        <time>2021-07-02T06:58:06Z</time>
      </trkpt>
      <trkpt lat="42.152843" lon="2.758028">
        <ele>230.86557</ele>
        <time>2021-07-02T06:58:07Z</time>
      </trkpt>
      <trkpt lat="42.152916" lon="2.757692">
        <ele>231.94577</ele>
        <time>2021-07-02T06:58:08Z</time>
      </trkpt>
      <trkpt lat="42.152981" lon="2.757378">
        <ele>231.47244</ele>
        <time>2021-07-02T06:58:09Z</time>
      </trkpt>
      <trkpt lat="42.153042" lon="2.757054">
        <ele>231.33054</ele>
        <time>2021-07-02T06:58:10Z</time>
      </trkpt>
      <trkpt lat="42.153103" lon="2.756737">
        <ele>230.94754</ele>
        <time>2021-07-02T06:58:11Z</time>
      </trkpt>
      <trkpt lat="42.153164" lon="2.756413">
        <ele>230.53116</ele>
        <time>2021-07-02T06:58:12Z</time>
      </trkpt>
      <trkpt lat="42.153229" lon="2.756071">
        <ele>230.81534</ele>
        <time>2021-07-02T06:58:13Z</time>
      </trkpt>
      <trkpt lat="42.153229" lon="2.756071">
        <ele>231.01865</ele>
        <time>2021-07-02T06:58:14Z</time>
      </trkpt>
      <trkpt lat="42.153294" lon="2.755732">
        <ele>230.53305</ele>
        <time>2021-07-02T06:58:15Z</time>
      </trkpt>
      <trkpt lat="42.153362" lon="2.755381">
        <ele>230.05978</ele>
        <time>2021-07-02T06:58:16Z</time>
      </trkpt>
      <trkpt lat="42.153427" lon="2.755043">
        <ele>229.80875</ele>
        <time>2021-07-02T06:58:17Z</time>
      </trkpt>
      <trkpt lat="42.153492" lon="2.754705">
        <ele>228.17734</ele>
        <time>2021-07-02T06:58:18Z</time>
      </trkpt>
      <trkpt lat="42.153557" lon="2.754364">
        <ele>227.45761</ele>
        <time>2021-07-02T06:58:19Z</time>
      </trkpt>
      <trkpt lat="42.153618" lon="2.754041">
        <ele>228.24545</ele>
        <time>2021-07-02T06:58:20Z</time>
      </trkpt>
      <trkpt lat="42.153683" lon="2.753720">
        <ele>227.89291</ele>
        <time>2021-07-02T06:58:21Z</time>
      </trkpt>
      <trkpt lat="42.153740" lon="2.753407">
        <ele>227.85690</ele>
        <time>2021-07-02T06:58:22Z</time>
      </trkpt>
      <trkpt lat="42.153801" lon="2.753106">
        <ele>226.87784</ele>
        <time>2021-07-02T06:58:23Z</time>
      </trkpt>
      <trkpt lat="42.153866" lon="2.752802">
        <ele>226.68539</ele>
        <time>2021-07-02T06:58:24Z</time>
      </trkpt>
      <trkpt lat="42.153927" lon="2.752498">
        <ele>226.14890</ele>
        <time>2021-07-02T06:58:25Z</time>
      </trkpt>
      <trkpt lat="42.153996" lon="2.752185">
        <ele>225.39291</ele>
        <time>2021-07-02T06:58:26Z</time>
      </trkpt>
      <trkpt lat="42.154083" lon="2.751869">
        <ele>225.11887</ele>
        <time>2021-07-02T06:58:27Z</time>
      </trkpt>
      <trkpt lat="42.154137" lon="2.751670">
        <ele>225.04239</ele>
        <time>2021-07-02T06:58:28Z</time>
      </trkpt>
      <trkpt lat="42.154137" lon="2.751670">
        <ele>224.83670</ele>
        <time>2021-07-02T06:58:29Z</time>
      </trkpt>
      <trkpt lat="42.154324" lon="2.751130">
        <ele>225.19455</ele>
        <time>2021-07-02T06:58:30Z</time>
      </trkpt>
      <trkpt lat="42.154480" lon="2.750736">
        <ele>222.53091</ele>
        <time>2021-07-02T06:58:31Z</time>
      </trkpt>
      <trkpt lat="42.154644" lon="2.750425">
        <ele>221.38608</ele>
        <time>2021-07-02T06:58:32Z</time>
      </trkpt>
      <trkpt lat="42.154789" lon="2.750167">
        <ele>220.55368</ele>
        <time>2021-07-02T06:58:33Z</time>
      </trkpt>
      <trkpt lat="42.154934" lon="2.749915">
        <ele>220.80582</ele>
        <time>2021-07-02T06:58:34Z</time>
      </trkpt>
      <trkpt lat="42.155067" lon="2.749701">
        <ele>219.67868</ele>
        <time>2021-07-02T06:58:35Z</time>
      </trkpt>
      <trkpt lat="42.155209" lon="2.749490">
        <ele>218.14560</ele>
        <time>2021-07-02T06:58:36Z</time>
      </trkpt>
      <trkpt lat="42.155342" lon="2.749294">
        <ele>216.92368</ele>
        <time>2021-07-02T06:58:37Z</time>
      </trkpt>
      <trkpt lat="42.155445" lon="2.749140">
        <ele>216.75455</ele>
        <time>2021-07-02T06:58:38Z</time>
      </trkpt>
      <trkpt lat="42.155567" lon="2.748971">
        <ele>215.67697</ele>
        <time>2021-07-02T06:58:39Z</time>
      </trkpt>
      <trkpt lat="42.155567" lon="2.748971">
        <ele>216.08066</ele>
        <time>2021-07-02T06:58:40Z</time>
      </trkpt>
      <trkpt lat="42.155674" lon="2.748859">
        <ele>215.61325</ele>
        <time>2021-07-02T06:58:41Z</time>
      </trkpt>
      <trkpt lat="42.155743" lon="2.748805">
        <ele>216.68851</ele>
        <time>2021-07-02T06:58:42Z</time>
      </trkpt>
      <trkpt lat="42.155815" lon="2.748758">
        <ele>216.60251</ele>
        <time>2021-07-02T06:58:43Z</time>
      </trkpt>
      <trkpt lat="42.155891" lon="2.748750">
        <ele>216.33676</ele>
        <time>2021-07-02T06:58:44Z</time>
      </trkpt>
      <trkpt lat="42.155975" lon="2.748753">
        <ele>215.79391</ele>
        <time>2021-07-02T06:58:45Z</time>
      </trkpt>
      <trkpt lat="42.156059" lon="2.748711">
        <ele>215.32065</ele>
        <time>2021-07-02T06:58:46Z</time>
      </trkpt>
      <trkpt lat="42.156147" lon="2.748586">
        <ele>214.76743</ele>
        <time>2021-07-02T06:58:47Z</time>
      </trkpt>
      <trkpt lat="42.156174" lon="2.748441">
        <ele>215.48373</ele>
        <time>2021-07-02T06:58:48Z</time>
      </trkpt>
      <trkpt lat="42.156158" lon="2.748337">
        <ele>215.50613</ele>
        <time>2021-07-02T06:58:49Z</time>
      </trkpt>
      <trkpt lat="42.156178" lon="2.748211">
        <ele>215.11191</ele>
        <time>2021-07-02T06:58:50Z</time>
      </trkpt>
      <trkpt lat="42.156227" lon="2.748054">
        <ele>215.01065</ele>
        <time>2021-07-02T06:58:51Z</time>
      </trkpt>
      <trkpt lat="42.156307" lon="2.747902">
        <ele>215.00742</ele>
        <time>2021-07-02T06:58:52Z</time>
      </trkpt>
      <trkpt lat="42.156395" lon="2.747778">
        <ele>215.26712</ele>
        <time>2021-07-02T06:58:53Z</time>
      </trkpt>
      <trkpt lat="42.156483" lon="2.747653">
        <ele>214.80624</ele>
        <time>2021-07-02T06:58:54Z</time>
      </trkpt>
      <trkpt lat="42.156582" lon="2.747512">
        <ele>214.65872</ele>
        <time>2021-07-02T06:58:55Z</time>
      </trkpt>
      <trkpt lat="42.156693" lon="2.747359">
        <ele>214.38742</ele>
        <time>2021-07-02T06:58:56Z</time>
      </trkpt>
      <trkpt lat="42.156803" lon="2.747196">
        <ele>214.15463</ele>
        <time>2021-07-02T06:58:57Z</time>
      </trkpt>
      <trkpt lat="42.156925" lon="2.747025">
        <ele>214.27951</ele>
        <time>2021-07-02T06:58:58Z</time>
      </trkpt>
      <trkpt lat="42.157043" lon="2.746850">
        <ele>213.68161</ele>
        <time>2021-07-02T06:58:59Z</time>
      </trkpt>
      <trkpt lat="42.157150" lon="2.746682">
        <ele>213.83157</ele>
        <time>2021-07-02T06:59:00Z</time>
      </trkpt>
      <trkpt lat="42.157257" lon="2.746531">
        <ele>213.86575</ele>
        <time>2021-07-02T06:59:01Z</time>
      </trkpt>
      <trkpt lat="42.157360" lon="2.746383">
        <ele>213.04208</ele>
        <time>2021-07-02T06:59:02Z</time>
      </trkpt>
      <trkpt lat="42.157486" lon="2.746211">
        <ele>211.42734</ele>
        <time>2021-07-02T06:59:03Z</time>
      </trkpt>
      <trkpt lat="42.157631" lon="2.746024">
        <ele>210.92160</ele>
        <time>2021-07-02T06:59:04Z</time>
      </trkpt>
      <trkpt lat="42.157776" lon="2.745862">
        <ele>209.40891</ele>
        <time>2021-07-02T06:59:05Z</time>
      </trkpt>
      <trkpt lat="42.157932" lon="2.745706">
        <ele>209.19272</ele>
        <time>2021-07-02T06:59:06Z</time>
      </trkpt>
      <trkpt lat="42.158108" lon="2.745563">
        <ele>207.65244</ele>
        <time>2021-07-02T06:59:07Z</time>
      </trkpt>
      <trkpt lat="42.158272" lon="2.745473">
        <ele>207.48349</ele>
        <time>2021-07-02T06:59:08Z</time>
      </trkpt>
      <trkpt lat="42.158424" lon="2.745409">
        <ele>205.73691</ele>
        <time>2021-07-02T06:59:09Z</time>
      </trkpt>
      <trkpt lat="42.158424" lon="2.745409">
        <ele>205.56833</ele>
        <time>2021-07-02T06:59:10Z</time>
      </trkpt>
      <trkpt lat="42.158569" lon="2.745374">
        <ele>205.06912</ele>
        <time>2021-07-02T06:59:11Z</time>
      </trkpt>
      <trkpt lat="42.158718" lon="2.745345">
        <ele>203.22238</ele>
        <time>2021-07-02T06:59:12Z</time>
      </trkpt>
      <trkpt lat="42.158894" lon="2.745333">
        <ele>202.45139</ele>
        <time>2021-07-02T06:59:13Z</time>
      </trkpt>
      <trkpt lat="42.159061" lon="2.745340">
        <ele>202.64096</ele>
        <time>2021-07-02T06:59:14Z</time>
      </trkpt>
      <trkpt lat="42.159241" lon="2.745360">
        <ele>202.96109</ele>
        <time>2021-07-02T06:59:15Z</time>
      </trkpt>
      <trkpt lat="42.159412" lon="2.745380">
        <ele>202.81717</ele>
        <time>2021-07-02T06:59:16Z</time>
      </trkpt>
      <trkpt lat="42.159573" lon="2.745411">
        <ele>201.91855</ele>
        <time>2021-07-02T06:59:17Z</time>
      </trkpt>
      <trkpt lat="42.159733" lon="2.745443">
        <ele>202.31406</ele>
        <time>2021-07-02T06:59:18Z</time>
      </trkpt>
      <trkpt lat="42.159885" lon="2.745473">
        <ele>202.36295</ele>
        <time>2021-07-02T06:59:19Z</time>
      </trkpt>
      <trkpt lat="42.160042" lon="2.745503">
        <ele>202.30515</ele>
        <time>2021-07-02T06:59:20Z</time>
      </trkpt>
      <trkpt lat="42.160202" lon="2.745534">
        <ele>203.10757</ele>
        <time>2021-07-02T06:59:21Z</time>
      </trkpt>
      <trkpt lat="42.160355" lon="2.745564">
        <ele>203.22775</ele>
        <time>2021-07-02T06:59:22Z</time>
      </trkpt>
      <trkpt lat="42.160503" lon="2.745593">
        <ele>203.39120</ele>
        <time>2021-07-02T06:59:23Z</time>
      </trkpt>
      <trkpt lat="42.160683" lon="2.745627">
        <ele>203.17184</ele>
        <time>2021-07-02T06:59:24Z</time>
      </trkpt>
      <trkpt lat="42.160828" lon="2.745656">
        <ele>202.64230</ele>
        <time>2021-07-02T06:59:25Z</time>
      </trkpt>
      <trkpt lat="42.160973" lon="2.745684">
        <ele>201.82224</ele>
        <time>2021-07-02T06:59:26Z</time>
      </trkpt>
      <trkpt lat="42.161110" lon="2.745709">
        <ele>201.78751</ele>
        <time>2021-07-02T06:59:27Z</time>
      </trkpt>
      <trkpt lat="42.161251" lon="2.745736">
        <ele>201.55209</ele>
        <time>2021-07-02T06:59:28Z</time>
      </trkpt>
      <trkpt lat="42.161404" lon="2.745765">
        <ele>201.54623</ele>
        <time>2021-07-02T06:59:29Z</time>
      </trkpt>
      <trkpt lat="42.161568" lon="2.745794">
        <ele>201.51974</ele>
        <time>2021-07-02T06:59:30Z</time>
      </trkpt>
      <trkpt lat="42.161709" lon="2.745819">
        <ele>201.76395</ele>
        <time>2021-07-02T06:59:31Z</time>
      </trkpt>
      <trkpt lat="42.161873" lon="2.745847">
        <ele>201.38852</ele>
        <time>2021-07-02T06:59:32Z</time>
      </trkpt>
      <trkpt lat="42.162041" lon="2.745860">
        <ele>201.39066</ele>
        <time>2021-07-02T06:59:33Z</time>
      </trkpt>
      <trkpt lat="42.162205" lon="2.745873">
        <ele>201.46457</ele>
        <time>2021-07-02T06:59:34Z</time>
      </trkpt>
      <trkpt lat="42.162361" lon="2.745883">
        <ele>197.54977</ele>
        <time>2021-07-02T06:59:35Z</time>
      </trkpt>
      <trkpt lat="42.162529" lon="2.745870">
        <ele>198.68613</ele>
        <time>2021-07-02T06:59:36Z</time>
      </trkpt>
      <trkpt lat="42.162643" lon="2.745859">
        <ele>199.00388</ele>
        <time>2021-07-02T06:59:37Z</time>
      </trkpt>
      <trkpt lat="42.162811" lon="2.745829">
        <ele>200.20163</ele>
        <time>2021-07-02T06:59:38Z</time>
      </trkpt>
      <trkpt lat="42.162960" lon="2.745800">
        <ele>199.32309</ele>
        <time>2021-07-02T06:59:39Z</time>
      </trkpt>
      <trkpt lat="42.163097" lon="2.745763">
        <ele>198.39883</ele>
        <time>2021-07-02T06:59:40Z</time>
      </trkpt>
      <trkpt lat="42.163227" lon="2.745720">
        <ele>199.68655</ele>
        <time>2021-07-02T06:59:41Z</time>
      </trkpt>
      <trkpt lat="42.163227" lon="2.745720">
        <ele>200.08237</ele>
        <time>2021-07-02T06:59:42Z</time>
      </trkpt>
      <trkpt lat="42.163349" lon="2.745680">
        <ele>198.95773</ele>
        <time>2021-07-02T06:59:43Z</time>
      </trkpt>
      <trkpt lat="42.163464" lon="2.745632">
        <ele>198.92368</ele>
        <time>2021-07-02T06:59:44Z</time>
      </trkpt>
      <trkpt lat="42.163578" lon="2.745581">
        <ele>200.34348</ele>
        <time>2021-07-02T06:59:45Z</time>
      </trkpt>
      <trkpt lat="42.163689" lon="2.745532">
        <ele>199.07309</ele>
        <time>2021-07-02T06:59:46Z</time>
      </trkpt>
      <trkpt lat="42.163795" lon="2.745485">
        <ele>197.01926</ele>
        <time>2021-07-02T06:59:47Z</time>
      </trkpt>
      <trkpt lat="42.163902" lon="2.745433">
        <ele>196.92575</ele>
        <time>2021-07-02T06:59:48Z</time>
      </trkpt>
      <trkpt lat="42.164009" lon="2.745377">
        <ele>197.31320</ele>
        <time>2021-07-02T06:59:49Z</time>
      </trkpt>
      <trkpt lat="42.164169" lon="2.745298">
        <ele>195.95279</ele>
        <time>2021-07-02T06:59:50Z</time>
      </trkpt>
      <trkpt lat="42.164333" lon="2.745214">
        <ele>196.13870</ele>
        <time>2021-07-02T06:59:51Z</time>
      </trkpt>
      <trkpt lat="42.164333" lon="2.745214">
        <ele>194.89981</ele>
        <time>2021-07-02T06:59:52Z</time>
      </trkpt>
      <trkpt lat="42.164585" lon="2.745106">
        <ele>193.70853</ele>
        <time>2021-07-02T06:59:53Z</time>
      </trkpt>
      <trkpt lat="42.164841" lon="2.744975">
        <ele>194.33487</ele>
        <time>2021-07-02T06:59:54Z</time>
      </trkpt>
      <trkpt lat="42.164993" lon="2.744896">
        <ele>194.37979</ele>
        <time>2021-07-02T06:59:55Z</time>
      </trkpt>
      <trkpt lat="42.165157" lon="2.744816">
        <ele>193.61972</ele>
        <time>2021-07-02T06:59:56Z</time>
      </trkpt>
      <trkpt lat="42.165310" lon="2.744744">
        <ele>193.03635</ele>
        <time>2021-07-02T06:59:57Z</time>
      </trkpt>
      <trkpt lat="42.165459" lon="2.744671">
        <ele>192.90854</ele>
        <time>2021-07-02T06:59:58Z</time>
      </trkpt>
      <trkpt lat="42.165604" lon="2.744599">
        <ele>193.25894</ele>
        <time>2021-07-02T06:59:59Z</time>
      </trkpt>
      <trkpt lat="42.165752" lon="2.744520">
        <ele>192.35349</ele>
        <time>2021-07-02T07:00:00Z</time>
      </trkpt>
      <trkpt lat="42.165886" lon="2.744425">
        <ele>192.21909</ele>
        <time>2021-07-02T07:00:01Z</time>
      </trkpt>
      <trkpt lat="42.166016" lon="2.744362">
        <ele>191.92789</ele>
        <time>2021-07-02T07:00:02Z</time>
      </trkpt>
      <trkpt lat="42.166164" lon="2.744289">
        <ele>191.86313</ele>
        <time>2021-07-02T07:00:03Z</time>
      </trkpt>
      <trkpt lat="42.166290" lon="2.744225">
        <ele>192.38791</ele>
        <time>2021-07-02T07:00:04Z</time>
      </trkpt>
      <trkpt lat="42.166428" lon="2.744154">
        <ele>193.38437</ele>
        <time>2021-07-02T07:00:05Z</time>
      </trkpt>
      <trkpt lat="42.166550" lon="2.744082">
        <ele>192.89597</ele>
        <time>2021-07-02T07:00:06Z</time>
      </trkpt>
      <trkpt lat="42.166641" lon="2.744019">
        <ele>193.72031</ele>
        <time>2021-07-02T07:00:07Z</time>
      </trkpt>
      <trkpt lat="42.166710" lon="2.743971">
        <ele>193.72495</ele>
        <time>2021-07-02T07:00:08Z</time>
      </trkpt>
      <trkpt lat="42.166798" lon="2.743903">
        <ele>193.36313</ele>
        <time>2021-07-02T07:00:09Z</time>
      </trkpt>
      <trkpt lat="42.166889" lon="2.743844">
        <ele>193.95413</ele>
        <time>2021-07-02T07:00:10Z</time>
      </trkpt>
      <trkpt lat="42.166962" lon="2.743804">
        <ele>194.03561</ele>
        <time>2021-07-02T07:00:11Z</time>
      </trkpt>
      <trkpt lat="42.167049" lon="2.743768">
        <ele>194.53421</ele>
        <time>2021-07-02T07:00:12Z</time>
      </trkpt>
      <trkpt lat="42.167133" lon="2.743765">
        <ele>194.89389</ele>
        <time>2021-07-02T07:00:13Z</time>
      </trkpt>
      <trkpt lat="42.167133" lon="2.743765">
        <ele>194.35666</ele>
        <time>2021-07-02T07:00:14Z</time>
      </trkpt>
      <trkpt lat="42.167133" lon="2.743765">
        <ele>193.85349</ele>
        <time>2021-07-02T07:00:15Z</time>
      </trkpt>
      <trkpt lat="42.167316" lon="2.743533">
        <ele>194.37302</ele>
        <time>2021-07-02T07:00:16Z</time>
      </trkpt>
      <trkpt lat="42.167412" lon="2.743434">
        <ele>194.89493</ele>
        <time>2021-07-02T07:00:17Z</time>
      </trkpt>
      <trkpt lat="42.167503" lon="2.743339">
        <ele>195.57791</ele>
        <time>2021-07-02T07:00:18Z</time>
      </trkpt>
      <trkpt lat="42.167603" lon="2.743232">
        <ele>194.88144</ele>
        <time>2021-07-02T07:00:19Z</time>
      </trkpt>
      <trkpt lat="42.167713" lon="2.743098">
        <ele>194.68906</ele>
        <time>2021-07-02T07:00:20Z</time>
      </trkpt>
      <trkpt lat="42.167820" lon="2.742972">
        <ele>194.19772</ele>
        <time>2021-07-02T07:00:21Z</time>
      </trkpt>
      <trkpt lat="42.167912" lon="2.742813">
        <ele>193.48972</ele>
        <time>2021-07-02T07:00:22Z</time>
      </trkpt>
      <trkpt lat="42.168041" lon="2.742655">
        <ele>192.91806</ele>
        <time>2021-07-02T07:00:23Z</time>
      </trkpt>
      <trkpt lat="42.168171" lon="2.742501">
        <ele>192.85764</ele>
        <time>2021-07-02T07:00:24Z</time>
      </trkpt>
      <trkpt lat="42.168285" lon="2.742365">
        <ele>192.59647</ele>
        <time>2021-07-02T07:00:25Z</time>
      </trkpt>
      <trkpt lat="42.168438" lon="2.742185">
        <ele>193.31241</ele>
        <time>2021-07-02T07:00:26Z</time>
      </trkpt>
      <trkpt lat="42.168587" lon="2.742008">
        <ele>192.96713</ele>
        <time>2021-07-02T07:00:27Z</time>
      </trkpt>
      <trkpt lat="42.168736" lon="2.741826">
        <ele>192.53885</ele>
        <time>2021-07-02T07:00:28Z</time>
      </trkpt>
      <trkpt lat="42.168873" lon="2.741664">
        <ele>191.55814</ele>
        <time>2021-07-02T07:00:29Z</time>
      </trkpt>
      <trkpt lat="42.169037" lon="2.741463">
        <ele>189.64804</ele>
        <time>2021-07-02T07:00:30Z</time>
      </trkpt>
      <trkpt lat="42.169189" lon="2.741279">
        <ele>188.31210</ele>
        <time>2021-07-02T07:00:31Z</time>
      </trkpt>
      <trkpt lat="42.169350" lon="2.741083">
        <ele>187.14853</ele>
        <time>2021-07-02T07:00:32Z</time>
      </trkpt>
      <trkpt lat="42.169495" lon="2.740909">
        <ele>185.68039</ele>
        <time>2021-07-02T07:00:33Z</time>
      </trkpt>
      <trkpt lat="42.169613" lon="2.740849">
        <ele>185.09250</ele>
        <time>2021-07-02T07:00:34Z</time>
      </trkpt>
      <trkpt lat="42.169857" lon="2.740473">
        <ele>184.64938</ele>
        <time>2021-07-02T07:00:35Z</time>
      </trkpt>
      <trkpt lat="42.170029" lon="2.740274">
        <ele>185.82040</ele>
        <time>2021-07-02T07:00:36Z</time>
      </trkpt>
      <trkpt lat="42.170029" lon="2.740274">
        <ele>183.41153</ele>
        <time>2021-07-02T07:00:37Z</time>
      </trkpt>
      <trkpt lat="42.170219" lon="2.740072">
        <ele>183.60379</ele>
        <time>2021-07-02T07:00:38Z</time>
      </trkpt>
      <trkpt lat="42.170418" lon="2.739862">
        <ele>183.03439</ele>
        <time>2021-07-02T07:00:39Z</time>
      </trkpt>
      <trkpt lat="42.170609" lon="2.739680">
        <ele>181.78159</ele>
        <time>2021-07-02T07:00:40Z</time>
      </trkpt>
      <trkpt lat="42.170780" lon="2.739527">
        <ele>179.61508</ele>
        <time>2021-07-02T07:00:41Z</time>
      </trkpt>
      <trkpt lat="42.170963" lon="2.739372">
        <ele>177.66238</ele>
        <time>2021-07-02T07:00:42Z</time>
      </trkpt>
      <trkpt lat="42.171158" lon="2.739218">
        <ele>176.01620</ele>
        <time>2021-07-02T07:00:43Z</time>
      </trkpt>
      <trkpt lat="42.171371" lon="2.739065">
        <ele>175.11276</ele>
        <time>2021-07-02T07:00:44Z</time>
      </trkpt>
      <trkpt lat="42.171570" lon="2.738926">
        <ele>173.03415</ele>
        <time>2021-07-02T07:00:45Z</time>
      </trkpt>
      <trkpt lat="42.171761" lon="2.738791">
        <ele>171.04532</ele>
        <time>2021-07-02T07:00:46Z</time>
      </trkpt>
      <trkpt lat="42.171951" lon="2.738678">
        <ele>169.80954</ele>
        <time>2021-07-02T07:00:47Z</time>
      </trkpt>
      <trkpt lat="42.172169" lon="2.738559">
        <ele>169.45230</ele>
        <time>2021-07-02T07:00:48Z</time>
      </trkpt>
      <trkpt lat="42.172398" lon="2.738433">
        <ele>167.62949</ele>
        <time>2021-07-02T07:00:49Z</time>
      </trkpt>
      <trkpt lat="42.172619" lon="2.738314">
        <ele>165.45755</ele>
        <time>2021-07-02T07:00:50Z</time>
      </trkpt>
      <trkpt lat="42.172829" lon="2.738207">
        <ele>164.19174</ele>
        <time>2021-07-02T07:00:51Z</time>
      </trkpt>
      <trkpt lat="42.173038" lon="2.738101">
        <ele>162.90750</ele>
        <time>2021-07-02T07:00:52Z</time>
      </trkpt>
      <trkpt lat="42.173248" lon="2.737993">
        <ele>160.99081</ele>
        <time>2021-07-02T07:00:53Z</time>
      </trkpt>
      <trkpt lat="42.173462" lon="2.737883">
        <ele>160.22470</ele>
        <time>2021-07-02T07:00:54Z</time>
      </trkpt>
      <trkpt lat="42.173656" lon="2.737784">
        <ele>158.65891</ele>
        <time>2021-07-02T07:00:55Z</time>
      </trkpt>
      <trkpt lat="42.173851" lon="2.737698">
        <ele>156.83127</ele>
        <time>2021-07-02T07:00:56Z</time>
      </trkpt>
      <trkpt lat="42.174046" lon="2.737626">
        <ele>155.42886</ele>
        <time>2021-07-02T07:00:57Z</time>
      </trkpt>
      <trkpt lat="42.174229" lon="2.737565">
        <ele>154.71555</ele>
        <time>2021-07-02T07:00:58Z</time>
      </trkpt>
      <trkpt lat="42.174427" lon="2.737531">
        <ele>153.28317</ele>
        <time>2021-07-02T07:00:59Z</time>
      </trkpt>
      <trkpt lat="42.174625" lon="2.737514">
        <ele>151.93436</ele>
        <time>2021-07-02T07:01:00Z</time>
      </trkpt>
      <trkpt lat="42.174805" lon="2.737533">
        <ele>151.17856</ele>
        <time>2021-07-02T07:01:01Z</time>
      </trkpt>
      <trkpt lat="42.174984" lon="2.737574">
        <ele>146.10864</ele>
        <time>2021-07-02T07:01:02Z</time>
      </trkpt>
      <trkpt lat="42.175163" lon="2.737635">
        <ele>145.31664</ele>
        <time>2021-07-02T07:01:03Z</time>
      </trkpt>
      <trkpt lat="42.175316" lon="2.737696">
        <ele>144.87877</ele>
        <time>2021-07-02T07:01:04Z</time>
      </trkpt>
      <trkpt lat="42.175476" lon="2.737790">
        <ele>145.85251</ele>
        <time>2021-07-02T07:01:05Z</time>
      </trkpt>
      <trkpt lat="42.175476" lon="2.737790">
        <ele>144.89474</ele>
        <time>2021-07-02T07:01:06Z</time>
      </trkpt>
      <trkpt lat="42.175629" lon="2.737926">
        <ele>144.43491</ele>
        <time>2021-07-02T07:01:07Z</time>
      </trkpt>
      <trkpt lat="42.175781" lon="2.738080">
        <ele>143.41953</ele>
        <time>2021-07-02T07:01:08Z</time>
      </trkpt>
      <trkpt lat="42.175922" lon="2.738251">
        <ele>143.62540</ele>
        <time>2021-07-02T07:01:09Z</time>
      </trkpt>
      <trkpt lat="42.176052" lon="2.738447">
        <ele>142.98007</ele>
        <time>2021-07-02T07:01:10Z</time>
      </trkpt>
      <trkpt lat="42.176167" lon="2.738683">
        <ele>143.19150</ele>
        <time>2021-07-02T07:01:11Z</time>
      </trkpt>
      <trkpt lat="42.176273" lon="2.738915">
        <ele>142.73184</ele>
        <time>2021-07-02T07:01:12Z</time>
      </trkpt>
      <trkpt lat="42.176369" lon="2.739167">
        <ele>143.09128</ele>
        <time>2021-07-02T07:01:13Z</time>
      </trkpt>
      <trkpt lat="42.176456" lon="2.739402">
        <ele>142.30777</ele>
        <time>2021-07-02T07:01:14Z</time>
      </trkpt>
      <trkpt lat="42.176540" lon="2.739638">
        <ele>142.22971</ele>
        <time>2021-07-02T07:01:15Z</time>
      </trkpt>
      <trkpt lat="42.176628" lon="2.739887">
        <ele>139.35748</ele>
        <time>2021-07-02T07:01:16Z</time>
      </trkpt>
      <trkpt lat="42.176708" lon="2.740110">
        <ele>139.23470</ele>
        <time>2021-07-02T07:01:17Z</time>
      </trkpt>
      <trkpt lat="42.176785" lon="2.740315">
        <ele>140.62300</ele>
        <time>2021-07-02T07:01:18Z</time>
      </trkpt>
      <trkpt lat="42.176861" lon="2.740530">
        <ele>141.09283</ele>
        <time>2021-07-02T07:01:19Z</time>
      </trkpt>
      <trkpt lat="42.176937" lon="2.740739">
        <ele>141.69598</ele>
        <time>2021-07-02T07:01:20Z</time>
      </trkpt>
      <trkpt lat="42.177010" lon="2.740937">
        <ele>141.74098</ele>
        <time>2021-07-02T07:01:21Z</time>
      </trkpt>
      <trkpt lat="42.177094" lon="2.741137">
        <ele>142.68211</ele>
        <time>2021-07-02T07:01:22Z</time>
      </trkpt>
      <trkpt lat="42.177174" lon="2.741321">
        <ele>143.46231</ele>
        <time>2021-07-02T07:01:23Z</time>
      </trkpt>
      <trkpt lat="42.177258" lon="2.741508">
        <ele>144.43845</ele>
        <time>2021-07-02T07:01:24Z</time>
      </trkpt>
      <trkpt lat="42.177341" lon="2.741688">
        <ele>144.72456</ele>
        <time>2021-07-02T07:01:25Z</time>
      </trkpt>
      <trkpt lat="42.177441" lon="2.741857">
        <ele>146.94249</ele>
        <time>2021-07-02T07:01:26Z</time>
      </trkpt>
      <trkpt lat="42.177544" lon="2.742035">
        <ele>147.34331</ele>
        <time>2021-07-02T07:01:27Z</time>
      </trkpt>
      <trkpt lat="42.177670" lon="2.742227">
        <ele>147.79843</ele>
        <time>2021-07-02T07:01:28Z</time>
      </trkpt>
      <trkpt lat="42.177776" lon="2.742384">
        <ele>149.43436</ele>
        <time>2021-07-02T07:01:29Z</time>
      </trkpt>
      <trkpt lat="42.177887" lon="2.742552">
        <ele>149.87711</ele>
        <time>2021-07-02T07:01:30Z</time>
      </trkpt>
      <trkpt lat="42.177998" lon="2.742714">
        <ele>150.35072</ele>
        <time>2021-07-02T07:01:31Z</time>
      </trkpt>
      <trkpt lat="42.178112" lon="2.742879">
        <ele>151.08585</ele>
        <time>2021-07-02T07:01:32Z</time>
      </trkpt>
      <trkpt lat="42.178223" lon="2.743040">
        <ele>152.16791</ele>
        <time>2021-07-02T07:01:33Z</time>
      </trkpt>
      <trkpt lat="42.178329" lon="2.743195">
        <ele>153.13602</ele>
        <time>2021-07-02T07:01:34Z</time>
      </trkpt>
      <trkpt lat="42.178329" lon="2.743195">
        <ele>153.66751</ele>
        <time>2021-07-02T07:01:35Z</time>
      </trkpt>
      <trkpt lat="42.178440" lon="2.743348">
        <ele>155.38531</ele>
        <time>2021-07-02T07:01:36Z</time>
      </trkpt>
      <trkpt lat="42.178558" lon="2.743499">
        <ele>156.37714</ele>
        <time>2021-07-02T07:01:37Z</time>
      </trkpt>
      <trkpt lat="42.178684" lon="2.743638">
        <ele>157.42928</ele>
        <time>2021-07-02T07:01:38Z</time>
      </trkpt>
      <trkpt lat="42.178814" lon="2.743762">
        <ele>158.54745</ele>
        <time>2021-07-02T07:01:39Z</time>
      </trkpt>
      <trkpt lat="42.178944" lon="2.743880">
        <ele>159.64305</ele>
        <time>2021-07-02T07:01:40Z</time>
      </trkpt>
      <trkpt lat="42.179092" lon="2.743978">
        <ele>160.27351</ele>
        <time>2021-07-02T07:01:41Z</time>
      </trkpt>
      <trkpt lat="42.179230" lon="2.744058">
        <ele>161.72443</ele>
        <time>2021-07-02T07:01:42Z</time>
      </trkpt>
      <trkpt lat="42.179371" lon="2.744111">
        <ele>162.52060</ele>
        <time>2021-07-02T07:01:43Z</time>
      </trkpt>
      <trkpt lat="42.179539" lon="2.744155">
        <ele>163.41466</ele>
        <time>2021-07-02T07:01:44Z</time>
      </trkpt>
      <trkpt lat="42.179699" lon="2.744183">
        <ele>164.07201</ele>
        <time>2021-07-02T07:01:45Z</time>
      </trkpt>
      <trkpt lat="42.179859" lon="2.744193">
        <ele>165.05756</ele>
        <time>2021-07-02T07:01:46Z</time>
      </trkpt>
      <trkpt lat="42.180019" lon="2.744171">
        <ele>165.30461</ele>
        <time>2021-07-02T07:01:47Z</time>
      </trkpt>
      <trkpt lat="42.180172" lon="2.744134">
        <ele>165.76881</ele>
        <time>2021-07-02T07:01:48Z</time>
      </trkpt>
      <trkpt lat="42.180321" lon="2.744084">
        <ele>166.26872</ele>
        <time>2021-07-02T07:01:49Z</time>
      </trkpt>
      <trkpt lat="42.180454" lon="2.744023">
        <ele>166.27820</ele>
        <time>2021-07-02T07:01:50Z</time>
      </trkpt>
      <trkpt lat="42.180588" lon="2.743952">
        <ele>166.70341</ele>
        <time>2021-07-02T07:01:51Z</time>
      </trkpt>
      <trkpt lat="42.180725" lon="2.743860">
        <ele>167.09766</ele>
        <time>2021-07-02T07:01:52Z</time>
      </trkpt>
      <trkpt lat="42.180847" lon="2.743764">
        <ele>167.37294</ele>
        <time>2021-07-02T07:01:53Z</time>
      </trkpt>
      <trkpt lat="42.180977" lon="2.743639">
        <ele>167.69815</ele>
        <time>2021-07-02T07:01:54Z</time>
      </trkpt>
      <trkpt lat="42.181091" lon="2.743507">
        <ele>167.69125</ele>
        <time>2021-07-02T07:01:55Z</time>
      </trkpt>
      <trkpt lat="42.181194" lon="2.743367">
        <ele>167.47141</ele>
        <time>2021-07-02T07:01:56Z</time>
      </trkpt>
      <trkpt lat="42.181286" lon="2.743216">
        <ele>167.30510</ele>
        <time>2021-07-02T07:01:57Z</time>
      </trkpt>
      <trkpt lat="42.181358" lon="2.743061">
        <ele>167.00699</ele>
        <time>2021-07-02T07:01:58Z</time>
      </trkpt>
      <trkpt lat="42.181435" lon="2.742885">
        <ele>167.70856</ele>
        <time>2021-07-02T07:01:59Z</time>
      </trkpt>
      <trkpt lat="42.181507" lon="2.742678">
        <ele>167.58813</ele>
        <time>2021-07-02T07:02:00Z</time>
      </trkpt>
      <trkpt lat="42.181557" lon="2.742467">
        <ele>166.68863</ele>
        <time>2021-07-02T07:02:01Z</time>
      </trkpt>
      <trkpt lat="42.181599" lon="2.742269">
        <ele>166.39673</ele>
        <time>2021-07-02T07:02:02Z</time>
      </trkpt>
      <trkpt lat="42.181629" lon="2.742058">
        <ele>165.87743</ele>
        <time>2021-07-02T07:02:03Z</time>
      </trkpt>
      <trkpt lat="42.181656" lon="2.741838">
        <ele>165.40927</ele>
        <time>2021-07-02T07:02:04Z</time>
      </trkpt>
      <trkpt lat="42.181683" lon="2.741640">
        <ele>164.94617</ele>
        <time>2021-07-02T07:02:05Z</time>
      </trkpt>
      <trkpt lat="42.181694" lon="2.741458">
        <ele>163.77669</ele>
        <time>2021-07-02T07:02:06Z</time>
      </trkpt>
      <trkpt lat="42.181709" lon="2.741283">
        <ele>163.41823</ele>
        <time>2021-07-02T07:02:07Z</time>
      </trkpt>
      <trkpt lat="42.181709" lon="2.741283">
        <ele>163.08525</ele>
        <time>2021-07-02T07:02:08Z</time>
      </trkpt>
      <trkpt lat="42.181732" lon="2.741096">
        <ele>162.48672</ele>
        <time>2021-07-02T07:02:09Z</time>
      </trkpt>
      <trkpt lat="42.181755" lon="2.740896">
        <ele>162.26927</ele>
        <time>2021-07-02T07:02:10Z</time>
      </trkpt>
      <trkpt lat="42.181778" lon="2.740684">
        <ele>161.75783</ele>
        <time>2021-07-02T07:02:11Z</time>
      </trkpt>
      <trkpt lat="42.181805" lon="2.740457">
        <ele>161.72774</ele>
        <time>2021-07-02T07:02:12Z</time>
      </trkpt>
      <trkpt lat="42.181831" lon="2.740223">
        <ele>160.91878</ele>
        <time>2021-07-02T07:02:13Z</time>
      </trkpt>
      <trkpt lat="42.181881" lon="2.739980">
        <ele>163.41708</ele>
        <time>2021-07-02T07:02:14Z</time>
      </trkpt>
      <trkpt lat="42.181931" lon="2.739725">
        <ele>162.43436</ele>
        <time>2021-07-02T07:02:15Z</time>
      </trkpt>
      <trkpt lat="42.181980" lon="2.739486">
        <ele>161.87375</ele>
        <time>2021-07-02T07:02:16Z</time>
      </trkpt>
      <trkpt lat="42.182049" lon="2.739251">
        <ele>160.79263</ele>
        <time>2021-07-02T07:02:17Z</time>
      </trkpt>
      <trkpt lat="42.182125" lon="2.739010">
        <ele>159.59860</ele>
        <time>2021-07-02T07:02:18Z</time>
      </trkpt>
      <trkpt lat="42.182220" lon="2.738755">
        <ele>159.14023</ele>
        <time>2021-07-02T07:02:19Z</time>
      </trkpt>
      <trkpt lat="42.182335" lon="2.738507">
        <ele>157.94974</ele>
        <time>2021-07-02T07:02:20Z</time>
      </trkpt>
      <trkpt lat="42.182449" lon="2.738286">
        <ele>157.15714</ele>
        <time>2021-07-02T07:02:21Z</time>
      </trkpt>
      <trkpt lat="42.182568" lon="2.738075">
        <ele>156.24112</ele>
        <time>2021-07-02T07:02:22Z</time>
      </trkpt>
      <trkpt lat="42.182697" lon="2.737887">
        <ele>155.43100</ele>
        <time>2021-07-02T07:02:23Z</time>
      </trkpt>
      <trkpt lat="42.182812" lon="2.737718">
        <ele>151.81131</ele>
        <time>2021-07-02T07:02:24Z</time>
      </trkpt>
      <trkpt lat="42.182945" lon="2.737548">
        <ele>151.34714</ele>
        <time>2021-07-02T07:02:25Z</time>
      </trkpt>
      <trkpt lat="42.183098" lon="2.737386">
        <ele>150.33803</ele>
        <time>2021-07-02T07:02:26Z</time>
      </trkpt>
      <trkpt lat="42.183243" lon="2.737236">
        <ele>152.75449</ele>
        <time>2021-07-02T07:02:27Z</time>
      </trkpt>
      <trkpt lat="42.183399" lon="2.737104">
        <ele>149.24304</ele>
        <time>2021-07-02T07:02:28Z</time>
      </trkpt>
      <trkpt lat="42.183567" lon="2.736987">
        <ele>147.68974</ele>
        <time>2021-07-02T07:02:29Z</time>
      </trkpt>
      <trkpt lat="42.183727" lon="2.736885">
        <ele>147.43057</ele>
        <time>2021-07-02T07:02:30Z</time>
      </trkpt>
      <trkpt lat="42.183903" lon="2.736785">
        <ele>147.17076</ele>
        <time>2021-07-02T07:02:31Z</time>
      </trkpt>
      <trkpt lat="42.184078" lon="2.736706">
        <ele>145.59744</ele>
        <time>2021-07-02T07:02:32Z</time>
      </trkpt>
      <trkpt lat="42.184254" lon="2.736646">
        <ele>145.24992</ele>
        <time>2021-07-02T07:02:33Z</time>
      </trkpt>
      <trkpt lat="42.184425" lon="2.736591">
        <ele>144.60573</ele>
        <time>2021-07-02T07:02:34Z</time>
      </trkpt>
      <trkpt lat="42.184425" lon="2.736591">
        <ele>143.96719</ele>
        <time>2021-07-02T07:02:35Z</time>
      </trkpt>
      <trkpt lat="42.184586" lon="2.736580">
        <ele>142.96886</ele>
        <time>2021-07-02T07:02:36Z</time>
      </trkpt>
      <trkpt lat="42.184761" lon="2.736544">
        <ele>141.90379</ele>
        <time>2021-07-02T07:02:37Z</time>
      </trkpt>
      <trkpt lat="42.184937" lon="2.736495">
        <ele>141.81305</ele>
        <time>2021-07-02T07:02:38Z</time>
      </trkpt>
      <trkpt lat="42.185108" lon="2.736448">
        <ele>140.00426</ele>
        <time>2021-07-02T07:02:39Z</time>
      </trkpt>
      <trkpt lat="42.185284" lon="2.736401">
        <ele>139.52507</ele>
        <time>2021-07-02T07:02:40Z</time>
      </trkpt>
      <trkpt lat="42.185459" lon="2.736353">
        <ele>138.88878</ele>
        <time>2021-07-02T07:02:41Z</time>
      </trkpt>
      <trkpt lat="42.185509" lon="2.736339">
        <ele>137.70811</ele>
        <time>2021-07-02T07:02:42Z</time>
      </trkpt>
      <trkpt lat="42.185741" lon="2.736279">
        <ele>139.91385</ele>
        <time>2021-07-02T07:02:43Z</time>
      </trkpt>
      <trkpt lat="42.185974" lon="2.736221">
        <ele>139.27951</ele>
        <time>2021-07-02T07:02:44Z</time>
      </trkpt>
      <trkpt lat="42.186165" lon="2.736172">
        <ele>138.50638</ele>
        <time>2021-07-02T07:02:45Z</time>
      </trkpt>
      <trkpt lat="42.186352" lon="2.736118">
        <ele>137.68808</ele>
        <time>2021-07-02T07:02:46Z</time>
      </trkpt>
      <trkpt lat="42.186535" lon="2.736061">
        <ele>136.38290</ele>
        <time>2021-07-02T07:02:47Z</time>
      </trkpt>
      <trkpt lat="42.186710" lon="2.735994">
        <ele>135.65536</ele>
        <time>2021-07-02T07:02:48Z</time>
      </trkpt>
      <trkpt lat="42.186890" lon="2.735919">
        <ele>134.95761</ele>
        <time>2021-07-02T07:02:49Z</time>
      </trkpt>
      <trkpt lat="42.187073" lon="2.735818">
        <ele>134.22818</ele>
        <time>2021-07-02T07:02:50Z</time>
      </trkpt>
      <trkpt lat="42.187256" lon="2.735711">
        <ele>133.56210</ele>
        <time>2021-07-02T07:02:51Z</time>
      </trkpt>
      <trkpt lat="42.187435" lon="2.735603">
        <ele>132.98312</ele>
        <time>2021-07-02T07:02:52Z</time>
      </trkpt>
      <trkpt lat="42.187588" lon="2.735432">
        <ele>132.66312</ele>
        <time>2021-07-02T07:02:53Z</time>
      </trkpt>
      <trkpt lat="42.187805" lon="2.735227">
        <ele>132.47507</ele>
        <time>2021-07-02T07:02:54Z</time>
      </trkpt>
      <trkpt lat="42.187916" lon="2.735104">
        <ele>132.14584</ele>
        <time>2021-07-02T07:02:55Z</time>
      </trkpt>
      <trkpt lat="42.188072" lon="2.734913">
        <ele>131.49167</ele>
        <time>2021-07-02T07:02:56Z</time>
      </trkpt>
      <trkpt lat="42.188202" lon="2.734736">
        <ele>131.30942</ele>
        <time>2021-07-02T07:02:57Z</time>
      </trkpt>
      <trkpt lat="42.188324" lon="2.734563">
        <ele>131.16183</ele>
        <time>2021-07-02T07:02:58Z</time>
      </trkpt>
      <trkpt lat="42.188450" lon="2.734382">
        <ele>131.28079</ele>
        <time>2021-07-02T07:02:59Z</time>
      </trkpt>
      <trkpt lat="42.188572" lon="2.734201">
        <ele>129.30458</ele>
        <time>2021-07-02T07:03:00Z</time>
      </trkpt>
      <trkpt lat="42.188690" lon="2.734030">
        <ele>129.32951</ele>
        <time>2021-07-02T07:03:01Z</time>
      </trkpt>
      <trkpt lat="42.188690" lon="2.734030">
        <ele>129.43668</ele>
        <time>2021-07-02T07:03:02Z</time>
      </trkpt>
      <trkpt lat="42.188808" lon="2.733857">
        <ele>128.52838</ele>
        <time>2021-07-02T07:03:03Z</time>
      </trkpt>
      <trkpt lat="42.188919" lon="2.733692">
        <ele>128.26791</ele>
        <time>2021-07-02T07:03:04Z</time>
      </trkpt>
      <trkpt lat="42.189022" lon="2.733543">
        <ele>128.00623</ele>
        <time>2021-07-02T07:03:05Z</time>
      </trkpt>
      <trkpt lat="42.189114" lon="2.733408">
        <ele>127.76919</ele>
        <time>2021-07-02T07:03:06Z</time>
      </trkpt>
      <trkpt lat="42.189201" lon="2.733277">
        <ele>127.90837</ele>
        <time>2021-07-02T07:03:07Z</time>
      </trkpt>
      <trkpt lat="42.189285" lon="2.733157">
        <ele>127.78510</ele>
        <time>2021-07-02T07:03:08Z</time>
      </trkpt>
      <trkpt lat="42.189362" lon="2.733045">
        <ele>127.74952</ele>
        <time>2021-07-02T07:03:09Z</time>
      </trkpt>
      <trkpt lat="42.189445" lon="2.732921">
        <ele>127.90522</ele>
        <time>2021-07-02T07:03:10Z</time>
      </trkpt>
      <trkpt lat="42.189537" lon="2.732788">
        <ele>127.77659</ele>
        <time>2021-07-02T07:03:11Z</time>
      </trkpt>
      <trkpt lat="42.189625" lon="2.732662">
        <ele>127.28885</ele>
        <time>2021-07-02T07:03:12Z</time>
      </trkpt>
      <trkpt lat="42.189705" lon="2.732548">
        <ele>127.07478</ele>
        <time>2021-07-02T07:03:13Z</time>
      </trkpt>
      <trkpt lat="42.189774" lon="2.732448">
        <ele>126.79972</ele>
        <time>2021-07-02T07:03:14Z</time>
      </trkpt>
      <trkpt lat="42.189800" lon="2.732404">
        <ele>127.05741</ele>
        <time>2021-07-02T07:03:15Z</time>
      </trkpt>
      <trkpt lat="42.189835" lon="2.732356">
        <ele>127.42726</ele>
        <time>2021-07-02T07:03:16Z</time>
      </trkpt>
      <trkpt lat="42.189869" lon="2.732306">
        <ele>127.71531</ele>
        <time>2021-07-02T07:03:17Z</time>
      </trkpt>
      <trkpt lat="42.189869" lon="2.732305">
        <ele>127.89838</ele>
        <time>2021-07-02T07:03:18Z</time>
      </trkpt>
      <trkpt lat="42.189934" lon="2.732235">
        <ele>128.25362</ele>
        <time>2021-07-02T07:03:19Z</time>
      </trkpt>
      <trkpt lat="42.189987" lon="2.732173">
        <ele>128.38196</ele>
        <time>2021-07-02T07:03:20Z</time>
      </trkpt>
      <trkpt lat="42.190037" lon="2.732131">
        <ele>128.57301</ele>
        <time>2021-07-02T07:03:21Z</time>
      </trkpt>
      <trkpt lat="42.190079" lon="2.732103">
        <ele>129.18036</ele>
        <time>2021-07-02T07:03:22Z</time>
      </trkpt>
      <trkpt lat="42.190136" lon="2.732083">
        <ele>129.72147</ele>
        <time>2021-07-02T07:03:23Z</time>
      </trkpt>
      <trkpt lat="42.190201" lon="2.732083">
        <ele>129.68558</ele>
        <time>2021-07-02T07:03:24Z</time>
      </trkpt>
      <trkpt lat="42.190304" lon="2.732082">
        <ele>129.81271</ele>
        <time>2021-07-02T07:03:25Z</time>
      </trkpt>
      <trkpt lat="42.190388" lon="2.732036">
        <ele>130.09532</ele>
        <time>2021-07-02T07:03:26Z</time>
      </trkpt>
      <trkpt lat="42.190453" lon="2.731959">
        <ele>130.29657</ele>
        <time>2021-07-02T07:03:27Z</time>
      </trkpt>
      <trkpt lat="42.190502" lon="2.731826">
        <ele>130.41055</ele>
        <time>2021-07-02T07:03:28Z</time>
      </trkpt>
      <trkpt lat="42.190506" lon="2.731674">
        <ele>130.77699</ele>
        <time>2021-07-02T07:03:29Z</time>
      </trkpt>
      <trkpt lat="42.190502" lon="2.731643">
        <ele>130.79335</ele>
        <time>2021-07-02T07:03:30Z</time>
      </trkpt>
      <trkpt lat="42.190678" lon="2.731411">
        <ele>130.77586</ele>
        <time>2021-07-02T07:03:31Z</time>
      </trkpt>
      <trkpt lat="42.190762" lon="2.731302">
        <ele>130.62407</ele>
        <time>2021-07-02T07:03:32Z</time>
      </trkpt>
      <trkpt lat="42.190861" lon="2.731191">
        <ele>131.13617</ele>
        <time>2021-07-02T07:03:33Z</time>
      </trkpt>
      <trkpt lat="42.190861" lon="2.731191">
        <ele>131.10249</ele>
        <time>2021-07-02T07:03:34Z</time>
      </trkpt>
      <trkpt lat="42.190945" lon="2.731087">
        <ele>130.93994</ele>
        <time>2021-07-02T07:03:35Z</time>
      </trkpt>
      <trkpt lat="42.191032" lon="2.730968">
        <ele>131.85968</ele>
        <time>2021-07-02T07:03:36Z</time>
      </trkpt>
      <trkpt lat="42.191113" lon="2.730838">
        <ele>131.59494</ele>
        <time>2021-07-02T07:03:37Z</time>
      </trkpt>
      <trkpt lat="42.191208" lon="2.730679">
        <ele>131.69479</ele>
        <time>2021-07-02T07:03:38Z</time>
      </trkpt>
      <trkpt lat="42.191216" lon="2.730671">
        <ele>131.88742</ele>
        <time>2021-07-02T07:03:39Z</time>
      </trkpt>
      <trkpt lat="42.191216" lon="2.730671">
        <ele>131.58775</ele>
        <time>2021-07-02T07:03:40Z</time>
      </trkpt>
      <trkpt lat="42.191418" lon="2.730370">
        <ele>131.68938</ele>
        <time>2021-07-02T07:03:41Z</time>
      </trkpt>
      <trkpt lat="42.191589" lon="2.730116">
        <ele>131.79788</ele>
        <time>2021-07-02T07:03:42Z</time>
      </trkpt>
      <trkpt lat="42.191696" lon="2.729939">
        <ele>131.88547</ele>
        <time>2021-07-02T07:03:43Z</time>
      </trkpt>
      <trkpt lat="42.191799" lon="2.729775">
        <ele>131.84714</ele>
        <time>2021-07-02T07:03:44Z</time>
      </trkpt>
      <trkpt lat="42.191895" lon="2.729635">
        <ele>132.22696</ele>
        <time>2021-07-02T07:03:45Z</time>
      </trkpt>
      <trkpt lat="42.192005" lon="2.729468">
        <ele>132.30058</ele>
        <time>2021-07-02T07:03:46Z</time>
      </trkpt>
      <trkpt lat="42.192085" lon="2.729345">
        <ele>132.11554</ele>
        <time>2021-07-02T07:03:47Z</time>
      </trkpt>
      <trkpt lat="42.192177" lon="2.729201">
        <ele>132.64908</ele>
        <time>2021-07-02T07:03:48Z</time>
      </trkpt>
      <trkpt lat="42.192272" lon="2.729042">
        <ele>133.39554</ele>
        <time>2021-07-02T07:03:49Z</time>
      </trkpt>
      <trkpt lat="42.192368" lon="2.728885">
        <ele>132.56888</ele>
        <time>2021-07-02T07:03:50Z</time>
      </trkpt>
      <trkpt lat="42.192474" lon="2.728718">
        <ele>132.68222</ele>
        <time>2021-07-02T07:03:51Z</time>
      </trkpt>
      <trkpt lat="42.192577" lon="2.728550">
        <ele>132.41354</ele>
        <time>2021-07-02T07:03:52Z</time>
      </trkpt>
      <trkpt lat="42.192677" lon="2.728390">
        <ele>132.47928</ele>
        <time>2021-07-02T07:03:53Z</time>
      </trkpt>
      <trkpt lat="42.192783" lon="2.728215">
        <ele>132.04160</ele>
        <time>2021-07-02T07:03:54Z</time>
      </trkpt>
      <trkpt lat="42.192890" lon="2.728041">
        <ele>132.10495</ele>
        <time>2021-07-02T07:03:55Z</time>
      </trkpt>
      <trkpt lat="42.193001" lon="2.727856">
        <ele>133.44467</ele>
        <time>2021-07-02T07:03:56Z</time>
      </trkpt>
      <trkpt lat="42.193115" lon="2.727676">
        <ele>134.43759</ele>
        <time>2021-07-02T07:03:57Z</time>
      </trkpt>
      <trkpt lat="42.193230" lon="2.727501">
        <ele>134.64023</ele>
        <time>2021-07-02T07:03:58Z</time>
      </trkpt>
      <trkpt lat="42.193230" lon="2.727501">
        <ele>135.56631</ele>
        <time>2021-07-02T07:03:59Z</time>
      </trkpt>
      <trkpt lat="42.193344" lon="2.727324">
        <ele>135.98459</ele>
        <time>2021-07-02T07:04:00Z</time>
      </trkpt>
      <trkpt lat="42.193481" lon="2.727124">
        <ele>136.26767</ele>
        <time>2021-07-02T07:04:01Z</time>
      </trkpt>
      <trkpt lat="42.193615" lon="2.726936">
        <ele>136.17526</ele>
        <time>2021-07-02T07:04:02Z</time>
      </trkpt>
      <trkpt lat="42.193733" lon="2.726768">
        <ele>136.02286</ele>
        <time>2021-07-02T07:04:03Z</time>
      </trkpt>
      <trkpt lat="42.193859" lon="2.726610">
        <ele>137.36838</ele>
        <time>2021-07-02T07:04:04Z</time>
      </trkpt>
      <trkpt lat="42.193993" lon="2.726441">
        <ele>137.30624</ele>
        <time>2021-07-02T07:04:05Z</time>
      </trkpt>
      <trkpt lat="42.194126" lon="2.726276">
        <ele>138.37411</ele>
        <time>2021-07-02T07:04:06Z</time>
      </trkpt>
      <trkpt lat="42.194263" lon="2.726110">
        <ele>137.95438</ele>
        <time>2021-07-02T07:04:07Z</time>
      </trkpt>
      <trkpt lat="42.194412" lon="2.725936">
        <ele>138.44791</ele>
        <time>2021-07-02T07:04:08Z</time>
      </trkpt>
      <trkpt lat="42.194557" lon="2.725772">
        <ele>139.13168</ele>
        <time>2021-07-02T07:04:09Z</time>
      </trkpt>
      <trkpt lat="42.194717" lon="2.725602">
        <ele>139.18887</ele>
        <time>2021-07-02T07:04:10Z</time>
      </trkpt>
      <trkpt lat="42.194885" lon="2.725427">
        <ele>139.13168</ele>
        <time>2021-07-02T07:04:11Z</time>
      </trkpt>
      <trkpt lat="42.195038" lon="2.725273">
        <ele>139.43710</ele>
        <time>2021-07-02T07:04:12Z</time>
      </trkpt>
      <trkpt lat="42.195190" lon="2.725125">
        <ele>139.45786</ele>
        <time>2021-07-02T07:04:13Z</time>
      </trkpt>
      <trkpt lat="42.195343" lon="2.724985">
        <ele>138.62326</ele>
        <time>2021-07-02T07:04:14Z</time>
      </trkpt>
      <trkpt lat="42.195499" lon="2.724847">
        <ele>138.23807</ele>
        <time>2021-07-02T07:04:15Z</time>
      </trkpt>
      <trkpt lat="42.195667" lon="2.724709">
        <ele>138.72324</ele>
        <time>2021-07-02T07:04:16Z</time>
      </trkpt>
      <trkpt lat="42.195824" lon="2.724577">
        <ele>138.37613</ele>
        <time>2021-07-02T07:04:17Z</time>
      </trkpt>
      <trkpt lat="42.195992" lon="2.724433">
        <ele>138.48776</ele>
        <time>2021-07-02T07:04:18Z</time>
      </trkpt>
      <trkpt lat="42.196163" lon="2.724291">
        <ele>138.16898</ele>
        <time>2021-07-02T07:04:19Z</time>
      </trkpt>
      <trkpt lat="42.196350" lon="2.724187">
        <ele>137.79684</ele>
        <time>2021-07-02T07:04:20Z</time>
      </trkpt>
      <trkpt lat="42.196526" lon="2.724080">
        <ele>137.86020</ele>
        <time>2021-07-02T07:04:21Z</time>
      </trkpt>
      <trkpt lat="42.196697" lon="2.723977">
        <ele>138.39322</ele>
        <time>2021-07-02T07:04:22Z</time>
      </trkpt>
      <trkpt lat="42.196877" lon="2.723870">
        <ele>137.98105</ele>
        <time>2021-07-02T07:04:23Z</time>
      </trkpt>
      <trkpt lat="42.197052" lon="2.723749">
        <ele>138.22305</ele>
        <time>2021-07-02T07:04:24Z</time>
      </trkpt>
      <trkpt lat="42.197235" lon="2.723610">
        <ele>138.30673</ele>
        <time>2021-07-02T07:04:25Z</time>
      </trkpt>
      <trkpt lat="42.197235" lon="2.723610">
        <ele>138.50168</ele>
        <time>2021-07-02T07:04:26Z</time>
      </trkpt>
      <trkpt lat="42.197430" lon="2.723451">
        <ele>138.54184</ele>
        <time>2021-07-02T07:04:27Z</time>
      </trkpt>
      <trkpt lat="42.197659" lon="2.723262">
        <ele>136.19839</ele>
        <time>2021-07-02T07:04:28Z</time>
      </trkpt>
      <trkpt lat="42.197880" lon="2.723083">
        <ele>136.12241</ele>
        <time>2021-07-02T07:04:29Z</time>
      </trkpt>
      <trkpt lat="42.198193" lon="2.722821">
        <ele>135.83261</ele>
        <time>2021-07-02T07:04:30Z</time>
      </trkpt>
      <trkpt lat="42.198433" lon="2.722611">
        <ele>135.97226</ele>
        <time>2021-07-02T07:04:31Z</time>
      </trkpt>
      <trkpt lat="42.198696" lon="2.722376">
        <ele>136.10410</ele>
        <time>2021-07-02T07:04:32Z</time>
      </trkpt>
      <trkpt lat="42.198956" lon="2.722133">
        <ele>139.74429</ele>
        <time>2021-07-02T07:04:33Z</time>
      </trkpt>
      <trkpt lat="42.199192" lon="2.721903">
        <ele>139.58743</ele>
        <time>2021-07-02T07:04:34Z</time>
      </trkpt>
      <trkpt lat="42.199394" lon="2.721707">
        <ele>140.09512</ele>
        <time>2021-07-02T07:04:35Z</time>
      </trkpt>
      <trkpt lat="42.199585" lon="2.721508">
        <ele>140.70358</ele>
        <time>2021-07-02T07:04:36Z</time>
      </trkpt>
      <trkpt lat="42.199783" lon="2.721297">
        <ele>141.16110</ele>
        <time>2021-07-02T07:04:37Z</time>
      </trkpt>
      <trkpt lat="42.199974" lon="2.721090">
        <ele>141.65811</ele>
        <time>2021-07-02T07:04:38Z</time>
      </trkpt>
      <trkpt lat="42.200161" lon="2.720873">
        <ele>141.64017</ele>
        <time>2021-07-02T07:04:39Z</time>
      </trkpt>
      <trkpt lat="42.200336" lon="2.720669">
        <ele>141.51816</ele>
        <time>2021-07-02T07:04:40Z</time>
      </trkpt>
      <trkpt lat="42.200508" lon="2.720469">
        <ele>142.21896</ele>
        <time>2021-07-02T07:04:41Z</time>
      </trkpt>
      <trkpt lat="42.200687" lon="2.720252">
        <ele>142.54208</ele>
        <time>2021-07-02T07:04:42Z</time>
      </trkpt>
      <trkpt lat="42.200848" lon="2.720051">
        <ele>142.34964</ele>
        <time>2021-07-02T07:04:43Z</time>
      </trkpt>
      <trkpt lat="42.201000" lon="2.719856">
        <ele>142.40982</ele>
        <time>2021-07-02T07:04:44Z</time>
      </trkpt>
      <trkpt lat="42.201149" lon="2.719658">
        <ele>142.96768</ele>
        <time>2021-07-02T07:04:45Z</time>
      </trkpt>
      <trkpt lat="42.201302" lon="2.719459">
        <ele>143.80197</ele>
        <time>2021-07-02T07:04:46Z</time>
      </trkpt>
      <trkpt lat="42.201458" lon="2.719266">
        <ele>144.84067</ele>
        <time>2021-07-02T07:04:47Z</time>
      </trkpt>
      <trkpt lat="42.201614" lon="2.719070">
        <ele>145.56131</ele>
        <time>2021-07-02T07:04:48Z</time>
      </trkpt>
      <trkpt lat="42.201763" lon="2.718863">
        <ele>146.23917</ele>
        <time>2021-07-02T07:04:49Z</time>
      </trkpt>
      <trkpt lat="42.201900" lon="2.718667">
        <ele>147.10928</ele>
        <time>2021-07-02T07:04:50Z</time>
      </trkpt>
      <trkpt lat="42.202053" lon="2.718453">
        <ele>149.61343</ele>
        <time>2021-07-02T07:04:51Z</time>
      </trkpt>
      <trkpt lat="42.202202" lon="2.718238">
        <ele>149.91367</ele>
        <time>2021-07-02T07:04:52Z</time>
      </trkpt>
      <trkpt lat="42.202332" lon="2.718030">
        <ele>149.87070</ele>
        <time>2021-07-02T07:04:53Z</time>
      </trkpt>
      <trkpt lat="42.202465" lon="2.717822">
        <ele>150.44620</ele>
        <time>2021-07-02T07:04:54Z</time>
      </trkpt>
      <trkpt lat="42.202553" lon="2.717685">
        <ele>148.16153</ele>
        <time>2021-07-02T07:04:55Z</time>
      </trkpt>
      <trkpt lat="42.202648" lon="2.717562">
        <ele>148.24716</ele>
        <time>2021-07-02T07:04:56Z</time>
      </trkpt>
      <trkpt lat="42.202896" lon="2.717244">
        <ele>148.96072</ele>
        <time>2021-07-02T07:04:57Z</time>
      </trkpt>
      <trkpt lat="42.202896" lon="2.717244">
        <ele>151.50473</ele>
        <time>2021-07-02T07:04:58Z</time>
      </trkpt>
      <trkpt lat="42.203056" lon="2.717095">
        <ele>152.05185</ele>
        <time>2021-07-02T07:04:59Z</time>
      </trkpt>
      <trkpt lat="42.203232" lon="2.717009">
        <ele>152.12363</ele>
        <time>2021-07-02T07:05:00Z</time>
      </trkpt>
      <trkpt lat="42.203224" lon="2.716588">
        <ele>152.03830</ele>
        <time>2021-07-02T07:05:01Z</time>
      </trkpt>
      <trkpt lat="42.203346" lon="2.716387">
        <ele>152.21811</ele>
        <time>2021-07-02T07:05:02Z</time>
      </trkpt>
      <trkpt lat="42.203468" lon="2.716173">
        <ele>153.14444</ele>
        <time>2021-07-02T07:05:03Z</time>
      </trkpt>
      <trkpt lat="42.203571" lon="2.715956">
        <ele>153.68375</ele>
        <time>2021-07-02T07:05:04Z</time>
      </trkpt>
      <trkpt lat="42.203678" lon="2.715767">
        <ele>153.26462</ele>
        <time>2021-07-02T07:05:05Z</time>
      </trkpt>
      <trkpt lat="42.203773" lon="2.715592">
        <ele>153.07260</ele>
        <time>2021-07-02T07:05:06Z</time>
      </trkpt>
      <trkpt lat="42.203869" lon="2.715419">
        <ele>152.91318</ele>
        <time>2021-07-02T07:05:07Z</time>
      </trkpt>
      <trkpt lat="42.203953" lon="2.715262">
        <ele>153.50339</ele>
        <time>2021-07-02T07:05:08Z</time>
      </trkpt>
      <trkpt lat="42.204052" lon="2.715085">
        <ele>153.67368</ele>
        <time>2021-07-02T07:05:09Z</time>
      </trkpt>
      <trkpt lat="42.204159" lon="2.714886">
        <ele>152.97910</ele>
        <time>2021-07-02T07:05:10Z</time>
      </trkpt>
      <trkpt lat="42.204250" lon="2.714719">
        <ele>153.01749</ele>
        <time>2021-07-02T07:05:11Z</time>
      </trkpt>
      <trkpt lat="42.204334" lon="2.714552">
        <ele>152.01895</ele>
        <time>2021-07-02T07:05:12Z</time>
      </trkpt>
      <trkpt lat="42.204418" lon="2.714381">
        <ele>151.86520</ele>
        <time>2021-07-02T07:05:13Z</time>
      </trkpt>
      <trkpt lat="42.204491" lon="2.714234">
        <ele>151.82004</ele>
        <time>2021-07-02T07:05:14Z</time>
      </trkpt>
      <trkpt lat="42.204571" lon="2.714076">
        <ele>152.98239</ele>
        <time>2021-07-02T07:05:15Z</time>
      </trkpt>
      <trkpt lat="42.204632" lon="2.713948">
        <ele>152.62997</ele>
        <time>2021-07-02T07:05:16Z</time>
      </trkpt>
      <trkpt lat="42.204693" lon="2.713813">
        <ele>152.78781</ele>
        <time>2021-07-02T07:05:17Z</time>
      </trkpt>
      <trkpt lat="42.204727" lon="2.713680">
        <ele>153.12875</ele>
        <time>2021-07-02T07:05:18Z</time>
      </trkpt>
      <trkpt lat="42.204777" lon="2.713530">
        <ele>152.85446</ele>
        <time>2021-07-02T07:05:19Z</time>
      </trkpt>
      <trkpt lat="42.204777" lon="2.713374">
        <ele>152.85648</ele>
        <time>2021-07-02T07:05:20Z</time>
      </trkpt>
      <trkpt lat="42.204727" lon="2.713206">
        <ele>152.85269</ele>
        <time>2021-07-02T07:05:21Z</time>
      </trkpt>
      <trkpt lat="42.204685" lon="2.713048">
        <ele>152.43283</ele>
        <time>2021-07-02T07:05:22Z</time>
      </trkpt>
      <trkpt lat="42.204597" lon="2.712926">
        <ele>152.20010</ele>
        <time>2021-07-02T07:05:23Z</time>
      </trkpt>
      <trkpt lat="42.204597" lon="2.712926">
        <ele>151.06418</ele>
        <time>2021-07-02T07:05:24Z</time>
      </trkpt>
      <trkpt lat="42.204506" lon="2.712842">
        <ele>150.64987</ele>
        <time>2021-07-02T07:05:25Z</time>
      </trkpt>
      <trkpt lat="42.204403" lon="2.712765">
        <ele>150.31808</ele>
        <time>2021-07-02T07:05:26Z</time>
      </trkpt>
      <trkpt lat="42.204285" lon="2.712674">
        <ele>150.13333</ele>
        <time>2021-07-02T07:05:27Z</time>
      </trkpt>
      <trkpt lat="42.204163" lon="2.712583">
        <ele>149.47800</ele>
        <time>2021-07-02T07:05:28Z</time>
      </trkpt>
      <trkpt lat="42.204029" lon="2.712473">
        <ele>149.38736</ele>
        <time>2021-07-02T07:05:29Z</time>
      </trkpt>
      <trkpt lat="42.203922" lon="2.712353">
        <ele>147.35269</ele>
        <time>2021-07-02T07:05:30Z</time>
      </trkpt>
      <trkpt lat="42.203831" lon="2.712233">
        <ele>146.70969</ele>
        <time>2021-07-02T07:05:31Z</time>
      </trkpt>
      <trkpt lat="42.203743" lon="2.712080">
        <ele>146.65085</ele>
        <time>2021-07-02T07:05:32Z</time>
      </trkpt>
      <trkpt lat="42.203655" lon="2.711899">
        <ele>149.43045</ele>
        <time>2021-07-02T07:05:33Z</time>
      </trkpt>
      <trkpt lat="42.203602" lon="2.711724">
        <ele>149.36777</ele>
        <time>2021-07-02T07:05:34Z</time>
      </trkpt>
      <trkpt lat="42.203560" lon="2.711555">
        <ele>148.47995</ele>
        <time>2021-07-02T07:05:35Z</time>
      </trkpt>
      <trkpt lat="42.203526" lon="2.711375">
        <ele>148.71927</ele>
        <time>2021-07-02T07:05:36Z</time>
      </trkpt>
      <trkpt lat="42.203506" lon="2.711183">
        <ele>148.54648</ele>
        <time>2021-07-02T07:05:37Z</time>
      </trkpt>
      <trkpt lat="42.203495" lon="2.711012">
        <ele>148.64603</ele>
        <time>2021-07-02T07:05:38Z</time>
      </trkpt>
      <trkpt lat="42.203491" lon="2.710865">
        <ele>149.60574</ele>
        <time>2021-07-02T07:05:39Z</time>
      </trkpt>
      <trkpt lat="42.203487" lon="2.710699">
        <ele>150.55832</ele>
        <time>2021-07-02T07:05:40Z</time>
      </trkpt>
      <trkpt lat="42.203487" lon="2.710509">
        <ele>150.82394</ele>
        <time>2021-07-02T07:05:41Z</time>
      </trkpt>
      <trkpt lat="42.203495" lon="2.710319">
        <ele>150.59732</ele>
        <time>2021-07-02T07:05:42Z</time>
      </trkpt>
      <trkpt lat="42.203503" lon="2.710111">
        <ele>151.78836</ele>
        <time>2021-07-02T07:05:43Z</time>
      </trkpt>
      <trkpt lat="42.203506" lon="2.709926">
        <ele>152.95364</ele>
        <time>2021-07-02T07:05:44Z</time>
      </trkpt>
      <trkpt lat="42.203514" lon="2.709738">
        <ele>153.39096</ele>
        <time>2021-07-02T07:05:45Z</time>
      </trkpt>
      <trkpt lat="42.203533" lon="2.709559">
        <ele>154.60904</ele>
        <time>2021-07-02T07:05:46Z</time>
      </trkpt>
      <trkpt lat="42.203564" lon="2.709403">
        <ele>155.84799</ele>
        <time>2021-07-02T07:05:47Z</time>
      </trkpt>
      <trkpt lat="42.203613" lon="2.709126">
        <ele>157.08591</ele>
        <time>2021-07-02T07:05:48Z</time>
      </trkpt>
      <trkpt lat="42.203659" lon="2.708895">
        <ele>157.82278</ele>
        <time>2021-07-02T07:05:49Z</time>
      </trkpt>
      <trkpt lat="42.203712" lon="2.708678">
        <ele>158.38901</ele>
        <time>2021-07-02T07:05:50Z</time>
      </trkpt>
      <trkpt lat="42.203770" lon="2.708448">
        <ele>159.87827</ele>
        <time>2021-07-02T07:05:51Z</time>
      </trkpt>
      <trkpt lat="42.203838" lon="2.708256">
        <ele>160.64450</ele>
        <time>2021-07-02T07:05:52Z</time>
      </trkpt>
      <trkpt lat="42.203838" lon="2.708256">
        <ele>160.82468</ele>
        <time>2021-07-02T07:05:53Z</time>
      </trkpt>
      <trkpt lat="42.203918" lon="2.708058">
        <ele>161.87674</ele>
        <time>2021-07-02T07:05:54Z</time>
      </trkpt>
      <trkpt lat="42.203789" lon="2.707744">
        <ele>163.54001</ele>
        <time>2021-07-02T07:05:55Z</time>
      </trkpt>
      <trkpt lat="42.203842" lon="2.707535">
        <ele>162.57663</ele>
        <time>2021-07-02T07:05:56Z</time>
      </trkpt>
      <trkpt lat="42.203903" lon="2.707277">
        <ele>162.55533</ele>
        <time>2021-07-02T07:05:57Z</time>
      </trkpt>
      <trkpt lat="42.203999" lon="2.706932">
        <ele>163.75424</ele>
        <time>2021-07-02T07:05:58Z</time>
      </trkpt>
      <trkpt lat="42.204075" lon="2.706685">
        <ele>165.85849</ele>
        <time>2021-07-02T07:05:59Z</time>
      </trkpt>
      <trkpt lat="42.204155" lon="2.706426">
        <ele>166.36520</ele>
        <time>2021-07-02T07:06:00Z</time>
      </trkpt>
      <trkpt lat="42.204235" lon="2.706183">
        <ele>166.66025</ele>
        <time>2021-07-02T07:06:01Z</time>
      </trkpt>
      <trkpt lat="42.204330" lon="2.705923">
        <ele>167.74893</ele>
        <time>2021-07-02T07:06:02Z</time>
      </trkpt>
      <trkpt lat="42.204418" lon="2.705690">
        <ele>167.01657</ele>
        <time>2021-07-02T07:06:03Z</time>
      </trkpt>
      <trkpt lat="42.204521" lon="2.705456">
        <ele>168.22757</ele>
        <time>2021-07-02T07:06:04Z</time>
      </trkpt>
      <trkpt lat="42.204620" lon="2.705231">
        <ele>169.20206</ele>
        <time>2021-07-02T07:06:05Z</time>
      </trkpt>
      <trkpt lat="42.204727" lon="2.704987">
        <ele>169.92569</ele>
        <time>2021-07-02T07:06:06Z</time>
      </trkpt>
      <trkpt lat="42.204834" lon="2.704774">
        <ele>169.83420</ele>
        <time>2021-07-02T07:06:07Z</time>
      </trkpt>
      <trkpt lat="42.204945" lon="2.704547">
        <ele>170.63461</ele>
        <time>2021-07-02T07:06:08Z</time>
      </trkpt>
      <trkpt lat="42.205048" lon="2.704335">
        <ele>171.10580</ele>
        <time>2021-07-02T07:06:09Z</time>
      </trkpt>
      <trkpt lat="42.205048" lon="2.704335">
        <ele>171.55984</ele>
        <time>2021-07-02T07:06:10Z</time>
      </trkpt>
      <trkpt lat="42.205158" lon="2.704109">
        <ele>171.63687</ele>
        <time>2021-07-02T07:06:11Z</time>
      </trkpt>
      <trkpt lat="42.205273" lon="2.703879">
        <ele>171.86813</ele>
        <time>2021-07-02T07:06:12Z</time>
      </trkpt>
      <trkpt lat="42.205391" lon="2.703636">
        <ele>171.97446</ele>
        <time>2021-07-02T07:06:13Z</time>
      </trkpt>
      <trkpt lat="42.205505" lon="2.703405">
        <ele>172.06851</ele>
        <time>2021-07-02T07:06:14Z</time>
      </trkpt>
      <trkpt lat="42.205627" lon="2.703154">
        <ele>174.28439</ele>
        <time>2021-07-02T07:06:15Z</time>
      </trkpt>
      <trkpt lat="42.205753" lon="2.702904">
        <ele>175.59140</ele>
        <time>2021-07-02T07:06:16Z</time>
      </trkpt>
      <trkpt lat="42.205860" lon="2.702684">
        <ele>175.25882</ele>
        <time>2021-07-02T07:06:17Z</time>
      </trkpt>
      <trkpt lat="42.205982" lon="2.702433">
        <ele>174.48264</ele>
        <time>2021-07-02T07:06:18Z</time>
      </trkpt>
      <trkpt lat="42.206093" lon="2.702201">
        <ele>176.36667</ele>
        <time>2021-07-02T07:06:19Z</time>
      </trkpt>
      <trkpt lat="42.206192" lon="2.701981">
        <ele>177.76859</ele>
        <time>2021-07-02T07:06:20Z</time>
      </trkpt>
      <trkpt lat="42.206287" lon="2.701758">
        <ele>179.04568</ele>
        <time>2021-07-02T07:06:21Z</time>
      </trkpt>
      <trkpt lat="42.206364" lon="2.701522">
        <ele>176.47269</ele>
        <time>2021-07-02T07:06:22Z</time>
      </trkpt>
      <trkpt lat="42.206432" lon="2.701289">
        <ele>174.95938</ele>
        <time>2021-07-02T07:06:23Z</time>
      </trkpt>
      <trkpt lat="42.206490" lon="2.700984">
        <ele>174.24802</ele>
        <time>2021-07-02T07:06:24Z</time>
      </trkpt>
      <trkpt lat="42.206566" lon="2.700724">
        <ele>174.27347</ele>
        <time>2021-07-02T07:06:25Z</time>
      </trkpt>
      <trkpt lat="42.206654" lon="2.700409">
        <ele>176.49063</ele>
        <time>2021-07-02T07:06:26Z</time>
      </trkpt>
      <trkpt lat="42.206730" lon="2.700127">
        <ele>177.01859</ele>
        <time>2021-07-02T07:06:27Z</time>
      </trkpt>
      <trkpt lat="42.206810" lon="2.699794">
        <ele>177.10361</ele>
        <time>2021-07-02T07:06:28Z</time>
      </trkpt>
      <trkpt lat="42.206905" lon="2.699277">
        <ele>177.34360</ele>
        <time>2021-07-02T07:06:29Z</time>
      </trkpt>
      <trkpt lat="42.206951" lon="2.698962">
        <ele>177.61203</ele>
        <time>2021-07-02T07:06:30Z</time>
      </trkpt>
      <trkpt lat="42.207005" lon="2.698588">
        <ele>177.39120</ele>
        <time>2021-07-02T07:06:31Z</time>
      </trkpt>
      <trkpt lat="42.207043" lon="2.698189">
        <ele>175.95541</ele>
        <time>2021-07-02T07:06:32Z</time>
      </trkpt>
      <trkpt lat="42.207069" lon="2.697814">
        <ele>177.20312</ele>
        <time>2021-07-02T07:06:33Z</time>
      </trkpt>
      <trkpt lat="42.207077" lon="2.697431">
        <ele>176.20935</ele>
        <time>2021-07-02T07:06:34Z</time>
      </trkpt>
      <trkpt lat="42.207081" lon="2.697042">
        <ele>177.28265</ele>
        <time>2021-07-02T07:06:35Z</time>
      </trkpt>
      <trkpt lat="42.207073" lon="2.696657">
        <ele>177.47736</ele>
        <time>2021-07-02T07:06:36Z</time>
      </trkpt>
      <trkpt lat="42.207047" lon="2.696295">
        <ele>177.17499</ele>
        <time>2021-07-02T07:06:37Z</time>
      </trkpt>
      <trkpt lat="42.207012" lon="2.695913">
        <ele>177.25580</ele>
        <time>2021-07-02T07:06:38Z</time>
      </trkpt>
      <trkpt lat="42.206982" lon="2.695532">
        <ele>177.52216</ele>
        <time>2021-07-02T07:06:39Z</time>
      </trkpt>
      <trkpt lat="42.206947" lon="2.695142">
        <ele>177.63849</ele>
        <time>2021-07-02T07:06:40Z</time>
      </trkpt>
      <trkpt lat="42.206909" lon="2.694749">
        <ele>177.36169</ele>
        <time>2021-07-02T07:06:41Z</time>
      </trkpt>
      <trkpt lat="42.206871" lon="2.694353">
        <ele>178.20288</ele>
        <time>2021-07-02T07:06:42Z</time>
      </trkpt>
      <trkpt lat="42.206871" lon="2.694353">
        <ele>178.63611</ele>
        <time>2021-07-02T07:06:43Z</time>
      </trkpt>
      <trkpt lat="42.206833" lon="2.693940">
        <ele>178.91785</ele>
        <time>2021-07-02T07:06:44Z</time>
      </trkpt>
      <trkpt lat="42.206795" lon="2.693541">
        <ele>179.29083</ele>
        <time>2021-07-02T07:06:45Z</time>
      </trkpt>
      <trkpt lat="42.206757" lon="2.693136">
        <ele>179.19269</ele>
        <time>2021-07-02T07:06:46Z</time>
      </trkpt>
      <trkpt lat="42.206722" lon="2.692739">
        <ele>180.21808</ele>
        <time>2021-07-02T07:06:47Z</time>
      </trkpt>
      <trkpt lat="42.206688" lon="2.692372">
        <ele>181.34589</ele>
        <time>2021-07-02T07:06:48Z</time>
      </trkpt>
      <trkpt lat="42.206650" lon="2.691971">
        <ele>181.54053</ele>
        <time>2021-07-02T07:06:49Z</time>
      </trkpt>
      <trkpt lat="42.206612" lon="2.691570">
        <ele>181.47662</ele>
        <time>2021-07-02T07:06:50Z</time>
      </trkpt>
      <trkpt lat="42.206577" lon="2.691171">
        <ele>181.23022</ele>
        <time>2021-07-02T07:06:51Z</time>
      </trkpt>
      <trkpt lat="42.206539" lon="2.690780">
        <ele>181.47992</ele>
        <time>2021-07-02T07:06:52Z</time>
      </trkpt>
      <trkpt lat="42.206505" lon="2.690393">
        <ele>181.06158</ele>
        <time>2021-07-02T07:06:53Z</time>
      </trkpt>
      <trkpt lat="42.206467" lon="2.690001">
        <ele>181.33844</ele>
        <time>2021-07-02T07:06:54Z</time>
      </trkpt>
      <trkpt lat="42.206429" lon="2.689603">
        <ele>182.43451</ele>
        <time>2021-07-02T07:06:55Z</time>
      </trkpt>
      <trkpt lat="42.206394" lon="2.689230">
        <ele>182.44312</ele>
        <time>2021-07-02T07:06:56Z</time>
      </trkpt>
      <trkpt lat="42.206356" lon="2.688840">
        <ele>184.33923</ele>
        <time>2021-07-02T07:06:57Z</time>
      </trkpt>
      <trkpt lat="42.206314" lon="2.688426">
        <ele>185.62799</ele>
        <time>2021-07-02T07:06:58Z</time>
      </trkpt>
      <trkpt lat="42.206280" lon="2.688030">
        <ele>186.49091</ele>
        <time>2021-07-02T07:06:59Z</time>
      </trkpt>
      <trkpt lat="42.206242" lon="2.687634">
        <ele>186.71753</ele>
        <time>2021-07-02T07:07:00Z</time>
      </trkpt>
      <trkpt lat="42.206207" lon="2.687229">
        <ele>187.32166</ele>
        <time>2021-07-02T07:07:01Z</time>
      </trkpt>
      <trkpt lat="42.206173" lon="2.686835">
        <ele>186.70935</ele>
        <time>2021-07-02T07:07:02Z</time>
      </trkpt>
      <trkpt lat="42.206139" lon="2.686457">
        <ele>186.65753</ele>
        <time>2021-07-02T07:07:03Z</time>
      </trkpt>
      <trkpt lat="42.206116" lon="2.686035">
        <ele>186.20856</ele>
        <time>2021-07-02T07:07:04Z</time>
      </trkpt>
      <trkpt lat="42.206108" lon="2.685659">
        <ele>187.08038</ele>
        <time>2021-07-02T07:07:05Z</time>
      </trkpt>
      <trkpt lat="42.206108" lon="2.685253">
        <ele>187.52997</ele>
        <time>2021-07-02T07:07:06Z</time>
      </trkpt>
      <trkpt lat="42.206120" lon="2.684882">
        <ele>187.01422</ele>
        <time>2021-07-02T07:07:07Z</time>
      </trkpt>
      <trkpt lat="42.206150" lon="2.684460">
        <ele>186.76178</ele>
        <time>2021-07-02T07:07:08Z</time>
      </trkpt>
      <trkpt lat="42.206192" lon="2.684037">
        <ele>186.92603</ele>
        <time>2021-07-02T07:07:09Z</time>
      </trkpt>
      <trkpt lat="42.206245" lon="2.683630">
        <ele>186.27478</ele>
        <time>2021-07-02T07:07:10Z</time>
      </trkpt>
      <trkpt lat="42.206314" lon="2.683218">
        <ele>185.99146</ele>
        <time>2021-07-02T07:07:11Z</time>
      </trkpt>
      <trkpt lat="42.206387" lon="2.682805">
        <ele>186.10779</ele>
        <time>2021-07-02T07:07:12Z</time>
      </trkpt>
      <trkpt lat="42.206463" lon="2.682408">
        <ele>187.66150</ele>
        <time>2021-07-02T07:07:13Z</time>
      </trkpt>
      <trkpt lat="42.206539" lon="2.682017">
        <ele>187.65417</ele>
        <time>2021-07-02T07:07:14Z</time>
      </trkpt>
      <trkpt lat="42.206539" lon="2.682017">
        <ele>188.69214</ele>
        <time>2021-07-02T07:07:15Z</time>
      </trkpt>
      <trkpt lat="42.206619" lon="2.681613">
        <ele>189.24200</ele>
        <time>2021-07-02T07:07:16Z</time>
      </trkpt>
      <trkpt lat="42.206696" lon="2.681222">
        <ele>189.48608</ele>
        <time>2021-07-02T07:07:17Z</time>
      </trkpt>
      <trkpt lat="42.206776" lon="2.680824">
        <ele>190.01947</ele>
        <time>2021-07-02T07:07:18Z</time>
      </trkpt>
      <trkpt lat="42.206852" lon="2.680430">
        <ele>190.12604</ele>
        <time>2021-07-02T07:07:19Z</time>
      </trkpt>
      <trkpt lat="42.206928" lon="2.680039">
        <ele>191.18030</ele>
        <time>2021-07-02T07:07:20Z</time>
      </trkpt>
      <trkpt lat="42.207005" lon="2.679651">
        <ele>190.79529</ele>
        <time>2021-07-02T07:07:21Z</time>
      </trkpt>
      <trkpt lat="42.207073" lon="2.679279">
        <ele>191.57092</ele>
        <time>2021-07-02T07:07:22Z</time>
      </trkpt>
      <trkpt lat="42.207153" lon="2.678898">
        <ele>191.11005</ele>
        <time>2021-07-02T07:07:23Z</time>
      </trkpt>
      <trkpt lat="42.207230" lon="2.678531">
        <ele>191.04944</ele>
        <time>2021-07-02T07:07:24Z</time>
      </trkpt>
      <trkpt lat="42.207317" lon="2.678143">
        <ele>190.85150</ele>
        <time>2021-07-02T07:07:25Z</time>
      </trkpt>
      <trkpt lat="42.207401" lon="2.677770">
        <ele>190.93030</ele>
        <time>2021-07-02T07:07:26Z</time>
      </trkpt>
      <trkpt lat="42.207500" lon="2.677399">
        <ele>192.24811</ele>
        <time>2021-07-02T07:07:27Z</time>
      </trkpt>
      <trkpt lat="42.207611" lon="2.677023">
        <ele>193.01361</ele>
        <time>2021-07-02T07:07:28Z</time>
      </trkpt>
      <trkpt lat="42.207737" lon="2.676635">
        <ele>192.45178</ele>
        <time>2021-07-02T07:07:29Z</time>
      </trkpt>
      <trkpt lat="42.207859" lon="2.676287">
        <ele>192.43091</ele>
        <time>2021-07-02T07:07:30Z</time>
      </trkpt>
      <trkpt lat="42.207996" lon="2.675930">
        <ele>193.91547</ele>
        <time>2021-07-02T07:07:31Z</time>
      </trkpt>
      <trkpt lat="42.208145" lon="2.675567">
        <ele>193.83807</ele>
        <time>2021-07-02T07:07:32Z</time>
      </trkpt>
      <trkpt lat="42.208313" lon="2.675201">
        <ele>194.95502</ele>
        <time>2021-07-02T07:07:33Z</time>
      </trkpt>
      <trkpt lat="42.208473" lon="2.674865">
        <ele>193.43304</ele>
        <time>2021-07-02T07:07:34Z</time>
      </trkpt>
      <trkpt lat="42.208652" lon="2.674524">
        <ele>194.50873</ele>
        <time>2021-07-02T07:07:35Z</time>
      </trkpt>
      <trkpt lat="42.208820" lon="2.674205">
        <ele>194.97241</ele>
        <time>2021-07-02T07:07:36Z</time>
      </trkpt>
      <trkpt lat="42.209015" lon="2.673851">
        <ele>194.87134</ele>
        <time>2021-07-02T07:07:37Z</time>
      </trkpt>
      <trkpt lat="42.209190" lon="2.673527">
        <ele>194.24109</ele>
        <time>2021-07-02T07:07:38Z</time>
      </trkpt>
      <trkpt lat="42.209381" lon="2.673176">
        <ele>195.65393</ele>
        <time>2021-07-02T07:07:39Z</time>
      </trkpt>
      <trkpt lat="42.209560" lon="2.672846">
        <ele>196.17511</ele>
        <time>2021-07-02T07:07:40Z</time>
      </trkpt>
      <trkpt lat="42.209747" lon="2.672503">
        <ele>196.15320</ele>
        <time>2021-07-02T07:07:41Z</time>
      </trkpt>
      <trkpt lat="42.209747" lon="2.672503">
        <ele>197.16382</ele>
        <time>2021-07-02T07:07:42Z</time>
      </trkpt>
      <trkpt lat="42.209930" lon="2.672162">
        <ele>197.29309</ele>
        <time>2021-07-02T07:07:43Z</time>
      </trkpt>
      <trkpt lat="42.210094" lon="2.671858">
        <ele>199.31830</ele>
        <time>2021-07-02T07:07:44Z</time>
      </trkpt>
      <trkpt lat="42.210255" lon="2.671547">
        <ele>199.76971</ele>
        <time>2021-07-02T07:07:45Z</time>
      </trkpt>
      <trkpt lat="42.210407" lon="2.671231">
        <ele>200.43695</ele>
        <time>2021-07-02T07:07:46Z</time>
      </trkpt>
      <trkpt lat="42.210545" lon="2.670910">
        <ele>201.65009</ele>
        <time>2021-07-02T07:07:47Z</time>
      </trkpt>
      <trkpt lat="42.210670" lon="2.670596">
        <ele>201.60803</ele>
        <time>2021-07-02T07:07:48Z</time>
      </trkpt>
      <trkpt lat="42.210793" lon="2.670265">
        <ele>201.24628</ele>
        <time>2021-07-02T07:07:49Z</time>
      </trkpt>
      <trkpt lat="42.210899" lon="2.669922">
        <ele>200.57990</ele>
        <time>2021-07-02T07:07:50Z</time>
      </trkpt>
      <trkpt lat="42.211006" lon="2.669566">
        <ele>200.82397</ele>
        <time>2021-07-02T07:07:51Z</time>
      </trkpt>
      <trkpt lat="42.211098" lon="2.669213">
        <ele>200.62012</ele>
        <time>2021-07-02T07:07:52Z</time>
      </trkpt>
      <trkpt lat="42.211170" lon="2.668879">
        <ele>199.56342</ele>
        <time>2021-07-02T07:07:53Z</time>
      </trkpt>
      <trkpt lat="42.211235" lon="2.668518">
        <ele>196.69928</ele>
        <time>2021-07-02T07:07:54Z</time>
      </trkpt>
      <trkpt lat="42.211304" lon="2.668128">
        <ele>195.29956</ele>
        <time>2021-07-02T07:07:55Z</time>
      </trkpt>
      <trkpt lat="42.211365" lon="2.667756">
        <ele>194.52863</ele>
        <time>2021-07-02T07:07:56Z</time>
      </trkpt>
      <trkpt lat="42.211433" lon="2.667369">
        <ele>192.36615</ele>
        <time>2021-07-02T07:07:57Z</time>
      </trkpt>
      <trkpt lat="42.211506" lon="2.666983">
        <ele>192.10541</ele>
        <time>2021-07-02T07:07:58Z</time>
      </trkpt>
      <trkpt lat="42.211582" lon="2.666601">
        <ele>190.90283</ele>
        <time>2021-07-02T07:07:59Z</time>
      </trkpt>
      <trkpt lat="42.211674" lon="2.666237">
        <ele>190.69946</ele>
        <time>2021-07-02T07:08:00Z</time>
      </trkpt>
      <trkpt lat="42.211788" lon="2.665839">
        <ele>188.87335</ele>
        <time>2021-07-02T07:08:01Z</time>
      </trkpt>
      <trkpt lat="42.211918" lon="2.665466">
        <ele>188.74481</ele>
        <time>2021-07-02T07:08:02Z</time>
      </trkpt>
      <trkpt lat="42.212044" lon="2.665094">
        <ele>188.29034</ele>
        <time>2021-07-02T07:08:03Z</time>
      </trkpt>
      <trkpt lat="42.212204" lon="2.664708">
        <ele>187.75165</ele>
        <time>2021-07-02T07:08:04Z</time>
      </trkpt>
      <trkpt lat="42.212353" lon="2.664347">
        <ele>187.76166</ele>
        <time>2021-07-02T07:08:05Z</time>
      </trkpt>
      <trkpt lat="42.212494" lon="2.664003">
        <ele>187.49512</ele>
        <time>2021-07-02T07:08:06Z</time>
      </trkpt>
      <trkpt lat="42.212639" lon="2.663648">
        <ele>187.85339</ele>
        <time>2021-07-02T07:08:07Z</time>
      </trkpt>
      <trkpt lat="42.212788" lon="2.663282">
        <ele>187.39252</ele>
        <time>2021-07-02T07:08:08Z</time>
      </trkpt>
      <trkpt lat="42.212933" lon="2.662933">
        <ele>187.57172</ele>
        <time>2021-07-02T07:08:09Z</time>
      </trkpt>
      <trkpt lat="42.213081" lon="2.662576">
        <ele>188.56750</ele>
        <time>2021-07-02T07:08:10Z</time>
      </trkpt>
      <trkpt lat="42.213219" lon="2.662237">
        <ele>187.67535</ele>
        <time>2021-07-02T07:08:11Z</time>
      </trkpt>
      <trkpt lat="42.213360" lon="2.661893">
        <ele>188.56177</ele>
        <time>2021-07-02T07:08:12Z</time>
      </trkpt>
      <trkpt lat="42.213501" lon="2.661549">
        <ele>188.53058</ele>
        <time>2021-07-02T07:08:13Z</time>
      </trkpt>
      <trkpt lat="42.213634" lon="2.661211">
        <ele>186.83990</ele>
        <time>2021-07-02T07:08:14Z</time>
      </trkpt>
      <trkpt lat="42.213634" lon="2.661211">
        <ele>185.96722</ele>
        <time>2021-07-02T07:08:15Z</time>
      </trkpt>
      <trkpt lat="42.213764" lon="2.660881">
        <ele>185.24091</ele>
        <time>2021-07-02T07:08:16Z</time>
      </trkpt>
      <trkpt lat="42.213890" lon="2.660559">
        <ele>187.48505</ele>
        <time>2021-07-02T07:08:17Z</time>
      </trkpt>
      <trkpt lat="42.214016" lon="2.660230">
        <ele>188.56885</ele>
        <time>2021-07-02T07:08:18Z</time>
      </trkpt>
      <trkpt lat="42.214142" lon="2.659895">
        <ele>188.85681</ele>
        <time>2021-07-02T07:08:19Z</time>
      </trkpt>
      <trkpt lat="42.214268" lon="2.659558">
        <ele>187.73840</ele>
        <time>2021-07-02T07:08:20Z</time>
      </trkpt>
      <trkpt lat="42.214390" lon="2.659230">
        <ele>187.51978</ele>
        <time>2021-07-02T07:08:21Z</time>
      </trkpt>
      <trkpt lat="42.214508" lon="2.658888">
        <ele>187.97229</ele>
        <time>2021-07-02T07:08:22Z</time>
      </trkpt>
      <trkpt lat="42.214642" lon="2.658519">
        <ele>187.83368</ele>
        <time>2021-07-02T07:08:23Z</time>
      </trkpt>
      <trkpt lat="42.214760" lon="2.658176">
        <ele>187.58344</ele>
        <time>2021-07-02T07:08:24Z</time>
      </trkpt>
      <trkpt lat="42.214878" lon="2.657828">
        <ele>187.39014</ele>
        <time>2021-07-02T07:08:25Z</time>
      </trkpt>
      <trkpt lat="42.215000" lon="2.657453">
        <ele>187.08624</ele>
        <time>2021-07-02T07:08:26Z</time>
      </trkpt>
      <trkpt lat="42.215118" lon="2.657077">
        <ele>187.42450</ele>
        <time>2021-07-02T07:08:27Z</time>
      </trkpt>
      <trkpt lat="42.215187" lon="2.656835">
        <ele>187.38275</ele>
        <time>2021-07-02T07:08:28Z</time>
      </trkpt>
      <trkpt lat="42.215191" lon="2.656834">
        <ele>186.97400</ele>
        <time>2021-07-02T07:08:29Z</time>
      </trkpt>
      <trkpt lat="42.215477" lon="2.656053">
        <ele>186.59247</ele>
        <time>2021-07-02T07:08:30Z</time>
      </trkpt>
      <trkpt lat="42.215603" lon="2.655635">
        <ele>186.31305</ele>
        <time>2021-07-02T07:08:31Z</time>
      </trkpt>
      <trkpt lat="42.215496" lon="2.655200">
        <ele>186.45459</ele>
        <time>2021-07-02T07:08:32Z</time>
      </trkpt>
      <trkpt lat="42.215538" lon="2.654817">
        <ele>186.41180</ele>
        <time>2021-07-02T07:08:33Z</time>
      </trkpt>
      <trkpt lat="42.215565" lon="2.654401">
        <ele>187.40344</ele>
        <time>2021-07-02T07:08:34Z</time>
      </trkpt>
      <trkpt lat="42.215572" lon="2.654028">
        <ele>187.89703</ele>
        <time>2021-07-02T07:08:35Z</time>
      </trkpt>
      <trkpt lat="42.215569" lon="2.653628">
        <ele>188.47089</ele>
        <time>2021-07-02T07:08:36Z</time>
      </trkpt>
      <trkpt lat="42.215557" lon="2.653256">
        <ele>188.63055</ele>
        <time>2021-07-02T07:08:37Z</time>
      </trkpt>
      <trkpt lat="42.215515" lon="2.652796">
        <ele>188.05231</ele>
        <time>2021-07-02T07:08:38Z</time>
      </trkpt>
      <trkpt lat="42.215473" lon="2.652375">
        <ele>187.28204</ele>
        <time>2021-07-02T07:08:39Z</time>
      </trkpt>
      <trkpt lat="42.215431" lon="2.651952">
        <ele>186.55963</ele>
        <time>2021-07-02T07:08:40Z</time>
      </trkpt>
      <trkpt lat="42.215389" lon="2.651565">
        <ele>186.26721</ele>
        <time>2021-07-02T07:08:41Z</time>
      </trkpt>
      <trkpt lat="42.215359" lon="2.651183">
        <ele>185.70599</ele>
        <time>2021-07-02T07:08:42Z</time>
      </trkpt>
      <trkpt lat="42.215359" lon="2.651183">
        <ele>185.64252</ele>
        <time>2021-07-02T07:08:43Z</time>
      </trkpt>
      <trkpt lat="42.215328" lon="2.650767">
        <ele>185.20538</ele>
        <time>2021-07-02T07:08:44Z</time>
      </trkpt>
      <trkpt lat="42.215321" lon="2.650362">
        <ele>185.27765</ele>
        <time>2021-07-02T07:08:45Z</time>
      </trkpt>
      <trkpt lat="42.215324" lon="2.649979">
        <ele>184.84894</ele>
        <time>2021-07-02T07:08:46Z</time>
      </trkpt>
      <trkpt lat="42.215359" lon="2.649551">
        <ele>185.40186</ele>
        <time>2021-07-02T07:08:47Z</time>
      </trkpt>
      <trkpt lat="42.215397" lon="2.649181">
        <ele>184.65265</ele>
        <time>2021-07-02T07:08:48Z</time>
      </trkpt>
      <trkpt lat="42.215454" lon="2.648783">
        <ele>184.35297</ele>
        <time>2021-07-02T07:08:49Z</time>
      </trkpt>
      <trkpt lat="42.215527" lon="2.648397">
        <ele>184.39642</ele>
        <time>2021-07-02T07:08:50Z</time>
      </trkpt>
      <trkpt lat="42.215618" lon="2.648028">
        <ele>184.82367</ele>
        <time>2021-07-02T07:08:51Z</time>
      </trkpt>
      <trkpt lat="42.215698" lon="2.647708">
        <ele>185.71661</ele>
        <time>2021-07-02T07:08:52Z</time>
      </trkpt>
      <trkpt lat="42.215771" lon="2.647454">
        <ele>185.68048</ele>
        <time>2021-07-02T07:08:53Z</time>
      </trkpt>
      <trkpt lat="42.215847" lon="2.647189">
        <ele>186.54266</ele>
        <time>2021-07-02T07:08:54Z</time>
      </trkpt>
      <trkpt lat="42.215912" lon="2.646933">
        <ele>186.52563</ele>
        <time>2021-07-02T07:08:55Z</time>
      </trkpt>
      <trkpt lat="42.215984" lon="2.646683">
        <ele>186.44562</ele>
        <time>2021-07-02T07:08:56Z</time>
      </trkpt>
      <trkpt lat="42.216057" lon="2.646436">
        <ele>186.96747</ele>
        <time>2021-07-02T07:08:57Z</time>
      </trkpt>
      <trkpt lat="42.216137" lon="2.646151">
        <ele>187.38794</ele>
        <time>2021-07-02T07:08:58Z</time>
      </trkpt>
      <trkpt lat="42.216209" lon="2.645884">
        <ele>188.15759</ele>
        <time>2021-07-02T07:08:59Z</time>
      </trkpt>
      <trkpt lat="42.216282" lon="2.645630">
        <ele>189.93115</ele>
        <time>2021-07-02T07:09:00Z</time>
      </trkpt>
      <trkpt lat="42.216354" lon="2.645365">
        <ele>189.33337</ele>
        <time>2021-07-02T07:09:01Z</time>
      </trkpt>
      <trkpt lat="42.216423" lon="2.645111">
        <ele>189.01355</ele>
        <time>2021-07-02T07:09:02Z</time>
      </trkpt>
      <trkpt lat="42.216496" lon="2.644854">
        <ele>189.15979</ele>
        <time>2021-07-02T07:09:03Z</time>
      </trkpt>
      <trkpt lat="42.216576" lon="2.644563">
        <ele>188.73248</ele>
        <time>2021-07-02T07:09:04Z</time>
      </trkpt>
      <trkpt lat="42.216640" lon="2.644296">
        <ele>188.75861</ele>
        <time>2021-07-02T07:09:05Z</time>
      </trkpt>
      <trkpt lat="42.216702" lon="2.644033">
        <ele>188.77130</ele>
        <time>2021-07-02T07:09:06Z</time>
      </trkpt>
      <trkpt lat="42.216755" lon="2.643752">
        <ele>188.78754</ele>
        <time>2021-07-02T07:09:07Z</time>
      </trkpt>
      <trkpt lat="42.216805" lon="2.643476">
        <ele>188.80579</ele>
        <time>2021-07-02T07:09:08Z</time>
      </trkpt>
      <trkpt lat="42.216835" lon="2.643213">
        <ele>188.82800</ele>
        <time>2021-07-02T07:09:09Z</time>
      </trkpt>
      <trkpt lat="42.216869" lon="2.642941">
        <ele>188.82800</ele>
        <time>2021-07-02T07:09:10Z</time>
      </trkpt>
      <trkpt lat="42.216888" lon="2.642778">
        <ele>188.82800</ele>
        <time>2021-07-02T07:09:11Z</time>
      </trkpt>
      <trkpt lat="42.216888" lon="2.642778">
        <ele>188.82800</ele>
        <time>2021-07-02T07:09:12Z</time>
      </trkpt>
      <trkpt lat="42.216888" lon="2.642778">
        <ele>188.82800</ele>
        <time>2021-07-02T07:09:13Z</time>
      </trkpt>
      <trkpt lat="42.216888" lon="2.642778">
        <ele>188.82800</ele>
        <time>2021-07-02T07:09:14Z</time>
      </trkpt>
      <trkpt lat="42.216888" lon="2.642778">
        <ele>188.82800</ele>
        <time>2021-07-02T07:09:15Z</time>
      </trkpt>
      <trkpt lat="42.216888" lon="2.642778">
        <ele>188.82800</ele>
        <time>2021-07-02T07:09:16Z</time>
      </trkpt>
      <trkpt lat="42.216888" lon="2.642778">
        <ele>188.88306</ele>
        <time>2021-07-02T07:09:17Z</time>
      </trkpt>
      <trkpt lat="42.216888" lon="2.642778">
        <ele>187.87463</ele>
        <time>2021-07-02T07:09:18Z</time>
      </trkpt>
      <trkpt lat="42.216927" lon="2.642340">
        <ele>187.40973</ele>
        <time>2021-07-02T07:09:19Z</time>
      </trkpt>
      <trkpt lat="42.216942" lon="2.641431">
        <ele>185.88843</ele>
        <time>2021-07-02T07:09:20Z</time>
      </trkpt>
      <trkpt lat="42.216930" lon="2.640622">
        <ele>186.61224</ele>
        <time>2021-07-02T07:09:21Z</time>
      </trkpt>
      <trkpt lat="42.216854" lon="2.639739">
        <ele>186.26300</ele>
        <time>2021-07-02T07:09:22Z</time>
      </trkpt>
      <trkpt lat="42.216782" lon="2.639154">
        <ele>184.96338</ele>
        <time>2021-07-02T07:09:23Z</time>
      </trkpt>
      <trkpt lat="42.216732" lon="2.638788">
        <ele>186.74719</ele>
        <time>2021-07-02T07:09:24Z</time>
      </trkpt>
      <trkpt lat="42.216686" lon="2.638416">
        <ele>187.38519</ele>
        <time>2021-07-02T07:09:25Z</time>
      </trkpt>
      <trkpt lat="42.216644" lon="2.638055">
        <ele>188.48956</ele>
        <time>2021-07-02T07:09:26Z</time>
      </trkpt>
      <trkpt lat="42.216610" lon="2.637685">
        <ele>188.52930</ele>
        <time>2021-07-02T07:09:27Z</time>
      </trkpt>
      <trkpt lat="42.216591" lon="2.637227">
        <ele>188.51605</ele>
        <time>2021-07-02T07:09:28Z</time>
      </trkpt>
      <trkpt lat="42.216576" lon="2.636832">
        <ele>189.34943</ele>
        <time>2021-07-02T07:09:29Z</time>
      </trkpt>
      <trkpt lat="42.216572" lon="2.636443">
        <ele>189.44318</ele>
        <time>2021-07-02T07:09:30Z</time>
      </trkpt>
      <trkpt lat="42.216583" lon="2.636057">
        <ele>189.48462</ele>
        <time>2021-07-02T07:09:31Z</time>
      </trkpt>
      <trkpt lat="42.216595" lon="2.635666">
        <ele>189.89825</ele>
        <time>2021-07-02T07:09:32Z</time>
      </trkpt>
      <trkpt lat="42.216610" lon="2.635282">
        <ele>190.22003</ele>
        <time>2021-07-02T07:09:33Z</time>
      </trkpt>
      <trkpt lat="42.216621" lon="2.634904">
        <ele>190.41937</ele>
        <time>2021-07-02T07:09:34Z</time>
      </trkpt>
      <trkpt lat="42.216633" lon="2.634501">
        <ele>191.09967</ele>
        <time>2021-07-02T07:09:35Z</time>
      </trkpt>
      <trkpt lat="42.216640" lon="2.634111">
        <ele>191.85883</ele>
        <time>2021-07-02T07:09:36Z</time>
      </trkpt>
      <trkpt lat="42.216640" lon="2.633737">
        <ele>193.02008</ele>
        <time>2021-07-02T07:09:37Z</time>
      </trkpt>
      <trkpt lat="42.216621" lon="2.633359">
        <ele>193.75519</ele>
        <time>2021-07-02T07:09:38Z</time>
      </trkpt>
      <trkpt lat="42.216591" lon="2.632988">
        <ele>193.86865</ele>
        <time>2021-07-02T07:09:39Z</time>
      </trkpt>
      <trkpt lat="42.216553" lon="2.632611">
        <ele>196.36206</ele>
        <time>2021-07-02T07:09:40Z</time>
      </trkpt>
      <trkpt lat="42.216496" lon="2.632242">
        <ele>197.30658</ele>
        <time>2021-07-02T07:09:41Z</time>
      </trkpt>
      <trkpt lat="42.216431" lon="2.631849">
        <ele>198.36334</ele>
        <time>2021-07-02T07:09:42Z</time>
      </trkpt>
      <trkpt lat="42.216339" lon="2.631465">
        <ele>198.88849</ele>
        <time>2021-07-02T07:09:43Z</time>
      </trkpt>
      <trkpt lat="42.216248" lon="2.631092">
        <ele>200.11853</ele>
        <time>2021-07-02T07:09:44Z</time>
      </trkpt>
      <trkpt lat="42.216148" lon="2.630754">
        <ele>200.75446</ele>
        <time>2021-07-02T07:09:45Z</time>
      </trkpt>
      <trkpt lat="42.216026" lon="2.630399">
        <ele>201.58344</ele>
        <time>2021-07-02T07:09:46Z</time>
      </trkpt>
      <trkpt lat="42.215897" lon="2.630062">
        <ele>202.39233</ele>
        <time>2021-07-02T07:09:47Z</time>
      </trkpt>
      <trkpt lat="42.215767" lon="2.629747">
        <ele>203.55719</ele>
        <time>2021-07-02T07:09:48Z</time>
      </trkpt>
      <trkpt lat="42.215618" lon="2.629430">
        <ele>203.77191</ele>
        <time>2021-07-02T07:09:49Z</time>
      </trkpt>
      <trkpt lat="42.215466" lon="2.629131">
        <ele>204.67377</ele>
        <time>2021-07-02T07:09:50Z</time>
      </trkpt>
      <trkpt lat="42.215305" lon="2.628842">
        <ele>204.95428</ele>
        <time>2021-07-02T07:09:51Z</time>
      </trkpt>
      <trkpt lat="42.215134" lon="2.628563">
        <ele>204.00641</ele>
        <time>2021-07-02T07:09:52Z</time>
      </trkpt>
      <trkpt lat="42.214954" lon="2.628286">
        <ele>204.02679</ele>
        <time>2021-07-02T07:09:53Z</time>
      </trkpt>
      <trkpt lat="42.214954" lon="2.628286">
        <ele>203.57172</ele>
        <time>2021-07-02T07:09:54Z</time>
      </trkpt>
      <trkpt lat="42.214756" lon="2.628001">
        <ele>203.56146</ele>
        <time>2021-07-02T07:09:55Z</time>
      </trkpt>
      <trkpt lat="42.214561" lon="2.627734">
        <ele>204.03589</ele>
        <time>2021-07-02T07:09:56Z</time>
      </trkpt>
      <trkpt lat="42.214348" lon="2.627443">
        <ele>205.90363</ele>
        <time>2021-07-02T07:09:57Z</time>
      </trkpt>
      <trkpt lat="42.214142" lon="2.627164">
        <ele>206.24884</ele>
        <time>2021-07-02T07:09:58Z</time>
      </trkpt>
      <trkpt lat="42.213947" lon="2.626898">
        <ele>206.09369</ele>
        <time>2021-07-02T07:09:59Z</time>
      </trkpt>
      <trkpt lat="42.213760" lon="2.626617">
        <ele>206.94000</ele>
        <time>2021-07-02T07:10:00Z</time>
      </trkpt>
      <trkpt lat="42.213581" lon="2.626336">
        <ele>208.08612</ele>
        <time>2021-07-02T07:10:01Z</time>
      </trkpt>
      <trkpt lat="42.213402" lon="2.626009">
        <ele>208.18115</ele>
        <time>2021-07-02T07:10:02Z</time>
      </trkpt>
      <trkpt lat="42.213207" lon="2.625629">
        <ele>207.44733</ele>
        <time>2021-07-02T07:10:03Z</time>
      </trkpt>
      <trkpt lat="42.213058" lon="2.625296">
        <ele>207.64447</ele>
        <time>2021-07-02T07:10:04Z</time>
      </trkpt>
      <trkpt lat="42.212914" lon="2.624941">
        <ele>208.74127</ele>
        <time>2021-07-02T07:10:05Z</time>
      </trkpt>
      <trkpt lat="42.212799" lon="2.624621">
        <ele>208.40778</ele>
        <time>2021-07-02T07:10:06Z</time>
      </trkpt>
      <trkpt lat="42.212673" lon="2.624224">
        <ele>208.53668</ele>
        <time>2021-07-02T07:10:07Z</time>
      </trkpt>
      <trkpt lat="42.212566" lon="2.623831">
        <ele>208.34363</ele>
        <time>2021-07-02T07:10:08Z</time>
      </trkpt>
      <trkpt lat="42.212471" lon="2.623438">
        <ele>208.35101</ele>
        <time>2021-07-02T07:10:09Z</time>
      </trkpt>
      <trkpt lat="42.212399" lon="2.623044">
        <ele>208.12213</ele>
        <time>2021-07-02T07:10:10Z</time>
      </trkpt>
      <trkpt lat="42.212341" lon="2.622649">
        <ele>207.47845</ele>
        <time>2021-07-02T07:10:11Z</time>
      </trkpt>
      <trkpt lat="42.212288" lon="2.622214">
        <ele>206.96722</ele>
        <time>2021-07-02T07:10:12Z</time>
      </trkpt>
      <trkpt lat="42.212261" lon="2.621774">
        <ele>206.25714</ele>
        <time>2021-07-02T07:10:13Z</time>
      </trkpt>
      <trkpt lat="42.212238" lon="2.621344">
        <ele>205.19171</ele>
        <time>2021-07-02T07:10:14Z</time>
      </trkpt>
      <trkpt lat="42.212242" lon="2.620921">
        <ele>204.01807</ele>
        <time>2021-07-02T07:10:15Z</time>
      </trkpt>
      <trkpt lat="42.212261" lon="2.620522">
        <ele>202.64624</ele>
        <time>2021-07-02T07:10:16Z</time>
      </trkpt>
      <trkpt lat="42.212288" lon="2.620150">
        <ele>202.15625</ele>
        <time>2021-07-02T07:10:17Z</time>
      </trkpt>
      <trkpt lat="42.212288" lon="2.620150">
        <ele>200.63568</ele>
        <time>2021-07-02T07:10:18Z</time>
      </trkpt>
      <trkpt lat="42.212334" lon="2.619700">
        <ele>199.89758</ele>
        <time>2021-07-02T07:10:19Z</time>
      </trkpt>
      <trkpt lat="42.212395" lon="2.619282">
        <ele>199.08075</ele>
        <time>2021-07-02T07:10:20Z</time>
      </trkpt>
      <trkpt lat="42.212452" lon="2.618864">
        <ele>198.34973</ele>
        <time>2021-07-02T07:10:21Z</time>
      </trkpt>
      <trkpt lat="42.212509" lon="2.618461">
        <ele>198.17535</ele>
        <time>2021-07-02T07:10:22Z</time>
      </trkpt>
      <trkpt lat="42.212566" lon="2.618060">
        <ele>197.23602</ele>
        <time>2021-07-02T07:10:23Z</time>
      </trkpt>
      <trkpt lat="42.212624" lon="2.617659">
        <ele>197.03119</ele>
        <time>2021-07-02T07:10:24Z</time>
      </trkpt>
      <trkpt lat="42.212681" lon="2.617247">
        <ele>197.49725</ele>
        <time>2021-07-02T07:10:25Z</time>
      </trkpt>
      <trkpt lat="42.212738" lon="2.616830">
        <ele>197.38910</ele>
        <time>2021-07-02T07:10:26Z</time>
      </trkpt>
      <trkpt lat="42.212746" lon="2.616758">
        <ele>196.15918</ele>
        <time>2021-07-02T07:10:27Z</time>
      </trkpt>
      <trkpt lat="42.212914" lon="2.616106">
        <ele>196.26837</ele>
        <time>2021-07-02T07:10:28Z</time>
      </trkpt>
      <trkpt lat="42.212997" lon="2.615623">
        <ele>195.98499</ele>
        <time>2021-07-02T07:10:29Z</time>
      </trkpt>
      <trkpt lat="42.213074" lon="2.615232">
        <ele>195.97876</ele>
        <time>2021-07-02T07:10:30Z</time>
      </trkpt>
      <trkpt lat="42.213173" lon="2.614804">
        <ele>195.78754</ele>
        <time>2021-07-02T07:10:31Z</time>
      </trkpt>
      <trkpt lat="42.213093" lon="2.614365">
        <ele>195.86700</ele>
        <time>2021-07-02T07:10:32Z</time>
      </trkpt>
      <trkpt lat="42.213150" lon="2.613925">
        <ele>193.73273</ele>
        <time>2021-07-02T07:10:33Z</time>
      </trkpt>
      <trkpt lat="42.213207" lon="2.613512">
        <ele>194.10400</ele>
        <time>2021-07-02T07:10:34Z</time>
      </trkpt>
      <trkpt lat="42.213268" lon="2.613070">
        <ele>193.49982</ele>
        <time>2021-07-02T07:10:35Z</time>
      </trkpt>
      <trkpt lat="42.213268" lon="2.613070">
        <ele>193.55713</ele>
        <time>2021-07-02T07:10:36Z</time>
      </trkpt>
      <trkpt lat="42.213345" lon="2.612533">
        <ele>193.98956</ele>
        <time>2021-07-02T07:10:37Z</time>
      </trkpt>
      <trkpt lat="42.213402" lon="2.612161">
        <ele>194.02148</ele>
        <time>2021-07-02T07:10:38Z</time>
      </trkpt>
      <trkpt lat="42.213455" lon="2.611774">
        <ele>193.43671</ele>
        <time>2021-07-02T07:10:39Z</time>
      </trkpt>
      <trkpt lat="42.213509" lon="2.611366">
        <ele>194.49298</ele>
        <time>2021-07-02T07:10:40Z</time>
      </trkpt>
      <trkpt lat="42.213562" lon="2.611000">
        <ele>194.99329</ele>
        <time>2021-07-02T07:10:41Z</time>
      </trkpt>
      <trkpt lat="42.213615" lon="2.610638">
        <ele>194.86737</ele>
        <time>2021-07-02T07:10:42Z</time>
      </trkpt>
      <trkpt lat="42.213676" lon="2.610248">
        <ele>195.00519</ele>
        <time>2021-07-02T07:10:43Z</time>
      </trkpt>
      <trkpt lat="42.213734" lon="2.609876">
        <ele>195.34570</ele>
        <time>2021-07-02T07:10:44Z</time>
      </trkpt>
      <trkpt lat="42.213806" lon="2.609507">
        <ele>195.58313</ele>
        <time>2021-07-02T07:10:45Z</time>
      </trkpt>
      <trkpt lat="42.213882" lon="2.609097">
        <ele>196.90643</ele>
        <time>2021-07-02T07:10:46Z</time>
      </trkpt>
      <trkpt lat="42.213974" lon="2.608738">
        <ele>198.42542</ele>
        <time>2021-07-02T07:10:47Z</time>
      </trkpt>
      <trkpt lat="42.214085" lon="2.608348">
        <ele>199.01447</ele>
        <time>2021-07-02T07:10:48Z</time>
      </trkpt>
      <trkpt lat="42.214172" lon="2.608034">
        <ele>200.32434</ele>
        <time>2021-07-02T07:10:49Z</time>
      </trkpt>
      <trkpt lat="42.214283" lon="2.607701">
        <ele>201.82538</ele>
        <time>2021-07-02T07:10:50Z</time>
      </trkpt>
      <trkpt lat="42.214397" lon="2.607374">
        <ele>202.59808</ele>
        <time>2021-07-02T07:10:51Z</time>
      </trkpt>
      <trkpt lat="42.214512" lon="2.607088">
        <ele>205.43665</ele>
        <time>2021-07-02T07:10:52Z</time>
      </trkpt>
      <trkpt lat="42.214634" lon="2.606771">
        <ele>205.97754</ele>
        <time>2021-07-02T07:10:53Z</time>
      </trkpt>
      <trkpt lat="42.214710" lon="2.606585">
        <ele>207.65790</ele>
        <time>2021-07-02T07:10:54Z</time>
      </trkpt>
      <trkpt lat="42.214836" lon="2.606267">
        <ele>210.68756</ele>
        <time>2021-07-02T07:10:55Z</time>
      </trkpt>
      <trkpt lat="42.214939" lon="2.605995">
        <ele>213.10455</ele>
        <time>2021-07-02T07:10:56Z</time>
      </trkpt>
      <trkpt lat="42.215050" lon="2.605708">
        <ele>215.05719</ele>
        <time>2021-07-02T07:10:57Z</time>
      </trkpt>
      <trkpt lat="42.215160" lon="2.605417">
        <ele>215.65619</ele>
        <time>2021-07-02T07:10:58Z</time>
      </trkpt>
      <trkpt lat="42.215260" lon="2.605120">
        <ele>216.16266</ele>
        <time>2021-07-02T07:10:59Z</time>
      </trkpt>
      <trkpt lat="42.215347" lon="2.604818">
        <ele>216.14240</ele>
        <time>2021-07-02T07:11:00Z</time>
      </trkpt>
      <trkpt lat="42.215427" lon="2.604519">
        <ele>216.14240</ele>
        <time>2021-07-02T07:11:01Z</time>
      </trkpt>
      <trkpt lat="42.215473" lon="2.604353">
        <ele>216.14240</ele>
        <time>2021-07-02T07:11:02Z</time>
      </trkpt>
      <trkpt lat="42.215473" lon="2.604353">
        <ele>216.14240</ele>
        <time>2021-07-02T07:11:03Z</time>
      </trkpt>
      <trkpt lat="42.215473" lon="2.604353">
        <ele>216.14240</ele>
        <time>2021-07-02T07:11:04Z</time>
      </trkpt>
      <trkpt lat="42.215473" lon="2.604353">
        <ele>216.14240</ele>
        <time>2021-07-02T07:11:05Z</time>
      </trkpt>
      <trkpt lat="42.215473" lon="2.604353">
        <ele>216.14240</ele>
        <time>2021-07-02T07:11:06Z</time>
      </trkpt>
      <trkpt lat="42.215473" lon="2.604353">
        <ele>216.14240</ele>
        <time>2021-07-02T07:11:07Z</time>
      </trkpt>
      <trkpt lat="42.215473" lon="2.604353">
        <ele>216.14240</ele>
        <time>2021-07-02T07:11:08Z</time>
      </trkpt>
      <trkpt lat="42.215473" lon="2.604353">
        <ele>216.14240</ele>
        <time>2021-07-02T07:11:09Z</time>
      </trkpt>
      <trkpt lat="42.215473" lon="2.604353">
        <ele>216.14240</ele>
        <time>2021-07-02T07:11:10Z</time>
      </trkpt>
      <trkpt lat="42.215473" lon="2.604353">
        <ele>216.14240</ele>
        <time>2021-07-02T07:11:11Z</time>
      </trkpt>
      <trkpt lat="42.215473" lon="2.604353">
        <ele>217.22101</ele>
        <time>2021-07-02T07:11:12Z</time>
      </trkpt>
      <trkpt lat="42.215473" lon="2.604353">
        <ele>217.45062</ele>
        <time>2021-07-02T07:11:13Z</time>
      </trkpt>
      <trkpt lat="42.215801" lon="2.600797">
        <ele>222.31470</ele>
        <time>2021-07-02T07:11:14Z</time>
      </trkpt>
      <trkpt lat="42.215824" lon="2.600466">
        <ele>224.41699</ele>
        <time>2021-07-02T07:11:15Z</time>
      </trkpt>
      <trkpt lat="42.215847" lon="2.600127">
        <ele>226.18744</ele>
        <time>2021-07-02T07:11:16Z</time>
      </trkpt>
      <trkpt lat="42.215870" lon="2.599807">
        <ele>228.66541</ele>
        <time>2021-07-02T07:11:17Z</time>
      </trkpt>
      <trkpt lat="42.215900" lon="2.599497">
        <ele>229.62946</ele>
        <time>2021-07-02T07:11:18Z</time>
      </trkpt>
      <trkpt lat="42.215939" lon="2.599161">
        <ele>230.71967</ele>
        <time>2021-07-02T07:11:19Z</time>
      </trkpt>
      <trkpt lat="42.215973" lon="2.598834">
        <ele>233.85944</ele>
        <time>2021-07-02T07:11:20Z</time>
      </trkpt>
      <trkpt lat="42.216019" lon="2.598485">
        <ele>235.23871</ele>
        <time>2021-07-02T07:11:21Z</time>
      </trkpt>
      <trkpt lat="42.216061" lon="2.598160">
        <ele>234.53023</ele>
        <time>2021-07-02T07:11:22Z</time>
      </trkpt>
      <trkpt lat="42.216114" lon="2.597818">
        <ele>238.09700</ele>
        <time>2021-07-02T07:11:23Z</time>
      </trkpt>
      <trkpt lat="42.216179" lon="2.597455">
        <ele>240.54329</ele>
        <time>2021-07-02T07:11:24Z</time>
      </trkpt>
      <trkpt lat="42.216244" lon="2.597124">
        <ele>241.92189</ele>
        <time>2021-07-02T07:11:25Z</time>
      </trkpt>
      <trkpt lat="42.216316" lon="2.596768">
        <ele>242.89552</ele>
        <time>2021-07-02T07:11:26Z</time>
      </trkpt>
      <trkpt lat="42.216396" lon="2.596379">
        <ele>243.94319</ele>
        <time>2021-07-02T07:11:27Z</time>
      </trkpt>
      <trkpt lat="42.216480" lon="2.596011">
        <ele>245.56996</ele>
        <time>2021-07-02T07:11:28Z</time>
      </trkpt>
      <trkpt lat="42.216564" lon="2.595635">
        <ele>247.30879</ele>
        <time>2021-07-02T07:11:29Z</time>
      </trkpt>
      <trkpt lat="42.216652" lon="2.595265">
        <ele>247.56148</ele>
        <time>2021-07-02T07:11:30Z</time>
      </trkpt>
      <trkpt lat="42.216736" lon="2.594898">
        <ele>248.44167</ele>
        <time>2021-07-02T07:11:31Z</time>
      </trkpt>
      <trkpt lat="42.216820" lon="2.594543">
        <ele>248.60823</ele>
        <time>2021-07-02T07:11:32Z</time>
      </trkpt>
      <trkpt lat="42.216911" lon="2.594164">
        <ele>249.83644</ele>
        <time>2021-07-02T07:11:33Z</time>
      </trkpt>
      <trkpt lat="42.216995" lon="2.593804">
        <ele>249.67366</ele>
        <time>2021-07-02T07:11:34Z</time>
      </trkpt>
      <trkpt lat="42.217091" lon="2.593419">
        <ele>249.68422</ele>
        <time>2021-07-02T07:11:35Z</time>
      </trkpt>
      <trkpt lat="42.217178" lon="2.593046">
        <ele>252.17006</ele>
        <time>2021-07-02T07:11:36Z</time>
      </trkpt>
      <trkpt lat="42.217262" lon="2.592687">
        <ele>252.33107</ele>
        <time>2021-07-02T07:11:37Z</time>
      </trkpt>
      <trkpt lat="42.217354" lon="2.592309">
        <ele>253.24025</ele>
        <time>2021-07-02T07:11:38Z</time>
      </trkpt>
      <trkpt lat="42.217438" lon="2.591948">
        <ele>253.55537</ele>
        <time>2021-07-02T07:11:39Z</time>
      </trkpt>
      <trkpt lat="42.217529" lon="2.591557">
        <ele>253.94093</ele>
        <time>2021-07-02T07:11:40Z</time>
      </trkpt>
      <trkpt lat="42.217621" lon="2.591169">
        <ele>253.81685</ele>
        <time>2021-07-02T07:11:41Z</time>
      </trkpt>
      <trkpt lat="42.217709" lon="2.590796">
        <ele>253.99586</ele>
        <time>2021-07-02T07:11:42Z</time>
      </trkpt>
      <trkpt lat="42.217709" lon="2.590796">
        <ele>253.91994</ele>
        <time>2021-07-02T07:11:43Z</time>
      </trkpt>
      <trkpt lat="42.217793" lon="2.590429">
        <ele>255.79677</ele>
        <time>2021-07-02T07:11:44Z</time>
      </trkpt>
      <trkpt lat="42.217880" lon="2.590062">
        <ele>256.09061</ele>
        <time>2021-07-02T07:11:45Z</time>
      </trkpt>
      <trkpt lat="42.217964" lon="2.589696">
        <ele>256.17838</ele>
        <time>2021-07-02T07:11:46Z</time>
      </trkpt>
      <trkpt lat="42.218060" lon="2.589291">
        <ele>255.93153</ele>
        <time>2021-07-02T07:11:47Z</time>
      </trkpt>
      <trkpt lat="42.218155" lon="2.588896">
        <ele>257.00613</ele>
        <time>2021-07-02T07:11:48Z</time>
      </trkpt>
      <trkpt lat="42.218243" lon="2.588526">
        <ele>256.50455</ele>
        <time>2021-07-02T07:11:49Z</time>
      </trkpt>
      <trkpt lat="42.218327" lon="2.588170">
        <ele>258.34506</ele>
        <time>2021-07-02T07:11:50Z</time>
      </trkpt>
      <trkpt lat="42.218410" lon="2.587826">
        <ele>258.82327</ele>
        <time>2021-07-02T07:11:51Z</time>
      </trkpt>
      <trkpt lat="42.218494" lon="2.587470">
        <ele>259.73416</ele>
        <time>2021-07-02T07:11:52Z</time>
      </trkpt>
      <trkpt lat="42.218582" lon="2.587088">
        <ele>259.64725</ele>
        <time>2021-07-02T07:11:53Z</time>
      </trkpt>
      <trkpt lat="42.218670" lon="2.586722">
        <ele>260.57205</ele>
        <time>2021-07-02T07:11:54Z</time>
      </trkpt>
      <trkpt lat="42.218758" lon="2.586352">
        <ele>260.45963</ele>
        <time>2021-07-02T07:11:55Z</time>
      </trkpt>
      <trkpt lat="42.218838" lon="2.586004">
        <ele>260.41855</ele>
        <time>2021-07-02T07:11:56Z</time>
      </trkpt>
      <trkpt lat="42.218914" lon="2.585673">
        <ele>260.23209</ele>
        <time>2021-07-02T07:11:57Z</time>
      </trkpt>
      <trkpt lat="42.218994" lon="2.585328">
        <ele>260.44241</ele>
        <time>2021-07-02T07:11:58Z</time>
      </trkpt>
      <trkpt lat="42.219021" lon="2.585221">
        <ele>259.96793</ele>
        <time>2021-07-02T07:11:59Z</time>
      </trkpt>
      <trkpt lat="42.219200" lon="2.584763">
        <ele>260.57553</ele>
        <time>2021-07-02T07:12:00Z</time>
      </trkpt>
      <trkpt lat="42.219330" lon="2.584352">
        <ele>260.66525</ele>
        <time>2021-07-02T07:12:01Z</time>
      </trkpt>
      <trkpt lat="42.219456" lon="2.584022">
        <ele>260.66299</ele>
        <time>2021-07-02T07:12:02Z</time>
      </trkpt>
      <trkpt lat="42.219425" lon="2.583573">
        <ele>261.44083</ele>
        <time>2021-07-02T07:12:03Z</time>
      </trkpt>
      <trkpt lat="42.219521" lon="2.583235">
        <ele>262.44485</ele>
        <time>2021-07-02T07:12:04Z</time>
      </trkpt>
      <trkpt lat="42.219639" lon="2.582844">
        <ele>262.42355</ele>
        <time>2021-07-02T07:12:05Z</time>
      </trkpt>
      <trkpt lat="42.219749" lon="2.582482">
        <ele>261.62411</ele>
        <time>2021-07-02T07:12:06Z</time>
      </trkpt>
      <trkpt lat="42.219887" lon="2.582039">
        <ele>264.43851</ele>
        <time>2021-07-02T07:12:07Z</time>
      </trkpt>
      <trkpt lat="42.220009" lon="2.581681">
        <ele>264.36154</ele>
        <time>2021-07-02T07:12:08Z</time>
      </trkpt>
      <trkpt lat="42.220127" lon="2.581331">
        <ele>262.29965</ele>
        <time>2021-07-02T07:12:09Z</time>
      </trkpt>
      <trkpt lat="42.220245" lon="2.580996">
        <ele>261.61026</ele>
        <time>2021-07-02T07:12:10Z</time>
      </trkpt>
      <trkpt lat="42.220245" lon="2.580996">
        <ele>262.40421</ele>
        <time>2021-07-02T07:12:11Z</time>
      </trkpt>
      <trkpt lat="42.220394" lon="2.580609">
        <ele>264.38144</ele>
        <time>2021-07-02T07:12:12Z</time>
      </trkpt>
      <trkpt lat="42.220531" lon="2.580261">
        <ele>264.89322</ele>
        <time>2021-07-02T07:12:13Z</time>
      </trkpt>
      <trkpt lat="42.220669" lon="2.579928">
        <ele>264.21402</ele>
        <time>2021-07-02T07:12:14Z</time>
      </trkpt>
      <trkpt lat="42.220814" lon="2.579573">
        <ele>264.29117</ele>
        <time>2021-07-02T07:12:15Z</time>
      </trkpt>
      <trkpt lat="42.220959" lon="2.579211">
        <ele>264.36545</ele>
        <time>2021-07-02T07:12:16Z</time>
      </trkpt>
      <trkpt lat="42.221100" lon="2.578855">
        <ele>263.77078</ele>
        <time>2021-07-02T07:12:17Z</time>
      </trkpt>
      <trkpt lat="42.221241" lon="2.578489">
        <ele>263.27365</ele>
        <time>2021-07-02T07:12:18Z</time>
      </trkpt>
      <trkpt lat="42.221371" lon="2.578140">
        <ele>262.90762</ele>
        <time>2021-07-02T07:12:19Z</time>
      </trkpt>
      <trkpt lat="42.221493" lon="2.577789">
        <ele>263.17197</ele>
        <time>2021-07-02T07:12:20Z</time>
      </trkpt>
      <trkpt lat="42.221603" lon="2.577407">
        <ele>262.34811</ele>
        <time>2021-07-02T07:12:21Z</time>
      </trkpt>
      <trkpt lat="42.221699" lon="2.577031">
        <ele>262.78641</ele>
        <time>2021-07-02T07:12:22Z</time>
      </trkpt>
      <trkpt lat="42.221771" lon="2.576654">
        <ele>263.05728</ele>
        <time>2021-07-02T07:12:23Z</time>
      </trkpt>
      <trkpt lat="42.221832" lon="2.576293">
        <ele>263.25235</ele>
        <time>2021-07-02T07:12:24Z</time>
      </trkpt>
      <trkpt lat="42.221882" lon="2.575895">
        <ele>263.73514</ele>
        <time>2021-07-02T07:12:25Z</time>
      </trkpt>
      <trkpt lat="42.221916" lon="2.575509">
        <ele>262.54227</ele>
        <time>2021-07-02T07:12:26Z</time>
      </trkpt>
      <trkpt lat="42.221935" lon="2.575124">
        <ele>261.86325</ele>
        <time>2021-07-02T07:12:27Z</time>
      </trkpt>
      <trkpt lat="42.221935" lon="2.574727">
        <ele>261.71207</ele>
        <time>2021-07-02T07:12:28Z</time>
      </trkpt>
      <trkpt lat="42.221916" lon="2.574341">
        <ele>262.65158</ele>
        <time>2021-07-02T07:12:29Z</time>
      </trkpt>
      <trkpt lat="42.221893" lon="2.573955">
        <ele>262.29221</ele>
        <time>2021-07-02T07:12:30Z</time>
      </trkpt>
      <trkpt lat="42.221851" lon="2.573603">
        <ele>262.84146</ele>
        <time>2021-07-02T07:12:31Z</time>
      </trkpt>
      <trkpt lat="42.221798" lon="2.573255">
        <ele>262.90518</ele>
        <time>2021-07-02T07:12:32Z</time>
      </trkpt>
      <trkpt lat="42.221729" lon="2.572895">
        <ele>263.53946</ele>
        <time>2021-07-02T07:12:33Z</time>
      </trkpt>
      <trkpt lat="42.221649" lon="2.572532">
        <ele>263.80246</ele>
        <time>2021-07-02T07:12:34Z</time>
      </trkpt>
      <trkpt lat="42.221569" lon="2.572233">
        <ele>265.04922</ele>
        <time>2021-07-02T07:12:35Z</time>
      </trkpt>
      <trkpt lat="42.221470" lon="2.571910">
        <ele>264.59940</ele>
        <time>2021-07-02T07:12:36Z</time>
      </trkpt>
      <trkpt lat="42.221355" lon="2.571586">
        <ele>262.50143</ele>
        <time>2021-07-02T07:12:37Z</time>
      </trkpt>
      <trkpt lat="42.221237" lon="2.571282">
        <ele>262.30777</ele>
        <time>2021-07-02T07:12:38Z</time>
      </trkpt>
      <trkpt lat="42.221115" lon="2.570999">
        <ele>262.22806</ele>
        <time>2021-07-02T07:12:39Z</time>
      </trkpt>
      <trkpt lat="42.220974" lon="2.570729">
        <ele>262.41666</ele>
        <time>2021-07-02T07:12:40Z</time>
      </trkpt>
      <trkpt lat="42.220837" lon="2.570461">
        <ele>264.13467</ele>
        <time>2021-07-02T07:12:41Z</time>
      </trkpt>
      <trkpt lat="42.220837" lon="2.570461">
        <ele>264.65201</ele>
        <time>2021-07-02T07:12:42Z</time>
      </trkpt>
      <trkpt lat="42.220680" lon="2.570185">
        <ele>265.72330</ele>
        <time>2021-07-02T07:12:43Z</time>
      </trkpt>
      <trkpt lat="42.220535" lon="2.569927">
        <ele>267.92508</ele>
        <time>2021-07-02T07:12:44Z</time>
      </trkpt>
      <trkpt lat="42.220379" lon="2.569651">
        <ele>268.80411</ele>
        <time>2021-07-02T07:12:45Z</time>
      </trkpt>
      <trkpt lat="42.220215" lon="2.569368">
        <ele>270.07303</ele>
        <time>2021-07-02T07:12:46Z</time>
      </trkpt>
      <trkpt lat="42.220062" lon="2.569097">
        <ele>271.35928</ele>
        <time>2021-07-02T07:12:47Z</time>
      </trkpt>
      <trkpt lat="42.219917" lon="2.568844">
        <ele>272.91177</ele>
        <time>2021-07-02T07:12:48Z</time>
      </trkpt>
      <trkpt lat="42.219772" lon="2.568596">
        <ele>272.85037</ele>
        <time>2021-07-02T07:12:49Z</time>
      </trkpt>
      <trkpt lat="42.219631" lon="2.568349">
        <ele>273.72867</ele>
        <time>2021-07-02T07:12:50Z</time>
      </trkpt>
      <trkpt lat="42.219486" lon="2.568094">
        <ele>273.95474</ele>
        <time>2021-07-02T07:12:51Z</time>
      </trkpt>
      <trkpt lat="42.219353" lon="2.567857">
        <ele>275.95700</ele>
        <time>2021-07-02T07:12:52Z</time>
      </trkpt>
      <trkpt lat="42.219215" lon="2.567624">
        <ele>276.41574</ele>
        <time>2021-07-02T07:12:53Z</time>
      </trkpt>
      <trkpt lat="42.219093" lon="2.567406">
        <ele>277.64175</ele>
        <time>2021-07-02T07:12:54Z</time>
      </trkpt>
      <trkpt lat="42.218945" lon="2.567145">
        <ele>279.26828</ele>
        <time>2021-07-02T07:12:55Z</time>
      </trkpt>
      <trkpt lat="42.218822" lon="2.566932">
        <ele>279.02591</ele>
        <time>2021-07-02T07:12:56Z</time>
      </trkpt>
      <trkpt lat="42.218697" lon="2.566712">
        <ele>279.25302</ele>
        <time>2021-07-02T07:12:57Z</time>
      </trkpt>
      <trkpt lat="42.218575" lon="2.566495">
        <ele>280.18448</ele>
        <time>2021-07-02T07:12:58Z</time>
      </trkpt>
      <trkpt lat="42.218441" lon="2.566266">
        <ele>275.68875</ele>
        <time>2021-07-02T07:12:59Z</time>
      </trkpt>
      <trkpt lat="42.218323" lon="2.566058">
        <ele>276.21060</ele>
        <time>2021-07-02T07:13:00Z</time>
      </trkpt>
      <trkpt lat="42.218201" lon="2.565840">
        <ele>275.96988</ele>
        <time>2021-07-02T07:13:01Z</time>
      </trkpt>
      <trkpt lat="42.218079" lon="2.565627">
        <ele>277.23367</ele>
        <time>2021-07-02T07:13:02Z</time>
      </trkpt>
      <trkpt lat="42.217960" lon="2.565425">
        <ele>277.88882</ele>
        <time>2021-07-02T07:13:03Z</time>
      </trkpt>
      <trkpt lat="42.217854" lon="2.565238">
        <ele>279.40494</ele>
        <time>2021-07-02T07:13:04Z</time>
      </trkpt>
      <trkpt lat="42.217735" lon="2.565029">
        <ele>280.28842</ele>
        <time>2021-07-02T07:13:05Z</time>
      </trkpt>
      <trkpt lat="42.217625" lon="2.564819">
        <ele>282.65231</ele>
        <time>2021-07-02T07:13:06Z</time>
      </trkpt>
      <trkpt lat="42.217514" lon="2.564599">
        <ele>284.16104</ele>
        <time>2021-07-02T07:13:07Z</time>
      </trkpt>
      <trkpt lat="42.217411" lon="2.564398">
        <ele>286.95157</ele>
        <time>2021-07-02T07:13:08Z</time>
      </trkpt>
      <trkpt lat="42.217411" lon="2.564398">
        <ele>287.81943</ele>
        <time>2021-07-02T07:13:09Z</time>
      </trkpt>
      <trkpt lat="42.217304" lon="2.564190">
        <ele>288.70114</ele>
        <time>2021-07-02T07:13:10Z</time>
      </trkpt>
      <trkpt lat="42.217194" lon="2.563979">
        <ele>289.43265</ele>
        <time>2021-07-02T07:13:11Z</time>
      </trkpt>
      <trkpt lat="42.217091" lon="2.563762">
        <ele>290.32230</ele>
        <time>2021-07-02T07:13:12Z</time>
      </trkpt>
      <trkpt lat="42.216991" lon="2.563561">
        <ele>290.18460</ele>
        <time>2021-07-02T07:13:13Z</time>
      </trkpt>
      <trkpt lat="42.216888" lon="2.563356">
        <ele>290.18460</ele>
        <time>2021-07-02T07:13:14Z</time>
      </trkpt>
      <trkpt lat="42.216782" lon="2.563133">
        <ele>290.18460</ele>
        <time>2021-07-02T07:13:15Z</time>
      </trkpt>
      <trkpt lat="42.216751" lon="2.563076">
        <ele>290.18460</ele>
        <time>2021-07-02T07:13:16Z</time>
      </trkpt>
      <trkpt lat="42.216751" lon="2.563076">
        <ele>290.18460</ele>
        <time>2021-07-02T07:13:17Z</time>
      </trkpt>
      <trkpt lat="42.216751" lon="2.563076">
        <ele>290.18460</ele>
        <time>2021-07-02T07:13:18Z</time>
      </trkpt>
      <trkpt lat="42.216751" lon="2.563076">
        <ele>290.18460</ele>
        <time>2021-07-02T07:13:19Z</time>
      </trkpt>
      <trkpt lat="42.216751" lon="2.563076">
        <ele>290.18460</ele>
        <time>2021-07-02T07:13:20Z</time>
      </trkpt>
      <trkpt lat="42.216751" lon="2.563076">
        <ele>290.18460</ele>
        <time>2021-07-02T07:13:21Z</time>
      </trkpt>
      <trkpt lat="42.216751" lon="2.563076">
        <ele>290.18460</ele>
        <time>2021-07-02T07:13:22Z</time>
      </trkpt>
      <trkpt lat="42.216751" lon="2.563076">
        <ele>290.18460</ele>
        <time>2021-07-02T07:13:23Z</time>
      </trkpt>
      <trkpt lat="42.216751" lon="2.563076">
        <ele>290.18460</ele>
        <time>2021-07-02T07:13:24Z</time>
      </trkpt>
      <trkpt lat="42.216751" lon="2.563076">
        <ele>290.18460</ele>
        <time>2021-07-02T07:13:25Z</time>
      </trkpt>
      <trkpt lat="42.216751" lon="2.563076">
        <ele>290.18460</ele>
        <time>2021-07-02T07:13:26Z</time>
      </trkpt>
      <trkpt lat="42.216751" lon="2.563076">
        <ele>290.18460</ele>
        <time>2021-07-02T07:13:27Z</time>
      </trkpt>
      <trkpt lat="42.216751" lon="2.563076">
        <ele>290.18460</ele>
        <time>2021-07-02T07:13:28Z</time>
      </trkpt>
      <trkpt lat="42.216751" lon="2.563076">
        <ele>290.18460</ele>
        <time>2021-07-02T07:13:29Z</time>
      </trkpt>
      <trkpt lat="42.216751" lon="2.563076">
        <ele>290.18460</ele>
        <time>2021-07-02T07:13:30Z</time>
      </trkpt>
      <trkpt lat="42.216751" lon="2.563076">
        <ele>290.18460</ele>
        <time>2021-07-02T07:13:31Z</time>
      </trkpt>
      <trkpt lat="42.216751" lon="2.563076">
        <ele>290.18460</ele>
        <time>2021-07-02T07:13:32Z</time>
      </trkpt>
      <trkpt lat="42.216751" lon="2.563076">
        <ele>290.18460</ele>
        <time>2021-07-02T07:13:33Z</time>
      </trkpt>
      <trkpt lat="42.216751" lon="2.563076">
        <ele>290.18460</ele>
        <time>2021-07-02T07:13:34Z</time>
      </trkpt>
      <trkpt lat="42.216751" lon="2.563076">
        <ele>290.18460</ele>
        <time>2021-07-02T07:13:35Z</time>
      </trkpt>
      <trkpt lat="42.216751" lon="2.563076">
        <ele>291.40851</ele>
        <time>2021-07-02T07:13:36Z</time>
      </trkpt>
      <trkpt lat="42.216751" lon="2.563076">
        <ele>291.40851</ele>
        <time>2021-07-02T07:13:37Z</time>
      </trkpt>
      <trkpt lat="42.215054" lon="2.559356">
        <ele>291.40851</ele>
        <time>2021-07-02T07:13:38Z</time>
      </trkpt>
      <trkpt lat="42.215054" lon="2.559356">
        <ele>291.40851</ele>
        <time>2021-07-02T07:13:39Z</time>
      </trkpt>
      <trkpt lat="42.215054" lon="2.559356">
        <ele>291.40851</ele>
        <time>2021-07-02T07:13:40Z</time>
      </trkpt>
      <trkpt lat="42.215054" lon="2.559356">
        <ele>291.40851</ele>
        <time>2021-07-02T07:13:41Z</time>
      </trkpt>
      <trkpt lat="42.215054" lon="2.559356">
        <ele>291.40851</ele>
        <time>2021-07-02T07:13:42Z</time>
      </trkpt>
      <trkpt lat="42.215054" lon="2.559356">
        <ele>291.40851</ele>
        <time>2021-07-02T07:13:43Z</time>
      </trkpt>
      <trkpt lat="42.215054" lon="2.559356">
        <ele>291.40851</ele>
        <time>2021-07-02T07:13:44Z</time>
      </trkpt>
      <trkpt lat="42.215054" lon="2.559356">
        <ele>291.40851</ele>
        <time>2021-07-02T07:13:45Z</time>
      </trkpt>
      <trkpt lat="42.215054" lon="2.559356">
        <ele>291.40851</ele>
        <time>2021-07-02T07:13:46Z</time>
      </trkpt>
      <trkpt lat="42.215054" lon="2.559356">
        <ele>287.61032</ele>
        <time>2021-07-02T07:13:47Z</time>
      </trkpt>
      <trkpt lat="42.214462" lon="2.555467">
        <ele>289.85214</ele>
        <time>2021-07-02T07:13:48Z</time>
      </trkpt>
      <trkpt lat="42.214466" lon="2.555199">
        <ele>290.24771</ele>
        <time>2021-07-02T07:13:49Z</time>
      </trkpt>
      <trkpt lat="42.214474" lon="2.554918">
        <ele>290.46085</ele>
        <time>2021-07-02T07:13:50Z</time>
      </trkpt>
      <trkpt lat="42.214474" lon="2.554918">
        <ele>290.46085</ele>
        <time>2021-07-02T07:13:51Z</time>
      </trkpt>
      <trkpt lat="42.214485" lon="2.554652">
        <ele>290.46085</ele>
        <time>2021-07-02T07:13:52Z</time>
      </trkpt>
      <trkpt lat="42.214489" lon="2.554532">
        <ele>290.46085</ele>
        <time>2021-07-02T07:13:53Z</time>
      </trkpt>
      <trkpt lat="42.214489" lon="2.554532">
        <ele>290.46085</ele>
        <time>2021-07-02T07:13:54Z</time>
      </trkpt>
      <trkpt lat="42.214489" lon="2.554532">
        <ele>290.46085</ele>
        <time>2021-07-02T07:13:55Z</time>
      </trkpt>
      <trkpt lat="42.214489" lon="2.554532">
        <ele>290.46085</ele>
        <time>2021-07-02T07:13:56Z</time>
      </trkpt>
      <trkpt lat="42.214489" lon="2.554532">
        <ele>290.46085</ele>
        <time>2021-07-02T07:13:57Z</time>
      </trkpt>
      <trkpt lat="42.214489" lon="2.554532">
        <ele>290.46085</ele>
        <time>2021-07-02T07:13:58Z</time>
      </trkpt>
      <trkpt lat="42.214489" lon="2.554532">
        <ele>290.46085</ele>
        <time>2021-07-02T07:13:59Z</time>
      </trkpt>
      <trkpt lat="42.214489" lon="2.554532">
        <ele>290.46085</ele>
        <time>2021-07-02T07:14:00Z</time>
      </trkpt>
      <trkpt lat="42.214489" lon="2.554532">
        <ele>290.46085</ele>
        <time>2021-07-02T07:14:01Z</time>
      </trkpt>
      <trkpt lat="42.214489" lon="2.554532">
        <ele>290.46085</ele>
        <time>2021-07-02T07:14:02Z</time>
      </trkpt>
      <trkpt lat="42.214489" lon="2.554532">
        <ele>290.46085</ele>
        <time>2021-07-02T07:14:03Z</time>
      </trkpt>
      <trkpt lat="42.214489" lon="2.554532">
        <ele>290.46085</ele>
        <time>2021-07-02T07:14:04Z</time>
      </trkpt>
      <trkpt lat="42.214489" lon="2.554532">
        <ele>290.46085</ele>
        <time>2021-07-02T07:14:05Z</time>
      </trkpt>
      <trkpt lat="42.214489" lon="2.554532">
        <ele>290.46085</ele>
        <time>2021-07-02T07:14:06Z</time>
      </trkpt>
      <trkpt lat="42.214489" lon="2.554532">
        <ele>290.46085</ele>
        <time>2021-07-02T07:14:07Z</time>
      </trkpt>
      <trkpt lat="42.214489" lon="2.554532">
        <ele>290.46085</ele>
        <time>2021-07-02T07:14:08Z</time>
      </trkpt>
      <trkpt lat="42.214489" lon="2.554532">
        <ele>290.46085</ele>
        <time>2021-07-02T07:14:09Z</time>
      </trkpt>
      <trkpt lat="42.214489" lon="2.554532">
        <ele>290.46085</ele>
        <time>2021-07-02T07:14:10Z</time>
      </trkpt>
      <trkpt lat="42.214489" lon="2.554532">
        <ele>309.77850</ele>
        <time>2021-07-02T07:14:11Z</time>
      </trkpt>
      <trkpt lat="42.214489" lon="2.554532">
        <ele>309.77850</ele>
        <time>2021-07-02T07:14:12Z</time>
      </trkpt>
      <trkpt lat="42.215183" lon="2.550699">
        <ele>309.77850</ele>
        <time>2021-07-02T07:14:13Z</time>
      </trkpt>
      <trkpt lat="42.215183" lon="2.550699">
        <ele>309.77850</ele>
        <time>2021-07-02T07:14:14Z</time>
      </trkpt>
      <trkpt lat="42.215183" lon="2.550699">
        <ele>309.77850</ele>
        <time>2021-07-02T07:14:15Z</time>
      </trkpt>
      <trkpt lat="42.215183" lon="2.550699">
        <ele>309.77850</ele>
        <time>2021-07-02T07:14:16Z</time>
      </trkpt>
      <trkpt lat="42.215183" lon="2.550699">
        <ele>309.77850</ele>
        <time>2021-07-02T07:14:17Z</time>
      </trkpt>
      <trkpt lat="42.215183" lon="2.550699">
        <ele>309.77850</ele>
        <time>2021-07-02T07:14:18Z</time>
      </trkpt>
      <trkpt lat="42.215183" lon="2.550699">
        <ele>309.77850</ele>
        <time>2021-07-02T07:14:19Z</time>
      </trkpt>
      <trkpt lat="42.215183" lon="2.550699">
        <ele>309.77850</ele>
        <time>2021-07-02T07:14:20Z</time>
      </trkpt>
      <trkpt lat="42.215183" lon="2.550699">
        <ele>309.77850</ele>
        <time>2021-07-02T07:14:21Z</time>
      </trkpt>
      <trkpt lat="42.215183" lon="2.550699">
        <ele>309.77850</ele>
        <time>2021-07-02T07:14:22Z</time>
      </trkpt>
      <trkpt lat="42.215183" lon="2.550699">
        <ele>309.77850</ele>
        <time>2021-07-02T07:14:23Z</time>
      </trkpt>
      <trkpt lat="42.215183" lon="2.550699">
        <ele>309.77850</ele>
        <time>2021-07-02T07:14:24Z</time>
      </trkpt>
      <trkpt lat="42.215183" lon="2.550699">
        <ele>309.77850</ele>
        <time>2021-07-02T07:14:25Z</time>
      </trkpt>
      <trkpt lat="42.215183" lon="2.550699">
        <ele>309.77850</ele>
        <time>2021-07-02T07:14:26Z</time>
      </trkpt>
      <trkpt lat="42.215183" lon="2.550699">
        <ele>309.77850</ele>
        <time>2021-07-02T07:14:27Z</time>
      </trkpt>
      <trkpt lat="42.215183" lon="2.550699">
        <ele>309.77850</ele>
        <time>2021-07-02T07:14:28Z</time>
      </trkpt>
      <trkpt lat="42.215183" lon="2.550699">
        <ele>309.77850</ele>
        <time>2021-07-02T07:14:29Z</time>
      </trkpt>
      <trkpt lat="42.215183" lon="2.550699">
        <ele>309.77850</ele>
        <time>2021-07-02T07:14:30Z</time>
      </trkpt>
      <trkpt lat="42.215183" lon="2.550699">
        <ele>309.77850</ele>
        <time>2021-07-02T07:14:31Z</time>
      </trkpt>
      <trkpt lat="42.215183" lon="2.550699">
        <ele>309.77850</ele>
        <time>2021-07-02T07:14:32Z</time>
      </trkpt>
      <trkpt lat="42.215183" lon="2.550699">
        <ele>309.77850</ele>
        <time>2021-07-02T07:14:33Z</time>
      </trkpt>
      <trkpt lat="42.215183" lon="2.550699">
        <ele>327.05850</ele>
        <time>2021-07-02T07:14:34Z</time>
      </trkpt>
      <trkpt lat="42.215183" lon="2.550699">
        <ele>327.05850</ele>
        <time>2021-07-02T07:14:35Z</time>
      </trkpt>
      <trkpt lat="42.215183" lon="2.550699">
        <ele>327.05850</ele>
        <time>2021-07-02T07:14:36Z</time>
      </trkpt>
      <trkpt lat="42.215183" lon="2.550696">
        <ele>327.05850</ele>
        <time>2021-07-02T07:14:37Z</time>
      </trkpt>
      <trkpt lat="42.215183" lon="2.550693">
        <ele>327.05850</ele>
        <time>2021-07-02T07:14:38Z</time>
      </trkpt>
      <trkpt lat="42.215187" lon="2.550688">
        <ele>327.05850</ele>
        <time>2021-07-02T07:14:39Z</time>
      </trkpt>
      <trkpt lat="42.215614" lon="2.546361">
        <ele>296.62894</ele>
        <time>2021-07-02T07:14:40Z</time>
      </trkpt>
      <trkpt lat="42.215614" lon="2.546361">
        <ele>312.80606</ele>
        <time>2021-07-02T07:14:41Z</time>
      </trkpt>
      <trkpt lat="42.214695" lon="2.542811">
        <ele>325.71469</ele>
        <time>2021-07-02T07:14:42Z</time>
      </trkpt>
      <trkpt lat="42.214584" lon="2.542561">
        <ele>335.97964</ele>
        <time>2021-07-02T07:14:43Z</time>
      </trkpt>
      <trkpt lat="42.214428" lon="2.542255">
        <ele>343.62271</ele>
        <time>2021-07-02T07:14:44Z</time>
      </trkpt>
      <trkpt lat="42.214264" lon="2.541951">
        <ele>347.71536</ele>
        <time>2021-07-02T07:14:45Z</time>
      </trkpt>
      <trkpt lat="42.214104" lon="2.541694">
        <ele>349.73563</ele>
        <time>2021-07-02T07:14:46Z</time>
      </trkpt>
      <trkpt lat="42.213936" lon="2.541452">
        <ele>351.65189</ele>
        <time>2021-07-02T07:14:47Z</time>
      </trkpt>
      <trkpt lat="42.213760" lon="2.541222">
        <ele>353.81851</ele>
        <time>2021-07-02T07:14:48Z</time>
      </trkpt>
      <trkpt lat="42.213577" lon="2.540998">
        <ele>353.34897</ele>
        <time>2021-07-02T07:14:49Z</time>
      </trkpt>
      <trkpt lat="42.213470" lon="2.540883">
        <ele>353.95950</ele>
        <time>2021-07-02T07:14:50Z</time>
      </trkpt>
      <trkpt lat="42.213444" lon="2.540842">
        <ele>354.36050</ele>
        <time>2021-07-02T07:14:51Z</time>
      </trkpt>
      <trkpt lat="42.213032" lon="2.540348">
        <ele>354.96671</ele>
        <time>2021-07-02T07:14:52Z</time>
      </trkpt>
      <trkpt lat="42.212814" lon="2.540145">
        <ele>355.83572</ele>
        <time>2021-07-02T07:14:53Z</time>
      </trkpt>
      <trkpt lat="42.212589" lon="2.539934">
        <ele>357.06711</ele>
        <time>2021-07-02T07:14:54Z</time>
      </trkpt>
      <trkpt lat="42.212379" lon="2.539760">
        <ele>357.85880</ele>
        <time>2021-07-02T07:14:55Z</time>
      </trkpt>
      <trkpt lat="42.212124" lon="2.539551">
        <ele>358.64401</ele>
        <time>2021-07-02T07:14:56Z</time>
      </trkpt>
      <trkpt lat="42.211903" lon="2.539385">
        <ele>359.23965</ele>
        <time>2021-07-02T07:14:57Z</time>
      </trkpt>
      <trkpt lat="42.211582" lon="2.539454">
        <ele>359.74344</ele>
        <time>2021-07-02T07:14:58Z</time>
      </trkpt>
      <trkpt lat="42.211334" lon="2.539337">
        <ele>360.38553</ele>
        <time>2021-07-02T07:14:59Z</time>
      </trkpt>
      <trkpt lat="42.211334" lon="2.539337">
        <ele>361.19583</ele>
        <time>2021-07-02T07:15:00Z</time>
      </trkpt>
      <trkpt lat="42.211071" lon="2.539244">
        <ele>363.14322</ele>
        <time>2021-07-02T07:15:01Z</time>
      </trkpt>
      <trkpt lat="42.210812" lon="2.539167">
        <ele>364.07156</ele>
        <time>2021-07-02T07:15:02Z</time>
      </trkpt>
      <trkpt lat="42.210480" lon="2.539070">
        <ele>364.44583</ele>
        <time>2021-07-02T07:15:03Z</time>
      </trkpt>
      <trkpt lat="42.210190" lon="2.538991">
        <ele>364.78775</ele>
        <time>2021-07-02T07:15:04Z</time>
      </trkpt>
      <trkpt lat="42.209930" lon="2.538923">
        <ele>364.40079</ele>
        <time>2021-07-02T07:15:05Z</time>
      </trkpt>
      <trkpt lat="42.209595" lon="2.538838">
        <ele>364.11136</ele>
        <time>2021-07-02T07:15:06Z</time>
      </trkpt>
      <trkpt lat="42.209328" lon="2.538782">
        <ele>366.01498</ele>
        <time>2021-07-02T07:15:07Z</time>
      </trkpt>
      <trkpt lat="42.209053" lon="2.538724">
        <ele>366.88809</ele>
        <time>2021-07-02T07:15:08Z</time>
      </trkpt>
      <trkpt lat="42.208748" lon="2.538660">
        <ele>368.51749</ele>
        <time>2021-07-02T07:15:09Z</time>
      </trkpt>
      <trkpt lat="42.208473" lon="2.538600">
        <ele>368.20279</ele>
        <time>2021-07-02T07:15:10Z</time>
      </trkpt>
      <trkpt lat="42.208202" lon="2.538533">
        <ele>369.41476</ele>
        <time>2021-07-02T07:15:11Z</time>
      </trkpt>
      <trkpt lat="42.207928" lon="2.538466">
        <ele>370.26462</ele>
        <time>2021-07-02T07:15:12Z</time>
      </trkpt>
      <trkpt lat="42.207649" lon="2.538398">
        <ele>372.22464</ele>
        <time>2021-07-02T07:15:13Z</time>
      </trkpt>
      <trkpt lat="42.207649" lon="2.538398">
        <ele>373.73221</ele>
        <time>2021-07-02T07:15:14Z</time>
      </trkpt>
      <trkpt lat="42.207367" lon="2.538333">
        <ele>374.09610</ele>
        <time>2021-07-02T07:15:15Z</time>
      </trkpt>
      <trkpt lat="42.207085" lon="2.538269">
        <ele>375.05338</ele>
        <time>2021-07-02T07:15:16Z</time>
      </trkpt>
      <trkpt lat="42.206821" lon="2.538209">
        <ele>377.73300</ele>
        <time>2021-07-02T07:15:17Z</time>
      </trkpt>
      <trkpt lat="42.206558" lon="2.538147">
        <ele>380.38834</ele>
        <time>2021-07-02T07:15:18Z</time>
      </trkpt>
      <trkpt lat="42.206272" lon="2.538080">
        <ele>383.31448</ele>
        <time>2021-07-02T07:15:19Z</time>
      </trkpt>
      <trkpt lat="42.205990" lon="2.538014">
        <ele>385.45462</ele>
        <time>2021-07-02T07:15:20Z</time>
      </trkpt>
      <trkpt lat="42.205723" lon="2.537951">
        <ele>386.53647</ele>
        <time>2021-07-02T07:15:21Z</time>
      </trkpt>
      <trkpt lat="42.205463" lon="2.537890">
        <ele>387.71072</ele>
        <time>2021-07-02T07:15:22Z</time>
      </trkpt>
      <trkpt lat="42.205215" lon="2.537831">
        <ele>389.13193</ele>
        <time>2021-07-02T07:15:23Z</time>
      </trkpt>
      <trkpt lat="42.204945" lon="2.537768">
        <ele>390.21085</ele>
        <time>2021-07-02T07:15:24Z</time>
      </trkpt>
      <trkpt lat="42.204662" lon="2.537681">
        <ele>391.38248</ele>
        <time>2021-07-02T07:15:25Z</time>
      </trkpt>
      <trkpt lat="42.204395" lon="2.537589">
        <ele>392.11520</ele>
        <time>2021-07-02T07:15:26Z</time>
      </trkpt>
      <trkpt lat="42.204124" lon="2.537475">
        <ele>392.57193</ele>
        <time>2021-07-02T07:15:27Z</time>
      </trkpt>
      <trkpt lat="42.203850" lon="2.537344">
        <ele>394.30338</ele>
        <time>2021-07-02T07:15:28Z</time>
      </trkpt>
      <trkpt lat="42.203583" lon="2.537194">
        <ele>395.17746</ele>
        <time>2021-07-02T07:15:29Z</time>
      </trkpt>
      <trkpt lat="42.203308" lon="2.537017">
        <ele>395.92404</ele>
        <time>2021-07-02T07:15:30Z</time>
      </trkpt>
      <trkpt lat="42.203045" lon="2.536829">
        <ele>396.87021</ele>
        <time>2021-07-02T07:15:31Z</time>
      </trkpt>
      <trkpt lat="42.202805" lon="2.536625">
        <ele>397.16428</ele>
        <time>2021-07-02T07:15:32Z</time>
      </trkpt>
      <trkpt lat="42.202557" lon="2.536393">
        <ele>398.46780</ele>
        <time>2021-07-02T07:15:33Z</time>
      </trkpt>
      <trkpt lat="42.202316" lon="2.536130">
        <ele>399.58780</ele>
        <time>2021-07-02T07:15:34Z</time>
      </trkpt>
      <trkpt lat="42.202110" lon="2.535874">
        <ele>399.72061</ele>
        <time>2021-07-02T07:15:35Z</time>
      </trkpt>
      <trkpt lat="42.201885" lon="2.535575">
        <ele>403.23270</ele>
        <time>2021-07-02T07:15:36Z</time>
      </trkpt>
      <trkpt lat="42.201702" lon="2.535288">
        <ele>405.81369</ele>
        <time>2021-07-02T07:15:37Z</time>
      </trkpt>
      <trkpt lat="42.201488" lon="2.534960">
        <ele>405.03275</ele>
        <time>2021-07-02T07:15:38Z</time>
      </trkpt>
      <trkpt lat="42.201298" lon="2.534642">
        <ele>404.58444</ele>
        <time>2021-07-02T07:15:39Z</time>
      </trkpt>
      <trkpt lat="42.201122" lon="2.534347">
        <ele>405.37576</ele>
        <time>2021-07-02T07:15:40Z</time>
      </trkpt>
      <trkpt lat="42.200943" lon="2.534049">
        <ele>406.17868</ele>
        <time>2021-07-02T07:15:41Z</time>
      </trkpt>
      <trkpt lat="42.200760" lon="2.533736">
        <ele>407.97623</ele>
        <time>2021-07-02T07:15:42Z</time>
      </trkpt>
      <trkpt lat="42.200565" lon="2.533415">
        <ele>409.67252</ele>
        <time>2021-07-02T07:15:43Z</time>
      </trkpt>
      <trkpt lat="42.200386" lon="2.533112">
        <ele>408.86197</ele>
        <time>2021-07-02T07:15:44Z</time>
      </trkpt>
      <trkpt lat="42.200222" lon="2.532833">
        <ele>408.90689</ele>
        <time>2021-07-02T07:15:45Z</time>
      </trkpt>
      <trkpt lat="42.200050" lon="2.532548">
        <ele>410.71292</ele>
        <time>2021-07-02T07:15:46Z</time>
      </trkpt>
      <trkpt lat="42.199879" lon="2.532256">
        <ele>410.73526</ele>
        <time>2021-07-02T07:15:47Z</time>
      </trkpt>
      <trkpt lat="42.199718" lon="2.531987">
        <ele>412.91006</ele>
        <time>2021-07-02T07:15:48Z</time>
      </trkpt>
      <trkpt lat="42.199551" lon="2.531702">
        <ele>413.09024</ele>
        <time>2021-07-02T07:15:49Z</time>
      </trkpt>
      <trkpt lat="42.199383" lon="2.531418">
        <ele>413.60928</ele>
        <time>2021-07-02T07:15:50Z</time>
      </trkpt>
      <trkpt lat="42.199211" lon="2.531124">
        <ele>415.18826</ele>
        <time>2021-07-02T07:15:51Z</time>
      </trkpt>
      <trkpt lat="42.199211" lon="2.531124">
        <ele>416.10098</ele>
        <time>2021-07-02T07:15:52Z</time>
      </trkpt>
      <trkpt lat="42.199039" lon="2.530834">
        <ele>416.38333</ele>
        <time>2021-07-02T07:15:53Z</time>
      </trkpt>
      <trkpt lat="42.198868" lon="2.530546">
        <ele>417.35159</ele>
        <time>2021-07-02T07:15:54Z</time>
      </trkpt>
      <trkpt lat="42.198689" lon="2.530274">
        <ele>419.08664</ele>
        <time>2021-07-02T07:15:55Z</time>
      </trkpt>
      <trkpt lat="42.198502" lon="2.529986">
        <ele>421.34933</ele>
        <time>2021-07-02T07:15:56Z</time>
      </trkpt>
      <trkpt lat="42.198307" lon="2.529692">
        <ele>421.80600</ele>
        <time>2021-07-02T07:15:57Z</time>
      </trkpt>
      <trkpt lat="42.198120" lon="2.529419">
        <ele>425.61365</ele>
        <time>2021-07-02T07:15:58Z</time>
      </trkpt>
      <trkpt lat="42.197922" lon="2.529166">
        <ele>427.23425</ele>
        <time>2021-07-02T07:15:59Z</time>
      </trkpt>
      <trkpt lat="42.197720" lon="2.528928">
        <ele>428.42480</ele>
        <time>2021-07-02T07:16:00Z</time>
      </trkpt>
      <trkpt lat="42.197514" lon="2.528699">
        <ele>430.80310</ele>
        <time>2021-07-02T07:16:01Z</time>
      </trkpt>
      <trkpt lat="42.197311" lon="2.528493">
        <ele>431.56128</ele>
        <time>2021-07-02T07:16:02Z</time>
      </trkpt>
      <trkpt lat="42.197079" lon="2.528279">
        <ele>433.28650</ele>
        <time>2021-07-02T07:16:03Z</time>
      </trkpt>
      <trkpt lat="42.196945" lon="2.528159">
        <ele>434.46844</ele>
        <time>2021-07-02T07:16:04Z</time>
      </trkpt>
      <trkpt lat="42.196663" lon="2.527818">
        <ele>435.96582</ele>
        <time>2021-07-02T07:16:05Z</time>
      </trkpt>
      <trkpt lat="42.196400" lon="2.527565">
        <ele>436.20618</ele>
        <time>2021-07-02T07:16:06Z</time>
      </trkpt>
      <trkpt lat="42.196167" lon="2.527323">
        <ele>437.82367</ele>
        <time>2021-07-02T07:16:07Z</time>
      </trkpt>
      <trkpt lat="42.195843" lon="2.527253">
        <ele>439.16846</ele>
        <time>2021-07-02T07:16:08Z</time>
      </trkpt>
      <trkpt lat="42.195606" lon="2.527047">
        <ele>441.44751</ele>
        <time>2021-07-02T07:16:09Z</time>
      </trkpt>
      <trkpt lat="42.195362" lon="2.526828">
        <ele>443.24536</ele>
        <time>2021-07-02T07:16:10Z</time>
      </trkpt>
      <trkpt lat="42.195129" lon="2.526598">
        <ele>443.70166</ele>
        <time>2021-07-02T07:16:11Z</time>
      </trkpt>
      <trkpt lat="42.194870" lon="2.526330">
        <ele>445.06873</ele>
        <time>2021-07-02T07:16:12Z</time>
      </trkpt>
      <trkpt lat="42.194870" lon="2.526330">
        <ele>445.06873</ele>
        <time>2021-07-02T07:16:13Z</time>
      </trkpt>
      <trkpt lat="42.194626" lon="2.526046">
        <ele>447.94641</ele>
        <time>2021-07-02T07:16:14Z</time>
      </trkpt>
      <trkpt lat="42.194412" lon="2.525735">
        <ele>450.11426</ele>
        <time>2021-07-02T07:16:15Z</time>
      </trkpt>
      <trkpt lat="42.194206" lon="2.525439">
        <ele>451.21301</ele>
        <time>2021-07-02T07:16:16Z</time>
      </trkpt>
      <trkpt lat="42.194031" lon="2.525164">
        <ele>452.34949</ele>
        <time>2021-07-02T07:16:17Z</time>
      </trkpt>
      <trkpt lat="42.193851" lon="2.524871">
        <ele>452.71570</ele>
        <time>2021-07-02T07:16:18Z</time>
      </trkpt>
      <trkpt lat="42.193687" lon="2.524575">
        <ele>453.59009</ele>
        <time>2021-07-02T07:16:19Z</time>
      </trkpt>
      <trkpt lat="42.193539" lon="2.524287">
        <ele>454.80896</ele>
        <time>2021-07-02T07:16:20Z</time>
      </trkpt>
      <trkpt lat="42.193386" lon="2.523961">
        <ele>454.89166</ele>
        <time>2021-07-02T07:16:21Z</time>
      </trkpt>
      <trkpt lat="42.193241" lon="2.523636">
        <ele>454.88000</ele>
        <time>2021-07-02T07:16:22Z</time>
      </trkpt>
      <trkpt lat="42.193111" lon="2.523305">
        <ele>453.65863</ele>
        <time>2021-07-02T07:16:23Z</time>
      </trkpt>
      <trkpt lat="42.192993" lon="2.522959">
        <ele>453.54871</ele>
        <time>2021-07-02T07:16:24Z</time>
      </trkpt>
      <trkpt lat="42.192879" lon="2.522593">
        <ele>453.48474</ele>
        <time>2021-07-02T07:16:25Z</time>
      </trkpt>
      <trkpt lat="42.192783" lon="2.522231">
        <ele>453.56274</ele>
        <time>2021-07-02T07:16:26Z</time>
      </trkpt>
      <trkpt lat="42.192711" lon="2.521880">
        <ele>453.32605</ele>
        <time>2021-07-02T07:16:27Z</time>
      </trkpt>
      <trkpt lat="42.192642" lon="2.521521">
        <ele>455.30676</ele>
        <time>2021-07-02T07:16:28Z</time>
      </trkpt>
      <trkpt lat="42.192581" lon="2.521142">
        <ele>454.99353</ele>
        <time>2021-07-02T07:16:29Z</time>
      </trkpt>
      <trkpt lat="42.192532" lon="2.520795">
        <ele>455.64264</ele>
        <time>2021-07-02T07:16:30Z</time>
      </trkpt>
      <trkpt lat="42.192497" lon="2.520411">
        <ele>455.79230</ele>
        <time>2021-07-02T07:16:31Z</time>
      </trkpt>
      <trkpt lat="42.192463" lon="2.520029">
        <ele>455.26965</ele>
        <time>2021-07-02T07:16:32Z</time>
      </trkpt>
      <trkpt lat="42.192444" lon="2.519661">
        <ele>455.49329</ele>
        <time>2021-07-02T07:16:33Z</time>
      </trkpt>
      <trkpt lat="42.192436" lon="2.519279">
        <ele>454.86359</ele>
        <time>2021-07-02T07:16:34Z</time>
      </trkpt>
      <trkpt lat="42.192444" lon="2.518903">
        <ele>453.18726</ele>
        <time>2021-07-02T07:16:35Z</time>
      </trkpt>
      <trkpt lat="42.192467" lon="2.518514">
        <ele>451.78192</ele>
        <time>2021-07-02T07:16:36Z</time>
      </trkpt>
      <trkpt lat="42.192493" lon="2.518153">
        <ele>450.03833</ele>
        <time>2021-07-02T07:16:37Z</time>
      </trkpt>
      <trkpt lat="42.192535" lon="2.517781">
        <ele>448.18365</ele>
        <time>2021-07-02T07:16:38Z</time>
      </trkpt>
      <trkpt lat="42.192593" lon="2.517400">
        <ele>447.15332</ele>
        <time>2021-07-02T07:16:39Z</time>
      </trkpt>
      <trkpt lat="42.192593" lon="2.517400">
        <ele>446.00586</ele>
        <time>2021-07-02T07:16:40Z</time>
      </trkpt>
      <trkpt lat="42.192661" lon="2.517029">
        <ele>444.83026</ele>
        <time>2021-07-02T07:16:41Z</time>
      </trkpt>
      <trkpt lat="42.192722" lon="2.516675">
        <ele>443.32605</ele>
        <time>2021-07-02T07:16:42Z</time>
      </trkpt>
      <trkpt lat="42.192802" lon="2.516291">
        <ele>442.33228</ele>
        <time>2021-07-02T07:16:43Z</time>
      </trkpt>
      <trkpt lat="42.192883" lon="2.515908">
        <ele>440.58240</ele>
        <time>2021-07-02T07:16:44Z</time>
      </trkpt>
      <trkpt lat="42.192963" lon="2.515544">
        <ele>439.10022</ele>
        <time>2021-07-02T07:16:45Z</time>
      </trkpt>
      <trkpt lat="42.193039" lon="2.515189">
        <ele>436.75854</ele>
        <time>2021-07-02T07:16:46Z</time>
      </trkpt>
      <trkpt lat="42.193115" lon="2.514838">
        <ele>434.70502</ele>
        <time>2021-07-02T07:16:47Z</time>
      </trkpt>
      <trkpt lat="42.193192" lon="2.514477">
        <ele>433.25195</ele>
        <time>2021-07-02T07:16:48Z</time>
      </trkpt>
      <trkpt lat="42.193268" lon="2.514133">
        <ele>431.74774</ele>
        <time>2021-07-02T07:16:49Z</time>
      </trkpt>
      <trkpt lat="42.193344" lon="2.513766">
        <ele>430.94348</ele>
        <time>2021-07-02T07:16:50Z</time>
      </trkpt>
      <trkpt lat="42.193417" lon="2.513430">
        <ele>430.02869</ele>
        <time>2021-07-02T07:16:51Z</time>
      </trkpt>
      <trkpt lat="42.193493" lon="2.513085">
        <ele>428.69592</ele>
        <time>2021-07-02T07:16:52Z</time>
      </trkpt>
      <trkpt lat="42.193569" lon="2.512736">
        <ele>427.96149</ele>
        <time>2021-07-02T07:16:53Z</time>
      </trkpt>
      <trkpt lat="42.193642" lon="2.512401">
        <ele>426.50916</ele>
        <time>2021-07-02T07:16:54Z</time>
      </trkpt>
      <trkpt lat="42.193718" lon="2.512042">
        <ele>425.44751</ele>
        <time>2021-07-02T07:16:55Z</time>
      </trkpt>
      <trkpt lat="42.193790" lon="2.511701">
        <ele>424.25171</ele>
        <time>2021-07-02T07:16:56Z</time>
      </trkpt>
      <trkpt lat="42.193863" lon="2.511369">
        <ele>422.86792</ele>
        <time>2021-07-02T07:16:57Z</time>
      </trkpt>
      <trkpt lat="42.193935" lon="2.511036">
        <ele>421.48511</ele>
        <time>2021-07-02T07:16:58Z</time>
      </trkpt>
      <trkpt lat="42.194008" lon="2.510689">
        <ele>420.30505</ele>
        <time>2021-07-02T07:16:59Z</time>
      </trkpt>
      <trkpt lat="42.194077" lon="2.510362">
        <ele>419.03918</ele>
        <time>2021-07-02T07:17:00Z</time>
      </trkpt>
      <trkpt lat="42.194141" lon="2.510040">
        <ele>418.47241</ele>
        <time>2021-07-02T07:17:01Z</time>
      </trkpt>
      <trkpt lat="42.194210" lon="2.509686">
        <ele>418.48120</ele>
        <time>2021-07-02T07:17:02Z</time>
      </trkpt>
      <trkpt lat="42.194267" lon="2.509358">
        <ele>417.83533</ele>
        <time>2021-07-02T07:17:03Z</time>
      </trkpt>
      <trkpt lat="42.194321" lon="2.509050">
        <ele>416.91003</ele>
        <time>2021-07-02T07:17:04Z</time>
      </trkpt>
      <trkpt lat="42.194366" lon="2.508692">
        <ele>416.84064</ele>
        <time>2021-07-02T07:17:05Z</time>
      </trkpt>
      <trkpt lat="42.194412" lon="2.508334">
        <ele>415.67035</ele>
        <time>2021-07-02T07:17:06Z</time>
      </trkpt>
      <trkpt lat="42.194412" lon="2.508334">
        <ele>415.39124</ele>
        <time>2021-07-02T07:17:07Z</time>
      </trkpt>
      <trkpt lat="42.194443" lon="2.507979">
        <ele>414.41968</ele>
        <time>2021-07-02T07:17:08Z</time>
      </trkpt>
      <trkpt lat="42.194473" lon="2.507633">
        <ele>413.41113</ele>
        <time>2021-07-02T07:17:09Z</time>
      </trkpt>
      <trkpt lat="42.194492" lon="2.507282">
        <ele>413.01807</ele>
        <time>2021-07-02T07:17:10Z</time>
      </trkpt>
      <trkpt lat="42.194508" lon="2.506941">
        <ele>412.83228</ele>
        <time>2021-07-02T07:17:11Z</time>
      </trkpt>
      <trkpt lat="42.194523" lon="2.506611">
        <ele>412.70813</ele>
        <time>2021-07-02T07:17:12Z</time>
      </trkpt>
      <trkpt lat="42.194534" lon="2.506264">
        <ele>412.41345</ele>
        <time>2021-07-02T07:17:13Z</time>
      </trkpt>
      <trkpt lat="42.194538" lon="2.505920">
        <ele>412.59717</ele>
        <time>2021-07-02T07:17:14Z</time>
      </trkpt>
      <trkpt lat="42.194557" lon="2.505574">
        <ele>412.72107</ele>
        <time>2021-07-02T07:17:15Z</time>
      </trkpt>
      <trkpt lat="42.194576" lon="2.505232">
        <ele>412.57861</ele>
        <time>2021-07-02T07:17:16Z</time>
      </trkpt>
      <trkpt lat="42.194599" lon="2.504895">
        <ele>411.13446</ele>
        <time>2021-07-02T07:17:17Z</time>
      </trkpt>
      <trkpt lat="42.194637" lon="2.504561">
        <ele>412.08661</ele>
        <time>2021-07-02T07:17:18Z</time>
      </trkpt>
      <trkpt lat="42.194687" lon="2.504228">
        <ele>411.68311</ele>
        <time>2021-07-02T07:17:19Z</time>
      </trkpt>
      <trkpt lat="42.194748" lon="2.503916">
        <ele>412.44476</ele>
        <time>2021-07-02T07:17:20Z</time>
      </trkpt>
      <trkpt lat="42.194813" lon="2.503609">
        <ele>412.24902</ele>
        <time>2021-07-02T07:17:21Z</time>
      </trkpt>
      <trkpt lat="42.194885" lon="2.503307">
        <ele>412.50439</ele>
        <time>2021-07-02T07:17:22Z</time>
      </trkpt>
      <trkpt lat="42.194958" lon="2.503018">
        <ele>412.72717</ele>
        <time>2021-07-02T07:17:23Z</time>
      </trkpt>
      <trkpt lat="42.195049" lon="2.502742">
        <ele>413.40845</ele>
        <time>2021-07-02T07:17:24Z</time>
      </trkpt>
      <trkpt lat="42.195145" lon="2.502467">
        <ele>413.53247</ele>
        <time>2021-07-02T07:17:25Z</time>
      </trkpt>
      <trkpt lat="42.195251" lon="2.502173">
        <ele>413.83057</ele>
        <time>2021-07-02T07:17:26Z</time>
      </trkpt>
      <trkpt lat="42.195374" lon="2.501887">
        <ele>414.03052</ele>
        <time>2021-07-02T07:17:27Z</time>
      </trkpt>
      <trkpt lat="42.195499" lon="2.501608">
        <ele>414.30280</ele>
        <time>2021-07-02T07:17:28Z</time>
      </trkpt>
      <trkpt lat="42.195545" lon="2.501537">
        <ele>416.12427</ele>
        <time>2021-07-02T07:17:29Z</time>
      </trkpt>
      <trkpt lat="42.195797" lon="2.501173">
        <ele>415.89185</ele>
        <time>2021-07-02T07:17:30Z</time>
      </trkpt>
      <trkpt lat="42.195904" lon="2.501003">
        <ele>414.38977</ele>
        <time>2021-07-02T07:17:31Z</time>
      </trkpt>
      <trkpt lat="42.196033" lon="2.500796">
        <ele>414.06433</ele>
        <time>2021-07-02T07:17:32Z</time>
      </trkpt>
      <trkpt lat="42.196148" lon="2.500602">
        <ele>411.73999</ele>
        <time>2021-07-02T07:17:33Z</time>
      </trkpt>
      <trkpt lat="42.196251" lon="2.500418">
        <ele>411.24329</ele>
        <time>2021-07-02T07:17:34Z</time>
      </trkpt>
      <trkpt lat="42.196358" lon="2.500234">
        <ele>409.94116</ele>
        <time>2021-07-02T07:17:35Z</time>
      </trkpt>
      <trkpt lat="42.196449" lon="2.500086">
        <ele>408.69110</ele>
        <time>2021-07-02T07:17:36Z</time>
      </trkpt>
      <trkpt lat="42.196449" lon="2.500086">
        <ele>408.36139</ele>
        <time>2021-07-02T07:17:37Z</time>
      </trkpt>
      <trkpt lat="42.196503" lon="2.499997">
        <ele>409.10461</ele>
        <time>2021-07-02T07:17:38Z</time>
      </trkpt>
      <trkpt lat="42.196545" lon="2.499926">
        <ele>409.50378</ele>
        <time>2021-07-02T07:17:39Z</time>
      </trkpt>
      <trkpt lat="42.196575" lon="2.499871">
        <ele>409.24615</ele>
        <time>2021-07-02T07:17:40Z</time>
      </trkpt>
      <trkpt lat="42.196594" lon="2.499838">
        <ele>407.70068</ele>
        <time>2021-07-02T07:17:41Z</time>
      </trkpt>
      <trkpt lat="42.196602" lon="2.499828">
        <ele>407.48291</ele>
        <time>2021-07-02T07:17:42Z</time>
      </trkpt>
      <trkpt lat="42.196629" lon="2.499781">
        <ele>407.22412</ele>
        <time>2021-07-02T07:17:43Z</time>
      </trkpt>
      <trkpt lat="42.196705" lon="2.499710">
        <ele>407.57483</ele>
        <time>2021-07-02T07:17:44Z</time>
      </trkpt>
      <trkpt lat="42.196754" lon="2.499681">
        <ele>407.71667</ele>
        <time>2021-07-02T07:17:45Z</time>
      </trkpt>
      <trkpt lat="42.196766" lon="2.499669">
        <ele>408.41333</ele>
        <time>2021-07-02T07:17:46Z</time>
      </trkpt>
      <trkpt lat="42.196793" lon="2.499646">
        <ele>409.00037</ele>
        <time>2021-07-02T07:17:47Z</time>
      </trkpt>
      <trkpt lat="42.196808" lon="2.499633">
        <ele>408.86902</ele>
        <time>2021-07-02T07:17:48Z</time>
      </trkpt>
      <trkpt lat="42.196808" lon="2.499633">
        <ele>409.18585</ele>
        <time>2021-07-02T07:17:49Z</time>
      </trkpt>
      <trkpt lat="42.196819" lon="2.499625">
        <ele>409.32654</ele>
        <time>2021-07-02T07:17:50Z</time>
      </trkpt>
      <trkpt lat="42.196819" lon="2.499622">
        <ele>409.34070</ele>
        <time>2021-07-02T07:17:51Z</time>
      </trkpt>
      <trkpt lat="42.196819" lon="2.499622">
        <ele>389.53137</ele>
        <time>2021-07-02T07:17:52Z</time>
      </trkpt>
      <trkpt lat="42.196819" lon="2.499622">
        <ele>410.27240</ele>
        <time>2021-07-02T07:17:53Z</time>
      </trkpt>
      <trkpt lat="42.196819" lon="2.499622">
        <ele>409.51575</ele>
        <time>2021-07-02T07:17:54Z</time>
      </trkpt>
      <trkpt lat="42.196819" lon="2.499622">
        <ele>410.40845</ele>
        <time>2021-07-02T07:17:55Z</time>
      </trkpt>
      <trkpt lat="42.196819" lon="2.499622">
        <ele>410.20447</ele>
        <time>2021-07-02T07:17:56Z</time>
      </trkpt>
      <trkpt lat="42.196819" lon="2.499622">
        <ele>411.27972</ele>
        <time>2021-07-02T07:17:57Z</time>
      </trkpt>
      <trkpt lat="42.196819" lon="2.499622">
        <ele>410.78436</ele>
        <time>2021-07-02T07:17:58Z</time>
      </trkpt>
      <trkpt lat="42.196819" lon="2.499622">
        <ele>410.51489</ele>
        <time>2021-07-02T07:17:59Z</time>
      </trkpt>
      <trkpt lat="42.196819" lon="2.499622">
        <ele>392.35590</ele>
        <time>2021-07-02T07:18:00Z</time>
      </trkpt>
      <trkpt lat="42.196819" lon="2.499622">
        <ele>410.47241</ele>
        <time>2021-07-02T07:18:01Z</time>
      </trkpt>
      <trkpt lat="42.196819" lon="2.499622">
        <ele>409.89221</ele>
        <time>2021-07-02T07:18:02Z</time>
      </trkpt>
      <trkpt lat="42.196819" lon="2.499622">
        <ele>409.23853</ele>
        <time>2021-07-02T07:18:03Z</time>
      </trkpt>
      <trkpt lat="42.196819" lon="2.499622">
        <ele>408.59937</ele>
        <time>2021-07-02T07:18:04Z</time>
      </trkpt>
      <trkpt lat="42.196819" lon="2.499622">
        <ele>392.08887</ele>
        <time>2021-07-02T07:18:05Z</time>
      </trkpt>
      <trkpt lat="42.196819" lon="2.499622">
        <ele>392.04858</ele>
        <time>2021-07-02T07:18:06Z</time>
      </trkpt>
      <trkpt lat="42.196819" lon="2.499622">
        <ele>408.65186</ele>
        <time>2021-07-02T07:18:07Z</time>
      </trkpt>
      <trkpt lat="42.196819" lon="2.499622">
        <ele>392.07156</ele>
        <time>2021-07-02T07:18:08Z</time>
      </trkpt>
      <trkpt lat="42.196819" lon="2.499622">
        <ele>392.01376</ele>
        <time>2021-07-02T07:18:09Z</time>
      </trkpt>
      <trkpt lat="42.196819" lon="2.499622">
        <ele>406.45264</ele>
        <time>2021-07-02T07:18:10Z</time>
      </trkpt>
      <trkpt lat="42.196819" lon="2.499622">
        <ele>391.99786</ele>
        <time>2021-07-02T07:18:11Z</time>
      </trkpt>
      <trkpt lat="42.196819" lon="2.499622">
        <ele>406.31604</ele>
        <time>2021-07-02T07:18:12Z</time>
      </trkpt>
      <trkpt lat="42.196819" lon="2.499622">
        <ele>406.57977</ele>
        <time>2021-07-02T07:18:13Z</time>
      </trkpt>
      <trkpt lat="42.196819" lon="2.499622">
        <ele>406.57025</ele>
        <time>2021-07-02T07:18:14Z</time>
      </trkpt>
      <trkpt lat="42.196819" lon="2.499622">
        <ele>406.68652</ele>
        <time>2021-07-02T07:18:15Z</time>
      </trkpt>
      <trkpt lat="42.196819" lon="2.499622">
        <ele>405.88977</ele>
        <time>2021-07-02T07:18:16Z</time>
      </trkpt>
      <trkpt lat="42.196819" lon="2.499622">
        <ele>405.57446</ele>
        <time>2021-07-02T07:18:17Z</time>
      </trkpt>
      <trkpt lat="42.196819" lon="2.499622">
        <ele>405.72919</ele>
        <time>2021-07-02T07:18:18Z</time>
      </trkpt>
      <trkpt lat="42.196819" lon="2.499622">
        <ele>386.57935</ele>
        <time>2021-07-02T07:18:19Z</time>
      </trkpt>
      <trkpt lat="42.196819" lon="2.499622">
        <ele>404.57166</ele>
        <time>2021-07-02T07:18:20Z</time>
      </trkpt>
      <trkpt lat="42.196819" lon="2.499622">
        <ele>404.52289</ele>
        <time>2021-07-02T07:18:21Z</time>
      </trkpt>
      <trkpt lat="42.196819" lon="2.499622">
        <ele>404.62646</ele>
        <time>2021-07-02T07:18:22Z</time>
      </trkpt>
      <trkpt lat="42.196819" lon="2.499622">
        <ele>404.54321</ele>
        <time>2021-07-02T07:18:23Z</time>
      </trkpt>
      <trkpt lat="42.196819" lon="2.499622">
        <ele>404.40491</ele>
        <time>2021-07-02T07:18:24Z</time>
      </trkpt>
      <trkpt lat="42.196819" lon="2.499622">
        <ele>404.57928</ele>
        <time>2021-07-02T07:18:25Z</time>
      </trkpt>
      <trkpt lat="42.196819" lon="2.499622">
        <ele>405.81042</ele>
        <time>2021-07-02T07:18:26Z</time>
      </trkpt>
      <trkpt lat="42.196819" lon="2.499622">
        <ele>406.04602</ele>
        <time>2021-07-02T07:18:27Z</time>
      </trkpt>
      <trkpt lat="42.196819" lon="2.499622">
        <ele>405.74890</ele>
        <time>2021-07-02T07:18:28Z</time>
      </trkpt>
      <trkpt lat="42.196819" lon="2.499622">
        <ele>406.47607</ele>
        <time>2021-07-02T07:18:29Z</time>
      </trkpt>
      <trkpt lat="42.196819" lon="2.499622">
        <ele>406.67572</ele>
        <time>2021-07-02T07:18:30Z</time>
      </trkpt>
      <trkpt lat="42.196819" lon="2.499622">
        <ele>406.14886</ele>
        <time>2021-07-02T07:18:31Z</time>
      </trkpt>
      <trkpt lat="42.196819" lon="2.499622">
        <ele>406.47791</ele>
        <time>2021-07-02T07:18:32Z</time>
      </trkpt>
      <trkpt lat="42.196819" lon="2.499622">
        <ele>406.57062</ele>
        <time>2021-07-02T07:18:33Z</time>
      </trkpt>
      <trkpt lat="42.196819" lon="2.499622">
        <ele>406.12329</ele>
        <time>2021-07-02T07:18:34Z</time>
      </trkpt>
      <trkpt lat="42.196819" lon="2.499622">
        <ele>405.90503</ele>
        <time>2021-07-02T07:18:35Z</time>
      </trkpt>
      <trkpt lat="42.196819" lon="2.499622">
        <ele>406.67139</ele>
        <time>2021-07-02T07:18:36Z</time>
      </trkpt>
      <trkpt lat="42.196819" lon="2.499622">
        <ele>406.55658</ele>
        <time>2021-07-02T07:18:37Z</time>
      </trkpt>
      <trkpt lat="42.196819" lon="2.499622">
        <ele>407.24353</ele>
        <time>2021-07-02T07:18:38Z</time>
      </trkpt>
      <trkpt lat="42.196819" lon="2.499622">
        <ele>386.09766</ele>
        <time>2021-07-02T07:18:39Z</time>
      </trkpt>
      <trkpt lat="42.196819" lon="2.499622">
        <ele>386.19342</ele>
        <time>2021-07-02T07:18:40Z</time>
      </trkpt>
      <trkpt lat="42.196819" lon="2.499622">
        <ele>407.58466</ele>
        <time>2021-07-02T07:18:41Z</time>
      </trkpt>
      <trkpt lat="42.196819" lon="2.499622">
        <ele>407.59888</ele>
        <time>2021-07-02T07:18:42Z</time>
      </trkpt>
      <trkpt lat="42.196819" lon="2.499622">
        <ele>407.59900</ele>
        <time>2021-07-02T07:18:43Z</time>
      </trkpt>
      <trkpt lat="42.196819" lon="2.499622">
        <ele>407.67444</ele>
        <time>2021-07-02T07:18:44Z</time>
      </trkpt>
      <trkpt lat="42.196819" lon="2.499622">
        <ele>407.34399</ele>
        <time>2021-07-02T07:18:45Z</time>
      </trkpt>
      <trkpt lat="42.196819" lon="2.499622">
        <ele>407.34418</ele>
        <time>2021-07-02T07:18:46Z</time>
      </trkpt>
      <trkpt lat="42.196819" lon="2.499622">
        <ele>407.22656</ele>
        <time>2021-07-02T07:18:47Z</time>
      </trkpt>
      <trkpt lat="42.196819" lon="2.499622">
        <ele>407.51025</ele>
        <time>2021-07-02T07:18:48Z</time>
      </trkpt>
      <trkpt lat="42.196819" lon="2.499622">
        <ele>386.31149</ele>
        <time>2021-07-02T07:18:49Z</time>
      </trkpt>
      <trkpt lat="42.196819" lon="2.499622">
        <ele>407.35144</ele>
        <time>2021-07-02T07:18:50Z</time>
      </trkpt>
      <trkpt lat="42.196819" lon="2.499622">
        <ele>386.29327</ele>
        <time>2021-07-02T07:18:51Z</time>
      </trkpt>
      <trkpt lat="42.196819" lon="2.499622">
        <ele>407.79260</ele>
        <time>2021-07-02T07:18:52Z</time>
      </trkpt>
      <trkpt lat="42.196819" lon="2.499622">
        <ele>386.10669</ele>
        <time>2021-07-02T07:18:53Z</time>
      </trkpt>
      <trkpt lat="42.196819" lon="2.499622">
        <ele>386.58987</ele>
        <time>2021-07-02T07:18:54Z</time>
      </trkpt>
      <trkpt lat="42.196819" lon="2.499622">
        <ele>407.05206</ele>
        <time>2021-07-02T07:18:55Z</time>
      </trkpt>
      <trkpt lat="42.196819" lon="2.499622">
        <ele>386.37643</ele>
        <time>2021-07-02T07:18:56Z</time>
      </trkpt>
      <trkpt lat="42.196819" lon="2.499622">
        <ele>407.48138</ele>
        <time>2021-07-02T07:18:57Z</time>
      </trkpt>
      <trkpt lat="42.196819" lon="2.499622">
        <ele>407.74213</ele>
        <time>2021-07-02T07:18:58Z</time>
      </trkpt>
      <trkpt lat="42.196819" lon="2.499622">
        <ele>405.71753</ele>
        <time>2021-07-02T07:18:59Z</time>
      </trkpt>
      <trkpt lat="42.196819" lon="2.499622">
        <ele>405.44360</ele>
        <time>2021-07-02T07:19:00Z</time>
      </trkpt>
      <trkpt lat="42.196819" lon="2.499622">
        <ele>405.80432</ele>
        <time>2021-07-02T07:19:01Z</time>
      </trkpt>
      <trkpt lat="42.196819" lon="2.499622">
        <ele>405.85645</ele>
        <time>2021-07-02T07:19:02Z</time>
      </trkpt>
      <trkpt lat="42.196819" lon="2.499622">
        <ele>405.44373</ele>
        <time>2021-07-02T07:19:03Z</time>
      </trkpt>
      <trkpt lat="42.196819" lon="2.499622">
        <ele>406.00159</ele>
        <time>2021-07-02T07:19:04Z</time>
      </trkpt>
      <trkpt lat="42.196819" lon="2.499622">
        <ele>385.90259</ele>
        <time>2021-07-02T07:19:05Z</time>
      </trkpt>
      <trkpt lat="42.196819" lon="2.499622">
        <ele>386.08270</ele>
        <time>2021-07-02T07:19:06Z</time>
      </trkpt>
      <trkpt lat="42.196819" lon="2.499622">
        <ele>386.56357</ele>
        <time>2021-07-02T07:19:07Z</time>
      </trkpt>
      <trkpt lat="42.196819" lon="2.499622">
        <ele>386.13287</ele>
        <time>2021-07-02T07:19:08Z</time>
      </trkpt>
      <trkpt lat="42.196819" lon="2.499622">
        <ele>386.26532</ele>
        <time>2021-07-02T07:19:09Z</time>
      </trkpt>
      <trkpt lat="42.196819" lon="2.499622">
        <ele>386.21628</ele>
        <time>2021-07-02T07:19:10Z</time>
      </trkpt>
      <trkpt lat="42.196819" lon="2.499622">
        <ele>385.59366</ele>
        <time>2021-07-02T07:19:11Z</time>
      </trkpt>
      <trkpt lat="42.196819" lon="2.499622">
        <ele>386.19699</ele>
        <time>2021-07-02T07:19:12Z</time>
      </trkpt>
      <trkpt lat="42.196819" lon="2.499622">
        <ele>407.82715</ele>
        <time>2021-07-02T07:19:13Z</time>
      </trkpt>
      <trkpt lat="42.196819" lon="2.499622">
        <ele>407.17542</ele>
        <time>2021-07-02T07:19:14Z</time>
      </trkpt>
      <trkpt lat="42.196819" lon="2.499622">
        <ele>407.39728</ele>
        <time>2021-07-02T07:19:15Z</time>
      </trkpt>
      <trkpt lat="42.196819" lon="2.499622">
        <ele>407.28931</ele>
        <time>2021-07-02T07:19:16Z</time>
      </trkpt>
      <trkpt lat="42.196819" lon="2.499622">
        <ele>408.02411</ele>
        <time>2021-07-02T07:19:17Z</time>
      </trkpt>
      <trkpt lat="42.196819" lon="2.499622">
        <ele>409.11804</ele>
        <time>2021-07-02T07:19:18Z</time>
      </trkpt>
      <trkpt lat="42.196819" lon="2.499622">
        <ele>409.85120</ele>
        <time>2021-07-02T07:19:19Z</time>
      </trkpt>
      <trkpt lat="42.196819" lon="2.499622">
        <ele>409.74426</ele>
        <time>2021-07-02T07:19:20Z</time>
      </trkpt>
      <trkpt lat="42.196819" lon="2.499622">
        <ele>386.33008</ele>
        <time>2021-07-02T07:19:21Z</time>
      </trkpt>
      <trkpt lat="42.196819" lon="2.499622">
        <ele>386.25198</ele>
        <time>2021-07-02T07:19:22Z</time>
      </trkpt>
      <trkpt lat="42.196819" lon="2.499622">
        <ele>412.35522</ele>
        <time>2021-07-02T07:19:23Z</time>
      </trkpt>
      <trkpt lat="42.196819" lon="2.499622">
        <ele>386.32315</ele>
        <time>2021-07-02T07:19:24Z</time>
      </trkpt>
      <trkpt lat="42.196819" lon="2.499622">
        <ele>412.66589</ele>
        <time>2021-07-02T07:19:25Z</time>
      </trkpt>
      <trkpt lat="42.196819" lon="2.499622">
        <ele>412.78821</ele>
        <time>2021-07-02T07:19:26Z</time>
      </trkpt>
      <trkpt lat="42.196819" lon="2.499622">
        <ele>385.90210</ele>
        <time>2021-07-02T07:19:27Z</time>
      </trkpt>
      <trkpt lat="42.196819" lon="2.499622">
        <ele>413.23865</ele>
        <time>2021-07-02T07:19:28Z</time>
      </trkpt>
      <trkpt lat="42.196819" lon="2.499622">
        <ele>412.53625</ele>
        <time>2021-07-02T07:19:29Z</time>
      </trkpt>
      <trkpt lat="42.196819" lon="2.499622">
        <ele>411.39026</ele>
        <time>2021-07-02T07:19:30Z</time>
      </trkpt>
      <trkpt lat="42.196819" lon="2.499622">
        <ele>387.08353</ele>
        <time>2021-07-02T07:19:31Z</time>
      </trkpt>
      <trkpt lat="42.196819" lon="2.499622">
        <ele>409.98682</ele>
        <time>2021-07-02T07:19:32Z</time>
      </trkpt>
      <trkpt lat="42.196819" lon="2.499622">
        <ele>385.49023</ele>
        <time>2021-07-02T07:19:33Z</time>
      </trkpt>
      <trkpt lat="42.196819" lon="2.499622">
        <ele>386.64139</ele>
        <time>2021-07-02T07:19:34Z</time>
      </trkpt>
      <trkpt lat="42.196819" lon="2.499622">
        <ele>385.84464</ele>
        <time>2021-07-02T07:19:35Z</time>
      </trkpt>
      <trkpt lat="42.196819" lon="2.499622">
        <ele>386.02191</ele>
        <time>2021-07-02T07:19:36Z</time>
      </trkpt>
      <trkpt lat="42.196819" lon="2.499622">
        <ele>386.32291</ele>
        <time>2021-07-02T07:19:37Z</time>
      </trkpt>
      <trkpt lat="42.196819" lon="2.499622">
        <ele>385.99957</ele>
        <time>2021-07-02T07:19:38Z</time>
      </trkpt>
      <trkpt lat="42.196819" lon="2.499622">
        <ele>385.94046</ele>
        <time>2021-07-02T07:19:39Z</time>
      </trkpt>
      <trkpt lat="42.196819" lon="2.499622">
        <ele>406.83362</ele>
        <time>2021-07-02T07:19:40Z</time>
      </trkpt>
      <trkpt lat="42.196819" lon="2.499622">
        <ele>386.47281</ele>
        <time>2021-07-02T07:19:41Z</time>
      </trkpt>
      <trkpt lat="42.196819" lon="2.499622">
        <ele>386.48700</ele>
        <time>2021-07-02T07:19:42Z</time>
      </trkpt>
      <trkpt lat="42.196819" lon="2.499622">
        <ele>386.55615</ele>
        <time>2021-07-02T07:19:43Z</time>
      </trkpt>
      <trkpt lat="42.196819" lon="2.499622">
        <ele>386.06573</ele>
        <time>2021-07-02T07:19:44Z</time>
      </trkpt>
      <trkpt lat="42.196819" lon="2.499622">
        <ele>385.84937</ele>
        <time>2021-07-02T07:19:45Z</time>
      </trkpt>
      <trkpt lat="42.196819" lon="2.499622">
        <ele>386.26050</ele>
        <time>2021-07-02T07:19:46Z</time>
      </trkpt>
      <trkpt lat="42.196819" lon="2.499622">
        <ele>385.98056</ele>
        <time>2021-07-02T07:19:47Z</time>
      </trkpt>
      <trkpt lat="42.196819" lon="2.499622">
        <ele>386.38492</ele>
        <time>2021-07-02T07:19:48Z</time>
      </trkpt>
      <trkpt lat="42.196819" lon="2.499622">
        <ele>387.12476</ele>
        <time>2021-07-02T07:19:49Z</time>
      </trkpt>
      <trkpt lat="42.196819" lon="2.499622">
        <ele>387.12476</ele>
        <time>2021-07-02T07:19:50Z</time>
      </trkpt>
      <trkpt lat="42.196819" lon="2.499622">
        <ele>400.80054</ele>
        <time>2021-07-02T07:19:51Z</time>
      </trkpt>
      <trkpt lat="42.196819" lon="2.499622">
        <ele>386.16464</ele>
        <time>2021-07-02T07:19:52Z</time>
      </trkpt>
      <trkpt lat="42.196819" lon="2.499622">
        <ele>386.04266</ele>
        <time>2021-07-02T07:19:53Z</time>
      </trkpt>
      <trkpt lat="42.196819" lon="2.499622">
        <ele>386.10144</ele>
        <time>2021-07-02T07:19:54Z</time>
      </trkpt>
      <trkpt lat="42.196819" lon="2.499622">
        <ele>386.49918</ele>
        <time>2021-07-02T07:19:55Z</time>
      </trkpt>
      <trkpt lat="42.196819" lon="2.499622">
        <ele>385.98315</ele>
        <time>2021-07-02T07:19:56Z</time>
      </trkpt>
      <trkpt lat="42.196819" lon="2.499622">
        <ele>383.95782</ele>
        <time>2021-07-02T07:19:57Z</time>
      </trkpt>
      <trkpt lat="42.196819" lon="2.499622">
        <ele>387.44070</ele>
        <time>2021-07-02T07:19:58Z</time>
      </trkpt>
      <trkpt lat="42.196819" lon="2.499622">
        <ele>384.20746</ele>
        <time>2021-07-02T07:19:59Z</time>
      </trkpt>
      <trkpt lat="42.196819" lon="2.499622">
        <ele>387.75418</ele>
        <time>2021-07-02T07:20:00Z</time>
      </trkpt>
      <trkpt lat="42.196819" lon="2.499622">
        <ele>385.93729</ele>
        <time>2021-07-02T07:20:01Z</time>
      </trkpt>
      <trkpt lat="42.196819" lon="2.499622">
        <ele>386.85406</ele>
        <time>2021-07-02T07:20:02Z</time>
      </trkpt>
      <trkpt lat="42.196819" lon="2.499622">
        <ele>385.21396</ele>
        <time>2021-07-02T07:20:03Z</time>
      </trkpt>
      <trkpt lat="42.196819" lon="2.499622">
        <ele>387.03036</ele>
        <time>2021-07-02T07:20:04Z</time>
      </trkpt>
      <trkpt lat="42.196819" lon="2.499622">
        <ele>385.25357</ele>
        <time>2021-07-02T07:20:05Z</time>
      </trkpt>
      <trkpt lat="42.196819" lon="2.499622">
        <ele>387.82211</ele>
        <time>2021-07-02T07:20:06Z</time>
      </trkpt>
      <trkpt lat="42.196819" lon="2.499622">
        <ele>386.55814</ele>
        <time>2021-07-02T07:20:07Z</time>
      </trkpt>
      <trkpt lat="42.196819" lon="2.499622">
        <ele>386.42993</ele>
        <time>2021-07-02T07:20:08Z</time>
      </trkpt>
      <trkpt lat="42.196819" lon="2.499622">
        <ele>386.43988</ele>
        <time>2021-07-02T07:20:09Z</time>
      </trkpt>
      <trkpt lat="42.196819" lon="2.499622">
        <ele>386.38290</ele>
        <time>2021-07-02T07:20:10Z</time>
      </trkpt>
      <trkpt lat="42.196819" lon="2.499622">
        <ele>386.37045</ele>
        <time>2021-07-02T07:20:11Z</time>
      </trkpt>
      <trkpt lat="42.196819" lon="2.499622">
        <ele>386.34863</ele>
        <time>2021-07-02T07:20:12Z</time>
      </trkpt>
      <trkpt lat="42.196819" lon="2.499622">
        <ele>386.23566</ele>
        <time>2021-07-02T07:20:13Z</time>
      </trkpt>
      <trkpt lat="42.196819" lon="2.499622">
        <ele>386.24731</ele>
        <time>2021-07-02T07:20:14Z</time>
      </trkpt>
      <trkpt lat="42.196819" lon="2.499622">
        <ele>386.28714</ele>
        <time>2021-07-02T07:20:15Z</time>
      </trkpt>
      <trkpt lat="42.196819" lon="2.499622">
        <ele>386.22449</ele>
        <time>2021-07-02T07:20:16Z</time>
      </trkpt>
      <trkpt lat="42.196819" lon="2.499622">
        <ele>386.22510</ele>
        <time>2021-07-02T07:20:17Z</time>
      </trkpt>
      <trkpt lat="42.196819" lon="2.499622">
        <ele>386.16766</ele>
        <time>2021-07-02T07:20:18Z</time>
      </trkpt>
      <trkpt lat="42.196819" lon="2.499622">
        <ele>386.18243</ele>
        <time>2021-07-02T07:20:19Z</time>
      </trkpt>
      <trkpt lat="42.196819" lon="2.499622">
        <ele>386.18610</ele>
        <time>2021-07-02T07:20:20Z</time>
      </trkpt>
      <trkpt lat="42.196819" lon="2.499622">
        <ele>386.26151</ele>
        <time>2021-07-02T07:20:21Z</time>
      </trkpt>
      <trkpt lat="42.196819" lon="2.499622">
        <ele>386.33093</ele>
        <time>2021-07-02T07:20:22Z</time>
      </trkpt>
      <trkpt lat="42.196819" lon="2.499622">
        <ele>386.37650</ele>
        <time>2021-07-02T07:20:23Z</time>
      </trkpt>
      <trkpt lat="42.196819" lon="2.499622">
        <ele>386.17032</ele>
        <time>2021-07-02T07:20:24Z</time>
      </trkpt>
      <trkpt lat="42.196819" lon="2.499622">
        <ele>403.47083</ele>
        <time>2021-07-02T07:20:25Z</time>
      </trkpt>
      <trkpt lat="42.196819" lon="2.499622">
        <ele>404.51282</ele>
        <time>2021-07-02T07:20:26Z</time>
      </trkpt>
      <trkpt lat="42.196819" lon="2.499622">
        <ele>404.66302</ele>
        <time>2021-07-02T07:20:27Z</time>
      </trkpt>
      <trkpt lat="42.196819" lon="2.499622">
        <ele>405.21918</ele>
        <time>2021-07-02T07:20:28Z</time>
      </trkpt>
      <trkpt lat="42.196819" lon="2.499622">
        <ele>405.88452</ele>
        <time>2021-07-02T07:20:29Z</time>
      </trkpt>
      <trkpt lat="42.196819" lon="2.499622">
        <ele>404.39154</ele>
        <time>2021-07-02T07:20:31Z</time>
      </trkpt>
      <trkpt lat="42.196819" lon="2.499622">
        <ele>404.39154</ele>
        <time>2021-07-02T07:20:32Z</time>
      </trkpt>
      <trkpt lat="42.196819" lon="2.499622">
        <ele>404.45190</ele>
        <time>2021-07-02T07:20:32Z</time>
      </trkpt>
      <trkpt lat="42.196819" lon="2.499622">
        <ele>404.55768</ele>
        <time>2021-07-02T07:20:33Z</time>
      </trkpt>
      <trkpt lat="42.196819" lon="2.499622">
        <ele>386.13385</ele>
        <time>2021-07-02T07:20:34Z</time>
      </trkpt>
      <trkpt lat="42.196819" lon="2.499622">
        <ele>386.06866</ele>
        <time>2021-07-02T07:20:35Z</time>
      </trkpt>
      <trkpt lat="42.196819" lon="2.499622">
        <ele>386.06866</ele>
        <time>2021-07-02T07:20:36Z</time>
      </trkpt>
      <trkpt lat="42.196819" lon="2.499622">
        <ele>386.05832</ele>
        <time>2021-07-02T07:20:37Z</time>
      </trkpt>
      <trkpt lat="42.196819" lon="2.499622">
        <ele>386.05927</ele>
        <time>2021-07-02T07:20:38Z</time>
      </trkpt>
      <trkpt lat="42.196819" lon="2.499622">
        <ele>386.31705</ele>
        <time>2021-07-02T07:20:39Z</time>
      </trkpt>
      <trkpt lat="42.196819" lon="2.499622">
        <ele>386.30737</ele>
        <time>2021-07-02T07:20:40Z</time>
      </trkpt>
      <trkpt lat="42.196819" lon="2.499622">
        <ele>386.03467</ele>
        <time>2021-07-02T07:20:41Z</time>
      </trkpt>
      <trkpt lat="42.196819" lon="2.499622">
        <ele>385.98230</ele>
        <time>2021-07-02T07:20:42Z</time>
      </trkpt>
      <trkpt lat="42.196819" lon="2.499622">
        <ele>386.16074</ele>
        <time>2021-07-02T07:20:43Z</time>
      </trkpt>
      <trkpt lat="42.196819" lon="2.499622">
        <ele>389.66742</ele>
        <time>2021-07-02T07:20:44Z</time>
      </trkpt>
      <trkpt lat="42.196819" lon="2.499622">
        <ele>392.10858</ele>
        <time>2021-07-02T07:20:45Z</time>
      </trkpt>
      <trkpt lat="42.196819" lon="2.499622">
        <ele>394.05267</ele>
        <time>2021-07-02T07:20:46Z</time>
      </trkpt>
      <trkpt lat="42.196819" lon="2.499622">
        <ele>395.60196</ele>
        <time>2021-07-02T07:20:47Z</time>
      </trkpt>
      <trkpt lat="42.196819" lon="2.499622">
        <ele>406.39258</ele>
        <time>2021-07-02T07:20:48Z</time>
      </trkpt>
      <trkpt lat="42.196819" lon="2.499622">
        <ele>406.42017</ele>
        <time>2021-07-02T07:20:49Z</time>
      </trkpt>
      <trkpt lat="42.196819" lon="2.499622">
        <ele>406.44269</ele>
        <time>2021-07-02T07:20:50Z</time>
      </trkpt>
      <trkpt lat="42.196819" lon="2.499622">
        <ele>406.45764</ele>
        <time>2021-07-02T07:20:51Z</time>
      </trkpt>
      <trkpt lat="42.196819" lon="2.499622">
        <ele>406.55634</ele>
        <time>2021-07-02T07:20:52Z</time>
      </trkpt>
      <trkpt lat="42.196819" lon="2.499622">
        <ele>406.62695</ele>
        <time>2021-07-02T07:20:53Z</time>
      </trkpt>
      <trkpt lat="42.196819" lon="2.499622">
        <ele>406.66956</ele>
        <time>2021-07-02T07:20:54Z</time>
      </trkpt>
      <trkpt lat="42.196819" lon="2.499622">
        <ele>406.66956</ele>
        <time>2021-07-02T07:20:56Z</time>
      </trkpt>
      <trkpt lat="42.196819" lon="2.499622">
        <ele>406.72974</ele>
        <time>2021-07-02T07:20:57Z</time>
      </trkpt>
      <trkpt lat="42.196819" lon="2.499622">
        <ele>406.73486</ele>
        <time>2021-07-02T07:20:58Z</time>
      </trkpt>
      <trkpt lat="42.196819" lon="2.499622">
        <ele>406.71741</ele>
        <time>2021-07-02T07:20:59Z</time>
      </trkpt>
      <trkpt lat="42.196819" lon="2.499622">
        <ele>406.69672</ele>
        <time>2021-07-02T07:21:00Z</time>
      </trkpt>
      <trkpt lat="42.196819" lon="2.499622">
        <ele>406.59241</ele>
        <time>2021-07-02T07:21:01Z</time>
      </trkpt>
      <trkpt lat="42.196819" lon="2.499622">
        <ele>405.98224</ele>
        <time>2021-07-02T07:21:02Z</time>
      </trkpt>
      <trkpt lat="42.196819" lon="2.499622">
        <ele>405.89471</ele>
        <time>2021-07-02T07:21:03Z</time>
      </trkpt>
      <trkpt lat="42.196819" lon="2.499622">
        <ele>405.61804</ele>
        <time>2021-07-02T07:21:04Z</time>
      </trkpt>
      <trkpt lat="42.196819" lon="2.499622">
        <ele>405.67444</ele>
        <time>2021-07-02T07:21:05Z</time>
      </trkpt>
      <trkpt lat="42.196819" lon="2.499622">
        <ele>405.41748</ele>
        <time>2021-07-02T07:21:06Z</time>
      </trkpt>
      <trkpt lat="42.196819" lon="2.499622">
        <ele>404.68854</ele>
        <time>2021-07-02T07:21:07Z</time>
      </trkpt>
      <trkpt lat="42.196819" lon="2.499622">
        <ele>404.62231</ele>
        <time>2021-07-02T07:21:08Z</time>
      </trkpt>
      <trkpt lat="42.196819" lon="2.499622">
        <ele>404.86389</ele>
        <time>2021-07-02T07:21:09Z</time>
      </trkpt>
      <trkpt lat="42.196819" lon="2.499622">
        <ele>405.77655</ele>
        <time>2021-07-02T07:21:10Z</time>
      </trkpt>
      <trkpt lat="42.196819" lon="2.499622">
        <ele>406.48120</ele>
        <time>2021-07-02T07:21:11Z</time>
      </trkpt>
      <trkpt lat="42.196819" lon="2.499622">
        <ele>407.21973</ele>
        <time>2021-07-02T07:21:12Z</time>
      </trkpt>
      <trkpt lat="42.196819" lon="2.499622">
        <ele>405.99170</ele>
        <time>2021-07-02T07:21:13Z</time>
      </trkpt>
      <trkpt lat="42.196819" lon="2.499622">
        <ele>403.44238</ele>
        <time>2021-07-02T07:21:14Z</time>
      </trkpt>
      <trkpt lat="42.196819" lon="2.499622">
        <ele>406.83038</ele>
        <time>2021-07-02T07:21:15Z</time>
      </trkpt>
      <trkpt lat="42.196819" lon="2.499622">
        <ele>406.77539</ele>
        <time>2021-07-02T07:21:16Z</time>
      </trkpt>
      <trkpt lat="42.196819" lon="2.499622">
        <ele>403.40137</ele>
        <time>2021-07-02T07:21:17Z</time>
      </trkpt>
      <trkpt lat="42.196819" lon="2.499622">
        <ele>403.41635</ele>
        <time>2021-07-02T07:21:18Z</time>
      </trkpt>
      <trkpt lat="42.196819" lon="2.499622">
        <ele>403.53455</ele>
        <time>2021-07-02T07:21:19Z</time>
      </trkpt>
      <trkpt lat="42.196819" lon="2.499622">
        <ele>408.74408</ele>
        <time>2021-07-02T07:21:20Z</time>
      </trkpt>
      <trkpt lat="42.196819" lon="2.499622">
        <ele>403.48209</ele>
        <time>2021-07-02T07:21:21Z</time>
      </trkpt>
      <trkpt lat="42.196819" lon="2.499622">
        <ele>408.58246</ele>
        <time>2021-07-02T07:21:22Z</time>
      </trkpt>
      <trkpt lat="42.196819" lon="2.499622">
        <ele>408.17896</ele>
        <time>2021-07-02T07:21:23Z</time>
      </trkpt>
      <trkpt lat="42.196819" lon="2.499622">
        <ele>408.27490</ele>
        <time>2021-07-02T07:21:24Z</time>
      </trkpt>
      <trkpt lat="42.196819" lon="2.499622">
        <ele>407.51465</ele>
        <time>2021-07-02T07:21:25Z</time>
      </trkpt>
      <trkpt lat="42.196819" lon="2.499622">
        <ele>406.63220</ele>
        <time>2021-07-02T07:21:26Z</time>
      </trkpt>
      <trkpt lat="42.196819" lon="2.499622">
        <ele>406.63220</ele>
        <time>2021-07-02T07:21:28Z</time>
      </trkpt>
      <trkpt lat="42.196819" lon="2.499622">
        <ele>406.50708</ele>
        <time>2021-07-02T07:21:28Z</time>
      </trkpt>
      <trkpt lat="42.196819" lon="2.499622">
        <ele>406.29761</ele>
        <time>2021-07-02T07:21:29Z</time>
      </trkpt>
      <trkpt lat="42.196819" lon="2.499622">
        <ele>407.18835</ele>
        <time>2021-07-02T07:21:30Z</time>
      </trkpt>
      <trkpt lat="42.196819" lon="2.499622">
        <ele>407.28613</ele>
        <time>2021-07-02T07:21:31Z</time>
      </trkpt>
      <trkpt lat="42.196819" lon="2.499622">
        <ele>406.67542</ele>
        <time>2021-07-02T07:21:32Z</time>
      </trkpt>
      <trkpt lat="42.196819" lon="2.499622">
        <ele>406.47418</ele>
        <time>2021-07-02T07:21:33Z</time>
      </trkpt>
      <trkpt lat="42.196819" lon="2.499622">
        <ele>406.40295</ele>
        <time>2021-07-02T07:21:34Z</time>
      </trkpt>
      <trkpt lat="42.196819" lon="2.499622">
        <ele>405.96875</ele>
        <time>2021-07-02T07:21:35Z</time>
      </trkpt>
      <trkpt lat="42.196819" lon="2.499622">
        <ele>403.26639</ele>
        <time>2021-07-02T07:21:36Z</time>
      </trkpt>
      <trkpt lat="42.196819" lon="2.499622">
        <ele>403.30237</ele>
        <time>2021-07-02T07:21:37Z</time>
      </trkpt>
      <trkpt lat="42.196819" lon="2.499622">
        <ele>403.85571</ele>
        <time>2021-07-02T07:21:38Z</time>
      </trkpt>
      <trkpt lat="42.196819" lon="2.499622">
        <ele>404.89050</ele>
        <time>2021-07-02T07:21:39Z</time>
      </trkpt>
      <trkpt lat="42.196819" lon="2.499622">
        <ele>405.24512</ele>
        <time>2021-07-02T07:21:40Z</time>
      </trkpt>
      <trkpt lat="42.196819" lon="2.499622">
        <ele>404.35846</ele>
        <time>2021-07-02T07:21:41Z</time>
      </trkpt>
      <trkpt lat="42.196819" lon="2.499622">
        <ele>404.86249</ele>
        <time>2021-07-02T07:21:42Z</time>
      </trkpt>
      <trkpt lat="42.196819" lon="2.499622">
        <ele>404.17224</ele>
        <time>2021-07-02T07:21:43Z</time>
      </trkpt>
      <trkpt lat="42.196819" lon="2.499622">
        <ele>404.79419</ele>
        <time>2021-07-02T07:21:44Z</time>
      </trkpt>
      <trkpt lat="42.196819" lon="2.499622">
        <ele>403.80151</ele>
        <time>2021-07-02T07:21:45Z</time>
      </trkpt>
      <trkpt lat="42.196819" lon="2.499622">
        <ele>404.63232</ele>
        <time>2021-07-02T07:21:46Z</time>
      </trkpt>
      <trkpt lat="42.196819" lon="2.499622">
        <ele>403.57785</ele>
        <time>2021-07-02T07:21:47Z</time>
      </trkpt>
      <trkpt lat="42.196819" lon="2.499622">
        <ele>405.05334</ele>
        <time>2021-07-02T07:21:48Z</time>
      </trkpt>
      <trkpt lat="42.196819" lon="2.499622">
        <ele>405.37195</ele>
        <time>2021-07-02T07:21:49Z</time>
      </trkpt>
      <trkpt lat="42.196819" lon="2.499622">
        <ele>405.27588</ele>
        <time>2021-07-02T07:21:50Z</time>
      </trkpt>
      <trkpt lat="42.196819" lon="2.499622">
        <ele>405.24371</ele>
        <time>2021-07-02T07:21:51Z</time>
      </trkpt>
      <trkpt lat="42.196819" lon="2.499622">
        <ele>405.22559</ele>
        <time>2021-07-02T07:21:52Z</time>
      </trkpt>
      <trkpt lat="42.196819" lon="2.499622">
        <ele>403.71899</ele>
        <time>2021-07-02T07:21:53Z</time>
      </trkpt>
      <trkpt lat="42.196819" lon="2.499622">
        <ele>403.80646</ele>
        <time>2021-07-02T07:21:54Z</time>
      </trkpt>
      <trkpt lat="42.196819" lon="2.499622">
        <ele>406.21606</ele>
        <time>2021-07-02T07:21:55Z</time>
      </trkpt>
      <trkpt lat="42.196819" lon="2.499622">
        <ele>405.54333</ele>
        <time>2021-07-02T07:21:56Z</time>
      </trkpt>
      <trkpt lat="42.196819" lon="2.499622">
        <ele>405.54590</ele>
        <time>2021-07-02T07:21:57Z</time>
      </trkpt>
      <trkpt lat="42.196819" lon="2.499622">
        <ele>405.75806</ele>
        <time>2021-07-02T07:21:58Z</time>
      </trkpt>
      <trkpt lat="42.196819" lon="2.499622">
        <ele>404.78613</ele>
        <time>2021-07-02T07:21:59Z</time>
      </trkpt>
      <trkpt lat="42.196819" lon="2.499622">
        <ele>405.88742</ele>
        <time>2021-07-02T07:22:00Z</time>
      </trkpt>
      <trkpt lat="42.196819" lon="2.499622">
        <ele>405.98862</ele>
        <time>2021-07-02T07:22:01Z</time>
      </trkpt>
      <trkpt lat="42.196819" lon="2.499622">
        <ele>406.01212</ele>
        <time>2021-07-02T07:22:02Z</time>
      </trkpt>
      <trkpt lat="42.196819" lon="2.499622">
        <ele>405.97662</ele>
        <time>2021-07-02T07:22:03Z</time>
      </trkpt>
      <trkpt lat="42.196819" lon="2.499622">
        <ele>405.87729</ele>
        <time>2021-07-02T07:22:04Z</time>
      </trkpt>
      <trkpt lat="42.196819" lon="2.499622">
        <ele>405.77136</ele>
        <time>2021-07-02T07:22:05Z</time>
      </trkpt>
      <trkpt lat="42.196819" lon="2.499622">
        <ele>405.75024</ele>
        <time>2021-07-02T07:22:06Z</time>
      </trkpt>
      <trkpt lat="42.196819" lon="2.499622">
        <ele>405.80194</ele>
        <time>2021-07-02T07:22:07Z</time>
      </trkpt>
      <trkpt lat="42.196819" lon="2.499622">
        <ele>405.74390</ele>
        <time>2021-07-02T07:22:08Z</time>
      </trkpt>
      <trkpt lat="42.196819" lon="2.499622">
        <ele>405.77112</ele>
        <time>2021-07-02T07:22:09Z</time>
      </trkpt>
      <trkpt lat="42.196819" lon="2.499622">
        <ele>405.67664</ele>
        <time>2021-07-02T07:22:10Z</time>
      </trkpt>
      <trkpt lat="42.196819" lon="2.499622">
        <ele>405.71658</ele>
        <time>2021-07-02T07:22:11Z</time>
      </trkpt>
      <trkpt lat="42.196819" lon="2.499622">
        <ele>405.75424</ele>
        <time>2021-07-02T07:22:12Z</time>
      </trkpt>
      <trkpt lat="42.196819" lon="2.499622">
        <ele>404.49158</ele>
        <time>2021-07-02T07:22:13Z</time>
      </trkpt>
      <trkpt lat="42.196819" lon="2.499622">
        <ele>403.58459</ele>
        <time>2021-07-02T07:22:14Z</time>
      </trkpt>
      <trkpt lat="42.196819" lon="2.499622">
        <ele>404.12329</ele>
        <time>2021-07-02T07:22:15Z</time>
      </trkpt>
      <trkpt lat="42.196819" lon="2.499622">
        <ele>403.42798</ele>
        <time>2021-07-02T07:22:16Z</time>
      </trkpt>
      <trkpt lat="42.196819" lon="2.499622">
        <ele>402.43695</ele>
        <time>2021-07-02T07:22:17Z</time>
      </trkpt>
      <trkpt lat="42.196819" lon="2.499622">
        <ele>403.27649</ele>
        <time>2021-07-02T07:22:18Z</time>
      </trkpt>
      <trkpt lat="42.196819" lon="2.499622">
        <ele>402.52124</ele>
        <time>2021-07-02T07:22:19Z</time>
      </trkpt>
      <trkpt lat="42.196819" lon="2.499622">
        <ele>403.51025</ele>
        <time>2021-07-02T07:22:20Z</time>
      </trkpt>
      <trkpt lat="42.196819" lon="2.499622">
        <ele>403.73840</ele>
        <time>2021-07-02T07:22:21Z</time>
      </trkpt>
      <trkpt lat="42.196819" lon="2.499622">
        <ele>403.61975</ele>
        <time>2021-07-02T07:22:22Z</time>
      </trkpt>
      <trkpt lat="42.196819" lon="2.499622">
        <ele>402.57092</ele>
        <time>2021-07-02T07:22:23Z</time>
      </trkpt>
      <trkpt lat="42.196819" lon="2.499622">
        <ele>403.45636</ele>
        <time>2021-07-02T07:22:24Z</time>
      </trkpt>
      <trkpt lat="42.196819" lon="2.499622">
        <ele>400.35480</ele>
        <time>2021-07-02T07:22:25Z</time>
      </trkpt>
      <trkpt lat="42.196819" lon="2.499622">
        <ele>399.70532</ele>
        <time>2021-07-02T07:22:26Z</time>
      </trkpt>
      <trkpt lat="42.196819" lon="2.499622">
        <ele>398.92737</ele>
        <time>2021-07-02T07:22:27Z</time>
      </trkpt>
      <trkpt lat="42.196819" lon="2.499622">
        <ele>399.04712</ele>
        <time>2021-07-02T07:22:28Z</time>
      </trkpt>
      <trkpt lat="42.196819" lon="2.499622">
        <ele>403.38043</ele>
        <time>2021-07-02T07:22:29Z</time>
      </trkpt>
      <trkpt lat="42.196819" lon="2.499622">
        <ele>403.38876</ele>
        <time>2021-07-02T07:22:30Z</time>
      </trkpt>
      <trkpt lat="42.196819" lon="2.499622">
        <ele>403.35818</ele>
        <time>2021-07-02T07:22:31Z</time>
      </trkpt>
      <trkpt lat="42.196819" lon="2.499622">
        <ele>397.40479</ele>
        <time>2021-07-02T07:22:32Z</time>
      </trkpt>
      <trkpt lat="42.196819" lon="2.499622">
        <ele>397.73169</ele>
        <time>2021-07-02T07:22:33Z</time>
      </trkpt>
      <trkpt lat="42.196819" lon="2.499622">
        <ele>403.35895</ele>
        <time>2021-07-02T07:22:34Z</time>
      </trkpt>
      <trkpt lat="42.196819" lon="2.499622">
        <ele>403.34314</ele>
        <time>2021-07-02T07:22:35Z</time>
      </trkpt>
      <trkpt lat="42.196819" lon="2.499622">
        <ele>403.34875</ele>
        <time>2021-07-02T07:22:36Z</time>
      </trkpt>
      <trkpt lat="42.196819" lon="2.499622">
        <ele>403.38638</ele>
        <time>2021-07-02T07:22:37Z</time>
      </trkpt>
      <trkpt lat="42.196819" lon="2.499622">
        <ele>403.31244</ele>
        <time>2021-07-02T07:22:38Z</time>
      </trkpt>
      <trkpt lat="42.196819" lon="2.499622">
        <ele>403.33258</ele>
        <time>2021-07-02T07:22:39Z</time>
      </trkpt>
      <trkpt lat="42.196819" lon="2.499622">
        <ele>403.42322</ele>
        <time>2021-07-02T07:22:40Z</time>
      </trkpt>
      <trkpt lat="42.196819" lon="2.499622">
        <ele>403.31595</ele>
        <time>2021-07-02T07:22:41Z</time>
      </trkpt>
      <trkpt lat="42.196819" lon="2.499622">
        <ele>403.36197</ele>
        <time>2021-07-02T07:22:42Z</time>
      </trkpt>
      <trkpt lat="42.196819" lon="2.499622">
        <ele>403.37570</ele>
        <time>2021-07-02T07:22:43Z</time>
      </trkpt>
      <trkpt lat="42.196819" lon="2.499622">
        <ele>403.24359</ele>
        <time>2021-07-02T07:22:44Z</time>
      </trkpt>
      <trkpt lat="42.196819" lon="2.499622">
        <ele>403.21088</ele>
        <time>2021-07-02T07:22:45Z</time>
      </trkpt>
      <trkpt lat="42.196819" lon="2.499622">
        <ele>404.31433</ele>
        <time>2021-07-02T07:22:46Z</time>
      </trkpt>
      <trkpt lat="42.196819" lon="2.499622">
        <ele>404.62711</ele>
        <time>2021-07-02T07:22:47Z</time>
      </trkpt>
      <trkpt lat="42.196819" lon="2.499622">
        <ele>403.93350</ele>
        <time>2021-07-02T07:22:48Z</time>
      </trkpt>
      <trkpt lat="42.196819" lon="2.499622">
        <ele>403.63361</ele>
        <time>2021-07-02T07:22:49Z</time>
      </trkpt>
      <trkpt lat="42.196819" lon="2.499622">
        <ele>403.53174</ele>
        <time>2021-07-02T07:22:50Z</time>
      </trkpt>
      <trkpt lat="42.196819" lon="2.499622">
        <ele>403.30292</ele>
        <time>2021-07-02T07:22:51Z</time>
      </trkpt>
      <trkpt lat="42.196819" lon="2.499622">
        <ele>403.29944</ele>
        <time>2021-07-02T07:22:52Z</time>
      </trkpt>
      <trkpt lat="42.196819" lon="2.499622">
        <ele>403.01010</ele>
        <time>2021-07-02T07:22:53Z</time>
      </trkpt>
      <trkpt lat="42.196819" lon="2.499622">
        <ele>402.77325</ele>
        <time>2021-07-02T07:22:54Z</time>
      </trkpt>
      <trkpt lat="42.196857" lon="2.499592">
        <ele>402.43738</ele>
        <time>2021-07-02T07:22:55Z</time>
      </trkpt>
      <trkpt lat="42.196896" lon="2.499543">
        <ele>402.35367</ele>
        <time>2021-07-02T07:22:56Z</time>
      </trkpt>
      <trkpt lat="42.196903" lon="2.499534">
        <ele>402.59854</ele>
        <time>2021-07-02T07:22:57Z</time>
      </trkpt>
      <trkpt lat="42.196945" lon="2.499429">
        <ele>399.28027</ele>
        <time>2021-07-02T07:22:58Z</time>
      </trkpt>
      <trkpt lat="42.196945" lon="2.499310">
        <ele>399.45410</ele>
        <time>2021-07-02T07:22:59Z</time>
      </trkpt>
      <trkpt lat="42.197155" lon="2.499325">
        <ele>399.68567</ele>
        <time>2021-07-02T07:23:00Z</time>
      </trkpt>
      <trkpt lat="42.197235" lon="2.499285">
        <ele>399.56238</ele>
        <time>2021-07-02T07:23:01Z</time>
      </trkpt>
      <trkpt lat="42.197334" lon="2.499256">
        <ele>399.47894</ele>
        <time>2021-07-02T07:23:02Z</time>
      </trkpt>
      <trkpt lat="42.197395" lon="2.499239">
        <ele>399.58472</ele>
        <time>2021-07-02T07:23:03Z</time>
      </trkpt>
      <trkpt lat="42.197479" lon="2.499214">
        <ele>399.07336</ele>
        <time>2021-07-02T07:23:04Z</time>
      </trkpt>
      <trkpt lat="42.197571" lon="2.499179">
        <ele>398.93506</ele>
        <time>2021-07-02T07:23:05Z</time>
      </trkpt>
      <trkpt lat="42.197670" lon="2.499156">
        <ele>398.78949</ele>
        <time>2021-07-02T07:23:06Z</time>
      </trkpt>
      <trkpt lat="42.197762" lon="2.499134">
        <ele>398.51453</ele>
        <time>2021-07-02T07:23:07Z</time>
      </trkpt>
      <trkpt lat="42.197880" lon="2.499105">
        <ele>398.05383</ele>
        <time>2021-07-02T07:23:08Z</time>
      </trkpt>
      <trkpt lat="42.197975" lon="2.499083">
        <ele>398.02490</ele>
        <time>2021-07-02T07:23:09Z</time>
      </trkpt>
      <trkpt lat="42.198071" lon="2.499058">
        <ele>397.49597</ele>
        <time>2021-07-02T07:23:10Z</time>
      </trkpt>
      <trkpt lat="42.198177" lon="2.499033">
        <ele>397.10120</ele>
        <time>2021-07-02T07:23:11Z</time>
      </trkpt>
      <trkpt lat="42.198292" lon="2.499005">
        <ele>396.88599</ele>
        <time>2021-07-02T07:23:12Z</time>
      </trkpt>
      <trkpt lat="42.198410" lon="2.498976">
        <ele>396.67542</ele>
        <time>2021-07-02T07:23:13Z</time>
      </trkpt>
      <trkpt lat="42.198513" lon="2.498950">
        <ele>396.63672</ele>
        <time>2021-07-02T07:23:14Z</time>
      </trkpt>
      <trkpt lat="42.198627" lon="2.498922">
        <ele>396.03223</ele>
        <time>2021-07-02T07:23:15Z</time>
      </trkpt>
      <trkpt lat="42.198742" lon="2.498893">
        <ele>395.56445</ele>
        <time>2021-07-02T07:23:16Z</time>
      </trkpt>
      <trkpt lat="42.198860" lon="2.498865">
        <ele>394.59790</ele>
        <time>2021-07-02T07:23:17Z</time>
      </trkpt>
      <trkpt lat="42.198982" lon="2.498834">
        <ele>394.46252</ele>
        <time>2021-07-02T07:23:18Z</time>
      </trkpt>
      <trkpt lat="42.198982" lon="2.498834">
        <ele>395.00928</ele>
        <time>2021-07-02T07:23:19Z</time>
      </trkpt>
      <trkpt lat="42.199104" lon="2.498804">
        <ele>394.41174</ele>
        <time>2021-07-02T07:23:20Z</time>
      </trkpt>
      <trkpt lat="42.199211" lon="2.498778">
        <ele>394.38556</ele>
        <time>2021-07-02T07:23:21Z</time>
      </trkpt>
      <trkpt lat="42.199314" lon="2.498752">
        <ele>393.53821</ele>
        <time>2021-07-02T07:23:22Z</time>
      </trkpt>
      <trkpt lat="42.199409" lon="2.498730">
        <ele>394.11737</ele>
        <time>2021-07-02T07:23:23Z</time>
      </trkpt>
      <trkpt lat="42.199520" lon="2.498705">
        <ele>393.78931</ele>
        <time>2021-07-02T07:23:24Z</time>
      </trkpt>
      <trkpt lat="42.199635" lon="2.498678">
        <ele>393.58167</ele>
        <time>2021-07-02T07:23:25Z</time>
      </trkpt>
      <trkpt lat="42.199757" lon="2.498650">
        <ele>393.62573</ele>
        <time>2021-07-02T07:23:26Z</time>
      </trkpt>
      <trkpt lat="42.199871" lon="2.498623">
        <ele>393.53125</ele>
        <time>2021-07-02T07:23:27Z</time>
      </trkpt>
      <trkpt lat="42.199989" lon="2.498594">
        <ele>393.53369</ele>
        <time>2021-07-02T07:23:28Z</time>
      </trkpt>
      <trkpt lat="42.200104" lon="2.498567">
        <ele>393.34436</ele>
        <time>2021-07-02T07:23:29Z</time>
      </trkpt>
      <trkpt lat="42.200226" lon="2.498538">
        <ele>392.93665</ele>
        <time>2021-07-02T07:23:30Z</time>
      </trkpt>
      <trkpt lat="42.200340" lon="2.498510">
        <ele>393.08478</ele>
        <time>2021-07-02T07:23:31Z</time>
      </trkpt>
      <trkpt lat="42.200451" lon="2.498484">
        <ele>393.61646</ele>
        <time>2021-07-02T07:23:32Z</time>
      </trkpt>
      <trkpt lat="42.200565" lon="2.498457">
        <ele>393.91931</ele>
        <time>2021-07-02T07:23:33Z</time>
      </trkpt>
      <trkpt lat="42.200672" lon="2.498431">
        <ele>393.98615</ele>
        <time>2021-07-02T07:23:34Z</time>
      </trkpt>
      <trkpt lat="42.200787" lon="2.498405">
        <ele>394.52991</ele>
        <time>2021-07-02T07:23:35Z</time>
      </trkpt>
      <trkpt lat="42.200905" lon="2.498378">
        <ele>394.35132</ele>
        <time>2021-07-02T07:23:36Z</time>
      </trkpt>
      <trkpt lat="42.201031" lon="2.498350">
        <ele>394.31586</ele>
        <time>2021-07-02T07:23:37Z</time>
      </trkpt>
      <trkpt lat="42.201153" lon="2.498323">
        <ele>394.77643</ele>
        <time>2021-07-02T07:23:38Z</time>
      </trkpt>
      <trkpt lat="42.201279" lon="2.498296">
        <ele>392.46881</ele>
        <time>2021-07-02T07:23:39Z</time>
      </trkpt>
      <trkpt lat="42.201340" lon="2.498286">
        <ele>390.65503</ele>
        <time>2021-07-02T07:23:40Z</time>
      </trkpt>
      <trkpt lat="42.201435" lon="2.498270">
        <ele>391.06921</ele>
        <time>2021-07-02T07:23:41Z</time>
      </trkpt>
      <trkpt lat="42.201473" lon="2.498344">
        <ele>390.89075</ele>
        <time>2021-07-02T07:23:42Z</time>
      </trkpt>
      <trkpt lat="42.201553" lon="2.498462">
        <ele>390.80042</ele>
        <time>2021-07-02T07:23:43Z</time>
      </trkpt>
      <trkpt lat="42.201649" lon="2.498509">
        <ele>392.61823</ele>
        <time>2021-07-02T07:23:44Z</time>
      </trkpt>
      <trkpt lat="42.201744" lon="2.498494">
        <ele>392.25937</ele>
        <time>2021-07-02T07:23:45Z</time>
      </trkpt>
      <trkpt lat="42.201813" lon="2.498451">
        <ele>392.29080</ele>
        <time>2021-07-02T07:23:46Z</time>
      </trkpt>
      <trkpt lat="42.201874" lon="2.498373">
        <ele>392.26120</ele>
        <time>2021-07-02T07:23:47Z</time>
      </trkpt>
      <trkpt lat="42.201908" lon="2.498260">
        <ele>391.94626</ele>
        <time>2021-07-02T07:23:48Z</time>
      </trkpt>
      <trkpt lat="42.201908" lon="2.498157">
        <ele>392.18332</ele>
        <time>2021-07-02T07:23:49Z</time>
      </trkpt>
      <trkpt lat="42.202187" lon="2.498085">
        <ele>390.96994</ele>
        <time>2021-07-02T07:23:50Z</time>
      </trkpt>
      <trkpt lat="42.202187" lon="2.498085">
        <ele>391.37595</ele>
        <time>2021-07-02T07:23:51Z</time>
      </trkpt>
      <trkpt lat="42.202312" lon="2.498056">
        <ele>391.23953</ele>
        <time>2021-07-02T07:23:52Z</time>
      </trkpt>
      <trkpt lat="42.202419" lon="2.498031">
        <ele>390.71848</ele>
        <time>2021-07-02T07:23:53Z</time>
      </trkpt>
      <trkpt lat="42.202526" lon="2.498008">
        <ele>390.50833</ele>
        <time>2021-07-02T07:23:54Z</time>
      </trkpt>
      <trkpt lat="42.202641" lon="2.497984">
        <ele>390.60153</ele>
        <time>2021-07-02T07:23:55Z</time>
      </trkpt>
      <trkpt lat="42.202766" lon="2.497953">
        <ele>391.01224</ele>
        <time>2021-07-02T07:23:56Z</time>
      </trkpt>
      <trkpt lat="42.202888" lon="2.497925">
        <ele>390.33090</ele>
        <time>2021-07-02T07:23:57Z</time>
      </trkpt>
      <trkpt lat="42.203026" lon="2.497893">
        <ele>389.75803</ele>
        <time>2021-07-02T07:23:58Z</time>
      </trkpt>
      <trkpt lat="42.203163" lon="2.497870">
        <ele>389.25577</ele>
        <time>2021-07-02T07:23:59Z</time>
      </trkpt>
      <trkpt lat="42.203297" lon="2.497849">
        <ele>389.34958</ele>
        <time>2021-07-02T07:24:00Z</time>
      </trkpt>
      <trkpt lat="42.203438" lon="2.497830">
        <ele>388.65964</ele>
        <time>2021-07-02T07:24:01Z</time>
      </trkpt>
      <trkpt lat="42.203564" lon="2.497817">
        <ele>388.08505</ele>
        <time>2021-07-02T07:24:02Z</time>
      </trkpt>
      <trkpt lat="42.203697" lon="2.497803">
        <ele>387.52707</ele>
        <time>2021-07-02T07:24:03Z</time>
      </trkpt>
      <trkpt lat="42.203827" lon="2.497789">
        <ele>388.31711</ele>
        <time>2021-07-02T07:24:04Z</time>
      </trkpt>
      <trkpt lat="42.203861" lon="2.497785">
        <ele>388.11996</ele>
        <time>2021-07-02T07:24:05Z</time>
      </trkpt>
      <trkpt lat="42.203865" lon="2.497785">
        <ele>386.76486</ele>
        <time>2021-07-02T07:24:06Z</time>
      </trkpt>
      <trkpt lat="42.204128" lon="2.497763">
        <ele>386.10654</ele>
        <time>2021-07-02T07:24:07Z</time>
      </trkpt>
      <trkpt lat="42.204308" lon="2.497749">
        <ele>385.85458</ele>
        <time>2021-07-02T07:24:08Z</time>
      </trkpt>
      <trkpt lat="42.204308" lon="2.497749">
        <ele>385.76480</ele>
        <time>2021-07-02T07:24:09Z</time>
      </trkpt>
      <trkpt lat="42.204578" lon="2.497716">
        <ele>385.56009</ele>
        <time>2021-07-02T07:24:10Z</time>
      </trkpt>
      <trkpt lat="42.204700" lon="2.497704">
        <ele>385.97165</ele>
        <time>2021-07-02T07:24:11Z</time>
      </trkpt>
      <trkpt lat="42.204700" lon="2.497704">
        <ele>387.46689</ele>
        <time>2021-07-02T07:24:12Z</time>
      </trkpt>
      <trkpt lat="42.204834" lon="2.497690">
        <ele>385.40482</ele>
        <time>2021-07-02T07:24:13Z</time>
      </trkpt>
      <trkpt lat="42.204960" lon="2.497678">
        <ele>384.46738</ele>
        <time>2021-07-02T07:24:14Z</time>
      </trkpt>
      <trkpt lat="42.205093" lon="2.497665">
        <ele>383.49704</ele>
        <time>2021-07-02T07:24:15Z</time>
      </trkpt>
      <trkpt lat="42.205238" lon="2.497651">
        <ele>383.17612</ele>
        <time>2021-07-02T07:24:16Z</time>
      </trkpt>
      <trkpt lat="42.205364" lon="2.497638">
        <ele>383.85312</ele>
        <time>2021-07-02T07:24:17Z</time>
      </trkpt>
      <trkpt lat="42.205482" lon="2.497621">
        <ele>383.64243</ele>
        <time>2021-07-02T07:24:18Z</time>
      </trkpt>
      <trkpt lat="42.205612" lon="2.497612">
        <ele>383.09531</ele>
        <time>2021-07-02T07:24:19Z</time>
      </trkpt>
      <trkpt lat="42.205734" lon="2.497602">
        <ele>383.64169</ele>
        <time>2021-07-02T07:24:20Z</time>
      </trkpt>
      <trkpt lat="42.205853" lon="2.497589">
        <ele>383.36154</ele>
        <time>2021-07-02T07:24:21Z</time>
      </trkpt>
      <trkpt lat="42.205967" lon="2.497576">
        <ele>383.24966</ele>
        <time>2021-07-02T07:24:22Z</time>
      </trkpt>
      <trkpt lat="42.206074" lon="2.497564">
        <ele>383.30490</ele>
        <time>2021-07-02T07:24:23Z</time>
      </trkpt>
      <trkpt lat="42.206184" lon="2.497552">
        <ele>383.17007</ele>
        <time>2021-07-02T07:24:24Z</time>
      </trkpt>
      <trkpt lat="42.206291" lon="2.497540">
        <ele>382.74948</ele>
        <time>2021-07-02T07:24:25Z</time>
      </trkpt>
      <trkpt lat="42.206402" lon="2.497529">
        <ele>382.72495</ele>
        <time>2021-07-02T07:24:26Z</time>
      </trkpt>
      <trkpt lat="42.206490" lon="2.497520">
        <ele>382.25241</ele>
        <time>2021-07-02T07:24:27Z</time>
      </trkpt>
      <trkpt lat="42.206589" lon="2.497509">
        <ele>381.33365</ele>
        <time>2021-07-02T07:24:28Z</time>
      </trkpt>
      <trkpt lat="42.206741" lon="2.497493">
        <ele>380.90732</ele>
        <time>2021-07-02T07:24:29Z</time>
      </trkpt>
      <trkpt lat="42.206841" lon="2.497483">
        <ele>380.78073</ele>
        <time>2021-07-02T07:24:30Z</time>
      </trkpt>
      <trkpt lat="42.206936" lon="2.497471">
        <ele>379.85812</ele>
        <time>2021-07-02T07:24:31Z</time>
      </trkpt>
      <trkpt lat="42.207031" lon="2.497468">
        <ele>378.88766</ele>
        <time>2021-07-02T07:24:32Z</time>
      </trkpt>
      <trkpt lat="42.207127" lon="2.497484">
        <ele>378.44955</ele>
        <time>2021-07-02T07:24:33Z</time>
      </trkpt>
      <trkpt lat="42.207226" lon="2.497546">
        <ele>378.33701</ele>
        <time>2021-07-02T07:24:34Z</time>
      </trkpt>
      <trkpt lat="42.207317" lon="2.497601">
        <ele>378.61789</ele>
        <time>2021-07-02T07:24:35Z</time>
      </trkpt>
      <trkpt lat="42.207401" lon="2.497658">
        <ele>379.57138</ele>
        <time>2021-07-02T07:24:36Z</time>
      </trkpt>
      <trkpt lat="42.207478" lon="2.497719">
        <ele>379.25851</ele>
        <time>2021-07-02T07:24:37Z</time>
      </trkpt>
      <trkpt lat="42.207523" lon="2.497756">
        <ele>379.22751</ele>
        <time>2021-07-02T07:24:38Z</time>
      </trkpt>
      <trkpt lat="42.207603" lon="2.497851">
        <ele>378.54379</ele>
        <time>2021-07-02T07:24:39Z</time>
      </trkpt>
      <trkpt lat="42.207668" lon="2.497976">
        <ele>377.63876</ele>
        <time>2021-07-02T07:24:40Z</time>
      </trkpt>
      <trkpt lat="42.207783" lon="2.498033">
        <ele>377.52872</ele>
        <time>2021-07-02T07:24:41Z</time>
      </trkpt>
      <trkpt lat="42.207836" lon="2.498025">
        <ele>377.52890</ele>
        <time>2021-07-02T07:24:42Z</time>
      </trkpt>
      <trkpt lat="42.207909" lon="2.497982">
        <ele>376.58322</ele>
        <time>2021-07-02T07:24:43Z</time>
      </trkpt>
      <trkpt lat="42.207966" lon="2.497895">
        <ele>375.34177</ele>
        <time>2021-07-02T07:24:44Z</time>
      </trkpt>
      <trkpt lat="42.207981" lon="2.497759">
        <ele>374.91306</ele>
        <time>2021-07-02T07:24:45Z</time>
      </trkpt>
      <trkpt lat="42.207939" lon="2.497621">
        <ele>374.78250</ele>
        <time>2021-07-02T07:24:46Z</time>
      </trkpt>
      <trkpt lat="42.207939" lon="2.497621">
        <ele>374.03354</ele>
        <time>2021-07-02T07:24:47Z</time>
      </trkpt>
      <trkpt lat="42.207867" lon="2.497560">
        <ele>373.97379</ele>
        <time>2021-07-02T07:24:48Z</time>
      </trkpt>
      <trkpt lat="42.207993" lon="2.497204">
        <ele>374.36752</ele>
        <time>2021-07-02T07:24:49Z</time>
      </trkpt>
      <trkpt lat="42.208023" lon="2.497033">
        <ele>373.85709</ele>
        <time>2021-07-02T07:24:50Z</time>
      </trkpt>
      <trkpt lat="42.208042" lon="2.496838">
        <ele>373.33676</ele>
        <time>2021-07-02T07:24:51Z</time>
      </trkpt>
      <trkpt lat="42.208069" lon="2.496578">
        <ele>374.32407</ele>
        <time>2021-07-02T07:24:52Z</time>
      </trkpt>
      <trkpt lat="42.208080" lon="2.496336">
        <ele>372.62912</ele>
        <time>2021-07-02T07:24:53Z</time>
      </trkpt>
      <trkpt lat="42.208084" lon="2.496112">
        <ele>372.61130</ele>
        <time>2021-07-02T07:24:54Z</time>
      </trkpt>
      <trkpt lat="42.208088" lon="2.495877">
        <ele>372.38394</ele>
        <time>2021-07-02T07:24:55Z</time>
      </trkpt>
      <trkpt lat="42.208096" lon="2.495645">
        <ele>372.74167</ele>
        <time>2021-07-02T07:24:56Z</time>
      </trkpt>
      <trkpt lat="42.208096" lon="2.495407">
        <ele>372.94101</ele>
        <time>2021-07-02T07:24:57Z</time>
      </trkpt>
      <trkpt lat="42.208099" lon="2.495170">
        <ele>373.06949</ele>
        <time>2021-07-02T07:24:58Z</time>
      </trkpt>
      <trkpt lat="42.208103" lon="2.494946">
        <ele>372.68448</ele>
        <time>2021-07-02T07:24:59Z</time>
      </trkpt>
      <trkpt lat="42.208107" lon="2.494707">
        <ele>372.58194</ele>
        <time>2021-07-02T07:25:00Z</time>
      </trkpt>
      <trkpt lat="42.208111" lon="2.494464">
        <ele>372.54221</ele>
        <time>2021-07-02T07:25:01Z</time>
      </trkpt>
      <trkpt lat="42.208111" lon="2.494228">
        <ele>373.00540</ele>
        <time>2021-07-02T07:25:02Z</time>
      </trkpt>
      <trkpt lat="42.208115" lon="2.493999">
        <ele>372.58347</ele>
        <time>2021-07-02T07:25:03Z</time>
      </trkpt>
      <trkpt lat="42.208118" lon="2.493782">
        <ele>372.10934</ele>
        <time>2021-07-02T07:25:04Z</time>
      </trkpt>
      <trkpt lat="42.208134" lon="2.493565">
        <ele>372.11063</ele>
        <time>2021-07-02T07:25:05Z</time>
      </trkpt>
      <trkpt lat="42.208149" lon="2.493334">
        <ele>371.70566</ele>
        <time>2021-07-02T07:25:06Z</time>
      </trkpt>
      <trkpt lat="42.208164" lon="2.493096">
        <ele>371.77414</ele>
        <time>2021-07-02T07:25:07Z</time>
      </trkpt>
      <trkpt lat="42.208183" lon="2.492864">
        <ele>373.64828</ele>
        <time>2021-07-02T07:25:08Z</time>
      </trkpt>
      <trkpt lat="42.208202" lon="2.492642">
        <ele>372.15366</ele>
        <time>2021-07-02T07:25:09Z</time>
      </trkpt>
      <trkpt lat="42.208218" lon="2.492447">
        <ele>371.75583</ele>
        <time>2021-07-02T07:25:10Z</time>
      </trkpt>
      <trkpt lat="42.208233" lon="2.492239">
        <ele>370.60703</ele>
        <time>2021-07-02T07:25:11Z</time>
      </trkpt>
      <trkpt lat="42.208252" lon="2.492002">
        <ele>371.04166</ele>
        <time>2021-07-02T07:25:12Z</time>
      </trkpt>
      <trkpt lat="42.208267" lon="2.491789">
        <ele>371.34299</ele>
        <time>2021-07-02T07:25:13Z</time>
      </trkpt>
      <trkpt lat="42.208267" lon="2.491789">
        <ele>371.19235</ele>
        <time>2021-07-02T07:25:14Z</time>
      </trkpt>
      <trkpt lat="42.208282" lon="2.491578">
        <ele>371.40048</ele>
        <time>2021-07-02T07:25:15Z</time>
      </trkpt>
      <trkpt lat="42.208290" lon="2.491494">
        <ele>371.26205</ele>
        <time>2021-07-02T07:25:16Z</time>
      </trkpt>
      <trkpt lat="42.208290" lon="2.491494">
        <ele>371.61581</ele>
        <time>2021-07-02T07:25:17Z</time>
      </trkpt>
      <trkpt lat="42.208309" lon="2.491233">
        <ele>371.64523</ele>
        <time>2021-07-02T07:25:18Z</time>
      </trkpt>
      <trkpt lat="42.208347" lon="2.490720">
        <ele>371.37180</ele>
        <time>2021-07-02T07:25:19Z</time>
      </trkpt>
      <trkpt lat="42.208363" lon="2.490492">
        <ele>371.10751</ele>
        <time>2021-07-02T07:25:20Z</time>
      </trkpt>
      <trkpt lat="42.208382" lon="2.490257">
        <ele>370.65439</ele>
        <time>2021-07-02T07:25:21Z</time>
      </trkpt>
      <trkpt lat="42.208393" lon="2.490038">
        <ele>369.89584</ele>
        <time>2021-07-02T07:25:22Z</time>
      </trkpt>
      <trkpt lat="42.208393" lon="2.490038">
        <ele>368.91757</ele>
        <time>2021-07-02T07:25:23Z</time>
      </trkpt>
      <trkpt lat="42.208427" lon="2.489539">
        <ele>367.03073</ele>
        <time>2021-07-02T07:25:24Z</time>
      </trkpt>
      <trkpt lat="42.208443" lon="2.489327">
        <ele>366.57669</ele>
        <time>2021-07-02T07:25:25Z</time>
      </trkpt>
      <trkpt lat="42.208462" lon="2.489105">
        <ele>366.25192</ele>
        <time>2021-07-02T07:25:26Z</time>
      </trkpt>
      <trkpt lat="42.208481" lon="2.488874">
        <ele>365.10849</ele>
        <time>2021-07-02T07:25:27Z</time>
      </trkpt>
      <trkpt lat="42.208496" lon="2.488627">
        <ele>364.93637</ele>
        <time>2021-07-02T07:25:28Z</time>
      </trkpt>
      <trkpt lat="42.208515" lon="2.488394">
        <ele>364.94516</ele>
        <time>2021-07-02T07:25:29Z</time>
      </trkpt>
      <trkpt lat="42.208534" lon="2.488151">
        <ele>364.83188</ele>
        <time>2021-07-02T07:25:30Z</time>
      </trkpt>
      <trkpt lat="42.208553" lon="2.487876">
        <ele>365.03647</ele>
        <time>2021-07-02T07:25:31Z</time>
      </trkpt>
      <trkpt lat="42.208576" lon="2.487620">
        <ele>364.63583</ele>
        <time>2021-07-02T07:25:32Z</time>
      </trkpt>
      <trkpt lat="42.208591" lon="2.487364">
        <ele>364.46945</ele>
        <time>2021-07-02T07:25:33Z</time>
      </trkpt>
      <trkpt lat="42.208611" lon="2.487119">
        <ele>363.95541</ele>
        <time>2021-07-02T07:25:34Z</time>
      </trkpt>
      <trkpt lat="42.208626" lon="2.486866">
        <ele>364.28561</ele>
        <time>2021-07-02T07:25:35Z</time>
      </trkpt>
      <trkpt lat="42.208641" lon="2.486612">
        <ele>362.13388</ele>
        <time>2021-07-02T07:25:36Z</time>
      </trkpt>
      <trkpt lat="42.208656" lon="2.486354">
        <ele>361.82492</ele>
        <time>2021-07-02T07:25:37Z</time>
      </trkpt>
      <trkpt lat="42.208675" lon="2.486122">
        <ele>361.02426</ele>
        <time>2021-07-02T07:25:38Z</time>
      </trkpt>
      <trkpt lat="42.208687" lon="2.485875">
        <ele>360.41879</ele>
        <time>2021-07-02T07:25:39Z</time>
      </trkpt>
      <trkpt lat="42.208687" lon="2.485875">
        <ele>359.27048</ele>
        <time>2021-07-02T07:25:40Z</time>
      </trkpt>
      <trkpt lat="42.208702" lon="2.485638">
        <ele>358.63339</ele>
        <time>2021-07-02T07:25:41Z</time>
      </trkpt>
      <trkpt lat="42.208721" lon="2.485415">
        <ele>358.49655</ele>
        <time>2021-07-02T07:25:42Z</time>
      </trkpt>
      <trkpt lat="42.208736" lon="2.485205">
        <ele>358.32150</ele>
        <time>2021-07-02T07:25:43Z</time>
      </trkpt>
      <trkpt lat="42.208748" lon="2.485009">
        <ele>359.31393</ele>
        <time>2021-07-02T07:25:44Z</time>
      </trkpt>
      <trkpt lat="42.208759" lon="2.484804">
        <ele>359.29410</ele>
        <time>2021-07-02T07:25:45Z</time>
      </trkpt>
      <trkpt lat="42.208771" lon="2.484641">
        <ele>359.56320</ele>
        <time>2021-07-02T07:25:46Z</time>
      </trkpt>
      <trkpt lat="42.208786" lon="2.484493">
        <ele>360.33835</ele>
        <time>2021-07-02T07:25:47Z</time>
      </trkpt>
      <trkpt lat="42.208801" lon="2.484308">
        <ele>360.36472</ele>
        <time>2021-07-02T07:25:48Z</time>
      </trkpt>
      <trkpt lat="42.208809" lon="2.484242">
        <ele>361.22653</ele>
        <time>2021-07-02T07:25:49Z</time>
      </trkpt>
      <trkpt lat="42.208809" lon="2.484241">
        <ele>363.02768</ele>
        <time>2021-07-02T07:25:50Z</time>
      </trkpt>
      <trkpt lat="42.208828" lon="2.483941">
        <ele>363.03207</ele>
        <time>2021-07-02T07:25:51Z</time>
      </trkpt>
      <trkpt lat="42.208851" lon="2.483637">
        <ele>363.13474</ele>
        <time>2021-07-02T07:25:52Z</time>
      </trkpt>
      <trkpt lat="42.208858" lon="2.483505">
        <ele>363.32419</ele>
        <time>2021-07-02T07:25:53Z</time>
      </trkpt>
      <trkpt lat="42.208874" lon="2.483323">
        <ele>363.30057</ele>
        <time>2021-07-02T07:25:54Z</time>
      </trkpt>
      <trkpt lat="42.208874" lon="2.483323">
        <ele>363.97354</ele>
        <time>2021-07-02T07:25:55Z</time>
      </trkpt>
      <trkpt lat="42.208900" lon="2.482953">
        <ele>363.70554</ele>
        <time>2021-07-02T07:25:56Z</time>
      </trkpt>
      <trkpt lat="42.208912" lon="2.482774">
        <ele>363.67307</ele>
        <time>2021-07-02T07:25:57Z</time>
      </trkpt>
      <trkpt lat="42.208927" lon="2.482612">
        <ele>363.82431</ele>
        <time>2021-07-02T07:25:58Z</time>
      </trkpt>
      <trkpt lat="42.208942" lon="2.482430">
        <ele>363.79843</ele>
        <time>2021-07-02T07:25:59Z</time>
      </trkpt>
      <trkpt lat="42.208958" lon="2.482220">
        <ele>363.79825</ele>
        <time>2021-07-02T07:26:00Z</time>
      </trkpt>
      <trkpt lat="42.208958" lon="2.482220">
        <ele>363.30740</ele>
        <time>2021-07-02T07:26:01Z</time>
      </trkpt>
      <trkpt lat="42.208988" lon="2.481820">
        <ele>363.50534</ele>
        <time>2021-07-02T07:26:02Z</time>
      </trkpt>
      <trkpt lat="42.209003" lon="2.481624">
        <ele>362.68680</ele>
        <time>2021-07-02T07:26:03Z</time>
      </trkpt>
      <trkpt lat="42.209019" lon="2.481433">
        <ele>362.60605</ele>
        <time>2021-07-02T07:26:04Z</time>
      </trkpt>
      <trkpt lat="42.209038" lon="2.481229">
        <ele>361.84476</ele>
        <time>2021-07-02T07:26:05Z</time>
      </trkpt>
      <trkpt lat="42.209049" lon="2.481071">
        <ele>362.34579</ele>
        <time>2021-07-02T07:26:06Z</time>
      </trkpt>
      <trkpt lat="42.209049" lon="2.481070">
        <ele>363.11325</ele>
        <time>2021-07-02T07:26:07Z</time>
      </trkpt>
      <trkpt lat="42.209057" lon="2.480943">
        <ele>362.45737</ele>
        <time>2021-07-02T07:26:08Z</time>
      </trkpt>
      <trkpt lat="42.209099" lon="2.480367">
        <ele>361.93723</ele>
        <time>2021-07-02T07:26:09Z</time>
      </trkpt>
      <trkpt lat="42.209114" lon="2.480154">
        <ele>361.50650</ele>
        <time>2021-07-02T07:26:10Z</time>
      </trkpt>
      <trkpt lat="42.209114" lon="2.480154">
        <ele>361.29636</ele>
        <time>2021-07-02T07:26:11Z</time>
      </trkpt>
      <trkpt lat="42.209133" lon="2.479906">
        <ele>361.18063</ele>
        <time>2021-07-02T07:26:12Z</time>
      </trkpt>
      <trkpt lat="42.209148" lon="2.479680">
        <ele>361.05386</ele>
        <time>2021-07-02T07:26:13Z</time>
      </trkpt>
      <trkpt lat="42.209167" lon="2.479425">
        <ele>361.18686</ele>
        <time>2021-07-02T07:26:14Z</time>
      </trkpt>
      <trkpt lat="42.209187" lon="2.479180">
        <ele>360.27243</ele>
        <time>2021-07-02T07:26:15Z</time>
      </trkpt>
      <trkpt lat="42.209206" lon="2.478903">
        <ele>360.26096</ele>
        <time>2021-07-02T07:26:16Z</time>
      </trkpt>
      <trkpt lat="42.209229" lon="2.478642">
        <ele>358.63388</ele>
        <time>2021-07-02T07:26:17Z</time>
      </trkpt>
      <trkpt lat="42.209248" lon="2.478389">
        <ele>358.23410</ele>
        <time>2021-07-02T07:26:18Z</time>
      </trkpt>
      <trkpt lat="42.209267" lon="2.478136">
        <ele>358.16855</ele>
        <time>2021-07-02T07:26:19Z</time>
      </trkpt>
      <trkpt lat="42.209286" lon="2.477887">
        <ele>357.80966</ele>
        <time>2021-07-02T07:26:20Z</time>
      </trkpt>
      <trkpt lat="42.209305" lon="2.477624">
        <ele>359.21719</ele>
        <time>2021-07-02T07:26:21Z</time>
      </trkpt>
      <trkpt lat="42.209324" lon="2.477376">
        <ele>358.92801</ele>
        <time>2021-07-02T07:26:22Z</time>
      </trkpt>
      <trkpt lat="42.209343" lon="2.477119">
        <ele>359.22263</ele>
        <time>2021-07-02T07:26:23Z</time>
      </trkpt>
      <trkpt lat="42.209358" lon="2.476873">
        <ele>358.52109</ele>
        <time>2021-07-02T07:26:24Z</time>
      </trkpt>
      <trkpt lat="42.209377" lon="2.476619">
        <ele>359.49942</ele>
        <time>2021-07-02T07:26:25Z</time>
      </trkpt>
      <trkpt lat="42.209396" lon="2.476379">
        <ele>358.73264</ele>
        <time>2021-07-02T07:26:26Z</time>
      </trkpt>
      <trkpt lat="42.209412" lon="2.476139">
        <ele>358.69180</ele>
        <time>2021-07-02T07:26:27Z</time>
      </trkpt>
      <trkpt lat="42.209431" lon="2.475889">
        <ele>359.08603</ele>
        <time>2021-07-02T07:26:28Z</time>
      </trkpt>
      <trkpt lat="42.209450" lon="2.475625">
        <ele>358.05295</ele>
        <time>2021-07-02T07:26:29Z</time>
      </trkpt>
      <trkpt lat="42.209469" lon="2.475367">
        <ele>357.59018</ele>
        <time>2021-07-02T07:26:30Z</time>
      </trkpt>
      <trkpt lat="42.209484" lon="2.475107">
        <ele>358.28964</ele>
        <time>2021-07-02T07:26:31Z</time>
      </trkpt>
      <trkpt lat="42.209503" lon="2.474852">
        <ele>358.27670</ele>
        <time>2021-07-02T07:26:32Z</time>
      </trkpt>
      <trkpt lat="42.209526" lon="2.474572">
        <ele>358.77933</ele>
        <time>2021-07-02T07:26:33Z</time>
      </trkpt>
      <trkpt lat="42.209541" lon="2.474316">
        <ele>358.33060</ele>
        <time>2021-07-02T07:26:34Z</time>
      </trkpt>
      <trkpt lat="42.209541" lon="2.474316">
        <ele>358.06656</ele>
        <time>2021-07-02T07:26:35Z</time>
      </trkpt>
      <trkpt lat="42.209564" lon="2.474043">
        <ele>358.71860</ele>
        <time>2021-07-02T07:26:36Z</time>
      </trkpt>
      <trkpt lat="42.209583" lon="2.473783">
        <ele>358.65256</ele>
        <time>2021-07-02T07:26:37Z</time>
      </trkpt>
      <trkpt lat="42.209602" lon="2.473526">
        <ele>359.13254</ele>
        <time>2021-07-02T07:26:38Z</time>
      </trkpt>
      <trkpt lat="42.209625" lon="2.473269">
        <ele>358.90952</ele>
        <time>2021-07-02T07:26:39Z</time>
      </trkpt>
      <trkpt lat="42.209644" lon="2.473029">
        <ele>359.26285</ele>
        <time>2021-07-02T07:26:40Z</time>
      </trkpt>
      <trkpt lat="42.209660" lon="2.472802">
        <ele>359.01590</ele>
        <time>2021-07-02T07:26:41Z</time>
      </trkpt>
      <trkpt lat="42.209679" lon="2.472583">
        <ele>358.73727</ele>
        <time>2021-07-02T07:26:42Z</time>
      </trkpt>
      <trkpt lat="42.209698" lon="2.472365">
        <ele>360.35202</ele>
        <time>2021-07-02T07:26:43Z</time>
      </trkpt>
      <trkpt lat="42.209713" lon="2.472164">
        <ele>360.45505</ele>
        <time>2021-07-02T07:26:44Z</time>
      </trkpt>
      <trkpt lat="42.209728" lon="2.471970">
        <ele>360.67368</ele>
        <time>2021-07-02T07:26:45Z</time>
      </trkpt>
      <trkpt lat="42.209740" lon="2.471804">
        <ele>359.37558</ele>
        <time>2021-07-02T07:26:46Z</time>
      </trkpt>
      <trkpt lat="42.209747" lon="2.471654">
        <ele>359.48154</ele>
        <time>2021-07-02T07:26:47Z</time>
      </trkpt>
      <trkpt lat="42.209770" lon="2.471524">
        <ele>359.45193</ele>
        <time>2021-07-02T07:26:48Z</time>
      </trkpt>
      <trkpt lat="42.209782" lon="2.471396">
        <ele>357.72214</ele>
        <time>2021-07-02T07:26:49Z</time>
      </trkpt>
      <trkpt lat="42.209831" lon="2.471270">
        <ele>357.39066</ele>
        <time>2021-07-02T07:26:50Z</time>
      </trkpt>
      <trkpt lat="42.209900" lon="2.471158">
        <ele>357.48459</ele>
        <time>2021-07-02T07:26:51Z</time>
      </trkpt>
      <trkpt lat="42.209923" lon="2.471018">
        <ele>357.36923</ele>
        <time>2021-07-02T07:26:52Z</time>
      </trkpt>
      <trkpt lat="42.209900" lon="2.470885">
        <ele>357.68607</ele>
        <time>2021-07-02T07:26:53Z</time>
      </trkpt>
      <trkpt lat="42.209873" lon="2.470841">
        <ele>358.69882</ele>
        <time>2021-07-02T07:26:54Z</time>
      </trkpt>
      <trkpt lat="42.209839" lon="2.470459">
        <ele>359.44284</ele>
        <time>2021-07-02T07:26:55Z</time>
      </trkpt>
      <trkpt lat="42.209843" lon="2.470272">
        <ele>359.45364</ele>
        <time>2021-07-02T07:26:56Z</time>
      </trkpt>
      <trkpt lat="42.209862" lon="2.470054">
        <ele>359.26260</ele>
        <time>2021-07-02T07:26:57Z</time>
      </trkpt>
      <trkpt lat="42.209881" lon="2.469826">
        <ele>358.84299</ele>
        <time>2021-07-02T07:26:58Z</time>
      </trkpt>
      <trkpt lat="42.209881" lon="2.469826">
        <ele>359.05087</ele>
        <time>2021-07-02T07:26:59Z</time>
      </trkpt>
      <trkpt lat="42.209908" lon="2.469465">
        <ele>358.98691</ele>
        <time>2021-07-02T07:27:00Z</time>
      </trkpt>
      <trkpt lat="42.209934" lon="2.469121">
        <ele>358.26450</ele>
        <time>2021-07-02T07:27:01Z</time>
      </trkpt>
      <trkpt lat="42.209953" lon="2.468865">
        <ele>358.29922</ele>
        <time>2021-07-02T07:27:02Z</time>
      </trkpt>
      <trkpt lat="42.209972" lon="2.468597">
        <ele>357.55368</ele>
        <time>2021-07-02T07:27:03Z</time>
      </trkpt>
      <trkpt lat="42.209991" lon="2.468347">
        <ele>358.06400</ele>
        <time>2021-07-02T07:27:04Z</time>
      </trkpt>
      <trkpt lat="42.210007" lon="2.468107">
        <ele>357.58115</ele>
        <time>2021-07-02T07:27:05Z</time>
      </trkpt>
      <trkpt lat="42.210026" lon="2.467848">
        <ele>356.78311</ele>
        <time>2021-07-02T07:27:06Z</time>
      </trkpt>
      <trkpt lat="42.210045" lon="2.467583">
        <ele>356.96805</ele>
        <time>2021-07-02T07:27:07Z</time>
      </trkpt>
      <trkpt lat="42.210064" lon="2.467312">
        <ele>356.83908</ele>
        <time>2021-07-02T07:27:08Z</time>
      </trkpt>
      <trkpt lat="42.210083" lon="2.467027">
        <ele>357.48679</ele>
        <time>2021-07-02T07:27:09Z</time>
      </trkpt>
      <trkpt lat="42.210110" lon="2.466683">
        <ele>357.03049</ele>
        <time>2021-07-02T07:27:10Z</time>
      </trkpt>
      <trkpt lat="42.210129" lon="2.466390">
        <ele>357.08493</ele>
        <time>2021-07-02T07:27:11Z</time>
      </trkpt>
      <trkpt lat="42.210129" lon="2.466390">
        <ele>357.11935</ele>
        <time>2021-07-02T07:27:12Z</time>
      </trkpt>
      <trkpt lat="42.210152" lon="2.466068">
        <ele>357.41751</ele>
        <time>2021-07-02T07:27:13Z</time>
      </trkpt>
      <trkpt lat="42.210175" lon="2.465735">
        <ele>357.48251</ele>
        <time>2021-07-02T07:27:14Z</time>
      </trkpt>
      <trkpt lat="42.210197" lon="2.465427">
        <ele>357.57809</ele>
        <time>2021-07-02T07:27:15Z</time>
      </trkpt>
      <trkpt lat="42.210220" lon="2.465128">
        <ele>358.39224</ele>
        <time>2021-07-02T07:27:16Z</time>
      </trkpt>
      <trkpt lat="42.210247" lon="2.464819">
        <ele>358.88571</ele>
        <time>2021-07-02T07:27:17Z</time>
      </trkpt>
      <trkpt lat="42.210270" lon="2.464504">
        <ele>359.01865</ele>
        <time>2021-07-02T07:27:18Z</time>
      </trkpt>
      <trkpt lat="42.210293" lon="2.464201">
        <ele>359.27304</ele>
        <time>2021-07-02T07:27:19Z</time>
      </trkpt>
      <trkpt lat="42.210312" lon="2.463879">
        <ele>360.67453</ele>
        <time>2021-07-02T07:27:20Z</time>
      </trkpt>
      <trkpt lat="42.210335" lon="2.463577">
        <ele>362.40005</ele>
        <time>2021-07-02T07:27:21Z</time>
      </trkpt>
      <trkpt lat="42.210358" lon="2.463265">
        <ele>362.57431</ele>
        <time>2021-07-02T07:27:22Z</time>
      </trkpt>
      <trkpt lat="42.210373" lon="2.463043">
        <ele>364.42490</ele>
        <time>2021-07-02T07:27:23Z</time>
      </trkpt>
      <trkpt lat="42.210373" lon="2.463043">
        <ele>364.09579</ele>
        <time>2021-07-02T07:27:24Z</time>
      </trkpt>
      <trkpt lat="42.210518" lon="2.462548">
        <ele>364.89096</ele>
        <time>2021-07-02T07:27:25Z</time>
      </trkpt>
      <trkpt lat="42.210453" lon="2.462004">
        <ele>364.71359</ele>
        <time>2021-07-02T07:27:26Z</time>
      </trkpt>
      <trkpt lat="42.210476" lon="2.461675">
        <ele>362.95981</ele>
        <time>2021-07-02T07:27:27Z</time>
      </trkpt>
      <trkpt lat="42.210499" lon="2.461358">
        <ele>361.94321</ele>
        <time>2021-07-02T07:27:28Z</time>
      </trkpt>
      <trkpt lat="42.210522" lon="2.461056">
        <ele>361.51401</ele>
        <time>2021-07-02T07:27:29Z</time>
      </trkpt>
      <trkpt lat="42.210522" lon="2.461056">
        <ele>360.64102</ele>
        <time>2021-07-02T07:27:30Z</time>
      </trkpt>
      <trkpt lat="42.210552" lon="2.460587">
        <ele>360.99826</ele>
        <time>2021-07-02T07:27:31Z</time>
      </trkpt>
      <trkpt lat="42.210571" lon="2.460327">
        <ele>360.12546</ele>
        <time>2021-07-02T07:27:32Z</time>
      </trkpt>
      <trkpt lat="42.210602" lon="2.459945">
        <ele>359.98483</ele>
        <time>2021-07-02T07:27:33Z</time>
      </trkpt>
      <trkpt lat="42.210629" lon="2.459579">
        <ele>359.21799</ele>
        <time>2021-07-02T07:27:34Z</time>
      </trkpt>
      <trkpt lat="42.210651" lon="2.459244">
        <ele>359.01059</ele>
        <time>2021-07-02T07:27:35Z</time>
      </trkpt>
      <trkpt lat="42.210674" lon="2.458923">
        <ele>357.62350</ele>
        <time>2021-07-02T07:27:36Z</time>
      </trkpt>
      <trkpt lat="42.210697" lon="2.458612">
        <ele>355.97079</ele>
        <time>2021-07-02T07:27:37Z</time>
      </trkpt>
      <trkpt lat="42.210712" lon="2.458376">
        <ele>356.02548</ele>
        <time>2021-07-02T07:27:38Z</time>
      </trkpt>
      <trkpt lat="42.210732" lon="2.458143">
        <ele>356.28452</ele>
        <time>2021-07-02T07:27:39Z</time>
      </trkpt>
      <trkpt lat="42.210751" lon="2.457873">
        <ele>356.07773</ele>
        <time>2021-07-02T07:27:40Z</time>
      </trkpt>
      <trkpt lat="42.210766" lon="2.457657">
        <ele>356.07846</ele>
        <time>2021-07-02T07:27:41Z</time>
      </trkpt>
      <trkpt lat="42.210785" lon="2.457421">
        <ele>355.65097</ele>
        <time>2021-07-02T07:27:42Z</time>
      </trkpt>
      <trkpt lat="42.210800" lon="2.457179">
        <ele>356.61594</ele>
        <time>2021-07-02T07:27:43Z</time>
      </trkpt>
      <trkpt lat="42.210819" lon="2.456943">
        <ele>355.65671</ele>
        <time>2021-07-02T07:27:44Z</time>
      </trkpt>
      <trkpt lat="42.210838" lon="2.456701">
        <ele>356.02573</ele>
        <time>2021-07-02T07:27:45Z</time>
      </trkpt>
      <trkpt lat="42.210857" lon="2.456468">
        <ele>357.47397</ele>
        <time>2021-07-02T07:27:46Z</time>
      </trkpt>
      <trkpt lat="42.210876" lon="2.456231">
        <ele>357.61978</ele>
        <time>2021-07-02T07:27:47Z</time>
      </trkpt>
      <trkpt lat="42.210892" lon="2.456061">
        <ele>357.97592</ele>
        <time>2021-07-02T07:27:48Z</time>
      </trkpt>
      <trkpt lat="42.210903" lon="2.455873">
        <ele>358.93661</ele>
        <time>2021-07-02T07:27:49Z</time>
      </trkpt>
      <trkpt lat="42.210918" lon="2.455720">
        <ele>359.15494</ele>
        <time>2021-07-02T07:27:50Z</time>
      </trkpt>
      <trkpt lat="42.210934" lon="2.455528">
        <ele>359.72305</ele>
        <time>2021-07-02T07:27:51Z</time>
      </trkpt>
      <trkpt lat="42.210949" lon="2.455330">
        <ele>359.67685</ele>
        <time>2021-07-02T07:27:52Z</time>
      </trkpt>
      <trkpt lat="42.210960" lon="2.455143">
        <ele>360.01193</ele>
        <time>2021-07-02T07:27:53Z</time>
      </trkpt>
      <trkpt lat="42.210960" lon="2.455143">
        <ele>360.19083</ele>
        <time>2021-07-02T07:27:54Z</time>
      </trkpt>
      <trkpt lat="42.210964" lon="2.455097">
        <ele>360.74161</ele>
        <time>2021-07-02T07:27:55Z</time>
      </trkpt>
      <trkpt lat="42.210964" lon="2.455096">
        <ele>362.33371</ele>
        <time>2021-07-02T07:27:56Z</time>
      </trkpt>
      <trkpt lat="42.211063" lon="2.454873">
        <ele>362.92026</ele>
        <time>2021-07-02T07:27:57Z</time>
      </trkpt>
      <trkpt lat="42.211098" lon="2.454506">
        <ele>362.90781</ele>
        <time>2021-07-02T07:27:58Z</time>
      </trkpt>
      <trkpt lat="42.211113" lon="2.454351">
        <ele>364.96555</ele>
        <time>2021-07-02T07:27:59Z</time>
      </trkpt>
      <trkpt lat="42.211128" lon="2.454193">
        <ele>364.98459</ele>
        <time>2021-07-02T07:28:00Z</time>
      </trkpt>
      <trkpt lat="42.211136" lon="2.454126">
        <ele>366.58676</ele>
        <time>2021-07-02T07:28:01Z</time>
      </trkpt>
      <trkpt lat="42.211136" lon="2.454126">
        <ele>366.93051</ele>
        <time>2021-07-02T07:28:02Z</time>
      </trkpt>
      <trkpt lat="42.211136" lon="2.454126">
        <ele>366.43674</ele>
        <time>2021-07-02T07:28:03Z</time>
      </trkpt>
      <trkpt lat="42.211136" lon="2.454126">
        <ele>366.02731</ele>
        <time>2021-07-02T07:28:04Z</time>
      </trkpt>
      <trkpt lat="42.211136" lon="2.454126">
        <ele>365.66299</ele>
        <time>2021-07-02T07:28:05Z</time>
      </trkpt>
      <trkpt lat="42.211136" lon="2.454126">
        <ele>366.57718</ele>
        <time>2021-07-02T07:28:06Z</time>
      </trkpt>
      <trkpt lat="42.211136" lon="2.454126">
        <ele>366.30978</ele>
        <time>2021-07-02T07:28:07Z</time>
      </trkpt>
      <trkpt lat="42.211136" lon="2.454126">
        <ele>367.99649</ele>
        <time>2021-07-02T07:28:08Z</time>
      </trkpt>
      <trkpt lat="42.211136" lon="2.454126">
        <ele>367.89511</ele>
        <time>2021-07-02T07:28:09Z</time>
      </trkpt>
      <trkpt lat="42.211052" lon="2.453947">
        <ele>369.54404</ele>
        <time>2021-07-02T07:28:10Z</time>
      </trkpt>
      <trkpt lat="42.211060" lon="2.453869">
        <ele>369.64401</ele>
        <time>2021-07-02T07:28:11Z</time>
      </trkpt>
      <trkpt lat="42.211067" lon="2.453756">
        <ele>369.38925</ele>
        <time>2021-07-02T07:28:12Z</time>
      </trkpt>
      <trkpt lat="42.211086" lon="2.453634">
        <ele>368.12643</ele>
        <time>2021-07-02T07:28:13Z</time>
      </trkpt>
      <trkpt lat="42.211094" lon="2.453587">
        <ele>367.93576</ele>
        <time>2021-07-02T07:28:14Z</time>
      </trkpt>
      <trkpt lat="42.211124" lon="2.453374">
        <ele>368.34897</ele>
        <time>2021-07-02T07:28:15Z</time>
      </trkpt>
      <trkpt lat="42.211143" lon="2.453247">
        <ele>368.71713</ele>
        <time>2021-07-02T07:28:16Z</time>
      </trkpt>
      <trkpt lat="42.211143" lon="2.453245">
        <ele>369.00479</ele>
        <time>2021-07-02T07:28:17Z</time>
      </trkpt>
      <trkpt lat="42.211143" lon="2.453245">
        <ele>368.87051</ele>
        <time>2021-07-02T07:28:18Z</time>
      </trkpt>
      <trkpt lat="42.211174" lon="2.453099">
        <ele>369.60300</ele>
        <time>2021-07-02T07:28:19Z</time>
      </trkpt>
      <trkpt lat="42.211258" lon="2.452691">
        <ele>369.38229</ele>
        <time>2021-07-02T07:28:20Z</time>
      </trkpt>
      <trkpt lat="42.211288" lon="2.452538">
        <ele>370.23080</ele>
        <time>2021-07-02T07:28:21Z</time>
      </trkpt>
      <trkpt lat="42.211288" lon="2.452538">
        <ele>369.98758</ele>
        <time>2021-07-02T07:28:22Z</time>
      </trkpt>
      <trkpt lat="42.211323" lon="2.452364">
        <ele>370.37656</ele>
        <time>2021-07-02T07:28:23Z</time>
      </trkpt>
      <trkpt lat="42.211361" lon="2.452152">
        <ele>370.82394</ele>
        <time>2021-07-02T07:28:24Z</time>
      </trkpt>
      <trkpt lat="42.211403" lon="2.451953">
        <ele>370.44974</ele>
        <time>2021-07-02T07:28:25Z</time>
      </trkpt>
      <trkpt lat="42.211437" lon="2.451751">
        <ele>370.49765</ele>
        <time>2021-07-02T07:28:26Z</time>
      </trkpt>
      <trkpt lat="42.211479" lon="2.451525">
        <ele>370.82980</ele>
        <time>2021-07-02T07:28:27Z</time>
      </trkpt>
      <trkpt lat="42.211533" lon="2.451300">
        <ele>370.87833</ele>
        <time>2021-07-02T07:28:28Z</time>
      </trkpt>
      <trkpt lat="42.211578" lon="2.451084">
        <ele>370.75034</ele>
        <time>2021-07-02T07:28:29Z</time>
      </trkpt>
      <trkpt lat="42.211628" lon="2.450856">
        <ele>371.88913</ele>
        <time>2021-07-02T07:28:30Z</time>
      </trkpt>
      <trkpt lat="42.211670" lon="2.450654">
        <ele>372.70761</ele>
        <time>2021-07-02T07:28:31Z</time>
      </trkpt>
      <trkpt lat="42.211723" lon="2.450404">
        <ele>372.16281</ele>
        <time>2021-07-02T07:28:32Z</time>
      </trkpt>
      <trkpt lat="42.211769" lon="2.450188">
        <ele>371.97079</ele>
        <time>2021-07-02T07:28:33Z</time>
      </trkpt>
      <trkpt lat="42.211823" lon="2.449943">
        <ele>371.65036</ele>
        <time>2021-07-02T07:28:34Z</time>
      </trkpt>
      <trkpt lat="42.211868" lon="2.449727">
        <ele>371.64157</ele>
        <time>2021-07-02T07:28:35Z</time>
      </trkpt>
      <trkpt lat="42.211914" lon="2.449523">
        <ele>372.93594</ele>
        <time>2021-07-02T07:28:36Z</time>
      </trkpt>
      <trkpt lat="42.211964" lon="2.449300">
        <ele>372.98227</ele>
        <time>2021-07-02T07:28:37Z</time>
      </trkpt>
      <trkpt lat="42.212009" lon="2.449080">
        <ele>373.10721</ele>
        <time>2021-07-02T07:28:38Z</time>
      </trkpt>
      <trkpt lat="42.212063" lon="2.448840">
        <ele>373.17862</ele>
        <time>2021-07-02T07:28:39Z</time>
      </trkpt>
      <trkpt lat="42.212120" lon="2.448583">
        <ele>373.38351</ele>
        <time>2021-07-02T07:28:40Z</time>
      </trkpt>
      <trkpt lat="42.212120" lon="2.448583">
        <ele>372.60544</ele>
        <time>2021-07-02T07:28:41Z</time>
      </trkpt>
      <trkpt lat="42.212173" lon="2.448341">
        <ele>372.73251</ele>
        <time>2021-07-02T07:28:42Z</time>
      </trkpt>
      <trkpt lat="42.212227" lon="2.448121">
        <ele>372.58032</ele>
        <time>2021-07-02T07:28:43Z</time>
      </trkpt>
      <trkpt lat="42.212280" lon="2.447891">
        <ele>372.83090</ele>
        <time>2021-07-02T07:28:44Z</time>
      </trkpt>
      <trkpt lat="42.212330" lon="2.447684">
        <ele>372.64108</ele>
        <time>2021-07-02T07:28:45Z</time>
      </trkpt>
      <trkpt lat="42.212395" lon="2.447493">
        <ele>373.18652</ele>
        <time>2021-07-02T07:28:46Z</time>
      </trkpt>
      <trkpt lat="42.212482" lon="2.447288">
        <ele>372.93900</ele>
        <time>2021-07-02T07:28:47Z</time>
      </trkpt>
      <trkpt lat="42.212597" lon="2.447104">
        <ele>373.19769</ele>
        <time>2021-07-02T07:28:48Z</time>
      </trkpt>
      <trkpt lat="42.212711" lon="2.446911">
        <ele>373.02539</ele>
        <time>2021-07-02T07:28:49Z</time>
      </trkpt>
      <trkpt lat="42.212837" lon="2.446719">
        <ele>373.06284</ele>
        <time>2021-07-02T07:28:50Z</time>
      </trkpt>
      <trkpt lat="42.212955" lon="2.446535">
        <ele>373.02658</ele>
        <time>2021-07-02T07:28:51Z</time>
      </trkpt>
      <trkpt lat="42.213062" lon="2.446364">
        <ele>372.87488</ele>
        <time>2021-07-02T07:28:52Z</time>
      </trkpt>
      <trkpt lat="42.213169" lon="2.446196">
        <ele>372.97681</ele>
        <time>2021-07-02T07:28:53Z</time>
      </trkpt>
      <trkpt lat="42.213287" lon="2.446010">
        <ele>373.33853</ele>
        <time>2021-07-02T07:28:54Z</time>
      </trkpt>
      <trkpt lat="42.213402" lon="2.445824">
        <ele>374.41391</ele>
        <time>2021-07-02T07:28:55Z</time>
      </trkpt>
      <trkpt lat="42.213512" lon="2.445605">
        <ele>375.01865</ele>
        <time>2021-07-02T07:28:56Z</time>
      </trkpt>
      <trkpt lat="42.213585" lon="2.445379">
        <ele>375.07004</ele>
        <time>2021-07-02T07:28:57Z</time>
      </trkpt>
      <trkpt lat="42.213634" lon="2.445140">
        <ele>373.57596</ele>
        <time>2021-07-02T07:28:58Z</time>
      </trkpt>
      <trkpt lat="42.213684" lon="2.444902">
        <ele>373.39191</ele>
        <time>2021-07-02T07:28:59Z</time>
      </trkpt>
      <trkpt lat="42.213737" lon="2.444655">
        <ele>373.28851</ele>
        <time>2021-07-02T07:29:00Z</time>
      </trkpt>
      <trkpt lat="42.213799" lon="2.444443">
        <ele>373.88788</ele>
        <time>2021-07-02T07:29:01Z</time>
      </trkpt>
      <trkpt lat="42.213886" lon="2.444233">
        <ele>373.51025</ele>
        <time>2021-07-02T07:29:02Z</time>
      </trkpt>
      <trkpt lat="42.213997" lon="2.444038">
        <ele>374.79477</ele>
        <time>2021-07-02T07:29:03Z</time>
      </trkpt>
      <trkpt lat="42.214111" lon="2.443837">
        <ele>374.59470</ele>
        <time>2021-07-02T07:29:04Z</time>
      </trkpt>
      <trkpt lat="42.214241" lon="2.443609">
        <ele>374.36990</ele>
        <time>2021-07-02T07:29:05Z</time>
      </trkpt>
      <trkpt lat="42.214359" lon="2.443427">
        <ele>374.68613</ele>
        <time>2021-07-02T07:29:06Z</time>
      </trkpt>
      <trkpt lat="42.214481" lon="2.443239">
        <ele>374.56223</ele>
        <time>2021-07-02T07:29:07Z</time>
      </trkpt>
      <trkpt lat="42.214619" lon="2.443044">
        <ele>374.12424</ele>
        <time>2021-07-02T07:29:08Z</time>
      </trkpt>
      <trkpt lat="42.214771" lon="2.442858">
        <ele>373.55899</ele>
        <time>2021-07-02T07:29:09Z</time>
      </trkpt>
      <trkpt lat="42.214771" lon="2.442858">
        <ele>373.20993</ele>
        <time>2021-07-02T07:29:10Z</time>
      </trkpt>
      <trkpt lat="42.214928" lon="2.442702">
        <ele>373.51376</ele>
        <time>2021-07-02T07:29:11Z</time>
      </trkpt>
      <trkpt lat="42.215111" lon="2.442560">
        <ele>373.82724</ele>
        <time>2021-07-02T07:29:12Z</time>
      </trkpt>
      <trkpt lat="42.215298" lon="2.442446">
        <ele>373.39767</ele>
        <time>2021-07-02T07:29:13Z</time>
      </trkpt>
      <trkpt lat="42.215481" lon="2.442356">
        <ele>373.19479</ele>
        <time>2021-07-02T07:29:14Z</time>
      </trkpt>
      <trkpt lat="42.215675" lon="2.442290">
        <ele>373.71445</ele>
        <time>2021-07-02T07:29:15Z</time>
      </trkpt>
      <trkpt lat="42.215866" lon="2.442264">
        <ele>373.56201</ele>
        <time>2021-07-02T07:29:16Z</time>
      </trkpt>
      <trkpt lat="42.216049" lon="2.442249">
        <ele>373.28284</ele>
        <time>2021-07-02T07:29:17Z</time>
      </trkpt>
      <trkpt lat="42.216232" lon="2.442254">
        <ele>374.30942</ele>
        <time>2021-07-02T07:29:18Z</time>
      </trkpt>
      <trkpt lat="42.216404" lon="2.442263">
        <ele>374.57187</ele>
        <time>2021-07-02T07:29:19Z</time>
      </trkpt>
      <trkpt lat="42.216572" lon="2.442289">
        <ele>374.64267</ele>
        <time>2021-07-02T07:29:20Z</time>
      </trkpt>
      <trkpt lat="42.216755" lon="2.442319">
        <ele>374.38559</ele>
        <time>2021-07-02T07:29:21Z</time>
      </trkpt>
      <trkpt lat="42.216927" lon="2.442358">
        <ele>373.09573</ele>
        <time>2021-07-02T07:29:22Z</time>
      </trkpt>
      <trkpt lat="42.217094" lon="2.442395">
        <ele>373.34131</ele>
        <time>2021-07-02T07:29:23Z</time>
      </trkpt>
      <trkpt lat="42.217270" lon="2.442420">
        <ele>373.64099</ele>
        <time>2021-07-02T07:29:24Z</time>
      </trkpt>
      <trkpt lat="42.217449" lon="2.442444">
        <ele>373.50589</ele>
        <time>2021-07-02T07:29:25Z</time>
      </trkpt>
      <trkpt lat="42.217625" lon="2.442461">
        <ele>373.18756</ele>
        <time>2021-07-02T07:29:26Z</time>
      </trkpt>
      <trkpt lat="42.217808" lon="2.442449">
        <ele>373.45844</ele>
        <time>2021-07-02T07:29:27Z</time>
      </trkpt>
      <trkpt lat="42.217968" lon="2.442405">
        <ele>373.07767</ele>
        <time>2021-07-02T07:29:28Z</time>
      </trkpt>
      <trkpt lat="42.218102" lon="2.442350">
        <ele>373.52014</ele>
        <time>2021-07-02T07:29:29Z</time>
      </trkpt>
      <trkpt lat="42.218258" lon="2.442265">
        <ele>374.39038</ele>
        <time>2021-07-02T07:29:30Z</time>
      </trkpt>
      <trkpt lat="42.218437" lon="2.442154">
        <ele>374.15805</ele>
        <time>2021-07-02T07:29:31Z</time>
      </trkpt>
      <trkpt lat="42.218620" lon="2.442036">
        <ele>374.22757</ele>
        <time>2021-07-02T07:29:32Z</time>
      </trkpt>
      <trkpt lat="42.218777" lon="2.441924">
        <ele>374.23651</ele>
        <time>2021-07-02T07:29:33Z</time>
      </trkpt>
      <trkpt lat="42.218777" lon="2.441924">
        <ele>373.85745</ele>
        <time>2021-07-02T07:29:34Z</time>
      </trkpt>
      <trkpt lat="42.218929" lon="2.441814">
        <ele>376.97635</ele>
        <time>2021-07-02T07:29:35Z</time>
      </trkpt>
      <trkpt lat="42.219090" lon="2.441701">
        <ele>377.07089</ele>
        <time>2021-07-02T07:29:36Z</time>
      </trkpt>
      <trkpt lat="42.219292" lon="2.441547">
        <ele>377.33920</ele>
        <time>2021-07-02T07:29:37Z</time>
      </trkpt>
      <trkpt lat="42.219559" lon="2.441314">
        <ele>377.37466</ele>
        <time>2021-07-02T07:29:38Z</time>
      </trkpt>
      <trkpt lat="42.219791" lon="2.441091">
        <ele>377.01828</ele>
        <time>2021-07-02T07:29:39Z</time>
      </trkpt>
      <trkpt lat="42.219791" lon="2.441091">
        <ele>376.65274</ele>
        <time>2021-07-02T07:29:40Z</time>
      </trkpt>
      <trkpt lat="42.220142" lon="2.440896">
        <ele>376.89053</ele>
        <time>2021-07-02T07:29:41Z</time>
      </trkpt>
      <trkpt lat="42.220337" lon="2.440558">
        <ele>376.98630</ele>
        <time>2021-07-02T07:29:42Z</time>
      </trkpt>
      <trkpt lat="42.220692" lon="2.440403">
        <ele>376.92404</ele>
        <time>2021-07-02T07:29:43Z</time>
      </trkpt>
      <trkpt lat="42.220924" lon="2.440316">
        <ele>376.76242</ele>
        <time>2021-07-02T07:29:44Z</time>
      </trkpt>
      <trkpt lat="42.221218" lon="2.440201">
        <ele>376.70468</ele>
        <time>2021-07-02T07:29:45Z</time>
      </trkpt>
      <trkpt lat="42.221478" lon="2.440079">
        <ele>377.21567</ele>
        <time>2021-07-02T07:29:46Z</time>
      </trkpt>
      <trkpt lat="42.221729" lon="2.439950">
        <ele>378.90341</ele>
        <time>2021-07-02T07:29:47Z</time>
      </trkpt>
      <trkpt lat="42.221985" lon="2.439785">
        <ele>380.35349</ele>
        <time>2021-07-02T07:29:48Z</time>
      </trkpt>
      <trkpt lat="42.222202" lon="2.439633">
        <ele>381.50656</ele>
        <time>2021-07-02T07:29:49Z</time>
      </trkpt>
      <trkpt lat="42.222202" lon="2.439633">
        <ele>382.50662</ele>
        <time>2021-07-02T07:29:50Z</time>
      </trkpt>
      <trkpt lat="42.222450" lon="2.439425">
        <ele>384.41464</ele>
        <time>2021-07-02T07:29:51Z</time>
      </trkpt>
      <trkpt lat="42.222672" lon="2.439216">
        <ele>385.94431</ele>
        <time>2021-07-02T07:29:52Z</time>
      </trkpt>
      <trkpt lat="42.222881" lon="2.438989">
        <ele>387.32938</ele>
        <time>2021-07-02T07:29:53Z</time>
      </trkpt>
      <trkpt lat="42.223099" lon="2.438759">
        <ele>388.32529</ele>
        <time>2021-07-02T07:29:54Z</time>
      </trkpt>
      <trkpt lat="42.223305" lon="2.438540">
        <ele>389.36063</ele>
        <time>2021-07-02T07:29:55Z</time>
      </trkpt>
      <trkpt lat="42.223499" lon="2.438332">
        <ele>391.05594</ele>
        <time>2021-07-02T07:29:56Z</time>
      </trkpt>
      <trkpt lat="42.223694" lon="2.438124">
        <ele>392.30966</ele>
        <time>2021-07-02T07:29:57Z</time>
      </trkpt>
      <trkpt lat="42.223888" lon="2.437921">
        <ele>393.37643</ele>
        <time>2021-07-02T07:29:58Z</time>
      </trkpt>
      <trkpt lat="42.224098" lon="2.437738">
        <ele>394.04477</ele>
        <time>2021-07-02T07:29:59Z</time>
      </trkpt>
      <trkpt lat="42.224319" lon="2.437583">
        <ele>394.87784</ele>
        <time>2021-07-02T07:30:00Z</time>
      </trkpt>
      <trkpt lat="42.224548" lon="2.437474">
        <ele>397.33682</ele>
        <time>2021-07-02T07:30:01Z</time>
      </trkpt>
      <trkpt lat="42.224789" lon="2.437392">
        <ele>399.72348</ele>
        <time>2021-07-02T07:30:02Z</time>
      </trkpt>
      <trkpt lat="42.225025" lon="2.437319">
        <ele>401.21921</ele>
        <time>2021-07-02T07:30:03Z</time>
      </trkpt>
      <trkpt lat="42.225060" lon="2.437314">
        <ele>401.93930</ele>
        <time>2021-07-02T07:30:04Z</time>
      </trkpt>
      <trkpt lat="42.225483" lon="2.437365">
        <ele>402.71738</ele>
        <time>2021-07-02T07:30:05Z</time>
      </trkpt>
      <trkpt lat="42.225662" lon="2.437213">
        <ele>405.43625</ele>
        <time>2021-07-02T07:30:06Z</time>
      </trkpt>
      <trkpt lat="42.225956" lon="2.437038">
        <ele>405.61972</ele>
        <time>2021-07-02T07:30:07Z</time>
      </trkpt>
      <trkpt lat="42.226181" lon="2.436969">
        <ele>405.53146</ele>
        <time>2021-07-02T07:30:08Z</time>
      </trkpt>
      <trkpt lat="42.226379" lon="2.436908">
        <ele>405.19528</ele>
        <time>2021-07-02T07:30:09Z</time>
      </trkpt>
      <trkpt lat="42.226379" lon="2.436908">
        <ele>404.97067</ele>
        <time>2021-07-02T07:30:10Z</time>
      </trkpt>
      <trkpt lat="42.226665" lon="2.436821">
        <ele>405.31161</ele>
        <time>2021-07-02T07:30:11Z</time>
      </trkpt>
      <trkpt lat="42.226887" lon="2.436754">
        <ele>406.03708</ele>
        <time>2021-07-02T07:30:12Z</time>
      </trkpt>
      <trkpt lat="42.227100" lon="2.436687">
        <ele>406.80472</ele>
        <time>2021-07-02T07:30:13Z</time>
      </trkpt>
      <trkpt lat="42.227306" lon="2.436625">
        <ele>407.04361</ele>
        <time>2021-07-02T07:30:14Z</time>
      </trkpt>
      <trkpt lat="42.227505" lon="2.436564">
        <ele>406.32394</ele>
        <time>2021-07-02T07:30:15Z</time>
      </trkpt>
      <trkpt lat="42.227703" lon="2.436503">
        <ele>406.63370</ele>
        <time>2021-07-02T07:30:16Z</time>
      </trkpt>
      <trkpt lat="42.227901" lon="2.436442">
        <ele>407.99985</ele>
        <time>2021-07-02T07:30:17Z</time>
      </trkpt>
      <trkpt lat="42.228096" lon="2.436383">
        <ele>409.44052</ele>
        <time>2021-07-02T07:30:18Z</time>
      </trkpt>
      <trkpt lat="42.228291" lon="2.436322">
        <ele>411.13217</ele>
        <time>2021-07-02T07:30:19Z</time>
      </trkpt>
      <trkpt lat="42.228481" lon="2.436265">
        <ele>411.78976</ele>
        <time>2021-07-02T07:30:20Z</time>
      </trkpt>
      <trkpt lat="42.228668" lon="2.436208">
        <ele>412.79807</ele>
        <time>2021-07-02T07:30:21Z</time>
      </trkpt>
      <trkpt lat="42.228840" lon="2.436156">
        <ele>414.08798</ele>
        <time>2021-07-02T07:30:22Z</time>
      </trkpt>
      <trkpt lat="42.229019" lon="2.436114">
        <ele>412.21378</ele>
        <time>2021-07-02T07:30:23Z</time>
      </trkpt>
      <trkpt lat="42.229183" lon="2.436093">
        <ele>412.41135</ele>
        <time>2021-07-02T07:30:24Z</time>
      </trkpt>
      <trkpt lat="42.229343" lon="2.436101">
        <ele>411.11069</ele>
        <time>2021-07-02T07:30:25Z</time>
      </trkpt>
      <trkpt lat="42.229511" lon="2.436157">
        <ele>412.51974</ele>
        <time>2021-07-02T07:30:26Z</time>
      </trkpt>
      <trkpt lat="42.229675" lon="2.436224">
        <ele>413.38632</ele>
        <time>2021-07-02T07:30:27Z</time>
      </trkpt>
      <trkpt lat="42.229862" lon="2.436302">
        <ele>413.91635</ele>
        <time>2021-07-02T07:30:28Z</time>
      </trkpt>
      <trkpt lat="42.230022" lon="2.436342">
        <ele>414.83218</ele>
        <time>2021-07-02T07:30:29Z</time>
      </trkpt>
      <trkpt lat="42.230175" lon="2.436348">
        <ele>414.91721</ele>
        <time>2021-07-02T07:30:30Z</time>
      </trkpt>
      <trkpt lat="42.230331" lon="2.436292">
        <ele>416.05502</ele>
        <time>2021-07-02T07:30:31Z</time>
      </trkpt>
      <trkpt lat="42.230457" lon="2.436199">
        <ele>416.31100</ele>
        <time>2021-07-02T07:30:32Z</time>
      </trkpt>
      <trkpt lat="42.230572" lon="2.436076">
        <ele>416.40244</ele>
        <time>2021-07-02T07:30:33Z</time>
      </trkpt>
      <trkpt lat="42.230572" lon="2.436076">
        <ele>414.80655</ele>
        <time>2021-07-02T07:30:34Z</time>
      </trkpt>
      <trkpt lat="42.230675" lon="2.435943">
        <ele>415.61038</ele>
        <time>2021-07-02T07:30:35Z</time>
      </trkpt>
      <trkpt lat="42.230801" lon="2.435766">
        <ele>415.74997</ele>
        <time>2021-07-02T07:30:36Z</time>
      </trkpt>
      <trkpt lat="42.230968" lon="2.435525">
        <ele>416.14926</ele>
        <time>2021-07-02T07:30:37Z</time>
      </trkpt>
      <trkpt lat="42.231087" lon="2.435358">
        <ele>416.19748</ele>
        <time>2021-07-02T07:30:38Z</time>
      </trkpt>
      <trkpt lat="42.231220" lon="2.435166">
        <ele>416.62595</ele>
        <time>2021-07-02T07:30:39Z</time>
      </trkpt>
      <trkpt lat="42.231350" lon="2.434983">
        <ele>416.96005</ele>
        <time>2021-07-02T07:30:40Z</time>
      </trkpt>
      <trkpt lat="42.231506" lon="2.434756">
        <ele>417.87924</ele>
        <time>2021-07-02T07:30:41Z</time>
      </trkpt>
      <trkpt lat="42.231655" lon="2.434535">
        <ele>417.92844</ele>
        <time>2021-07-02T07:30:42Z</time>
      </trkpt>
      <trkpt lat="42.231770" lon="2.434339">
        <ele>419.06985</ele>
        <time>2021-07-02T07:30:43Z</time>
      </trkpt>
      <trkpt lat="42.231861" lon="2.434126">
        <ele>418.97067</ele>
        <time>2021-07-02T07:30:44Z</time>
      </trkpt>
      <trkpt lat="42.231945" lon="2.433890">
        <ele>418.22104</ele>
        <time>2021-07-02T07:30:45Z</time>
      </trkpt>
      <trkpt lat="42.232010" lon="2.433680">
        <ele>418.78360</ele>
        <time>2021-07-02T07:30:46Z</time>
      </trkpt>
      <trkpt lat="42.232067" lon="2.433431">
        <ele>418.68466</ele>
        <time>2021-07-02T07:30:47Z</time>
      </trkpt>
      <trkpt lat="42.232124" lon="2.433197">
        <ele>418.60068</ele>
        <time>2021-07-02T07:30:48Z</time>
      </trkpt>
      <trkpt lat="42.232182" lon="2.432954">
        <ele>419.07443</ele>
        <time>2021-07-02T07:30:49Z</time>
      </trkpt>
      <trkpt lat="42.232243" lon="2.432710">
        <ele>419.42209</ele>
        <time>2021-07-02T07:30:50Z</time>
      </trkpt>
      <trkpt lat="42.232296" lon="2.432479">
        <ele>419.76987</ele>
        <time>2021-07-02T07:30:51Z</time>
      </trkpt>
      <trkpt lat="42.232361" lon="2.432259">
        <ele>419.91367</ele>
        <time>2021-07-02T07:30:52Z</time>
      </trkpt>
      <trkpt lat="42.232433" lon="2.432040">
        <ele>419.92111</ele>
        <time>2021-07-02T07:30:53Z</time>
      </trkpt>
      <trkpt lat="42.232540" lon="2.431843">
        <ele>419.19443</ele>
        <time>2021-07-02T07:30:54Z</time>
      </trkpt>
      <trkpt lat="42.232658" lon="2.431662">
        <ele>419.32150</ele>
        <time>2021-07-02T07:30:55Z</time>
      </trkpt>
      <trkpt lat="42.232803" lon="2.431498">
        <ele>417.94321</ele>
        <time>2021-07-02T07:30:56Z</time>
      </trkpt>
      <trkpt lat="42.232971" lon="2.431319">
        <ele>416.44553</ele>
        <time>2021-07-02T07:30:57Z</time>
      </trkpt>
      <trkpt lat="42.233112" lon="2.431188">
        <ele>416.16684</ele>
        <time>2021-07-02T07:30:58Z</time>
      </trkpt>
      <trkpt lat="42.233269" lon="2.431044">
        <ele>415.34958</ele>
        <time>2021-07-02T07:30:59Z</time>
      </trkpt>
      <trkpt lat="42.233429" lon="2.430897">
        <ele>415.55161</ele>
        <time>2021-07-02T07:31:00Z</time>
      </trkpt>
      <trkpt lat="42.233566" lon="2.430771">
        <ele>415.33188</ele>
        <time>2021-07-02T07:31:01Z</time>
      </trkpt>
      <trkpt lat="42.233711" lon="2.430639">
        <ele>414.86728</ele>
        <time>2021-07-02T07:31:02Z</time>
      </trkpt>
      <trkpt lat="42.233864" lon="2.430521">
        <ele>415.18503</ele>
        <time>2021-07-02T07:31:03Z</time>
      </trkpt>
      <trkpt lat="42.233864" lon="2.430521">
        <ele>414.73697</ele>
        <time>2021-07-02T07:31:04Z</time>
      </trkpt>
      <trkpt lat="42.234020" lon="2.430434">
        <ele>414.43796</ele>
        <time>2021-07-02T07:31:05Z</time>
      </trkpt>
      <trkpt lat="42.234161" lon="2.430394">
        <ele>415.37241</ele>
        <time>2021-07-02T07:31:06Z</time>
      </trkpt>
      <trkpt lat="42.234325" lon="2.430397">
        <ele>416.60410</ele>
        <time>2021-07-02T07:31:07Z</time>
      </trkpt>
      <trkpt lat="42.234524" lon="2.430455">
        <ele>416.97067</ele>
        <time>2021-07-02T07:31:08Z</time>
      </trkpt>
      <trkpt lat="42.234707" lon="2.430510">
        <ele>416.97977</ele>
        <time>2021-07-02T07:31:09Z</time>
      </trkpt>
      <trkpt lat="42.234875" lon="2.430555">
        <ele>417.43820</ele>
        <time>2021-07-02T07:31:10Z</time>
      </trkpt>
      <trkpt lat="42.235050" lon="2.430572">
        <ele>419.12460</ele>
        <time>2021-07-02T07:31:11Z</time>
      </trkpt>
      <trkpt lat="42.235229" lon="2.430520">
        <ele>419.09665</ele>
        <time>2021-07-02T07:31:12Z</time>
      </trkpt>
      <trkpt lat="42.235409" lon="2.430425">
        <ele>419.46323</ele>
        <time>2021-07-02T07:31:13Z</time>
      </trkpt>
      <trkpt lat="42.235573" lon="2.430294">
        <ele>419.11545</ele>
        <time>2021-07-02T07:31:14Z</time>
      </trkpt>
      <trkpt lat="42.235767" lon="2.430136">
        <ele>417.29483</ele>
        <time>2021-07-02T07:31:15Z</time>
      </trkpt>
      <trkpt lat="42.235966" lon="2.429975">
        <ele>417.40146</ele>
        <time>2021-07-02T07:31:16Z</time>
      </trkpt>
      <trkpt lat="42.236141" lon="2.429830">
        <ele>417.42819</ele>
        <time>2021-07-02T07:31:17Z</time>
      </trkpt>
      <trkpt lat="42.236324" lon="2.429679">
        <ele>417.20175</ele>
        <time>2021-07-02T07:31:18Z</time>
      </trkpt>
      <trkpt lat="42.236488" lon="2.429541">
        <ele>417.39462</ele>
        <time>2021-07-02T07:31:19Z</time>
      </trkpt>
      <trkpt lat="42.236664" lon="2.429395">
        <ele>416.71194</ele>
        <time>2021-07-02T07:31:20Z</time>
      </trkpt>
      <trkpt lat="42.236843" lon="2.429240">
        <ele>417.59238</ele>
        <time>2021-07-02T07:31:21Z</time>
      </trkpt>
      <trkpt lat="42.237019" lon="2.429085">
        <ele>419.32944</ele>
        <time>2021-07-02T07:31:22Z</time>
      </trkpt>
      <trkpt lat="42.237198" lon="2.428930">
        <ele>420.06754</ele>
        <time>2021-07-02T07:31:23Z</time>
      </trkpt>
      <trkpt lat="42.237362" lon="2.428784">
        <ele>420.40390</ele>
        <time>2021-07-02T07:31:24Z</time>
      </trkpt>
      <trkpt lat="42.237534" lon="2.428635">
        <ele>421.23776</ele>
        <time>2021-07-02T07:31:25Z</time>
      </trkpt>
      <trkpt lat="42.237701" lon="2.428486">
        <ele>422.75827</ele>
        <time>2021-07-02T07:31:26Z</time>
      </trkpt>
      <trkpt lat="42.237873" lon="2.428337">
        <ele>422.24252</ele>
        <time>2021-07-02T07:31:27Z</time>
      </trkpt>
      <trkpt lat="42.238014" lon="2.428165">
        <ele>422.96317</ele>
        <time>2021-07-02T07:31:28Z</time>
      </trkpt>
      <trkpt lat="42.238132" lon="2.427941">
        <ele>423.82895</ele>
        <time>2021-07-02T07:31:29Z</time>
      </trkpt>
      <trkpt lat="42.238209" lon="2.427714">
        <ele>424.62985</ele>
        <time>2021-07-02T07:31:30Z</time>
      </trkpt>
      <trkpt lat="42.238258" lon="2.427456">
        <ele>425.50095</ele>
        <time>2021-07-02T07:31:31Z</time>
      </trkpt>
      <trkpt lat="42.238285" lon="2.427153">
        <ele>426.95883</ele>
        <time>2021-07-02T07:31:32Z</time>
      </trkpt>
      <trkpt lat="42.238300" lon="2.426892">
        <ele>427.84335</ele>
        <time>2021-07-02T07:31:33Z</time>
      </trkpt>
      <trkpt lat="42.238316" lon="2.426643">
        <ele>428.27573</ele>
        <time>2021-07-02T07:31:34Z</time>
      </trkpt>
      <trkpt lat="42.238354" lon="2.426378">
        <ele>429.09006</ele>
        <time>2021-07-02T07:31:35Z</time>
      </trkpt>
      <trkpt lat="42.238422" lon="2.426125">
        <ele>429.98239</ele>
        <time>2021-07-02T07:31:36Z</time>
      </trkpt>
      <trkpt lat="42.238514" lon="2.425886">
        <ele>430.23233</ele>
        <time>2021-07-02T07:31:37Z</time>
      </trkpt>
      <trkpt lat="42.238613" lon="2.425651">
        <ele>431.15500</ele>
        <time>2021-07-02T07:31:38Z</time>
      </trkpt>
      <trkpt lat="42.238613" lon="2.425651">
        <ele>432.62131</ele>
        <time>2021-07-02T07:31:39Z</time>
      </trkpt>
      <trkpt lat="42.238724" lon="2.425388">
        <ele>434.47006</ele>
        <time>2021-07-02T07:31:40Z</time>
      </trkpt>
      <trkpt lat="42.238846" lon="2.425094">
        <ele>437.17471</ele>
        <time>2021-07-02T07:31:41Z</time>
      </trkpt>
      <trkpt lat="42.238941" lon="2.424863">
        <ele>438.08041</ele>
        <time>2021-07-02T07:31:42Z</time>
      </trkpt>
      <trkpt lat="42.239044" lon="2.424610">
        <ele>437.73825</ele>
        <time>2021-07-02T07:31:43Z</time>
      </trkpt>
      <trkpt lat="42.239124" lon="2.424357">
        <ele>439.27170</ele>
        <time>2021-07-02T07:31:44Z</time>
      </trkpt>
      <trkpt lat="42.239174" lon="2.424132">
        <ele>440.50143</ele>
        <time>2021-07-02T07:31:45Z</time>
      </trkpt>
      <trkpt lat="42.239220" lon="2.423874">
        <ele>441.68655</ele>
        <time>2021-07-02T07:31:46Z</time>
      </trkpt>
      <trkpt lat="42.239246" lon="2.423603">
        <ele>442.48141</ele>
        <time>2021-07-02T07:31:47Z</time>
      </trkpt>
      <trkpt lat="42.239273" lon="2.423344">
        <ele>445.52951</ele>
        <time>2021-07-02T07:31:48Z</time>
      </trkpt>
      <trkpt lat="42.239300" lon="2.423091">
        <ele>446.70908</ele>
        <time>2021-07-02T07:31:49Z</time>
      </trkpt>
      <trkpt lat="42.239326" lon="2.422812">
        <ele>448.21237</ele>
        <time>2021-07-02T07:31:50Z</time>
      </trkpt>
      <trkpt lat="42.239353" lon="2.422541">
        <ele>449.64828</ele>
        <time>2021-07-02T07:31:51Z</time>
      </trkpt>
      <trkpt lat="42.239380" lon="2.422251">
        <ele>450.66501</ele>
        <time>2021-07-02T07:31:52Z</time>
      </trkpt>
      <trkpt lat="42.239407" lon="2.421955">
        <ele>451.83676</ele>
        <time>2021-07-02T07:31:53Z</time>
      </trkpt>
      <trkpt lat="42.239433" lon="2.421652">
        <ele>453.04367</ele>
        <time>2021-07-02T07:31:54Z</time>
      </trkpt>
      <trkpt lat="42.239460" lon="2.421371">
        <ele>454.16415</ele>
        <time>2021-07-02T07:31:55Z</time>
      </trkpt>
      <trkpt lat="42.239487" lon="2.421075">
        <ele>455.07047</ele>
        <time>2021-07-02T07:31:56Z</time>
      </trkpt>
      <trkpt lat="42.239513" lon="2.420781">
        <ele>455.76791</ele>
        <time>2021-07-02T07:31:57Z</time>
      </trkpt>
      <trkpt lat="42.239552" lon="2.420509">
        <ele>455.92203</ele>
        <time>2021-07-02T07:31:58Z</time>
      </trkpt>
      <trkpt lat="42.239605" lon="2.420266">
        <ele>457.11325</ele>
        <time>2021-07-02T07:31:59Z</time>
      </trkpt>
      <trkpt lat="42.239708" lon="2.420049">
        <ele>458.48984</ele>
        <time>2021-07-02T07:32:00Z</time>
      </trkpt>
      <trkpt lat="42.239872" lon="2.419882">
        <ele>459.12820</ele>
        <time>2021-07-02T07:32:01Z</time>
      </trkpt>
      <trkpt lat="42.240082" lon="2.419738">
        <ele>460.22433</ele>
        <time>2021-07-02T07:32:02Z</time>
      </trkpt>
      <trkpt lat="42.240265" lon="2.419627">
        <ele>460.90768</ele>
        <time>2021-07-02T07:32:03Z</time>
      </trkpt>
      <trkpt lat="42.240463" lon="2.419505">
        <ele>461.35013</ele>
        <time>2021-07-02T07:32:04Z</time>
      </trkpt>
      <trkpt lat="42.240681" lon="2.419374">
        <ele>461.74033</ele>
        <time>2021-07-02T07:32:05Z</time>
      </trkpt>
      <trkpt lat="42.240875" lon="2.419254">
        <ele>461.35501</ele>
        <time>2021-07-02T07:32:06Z</time>
      </trkpt>
      <trkpt lat="42.241070" lon="2.419137">
        <ele>461.65091</ele>
        <time>2021-07-02T07:32:07Z</time>
      </trkpt>
      <trkpt lat="42.241257" lon="2.419015">
        <ele>461.95444</ele>
        <time>2021-07-02T07:32:08Z</time>
      </trkpt>
      <trkpt lat="42.241413" lon="2.418858">
        <ele>462.82803</ele>
        <time>2021-07-02T07:32:09Z</time>
      </trkpt>
      <trkpt lat="42.241539" lon="2.418670">
        <ele>465.23575</ele>
        <time>2021-07-02T07:32:10Z</time>
      </trkpt>
      <trkpt lat="42.241627" lon="2.418455">
        <ele>465.39651</ele>
        <time>2021-07-02T07:32:11Z</time>
      </trkpt>
      <trkpt lat="42.241680" lon="2.418212">
        <ele>466.59988</ele>
        <time>2021-07-02T07:32:12Z</time>
      </trkpt>
      <trkpt lat="42.241718" lon="2.417975">
        <ele>466.64413</ele>
        <time>2021-07-02T07:32:13Z</time>
      </trkpt>
      <trkpt lat="42.241753" lon="2.417755">
        <ele>468.68546</ele>
        <time>2021-07-02T07:32:14Z</time>
      </trkpt>
      <trkpt lat="42.241779" lon="2.417495">
        <ele>469.80563</ele>
        <time>2021-07-02T07:32:15Z</time>
      </trkpt>
      <trkpt lat="42.241810" lon="2.417215">
        <ele>470.53671</ele>
        <time>2021-07-02T07:32:16Z</time>
      </trkpt>
      <trkpt lat="42.241837" lon="2.416947">
        <ele>472.27133</ele>
        <time>2021-07-02T07:32:17Z</time>
      </trkpt>
      <trkpt lat="42.241867" lon="2.416676">
        <ele>473.31522</ele>
        <time>2021-07-02T07:32:18Z</time>
      </trkpt>
      <trkpt lat="42.241932" lon="2.416390">
        <ele>474.69626</ele>
        <time>2021-07-02T07:32:19Z</time>
      </trkpt>
      <trkpt lat="42.241932" lon="2.416390">
        <ele>474.96677</ele>
        <time>2021-07-02T07:32:20Z</time>
      </trkpt>
      <trkpt lat="42.242016" lon="2.416114">
        <ele>475.28806</ele>
        <time>2021-07-02T07:32:21Z</time>
      </trkpt>
      <trkpt lat="42.242119" lon="2.415856">
        <ele>476.76315</ele>
        <time>2021-07-02T07:32:22Z</time>
      </trkpt>
      <trkpt lat="42.242233" lon="2.415613">
        <ele>477.36594</ele>
        <time>2021-07-02T07:32:23Z</time>
      </trkpt>
      <trkpt lat="42.242348" lon="2.415392">
        <ele>478.69284</ele>
        <time>2021-07-02T07:32:24Z</time>
      </trkpt>
      <trkpt lat="42.242451" lon="2.415179">
        <ele>480.38852</ele>
        <time>2021-07-02T07:32:25Z</time>
      </trkpt>
      <trkpt lat="42.242538" lon="2.414948">
        <ele>482.42697</ele>
        <time>2021-07-02T07:32:26Z</time>
      </trkpt>
      <trkpt lat="42.242603" lon="2.414706">
        <ele>484.12607</ele>
        <time>2021-07-02T07:32:27Z</time>
      </trkpt>
      <trkpt lat="42.242645" lon="2.414448">
        <ele>486.24277</ele>
        <time>2021-07-02T07:32:28Z</time>
      </trkpt>
      <trkpt lat="42.242687" lon="2.414190">
        <ele>488.95187</ele>
        <time>2021-07-02T07:32:29Z</time>
      </trkpt>
      <trkpt lat="42.242714" lon="2.413962">
        <ele>490.34225</ele>
        <time>2021-07-02T07:32:30Z</time>
      </trkpt>
      <trkpt lat="42.242737" lon="2.413776">
        <ele>491.15512</ele>
        <time>2021-07-02T07:32:31Z</time>
      </trkpt>
      <trkpt lat="42.242748" lon="2.413634">
        <ele>492.39792</ele>
        <time>2021-07-02T07:32:32Z</time>
      </trkpt>
      <trkpt lat="42.242764" lon="2.413505">
        <ele>492.88705</ele>
        <time>2021-07-02T07:32:33Z</time>
      </trkpt>
      <trkpt lat="42.242771" lon="2.413389">
        <ele>492.86166</ele>
        <time>2021-07-02T07:32:34Z</time>
      </trkpt>
      <trkpt lat="42.242779" lon="2.413290">
        <ele>493.26437</ele>
        <time>2021-07-02T07:32:35Z</time>
      </trkpt>
      <trkpt lat="42.242783" lon="2.413202">
        <ele>493.71823</ele>
        <time>2021-07-02T07:32:36Z</time>
      </trkpt>
      <trkpt lat="42.242794" lon="2.413089">
        <ele>494.02414</ele>
        <time>2021-07-02T07:32:37Z</time>
      </trkpt>
      <trkpt lat="42.242802" lon="2.412976">
        <ele>494.72043</ele>
        <time>2021-07-02T07:32:38Z</time>
      </trkpt>
      <trkpt lat="42.242809" lon="2.412864">
        <ele>495.19296</ele>
        <time>2021-07-02T07:32:39Z</time>
      </trkpt>
      <trkpt lat="42.242813" lon="2.412757">
        <ele>495.28024</ele>
        <time>2021-07-02T07:32:40Z</time>
      </trkpt>
      <trkpt lat="42.242813" lon="2.412661">
        <ele>495.82028</ele>
        <time>2021-07-02T07:32:41Z</time>
      </trkpt>
      <trkpt lat="42.242813" lon="2.412534">
        <ele>496.89059</ele>
        <time>2021-07-02T07:32:42Z</time>
      </trkpt>
      <trkpt lat="42.242817" lon="2.412388">
        <ele>498.18112</ele>
        <time>2021-07-02T07:32:43Z</time>
      </trkpt>
      <trkpt lat="42.242817" lon="2.412259">
        <ele>499.43307</ele>
        <time>2021-07-02T07:32:44Z</time>
      </trkpt>
      <trkpt lat="42.242821" lon="2.412121">
        <ele>499.97482</ele>
        <time>2021-07-02T07:32:45Z</time>
      </trkpt>
      <trkpt lat="42.242821" lon="2.411986">
        <ele>500.28073</ele>
        <time>2021-07-02T07:32:46Z</time>
      </trkpt>
      <trkpt lat="42.242821" lon="2.411856">
        <ele>501.18320</ele>
        <time>2021-07-02T07:32:47Z</time>
      </trkpt>
      <trkpt lat="42.242825" lon="2.411729">
        <ele>502.11911</ele>
        <time>2021-07-02T07:32:48Z</time>
      </trkpt>
      <trkpt lat="42.242844" lon="2.411615">
        <ele>502.19699</ele>
        <time>2021-07-02T07:32:49Z</time>
      </trkpt>
      <trkpt lat="42.242859" lon="2.411494">
        <ele>502.58102</ele>
        <time>2021-07-02T07:32:50Z</time>
      </trkpt>
      <trkpt lat="42.242863" lon="2.411380">
        <ele>502.76804</ele>
        <time>2021-07-02T07:32:51Z</time>
      </trkpt>
      <trkpt lat="42.242863" lon="2.411380">
        <ele>503.71921</ele>
        <time>2021-07-02T07:32:52Z</time>
      </trkpt>
      <trkpt lat="42.242867" lon="2.411239">
        <ele>504.10056</ele>
        <time>2021-07-02T07:32:53Z</time>
      </trkpt>
      <trkpt lat="42.242870" lon="2.411081">
        <ele>499.24014</ele>
        <time>2021-07-02T07:32:54Z</time>
      </trkpt>
      <trkpt lat="42.242874" lon="2.410908">
        <ele>499.14609</ele>
        <time>2021-07-02T07:32:55Z</time>
      </trkpt>
      <trkpt lat="42.242874" lon="2.410721">
        <ele>499.79269</ele>
        <time>2021-07-02T07:32:56Z</time>
      </trkpt>
      <trkpt lat="42.242874" lon="2.410535">
        <ele>499.41797</ele>
        <time>2021-07-02T07:32:57Z</time>
      </trkpt>
      <trkpt lat="42.242874" lon="2.410342">
        <ele>499.20462</ele>
        <time>2021-07-02T07:32:58Z</time>
      </trkpt>
      <trkpt lat="42.242874" lon="2.410177">
        <ele>499.65680</ele>
        <time>2021-07-02T07:32:59Z</time>
      </trkpt>
      <trkpt lat="42.242859" lon="2.410036">
        <ele>499.82974</ele>
        <time>2021-07-02T07:33:00Z</time>
      </trkpt>
      <trkpt lat="42.242844" lon="2.409894">
        <ele>500.30798</ele>
        <time>2021-07-02T07:33:01Z</time>
      </trkpt>
      <trkpt lat="42.242821" lon="2.409743">
        <ele>501.29642</ele>
        <time>2021-07-02T07:33:02Z</time>
      </trkpt>
      <trkpt lat="42.242798" lon="2.409577">
        <ele>501.20465</ele>
        <time>2021-07-02T07:33:03Z</time>
      </trkpt>
      <trkpt lat="42.242771" lon="2.409405">
        <ele>501.86877</ele>
        <time>2021-07-02T07:33:04Z</time>
      </trkpt>
      <trkpt lat="42.242725" lon="2.409232">
        <ele>501.85266</ele>
        <time>2021-07-02T07:33:05Z</time>
      </trkpt>
      <trkpt lat="42.242676" lon="2.409054">
        <ele>501.92374</ele>
        <time>2021-07-02T07:33:06Z</time>
      </trkpt>
      <trkpt lat="42.242611" lon="2.408883">
        <ele>502.76276</ele>
        <time>2021-07-02T07:33:07Z</time>
      </trkpt>
      <trkpt lat="42.242527" lon="2.408711">
        <ele>502.30511</ele>
        <time>2021-07-02T07:33:08Z</time>
      </trkpt>
      <trkpt lat="42.242432" lon="2.408552">
        <ele>502.09528</ele>
        <time>2021-07-02T07:33:09Z</time>
      </trkpt>
      <trkpt lat="42.242332" lon="2.408392">
        <ele>502.57855</ele>
        <time>2021-07-02T07:33:10Z</time>
      </trkpt>
      <trkpt lat="42.242226" lon="2.408278">
        <ele>502.79050</ele>
        <time>2021-07-02T07:33:11Z</time>
      </trkpt>
      <trkpt lat="42.242126" lon="2.408138">
        <ele>502.27585</ele>
        <time>2021-07-02T07:33:12Z</time>
      </trkpt>
      <trkpt lat="42.242020" lon="2.407978">
        <ele>502.62140</ele>
        <time>2021-07-02T07:33:13Z</time>
      </trkpt>
      <trkpt lat="42.241917" lon="2.407826">
        <ele>504.30576</ele>
        <time>2021-07-02T07:33:14Z</time>
      </trkpt>
      <trkpt lat="42.241802" lon="2.407658">
        <ele>504.57660</ele>
        <time>2021-07-02T07:33:15Z</time>
      </trkpt>
      <trkpt lat="42.241688" lon="2.407480">
        <ele>509.15903</ele>
        <time>2021-07-02T07:33:16Z</time>
      </trkpt>
      <trkpt lat="42.241585" lon="2.407331">
        <ele>509.57285</ele>
        <time>2021-07-02T07:33:17Z</time>
      </trkpt>
      <trkpt lat="42.241459" lon="2.407142">
        <ele>509.47446</ele>
        <time>2021-07-02T07:33:18Z</time>
      </trkpt>
      <trkpt lat="42.241348" lon="2.406965">
        <ele>510.33066</ele>
        <time>2021-07-02T07:33:19Z</time>
      </trkpt>
      <trkpt lat="42.241238" lon="2.406763">
        <ele>510.20871</ele>
        <time>2021-07-02T07:33:20Z</time>
      </trkpt>
      <trkpt lat="42.241138" lon="2.406568">
        <ele>508.14435</ele>
        <time>2021-07-02T07:33:21Z</time>
      </trkpt>
      <trkpt lat="42.241074" lon="2.406364">
        <ele>509.40277</ele>
        <time>2021-07-02T07:33:22Z</time>
      </trkpt>
      <trkpt lat="42.241016" lon="2.406163">
        <ele>510.93961</ele>
        <time>2021-07-02T07:33:23Z</time>
      </trkpt>
      <trkpt lat="42.240978" lon="2.405976">
        <ele>511.66913</ele>
        <time>2021-07-02T07:33:24Z</time>
      </trkpt>
      <trkpt lat="42.240959" lon="2.405768">
        <ele>512.44818</ele>
        <time>2021-07-02T07:33:25Z</time>
      </trkpt>
      <trkpt lat="42.240944" lon="2.405534">
        <ele>515.09949</ele>
        <time>2021-07-02T07:33:26Z</time>
      </trkpt>
      <trkpt lat="42.240948" lon="2.405245">
        <ele>515.73499</ele>
        <time>2021-07-02T07:33:27Z</time>
      </trkpt>
      <trkpt lat="42.240948" lon="2.405245">
        <ele>514.17584</ele>
        <time>2021-07-02T07:33:28Z</time>
      </trkpt>
      <trkpt lat="42.240959" lon="2.404989">
        <ele>515.17255</ele>
        <time>2021-07-02T07:33:29Z</time>
      </trkpt>
      <trkpt lat="42.240978" lon="2.404686">
        <ele>516.60468</ele>
        <time>2021-07-02T07:33:30Z</time>
      </trkpt>
      <trkpt lat="42.240997" lon="2.404424">
        <ele>520.56268</ele>
        <time>2021-07-02T07:33:31Z</time>
      </trkpt>
      <trkpt lat="42.241013" lon="2.404162">
        <ele>521.77704</ele>
        <time>2021-07-02T07:33:32Z</time>
      </trkpt>
      <trkpt lat="42.241032" lon="2.403898">
        <ele>524.68207</ele>
        <time>2021-07-02T07:33:33Z</time>
      </trkpt>
      <trkpt lat="42.241047" lon="2.403663">
        <ele>523.29742</ele>
        <time>2021-07-02T07:33:34Z</time>
      </trkpt>
      <trkpt lat="42.241066" lon="2.403410">
        <ele>524.55426</ele>
        <time>2021-07-02T07:33:35Z</time>
      </trkpt>
      <trkpt lat="42.241085" lon="2.403132">
        <ele>525.47845</ele>
        <time>2021-07-02T07:33:36Z</time>
      </trkpt>
      <trkpt lat="42.241104" lon="2.402852">
        <ele>526.36310</ele>
        <time>2021-07-02T07:33:37Z</time>
      </trkpt>
      <trkpt lat="42.241123" lon="2.402564">
        <ele>527.36273</ele>
        <time>2021-07-02T07:33:38Z</time>
      </trkpt>
      <trkpt lat="42.241150" lon="2.402228">
        <ele>528.39484</ele>
        <time>2021-07-02T07:33:39Z</time>
      </trkpt>
      <trkpt lat="42.241177" lon="2.401877">
        <ele>530.42511</ele>
        <time>2021-07-02T07:33:40Z</time>
      </trkpt>
      <trkpt lat="42.241199" lon="2.401567">
        <ele>533.06805</ele>
        <time>2021-07-02T07:33:41Z</time>
      </trkpt>
      <trkpt lat="42.241234" lon="2.401256">
        <ele>533.18622</ele>
        <time>2021-07-02T07:33:42Z</time>
      </trkpt>
      <trkpt lat="42.241302" lon="2.400921">
        <ele>535.59515</ele>
        <time>2021-07-02T07:33:43Z</time>
      </trkpt>
      <trkpt lat="42.241386" lon="2.400534">
        <ele>536.85199</ele>
        <time>2021-07-02T07:33:44Z</time>
      </trkpt>
      <trkpt lat="42.241482" lon="2.400184">
        <ele>539.60577</ele>
        <time>2021-07-02T07:33:45Z</time>
      </trkpt>
      <trkpt lat="42.241566" lon="2.399865">
        <ele>541.47137</ele>
        <time>2021-07-02T07:33:46Z</time>
      </trkpt>
      <trkpt lat="42.241661" lon="2.399522">
        <ele>543.12323</ele>
        <time>2021-07-02T07:33:47Z</time>
      </trkpt>
      <trkpt lat="42.241745" lon="2.399210">
        <ele>544.45209</ele>
        <time>2021-07-02T07:33:48Z</time>
      </trkpt>
      <trkpt lat="42.241829" lon="2.398894">
        <ele>544.86407</ele>
        <time>2021-07-02T07:33:49Z</time>
      </trkpt>
      <trkpt lat="42.241905" lon="2.398598">
        <ele>546.34369</ele>
        <time>2021-07-02T07:33:50Z</time>
      </trkpt>
      <trkpt lat="42.241978" lon="2.398282">
        <ele>548.23163</ele>
        <time>2021-07-02T07:33:51Z</time>
      </trkpt>
      <trkpt lat="42.242016" lon="2.397976">
        <ele>549.56531</ele>
        <time>2021-07-02T07:33:52Z</time>
      </trkpt>
      <trkpt lat="42.242023" lon="2.397640">
        <ele>551.37280</ele>
        <time>2021-07-02T07:33:53Z</time>
      </trkpt>
      <trkpt lat="42.242004" lon="2.397292">
        <ele>552.57104</ele>
        <time>2021-07-02T07:33:54Z</time>
      </trkpt>
      <trkpt lat="42.241974" lon="2.396979">
        <ele>554.18823</ele>
        <time>2021-07-02T07:33:55Z</time>
      </trkpt>
      <trkpt lat="42.241943" lon="2.396675">
        <ele>555.52222</ele>
        <time>2021-07-02T07:33:56Z</time>
      </trkpt>
      <trkpt lat="42.241913" lon="2.396345">
        <ele>556.38770</ele>
        <time>2021-07-02T07:33:57Z</time>
      </trkpt>
      <trkpt lat="42.241901" lon="2.396013">
        <ele>556.31616</ele>
        <time>2021-07-02T07:33:58Z</time>
      </trkpt>
      <trkpt lat="42.241909" lon="2.395687">
        <ele>558.08252</ele>
        <time>2021-07-02T07:33:59Z</time>
      </trkpt>
      <trkpt lat="42.241955" lon="2.395370">
        <ele>559.10889</ele>
        <time>2021-07-02T07:34:00Z</time>
      </trkpt>
      <trkpt lat="42.241955" lon="2.395370">
        <ele>560.85449</ele>
        <time>2021-07-02T07:34:01Z</time>
      </trkpt>
      <trkpt lat="42.242016" lon="2.395053">
        <ele>562.19824</ele>
        <time>2021-07-02T07:34:02Z</time>
      </trkpt>
      <trkpt lat="42.242088" lon="2.394706">
        <ele>563.27649</ele>
        <time>2021-07-02T07:34:03Z</time>
      </trkpt>
      <trkpt lat="42.242138" lon="2.394362">
        <ele>563.77954</ele>
        <time>2021-07-02T07:34:04Z</time>
      </trkpt>
      <trkpt lat="42.242172" lon="2.394008">
        <ele>565.81738</ele>
        <time>2021-07-02T07:34:05Z</time>
      </trkpt>
      <trkpt lat="42.242161" lon="2.393632">
        <ele>566.07141</ele>
        <time>2021-07-02T07:34:06Z</time>
      </trkpt>
      <trkpt lat="42.242126" lon="2.393274">
        <ele>566.79541</ele>
        <time>2021-07-02T07:34:07Z</time>
      </trkpt>
      <trkpt lat="42.242065" lon="2.392911">
        <ele>569.71021</ele>
        <time>2021-07-02T07:34:08Z</time>
      </trkpt>
      <trkpt lat="42.242001" lon="2.392546">
        <ele>570.24170</ele>
        <time>2021-07-02T07:34:09Z</time>
      </trkpt>
      <trkpt lat="42.241947" lon="2.392184">
        <ele>571.90698</ele>
        <time>2021-07-02T07:34:10Z</time>
      </trkpt>
      <trkpt lat="42.241913" lon="2.391830">
        <ele>574.18970</ele>
        <time>2021-07-02T07:34:11Z</time>
      </trkpt>
      <trkpt lat="42.241913" lon="2.391467">
        <ele>574.07568</ele>
        <time>2021-07-02T07:34:12Z</time>
      </trkpt>
      <trkpt lat="42.241940" lon="2.391113">
        <ele>574.59521</ele>
        <time>2021-07-02T07:34:13Z</time>
      </trkpt>
      <trkpt lat="42.242008" lon="2.390723">
        <ele>576.05054</ele>
        <time>2021-07-02T07:34:14Z</time>
      </trkpt>
      <trkpt lat="42.242100" lon="2.390364">
        <ele>577.66943</ele>
        <time>2021-07-02T07:34:15Z</time>
      </trkpt>
      <trkpt lat="42.242199" lon="2.390072">
        <ele>578.84106</ele>
        <time>2021-07-02T07:34:16Z</time>
      </trkpt>
      <trkpt lat="42.242290" lon="2.389786">
        <ele>580.17090</ele>
        <time>2021-07-02T07:34:17Z</time>
      </trkpt>
      <trkpt lat="42.242393" lon="2.389443">
        <ele>580.82251</ele>
        <time>2021-07-02T07:34:18Z</time>
      </trkpt>
      <trkpt lat="42.242462" lon="2.389142">
        <ele>582.73010</ele>
        <time>2021-07-02T07:34:19Z</time>
      </trkpt>
      <trkpt lat="42.242500" lon="2.388858">
        <ele>584.25610</ele>
        <time>2021-07-02T07:34:20Z</time>
      </trkpt>
      <trkpt lat="42.242523" lon="2.388571">
        <ele>585.61841</ele>
        <time>2021-07-02T07:34:21Z</time>
      </trkpt>
      <trkpt lat="42.242527" lon="2.388307">
        <ele>587.51721</ele>
        <time>2021-07-02T07:34:22Z</time>
      </trkpt>
      <trkpt lat="42.242516" lon="2.388027">
        <ele>587.34204</ele>
        <time>2021-07-02T07:34:23Z</time>
      </trkpt>
      <trkpt lat="42.242496" lon="2.387752">
        <ele>588.35913</ele>
        <time>2021-07-02T07:34:24Z</time>
      </trkpt>
      <trkpt lat="42.242481" lon="2.387529">
        <ele>588.65051</ele>
        <time>2021-07-02T07:34:25Z</time>
      </trkpt>
      <trkpt lat="42.242470" lon="2.387296">
        <ele>588.85840</ele>
        <time>2021-07-02T07:34:26Z</time>
      </trkpt>
      <trkpt lat="42.242470" lon="2.387042">
        <ele>588.85840</ele>
        <time>2021-07-02T07:34:27Z</time>
      </trkpt>
      <trkpt lat="42.242477" lon="2.386864">
        <ele>588.85840</ele>
        <time>2021-07-02T07:34:28Z</time>
      </trkpt>
      <trkpt lat="42.242477" lon="2.386864">
        <ele>588.85840</ele>
        <time>2021-07-02T07:34:29Z</time>
      </trkpt>
      <trkpt lat="42.242477" lon="2.386864">
        <ele>606.61414</ele>
        <time>2021-07-02T07:34:30Z</time>
      </trkpt>
      <trkpt lat="42.242500" lon="2.386690">
        <ele>600.03662</ele>
        <time>2021-07-02T07:34:31Z</time>
      </trkpt>
      <trkpt lat="42.242676" lon="2.385976">
        <ele>598.08215</ele>
        <time>2021-07-02T07:34:32Z</time>
      </trkpt>
      <trkpt lat="42.242805" lon="2.385646">
        <ele>597.13879</ele>
        <time>2021-07-02T07:34:33Z</time>
      </trkpt>
      <trkpt lat="42.242805" lon="2.385646">
        <ele>597.49878</ele>
        <time>2021-07-02T07:34:34Z</time>
      </trkpt>
      <trkpt lat="42.242939" lon="2.385347">
        <ele>598.58459</ele>
        <time>2021-07-02T07:34:35Z</time>
      </trkpt>
      <trkpt lat="42.243050" lon="2.385090">
        <ele>599.13232</ele>
        <time>2021-07-02T07:34:36Z</time>
      </trkpt>
      <trkpt lat="42.243141" lon="2.384849">
        <ele>602.13501</ele>
        <time>2021-07-02T07:34:37Z</time>
      </trkpt>
      <trkpt lat="42.243221" lon="2.384621">
        <ele>605.18872</ele>
        <time>2021-07-02T07:34:38Z</time>
      </trkpt>
      <trkpt lat="42.243282" lon="2.384375">
        <ele>607.20166</ele>
        <time>2021-07-02T07:34:39Z</time>
      </trkpt>
      <trkpt lat="42.243328" lon="2.384103">
        <ele>609.76245</ele>
        <time>2021-07-02T07:34:40Z</time>
      </trkpt>
      <trkpt lat="42.243366" lon="2.383837">
        <ele>611.41260</ele>
        <time>2021-07-02T07:34:41Z</time>
      </trkpt>
      <trkpt lat="42.243382" lon="2.383582">
        <ele>612.69116</ele>
        <time>2021-07-02T07:34:42Z</time>
      </trkpt>
      <trkpt lat="42.243378" lon="2.383324">
        <ele>613.80859</ele>
        <time>2021-07-02T07:34:43Z</time>
      </trkpt>
      <trkpt lat="42.243347" lon="2.383071">
        <ele>613.82715</ele>
        <time>2021-07-02T07:34:44Z</time>
      </trkpt>
      <trkpt lat="42.243313" lon="2.382803">
        <ele>613.82715</ele>
        <time>2021-07-02T07:34:45Z</time>
      </trkpt>
      <trkpt lat="42.243263" lon="2.382553">
        <ele>613.82715</ele>
        <time>2021-07-02T07:34:46Z</time>
      </trkpt>
      <trkpt lat="42.243244" lon="2.382496">
        <ele>613.82715</ele>
        <time>2021-07-02T07:34:47Z</time>
      </trkpt>
      <trkpt lat="42.243244" lon="2.382496">
        <ele>613.82715</ele>
        <time>2021-07-02T07:34:48Z</time>
      </trkpt>
      <trkpt lat="42.243244" lon="2.382496">
        <ele>613.82715</ele>
        <time>2021-07-02T07:34:49Z</time>
      </trkpt>
      <trkpt lat="42.243244" lon="2.382496">
        <ele>613.82715</ele>
        <time>2021-07-02T07:34:50Z</time>
      </trkpt>
      <trkpt lat="42.243244" lon="2.382496">
        <ele>613.82715</ele>
        <time>2021-07-02T07:34:51Z</time>
      </trkpt>
      <trkpt lat="42.243244" lon="2.382496">
        <ele>613.82715</ele>
        <time>2021-07-02T07:34:52Z</time>
      </trkpt>
      <trkpt lat="42.243244" lon="2.382496">
        <ele>613.82715</ele>
        <time>2021-07-02T07:34:53Z</time>
      </trkpt>
      <trkpt lat="42.243244" lon="2.382496">
        <ele>613.82715</ele>
        <time>2021-07-02T07:34:54Z</time>
      </trkpt>
      <trkpt lat="42.243244" lon="2.382496">
        <ele>613.82715</ele>
        <time>2021-07-02T07:34:55Z</time>
      </trkpt>
      <trkpt lat="42.243244" lon="2.382496">
        <ele>613.82715</ele>
        <time>2021-07-02T07:34:56Z</time>
      </trkpt>
      <trkpt lat="42.243244" lon="2.382496">
        <ele>613.82715</ele>
        <time>2021-07-02T07:34:57Z</time>
      </trkpt>
      <trkpt lat="42.243244" lon="2.382496">
        <ele>613.82715</ele>
        <time>2021-07-02T07:34:58Z</time>
      </trkpt>
      <trkpt lat="42.243244" lon="2.382496">
        <ele>616.73193</ele>
        <time>2021-07-02T07:34:59Z</time>
      </trkpt>
      <trkpt lat="42.242012" lon="2.379421">
        <ele>619.59351</ele>
        <time>2021-07-02T07:35:00Z</time>
      </trkpt>
      <trkpt lat="42.241913" lon="2.379181">
        <ele>622.47266</ele>
        <time>2021-07-02T07:35:01Z</time>
      </trkpt>
      <trkpt lat="42.241798" lon="2.378902">
        <ele>625.40747</ele>
        <time>2021-07-02T07:35:02Z</time>
      </trkpt>
      <trkpt lat="42.241680" lon="2.378616">
        <ele>628.96570</ele>
        <time>2021-07-02T07:35:03Z</time>
      </trkpt>
      <trkpt lat="42.241577" lon="2.378347">
        <ele>630.10767</ele>
        <time>2021-07-02T07:35:04Z</time>
      </trkpt>
      <trkpt lat="42.241470" lon="2.378036">
        <ele>630.57471</ele>
        <time>2021-07-02T07:35:05Z</time>
      </trkpt>
      <trkpt lat="42.241364" lon="2.377689">
        <ele>630.91382</ele>
        <time>2021-07-02T07:35:06Z</time>
      </trkpt>
      <trkpt lat="42.241364" lon="2.377689">
        <ele>632.54272</ele>
        <time>2021-07-02T07:35:07Z</time>
      </trkpt>
      <trkpt lat="42.241257" lon="2.377349">
        <ele>633.64136</ele>
        <time>2021-07-02T07:35:08Z</time>
      </trkpt>
      <trkpt lat="42.241158" lon="2.377024">
        <ele>634.83618</ele>
        <time>2021-07-02T07:35:09Z</time>
      </trkpt>
      <trkpt lat="42.241055" lon="2.376691">
        <ele>635.96436</ele>
        <time>2021-07-02T07:35:10Z</time>
      </trkpt>
      <trkpt lat="42.240955" lon="2.376368">
        <ele>636.67932</ele>
        <time>2021-07-02T07:35:11Z</time>
      </trkpt>
      <trkpt lat="42.240849" lon="2.376028">
        <ele>637.47961</ele>
        <time>2021-07-02T07:35:12Z</time>
      </trkpt>
      <trkpt lat="42.240742" lon="2.375682">
        <ele>638.50146</ele>
        <time>2021-07-02T07:35:13Z</time>
      </trkpt>
      <trkpt lat="42.240639" lon="2.375354">
        <ele>638.68457</ele>
        <time>2021-07-02T07:35:14Z</time>
      </trkpt>
      <trkpt lat="42.240540" lon="2.375030">
        <ele>639.31372</ele>
        <time>2021-07-02T07:35:15Z</time>
      </trkpt>
      <trkpt lat="42.240440" lon="2.374710">
        <ele>640.34241</ele>
        <time>2021-07-02T07:35:16Z</time>
      </trkpt>
      <trkpt lat="42.240341" lon="2.374393">
        <ele>641.79199</ele>
        <time>2021-07-02T07:35:17Z</time>
      </trkpt>
      <trkpt lat="42.240253" lon="2.374102">
        <ele>643.88110</ele>
        <time>2021-07-02T07:35:18Z</time>
      </trkpt>
      <trkpt lat="42.240170" lon="2.373830">
        <ele>645.84766</ele>
        <time>2021-07-02T07:35:19Z</time>
      </trkpt>
      <trkpt lat="42.240086" lon="2.373553">
        <ele>646.59924</ele>
        <time>2021-07-02T07:35:20Z</time>
      </trkpt>
      <trkpt lat="42.239994" lon="2.373264">
        <ele>646.97253</ele>
        <time>2021-07-02T07:35:21Z</time>
      </trkpt>
      <trkpt lat="42.239902" lon="2.372961">
        <ele>647.40479</ele>
        <time>2021-07-02T07:35:22Z</time>
      </trkpt>
      <trkpt lat="42.239815" lon="2.372671">
        <ele>649.53931</ele>
        <time>2021-07-02T07:35:23Z</time>
      </trkpt>
      <trkpt lat="42.239754" lon="2.372483">
        <ele>651.82458</ele>
        <time>2021-07-02T07:35:24Z</time>
      </trkpt>
      <trkpt lat="42.239754" lon="2.372481">
        <ele>654.14624</ele>
        <time>2021-07-02T07:35:25Z</time>
      </trkpt>
      <trkpt lat="42.239529" lon="2.371761">
        <ele>659.43555</ele>
        <time>2021-07-02T07:35:26Z</time>
      </trkpt>
      <trkpt lat="42.239395" lon="2.371308">
        <ele>665.08203</ele>
        <time>2021-07-02T07:35:27Z</time>
      </trkpt>
      <trkpt lat="42.239304" lon="2.370930">
        <ele>670.65649</ele>
        <time>2021-07-02T07:35:28Z</time>
      </trkpt>
      <trkpt lat="42.239243" lon="2.370538">
        <ele>676.64417</ele>
        <time>2021-07-02T07:35:29Z</time>
      </trkpt>
      <trkpt lat="42.239243" lon="2.370538">
        <ele>681.32007</ele>
        <time>2021-07-02T07:35:30Z</time>
      </trkpt>
      <trkpt lat="42.239193" lon="2.369882">
        <ele>684.87671</ele>
        <time>2021-07-02T07:35:31Z</time>
      </trkpt>
      <trkpt lat="42.239193" lon="2.369882">
        <ele>686.78149</ele>
        <time>2021-07-02T07:35:32Z</time>
      </trkpt>
      <trkpt lat="42.239159" lon="2.369548">
        <ele>689.16431</ele>
        <time>2021-07-02T07:35:33Z</time>
      </trkpt>
      <trkpt lat="42.239090" lon="2.369238">
        <ele>690.97693</ele>
        <time>2021-07-02T07:35:34Z</time>
      </trkpt>
      <trkpt lat="42.238998" lon="2.368927">
        <ele>694.44751</ele>
        <time>2021-07-02T07:35:35Z</time>
      </trkpt>
      <trkpt lat="42.238884" lon="2.368657">
        <ele>697.71997</ele>
        <time>2021-07-02T07:35:36Z</time>
      </trkpt>
      <trkpt lat="42.238739" lon="2.368390">
        <ele>698.92822</ele>
        <time>2021-07-02T07:35:37Z</time>
      </trkpt>
      <trkpt lat="42.238564" lon="2.368115">
        <ele>701.32263</ele>
        <time>2021-07-02T07:35:38Z</time>
      </trkpt>
      <trkpt lat="42.238388" lon="2.367845">
        <ele>703.49023</ele>
        <time>2021-07-02T07:35:39Z</time>
      </trkpt>
      <trkpt lat="42.238194" lon="2.367550">
        <ele>703.96448</ele>
        <time>2021-07-02T07:35:40Z</time>
      </trkpt>
      <trkpt lat="42.238007" lon="2.367262">
        <ele>708.81104</ele>
        <time>2021-07-02T07:35:41Z</time>
      </trkpt>
      <trkpt lat="42.237823" lon="2.366972">
        <ele>710.02490</ele>
        <time>2021-07-02T07:35:42Z</time>
      </trkpt>
      <trkpt lat="42.237663" lon="2.366688">
        <ele>710.31689</ele>
        <time>2021-07-02T07:35:43Z</time>
      </trkpt>
      <trkpt lat="42.237522" lon="2.366379">
        <ele>711.75293</ele>
        <time>2021-07-02T07:35:44Z</time>
      </trkpt>
      <trkpt lat="42.237411" lon="2.366048">
        <ele>713.06445</ele>
        <time>2021-07-02T07:35:45Z</time>
      </trkpt>
      <trkpt lat="42.237331" lon="2.365715">
        <ele>714.52783</ele>
        <time>2021-07-02T07:35:46Z</time>
      </trkpt>
      <trkpt lat="42.237282" lon="2.365350">
        <ele>716.22168</ele>
        <time>2021-07-02T07:35:47Z</time>
      </trkpt>
      <trkpt lat="42.237255" lon="2.364968">
        <ele>717.57654</ele>
        <time>2021-07-02T07:35:48Z</time>
      </trkpt>
      <trkpt lat="42.237247" lon="2.364611">
        <ele>720.18579</ele>
        <time>2021-07-02T07:35:49Z</time>
      </trkpt>
      <trkpt lat="42.237236" lon="2.364266">
        <ele>724.92969</ele>
        <time>2021-07-02T07:35:50Z</time>
      </trkpt>
      <trkpt lat="42.237228" lon="2.363929">
        <ele>726.47144</ele>
        <time>2021-07-02T07:35:51Z</time>
      </trkpt>
      <trkpt lat="42.237213" lon="2.363592">
        <ele>728.40503</ele>
        <time>2021-07-02T07:35:52Z</time>
      </trkpt>
      <trkpt lat="42.237186" lon="2.363245">
        <ele>730.35095</ele>
        <time>2021-07-02T07:35:53Z</time>
      </trkpt>
      <trkpt lat="42.237141" lon="2.362954">
        <ele>733.18823</ele>
        <time>2021-07-02T07:35:54Z</time>
      </trkpt>
      <trkpt lat="42.237049" lon="2.362624">
        <ele>737.12488</ele>
        <time>2021-07-02T07:35:55Z</time>
      </trkpt>
      <trkpt lat="42.236919" lon="2.362294">
        <ele>737.38721</ele>
        <time>2021-07-02T07:35:56Z</time>
      </trkpt>
      <trkpt lat="42.236767" lon="2.362016">
        <ele>736.79004</ele>
        <time>2021-07-02T07:35:57Z</time>
      </trkpt>
      <trkpt lat="42.236576" lon="2.361734">
        <ele>738.09277</ele>
        <time>2021-07-02T07:35:58Z</time>
      </trkpt>
      <trkpt lat="42.236576" lon="2.361734">
        <ele>737.88977</ele>
        <time>2021-07-02T07:35:59Z</time>
      </trkpt>
      <trkpt lat="42.236385" lon="2.361446">
        <ele>742.58765</ele>
        <time>2021-07-02T07:36:00Z</time>
      </trkpt>
      <trkpt lat="42.236156" lon="2.361108">
        <ele>744.26733</ele>
        <time>2021-07-02T07:36:01Z</time>
      </trkpt>
      <trkpt lat="42.236004" lon="2.360874">
        <ele>744.65552</ele>
        <time>2021-07-02T07:36:02Z</time>
      </trkpt>
      <trkpt lat="42.235863" lon="2.360577">
        <ele>745.46777</ele>
        <time>2021-07-02T07:36:03Z</time>
      </trkpt>
      <trkpt lat="42.235756" lon="2.360276">
        <ele>747.47852</ele>
        <time>2021-07-02T07:36:04Z</time>
      </trkpt>
      <trkpt lat="42.235649" lon="2.359931">
        <ele>749.65234</ele>
        <time>2021-07-02T07:36:05Z</time>
      </trkpt>
      <trkpt lat="42.235565" lon="2.359597">
        <ele>752.78479</ele>
        <time>2021-07-02T07:36:06Z</time>
      </trkpt>
      <trkpt lat="42.235481" lon="2.359268">
        <ele>754.68335</ele>
        <time>2021-07-02T07:36:07Z</time>
      </trkpt>
      <trkpt lat="42.235397" lon="2.358926">
        <ele>755.35718</ele>
        <time>2021-07-02T07:36:08Z</time>
      </trkpt>
      <trkpt lat="42.235317" lon="2.358602">
        <ele>755.69470</ele>
        <time>2021-07-02T07:36:09Z</time>
      </trkpt>
      <trkpt lat="42.235229" lon="2.358261">
        <ele>757.69006</ele>
        <time>2021-07-02T07:36:10Z</time>
      </trkpt>
      <trkpt lat="42.235149" lon="2.357922">
        <ele>758.08508</ele>
        <time>2021-07-02T07:36:11Z</time>
      </trkpt>
      <trkpt lat="42.235085" lon="2.357608">
        <ele>761.12085</ele>
        <time>2021-07-02T07:36:12Z</time>
      </trkpt>
      <trkpt lat="42.235023" lon="2.357281">
        <ele>762.44495</ele>
        <time>2021-07-02T07:36:13Z</time>
      </trkpt>
      <trkpt lat="42.234982" lon="2.356939">
        <ele>764.61389</ele>
        <time>2021-07-02T07:36:14Z</time>
      </trkpt>
      <trkpt lat="42.234959" lon="2.356597">
        <ele>765.79272</ele>
        <time>2021-07-02T07:36:15Z</time>
      </trkpt>
      <trkpt lat="42.234951" lon="2.356205">
        <ele>770.15625</ele>
        <time>2021-07-02T07:36:16Z</time>
      </trkpt>
      <trkpt lat="42.234951" lon="2.355853">
        <ele>773.50049</ele>
        <time>2021-07-02T07:36:17Z</time>
      </trkpt>
      <trkpt lat="42.234959" lon="2.355454">
        <ele>776.82129</ele>
        <time>2021-07-02T07:36:18Z</time>
      </trkpt>
      <trkpt lat="42.234962" lon="2.355105">
        <ele>779.17761</ele>
        <time>2021-07-02T07:36:19Z</time>
      </trkpt>
      <trkpt lat="42.234970" lon="2.354768">
        <ele>781.21692</ele>
        <time>2021-07-02T07:36:20Z</time>
      </trkpt>
      <trkpt lat="42.234978" lon="2.354430">
        <ele>784.82471</ele>
        <time>2021-07-02T07:36:21Z</time>
      </trkpt>
      <trkpt lat="42.234982" lon="2.354133">
        <ele>787.86621</ele>
        <time>2021-07-02T07:36:22Z</time>
      </trkpt>
      <trkpt lat="42.234989" lon="2.353856">
        <ele>789.43091</ele>
        <time>2021-07-02T07:36:23Z</time>
      </trkpt>
      <trkpt lat="42.234997" lon="2.353566">
        <ele>790.62195</ele>
        <time>2021-07-02T07:36:24Z</time>
      </trkpt>
      <trkpt lat="42.235008" lon="2.353292">
        <ele>790.23218</ele>
        <time>2021-07-02T07:36:25Z</time>
      </trkpt>
      <trkpt lat="42.235023" lon="2.353045">
        <ele>792.44312</ele>
        <time>2021-07-02T07:36:26Z</time>
      </trkpt>
      <trkpt lat="42.235043" lon="2.352795">
        <ele>793.12622</ele>
        <time>2021-07-02T07:36:27Z</time>
      </trkpt>
      <trkpt lat="42.235065" lon="2.352567">
        <ele>794.60095</ele>
        <time>2021-07-02T07:36:28Z</time>
      </trkpt>
      <trkpt lat="42.235096" lon="2.352334">
        <ele>795.49170</ele>
        <time>2021-07-02T07:36:29Z</time>
      </trkpt>
      <trkpt lat="42.235096" lon="2.352334">
        <ele>796.65186</ele>
        <time>2021-07-02T07:36:30Z</time>
      </trkpt>
      <trkpt lat="42.235130" lon="2.352090">
        <ele>800.20630</ele>
        <time>2021-07-02T07:36:31Z</time>
      </trkpt>
      <trkpt lat="42.235168" lon="2.351865">
        <ele>800.20728</ele>
        <time>2021-07-02T07:36:32Z</time>
      </trkpt>
      <trkpt lat="42.235214" lon="2.351616">
        <ele>793.96234</ele>
        <time>2021-07-02T07:36:33Z</time>
      </trkpt>
      <trkpt lat="42.235264" lon="2.351360">
        <ele>793.96234</ele>
        <time>2021-07-02T07:36:34Z</time>
      </trkpt>
      <trkpt lat="42.235313" lon="2.351125">
        <ele>793.96234</ele>
        <time>2021-07-02T07:36:35Z</time>
      </trkpt>
      <trkpt lat="42.235332" lon="2.351054">
        <ele>793.96234</ele>
        <time>2021-07-02T07:36:36Z</time>
      </trkpt>
      <trkpt lat="42.235332" lon="2.351054">
        <ele>793.96234</ele>
        <time>2021-07-02T07:36:37Z</time>
      </trkpt>
      <trkpt lat="42.235332" lon="2.351054">
        <ele>793.96234</ele>
        <time>2021-07-02T07:36:38Z</time>
      </trkpt>
      <trkpt lat="42.235332" lon="2.351054">
        <ele>793.96234</ele>
        <time>2021-07-02T07:36:39Z</time>
      </trkpt>
      <trkpt lat="42.235332" lon="2.351054">
        <ele>793.96234</ele>
        <time>2021-07-02T07:36:40Z</time>
      </trkpt>
      <trkpt lat="42.235332" lon="2.351054">
        <ele>793.96234</ele>
        <time>2021-07-02T07:36:41Z</time>
      </trkpt>
      <trkpt lat="42.235332" lon="2.351054">
        <ele>793.96234</ele>
        <time>2021-07-02T07:36:42Z</time>
      </trkpt>
      <trkpt lat="42.235332" lon="2.351054">
        <ele>793.96234</ele>
        <time>2021-07-02T07:36:43Z</time>
      </trkpt>
      <trkpt lat="42.235332" lon="2.351054">
        <ele>793.96234</ele>
        <time>2021-07-02T07:36:44Z</time>
      </trkpt>
      <trkpt lat="42.235332" lon="2.351054">
        <ele>793.96234</ele>
        <time>2021-07-02T07:36:45Z</time>
      </trkpt>
      <trkpt lat="42.235332" lon="2.351054">
        <ele>793.96234</ele>
        <time>2021-07-02T07:36:46Z</time>
      </trkpt>
      <trkpt lat="42.235332" lon="2.351054">
        <ele>793.96234</ele>
        <time>2021-07-02T07:36:47Z</time>
      </trkpt>
      <trkpt lat="42.235332" lon="2.351054">
        <ele>793.96234</ele>
        <time>2021-07-02T07:36:48Z</time>
      </trkpt>
      <trkpt lat="42.235332" lon="2.351054">
        <ele>793.96234</ele>
        <time>2021-07-02T07:36:49Z</time>
      </trkpt>
      <trkpt lat="42.235332" lon="2.351054">
        <ele>793.96234</ele>
        <time>2021-07-02T07:36:50Z</time>
      </trkpt>
      <trkpt lat="42.235332" lon="2.351054">
        <ele>793.96234</ele>
        <time>2021-07-02T07:36:51Z</time>
      </trkpt>
      <trkpt lat="42.235332" lon="2.351054">
        <ele>793.96234</ele>
        <time>2021-07-02T07:36:52Z</time>
      </trkpt>
      <trkpt lat="42.235332" lon="2.351054">
        <ele>793.96234</ele>
        <time>2021-07-02T07:36:53Z</time>
      </trkpt>
      <trkpt lat="42.235332" lon="2.351054">
        <ele>793.96234</ele>
        <time>2021-07-02T07:36:54Z</time>
      </trkpt>
      <trkpt lat="42.235332" lon="2.351054">
        <ele>793.96234</ele>
        <time>2021-07-02T07:36:55Z</time>
      </trkpt>
      <trkpt lat="42.235332" lon="2.351054">
        <ele>793.96234</ele>
        <time>2021-07-02T07:36:56Z</time>
      </trkpt>
      <trkpt lat="42.235332" lon="2.351054">
        <ele>793.96234</ele>
        <time>2021-07-02T07:36:57Z</time>
      </trkpt>
      <trkpt lat="42.235332" lon="2.351054">
        <ele>793.96234</ele>
        <time>2021-07-02T07:36:58Z</time>
      </trkpt>
      <trkpt lat="42.235332" lon="2.351054">
        <ele>793.96234</ele>
        <time>2021-07-02T07:36:59Z</time>
      </trkpt>
      <trkpt lat="42.235332" lon="2.351054">
        <ele>793.96234</ele>
        <time>2021-07-02T07:37:00Z</time>
      </trkpt>
      <trkpt lat="42.235332" lon="2.351054">
        <ele>793.96234</ele>
        <time>2021-07-02T07:37:01Z</time>
      </trkpt>
      <trkpt lat="42.235332" lon="2.351054">
        <ele>793.96234</ele>
        <time>2021-07-02T07:37:02Z</time>
      </trkpt>
      <trkpt lat="42.235332" lon="2.351054">
        <ele>793.96234</ele>
        <time>2021-07-02T07:37:03Z</time>
      </trkpt>
      <trkpt lat="42.235332" lon="2.351054">
        <ele>793.96234</ele>
        <time>2021-07-02T07:37:04Z</time>
      </trkpt>
      <trkpt lat="42.235332" lon="2.351054">
        <ele>793.96234</ele>
        <time>2021-07-02T07:37:05Z</time>
      </trkpt>
      <trkpt lat="42.235332" lon="2.351054">
        <ele>793.96234</ele>
        <time>2021-07-02T07:37:06Z</time>
      </trkpt>
      <trkpt lat="42.235332" lon="2.351054">
        <ele>793.96234</ele>
        <time>2021-07-02T07:37:07Z</time>
      </trkpt>
      <trkpt lat="42.235332" lon="2.351054">
        <ele>793.96234</ele>
        <time>2021-07-02T07:37:08Z</time>
      </trkpt>
      <trkpt lat="42.235332" lon="2.351054">
        <ele>793.96234</ele>
        <time>2021-07-02T07:37:09Z</time>
      </trkpt>
      <trkpt lat="42.235332" lon="2.351054">
        <ele>793.96234</ele>
        <time>2021-07-02T07:37:10Z</time>
      </trkpt>
      <trkpt lat="42.235332" lon="2.351054">
        <ele>793.96234</ele>
        <time>2021-07-02T07:37:11Z</time>
      </trkpt>
      <trkpt lat="42.235332" lon="2.351054">
        <ele>793.96234</ele>
        <time>2021-07-02T07:37:12Z</time>
      </trkpt>
      <trkpt lat="42.235332" lon="2.351054">
        <ele>793.96234</ele>
        <time>2021-07-02T07:37:13Z</time>
      </trkpt>
      <trkpt lat="42.235332" lon="2.351054">
        <ele>793.96234</ele>
        <time>2021-07-02T07:37:14Z</time>
      </trkpt>
      <trkpt lat="42.235332" lon="2.351054">
        <ele>793.96234</ele>
        <time>2021-07-02T07:37:15Z</time>
      </trkpt>
      <trkpt lat="42.235332" lon="2.351054">
        <ele>793.96234</ele>
        <time>2021-07-02T07:37:16Z</time>
      </trkpt>
      <trkpt lat="42.235332" lon="2.351054">
        <ele>793.96234</ele>
        <time>2021-07-02T07:37:17Z</time>
      </trkpt>
      <trkpt lat="42.235332" lon="2.351054">
        <ele>793.96234</ele>
        <time>2021-07-02T07:37:18Z</time>
      </trkpt>
      <trkpt lat="42.235332" lon="2.351054">
        <ele>793.96234</ele>
        <time>2021-07-02T07:37:19Z</time>
      </trkpt>
      <trkpt lat="42.235332" lon="2.351054">
        <ele>793.96234</ele>
        <time>2021-07-02T07:37:20Z</time>
      </trkpt>
      <trkpt lat="42.235332" lon="2.351054">
        <ele>793.96234</ele>
        <time>2021-07-02T07:37:21Z</time>
      </trkpt>
      <trkpt lat="42.235332" lon="2.351054">
        <ele>793.96234</ele>
        <time>2021-07-02T07:37:22Z</time>
      </trkpt>
      <trkpt lat="42.235332" lon="2.351054">
        <ele>793.96234</ele>
        <time>2021-07-02T07:37:23Z</time>
      </trkpt>
      <trkpt lat="42.235332" lon="2.351054">
        <ele>793.96234</ele>
        <time>2021-07-02T07:37:24Z</time>
      </trkpt>
      <trkpt lat="42.235332" lon="2.351054">
        <ele>793.96234</ele>
        <time>2021-07-02T07:37:25Z</time>
      </trkpt>
      <trkpt lat="42.235332" lon="2.351054">
        <ele>793.96234</ele>
        <time>2021-07-02T07:37:26Z</time>
      </trkpt>
      <trkpt lat="42.235332" lon="2.351054">
        <ele>793.96234</ele>
        <time>2021-07-02T07:37:27Z</time>
      </trkpt>
      <trkpt lat="42.235332" lon="2.351054">
        <ele>793.96234</ele>
        <time>2021-07-02T07:37:28Z</time>
      </trkpt>
      <trkpt lat="42.235332" lon="2.351054">
        <ele>793.96234</ele>
        <time>2021-07-02T07:37:29Z</time>
      </trkpt>
      <trkpt lat="42.235332" lon="2.351054">
        <ele>793.96234</ele>
        <time>2021-07-02T07:37:30Z</time>
      </trkpt>
      <trkpt lat="42.235332" lon="2.351054">
        <ele>793.96234</ele>
        <time>2021-07-02T07:37:31Z</time>
      </trkpt>
      <trkpt lat="42.235332" lon="2.351054">
        <ele>793.96234</ele>
        <time>2021-07-02T07:37:32Z</time>
      </trkpt>
      <trkpt lat="42.235332" lon="2.351054">
        <ele>793.96234</ele>
        <time>2021-07-02T07:37:33Z</time>
      </trkpt>
      <trkpt lat="42.235332" lon="2.351054">
        <ele>793.96234</ele>
        <time>2021-07-02T07:37:34Z</time>
      </trkpt>
      <trkpt lat="42.235332" lon="2.351054">
        <ele>793.96234</ele>
        <time>2021-07-02T07:37:35Z</time>
      </trkpt>
      <trkpt lat="42.235332" lon="2.351054">
        <ele>793.96234</ele>
        <time>2021-07-02T07:37:36Z</time>
      </trkpt>
      <trkpt lat="42.235332" lon="2.351054">
        <ele>793.96234</ele>
        <time>2021-07-02T07:37:37Z</time>
      </trkpt>
      <trkpt lat="42.235332" lon="2.351054">
        <ele>793.96234</ele>
        <time>2021-07-02T07:37:38Z</time>
      </trkpt>
      <trkpt lat="42.235332" lon="2.351054">
        <ele>793.96234</ele>
        <time>2021-07-02T07:37:39Z</time>
      </trkpt>
      <trkpt lat="42.235332" lon="2.351054">
        <ele>793.96234</ele>
        <time>2021-07-02T07:37:40Z</time>
      </trkpt>
      <trkpt lat="42.235332" lon="2.351054">
        <ele>793.96234</ele>
        <time>2021-07-02T07:37:41Z</time>
      </trkpt>
      <trkpt lat="42.235332" lon="2.351054">
        <ele>793.96234</ele>
        <time>2021-07-02T07:37:42Z</time>
      </trkpt>
      <trkpt lat="42.235332" lon="2.351054">
        <ele>793.96234</ele>
        <time>2021-07-02T07:37:43Z</time>
      </trkpt>
      <trkpt lat="42.235332" lon="2.351054">
        <ele>793.96234</ele>
        <time>2021-07-02T07:37:44Z</time>
      </trkpt>
      <trkpt lat="42.235332" lon="2.351054">
        <ele>793.96234</ele>
        <time>2021-07-02T07:37:45Z</time>
      </trkpt>
      <trkpt lat="42.235332" lon="2.351054">
        <ele>793.96234</ele>
        <time>2021-07-02T07:37:46Z</time>
      </trkpt>
      <trkpt lat="42.235332" lon="2.351054">
        <ele>793.96234</ele>
        <time>2021-07-02T07:37:47Z</time>
      </trkpt>
      <trkpt lat="42.235332" lon="2.351054">
        <ele>793.96234</ele>
        <time>2021-07-02T07:37:48Z</time>
      </trkpt>
      <trkpt lat="42.235332" lon="2.351054">
        <ele>793.96234</ele>
        <time>2021-07-02T07:37:49Z</time>
      </trkpt>
      <trkpt lat="42.235332" lon="2.351054">
        <ele>793.96234</ele>
        <time>2021-07-02T07:37:50Z</time>
      </trkpt>
      <trkpt lat="42.235332" lon="2.351054">
        <ele>793.96234</ele>
        <time>2021-07-02T07:37:51Z</time>
      </trkpt>
      <trkpt lat="42.235332" lon="2.351054">
        <ele>793.96234</ele>
        <time>2021-07-02T07:37:52Z</time>
      </trkpt>
      <trkpt lat="42.235332" lon="2.351054">
        <ele>793.96234</ele>
        <time>2021-07-02T07:37:53Z</time>
      </trkpt>
      <trkpt lat="42.235332" lon="2.351054">
        <ele>793.96234</ele>
        <time>2021-07-02T07:37:54Z</time>
      </trkpt>
      <trkpt lat="42.235332" lon="2.351054">
        <ele>793.96234</ele>
        <time>2021-07-02T07:37:55Z</time>
      </trkpt>
      <trkpt lat="42.235332" lon="2.351054">
        <ele>793.96234</ele>
        <time>2021-07-02T07:37:56Z</time>
      </trkpt>
      <trkpt lat="42.235332" lon="2.351054">
        <ele>793.96234</ele>
        <time>2021-07-02T07:37:57Z</time>
      </trkpt>
      <trkpt lat="42.235332" lon="2.351054">
        <ele>793.96234</ele>
        <time>2021-07-02T07:37:58Z</time>
      </trkpt>
      <trkpt lat="42.235332" lon="2.351054">
        <ele>793.96234</ele>
        <time>2021-07-02T07:37:59Z</time>
      </trkpt>
      <trkpt lat="42.235332" lon="2.351054">
        <ele>793.96234</ele>
        <time>2021-07-02T07:38:00Z</time>
      </trkpt>
      <trkpt lat="42.235332" lon="2.351054">
        <ele>793.96234</ele>
        <time>2021-07-02T07:38:01Z</time>
      </trkpt>
      <trkpt lat="42.235332" lon="2.351054">
        <ele>793.96234</ele>
        <time>2021-07-02T07:38:02Z</time>
      </trkpt>
      <trkpt lat="42.235332" lon="2.351054">
        <ele>793.96234</ele>
        <time>2021-07-02T07:38:03Z</time>
      </trkpt>
      <trkpt lat="42.235332" lon="2.351054">
        <ele>793.96234</ele>
        <time>2021-07-02T07:38:04Z</time>
      </trkpt>
      <trkpt lat="42.235332" lon="2.351054">
        <ele>793.96234</ele>
        <time>2021-07-02T07:38:05Z</time>
      </trkpt>
      <trkpt lat="42.235332" lon="2.351054">
        <ele>793.96234</ele>
        <time>2021-07-02T07:38:06Z</time>
      </trkpt>
      <trkpt lat="42.235332" lon="2.351054">
        <ele>793.96234</ele>
        <time>2021-07-02T07:38:07Z</time>
      </trkpt>
      <trkpt lat="42.235332" lon="2.351054">
        <ele>793.96234</ele>
        <time>2021-07-02T07:38:08Z</time>
      </trkpt>
      <trkpt lat="42.235332" lon="2.351054">
        <ele>793.96234</ele>
        <time>2021-07-02T07:38:09Z</time>
      </trkpt>
      <trkpt lat="42.235332" lon="2.351054">
        <ele>793.96234</ele>
        <time>2021-07-02T07:38:10Z</time>
      </trkpt>
      <trkpt lat="42.235332" lon="2.351054">
        <ele>793.96234</ele>
        <time>2021-07-02T07:38:11Z</time>
      </trkpt>
      <trkpt lat="42.235332" lon="2.351054">
        <ele>793.96234</ele>
        <time>2021-07-02T07:38:12Z</time>
      </trkpt>
      <trkpt lat="42.235332" lon="2.351054">
        <ele>793.96234</ele>
        <time>2021-07-02T07:38:13Z</time>
      </trkpt>
      <trkpt lat="42.235332" lon="2.351054">
        <ele>793.96234</ele>
        <time>2021-07-02T07:38:14Z</time>
      </trkpt>
      <trkpt lat="42.235332" lon="2.351054">
        <ele>823.00934</ele>
        <time>2021-07-02T07:38:15Z</time>
      </trkpt>
      <trkpt lat="42.235332" lon="2.351054">
        <ele>823.56982</ele>
        <time>2021-07-02T07:38:16Z</time>
      </trkpt>
      <trkpt lat="42.243702" lon="2.331382">
        <ele>824.58203</ele>
        <time>2021-07-02T07:38:17Z</time>
      </trkpt>
      <trkpt lat="42.243717" lon="2.331182">
        <ele>822.71667</ele>
        <time>2021-07-02T07:38:18Z</time>
      </trkpt>
      <trkpt lat="42.243752" lon="2.330960">
        <ele>827.89941</ele>
        <time>2021-07-02T07:38:19Z</time>
      </trkpt>
      <trkpt lat="42.243797" lon="2.330704">
        <ele>829.54041</ele>
        <time>2021-07-02T07:38:20Z</time>
      </trkpt>
      <trkpt lat="42.243855" lon="2.330441">
        <ele>833.13770</ele>
        <time>2021-07-02T07:38:21Z</time>
      </trkpt>
      <trkpt lat="42.243927" lon="2.330183">
        <ele>832.44641</ele>
        <time>2021-07-02T07:38:22Z</time>
      </trkpt>
      <trkpt lat="42.244003" lon="2.329914">
        <ele>832.02173</ele>
        <time>2021-07-02T07:38:23Z</time>
      </trkpt>
      <trkpt lat="42.244095" lon="2.329655">
        <ele>830.36035</ele>
        <time>2021-07-02T07:38:24Z</time>
      </trkpt>
      <trkpt lat="42.244194" lon="2.329385">
        <ele>830.50562</ele>
        <time>2021-07-02T07:38:25Z</time>
      </trkpt>
      <trkpt lat="42.244312" lon="2.329109">
        <ele>829.38843</ele>
        <time>2021-07-02T07:38:26Z</time>
      </trkpt>
      <trkpt lat="42.244461" lon="2.328804">
        <ele>828.52100</ele>
        <time>2021-07-02T07:38:27Z</time>
      </trkpt>
      <trkpt lat="42.244583" lon="2.328579">
        <ele>828.04150</ele>
        <time>2021-07-02T07:38:28Z</time>
      </trkpt>
      <trkpt lat="42.244747" lon="2.328320">
        <ele>826.82983</ele>
        <time>2021-07-02T07:38:29Z</time>
      </trkpt>
      <trkpt lat="42.244907" lon="2.328088">
        <ele>825.88770</ele>
        <time>2021-07-02T07:38:30Z</time>
      </trkpt>
      <trkpt lat="42.245064" lon="2.327870">
        <ele>824.59827</ele>
        <time>2021-07-02T07:38:31Z</time>
      </trkpt>
      <trkpt lat="42.245224" lon="2.327679">
        <ele>823.09692</ele>
        <time>2021-07-02T07:38:32Z</time>
      </trkpt>
      <trkpt lat="42.245369" lon="2.327516">
        <ele>807.35962</ele>
        <time>2021-07-02T07:38:33Z</time>
      </trkpt>
      <trkpt lat="42.245514" lon="2.327358">
        <ele>805.76953</ele>
        <time>2021-07-02T07:38:34Z</time>
      </trkpt>
      <trkpt lat="42.245621" lon="2.327246">
        <ele>804.82013</ele>
        <time>2021-07-02T07:38:35Z</time>
      </trkpt>
      <trkpt lat="42.245712" lon="2.327149">
        <ele>803.32379</ele>
        <time>2021-07-02T07:38:36Z</time>
      </trkpt>
      <trkpt lat="42.245811" lon="2.327043">
        <ele>802.54883</ele>
        <time>2021-07-02T07:38:37Z</time>
      </trkpt>
      <trkpt lat="42.245911" lon="2.326936">
        <ele>818.79639</ele>
        <time>2021-07-02T07:38:38Z</time>
      </trkpt>
      <trkpt lat="42.246010" lon="2.326865">
        <ele>818.80981</ele>
        <time>2021-07-02T07:38:39Z</time>
      </trkpt>
      <trkpt lat="42.246086" lon="2.326807">
        <ele>818.91211</ele>
        <time>2021-07-02T07:38:40Z</time>
      </trkpt>
      <trkpt lat="42.246193" lon="2.326755">
        <ele>819.24146</ele>
        <time>2021-07-02T07:38:41Z</time>
      </trkpt>
      <trkpt lat="42.246193" lon="2.326755">
        <ele>820.14380</ele>
        <time>2021-07-02T07:38:42Z</time>
      </trkpt>
      <trkpt lat="42.246284" lon="2.326725">
        <ele>820.03442</ele>
        <time>2021-07-02T07:38:43Z</time>
      </trkpt>
      <trkpt lat="42.246357" lon="2.326726">
        <ele>816.82141</ele>
        <time>2021-07-02T07:38:44Z</time>
      </trkpt>
      <trkpt lat="42.246464" lon="2.326697">
        <ele>816.14771</ele>
        <time>2021-07-02T07:38:45Z</time>
      </trkpt>
      <trkpt lat="42.246536" lon="2.326620">
        <ele>815.76978</ele>
        <time>2021-07-02T07:38:46Z</time>
      </trkpt>
      <trkpt lat="42.246578" lon="2.326498">
        <ele>815.44604</ele>
        <time>2021-07-02T07:38:47Z</time>
      </trkpt>
      <trkpt lat="42.246555" lon="2.326308">
        <ele>815.49731</ele>
        <time>2021-07-02T07:38:48Z</time>
      </trkpt>
      <trkpt lat="42.246483" lon="2.326206">
        <ele>815.66589</ele>
        <time>2021-07-02T07:38:49Z</time>
      </trkpt>
      <trkpt lat="42.246410" lon="2.326173">
        <ele>815.68494</ele>
        <time>2021-07-02T07:38:50Z</time>
      </trkpt>
      <trkpt lat="42.246357" lon="2.326169">
        <ele>816.81616</ele>
        <time>2021-07-02T07:38:51Z</time>
      </trkpt>
      <trkpt lat="42.246304" lon="2.326187">
        <ele>815.91309</ele>
        <time>2021-07-02T07:38:52Z</time>
      </trkpt>
      <trkpt lat="42.246189" lon="2.325835">
        <ele>816.45239</ele>
        <time>2021-07-02T07:38:53Z</time>
      </trkpt>
      <trkpt lat="42.246090" lon="2.325514">
        <ele>816.42200</ele>
        <time>2021-07-02T07:38:54Z</time>
      </trkpt>
      <trkpt lat="42.245991" lon="2.325200">
        <ele>814.86572</ele>
        <time>2021-07-02T07:38:55Z</time>
      </trkpt>
      <trkpt lat="42.245899" lon="2.324907">
        <ele>815.14905</ele>
        <time>2021-07-02T07:38:56Z</time>
      </trkpt>
      <trkpt lat="42.245899" lon="2.324907">
        <ele>815.17615</ele>
        <time>2021-07-02T07:38:57Z</time>
      </trkpt>
      <trkpt lat="42.245686" lon="2.324213">
        <ele>815.50012</ele>
        <time>2021-07-02T07:38:58Z</time>
      </trkpt>
      <trkpt lat="42.245686" lon="2.324213">
        <ele>815.94824</ele>
        <time>2021-07-02T07:38:59Z</time>
      </trkpt>
      <trkpt lat="42.245575" lon="2.323859">
        <ele>814.50818</ele>
        <time>2021-07-02T07:39:00Z</time>
      </trkpt>
      <trkpt lat="42.245472" lon="2.323523">
        <ele>816.70300</ele>
        <time>2021-07-02T07:39:01Z</time>
      </trkpt>
      <trkpt lat="42.245396" lon="2.323217">
        <ele>816.86963</ele>
        <time>2021-07-02T07:39:02Z</time>
      </trkpt>
      <trkpt lat="42.245342" lon="2.322933">
        <ele>816.69092</ele>
        <time>2021-07-02T07:39:03Z</time>
      </trkpt>
      <trkpt lat="42.245308" lon="2.322628">
        <ele>816.64209</ele>
        <time>2021-07-02T07:39:04Z</time>
      </trkpt>
      <trkpt lat="42.245300" lon="2.322312">
        <ele>817.20898</ele>
        <time>2021-07-02T07:39:05Z</time>
      </trkpt>
      <trkpt lat="42.245316" lon="2.322008">
        <ele>816.44360</ele>
        <time>2021-07-02T07:39:06Z</time>
      </trkpt>
      <trkpt lat="42.245350" lon="2.321751">
        <ele>816.69336</ele>
        <time>2021-07-02T07:39:07Z</time>
      </trkpt>
      <trkpt lat="42.245399" lon="2.321471">
        <ele>816.41016</ele>
        <time>2021-07-02T07:39:08Z</time>
      </trkpt>
      <trkpt lat="42.245468" lon="2.321189">
        <ele>816.19556</ele>
        <time>2021-07-02T07:39:09Z</time>
      </trkpt>
      <trkpt lat="42.245548" lon="2.320882">
        <ele>816.30225</ele>
        <time>2021-07-02T07:39:10Z</time>
      </trkpt>
      <trkpt lat="42.245636" lon="2.320576">
        <ele>817.32471</ele>
        <time>2021-07-02T07:39:11Z</time>
      </trkpt>
      <trkpt lat="42.245712" lon="2.320306">
        <ele>814.81055</ele>
        <time>2021-07-02T07:39:12Z</time>
      </trkpt>
      <trkpt lat="42.245781" lon="2.320060">
        <ele>815.07837</ele>
        <time>2021-07-02T07:39:13Z</time>
      </trkpt>
      <trkpt lat="42.245831" lon="2.319769">
        <ele>813.29102</ele>
        <time>2021-07-02T07:39:14Z</time>
      </trkpt>
      <trkpt lat="42.245853" lon="2.319481">
        <ele>812.94507</ele>
        <time>2021-07-02T07:39:15Z</time>
      </trkpt>
      <trkpt lat="42.245850" lon="2.319183">
        <ele>813.09229</ele>
        <time>2021-07-02T07:39:16Z</time>
      </trkpt>
      <trkpt lat="42.245823" lon="2.318884">
        <ele>813.09070</ele>
        <time>2021-07-02T07:39:17Z</time>
      </trkpt>
      <trkpt lat="42.245777" lon="2.318621">
        <ele>813.32556</ele>
        <time>2021-07-02T07:39:18Z</time>
      </trkpt>
      <trkpt lat="42.245724" lon="2.318346">
        <ele>812.89331</ele>
        <time>2021-07-02T07:39:19Z</time>
      </trkpt>
      <trkpt lat="42.245663" lon="2.318076">
        <ele>811.86560</ele>
        <time>2021-07-02T07:39:20Z</time>
      </trkpt>
      <trkpt lat="42.245586" lon="2.317760">
        <ele>810.80164</ele>
        <time>2021-07-02T07:39:21Z</time>
      </trkpt>
      <trkpt lat="42.245510" lon="2.317507">
        <ele>807.80408</ele>
        <time>2021-07-02T07:39:22Z</time>
      </trkpt>
      <trkpt lat="42.245438" lon="2.317256">
        <ele>807.74585</ele>
        <time>2021-07-02T07:39:23Z</time>
      </trkpt>
      <trkpt lat="42.245361" lon="2.317001">
        <ele>807.46057</ele>
        <time>2021-07-02T07:39:24Z</time>
      </trkpt>
      <trkpt lat="42.245281" lon="2.316750">
        <ele>808.26440</ele>
        <time>2021-07-02T07:39:25Z</time>
      </trkpt>
      <trkpt lat="42.245213" lon="2.316529">
        <ele>807.85986</ele>
        <time>2021-07-02T07:39:26Z</time>
      </trkpt>
      <trkpt lat="42.245213" lon="2.316529">
        <ele>806.03333</ele>
        <time>2021-07-02T07:39:27Z</time>
      </trkpt>
      <trkpt lat="42.245132" lon="2.316269">
        <ele>806.25781</ele>
        <time>2021-07-02T07:39:28Z</time>
      </trkpt>
      <trkpt lat="42.245052" lon="2.316012">
        <ele>805.17175</ele>
        <time>2021-07-02T07:39:29Z</time>
      </trkpt>
      <trkpt lat="42.244968" lon="2.315742">
        <ele>805.29846</ele>
        <time>2021-07-02T07:39:30Z</time>
      </trkpt>
      <trkpt lat="42.244900" lon="2.315512">
        <ele>805.22925</ele>
        <time>2021-07-02T07:39:31Z</time>
      </trkpt>
      <trkpt lat="42.244835" lon="2.315302">
        <ele>802.74536</ele>
        <time>2021-07-02T07:39:32Z</time>
      </trkpt>
      <trkpt lat="42.244762" lon="2.315067">
        <ele>800.26868</ele>
        <time>2021-07-02T07:39:33Z</time>
      </trkpt>
      <trkpt lat="42.244698" lon="2.314852">
        <ele>799.65234</ele>
        <time>2021-07-02T07:39:34Z</time>
      </trkpt>
      <trkpt lat="42.244640" lon="2.314668">
        <ele>799.36377</ele>
        <time>2021-07-02T07:39:35Z</time>
      </trkpt>
      <trkpt lat="42.244583" lon="2.314484">
        <ele>799.79480</ele>
        <time>2021-07-02T07:39:36Z</time>
      </trkpt>
      <trkpt lat="42.244526" lon="2.314293">
        <ele>799.60181</ele>
        <time>2021-07-02T07:39:37Z</time>
      </trkpt>
      <trkpt lat="42.244465" lon="2.314098">
        <ele>799.88354</ele>
        <time>2021-07-02T07:39:38Z</time>
      </trkpt>
      <trkpt lat="42.244408" lon="2.313911">
        <ele>799.99829</ele>
        <time>2021-07-02T07:39:39Z</time>
      </trkpt>
      <trkpt lat="42.244373" lon="2.313732">
        <ele>801.06348</ele>
        <time>2021-07-02T07:39:40Z</time>
      </trkpt>
      <trkpt lat="42.244362" lon="2.313566">
        <ele>800.96045</ele>
        <time>2021-07-02T07:39:41Z</time>
      </trkpt>
      <trkpt lat="42.244366" lon="2.313391">
        <ele>799.86865</ele>
        <time>2021-07-02T07:39:42Z</time>
      </trkpt>
      <trkpt lat="42.244404" lon="2.313246">
        <ele>799.92554</ele>
        <time>2021-07-02T07:39:43Z</time>
      </trkpt>
      <trkpt lat="42.244385" lon="2.313106">
        <ele>800.48877</ele>
        <time>2021-07-02T07:39:44Z</time>
      </trkpt>
      <trkpt lat="42.244343" lon="2.313026">
        <ele>800.57361</ele>
        <time>2021-07-02T07:39:45Z</time>
      </trkpt>
      <trkpt lat="42.244251" lon="2.312968">
        <ele>800.15918</ele>
        <time>2021-07-02T07:39:46Z</time>
      </trkpt>
      <trkpt lat="42.244228" lon="2.312937">
        <ele>799.49463</ele>
        <time>2021-07-02T07:39:47Z</time>
      </trkpt>
      <trkpt lat="42.243980" lon="2.312530">
        <ele>799.08301</ele>
        <time>2021-07-02T07:39:48Z</time>
      </trkpt>
      <trkpt lat="42.243912" lon="2.312300">
        <ele>798.91870</ele>
        <time>2021-07-02T07:39:49Z</time>
      </trkpt>
      <trkpt lat="42.243828" lon="2.312021">
        <ele>798.74170</ele>
        <time>2021-07-02T07:39:50Z</time>
      </trkpt>
      <trkpt lat="42.243828" lon="2.312021">
        <ele>799.54211</ele>
        <time>2021-07-02T07:39:51Z</time>
      </trkpt>
      <trkpt lat="42.243828" lon="2.312021">
        <ele>799.39893</ele>
        <time>2021-07-02T07:39:52Z</time>
      </trkpt>
      <trkpt lat="42.243629" lon="2.311373">
        <ele>799.22168</ele>
        <time>2021-07-02T07:39:53Z</time>
      </trkpt>
      <trkpt lat="42.243553" lon="2.311121">
        <ele>799.80786</ele>
        <time>2021-07-02T07:39:54Z</time>
      </trkpt>
      <trkpt lat="42.243477" lon="2.310872">
        <ele>799.19189</ele>
        <time>2021-07-02T07:39:55Z</time>
      </trkpt>
      <trkpt lat="42.243404" lon="2.310629">
        <ele>799.45972</ele>
        <time>2021-07-02T07:39:56Z</time>
      </trkpt>
      <trkpt lat="42.243336" lon="2.310387">
        <ele>799.16345</ele>
        <time>2021-07-02T07:39:57Z</time>
      </trkpt>
      <trkpt lat="42.243263" lon="2.310148">
        <ele>799.19543</ele>
        <time>2021-07-02T07:39:58Z</time>
      </trkpt>
      <trkpt lat="42.243191" lon="2.309916">
        <ele>799.20081</ele>
        <time>2021-07-02T07:39:59Z</time>
      </trkpt>
      <trkpt lat="42.243118" lon="2.309682">
        <ele>798.75098</ele>
        <time>2021-07-02T07:40:00Z</time>
      </trkpt>
      <trkpt lat="42.243050" lon="2.309457">
        <ele>798.51270</ele>
        <time>2021-07-02T07:40:01Z</time>
      </trkpt>
      <trkpt lat="42.242977" lon="2.309225">
        <ele>798.28186</ele>
        <time>2021-07-02T07:40:02Z</time>
      </trkpt>
      <trkpt lat="42.242916" lon="2.309017">
        <ele>798.49048</ele>
        <time>2021-07-02T07:40:03Z</time>
      </trkpt>
      <trkpt lat="42.242859" lon="2.308824">
        <ele>799.28699</ele>
        <time>2021-07-02T07:40:04Z</time>
      </trkpt>
      <trkpt lat="42.242794" lon="2.308611">
        <ele>798.53284</ele>
        <time>2021-07-02T07:40:05Z</time>
      </trkpt>
      <trkpt lat="42.242729" lon="2.308406">
        <ele>798.30908</ele>
        <time>2021-07-02T07:40:06Z</time>
      </trkpt>
      <trkpt lat="42.242664" lon="2.308187">
        <ele>798.28308</ele>
        <time>2021-07-02T07:40:07Z</time>
      </trkpt>
      <trkpt lat="42.242599" lon="2.307966">
        <ele>799.20935</ele>
        <time>2021-07-02T07:40:08Z</time>
      </trkpt>
      <trkpt lat="42.242531" lon="2.307745">
        <ele>798.17737</ele>
        <time>2021-07-02T07:40:09Z</time>
      </trkpt>
      <trkpt lat="42.242466" lon="2.307526">
        <ele>796.62927</ele>
        <time>2021-07-02T07:40:10Z</time>
      </trkpt>
      <trkpt lat="42.242393" lon="2.307289">
        <ele>795.30823</ele>
        <time>2021-07-02T07:40:11Z</time>
      </trkpt>
      <trkpt lat="42.242393" lon="2.307289">
        <ele>795.85205</ele>
        <time>2021-07-02T07:40:12Z</time>
      </trkpt>
      <trkpt lat="42.242325" lon="2.307063">
        <ele>795.55396</ele>
        <time>2021-07-02T07:40:13Z</time>
      </trkpt>
      <trkpt lat="42.242260" lon="2.306840">
        <ele>795.77905</ele>
        <time>2021-07-02T07:40:14Z</time>
      </trkpt>
      <trkpt lat="42.242180" lon="2.306622">
        <ele>795.82812</ele>
        <time>2021-07-02T07:40:15Z</time>
      </trkpt>
      <trkpt lat="42.242104" lon="2.306422">
        <ele>791.75934</ele>
        <time>2021-07-02T07:40:16Z</time>
      </trkpt>
      <trkpt lat="42.242023" lon="2.306240">
        <ele>796.44141</ele>
        <time>2021-07-02T07:40:17Z</time>
      </trkpt>
      <trkpt lat="42.241936" lon="2.306048">
        <ele>795.79016</ele>
        <time>2021-07-02T07:40:18Z</time>
      </trkpt>
      <trkpt lat="42.241840" lon="2.305866">
        <ele>793.98169</ele>
        <time>2021-07-02T07:40:19Z</time>
      </trkpt>
      <trkpt lat="42.241745" lon="2.305689">
        <ele>793.75220</ele>
        <time>2021-07-02T07:40:20Z</time>
      </trkpt>
      <trkpt lat="42.241631" lon="2.305503">
        <ele>793.71973</ele>
        <time>2021-07-02T07:40:21Z</time>
      </trkpt>
      <trkpt lat="42.241528" lon="2.305332">
        <ele>791.90942</ele>
        <time>2021-07-02T07:40:22Z</time>
      </trkpt>
      <trkpt lat="42.241394" lon="2.305182">
        <ele>791.40552</ele>
        <time>2021-07-02T07:40:23Z</time>
      </trkpt>
      <trkpt lat="42.241264" lon="2.305128">
        <ele>791.71680</ele>
        <time>2021-07-02T07:40:24Z</time>
      </trkpt>
      <trkpt lat="42.241142" lon="2.305138">
        <ele>791.78796</ele>
        <time>2021-07-02T07:40:25Z</time>
      </trkpt>
      <trkpt lat="42.241016" lon="2.305206">
        <ele>791.15747</ele>
        <time>2021-07-02T07:40:26Z</time>
      </trkpt>
      <trkpt lat="42.240948" lon="2.305281">
        <ele>790.54858</ele>
        <time>2021-07-02T07:40:27Z</time>
      </trkpt>
      <trkpt lat="42.240845" lon="2.305396">
        <ele>790.31714</ele>
        <time>2021-07-02T07:40:28Z</time>
      </trkpt>
      <trkpt lat="42.240726" lon="2.305529">
        <ele>791.01465</ele>
        <time>2021-07-02T07:40:29Z</time>
      </trkpt>
      <trkpt lat="42.240627" lon="2.305641">
        <ele>793.03247</ele>
        <time>2021-07-02T07:40:30Z</time>
      </trkpt>
      <trkpt lat="42.240540" lon="2.305723">
        <ele>793.80261</ele>
        <time>2021-07-02T07:40:31Z</time>
      </trkpt>
      <trkpt lat="42.240463" lon="2.305739">
        <ele>793.76770</ele>
        <time>2021-07-02T07:40:32Z</time>
      </trkpt>
      <trkpt lat="42.240376" lon="2.305718">
        <ele>794.25659</ele>
        <time>2021-07-02T07:40:33Z</time>
      </trkpt>
      <trkpt lat="42.240295" lon="2.305655">
        <ele>793.46198</ele>
        <time>2021-07-02T07:40:34Z</time>
      </trkpt>
      <trkpt lat="42.240231" lon="2.305576">
        <ele>796.20789</ele>
        <time>2021-07-02T07:40:35Z</time>
      </trkpt>
      <trkpt lat="42.240150" lon="2.305462">
        <ele>798.09039</ele>
        <time>2021-07-02T07:40:36Z</time>
      </trkpt>
      <trkpt lat="42.240078" lon="2.305358">
        <ele>797.93054</ele>
        <time>2021-07-02T07:40:37Z</time>
      </trkpt>
      <trkpt lat="42.240002" lon="2.305250">
        <ele>798.74023</ele>
        <time>2021-07-02T07:40:38Z</time>
      </trkpt>
      <trkpt lat="42.239853" lon="2.305041">
        <ele>799.56592</ele>
        <time>2021-07-02T07:40:39Z</time>
      </trkpt>
      <trkpt lat="42.239693" lon="2.304805">
        <ele>795.68506</ele>
        <time>2021-07-02T07:40:40Z</time>
      </trkpt>
      <trkpt lat="42.239471" lon="2.304374">
        <ele>795.22021</ele>
        <time>2021-07-02T07:40:41Z</time>
      </trkpt>
      <trkpt lat="42.239349" lon="2.304073">
        <ele>794.51538</ele>
        <time>2021-07-02T07:40:42Z</time>
      </trkpt>
      <trkpt lat="42.239231" lon="2.303776">
        <ele>796.41077</ele>
        <time>2021-07-02T07:40:43Z</time>
      </trkpt>
      <trkpt lat="42.239113" lon="2.303477">
        <ele>797.07153</ele>
        <time>2021-07-02T07:40:44Z</time>
      </trkpt>
      <trkpt lat="42.239113" lon="2.303477">
        <ele>797.52368</ele>
        <time>2021-07-02T07:40:45Z</time>
      </trkpt>
      <trkpt lat="42.239025" lon="2.303253">
        <ele>798.77185</ele>
        <time>2021-07-02T07:40:46Z</time>
      </trkpt>
      <trkpt lat="42.238937" lon="2.303030">
        <ele>798.73981</ele>
        <time>2021-07-02T07:40:47Z</time>
      </trkpt>
      <trkpt lat="42.238846" lon="2.302817">
        <ele>798.56799</ele>
        <time>2021-07-02T07:40:48Z</time>
      </trkpt>
      <trkpt lat="42.238758" lon="2.302638">
        <ele>798.31415</ele>
        <time>2021-07-02T07:40:49Z</time>
      </trkpt>
      <trkpt lat="42.238636" lon="2.302496">
        <ele>798.68311</ele>
        <time>2021-07-02T07:40:50Z</time>
      </trkpt>
      <trkpt lat="42.238483" lon="2.302407">
        <ele>799.55505</ele>
        <time>2021-07-02T07:40:51Z</time>
      </trkpt>
      <trkpt lat="42.238350" lon="2.302343">
        <ele>800.13971</ele>
        <time>2021-07-02T07:40:52Z</time>
      </trkpt>
      <trkpt lat="42.238167" lon="2.302251">
        <ele>798.29590</ele>
        <time>2021-07-02T07:40:53Z</time>
      </trkpt>
      <trkpt lat="42.237999" lon="2.302134">
        <ele>799.14148</ele>
        <time>2021-07-02T07:40:54Z</time>
      </trkpt>
      <trkpt lat="42.237835" lon="2.301971">
        <ele>801.09766</ele>
        <time>2021-07-02T07:40:55Z</time>
      </trkpt>
      <trkpt lat="42.237701" lon="2.301786">
        <ele>801.89978</ele>
        <time>2021-07-02T07:40:56Z</time>
      </trkpt>
      <trkpt lat="42.237564" lon="2.301554">
        <ele>803.36987</ele>
        <time>2021-07-02T07:40:57Z</time>
      </trkpt>
      <trkpt lat="42.237457" lon="2.301302">
        <ele>805.48309</ele>
        <time>2021-07-02T07:40:58Z</time>
      </trkpt>
      <trkpt lat="42.237389" lon="2.301050">
        <ele>805.60266</ele>
        <time>2021-07-02T07:40:59Z</time>
      </trkpt>
      <trkpt lat="42.237331" lon="2.300822">
        <ele>805.57178</ele>
        <time>2021-07-02T07:41:00Z</time>
      </trkpt>
      <trkpt lat="42.237286" lon="2.300609">
        <ele>805.45331</ele>
        <time>2021-07-02T07:41:01Z</time>
      </trkpt>
      <trkpt lat="42.237270" lon="2.300415">
        <ele>805.55853</ele>
        <time>2021-07-02T07:41:02Z</time>
      </trkpt>
      <trkpt lat="42.237286" lon="2.300211">
        <ele>806.09912</ele>
        <time>2021-07-02T07:41:03Z</time>
      </trkpt>
      <trkpt lat="42.237331" lon="2.300000">
        <ele>806.03418</ele>
        <time>2021-07-02T07:41:04Z</time>
      </trkpt>
      <trkpt lat="42.237411" lon="2.299766">
        <ele>806.23566</ele>
        <time>2021-07-02T07:41:05Z</time>
      </trkpt>
      <trkpt lat="42.237495" lon="2.299537">
        <ele>805.80292</ele>
        <time>2021-07-02T07:41:06Z</time>
      </trkpt>
      <trkpt lat="42.237572" lon="2.299319">
        <ele>805.14850</ele>
        <time>2021-07-02T07:41:07Z</time>
      </trkpt>
      <trkpt lat="42.237652" lon="2.299094">
        <ele>805.79260</ele>
        <time>2021-07-02T07:41:08Z</time>
      </trkpt>
      <trkpt lat="42.237713" lon="2.298857">
        <ele>805.21704</ele>
        <time>2021-07-02T07:41:09Z</time>
      </trkpt>
      <trkpt lat="42.237740" lon="2.298618">
        <ele>803.71338</ele>
        <time>2021-07-02T07:41:10Z</time>
      </trkpt>
      <trkpt lat="42.237743" lon="2.298342">
        <ele>803.12524</ele>
        <time>2021-07-02T07:41:11Z</time>
      </trkpt>
      <trkpt lat="42.237705" lon="2.298069">
        <ele>803.67206</ele>
        <time>2021-07-02T07:41:12Z</time>
      </trkpt>
      <trkpt lat="42.237621" lon="2.297809">
        <ele>803.43988</ele>
        <time>2021-07-02T07:41:13Z</time>
      </trkpt>
      <trkpt lat="42.237499" lon="2.297555">
        <ele>803.18134</ele>
        <time>2021-07-02T07:41:14Z</time>
      </trkpt>
      <trkpt lat="42.237385" lon="2.297360">
        <ele>802.81708</ele>
        <time>2021-07-02T07:41:15Z</time>
      </trkpt>
      <trkpt lat="42.237385" lon="2.297360">
        <ele>800.06354</ele>
        <time>2021-07-02T07:41:16Z</time>
      </trkpt>
      <trkpt lat="42.237232" lon="2.297126">
        <ele>799.74432</ele>
        <time>2021-07-02T07:41:17Z</time>
      </trkpt>
      <trkpt lat="42.237106" lon="2.296905">
        <ele>799.32098</ele>
        <time>2021-07-02T07:41:18Z</time>
      </trkpt>
      <trkpt lat="42.237007" lon="2.296694">
        <ele>799.16351</ele>
        <time>2021-07-02T07:41:19Z</time>
      </trkpt>
      <trkpt lat="42.236923" lon="2.296447">
        <ele>798.63177</ele>
        <time>2021-07-02T07:41:20Z</time>
      </trkpt>
      <trkpt lat="42.236843" lon="2.296199">
        <ele>798.48468</ele>
        <time>2021-07-02T07:41:21Z</time>
      </trkpt>
      <trkpt lat="42.236771" lon="2.295982">
        <ele>798.18243</ele>
        <time>2021-07-02T07:41:22Z</time>
      </trkpt>
      <trkpt lat="42.236698" lon="2.295752">
        <ele>794.13519</ele>
        <time>2021-07-02T07:41:23Z</time>
      </trkpt>
      <trkpt lat="42.236622" lon="2.295506">
        <ele>793.03510</ele>
        <time>2021-07-02T07:41:24Z</time>
      </trkpt>
      <trkpt lat="42.236549" lon="2.295267">
        <ele>790.66302</ele>
        <time>2021-07-02T07:41:25Z</time>
      </trkpt>
      <trkpt lat="42.236477" lon="2.295035">
        <ele>790.63715</ele>
        <time>2021-07-02T07:41:26Z</time>
      </trkpt>
      <trkpt lat="42.236408" lon="2.294823">
        <ele>791.46625</ele>
        <time>2021-07-02T07:41:27Z</time>
      </trkpt>
      <trkpt lat="42.236332" lon="2.294577">
        <ele>792.06244</ele>
        <time>2021-07-02T07:41:28Z</time>
      </trkpt>
      <trkpt lat="42.236263" lon="2.294348">
        <ele>791.91351</ele>
        <time>2021-07-02T07:41:29Z</time>
      </trkpt>
      <trkpt lat="42.236195" lon="2.294133">
        <ele>791.96210</ele>
        <time>2021-07-02T07:41:30Z</time>
      </trkpt>
      <trkpt lat="42.236126" lon="2.293907">
        <ele>789.77509</ele>
        <time>2021-07-02T07:41:31Z</time>
      </trkpt>
      <trkpt lat="42.236065" lon="2.293707">
        <ele>788.89581</ele>
        <time>2021-07-02T07:41:32Z</time>
      </trkpt>
      <trkpt lat="42.236000" lon="2.293499">
        <ele>788.54486</ele>
        <time>2021-07-02T07:41:33Z</time>
      </trkpt>
      <trkpt lat="42.235939" lon="2.293305">
        <ele>789.07513</ele>
        <time>2021-07-02T07:41:34Z</time>
      </trkpt>
      <trkpt lat="42.235882" lon="2.293126">
        <ele>788.36151</ele>
        <time>2021-07-02T07:41:35Z</time>
      </trkpt>
      <trkpt lat="42.235836" lon="2.292972">
        <ele>789.37347</ele>
        <time>2021-07-02T07:41:36Z</time>
      </trkpt>
      <trkpt lat="42.235798" lon="2.292847">
        <ele>789.31146</ele>
        <time>2021-07-02T07:41:37Z</time>
      </trkpt>
      <trkpt lat="42.235760" lon="2.292722">
        <ele>790.94476</ele>
        <time>2021-07-02T07:41:38Z</time>
      </trkpt>
      <trkpt lat="42.235760" lon="2.292628">
        <ele>791.17767</ele>
        <time>2021-07-02T07:41:39Z</time>
      </trkpt>
      <trkpt lat="42.235760" lon="2.292628">
        <ele>791.19025</ele>
        <time>2021-07-02T07:41:40Z</time>
      </trkpt>
      <trkpt lat="42.235821" lon="2.292507">
        <ele>791.26385</ele>
        <time>2021-07-02T07:41:41Z</time>
      </trkpt>
      <trkpt lat="42.235809" lon="2.292348">
        <ele>790.77582</ele>
        <time>2021-07-02T07:41:42Z</time>
      </trkpt>
      <trkpt lat="42.235798" lon="2.292314">
        <ele>790.98187</ele>
        <time>2021-07-02T07:41:43Z</time>
      </trkpt>
      <trkpt lat="42.235733" lon="2.292246">
        <ele>789.87262</ele>
        <time>2021-07-02T07:41:44Z</time>
      </trkpt>
      <trkpt lat="42.235672" lon="2.292221">
        <ele>789.48590</ele>
        <time>2021-07-02T07:41:45Z</time>
      </trkpt>
      <trkpt lat="42.235615" lon="2.292229">
        <ele>790.35663</ele>
        <time>2021-07-02T07:41:46Z</time>
      </trkpt>
      <trkpt lat="42.235615" lon="2.292229">
        <ele>790.18036</ele>
        <time>2021-07-02T07:41:47Z</time>
      </trkpt>
      <trkpt lat="42.235519" lon="2.291917">
        <ele>790.57428</ele>
        <time>2021-07-02T07:41:48Z</time>
      </trkpt>
      <trkpt lat="42.235447" lon="2.291679">
        <ele>788.83124</ele>
        <time>2021-07-02T07:41:49Z</time>
      </trkpt>
      <trkpt lat="42.235416" lon="2.291567">
        <ele>789.72064</ele>
        <time>2021-07-02T07:41:50Z</time>
      </trkpt>
      <trkpt lat="42.235378" lon="2.291450">
        <ele>790.33490</ele>
        <time>2021-07-02T07:41:51Z</time>
      </trkpt>
      <trkpt lat="42.235378" lon="2.291450">
        <ele>789.90826</ele>
        <time>2021-07-02T07:41:52Z</time>
      </trkpt>
      <trkpt lat="42.235336" lon="2.291301">
        <ele>789.67072</ele>
        <time>2021-07-02T07:41:53Z</time>
      </trkpt>
      <trkpt lat="42.235313" lon="2.291226">
        <ele>789.09393</ele>
        <time>2021-07-02T07:41:54Z</time>
      </trkpt>
      <trkpt lat="42.235268" lon="2.291079">
        <ele>789.47015</ele>
        <time>2021-07-02T07:41:55Z</time>
      </trkpt>
      <trkpt lat="42.235245" lon="2.291015">
        <ele>782.58240</ele>
        <time>2021-07-02T07:41:56Z</time>
      </trkpt>
      <trkpt lat="42.235245" lon="2.291014">
        <ele>782.55896</ele>
        <time>2021-07-02T07:41:57Z</time>
      </trkpt>
      <trkpt lat="42.235245" lon="2.291014">
        <ele>789.05170</ele>
        <time>2021-07-02T07:41:58Z</time>
      </trkpt>
      <trkpt lat="42.235142" lon="2.290688">
        <ele>788.76288</ele>
        <time>2021-07-02T07:41:59Z</time>
      </trkpt>
      <trkpt lat="42.235062" lon="2.290446">
        <ele>788.77057</ele>
        <time>2021-07-02T07:42:00Z</time>
      </trkpt>
      <trkpt lat="42.235023" lon="2.290335">
        <ele>788.43158</ele>
        <time>2021-07-02T07:42:01Z</time>
      </trkpt>
      <trkpt lat="42.234982" lon="2.290205">
        <ele>788.20868</ele>
        <time>2021-07-02T07:42:02Z</time>
      </trkpt>
      <trkpt lat="42.234982" lon="2.290205">
        <ele>788.82062</ele>
        <time>2021-07-02T07:42:03Z</time>
      </trkpt>
      <trkpt lat="42.234909" lon="2.290005">
        <ele>788.59637</ele>
        <time>2021-07-02T07:42:04Z</time>
      </trkpt>
      <trkpt lat="42.234863" lon="2.289911">
        <ele>789.14398</ele>
        <time>2021-07-02T07:42:05Z</time>
      </trkpt>
      <trkpt lat="42.234806" lon="2.289803">
        <ele>788.24237</ele>
        <time>2021-07-02T07:42:06Z</time>
      </trkpt>
      <trkpt lat="42.234764" lon="2.289701">
        <ele>788.16107</ele>
        <time>2021-07-02T07:42:07Z</time>
      </trkpt>
      <trkpt lat="42.234699" lon="2.289626">
        <ele>787.55231</ele>
        <time>2021-07-02T07:42:08Z</time>
      </trkpt>
      <trkpt lat="42.234619" lon="2.289544">
        <ele>787.30731</ele>
        <time>2021-07-02T07:42:09Z</time>
      </trkpt>
      <trkpt lat="42.234547" lon="2.289466">
        <ele>788.02069</ele>
        <time>2021-07-02T07:42:10Z</time>
      </trkpt>
      <trkpt lat="42.234489" lon="2.289398">
        <ele>789.90814</ele>
        <time>2021-07-02T07:42:11Z</time>
      </trkpt>
      <trkpt lat="42.234455" lon="2.289351">
        <ele>791.76190</ele>
        <time>2021-07-02T07:42:12Z</time>
      </trkpt>
      <trkpt lat="42.234425" lon="2.289297">
        <ele>792.01813</ele>
        <time>2021-07-02T07:42:13Z</time>
      </trkpt>
      <trkpt lat="42.234406" lon="2.289246">
        <ele>792.73883</ele>
        <time>2021-07-02T07:42:14Z</time>
      </trkpt>
      <trkpt lat="42.234406" lon="2.289234">
        <ele>792.33356</ele>
        <time>2021-07-02T07:42:15Z</time>
      </trkpt>
      <trkpt lat="42.234406" lon="2.289234">
        <ele>792.50165</ele>
        <time>2021-07-02T07:42:16Z</time>
      </trkpt>
      <trkpt lat="42.234406" lon="2.289234">
        <ele>791.27863</ele>
        <time>2021-07-02T07:42:17Z</time>
      </trkpt>
      <trkpt lat="42.234406" lon="2.289234">
        <ele>790.25922</ele>
        <time>2021-07-02T07:42:18Z</time>
      </trkpt>
      <trkpt lat="42.234406" lon="2.289234">
        <ele>789.14667</ele>
        <time>2021-07-02T07:42:19Z</time>
      </trkpt>
      <trkpt lat="42.234406" lon="2.289234">
        <ele>789.40643</ele>
        <time>2021-07-02T07:42:20Z</time>
      </trkpt>
      <trkpt lat="42.234406" lon="2.289234">
        <ele>789.16364</ele>
        <time>2021-07-02T07:42:21Z</time>
      </trkpt>
      <trkpt lat="42.234406" lon="2.289234">
        <ele>788.03326</ele>
        <time>2021-07-02T07:42:22Z</time>
      </trkpt>
      <trkpt lat="42.234406" lon="2.289234">
        <ele>787.99750</ele>
        <time>2021-07-02T07:42:23Z</time>
      </trkpt>
      <trkpt lat="42.234406" lon="2.289234">
        <ele>787.11884</ele>
        <time>2021-07-02T07:42:24Z</time>
      </trkpt>
      <trkpt lat="42.234398" lon="2.289180">
        <ele>786.65448</ele>
        <time>2021-07-02T07:42:25Z</time>
      </trkpt>
      <trkpt lat="42.234398" lon="2.289038">
        <ele>786.31805</ele>
        <time>2021-07-02T07:42:26Z</time>
      </trkpt>
      <trkpt lat="42.234402" lon="2.288974">
        <ele>786.36176</ele>
        <time>2021-07-02T07:42:27Z</time>
      </trkpt>
      <trkpt lat="42.234402" lon="2.288974">
        <ele>786.48505</ele>
        <time>2021-07-02T07:42:28Z</time>
      </trkpt>
      <trkpt lat="42.234402" lon="2.288973">
        <ele>785.96124</ele>
        <time>2021-07-02T07:42:29Z</time>
      </trkpt>
      <trkpt lat="42.234474" lon="2.288628">
        <ele>785.92792</ele>
        <time>2021-07-02T07:42:30Z</time>
      </trkpt>
      <trkpt lat="42.234497" lon="2.288411">
        <ele>786.00092</ele>
        <time>2021-07-02T07:42:31Z</time>
      </trkpt>
      <trkpt lat="42.234497" lon="2.288293">
        <ele>785.54608</ele>
        <time>2021-07-02T07:42:32Z</time>
      </trkpt>
      <trkpt lat="42.234474" lon="2.288187">
        <ele>784.25372</ele>
        <time>2021-07-02T07:42:33Z</time>
      </trkpt>
      <trkpt lat="42.234444" lon="2.288085">
        <ele>783.73798</ele>
        <time>2021-07-02T07:42:34Z</time>
      </trkpt>
      <trkpt lat="42.234444" lon="2.288085">
        <ele>784.49017</ele>
        <time>2021-07-02T07:42:35Z</time>
      </trkpt>
      <trkpt lat="42.234398" lon="2.287949">
        <ele>784.20599</ele>
        <time>2021-07-02T07:42:36Z</time>
      </trkpt>
      <trkpt lat="42.234367" lon="2.287853">
        <ele>783.30292</ele>
        <time>2021-07-02T07:42:37Z</time>
      </trkpt>
      <trkpt lat="42.234325" lon="2.287736">
        <ele>782.95685</ele>
        <time>2021-07-02T07:42:38Z</time>
      </trkpt>
      <trkpt lat="42.234318" lon="2.287707">
        <ele>783.17841</ele>
        <time>2021-07-02T07:42:39Z</time>
      </trkpt>
      <trkpt lat="42.234318" lon="2.287707">
        <ele>783.49506</ele>
        <time>2021-07-02T07:42:40Z</time>
      </trkpt>
      <trkpt lat="42.234318" lon="2.287707">
        <ele>784.02484</ele>
        <time>2021-07-02T07:42:41Z</time>
      </trkpt>
      <trkpt lat="42.234318" lon="2.287707">
        <ele>784.97076</ele>
        <time>2021-07-02T07:42:42Z</time>
      </trkpt>
      <trkpt lat="42.234264" lon="2.287537">
        <ele>784.18756</ele>
        <time>2021-07-02T07:42:43Z</time>
      </trkpt>
      <trkpt lat="42.234177" lon="2.287265">
        <ele>784.19769</ele>
        <time>2021-07-02T07:42:44Z</time>
      </trkpt>
      <trkpt lat="42.234154" lon="2.287190">
        <ele>784.04535</ele>
        <time>2021-07-02T07:42:45Z</time>
      </trkpt>
      <trkpt lat="42.234108" lon="2.287065">
        <ele>783.66962</ele>
        <time>2021-07-02T07:42:46Z</time>
      </trkpt>
      <trkpt lat="42.234066" lon="2.286932">
        <ele>781.28241</ele>
        <time>2021-07-02T07:42:47Z</time>
      </trkpt>
      <trkpt lat="42.234066" lon="2.286932">
        <ele>782.04535</ele>
        <time>2021-07-02T07:42:48Z</time>
      </trkpt>
      <trkpt lat="42.233997" lon="2.286734">
        <ele>782.54901</ele>
        <time>2021-07-02T07:42:49Z</time>
      </trkpt>
      <trkpt lat="42.233974" lon="2.286655">
        <ele>782.68121</ele>
        <time>2021-07-02T07:42:50Z</time>
      </trkpt>
      <trkpt lat="42.233944" lon="2.286559">
        <ele>782.50153</ele>
        <time>2021-07-02T07:42:51Z</time>
      </trkpt>
      <trkpt lat="42.233913" lon="2.286468">
        <ele>781.71112</ele>
        <time>2021-07-02T07:42:52Z</time>
      </trkpt>
      <trkpt lat="42.233891" lon="2.286382">
        <ele>782.42181</ele>
        <time>2021-07-02T07:42:53Z</time>
      </trkpt>
      <trkpt lat="42.233871" lon="2.286308">
        <ele>782.07489</ele>
        <time>2021-07-02T07:42:54Z</time>
      </trkpt>
      <trkpt lat="42.233864" lon="2.286231">
        <ele>771.24103</ele>
        <time>2021-07-02T07:42:55Z</time>
      </trkpt>
      <trkpt lat="42.233864" lon="2.286135">
        <ele>785.71625</ele>
        <time>2021-07-02T07:42:56Z</time>
      </trkpt>
      <trkpt lat="42.233879" lon="2.286001">
        <ele>785.89423</ele>
        <time>2021-07-02T07:42:57Z</time>
      </trkpt>
      <trkpt lat="42.233898" lon="2.285934">
        <ele>786.07513</ele>
        <time>2021-07-02T07:42:58Z</time>
      </trkpt>
      <trkpt lat="42.233898" lon="2.285934">
        <ele>785.89032</ele>
        <time>2021-07-02T07:42:59Z</time>
      </trkpt>
      <trkpt lat="42.233898" lon="2.285934">
        <ele>783.64484</ele>
        <time>2021-07-02T07:43:00Z</time>
      </trkpt>
      <trkpt lat="42.233940" lon="2.285789">
        <ele>770.89270</ele>
        <time>2021-07-02T07:43:01Z</time>
      </trkpt>
      <trkpt lat="42.233940" lon="2.285789">
        <ele>770.76166</ele>
        <time>2021-07-02T07:43:02Z</time>
      </trkpt>
      <trkpt lat="42.233871" lon="2.285479">
        <ele>770.61035</ele>
        <time>2021-07-02T07:43:03Z</time>
      </trkpt>
      <trkpt lat="42.233833" lon="2.285359">
        <ele>770.66022</ele>
        <time>2021-07-02T07:43:04Z</time>
      </trkpt>
      <trkpt lat="42.233799" lon="2.285243">
        <ele>770.06287</ele>
        <time>2021-07-02T07:43:05Z</time>
      </trkpt>
      <trkpt lat="42.233772" lon="2.285152">
        <ele>770.04028</ele>
        <time>2021-07-02T07:43:06Z</time>
      </trkpt>
      <trkpt lat="42.233772" lon="2.285152">
        <ele>780.81635</ele>
        <time>2021-07-02T07:43:07Z</time>
      </trkpt>
      <trkpt lat="42.233765" lon="2.284995">
        <ele>782.27460</ele>
        <time>2021-07-02T07:43:08Z</time>
      </trkpt>
      <trkpt lat="42.233803" lon="2.284938">
        <ele>782.57697</ele>
        <time>2021-07-02T07:43:09Z</time>
      </trkpt>
      <trkpt lat="42.233829" lon="2.284908">
        <ele>781.99750</ele>
        <time>2021-07-02T07:43:10Z</time>
      </trkpt>
      <trkpt lat="42.233829" lon="2.284906">
        <ele>781.93365</ele>
        <time>2021-07-02T07:43:11Z</time>
      </trkpt>
      <trkpt lat="42.233837" lon="2.284899">
        <ele>782.21552</ele>
        <time>2021-07-02T07:43:12Z</time>
      </trkpt>
      <trkpt lat="42.233845" lon="2.284888">
        <ele>781.37250</ele>
        <time>2021-07-02T07:43:13Z</time>
      </trkpt>
      <trkpt lat="42.233845" lon="2.284888">
        <ele>781.12469</ele>
        <time>2021-07-02T07:43:14Z</time>
      </trkpt>
      <trkpt lat="42.233845" lon="2.284888">
        <ele>768.76776</ele>
        <time>2021-07-02T07:43:15Z</time>
      </trkpt>
      <trkpt lat="42.233845" lon="2.284888">
        <ele>768.80823</ele>
        <time>2021-07-02T07:43:16Z</time>
      </trkpt>
      <trkpt lat="42.233845" lon="2.284888">
        <ele>784.16620</ele>
        <time>2021-07-02T07:43:17Z</time>
      </trkpt>
      <trkpt lat="42.233849" lon="2.284884">
        <ele>781.70123</ele>
        <time>2021-07-02T07:43:18Z</time>
      </trkpt>
      <trkpt lat="42.233902" lon="2.284821">
        <ele>781.74896</ele>
        <time>2021-07-02T07:43:19Z</time>
      </trkpt>
      <trkpt lat="42.233952" lon="2.284765">
        <ele>781.42914</ele>
        <time>2021-07-02T07:43:20Z</time>
      </trkpt>
      <trkpt lat="42.233997" lon="2.284714">
        <ele>778.50946</ele>
        <time>2021-07-02T07:43:21Z</time>
      </trkpt>
      <trkpt lat="42.234051" lon="2.284658">
        <ele>777.17096</ele>
        <time>2021-07-02T07:43:22Z</time>
      </trkpt>
      <trkpt lat="42.234077" lon="2.284632">
        <ele>776.78583</ele>
        <time>2021-07-02T07:43:23Z</time>
      </trkpt>
      <trkpt lat="42.234077" lon="2.284631">
        <ele>777.68683</ele>
        <time>2021-07-02T07:43:24Z</time>
      </trkpt>
      <trkpt lat="42.234077" lon="2.284630">
        <ele>777.40643</ele>
        <time>2021-07-02T07:43:25Z</time>
      </trkpt>
      <trkpt lat="42.234192" lon="2.284523">
        <ele>777.74310</ele>
        <time>2021-07-02T07:43:26Z</time>
      </trkpt>
      <trkpt lat="42.234375" lon="2.284350">
        <ele>768.82037</ele>
        <time>2021-07-02T07:43:27Z</time>
      </trkpt>
      <trkpt lat="42.234375" lon="2.284350">
        <ele>769.11810</ele>
        <time>2021-07-02T07:43:28Z</time>
      </trkpt>
      <trkpt lat="42.234451" lon="2.284284">
        <ele>769.46240</ele>
        <time>2021-07-02T07:43:29Z</time>
      </trkpt>
      <trkpt lat="42.234547" lon="2.284199">
        <ele>769.28217</ele>
        <time>2021-07-02T07:43:30Z</time>
      </trkpt>
      <trkpt lat="42.234646" lon="2.284106">
        <ele>768.89783</ele>
        <time>2021-07-02T07:43:31Z</time>
      </trkpt>
      <trkpt lat="42.234646" lon="2.284106">
        <ele>769.00604</ele>
        <time>2021-07-02T07:43:32Z</time>
      </trkpt>
      <trkpt lat="42.234791" lon="2.283968">
        <ele>774.02386</ele>
        <time>2021-07-02T07:43:33Z</time>
      </trkpt>
      <trkpt lat="42.234867" lon="2.283898">
        <ele>775.31097</ele>
        <time>2021-07-02T07:43:34Z</time>
      </trkpt>
      <trkpt lat="42.234921" lon="2.283846">
        <ele>774.70636</ele>
        <time>2021-07-02T07:43:35Z</time>
      </trkpt>
      <trkpt lat="42.234951" lon="2.283819">
        <ele>774.25067</ele>
        <time>2021-07-02T07:43:36Z</time>
      </trkpt>
      <trkpt lat="42.234989" lon="2.283781">
        <ele>773.54242</ele>
        <time>2021-07-02T07:43:37Z</time>
      </trkpt>
      <trkpt lat="42.235027" lon="2.283746">
        <ele>773.77338</ele>
        <time>2021-07-02T07:43:38Z</time>
      </trkpt>
      <trkpt lat="42.235043" lon="2.283734">
        <ele>772.90497</ele>
        <time>2021-07-02T07:43:39Z</time>
      </trkpt>
      <trkpt lat="42.235058" lon="2.283720">
        <ele>772.58710</ele>
        <time>2021-07-02T07:43:40Z</time>
      </trkpt>
      <trkpt lat="42.235077" lon="2.283700">
        <ele>772.25409</ele>
        <time>2021-07-02T07:43:41Z</time>
      </trkpt>
      <trkpt lat="42.235085" lon="2.283695">
        <ele>772.12555</ele>
        <time>2021-07-02T07:43:42Z</time>
      </trkpt>
      <trkpt lat="42.235088" lon="2.283691">
        <ele>771.51971</ele>
        <time>2021-07-02T07:43:43Z</time>
      </trkpt>
      <trkpt lat="42.235100" lon="2.283681">
        <ele>771.95892</ele>
        <time>2021-07-02T07:43:44Z</time>
      </trkpt>
      <trkpt lat="42.235100" lon="2.283681">
        <ele>771.72650</ele>
        <time>2021-07-02T07:43:45Z</time>
      </trkpt>
      <trkpt lat="42.235100" lon="2.283681">
        <ele>772.21014</ele>
        <time>2021-07-02T07:43:46Z</time>
      </trkpt>
      <trkpt lat="42.235100" lon="2.283681">
        <ele>772.10760</ele>
        <time>2021-07-02T07:43:47Z</time>
      </trkpt>
      <trkpt lat="42.235100" lon="2.283681">
        <ele>772.25214</ele>
        <time>2021-07-02T07:43:48Z</time>
      </trkpt>
      <trkpt lat="42.235100" lon="2.283681">
        <ele>772.11444</ele>
        <time>2021-07-02T07:43:49Z</time>
      </trkpt>
      <trkpt lat="42.235100" lon="2.283681">
        <ele>772.11237</ele>
        <time>2021-07-02T07:43:50Z</time>
      </trkpt>
      <trkpt lat="42.235100" lon="2.283681">
        <ele>770.85437</ele>
        <time>2021-07-02T07:43:51Z</time>
      </trkpt>
      <trkpt lat="42.235100" lon="2.283681">
        <ele>772.39667</ele>
        <time>2021-07-02T07:43:52Z</time>
      </trkpt>
      <trkpt lat="42.235100" lon="2.283681">
        <ele>771.40302</ele>
        <time>2021-07-02T07:43:53Z</time>
      </trkpt>
      <trkpt lat="42.235100" lon="2.283681">
        <ele>770.69843</ele>
        <time>2021-07-02T07:43:54Z</time>
      </trkpt>
      <trkpt lat="42.235100" lon="2.283681">
        <ele>770.42621</ele>
        <time>2021-07-02T07:43:55Z</time>
      </trkpt>
      <trkpt lat="42.235100" lon="2.283681">
        <ele>771.03973</ele>
        <time>2021-07-02T07:43:56Z</time>
      </trkpt>
      <trkpt lat="42.235100" lon="2.283681">
        <ele>770.65216</ele>
        <time>2021-07-02T07:43:57Z</time>
      </trkpt>
      <trkpt lat="42.235100" lon="2.283681">
        <ele>771.48749</ele>
        <time>2021-07-02T07:43:58Z</time>
      </trkpt>
      <trkpt lat="42.235100" lon="2.283681">
        <ele>772.25873</ele>
        <time>2021-07-02T07:43:59Z</time>
      </trkpt>
      <trkpt lat="42.235100" lon="2.283681">
        <ele>771.67401</ele>
        <time>2021-07-02T07:44:00Z</time>
      </trkpt>
      <trkpt lat="42.235100" lon="2.283681">
        <ele>772.07562</ele>
        <time>2021-07-02T07:44:01Z</time>
      </trkpt>
      <trkpt lat="42.235100" lon="2.283681">
        <ele>771.36737</ele>
        <time>2021-07-02T07:44:02Z</time>
      </trkpt>
      <trkpt lat="42.235100" lon="2.283681">
        <ele>772.23676</ele>
        <time>2021-07-02T07:44:03Z</time>
      </trkpt>
      <trkpt lat="42.235100" lon="2.283681">
        <ele>772.78046</ele>
        <time>2021-07-02T07:44:04Z</time>
      </trkpt>
      <trkpt lat="42.235100" lon="2.283681">
        <ele>772.49677</ele>
        <time>2021-07-02T07:44:05Z</time>
      </trkpt>
      <trkpt lat="42.235100" lon="2.283681">
        <ele>771.97662</ele>
        <time>2021-07-02T07:44:06Z</time>
      </trkpt>
      <trkpt lat="42.235100" lon="2.283681">
        <ele>770.87952</ele>
        <time>2021-07-02T07:44:07Z</time>
      </trkpt>
      <trkpt lat="42.235100" lon="2.283681">
        <ele>770.75696</ele>
        <time>2021-07-02T07:44:08Z</time>
      </trkpt>
      <trkpt lat="42.235100" lon="2.283681">
        <ele>770.78711</ele>
        <time>2021-07-02T07:44:09Z</time>
      </trkpt>
      <trkpt lat="42.235100" lon="2.283681">
        <ele>769.71429</ele>
        <time>2021-07-02T07:44:10Z</time>
      </trkpt>
      <trkpt lat="42.235100" lon="2.283681">
        <ele>769.00189</ele>
        <time>2021-07-02T07:44:11Z</time>
      </trkpt>
      <trkpt lat="42.235100" lon="2.283681">
        <ele>768.48016</ele>
        <time>2021-07-02T07:44:12Z</time>
      </trkpt>
      <trkpt lat="42.235100" lon="2.283681">
        <ele>770.81842</ele>
        <time>2021-07-02T07:44:13Z</time>
      </trkpt>
      <trkpt lat="42.235100" lon="2.283681">
        <ele>770.82202</ele>
        <time>2021-07-02T07:44:14Z</time>
      </trkpt>
      <trkpt lat="42.235100" lon="2.283681">
        <ele>770.87885</ele>
        <time>2021-07-02T07:44:15Z</time>
      </trkpt>
      <trkpt lat="42.235100" lon="2.283681">
        <ele>770.69019</ele>
        <time>2021-07-02T07:44:16Z</time>
      </trkpt>
      <trkpt lat="42.235100" lon="2.283681">
        <ele>769.35333</ele>
        <time>2021-07-02T07:44:17Z</time>
      </trkpt>
      <trkpt lat="42.235100" lon="2.283681">
        <ele>769.56293</ele>
        <time>2021-07-02T07:44:18Z</time>
      </trkpt>
      <trkpt lat="42.235100" lon="2.283681">
        <ele>768.81732</ele>
        <time>2021-07-02T07:44:19Z</time>
      </trkpt>
      <trkpt lat="42.235100" lon="2.283681">
        <ele>768.55695</ele>
        <time>2021-07-02T07:44:20Z</time>
      </trkpt>
      <trkpt lat="42.235100" lon="2.283681">
        <ele>769.35834</ele>
        <time>2021-07-02T07:44:21Z</time>
      </trkpt>
      <trkpt lat="42.235100" lon="2.283681">
        <ele>769.76068</ele>
        <time>2021-07-02T07:44:22Z</time>
      </trkpt>
      <trkpt lat="42.235100" lon="2.283681">
        <ele>767.17596</ele>
        <time>2021-07-02T07:44:23Z</time>
      </trkpt>
      <trkpt lat="42.235100" lon="2.283681">
        <ele>770.72968</ele>
        <time>2021-07-02T07:44:24Z</time>
      </trkpt>
      <trkpt lat="42.235100" lon="2.283681">
        <ele>767.60052</ele>
        <time>2021-07-02T07:44:25Z</time>
      </trkpt>
      <trkpt lat="42.235100" lon="2.283681">
        <ele>767.52472</ele>
        <time>2021-07-02T07:44:26Z</time>
      </trkpt>
      <trkpt lat="42.235100" lon="2.283681">
        <ele>770.70593</ele>
        <time>2021-07-02T07:44:27Z</time>
      </trkpt>
      <trkpt lat="42.235100" lon="2.283681">
        <ele>767.99396</ele>
        <time>2021-07-02T07:44:28Z</time>
      </trkpt>
      <trkpt lat="42.235100" lon="2.283681">
        <ele>768.38788</ele>
        <time>2021-07-02T07:44:29Z</time>
      </trkpt>
      <trkpt lat="42.235100" lon="2.283681">
        <ele>766.89056</ele>
        <time>2021-07-02T07:44:30Z</time>
      </trkpt>
      <trkpt lat="42.235100" lon="2.283681">
        <ele>768.13446</ele>
        <time>2021-07-02T07:44:31Z</time>
      </trkpt>
      <trkpt lat="42.235100" lon="2.283681">
        <ele>769.01410</ele>
        <time>2021-07-02T07:44:32Z</time>
      </trkpt>
      <trkpt lat="42.235100" lon="2.283681">
        <ele>770.30170</ele>
        <time>2021-07-02T07:44:33Z</time>
      </trkpt>
      <trkpt lat="42.235100" lon="2.283681">
        <ele>771.21967</ele>
        <time>2021-07-02T07:44:34Z</time>
      </trkpt>
      <trkpt lat="42.235100" lon="2.283681">
        <ele>772.16425</ele>
        <time>2021-07-02T07:44:35Z</time>
      </trkpt>
      <trkpt lat="42.235100" lon="2.283681">
        <ele>772.06964</ele>
        <time>2021-07-02T07:44:36Z</time>
      </trkpt>
      <trkpt lat="42.235100" lon="2.283681">
        <ele>771.32892</ele>
        <time>2021-07-02T07:44:37Z</time>
      </trkpt>
      <trkpt lat="42.235100" lon="2.283681">
        <ele>770.48663</ele>
        <time>2021-07-02T07:44:38Z</time>
      </trkpt>
      <trkpt lat="42.235100" lon="2.283681">
        <ele>769.92377</ele>
        <time>2021-07-02T07:44:39Z</time>
      </trkpt>
      <trkpt lat="42.235100" lon="2.283681">
        <ele>770.54755</ele>
        <time>2021-07-02T07:44:40Z</time>
      </trkpt>
      <trkpt lat="42.235100" lon="2.283681">
        <ele>770.19672</ele>
        <time>2021-07-02T07:44:41Z</time>
      </trkpt>
      <trkpt lat="42.235100" lon="2.283681">
        <ele>769.68939</ele>
        <time>2021-07-02T07:44:42Z</time>
      </trkpt>
      <trkpt lat="42.235100" lon="2.283681">
        <ele>770.70264</ele>
        <time>2021-07-02T07:44:43Z</time>
      </trkpt>
      <trkpt lat="42.235100" lon="2.283681">
        <ele>770.72534</ele>
        <time>2021-07-02T07:44:44Z</time>
      </trkpt>
      <trkpt lat="42.235100" lon="2.283681">
        <ele>770.70996</ele>
        <time>2021-07-02T07:44:45Z</time>
      </trkpt>
      <trkpt lat="42.235100" lon="2.283681">
        <ele>770.74261</ele>
        <time>2021-07-02T07:44:46Z</time>
      </trkpt>
      <trkpt lat="42.235100" lon="2.283681">
        <ele>770.67694</ele>
        <time>2021-07-02T07:44:47Z</time>
      </trkpt>
      <trkpt lat="42.235100" lon="2.283681">
        <ele>770.74097</ele>
        <time>2021-07-02T07:44:48Z</time>
      </trkpt>
      <trkpt lat="42.235100" lon="2.283681">
        <ele>770.72571</ele>
        <time>2021-07-02T07:44:49Z</time>
      </trkpt>
      <trkpt lat="42.235100" lon="2.283681">
        <ele>770.72095</ele>
        <time>2021-07-02T07:44:50Z</time>
      </trkpt>
      <trkpt lat="42.235100" lon="2.283681">
        <ele>770.68866</ele>
        <time>2021-07-02T07:44:51Z</time>
      </trkpt>
      <trkpt lat="42.235100" lon="2.283681">
        <ele>770.73822</ele>
        <time>2021-07-02T07:44:52Z</time>
      </trkpt>
      <trkpt lat="42.235100" lon="2.283681">
        <ele>770.68884</ele>
        <time>2021-07-02T07:44:53Z</time>
      </trkpt>
      <trkpt lat="42.235100" lon="2.283681">
        <ele>770.74133</ele>
        <time>2021-07-02T07:44:54Z</time>
      </trkpt>
      <trkpt lat="42.235100" lon="2.283681">
        <ele>770.79187</ele>
        <time>2021-07-02T07:44:55Z</time>
      </trkpt>
      <trkpt lat="42.235100" lon="2.283681">
        <ele>770.73309</ele>
        <time>2021-07-02T07:44:56Z</time>
      </trkpt>
      <trkpt lat="42.235100" lon="2.283681">
        <ele>770.81781</ele>
        <time>2021-07-02T07:44:57Z</time>
      </trkpt>
      <trkpt lat="42.235100" lon="2.283681">
        <ele>770.74847</ele>
        <time>2021-07-02T07:44:58Z</time>
      </trkpt>
      <trkpt lat="42.235100" lon="2.283681">
        <ele>770.81775</ele>
        <time>2021-07-02T07:44:59Z</time>
      </trkpt>
      <trkpt lat="42.235100" lon="2.283681">
        <ele>770.80255</ele>
        <time>2021-07-02T07:45:00Z</time>
      </trkpt>
      <trkpt lat="42.235100" lon="2.283681">
        <ele>770.84644</ele>
        <time>2021-07-02T07:45:01Z</time>
      </trkpt>
      <trkpt lat="42.235100" lon="2.283681">
        <ele>770.83417</ele>
        <time>2021-07-02T07:45:02Z</time>
      </trkpt>
      <trkpt lat="42.235100" lon="2.283681">
        <ele>771.34784</ele>
        <time>2021-07-02T07:45:03Z</time>
      </trkpt>
      <trkpt lat="42.235123" lon="2.283656">
        <ele>771.58246</ele>
        <time>2021-07-02T07:45:04Z</time>
      </trkpt>
      <trkpt lat="42.235226" lon="2.283563">
        <ele>771.68146</ele>
        <time>2021-07-02T07:45:05Z</time>
      </trkpt>
      <trkpt lat="42.235298" lon="2.283504">
        <ele>771.89825</ele>
        <time>2021-07-02T07:45:06Z</time>
      </trkpt>
      <trkpt lat="42.235344" lon="2.283465">
        <ele>772.31128</ele>
        <time>2021-07-02T07:45:07Z</time>
      </trkpt>
      <trkpt lat="42.235390" lon="2.283427">
        <ele>772.62640</ele>
        <time>2021-07-02T07:45:08Z</time>
      </trkpt>
      <trkpt lat="42.235447" lon="2.283379">
        <ele>772.93085</ele>
        <time>2021-07-02T07:45:09Z</time>
      </trkpt>
      <trkpt lat="42.235455" lon="2.283375">
        <ele>773.41956</ele>
        <time>2021-07-02T07:45:10Z</time>
      </trkpt>
      <trkpt lat="42.235577" lon="2.283326">
        <ele>774.04639</ele>
        <time>2021-07-02T07:45:11Z</time>
      </trkpt>
      <trkpt lat="42.235661" lon="2.283295">
        <ele>774.36908</ele>
        <time>2021-07-02T07:45:12Z</time>
      </trkpt>
      <trkpt lat="42.235748" lon="2.283257">
        <ele>774.70294</ele>
        <time>2021-07-02T07:45:13Z</time>
      </trkpt>
      <trkpt lat="42.235699" lon="2.282956">
        <ele>774.74915</ele>
        <time>2021-07-02T07:45:14Z</time>
      </trkpt>
      <trkpt lat="42.235676" lon="2.282847">
        <ele>775.28082</ele>
        <time>2021-07-02T07:45:15Z</time>
      </trkpt>
      <trkpt lat="42.235634" lon="2.282730">
        <ele>775.45837</ele>
        <time>2021-07-02T07:45:16Z</time>
      </trkpt>
      <trkpt lat="42.235565" lon="2.282598">
        <ele>776.19800</ele>
        <time>2021-07-02T07:45:17Z</time>
      </trkpt>
      <trkpt lat="42.235565" lon="2.282598">
        <ele>776.20764</ele>
        <time>2021-07-02T07:45:18Z</time>
      </trkpt>
      <trkpt lat="42.235390" lon="2.282376">
        <ele>776.20959</ele>
        <time>2021-07-02T07:45:19Z</time>
      </trkpt>
      <trkpt lat="42.235310" lon="2.282288">
        <ele>776.27850</ele>
        <time>2021-07-02T07:45:20Z</time>
      </trkpt>
      <trkpt lat="42.235310" lon="2.282288">
        <ele>776.23425</ele>
        <time>2021-07-02T07:45:21Z</time>
      </trkpt>
      <trkpt lat="42.235226" lon="2.282230">
        <ele>776.37842</ele>
        <time>2021-07-02T07:45:22Z</time>
      </trkpt>
      <trkpt lat="42.235149" lon="2.282197">
        <ele>776.40674</ele>
        <time>2021-07-02T07:45:23Z</time>
      </trkpt>
      <trkpt lat="42.235077" lon="2.282179">
        <ele>776.75537</ele>
        <time>2021-07-02T07:45:24Z</time>
      </trkpt>
      <trkpt lat="42.235004" lon="2.282160">
        <ele>776.89362</ele>
        <time>2021-07-02T07:45:25Z</time>
      </trkpt>
      <trkpt lat="42.234921" lon="2.282135">
        <ele>776.98456</ele>
        <time>2021-07-02T07:45:26Z</time>
      </trkpt>
      <trkpt lat="42.234844" lon="2.282086">
        <ele>777.64056</ele>
        <time>2021-07-02T07:45:27Z</time>
      </trkpt>
      <trkpt lat="42.234798" lon="2.282002">
        <ele>777.54504</ele>
        <time>2021-07-02T07:45:28Z</time>
      </trkpt>
      <trkpt lat="42.234745" lon="2.281878">
        <ele>778.38641</ele>
        <time>2021-07-02T07:45:29Z</time>
      </trkpt>
      <trkpt lat="42.234699" lon="2.281759">
        <ele>778.30719</ele>
        <time>2021-07-02T07:45:30Z</time>
      </trkpt>
      <trkpt lat="42.234669" lon="2.281628">
        <ele>778.86609</ele>
        <time>2021-07-02T07:45:31Z</time>
      </trkpt>
      <trkpt lat="42.234619" lon="2.281443">
        <ele>779.21301</ele>
        <time>2021-07-02T07:45:32Z</time>
      </trkpt>
      <trkpt lat="42.234585" lon="2.281301">
        <ele>779.23328</ele>
        <time>2021-07-02T07:45:33Z</time>
      </trkpt>
      <trkpt lat="42.234550" lon="2.281167">
        <ele>779.80939</ele>
        <time>2021-07-02T07:45:34Z</time>
      </trkpt>
      <trkpt lat="42.234520" lon="2.281018">
        <ele>779.86169</ele>
        <time>2021-07-02T07:45:35Z</time>
      </trkpt>
      <trkpt lat="42.234524" lon="2.280889">
        <ele>780.07202</ele>
        <time>2021-07-02T07:45:36Z</time>
      </trkpt>
      <trkpt lat="42.234550" lon="2.280740">
        <ele>781.05359</ele>
        <time>2021-07-02T07:45:37Z</time>
      </trkpt>
      <trkpt lat="42.234585" lon="2.280532">
        <ele>780.93842</ele>
        <time>2021-07-02T07:45:38Z</time>
      </trkpt>
      <trkpt lat="42.234619" lon="2.280326">
        <ele>782.18146</ele>
        <time>2021-07-02T07:45:39Z</time>
      </trkpt>
      <trkpt lat="42.234646" lon="2.280151">
        <ele>781.79541</ele>
        <time>2021-07-02T07:45:40Z</time>
      </trkpt>
      <trkpt lat="42.234669" lon="2.279904">
        <ele>781.95361</ele>
        <time>2021-07-02T07:45:41Z</time>
      </trkpt>
      <trkpt lat="42.234669" lon="2.279707">
        <ele>781.83740</ele>
        <time>2021-07-02T07:45:42Z</time>
      </trkpt>
      <trkpt lat="42.234650" lon="2.279505">
        <ele>781.65009</ele>
        <time>2021-07-02T07:45:43Z</time>
      </trkpt>
      <trkpt lat="42.234612" lon="2.279351">
        <ele>781.48065</ele>
        <time>2021-07-02T07:45:44Z</time>
      </trkpt>
      <trkpt lat="42.234570" lon="2.279209">
        <ele>781.53986</ele>
        <time>2021-07-02T07:45:45Z</time>
      </trkpt>
      <trkpt lat="42.234509" lon="2.279090">
        <ele>781.42279</ele>
        <time>2021-07-02T07:45:46Z</time>
      </trkpt>
      <trkpt lat="42.234409" lon="2.278949">
        <ele>781.39349</ele>
        <time>2021-07-02T07:45:47Z</time>
      </trkpt>
      <trkpt lat="42.234348" lon="2.278899">
        <ele>781.59491</ele>
        <time>2021-07-02T07:45:48Z</time>
      </trkpt>
      <trkpt lat="42.234303" lon="2.278894">
        <ele>781.87799</ele>
        <time>2021-07-02T07:45:49Z</time>
      </trkpt>
      <trkpt lat="42.234066" lon="2.278871">
        <ele>781.72845</ele>
        <time>2021-07-02T07:45:50Z</time>
      </trkpt>
      <trkpt lat="42.233875" lon="2.278852">
        <ele>781.95850</ele>
        <time>2021-07-02T07:45:51Z</time>
      </trkpt>
      <trkpt lat="42.233734" lon="2.278838">
        <ele>781.54712</ele>
        <time>2021-07-02T07:45:52Z</time>
      </trkpt>
      <trkpt lat="42.233608" lon="2.278817">
        <ele>781.67023</ele>
        <time>2021-07-02T07:45:53Z</time>
      </trkpt>
      <trkpt lat="42.233494" lon="2.278790">
        <ele>781.58813</ele>
        <time>2021-07-02T07:45:54Z</time>
      </trkpt>
      <trkpt lat="42.233356" lon="2.278754">
        <ele>781.42462</ele>
        <time>2021-07-02T07:45:55Z</time>
      </trkpt>
      <trkpt lat="42.233356" lon="2.278754">
        <ele>779.47015</ele>
        <time>2021-07-02T07:45:56Z</time>
      </trkpt>
      <trkpt lat="42.233227" lon="2.278669">
        <ele>780.04095</ele>
        <time>2021-07-02T07:45:57Z</time>
      </trkpt>
      <trkpt lat="42.233112" lon="2.278548">
        <ele>780.35126</ele>
        <time>2021-07-02T07:45:58Z</time>
      </trkpt>
      <trkpt lat="42.232990" lon="2.278370">
        <ele>780.51971</ele>
        <time>2021-07-02T07:45:59Z</time>
      </trkpt>
      <trkpt lat="42.232872" lon="2.278168">
        <ele>780.55316</ele>
        <time>2021-07-02T07:46:00Z</time>
      </trkpt>
      <trkpt lat="42.232761" lon="2.277923">
        <ele>780.53143</ele>
        <time>2021-07-02T07:46:01Z</time>
      </trkpt>
      <trkpt lat="42.232681" lon="2.277660">
        <ele>779.58954</ele>
        <time>2021-07-02T07:46:02Z</time>
      </trkpt>
      <trkpt lat="42.232628" lon="2.277427">
        <ele>780.12994</ele>
        <time>2021-07-02T07:46:03Z</time>
      </trkpt>
      <trkpt lat="42.232544" lon="2.277080">
        <ele>779.81891</ele>
        <time>2021-07-02T07:46:04Z</time>
      </trkpt>
      <trkpt lat="42.232464" lon="2.276757">
        <ele>780.46381</ele>
        <time>2021-07-02T07:46:05Z</time>
      </trkpt>
      <trkpt lat="42.232391" lon="2.276451">
        <ele>778.05743</ele>
        <time>2021-07-02T07:46:06Z</time>
      </trkpt>
      <trkpt lat="42.232307" lon="2.276128">
        <ele>778.09271</ele>
        <time>2021-07-02T07:46:07Z</time>
      </trkpt>
      <trkpt lat="42.232239" lon="2.275846">
        <ele>775.51044</ele>
        <time>2021-07-02T07:46:08Z</time>
      </trkpt>
      <trkpt lat="42.232166" lon="2.275546">
        <ele>774.57684</ele>
        <time>2021-07-02T07:46:09Z</time>
      </trkpt>
      <trkpt lat="42.232086" lon="2.275247">
        <ele>774.76093</ele>
        <time>2021-07-02T07:46:10Z</time>
      </trkpt>
      <trkpt lat="42.232006" lon="2.274947">
        <ele>774.91095</ele>
        <time>2021-07-02T07:46:11Z</time>
      </trkpt>
      <trkpt lat="42.231918" lon="2.274635">
        <ele>774.75470</ele>
        <time>2021-07-02T07:46:12Z</time>
      </trkpt>
      <trkpt lat="42.231792" lon="2.274359">
        <ele>774.70770</ele>
        <time>2021-07-02T07:46:13Z</time>
      </trkpt>
      <trkpt lat="42.231628" lon="2.274095">
        <ele>774.73651</ele>
        <time>2021-07-02T07:46:14Z</time>
      </trkpt>
      <trkpt lat="42.231472" lon="2.273836">
        <ele>775.39594</ele>
        <time>2021-07-02T07:46:15Z</time>
      </trkpt>
      <trkpt lat="42.231285" lon="2.273540">
        <ele>775.25653</ele>
        <time>2021-07-02T07:46:16Z</time>
      </trkpt>
      <trkpt lat="42.231133" lon="2.273258">
        <ele>774.34137</ele>
        <time>2021-07-02T07:46:17Z</time>
      </trkpt>
      <trkpt lat="42.230995" lon="2.272989">
        <ele>772.91119</ele>
        <time>2021-07-02T07:46:18Z</time>
      </trkpt>
      <trkpt lat="42.230850" lon="2.272704">
        <ele>773.15228</ele>
        <time>2021-07-02T07:46:19Z</time>
      </trkpt>
      <trkpt lat="42.230694" lon="2.272393">
        <ele>772.86639</ele>
        <time>2021-07-02T07:46:20Z</time>
      </trkpt>
      <trkpt lat="42.230549" lon="2.272109">
        <ele>770.23505</ele>
        <time>2021-07-02T07:46:21Z</time>
      </trkpt>
      <trkpt lat="42.230396" lon="2.271811">
        <ele>768.52728</ele>
        <time>2021-07-02T07:46:22Z</time>
      </trkpt>
      <trkpt lat="42.230247" lon="2.271514">
        <ele>768.68402</ele>
        <time>2021-07-02T07:46:23Z</time>
      </trkpt>
      <trkpt lat="42.230114" lon="2.271247">
        <ele>768.06586</ele>
        <time>2021-07-02T07:46:24Z</time>
      </trkpt>
      <trkpt lat="42.229988" lon="2.270995">
        <ele>768.36005</ele>
        <time>2021-07-02T07:46:25Z</time>
      </trkpt>
      <trkpt lat="42.229988" lon="2.270995">
        <ele>768.48212</ele>
        <time>2021-07-02T07:46:26Z</time>
      </trkpt>
      <trkpt lat="42.229858" lon="2.270737">
        <ele>769.28302</ele>
        <time>2021-07-02T07:46:27Z</time>
      </trkpt>
      <trkpt lat="42.229729" lon="2.270480">
        <ele>769.37274</ele>
        <time>2021-07-02T07:46:28Z</time>
      </trkpt>
      <trkpt lat="42.229603" lon="2.270226">
        <ele>769.91913</ele>
        <time>2021-07-02T07:46:29Z</time>
      </trkpt>
      <trkpt lat="42.229477" lon="2.269978">
        <ele>766.61969</ele>
        <time>2021-07-02T07:46:30Z</time>
      </trkpt>
      <trkpt lat="42.229351" lon="2.269728">
        <ele>764.78168</ele>
        <time>2021-07-02T07:46:31Z</time>
      </trkpt>
      <trkpt lat="42.229229" lon="2.269487">
        <ele>763.97211</ele>
        <time>2021-07-02T07:46:32Z</time>
      </trkpt>
      <trkpt lat="42.229118" lon="2.269271">
        <ele>763.89325</ele>
        <time>2021-07-02T07:46:33Z</time>
      </trkpt>
      <trkpt lat="42.229008" lon="2.269042">
        <ele>763.03802</ele>
        <time>2021-07-02T07:46:34Z</time>
      </trkpt>
      <trkpt lat="42.228886" lon="2.268797">
        <ele>761.88190</ele>
        <time>2021-07-02T07:46:35Z</time>
      </trkpt>
      <trkpt lat="42.228771" lon="2.268570">
        <ele>761.21991</ele>
        <time>2021-07-02T07:46:36Z</time>
      </trkpt>
      <trkpt lat="42.228657" lon="2.268338">
        <ele>761.22406</ele>
        <time>2021-07-02T07:46:37Z</time>
      </trkpt>
      <trkpt lat="42.228550" lon="2.268074">
        <ele>761.20245</ele>
        <time>2021-07-02T07:46:38Z</time>
      </trkpt>
      <trkpt lat="42.228489" lon="2.267793">
        <ele>760.67389</ele>
        <time>2021-07-02T07:46:39Z</time>
      </trkpt>
      <trkpt lat="42.228455" lon="2.267520">
        <ele>761.19830</ele>
        <time>2021-07-02T07:46:40Z</time>
      </trkpt>
      <trkpt lat="42.228424" lon="2.267236">
        <ele>761.38910</ele>
        <time>2021-07-02T07:46:41Z</time>
      </trkpt>
      <trkpt lat="42.228390" lon="2.266918">
        <ele>760.75360</ele>
        <time>2021-07-02T07:46:42Z</time>
      </trkpt>
      <trkpt lat="42.228355" lon="2.266595">
        <ele>761.90607</ele>
        <time>2021-07-02T07:46:43Z</time>
      </trkpt>
      <trkpt lat="42.228325" lon="2.266294">
        <ele>762.51178</ele>
        <time>2021-07-02T07:46:44Z</time>
      </trkpt>
      <trkpt lat="42.228294" lon="2.265987">
        <ele>763.44489</ele>
        <time>2021-07-02T07:46:45Z</time>
      </trkpt>
      <trkpt lat="42.228264" lon="2.265670">
        <ele>762.87030</ele>
        <time>2021-07-02T07:46:46Z</time>
      </trkpt>
      <trkpt lat="42.228230" lon="2.265353">
        <ele>761.95929</ele>
        <time>2021-07-02T07:46:47Z</time>
      </trkpt>
      <trkpt lat="42.228199" lon="2.265035">
        <ele>761.75018</ele>
        <time>2021-07-02T07:46:48Z</time>
      </trkpt>
      <trkpt lat="42.228165" lon="2.264712">
        <ele>761.51178</ele>
        <time>2021-07-02T07:46:49Z</time>
      </trkpt>
      <trkpt lat="42.228134" lon="2.264399">
        <ele>759.80096</ele>
        <time>2021-07-02T07:46:50Z</time>
      </trkpt>
      <trkpt lat="42.228134" lon="2.264399">
        <ele>758.39862</ele>
        <time>2021-07-02T07:46:51Z</time>
      </trkpt>
      <trkpt lat="42.228100" lon="2.264062">
        <ele>757.14227</ele>
        <time>2021-07-02T07:46:52Z</time>
      </trkpt>
      <trkpt lat="42.228069" lon="2.263753">
        <ele>754.97284</ele>
        <time>2021-07-02T07:46:53Z</time>
      </trkpt>
      <trkpt lat="42.228039" lon="2.263436">
        <ele>755.27167</ele>
        <time>2021-07-02T07:46:54Z</time>
      </trkpt>
      <trkpt lat="42.228004" lon="2.263129">
        <ele>756.39618</ele>
        <time>2021-07-02T07:46:55Z</time>
      </trkpt>
      <trkpt lat="42.227974" lon="2.262811">
        <ele>753.76740</ele>
        <time>2021-07-02T07:46:56Z</time>
      </trkpt>
      <trkpt lat="42.227943" lon="2.262488">
        <ele>752.47479</ele>
        <time>2021-07-02T07:46:57Z</time>
      </trkpt>
      <trkpt lat="42.227913" lon="2.262197">
        <ele>752.47577</ele>
        <time>2021-07-02T07:46:58Z</time>
      </trkpt>
      <trkpt lat="42.227882" lon="2.261891">
        <ele>752.95148</ele>
        <time>2021-07-02T07:46:59Z</time>
      </trkpt>
      <trkpt lat="42.227856" lon="2.261598">
        <ele>753.56268</ele>
        <time>2021-07-02T07:47:00Z</time>
      </trkpt>
      <trkpt lat="42.227821" lon="2.261268">
        <ele>754.10834</ele>
        <time>2021-07-02T07:47:01Z</time>
      </trkpt>
      <trkpt lat="42.227795" lon="2.260973">
        <ele>754.16034</ele>
        <time>2021-07-02T07:47:02Z</time>
      </trkpt>
      <trkpt lat="42.227764" lon="2.260667">
        <ele>754.29877</ele>
        <time>2021-07-02T07:47:03Z</time>
      </trkpt>
      <trkpt lat="42.227734" lon="2.260365">
        <ele>755.28143</ele>
        <time>2021-07-02T07:47:04Z</time>
      </trkpt>
      <trkpt lat="42.227722" lon="2.260233">
        <ele>755.96039</ele>
        <time>2021-07-02T07:47:05Z</time>
      </trkpt>
      <trkpt lat="42.227718" lon="2.260217">
        <ele>755.41742</ele>
        <time>2021-07-02T07:47:06Z</time>
      </trkpt>
      <trkpt lat="42.227646" lon="2.259504">
        <ele>755.33197</ele>
        <time>2021-07-02T07:47:07Z</time>
      </trkpt>
      <trkpt lat="42.227612" lon="2.259163">
        <ele>755.96857</ele>
        <time>2021-07-02T07:47:08Z</time>
      </trkpt>
      <trkpt lat="42.227573" lon="2.258860">
        <ele>755.58221</ele>
        <time>2021-07-02T07:47:09Z</time>
      </trkpt>
      <trkpt lat="42.227531" lon="2.258541">
        <ele>757.03680</ele>
        <time>2021-07-02T07:47:10Z</time>
      </trkpt>
      <trkpt lat="42.227531" lon="2.258541">
        <ele>756.45856</ele>
        <time>2021-07-02T07:47:11Z</time>
      </trkpt>
      <trkpt lat="42.227436" lon="2.258041">
        <ele>757.06854</ele>
        <time>2021-07-02T07:47:12Z</time>
      </trkpt>
      <trkpt lat="42.227436" lon="2.258041">
        <ele>756.92267</ele>
        <time>2021-07-02T07:47:13Z</time>
      </trkpt>
      <trkpt lat="42.227371" lon="2.257753">
        <ele>756.90045</ele>
        <time>2021-07-02T07:47:14Z</time>
      </trkpt>
      <trkpt lat="42.227295" lon="2.257422">
        <ele>756.63300</ele>
        <time>2021-07-02T07:47:15Z</time>
      </trkpt>
      <trkpt lat="42.227226" lon="2.257117">
        <ele>754.76898</ele>
        <time>2021-07-02T07:47:16Z</time>
      </trkpt>
      <trkpt lat="42.227161" lon="2.256835">
        <ele>753.97430</ele>
        <time>2021-07-02T07:47:17Z</time>
      </trkpt>
      <trkpt lat="42.227093" lon="2.256543">
        <ele>754.72198</ele>
        <time>2021-07-02T07:47:18Z</time>
      </trkpt>
      <trkpt lat="42.227028" lon="2.256250">
        <ele>754.64886</ele>
        <time>2021-07-02T07:47:19Z</time>
      </trkpt>
      <trkpt lat="42.226959" lon="2.255959">
        <ele>754.66058</ele>
        <time>2021-07-02T07:47:20Z</time>
      </trkpt>
      <trkpt lat="42.226898" lon="2.255674">
        <ele>754.01801</ele>
        <time>2021-07-02T07:47:21Z</time>
      </trkpt>
      <trkpt lat="42.226833" lon="2.255383">
        <ele>754.07330</ele>
        <time>2021-07-02T07:47:22Z</time>
      </trkpt>
      <trkpt lat="42.226768" lon="2.255078">
        <ele>754.19745</ele>
        <time>2021-07-02T07:47:23Z</time>
      </trkpt>
      <trkpt lat="42.226700" lon="2.254775">
        <ele>753.98944</ele>
        <time>2021-07-02T07:47:24Z</time>
      </trkpt>
      <trkpt lat="42.226635" lon="2.254471">
        <ele>751.93817</ele>
        <time>2021-07-02T07:47:25Z</time>
      </trkpt>
      <trkpt lat="42.226570" lon="2.254168">
        <ele>750.96307</ele>
        <time>2021-07-02T07:47:26Z</time>
      </trkpt>
      <trkpt lat="42.226505" lon="2.253871">
        <ele>750.61566</ele>
        <time>2021-07-02T07:47:27Z</time>
      </trkpt>
      <trkpt lat="42.226437" lon="2.253570">
        <ele>749.99554</ele>
        <time>2021-07-02T07:47:28Z</time>
      </trkpt>
      <trkpt lat="42.226372" lon="2.253266">
        <ele>749.19806</ele>
        <time>2021-07-02T07:47:29Z</time>
      </trkpt>
      <trkpt lat="42.226303" lon="2.252966">
        <ele>749.40594</ele>
        <time>2021-07-02T07:47:30Z</time>
      </trkpt>
      <trkpt lat="42.226238" lon="2.252658">
        <ele>748.88055</ele>
        <time>2021-07-02T07:47:31Z</time>
      </trkpt>
      <trkpt lat="42.226173" lon="2.252355">
        <ele>748.35004</ele>
        <time>2021-07-02T07:47:32Z</time>
      </trkpt>
      <trkpt lat="42.226109" lon="2.252053">
        <ele>748.26361</ele>
        <time>2021-07-02T07:47:33Z</time>
      </trkpt>
      <trkpt lat="42.226051" lon="2.251786">
        <ele>747.94769</ele>
        <time>2021-07-02T07:47:34Z</time>
      </trkpt>
      <trkpt lat="42.225986" lon="2.251499">
        <ele>748.41742</ele>
        <time>2021-07-02T07:47:35Z</time>
      </trkpt>
      <trkpt lat="42.225933" lon="2.251257">
        <ele>748.57867</ele>
        <time>2021-07-02T07:47:36Z</time>
      </trkpt>
      <trkpt lat="42.225876" lon="2.251000">
        <ele>749.46796</ele>
        <time>2021-07-02T07:47:37Z</time>
      </trkpt>
      <trkpt lat="42.225815" lon="2.250727">
        <ele>749.47968</ele>
        <time>2021-07-02T07:47:38Z</time>
      </trkpt>
      <trkpt lat="42.225761" lon="2.250481">
        <ele>749.06464</ele>
        <time>2021-07-02T07:47:39Z</time>
      </trkpt>
      <trkpt lat="42.225716" lon="2.250246">
        <ele>749.05511</ele>
        <time>2021-07-02T07:47:40Z</time>
      </trkpt>
      <trkpt lat="42.225670" lon="2.250017">
        <ele>749.28827</ele>
        <time>2021-07-02T07:47:41Z</time>
      </trkpt>
      <trkpt lat="42.225643" lon="2.249763">
        <ele>749.43500</ele>
        <time>2021-07-02T07:47:42Z</time>
      </trkpt>
      <trkpt lat="42.225643" lon="2.249508">
        <ele>749.24432</ele>
        <time>2021-07-02T07:47:43Z</time>
      </trkpt>
      <trkpt lat="42.225658" lon="2.249257">
        <ele>749.02203</ele>
        <time>2021-07-02T07:47:44Z</time>
      </trkpt>
      <trkpt lat="42.225670" lon="2.249017">
        <ele>749.01740</ele>
        <time>2021-07-02T07:47:45Z</time>
      </trkpt>
      <trkpt lat="42.225651" lon="2.248765">
        <ele>749.09906</ele>
        <time>2021-07-02T07:47:46Z</time>
      </trkpt>
      <trkpt lat="42.225594" lon="2.248501">
        <ele>748.77020</ele>
        <time>2021-07-02T07:47:47Z</time>
      </trkpt>
      <trkpt lat="42.225506" lon="2.248271">
        <ele>748.14252</ele>
        <time>2021-07-02T07:47:48Z</time>
      </trkpt>
      <trkpt lat="42.225506" lon="2.248271">
        <ele>747.81659</ele>
        <time>2021-07-02T07:47:49Z</time>
      </trkpt>
      <trkpt lat="42.225395" lon="2.248060">
        <ele>748.71552</ele>
        <time>2021-07-02T07:47:50Z</time>
      </trkpt>
      <trkpt lat="42.225258" lon="2.247813">
        <ele>749.47992</ele>
        <time>2021-07-02T07:47:51Z</time>
      </trkpt>
      <trkpt lat="42.225105" lon="2.247510">
        <ele>748.69196</ele>
        <time>2021-07-02T07:47:52Z</time>
      </trkpt>
      <trkpt lat="42.224983" lon="2.247216">
        <ele>748.38300</ele>
        <time>2021-07-02T07:47:53Z</time>
      </trkpt>
      <trkpt lat="42.224873" lon="2.246933">
        <ele>748.68634</ele>
        <time>2021-07-02T07:47:54Z</time>
      </trkpt>
      <trkpt lat="42.224751" lon="2.246629">
        <ele>748.73578</ele>
        <time>2021-07-02T07:47:55Z</time>
      </trkpt>
      <trkpt lat="42.224628" lon="2.246320">
        <ele>748.81219</ele>
        <time>2021-07-02T07:47:56Z</time>
      </trkpt>
      <trkpt lat="42.224514" lon="2.246028">
        <ele>746.31732</ele>
        <time>2021-07-02T07:47:57Z</time>
      </trkpt>
      <trkpt lat="42.224400" lon="2.245737">
        <ele>746.06427</ele>
        <time>2021-07-02T07:47:58Z</time>
      </trkpt>
      <trkpt lat="42.224277" lon="2.245433">
        <ele>745.95123</ele>
        <time>2021-07-02T07:47:59Z</time>
      </trkpt>
      <trkpt lat="42.224152" lon="2.245118">
        <ele>745.50043</ele>
        <time>2021-07-02T07:48:00Z</time>
      </trkpt>
      <trkpt lat="42.224041" lon="2.244834">
        <ele>745.62213</ele>
        <time>2021-07-02T07:48:01Z</time>
      </trkpt>
      <trkpt lat="42.223927" lon="2.244551">
        <ele>744.94635</ele>
        <time>2021-07-02T07:48:02Z</time>
      </trkpt>
      <trkpt lat="42.223812" lon="2.244267">
        <ele>746.06122</ele>
        <time>2021-07-02T07:48:03Z</time>
      </trkpt>
      <trkpt lat="42.223694" lon="2.243979">
        <ele>746.14008</ele>
        <time>2021-07-02T07:48:04Z</time>
      </trkpt>
      <trkpt lat="42.223572" lon="2.243687">
        <ele>747.06976</ele>
        <time>2021-07-02T07:48:05Z</time>
      </trkpt>
      <trkpt lat="42.223457" lon="2.243416">
        <ele>746.98236</ele>
        <time>2021-07-02T07:48:06Z</time>
      </trkpt>
      <trkpt lat="42.223351" lon="2.243153">
        <ele>744.42694</ele>
        <time>2021-07-02T07:48:07Z</time>
      </trkpt>
      <trkpt lat="42.223225" lon="2.242876">
        <ele>745.33246</ele>
        <time>2021-07-02T07:48:08Z</time>
      </trkpt>
      <trkpt lat="42.223118" lon="2.242646">
        <ele>744.62933</ele>
        <time>2021-07-02T07:48:09Z</time>
      </trkpt>
      <trkpt lat="42.223003" lon="2.242402">
        <ele>744.04376</ele>
        <time>2021-07-02T07:48:10Z</time>
      </trkpt>
      <trkpt lat="42.222885" lon="2.242160">
        <ele>745.23456</ele>
        <time>2021-07-02T07:48:11Z</time>
      </trkpt>
      <trkpt lat="42.222759" lon="2.241905">
        <ele>744.99066</ele>
        <time>2021-07-02T07:48:12Z</time>
      </trkpt>
      <trkpt lat="42.222637" lon="2.241660">
        <ele>741.33563</ele>
        <time>2021-07-02T07:48:13Z</time>
      </trkpt>
      <trkpt lat="42.222511" lon="2.241429">
        <ele>741.19208</ele>
        <time>2021-07-02T07:48:14Z</time>
      </trkpt>
      <trkpt lat="42.222366" lon="2.241202">
        <ele>740.17059</ele>
        <time>2021-07-02T07:48:15Z</time>
      </trkpt>
      <trkpt lat="42.222218" lon="2.240995">
        <ele>739.48138</ele>
        <time>2021-07-02T07:48:16Z</time>
      </trkpt>
      <trkpt lat="42.222057" lon="2.240804">
        <ele>739.17157</ele>
        <time>2021-07-02T07:48:17Z</time>
      </trkpt>
      <trkpt lat="42.221878" lon="2.240608">
        <ele>737.90240</ele>
        <time>2021-07-02T07:48:18Z</time>
      </trkpt>
      <trkpt lat="42.221710" lon="2.240429">
        <ele>735.83453</ele>
        <time>2021-07-02T07:48:19Z</time>
      </trkpt>
      <trkpt lat="42.221573" lon="2.240278">
        <ele>734.59772</ele>
        <time>2021-07-02T07:48:20Z</time>
      </trkpt>
      <trkpt lat="42.221428" lon="2.240103">
        <ele>734.59100</ele>
        <time>2021-07-02T07:48:21Z</time>
      </trkpt>
      <trkpt lat="42.221310" lon="2.239919">
        <ele>734.51105</ele>
        <time>2021-07-02T07:48:22Z</time>
      </trkpt>
      <trkpt lat="42.221237" lon="2.239739">
        <ele>733.65314</ele>
        <time>2021-07-02T07:48:23Z</time>
      </trkpt>
      <trkpt lat="42.221237" lon="2.239739">
        <ele>733.16205</ele>
        <time>2021-07-02T07:48:24Z</time>
      </trkpt>
      <trkpt lat="42.221210" lon="2.239563">
        <ele>732.64850</ele>
        <time>2021-07-02T07:48:25Z</time>
      </trkpt>
      <trkpt lat="42.221207" lon="2.239383">
        <ele>732.60675</ele>
        <time>2021-07-02T07:48:26Z</time>
      </trkpt>
      <trkpt lat="42.221230" lon="2.239185">
        <ele>732.06183</ele>
        <time>2021-07-02T07:48:27Z</time>
      </trkpt>
      <trkpt lat="42.221272" lon="2.238948">
        <ele>731.40692</ele>
        <time>2021-07-02T07:48:28Z</time>
      </trkpt>
      <trkpt lat="42.221352" lon="2.238645">
        <ele>731.17291</ele>
        <time>2021-07-02T07:48:29Z</time>
      </trkpt>
      <trkpt lat="42.221420" lon="2.238416">
        <ele>731.06708</ele>
        <time>2021-07-02T07:48:30Z</time>
      </trkpt>
      <trkpt lat="42.221493" lon="2.238217">
        <ele>730.82220</ele>
        <time>2021-07-02T07:48:31Z</time>
      </trkpt>
      <trkpt lat="42.221565" lon="2.238009">
        <ele>731.11981</ele>
        <time>2021-07-02T07:48:32Z</time>
      </trkpt>
      <trkpt lat="42.221603" lon="2.237817">
        <ele>731.99042</ele>
        <time>2021-07-02T07:48:33Z</time>
      </trkpt>
      <trkpt lat="42.221619" lon="2.237605">
        <ele>731.17743</ele>
        <time>2021-07-02T07:48:34Z</time>
      </trkpt>
      <trkpt lat="42.221600" lon="2.237367">
        <ele>731.12299</ele>
        <time>2021-07-02T07:48:35Z</time>
      </trkpt>
      <trkpt lat="42.221573" lon="2.237007">
        <ele>731.40546</ele>
        <time>2021-07-02T07:48:36Z</time>
      </trkpt>
      <trkpt lat="42.221554" lon="2.236774">
        <ele>731.97675</ele>
        <time>2021-07-02T07:48:37Z</time>
      </trkpt>
      <trkpt lat="42.221535" lon="2.236569">
        <ele>731.01593</ele>
        <time>2021-07-02T07:48:38Z</time>
      </trkpt>
      <trkpt lat="42.221516" lon="2.236360">
        <ele>731.27521</ele>
        <time>2021-07-02T07:48:39Z</time>
      </trkpt>
      <trkpt lat="42.221485" lon="2.236083">
        <ele>731.50482</ele>
        <time>2021-07-02T07:48:40Z</time>
      </trkpt>
      <trkpt lat="42.221455" lon="2.235832">
        <ele>731.68207</ele>
        <time>2021-07-02T07:48:41Z</time>
      </trkpt>
      <trkpt lat="42.221413" lon="2.235642">
        <ele>732.11737</ele>
        <time>2021-07-02T07:48:42Z</time>
      </trkpt>
      <trkpt lat="42.221352" lon="2.235439">
        <ele>731.61786</ele>
        <time>2021-07-02T07:48:43Z</time>
      </trkpt>
      <trkpt lat="42.221291" lon="2.235261">
        <ele>731.31854</ele>
        <time>2021-07-02T07:48:44Z</time>
      </trkpt>
      <trkpt lat="42.221230" lon="2.235091">
        <ele>732.24017</ele>
        <time>2021-07-02T07:48:45Z</time>
      </trkpt>
      <trkpt lat="42.221172" lon="2.234927">
        <ele>732.60126</ele>
        <time>2021-07-02T07:48:46Z</time>
      </trkpt>
      <trkpt lat="42.221130" lon="2.234788">
        <ele>734.02533</ele>
        <time>2021-07-02T07:48:47Z</time>
      </trkpt>
      <trkpt lat="42.221104" lon="2.234618">
        <ele>733.51385</ele>
        <time>2021-07-02T07:48:48Z</time>
      </trkpt>
      <trkpt lat="42.221104" lon="2.234618">
        <ele>734.00104</ele>
        <time>2021-07-02T07:48:49Z</time>
      </trkpt>
      <trkpt lat="42.221092" lon="2.234475">
        <ele>735.04559</ele>
        <time>2021-07-02T07:48:50Z</time>
      </trkpt>
      <trkpt lat="42.221058" lon="2.234371">
        <ele>734.85724</ele>
        <time>2021-07-02T07:48:51Z</time>
      </trkpt>
      <trkpt lat="42.221012" lon="2.234314">
        <ele>734.01459</ele>
        <time>2021-07-02T07:48:52Z</time>
      </trkpt>
      <trkpt lat="42.221012" lon="2.234312">
        <ele>733.83978</ele>
        <time>2021-07-02T07:48:53Z</time>
      </trkpt>
      <trkpt lat="42.221012" lon="2.234312">
        <ele>734.25824</ele>
        <time>2021-07-02T07:48:54Z</time>
      </trkpt>
      <trkpt lat="42.220875" lon="2.234261">
        <ele>727.37238</ele>
        <time>2021-07-02T07:48:55Z</time>
      </trkpt>
      <trkpt lat="42.220661" lon="2.234232">
        <ele>728.62946</ele>
        <time>2021-07-02T07:48:56Z</time>
      </trkpt>
      <trkpt lat="42.220367" lon="2.234113">
        <ele>728.83856</ele>
        <time>2021-07-02T07:48:57Z</time>
      </trkpt>
      <trkpt lat="42.220219" lon="2.233972">
        <ele>728.07599</ele>
        <time>2021-07-02T07:48:58Z</time>
      </trkpt>
      <trkpt lat="42.220219" lon="2.233972">
        <ele>726.08246</ele>
        <time>2021-07-02T07:48:59Z</time>
      </trkpt>
      <trkpt lat="42.219963" lon="2.233624">
        <ele>724.82574</ele>
        <time>2021-07-02T07:49:00Z</time>
      </trkpt>
      <trkpt lat="42.219887" lon="2.233377">
        <ele>725.58527</ele>
        <time>2021-07-02T07:49:01Z</time>
      </trkpt>
      <trkpt lat="42.219868" lon="2.233126">
        <ele>726.46259</ele>
        <time>2021-07-02T07:49:02Z</time>
      </trkpt>
      <trkpt lat="42.219872" lon="2.232885">
        <ele>726.69403</ele>
        <time>2021-07-02T07:49:03Z</time>
      </trkpt>
      <trkpt lat="42.219872" lon="2.232644">
        <ele>727.50824</ele>
        <time>2021-07-02T07:49:04Z</time>
      </trkpt>
      <trkpt lat="42.219868" lon="2.232260">
        <ele>727.50824</ele>
        <time>2021-07-02T07:49:05Z</time>
      </trkpt>
      <trkpt lat="42.219864" lon="2.232133">
        <ele>727.88605</ele>
        <time>2021-07-02T07:49:06Z</time>
      </trkpt>
      <trkpt lat="42.219849" lon="2.231852">
        <ele>728.44098</ele>
        <time>2021-07-02T07:49:07Z</time>
      </trkpt>
      <trkpt lat="42.219849" lon="2.231852">
        <ele>729.01373</ele>
        <time>2021-07-02T07:49:08Z</time>
      </trkpt>
      <trkpt lat="42.219814" lon="2.231334">
        <ele>730.43427</ele>
        <time>2021-07-02T07:49:09Z</time>
      </trkpt>
      <trkpt lat="42.219799" lon="2.231046">
        <ele>731.52191</ele>
        <time>2021-07-02T07:49:10Z</time>
      </trkpt>
      <trkpt lat="42.219776" lon="2.230726">
        <ele>729.43158</ele>
        <time>2021-07-02T07:49:11Z</time>
      </trkpt>
      <trkpt lat="42.219757" lon="2.230390">
        <ele>725.56464</ele>
        <time>2021-07-02T07:49:12Z</time>
      </trkpt>
      <trkpt lat="42.219738" lon="2.230053">
        <ele>725.56342</ele>
        <time>2021-07-02T07:49:13Z</time>
      </trkpt>
      <trkpt lat="42.219715" lon="2.229713">
        <ele>725.22528</ele>
        <time>2021-07-02T07:49:14Z</time>
      </trkpt>
      <trkpt lat="42.219696" lon="2.229387">
        <ele>725.66571</ele>
        <time>2021-07-02T07:49:15Z</time>
      </trkpt>
      <trkpt lat="42.219673" lon="2.229036">
        <ele>726.62164</ele>
        <time>2021-07-02T07:49:16Z</time>
      </trkpt>
      <trkpt lat="42.219654" lon="2.228679">
        <ele>726.77423</ele>
        <time>2021-07-02T07:49:17Z</time>
      </trkpt>
      <trkpt lat="42.219631" lon="2.228327">
        <ele>726.97626</ele>
        <time>2021-07-02T07:49:18Z</time>
      </trkpt>
      <trkpt lat="42.219612" lon="2.227993">
        <ele>727.30389</ele>
        <time>2021-07-02T07:49:19Z</time>
      </trkpt>
      <trkpt lat="42.219589" lon="2.227643">
        <ele>727.16156</ele>
        <time>2021-07-02T07:49:20Z</time>
      </trkpt>
      <trkpt lat="42.219566" lon="2.227283">
        <ele>727.66425</ele>
        <time>2021-07-02T07:49:21Z</time>
      </trkpt>
      <trkpt lat="42.219547" lon="2.226931">
        <ele>727.95453</ele>
        <time>2021-07-02T07:49:22Z</time>
      </trkpt>
      <trkpt lat="42.219524" lon="2.226554">
        <ele>728.51227</ele>
        <time>2021-07-02T07:49:23Z</time>
      </trkpt>
      <trkpt lat="42.219501" lon="2.226215">
        <ele>728.73456</ele>
        <time>2021-07-02T07:49:24Z</time>
      </trkpt>
      <trkpt lat="42.219486" lon="2.225858">
        <ele>728.43646</ele>
        <time>2021-07-02T07:49:25Z</time>
      </trkpt>
      <trkpt lat="42.219467" lon="2.225482">
        <ele>727.71124</ele>
        <time>2021-07-02T07:49:26Z</time>
      </trkpt>
      <trkpt lat="42.219452" lon="2.225110">
        <ele>727.28058</ele>
        <time>2021-07-02T07:49:27Z</time>
      </trkpt>
      <trkpt lat="42.219452" lon="2.224742">
        <ele>727.57391</ele>
        <time>2021-07-02T07:49:28Z</time>
      </trkpt>
      <trkpt lat="42.219452" lon="2.224374">
        <ele>726.95331</ele>
        <time>2021-07-02T07:49:29Z</time>
      </trkpt>
      <trkpt lat="42.219452" lon="2.223991">
        <ele>727.72955</ele>
        <time>2021-07-02T07:49:30Z</time>
      </trkpt>
      <trkpt lat="42.219452" lon="2.223609">
        <ele>727.70624</ele>
        <time>2021-07-02T07:49:31Z</time>
      </trkpt>
      <trkpt lat="42.219452" lon="2.223247">
        <ele>728.04803</ele>
        <time>2021-07-02T07:49:32Z</time>
      </trkpt>
      <trkpt lat="42.219452" lon="2.222896">
        <ele>727.63239</ele>
        <time>2021-07-02T07:49:33Z</time>
      </trkpt>
      <trkpt lat="42.219452" lon="2.222539">
        <ele>726.88568</ele>
        <time>2021-07-02T07:49:34Z</time>
      </trkpt>
      <trkpt lat="42.219452" lon="2.222204">
        <ele>725.83295</ele>
        <time>2021-07-02T07:49:35Z</time>
      </trkpt>
      <trkpt lat="42.219452" lon="2.221850">
        <ele>724.35809</ele>
        <time>2021-07-02T07:49:36Z</time>
      </trkpt>
      <trkpt lat="42.219452" lon="2.221512">
        <ele>723.75751</ele>
        <time>2021-07-02T07:49:37Z</time>
      </trkpt>
      <trkpt lat="42.219452" lon="2.221159">
        <ele>722.27606</ele>
        <time>2021-07-02T07:49:38Z</time>
      </trkpt>
      <trkpt lat="42.219452" lon="2.220818">
        <ele>720.76044</ele>
        <time>2021-07-02T07:49:39Z</time>
      </trkpt>
      <trkpt lat="42.219452" lon="2.220818">
        <ele>719.84589</ele>
        <time>2021-07-02T07:49:40Z</time>
      </trkpt>
      <trkpt lat="42.219460" lon="2.220470">
        <ele>717.90912</ele>
        <time>2021-07-02T07:49:41Z</time>
      </trkpt>
      <trkpt lat="42.219463" lon="2.220111">
        <ele>717.69427</ele>
        <time>2021-07-02T07:49:42Z</time>
      </trkpt>
      <trkpt lat="42.219471" lon="2.219750">
        <ele>716.29535</ele>
        <time>2021-07-02T07:49:43Z</time>
      </trkpt>
      <trkpt lat="42.219479" lon="2.219404">
        <ele>715.57416</ele>
        <time>2021-07-02T07:49:44Z</time>
      </trkpt>
      <trkpt lat="42.219482" lon="2.219060">
        <ele>715.44989</ele>
        <time>2021-07-02T07:49:45Z</time>
      </trkpt>
      <trkpt lat="42.219486" lon="2.218713">
        <ele>713.94562</ele>
        <time>2021-07-02T07:49:46Z</time>
      </trkpt>
      <trkpt lat="42.219494" lon="2.218400">
        <ele>713.68732</ele>
        <time>2021-07-02T07:49:47Z</time>
      </trkpt>
      <trkpt lat="42.219498" lon="2.218087">
        <ele>713.04108</ele>
        <time>2021-07-02T07:49:48Z</time>
      </trkpt>
      <trkpt lat="42.219498" lon="2.217778">
        <ele>713.43793</ele>
        <time>2021-07-02T07:49:49Z</time>
      </trkpt>
      <trkpt lat="42.219501" lon="2.217446">
        <ele>714.30121</ele>
        <time>2021-07-02T07:49:50Z</time>
      </trkpt>
      <trkpt lat="42.219505" lon="2.217144">
        <ele>713.48541</ele>
        <time>2021-07-02T07:49:51Z</time>
      </trkpt>
      <trkpt lat="42.219509" lon="2.216864">
        <ele>713.05463</ele>
        <time>2021-07-02T07:49:52Z</time>
      </trkpt>
      <trkpt lat="42.219513" lon="2.216582">
        <ele>713.01288</ele>
        <time>2021-07-02T07:49:53Z</time>
      </trkpt>
      <trkpt lat="42.219517" lon="2.216316">
        <ele>714.46600</ele>
        <time>2021-07-02T07:49:54Z</time>
      </trkpt>
      <trkpt lat="42.219513" lon="2.216042">
        <ele>714.56464</ele>
        <time>2021-07-02T07:49:55Z</time>
      </trkpt>
      <trkpt lat="42.219505" lon="2.215770">
        <ele>714.31244</ele>
        <time>2021-07-02T07:49:56Z</time>
      </trkpt>
      <trkpt lat="42.219460" lon="2.215489">
        <ele>713.84735</ele>
        <time>2021-07-02T07:49:57Z</time>
      </trkpt>
      <trkpt lat="42.219368" lon="2.215192">
        <ele>713.24725</ele>
        <time>2021-07-02T07:49:58Z</time>
      </trkpt>
      <trkpt lat="42.219276" lon="2.214908">
        <ele>713.22040</ele>
        <time>2021-07-02T07:49:59Z</time>
      </trkpt>
      <trkpt lat="42.219181" lon="2.214605">
        <ele>712.93109</ele>
        <time>2021-07-02T07:50:00Z</time>
      </trkpt>
      <trkpt lat="42.219090" lon="2.214330">
        <ele>712.33185</ele>
        <time>2021-07-02T07:50:01Z</time>
      </trkpt>
      <trkpt lat="42.218994" lon="2.214033">
        <ele>712.82343</ele>
        <time>2021-07-02T07:50:02Z</time>
      </trkpt>
      <trkpt lat="42.218903" lon="2.213748">
        <ele>712.28925</ele>
        <time>2021-07-02T07:50:03Z</time>
      </trkpt>
      <trkpt lat="42.218819" lon="2.213493">
        <ele>711.47797</ele>
        <time>2021-07-02T07:50:04Z</time>
      </trkpt>
      <trkpt lat="42.218727" lon="2.213209">
        <ele>711.14496</ele>
        <time>2021-07-02T07:50:05Z</time>
      </trkpt>
      <trkpt lat="42.218643" lon="2.212949">
        <ele>710.34174</ele>
        <time>2021-07-02T07:50:06Z</time>
      </trkpt>
      <trkpt lat="42.218548" lon="2.212656">
        <ele>710.56952</ele>
        <time>2021-07-02T07:50:07Z</time>
      </trkpt>
      <trkpt lat="42.218464" lon="2.212392">
        <ele>711.51093</ele>
        <time>2021-07-02T07:50:08Z</time>
      </trkpt>
      <trkpt lat="42.218380" lon="2.212136">
        <ele>711.45892</ele>
        <time>2021-07-02T07:50:09Z</time>
      </trkpt>
      <trkpt lat="42.218296" lon="2.211876">
        <ele>709.95184</ele>
        <time>2021-07-02T07:50:10Z</time>
      </trkpt>
      <trkpt lat="42.218212" lon="2.211617">
        <ele>710.24139</ele>
        <time>2021-07-02T07:50:11Z</time>
      </trkpt>
      <trkpt lat="42.218128" lon="2.211351">
        <ele>709.99506</ele>
        <time>2021-07-02T07:50:12Z</time>
      </trkpt>
      <trkpt lat="42.218048" lon="2.211100">
        <ele>710.09320</ele>
        <time>2021-07-02T07:50:13Z</time>
      </trkpt>
      <trkpt lat="42.217968" lon="2.210847">
        <ele>710.40631</ele>
        <time>2021-07-02T07:50:14Z</time>
      </trkpt>
      <trkpt lat="42.217968" lon="2.210847">
        <ele>710.30292</ele>
        <time>2021-07-02T07:50:15Z</time>
      </trkpt>
      <trkpt lat="42.217888" lon="2.210585">
        <ele>710.02521</ele>
        <time>2021-07-02T07:50:16Z</time>
      </trkpt>
      <trkpt lat="42.217804" lon="2.210321">
        <ele>710.54388</ele>
        <time>2021-07-02T07:50:17Z</time>
      </trkpt>
      <trkpt lat="42.217720" lon="2.210059">
        <ele>710.97479</ele>
        <time>2021-07-02T07:50:18Z</time>
      </trkpt>
      <trkpt lat="42.217632" lon="2.209780">
        <ele>711.65741</ele>
        <time>2021-07-02T07:50:19Z</time>
      </trkpt>
      <trkpt lat="42.217545" lon="2.209511">
        <ele>711.61469</ele>
        <time>2021-07-02T07:50:20Z</time>
      </trkpt>
      <trkpt lat="42.217461" lon="2.209242">
        <ele>711.39020</ele>
        <time>2021-07-02T07:50:21Z</time>
      </trkpt>
      <trkpt lat="42.217377" lon="2.208980">
        <ele>711.51044</ele>
        <time>2021-07-02T07:50:22Z</time>
      </trkpt>
      <trkpt lat="42.217297" lon="2.208724">
        <ele>711.37030</ele>
        <time>2021-07-02T07:50:23Z</time>
      </trkpt>
      <trkpt lat="42.217213" lon="2.208483">
        <ele>711.16913</ele>
        <time>2021-07-02T07:50:24Z</time>
      </trkpt>
      <trkpt lat="42.217129" lon="2.208242">
        <ele>711.05829</ele>
        <time>2021-07-02T07:50:25Z</time>
      </trkpt>
      <trkpt lat="42.217045" lon="2.208005">
        <ele>711.73163</ele>
        <time>2021-07-02T07:50:26Z</time>
      </trkpt>
      <trkpt lat="42.216965" lon="2.207782">
        <ele>711.80975</ele>
        <time>2021-07-02T07:50:27Z</time>
      </trkpt>
      <trkpt lat="42.216892" lon="2.207571">
        <ele>709.93634</ele>
        <time>2021-07-02T07:50:28Z</time>
      </trkpt>
      <trkpt lat="42.216820" lon="2.207368">
        <ele>710.48932</ele>
        <time>2021-07-02T07:50:29Z</time>
      </trkpt>
      <trkpt lat="42.216751" lon="2.207173">
        <ele>710.89960</ele>
        <time>2021-07-02T07:50:30Z</time>
      </trkpt>
      <trkpt lat="42.216694" lon="2.207001">
        <ele>711.35272</ele>
        <time>2021-07-02T07:50:31Z</time>
      </trkpt>
      <trkpt lat="42.216629" lon="2.206822">
        <ele>711.15082</ele>
        <time>2021-07-02T07:50:32Z</time>
      </trkpt>
      <trkpt lat="42.216583" lon="2.206685">
        <ele>711.39777</ele>
        <time>2021-07-02T07:50:33Z</time>
      </trkpt>
      <trkpt lat="42.216530" lon="2.206532">
        <ele>711.46417</ele>
        <time>2021-07-02T07:50:34Z</time>
      </trkpt>
      <trkpt lat="42.216484" lon="2.206408">
        <ele>711.76703</ele>
        <time>2021-07-02T07:50:35Z</time>
      </trkpt>
      <trkpt lat="42.216446" lon="2.206296">
        <ele>710.50165</ele>
        <time>2021-07-02T07:50:36Z</time>
      </trkpt>
      <trkpt lat="42.216461" lon="2.206180">
        <ele>709.82599</ele>
        <time>2021-07-02T07:50:37Z</time>
      </trkpt>
      <trkpt lat="42.216515" lon="2.206049">
        <ele>711.75165</ele>
        <time>2021-07-02T07:50:38Z</time>
      </trkpt>
      <trkpt lat="42.216488" lon="2.205836">
        <ele>709.47845</ele>
        <time>2021-07-02T07:50:39Z</time>
      </trkpt>
      <trkpt lat="42.216408" lon="2.205750">
        <ele>709.24774</ele>
        <time>2021-07-02T07:50:40Z</time>
      </trkpt>
      <trkpt lat="42.216400" lon="2.205744">
        <ele>707.32953</ele>
        <time>2021-07-02T07:50:41Z</time>
      </trkpt>
      <trkpt lat="42.216351" lon="2.205728">
        <ele>707.68951</ele>
        <time>2021-07-02T07:50:42Z</time>
      </trkpt>
      <trkpt lat="42.215996" lon="2.205087">
        <ele>707.68622</ele>
        <time>2021-07-02T07:50:43Z</time>
      </trkpt>
      <trkpt lat="42.215919" lon="2.204805">
        <ele>707.81122</ele>
        <time>2021-07-02T07:50:44Z</time>
      </trkpt>
      <trkpt lat="42.215843" lon="2.204472">
        <ele>708.36395</ele>
        <time>2021-07-02T07:50:45Z</time>
      </trkpt>
      <trkpt lat="42.215778" lon="2.204188">
        <ele>709.29584</ele>
        <time>2021-07-02T07:50:46Z</time>
      </trkpt>
      <trkpt lat="42.215778" lon="2.204188">
        <ele>707.67084</ele>
        <time>2021-07-02T07:50:47Z</time>
      </trkpt>
      <trkpt lat="42.215778" lon="2.204188">
        <ele>707.63202</ele>
        <time>2021-07-02T07:50:48Z</time>
      </trkpt>
      <trkpt lat="42.215633" lon="2.203617">
        <ele>706.68585</ele>
        <time>2021-07-02T07:50:49Z</time>
      </trkpt>
      <trkpt lat="42.215569" lon="2.203384">
        <ele>705.95575</ele>
        <time>2021-07-02T07:50:50Z</time>
      </trkpt>
      <trkpt lat="42.215511" lon="2.203169">
        <ele>705.40253</ele>
        <time>2021-07-02T07:50:51Z</time>
      </trkpt>
      <trkpt lat="42.215458" lon="2.202971">
        <ele>705.37469</ele>
        <time>2021-07-02T07:50:52Z</time>
      </trkpt>
      <trkpt lat="42.215393" lon="2.202752">
        <ele>705.64325</ele>
        <time>2021-07-02T07:50:53Z</time>
      </trkpt>
      <trkpt lat="42.215294" lon="2.202568">
        <ele>705.33392</ele>
        <time>2021-07-02T07:50:54Z</time>
      </trkpt>
      <trkpt lat="42.215206" lon="2.202399">
        <ele>705.08478</ele>
        <time>2021-07-02T07:50:55Z</time>
      </trkpt>
      <trkpt lat="42.215126" lon="2.202231">
        <ele>705.74579</ele>
        <time>2021-07-02T07:50:56Z</time>
      </trkpt>
      <trkpt lat="42.215080" lon="2.202061">
        <ele>706.11823</ele>
        <time>2021-07-02T07:50:57Z</time>
      </trkpt>
      <trkpt lat="42.214989" lon="2.201915">
        <ele>705.86957</ele>
        <time>2021-07-02T07:50:58Z</time>
      </trkpt>
      <trkpt lat="42.214874" lon="2.201880">
        <ele>706.30829</ele>
        <time>2021-07-02T07:50:59Z</time>
      </trkpt>
      <trkpt lat="42.214748" lon="2.201876">
        <ele>707.21088</ele>
        <time>2021-07-02T07:51:00Z</time>
      </trkpt>
      <trkpt lat="42.214489" lon="2.201885">
        <ele>709.74188</ele>
        <time>2021-07-02T07:51:01Z</time>
      </trkpt>
      <trkpt lat="42.214363" lon="2.201889">
        <ele>709.18817</ele>
        <time>2021-07-02T07:51:02Z</time>
      </trkpt>
      <trkpt lat="42.214233" lon="2.201884">
        <ele>708.56610</ele>
        <time>2021-07-02T07:51:03Z</time>
      </trkpt>
      <trkpt lat="42.214108" lon="2.201862">
        <ele>708.06049</ele>
        <time>2021-07-02T07:51:04Z</time>
      </trkpt>
      <trkpt lat="42.213943" lon="2.201795">
        <ele>708.48846</ele>
        <time>2021-07-02T07:51:05Z</time>
      </trkpt>
      <trkpt lat="42.213802" lon="2.201717">
        <ele>708.25568</ele>
        <time>2021-07-02T07:51:06Z</time>
      </trkpt>
      <trkpt lat="42.213642" lon="2.201628">
        <ele>707.44843</ele>
        <time>2021-07-02T07:51:07Z</time>
      </trkpt>
      <trkpt lat="42.213478" lon="2.201526">
        <ele>706.99945</ele>
        <time>2021-07-02T07:51:08Z</time>
      </trkpt>
      <trkpt lat="42.213337" lon="2.201435">
        <ele>706.26971</ele>
        <time>2021-07-02T07:51:09Z</time>
      </trkpt>
      <trkpt lat="42.213154" lon="2.201313">
        <ele>705.05560</ele>
        <time>2021-07-02T07:51:10Z</time>
      </trkpt>
      <trkpt lat="42.213001" lon="2.201214">
        <ele>704.43134</ele>
        <time>2021-07-02T07:51:11Z</time>
      </trkpt>
      <trkpt lat="42.213001" lon="2.201214">
        <ele>706.32050</ele>
        <time>2021-07-02T07:51:12Z</time>
      </trkpt>
      <trkpt lat="42.212860" lon="2.201121">
        <ele>705.23883</ele>
        <time>2021-07-02T07:51:13Z</time>
      </trkpt>
      <trkpt lat="42.212715" lon="2.201032">
        <ele>705.68207</ele>
        <time>2021-07-02T07:51:14Z</time>
      </trkpt>
      <trkpt lat="42.212566" lon="2.200982">
        <ele>705.56415</ele>
        <time>2021-07-02T07:51:15Z</time>
      </trkpt>
      <trkpt lat="42.212406" lon="2.200952">
        <ele>705.68475</ele>
        <time>2021-07-02T07:51:16Z</time>
      </trkpt>
      <trkpt lat="42.212254" lon="2.200984">
        <ele>704.68475</ele>
        <time>2021-07-02T07:51:17Z</time>
      </trkpt>
      <trkpt lat="42.212116" lon="2.201048">
        <ele>704.79584</ele>
        <time>2021-07-02T07:51:18Z</time>
      </trkpt>
      <trkpt lat="42.211967" lon="2.201116">
        <ele>703.73456</ele>
        <time>2021-07-02T07:51:19Z</time>
      </trkpt>
      <trkpt lat="42.211823" lon="2.201189">
        <ele>704.12030</ele>
        <time>2021-07-02T07:51:20Z</time>
      </trkpt>
      <trkpt lat="42.211685" lon="2.201261">
        <ele>703.67889</ele>
        <time>2021-07-02T07:51:21Z</time>
      </trkpt>
      <trkpt lat="42.211548" lon="2.201333">
        <ele>703.46222</ele>
        <time>2021-07-02T07:51:22Z</time>
      </trkpt>
      <trkpt lat="42.211491" lon="2.201363">
        <ele>704.09344</ele>
        <time>2021-07-02T07:51:23Z</time>
      </trkpt>
      <trkpt lat="42.211491" lon="2.201363">
        <ele>703.16034</ele>
        <time>2021-07-02T07:51:24Z</time>
      </trkpt>
      <trkpt lat="42.211231" lon="2.201411">
        <ele>703.06671</ele>
        <time>2021-07-02T07:51:25Z</time>
      </trkpt>
      <trkpt lat="42.211063" lon="2.201404">
        <ele>703.32733</ele>
        <time>2021-07-02T07:51:26Z</time>
      </trkpt>
      <trkpt lat="42.210876" lon="2.201352">
        <ele>703.41815</ele>
        <time>2021-07-02T07:51:27Z</time>
      </trkpt>
      <trkpt lat="42.210728" lon="2.201283">
        <ele>702.97455</ele>
        <time>2021-07-02T07:51:28Z</time>
      </trkpt>
      <trkpt lat="42.210728" lon="2.201283">
        <ele>702.22589</ele>
        <time>2021-07-02T07:51:29Z</time>
      </trkpt>
      <trkpt lat="42.210457" lon="2.201133">
        <ele>702.62677</ele>
        <time>2021-07-02T07:51:30Z</time>
      </trkpt>
      <trkpt lat="42.210358" lon="2.201077">
        <ele>702.03729</ele>
        <time>2021-07-02T07:51:31Z</time>
      </trkpt>
      <trkpt lat="42.210217" lon="2.200998">
        <ele>701.76459</ele>
        <time>2021-07-02T07:51:32Z</time>
      </trkpt>
      <trkpt lat="42.210106" lon="2.200938">
        <ele>702.09491</ele>
        <time>2021-07-02T07:51:33Z</time>
      </trkpt>
      <trkpt lat="42.210003" lon="2.200871">
        <ele>701.14618</ele>
        <time>2021-07-02T07:51:34Z</time>
      </trkpt>
      <trkpt lat="42.210003" lon="2.200871">
        <ele>700.80243</ele>
        <time>2021-07-02T07:51:35Z</time>
      </trkpt>
      <trkpt lat="42.209911" lon="2.200809">
        <ele>698.82721</ele>
        <time>2021-07-02T07:51:36Z</time>
      </trkpt>
      <trkpt lat="42.209812" lon="2.200745">
        <ele>698.13153</ele>
        <time>2021-07-02T07:51:37Z</time>
      </trkpt>
      <trkpt lat="42.209717" lon="2.200680">
        <ele>698.21283</ele>
        <time>2021-07-02T07:51:38Z</time>
      </trkpt>
      <trkpt lat="42.209614" lon="2.200607">
        <ele>698.10699</ele>
        <time>2021-07-02T07:51:39Z</time>
      </trkpt>
      <trkpt lat="42.209522" lon="2.200524">
        <ele>694.25177</ele>
        <time>2021-07-02T07:51:40Z</time>
      </trkpt>
      <trkpt lat="42.209419" lon="2.200428">
        <ele>693.65619</ele>
        <time>2021-07-02T07:51:41Z</time>
      </trkpt>
      <trkpt lat="42.209335" lon="2.200339">
        <ele>693.82538</ele>
        <time>2021-07-02T07:51:42Z</time>
      </trkpt>
      <trkpt lat="42.209244" lon="2.200237">
        <ele>694.64569</ele>
        <time>2021-07-02T07:51:43Z</time>
      </trkpt>
      <trkpt lat="42.209148" lon="2.200134">
        <ele>694.45782</ele>
        <time>2021-07-02T07:51:44Z</time>
      </trkpt>
      <trkpt lat="42.209053" lon="2.200031">
        <ele>694.75836</ele>
        <time>2021-07-02T07:51:45Z</time>
      </trkpt>
      <trkpt lat="42.208954" lon="2.199926">
        <ele>695.65668</ele>
        <time>2021-07-02T07:51:46Z</time>
      </trkpt>
      <trkpt lat="42.208881" lon="2.199832">
        <ele>696.16962</ele>
        <time>2021-07-02T07:51:47Z</time>
      </trkpt>
      <trkpt lat="42.208809" lon="2.199737">
        <ele>696.57013</ele>
        <time>2021-07-02T07:51:48Z</time>
      </trkpt>
      <trkpt lat="42.208740" lon="2.199628">
        <ele>696.55890</ele>
        <time>2021-07-02T07:51:49Z</time>
      </trkpt>
      <trkpt lat="42.208679" lon="2.199519">
        <ele>697.31024</ele>
        <time>2021-07-02T07:51:50Z</time>
      </trkpt>
      <trkpt lat="42.208637" lon="2.199433">
        <ele>697.07343</ele>
        <time>2021-07-02T07:51:51Z</time>
      </trkpt>
      <trkpt lat="42.208607" lon="2.199360">
        <ele>697.85870</ele>
        <time>2021-07-02T07:51:52Z</time>
      </trkpt>
      <trkpt lat="42.208557" lon="2.199247">
        <ele>698.36017</ele>
        <time>2021-07-02T07:51:53Z</time>
      </trkpt>
      <trkpt lat="42.208508" lon="2.199138">
        <ele>698.77997</ele>
        <time>2021-07-02T07:51:54Z</time>
      </trkpt>
      <trkpt lat="42.208454" lon="2.199021">
        <ele>698.12152</ele>
        <time>2021-07-02T07:51:55Z</time>
      </trkpt>
      <trkpt lat="42.208393" lon="2.198887">
        <ele>696.38373</ele>
        <time>2021-07-02T07:51:56Z</time>
      </trkpt>
      <trkpt lat="42.208344" lon="2.198765">
        <ele>696.16510</ele>
        <time>2021-07-02T07:51:57Z</time>
      </trkpt>
      <trkpt lat="42.208290" lon="2.198636">
        <ele>696.11053</ele>
        <time>2021-07-02T07:51:58Z</time>
      </trkpt>
      <trkpt lat="42.208237" lon="2.198528">
        <ele>695.51044</ele>
        <time>2021-07-02T07:51:59Z</time>
      </trkpt>
      <trkpt lat="42.208187" lon="2.198424">
        <ele>695.51593</ele>
        <time>2021-07-02T07:52:00Z</time>
      </trkpt>
      <trkpt lat="42.208134" lon="2.198314">
        <ele>695.90692</ele>
        <time>2021-07-02T07:52:01Z</time>
      </trkpt>
      <trkpt lat="42.208076" lon="2.198197">
        <ele>696.30109</ele>
        <time>2021-07-02T07:52:02Z</time>
      </trkpt>
      <trkpt lat="42.208015" lon="2.198091">
        <ele>696.39117</ele>
        <time>2021-07-02T07:52:03Z</time>
      </trkpt>
      <trkpt lat="42.207954" lon="2.197999">
        <ele>694.94684</ele>
        <time>2021-07-02T07:52:04Z</time>
      </trkpt>
      <trkpt lat="42.207890" lon="2.197899">
        <ele>694.53619</ele>
        <time>2021-07-02T07:52:05Z</time>
      </trkpt>
      <trkpt lat="42.207825" lon="2.197800">
        <ele>695.56818</ele>
        <time>2021-07-02T07:52:06Z</time>
      </trkpt>
      <trkpt lat="42.207752" lon="2.197689">
        <ele>695.51227</ele>
        <time>2021-07-02T07:52:07Z</time>
      </trkpt>
      <trkpt lat="42.207684" lon="2.197586">
        <ele>695.80377</ele>
        <time>2021-07-02T07:52:08Z</time>
      </trkpt>
      <trkpt lat="42.207603" lon="2.197468">
        <ele>693.93109</ele>
        <time>2021-07-02T07:52:09Z</time>
      </trkpt>
      <trkpt lat="42.207523" lon="2.197354">
        <ele>693.94537</ele>
        <time>2021-07-02T07:52:10Z</time>
      </trkpt>
      <trkpt lat="42.207451" lon="2.197246">
        <ele>693.84589</ele>
        <time>2021-07-02T07:52:11Z</time>
      </trkpt>
      <trkpt lat="42.207378" lon="2.197139">
        <ele>694.12701</ele>
        <time>2021-07-02T07:52:12Z</time>
      </trkpt>
      <trkpt lat="42.207302" lon="2.197027">
        <ele>691.65143</ele>
        <time>2021-07-02T07:52:13Z</time>
      </trkpt>
      <trkpt lat="42.207218" lon="2.196930">
        <ele>691.91071</ele>
        <time>2021-07-02T07:52:14Z</time>
      </trkpt>
      <trkpt lat="42.207142" lon="2.196821">
        <ele>691.68610</ele>
        <time>2021-07-02T07:52:15Z</time>
      </trkpt>
      <trkpt lat="42.207142" lon="2.196821">
        <ele>691.43488</ele>
        <time>2021-07-02T07:52:16Z</time>
      </trkpt>
      <trkpt lat="42.207069" lon="2.196719">
        <ele>688.32135</ele>
        <time>2021-07-02T07:52:17Z</time>
      </trkpt>
      <trkpt lat="42.207008" lon="2.196635">
        <ele>688.16241</ele>
        <time>2021-07-02T07:52:18Z</time>
      </trkpt>
      <trkpt lat="42.206940" lon="2.196539">
        <ele>688.62994</ele>
        <time>2021-07-02T07:52:19Z</time>
      </trkpt>
      <trkpt lat="42.206867" lon="2.196438">
        <ele>687.92181</ele>
        <time>2021-07-02T07:52:20Z</time>
      </trkpt>
      <trkpt lat="42.206795" lon="2.196335">
        <ele>688.48932</ele>
        <time>2021-07-02T07:52:21Z</time>
      </trkpt>
      <trkpt lat="42.206715" lon="2.196224">
        <ele>689.05902</ele>
        <time>2021-07-02T07:52:22Z</time>
      </trkpt>
      <trkpt lat="42.206638" lon="2.196119">
        <ele>690.11713</ele>
        <time>2021-07-02T07:52:23Z</time>
      </trkpt>
      <trkpt lat="42.206566" lon="2.196019">
        <ele>690.55438</ele>
        <time>2021-07-02T07:52:24Z</time>
      </trkpt>
      <trkpt lat="42.206497" lon="2.195925">
        <ele>690.53632</ele>
        <time>2021-07-02T07:52:25Z</time>
      </trkpt>
      <trkpt lat="42.206436" lon="2.195840">
        <ele>690.86774</ele>
        <time>2021-07-02T07:52:26Z</time>
      </trkpt>
      <trkpt lat="42.206379" lon="2.195757">
        <ele>690.66290</ele>
        <time>2021-07-02T07:52:27Z</time>
      </trkpt>
      <trkpt lat="42.206318" lon="2.195673">
        <ele>691.16168</ele>
        <time>2021-07-02T07:52:28Z</time>
      </trkpt>
      <trkpt lat="42.206261" lon="2.195591">
        <ele>690.88275</ele>
        <time>2021-07-02T07:52:29Z</time>
      </trkpt>
      <trkpt lat="42.206200" lon="2.195503">
        <ele>690.95563</ele>
        <time>2021-07-02T07:52:30Z</time>
      </trkpt>
      <trkpt lat="42.206142" lon="2.195423">
        <ele>691.18024</ele>
        <time>2021-07-02T07:52:31Z</time>
      </trkpt>
      <trkpt lat="42.206078" lon="2.195333">
        <ele>690.67780</ele>
        <time>2021-07-02T07:52:32Z</time>
      </trkpt>
      <trkpt lat="42.206009" lon="2.195234">
        <ele>691.22870</ele>
        <time>2021-07-02T07:52:33Z</time>
      </trkpt>
      <trkpt lat="42.205936" lon="2.195135">
        <ele>692.01617</ele>
        <time>2021-07-02T07:52:34Z</time>
      </trkpt>
      <trkpt lat="42.205872" lon="2.195050">
        <ele>692.34918</ele>
        <time>2021-07-02T07:52:35Z</time>
      </trkpt>
      <trkpt lat="42.205833" lon="2.194997">
        <ele>691.99054</ele>
        <time>2021-07-02T07:52:36Z</time>
      </trkpt>
      <trkpt lat="42.205833" lon="2.194996">
        <ele>692.08490</ele>
        <time>2021-07-02T07:52:37Z</time>
      </trkpt>
      <trkpt lat="42.205833" lon="2.194996">
        <ele>692.54523</ele>
        <time>2021-07-02T07:52:38Z</time>
      </trkpt>
      <trkpt lat="42.205822" lon="2.194981">
        <ele>693.15192</ele>
        <time>2021-07-02T07:52:39Z</time>
      </trkpt>
      <trkpt lat="42.205547" lon="2.194613">
        <ele>692.98651</ele>
        <time>2021-07-02T07:52:40Z</time>
      </trkpt>
      <trkpt lat="42.205490" lon="2.194533">
        <ele>693.16815</ele>
        <time>2021-07-02T07:52:41Z</time>
      </trkpt>
      <trkpt lat="42.205460" lon="2.194489">
        <ele>692.57843</ele>
        <time>2021-07-02T07:52:42Z</time>
      </trkpt>
      <trkpt lat="42.205376" lon="2.194374">
        <ele>692.62762</ele>
        <time>2021-07-02T07:52:43Z</time>
      </trkpt>
      <trkpt lat="42.205326" lon="2.194309">
        <ele>692.85114</ele>
        <time>2021-07-02T07:52:44Z</time>
      </trkpt>
      <trkpt lat="42.205326" lon="2.194309">
        <ele>694.32574</ele>
        <time>2021-07-02T07:52:45Z</time>
      </trkpt>
      <trkpt lat="42.205208" lon="2.194152">
        <ele>694.91473</ele>
        <time>2021-07-02T07:52:46Z</time>
      </trkpt>
      <trkpt lat="42.205135" lon="2.194064">
        <ele>695.14337</ele>
        <time>2021-07-02T07:52:47Z</time>
      </trkpt>
      <trkpt lat="42.205135" lon="2.194064">
        <ele>694.20612</ele>
        <time>2021-07-02T07:52:48Z</time>
      </trkpt>
      <trkpt lat="42.205040" lon="2.194005">
        <ele>693.46124</ele>
        <time>2021-07-02T07:52:49Z</time>
      </trkpt>
      <trkpt lat="42.204948" lon="2.193964">
        <ele>692.79803</ele>
        <time>2021-07-02T07:52:50Z</time>
      </trkpt>
      <trkpt lat="42.204849" lon="2.193922">
        <ele>693.48663</ele>
        <time>2021-07-02T07:52:51Z</time>
      </trkpt>
      <trkpt lat="42.204746" lon="2.193879">
        <ele>694.51263</ele>
        <time>2021-07-02T07:52:52Z</time>
      </trkpt>
      <trkpt lat="42.204639" lon="2.193830">
        <ele>693.92316</ele>
        <time>2021-07-02T07:52:53Z</time>
      </trkpt>
      <trkpt lat="42.204556" lon="2.193765">
        <ele>693.99091</ele>
        <time>2021-07-02T07:52:54Z</time>
      </trkpt>
      <trkpt lat="42.204468" lon="2.193671">
        <ele>694.47089</ele>
        <time>2021-07-02T07:52:55Z</time>
      </trkpt>
      <trkpt lat="42.204380" lon="2.193577">
        <ele>694.16705</ele>
        <time>2021-07-02T07:52:56Z</time>
      </trkpt>
      <trkpt lat="42.204311" lon="2.193477">
        <ele>694.32513</ele>
        <time>2021-07-02T07:52:57Z</time>
      </trkpt>
      <trkpt lat="42.204247" lon="2.193384">
        <ele>694.02008</ele>
        <time>2021-07-02T07:52:58Z</time>
      </trkpt>
      <trkpt lat="42.204189" lon="2.193299">
        <ele>693.96539</ele>
        <time>2021-07-02T07:52:59Z</time>
      </trkpt>
      <trkpt lat="42.204147" lon="2.193240">
        <ele>689.68805</ele>
        <time>2021-07-02T07:53:00Z</time>
      </trkpt>
      <trkpt lat="42.204147" lon="2.193240">
        <ele>689.75482</ele>
        <time>2021-07-02T07:53:01Z</time>
      </trkpt>
      <trkpt lat="42.204147" lon="2.193240">
        <ele>689.65820</ele>
        <time>2021-07-02T07:53:02Z</time>
      </trkpt>
      <trkpt lat="42.204140" lon="2.193224">
        <ele>689.63062</ele>
        <time>2021-07-02T07:53:03Z</time>
      </trkpt>
      <trkpt lat="42.203907" lon="2.192862">
        <ele>689.56055</ele>
        <time>2021-07-02T07:53:04Z</time>
      </trkpt>
      <trkpt lat="42.203850" lon="2.192772">
        <ele>689.58881</ele>
        <time>2021-07-02T07:53:05Z</time>
      </trkpt>
      <trkpt lat="42.203793" lon="2.192701">
        <ele>689.51483</ele>
        <time>2021-07-02T07:53:06Z</time>
      </trkpt>
      <trkpt lat="42.203735" lon="2.192627">
        <ele>689.68677</ele>
        <time>2021-07-02T07:53:07Z</time>
      </trkpt>
      <trkpt lat="42.203682" lon="2.192562">
        <ele>689.73059</ele>
        <time>2021-07-02T07:53:08Z</time>
      </trkpt>
      <trkpt lat="42.203682" lon="2.192562">
        <ele>689.87256</ele>
        <time>2021-07-02T07:53:09Z</time>
      </trkpt>
      <trkpt lat="42.203568" lon="2.192459">
        <ele>689.88745</ele>
        <time>2021-07-02T07:53:10Z</time>
      </trkpt>
      <trkpt lat="42.203491" lon="2.192408">
        <ele>689.96039</ele>
        <time>2021-07-02T07:53:11Z</time>
      </trkpt>
      <trkpt lat="42.203388" lon="2.192360">
        <ele>689.77625</ele>
        <time>2021-07-02T07:53:12Z</time>
      </trkpt>
      <trkpt lat="42.203297" lon="2.192329">
        <ele>689.66565</ele>
        <time>2021-07-02T07:53:13Z</time>
      </trkpt>
      <trkpt lat="42.203194" lon="2.192292">
        <ele>689.76605</ele>
        <time>2021-07-02T07:53:14Z</time>
      </trkpt>
      <trkpt lat="42.203094" lon="2.192257">
        <ele>689.44098</ele>
        <time>2021-07-02T07:53:15Z</time>
      </trkpt>
      <trkpt lat="42.202991" lon="2.192221">
        <ele>688.65802</ele>
        <time>2021-07-02T07:53:16Z</time>
      </trkpt>
      <trkpt lat="42.202938" lon="2.192201">
        <ele>688.65735</ele>
        <time>2021-07-02T07:53:17Z</time>
      </trkpt>
      <trkpt lat="42.202873" lon="2.192179">
        <ele>688.52582</ele>
        <time>2021-07-02T07:53:18Z</time>
      </trkpt>
      <trkpt lat="42.202805" lon="2.192154">
        <ele>688.52557</ele>
        <time>2021-07-02T07:53:19Z</time>
      </trkpt>
      <trkpt lat="42.202728" lon="2.192120">
        <ele>688.44464</ele>
        <time>2021-07-02T07:53:20Z</time>
      </trkpt>
      <trkpt lat="42.202637" lon="2.192069">
        <ele>688.55328</ele>
        <time>2021-07-02T07:53:21Z</time>
      </trkpt>
      <trkpt lat="42.202557" lon="2.192023">
        <ele>688.33832</ele>
        <time>2021-07-02T07:53:22Z</time>
      </trkpt>
      <trkpt lat="42.202484" lon="2.191981">
        <ele>688.32336</ele>
        <time>2021-07-02T07:53:23Z</time>
      </trkpt>
      <trkpt lat="42.202400" lon="2.191933">
        <ele>688.43860</ele>
        <time>2021-07-02T07:53:24Z</time>
      </trkpt>
      <trkpt lat="42.202316" lon="2.191883">
        <ele>688.25354</ele>
        <time>2021-07-02T07:53:25Z</time>
      </trkpt>
      <trkpt lat="42.202229" lon="2.191836">
        <ele>688.12305</ele>
        <time>2021-07-02T07:53:26Z</time>
      </trkpt>
      <trkpt lat="42.202137" lon="2.191790">
        <ele>688.19751</ele>
        <time>2021-07-02T07:53:27Z</time>
      </trkpt>
      <trkpt lat="42.202038" lon="2.191740">
        <ele>688.13495</ele>
        <time>2021-07-02T07:53:28Z</time>
      </trkpt>
      <trkpt lat="42.202038" lon="2.191740">
        <ele>688.01202</ele>
        <time>2021-07-02T07:53:29Z</time>
      </trkpt>
      <trkpt lat="42.201939" lon="2.191688">
        <ele>687.82391</ele>
        <time>2021-07-02T07:53:30Z</time>
      </trkpt>
      <trkpt lat="42.201847" lon="2.191641">
        <ele>688.04559</ele>
        <time>2021-07-02T07:53:31Z</time>
      </trkpt>
      <trkpt lat="42.201771" lon="2.191595">
        <ele>688.04565</ele>
        <time>2021-07-02T07:53:32Z</time>
      </trkpt>
      <trkpt lat="42.201687" lon="2.191548">
        <ele>688.31006</ele>
        <time>2021-07-02T07:53:33Z</time>
      </trkpt>
      <trkpt lat="42.201599" lon="2.191494">
        <ele>688.24951</ele>
        <time>2021-07-02T07:53:34Z</time>
      </trkpt>
      <trkpt lat="42.201511" lon="2.191440">
        <ele>688.38501</ele>
        <time>2021-07-02T07:53:35Z</time>
      </trkpt>
      <trkpt lat="42.201416" lon="2.191382">
        <ele>688.25439</ele>
        <time>2021-07-02T07:53:36Z</time>
      </trkpt>
      <trkpt lat="42.201324" lon="2.191326">
        <ele>688.17712</ele>
        <time>2021-07-02T07:53:37Z</time>
      </trkpt>
      <trkpt lat="42.201252" lon="2.191278">
        <ele>688.20441</ele>
        <time>2021-07-02T07:53:38Z</time>
      </trkpt>
      <trkpt lat="42.201176" lon="2.191223">
        <ele>688.05139</ele>
        <time>2021-07-02T07:53:39Z</time>
      </trkpt>
      <trkpt lat="42.201099" lon="2.191167">
        <ele>688.08350</ele>
        <time>2021-07-02T07:53:40Z</time>
      </trkpt>
      <trkpt lat="42.201035" lon="2.191120">
        <ele>688.01172</ele>
        <time>2021-07-02T07:53:41Z</time>
      </trkpt>
      <trkpt lat="42.200958" lon="2.191065">
        <ele>687.70374</ele>
        <time>2021-07-02T07:53:42Z</time>
      </trkpt>
      <trkpt lat="42.200897" lon="2.191013">
        <ele>687.80115</ele>
        <time>2021-07-02T07:53:43Z</time>
      </trkpt>
      <trkpt lat="42.200851" lon="2.190967">
        <ele>687.27417</ele>
        <time>2021-07-02T07:53:44Z</time>
      </trkpt>
      <trkpt lat="42.200821" lon="2.190930">
        <ele>687.05463</ele>
        <time>2021-07-02T07:53:45Z</time>
      </trkpt>
      <trkpt lat="42.200775" lon="2.190879">
        <ele>686.24060</ele>
        <time>2021-07-02T07:53:46Z</time>
      </trkpt>
      <trkpt lat="42.200745" lon="2.190844">
        <ele>686.09894</ele>
        <time>2021-07-02T07:53:47Z</time>
      </trkpt>
      <trkpt lat="42.200745" lon="2.190843">
        <ele>686.03149</ele>
        <time>2021-07-02T07:53:48Z</time>
      </trkpt>
      <trkpt lat="42.200745" lon="2.190842">
        <ele>686.12628</ele>
        <time>2021-07-02T07:53:49Z</time>
      </trkpt>
      <trkpt lat="42.200729" lon="2.190825">
        <ele>686.12531</ele>
        <time>2021-07-02T07:53:50Z</time>
      </trkpt>
      <trkpt lat="42.200680" lon="2.190766">
        <ele>685.95880</ele>
        <time>2021-07-02T07:53:51Z</time>
      </trkpt>
      <trkpt lat="42.200634" lon="2.190667">
        <ele>685.97113</ele>
        <time>2021-07-02T07:53:52Z</time>
      </trkpt>
      <trkpt lat="42.200630" lon="2.190585">
        <ele>685.99115</ele>
        <time>2021-07-02T07:53:53Z</time>
      </trkpt>
      <trkpt lat="42.200642" lon="2.190526">
        <ele>686.33368</ele>
        <time>2021-07-02T07:53:54Z</time>
      </trkpt>
      <trkpt lat="42.200680" lon="2.190447">
        <ele>686.47217</ele>
        <time>2021-07-02T07:53:55Z</time>
      </trkpt>
      <trkpt lat="42.200703" lon="2.190399">
        <ele>686.58020</ele>
        <time>2021-07-02T07:53:56Z</time>
      </trkpt>
      <trkpt lat="42.200726" lon="2.190327">
        <ele>686.60675</ele>
        <time>2021-07-02T07:53:57Z</time>
      </trkpt>
      <trkpt lat="42.200752" lon="2.190254">
        <ele>686.87366</ele>
        <time>2021-07-02T07:53:58Z</time>
      </trkpt>
      <trkpt lat="42.200764" lon="2.190227">
        <ele>687.30322</ele>
        <time>2021-07-02T07:53:59Z</time>
      </trkpt>
      <trkpt lat="42.200764" lon="2.190227">
        <ele>687.31647</ele>
        <time>2021-07-02T07:54:00Z</time>
      </trkpt>
      <trkpt lat="42.200764" lon="2.190226">
        <ele>687.51166</ele>
        <time>2021-07-02T07:54:01Z</time>
      </trkpt>
      <trkpt lat="42.200764" lon="2.190225">
        <ele>687.80615</ele>
        <time>2021-07-02T07:54:02Z</time>
      </trkpt>
      <trkpt lat="42.200775" lon="2.190054">
        <ele>688.00330</ele>
        <time>2021-07-02T07:54:03Z</time>
      </trkpt>
      <trkpt lat="42.200790" lon="2.189837">
        <ele>688.11981</ele>
        <time>2021-07-02T07:54:04Z</time>
      </trkpt>
      <trkpt lat="42.200798" lon="2.189754">
        <ele>688.16235</ele>
        <time>2021-07-02T07:54:05Z</time>
      </trkpt>
      <trkpt lat="42.200802" lon="2.189678">
        <ele>688.51422</ele>
        <time>2021-07-02T07:54:06Z</time>
      </trkpt>
      <trkpt lat="42.200802" lon="2.189678">
        <ele>688.72015</ele>
        <time>2021-07-02T07:54:07Z</time>
      </trkpt>
      <trkpt lat="42.200821" lon="2.189499">
        <ele>688.82147</ele>
        <time>2021-07-02T07:54:08Z</time>
      </trkpt>
      <trkpt lat="42.200832" lon="2.189391">
        <ele>689.16162</ele>
        <time>2021-07-02T07:54:09Z</time>
      </trkpt>
      <trkpt lat="42.200844" lon="2.189288">
        <ele>689.43134</ele>
        <time>2021-07-02T07:54:10Z</time>
      </trkpt>
      <trkpt lat="42.200851" lon="2.189208">
        <ele>689.60126</ele>
        <time>2021-07-02T07:54:11Z</time>
      </trkpt>
      <trkpt lat="42.200859" lon="2.189137">
        <ele>689.78815</ele>
        <time>2021-07-02T07:54:12Z</time>
      </trkpt>
      <trkpt lat="42.200871" lon="2.189072">
        <ele>689.79211</ele>
        <time>2021-07-02T07:54:13Z</time>
      </trkpt>
      <trkpt lat="42.200871" lon="2.189072">
        <ele>689.70831</ele>
        <time>2021-07-02T07:54:14Z</time>
      </trkpt>
      <trkpt lat="42.200890" lon="2.189011">
        <ele>689.71680</ele>
        <time>2021-07-02T07:54:15Z</time>
      </trkpt>
      <trkpt lat="42.200912" lon="2.188939">
        <ele>689.65082</ele>
        <time>2021-07-02T07:54:16Z</time>
      </trkpt>
      <trkpt lat="42.200932" lon="2.188873">
        <ele>689.70477</ele>
        <time>2021-07-02T07:54:17Z</time>
      </trkpt>
      <trkpt lat="42.200951" lon="2.188809">
        <ele>689.68982</ele>
        <time>2021-07-02T07:54:18Z</time>
      </trkpt>
      <trkpt lat="42.200970" lon="2.188747">
        <ele>689.56049</ele>
        <time>2021-07-02T07:54:19Z</time>
      </trkpt>
      <trkpt lat="42.200989" lon="2.188689">
        <ele>689.60077</ele>
        <time>2021-07-02T07:54:20Z</time>
      </trkpt>
      <trkpt lat="42.201004" lon="2.188634">
        <ele>689.51642</ele>
        <time>2021-07-02T07:54:21Z</time>
      </trkpt>
      <trkpt lat="42.201023" lon="2.188577">
        <ele>689.46692</ele>
        <time>2021-07-02T07:54:22Z</time>
      </trkpt>
      <trkpt lat="42.201046" lon="2.188520">
        <ele>689.50647</ele>
        <time>2021-07-02T07:54:23Z</time>
      </trkpt>
      <trkpt lat="42.201069" lon="2.188466">
        <ele>689.48724</ele>
        <time>2021-07-02T07:54:24Z</time>
      </trkpt>
      <trkpt lat="42.201092" lon="2.188405">
        <ele>689.36987</ele>
        <time>2021-07-02T07:54:25Z</time>
      </trkpt>
      <trkpt lat="42.201115" lon="2.188333">
        <ele>689.34430</ele>
        <time>2021-07-02T07:54:26Z</time>
      </trkpt>
      <trkpt lat="42.201115" lon="2.188298">
        <ele>689.36548</ele>
        <time>2021-07-02T07:54:27Z</time>
      </trkpt>
      <trkpt lat="42.201115" lon="2.188296">
        <ele>689.36005</ele>
        <time>2021-07-02T07:54:28Z</time>
      </trkpt>
      <trkpt lat="42.201115" lon="2.188296">
        <ele>689.57330</ele>
        <time>2021-07-02T07:54:29Z</time>
      </trkpt>
      <trkpt lat="42.201115" lon="2.188296">
        <ele>689.65332</ele>
        <time>2021-07-02T07:54:30Z</time>
      </trkpt>
      <trkpt lat="42.201115" lon="2.188291">
        <ele>689.80414</ele>
        <time>2021-07-02T07:54:31Z</time>
      </trkpt>
      <trkpt lat="42.201202" lon="2.188022">
        <ele>690.13892</ele>
        <time>2021-07-02T07:54:32Z</time>
      </trkpt>
      <trkpt lat="42.201229" lon="2.187941">
        <ele>690.24323</ele>
        <time>2021-07-02T07:54:33Z</time>
      </trkpt>
      <trkpt lat="42.201248" lon="2.187888">
        <ele>690.38550</ele>
        <time>2021-07-02T07:54:34Z</time>
      </trkpt>
      <trkpt lat="42.201279" lon="2.187794">
        <ele>690.64313</ele>
        <time>2021-07-02T07:54:35Z</time>
      </trkpt>
      <trkpt lat="42.201279" lon="2.187794">
        <ele>690.75476</ele>
        <time>2021-07-02T07:54:36Z</time>
      </trkpt>
      <trkpt lat="42.201324" lon="2.187661">
        <ele>690.80524</ele>
        <time>2021-07-02T07:54:37Z</time>
      </trkpt>
      <trkpt lat="42.201363" lon="2.187546">
        <ele>690.92035</ele>
        <time>2021-07-02T07:54:38Z</time>
      </trkpt>
      <trkpt lat="42.201378" lon="2.187506">
        <ele>691.19965</ele>
        <time>2021-07-02T07:54:39Z</time>
      </trkpt>
      <trkpt lat="42.201405" lon="2.187427">
        <ele>691.32452</ele>
        <time>2021-07-02T07:54:40Z</time>
      </trkpt>
      <trkpt lat="42.201439" lon="2.187337">
        <ele>691.48157</ele>
        <time>2021-07-02T07:54:41Z</time>
      </trkpt>
      <trkpt lat="42.201458" lon="2.187290">
        <ele>691.64709</ele>
        <time>2021-07-02T07:54:42Z</time>
      </trkpt>
      <trkpt lat="42.201458" lon="2.187288">
        <ele>691.64868</ele>
        <time>2021-07-02T07:54:43Z</time>
      </trkpt>
      <trkpt lat="42.201458" lon="2.187288">
        <ele>691.76215</ele>
        <time>2021-07-02T07:54:44Z</time>
      </trkpt>
      <trkpt lat="42.201458" lon="2.187288">
        <ele>691.77948</ele>
        <time>2021-07-02T07:54:45Z</time>
      </trkpt>
      <trkpt lat="42.201527" lon="2.187034">
        <ele>691.89771</ele>
        <time>2021-07-02T07:54:46Z</time>
      </trkpt>
      <trkpt lat="42.201576" lon="2.186847">
        <ele>691.90112</ele>
        <time>2021-07-02T07:54:47Z</time>
      </trkpt>
      <trkpt lat="42.201595" lon="2.186793">
        <ele>691.91748</ele>
        <time>2021-07-02T07:54:48Z</time>
      </trkpt>
      <trkpt lat="42.201633" lon="2.186666">
        <ele>692.03839</ele>
        <time>2021-07-02T07:54:49Z</time>
      </trkpt>
      <trkpt lat="42.201660" lon="2.186574">
        <ele>692.08289</ele>
        <time>2021-07-02T07:54:50Z</time>
      </trkpt>
      <trkpt lat="42.201660" lon="2.186574">
        <ele>692.12213</ele>
        <time>2021-07-02T07:54:51Z</time>
      </trkpt>
      <trkpt lat="42.201721" lon="2.186386">
        <ele>692.18323</ele>
        <time>2021-07-02T07:54:52Z</time>
      </trkpt>
      <trkpt lat="42.201756" lon="2.186293">
        <ele>692.31671</ele>
        <time>2021-07-02T07:54:53Z</time>
      </trkpt>
      <trkpt lat="42.201786" lon="2.186200">
        <ele>692.29388</ele>
        <time>2021-07-02T07:54:54Z</time>
      </trkpt>
      <trkpt lat="42.201817" lon="2.186121">
        <ele>692.34192</ele>
        <time>2021-07-02T07:54:55Z</time>
      </trkpt>
      <trkpt lat="42.201839" lon="2.186048">
        <ele>692.64648</ele>
        <time>2021-07-02T07:54:56Z</time>
      </trkpt>
      <trkpt lat="42.201839" lon="2.186048">
        <ele>692.64392</ele>
        <time>2021-07-02T07:54:57Z</time>
      </trkpt>
      <trkpt lat="42.201870" lon="2.185965">
        <ele>692.66455</ele>
        <time>2021-07-02T07:54:58Z</time>
      </trkpt>
      <trkpt lat="42.201900" lon="2.185884">
        <ele>692.86505</ele>
        <time>2021-07-02T07:54:59Z</time>
      </trkpt>
      <trkpt lat="42.201927" lon="2.185806">
        <ele>692.88489</ele>
        <time>2021-07-02T07:55:00Z</time>
      </trkpt>
      <trkpt lat="42.201958" lon="2.185715">
        <ele>692.98596</ele>
        <time>2021-07-02T07:55:01Z</time>
      </trkpt>
      <trkpt lat="42.201977" lon="2.185671">
        <ele>693.19043</ele>
        <time>2021-07-02T07:55:02Z</time>
      </trkpt>
      <trkpt lat="42.201977" lon="2.185670">
        <ele>693.15338</ele>
        <time>2021-07-02T07:55:03Z</time>
      </trkpt>
      <trkpt lat="42.201977" lon="2.185670">
        <ele>693.26056</ele>
        <time>2021-07-02T07:55:04Z</time>
      </trkpt>
      <trkpt lat="42.202068" lon="2.185410">
        <ele>693.10339</ele>
        <time>2021-07-02T07:55:05Z</time>
      </trkpt>
      <trkpt lat="42.202141" lon="2.185211">
        <ele>693.29614</ele>
        <time>2021-07-02T07:55:06Z</time>
      </trkpt>
      <trkpt lat="42.202175" lon="2.185103">
        <ele>693.41046</ele>
        <time>2021-07-02T07:55:07Z</time>
      </trkpt>
      <trkpt lat="42.202209" lon="2.184999">
        <ele>693.39038</ele>
        <time>2021-07-02T07:55:08Z</time>
      </trkpt>
      <trkpt lat="42.202244" lon="2.184902">
        <ele>693.58612</ele>
        <time>2021-07-02T07:55:09Z</time>
      </trkpt>
      <trkpt lat="42.202244" lon="2.184902">
        <ele>693.86267</ele>
        <time>2021-07-02T07:55:10Z</time>
      </trkpt>
      <trkpt lat="42.202244" lon="2.184902">
        <ele>694.08673</ele>
        <time>2021-07-02T07:55:11Z</time>
      </trkpt>
      <trkpt lat="42.202320" lon="2.184676">
        <ele>694.24573</ele>
        <time>2021-07-02T07:55:12Z</time>
      </trkpt>
      <trkpt lat="42.202347" lon="2.184592">
        <ele>694.49713</ele>
        <time>2021-07-02T07:55:13Z</time>
      </trkpt>
      <trkpt lat="42.202377" lon="2.184504">
        <ele>694.56714</ele>
        <time>2021-07-02T07:55:14Z</time>
      </trkpt>
      <trkpt lat="42.202412" lon="2.184401">
        <ele>694.71820</ele>
        <time>2021-07-02T07:55:15Z</time>
      </trkpt>
      <trkpt lat="42.202446" lon="2.184303">
        <ele>695.10181</ele>
        <time>2021-07-02T07:55:16Z</time>
      </trkpt>
      <trkpt lat="42.202484" lon="2.184194">
        <ele>695.11566</ele>
        <time>2021-07-02T07:55:17Z</time>
      </trkpt>
      <trkpt lat="42.202522" lon="2.184091">
        <ele>695.58411</ele>
        <time>2021-07-02T07:55:18Z</time>
      </trkpt>
      <trkpt lat="42.202557" lon="2.183995">
        <ele>695.73303</ele>
        <time>2021-07-02T07:55:19Z</time>
      </trkpt>
      <trkpt lat="42.202595" lon="2.183889">
        <ele>695.91888</ele>
        <time>2021-07-02T07:55:20Z</time>
      </trkpt>
      <trkpt lat="42.202633" lon="2.183784">
        <ele>696.08948</ele>
        <time>2021-07-02T07:55:21Z</time>
      </trkpt>
      <trkpt lat="42.202671" lon="2.183678">
        <ele>696.46344</ele>
        <time>2021-07-02T07:55:22Z</time>
      </trkpt>
      <trkpt lat="42.202709" lon="2.183570">
        <ele>696.61523</ele>
        <time>2021-07-02T07:55:23Z</time>
      </trkpt>
      <trkpt lat="42.202766" lon="2.183478">
        <ele>696.88483</ele>
        <time>2021-07-02T07:55:24Z</time>
      </trkpt>
      <trkpt lat="42.202766" lon="2.183478">
        <ele>696.98981</ele>
        <time>2021-07-02T07:55:25Z</time>
      </trkpt>
      <trkpt lat="42.202820" lon="2.183394">
        <ele>697.30695</ele>
        <time>2021-07-02T07:55:26Z</time>
      </trkpt>
      <trkpt lat="42.202866" lon="2.183314">
        <ele>697.57990</ele>
        <time>2021-07-02T07:55:27Z</time>
      </trkpt>
      <trkpt lat="42.202930" lon="2.183257">
        <ele>697.68335</ele>
        <time>2021-07-02T07:55:28Z</time>
      </trkpt>
      <trkpt lat="42.202991" lon="2.183176">
        <ele>697.85193</ele>
        <time>2021-07-02T07:55:29Z</time>
      </trkpt>
      <trkpt lat="42.203049" lon="2.183091">
        <ele>697.84027</ele>
        <time>2021-07-02T07:55:30Z</time>
      </trkpt>
      <trkpt lat="42.203087" lon="2.183015">
        <ele>698.07489</ele>
        <time>2021-07-02T07:55:31Z</time>
      </trkpt>
      <trkpt lat="42.203110" lon="2.182950">
        <ele>698.16028</ele>
        <time>2021-07-02T07:55:32Z</time>
      </trkpt>
      <trkpt lat="42.203110" lon="2.182949">
        <ele>698.02521</ele>
        <time>2021-07-02T07:55:33Z</time>
      </trkpt>
      <trkpt lat="42.203110" lon="2.182948">
        <ele>698.01971</ele>
        <time>2021-07-02T07:55:34Z</time>
      </trkpt>
      <trkpt lat="42.203110" lon="2.182948">
        <ele>698.04480</ele>
        <time>2021-07-02T07:55:35Z</time>
      </trkpt>
      <trkpt lat="42.203110" lon="2.182948">
        <ele>698.13776</ele>
        <time>2021-07-02T07:55:36Z</time>
      </trkpt>
      <trkpt lat="42.203110" lon="2.182948">
        <ele>698.11884</ele>
        <time>2021-07-02T07:55:37Z</time>
      </trkpt>
      <trkpt lat="42.203205" lon="2.182753">
        <ele>698.22974</ele>
        <time>2021-07-02T07:55:38Z</time>
      </trkpt>
      <trkpt lat="42.203251" lon="2.182663">
        <ele>698.38129</ele>
        <time>2021-07-02T07:55:39Z</time>
      </trkpt>
      <trkpt lat="42.203300" lon="2.182602">
        <ele>698.53693</ele>
        <time>2021-07-02T07:55:40Z</time>
      </trkpt>
      <trkpt lat="42.203354" lon="2.182541">
        <ele>698.67535</ele>
        <time>2021-07-02T07:55:41Z</time>
      </trkpt>
      <trkpt lat="42.203426" lon="2.182465">
        <ele>699.09723</ele>
        <time>2021-07-02T07:55:42Z</time>
      </trkpt>
      <trkpt lat="42.203426" lon="2.182465">
        <ele>699.53436</ele>
        <time>2021-07-02T07:55:43Z</time>
      </trkpt>
      <trkpt lat="42.203613" lon="2.182278">
        <ele>699.84814</ele>
        <time>2021-07-02T07:55:44Z</time>
      </trkpt>
      <trkpt lat="42.203735" lon="2.182153">
        <ele>699.81744</ele>
        <time>2021-07-02T07:55:45Z</time>
      </trkpt>
      <trkpt lat="42.203831" lon="2.182030">
        <ele>700.56775</ele>
        <time>2021-07-02T07:55:46Z</time>
      </trkpt>
      <trkpt lat="42.203938" lon="2.181865">
        <ele>700.65314</ele>
        <time>2021-07-02T07:55:47Z</time>
      </trkpt>
      <trkpt lat="42.204025" lon="2.181686">
        <ele>700.85724</ele>
        <time>2021-07-02T07:55:48Z</time>
      </trkpt>
      <trkpt lat="42.204105" lon="2.181514">
        <ele>700.59619</ele>
        <time>2021-07-02T07:55:49Z</time>
      </trkpt>
      <trkpt lat="42.204105" lon="2.181514">
        <ele>700.37256</ele>
        <time>2021-07-02T07:55:50Z</time>
      </trkpt>
      <trkpt lat="42.204182" lon="2.181339">
        <ele>700.42944</ele>
        <time>2021-07-02T07:55:51Z</time>
      </trkpt>
      <trkpt lat="42.204247" lon="2.181156">
        <ele>700.42627</ele>
        <time>2021-07-02T07:55:52Z</time>
      </trkpt>
      <trkpt lat="42.204311" lon="2.180950">
        <ele>699.78088</ele>
        <time>2021-07-02T07:55:53Z</time>
      </trkpt>
      <trkpt lat="42.204350" lon="2.180725">
        <ele>700.01056</ele>
        <time>2021-07-02T07:55:54Z</time>
      </trkpt>
      <trkpt lat="42.204369" lon="2.180496">
        <ele>700.28125</ele>
        <time>2021-07-02T07:55:55Z</time>
      </trkpt>
      <trkpt lat="42.204376" lon="2.180276">
        <ele>699.76703</ele>
        <time>2021-07-02T07:55:56Z</time>
      </trkpt>
      <trkpt lat="42.204380" lon="2.180053">
        <ele>699.77692</ele>
        <time>2021-07-02T07:55:57Z</time>
      </trkpt>
      <trkpt lat="42.204384" lon="2.179822">
        <ele>699.07990</ele>
        <time>2021-07-02T07:55:58Z</time>
      </trkpt>
      <trkpt lat="42.204388" lon="2.179588">
        <ele>699.19739</ele>
        <time>2021-07-02T07:55:59Z</time>
      </trkpt>
      <trkpt lat="42.204395" lon="2.179366">
        <ele>698.44867</ele>
        <time>2021-07-02T07:56:00Z</time>
      </trkpt>
      <trkpt lat="42.204403" lon="2.179177">
        <ele>698.36102</ele>
        <time>2021-07-02T07:56:01Z</time>
      </trkpt>
      <trkpt lat="42.204411" lon="2.178987">
        <ele>697.82257</ele>
        <time>2021-07-02T07:56:02Z</time>
      </trkpt>
      <trkpt lat="42.204422" lon="2.178803">
        <ele>697.77930</ele>
        <time>2021-07-02T07:56:03Z</time>
      </trkpt>
      <trkpt lat="42.204430" lon="2.178620">
        <ele>697.47498</ele>
        <time>2021-07-02T07:56:04Z</time>
      </trkpt>
      <trkpt lat="42.204445" lon="2.178461">
        <ele>697.46118</ele>
        <time>2021-07-02T07:56:05Z</time>
      </trkpt>
      <trkpt lat="42.204460" lon="2.178285">
        <ele>698.50024</ele>
        <time>2021-07-02T07:56:06Z</time>
      </trkpt>
      <trkpt lat="42.204479" lon="2.178124">
        <ele>698.79755</ele>
        <time>2021-07-02T07:56:07Z</time>
      </trkpt>
      <trkpt lat="42.204514" lon="2.177948">
        <ele>698.53729</ele>
        <time>2021-07-02T07:56:08Z</time>
      </trkpt>
      <trkpt lat="42.204559" lon="2.177756">
        <ele>699.35291</ele>
        <time>2021-07-02T07:56:09Z</time>
      </trkpt>
      <trkpt lat="42.204628" lon="2.177541">
        <ele>699.33905</ele>
        <time>2021-07-02T07:56:10Z</time>
      </trkpt>
      <trkpt lat="42.204697" lon="2.177360">
        <ele>699.47723</ele>
        <time>2021-07-02T07:56:11Z</time>
      </trkpt>
      <trkpt lat="42.204754" lon="2.177205">
        <ele>700.04791</ele>
        <time>2021-07-02T07:56:12Z</time>
      </trkpt>
      <trkpt lat="42.204823" lon="2.177046">
        <ele>700.66223</ele>
        <time>2021-07-02T07:56:13Z</time>
      </trkpt>
      <trkpt lat="42.204906" lon="2.176857">
        <ele>700.80383</ele>
        <time>2021-07-02T07:56:14Z</time>
      </trkpt>
      <trkpt lat="42.204983" lon="2.176679">
        <ele>701.03735</ele>
        <time>2021-07-02T07:56:15Z</time>
      </trkpt>
      <trkpt lat="42.205059" lon="2.176512">
        <ele>700.95490</ele>
        <time>2021-07-02T07:56:16Z</time>
      </trkpt>
      <trkpt lat="42.205135" lon="2.176333">
        <ele>701.28748</ele>
        <time>2021-07-02T07:56:17Z</time>
      </trkpt>
      <trkpt lat="42.205212" lon="2.176161">
        <ele>701.81702</ele>
        <time>2021-07-02T07:56:18Z</time>
      </trkpt>
      <trkpt lat="42.205288" lon="2.175988">
        <ele>702.37311</ele>
        <time>2021-07-02T07:56:19Z</time>
      </trkpt>
      <trkpt lat="42.205288" lon="2.175988">
        <ele>702.62085</ele>
        <time>2021-07-02T07:56:20Z</time>
      </trkpt>
      <trkpt lat="42.205368" lon="2.175806">
        <ele>703.20148</ele>
        <time>2021-07-02T07:56:21Z</time>
      </trkpt>
      <trkpt lat="42.205456" lon="2.175609">
        <ele>703.78302</ele>
        <time>2021-07-02T07:56:22Z</time>
      </trkpt>
      <trkpt lat="42.205544" lon="2.175402">
        <ele>704.01947</ele>
        <time>2021-07-02T07:56:23Z</time>
      </trkpt>
      <trkpt lat="42.205627" lon="2.175207">
        <ele>704.40582</ele>
        <time>2021-07-02T07:56:24Z</time>
      </trkpt>
      <trkpt lat="42.205708" lon="2.175026">
        <ele>704.54449</ele>
        <time>2021-07-02T07:56:25Z</time>
      </trkpt>
      <trkpt lat="42.205784" lon="2.174851">
        <ele>705.04028</ele>
        <time>2021-07-02T07:56:26Z</time>
      </trkpt>
      <trkpt lat="42.205860" lon="2.174674">
        <ele>705.29803</ele>
        <time>2021-07-02T07:56:27Z</time>
      </trkpt>
      <trkpt lat="42.205936" lon="2.174491">
        <ele>705.26581</ele>
        <time>2021-07-02T07:56:28Z</time>
      </trkpt>
      <trkpt lat="42.206017" lon="2.174309">
        <ele>704.79529</ele>
        <time>2021-07-02T07:56:29Z</time>
      </trkpt>
      <trkpt lat="42.206081" lon="2.174158">
        <ele>704.45514</ele>
        <time>2021-07-02T07:56:30Z</time>
      </trkpt>
      <trkpt lat="42.206139" lon="2.174023">
        <ele>704.22009</ele>
        <time>2021-07-02T07:56:31Z</time>
      </trkpt>
      <trkpt lat="42.206196" lon="2.173895">
        <ele>704.33838</ele>
        <time>2021-07-02T07:56:32Z</time>
      </trkpt>
      <trkpt lat="42.206249" lon="2.173763">
        <ele>704.04242</ele>
        <time>2021-07-02T07:56:33Z</time>
      </trkpt>
      <trkpt lat="42.206306" lon="2.173634">
        <ele>703.84363</ele>
        <time>2021-07-02T07:56:34Z</time>
      </trkpt>
      <trkpt lat="42.206360" lon="2.173508">
        <ele>703.73315</ele>
        <time>2021-07-02T07:56:35Z</time>
      </trkpt>
      <trkpt lat="42.206417" lon="2.173378">
        <ele>703.45508</ele>
        <time>2021-07-02T07:56:36Z</time>
      </trkpt>
      <trkpt lat="42.206478" lon="2.173235">
        <ele>703.52698</ele>
        <time>2021-07-02T07:56:37Z</time>
      </trkpt>
      <trkpt lat="42.206539" lon="2.173097">
        <ele>703.66656</ele>
        <time>2021-07-02T07:56:38Z</time>
      </trkpt>
      <trkpt lat="42.206600" lon="2.172955">
        <ele>703.69745</ele>
        <time>2021-07-02T07:56:39Z</time>
      </trkpt>
      <trkpt lat="42.206665" lon="2.172806">
        <ele>703.82532</ele>
        <time>2021-07-02T07:56:40Z</time>
      </trkpt>
      <trkpt lat="42.206734" lon="2.172648">
        <ele>704.09418</ele>
        <time>2021-07-02T07:56:41Z</time>
      </trkpt>
      <trkpt lat="42.206806" lon="2.172480">
        <ele>704.49811</ele>
        <time>2021-07-02T07:56:42Z</time>
      </trkpt>
      <trkpt lat="42.206882" lon="2.172317">
        <ele>704.55615</ele>
        <time>2021-07-02T07:56:43Z</time>
      </trkpt>
      <trkpt lat="42.206970" lon="2.172150">
        <ele>705.08368</ele>
        <time>2021-07-02T07:56:44Z</time>
      </trkpt>
      <trkpt lat="42.207077" lon="2.171999">
        <ele>705.53387</ele>
        <time>2021-07-02T07:56:45Z</time>
      </trkpt>
      <trkpt lat="42.207199" lon="2.171858">
        <ele>706.05499</ele>
        <time>2021-07-02T07:56:46Z</time>
      </trkpt>
      <trkpt lat="42.207333" lon="2.171726">
        <ele>707.26392</ele>
        <time>2021-07-02T07:56:47Z</time>
      </trkpt>
      <trkpt lat="42.207497" lon="2.171601">
        <ele>707.45593</ele>
        <time>2021-07-02T07:56:48Z</time>
      </trkpt>
      <trkpt lat="42.207653" lon="2.171485">
        <ele>707.81653</ele>
        <time>2021-07-02T07:56:49Z</time>
      </trkpt>
      <trkpt lat="42.207829" lon="2.171352">
        <ele>709.40802</ele>
        <time>2021-07-02T07:56:50Z</time>
      </trkpt>
      <trkpt lat="42.207993" lon="2.171228">
        <ele>710.10089</ele>
        <time>2021-07-02T07:56:51Z</time>
      </trkpt>
      <trkpt lat="42.208160" lon="2.171101">
        <ele>711.02203</ele>
        <time>2021-07-02T07:56:52Z</time>
      </trkpt>
      <trkpt lat="42.208336" lon="2.170974">
        <ele>711.36224</ele>
        <time>2021-07-02T07:56:53Z</time>
      </trkpt>
      <trkpt lat="42.208496" lon="2.170852">
        <ele>709.26996</ele>
        <time>2021-07-02T07:56:54Z</time>
      </trkpt>
      <trkpt lat="42.208649" lon="2.170739">
        <ele>709.79260</ele>
        <time>2021-07-02T07:56:55Z</time>
      </trkpt>
      <trkpt lat="42.208649" lon="2.170739">
        <ele>709.36981</ele>
        <time>2021-07-02T07:56:56Z</time>
      </trkpt>
      <trkpt lat="42.208790" lon="2.170636">
        <ele>712.52386</ele>
        <time>2021-07-02T07:56:57Z</time>
      </trkpt>
      <trkpt lat="42.208935" lon="2.170527">
        <ele>712.79059</ele>
        <time>2021-07-02T07:56:58Z</time>
      </trkpt>
      <trkpt lat="42.209126" lon="2.170385">
        <ele>713.63690</ele>
        <time>2021-07-02T07:56:59Z</time>
      </trkpt>
      <trkpt lat="42.209309" lon="2.170258">
        <ele>713.91632</ele>
        <time>2021-07-02T07:57:00Z</time>
      </trkpt>
      <trkpt lat="42.209480" lon="2.170140">
        <ele>711.83118</ele>
        <time>2021-07-02T07:57:01Z</time>
      </trkpt>
      <trkpt lat="42.209530" lon="2.170106">
        <ele>711.73035</ele>
        <time>2021-07-02T07:57:02Z</time>
      </trkpt>
      <trkpt lat="42.209530" lon="2.170106">
        <ele>712.67456</ele>
        <time>2021-07-02T07:57:03Z</time>
      </trkpt>
      <trkpt lat="42.209904" lon="2.169930">
        <ele>713.05060</ele>
        <time>2021-07-02T07:57:04Z</time>
      </trkpt>
      <trkpt lat="42.210182" lon="2.169857">
        <ele>715.00909</ele>
        <time>2021-07-02T07:57:05Z</time>
      </trkpt>
      <trkpt lat="42.210365" lon="2.169811">
        <ele>715.70538</ele>
        <time>2021-07-02T07:57:06Z</time>
      </trkpt>
      <trkpt lat="42.210541" lon="2.169768">
        <ele>715.77936</ele>
        <time>2021-07-02T07:57:07Z</time>
      </trkpt>
      <trkpt lat="42.210541" lon="2.169768">
        <ele>716.11212</ele>
        <time>2021-07-02T07:57:08Z</time>
      </trkpt>
      <trkpt lat="42.210793" lon="2.169706">
        <ele>716.75543</ele>
        <time>2021-07-02T07:57:09Z</time>
      </trkpt>
      <trkpt lat="42.210976" lon="2.169661">
        <ele>716.78912</ele>
        <time>2021-07-02T07:57:10Z</time>
      </trkpt>
      <trkpt lat="42.211140" lon="2.169621">
        <ele>717.38678</ele>
        <time>2021-07-02T07:57:11Z</time>
      </trkpt>
      <trkpt lat="42.211323" lon="2.169575">
        <ele>717.55817</ele>
        <time>2021-07-02T07:57:12Z</time>
      </trkpt>
      <trkpt lat="42.211494" lon="2.169533">
        <ele>717.83698</ele>
        <time>2021-07-02T07:57:13Z</time>
      </trkpt>
      <trkpt lat="42.211666" lon="2.169491">
        <ele>717.37299</ele>
        <time>2021-07-02T07:57:14Z</time>
      </trkpt>
      <trkpt lat="42.211849" lon="2.169445">
        <ele>717.45416</ele>
        <time>2021-07-02T07:57:15Z</time>
      </trkpt>
      <trkpt lat="42.212025" lon="2.169402">
        <ele>715.70502</ele>
        <time>2021-07-02T07:57:16Z</time>
      </trkpt>
      <trkpt lat="42.212193" lon="2.169360">
        <ele>716.15192</ele>
        <time>2021-07-02T07:57:17Z</time>
      </trkpt>
      <trkpt lat="42.212379" lon="2.169315">
        <ele>716.37384</ele>
        <time>2021-07-02T07:57:18Z</time>
      </trkpt>
      <trkpt lat="42.212566" lon="2.169271">
        <ele>717.02167</ele>
        <time>2021-07-02T07:57:19Z</time>
      </trkpt>
      <trkpt lat="42.212742" lon="2.169230">
        <ele>717.06732</ele>
        <time>2021-07-02T07:57:20Z</time>
      </trkpt>
      <trkpt lat="42.212921" lon="2.169186">
        <ele>717.47198</ele>
        <time>2021-07-02T07:57:21Z</time>
      </trkpt>
      <trkpt lat="42.213093" lon="2.169143">
        <ele>717.44049</ele>
        <time>2021-07-02T07:57:22Z</time>
      </trkpt>
      <trkpt lat="42.213268" lon="2.169100">
        <ele>717.62628</ele>
        <time>2021-07-02T07:57:23Z</time>
      </trkpt>
      <trkpt lat="42.213451" lon="2.169055">
        <ele>718.05841</ele>
        <time>2021-07-02T07:57:24Z</time>
      </trkpt>
      <trkpt lat="42.213642" lon="2.169008">
        <ele>718.06866</ele>
        <time>2021-07-02T07:57:25Z</time>
      </trkpt>
      <trkpt lat="42.213654" lon="2.169006">
        <ele>719.03705</ele>
        <time>2021-07-02T07:57:26Z</time>
      </trkpt>
      <trkpt lat="42.213696" lon="2.168996">
        <ele>719.36041</ele>
        <time>2021-07-02T07:57:27Z</time>
      </trkpt>
      <trkpt lat="42.214149" lon="2.168887">
        <ele>719.70758</ele>
        <time>2021-07-02T07:57:28Z</time>
      </trkpt>
      <trkpt lat="42.214306" lon="2.168847">
        <ele>720.32257</ele>
        <time>2021-07-02T07:57:29Z</time>
      </trkpt>
      <trkpt lat="42.214470" lon="2.168806">
        <ele>721.20966</ele>
        <time>2021-07-02T07:57:30Z</time>
      </trkpt>
      <trkpt lat="42.214664" lon="2.168760">
        <ele>721.98151</ele>
        <time>2021-07-02T07:57:31Z</time>
      </trkpt>
      <trkpt lat="42.214836" lon="2.168719">
        <ele>720.82880</ele>
        <time>2021-07-02T07:57:32Z</time>
      </trkpt>
      <trkpt lat="42.214836" lon="2.168719">
        <ele>720.81012</ele>
        <time>2021-07-02T07:57:33Z</time>
      </trkpt>
      <trkpt lat="42.215027" lon="2.168672">
        <ele>721.63470</ele>
        <time>2021-07-02T07:57:34Z</time>
      </trkpt>
      <trkpt lat="42.215199" lon="2.168636">
        <ele>722.17072</ele>
        <time>2021-07-02T07:57:35Z</time>
      </trkpt>
      <trkpt lat="42.215336" lon="2.168608">
        <ele>721.71320</ele>
        <time>2021-07-02T07:57:36Z</time>
      </trkpt>
      <trkpt lat="42.215481" lon="2.168577">
        <ele>722.05768</ele>
        <time>2021-07-02T07:57:37Z</time>
      </trkpt>
      <trkpt lat="42.215630" lon="2.168566">
        <ele>722.10431</ele>
        <time>2021-07-02T07:57:38Z</time>
      </trkpt>
      <trkpt lat="42.215797" lon="2.168567">
        <ele>722.36835</ele>
        <time>2021-07-02T07:57:39Z</time>
      </trkpt>
      <trkpt lat="42.215973" lon="2.168581">
        <ele>723.15143</ele>
        <time>2021-07-02T07:57:40Z</time>
      </trkpt>
      <trkpt lat="42.216141" lon="2.168614">
        <ele>723.58698</ele>
        <time>2021-07-02T07:57:41Z</time>
      </trkpt>
      <trkpt lat="42.216286" lon="2.168647">
        <ele>723.97052</ele>
        <time>2021-07-02T07:57:42Z</time>
      </trkpt>
      <trkpt lat="42.216442" lon="2.168696">
        <ele>724.29816</ele>
        <time>2021-07-02T07:57:43Z</time>
      </trkpt>
      <trkpt lat="42.216587" lon="2.168740">
        <ele>725.40558</ele>
        <time>2021-07-02T07:57:44Z</time>
      </trkpt>
      <trkpt lat="42.216740" lon="2.168787">
        <ele>726.11639</ele>
        <time>2021-07-02T07:57:45Z</time>
      </trkpt>
      <trkpt lat="42.216896" lon="2.168835">
        <ele>726.03497</ele>
        <time>2021-07-02T07:57:46Z</time>
      </trkpt>
      <trkpt lat="42.217045" lon="2.168881">
        <ele>727.88507</ele>
        <time>2021-07-02T07:57:47Z</time>
      </trkpt>
      <trkpt lat="42.217197" lon="2.168928">
        <ele>728.51935</ele>
        <time>2021-07-02T07:57:48Z</time>
      </trkpt>
      <trkpt lat="42.217373" lon="2.168981">
        <ele>728.48175</ele>
        <time>2021-07-02T07:57:49Z</time>
      </trkpt>
      <trkpt lat="42.217529" lon="2.169030">
        <ele>729.40558</ele>
        <time>2021-07-02T07:57:50Z</time>
      </trkpt>
      <trkpt lat="42.217690" lon="2.169079">
        <ele>728.27716</ele>
        <time>2021-07-02T07:57:51Z</time>
      </trkpt>
      <trkpt lat="42.217842" lon="2.169126">
        <ele>727.71661</ele>
        <time>2021-07-02T07:57:52Z</time>
      </trkpt>
      <trkpt lat="42.218002" lon="2.169175">
        <ele>724.46954</ele>
        <time>2021-07-02T07:57:53Z</time>
      </trkpt>
      <trkpt lat="42.218159" lon="2.169223">
        <ele>724.77606</ele>
        <time>2021-07-02T07:57:54Z</time>
      </trkpt>
      <trkpt lat="42.218288" lon="2.169264">
        <ele>724.91827</ele>
        <time>2021-07-02T07:57:55Z</time>
      </trkpt>
      <trkpt lat="42.218449" lon="2.169312">
        <ele>726.20477</ele>
        <time>2021-07-02T07:57:56Z</time>
      </trkpt>
      <trkpt lat="42.218597" lon="2.169358">
        <ele>726.56061</ele>
        <time>2021-07-02T07:57:57Z</time>
      </trkpt>
      <trkpt lat="42.218735" lon="2.169400">
        <ele>727.10638</ele>
        <time>2021-07-02T07:57:58Z</time>
      </trkpt>
      <trkpt lat="42.218849" lon="2.169436">
        <ele>727.31647</ele>
        <time>2021-07-02T07:57:59Z</time>
      </trkpt>
      <trkpt lat="42.218971" lon="2.169474">
        <ele>728.29547</ele>
        <time>2021-07-02T07:58:00Z</time>
      </trkpt>
      <trkpt lat="42.219097" lon="2.169512">
        <ele>728.46320</ele>
        <time>2021-07-02T07:58:01Z</time>
      </trkpt>
      <trkpt lat="42.219219" lon="2.169550">
        <ele>728.45953</ele>
        <time>2021-07-02T07:58:02Z</time>
      </trkpt>
      <trkpt lat="42.219326" lon="2.169587">
        <ele>728.68280</ele>
        <time>2021-07-02T07:58:03Z</time>
      </trkpt>
      <trkpt lat="42.219448" lon="2.169638">
        <ele>729.39667</ele>
        <time>2021-07-02T07:58:04Z</time>
      </trkpt>
      <trkpt lat="42.219570" lon="2.169691">
        <ele>730.31854</ele>
        <time>2021-07-02T07:58:05Z</time>
      </trkpt>
      <trkpt lat="42.219570" lon="2.169691">
        <ele>730.30841</ele>
        <time>2021-07-02T07:58:06Z</time>
      </trkpt>
      <trkpt lat="42.219681" lon="2.169737">
        <ele>731.15729</ele>
        <time>2021-07-02T07:58:07Z</time>
      </trkpt>
      <trkpt lat="42.219784" lon="2.169782">
        <ele>730.47906</ele>
        <time>2021-07-02T07:58:08Z</time>
      </trkpt>
      <trkpt lat="42.219891" lon="2.169833">
        <ele>730.14093</ele>
        <time>2021-07-02T07:58:09Z</time>
      </trkpt>
      <trkpt lat="42.219986" lon="2.169878">
        <ele>730.16949</ele>
        <time>2021-07-02T07:58:10Z</time>
      </trkpt>
      <trkpt lat="42.220062" lon="2.169913">
        <ele>730.41119</ele>
        <time>2021-07-02T07:58:11Z</time>
      </trkpt>
      <trkpt lat="42.220142" lon="2.169953">
        <ele>730.51715</ele>
        <time>2021-07-02T07:58:12Z</time>
      </trkpt>
      <trkpt lat="42.220222" lon="2.169994">
        <ele>730.44269</ele>
        <time>2021-07-02T07:58:13Z</time>
      </trkpt>
      <trkpt lat="42.220306" lon="2.170034">
        <ele>732.09406</ele>
        <time>2021-07-02T07:58:14Z</time>
      </trkpt>
      <trkpt lat="42.220402" lon="2.170082">
        <ele>732.16168</ele>
        <time>2021-07-02T07:58:15Z</time>
      </trkpt>
      <trkpt lat="42.220509" lon="2.170162">
        <ele>732.30878</ele>
        <time>2021-07-02T07:58:16Z</time>
      </trkpt>
      <trkpt lat="42.220638" lon="2.170232">
        <ele>729.44977</ele>
        <time>2021-07-02T07:58:17Z</time>
      </trkpt>
      <trkpt lat="42.220768" lon="2.170303">
        <ele>729.65912</ele>
        <time>2021-07-02T07:58:18Z</time>
      </trkpt>
      <trkpt lat="42.220875" lon="2.170358">
        <ele>729.85492</ele>
        <time>2021-07-02T07:58:19Z</time>
      </trkpt>
      <trkpt lat="42.220989" lon="2.170419">
        <ele>730.35004</ele>
        <time>2021-07-02T07:58:20Z</time>
      </trkpt>
      <trkpt lat="42.221115" lon="2.170471">
        <ele>731.32159</ele>
        <time>2021-07-02T07:58:21Z</time>
      </trkpt>
      <trkpt lat="42.221241" lon="2.170521">
        <ele>731.45709</ele>
        <time>2021-07-02T07:58:22Z</time>
      </trkpt>
      <trkpt lat="42.221348" lon="2.170563">
        <ele>731.16559</ele>
        <time>2021-07-02T07:58:23Z</time>
      </trkpt>
      <trkpt lat="42.221462" lon="2.170596">
        <ele>733.22339</ele>
        <time>2021-07-02T07:58:24Z</time>
      </trkpt>
      <trkpt lat="42.221592" lon="2.170622">
        <ele>733.49609</ele>
        <time>2021-07-02T07:58:25Z</time>
      </trkpt>
      <trkpt lat="42.221729" lon="2.170641">
        <ele>731.20819</ele>
        <time>2021-07-02T07:58:26Z</time>
      </trkpt>
      <trkpt lat="42.221851" lon="2.170655">
        <ele>731.66498</ele>
        <time>2021-07-02T07:58:27Z</time>
      </trkpt>
      <trkpt lat="42.221851" lon="2.170655">
        <ele>731.91656</ele>
        <time>2021-07-02T07:58:28Z</time>
      </trkpt>
      <trkpt lat="42.221851" lon="2.170655">
        <ele>732.43036</ele>
        <time>2021-07-02T07:58:29Z</time>
      </trkpt>
      <trkpt lat="42.221962" lon="2.170664">
        <ele>733.29132</ele>
        <time>2021-07-02T07:58:30Z</time>
      </trkpt>
      <trkpt lat="42.222301" lon="2.170688">
        <ele>733.22662</ele>
        <time>2021-07-02T07:58:31Z</time>
      </trkpt>
      <trkpt lat="42.222378" lon="2.170690">
        <ele>733.69586</ele>
        <time>2021-07-02T07:58:32Z</time>
      </trkpt>
      <trkpt lat="42.222500" lon="2.170691">
        <ele>734.47968</ele>
        <time>2021-07-02T07:58:33Z</time>
      </trkpt>
      <trkpt lat="42.222610" lon="2.170692">
        <ele>734.90338</ele>
        <time>2021-07-02T07:58:34Z</time>
      </trkpt>
      <trkpt lat="42.222610" lon="2.170692">
        <ele>735.07281</ele>
        <time>2021-07-02T07:58:35Z</time>
      </trkpt>
      <trkpt lat="42.222744" lon="2.170677">
        <ele>733.76385</ele>
        <time>2021-07-02T07:58:36Z</time>
      </trkpt>
      <trkpt lat="42.222900" lon="2.170682">
        <ele>733.41315</ele>
        <time>2021-07-02T07:58:37Z</time>
      </trkpt>
      <trkpt lat="42.223049" lon="2.170690">
        <ele>733.21869</ele>
        <time>2021-07-02T07:58:38Z</time>
      </trkpt>
      <trkpt lat="42.223049" lon="2.170690">
        <ele>733.43341</ele>
        <time>2021-07-02T07:58:39Z</time>
      </trkpt>
      <trkpt lat="42.223450" lon="2.170704">
        <ele>734.86334</ele>
        <time>2021-07-02T07:58:40Z</time>
      </trkpt>
      <trkpt lat="42.223610" lon="2.170703">
        <ele>736.08771</ele>
        <time>2021-07-02T07:58:41Z</time>
      </trkpt>
      <trkpt lat="42.223610" lon="2.170703">
        <ele>736.56952</ele>
        <time>2021-07-02T07:58:42Z</time>
      </trkpt>
      <trkpt lat="42.223755" lon="2.170695">
        <ele>736.67291</ele>
        <time>2021-07-02T07:58:43Z</time>
      </trkpt>
      <trkpt lat="42.223892" lon="2.170688">
        <ele>734.91840</ele>
        <time>2021-07-02T07:58:44Z</time>
      </trkpt>
      <trkpt lat="42.224033" lon="2.170680">
        <ele>734.72772</ele>
        <time>2021-07-02T07:58:45Z</time>
      </trkpt>
      <trkpt lat="42.224190" lon="2.170665">
        <ele>734.71320</ele>
        <time>2021-07-02T07:58:46Z</time>
      </trkpt>
      <trkpt lat="42.224342" lon="2.170644">
        <ele>735.57965</ele>
        <time>2021-07-02T07:58:47Z</time>
      </trkpt>
      <trkpt lat="42.224503" lon="2.170622">
        <ele>733.11676</ele>
        <time>2021-07-02T07:58:48Z</time>
      </trkpt>
      <trkpt lat="42.224670" lon="2.170597">
        <ele>733.66608</ele>
        <time>2021-07-02T07:58:49Z</time>
      </trkpt>
      <trkpt lat="42.224827" lon="2.170572">
        <ele>733.90948</ele>
        <time>2021-07-02T07:58:50Z</time>
      </trkpt>
      <trkpt lat="42.224983" lon="2.170539">
        <ele>733.96576</ele>
        <time>2021-07-02T07:58:51Z</time>
      </trkpt>
      <trkpt lat="42.225117" lon="2.170510">
        <ele>734.15167</ele>
        <time>2021-07-02T07:58:52Z</time>
      </trkpt>
      <trkpt lat="42.225246" lon="2.170482">
        <ele>734.30145</ele>
        <time>2021-07-02T07:58:53Z</time>
      </trkpt>
      <trkpt lat="42.225388" lon="2.170447">
        <ele>734.95148</ele>
        <time>2021-07-02T07:58:54Z</time>
      </trkpt>
      <trkpt lat="42.225533" lon="2.170411">
        <ele>735.29120</ele>
        <time>2021-07-02T07:58:55Z</time>
      </trkpt>
      <trkpt lat="42.225674" lon="2.170371">
        <ele>735.46100</ele>
        <time>2021-07-02T07:58:56Z</time>
      </trkpt>
      <trkpt lat="42.225811" lon="2.170331">
        <ele>735.02325</ele>
        <time>2021-07-02T07:58:57Z</time>
      </trkpt>
      <trkpt lat="42.225819" lon="2.170348">
        <ele>736.41461</ele>
        <time>2021-07-02T07:58:58Z</time>
      </trkpt>
      <trkpt lat="42.226139" lon="2.170239">
        <ele>735.93158</ele>
        <time>2021-07-02T07:58:59Z</time>
      </trkpt>
      <trkpt lat="42.226299" lon="2.170189">
        <ele>735.83649</ele>
        <time>2021-07-02T07:59:00Z</time>
      </trkpt>
      <trkpt lat="42.226475" lon="2.170135">
        <ele>735.80560</ele>
        <time>2021-07-02T07:59:01Z</time>
      </trkpt>
      <trkpt lat="42.226673" lon="2.170073">
        <ele>736.71234</ele>
        <time>2021-07-02T07:59:02Z</time>
      </trkpt>
      <trkpt lat="42.226673" lon="2.170073">
        <ele>736.99103</ele>
        <time>2021-07-02T07:59:03Z</time>
      </trkpt>
      <trkpt lat="42.226849" lon="2.170019">
        <ele>737.18634</ele>
        <time>2021-07-02T07:59:04Z</time>
      </trkpt>
      <trkpt lat="42.226994" lon="2.169973">
        <ele>737.96783</ele>
        <time>2021-07-02T07:59:05Z</time>
      </trkpt>
      <trkpt lat="42.227150" lon="2.169925">
        <ele>738.54547</ele>
        <time>2021-07-02T07:59:06Z</time>
      </trkpt>
      <trkpt lat="42.227310" lon="2.169876">
        <ele>738.70575</ele>
        <time>2021-07-02T07:59:07Z</time>
      </trkpt>
      <trkpt lat="42.227463" lon="2.169828">
        <ele>740.43561</ele>
        <time>2021-07-02T07:59:08Z</time>
      </trkpt>
      <trkpt lat="42.227627" lon="2.169778">
        <ele>740.53040</ele>
        <time>2021-07-02T07:59:09Z</time>
      </trkpt>
      <trkpt lat="42.227787" lon="2.169728">
        <ele>741.02069</ele>
        <time>2021-07-02T07:59:10Z</time>
      </trkpt>
      <trkpt lat="42.227940" lon="2.169680">
        <ele>741.34613</ele>
        <time>2021-07-02T07:59:11Z</time>
      </trkpt>
      <trkpt lat="42.227943" lon="2.169679">
        <ele>741.66187</ele>
        <time>2021-07-02T07:59:12Z</time>
      </trkpt>
      <trkpt lat="42.228165" lon="2.169719">
        <ele>742.11792</ele>
        <time>2021-07-02T07:59:13Z</time>
      </trkpt>
      <trkpt lat="42.228424" lon="2.169529">
        <ele>742.30914</ele>
        <time>2021-07-02T07:59:14Z</time>
      </trkpt>
      <trkpt lat="42.228580" lon="2.169480">
        <ele>742.41016</ele>
        <time>2021-07-02T07:59:15Z</time>
      </trkpt>
      <trkpt lat="42.228722" lon="2.169436">
        <ele>742.79987</ele>
        <time>2021-07-02T07:59:16Z</time>
      </trkpt>
      <trkpt lat="42.228889" lon="2.169383">
        <ele>743.30286</ele>
        <time>2021-07-02T07:59:17Z</time>
      </trkpt>
      <trkpt lat="42.228889" lon="2.169383">
        <ele>743.65894</ele>
        <time>2021-07-02T07:59:18Z</time>
      </trkpt>
      <trkpt lat="42.228889" lon="2.169383">
        <ele>744.16235</ele>
        <time>2021-07-02T07:59:19Z</time>
      </trkpt>
      <trkpt lat="42.229259" lon="2.169267">
        <ele>744.36554</ele>
        <time>2021-07-02T07:59:20Z</time>
      </trkpt>
      <trkpt lat="42.229389" lon="2.169226">
        <ele>744.71405</ele>
        <time>2021-07-02T07:59:21Z</time>
      </trkpt>
      <trkpt lat="42.229549" lon="2.169176">
        <ele>745.06622</ele>
        <time>2021-07-02T07:59:22Z</time>
      </trkpt>
      <trkpt lat="42.229637" lon="2.169148">
        <ele>744.98346</ele>
        <time>2021-07-02T07:59:23Z</time>
      </trkpt>
      <trkpt lat="42.229637" lon="2.169148">
        <ele>745.43781</ele>
        <time>2021-07-02T07:59:24Z</time>
      </trkpt>
      <trkpt lat="42.229660" lon="2.169142">
        <ele>745.78265</ele>
        <time>2021-07-02T07:59:25Z</time>
      </trkpt>
      <trkpt lat="42.230141" lon="2.168990">
        <ele>745.75623</ele>
        <time>2021-07-02T07:59:26Z</time>
      </trkpt>
      <trkpt lat="42.230293" lon="2.168944">
        <ele>746.22394</ele>
        <time>2021-07-02T07:59:27Z</time>
      </trkpt>
      <trkpt lat="42.230473" lon="2.168888">
        <ele>746.56360</ele>
        <time>2021-07-02T07:59:28Z</time>
      </trkpt>
      <trkpt lat="42.230618" lon="2.168843">
        <ele>746.99219</ele>
        <time>2021-07-02T07:59:29Z</time>
      </trkpt>
      <trkpt lat="42.230782" lon="2.168792">
        <ele>747.63379</ele>
        <time>2021-07-02T07:59:30Z</time>
      </trkpt>
      <trkpt lat="42.230782" lon="2.168792">
        <ele>747.95758</ele>
        <time>2021-07-02T07:59:31Z</time>
      </trkpt>
      <trkpt lat="42.230782" lon="2.168792">
        <ele>748.16174</ele>
        <time>2021-07-02T07:59:32Z</time>
      </trkpt>
      <trkpt lat="42.231094" lon="2.168692">
        <ele>748.11633</ele>
        <time>2021-07-02T07:59:33Z</time>
      </trkpt>
      <trkpt lat="42.231247" lon="2.168644">
        <ele>749.05432</ele>
        <time>2021-07-02T07:59:34Z</time>
      </trkpt>
      <trkpt lat="42.231392" lon="2.168599">
        <ele>749.43097</ele>
        <time>2021-07-02T07:59:35Z</time>
      </trkpt>
      <trkpt lat="42.231544" lon="2.168549">
        <ele>750.09058</ele>
        <time>2021-07-02T07:59:36Z</time>
      </trkpt>
      <trkpt lat="42.231705" lon="2.168502">
        <ele>751.28619</ele>
        <time>2021-07-02T07:59:37Z</time>
      </trkpt>
      <trkpt lat="42.231869" lon="2.168462">
        <ele>751.67285</ele>
        <time>2021-07-02T07:59:38Z</time>
      </trkpt>
      <trkpt lat="42.232025" lon="2.168424">
        <ele>752.12952</ele>
        <time>2021-07-02T07:59:39Z</time>
      </trkpt>
      <trkpt lat="42.232189" lon="2.168384">
        <ele>752.25775</ele>
        <time>2021-07-02T07:59:40Z</time>
      </trkpt>
      <trkpt lat="42.232357" lon="2.168360">
        <ele>752.22052</ele>
        <time>2021-07-02T07:59:41Z</time>
      </trkpt>
      <trkpt lat="42.232533" lon="2.168337">
        <ele>752.25958</ele>
        <time>2021-07-02T07:59:42Z</time>
      </trkpt>
      <trkpt lat="42.232693" lon="2.168316">
        <ele>752.21155</ele>
        <time>2021-07-02T07:59:43Z</time>
      </trkpt>
      <trkpt lat="42.232857" lon="2.168294">
        <ele>751.76831</ele>
        <time>2021-07-02T07:59:44Z</time>
      </trkpt>
      <trkpt lat="42.232914" lon="2.168287">
        <ele>751.83655</ele>
        <time>2021-07-02T07:59:45Z</time>
      </trkpt>
      <trkpt lat="42.232922" lon="2.168286">
        <ele>752.15466</ele>
        <time>2021-07-02T07:59:46Z</time>
      </trkpt>
      <trkpt lat="42.233303" lon="2.168241">
        <ele>752.69373</ele>
        <time>2021-07-02T07:59:47Z</time>
      </trkpt>
      <trkpt lat="42.233490" lon="2.168219">
        <ele>752.72943</ele>
        <time>2021-07-02T07:59:48Z</time>
      </trkpt>
      <trkpt lat="42.233665" lon="2.168198">
        <ele>753.11609</ele>
        <time>2021-07-02T07:59:49Z</time>
      </trkpt>
      <trkpt lat="42.233826" lon="2.168179">
        <ele>753.11774</ele>
        <time>2021-07-02T07:59:50Z</time>
      </trkpt>
      <trkpt lat="42.233986" lon="2.168160">
        <ele>753.51373</ele>
        <time>2021-07-02T07:59:51Z</time>
      </trkpt>
      <trkpt lat="42.233986" lon="2.168160">
        <ele>753.51373</ele>
        <time>2021-07-02T07:59:52Z</time>
      </trkpt>
      <trkpt lat="42.234138" lon="2.168142">
        <ele>753.71423</ele>
        <time>2021-07-02T07:59:53Z</time>
      </trkpt>
      <trkpt lat="42.234257" lon="2.168128">
        <ele>754.27362</ele>
        <time>2021-07-02T07:59:54Z</time>
      </trkpt>
      <trkpt lat="42.234367" lon="2.168115">
        <ele>754.26306</ele>
        <time>2021-07-02T07:59:55Z</time>
      </trkpt>
      <trkpt lat="42.234669" lon="2.168080">
        <ele>754.36285</ele>
        <time>2021-07-02T07:59:56Z</time>
      </trkpt>
      <trkpt lat="42.234810" lon="2.168063">
        <ele>754.76300</ele>
        <time>2021-07-02T07:59:57Z</time>
      </trkpt>
      <trkpt lat="42.234962" lon="2.168045">
        <ele>754.57965</ele>
        <time>2021-07-02T07:59:58Z</time>
      </trkpt>
      <trkpt lat="42.235119" lon="2.168028">
        <ele>754.72015</ele>
        <time>2021-07-02T07:59:59Z</time>
      </trkpt>
      <trkpt lat="42.235279" lon="2.168020">
        <ele>754.96521</ele>
        <time>2021-07-02T08:00:00Z</time>
      </trkpt>
      <trkpt lat="42.235432" lon="2.168019">
        <ele>755.13000</ele>
        <time>2021-07-02T08:00:01Z</time>
      </trkpt>
      <trkpt lat="42.235603" lon="2.168036">
        <ele>755.57782</ele>
        <time>2021-07-02T08:00:02Z</time>
      </trkpt>
      <trkpt lat="42.235779" lon="2.168071">
        <ele>755.65710</ele>
        <time>2021-07-02T08:00:03Z</time>
      </trkpt>
      <trkpt lat="42.235962" lon="2.168113">
        <ele>756.21753</ele>
        <time>2021-07-02T08:00:04Z</time>
      </trkpt>
      <trkpt lat="42.236134" lon="2.168153">
        <ele>756.45917</ele>
        <time>2021-07-02T08:00:05Z</time>
      </trkpt>
      <trkpt lat="42.236305" lon="2.168187">
        <ele>757.26190</ele>
        <time>2021-07-02T08:00:06Z</time>
      </trkpt>
      <trkpt lat="42.236477" lon="2.168216">
        <ele>758.18689</ele>
        <time>2021-07-02T08:00:07Z</time>
      </trkpt>
      <trkpt lat="42.236645" lon="2.168233">
        <ele>758.13800</ele>
        <time>2021-07-02T08:00:08Z</time>
      </trkpt>
      <trkpt lat="42.236828" lon="2.168221">
        <ele>758.96033</ele>
        <time>2021-07-02T08:00:09Z</time>
      </trkpt>
      <trkpt lat="42.237022" lon="2.168199">
        <ele>760.17444</ele>
        <time>2021-07-02T08:00:10Z</time>
      </trkpt>
      <trkpt lat="42.237198" lon="2.168166">
        <ele>760.31342</ele>
        <time>2021-07-02T08:00:11Z</time>
      </trkpt>
      <trkpt lat="42.237370" lon="2.168133">
        <ele>760.80029</ele>
        <time>2021-07-02T08:00:12Z</time>
      </trkpt>
      <trkpt lat="42.237537" lon="2.168099">
        <ele>760.97815</ele>
        <time>2021-07-02T08:00:13Z</time>
      </trkpt>
      <trkpt lat="42.237724" lon="2.168048">
        <ele>761.42834</ele>
        <time>2021-07-02T08:00:14Z</time>
      </trkpt>
      <trkpt lat="42.237896" lon="2.167984">
        <ele>762.12207</ele>
        <time>2021-07-02T08:00:15Z</time>
      </trkpt>
      <trkpt lat="42.238056" lon="2.167900">
        <ele>762.06049</ele>
        <time>2021-07-02T08:00:16Z</time>
      </trkpt>
      <trkpt lat="42.238213" lon="2.167798">
        <ele>761.62378</ele>
        <time>2021-07-02T08:00:17Z</time>
      </trkpt>
      <trkpt lat="42.238338" lon="2.167692">
        <ele>762.04779</ele>
        <time>2021-07-02T08:00:18Z</time>
      </trkpt>
      <trkpt lat="42.238472" lon="2.167582">
        <ele>762.22119</ele>
        <time>2021-07-02T08:00:19Z</time>
      </trkpt>
      <trkpt lat="42.238613" lon="2.167458">
        <ele>762.26910</ele>
        <time>2021-07-02T08:00:20Z</time>
      </trkpt>
      <trkpt lat="42.238766" lon="2.167324">
        <ele>762.34216</ele>
        <time>2021-07-02T08:00:21Z</time>
      </trkpt>
      <trkpt lat="42.238911" lon="2.167195">
        <ele>762.23785</ele>
        <time>2021-07-02T08:00:22Z</time>
      </trkpt>
      <trkpt lat="42.239048" lon="2.167071">
        <ele>762.22388</ele>
        <time>2021-07-02T08:00:23Z</time>
      </trkpt>
      <trkpt lat="42.239170" lon="2.166963">
        <ele>761.54706</ele>
        <time>2021-07-02T08:00:24Z</time>
      </trkpt>
      <trkpt lat="42.239285" lon="2.166861">
        <ele>761.89874</ele>
        <time>2021-07-02T08:00:25Z</time>
      </trkpt>
      <trkpt lat="42.239410" lon="2.166749">
        <ele>761.90228</ele>
        <time>2021-07-02T08:00:26Z</time>
      </trkpt>
      <trkpt lat="42.239525" lon="2.166647">
        <ele>762.50995</ele>
        <time>2021-07-02T08:00:27Z</time>
      </trkpt>
      <trkpt lat="42.239525" lon="2.166647">
        <ele>762.83331</ele>
        <time>2021-07-02T08:00:28Z</time>
      </trkpt>
      <trkpt lat="42.239628" lon="2.166555">
        <ele>763.07037</ele>
        <time>2021-07-02T08:00:29Z</time>
      </trkpt>
      <trkpt lat="42.239746" lon="2.166447">
        <ele>763.44952</ele>
        <time>2021-07-02T08:00:30Z</time>
      </trkpt>
      <trkpt lat="42.239880" lon="2.166328">
        <ele>764.45349</ele>
        <time>2021-07-02T08:00:31Z</time>
      </trkpt>
      <trkpt lat="42.240013" lon="2.166210">
        <ele>764.70789</ele>
        <time>2021-07-02T08:00:32Z</time>
      </trkpt>
      <trkpt lat="42.240135" lon="2.166098">
        <ele>765.01599</ele>
        <time>2021-07-02T08:00:33Z</time>
      </trkpt>
      <trkpt lat="42.240273" lon="2.165978">
        <ele>765.34937</ele>
        <time>2021-07-02T08:00:34Z</time>
      </trkpt>
      <trkpt lat="42.240410" lon="2.165852">
        <ele>765.59961</ele>
        <time>2021-07-02T08:00:35Z</time>
      </trkpt>
      <trkpt lat="42.240543" lon="2.165734">
        <ele>765.77771</ele>
        <time>2021-07-02T08:00:36Z</time>
      </trkpt>
      <trkpt lat="42.240673" lon="2.165617">
        <ele>766.09644</ele>
        <time>2021-07-02T08:00:37Z</time>
      </trkpt>
      <trkpt lat="42.240807" lon="2.165498">
        <ele>766.61859</ele>
        <time>2021-07-02T08:00:38Z</time>
      </trkpt>
      <trkpt lat="42.240948" lon="2.165369">
        <ele>767.10938</ele>
        <time>2021-07-02T08:00:39Z</time>
      </trkpt>
      <trkpt lat="42.241085" lon="2.165247">
        <ele>767.29755</ele>
        <time>2021-07-02T08:00:40Z</time>
      </trkpt>
      <trkpt lat="42.241219" lon="2.165129">
        <ele>767.92175</ele>
        <time>2021-07-02T08:00:41Z</time>
      </trkpt>
      <trkpt lat="42.241364" lon="2.165001">
        <ele>767.70447</ele>
        <time>2021-07-02T08:00:42Z</time>
      </trkpt>
      <trkpt lat="42.241508" lon="2.164870">
        <ele>767.95477</ele>
        <time>2021-07-02T08:00:43Z</time>
      </trkpt>
      <trkpt lat="42.241646" lon="2.164754">
        <ele>767.96771</ele>
        <time>2021-07-02T08:00:44Z</time>
      </trkpt>
      <trkpt lat="42.241814" lon="2.164661">
        <ele>768.39703</ele>
        <time>2021-07-02T08:00:45Z</time>
      </trkpt>
      <trkpt lat="42.241989" lon="2.164605">
        <ele>768.08038</ele>
        <time>2021-07-02T08:00:46Z</time>
      </trkpt>
      <trkpt lat="42.242172" lon="2.164626">
        <ele>763.30670</ele>
        <time>2021-07-02T08:00:47Z</time>
      </trkpt>
      <trkpt lat="42.242371" lon="2.164680">
        <ele>763.94318</ele>
        <time>2021-07-02T08:00:48Z</time>
      </trkpt>
      <trkpt lat="42.242588" lon="2.164760">
        <ele>764.25543</ele>
        <time>2021-07-02T08:00:49Z</time>
      </trkpt>
      <trkpt lat="42.242805" lon="2.164840">
        <ele>764.20087</ele>
        <time>2021-07-02T08:00:50Z</time>
      </trkpt>
      <trkpt lat="42.242992" lon="2.164906">
        <ele>764.76813</ele>
        <time>2021-07-02T08:00:51Z</time>
      </trkpt>
      <trkpt lat="42.243187" lon="2.164975">
        <ele>764.72809</ele>
        <time>2021-07-02T08:00:52Z</time>
      </trkpt>
      <trkpt lat="42.243378" lon="2.165038">
        <ele>765.83759</ele>
        <time>2021-07-02T08:00:53Z</time>
      </trkpt>
      <trkpt lat="42.243584" lon="2.165096">
        <ele>765.83258</ele>
        <time>2021-07-02T08:00:54Z</time>
      </trkpt>
      <trkpt lat="42.243797" lon="2.165122">
        <ele>765.58209</ele>
        <time>2021-07-02T08:00:55Z</time>
      </trkpt>
      <trkpt lat="42.243797" lon="2.165122">
        <ele>766.66827</ele>
        <time>2021-07-02T08:00:56Z</time>
      </trkpt>
      <trkpt lat="42.244015" lon="2.165116">
        <ele>766.20660</ele>
        <time>2021-07-02T08:00:57Z</time>
      </trkpt>
      <trkpt lat="42.244232" lon="2.165081">
        <ele>766.26691</ele>
        <time>2021-07-02T08:00:58Z</time>
      </trkpt>
      <trkpt lat="42.244446" lon="2.165011">
        <ele>766.52545</ele>
        <time>2021-07-02T08:00:59Z</time>
      </trkpt>
      <trkpt lat="42.244656" lon="2.164934">
        <ele>767.09674</ele>
        <time>2021-07-02T08:01:00Z</time>
      </trkpt>
      <trkpt lat="42.244862" lon="2.164856">
        <ele>768.05621</ele>
        <time>2021-07-02T08:01:01Z</time>
      </trkpt>
      <trkpt lat="42.245068" lon="2.164779">
        <ele>768.72113</ele>
        <time>2021-07-02T08:01:02Z</time>
      </trkpt>
      <trkpt lat="42.245255" lon="2.164709">
        <ele>768.98297</ele>
        <time>2021-07-02T08:01:03Z</time>
      </trkpt>
      <trkpt lat="42.245411" lon="2.164652">
        <ele>768.97650</ele>
        <time>2021-07-02T08:01:04Z</time>
      </trkpt>
      <trkpt lat="42.245575" lon="2.164594">
        <ele>769.00494</ele>
        <time>2021-07-02T08:01:05Z</time>
      </trkpt>
      <trkpt lat="42.245747" lon="2.164532">
        <ele>770.11310</ele>
        <time>2021-07-02T08:01:06Z</time>
      </trkpt>
      <trkpt lat="42.245918" lon="2.164471">
        <ele>770.12823</ele>
        <time>2021-07-02T08:01:07Z</time>
      </trkpt>
      <trkpt lat="42.246098" lon="2.164407">
        <ele>770.03717</ele>
        <time>2021-07-02T08:01:08Z</time>
      </trkpt>
      <trkpt lat="42.246265" lon="2.164348">
        <ele>770.02155</ele>
        <time>2021-07-02T08:01:09Z</time>
      </trkpt>
      <trkpt lat="42.246449" lon="2.164283">
        <ele>770.22906</ele>
        <time>2021-07-02T08:01:10Z</time>
      </trkpt>
      <trkpt lat="42.246620" lon="2.164224">
        <ele>771.32233</ele>
        <time>2021-07-02T08:01:11Z</time>
      </trkpt>
      <trkpt lat="42.246807" lon="2.164158">
        <ele>771.73602</ele>
        <time>2021-07-02T08:01:12Z</time>
      </trkpt>
      <trkpt lat="42.246986" lon="2.164095">
        <ele>771.40021</ele>
        <time>2021-07-02T08:01:13Z</time>
      </trkpt>
      <trkpt lat="42.247150" lon="2.164038">
        <ele>771.71320</ele>
        <time>2021-07-02T08:01:14Z</time>
      </trkpt>
      <trkpt lat="42.247334" lon="2.163991">
        <ele>772.43195</ele>
        <time>2021-07-02T08:01:15Z</time>
      </trkpt>
      <trkpt lat="42.247520" lon="2.163995">
        <ele>772.76495</ele>
        <time>2021-07-02T08:01:16Z</time>
      </trkpt>
      <trkpt lat="42.247711" lon="2.164055">
        <ele>773.06036</ele>
        <time>2021-07-02T08:01:17Z</time>
      </trkpt>
      <trkpt lat="42.247879" lon="2.164129">
        <ele>773.50739</ele>
        <time>2021-07-02T08:01:18Z</time>
      </trkpt>
      <trkpt lat="42.248062" lon="2.164212">
        <ele>773.00177</ele>
        <time>2021-07-02T08:01:19Z</time>
      </trkpt>
      <trkpt lat="42.248283" lon="2.164284">
        <ele>774.23309</ele>
        <time>2021-07-02T08:01:20Z</time>
      </trkpt>
      <trkpt lat="42.248493" lon="2.164327">
        <ele>775.14166</ele>
        <time>2021-07-02T08:01:21Z</time>
      </trkpt>
      <trkpt lat="42.248699" lon="2.164361">
        <ele>775.14948</ele>
        <time>2021-07-02T08:01:22Z</time>
      </trkpt>
      <trkpt lat="42.248878" lon="2.164438">
        <ele>774.40436</ele>
        <time>2021-07-02T08:01:23Z</time>
      </trkpt>
      <trkpt lat="42.249046" lon="2.164575">
        <ele>784.05267</ele>
        <time>2021-07-02T08:01:24Z</time>
      </trkpt>
      <trkpt lat="42.249176" lon="2.164754">
        <ele>784.90833</ele>
        <time>2021-07-02T08:01:25Z</time>
      </trkpt>
      <trkpt lat="42.249264" lon="2.164924">
        <ele>776.65192</ele>
        <time>2021-07-02T08:01:26Z</time>
      </trkpt>
      <trkpt lat="42.249386" lon="2.165161">
        <ele>777.31134</ele>
        <time>2021-07-02T08:01:27Z</time>
      </trkpt>
      <trkpt lat="42.249386" lon="2.165161">
        <ele>777.58844</ele>
        <time>2021-07-02T08:01:28Z</time>
      </trkpt>
      <trkpt lat="42.249554" lon="2.165434">
        <ele>784.79016</ele>
        <time>2021-07-02T08:01:29Z</time>
      </trkpt>
      <trkpt lat="42.249683" lon="2.165563">
        <ele>777.91473</ele>
        <time>2021-07-02T08:01:30Z</time>
      </trkpt>
      <trkpt lat="42.249847" lon="2.165669">
        <ele>778.33063</ele>
        <time>2021-07-02T08:01:31Z</time>
      </trkpt>
      <trkpt lat="42.250046" lon="2.165763">
        <ele>778.11798</ele>
        <time>2021-07-02T08:01:32Z</time>
      </trkpt>
      <trkpt lat="42.250282" lon="2.165820">
        <ele>784.88702</ele>
        <time>2021-07-02T08:01:33Z</time>
      </trkpt>
      <trkpt lat="42.250458" lon="2.165810">
        <ele>784.65448</ele>
        <time>2021-07-02T08:01:34Z</time>
      </trkpt>
      <trkpt lat="42.250610" lon="2.165761">
        <ele>784.73230</ele>
        <time>2021-07-02T08:01:35Z</time>
      </trkpt>
      <trkpt lat="42.250740" lon="2.165661">
        <ele>779.44513</ele>
        <time>2021-07-02T08:01:36Z</time>
      </trkpt>
      <trkpt lat="42.250862" lon="2.165520">
        <ele>781.05182</ele>
        <time>2021-07-02T08:01:37Z</time>
      </trkpt>
      <trkpt lat="42.251015" lon="2.165308">
        <ele>781.25311</ele>
        <time>2021-07-02T08:01:38Z</time>
      </trkpt>
      <trkpt lat="42.251205" lon="2.165026">
        <ele>781.64606</ele>
        <time>2021-07-02T08:01:39Z</time>
      </trkpt>
      <trkpt lat="42.251373" lon="2.164771">
        <ele>781.63116</ele>
        <time>2021-07-02T08:01:40Z</time>
      </trkpt>
      <trkpt lat="42.251526" lon="2.164544">
        <ele>782.34235</ele>
        <time>2021-07-02T08:01:41Z</time>
      </trkpt>
      <trkpt lat="42.251671" lon="2.164338">
        <ele>783.39264</ele>
        <time>2021-07-02T08:01:42Z</time>
      </trkpt>
      <trkpt lat="42.251808" lon="2.164211">
        <ele>787.05438</ele>
        <time>2021-07-02T08:01:43Z</time>
      </trkpt>
      <trkpt lat="42.251968" lon="2.164119">
        <ele>786.45862</ele>
        <time>2021-07-02T08:01:44Z</time>
      </trkpt>
      <trkpt lat="42.252098" lon="2.164090">
        <ele>785.62897</ele>
        <time>2021-07-02T08:01:45Z</time>
      </trkpt>
      <trkpt lat="42.252205" lon="2.164087">
        <ele>786.16498</ele>
        <time>2021-07-02T08:01:46Z</time>
      </trkpt>
      <trkpt lat="42.252354" lon="2.164123">
        <ele>789.62305</ele>
        <time>2021-07-02T08:01:47Z</time>
      </trkpt>
      <trkpt lat="42.252529" lon="2.164233">
        <ele>782.70905</ele>
        <time>2021-07-02T08:01:48Z</time>
      </trkpt>
      <trkpt lat="42.252697" lon="2.164410">
        <ele>791.07269</ele>
        <time>2021-07-02T08:01:49Z</time>
      </trkpt>
      <trkpt lat="42.252842" lon="2.164599">
        <ele>783.79205</ele>
        <time>2021-07-02T08:01:50Z</time>
      </trkpt>
      <trkpt lat="42.252979" lon="2.164767">
        <ele>783.96393</ele>
        <time>2021-07-02T08:01:51Z</time>
      </trkpt>
      <trkpt lat="42.253197" lon="2.165019">
        <ele>783.88690</ele>
        <time>2021-07-02T08:01:52Z</time>
      </trkpt>
      <trkpt lat="42.253326" lon="2.165131">
        <ele>784.50592</ele>
        <time>2021-07-02T08:01:53Z</time>
      </trkpt>
      <trkpt lat="42.253506" lon="2.165257">
        <ele>785.03375</ele>
        <time>2021-07-02T08:01:54Z</time>
      </trkpt>
      <trkpt lat="42.253727" lon="2.165385">
        <ele>785.39081</ele>
        <time>2021-07-02T08:01:55Z</time>
      </trkpt>
      <trkpt lat="42.253925" lon="2.165484">
        <ele>784.64386</ele>
        <time>2021-07-02T08:01:56Z</time>
      </trkpt>
      <trkpt lat="42.254112" lon="2.165553">
        <ele>786.12457</ele>
        <time>2021-07-02T08:01:57Z</time>
      </trkpt>
      <trkpt lat="42.254299" lon="2.165610">
        <ele>787.80109</ele>
        <time>2021-07-02T08:01:58Z</time>
      </trkpt>
      <trkpt lat="42.254299" lon="2.165610">
        <ele>788.59943</ele>
        <time>2021-07-02T08:01:59Z</time>
      </trkpt>
      <trkpt lat="42.254505" lon="2.165637">
        <ele>788.85553</ele>
        <time>2021-07-02T08:02:00Z</time>
      </trkpt>
      <trkpt lat="42.254726" lon="2.165638">
        <ele>789.88055</ele>
        <time>2021-07-02T08:02:01Z</time>
      </trkpt>
      <trkpt lat="42.254959" lon="2.165625">
        <ele>791.34235</ele>
        <time>2021-07-02T08:02:02Z</time>
      </trkpt>
      <trkpt lat="42.255177" lon="2.165582">
        <ele>791.61603</ele>
        <time>2021-07-02T08:02:03Z</time>
      </trkpt>
      <trkpt lat="42.255356" lon="2.165495">
        <ele>792.11749</ele>
        <time>2021-07-02T08:02:04Z</time>
      </trkpt>
      <trkpt lat="42.255543" lon="2.165349">
        <ele>792.36407</ele>
        <time>2021-07-02T08:02:05Z</time>
      </trkpt>
      <trkpt lat="42.255699" lon="2.165196">
        <ele>792.62433</ele>
        <time>2021-07-02T08:02:06Z</time>
      </trkpt>
      <trkpt lat="42.255882" lon="2.165003">
        <ele>792.98956</ele>
        <time>2021-07-02T08:02:07Z</time>
      </trkpt>
      <trkpt lat="42.256073" lon="2.164802">
        <ele>793.12433</ele>
        <time>2021-07-02T08:02:08Z</time>
      </trkpt>
      <trkpt lat="42.256237" lon="2.164640">
        <ele>793.86237</ele>
        <time>2021-07-02T08:02:09Z</time>
      </trkpt>
      <trkpt lat="42.256405" lon="2.164513">
        <ele>794.18707</ele>
        <time>2021-07-02T08:02:10Z</time>
      </trkpt>
      <trkpt lat="42.256573" lon="2.164433">
        <ele>794.30646</ele>
        <time>2021-07-02T08:02:11Z</time>
      </trkpt>
      <trkpt lat="42.256763" lon="2.164401">
        <ele>799.24200</ele>
        <time>2021-07-02T08:02:12Z</time>
      </trkpt>
      <trkpt lat="42.256954" lon="2.164420">
        <ele>795.27667</ele>
        <time>2021-07-02T08:02:13Z</time>
      </trkpt>
      <trkpt lat="42.257099" lon="2.164480">
        <ele>795.58795</ele>
        <time>2021-07-02T08:02:14Z</time>
      </trkpt>
      <trkpt lat="42.257298" lon="2.164634">
        <ele>796.41681</ele>
        <time>2021-07-02T08:02:15Z</time>
      </trkpt>
      <trkpt lat="42.257473" lon="2.164841">
        <ele>797.39703</ele>
        <time>2021-07-02T08:02:16Z</time>
      </trkpt>
      <trkpt lat="42.257633" lon="2.165101">
        <ele>798.13239</ele>
        <time>2021-07-02T08:02:17Z</time>
      </trkpt>
      <trkpt lat="42.257751" lon="2.165304">
        <ele>798.68243</ele>
        <time>2021-07-02T08:02:18Z</time>
      </trkpt>
      <trkpt lat="42.257885" lon="2.165474">
        <ele>802.15253</ele>
        <time>2021-07-02T08:02:19Z</time>
      </trkpt>
      <trkpt lat="42.258026" lon="2.165595">
        <ele>799.75641</ele>
        <time>2021-07-02T08:02:20Z</time>
      </trkpt>
      <trkpt lat="42.258202" lon="2.165687">
        <ele>800.03424</ele>
        <time>2021-07-02T08:02:21Z</time>
      </trkpt>
      <trkpt lat="42.258411" lon="2.165724">
        <ele>800.46637</ele>
        <time>2021-07-02T08:02:22Z</time>
      </trkpt>
      <trkpt lat="42.258614" lon="2.165702">
        <ele>800.56744</ele>
        <time>2021-07-02T08:02:23Z</time>
      </trkpt>
      <trkpt lat="42.258804" lon="2.165636">
        <ele>800.69562</ele>
        <time>2021-07-02T08:02:24Z</time>
      </trkpt>
      <trkpt lat="42.259079" lon="2.165532">
        <ele>800.66559</ele>
        <time>2021-07-02T08:02:25Z</time>
      </trkpt>
      <trkpt lat="42.259300" lon="2.165445">
        <ele>800.66486</ele>
        <time>2021-07-02T08:02:26Z</time>
      </trkpt>
      <trkpt lat="42.259514" lon="2.165352">
        <ele>800.86115</ele>
        <time>2021-07-02T08:02:27Z</time>
      </trkpt>
      <trkpt lat="42.259701" lon="2.165272">
        <ele>800.86456</ele>
        <time>2021-07-02T08:02:28Z</time>
      </trkpt>
      <trkpt lat="42.259903" lon="2.165185">
        <ele>800.89117</ele>
        <time>2021-07-02T08:02:29Z</time>
      </trkpt>
      <trkpt lat="42.260090" lon="2.165105">
        <ele>801.03937</ele>
        <time>2021-07-02T08:02:30Z</time>
      </trkpt>
      <trkpt lat="42.260090" lon="2.165105">
        <ele>801.09088</ele>
        <time>2021-07-02T08:02:31Z</time>
      </trkpt>
      <trkpt lat="42.260277" lon="2.165023">
        <ele>801.20221</ele>
        <time>2021-07-02T08:02:32Z</time>
      </trkpt>
      <trkpt lat="42.260471" lon="2.164940">
        <ele>801.29962</ele>
        <time>2021-07-02T08:02:33Z</time>
      </trkpt>
      <trkpt lat="42.260658" lon="2.164858">
        <ele>801.63605</ele>
        <time>2021-07-02T08:02:34Z</time>
      </trkpt>
      <trkpt lat="42.260845" lon="2.164760">
        <ele>801.96149</ele>
        <time>2021-07-02T08:02:35Z</time>
      </trkpt>
      <trkpt lat="42.261028" lon="2.164650">
        <ele>801.84760</ele>
        <time>2021-07-02T08:02:36Z</time>
      </trkpt>
      <trkpt lat="42.261192" lon="2.164510">
        <ele>801.86261</ele>
        <time>2021-07-02T08:02:37Z</time>
      </trkpt>
      <trkpt lat="42.261364" lon="2.164286">
        <ele>802.08405</ele>
        <time>2021-07-02T08:02:38Z</time>
      </trkpt>
      <trkpt lat="42.261497" lon="2.164043">
        <ele>802.14178</ele>
        <time>2021-07-02T08:02:39Z</time>
      </trkpt>
      <trkpt lat="42.261612" lon="2.163805">
        <ele>802.62408</ele>
        <time>2021-07-02T08:02:40Z</time>
      </trkpt>
      <trkpt lat="42.261730" lon="2.163563">
        <ele>803.77448</ele>
        <time>2021-07-02T08:02:41Z</time>
      </trkpt>
      <trkpt lat="42.261841" lon="2.163330">
        <ele>805.25507</ele>
        <time>2021-07-02T08:02:42Z</time>
      </trkpt>
      <trkpt lat="42.261955" lon="2.163103">
        <ele>806.48102</ele>
        <time>2021-07-02T08:02:43Z</time>
      </trkpt>
      <trkpt lat="42.262077" lon="2.162893">
        <ele>806.87054</ele>
        <time>2021-07-02T08:02:44Z</time>
      </trkpt>
      <trkpt lat="42.262215" lon="2.162719">
        <ele>807.11334</ele>
        <time>2021-07-02T08:02:45Z</time>
      </trkpt>
      <trkpt lat="42.262367" lon="2.162579">
        <ele>809.55353</ele>
        <time>2021-07-02T08:02:46Z</time>
      </trkpt>
      <trkpt lat="42.262543" lon="2.162478">
        <ele>807.67804</ele>
        <time>2021-07-02T08:02:47Z</time>
      </trkpt>
      <trkpt lat="42.262714" lon="2.162421">
        <ele>807.79108</ele>
        <time>2021-07-02T08:02:48Z</time>
      </trkpt>
      <trkpt lat="42.262939" lon="2.162415">
        <ele>811.26575</ele>
        <time>2021-07-02T08:02:49Z</time>
      </trkpt>
      <trkpt lat="42.263107" lon="2.162455">
        <ele>811.42871</ele>
        <time>2021-07-02T08:02:50Z</time>
      </trkpt>
      <trkpt lat="42.263279" lon="2.162533">
        <ele>811.85150</ele>
        <time>2021-07-02T08:02:51Z</time>
      </trkpt>
      <trkpt lat="42.263443" lon="2.162622">
        <ele>811.69092</ele>
        <time>2021-07-02T08:02:52Z</time>
      </trkpt>
      <trkpt lat="42.263584" lon="2.162716">
        <ele>812.05121</ele>
        <time>2021-07-02T08:02:53Z</time>
      </trkpt>
      <trkpt lat="42.263737" lon="2.162813">
        <ele>812.38812</ele>
        <time>2021-07-02T08:02:54Z</time>
      </trkpt>
      <trkpt lat="42.263893" lon="2.162915">
        <ele>812.76923</ele>
        <time>2021-07-02T08:02:55Z</time>
      </trkpt>
      <trkpt lat="42.264042" lon="2.163011">
        <ele>812.94702</ele>
        <time>2021-07-02T08:02:56Z</time>
      </trkpt>
      <trkpt lat="42.264198" lon="2.163114">
        <ele>813.11133</ele>
        <time>2021-07-02T08:02:57Z</time>
      </trkpt>
      <trkpt lat="42.264366" lon="2.163209">
        <ele>813.43475</ele>
        <time>2021-07-02T08:02:58Z</time>
      </trkpt>
      <trkpt lat="42.264523" lon="2.163267">
        <ele>813.67188</ele>
        <time>2021-07-02T08:02:59Z</time>
      </trkpt>
      <trkpt lat="42.264683" lon="2.163297">
        <ele>814.16156</ele>
        <time>2021-07-02T08:03:00Z</time>
      </trkpt>
      <trkpt lat="42.264858" lon="2.163289">
        <ele>814.21521</ele>
        <time>2021-07-02T08:03:01Z</time>
      </trkpt>
      <trkpt lat="42.265018" lon="2.163236">
        <ele>814.78210</ele>
        <time>2021-07-02T08:03:02Z</time>
      </trkpt>
      <trkpt lat="42.265156" lon="2.163151">
        <ele>814.45135</ele>
        <time>2021-07-02T08:03:03Z</time>
      </trkpt>
      <trkpt lat="42.265289" lon="2.163042">
        <ele>814.78461</ele>
        <time>2021-07-02T08:03:04Z</time>
      </trkpt>
      <trkpt lat="42.265396" lon="2.162907">
        <ele>814.75598</ele>
        <time>2021-07-02T08:03:05Z</time>
      </trkpt>
      <trkpt lat="42.265484" lon="2.162751">
        <ele>814.49469</ele>
        <time>2021-07-02T08:03:06Z</time>
      </trkpt>
      <trkpt lat="42.265484" lon="2.162751">
        <ele>814.26147</ele>
        <time>2021-07-02T08:03:07Z</time>
      </trkpt>
      <trkpt lat="42.265568" lon="2.162587">
        <ele>814.46466</ele>
        <time>2021-07-02T08:03:08Z</time>
      </trkpt>
      <trkpt lat="42.265629" lon="2.162429">
        <ele>815.09534</ele>
        <time>2021-07-02T08:03:09Z</time>
      </trkpt>
      <trkpt lat="42.265694" lon="2.162255">
        <ele>815.88318</ele>
        <time>2021-07-02T08:03:10Z</time>
      </trkpt>
      <trkpt lat="42.265762" lon="2.162076">
        <ele>815.92908</ele>
        <time>2021-07-02T08:03:11Z</time>
      </trkpt>
      <trkpt lat="42.265835" lon="2.161900">
        <ele>816.31946</ele>
        <time>2021-07-02T08:03:12Z</time>
      </trkpt>
      <trkpt lat="42.265911" lon="2.161707">
        <ele>816.73639</ele>
        <time>2021-07-02T08:03:13Z</time>
      </trkpt>
      <trkpt lat="42.265999" lon="2.161529">
        <ele>817.52228</ele>
        <time>2021-07-02T08:03:14Z</time>
      </trkpt>
      <trkpt lat="42.266098" lon="2.161349">
        <ele>817.49219</ele>
        <time>2021-07-02T08:03:15Z</time>
      </trkpt>
      <trkpt lat="42.266224" lon="2.161170">
        <ele>818.09467</ele>
        <time>2021-07-02T08:03:16Z</time>
      </trkpt>
      <trkpt lat="42.266380" lon="2.161004">
        <ele>817.74066</ele>
        <time>2021-07-02T08:03:17Z</time>
      </trkpt>
      <trkpt lat="42.266552" lon="2.160840">
        <ele>819.06818</ele>
        <time>2021-07-02T08:03:18Z</time>
      </trkpt>
      <trkpt lat="42.266731" lon="2.160710">
        <ele>819.33160</ele>
        <time>2021-07-02T08:03:19Z</time>
      </trkpt>
      <trkpt lat="42.266914" lon="2.160603">
        <ele>819.64679</ele>
        <time>2021-07-02T08:03:20Z</time>
      </trkpt>
      <trkpt lat="42.267101" lon="2.160513">
        <ele>819.91290</ele>
        <time>2021-07-02T08:03:21Z</time>
      </trkpt>
      <trkpt lat="42.267307" lon="2.160415">
        <ele>820.83453</ele>
        <time>2021-07-02T08:03:22Z</time>
      </trkpt>
      <trkpt lat="42.267506" lon="2.160321">
        <ele>821.42780</ele>
        <time>2021-07-02T08:03:23Z</time>
      </trkpt>
      <trkpt lat="42.267693" lon="2.160215">
        <ele>821.39349</ele>
        <time>2021-07-02T08:03:24Z</time>
      </trkpt>
      <trkpt lat="42.267879" lon="2.160109">
        <ele>821.53693</ele>
        <time>2021-07-02T08:03:25Z</time>
      </trkpt>
      <trkpt lat="42.268051" lon="2.160009">
        <ele>822.30328</ele>
        <time>2021-07-02T08:03:26Z</time>
      </trkpt>
      <trkpt lat="42.268234" lon="2.159905">
        <ele>823.27936</ele>
        <time>2021-07-02T08:03:27Z</time>
      </trkpt>
      <trkpt lat="42.268417" lon="2.159801">
        <ele>824.82843</ele>
        <time>2021-07-02T08:03:28Z</time>
      </trkpt>
      <trkpt lat="42.268593" lon="2.159711">
        <ele>825.84100</ele>
        <time>2021-07-02T08:03:29Z</time>
      </trkpt>
      <trkpt lat="42.268791" lon="2.159609">
        <ele>826.45905</ele>
        <time>2021-07-02T08:03:30Z</time>
      </trkpt>
      <trkpt lat="42.268997" lon="2.159521">
        <ele>826.56342</ele>
        <time>2021-07-02T08:03:31Z</time>
      </trkpt>
      <trkpt lat="42.269192" lon="2.159463">
        <ele>827.08844</ele>
        <time>2021-07-02T08:03:32Z</time>
      </trkpt>
      <trkpt lat="42.269386" lon="2.159412">
        <ele>827.28058</ele>
        <time>2021-07-02T08:03:33Z</time>
      </trkpt>
      <trkpt lat="42.269592" lon="2.159361">
        <ele>827.49005</ele>
        <time>2021-07-02T08:03:34Z</time>
      </trkpt>
      <trkpt lat="42.269802" lon="2.159309">
        <ele>827.54913</ele>
        <time>2021-07-02T08:03:35Z</time>
      </trkpt>
      <trkpt lat="42.269993" lon="2.159263">
        <ele>827.59723</ele>
        <time>2021-07-02T08:03:36Z</time>
      </trkpt>
      <trkpt lat="42.270172" lon="2.159221">
        <ele>830.29327</ele>
        <time>2021-07-02T08:03:37Z</time>
      </trkpt>
      <trkpt lat="42.270355" lon="2.159180">
        <ele>831.04889</ele>
        <time>2021-07-02T08:03:38Z</time>
      </trkpt>
      <trkpt lat="42.270355" lon="2.159180">
        <ele>827.46588</ele>
        <time>2021-07-02T08:03:39Z</time>
      </trkpt>
      <trkpt lat="42.270538" lon="2.159138">
        <ele>828.50519</ele>
        <time>2021-07-02T08:03:40Z</time>
      </trkpt>
      <trkpt lat="42.270737" lon="2.159140">
        <ele>831.07269</ele>
        <time>2021-07-02T08:03:41Z</time>
      </trkpt>
      <trkpt lat="42.270916" lon="2.159158">
        <ele>828.95563</ele>
        <time>2021-07-02T08:03:42Z</time>
      </trkpt>
      <trkpt lat="42.271103" lon="2.159189">
        <ele>829.24762</ele>
        <time>2021-07-02T08:03:43Z</time>
      </trkpt>
      <trkpt lat="42.271290" lon="2.159259">
        <ele>829.57648</ele>
        <time>2021-07-02T08:03:44Z</time>
      </trkpt>
      <trkpt lat="42.271465" lon="2.159361">
        <ele>833.68811</ele>
        <time>2021-07-02T08:03:45Z</time>
      </trkpt>
      <trkpt lat="42.271633" lon="2.159457">
        <ele>833.19092</ele>
        <time>2021-07-02T08:03:46Z</time>
      </trkpt>
      <trkpt lat="42.271786" lon="2.159525">
        <ele>831.81549</ele>
        <time>2021-07-02T08:03:47Z</time>
      </trkpt>
      <trkpt lat="42.271942" lon="2.159553">
        <ele>831.48468</ele>
        <time>2021-07-02T08:03:48Z</time>
      </trkpt>
      <trkpt lat="42.272106" lon="2.159525">
        <ele>832.44012</ele>
        <time>2021-07-02T08:03:49Z</time>
      </trkpt>
      <trkpt lat="42.272305" lon="2.159449">
        <ele>832.38495</ele>
        <time>2021-07-02T08:03:50Z</time>
      </trkpt>
      <trkpt lat="42.272488" lon="2.159367">
        <ele>833.42804</ele>
        <time>2021-07-02T08:03:51Z</time>
      </trkpt>
      <trkpt lat="42.272659" lon="2.159291">
        <ele>833.08270</ele>
        <time>2021-07-02T08:03:52Z</time>
      </trkpt>
      <trkpt lat="42.272827" lon="2.159217">
        <ele>832.87372</ele>
        <time>2021-07-02T08:03:53Z</time>
      </trkpt>
      <trkpt lat="42.272980" lon="2.159146">
        <ele>832.97839</ele>
        <time>2021-07-02T08:03:54Z</time>
      </trkpt>
      <trkpt lat="42.273132" lon="2.159099">
        <ele>833.01794</ele>
        <time>2021-07-02T08:03:55Z</time>
      </trkpt>
      <trkpt lat="42.273304" lon="2.159064">
        <ele>833.63330</ele>
        <time>2021-07-02T08:03:56Z</time>
      </trkpt>
      <trkpt lat="42.273453" lon="2.159083">
        <ele>833.73993</ele>
        <time>2021-07-02T08:03:57Z</time>
      </trkpt>
      <trkpt lat="42.273609" lon="2.159120">
        <ele>833.72278</ele>
        <time>2021-07-02T08:03:58Z</time>
      </trkpt>
      <trkpt lat="42.273777" lon="2.159187">
        <ele>833.79181</ele>
        <time>2021-07-02T08:03:59Z</time>
      </trkpt>
      <trkpt lat="42.273895" lon="2.159247">
        <ele>833.55402</ele>
        <time>2021-07-02T08:04:00Z</time>
      </trkpt>
      <trkpt lat="42.274002" lon="2.159320">
        <ele>833.82507</ele>
        <time>2021-07-02T08:04:01Z</time>
      </trkpt>
      <trkpt lat="42.274124" lon="2.159406">
        <ele>834.21698</ele>
        <time>2021-07-02T08:04:02Z</time>
      </trkpt>
      <trkpt lat="42.274250" lon="2.159512">
        <ele>835.24194</ele>
        <time>2021-07-02T08:04:03Z</time>
      </trkpt>
      <trkpt lat="42.274368" lon="2.159611">
        <ele>835.50183</ele>
        <time>2021-07-02T08:04:04Z</time>
      </trkpt>
      <trkpt lat="42.274506" lon="2.159724">
        <ele>835.81873</ele>
        <time>2021-07-02T08:04:05Z</time>
      </trkpt>
      <trkpt lat="42.274647" lon="2.159815">
        <ele>836.99701</ele>
        <time>2021-07-02T08:04:06Z</time>
      </trkpt>
      <trkpt lat="42.274799" lon="2.159867">
        <ele>837.66125</ele>
        <time>2021-07-02T08:04:07Z</time>
      </trkpt>
      <trkpt lat="42.274979" lon="2.159914">
        <ele>837.76294</ele>
        <time>2021-07-02T08:04:08Z</time>
      </trkpt>
      <trkpt lat="42.274979" lon="2.159914">
        <ele>837.94989</ele>
        <time>2021-07-02T08:04:09Z</time>
      </trkpt>
      <trkpt lat="42.275181" lon="2.159949">
        <ele>837.80219</ele>
        <time>2021-07-02T08:04:10Z</time>
      </trkpt>
      <trkpt lat="42.275333" lon="2.159976">
        <ele>837.89862</ele>
        <time>2021-07-02T08:04:11Z</time>
      </trkpt>
      <trkpt lat="42.275463" lon="2.159993">
        <ele>837.84998</ele>
        <time>2021-07-02T08:04:12Z</time>
      </trkpt>
      <trkpt lat="42.275616" lon="2.160002">
        <ele>838.56018</ele>
        <time>2021-07-02T08:04:13Z</time>
      </trkpt>
      <trkpt lat="42.275753" lon="2.159981">
        <ele>838.67969</ele>
        <time>2021-07-02T08:04:14Z</time>
      </trkpt>
      <trkpt lat="42.275883" lon="2.159954">
        <ele>838.89294</ele>
        <time>2021-07-02T08:04:15Z</time>
      </trkpt>
      <trkpt lat="42.276016" lon="2.159913">
        <ele>839.50433</ele>
        <time>2021-07-02T08:04:16Z</time>
      </trkpt>
      <trkpt lat="42.276161" lon="2.159867">
        <ele>839.68243</ele>
        <time>2021-07-02T08:04:17Z</time>
      </trkpt>
      <trkpt lat="42.276295" lon="2.159826">
        <ele>843.75153</ele>
        <time>2021-07-02T08:04:18Z</time>
      </trkpt>
      <trkpt lat="42.276440" lon="2.159780">
        <ele>843.67169</ele>
        <time>2021-07-02T08:04:19Z</time>
      </trkpt>
      <trkpt lat="42.276581" lon="2.159736">
        <ele>844.50177</ele>
        <time>2021-07-02T08:04:20Z</time>
      </trkpt>
      <trkpt lat="42.276730" lon="2.159690">
        <ele>845.11322</ele>
        <time>2021-07-02T08:04:21Z</time>
      </trkpt>
      <trkpt lat="42.276878" lon="2.159644">
        <ele>845.24200</ele>
        <time>2021-07-02T08:04:22Z</time>
      </trkpt>
      <trkpt lat="42.277058" lon="2.159593">
        <ele>843.16022</ele>
        <time>2021-07-02T08:04:23Z</time>
      </trkpt>
      <trkpt lat="42.277214" lon="2.159567">
        <ele>843.24518</ele>
        <time>2021-07-02T08:04:24Z</time>
      </trkpt>
      <trkpt lat="42.277363" lon="2.159543">
        <ele>843.32312</ele>
        <time>2021-07-02T08:04:25Z</time>
      </trkpt>
      <trkpt lat="42.277512" lon="2.159536">
        <ele>846.20331</ele>
        <time>2021-07-02T08:04:26Z</time>
      </trkpt>
      <trkpt lat="42.277668" lon="2.159534">
        <ele>846.77448</ele>
        <time>2021-07-02T08:04:27Z</time>
      </trkpt>
      <trkpt lat="42.277847" lon="2.159551">
        <ele>847.39191</ele>
        <time>2021-07-02T08:04:28Z</time>
      </trkpt>
      <trkpt lat="42.278019" lon="2.159568">
        <ele>846.45319</ele>
        <time>2021-07-02T08:04:29Z</time>
      </trkpt>
      <trkpt lat="42.278202" lon="2.159594">
        <ele>847.12543</ele>
        <time>2021-07-02T08:04:30Z</time>
      </trkpt>
      <trkpt lat="42.278385" lon="2.159628">
        <ele>847.73590</ele>
        <time>2021-07-02T08:04:31Z</time>
      </trkpt>
      <trkpt lat="42.278584" lon="2.159667">
        <ele>847.73932</ele>
        <time>2021-07-02T08:04:32Z</time>
      </trkpt>
      <trkpt lat="42.278767" lon="2.159703">
        <ele>847.98657</ele>
        <time>2021-07-02T08:04:33Z</time>
      </trkpt>
      <trkpt lat="42.278938" lon="2.159739">
        <ele>848.54871</ele>
        <time>2021-07-02T08:04:34Z</time>
      </trkpt>
      <trkpt lat="42.279102" lon="2.159776">
        <ele>848.77100</ele>
        <time>2021-07-02T08:04:35Z</time>
      </trkpt>
      <trkpt lat="42.279259" lon="2.159807">
        <ele>849.97717</ele>
        <time>2021-07-02T08:04:36Z</time>
      </trkpt>
      <trkpt lat="42.279446" lon="2.159815">
        <ele>850.85010</ele>
        <time>2021-07-02T08:04:37Z</time>
      </trkpt>
      <trkpt lat="42.279629" lon="2.159768">
        <ele>851.15460</ele>
        <time>2021-07-02T08:04:38Z</time>
      </trkpt>
      <trkpt lat="42.279629" lon="2.159768">
        <ele>849.88898</ele>
        <time>2021-07-02T08:04:39Z</time>
      </trkpt>
      <trkpt lat="42.279797" lon="2.159697">
        <ele>850.26495</ele>
        <time>2021-07-02T08:04:40Z</time>
      </trkpt>
      <trkpt lat="42.279976" lon="2.159610">
        <ele>850.51898</ele>
        <time>2021-07-02T08:04:41Z</time>
      </trkpt>
      <trkpt lat="42.280174" lon="2.159519">
        <ele>851.23248</ele>
        <time>2021-07-02T08:04:42Z</time>
      </trkpt>
      <trkpt lat="42.280369" lon="2.159439">
        <ele>852.13190</ele>
        <time>2021-07-02T08:04:43Z</time>
      </trkpt>
      <trkpt lat="42.280563" lon="2.159359">
        <ele>852.37433</ele>
        <time>2021-07-02T08:04:44Z</time>
      </trkpt>
      <trkpt lat="42.280762" lon="2.159282">
        <ele>852.62653</ele>
        <time>2021-07-02T08:04:45Z</time>
      </trkpt>
      <trkpt lat="42.280968" lon="2.159223">
        <ele>852.58380</ele>
        <time>2021-07-02T08:04:46Z</time>
      </trkpt>
      <trkpt lat="42.281174" lon="2.159203">
        <ele>852.82306</ele>
        <time>2021-07-02T08:04:47Z</time>
      </trkpt>
      <trkpt lat="42.281376" lon="2.159237">
        <ele>853.20636</ele>
        <time>2021-07-02T08:04:48Z</time>
      </trkpt>
      <trkpt lat="42.281574" lon="2.159288">
        <ele>853.50006</ele>
        <time>2021-07-02T08:04:49Z</time>
      </trkpt>
      <trkpt lat="42.281776" lon="2.159371">
        <ele>854.63043</ele>
        <time>2021-07-02T08:04:50Z</time>
      </trkpt>
      <trkpt lat="42.281956" lon="2.159445">
        <ele>855.59186</ele>
        <time>2021-07-02T08:04:51Z</time>
      </trkpt>
      <trkpt lat="42.282139" lon="2.159484">
        <ele>855.60406</ele>
        <time>2021-07-02T08:04:52Z</time>
      </trkpt>
      <trkpt lat="42.282330" lon="2.159487">
        <ele>856.16730</ele>
        <time>2021-07-02T08:04:53Z</time>
      </trkpt>
      <trkpt lat="42.282528" lon="2.159465">
        <ele>858.45392</ele>
        <time>2021-07-02T08:04:54Z</time>
      </trkpt>
      <trkpt lat="42.282711" lon="2.159436">
        <ele>858.01746</ele>
        <time>2021-07-02T08:04:55Z</time>
      </trkpt>
      <trkpt lat="42.282875" lon="2.159410">
        <ele>857.19971</ele>
        <time>2021-07-02T08:04:56Z</time>
      </trkpt>
      <trkpt lat="42.283035" lon="2.159385">
        <ele>857.19318</ele>
        <time>2021-07-02T08:04:57Z</time>
      </trkpt>
      <trkpt lat="42.283192" lon="2.159356">
        <ele>857.48370</ele>
        <time>2021-07-02T08:04:58Z</time>
      </trkpt>
      <trkpt lat="42.283348" lon="2.159300">
        <ele>858.12848</ele>
        <time>2021-07-02T08:04:59Z</time>
      </trkpt>
      <trkpt lat="42.283508" lon="2.159225">
        <ele>858.93481</ele>
        <time>2021-07-02T08:05:00Z</time>
      </trkpt>
      <trkpt lat="42.283665" lon="2.159115">
        <ele>857.91339</ele>
        <time>2021-07-02T08:05:01Z</time>
      </trkpt>
      <trkpt lat="42.283855" lon="2.158982">
        <ele>860.39825</ele>
        <time>2021-07-02T08:05:02Z</time>
      </trkpt>
      <trkpt lat="42.284027" lon="2.158868">
        <ele>860.86206</ele>
        <time>2021-07-02T08:05:03Z</time>
      </trkpt>
      <trkpt lat="42.284195" lon="2.158802">
        <ele>861.18018</ele>
        <time>2021-07-02T08:05:04Z</time>
      </trkpt>
      <trkpt lat="42.284370" lon="2.158799">
        <ele>861.54230</ele>
        <time>2021-07-02T08:05:05Z</time>
      </trkpt>
      <trkpt lat="42.284550" lon="2.158856">
        <ele>857.91583</ele>
        <time>2021-07-02T08:05:06Z</time>
      </trkpt>
      <trkpt lat="42.284725" lon="2.158980">
        <ele>857.99969</ele>
        <time>2021-07-02T08:05:07Z</time>
      </trkpt>
      <trkpt lat="42.284725" lon="2.158980">
        <ele>857.82367</ele>
        <time>2021-07-02T08:05:08Z</time>
      </trkpt>
      <trkpt lat="42.284893" lon="2.159136">
        <ele>858.44122</ele>
        <time>2021-07-02T08:05:09Z</time>
      </trkpt>
      <trkpt lat="42.285240" lon="2.159458">
        <ele>858.67950</ele>
        <time>2021-07-02T08:05:10Z</time>
      </trkpt>
      <trkpt lat="42.285240" lon="2.159458">
        <ele>863.31335</ele>
        <time>2021-07-02T08:05:11Z</time>
      </trkpt>
      <trkpt lat="42.285370" lon="2.159581">
        <ele>862.71429</ele>
        <time>2021-07-02T08:05:12Z</time>
      </trkpt>
      <trkpt lat="42.285503" lon="2.159706">
        <ele>863.00494</ele>
        <time>2021-07-02T08:05:13Z</time>
      </trkpt>
      <trkpt lat="42.285633" lon="2.159824">
        <ele>862.97357</ele>
        <time>2021-07-02T08:05:14Z</time>
      </trkpt>
      <trkpt lat="42.285763" lon="2.159933">
        <ele>862.94684</ele>
        <time>2021-07-02T08:05:15Z</time>
      </trkpt>
      <trkpt lat="42.285896" lon="2.160042">
        <ele>863.42694</ele>
        <time>2021-07-02T08:05:16Z</time>
      </trkpt>
      <trkpt lat="42.286030" lon="2.160151">
        <ele>863.78076</ele>
        <time>2021-07-02T08:05:17Z</time>
      </trkpt>
      <trkpt lat="42.286171" lon="2.160251">
        <ele>864.08026</ele>
        <time>2021-07-02T08:05:18Z</time>
      </trkpt>
      <trkpt lat="42.286324" lon="2.160330">
        <ele>864.22162</ele>
        <time>2021-07-02T08:05:19Z</time>
      </trkpt>
      <trkpt lat="42.286453" lon="2.160392">
        <ele>864.40240</ele>
        <time>2021-07-02T08:05:20Z</time>
      </trkpt>
      <trkpt lat="42.286572" lon="2.160429">
        <ele>864.31500</ele>
        <time>2021-07-02T08:05:21Z</time>
      </trkpt>
      <trkpt lat="42.286701" lon="2.160460">
        <ele>864.78699</ele>
        <time>2021-07-02T08:05:22Z</time>
      </trkpt>
      <trkpt lat="42.286842" lon="2.160484">
        <ele>865.33569</ele>
        <time>2021-07-02T08:05:23Z</time>
      </trkpt>
      <trkpt lat="42.286983" lon="2.160495">
        <ele>865.50983</ele>
        <time>2021-07-02T08:05:24Z</time>
      </trkpt>
      <trkpt lat="42.287132" lon="2.160483">
        <ele>865.75598</ele>
        <time>2021-07-02T08:05:25Z</time>
      </trkpt>
      <trkpt lat="42.287273" lon="2.160453">
        <ele>866.33270</ele>
        <time>2021-07-02T08:05:26Z</time>
      </trkpt>
      <trkpt lat="42.287418" lon="2.160413">
        <ele>866.45599</ele>
        <time>2021-07-02T08:05:27Z</time>
      </trkpt>
      <trkpt lat="42.287567" lon="2.160370">
        <ele>867.17725</ele>
        <time>2021-07-02T08:05:28Z</time>
      </trkpt>
      <trkpt lat="42.287724" lon="2.160325">
        <ele>867.24988</ele>
        <time>2021-07-02T08:05:29Z</time>
      </trkpt>
      <trkpt lat="42.287880" lon="2.160280">
        <ele>868.33411</ele>
        <time>2021-07-02T08:05:30Z</time>
      </trkpt>
      <trkpt lat="42.288040" lon="2.160230">
        <ele>868.54034</ele>
        <time>2021-07-02T08:05:31Z</time>
      </trkpt>
      <trkpt lat="42.288219" lon="2.160174">
        <ele>869.44849</ele>
        <time>2021-07-02T08:05:32Z</time>
      </trkpt>
      <trkpt lat="42.288399" lon="2.160119">
        <ele>869.32318</ele>
        <time>2021-07-02T08:05:33Z</time>
      </trkpt>
      <trkpt lat="42.288589" lon="2.160064">
        <ele>866.30621</ele>
        <time>2021-07-02T08:05:34Z</time>
      </trkpt>
      <trkpt lat="42.288776" lon="2.160031">
        <ele>866.44635</ele>
        <time>2021-07-02T08:05:35Z</time>
      </trkpt>
      <trkpt lat="42.288982" lon="2.160063">
        <ele>866.80255</ele>
        <time>2021-07-02T08:05:36Z</time>
      </trkpt>
      <trkpt lat="42.289185" lon="2.160139">
        <ele>866.86920</ele>
        <time>2021-07-02T08:05:37Z</time>
      </trkpt>
      <trkpt lat="42.289413" lon="2.160247">
        <ele>867.81451</ele>
        <time>2021-07-02T08:05:38Z</time>
      </trkpt>
      <trkpt lat="42.289616" lon="2.160358">
        <ele>868.18024</ele>
        <time>2021-07-02T08:05:39Z</time>
      </trkpt>
      <trkpt lat="42.289803" lon="2.160462">
        <ele>868.40216</ele>
        <time>2021-07-02T08:05:40Z</time>
      </trkpt>
      <trkpt lat="42.289982" lon="2.160596">
        <ele>868.97101</ele>
        <time>2021-07-02T08:05:41Z</time>
      </trkpt>
      <trkpt lat="42.290150" lon="2.160718">
        <ele>873.90027</ele>
        <time>2021-07-02T08:05:42Z</time>
      </trkpt>
      <trkpt lat="42.290306" lon="2.160773">
        <ele>870.35236</ele>
        <time>2021-07-02T08:05:43Z</time>
      </trkpt>
      <trkpt lat="42.290485" lon="2.160789">
        <ele>871.56390</ele>
        <time>2021-07-02T08:05:44Z</time>
      </trkpt>
      <trkpt lat="42.290703" lon="2.160806">
        <ele>876.44879</ele>
        <time>2021-07-02T08:05:45Z</time>
      </trkpt>
      <trkpt lat="42.290897" lon="2.160822">
        <ele>876.64362</ele>
        <time>2021-07-02T08:05:46Z</time>
      </trkpt>
      <trkpt lat="42.290897" lon="2.160822">
        <ele>871.85687</ele>
        <time>2021-07-02T08:05:47Z</time>
      </trkpt>
      <trkpt lat="42.291069" lon="2.160836">
        <ele>872.99713</ele>
        <time>2021-07-02T08:05:48Z</time>
      </trkpt>
      <trkpt lat="42.291267" lon="2.160852">
        <ele>873.13202</ele>
        <time>2021-07-02T08:05:49Z</time>
      </trkpt>
      <trkpt lat="42.291470" lon="2.160855">
        <ele>874.26251</ele>
        <time>2021-07-02T08:05:50Z</time>
      </trkpt>
      <trkpt lat="42.291660" lon="2.160800">
        <ele>874.53864</ele>
        <time>2021-07-02T08:05:51Z</time>
      </trkpt>
      <trkpt lat="42.291862" lon="2.160724">
        <ele>874.72467</ele>
        <time>2021-07-02T08:05:52Z</time>
      </trkpt>
      <trkpt lat="42.292049" lon="2.160681">
        <ele>874.95575</ele>
        <time>2021-07-02T08:05:53Z</time>
      </trkpt>
      <trkpt lat="42.292233" lon="2.160690">
        <ele>874.82892</ele>
        <time>2021-07-02T08:05:54Z</time>
      </trkpt>
      <trkpt lat="42.292435" lon="2.160754">
        <ele>874.54108</ele>
        <time>2021-07-02T08:05:55Z</time>
      </trkpt>
      <trkpt lat="42.292637" lon="2.160852">
        <ele>874.92633</ele>
        <time>2021-07-02T08:05:56Z</time>
      </trkpt>
      <trkpt lat="42.292820" lon="2.160961">
        <ele>875.12030</ele>
        <time>2021-07-02T08:05:57Z</time>
      </trkpt>
      <trkpt lat="42.292988" lon="2.161094">
        <ele>875.29095</ele>
        <time>2021-07-02T08:05:58Z</time>
      </trkpt>
      <trkpt lat="42.293156" lon="2.161242">
        <ele>875.92706</ele>
        <time>2021-07-02T08:05:59Z</time>
      </trkpt>
      <trkpt lat="42.293301" lon="2.161397">
        <ele>876.76422</ele>
        <time>2021-07-02T08:06:00Z</time>
      </trkpt>
      <trkpt lat="42.293430" lon="2.161549">
        <ele>881.60889</ele>
        <time>2021-07-02T08:06:01Z</time>
      </trkpt>
      <trkpt lat="42.293571" lon="2.161733">
        <ele>881.26520</ele>
        <time>2021-07-02T08:06:02Z</time>
      </trkpt>
      <trkpt lat="42.293690" lon="2.161929">
        <ele>880.94275</ele>
        <time>2021-07-02T08:06:03Z</time>
      </trkpt>
      <trkpt lat="42.293808" lon="2.162126">
        <ele>881.47296</ele>
        <time>2021-07-02T08:06:04Z</time>
      </trkpt>
      <trkpt lat="42.293907" lon="2.162338">
        <ele>881.30249</ele>
        <time>2021-07-02T08:06:05Z</time>
      </trkpt>
      <trkpt lat="42.293999" lon="2.162555">
        <ele>881.70874</ele>
        <time>2021-07-02T08:06:06Z</time>
      </trkpt>
      <trkpt lat="42.294083" lon="2.162783">
        <ele>882.01239</ele>
        <time>2021-07-02T08:06:07Z</time>
      </trkpt>
      <trkpt lat="42.294151" lon="2.163013">
        <ele>882.17358</ele>
        <time>2021-07-02T08:06:08Z</time>
      </trkpt>
      <trkpt lat="42.294212" lon="2.163241">
        <ele>882.24811</ele>
        <time>2021-07-02T08:06:09Z</time>
      </trkpt>
      <trkpt lat="42.294273" lon="2.163451">
        <ele>882.23248</ele>
        <time>2021-07-02T08:06:10Z</time>
      </trkpt>
      <trkpt lat="42.294338" lon="2.163639">
        <ele>882.11243</ele>
        <time>2021-07-02T08:06:11Z</time>
      </trkpt>
      <trkpt lat="42.294407" lon="2.163810">
        <ele>881.98279</ele>
        <time>2021-07-02T08:06:12Z</time>
      </trkpt>
      <trkpt lat="42.294476" lon="2.163979">
        <ele>882.47552</ele>
        <time>2021-07-02T08:06:13Z</time>
      </trkpt>
      <trkpt lat="42.294552" lon="2.164154">
        <ele>882.74677</ele>
        <time>2021-07-02T08:06:14Z</time>
      </trkpt>
      <trkpt lat="42.294552" lon="2.164154">
        <ele>883.07062</ele>
        <time>2021-07-02T08:06:15Z</time>
      </trkpt>
      <trkpt lat="42.294636" lon="2.164326">
        <ele>883.32782</ele>
        <time>2021-07-02T08:06:16Z</time>
      </trkpt>
      <trkpt lat="42.294746" lon="2.164492">
        <ele>883.80347</ele>
        <time>2021-07-02T08:06:17Z</time>
      </trkpt>
      <trkpt lat="42.294907" lon="2.164645">
        <ele>884.30945</ele>
        <time>2021-07-02T08:06:18Z</time>
      </trkpt>
      <trkpt lat="42.295074" lon="2.164737">
        <ele>883.57623</ele>
        <time>2021-07-02T08:06:19Z</time>
      </trkpt>
      <trkpt lat="42.295265" lon="2.164810">
        <ele>884.67560</ele>
        <time>2021-07-02T08:06:20Z</time>
      </trkpt>
      <trkpt lat="42.295464" lon="2.164877">
        <ele>885.57355</ele>
        <time>2021-07-02T08:06:21Z</time>
      </trkpt>
      <trkpt lat="42.295658" lon="2.164936">
        <ele>886.57764</ele>
        <time>2021-07-02T08:06:22Z</time>
      </trkpt>
      <trkpt lat="42.295837" lon="2.164991">
        <ele>886.57715</ele>
        <time>2021-07-02T08:06:23Z</time>
      </trkpt>
      <trkpt lat="42.296009" lon="2.165043">
        <ele>887.20239</ele>
        <time>2021-07-02T08:06:24Z</time>
      </trkpt>
      <trkpt lat="42.296177" lon="2.165095">
        <ele>887.38531</ele>
        <time>2021-07-02T08:06:25Z</time>
      </trkpt>
      <trkpt lat="42.296364" lon="2.165151">
        <ele>888.13214</ele>
        <time>2021-07-02T08:06:26Z</time>
      </trkpt>
      <trkpt lat="42.296570" lon="2.165213">
        <ele>888.50275</ele>
        <time>2021-07-02T08:06:27Z</time>
      </trkpt>
      <trkpt lat="42.296753" lon="2.165252">
        <ele>889.23370</ele>
        <time>2021-07-02T08:06:28Z</time>
      </trkpt>
      <trkpt lat="42.296940" lon="2.165277">
        <ele>889.49219</ele>
        <time>2021-07-02T08:06:29Z</time>
      </trkpt>
      <trkpt lat="42.297115" lon="2.165300">
        <ele>889.59851</ele>
        <time>2021-07-02T08:06:30Z</time>
      </trkpt>
      <trkpt lat="42.297287" lon="2.165323">
        <ele>889.66730</ele>
        <time>2021-07-02T08:06:31Z</time>
      </trkpt>
      <trkpt lat="42.297459" lon="2.165345">
        <ele>889.46490</ele>
        <time>2021-07-02T08:06:32Z</time>
      </trkpt>
      <trkpt lat="42.297642" lon="2.165369">
        <ele>889.73962</ele>
        <time>2021-07-02T08:06:33Z</time>
      </trkpt>
      <trkpt lat="42.297817" lon="2.165392">
        <ele>889.82745</ele>
        <time>2021-07-02T08:06:34Z</time>
      </trkpt>
      <trkpt lat="42.297970" lon="2.165411">
        <ele>889.97021</ele>
        <time>2021-07-02T08:06:35Z</time>
      </trkpt>
      <trkpt lat="42.298100" lon="2.165428">
        <ele>890.05414</ele>
        <time>2021-07-02T08:06:36Z</time>
      </trkpt>
      <trkpt lat="42.298248" lon="2.165455">
        <ele>890.82074</ele>
        <time>2021-07-02T08:06:37Z</time>
      </trkpt>
      <trkpt lat="42.298420" lon="2.165512">
        <ele>891.82910</ele>
        <time>2021-07-02T08:06:38Z</time>
      </trkpt>
      <trkpt lat="42.298565" lon="2.165612">
        <ele>892.11462</ele>
        <time>2021-07-02T08:06:39Z</time>
      </trkpt>
      <trkpt lat="42.298725" lon="2.165737">
        <ele>892.73730</ele>
        <time>2021-07-02T08:06:40Z</time>
      </trkpt>
      <trkpt lat="42.298866" lon="2.165850">
        <ele>892.89728</ele>
        <time>2021-07-02T08:06:41Z</time>
      </trkpt>
      <trkpt lat="42.298977" lon="2.165936">
        <ele>892.91138</ele>
        <time>2021-07-02T08:06:42Z</time>
      </trkpt>
      <trkpt lat="42.299088" lon="2.166022">
        <ele>892.86945</ele>
        <time>2021-07-02T08:06:43Z</time>
      </trkpt>
      <trkpt lat="42.299183" lon="2.166094">
        <ele>893.28308</ele>
        <time>2021-07-02T08:06:44Z</time>
      </trkpt>
      <trkpt lat="42.299274" lon="2.166155">
        <ele>893.44177</ele>
        <time>2021-07-02T08:06:45Z</time>
      </trkpt>
      <trkpt lat="42.299362" lon="2.166205">
        <ele>893.53577</ele>
        <time>2021-07-02T08:06:46Z</time>
      </trkpt>
      <trkpt lat="42.299473" lon="2.166248">
        <ele>894.16498</ele>
        <time>2021-07-02T08:06:47Z</time>
      </trkpt>
      <trkpt lat="42.299583" lon="2.166284">
        <ele>894.36322</ele>
        <time>2021-07-02T08:06:48Z</time>
      </trkpt>
      <trkpt lat="42.299583" lon="2.166284">
        <ele>894.61884</ele>
        <time>2021-07-02T08:06:49Z</time>
      </trkpt>
      <trkpt lat="42.299690" lon="2.166319">
        <ele>894.81763</ele>
        <time>2021-07-02T08:06:50Z</time>
      </trkpt>
      <trkpt lat="42.299782" lon="2.166347">
        <ele>895.03412</ele>
        <time>2021-07-02T08:06:51Z</time>
      </trkpt>
      <trkpt lat="42.299870" lon="2.166373">
        <ele>895.33569</ele>
        <time>2021-07-02T08:06:52Z</time>
      </trkpt>
      <trkpt lat="42.299969" lon="2.166400">
        <ele>895.68567</ele>
        <time>2021-07-02T08:06:53Z</time>
      </trkpt>
      <trkpt lat="42.300060" lon="2.166427">
        <ele>895.70587</ele>
        <time>2021-07-02T08:06:54Z</time>
      </trkpt>
      <trkpt lat="42.300156" lon="2.166454">
        <ele>895.80518</ele>
        <time>2021-07-02T08:06:55Z</time>
      </trkpt>
      <trkpt lat="42.300232" lon="2.166477">
        <ele>895.95715</ele>
        <time>2021-07-02T08:06:56Z</time>
      </trkpt>
      <trkpt lat="42.300293" lon="2.166494">
        <ele>896.14032</ele>
        <time>2021-07-02T08:06:57Z</time>
      </trkpt>
      <trkpt lat="42.300331" lon="2.166507">
        <ele>896.21185</ele>
        <time>2021-07-02T08:06:58Z</time>
      </trkpt>
      <trkpt lat="42.300377" lon="2.166520">
        <ele>896.55292</ele>
        <time>2021-07-02T08:06:59Z</time>
      </trkpt>
      <trkpt lat="42.300434" lon="2.166537">
        <ele>897.11212</ele>
        <time>2021-07-02T08:07:00Z</time>
      </trkpt>
      <trkpt lat="42.300514" lon="2.166561">
        <ele>897.18787</ele>
        <time>2021-07-02T08:07:01Z</time>
      </trkpt>
      <trkpt lat="42.300610" lon="2.166588">
        <ele>897.39807</ele>
        <time>2021-07-02T08:07:02Z</time>
      </trkpt>
      <trkpt lat="42.300697" lon="2.166617">
        <ele>897.45276</ele>
        <time>2021-07-02T08:07:03Z</time>
      </trkpt>
      <trkpt lat="42.300785" lon="2.166652">
        <ele>897.26099</ele>
        <time>2021-07-02T08:07:04Z</time>
      </trkpt>
      <trkpt lat="42.300865" lon="2.166690">
        <ele>897.16644</ele>
        <time>2021-07-02T08:07:05Z</time>
      </trkpt>
      <trkpt lat="42.300922" lon="2.166718">
        <ele>897.26038</ele>
        <time>2021-07-02T08:07:06Z</time>
      </trkpt>
      <trkpt lat="42.300968" lon="2.166741">
        <ele>897.19440</ele>
        <time>2021-07-02T08:07:07Z</time>
      </trkpt>
      <trkpt lat="42.301048" lon="2.166780">
        <ele>897.13342</ele>
        <time>2021-07-02T08:07:08Z</time>
      </trkpt>
      <trkpt lat="42.301105" lon="2.166806">
        <ele>897.08545</ele>
        <time>2021-07-02T08:07:09Z</time>
      </trkpt>
      <trkpt lat="42.301170" lon="2.166836">
        <ele>897.23035</ele>
        <time>2021-07-02T08:07:10Z</time>
      </trkpt>
      <trkpt lat="42.301247" lon="2.166869">
        <ele>897.19751</ele>
        <time>2021-07-02T08:07:11Z</time>
      </trkpt>
      <trkpt lat="42.301319" lon="2.166901">
        <ele>897.15192</ele>
        <time>2021-07-02T08:07:12Z</time>
      </trkpt>
      <trkpt lat="42.301395" lon="2.166928">
        <ele>897.15564</ele>
        <time>2021-07-02T08:07:13Z</time>
      </trkpt>
      <trkpt lat="42.301468" lon="2.166937">
        <ele>897.05237</ele>
        <time>2021-07-02T08:07:14Z</time>
      </trkpt>
      <trkpt lat="42.301529" lon="2.166931">
        <ele>897.16571</ele>
        <time>2021-07-02T08:07:15Z</time>
      </trkpt>
      <trkpt lat="42.301601" lon="2.166915">
        <ele>897.15082</ele>
        <time>2021-07-02T08:07:16Z</time>
      </trkpt>
      <trkpt lat="42.301682" lon="2.166891">
        <ele>897.35809</ele>
        <time>2021-07-02T08:07:17Z</time>
      </trkpt>
      <trkpt lat="42.301682" lon="2.166891">
        <ele>900.99512</ele>
        <time>2021-07-02T08:07:18Z</time>
      </trkpt>
      <trkpt lat="42.301781" lon="2.166852">
        <ele>896.40485</ele>
        <time>2021-07-02T08:07:19Z</time>
      </trkpt>
      <trkpt lat="42.301868" lon="2.166818">
        <ele>896.73853</ele>
        <time>2021-07-02T08:07:20Z</time>
      </trkpt>
      <trkpt lat="42.301868" lon="2.166817">
        <ele>896.69342</ele>
        <time>2021-07-02T08:07:21Z</time>
      </trkpt>
      <trkpt lat="42.301868" lon="2.166817">
        <ele>896.84833</ele>
        <time>2021-07-02T08:07:22Z</time>
      </trkpt>
      <trkpt lat="42.302036" lon="2.166742">
        <ele>896.92346</ele>
        <time>2021-07-02T08:07:23Z</time>
      </trkpt>
      <trkpt lat="42.302250" lon="2.166644">
        <ele>896.73553</ele>
        <time>2021-07-02T08:07:24Z</time>
      </trkpt>
      <trkpt lat="42.302341" lon="2.166604">
        <ele>896.76135</ele>
        <time>2021-07-02T08:07:25Z</time>
      </trkpt>
      <trkpt lat="42.302444" lon="2.166558">
        <ele>896.72412</ele>
        <time>2021-07-02T08:07:26Z</time>
      </trkpt>
      <trkpt lat="42.302444" lon="2.166558">
        <ele>896.44611</ele>
        <time>2021-07-02T08:07:27Z</time>
      </trkpt>
      <trkpt lat="42.302593" lon="2.166490">
        <ele>896.27863</ele>
        <time>2021-07-02T08:07:28Z</time>
      </trkpt>
      <trkpt lat="42.302685" lon="2.166461">
        <ele>896.41553</ele>
        <time>2021-07-02T08:07:29Z</time>
      </trkpt>
      <trkpt lat="42.302792" lon="2.166452">
        <ele>896.28064</ele>
        <time>2021-07-02T08:07:30Z</time>
      </trkpt>
      <trkpt lat="42.302887" lon="2.166470">
        <ele>896.08179</ele>
        <time>2021-07-02T08:07:31Z</time>
      </trkpt>
      <trkpt lat="42.302971" lon="2.166489">
        <ele>895.88275</ele>
        <time>2021-07-02T08:07:32Z</time>
      </trkpt>
      <trkpt lat="42.302971" lon="2.166489">
        <ele>895.89728</ele>
        <time>2021-07-02T08:07:33Z</time>
      </trkpt>
      <trkpt lat="42.302971" lon="2.166489">
        <ele>895.90594</ele>
        <time>2021-07-02T08:07:34Z</time>
      </trkpt>
      <trkpt lat="42.302971" lon="2.166489">
        <ele>896.19806</ele>
        <time>2021-07-02T08:07:35Z</time>
      </trkpt>
      <trkpt lat="42.303013" lon="2.166500">
        <ele>896.28156</ele>
        <time>2021-07-02T08:07:36Z</time>
      </trkpt>
      <trkpt lat="42.303288" lon="2.166575">
        <ele>896.49567</ele>
        <time>2021-07-02T08:07:37Z</time>
      </trkpt>
      <trkpt lat="42.303345" lon="2.166590">
        <ele>896.62085</ele>
        <time>2021-07-02T08:07:38Z</time>
      </trkpt>
      <trkpt lat="42.303345" lon="2.166590">
        <ele>896.77563</ele>
        <time>2021-07-02T08:07:39Z</time>
      </trkpt>
      <trkpt lat="42.303345" lon="2.166590">
        <ele>897.04529</ele>
        <time>2021-07-02T08:07:40Z</time>
      </trkpt>
      <trkpt lat="42.303535" lon="2.166642">
        <ele>897.33716</ele>
        <time>2021-07-02T08:07:41Z</time>
      </trkpt>
      <trkpt lat="42.303623" lon="2.166666">
        <ele>897.49231</ele>
        <time>2021-07-02T08:07:42Z</time>
      </trkpt>
      <trkpt lat="42.303707" lon="2.166689">
        <ele>897.66870</ele>
        <time>2021-07-02T08:07:43Z</time>
      </trkpt>
      <trkpt lat="42.303783" lon="2.166709">
        <ele>897.90430</ele>
        <time>2021-07-02T08:07:44Z</time>
      </trkpt>
      <trkpt lat="42.303856" lon="2.166728">
        <ele>898.11383</ele>
        <time>2021-07-02T08:07:45Z</time>
      </trkpt>
      <trkpt lat="42.303944" lon="2.166752">
        <ele>898.30286</ele>
        <time>2021-07-02T08:07:46Z</time>
      </trkpt>
      <trkpt lat="42.304028" lon="2.166775">
        <ele>898.74493</ele>
        <time>2021-07-02T08:07:47Z</time>
      </trkpt>
      <trkpt lat="42.304115" lon="2.166799">
        <ele>899.01837</ele>
        <time>2021-07-02T08:07:48Z</time>
      </trkpt>
      <trkpt lat="42.304199" lon="2.166822">
        <ele>899.11035</ele>
        <time>2021-07-02T08:07:49Z</time>
      </trkpt>
      <trkpt lat="42.304298" lon="2.166849">
        <ele>899.57440</ele>
        <time>2021-07-02T08:07:50Z</time>
      </trkpt>
      <trkpt lat="42.304398" lon="2.166875">
        <ele>899.72699</ele>
        <time>2021-07-02T08:07:51Z</time>
      </trkpt>
      <trkpt lat="42.304478" lon="2.166896">
        <ele>899.95532</ele>
        <time>2021-07-02T08:07:52Z</time>
      </trkpt>
      <trkpt lat="42.304569" lon="2.166922">
        <ele>900.08026</ele>
        <time>2021-07-02T08:07:53Z</time>
      </trkpt>
      <trkpt lat="42.304672" lon="2.166949">
        <ele>900.14490</ele>
        <time>2021-07-02T08:07:54Z</time>
      </trkpt>
      <trkpt lat="42.304737" lon="2.166963">
        <ele>900.26056</ele>
        <time>2021-07-02T08:07:55Z</time>
      </trkpt>
      <trkpt lat="42.304817" lon="2.166978">
        <ele>900.30402</ele>
        <time>2021-07-02T08:07:56Z</time>
      </trkpt>
      <trkpt lat="42.304893" lon="2.166992">
        <ele>900.68610</ele>
        <time>2021-07-02T08:07:57Z</time>
      </trkpt>
      <trkpt lat="42.304962" lon="2.166993">
        <ele>900.82599</ele>
        <time>2021-07-02T08:07:58Z</time>
      </trkpt>
      <trkpt lat="42.305038" lon="2.166993">
        <ele>901.01556</ele>
        <time>2021-07-02T08:07:59Z</time>
      </trkpt>
      <trkpt lat="42.305122" lon="2.166993">
        <ele>901.09344</ele>
        <time>2021-07-02T08:08:00Z</time>
      </trkpt>
      <trkpt lat="42.305202" lon="2.166992">
        <ele>901.03680</ele>
        <time>2021-07-02T08:08:01Z</time>
      </trkpt>
      <trkpt lat="42.305256" lon="2.166992">
        <ele>900.98901</ele>
        <time>2021-07-02T08:08:02Z</time>
      </trkpt>
      <trkpt lat="42.305313" lon="2.166991">
        <ele>900.96307</ele>
        <time>2021-07-02T08:08:03Z</time>
      </trkpt>
      <trkpt lat="42.305374" lon="2.166990">
        <ele>901.03339</ele>
        <time>2021-07-02T08:08:04Z</time>
      </trkpt>
      <trkpt lat="42.305431" lon="2.166984">
        <ele>901.04462</ele>
        <time>2021-07-02T08:08:05Z</time>
      </trkpt>
      <trkpt lat="42.305504" lon="2.166976">
        <ele>901.15045</ele>
        <time>2021-07-02T08:08:06Z</time>
      </trkpt>
      <trkpt lat="42.305550" lon="2.166969">
        <ele>901.17255</ele>
        <time>2021-07-02T08:08:07Z</time>
      </trkpt>
      <trkpt lat="42.305607" lon="2.166960">
        <ele>901.24451</ele>
        <time>2021-07-02T08:08:08Z</time>
      </trkpt>
      <trkpt lat="42.305668" lon="2.166951">
        <ele>901.24951</ele>
        <time>2021-07-02T08:08:09Z</time>
      </trkpt>
      <trkpt lat="42.305706" lon="2.166945">
        <ele>901.34015</ele>
        <time>2021-07-02T08:08:10Z</time>
      </trkpt>
      <trkpt lat="42.305717" lon="2.166943">
        <ele>901.37494</ele>
        <time>2021-07-02T08:08:11Z</time>
      </trkpt>
      <trkpt lat="42.305744" lon="2.166939">
        <ele>901.43970</ele>
        <time>2021-07-02T08:08:12Z</time>
      </trkpt>
      <trkpt lat="42.305744" lon="2.166939">
        <ele>901.51282</ele>
        <time>2021-07-02T08:08:13Z</time>
      </trkpt>
      <trkpt lat="42.305771" lon="2.166935">
        <ele>901.78625</ele>
        <time>2021-07-02T08:08:14Z</time>
      </trkpt>
      <trkpt lat="42.305813" lon="2.166929">
        <ele>901.96552</ele>
        <time>2021-07-02T08:08:15Z</time>
      </trkpt>
      <trkpt lat="42.305859" lon="2.166920">
        <ele>902.10266</ele>
        <time>2021-07-02T08:08:16Z</time>
      </trkpt>
      <trkpt lat="42.305912" lon="2.166910">
        <ele>902.27734</ele>
        <time>2021-07-02T08:08:17Z</time>
      </trkpt>
      <trkpt lat="42.305965" lon="2.166900">
        <ele>902.22003</ele>
        <time>2021-07-02T08:08:18Z</time>
      </trkpt>
      <trkpt lat="42.306019" lon="2.166889">
        <ele>902.27753</ele>
        <time>2021-07-02T08:08:19Z</time>
      </trkpt>
      <trkpt lat="42.306072" lon="2.166880">
        <ele>902.32269</ele>
        <time>2021-07-02T08:08:20Z</time>
      </trkpt>
      <trkpt lat="42.306118" lon="2.166873">
        <ele>902.23822</ele>
        <time>2021-07-02T08:08:21Z</time>
      </trkpt>
      <trkpt lat="42.306137" lon="2.166870">
        <ele>902.28784</ele>
        <time>2021-07-02T08:08:22Z</time>
      </trkpt>
      <trkpt lat="42.306137" lon="2.166870">
        <ele>902.52441</ele>
        <time>2021-07-02T08:08:23Z</time>
      </trkpt>
      <trkpt lat="42.306137" lon="2.166870">
        <ele>902.95142</ele>
        <time>2021-07-02T08:08:24Z</time>
      </trkpt>
      <trkpt lat="42.306137" lon="2.166870">
        <ele>903.12775</ele>
        <time>2021-07-02T08:08:25Z</time>
      </trkpt>
      <trkpt lat="42.306168" lon="2.166801">
        <ele>903.33044</ele>
        <time>2021-07-02T08:08:26Z</time>
      </trkpt>
      <trkpt lat="42.306232" lon="2.166647">
        <ele>903.77539</ele>
        <time>2021-07-02T08:08:27Z</time>
      </trkpt>
      <trkpt lat="42.306461" lon="2.166683">
        <ele>904.13574</ele>
        <time>2021-07-02T08:08:28Z</time>
      </trkpt>
      <trkpt lat="42.306499" lon="2.166622">
        <ele>904.23657</ele>
        <time>2021-07-02T08:08:29Z</time>
      </trkpt>
      <trkpt lat="42.306545" lon="2.166556">
        <ele>904.48993</ele>
        <time>2021-07-02T08:08:30Z</time>
      </trkpt>
      <trkpt lat="42.306545" lon="2.166556">
        <ele>904.63623</ele>
        <time>2021-07-02T08:08:31Z</time>
      </trkpt>
      <trkpt lat="42.306545" lon="2.166556">
        <ele>904.63623</ele>
        <time>2021-07-02T08:08:32Z</time>
      </trkpt>
      <trkpt lat="42.306648" lon="2.166403">
        <ele>905.04260</ele>
        <time>2021-07-02T08:08:33Z</time>
      </trkpt>
      <trkpt lat="42.306694" lon="2.166331">
        <ele>905.23755</ele>
        <time>2021-07-02T08:08:34Z</time>
      </trkpt>
      <trkpt lat="42.306744" lon="2.166261">
        <ele>905.43616</ele>
        <time>2021-07-02T08:08:35Z</time>
      </trkpt>
      <trkpt lat="42.306782" lon="2.166202">
        <ele>905.58130</ele>
        <time>2021-07-02T08:08:36Z</time>
      </trkpt>
      <trkpt lat="42.306820" lon="2.166143">
        <ele>905.50598</ele>
        <time>2021-07-02T08:08:37Z</time>
      </trkpt>
      <trkpt lat="42.306862" lon="2.166084">
        <ele>905.98608</ele>
        <time>2021-07-02T08:08:38Z</time>
      </trkpt>
      <trkpt lat="42.306870" lon="2.166071">
        <ele>905.77448</ele>
        <time>2021-07-02T08:08:39Z</time>
      </trkpt>
      <trkpt lat="42.306870" lon="2.166071">
        <ele>906.01221</ele>
        <time>2021-07-02T08:08:40Z</time>
      </trkpt>
      <trkpt lat="42.306870" lon="2.166071">
        <ele>905.84546</ele>
        <time>2021-07-02T08:08:41Z</time>
      </trkpt>
      <trkpt lat="42.306889" lon="2.166043">
        <ele>905.94147</ele>
        <time>2021-07-02T08:08:42Z</time>
      </trkpt>
      <trkpt lat="42.306923" lon="2.165993">
        <ele>906.11646</ele>
        <time>2021-07-02T08:08:43Z</time>
      </trkpt>
      <trkpt lat="42.306965" lon="2.165930">
        <ele>906.29065</ele>
        <time>2021-07-02T08:08:44Z</time>
      </trkpt>
      <trkpt lat="42.307007" lon="2.165870">
        <ele>906.31311</ele>
        <time>2021-07-02T08:08:45Z</time>
      </trkpt>
      <trkpt lat="42.307045" lon="2.165815">
        <ele>906.49127</ele>
        <time>2021-07-02T08:08:46Z</time>
      </trkpt>
      <trkpt lat="42.307087" lon="2.165751">
        <ele>907.03192</ele>
        <time>2021-07-02T08:08:47Z</time>
      </trkpt>
      <trkpt lat="42.307152" lon="2.165660">
        <ele>906.99219</ele>
        <time>2021-07-02T08:08:48Z</time>
      </trkpt>
      <trkpt lat="42.307217" lon="2.165565">
        <ele>907.75244</ele>
        <time>2021-07-02T08:08:49Z</time>
      </trkpt>
      <trkpt lat="42.307240" lon="2.165528">
        <ele>908.14319</ele>
        <time>2021-07-02T08:08:50Z</time>
      </trkpt>
      <trkpt lat="42.307240" lon="2.165527">
        <ele>908.66852</ele>
        <time>2021-07-02T08:08:51Z</time>
      </trkpt>
      <trkpt lat="42.307297" lon="2.165431">
        <ele>908.99500</ele>
        <time>2021-07-02T08:08:52Z</time>
      </trkpt>
      <trkpt lat="42.307541" lon="2.165063">
        <ele>909.42261</ele>
        <time>2021-07-02T08:08:53Z</time>
      </trkpt>
      <trkpt lat="42.307632" lon="2.164927">
        <ele>910.32825</ele>
        <time>2021-07-02T08:08:54Z</time>
      </trkpt>
      <trkpt lat="42.307632" lon="2.164927">
        <ele>910.47314</ele>
        <time>2021-07-02T08:08:55Z</time>
      </trkpt>
      <trkpt lat="42.307743" lon="2.164764">
        <ele>910.46246</ele>
        <time>2021-07-02T08:08:56Z</time>
      </trkpt>
      <trkpt lat="42.307743" lon="2.164764">
        <ele>910.71045</ele>
        <time>2021-07-02T08:08:57Z</time>
      </trkpt>
      <trkpt lat="42.307919" lon="2.164507">
        <ele>910.58771</ele>
        <time>2021-07-02T08:08:58Z</time>
      </trkpt>
      <trkpt lat="42.307999" lon="2.164387">
        <ele>910.81342</ele>
        <time>2021-07-02T08:08:59Z</time>
      </trkpt>
      <trkpt lat="42.308067" lon="2.164287">
        <ele>912.22229</ele>
        <time>2021-07-02T08:09:00Z</time>
      </trkpt>
      <trkpt lat="42.308121" lon="2.164193">
        <ele>913.24121</ele>
        <time>2021-07-02T08:09:01Z</time>
      </trkpt>
      <trkpt lat="42.308193" lon="2.164003">
        <ele>914.23749</ele>
        <time>2021-07-02T08:09:02Z</time>
      </trkpt>
      <trkpt lat="42.308262" lon="2.163747">
        <ele>918.09851</ele>
        <time>2021-07-02T08:09:03Z</time>
      </trkpt>
      <trkpt lat="42.308331" lon="2.163493">
        <ele>918.40991</ele>
        <time>2021-07-02T08:09:04Z</time>
      </trkpt>
      <trkpt lat="42.308403" lon="2.163211">
        <ele>918.81421</ele>
        <time>2021-07-02T08:09:05Z</time>
      </trkpt>
      <trkpt lat="42.308483" lon="2.162901">
        <ele>919.66785</ele>
        <time>2021-07-02T08:09:06Z</time>
      </trkpt>
      <trkpt lat="42.308552" lon="2.162613">
        <ele>920.41956</ele>
        <time>2021-07-02T08:09:07Z</time>
      </trkpt>
      <trkpt lat="42.308598" lon="2.162352">
        <ele>920.71960</ele>
        <time>2021-07-02T08:09:08Z</time>
      </trkpt>
      <trkpt lat="42.308643" lon="2.162116">
        <ele>920.50153</ele>
        <time>2021-07-02T08:09:09Z</time>
      </trkpt>
      <trkpt lat="42.308689" lon="2.161911">
        <ele>921.30499</ele>
        <time>2021-07-02T08:09:10Z</time>
      </trkpt>
      <trkpt lat="42.308762" lon="2.161695">
        <ele>921.93683</ele>
        <time>2021-07-02T08:09:11Z</time>
      </trkpt>
      <trkpt lat="42.308823" lon="2.161517">
        <ele>922.04871</ele>
        <time>2021-07-02T08:09:12Z</time>
      </trkpt>
      <trkpt lat="42.308903" lon="2.161304">
        <ele>922.09766</ele>
        <time>2021-07-02T08:09:13Z</time>
      </trkpt>
      <trkpt lat="42.308983" lon="2.161148">
        <ele>922.44122</ele>
        <time>2021-07-02T08:09:14Z</time>
      </trkpt>
      <trkpt lat="42.309071" lon="2.161035">
        <ele>922.69446</ele>
        <time>2021-07-02T08:09:15Z</time>
      </trkpt>
      <trkpt lat="42.309155" lon="2.160908">
        <ele>922.86981</ele>
        <time>2021-07-02T08:09:16Z</time>
      </trkpt>
      <trkpt lat="42.309189" lon="2.160815">
        <ele>924.07538</ele>
        <time>2021-07-02T08:09:17Z</time>
      </trkpt>
      <trkpt lat="42.309200" lon="2.160722">
        <ele>924.79419</ele>
        <time>2021-07-02T08:09:18Z</time>
      </trkpt>
      <trkpt lat="42.309193" lon="2.160536">
        <ele>924.89709</ele>
        <time>2021-07-02T08:09:19Z</time>
      </trkpt>
      <trkpt lat="42.309151" lon="2.160338">
        <ele>925.27161</ele>
        <time>2021-07-02T08:09:20Z</time>
      </trkpt>
      <trkpt lat="42.309151" lon="2.160338">
        <ele>925.42743</ele>
        <time>2021-07-02T08:09:21Z</time>
      </trkpt>
      <trkpt lat="42.309116" lon="2.160227">
        <ele>925.94580</ele>
        <time>2021-07-02T08:09:22Z</time>
      </trkpt>
      <trkpt lat="42.309082" lon="2.160111">
        <ele>926.24225</ele>
        <time>2021-07-02T08:09:23Z</time>
      </trkpt>
      <trkpt lat="42.309052" lon="2.160008">
        <ele>927.02557</ele>
        <time>2021-07-02T08:09:24Z</time>
      </trkpt>
      <trkpt lat="42.309029" lon="2.159875">
        <ele>927.46045</ele>
        <time>2021-07-02T08:09:25Z</time>
      </trkpt>
      <trkpt lat="42.309006" lon="2.159736">
        <ele>928.04718</ele>
        <time>2021-07-02T08:09:26Z</time>
      </trkpt>
      <trkpt lat="42.308994" lon="2.159576">
        <ele>928.97406</ele>
        <time>2021-07-02T08:09:27Z</time>
      </trkpt>
      <trkpt lat="42.309006" lon="2.159419">
        <ele>929.02222</ele>
        <time>2021-07-02T08:09:28Z</time>
      </trkpt>
      <trkpt lat="42.309048" lon="2.159278">
        <ele>929.70703</ele>
        <time>2021-07-02T08:09:29Z</time>
      </trkpt>
      <trkpt lat="42.309124" lon="2.159160">
        <ele>931.77356</ele>
        <time>2021-07-02T08:09:30Z</time>
      </trkpt>
      <trkpt lat="42.309212" lon="2.159064">
        <ele>931.64825</ele>
        <time>2021-07-02T08:09:31Z</time>
      </trkpt>
      <trkpt lat="42.309280" lon="2.158973">
        <ele>932.02368</ele>
        <time>2021-07-02T08:09:32Z</time>
      </trkpt>
      <trkpt lat="42.309387" lon="2.158787">
        <ele>933.25940</ele>
        <time>2021-07-02T08:09:33Z</time>
      </trkpt>
      <trkpt lat="42.309422" lon="2.158595">
        <ele>936.17218</ele>
        <time>2021-07-02T08:09:34Z</time>
      </trkpt>
      <trkpt lat="42.309467" lon="2.158293">
        <ele>931.49866</ele>
        <time>2021-07-02T08:09:35Z</time>
      </trkpt>
      <trkpt lat="42.309513" lon="2.158072">
        <ele>937.30389</ele>
        <time>2021-07-02T08:09:36Z</time>
      </trkpt>
      <trkpt lat="42.309563" lon="2.157717">
        <ele>932.15540</ele>
        <time>2021-07-02T08:09:37Z</time>
      </trkpt>
      <trkpt lat="42.309593" lon="2.157501">
        <ele>932.94971</ele>
        <time>2021-07-02T08:09:38Z</time>
      </trkpt>
      <trkpt lat="42.309631" lon="2.157203">
        <ele>932.69019</ele>
        <time>2021-07-02T08:09:39Z</time>
      </trkpt>
      <trkpt lat="42.309692" lon="2.156875">
        <ele>932.67859</ele>
        <time>2021-07-02T08:09:40Z</time>
      </trkpt>
      <trkpt lat="42.309757" lon="2.156542">
        <ele>933.42688</ele>
        <time>2021-07-02T08:09:41Z</time>
      </trkpt>
      <trkpt lat="42.309837" lon="2.156135">
        <ele>933.68103</ele>
        <time>2021-07-02T08:09:42Z</time>
      </trkpt>
      <trkpt lat="42.309929" lon="2.155675">
        <ele>933.69763</ele>
        <time>2021-07-02T08:09:43Z</time>
      </trkpt>
      <trkpt lat="42.310024" lon="2.155187">
        <ele>935.42078</ele>
        <time>2021-07-02T08:09:44Z</time>
      </trkpt>
      <trkpt lat="42.310024" lon="2.155187">
        <ele>937.72961</ele>
        <time>2021-07-02T08:09:45Z</time>
      </trkpt>
      <trkpt lat="42.310101" lon="2.154799">
        <ele>939.88354</ele>
        <time>2021-07-02T08:09:46Z</time>
      </trkpt>
      <trkpt lat="42.310139" lon="2.154566">
        <ele>948.31458</ele>
        <time>2021-07-02T08:09:47Z</time>
      </trkpt>
      <trkpt lat="42.310177" lon="2.154353">
        <ele>948.75836</ele>
        <time>2021-07-02T08:09:48Z</time>
      </trkpt>
      <trkpt lat="42.310177" lon="2.154145">
        <ele>949.80121</ele>
        <time>2021-07-02T08:09:49Z</time>
      </trkpt>
      <trkpt lat="42.310123" lon="2.153915">
        <ele>951.54266</ele>
        <time>2021-07-02T08:09:50Z</time>
      </trkpt>
      <trkpt lat="42.310051" lon="2.153683">
        <ele>944.83679</ele>
        <time>2021-07-02T08:09:51Z</time>
      </trkpt>
      <trkpt lat="42.309982" lon="2.153467">
        <ele>952.13892</ele>
        <time>2021-07-02T08:09:52Z</time>
      </trkpt>
      <trkpt lat="42.309898" lon="2.153215">
        <ele>952.29425</ele>
        <time>2021-07-02T08:09:53Z</time>
      </trkpt>
      <trkpt lat="42.309834" lon="2.152992">
        <ele>951.62970</ele>
        <time>2021-07-02T08:09:54Z</time>
      </trkpt>
      <trkpt lat="42.309814" lon="2.152837">
        <ele>951.83630</ele>
        <time>2021-07-02T08:09:55Z</time>
      </trkpt>
      <trkpt lat="42.309826" lon="2.152704">
        <ele>953.44843</ele>
        <time>2021-07-02T08:09:56Z</time>
      </trkpt>
      <trkpt lat="42.309856" lon="2.152497">
        <ele>954.56256</ele>
        <time>2021-07-02T08:09:57Z</time>
      </trkpt>
      <trkpt lat="42.309921" lon="2.152236">
        <ele>954.26282</ele>
        <time>2021-07-02T08:09:58Z</time>
      </trkpt>
      <trkpt lat="42.310009" lon="2.152074">
        <ele>954.53241</ele>
        <time>2021-07-02T08:09:59Z</time>
      </trkpt>
      <trkpt lat="42.310101" lon="2.151997">
        <ele>955.74030</ele>
        <time>2021-07-02T08:10:00Z</time>
      </trkpt>
      <trkpt lat="42.310215" lon="2.151940">
        <ele>957.21735</ele>
        <time>2021-07-02T08:10:01Z</time>
      </trkpt>
      <trkpt lat="42.310299" lon="2.151894">
        <ele>957.95428</ele>
        <time>2021-07-02T08:10:02Z</time>
      </trkpt>
      <trkpt lat="42.310474" lon="2.151812">
        <ele>958.54956</ele>
        <time>2021-07-02T08:10:03Z</time>
      </trkpt>
      <trkpt lat="42.310707" lon="2.151754">
        <ele>960.19275</ele>
        <time>2021-07-02T08:10:04Z</time>
      </trkpt>
      <trkpt lat="42.310841" lon="2.151756">
        <ele>961.21283</ele>
        <time>2021-07-02T08:10:05Z</time>
      </trkpt>
      <trkpt lat="42.310989" lon="2.151759">
        <ele>962.20551</ele>
        <time>2021-07-02T08:10:06Z</time>
      </trkpt>
      <trkpt lat="42.311184" lon="2.151750">
        <ele>962.42340</ele>
        <time>2021-07-02T08:10:07Z</time>
      </trkpt>
      <trkpt lat="42.311329" lon="2.151712">
        <ele>962.58893</ele>
        <time>2021-07-02T08:10:08Z</time>
      </trkpt>
      <trkpt lat="42.311405" lon="2.151655">
        <ele>963.06152</ele>
        <time>2021-07-02T08:10:09Z</time>
      </trkpt>
      <trkpt lat="42.311489" lon="2.151542">
        <ele>963.14246</ele>
        <time>2021-07-02T08:10:10Z</time>
      </trkpt>
      <trkpt lat="42.311520" lon="2.151412">
        <ele>964.73767</ele>
        <time>2021-07-02T08:10:11Z</time>
      </trkpt>
      <trkpt lat="42.311543" lon="2.151289">
        <ele>965.82123</ele>
        <time>2021-07-02T08:10:12Z</time>
      </trkpt>
      <trkpt lat="42.311543" lon="2.151289">
        <ele>966.86005</ele>
        <time>2021-07-02T08:10:13Z</time>
      </trkpt>
      <trkpt lat="42.311562" lon="2.151070">
        <ele>969.04266</ele>
        <time>2021-07-02T08:10:14Z</time>
      </trkpt>
      <trkpt lat="42.311588" lon="2.150830">
        <ele>969.41888</ele>
        <time>2021-07-02T08:10:15Z</time>
      </trkpt>
      <trkpt lat="42.311626" lon="2.150506">
        <ele>970.05664</ele>
        <time>2021-07-02T08:10:16Z</time>
      </trkpt>
      <trkpt lat="42.311672" lon="2.150209">
        <ele>970.21259</ele>
        <time>2021-07-02T08:10:17Z</time>
      </trkpt>
      <trkpt lat="42.311722" lon="2.149941">
        <ele>970.47650</ele>
        <time>2021-07-02T08:10:18Z</time>
      </trkpt>
      <trkpt lat="42.311779" lon="2.149702">
        <ele>970.93958</ele>
        <time>2021-07-02T08:10:19Z</time>
      </trkpt>
      <trkpt lat="42.311848" lon="2.149506">
        <ele>970.56531</ele>
        <time>2021-07-02T08:10:20Z</time>
      </trkpt>
      <trkpt lat="42.311966" lon="2.149281">
        <ele>972.13831</ele>
        <time>2021-07-02T08:10:21Z</time>
      </trkpt>
      <trkpt lat="42.312088" lon="2.149049">
        <ele>973.42493</ele>
        <time>2021-07-02T08:10:22Z</time>
      </trkpt>
      <trkpt lat="42.312195" lon="2.148854">
        <ele>974.74133</ele>
        <time>2021-07-02T08:10:23Z</time>
      </trkpt>
      <trkpt lat="42.312195" lon="2.148854">
        <ele>976.59521</ele>
        <time>2021-07-02T08:10:24Z</time>
      </trkpt>
      <trkpt lat="42.312252" lon="2.148473">
        <ele>977.41528</ele>
        <time>2021-07-02T08:10:25Z</time>
      </trkpt>
      <trkpt lat="42.312565" lon="2.148198">
        <ele>979.34070</ele>
        <time>2021-07-02T08:10:26Z</time>
      </trkpt>
      <trkpt lat="42.312698" lon="2.147949">
        <ele>982.95465</ele>
        <time>2021-07-02T08:10:27Z</time>
      </trkpt>
      <trkpt lat="42.312805" lon="2.147748">
        <ele>983.32043</ele>
        <time>2021-07-02T08:10:28Z</time>
      </trkpt>
      <trkpt lat="42.312893" lon="2.147589">
        <ele>983.64172</ele>
        <time>2021-07-02T08:10:29Z</time>
      </trkpt>
      <trkpt lat="42.312893" lon="2.147589">
        <ele>984.98346</ele>
        <time>2021-07-02T08:10:30Z</time>
      </trkpt>
      <trkpt lat="42.312893" lon="2.147589">
        <ele>986.04486</ele>
        <time>2021-07-02T08:10:31Z</time>
      </trkpt>
      <trkpt lat="42.312969" lon="2.147032">
        <ele>986.94812</ele>
        <time>2021-07-02T08:10:32Z</time>
      </trkpt>
      <trkpt lat="42.312950" lon="2.146743">
        <ele>988.06238</ele>
        <time>2021-07-02T08:10:33Z</time>
      </trkpt>
      <trkpt lat="42.312931" lon="2.146462">
        <ele>989.41278</ele>
        <time>2021-07-02T08:10:34Z</time>
      </trkpt>
      <trkpt lat="42.312920" lon="2.146188">
        <ele>990.13904</ele>
        <time>2021-07-02T08:10:35Z</time>
      </trkpt>
      <trkpt lat="42.312904" lon="2.145952">
        <ele>990.16882</ele>
        <time>2021-07-02T08:10:36Z</time>
      </trkpt>
      <trkpt lat="42.312904" lon="2.145952">
        <ele>991.09503</ele>
        <time>2021-07-02T08:10:37Z</time>
      </trkpt>
      <trkpt lat="42.312893" lon="2.145731">
        <ele>991.73102</ele>
        <time>2021-07-02T08:10:38Z</time>
      </trkpt>
      <trkpt lat="42.312859" lon="2.145526">
        <ele>992.89423</ele>
        <time>2021-07-02T08:10:39Z</time>
      </trkpt>
      <trkpt lat="42.312794" lon="2.145313">
        <ele>994.49261</ele>
        <time>2021-07-02T08:10:40Z</time>
      </trkpt>
      <trkpt lat="42.312714" lon="2.145089">
        <ele>994.91528</ele>
        <time>2021-07-02T08:10:41Z</time>
      </trkpt>
      <trkpt lat="42.312656" lon="2.144851">
        <ele>995.52679</ele>
        <time>2021-07-02T08:10:42Z</time>
      </trkpt>
      <trkpt lat="42.312660" lon="2.144632">
        <ele>996.72253</ele>
        <time>2021-07-02T08:10:43Z</time>
      </trkpt>
      <trkpt lat="42.312645" lon="2.144407">
        <ele>998.89941</ele>
        <time>2021-07-02T08:10:44Z</time>
      </trkpt>
      <trkpt lat="42.312611" lon="2.144177">
        <ele>996.50781</ele>
        <time>2021-07-02T08:10:45Z</time>
      </trkpt>
      <trkpt lat="42.312572" lon="2.143939">
        <ele>1000.50446</ele>
        <time>2021-07-02T08:10:46Z</time>
      </trkpt>
      <trkpt lat="42.312473" lon="2.143689">
        <ele>1001.68427</ele>
        <time>2021-07-02T08:10:47Z</time>
      </trkpt>
      <trkpt lat="42.312397" lon="2.143496">
        <ele>1001.97357</ele>
        <time>2021-07-02T08:10:48Z</time>
      </trkpt>
      <trkpt lat="42.312370" lon="2.143291">
        <ele>1002.42688</ele>
        <time>2021-07-02T08:10:49Z</time>
      </trkpt>
      <trkpt lat="42.312386" lon="2.143101">
        <ele>1002.53778</ele>
        <time>2021-07-02T08:10:50Z</time>
      </trkpt>
      <trkpt lat="42.312366" lon="2.142898">
        <ele>1003.02167</ele>
        <time>2021-07-02T08:10:51Z</time>
      </trkpt>
      <trkpt lat="42.312294" lon="2.142755">
        <ele>1003.40234</ele>
        <time>2021-07-02T08:10:52Z</time>
      </trkpt>
      <trkpt lat="42.312187" lon="2.142647">
        <ele>1003.70514</ele>
        <time>2021-07-02T08:10:53Z</time>
      </trkpt>
      <trkpt lat="42.312073" lon="2.142555">
        <ele>1004.64728</ele>
        <time>2021-07-02T08:10:54Z</time>
      </trkpt>
      <trkpt lat="42.311890" lon="2.142408">
        <ele>1004.38593</ele>
        <time>2021-07-02T08:10:55Z</time>
      </trkpt>
      <trkpt lat="42.311771" lon="2.142265">
        <ele>1004.06555</ele>
        <time>2021-07-02T08:10:56Z</time>
      </trkpt>
      <trkpt lat="42.311718" lon="2.142119">
        <ele>1005.17969</ele>
        <time>2021-07-02T08:10:57Z</time>
      </trkpt>
      <trkpt lat="42.311653" lon="2.141930">
        <ele>1005.58746</ele>
        <time>2021-07-02T08:10:58Z</time>
      </trkpt>
      <trkpt lat="42.311581" lon="2.141671">
        <ele>1005.58179</ele>
        <time>2021-07-02T08:10:59Z</time>
      </trkpt>
      <trkpt lat="42.311535" lon="2.141413">
        <ele>1005.68262</ele>
        <time>2021-07-02T08:11:00Z</time>
      </trkpt>
      <trkpt lat="42.311501" lon="2.141133">
        <ele>1005.89539</ele>
        <time>2021-07-02T08:11:01Z</time>
      </trkpt>
      <trkpt lat="42.311459" lon="2.140841">
        <ele>1006.26709</ele>
        <time>2021-07-02T08:11:02Z</time>
      </trkpt>
      <trkpt lat="42.311424" lon="2.140564">
        <ele>1006.52612</ele>
        <time>2021-07-02T08:11:03Z</time>
      </trkpt>
      <trkpt lat="42.311394" lon="2.140341">
        <ele>1008.72260</ele>
        <time>2021-07-02T08:11:04Z</time>
      </trkpt>
      <trkpt lat="42.311386" lon="2.140128">
        <ele>1008.79034</ele>
        <time>2021-07-02T08:11:05Z</time>
      </trkpt>
      <trkpt lat="42.311413" lon="2.139916">
        <ele>1009.08618</ele>
        <time>2021-07-02T08:11:06Z</time>
      </trkpt>
      <trkpt lat="42.311481" lon="2.139775">
        <ele>1008.81030</ele>
        <time>2021-07-02T08:11:07Z</time>
      </trkpt>
      <trkpt lat="42.311573" lon="2.139672">
        <ele>1009.21918</ele>
        <time>2021-07-02T08:11:08Z</time>
      </trkpt>
      <trkpt lat="42.311573" lon="2.139672">
        <ele>1009.59436</ele>
        <time>2021-07-02T08:11:09Z</time>
      </trkpt>
      <trkpt lat="42.311649" lon="2.139554">
        <ele>1010.47162</ele>
        <time>2021-07-02T08:11:10Z</time>
      </trkpt>
      <trkpt lat="42.311687" lon="2.139410">
        <ele>1011.04449</ele>
        <time>2021-07-02T08:11:11Z</time>
      </trkpt>
      <trkpt lat="42.311680" lon="2.139256">
        <ele>1012.74341</ele>
        <time>2021-07-02T08:11:12Z</time>
      </trkpt>
      <trkpt lat="42.311642" lon="2.139076">
        <ele>1013.61981</ele>
        <time>2021-07-02T08:11:13Z</time>
      </trkpt>
      <trkpt lat="42.311611" lon="2.138945">
        <ele>1015.91504</ele>
        <time>2021-07-02T08:11:14Z</time>
      </trkpt>
      <trkpt lat="42.311573" lon="2.138661">
        <ele>1012.05676</ele>
        <time>2021-07-02T08:11:15Z</time>
      </trkpt>
      <trkpt lat="42.311550" lon="2.138256">
        <ele>1013.19202</ele>
        <time>2021-07-02T08:11:16Z</time>
      </trkpt>
      <trkpt lat="42.311539" lon="2.137993">
        <ele>1013.37415</ele>
        <time>2021-07-02T08:11:17Z</time>
      </trkpt>
      <trkpt lat="42.311523" lon="2.137635">
        <ele>1013.62268</ele>
        <time>2021-07-02T08:11:18Z</time>
      </trkpt>
      <trkpt lat="42.311489" lon="2.137310">
        <ele>1013.35535</ele>
        <time>2021-07-02T08:11:19Z</time>
      </trkpt>
      <trkpt lat="42.311459" lon="2.137032">
        <ele>1013.75159</ele>
        <time>2021-07-02T08:11:20Z</time>
      </trkpt>
      <trkpt lat="42.311432" lon="2.136794">
        <ele>1020.77942</ele>
        <time>2021-07-02T08:11:21Z</time>
      </trkpt>
      <trkpt lat="42.311405" lon="2.136562">
        <ele>1020.41907</ele>
        <time>2021-07-02T08:11:22Z</time>
      </trkpt>
      <trkpt lat="42.311386" lon="2.136361">
        <ele>1020.35004</ele>
        <time>2021-07-02T08:11:23Z</time>
      </trkpt>
      <trkpt lat="42.311394" lon="2.136145">
        <ele>1020.04077</ele>
        <time>2021-07-02T08:11:24Z</time>
      </trkpt>
      <trkpt lat="42.311417" lon="2.136062">
        <ele>1020.71930</ele>
        <time>2021-07-02T08:11:25Z</time>
      </trkpt>
      <trkpt lat="42.311493" lon="2.135929">
        <ele>1022.02368</ele>
        <time>2021-07-02T08:11:26Z</time>
      </trkpt>
      <trkpt lat="42.311642" lon="2.135803">
        <ele>1023.26282</ele>
        <time>2021-07-02T08:11:27Z</time>
      </trkpt>
      <trkpt lat="42.311817" lon="2.135688">
        <ele>1022.99927</ele>
        <time>2021-07-02T08:11:28Z</time>
      </trkpt>
      <trkpt lat="42.311893" lon="2.135573">
        <ele>1022.84387</ele>
        <time>2021-07-02T08:11:29Z</time>
      </trkpt>
      <trkpt lat="42.311913" lon="2.135503">
        <ele>1022.92090</ele>
        <time>2021-07-02T08:11:30Z</time>
      </trkpt>
      <trkpt lat="42.311909" lon="2.135351">
        <ele>1023.31274</ele>
        <time>2021-07-02T08:11:31Z</time>
      </trkpt>
      <trkpt lat="42.311871" lon="2.135253">
        <ele>1023.55957</ele>
        <time>2021-07-02T08:11:32Z</time>
      </trkpt>
      <trkpt lat="42.311760" lon="2.135080">
        <ele>1024.18835</ele>
        <time>2021-07-02T08:11:33Z</time>
      </trkpt>
      <trkpt lat="42.311703" lon="2.134907">
        <ele>1024.41528</ele>
        <time>2021-07-02T08:11:34Z</time>
      </trkpt>
      <trkpt lat="42.311695" lon="2.134747">
        <ele>1023.86896</ele>
        <time>2021-07-02T08:11:35Z</time>
      </trkpt>
      <trkpt lat="42.311691" lon="2.134588">
        <ele>1025.86316</ele>
        <time>2021-07-02T08:11:36Z</time>
      </trkpt>
      <trkpt lat="42.311691" lon="2.134370">
        <ele>1028.66614</ele>
        <time>2021-07-02T08:11:37Z</time>
      </trkpt>
      <trkpt lat="42.311687" lon="2.134107">
        <ele>1024.82483</ele>
        <time>2021-07-02T08:11:38Z</time>
      </trkpt>
      <trkpt lat="42.311687" lon="2.133825">
        <ele>1025.30420</ele>
        <time>2021-07-02T08:11:39Z</time>
      </trkpt>
      <trkpt lat="42.311684" lon="2.133456">
        <ele>1025.92041</ele>
        <time>2021-07-02T08:11:40Z</time>
      </trkpt>
      <trkpt lat="42.311680" lon="2.133192">
        <ele>1026.21130</ele>
        <time>2021-07-02T08:11:41Z</time>
      </trkpt>
      <trkpt lat="42.311680" lon="2.132953">
        <ele>1031.90051</ele>
        <time>2021-07-02T08:11:42Z</time>
      </trkpt>
      <trkpt lat="42.311680" lon="2.132953">
        <ele>1031.84961</ele>
        <time>2021-07-02T08:11:43Z</time>
      </trkpt>
      <trkpt lat="42.311691" lon="2.132717">
        <ele>1032.04724</ele>
        <time>2021-07-02T08:11:44Z</time>
      </trkpt>
      <trkpt lat="42.311749" lon="2.132509">
        <ele>1031.99695</ele>
        <time>2021-07-02T08:11:45Z</time>
      </trkpt>
      <trkpt lat="42.311848" lon="2.132337">
        <ele>1033.32935</ele>
        <time>2021-07-02T08:11:46Z</time>
      </trkpt>
      <trkpt lat="42.311935" lon="2.132197">
        <ele>1035.26526</ele>
        <time>2021-07-02T08:11:47Z</time>
      </trkpt>
      <trkpt lat="42.312019" lon="2.131974">
        <ele>1029.28943</ele>
        <time>2021-07-02T08:11:48Z</time>
      </trkpt>
      <trkpt lat="42.312092" lon="2.131734">
        <ele>1036.54431</ele>
        <time>2021-07-02T08:11:49Z</time>
      </trkpt>
      <trkpt lat="42.312168" lon="2.131475">
        <ele>1037.15173</ele>
        <time>2021-07-02T08:11:50Z</time>
      </trkpt>
      <trkpt lat="42.312248" lon="2.131277">
        <ele>1037.98474</ele>
        <time>2021-07-02T08:11:51Z</time>
      </trkpt>
      <trkpt lat="42.312347" lon="2.131111">
        <ele>1035.39429</ele>
        <time>2021-07-02T08:11:52Z</time>
      </trkpt>
      <trkpt lat="42.312481" lon="2.130956">
        <ele>1036.03333</ele>
        <time>2021-07-02T08:11:53Z</time>
      </trkpt>
      <trkpt lat="42.312641" lon="2.130782">
        <ele>1036.50964</ele>
        <time>2021-07-02T08:11:54Z</time>
      </trkpt>
      <trkpt lat="42.312794" lon="2.130657">
        <ele>1037.46326</ele>
        <time>2021-07-02T08:11:55Z</time>
      </trkpt>
      <trkpt lat="42.312962" lon="2.130544">
        <ele>1042.35999</ele>
        <time>2021-07-02T08:11:56Z</time>
      </trkpt>
      <trkpt lat="42.313145" lon="2.130492">
        <ele>1042.21313</ele>
        <time>2021-07-02T08:11:57Z</time>
      </trkpt>
      <trkpt lat="42.313301" lon="2.130451">
        <ele>1041.78162</ele>
        <time>2021-07-02T08:11:58Z</time>
      </trkpt>
      <trkpt lat="42.313404" lon="2.130395">
        <ele>1041.53259</ele>
        <time>2021-07-02T08:11:59Z</time>
      </trkpt>
      <trkpt lat="42.313461" lon="2.130318">
        <ele>1041.51208</ele>
        <time>2021-07-02T08:12:00Z</time>
      </trkpt>
      <trkpt lat="42.313503" lon="2.130181">
        <ele>1041.72632</ele>
        <time>2021-07-02T08:12:01Z</time>
      </trkpt>
      <trkpt lat="42.313496" lon="2.130035">
        <ele>1043.19409</ele>
        <time>2021-07-02T08:12:02Z</time>
      </trkpt>
      <trkpt lat="42.313457" lon="2.129905">
        <ele>1044.15308</ele>
        <time>2021-07-02T08:12:03Z</time>
      </trkpt>
      <trkpt lat="42.313408" lon="2.129793">
        <ele>1044.89075</ele>
        <time>2021-07-02T08:12:04Z</time>
      </trkpt>
      <trkpt lat="42.313328" lon="2.129630">
        <ele>1044.76697</ele>
        <time>2021-07-02T08:12:05Z</time>
      </trkpt>
      <trkpt lat="42.313232" lon="2.129357">
        <ele>1045.37610</ele>
        <time>2021-07-02T08:12:06Z</time>
      </trkpt>
      <trkpt lat="42.313217" lon="2.129190">
        <ele>1047.28381</ele>
        <time>2021-07-02T08:12:07Z</time>
      </trkpt>
      <trkpt lat="42.313259" lon="2.128912">
        <ele>1048.48730</ele>
        <time>2021-07-02T08:12:08Z</time>
      </trkpt>
      <trkpt lat="42.313320" lon="2.128659">
        <ele>1049.04187</ele>
        <time>2021-07-02T08:12:09Z</time>
      </trkpt>
      <trkpt lat="42.313385" lon="2.128389">
        <ele>1050.13135</ele>
        <time>2021-07-02T08:12:10Z</time>
      </trkpt>
      <trkpt lat="42.313442" lon="2.128148">
        <ele>1050.17737</ele>
        <time>2021-07-02T08:12:11Z</time>
      </trkpt>
      <trkpt lat="42.313515" lon="2.127992">
        <ele>1050.06824</ele>
        <time>2021-07-02T08:12:12Z</time>
      </trkpt>
      <trkpt lat="42.313618" lon="2.127894">
        <ele>1048.18823</ele>
        <time>2021-07-02T08:12:13Z</time>
      </trkpt>
      <trkpt lat="42.313744" lon="2.127810">
        <ele>1048.82275</ele>
        <time>2021-07-02T08:12:14Z</time>
      </trkpt>
      <trkpt lat="42.313854" lon="2.127713">
        <ele>1049.36243</ele>
        <time>2021-07-02T08:12:15Z</time>
      </trkpt>
      <trkpt lat="42.314037" lon="2.127492">
        <ele>1049.92651</ele>
        <time>2021-07-02T08:12:16Z</time>
      </trkpt>
      <trkpt lat="42.314186" lon="2.127307">
        <ele>1050.11646</ele>
        <time>2021-07-02T08:12:17Z</time>
      </trkpt>
      <trkpt lat="42.314274" lon="2.127200">
        <ele>1050.49609</ele>
        <time>2021-07-02T08:12:18Z</time>
      </trkpt>
      <trkpt lat="42.314392" lon="2.127094">
        <ele>1055.55493</ele>
        <time>2021-07-02T08:12:19Z</time>
      </trkpt>
      <trkpt lat="42.314392" lon="2.127094">
        <ele>1056.43518</ele>
        <time>2021-07-02T08:12:20Z</time>
      </trkpt>
      <trkpt lat="42.314541" lon="2.127023">
        <ele>1057.38159</ele>
        <time>2021-07-02T08:12:21Z</time>
      </trkpt>
      <trkpt lat="42.314659" lon="2.127016">
        <ele>1057.33521</ele>
        <time>2021-07-02T08:12:22Z</time>
      </trkpt>
      <trkpt lat="42.314770" lon="2.127018">
        <ele>1057.30310</ele>
        <time>2021-07-02T08:12:23Z</time>
      </trkpt>
      <trkpt lat="42.314903" lon="2.127019">
        <ele>1056.84875</ele>
        <time>2021-07-02T08:12:24Z</time>
      </trkpt>
      <trkpt lat="42.315060" lon="2.127015">
        <ele>1056.66455</ele>
        <time>2021-07-02T08:12:25Z</time>
      </trkpt>
      <trkpt lat="42.315174" lon="2.126951">
        <ele>1056.31982</ele>
        <time>2021-07-02T08:12:26Z</time>
      </trkpt>
      <trkpt lat="42.315262" lon="2.126865">
        <ele>1055.84558</ele>
        <time>2021-07-02T08:12:27Z</time>
      </trkpt>
      <trkpt lat="42.315300" lon="2.126715">
        <ele>1055.84082</ele>
        <time>2021-07-02T08:12:28Z</time>
      </trkpt>
      <trkpt lat="42.315235" lon="2.126549">
        <ele>1055.53113</ele>
        <time>2021-07-02T08:12:29Z</time>
      </trkpt>
      <trkpt lat="42.315193" lon="2.126504">
        <ele>1057.46179</ele>
        <time>2021-07-02T08:12:30Z</time>
      </trkpt>
      <trkpt lat="42.315166" lon="2.126480">
        <ele>1058.29382</ele>
        <time>2021-07-02T08:12:31Z</time>
      </trkpt>
      <trkpt lat="42.315018" lon="2.126356">
        <ele>1059.25879</ele>
        <time>2021-07-02T08:12:32Z</time>
      </trkpt>
      <trkpt lat="42.314823" lon="2.126081">
        <ele>1060.29480</ele>
        <time>2021-07-02T08:12:33Z</time>
      </trkpt>
      <trkpt lat="42.314709" lon="2.125828">
        <ele>1059.99878</ele>
        <time>2021-07-02T08:12:34Z</time>
      </trkpt>
      <trkpt lat="42.314598" lon="2.125654">
        <ele>1062.54810</ele>
        <time>2021-07-02T08:12:35Z</time>
      </trkpt>
      <trkpt lat="42.314362" lon="2.125444">
        <ele>1062.95483</ele>
        <time>2021-07-02T08:12:36Z</time>
      </trkpt>
      <trkpt lat="42.314228" lon="2.125320">
        <ele>1062.63440</ele>
        <time>2021-07-02T08:12:37Z</time>
      </trkpt>
      <trkpt lat="42.314148" lon="2.125167">
        <ele>1062.79602</ele>
        <time>2021-07-02T08:12:38Z</time>
      </trkpt>
      <trkpt lat="42.314083" lon="2.124986">
        <ele>1063.73206</ele>
        <time>2021-07-02T08:12:39Z</time>
      </trkpt>
      <trkpt lat="42.314018" lon="2.124750">
        <ele>1066.16467</ele>
        <time>2021-07-02T08:12:40Z</time>
      </trkpt>
      <trkpt lat="42.313938" lon="2.124449">
        <ele>1067.17358</ele>
        <time>2021-07-02T08:12:41Z</time>
      </trkpt>
      <trkpt lat="42.313869" lon="2.124158">
        <ele>1067.65344</ele>
        <time>2021-07-02T08:12:42Z</time>
      </trkpt>
      <trkpt lat="42.313812" lon="2.123888">
        <ele>1068.89111</ele>
        <time>2021-07-02T08:12:43Z</time>
      </trkpt>
      <trkpt lat="42.313786" lon="2.123648">
        <ele>1068.50671</ele>
        <time>2021-07-02T08:12:44Z</time>
      </trkpt>
      <trkpt lat="42.313793" lon="2.123451">
        <ele>1068.66516</ele>
        <time>2021-07-02T08:12:45Z</time>
      </trkpt>
      <trkpt lat="42.313850" lon="2.123210">
        <ele>1071.38147</ele>
        <time>2021-07-02T08:12:46Z</time>
      </trkpt>
      <trkpt lat="42.313908" lon="2.122961">
        <ele>1071.80017</ele>
        <time>2021-07-02T08:12:47Z</time>
      </trkpt>
      <trkpt lat="42.313908" lon="2.122961">
        <ele>1072.13013</ele>
        <time>2021-07-02T08:12:48Z</time>
      </trkpt>
      <trkpt lat="42.313969" lon="2.122692">
        <ele>1072.34753</ele>
        <time>2021-07-02T08:12:49Z</time>
      </trkpt>
      <trkpt lat="42.314034" lon="2.122487">
        <ele>1072.22437</ele>
        <time>2021-07-02T08:12:50Z</time>
      </trkpt>
      <trkpt lat="42.314129" lon="2.122360">
        <ele>1072.98816</ele>
        <time>2021-07-02T08:12:51Z</time>
      </trkpt>
      <trkpt lat="42.314224" lon="2.122269">
        <ele>1073.13965</ele>
        <time>2021-07-02T08:12:52Z</time>
      </trkpt>
      <trkpt lat="42.314281" lon="2.122170">
        <ele>1073.88953</ele>
        <time>2021-07-02T08:12:53Z</time>
      </trkpt>
      <trkpt lat="42.314301" lon="2.122030">
        <ele>1076.97864</ele>
        <time>2021-07-02T08:12:54Z</time>
      </trkpt>
      <trkpt lat="42.314335" lon="2.121786">
        <ele>1077.79395</ele>
        <time>2021-07-02T08:12:55Z</time>
      </trkpt>
      <trkpt lat="42.314415" lon="2.121495">
        <ele>1078.05408</ele>
        <time>2021-07-02T08:12:56Z</time>
      </trkpt>
      <trkpt lat="42.314476" lon="2.121257">
        <ele>1077.83533</ele>
        <time>2021-07-02T08:12:57Z</time>
      </trkpt>
      <trkpt lat="42.314526" lon="2.121101">
        <ele>1077.68811</ele>
        <time>2021-07-02T08:12:58Z</time>
      </trkpt>
      <trkpt lat="42.314610" lon="2.120999">
        <ele>1078.28906</ele>
        <time>2021-07-02T08:12:59Z</time>
      </trkpt>
      <trkpt lat="42.314686" lon="2.120939">
        <ele>1079.70837</ele>
        <time>2021-07-02T08:13:00Z</time>
      </trkpt>
      <trkpt lat="42.314808" lon="2.120846">
        <ele>1079.81348</ele>
        <time>2021-07-02T08:13:01Z</time>
      </trkpt>
      <trkpt lat="42.314922" lon="2.120694">
        <ele>1080.05273</ele>
        <time>2021-07-02T08:13:02Z</time>
      </trkpt>
      <trkpt lat="42.314949" lon="2.120555">
        <ele>1080.47278</ele>
        <time>2021-07-02T08:13:03Z</time>
      </trkpt>
      <trkpt lat="42.314926" lon="2.120436">
        <ele>1081.72046</ele>
        <time>2021-07-02T08:13:04Z</time>
      </trkpt>
      <trkpt lat="42.314903" lon="2.120337">
        <ele>1082.63086</ele>
        <time>2021-07-02T08:13:05Z</time>
      </trkpt>
      <trkpt lat="42.314873" lon="2.120173">
        <ele>1083.35474</ele>
        <time>2021-07-02T08:13:06Z</time>
      </trkpt>
      <trkpt lat="42.314884" lon="2.119889">
        <ele>1082.47534</ele>
        <time>2021-07-02T08:13:07Z</time>
      </trkpt>
      <trkpt lat="42.314930" lon="2.119768">
        <ele>1083.41150</ele>
        <time>2021-07-02T08:13:08Z</time>
      </trkpt>
      <trkpt lat="42.315022" lon="2.119638">
        <ele>1084.92407</ele>
        <time>2021-07-02T08:13:09Z</time>
      </trkpt>
      <trkpt lat="42.315189" lon="2.119518">
        <ele>1085.62390</ele>
        <time>2021-07-02T08:13:10Z</time>
      </trkpt>
      <trkpt lat="42.315319" lon="2.119439">
        <ele>1085.45056</ele>
        <time>2021-07-02T08:13:11Z</time>
      </trkpt>
      <trkpt lat="42.315418" lon="2.119324">
        <ele>1085.60168</ele>
        <time>2021-07-02T08:13:12Z</time>
      </trkpt>
      <trkpt lat="42.315453" lon="2.119196">
        <ele>1086.40417</ele>
        <time>2021-07-02T08:13:13Z</time>
      </trkpt>
      <trkpt lat="42.315453" lon="2.119033">
        <ele>1087.25854</ele>
        <time>2021-07-02T08:13:14Z</time>
      </trkpt>
      <trkpt lat="42.315422" lon="2.118890">
        <ele>1087.92090</ele>
        <time>2021-07-02T08:13:15Z</time>
      </trkpt>
      <trkpt lat="42.315376" lon="2.118699">
        <ele>1087.74866</ele>
        <time>2021-07-02T08:13:16Z</time>
      </trkpt>
      <trkpt lat="42.315342" lon="2.118489">
        <ele>1087.62195</ele>
        <time>2021-07-02T08:13:17Z</time>
      </trkpt>
      <trkpt lat="42.315372" lon="2.118238">
        <ele>1087.61011</ele>
        <time>2021-07-02T08:13:18Z</time>
      </trkpt>
      <trkpt lat="42.315441" lon="2.118083">
        <ele>1088.51953</ele>
        <time>2021-07-02T08:13:19Z</time>
      </trkpt>
      <trkpt lat="42.315495" lon="2.117848">
        <ele>1090.40601</ele>
        <time>2021-07-02T08:13:20Z</time>
      </trkpt>
      <trkpt lat="42.315495" lon="2.117848">
        <ele>1092.49414</ele>
        <time>2021-07-02T08:13:21Z</time>
      </trkpt>
      <trkpt lat="42.315521" lon="2.117591">
        <ele>1092.29602</ele>
        <time>2021-07-02T08:13:22Z</time>
      </trkpt>
      <trkpt lat="42.315563" lon="2.117330">
        <ele>1092.81274</ele>
        <time>2021-07-02T08:13:23Z</time>
      </trkpt>
      <trkpt lat="42.315617" lon="2.117087">
        <ele>1093.12488</ele>
        <time>2021-07-02T08:13:24Z</time>
      </trkpt>
      <trkpt lat="42.315689" lon="2.116869">
        <ele>1093.71667</ele>
        <time>2021-07-02T08:13:25Z</time>
      </trkpt>
      <trkpt lat="42.315777" lon="2.116723">
        <ele>1094.30664</ele>
        <time>2021-07-02T08:13:26Z</time>
      </trkpt>
      <trkpt lat="42.315876" lon="2.116540">
        <ele>1096.35315</ele>
        <time>2021-07-02T08:13:27Z</time>
      </trkpt>
      <trkpt lat="42.315929" lon="2.116329">
        <ele>1097.29285</ele>
        <time>2021-07-02T08:13:28Z</time>
      </trkpt>
      <trkpt lat="42.315952" lon="2.116095">
        <ele>1098.75671</ele>
        <time>2021-07-02T08:13:29Z</time>
      </trkpt>
      <trkpt lat="42.315956" lon="2.115838">
        <ele>1099.56323</ele>
        <time>2021-07-02T08:13:30Z</time>
      </trkpt>
      <trkpt lat="42.315960" lon="2.115574">
        <ele>1099.96484</ele>
        <time>2021-07-02T08:13:31Z</time>
      </trkpt>
      <trkpt lat="42.315964" lon="2.115286">
        <ele>1100.45410</ele>
        <time>2021-07-02T08:13:32Z</time>
      </trkpt>
      <trkpt lat="42.315968" lon="2.114933">
        <ele>1100.66870</ele>
        <time>2021-07-02T08:13:33Z</time>
      </trkpt>
      <trkpt lat="42.315975" lon="2.114667">
        <ele>1102.74414</ele>
        <time>2021-07-02T08:13:34Z</time>
      </trkpt>
      <trkpt lat="42.315983" lon="2.114458">
        <ele>1103.01440</ele>
        <time>2021-07-02T08:13:35Z</time>
      </trkpt>
      <trkpt lat="42.316017" lon="2.114273">
        <ele>1103.48792</ele>
        <time>2021-07-02T08:13:36Z</time>
      </trkpt>
      <trkpt lat="42.316078" lon="2.114067">
        <ele>1103.62292</ele>
        <time>2021-07-02T08:13:37Z</time>
      </trkpt>
      <trkpt lat="42.316158" lon="2.113896">
        <ele>1103.72046</ele>
        <time>2021-07-02T08:13:38Z</time>
      </trkpt>
      <trkpt lat="42.316246" lon="2.113800">
        <ele>1104.00085</ele>
        <time>2021-07-02T08:13:39Z</time>
      </trkpt>
      <trkpt lat="42.316349" lon="2.113754">
        <ele>1106.00562</ele>
        <time>2021-07-02T08:13:40Z</time>
      </trkpt>
      <trkpt lat="42.316467" lon="2.113729">
        <ele>1107.65149</ele>
        <time>2021-07-02T08:13:41Z</time>
      </trkpt>
      <trkpt lat="42.316628" lon="2.113694">
        <ele>1108.89099</ele>
        <time>2021-07-02T08:13:42Z</time>
      </trkpt>
      <trkpt lat="42.316826" lon="2.113642">
        <ele>1111.49512</ele>
        <time>2021-07-02T08:13:43Z</time>
      </trkpt>
      <trkpt lat="42.317047" lon="2.113556">
        <ele>1112.01184</ele>
        <time>2021-07-02T08:13:44Z</time>
      </trkpt>
      <trkpt lat="42.317238" lon="2.113450">
        <ele>1112.33496</ele>
        <time>2021-07-02T08:13:45Z</time>
      </trkpt>
      <trkpt lat="42.317436" lon="2.113336">
        <ele>1112.81226</ele>
        <time>2021-07-02T08:13:46Z</time>
      </trkpt>
      <trkpt lat="42.317616" lon="2.113247">
        <ele>1114.28149</ele>
        <time>2021-07-02T08:13:47Z</time>
      </trkpt>
      <trkpt lat="42.317810" lon="2.113176">
        <ele>1115.10522</ele>
        <time>2021-07-02T08:13:48Z</time>
      </trkpt>
      <trkpt lat="42.318020" lon="2.113130">
        <ele>1115.34229</ele>
        <time>2021-07-02T08:13:49Z</time>
      </trkpt>
      <trkpt lat="42.318237" lon="2.113085">
        <ele>1115.70679</ele>
        <time>2021-07-02T08:13:50Z</time>
      </trkpt>
      <trkpt lat="42.318470" lon="2.113054">
        <ele>1116.49585</ele>
        <time>2021-07-02T08:13:51Z</time>
      </trkpt>
      <trkpt lat="42.318680" lon="2.113042">
        <ele>1116.38062</ele>
        <time>2021-07-02T08:13:52Z</time>
      </trkpt>
      <trkpt lat="42.318871" lon="2.113031">
        <ele>1117.42773</ele>
        <time>2021-07-02T08:13:53Z</time>
      </trkpt>
      <trkpt lat="42.318871" lon="2.113031">
        <ele>1117.49268</ele>
        <time>2021-07-02T08:13:54Z</time>
      </trkpt>
      <trkpt lat="42.319054" lon="2.112997">
        <ele>1117.01819</ele>
        <time>2021-07-02T08:13:55Z</time>
      </trkpt>
      <trkpt lat="42.319244" lon="2.112937">
        <ele>1117.31470</ele>
        <time>2021-07-02T08:13:56Z</time>
      </trkpt>
      <trkpt lat="42.319416" lon="2.112859">
        <ele>1117.37756</ele>
        <time>2021-07-02T08:13:57Z</time>
      </trkpt>
      <trkpt lat="42.319580" lon="2.112757">
        <ele>1117.78113</ele>
        <time>2021-07-02T08:13:58Z</time>
      </trkpt>
      <trkpt lat="42.319805" lon="2.112633">
        <ele>1118.18701</ele>
        <time>2021-07-02T08:13:59Z</time>
      </trkpt>
      <trkpt lat="42.319992" lon="2.112537">
        <ele>1125.01526</ele>
        <time>2021-07-02T08:14:00Z</time>
      </trkpt>
      <trkpt lat="42.320141" lon="2.112416">
        <ele>1125.21277</ele>
        <time>2021-07-02T08:14:01Z</time>
      </trkpt>
      <trkpt lat="42.320194" lon="2.112287">
        <ele>1125.62463</ele>
        <time>2021-07-02T08:14:02Z</time>
      </trkpt>
      <trkpt lat="42.320206" lon="2.112249">
        <ele>1126.02649</ele>
        <time>2021-07-02T08:14:03Z</time>
      </trkpt>
      <trkpt lat="42.320217" lon="2.112152">
        <ele>1127.51648</ele>
        <time>2021-07-02T08:14:04Z</time>
      </trkpt>
      <trkpt lat="42.320236" lon="2.111963">
        <ele>1127.62756</ele>
        <time>2021-07-02T08:14:05Z</time>
      </trkpt>
      <trkpt lat="42.320267" lon="2.111731">
        <ele>1128.09729</ele>
        <time>2021-07-02T08:14:06Z</time>
      </trkpt>
      <trkpt lat="42.320278" lon="2.111553">
        <ele>1128.52625</ele>
        <time>2021-07-02T08:14:07Z</time>
      </trkpt>
      <trkpt lat="42.320274" lon="2.111395">
        <ele>1128.85498</ele>
        <time>2021-07-02T08:14:08Z</time>
      </trkpt>
      <trkpt lat="42.320259" lon="2.111255">
        <ele>1129.05420</ele>
        <time>2021-07-02T08:14:09Z</time>
      </trkpt>
      <trkpt lat="42.320229" lon="2.111125">
        <ele>1129.52490</ele>
        <time>2021-07-02T08:14:10Z</time>
      </trkpt>
      <trkpt lat="42.320194" lon="2.110986">
        <ele>1129.68628</ele>
        <time>2021-07-02T08:14:11Z</time>
      </trkpt>
      <trkpt lat="42.320156" lon="2.110833">
        <ele>1130.13574</ele>
        <time>2021-07-02T08:14:12Z</time>
      </trkpt>
      <trkpt lat="42.320126" lon="2.110699">
        <ele>1130.36987</ele>
        <time>2021-07-02T08:14:13Z</time>
      </trkpt>
      <trkpt lat="42.320095" lon="2.110558">
        <ele>1130.83936</ele>
        <time>2021-07-02T08:14:14Z</time>
      </trkpt>
      <trkpt lat="42.320076" lon="2.110430">
        <ele>1131.07617</ele>
        <time>2021-07-02T08:14:15Z</time>
      </trkpt>
      <trkpt lat="42.320072" lon="2.110370">
        <ele>1131.14111</ele>
        <time>2021-07-02T08:14:16Z</time>
      </trkpt>
      <trkpt lat="42.320068" lon="2.110307">
        <ele>1131.16711</ele>
        <time>2021-07-02T08:14:17Z</time>
      </trkpt>
      <trkpt lat="42.320076" lon="2.110199">
        <ele>1131.23438</ele>
        <time>2021-07-02T08:14:18Z</time>
      </trkpt>
      <trkpt lat="42.320080" lon="2.110171">
        <ele>1131.17773</ele>
        <time>2021-07-02T08:14:19Z</time>
      </trkpt>
      <trkpt lat="42.320080" lon="2.110166">
        <ele>1131.33228</ele>
        <time>2021-07-02T08:14:20Z</time>
      </trkpt>
      <trkpt lat="42.320080" lon="2.110148">
        <ele>1131.46960</ele>
        <time>2021-07-02T08:14:21Z</time>
      </trkpt>
      <trkpt lat="42.320080" lon="2.110111">
        <ele>1131.64197</ele>
        <time>2021-07-02T08:14:22Z</time>
      </trkpt>
      <trkpt lat="42.320080" lon="2.110029">
        <ele>1131.97119</ele>
        <time>2021-07-02T08:14:23Z</time>
      </trkpt>
      <trkpt lat="42.320076" lon="2.109941">
        <ele>1132.44116</ele>
        <time>2021-07-02T08:14:24Z</time>
      </trkpt>
      <trkpt lat="42.320065" lon="2.109891">
        <ele>1132.67273</ele>
        <time>2021-07-02T08:14:25Z</time>
      </trkpt>
      <trkpt lat="42.320065" lon="2.109891">
        <ele>1132.85632</ele>
        <time>2021-07-02T08:14:26Z</time>
      </trkpt>
      <trkpt lat="42.320034" lon="2.109784">
        <ele>1132.95618</ele>
        <time>2021-07-02T08:14:27Z</time>
      </trkpt>
      <trkpt lat="42.319996" lon="2.109701">
        <ele>1133.25000</ele>
        <time>2021-07-02T08:14:28Z</time>
      </trkpt>
      <trkpt lat="42.319962" lon="2.109642">
        <ele>1133.39404</ele>
        <time>2021-07-02T08:14:29Z</time>
      </trkpt>
      <trkpt lat="42.319916" lon="2.109579">
        <ele>1134.47681</ele>
        <time>2021-07-02T08:14:30Z</time>
      </trkpt>
      <trkpt lat="42.319847" lon="2.109512">
        <ele>1135.48242</ele>
        <time>2021-07-02T08:14:31Z</time>
      </trkpt>
      <trkpt lat="42.319763" lon="2.109431">
        <ele>1136.23975</ele>
        <time>2021-07-02T08:14:32Z</time>
      </trkpt>
      <trkpt lat="42.319637" lon="2.109337">
        <ele>1136.39355</ele>
        <time>2021-07-02T08:14:33Z</time>
      </trkpt>
      <trkpt lat="42.319519" lon="2.109245">
        <ele>1136.92676</ele>
        <time>2021-07-02T08:14:34Z</time>
      </trkpt>
      <trkpt lat="42.319427" lon="2.109174">
        <ele>1137.26538</ele>
        <time>2021-07-02T08:14:35Z</time>
      </trkpt>
      <trkpt lat="42.319332" lon="2.109106">
        <ele>1137.47656</ele>
        <time>2021-07-02T08:14:36Z</time>
      </trkpt>
      <trkpt lat="42.319241" lon="2.109044">
        <ele>1138.25281</ele>
        <time>2021-07-02T08:14:37Z</time>
      </trkpt>
      <trkpt lat="42.319145" lon="2.108999">
        <ele>1138.47864</ele>
        <time>2021-07-02T08:14:38Z</time>
      </trkpt>
      <trkpt lat="42.319050" lon="2.108963">
        <ele>1138.95935</ele>
        <time>2021-07-02T08:14:39Z</time>
      </trkpt>
      <trkpt lat="42.318947" lon="2.108946">
        <ele>1139.47729</ele>
        <time>2021-07-02T08:14:40Z</time>
      </trkpt>
      <trkpt lat="42.318836" lon="2.108929">
        <ele>1139.72498</ele>
        <time>2021-07-02T08:14:41Z</time>
      </trkpt>
      <trkpt lat="42.318752" lon="2.108917">
        <ele>1139.56885</ele>
        <time>2021-07-02T08:14:42Z</time>
      </trkpt>
      <trkpt lat="42.318680" lon="2.108896">
        <ele>1139.65466</ele>
        <time>2021-07-02T08:14:43Z</time>
      </trkpt>
      <trkpt lat="42.318615" lon="2.108853">
        <ele>1139.80981</ele>
        <time>2021-07-02T08:14:44Z</time>
      </trkpt>
      <trkpt lat="42.318569" lon="2.108797">
        <ele>1139.99988</ele>
        <time>2021-07-02T08:14:45Z</time>
      </trkpt>
      <trkpt lat="42.318535" lon="2.108716">
        <ele>1140.22949</ele>
        <time>2021-07-02T08:14:46Z</time>
      </trkpt>
      <trkpt lat="42.318508" lon="2.108598">
        <ele>1141.31335</ele>
        <time>2021-07-02T08:14:47Z</time>
      </trkpt>
      <trkpt lat="42.318497" lon="2.108449">
        <ele>1141.50195</ele>
        <time>2021-07-02T08:14:48Z</time>
      </trkpt>
      <trkpt lat="42.318497" lon="2.108262">
        <ele>1141.87073</ele>
        <time>2021-07-02T08:14:49Z</time>
      </trkpt>
      <trkpt lat="42.318516" lon="2.108136">
        <ele>1141.77612</ele>
        <time>2021-07-02T08:14:50Z</time>
      </trkpt>
      <trkpt lat="42.318542" lon="2.107979">
        <ele>1144.52954</ele>
        <time>2021-07-02T08:14:51Z</time>
      </trkpt>
      <trkpt lat="42.318611" lon="2.107722">
        <ele>1152.29761</ele>
        <time>2021-07-02T08:14:52Z</time>
      </trkpt>
      <trkpt lat="42.318707" lon="2.107420">
        <ele>1153.95337</ele>
        <time>2021-07-02T08:14:53Z</time>
      </trkpt>
      <trkpt lat="42.318813" lon="2.107092">
        <ele>1154.84680</ele>
        <time>2021-07-02T08:14:54Z</time>
      </trkpt>
      <trkpt lat="42.318920" lon="2.106745">
        <ele>1155.84058</ele>
        <time>2021-07-02T08:14:55Z</time>
      </trkpt>
      <trkpt lat="42.318996" lon="2.106506">
        <ele>1156.61377</ele>
        <time>2021-07-02T08:14:56Z</time>
      </trkpt>
      <trkpt lat="42.318996" lon="2.106506">
        <ele>1157.06885</ele>
        <time>2021-07-02T08:14:57Z</time>
      </trkpt>
      <trkpt lat="42.319073" lon="2.106268">
        <ele>1152.68176</ele>
        <time>2021-07-02T08:14:58Z</time>
      </trkpt>
      <trkpt lat="42.319153" lon="2.106049">
        <ele>1152.54968</ele>
        <time>2021-07-02T08:14:59Z</time>
      </trkpt>
      <trkpt lat="42.319233" lon="2.105865">
        <ele>1152.92163</ele>
        <time>2021-07-02T08:15:00Z</time>
      </trkpt>
      <trkpt lat="42.319340" lon="2.105714">
        <ele>1153.53418</ele>
        <time>2021-07-02T08:15:01Z</time>
      </trkpt>
      <trkpt lat="42.319462" lon="2.105616">
        <ele>1153.92139</ele>
        <time>2021-07-02T08:15:02Z</time>
      </trkpt>
      <trkpt lat="42.319611" lon="2.105542">
        <ele>1154.19873</ele>
        <time>2021-07-02T08:15:03Z</time>
      </trkpt>
      <trkpt lat="42.319748" lon="2.105489">
        <ele>1153.72314</ele>
        <time>2021-07-02T08:15:04Z</time>
      </trkpt>
      <trkpt lat="42.319832" lon="2.105411">
        <ele>1153.82605</ele>
        <time>2021-07-02T08:15:05Z</time>
      </trkpt>
      <trkpt lat="42.319874" lon="2.105323">
        <ele>1154.15491</ele>
        <time>2021-07-02T08:15:06Z</time>
      </trkpt>
      <trkpt lat="42.319885" lon="2.105220">
        <ele>1154.41833</ele>
        <time>2021-07-02T08:15:07Z</time>
      </trkpt>
      <trkpt lat="42.319859" lon="2.105115">
        <ele>1155.03088</ele>
        <time>2021-07-02T08:15:08Z</time>
      </trkpt>
      <trkpt lat="42.319817" lon="2.105030">
        <ele>1156.87512</ele>
        <time>2021-07-02T08:15:09Z</time>
      </trkpt>
      <trkpt lat="42.319771" lon="2.104953">
        <ele>1157.57263</ele>
        <time>2021-07-02T08:15:10Z</time>
      </trkpt>
      <trkpt lat="42.319641" lon="2.104608">
        <ele>1157.55847</ele>
        <time>2021-07-02T08:15:11Z</time>
      </trkpt>
      <trkpt lat="42.319622" lon="2.104414">
        <ele>1157.26001</ele>
        <time>2021-07-02T08:15:12Z</time>
      </trkpt>
      <trkpt lat="42.319595" lon="2.104263">
        <ele>1157.10632</ele>
        <time>2021-07-02T08:15:13Z</time>
      </trkpt>
      <trkpt lat="42.319534" lon="2.104126">
        <ele>1157.52771</ele>
        <time>2021-07-02T08:15:14Z</time>
      </trkpt>
      <trkpt lat="42.319443" lon="2.104080">
        <ele>1157.99072</ele>
        <time>2021-07-02T08:15:15Z</time>
      </trkpt>
      <trkpt lat="42.319321" lon="2.104107">
        <ele>1158.31006</ele>
        <time>2021-07-02T08:15:16Z</time>
      </trkpt>
      <trkpt lat="42.319275" lon="2.104134">
        <ele>1160.32056</ele>
        <time>2021-07-02T08:15:17Z</time>
      </trkpt>
      <trkpt lat="42.319187" lon="2.104200">
        <ele>1161.18738</ele>
        <time>2021-07-02T08:15:18Z</time>
      </trkpt>
      <trkpt lat="42.319031" lon="2.104302">
        <ele>1161.29907</ele>
        <time>2021-07-02T08:15:19Z</time>
      </trkpt>
      <trkpt lat="42.318771" lon="2.104397">
        <ele>1161.64001</ele>
        <time>2021-07-02T08:15:20Z</time>
      </trkpt>
      <trkpt lat="42.318611" lon="2.104436">
        <ele>1161.32239</ele>
        <time>2021-07-02T08:15:21Z</time>
      </trkpt>
      <trkpt lat="42.318459" lon="2.104439">
        <ele>1161.14551</ele>
        <time>2021-07-02T08:15:22Z</time>
      </trkpt>
      <trkpt lat="42.318420" lon="2.104427">
        <ele>1161.30090</ele>
        <time>2021-07-02T08:15:23Z</time>
      </trkpt>
      <trkpt lat="42.318390" lon="2.104418">
        <ele>1161.62866</ele>
        <time>2021-07-02T08:15:24Z</time>
      </trkpt>
      <trkpt lat="42.318390" lon="2.104418">
        <ele>1162.30273</ele>
        <time>2021-07-02T08:15:25Z</time>
      </trkpt>
      <trkpt lat="42.318325" lon="2.104367">
        <ele>1163.85181</ele>
        <time>2021-07-02T08:15:26Z</time>
      </trkpt>
      <trkpt lat="42.318211" lon="2.103981">
        <ele>1165.01196</ele>
        <time>2021-07-02T08:15:27Z</time>
      </trkpt>
      <trkpt lat="42.318211" lon="2.103981">
        <ele>1165.44678</ele>
        <time>2021-07-02T08:15:28Z</time>
      </trkpt>
      <trkpt lat="42.318176" lon="2.103745">
        <ele>1165.46851</ele>
        <time>2021-07-02T08:15:29Z</time>
      </trkpt>
      <trkpt lat="42.318176" lon="2.103745">
        <ele>1166.17090</ele>
        <time>2021-07-02T08:15:30Z</time>
      </trkpt>
      <trkpt lat="42.318115" lon="2.103153">
        <ele>1167.17603</ele>
        <time>2021-07-02T08:15:31Z</time>
      </trkpt>
      <trkpt lat="42.318142" lon="2.102940">
        <ele>1167.82104</ele>
        <time>2021-07-02T08:15:32Z</time>
      </trkpt>
      <trkpt lat="42.318214" lon="2.102712">
        <ele>1167.95325</ele>
        <time>2021-07-02T08:15:33Z</time>
      </trkpt>
      <trkpt lat="42.318298" lon="2.102565">
        <ele>1168.93469</ele>
        <time>2021-07-02T08:15:34Z</time>
      </trkpt>
      <trkpt lat="42.318298" lon="2.102565">
        <ele>1176.02783</ele>
        <time>2021-07-02T08:15:36Z</time>
      </trkpt>
      <trkpt lat="42.318420" lon="2.102409">
        <ele>1176.02783</ele>
        <time>2021-07-02T08:15:36Z</time>
      </trkpt>
      <trkpt lat="42.318642" lon="2.102212">
        <ele>1177.57019</ele>
        <time>2021-07-02T08:15:37Z</time>
      </trkpt>
      <trkpt lat="42.318848" lon="2.102067">
        <ele>1178.51025</ele>
        <time>2021-07-02T08:15:38Z</time>
      </trkpt>
      <trkpt lat="42.319092" lon="2.101902">
        <ele>1179.12805</ele>
        <time>2021-07-02T08:15:39Z</time>
      </trkpt>
      <trkpt lat="42.319263" lon="2.101784">
        <ele>1179.12354</ele>
        <time>2021-07-02T08:15:40Z</time>
      </trkpt>
      <trkpt lat="42.319443" lon="2.101627">
        <ele>1180.59192</ele>
        <time>2021-07-02T08:15:41Z</time>
      </trkpt>
      <trkpt lat="42.319599" lon="2.101444">
        <ele>1181.50671</ele>
        <time>2021-07-02T08:15:42Z</time>
      </trkpt>
      <trkpt lat="42.319725" lon="2.101225">
        <ele>1182.53479</ele>
        <time>2021-07-02T08:15:43Z</time>
      </trkpt>
      <trkpt lat="42.319847" lon="2.100971">
        <ele>1183.19507</ele>
        <time>2021-07-02T08:15:44Z</time>
      </trkpt>
      <trkpt lat="42.319954" lon="2.100703">
        <ele>1183.98523</ele>
        <time>2021-07-02T08:15:45Z</time>
      </trkpt>
      <trkpt lat="42.320045" lon="2.100469">
        <ele>1178.01733</ele>
        <time>2021-07-02T08:15:46Z</time>
      </trkpt>
      <trkpt lat="42.320152" lon="2.100297">
        <ele>1177.51013</ele>
        <time>2021-07-02T08:15:47Z</time>
      </trkpt>
      <trkpt lat="42.320259" lon="2.100199">
        <ele>1177.94556</ele>
        <time>2021-07-02T08:15:48Z</time>
      </trkpt>
      <trkpt lat="42.320404" lon="2.100114">
        <ele>1177.80432</ele>
        <time>2021-07-02T08:15:49Z</time>
      </trkpt>
      <trkpt lat="42.320553" lon="2.100069">
        <ele>1178.97876</ele>
        <time>2021-07-02T08:15:50Z</time>
      </trkpt>
      <trkpt lat="42.320709" lon="2.100053">
        <ele>1179.78064</ele>
        <time>2021-07-02T08:15:51Z</time>
      </trkpt>
      <trkpt lat="42.320908" lon="2.100061">
        <ele>1181.09082</ele>
        <time>2021-07-02T08:15:52Z</time>
      </trkpt>
      <trkpt lat="42.321095" lon="2.100100">
        <ele>1189.17603</ele>
        <time>2021-07-02T08:15:53Z</time>
      </trkpt>
      <trkpt lat="42.321293" lon="2.100131">
        <ele>1189.91577</ele>
        <time>2021-07-02T08:15:54Z</time>
      </trkpt>
      <trkpt lat="42.321526" lon="2.100140">
        <ele>1182.59265</ele>
        <time>2021-07-02T08:15:55Z</time>
      </trkpt>
      <trkpt lat="42.321678" lon="2.100135">
        <ele>1182.81104</ele>
        <time>2021-07-02T08:15:56Z</time>
      </trkpt>
      <trkpt lat="42.321835" lon="2.100091">
        <ele>1182.49158</ele>
        <time>2021-07-02T08:15:57Z</time>
      </trkpt>
      <trkpt lat="42.321964" lon="2.100012">
        <ele>1182.36951</ele>
        <time>2021-07-02T08:15:58Z</time>
      </trkpt>
      <trkpt lat="42.322033" lon="2.099903">
        <ele>1182.36133</ele>
        <time>2021-07-02T08:15:59Z</time>
      </trkpt>
      <trkpt lat="42.322052" lon="2.099772">
        <ele>1183.13965</ele>
        <time>2021-07-02T08:16:00Z</time>
      </trkpt>
      <trkpt lat="42.322048" lon="2.099651">
        <ele>1184.00989</ele>
        <time>2021-07-02T08:16:01Z</time>
      </trkpt>
      <trkpt lat="42.322044" lon="2.099620">
        <ele>1185.13184</ele>
        <time>2021-07-02T08:16:02Z</time>
      </trkpt>
      <trkpt lat="42.322025" lon="2.099481">
        <ele>1185.70642</ele>
        <time>2021-07-02T08:16:03Z</time>
      </trkpt>
      <trkpt lat="42.322025" lon="2.099481">
        <ele>1186.80078</ele>
        <time>2021-07-02T08:16:04Z</time>
      </trkpt>
      <trkpt lat="42.321815" lon="2.099097">
        <ele>1187.51038</ele>
        <time>2021-07-02T08:16:05Z</time>
      </trkpt>
      <trkpt lat="42.321815" lon="2.099097">
        <ele>1188.51892</ele>
        <time>2021-07-02T08:16:06Z</time>
      </trkpt>
      <trkpt lat="42.321667" lon="2.099002">
        <ele>1192.66516</ele>
        <time>2021-07-02T08:16:07Z</time>
      </trkpt>
      <trkpt lat="42.321522" lon="2.098887">
        <ele>1193.68311</ele>
        <time>2021-07-02T08:16:08Z</time>
      </trkpt>
      <trkpt lat="42.321331" lon="2.098711">
        <ele>1192.46118</ele>
        <time>2021-07-02T08:16:09Z</time>
      </trkpt>
      <trkpt lat="42.321125" lon="2.098490">
        <ele>1192.80237</ele>
        <time>2021-07-02T08:16:10Z</time>
      </trkpt>
      <trkpt lat="42.320969" lon="2.098362">
        <ele>1192.70715</ele>
        <time>2021-07-02T08:16:11Z</time>
      </trkpt>
      <trkpt lat="42.320927" lon="2.098330">
        <ele>1192.83679</ele>
        <time>2021-07-02T08:16:12Z</time>
      </trkpt>
      <trkpt lat="42.320786" lon="2.098289">
        <ele>1193.09668</ele>
        <time>2021-07-02T08:16:13Z</time>
      </trkpt>
      <trkpt lat="42.320618" lon="2.098241">
        <ele>1193.44373</ele>
        <time>2021-07-02T08:16:14Z</time>
      </trkpt>
      <trkpt lat="42.320522" lon="2.098224">
        <ele>1193.40454</ele>
        <time>2021-07-02T08:16:15Z</time>
      </trkpt>
      <trkpt lat="42.320457" lon="2.097924">
        <ele>1193.46204</ele>
        <time>2021-07-02T08:16:16Z</time>
      </trkpt>
      <trkpt lat="42.320423" lon="2.097785">
        <ele>1193.83984</ele>
        <time>2021-07-02T08:16:17Z</time>
      </trkpt>
      <trkpt lat="42.320423" lon="2.097618">
        <ele>1194.58313</ele>
        <time>2021-07-02T08:16:18Z</time>
      </trkpt>
      <trkpt lat="42.320461" lon="2.097431">
        <ele>1195.47266</ele>
        <time>2021-07-02T08:16:19Z</time>
      </trkpt>
      <trkpt lat="42.320461" lon="2.097431">
        <ele>1196.42285</ele>
        <time>2021-07-02T08:16:20Z</time>
      </trkpt>
      <trkpt lat="42.320587" lon="2.097117">
        <ele>1196.88318</ele>
        <time>2021-07-02T08:16:21Z</time>
      </trkpt>
      <trkpt lat="42.320721" lon="2.096937">
        <ele>1198.15747</ele>
        <time>2021-07-02T08:16:22Z</time>
      </trkpt>
      <trkpt lat="42.320866" lon="2.096822">
        <ele>1198.16772</ele>
        <time>2021-07-02T08:16:23Z</time>
      </trkpt>
      <trkpt lat="42.320866" lon="2.096822">
        <ele>1199.49158</ele>
        <time>2021-07-02T08:16:24Z</time>
      </trkpt>
      <trkpt lat="42.320999" lon="2.096713">
        <ele>1199.79944</ele>
        <time>2021-07-02T08:16:25Z</time>
      </trkpt>
      <trkpt lat="42.321114" lon="2.096597">
        <ele>1200.48071</ele>
        <time>2021-07-02T08:16:26Z</time>
      </trkpt>
      <trkpt lat="42.321194" lon="2.096459">
        <ele>1208.36707</ele>
        <time>2021-07-02T08:16:27Z</time>
      </trkpt>
      <trkpt lat="42.321251" lon="2.096304">
        <ele>1203.08057</ele>
        <time>2021-07-02T08:16:28Z</time>
      </trkpt>
      <trkpt lat="42.321308" lon="2.096086">
        <ele>1204.00562</ele>
        <time>2021-07-02T08:16:29Z</time>
      </trkpt>
      <trkpt lat="42.321392" lon="2.095864">
        <ele>1205.64343</ele>
        <time>2021-07-02T08:16:30Z</time>
      </trkpt>
      <trkpt lat="42.321499" lon="2.095655">
        <ele>1211.88159</ele>
        <time>2021-07-02T08:16:31Z</time>
      </trkpt>
      <trkpt lat="42.321629" lon="2.095492">
        <ele>1214.26550</ele>
        <time>2021-07-02T08:16:32Z</time>
      </trkpt>
      <trkpt lat="42.321789" lon="2.095324">
        <ele>1216.33398</ele>
        <time>2021-07-02T08:16:33Z</time>
      </trkpt>
      <trkpt lat="42.321976" lon="2.095166">
        <ele>1217.29504</ele>
        <time>2021-07-02T08:16:34Z</time>
      </trkpt>
      <trkpt lat="42.322174" lon="2.095016">
        <ele>1218.76208</ele>
        <time>2021-07-02T08:16:35Z</time>
      </trkpt>
      <trkpt lat="42.322357" lon="2.094924">
        <ele>1219.51111</ele>
        <time>2021-07-02T08:16:36Z</time>
      </trkpt>
      <trkpt lat="42.322552" lon="2.094876">
        <ele>1213.33374</ele>
        <time>2021-07-02T08:16:37Z</time>
      </trkpt>
      <trkpt lat="42.322708" lon="2.094873">
        <ele>1214.53845</ele>
        <time>2021-07-02T08:16:38Z</time>
      </trkpt>
      <trkpt lat="42.322868" lon="2.094918">
        <ele>1216.65503</ele>
        <time>2021-07-02T08:16:39Z</time>
      </trkpt>
      <trkpt lat="42.323036" lon="2.094978">
        <ele>1220.46167</ele>
        <time>2021-07-02T08:16:40Z</time>
      </trkpt>
      <trkpt lat="42.323215" lon="2.095045">
        <ele>1222.63416</ele>
        <time>2021-07-02T08:16:41Z</time>
      </trkpt>
      <trkpt lat="42.323425" lon="2.095125">
        <ele>1220.31238</ele>
        <time>2021-07-02T08:16:42Z</time>
      </trkpt>
      <trkpt lat="42.323597" lon="2.095188">
        <ele>1220.83521</ele>
        <time>2021-07-02T08:16:43Z</time>
      </trkpt>
      <trkpt lat="42.323715" lon="2.095249">
        <ele>1222.22852</ele>
        <time>2021-07-02T08:16:44Z</time>
      </trkpt>
      <trkpt lat="42.323841" lon="2.095312">
        <ele>1222.76538</ele>
        <time>2021-07-02T08:16:45Z</time>
      </trkpt>
      <trkpt lat="42.323978" lon="2.095322">
        <ele>1224.10107</ele>
        <time>2021-07-02T08:16:46Z</time>
      </trkpt>
      <trkpt lat="42.324181" lon="2.095307">
        <ele>1225.34473</ele>
        <time>2021-07-02T08:16:47Z</time>
      </trkpt>
      <trkpt lat="42.324348" lon="2.095294">
        <ele>1225.25745</ele>
        <time>2021-07-02T08:16:48Z</time>
      </trkpt>
      <trkpt lat="42.324459" lon="2.095279">
        <ele>1224.99548</ele>
        <time>2021-07-02T08:16:49Z</time>
      </trkpt>
      <trkpt lat="42.324570" lon="2.095196">
        <ele>1225.36914</ele>
        <time>2021-07-02T08:16:50Z</time>
      </trkpt>
      <trkpt lat="42.324608" lon="2.095111">
        <ele>1226.04858</ele>
        <time>2021-07-02T08:16:51Z</time>
      </trkpt>
      <trkpt lat="42.324619" lon="2.095033">
        <ele>1226.87183</ele>
        <time>2021-07-02T08:16:52Z</time>
      </trkpt>
      <trkpt lat="42.324627" lon="2.094918">
        <ele>1228.60144</ele>
        <time>2021-07-02T08:16:53Z</time>
      </trkpt>
      <trkpt lat="42.324627" lon="2.094918">
        <ele>1232.62085</ele>
        <time>2021-07-02T08:16:54Z</time>
      </trkpt>
      <trkpt lat="42.324623" lon="2.094715">
        <ele>1234.16516</ele>
        <time>2021-07-02T08:16:55Z</time>
      </trkpt>
      <trkpt lat="42.324612" lon="2.094562">
        <ele>1234.95044</ele>
        <time>2021-07-02T08:16:56Z</time>
      </trkpt>
      <trkpt lat="42.324585" lon="2.094280">
        <ele>1235.68481</ele>
        <time>2021-07-02T08:16:57Z</time>
      </trkpt>
      <trkpt lat="42.324562" lon="2.093986">
        <ele>1235.22791</ele>
        <time>2021-07-02T08:16:58Z</time>
      </trkpt>
      <trkpt lat="42.324539" lon="2.093720">
        <ele>1234.67493</ele>
        <time>2021-07-02T08:16:59Z</time>
      </trkpt>
      <trkpt lat="42.324512" lon="2.093406">
        <ele>1233.18982</ele>
        <time>2021-07-02T08:17:00Z</time>
      </trkpt>
      <trkpt lat="42.324512" lon="2.093220">
        <ele>1233.68579</ele>
        <time>2021-07-02T08:17:01Z</time>
      </trkpt>
      <trkpt lat="42.324532" lon="2.093092">
        <ele>1233.97534</ele>
        <time>2021-07-02T08:17:02Z</time>
      </trkpt>
      <trkpt lat="42.324619" lon="2.092927">
        <ele>1236.08606</ele>
        <time>2021-07-02T08:17:03Z</time>
      </trkpt>
      <trkpt lat="42.324787" lon="2.092724">
        <ele>1237.67664</ele>
        <time>2021-07-02T08:17:04Z</time>
      </trkpt>
      <trkpt lat="42.324924" lon="2.092499">
        <ele>1239.93018</ele>
        <time>2021-07-02T08:17:05Z</time>
      </trkpt>
      <trkpt lat="42.325008" lon="2.092279">
        <ele>1241.29419</ele>
        <time>2021-07-02T08:17:06Z</time>
      </trkpt>
      <trkpt lat="42.325024" lon="2.092106">
        <ele>1237.43359</ele>
        <time>2021-07-02T08:17:07Z</time>
      </trkpt>
      <trkpt lat="42.324993" lon="2.091983">
        <ele>1237.77515</ele>
        <time>2021-07-02T08:17:08Z</time>
      </trkpt>
      <trkpt lat="42.324921" lon="2.091872">
        <ele>1238.67981</ele>
        <time>2021-07-02T08:17:09Z</time>
      </trkpt>
      <trkpt lat="42.324829" lon="2.091825">
        <ele>1240.15955</ele>
        <time>2021-07-02T08:17:10Z</time>
      </trkpt>
      <trkpt lat="42.324772" lon="2.091796">
        <ele>1241.41333</ele>
        <time>2021-07-02T08:17:11Z</time>
      </trkpt>
      <trkpt lat="42.324615" lon="2.091697">
        <ele>1241.55945</ele>
        <time>2021-07-02T08:17:12Z</time>
      </trkpt>
      <trkpt lat="42.324425" lon="2.091501">
        <ele>1241.38367</ele>
        <time>2021-07-02T08:17:13Z</time>
      </trkpt>
      <trkpt lat="42.324310" lon="2.091344">
        <ele>1242.13281</ele>
        <time>2021-07-02T08:17:14Z</time>
      </trkpt>
      <trkpt lat="42.324265" lon="2.091147">
        <ele>1242.62512</ele>
        <time>2021-07-02T08:17:15Z</time>
      </trkpt>
      <trkpt lat="42.324245" lon="2.090900">
        <ele>1243.51367</ele>
        <time>2021-07-02T08:17:16Z</time>
      </trkpt>
      <trkpt lat="42.324249" lon="2.090635">
        <ele>1243.89294</ele>
        <time>2021-07-02T08:17:17Z</time>
      </trkpt>
      <trkpt lat="42.324272" lon="2.090418">
        <ele>1244.31934</ele>
        <time>2021-07-02T08:17:18Z</time>
      </trkpt>
      <trkpt lat="42.324318" lon="2.090254">
        <ele>1245.02124</ele>
        <time>2021-07-02T08:17:19Z</time>
      </trkpt>
      <trkpt lat="42.324375" lon="2.090069">
        <ele>1245.89746</ele>
        <time>2021-07-02T08:17:20Z</time>
      </trkpt>
      <trkpt lat="42.324448" lon="2.089837">
        <ele>1247.12805</ele>
        <time>2021-07-02T08:17:21Z</time>
      </trkpt>
      <trkpt lat="42.324532" lon="2.089593">
        <ele>1250.47913</ele>
        <time>2021-07-02T08:17:22Z</time>
      </trkpt>
      <trkpt lat="42.324615" lon="2.089348">
        <ele>1251.58008</ele>
        <time>2021-07-02T08:17:23Z</time>
      </trkpt>
      <trkpt lat="42.324696" lon="2.089115">
        <ele>1249.17102</ele>
        <time>2021-07-02T08:17:24Z</time>
      </trkpt>
      <trkpt lat="42.324768" lon="2.088908">
        <ele>1249.66553</ele>
        <time>2021-07-02T08:17:25Z</time>
      </trkpt>
      <trkpt lat="42.324768" lon="2.088908">
        <ele>1254.26782</ele>
        <time>2021-07-02T08:17:26Z</time>
      </trkpt>
      <trkpt lat="42.324852" lon="2.088695">
        <ele>1256.17236</ele>
        <time>2021-07-02T08:17:27Z</time>
      </trkpt>
      <trkpt lat="42.324963" lon="2.088468">
        <ele>1256.95972</ele>
        <time>2021-07-02T08:17:28Z</time>
      </trkpt>
      <trkpt lat="42.325092" lon="2.088217">
        <ele>1258.40918</ele>
        <time>2021-07-02T08:17:29Z</time>
      </trkpt>
      <trkpt lat="42.325218" lon="2.087964">
        <ele>1259.54895</ele>
        <time>2021-07-02T08:17:30Z</time>
      </trkpt>
      <trkpt lat="42.325348" lon="2.087709">
        <ele>1260.75635</ele>
        <time>2021-07-02T08:17:31Z</time>
      </trkpt>
      <trkpt lat="42.325462" lon="2.087485">
        <ele>1261.85498</ele>
        <time>2021-07-02T08:17:32Z</time>
      </trkpt>
      <trkpt lat="42.325569" lon="2.087279">
        <ele>1256.65662</ele>
        <time>2021-07-02T08:17:33Z</time>
      </trkpt>
      <trkpt lat="42.325665" lon="2.087097">
        <ele>1256.37927</ele>
        <time>2021-07-02T08:17:34Z</time>
      </trkpt>
      <trkpt lat="42.325764" lon="2.086950">
        <ele>1256.42676</ele>
        <time>2021-07-02T08:17:35Z</time>
      </trkpt>
      <trkpt lat="42.325863" lon="2.086878">
        <ele>1256.71460</ele>
        <time>2021-07-02T08:17:36Z</time>
      </trkpt>
      <trkpt lat="42.325974" lon="2.086843">
        <ele>1258.80286</ele>
        <time>2021-07-02T08:17:37Z</time>
      </trkpt>
      <trkpt lat="42.326141" lon="2.086820">
        <ele>1259.88965</ele>
        <time>2021-07-02T08:17:38Z</time>
      </trkpt>
      <trkpt lat="42.326298" lon="2.086802">
        <ele>1260.42700</ele>
        <time>2021-07-02T08:17:39Z</time>
      </trkpt>
      <trkpt lat="42.326515" lon="2.086779">
        <ele>1260.57959</ele>
        <time>2021-07-02T08:17:40Z</time>
      </trkpt>
      <trkpt lat="42.326668" lon="2.086762">
        <ele>1260.47180</ele>
        <time>2021-07-02T08:17:41Z</time>
      </trkpt>
      <trkpt lat="42.326782" lon="2.086743">
        <ele>1260.58154</ele>
        <time>2021-07-02T08:17:42Z</time>
      </trkpt>
      <trkpt lat="42.326859" lon="2.086703">
        <ele>1260.63721</ele>
        <time>2021-07-02T08:17:43Z</time>
      </trkpt>
      <trkpt lat="42.326916" lon="2.086622">
        <ele>1260.75769</ele>
        <time>2021-07-02T08:17:44Z</time>
      </trkpt>
      <trkpt lat="42.326939" lon="2.086493">
        <ele>1261.30518</ele>
        <time>2021-07-02T08:17:45Z</time>
      </trkpt>
      <trkpt lat="42.326927" lon="2.086443">
        <ele>1262.65210</ele>
        <time>2021-07-02T08:17:46Z</time>
      </trkpt>
      <trkpt lat="42.326900" lon="2.086358">
        <ele>1265.31909</ele>
        <time>2021-07-02T08:17:47Z</time>
      </trkpt>
      <trkpt lat="42.326824" lon="2.086231">
        <ele>1265.86414</ele>
        <time>2021-07-02T08:17:48Z</time>
      </trkpt>
      <trkpt lat="42.326710" lon="2.086068">
        <ele>1265.39502</ele>
        <time>2021-07-02T08:17:49Z</time>
      </trkpt>
      <trkpt lat="42.326565" lon="2.085857">
        <ele>1265.74756</ele>
        <time>2021-07-02T08:17:50Z</time>
      </trkpt>
      <trkpt lat="42.326439" lon="2.085631">
        <ele>1266.21179</ele>
        <time>2021-07-02T08:17:51Z</time>
      </trkpt>
      <trkpt lat="42.326405" lon="2.085482">
        <ele>1267.41016</ele>
        <time>2021-07-02T08:17:52Z</time>
      </trkpt>
      <trkpt lat="42.326389" lon="2.085222">
        <ele>1268.26526</ele>
        <time>2021-07-02T08:17:53Z</time>
      </trkpt>
      <trkpt lat="42.326397" lon="2.084983">
        <ele>1270.37402</ele>
        <time>2021-07-02T08:17:54Z</time>
      </trkpt>
      <trkpt lat="42.326405" lon="2.084724">
        <ele>1271.55933</ele>
        <time>2021-07-02T08:17:55Z</time>
      </trkpt>
      <trkpt lat="42.326393" lon="2.084460">
        <ele>1272.37146</ele>
        <time>2021-07-02T08:17:56Z</time>
      </trkpt>
      <trkpt lat="42.326351" lon="2.084202">
        <ele>1276.42249</ele>
        <time>2021-07-02T08:17:57Z</time>
      </trkpt>
      <trkpt lat="42.326267" lon="2.083955">
        <ele>1277.52869</ele>
        <time>2021-07-02T08:17:58Z</time>
      </trkpt>
      <trkpt lat="42.326183" lon="2.083707">
        <ele>1275.89587</ele>
        <time>2021-07-02T08:17:59Z</time>
      </trkpt>
      <trkpt lat="42.326118" lon="2.083506">
        <ele>1275.58484</ele>
        <time>2021-07-02T08:18:00Z</time>
      </trkpt>
      <trkpt lat="42.326118" lon="2.083506">
        <ele>1275.97046</ele>
        <time>2021-07-02T08:18:01Z</time>
      </trkpt>
      <trkpt lat="42.326126" lon="2.083216">
        <ele>1276.38928</ele>
        <time>2021-07-02T08:18:02Z</time>
      </trkpt>
      <trkpt lat="42.326126" lon="2.083216">
        <ele>1282.15442</ele>
        <time>2021-07-02T08:18:03Z</time>
      </trkpt>
      <trkpt lat="42.326183" lon="2.083072">
        <ele>1284.80872</ele>
        <time>2021-07-02T08:18:04Z</time>
      </trkpt>
      <trkpt lat="42.326263" lon="2.082928">
        <ele>1286.06213</ele>
        <time>2021-07-02T08:18:05Z</time>
      </trkpt>
      <trkpt lat="42.326355" lon="2.082760">
        <ele>1286.68164</ele>
        <time>2021-07-02T08:18:06Z</time>
      </trkpt>
      <trkpt lat="42.326450" lon="2.082585">
        <ele>1287.65137</ele>
        <time>2021-07-02T08:18:07Z</time>
      </trkpt>
      <trkpt lat="42.326515" lon="2.082431">
        <ele>1288.19348</ele>
        <time>2021-07-02T08:18:08Z</time>
      </trkpt>
      <trkpt lat="42.326553" lon="2.082284">
        <ele>1289.18274</ele>
        <time>2021-07-02T08:18:09Z</time>
      </trkpt>
      <trkpt lat="42.326553" lon="2.082121">
        <ele>1288.06104</ele>
        <time>2021-07-02T08:18:10Z</time>
      </trkpt>
      <trkpt lat="42.326511" lon="2.081937">
        <ele>1288.28857</ele>
        <time>2021-07-02T08:18:11Z</time>
      </trkpt>
      <trkpt lat="42.326439" lon="2.081694">
        <ele>1289.96814</ele>
        <time>2021-07-02T08:18:12Z</time>
      </trkpt>
      <trkpt lat="42.326370" lon="2.081482">
        <ele>1290.23645</ele>
        <time>2021-07-02T08:18:13Z</time>
      </trkpt>
      <trkpt lat="42.326305" lon="2.081263">
        <ele>1291.25452</ele>
        <time>2021-07-02T08:18:14Z</time>
      </trkpt>
      <trkpt lat="42.326275" lon="2.081073">
        <ele>1291.88684</ele>
        <time>2021-07-02T08:18:15Z</time>
      </trkpt>
      <trkpt lat="42.326248" lon="2.080891">
        <ele>1293.69287</ele>
        <time>2021-07-02T08:18:16Z</time>
      </trkpt>
      <trkpt lat="42.326267" lon="2.080709">
        <ele>1294.85303</ele>
        <time>2021-07-02T08:18:17Z</time>
      </trkpt>
      <trkpt lat="42.326294" lon="2.080533">
        <ele>1297.38953</ele>
        <time>2021-07-02T08:18:18Z</time>
      </trkpt>
      <trkpt lat="42.326347" lon="2.080327">
        <ele>1297.29504</ele>
        <time>2021-07-02T08:18:19Z</time>
      </trkpt>
      <trkpt lat="42.326401" lon="2.080102">
        <ele>1298.27649</ele>
        <time>2021-07-02T08:18:20Z</time>
      </trkpt>
      <trkpt lat="42.326450" lon="2.079899">
        <ele>1299.03235</ele>
        <time>2021-07-02T08:18:21Z</time>
      </trkpt>
      <trkpt lat="42.326488" lon="2.079703">
        <ele>1298.99219</ele>
        <time>2021-07-02T08:18:22Z</time>
      </trkpt>
      <trkpt lat="42.326511" lon="2.079516">
        <ele>1299.35217</ele>
        <time>2021-07-02T08:18:23Z</time>
      </trkpt>
      <trkpt lat="42.326477" lon="2.079309">
        <ele>1298.62805</ele>
        <time>2021-07-02T08:18:24Z</time>
      </trkpt>
      <trkpt lat="42.326427" lon="2.079114">
        <ele>1298.28015</ele>
        <time>2021-07-02T08:18:25Z</time>
      </trkpt>
      <trkpt lat="42.326382" lon="2.078933">
        <ele>1297.09668</ele>
        <time>2021-07-02T08:18:26Z</time>
      </trkpt>
      <trkpt lat="42.326340" lon="2.078729">
        <ele>1298.73816</ele>
        <time>2021-07-02T08:18:27Z</time>
      </trkpt>
      <trkpt lat="42.326324" lon="2.078519">
        <ele>1299.84888</ele>
        <time>2021-07-02T08:18:28Z</time>
      </trkpt>
      <trkpt lat="42.326385" lon="2.078328">
        <ele>1300.79614</ele>
        <time>2021-07-02T08:18:29Z</time>
      </trkpt>
      <trkpt lat="42.326450" lon="2.078191">
        <ele>1304.47192</ele>
        <time>2021-07-02T08:18:30Z</time>
      </trkpt>
      <trkpt lat="42.326553" lon="2.078060">
        <ele>1301.60242</ele>
        <time>2021-07-02T08:18:31Z</time>
      </trkpt>
      <trkpt lat="42.326679" lon="2.077934">
        <ele>1299.18005</ele>
        <time>2021-07-02T08:18:32Z</time>
      </trkpt>
      <trkpt lat="42.326801" lon="2.077847">
        <ele>1299.64490</ele>
        <time>2021-07-02T08:18:33Z</time>
      </trkpt>
      <trkpt lat="42.327007" lon="2.077710">
        <ele>1299.49927</ele>
        <time>2021-07-02T08:18:34Z</time>
      </trkpt>
      <trkpt lat="42.327183" lon="2.077593">
        <ele>1300.49133</ele>
        <time>2021-07-02T08:18:35Z</time>
      </trkpt>
      <trkpt lat="42.327332" lon="2.077495">
        <ele>1300.77551</ele>
        <time>2021-07-02T08:18:36Z</time>
      </trkpt>
      <trkpt lat="42.327469" lon="2.077403">
        <ele>1301.06177</ele>
        <time>2021-07-02T08:18:37Z</time>
      </trkpt>
      <trkpt lat="42.327591" lon="2.077319">
        <ele>1300.62268</ele>
        <time>2021-07-02T08:18:38Z</time>
      </trkpt>
      <trkpt lat="42.327702" lon="2.077228">
        <ele>1300.17334</ele>
        <time>2021-07-02T08:18:39Z</time>
      </trkpt>
      <trkpt lat="42.327785" lon="2.077122">
        <ele>1300.17468</ele>
        <time>2021-07-02T08:18:40Z</time>
      </trkpt>
      <trkpt lat="42.327824" lon="2.076991">
        <ele>1301.11829</ele>
        <time>2021-07-02T08:18:41Z</time>
      </trkpt>
      <trkpt lat="42.327824" lon="2.076991">
        <ele>1302.19629</ele>
        <time>2021-07-02T08:18:42Z</time>
      </trkpt>
      <trkpt lat="42.327827" lon="2.076878">
        <ele>1305.89075</ele>
        <time>2021-07-02T08:18:43Z</time>
      </trkpt>
      <trkpt lat="42.327789" lon="2.076781">
        <ele>1306.65747</ele>
        <time>2021-07-02T08:18:44Z</time>
      </trkpt>
      <trkpt lat="42.327728" lon="2.076713">
        <ele>1306.70569</ele>
        <time>2021-07-02T08:18:45Z</time>
      </trkpt>
      <trkpt lat="42.327709" lon="2.076702">
        <ele>1309.55212</ele>
        <time>2021-07-02T08:18:46Z</time>
      </trkpt>
      <trkpt lat="42.327648" lon="2.076675">
        <ele>1310.68408</ele>
        <time>2021-07-02T08:18:47Z</time>
      </trkpt>
      <trkpt lat="42.327499" lon="2.076610">
        <ele>1311.08850</ele>
        <time>2021-07-02T08:18:48Z</time>
      </trkpt>
      <trkpt lat="42.327404" lon="2.076568">
        <ele>1311.64343</ele>
        <time>2021-07-02T08:18:49Z</time>
      </trkpt>
      <trkpt lat="42.327335" lon="2.076537">
        <ele>1312.46997</ele>
        <time>2021-07-02T08:18:50Z</time>
      </trkpt>
      <trkpt lat="42.327244" lon="2.076497">
        <ele>1312.00977</ele>
        <time>2021-07-02T08:18:51Z</time>
      </trkpt>
      <trkpt lat="42.327122" lon="2.076443">
        <ele>1312.80115</ele>
        <time>2021-07-02T08:18:52Z</time>
      </trkpt>
      <trkpt lat="42.326969" lon="2.076374">
        <ele>1313.93542</ele>
        <time>2021-07-02T08:18:53Z</time>
      </trkpt>
      <trkpt lat="42.326736" lon="2.076264">
        <ele>1314.16956</ele>
        <time>2021-07-02T08:18:54Z</time>
      </trkpt>
      <trkpt lat="42.326351" lon="2.076082">
        <ele>1314.32031</ele>
        <time>2021-07-02T08:18:55Z</time>
      </trkpt>
      <trkpt lat="42.326153" lon="2.075989">
        <ele>1314.75818</ele>
        <time>2021-07-02T08:18:56Z</time>
      </trkpt>
      <trkpt lat="42.325989" lon="2.075912">
        <ele>1315.05579</ele>
        <time>2021-07-02T08:18:57Z</time>
      </trkpt>
      <trkpt lat="42.325817" lon="2.075809">
        <ele>1315.22766</ele>
        <time>2021-07-02T08:18:58Z</time>
      </trkpt>
      <trkpt lat="42.325687" lon="2.075683">
        <ele>1315.49829</ele>
        <time>2021-07-02T08:18:59Z</time>
      </trkpt>
      <trkpt lat="42.325550" lon="2.075430">
        <ele>1317.03833</ele>
        <time>2021-07-02T08:19:00Z</time>
      </trkpt>
      <trkpt lat="42.325462" lon="2.075101">
        <ele>1317.90161</ele>
        <time>2021-07-02T08:19:01Z</time>
      </trkpt>
      <trkpt lat="42.325436" lon="2.074762">
        <ele>1318.38123</ele>
        <time>2021-07-02T08:19:02Z</time>
      </trkpt>
      <trkpt lat="42.325470" lon="2.074427">
        <ele>1319.82996</ele>
        <time>2021-07-02T08:19:03Z</time>
      </trkpt>
      <trkpt lat="42.325535" lon="2.074157">
        <ele>1319.22559</ele>
        <time>2021-07-02T08:19:04Z</time>
      </trkpt>
      <trkpt lat="42.325615" lon="2.073913">
        <ele>1320.43848</ele>
        <time>2021-07-02T08:19:05Z</time>
      </trkpt>
      <trkpt lat="42.325710" lon="2.073657">
        <ele>1322.72998</ele>
        <time>2021-07-02T08:19:06Z</time>
      </trkpt>
      <trkpt lat="42.325806" lon="2.073422">
        <ele>1325.06384</ele>
        <time>2021-07-02T08:19:07Z</time>
      </trkpt>
      <trkpt lat="42.325924" lon="2.073159">
        <ele>1326.99951</ele>
        <time>2021-07-02T08:19:08Z</time>
      </trkpt>
      <trkpt lat="42.326038" lon="2.072921">
        <ele>1328.72571</ele>
        <time>2021-07-02T08:19:09Z</time>
      </trkpt>
      <trkpt lat="42.326145" lon="2.072704">
        <ele>1330.15869</ele>
        <time>2021-07-02T08:19:10Z</time>
      </trkpt>
      <trkpt lat="42.326145" lon="2.072704">
        <ele>1331.23706</ele>
        <time>2021-07-02T08:19:11Z</time>
      </trkpt>
      <trkpt lat="42.326256" lon="2.072485">
        <ele>1328.33655</ele>
        <time>2021-07-02T08:19:12Z</time>
      </trkpt>
      <trkpt lat="42.326363" lon="2.072284">
        <ele>1328.81750</ele>
        <time>2021-07-02T08:19:13Z</time>
      </trkpt>
      <trkpt lat="42.326466" lon="2.072111">
        <ele>1329.43274</ele>
        <time>2021-07-02T08:19:14Z</time>
      </trkpt>
      <trkpt lat="42.326569" lon="2.071959">
        <ele>1329.65417</ele>
        <time>2021-07-02T08:19:15Z</time>
      </trkpt>
      <trkpt lat="42.326698" lon="2.071808">
        <ele>1329.82983</ele>
        <time>2021-07-02T08:19:16Z</time>
      </trkpt>
      <trkpt lat="42.326843" lon="2.071702">
        <ele>1330.41357</ele>
        <time>2021-07-02T08:19:17Z</time>
      </trkpt>
      <trkpt lat="42.326969" lon="2.071647">
        <ele>1331.12256</ele>
        <time>2021-07-02T08:19:18Z</time>
      </trkpt>
      <trkpt lat="42.327091" lon="2.071620">
        <ele>1331.60828</ele>
        <time>2021-07-02T08:19:19Z</time>
      </trkpt>
      <trkpt lat="42.327229" lon="2.071641">
        <ele>1333.51904</ele>
        <time>2021-07-02T08:19:20Z</time>
      </trkpt>
      <trkpt lat="42.327351" lon="2.071705">
        <ele>1334.49268</ele>
        <time>2021-07-02T08:19:21Z</time>
      </trkpt>
      <trkpt lat="42.327469" lon="2.071794">
        <ele>1334.09204</ele>
        <time>2021-07-02T08:19:22Z</time>
      </trkpt>
      <trkpt lat="42.327579" lon="2.071919">
        <ele>1334.20642</ele>
        <time>2021-07-02T08:19:23Z</time>
      </trkpt>
      <trkpt lat="42.327686" lon="2.072112">
        <ele>1334.34973</ele>
        <time>2021-07-02T08:19:24Z</time>
      </trkpt>
      <trkpt lat="42.327759" lon="2.072284">
        <ele>1334.98315</ele>
        <time>2021-07-02T08:19:25Z</time>
      </trkpt>
      <trkpt lat="42.327843" lon="2.072441">
        <ele>1336.28564</ele>
        <time>2021-07-02T08:19:26Z</time>
      </trkpt>
      <trkpt lat="42.327953" lon="2.072594">
        <ele>1338.06470</ele>
        <time>2021-07-02T08:19:27Z</time>
      </trkpt>
      <trkpt lat="42.328102" lon="2.072765">
        <ele>1339.06287</ele>
        <time>2021-07-02T08:19:28Z</time>
      </trkpt>
      <trkpt lat="42.328262" lon="2.072950">
        <ele>1339.68945</ele>
        <time>2021-07-02T08:19:29Z</time>
      </trkpt>
      <trkpt lat="42.328403" lon="2.073122">
        <ele>1340.73865</ele>
        <time>2021-07-02T08:19:30Z</time>
      </trkpt>
      <trkpt lat="42.328526" lon="2.073277">
        <ele>1341.05688</ele>
        <time>2021-07-02T08:19:31Z</time>
      </trkpt>
      <trkpt lat="42.328651" lon="2.073435">
        <ele>1341.48608</ele>
        <time>2021-07-02T08:19:32Z</time>
      </trkpt>
      <trkpt lat="42.328785" lon="2.073605">
        <ele>1341.70508</ele>
        <time>2021-07-02T08:19:33Z</time>
      </trkpt>
      <trkpt lat="42.328903" lon="2.073732">
        <ele>1342.09229</ele>
        <time>2021-07-02T08:19:34Z</time>
      </trkpt>
      <trkpt lat="42.329037" lon="2.073820">
        <ele>1342.56531</ele>
        <time>2021-07-02T08:19:35Z</time>
      </trkpt>
      <trkpt lat="42.329182" lon="2.073860">
        <ele>1343.40808</ele>
        <time>2021-07-02T08:19:36Z</time>
      </trkpt>
      <trkpt lat="42.329361" lon="2.073890">
        <ele>1344.69348</ele>
        <time>2021-07-02T08:19:37Z</time>
      </trkpt>
      <trkpt lat="42.329544" lon="2.073949">
        <ele>1345.95093</ele>
        <time>2021-07-02T08:19:38Z</time>
      </trkpt>
      <trkpt lat="42.329731" lon="2.074020">
        <ele>1346.57202</ele>
        <time>2021-07-02T08:19:39Z</time>
      </trkpt>
      <trkpt lat="42.329861" lon="2.074069">
        <ele>1347.25269</ele>
        <time>2021-07-02T08:19:40Z</time>
      </trkpt>
      <trkpt lat="42.330048" lon="2.074093">
        <ele>1347.83069</ele>
        <time>2021-07-02T08:19:41Z</time>
      </trkpt>
      <trkpt lat="42.330208" lon="2.074105">
        <ele>1348.10950</ele>
        <time>2021-07-02T08:19:42Z</time>
      </trkpt>
      <trkpt lat="42.330372" lon="2.074124">
        <ele>1349.23474</ele>
        <time>2021-07-02T08:19:43Z</time>
      </trkpt>
      <trkpt lat="42.330547" lon="2.074163">
        <ele>1349.35730</ele>
        <time>2021-07-02T08:19:44Z</time>
      </trkpt>
      <trkpt lat="42.330715" lon="2.074201">
        <ele>1349.41577</ele>
        <time>2021-07-02T08:19:45Z</time>
      </trkpt>
      <trkpt lat="42.330715" lon="2.074201">
        <ele>1349.98193</ele>
        <time>2021-07-02T08:19:46Z</time>
      </trkpt>
      <trkpt lat="42.330872" lon="2.074234">
        <ele>1350.36926</ele>
        <time>2021-07-02T08:19:47Z</time>
      </trkpt>
      <trkpt lat="42.331017" lon="2.074246">
        <ele>1350.64294</ele>
        <time>2021-07-02T08:19:48Z</time>
      </trkpt>
      <trkpt lat="42.331158" lon="2.074217">
        <ele>1351.07568</ele>
        <time>2021-07-02T08:19:49Z</time>
      </trkpt>
      <trkpt lat="42.331295" lon="2.074167">
        <ele>1351.81897</ele>
        <time>2021-07-02T08:19:50Z</time>
      </trkpt>
      <trkpt lat="42.331429" lon="2.074124">
        <ele>1354.28040</ele>
        <time>2021-07-02T08:19:51Z</time>
      </trkpt>
      <trkpt lat="42.331562" lon="2.074136">
        <ele>1354.96765</ele>
        <time>2021-07-02T08:19:52Z</time>
      </trkpt>
      <trkpt lat="42.331676" lon="2.074194">
        <ele>1353.24902</ele>
        <time>2021-07-02T08:19:53Z</time>
      </trkpt>
      <trkpt lat="42.331814" lon="2.074299">
        <ele>1353.53186</ele>
        <time>2021-07-02T08:19:54Z</time>
      </trkpt>
      <trkpt lat="42.331924" lon="2.074329">
        <ele>1354.20068</ele>
        <time>2021-07-02T08:19:55Z</time>
      </trkpt>
      <trkpt lat="42.331997" lon="2.074307">
        <ele>1354.49170</ele>
        <time>2021-07-02T08:19:56Z</time>
      </trkpt>
      <trkpt lat="42.332058" lon="2.074232">
        <ele>1356.20605</ele>
        <time>2021-07-02T08:19:57Z</time>
      </trkpt>
      <trkpt lat="42.332108" lon="2.074133">
        <ele>1357.20044</ele>
        <time>2021-07-02T08:19:58Z</time>
      </trkpt>
      <trkpt lat="42.332157" lon="2.073930">
        <ele>1357.60071</ele>
        <time>2021-07-02T08:19:59Z</time>
      </trkpt>
      <trkpt lat="42.332188" lon="2.073714">
        <ele>1358.49194</ele>
        <time>2021-07-02T08:20:00Z</time>
      </trkpt>
      <trkpt lat="42.332195" lon="2.073561">
        <ele>1358.73889</ele>
        <time>2021-07-02T08:20:01Z</time>
      </trkpt>
      <trkpt lat="42.332199" lon="2.073427">
        <ele>1359.19629</ele>
        <time>2021-07-02T08:20:02Z</time>
      </trkpt>
      <trkpt lat="42.332233" lon="2.073271">
        <ele>1364.21118</ele>
        <time>2021-07-02T08:20:03Z</time>
      </trkpt>
      <trkpt lat="42.332325" lon="2.073141">
        <ele>1365.84656</ele>
        <time>2021-07-02T08:20:04Z</time>
      </trkpt>
      <trkpt lat="42.332413" lon="2.073045">
        <ele>1366.85669</ele>
        <time>2021-07-02T08:20:05Z</time>
      </trkpt>
      <trkpt lat="42.332527" lon="2.072950">
        <ele>1368.36548</ele>
        <time>2021-07-02T08:20:06Z</time>
      </trkpt>
      <trkpt lat="42.332649" lon="2.072855">
        <ele>1369.22119</ele>
        <time>2021-07-02T08:20:07Z</time>
      </trkpt>
      <trkpt lat="42.332897" lon="2.072671">
        <ele>1368.93762</ele>
        <time>2021-07-02T08:20:08Z</time>
      </trkpt>
      <trkpt lat="42.333138" lon="2.072520">
        <ele>1369.79822</ele>
        <time>2021-07-02T08:20:09Z</time>
      </trkpt>
      <trkpt lat="42.333340" lon="2.072415">
        <ele>1370.10449</ele>
        <time>2021-07-02T08:20:10Z</time>
      </trkpt>
      <trkpt lat="42.333515" lon="2.072334">
        <ele>1371.10742</ele>
        <time>2021-07-02T08:20:11Z</time>
      </trkpt>
      <trkpt lat="42.333721" lon="2.072240">
        <ele>1372.20203</ele>
        <time>2021-07-02T08:20:12Z</time>
      </trkpt>
      <trkpt lat="42.333893" lon="2.072173">
        <ele>1372.32166</ele>
        <time>2021-07-02T08:20:13Z</time>
      </trkpt>
      <trkpt lat="42.334045" lon="2.072136">
        <ele>1373.32532</ele>
        <time>2021-07-02T08:20:14Z</time>
      </trkpt>
      <trkpt lat="42.334160" lon="2.072108">
        <ele>1373.55566</ele>
        <time>2021-07-02T08:20:15Z</time>
      </trkpt>
      <trkpt lat="42.334309" lon="2.072062">
        <ele>1371.00989</ele>
        <time>2021-07-02T08:20:16Z</time>
      </trkpt>
      <trkpt lat="42.334393" lon="2.071960">
        <ele>1370.70959</ele>
        <time>2021-07-02T08:20:17Z</time>
      </trkpt>
      <trkpt lat="42.334404" lon="2.071851">
        <ele>1370.81677</ele>
        <time>2021-07-02T08:20:18Z</time>
      </trkpt>
      <trkpt lat="42.334400" lon="2.071821">
        <ele>1371.11035</ele>
        <time>2021-07-02T08:20:19Z</time>
      </trkpt>
      <trkpt lat="42.334393" lon="2.071774">
        <ele>1372.14124</ele>
        <time>2021-07-02T08:20:20Z</time>
      </trkpt>
      <trkpt lat="42.334393" lon="2.071774">
        <ele>1372.91882</ele>
        <time>2021-07-02T08:20:21Z</time>
      </trkpt>
      <trkpt lat="42.334377" lon="2.071727">
        <ele>1373.69604</ele>
        <time>2021-07-02T08:20:22Z</time>
      </trkpt>
      <trkpt lat="42.334351" lon="2.071664">
        <ele>1377.10034</ele>
        <time>2021-07-02T08:20:23Z</time>
      </trkpt>
      <trkpt lat="42.334301" lon="2.071600">
        <ele>1378.57153</ele>
        <time>2021-07-02T08:20:24Z</time>
      </trkpt>
      <trkpt lat="42.334156" lon="2.071524">
        <ele>1379.60461</ele>
        <time>2021-07-02T08:20:25Z</time>
      </trkpt>
      <trkpt lat="42.334034" lon="2.071489">
        <ele>1381.51135</ele>
        <time>2021-07-02T08:20:26Z</time>
      </trkpt>
      <trkpt lat="42.333904" lon="2.071452">
        <ele>1383.96570</ele>
        <time>2021-07-02T08:20:27Z</time>
      </trkpt>
      <trkpt lat="42.333725" lon="2.071400">
        <ele>1385.42041</ele>
        <time>2021-07-02T08:20:28Z</time>
      </trkpt>
      <trkpt lat="42.333546" lon="2.071350">
        <ele>1386.16943</ele>
        <time>2021-07-02T08:20:29Z</time>
      </trkpt>
      <trkpt lat="42.333374" lon="2.071326">
        <ele>1385.80603</ele>
        <time>2021-07-02T08:20:30Z</time>
      </trkpt>
      <trkpt lat="42.333210" lon="2.071319">
        <ele>1386.04346</ele>
        <time>2021-07-02T08:20:31Z</time>
      </trkpt>
      <trkpt lat="42.333008" lon="2.071317">
        <ele>1383.86902</ele>
        <time>2021-07-02T08:20:32Z</time>
      </trkpt>
      <trkpt lat="42.332706" lon="2.071324">
        <ele>1382.31799</ele>
        <time>2021-07-02T08:20:33Z</time>
      </trkpt>
      <trkpt lat="42.332230" lon="2.071337">
        <ele>1381.08069</ele>
        <time>2021-07-02T08:20:34Z</time>
      </trkpt>
      <trkpt lat="42.332043" lon="2.071342">
        <ele>1381.08069</ele>
        <time>2021-07-02T08:20:35Z</time>
      </trkpt>
      <trkpt lat="42.331852" lon="2.070896">
        <ele>1387.78430</ele>
        <time>2021-07-02T08:20:36Z</time>
      </trkpt>
      <trkpt lat="42.331680" lon="2.070821">
        <ele>1386.64832</ele>
        <time>2021-07-02T08:20:37Z</time>
      </trkpt>
      <trkpt lat="42.331562" lon="2.070719">
        <ele>1386.56201</ele>
        <time>2021-07-02T08:20:38Z</time>
      </trkpt>
      <trkpt lat="42.331432" lon="2.070600">
        <ele>1387.19165</ele>
        <time>2021-07-02T08:20:39Z</time>
      </trkpt>
      <trkpt lat="42.331394" lon="2.070484">
        <ele>1388.98181</ele>
        <time>2021-07-02T08:20:40Z</time>
      </trkpt>
      <trkpt lat="42.331329" lon="2.070320">
        <ele>1390.20618</ele>
        <time>2021-07-02T08:20:41Z</time>
      </trkpt>
      <trkpt lat="42.331207" lon="2.070108">
        <ele>1391.38647</ele>
        <time>2021-07-02T08:20:42Z</time>
      </trkpt>
      <trkpt lat="42.331100" lon="2.069912">
        <ele>1392.80713</ele>
        <time>2021-07-02T08:20:43Z</time>
      </trkpt>
      <trkpt lat="42.330971" lon="2.069655">
        <ele>1393.28125</ele>
        <time>2021-07-02T08:20:44Z</time>
      </trkpt>
      <trkpt lat="42.330856" lon="2.069406">
        <ele>1387.49829</ele>
        <time>2021-07-02T08:20:45Z</time>
      </trkpt>
      <trkpt lat="42.330742" lon="2.069157">
        <ele>1385.81128</ele>
        <time>2021-07-02T08:20:46Z</time>
      </trkpt>
      <trkpt lat="42.330597" lon="2.068836">
        <ele>1386.26611</ele>
        <time>2021-07-02T08:20:47Z</time>
      </trkpt>
      <trkpt lat="42.330490" lon="2.068630">
        <ele>1395.10828</ele>
        <time>2021-07-02T08:20:48Z</time>
      </trkpt>
      <trkpt lat="42.330490" lon="2.068630">
        <ele>1395.08374</ele>
        <time>2021-07-02T08:20:49Z</time>
      </trkpt>
      <trkpt lat="42.330414" lon="2.068416">
        <ele>1396.49902</ele>
        <time>2021-07-02T08:20:50Z</time>
      </trkpt>
      <trkpt lat="42.330418" lon="2.068161">
        <ele>1395.20496</ele>
        <time>2021-07-02T08:20:51Z</time>
      </trkpt>
      <trkpt lat="42.330421" lon="2.067887">
        <ele>1396.45764</ele>
        <time>2021-07-02T08:20:52Z</time>
      </trkpt>
      <trkpt lat="42.330421" lon="2.067593">
        <ele>1396.98059</ele>
        <time>2021-07-02T08:20:53Z</time>
      </trkpt>
      <trkpt lat="42.330421" lon="2.067300">
        <ele>1399.52942</ele>
        <time>2021-07-02T08:20:54Z</time>
      </trkpt>
      <trkpt lat="42.330421" lon="2.067039">
        <ele>1399.49597</ele>
        <time>2021-07-02T08:20:55Z</time>
      </trkpt>
      <trkpt lat="42.330429" lon="2.066809">
        <ele>1399.59680</ele>
        <time>2021-07-02T08:20:56Z</time>
      </trkpt>
      <trkpt lat="42.330448" lon="2.066582">
        <ele>1401.87366</ele>
        <time>2021-07-02T08:20:57Z</time>
      </trkpt>
      <trkpt lat="42.330524" lon="2.066330">
        <ele>1403.55884</ele>
        <time>2021-07-02T08:20:58Z</time>
      </trkpt>
      <trkpt lat="42.330620" lon="2.066043">
        <ele>1404.63574</ele>
        <time>2021-07-02T08:20:59Z</time>
      </trkpt>
      <trkpt lat="42.330723" lon="2.065764">
        <ele>1406.77747</ele>
        <time>2021-07-02T08:21:00Z</time>
      </trkpt>
      <trkpt lat="42.330841" lon="2.065448">
        <ele>1408.07495</ele>
        <time>2021-07-02T08:21:01Z</time>
      </trkpt>
      <trkpt lat="42.330944" lon="2.065155">
        <ele>1409.40747</ele>
        <time>2021-07-02T08:21:02Z</time>
      </trkpt>
      <trkpt lat="42.331039" lon="2.064870">
        <ele>1410.19214</ele>
        <time>2021-07-02T08:21:03Z</time>
      </trkpt>
      <trkpt lat="42.331127" lon="2.064596">
        <ele>1411.55725</ele>
        <time>2021-07-02T08:21:04Z</time>
      </trkpt>
      <trkpt lat="42.331215" lon="2.064321">
        <ele>1412.40869</ele>
        <time>2021-07-02T08:21:05Z</time>
      </trkpt>
      <trkpt lat="42.331306" lon="2.064038">
        <ele>1413.48987</ele>
        <time>2021-07-02T08:21:06Z</time>
      </trkpt>
      <trkpt lat="42.331398" lon="2.063752">
        <ele>1414.69080</ele>
        <time>2021-07-02T08:21:07Z</time>
      </trkpt>
      <trkpt lat="42.331482" lon="2.063484">
        <ele>1415.42883</ele>
        <time>2021-07-02T08:21:08Z</time>
      </trkpt>
      <trkpt lat="42.331577" lon="2.063180">
        <ele>1416.27478</ele>
        <time>2021-07-02T08:21:09Z</time>
      </trkpt>
      <trkpt lat="42.331661" lon="2.062916">
        <ele>1417.17969</ele>
        <time>2021-07-02T08:21:10Z</time>
      </trkpt>
      <trkpt lat="42.331741" lon="2.062654">
        <ele>1419.12097</ele>
        <time>2021-07-02T08:21:11Z</time>
      </trkpt>
      <trkpt lat="42.331818" lon="2.062358">
        <ele>1420.02734</ele>
        <time>2021-07-02T08:21:12Z</time>
      </trkpt>
      <trkpt lat="42.331879" lon="2.062053">
        <ele>1420.50745</ele>
        <time>2021-07-02T08:21:13Z</time>
      </trkpt>
      <trkpt lat="42.331924" lon="2.061806">
        <ele>1421.09814</ele>
        <time>2021-07-02T08:21:14Z</time>
      </trkpt>
      <trkpt lat="42.331966" lon="2.061572">
        <ele>1415.59058</ele>
        <time>2021-07-02T08:21:15Z</time>
      </trkpt>
      <trkpt lat="42.332008" lon="2.061362">
        <ele>1414.48047</ele>
        <time>2021-07-02T08:21:16Z</time>
      </trkpt>
      <trkpt lat="42.332024" lon="2.061174">
        <ele>1414.37476</ele>
        <time>2021-07-02T08:21:17Z</time>
      </trkpt>
      <trkpt lat="42.331978" lon="2.061011">
        <ele>1414.84912</ele>
        <time>2021-07-02T08:21:18Z</time>
      </trkpt>
      <trkpt lat="42.331947" lon="2.060928">
        <ele>1414.67969</ele>
        <time>2021-07-02T08:21:19Z</time>
      </trkpt>
      <trkpt lat="42.331947" lon="2.060928">
        <ele>1414.60669</ele>
        <time>2021-07-02T08:21:20Z</time>
      </trkpt>
      <trkpt lat="42.331886" lon="2.060773">
        <ele>1414.86694</ele>
        <time>2021-07-02T08:21:21Z</time>
      </trkpt>
      <trkpt lat="42.331802" lon="2.060741">
        <ele>1415.48657</ele>
        <time>2021-07-02T08:21:22Z</time>
      </trkpt>
      <trkpt lat="42.331741" lon="2.060769">
        <ele>1417.50378</ele>
        <time>2021-07-02T08:21:23Z</time>
      </trkpt>
      <trkpt lat="42.331707" lon="2.060792">
        <ele>1418.27917</ele>
        <time>2021-07-02T08:21:24Z</time>
      </trkpt>
      <trkpt lat="42.331638" lon="2.060838">
        <ele>1420.02258</ele>
        <time>2021-07-02T08:21:25Z</time>
      </trkpt>
      <trkpt lat="42.331551" lon="2.060897">
        <ele>1420.52808</ele>
        <time>2021-07-02T08:21:26Z</time>
      </trkpt>
      <trkpt lat="42.331425" lon="2.060981">
        <ele>1420.16516</ele>
        <time>2021-07-02T08:21:27Z</time>
      </trkpt>
      <trkpt lat="42.331230" lon="2.061068">
        <ele>1420.39502</ele>
        <time>2021-07-02T08:21:28Z</time>
      </trkpt>
      <trkpt lat="42.330826" lon="2.060657">
        <ele>1419.89563</ele>
        <time>2021-07-02T08:21:29Z</time>
      </trkpt>
      <trkpt lat="42.330570" lon="2.060797">
        <ele>1420.76843</ele>
        <time>2021-07-02T08:21:30Z</time>
      </trkpt>
      <trkpt lat="42.330231" lon="2.061265">
        <ele>1421.87207</ele>
        <time>2021-07-02T08:21:31Z</time>
      </trkpt>
      <trkpt lat="42.330101" lon="2.061395">
        <ele>1424.47083</ele>
        <time>2021-07-02T08:21:32Z</time>
      </trkpt>
      <trkpt lat="42.329781" lon="2.061288">
        <ele>1425.92554</ele>
        <time>2021-07-02T08:21:33Z</time>
      </trkpt>
      <trkpt lat="42.329563" lon="2.061297">
        <ele>1422.89099</ele>
        <time>2021-07-02T08:21:34Z</time>
      </trkpt>
      <trkpt lat="42.329426" lon="2.061212">
        <ele>1422.09375</ele>
        <time>2021-07-02T08:21:35Z</time>
      </trkpt>
      <trkpt lat="42.329395" lon="2.061161">
        <ele>1422.70605</ele>
        <time>2021-07-02T08:21:36Z</time>
      </trkpt>
      <trkpt lat="42.329372" lon="2.061101">
        <ele>1423.83484</ele>
        <time>2021-07-02T08:21:37Z</time>
      </trkpt>
      <trkpt lat="42.329372" lon="2.061101">
        <ele>1425.69714</ele>
        <time>2021-07-02T08:21:38Z</time>
      </trkpt>
      <trkpt lat="42.329372" lon="2.061101">
        <ele>1427.14099</ele>
        <time>2021-07-02T08:21:39Z</time>
      </trkpt>
      <trkpt lat="42.329346" lon="2.060609">
        <ele>1429.25134</ele>
        <time>2021-07-02T08:21:40Z</time>
      </trkpt>
      <trkpt lat="42.329231" lon="2.060082">
        <ele>1430.16577</ele>
        <time>2021-07-02T08:21:41Z</time>
      </trkpt>
      <trkpt lat="42.329231" lon="2.060082">
        <ele>1435.25586</ele>
        <time>2021-07-02T08:21:42Z</time>
      </trkpt>
      <trkpt lat="42.329128" lon="2.059808">
        <ele>1431.03369</ele>
        <time>2021-07-02T08:21:43Z</time>
      </trkpt>
      <trkpt lat="42.329048" lon="2.059564">
        <ele>1430.41711</ele>
        <time>2021-07-02T08:21:44Z</time>
      </trkpt>
      <trkpt lat="42.329033" lon="2.059325">
        <ele>1430.67383</ele>
        <time>2021-07-02T08:21:45Z</time>
      </trkpt>
      <trkpt lat="42.329056" lon="2.059220">
        <ele>1432.40833</ele>
        <time>2021-07-02T08:21:46Z</time>
      </trkpt>
      <trkpt lat="42.329090" lon="2.059083">
        <ele>1433.73401</ele>
        <time>2021-07-02T08:21:47Z</time>
      </trkpt>
      <trkpt lat="42.329174" lon="2.058830">
        <ele>1440.89368</ele>
        <time>2021-07-02T08:21:48Z</time>
      </trkpt>
      <trkpt lat="42.329269" lon="2.058549">
        <ele>1442.75208</ele>
        <time>2021-07-02T08:21:49Z</time>
      </trkpt>
      <trkpt lat="42.329365" lon="2.058258">
        <ele>1444.87683</ele>
        <time>2021-07-02T08:21:50Z</time>
      </trkpt>
      <trkpt lat="42.329464" lon="2.057957">
        <ele>1446.87561</ele>
        <time>2021-07-02T08:21:51Z</time>
      </trkpt>
      <trkpt lat="42.329563" lon="2.057666">
        <ele>1448.42322</ele>
        <time>2021-07-02T08:21:52Z</time>
      </trkpt>
      <trkpt lat="42.329655" lon="2.057385">
        <ele>1449.54724</ele>
        <time>2021-07-02T08:21:53Z</time>
      </trkpt>
      <trkpt lat="42.329754" lon="2.057100">
        <ele>1450.32788</ele>
        <time>2021-07-02T08:21:54Z</time>
      </trkpt>
      <trkpt lat="42.329842" lon="2.056833">
        <ele>1451.91187</ele>
        <time>2021-07-02T08:21:55Z</time>
      </trkpt>
      <trkpt lat="42.329910" lon="2.056601">
        <ele>1453.17371</ele>
        <time>2021-07-02T08:21:56Z</time>
      </trkpt>
      <trkpt lat="42.329918" lon="2.056361">
        <ele>1454.77954</ele>
        <time>2021-07-02T08:21:57Z</time>
      </trkpt>
      <trkpt lat="42.329918" lon="2.056101">
        <ele>1455.70312</ele>
        <time>2021-07-02T08:21:58Z</time>
      </trkpt>
      <trkpt lat="42.329914" lon="2.055790">
        <ele>1456.54504</ele>
        <time>2021-07-02T08:21:59Z</time>
      </trkpt>
      <trkpt lat="42.329914" lon="2.055492">
        <ele>1456.65991</ele>
        <time>2021-07-02T08:22:00Z</time>
      </trkpt>
      <trkpt lat="42.329941" lon="2.055222">
        <ele>1457.03552</ele>
        <time>2021-07-02T08:22:01Z</time>
      </trkpt>
      <trkpt lat="42.329998" lon="2.054971">
        <ele>1447.91541</ele>
        <time>2021-07-02T08:22:02Z</time>
      </trkpt>
      <trkpt lat="42.330021" lon="2.054759">
        <ele>1447.45178</ele>
        <time>2021-07-02T08:22:03Z</time>
      </trkpt>
      <trkpt lat="42.330017" lon="2.054583">
        <ele>1448.86255</ele>
        <time>2021-07-02T08:22:04Z</time>
      </trkpt>
      <trkpt lat="42.329975" lon="2.054410">
        <ele>1457.69312</ele>
        <time>2021-07-02T08:22:05Z</time>
      </trkpt>
      <trkpt lat="42.329880" lon="2.054145">
        <ele>1459.39795</ele>
        <time>2021-07-02T08:22:06Z</time>
      </trkpt>
      <trkpt lat="42.329777" lon="2.053884">
        <ele>1460.03503</ele>
        <time>2021-07-02T08:22:07Z</time>
      </trkpt>
      <trkpt lat="42.329678" lon="2.053631">
        <ele>1459.67969</ele>
        <time>2021-07-02T08:22:08Z</time>
      </trkpt>
      <trkpt lat="42.329536" lon="2.053350">
        <ele>1462.39807</ele>
        <time>2021-07-02T08:22:09Z</time>
      </trkpt>
      <trkpt lat="42.329380" lon="2.053107">
        <ele>1463.91260</ele>
        <time>2021-07-02T08:22:10Z</time>
      </trkpt>
      <trkpt lat="42.329262" lon="2.052935">
        <ele>1465.06384</ele>
        <time>2021-07-02T08:22:11Z</time>
      </trkpt>
      <trkpt lat="42.329166" lon="2.052789">
        <ele>1465.57959</ele>
        <time>2021-07-02T08:22:12Z</time>
      </trkpt>
      <trkpt lat="42.329166" lon="2.052789">
        <ele>1466.64246</ele>
        <time>2021-07-02T08:22:13Z</time>
      </trkpt>
      <trkpt lat="42.329117" lon="2.052662">
        <ele>1466.68237</ele>
        <time>2021-07-02T08:22:14Z</time>
      </trkpt>
      <trkpt lat="42.329109" lon="2.052524">
        <ele>1465.77588</ele>
        <time>2021-07-02T08:22:15Z</time>
      </trkpt>
      <trkpt lat="42.329163" lon="2.052398">
        <ele>1467.05652</ele>
        <time>2021-07-02T08:22:16Z</time>
      </trkpt>
      <trkpt lat="42.329216" lon="2.052316">
        <ele>1466.17700</ele>
        <time>2021-07-02T08:22:17Z</time>
      </trkpt>
      <trkpt lat="42.329346" lon="2.052140">
        <ele>1464.05444</ele>
        <time>2021-07-02T08:22:18Z</time>
      </trkpt>
      <trkpt lat="42.329475" lon="2.051969">
        <ele>1463.75867</ele>
        <time>2021-07-02T08:22:19Z</time>
      </trkpt>
      <trkpt lat="42.329594" lon="2.051808">
        <ele>1464.61841</ele>
        <time>2021-07-02T08:22:20Z</time>
      </trkpt>
      <trkpt lat="42.329727" lon="2.051631">
        <ele>1465.23645</ele>
        <time>2021-07-02T08:22:21Z</time>
      </trkpt>
      <trkpt lat="42.329845" lon="2.051450">
        <ele>1463.94507</ele>
        <time>2021-07-02T08:22:22Z</time>
      </trkpt>
      <trkpt lat="42.329933" lon="2.051279">
        <ele>1464.97229</ele>
        <time>2021-07-02T08:22:23Z</time>
      </trkpt>
      <trkpt lat="42.329998" lon="2.051142">
        <ele>1465.14941</ele>
        <time>2021-07-02T08:22:24Z</time>
      </trkpt>
      <trkpt lat="42.330063" lon="2.051004">
        <ele>1466.60388</ele>
        <time>2021-07-02T08:22:25Z</time>
      </trkpt>
      <trkpt lat="42.330128" lon="2.050850">
        <ele>1467.13953</ele>
        <time>2021-07-02T08:22:26Z</time>
      </trkpt>
      <trkpt lat="42.330147" lon="2.050735">
        <ele>1467.89026</ele>
        <time>2021-07-02T08:22:27Z</time>
      </trkpt>
      <trkpt lat="42.330147" lon="2.050659">
        <ele>1469.43921</ele>
        <time>2021-07-02T08:22:28Z</time>
      </trkpt>
      <trkpt lat="42.330132" lon="2.050588">
        <ele>1469.81604</ele>
        <time>2021-07-02T08:22:29Z</time>
      </trkpt>
      <trkpt lat="42.330032" lon="2.050458">
        <ele>1468.53809</ele>
        <time>2021-07-02T08:22:30Z</time>
      </trkpt>
      <trkpt lat="42.329971" lon="2.050416">
        <ele>1467.85168</ele>
        <time>2021-07-02T08:22:31Z</time>
      </trkpt>
      <trkpt lat="42.329926" lon="2.050385">
        <ele>1468.98547</ele>
        <time>2021-07-02T08:22:32Z</time>
      </trkpt>
      <trkpt lat="42.329849" lon="2.050329">
        <ele>1470.19666</ele>
        <time>2021-07-02T08:22:33Z</time>
      </trkpt>
      <trkpt lat="42.329762" lon="2.050219">
        <ele>1471.57190</ele>
        <time>2021-07-02T08:22:34Z</time>
      </trkpt>
      <trkpt lat="42.329720" lon="2.050156">
        <ele>1470.87646</ele>
        <time>2021-07-02T08:22:35Z</time>
      </trkpt>
      <trkpt lat="42.329647" lon="2.050046">
        <ele>1470.84033</ele>
        <time>2021-07-02T08:22:36Z</time>
      </trkpt>
      <trkpt lat="42.329575" lon="2.049934">
        <ele>1469.73340</ele>
        <time>2021-07-02T08:22:37Z</time>
      </trkpt>
      <trkpt lat="42.329491" lon="2.049803">
        <ele>1469.48523</ele>
        <time>2021-07-02T08:22:38Z</time>
      </trkpt>
      <trkpt lat="42.329411" lon="2.049677">
        <ele>1469.74976</ele>
        <time>2021-07-02T08:22:39Z</time>
      </trkpt>
      <trkpt lat="42.329330" lon="2.049544">
        <ele>1469.95581</ele>
        <time>2021-07-02T08:22:40Z</time>
      </trkpt>
      <trkpt lat="42.329258" lon="2.049431">
        <ele>1471.78967</ele>
        <time>2021-07-02T08:22:41Z</time>
      </trkpt>
      <trkpt lat="42.329189" lon="2.049319">
        <ele>1473.52478</ele>
        <time>2021-07-02T08:22:42Z</time>
      </trkpt>
      <trkpt lat="42.329189" lon="2.049319">
        <ele>1473.08850</ele>
        <time>2021-07-02T08:22:43Z</time>
      </trkpt>
      <trkpt lat="42.329121" lon="2.049204">
        <ele>1474.26477</ele>
        <time>2021-07-02T08:22:44Z</time>
      </trkpt>
      <trkpt lat="42.329048" lon="2.049086">
        <ele>1474.93030</ele>
        <time>2021-07-02T08:22:45Z</time>
      </trkpt>
      <trkpt lat="42.328968" lon="2.048950">
        <ele>1475.27966</ele>
        <time>2021-07-02T08:22:46Z</time>
      </trkpt>
      <trkpt lat="42.328903" lon="2.048812">
        <ele>1475.13867</ele>
        <time>2021-07-02T08:22:47Z</time>
      </trkpt>
      <trkpt lat="42.328850" lon="2.048668">
        <ele>1476.25842</ele>
        <time>2021-07-02T08:22:48Z</time>
      </trkpt>
      <trkpt lat="42.328800" lon="2.048494">
        <ele>1477.29810</ele>
        <time>2021-07-02T08:22:49Z</time>
      </trkpt>
      <trkpt lat="42.328762" lon="2.048332">
        <ele>1479.28052</ele>
        <time>2021-07-02T08:22:50Z</time>
      </trkpt>
      <trkpt lat="42.328728" lon="2.048181">
        <ele>1480.48169</ele>
        <time>2021-07-02T08:22:51Z</time>
      </trkpt>
      <trkpt lat="42.328705" lon="2.048026">
        <ele>1480.83154</ele>
        <time>2021-07-02T08:22:52Z</time>
      </trkpt>
      <trkpt lat="42.328697" lon="2.047880">
        <ele>1480.79553</ele>
        <time>2021-07-02T08:22:53Z</time>
      </trkpt>
      <trkpt lat="42.328720" lon="2.047751">
        <ele>1480.82007</ele>
        <time>2021-07-02T08:22:54Z</time>
      </trkpt>
      <trkpt lat="42.328762" lon="2.047630">
        <ele>1482.41711</ele>
        <time>2021-07-02T08:22:55Z</time>
      </trkpt>
      <trkpt lat="42.328831" lon="2.047539">
        <ele>1481.13660</ele>
        <time>2021-07-02T08:22:56Z</time>
      </trkpt>
      <trkpt lat="42.328926" lon="2.047465">
        <ele>1481.79468</ele>
        <time>2021-07-02T08:22:57Z</time>
      </trkpt>
      <trkpt lat="42.329018" lon="2.047400">
        <ele>1482.10498</ele>
        <time>2021-07-02T08:22:58Z</time>
      </trkpt>
      <trkpt lat="42.329102" lon="2.047341">
        <ele>1480.47375</ele>
        <time>2021-07-02T08:22:59Z</time>
      </trkpt>
      <trkpt lat="42.329182" lon="2.047286">
        <ele>1480.52673</ele>
        <time>2021-07-02T08:23:00Z</time>
      </trkpt>
      <trkpt lat="42.329285" lon="2.047215">
        <ele>1482.08801</ele>
        <time>2021-07-02T08:23:01Z</time>
      </trkpt>
      <trkpt lat="42.329388" lon="2.047143">
        <ele>1484.54700</ele>
        <time>2021-07-02T08:23:02Z</time>
      </trkpt>
      <trkpt lat="42.329494" lon="2.047081">
        <ele>1485.43933</ele>
        <time>2021-07-02T08:23:03Z</time>
      </trkpt>
      <trkpt lat="42.329601" lon="2.047018">
        <ele>1485.92273</ele>
        <time>2021-07-02T08:23:04Z</time>
      </trkpt>
      <trkpt lat="42.329708" lon="2.046946">
        <ele>1486.17090</ele>
        <time>2021-07-02T08:23:05Z</time>
      </trkpt>
      <trkpt lat="42.329803" lon="2.046861">
        <ele>1487.64722</ele>
        <time>2021-07-02T08:23:06Z</time>
      </trkpt>
      <trkpt lat="42.329887" lon="2.046739">
        <ele>1487.73279</ele>
        <time>2021-07-02T08:23:07Z</time>
      </trkpt>
      <trkpt lat="42.329952" lon="2.046612">
        <ele>1488.16199</ele>
        <time>2021-07-02T08:23:08Z</time>
      </trkpt>
      <trkpt lat="42.329952" lon="2.046612">
        <ele>1489.16467</ele>
        <time>2021-07-02T08:23:09Z</time>
      </trkpt>
      <trkpt lat="42.330006" lon="2.046485">
        <ele>1490.23779</ele>
        <time>2021-07-02T08:23:10Z</time>
      </trkpt>
      <trkpt lat="42.330055" lon="2.046365">
        <ele>1491.59680</ele>
        <time>2021-07-02T08:23:11Z</time>
      </trkpt>
      <trkpt lat="42.330093" lon="2.046231">
        <ele>1497.30750</ele>
        <time>2021-07-02T08:23:12Z</time>
      </trkpt>
      <trkpt lat="42.330109" lon="2.046068">
        <ele>1498.96423</ele>
        <time>2021-07-02T08:23:13Z</time>
      </trkpt>
      <trkpt lat="42.330074" lon="2.045889">
        <ele>1500.57581</ele>
        <time>2021-07-02T08:23:14Z</time>
      </trkpt>
      <trkpt lat="42.330013" lon="2.045760">
        <ele>1501.30554</ele>
        <time>2021-07-02T08:23:15Z</time>
      </trkpt>
      <trkpt lat="42.329941" lon="2.045641">
        <ele>1501.24719</ele>
        <time>2021-07-02T08:23:16Z</time>
      </trkpt>
      <trkpt lat="42.329849" lon="2.045505">
        <ele>1499.78674</ele>
        <time>2021-07-02T08:23:17Z</time>
      </trkpt>
      <trkpt lat="42.329781" lon="2.045371">
        <ele>1500.50647</ele>
        <time>2021-07-02T08:23:18Z</time>
      </trkpt>
      <trkpt lat="42.329735" lon="2.045224">
        <ele>1502.19177</ele>
        <time>2021-07-02T08:23:19Z</time>
      </trkpt>
      <trkpt lat="42.329700" lon="2.045076">
        <ele>1501.65710</ele>
        <time>2021-07-02T08:23:20Z</time>
      </trkpt>
      <trkpt lat="42.329666" lon="2.044916">
        <ele>1503.33240</ele>
        <time>2021-07-02T08:23:21Z</time>
      </trkpt>
      <trkpt lat="42.329632" lon="2.044755">
        <ele>1503.13074</ele>
        <time>2021-07-02T08:23:22Z</time>
      </trkpt>
      <trkpt lat="42.329567" lon="2.044616">
        <ele>1502.94617</ele>
        <time>2021-07-02T08:23:23Z</time>
      </trkpt>
      <trkpt lat="42.329483" lon="2.044524">
        <ele>1503.91541</ele>
        <time>2021-07-02T08:23:24Z</time>
      </trkpt>
      <trkpt lat="42.329403" lon="2.044475">
        <ele>1504.55334</ele>
        <time>2021-07-02T08:23:25Z</time>
      </trkpt>
      <trkpt lat="42.329311" lon="2.044443">
        <ele>1504.99915</ele>
        <time>2021-07-02T08:23:26Z</time>
      </trkpt>
      <trkpt lat="42.329147" lon="2.044384">
        <ele>1505.06555</ele>
        <time>2021-07-02T08:23:27Z</time>
      </trkpt>
      <trkpt lat="42.329041" lon="2.044346">
        <ele>1505.66663</ele>
        <time>2021-07-02T08:23:28Z</time>
      </trkpt>
      <trkpt lat="42.328934" lon="2.044300">
        <ele>1504.72791</ele>
        <time>2021-07-02T08:23:29Z</time>
      </trkpt>
      <trkpt lat="42.328861" lon="2.044231">
        <ele>1502.64246</ele>
        <time>2021-07-02T08:23:30Z</time>
      </trkpt>
      <trkpt lat="42.328804" lon="2.044087">
        <ele>1504.17419</ele>
        <time>2021-07-02T08:23:31Z</time>
      </trkpt>
      <trkpt lat="42.328770" lon="2.043983">
        <ele>1503.95300</ele>
        <time>2021-07-02T08:23:32Z</time>
      </trkpt>
      <trkpt lat="42.328739" lon="2.043897">
        <ele>1504.85388</ele>
        <time>2021-07-02T08:23:33Z</time>
      </trkpt>
      <trkpt lat="42.328682" lon="2.043774">
        <ele>1505.03943</ele>
        <time>2021-07-02T08:23:34Z</time>
      </trkpt>
      <trkpt lat="42.328621" lon="2.043651">
        <ele>1506.15662</ele>
        <time>2021-07-02T08:23:35Z</time>
      </trkpt>
      <trkpt lat="42.328552" lon="2.043565">
        <ele>1506.83801</ele>
        <time>2021-07-02T08:23:36Z</time>
      </trkpt>
      <trkpt lat="42.328449" lon="2.043452">
        <ele>1508.21643</ele>
        <time>2021-07-02T08:23:37Z</time>
      </trkpt>
      <trkpt lat="42.328278" lon="2.043316">
        <ele>1507.34290</ele>
        <time>2021-07-02T08:23:38Z</time>
      </trkpt>
      <trkpt lat="42.327969" lon="2.043163">
        <ele>1507.23352</ele>
        <time>2021-07-02T08:23:39Z</time>
      </trkpt>
      <trkpt lat="42.327793" lon="2.043081">
        <ele>1508.03992</ele>
        <time>2021-07-02T08:23:40Z</time>
      </trkpt>
      <trkpt lat="42.327587" lon="2.042966">
        <ele>1508.39954</ele>
        <time>2021-07-02T08:23:41Z</time>
      </trkpt>
      <trkpt lat="42.327381" lon="2.042842">
        <ele>1507.99817</ele>
        <time>2021-07-02T08:23:42Z</time>
      </trkpt>
      <trkpt lat="42.327381" lon="2.042842">
        <ele>1507.61023</ele>
        <time>2021-07-02T08:23:43Z</time>
      </trkpt>
      <trkpt lat="42.327213" lon="2.042732">
        <ele>1507.27063</ele>
        <time>2021-07-02T08:23:44Z</time>
      </trkpt>
      <trkpt lat="42.327042" lon="2.042612">
        <ele>1508.61951</ele>
        <time>2021-07-02T08:23:45Z</time>
      </trkpt>
      <trkpt lat="42.326893" lon="2.042501">
        <ele>1509.60730</ele>
        <time>2021-07-02T08:23:46Z</time>
      </trkpt>
      <trkpt lat="42.326763" lon="2.042346">
        <ele>1510.27625</ele>
        <time>2021-07-02T08:23:47Z</time>
      </trkpt>
      <trkpt lat="42.326645" lon="2.042177">
        <ele>1510.30896</ele>
        <time>2021-07-02T08:23:48Z</time>
      </trkpt>
      <trkpt lat="42.326542" lon="2.041978">
        <ele>1510.35315</ele>
        <time>2021-07-02T08:23:49Z</time>
      </trkpt>
      <trkpt lat="42.326477" lon="2.041779">
        <ele>1510.70129</ele>
        <time>2021-07-02T08:23:50Z</time>
      </trkpt>
      <trkpt lat="42.326439" lon="2.041603">
        <ele>1511.55164</ele>
        <time>2021-07-02T08:23:51Z</time>
      </trkpt>
      <trkpt lat="42.326401" lon="2.041371">
        <ele>1513.25769</ele>
        <time>2021-07-02T08:23:52Z</time>
      </trkpt>
      <trkpt lat="42.326378" lon="2.041112">
        <ele>1511.31262</ele>
        <time>2021-07-02T08:23:53Z</time>
      </trkpt>
      <trkpt lat="42.326385" lon="2.040870">
        <ele>1512.41589</ele>
        <time>2021-07-02T08:23:54Z</time>
      </trkpt>
      <trkpt lat="42.326424" lon="2.040640">
        <ele>1511.71716</ele>
        <time>2021-07-02T08:23:55Z</time>
      </trkpt>
      <trkpt lat="42.326424" lon="2.040404">
        <ele>1511.28992</ele>
        <time>2021-07-02T08:23:56Z</time>
      </trkpt>
      <trkpt lat="42.326374" lon="2.040132">
        <ele>1506.75037</ele>
        <time>2021-07-02T08:23:57Z</time>
      </trkpt>
      <trkpt lat="42.326298" lon="2.039907">
        <ele>1506.81116</ele>
        <time>2021-07-02T08:23:58Z</time>
      </trkpt>
      <trkpt lat="42.326172" lon="2.039754">
        <ele>1506.81372</ele>
        <time>2021-07-02T08:23:59Z</time>
      </trkpt>
      <trkpt lat="42.326084" lon="2.039681">
        <ele>1507.18481</ele>
        <time>2021-07-02T08:24:00Z</time>
      </trkpt>
      <trkpt lat="42.326042" lon="2.039647">
        <ele>1506.84937</ele>
        <time>2021-07-02T08:24:01Z</time>
      </trkpt>
      <trkpt lat="42.325958" lon="2.039548">
        <ele>1507.10242</ele>
        <time>2021-07-02T08:24:02Z</time>
      </trkpt>
      <trkpt lat="42.325909" lon="2.039397">
        <ele>1507.57056</ele>
        <time>2021-07-02T08:24:03Z</time>
      </trkpt>
      <trkpt lat="42.325901" lon="2.039299">
        <ele>1508.11426</ele>
        <time>2021-07-02T08:24:04Z</time>
      </trkpt>
      <trkpt lat="42.325920" lon="2.039163">
        <ele>1508.41223</ele>
        <time>2021-07-02T08:24:05Z</time>
      </trkpt>
      <trkpt lat="42.325954" lon="2.039014">
        <ele>1510.43579</ele>
        <time>2021-07-02T08:24:06Z</time>
      </trkpt>
      <trkpt lat="42.326096" lon="2.038790">
        <ele>1511.18250</ele>
        <time>2021-07-02T08:24:07Z</time>
      </trkpt>
      <trkpt lat="42.326263" lon="2.038634">
        <ele>1512.49329</ele>
        <time>2021-07-02T08:24:08Z</time>
      </trkpt>
      <trkpt lat="42.326366" lon="2.038553">
        <ele>1513.59167</ele>
        <time>2021-07-02T08:24:09Z</time>
      </trkpt>
      <trkpt lat="42.326550" lon="2.038413">
        <ele>1514.01196</ele>
        <time>2021-07-02T08:24:10Z</time>
      </trkpt>
      <trkpt lat="42.326797" lon="2.038309">
        <ele>1514.38086</ele>
        <time>2021-07-02T08:24:11Z</time>
      </trkpt>
      <trkpt lat="42.326977" lon="2.038292">
        <ele>1514.70203</ele>
        <time>2021-07-02T08:24:12Z</time>
      </trkpt>
      <trkpt lat="42.326977" lon="2.038292">
        <ele>1514.64539</ele>
        <time>2021-07-02T08:24:13Z</time>
      </trkpt>
      <trkpt lat="42.327385" lon="2.038392">
        <ele>1514.62390</ele>
        <time>2021-07-02T08:24:14Z</time>
      </trkpt>
      <trkpt lat="42.327385" lon="2.038392">
        <ele>1515.13293</ele>
        <time>2021-07-02T08:24:15Z</time>
      </trkpt>
      <trkpt lat="42.327663" lon="2.038468">
        <ele>1515.76697</ele>
        <time>2021-07-02T08:24:16Z</time>
      </trkpt>
      <trkpt lat="42.327888" lon="2.038490">
        <ele>1516.55334</ele>
        <time>2021-07-02T08:24:17Z</time>
      </trkpt>
      <trkpt lat="42.328072" lon="2.038504">
        <ele>1516.87366</ele>
        <time>2021-07-02T08:24:18Z</time>
      </trkpt>
      <trkpt lat="42.328247" lon="2.038528">
        <ele>1517.21228</ele>
        <time>2021-07-02T08:24:19Z</time>
      </trkpt>
      <trkpt lat="42.328430" lon="2.038603">
        <ele>1517.76550</ele>
        <time>2021-07-02T08:24:20Z</time>
      </trkpt>
      <trkpt lat="42.328644" lon="2.038730">
        <ele>1517.98767</ele>
        <time>2021-07-02T08:24:21Z</time>
      </trkpt>
      <trkpt lat="42.328892" lon="2.038879">
        <ele>1518.26697</ele>
        <time>2021-07-02T08:24:22Z</time>
      </trkpt>
      <trkpt lat="42.329086" lon="2.038991">
        <ele>1518.92444</ele>
        <time>2021-07-02T08:24:23Z</time>
      </trkpt>
      <trkpt lat="42.329254" lon="2.039086">
        <ele>1519.49500</ele>
        <time>2021-07-02T08:24:24Z</time>
      </trkpt>
      <trkpt lat="42.329464" lon="2.039192">
        <ele>1519.49500</ele>
        <time>2021-07-02T08:24:25Z</time>
      </trkpt>
      <trkpt lat="42.329700" lon="2.039246">
        <ele>1523.77527</ele>
        <time>2021-07-02T08:24:26Z</time>
      </trkpt>
      <trkpt lat="42.329960" lon="2.039273">
        <ele>1526.16589</ele>
        <time>2021-07-02T08:24:27Z</time>
      </trkpt>
      <trkpt lat="42.330254" lon="2.039272">
        <ele>1527.16833</ele>
        <time>2021-07-02T08:24:28Z</time>
      </trkpt>
      <trkpt lat="42.330559" lon="2.039254">
        <ele>1528.93298</ele>
        <time>2021-07-02T08:24:29Z</time>
      </trkpt>
      <trkpt lat="42.330818" lon="2.039254">
        <ele>1530.12976</ele>
        <time>2021-07-02T08:24:30Z</time>
      </trkpt>
      <trkpt lat="42.331036" lon="2.039267">
        <ele>1531.95618</ele>
        <time>2021-07-02T08:24:31Z</time>
      </trkpt>
      <trkpt lat="42.331272" lon="2.039289">
        <ele>1532.80994</ele>
        <time>2021-07-02T08:24:32Z</time>
      </trkpt>
      <trkpt lat="42.331478" lon="2.039307">
        <ele>1534.30261</ele>
        <time>2021-07-02T08:24:33Z</time>
      </trkpt>
      <trkpt lat="42.331661" lon="2.039324">
        <ele>1530.94043</ele>
        <time>2021-07-02T08:24:34Z</time>
      </trkpt>
      <trkpt lat="42.331844" lon="2.039348">
        <ele>1530.56689</ele>
        <time>2021-07-02T08:24:35Z</time>
      </trkpt>
      <trkpt lat="42.331982" lon="2.039406">
        <ele>1531.32593</ele>
        <time>2021-07-02T08:24:36Z</time>
      </trkpt>
      <trkpt lat="42.332119" lon="2.039509">
        <ele>1531.71924</ele>
        <time>2021-07-02T08:24:37Z</time>
      </trkpt>
      <trkpt lat="42.332283" lon="2.039650">
        <ele>1531.82703</ele>
        <time>2021-07-02T08:24:38Z</time>
      </trkpt>
      <trkpt lat="42.332413" lon="2.039815">
        <ele>1534.52234</ele>
        <time>2021-07-02T08:24:39Z</time>
      </trkpt>
      <trkpt lat="42.332542" lon="2.040004">
        <ele>1536.11707</ele>
        <time>2021-07-02T08:24:40Z</time>
      </trkpt>
      <trkpt lat="42.332703" lon="2.040215">
        <ele>1537.73450</ele>
        <time>2021-07-02T08:24:41Z</time>
      </trkpt>
      <trkpt lat="42.332870" lon="2.040390">
        <ele>1539.06775</ele>
        <time>2021-07-02T08:24:42Z</time>
      </trkpt>
      <trkpt lat="42.333035" lon="2.040551">
        <ele>1540.42371</ele>
        <time>2021-07-02T08:24:43Z</time>
      </trkpt>
      <trkpt lat="42.333210" lon="2.040685">
        <ele>1541.76746</ele>
        <time>2021-07-02T08:24:44Z</time>
      </trkpt>
      <trkpt lat="42.333420" lon="2.040776">
        <ele>1541.59875</ele>
        <time>2021-07-02T08:24:45Z</time>
      </trkpt>
      <trkpt lat="42.333664" lon="2.040870">
        <ele>1542.35876</ele>
        <time>2021-07-02T08:24:46Z</time>
      </trkpt>
      <trkpt lat="42.333927" lon="2.040936">
        <ele>1543.49792</ele>
        <time>2021-07-02T08:24:47Z</time>
      </trkpt>
      <trkpt lat="42.333927" lon="2.040936">
        <ele>1543.41589</ele>
        <time>2021-07-02T08:24:48Z</time>
      </trkpt>
      <trkpt lat="42.334190" lon="2.041002">
        <ele>1543.09045</ele>
        <time>2021-07-02T08:24:49Z</time>
      </trkpt>
      <trkpt lat="42.334465" lon="2.041090">
        <ele>1543.51306</ele>
        <time>2021-07-02T08:24:50Z</time>
      </trkpt>
      <trkpt lat="42.334721" lon="2.041173">
        <ele>1544.30212</ele>
        <time>2021-07-02T08:24:51Z</time>
      </trkpt>
      <trkpt lat="42.334953" lon="2.041246">
        <ele>1545.05847</ele>
        <time>2021-07-02T08:24:52Z</time>
      </trkpt>
      <trkpt lat="42.335144" lon="2.041308">
        <ele>1545.41248</ele>
        <time>2021-07-02T08:24:53Z</time>
      </trkpt>
      <trkpt lat="42.335339" lon="2.041365">
        <ele>1539.65466</ele>
        <time>2021-07-02T08:24:54Z</time>
      </trkpt>
      <trkpt lat="42.335499" lon="2.041392">
        <ele>1539.47083</ele>
        <time>2021-07-02T08:24:55Z</time>
      </trkpt>
      <trkpt lat="42.335583" lon="2.041382">
        <ele>1539.41333</ele>
        <time>2021-07-02T08:24:56Z</time>
      </trkpt>
      <trkpt lat="42.335670" lon="2.041330">
        <ele>1538.85950</ele>
        <time>2021-07-02T08:24:57Z</time>
      </trkpt>
      <trkpt lat="42.335724" lon="2.041233">
        <ele>1539.78516</ele>
        <time>2021-07-02T08:24:58Z</time>
      </trkpt>
      <trkpt lat="42.335751" lon="2.041137">
        <ele>1540.37488</ele>
        <time>2021-07-02T08:24:59Z</time>
      </trkpt>
      <trkpt lat="42.335739" lon="2.040947">
        <ele>1541.28540</ele>
        <time>2021-07-02T08:25:00Z</time>
      </trkpt>
      <trkpt lat="42.335701" lon="2.040810">
        <ele>1543.22058</ele>
        <time>2021-07-02T08:25:01Z</time>
      </trkpt>
      <trkpt lat="42.335644" lon="2.040640">
        <ele>1544.31824</ele>
        <time>2021-07-02T08:25:02Z</time>
      </trkpt>
      <trkpt lat="42.335564" lon="2.040405">
        <ele>1546.72888</ele>
        <time>2021-07-02T08:25:03Z</time>
      </trkpt>
      <trkpt lat="42.335430" lon="2.039871">
        <ele>1546.48132</ele>
        <time>2021-07-02T08:25:04Z</time>
      </trkpt>
      <trkpt lat="42.335423" lon="2.039657">
        <ele>1546.19495</ele>
        <time>2021-07-02T08:25:05Z</time>
      </trkpt>
      <trkpt lat="42.335426" lon="2.039447">
        <ele>1545.68750</ele>
        <time>2021-07-02T08:25:06Z</time>
      </trkpt>
      <trkpt lat="42.335381" lon="2.039310">
        <ele>1545.65027</ele>
        <time>2021-07-02T08:25:07Z</time>
      </trkpt>
      <trkpt lat="42.335289" lon="2.039202">
        <ele>1546.18835</ele>
        <time>2021-07-02T08:25:08Z</time>
      </trkpt>
      <trkpt lat="42.335197" lon="2.039125">
        <ele>1548.09485</ele>
        <time>2021-07-02T08:25:09Z</time>
      </trkpt>
      <trkpt lat="42.335056" lon="2.039012">
        <ele>1548.40186</ele>
        <time>2021-07-02T08:25:10Z</time>
      </trkpt>
      <trkpt lat="42.334923" lon="2.038878">
        <ele>1548.48694</ele>
        <time>2021-07-02T08:25:11Z</time>
      </trkpt>
      <trkpt lat="42.334797" lon="2.038716">
        <ele>1550.29297</ele>
        <time>2021-07-02T08:25:12Z</time>
      </trkpt>
      <trkpt lat="42.334686" lon="2.038559">
        <ele>1551.40784</ele>
        <time>2021-07-02T08:25:13Z</time>
      </trkpt>
      <trkpt lat="42.334576" lon="2.038341">
        <ele>1553.19373</ele>
        <time>2021-07-02T08:25:14Z</time>
      </trkpt>
      <trkpt lat="42.334492" lon="2.038117">
        <ele>1555.82141</ele>
        <time>2021-07-02T08:25:15Z</time>
      </trkpt>
      <trkpt lat="42.334431" lon="2.037859">
        <ele>1557.73083</ele>
        <time>2021-07-02T08:25:16Z</time>
      </trkpt>
      <trkpt lat="42.334431" lon="2.037859">
        <ele>1559.18152</ele>
        <time>2021-07-02T08:25:17Z</time>
      </trkpt>
      <trkpt lat="42.334389" lon="2.037585">
        <ele>1560.28210</ele>
        <time>2021-07-02T08:25:18Z</time>
      </trkpt>
      <trkpt lat="42.334373" lon="2.037300">
        <ele>1561.51379</ele>
        <time>2021-07-02T08:25:19Z</time>
      </trkpt>
      <trkpt lat="42.334347" lon="2.037040">
        <ele>1562.96326</ele>
        <time>2021-07-02T08:25:20Z</time>
      </trkpt>
      <trkpt lat="42.334274" lon="2.036787">
        <ele>1564.68689</ele>
        <time>2021-07-02T08:25:21Z</time>
      </trkpt>
      <trkpt lat="42.334160" lon="2.036549">
        <ele>1565.69470</ele>
        <time>2021-07-02T08:25:22Z</time>
      </trkpt>
      <trkpt lat="42.334019" lon="2.036285">
        <ele>1566.58533</ele>
        <time>2021-07-02T08:25:23Z</time>
      </trkpt>
      <trkpt lat="42.333904" lon="2.036050">
        <ele>1562.55920</ele>
        <time>2021-07-02T08:25:24Z</time>
      </trkpt>
      <trkpt lat="42.333817" lon="2.035839">
        <ele>1562.84583</ele>
        <time>2021-07-02T08:25:25Z</time>
      </trkpt>
      <trkpt lat="42.333763" lon="2.035634">
        <ele>1563.23938</ele>
        <time>2021-07-02T08:25:26Z</time>
      </trkpt>
      <trkpt lat="42.333733" lon="2.035433">
        <ele>1563.42163</ele>
        <time>2021-07-02T08:25:27Z</time>
      </trkpt>
      <trkpt lat="42.333729" lon="2.035231">
        <ele>1563.72766</ele>
        <time>2021-07-02T08:25:28Z</time>
      </trkpt>
      <trkpt lat="42.333748" lon="2.035008">
        <ele>1565.18384</ele>
        <time>2021-07-02T08:25:29Z</time>
      </trkpt>
      <trkpt lat="42.333801" lon="2.034814">
        <ele>1566.04358</ele>
        <time>2021-07-02T08:25:30Z</time>
      </trkpt>
      <trkpt lat="42.333885" lon="2.034626">
        <ele>1566.83484</ele>
        <time>2021-07-02T08:25:31Z</time>
      </trkpt>
      <trkpt lat="42.334026" lon="2.034473">
        <ele>1568.62134</ele>
        <time>2021-07-02T08:25:32Z</time>
      </trkpt>
      <trkpt lat="42.334160" lon="2.034379">
        <ele>1569.97388</ele>
        <time>2021-07-02T08:25:33Z</time>
      </trkpt>
      <trkpt lat="42.334316" lon="2.034277">
        <ele>1575.91345</ele>
        <time>2021-07-02T08:25:34Z</time>
      </trkpt>
      <trkpt lat="42.334484" lon="2.034153">
        <ele>1577.36658</ele>
        <time>2021-07-02T08:25:35Z</time>
      </trkpt>
      <trkpt lat="42.334724" lon="2.033966">
        <ele>1579.60388</ele>
        <time>2021-07-02T08:25:36Z</time>
      </trkpt>
      <trkpt lat="42.334915" lon="2.033795">
        <ele>1581.54333</ele>
        <time>2021-07-02T08:25:37Z</time>
      </trkpt>
      <trkpt lat="42.335129" lon="2.033622">
        <ele>1583.09070</ele>
        <time>2021-07-02T08:25:38Z</time>
      </trkpt>
      <trkpt lat="42.335285" lon="2.033530">
        <ele>1584.66736</ele>
        <time>2021-07-02T08:25:39Z</time>
      </trkpt>
      <trkpt lat="42.335468" lon="2.033429">
        <ele>1585.13025</ele>
        <time>2021-07-02T08:25:40Z</time>
      </trkpt>
      <trkpt lat="42.335709" lon="2.033363">
        <ele>1586.59070</ele>
        <time>2021-07-02T08:25:41Z</time>
      </trkpt>
      <trkpt lat="42.335918" lon="2.033345">
        <ele>1587.76038</ele>
        <time>2021-07-02T08:25:42Z</time>
      </trkpt>
      <trkpt lat="42.336102" lon="2.033358">
        <ele>1581.53430</ele>
        <time>2021-07-02T08:25:43Z</time>
      </trkpt>
      <trkpt lat="42.336254" lon="2.033427">
        <ele>1581.78003</ele>
        <time>2021-07-02T08:25:44Z</time>
      </trkpt>
      <trkpt lat="42.336411" lon="2.033531">
        <ele>1582.66272</ele>
        <time>2021-07-02T08:25:45Z</time>
      </trkpt>
      <trkpt lat="42.336555" lon="2.033674">
        <ele>1588.72791</ele>
        <time>2021-07-02T08:25:46Z</time>
      </trkpt>
      <trkpt lat="42.336555" lon="2.033674">
        <ele>1590.65564</ele>
        <time>2021-07-02T08:25:47Z</time>
      </trkpt>
      <trkpt lat="42.336735" lon="2.033846">
        <ele>1592.03723</ele>
        <time>2021-07-02T08:25:48Z</time>
      </trkpt>
      <trkpt lat="42.336937" lon="2.033991">
        <ele>1587.69434</ele>
        <time>2021-07-02T08:25:49Z</time>
      </trkpt>
      <trkpt lat="42.337109" lon="2.034062">
        <ele>1587.77966</ele>
        <time>2021-07-02T08:25:50Z</time>
      </trkpt>
      <trkpt lat="42.337246" lon="2.034133">
        <ele>1588.11389</ele>
        <time>2021-07-02T08:25:51Z</time>
      </trkpt>
      <trkpt lat="42.337357" lon="2.034242">
        <ele>1588.36865</ele>
        <time>2021-07-02T08:25:52Z</time>
      </trkpt>
      <trkpt lat="42.337467" lon="2.034377">
        <ele>1588.40540</ele>
        <time>2021-07-02T08:25:53Z</time>
      </trkpt>
      <trkpt lat="42.337559" lon="2.034457">
        <ele>1588.61133</ele>
        <time>2021-07-02T08:25:54Z</time>
      </trkpt>
      <trkpt lat="42.337658" lon="2.034477">
        <ele>1596.31384</ele>
        <time>2021-07-02T08:25:55Z</time>
      </trkpt>
      <trkpt lat="42.337723" lon="2.034447">
        <ele>1597.14709</ele>
        <time>2021-07-02T08:25:56Z</time>
      </trkpt>
      <trkpt lat="42.337803" lon="2.034347">
        <ele>1598.94226</ele>
        <time>2021-07-02T08:25:57Z</time>
      </trkpt>
      <trkpt lat="42.337879" lon="2.034232">
        <ele>1592.89697</ele>
        <time>2021-07-02T08:25:58Z</time>
      </trkpt>
      <trkpt lat="42.337982" lon="2.034083">
        <ele>1594.52136</ele>
        <time>2021-07-02T08:25:59Z</time>
      </trkpt>
      <trkpt lat="42.338104" lon="2.033962">
        <ele>1595.71143</ele>
        <time>2021-07-02T08:26:00Z</time>
      </trkpt>
      <trkpt lat="42.338253" lon="2.033868">
        <ele>1596.85071</ele>
        <time>2021-07-02T08:26:01Z</time>
      </trkpt>
      <trkpt lat="42.338444" lon="2.033813">
        <ele>1602.65222</ele>
        <time>2021-07-02T08:26:02Z</time>
      </trkpt>
      <trkpt lat="42.338634" lon="2.033712">
        <ele>1603.79382</ele>
        <time>2021-07-02T08:26:03Z</time>
      </trkpt>
      <trkpt lat="42.338757" lon="2.033587">
        <ele>1604.95862</ele>
        <time>2021-07-02T08:26:04Z</time>
      </trkpt>
      <trkpt lat="42.338917" lon="2.033420">
        <ele>1605.18274</ele>
        <time>2021-07-02T08:26:05Z</time>
      </trkpt>
      <trkpt lat="42.339088" lon="2.033280">
        <ele>1606.57703</ele>
        <time>2021-07-02T08:26:06Z</time>
      </trkpt>
      <trkpt lat="42.339268" lon="2.033145">
        <ele>1606.72424</ele>
        <time>2021-07-02T08:26:07Z</time>
      </trkpt>
      <trkpt lat="42.339455" lon="2.032977">
        <ele>1606.62292</ele>
        <time>2021-07-02T08:26:08Z</time>
      </trkpt>
      <trkpt lat="42.339584" lon="2.032760">
        <ele>1606.81335</ele>
        <time>2021-07-02T08:26:09Z</time>
      </trkpt>
      <trkpt lat="42.339733" lon="2.032531">
        <ele>1607.30701</ele>
        <time>2021-07-02T08:26:10Z</time>
      </trkpt>
      <trkpt lat="42.339867" lon="2.032328">
        <ele>1609.40027</ele>
        <time>2021-07-02T08:26:11Z</time>
      </trkpt>
      <trkpt lat="42.340027" lon="2.032096">
        <ele>1610.51501</ele>
        <time>2021-07-02T08:26:12Z</time>
      </trkpt>
      <trkpt lat="42.340195" lon="2.031883">
        <ele>1611.02283</ele>
        <time>2021-07-02T08:26:13Z</time>
      </trkpt>
      <trkpt lat="42.340351" lon="2.031690">
        <ele>1611.68665</ele>
        <time>2021-07-02T08:26:14Z</time>
      </trkpt>
      <trkpt lat="42.340511" lon="2.031499">
        <ele>1613.65906</ele>
        <time>2021-07-02T08:26:15Z</time>
      </trkpt>
      <trkpt lat="42.340660" lon="2.031345">
        <ele>1614.12292</ele>
        <time>2021-07-02T08:26:16Z</time>
      </trkpt>
      <trkpt lat="42.340763" lon="2.031249">
        <ele>1616.10242</ele>
        <time>2021-07-02T08:26:17Z</time>
      </trkpt>
      <trkpt lat="42.340889" lon="2.031164">
        <ele>1614.50378</ele>
        <time>2021-07-02T08:26:18Z</time>
      </trkpt>
      <trkpt lat="42.340961" lon="2.031112">
        <ele>1614.08459</ele>
        <time>2021-07-02T08:26:19Z</time>
      </trkpt>
      <trkpt lat="42.340961" lon="2.031112">
        <ele>1613.61560</ele>
        <time>2021-07-02T08:26:20Z</time>
      </trkpt>
      <trkpt lat="42.341042" lon="2.031009">
        <ele>1614.34143</ele>
        <time>2021-07-02T08:26:21Z</time>
      </trkpt>
      <trkpt lat="42.341030" lon="2.030879">
        <ele>1615.50037</ele>
        <time>2021-07-02T08:26:22Z</time>
      </trkpt>
      <trkpt lat="42.340981" lon="2.030821">
        <ele>1614.84656</ele>
        <time>2021-07-02T08:26:23Z</time>
      </trkpt>
      <trkpt lat="42.340900" lon="2.030768">
        <ele>1615.07361</ele>
        <time>2021-07-02T08:26:24Z</time>
      </trkpt>
      <trkpt lat="42.340801" lon="2.030700">
        <ele>1614.81091</ele>
        <time>2021-07-02T08:26:25Z</time>
      </trkpt>
      <trkpt lat="42.340702" lon="2.030645">
        <ele>1616.56531</ele>
        <time>2021-07-02T08:26:26Z</time>
      </trkpt>
      <trkpt lat="42.340572" lon="2.030577">
        <ele>1616.13000</ele>
        <time>2021-07-02T08:26:27Z</time>
      </trkpt>
      <trkpt lat="42.340271" lon="2.030456">
        <ele>1616.46204</ele>
        <time>2021-07-02T08:26:28Z</time>
      </trkpt>
      <trkpt lat="42.340000" lon="2.030446">
        <ele>1617.35291</ele>
        <time>2021-07-02T08:26:29Z</time>
      </trkpt>
      <trkpt lat="42.339828" lon="2.030481">
        <ele>1620.38562</ele>
        <time>2021-07-02T08:26:30Z</time>
      </trkpt>
      <trkpt lat="42.339695" lon="2.030508">
        <ele>1619.79358</ele>
        <time>2021-07-02T08:26:31Z</time>
      </trkpt>
      <trkpt lat="42.339619" lon="2.030508">
        <ele>1619.72253</ele>
        <time>2021-07-02T08:26:32Z</time>
      </trkpt>
      <trkpt lat="42.339531" lon="2.030415">
        <ele>1619.63367</ele>
        <time>2021-07-02T08:26:33Z</time>
      </trkpt>
      <trkpt lat="42.339527" lon="2.030327">
        <ele>1620.80603</ele>
        <time>2021-07-02T08:26:34Z</time>
      </trkpt>
      <trkpt lat="42.339539" lon="2.030293">
        <ele>1621.17957</ele>
        <time>2021-07-02T08:26:35Z</time>
      </trkpt>
      <trkpt lat="42.339607" lon="2.030180">
        <ele>1621.29773</ele>
        <time>2021-07-02T08:26:36Z</time>
      </trkpt>
      <trkpt lat="42.339699" lon="2.030075">
        <ele>1621.58923</ele>
        <time>2021-07-02T08:26:37Z</time>
      </trkpt>
      <trkpt lat="42.339783" lon="2.029970">
        <ele>1623.61951</ele>
        <time>2021-07-02T08:26:38Z</time>
      </trkpt>
      <trkpt lat="42.339943" lon="2.029802">
        <ele>1623.58972</ele>
        <time>2021-07-02T08:26:39Z</time>
      </trkpt>
      <trkpt lat="42.340057" lon="2.029706">
        <ele>1624.47400</ele>
        <time>2021-07-02T08:26:40Z</time>
      </trkpt>
      <trkpt lat="42.340187" lon="2.029607">
        <ele>1625.66101</ele>
        <time>2021-07-02T08:26:41Z</time>
      </trkpt>
      <trkpt lat="42.340328" lon="2.029497">
        <ele>1627.88708</ele>
        <time>2021-07-02T08:26:42Z</time>
      </trkpt>
      <trkpt lat="42.340424" lon="2.029422">
        <ele>1629.30066</ele>
        <time>2021-07-02T08:26:43Z</time>
      </trkpt>
      <trkpt lat="42.340511" lon="2.029309">
        <ele>1629.49182</ele>
        <time>2021-07-02T08:26:44Z</time>
      </trkpt>
      <trkpt lat="42.340553" lon="2.029203">
        <ele>1630.10974</ele>
        <time>2021-07-02T08:26:45Z</time>
      </trkpt>
      <trkpt lat="42.340553" lon="2.029086">
        <ele>1630.52917</ele>
        <time>2021-07-02T08:26:46Z</time>
      </trkpt>
      <trkpt lat="42.340462" lon="2.028954">
        <ele>1631.81604</ele>
        <time>2021-07-02T08:26:47Z</time>
      </trkpt>
      <trkpt lat="42.340370" lon="2.028938">
        <ele>1632.04651</ele>
        <time>2021-07-02T08:26:48Z</time>
      </trkpt>
      <trkpt lat="42.340267" lon="2.028945">
        <ele>1631.98914</ele>
        <time>2021-07-02T08:26:49Z</time>
      </trkpt>
      <trkpt lat="42.339989" lon="2.028922">
        <ele>1632.81238</ele>
        <time>2021-07-02T08:26:50Z</time>
      </trkpt>
      <trkpt lat="42.339787" lon="2.028902">
        <ele>1632.27234</ele>
        <time>2021-07-02T08:26:51Z</time>
      </trkpt>
      <trkpt lat="42.339600" lon="2.028964">
        <ele>1632.61511</ele>
        <time>2021-07-02T08:26:52Z</time>
      </trkpt>
      <trkpt lat="42.339447" lon="2.029043">
        <ele>1633.16101</ele>
        <time>2021-07-02T08:26:53Z</time>
      </trkpt>
      <trkpt lat="42.339226" lon="2.029105">
        <ele>1634.10339</ele>
        <time>2021-07-02T08:26:54Z</time>
      </trkpt>
      <trkpt lat="42.339226" lon="2.029105">
        <ele>1635.44128</ele>
        <time>2021-07-02T08:26:55Z</time>
      </trkpt>
      <trkpt lat="42.339046" lon="2.029128">
        <ele>1635.79871</ele>
        <time>2021-07-02T08:26:56Z</time>
      </trkpt>
      <trkpt lat="42.338886" lon="2.029099">
        <ele>1635.26794</ele>
        <time>2021-07-02T08:26:57Z</time>
      </trkpt>
      <trkpt lat="42.338768" lon="2.028985">
        <ele>1636.38464</ele>
        <time>2021-07-02T08:26:58Z</time>
      </trkpt>
      <trkpt lat="42.338696" lon="2.028869">
        <ele>1636.87097</ele>
        <time>2021-07-02T08:26:59Z</time>
      </trkpt>
      <trkpt lat="42.338623" lon="2.028760">
        <ele>1637.35339</ele>
        <time>2021-07-02T08:27:00Z</time>
      </trkpt>
      <trkpt lat="42.338535" lon="2.028730">
        <ele>1637.53601</ele>
        <time>2021-07-02T08:27:01Z</time>
      </trkpt>
      <trkpt lat="42.338451" lon="2.028751">
        <ele>1638.48621</ele>
        <time>2021-07-02T08:27:02Z</time>
      </trkpt>
      <trkpt lat="42.338379" lon="2.028807">
        <ele>1639.32507</ele>
        <time>2021-07-02T08:27:03Z</time>
      </trkpt>
      <trkpt lat="42.338272" lon="2.028929">
        <ele>1639.14490</ele>
        <time>2021-07-02T08:27:04Z</time>
      </trkpt>
      <trkpt lat="42.338215" lon="2.029028">
        <ele>1643.43884</ele>
        <time>2021-07-02T08:27:05Z</time>
      </trkpt>
      <trkpt lat="42.338139" lon="2.029120">
        <ele>1644.14148</ele>
        <time>2021-07-02T08:27:06Z</time>
      </trkpt>
      <trkpt lat="42.337791" lon="2.029349">
        <ele>1645.08044</ele>
        <time>2021-07-02T08:27:07Z</time>
      </trkpt>
      <trkpt lat="42.337605" lon="2.029423">
        <ele>1645.44861</ele>
        <time>2021-07-02T08:27:08Z</time>
      </trkpt>
      <trkpt lat="42.337486" lon="2.029444">
        <ele>1646.58777</ele>
        <time>2021-07-02T08:27:09Z</time>
      </trkpt>
      <trkpt lat="42.337357" lon="2.029413">
        <ele>1647.22546</ele>
        <time>2021-07-02T08:27:10Z</time>
      </trkpt>
      <trkpt lat="42.337238" lon="2.029312">
        <ele>1645.01404</ele>
        <time>2021-07-02T08:27:11Z</time>
      </trkpt>
      <trkpt lat="42.337181" lon="2.029236">
        <ele>1645.08240</ele>
        <time>2021-07-02T08:27:12Z</time>
      </trkpt>
      <trkpt lat="42.337074" lon="2.029077">
        <ele>1647.37317</ele>
        <time>2021-07-02T08:27:13Z</time>
      </trkpt>
      <trkpt lat="42.336914" lon="2.028832">
        <ele>1649.45349</ele>
        <time>2021-07-02T08:27:14Z</time>
      </trkpt>
      <trkpt lat="42.336708" lon="2.028553">
        <ele>1651.55994</ele>
        <time>2021-07-02T08:27:15Z</time>
      </trkpt>
      <trkpt lat="42.336563" lon="2.028355">
        <ele>1653.53650</ele>
        <time>2021-07-02T08:27:16Z</time>
      </trkpt>
      <trkpt lat="42.336399" lon="2.028145">
        <ele>1653.39490</ele>
        <time>2021-07-02T08:27:17Z</time>
      </trkpt>
      <trkpt lat="42.336220" lon="2.027944">
        <ele>1653.77844</ele>
        <time>2021-07-02T08:27:18Z</time>
      </trkpt>
      <trkpt lat="42.336040" lon="2.027800">
        <ele>1656.19519</ele>
        <time>2021-07-02T08:27:19Z</time>
      </trkpt>
      <trkpt lat="42.335861" lon="2.027668">
        <ele>1657.82458</ele>
        <time>2021-07-02T08:27:20Z</time>
      </trkpt>
      <trkpt lat="42.335754" lon="2.027561">
        <ele>1657.73962</ele>
        <time>2021-07-02T08:27:21Z</time>
      </trkpt>
      <trkpt lat="42.335625" lon="2.027400">
        <ele>1658.39050</ele>
        <time>2021-07-02T08:27:22Z</time>
      </trkpt>
      <trkpt lat="42.335533" lon="2.027239">
        <ele>1659.08337</ele>
        <time>2021-07-02T08:27:23Z</time>
      </trkpt>
      <trkpt lat="42.335468" lon="2.027036">
        <ele>1659.78992</ele>
        <time>2021-07-02T08:27:24Z</time>
      </trkpt>
      <trkpt lat="42.335468" lon="2.026844">
        <ele>1660.43689</ele>
        <time>2021-07-02T08:27:25Z</time>
      </trkpt>
      <trkpt lat="42.335464" lon="2.026677">
        <ele>1661.14832</ele>
        <time>2021-07-02T08:27:26Z</time>
      </trkpt>
      <trkpt lat="42.335449" lon="2.026573">
        <ele>1661.34387</ele>
        <time>2021-07-02T08:27:27Z</time>
      </trkpt>
      <trkpt lat="42.335396" lon="2.026434">
        <ele>1664.50842</ele>
        <time>2021-07-02T08:27:28Z</time>
      </trkpt>
      <trkpt lat="42.335289" lon="2.026327">
        <ele>1665.35828</ele>
        <time>2021-07-02T08:27:29Z</time>
      </trkpt>
      <trkpt lat="42.335152" lon="2.026324">
        <ele>1666.22400</ele>
        <time>2021-07-02T08:27:30Z</time>
      </trkpt>
      <trkpt lat="42.335152" lon="2.026324">
        <ele>1667.03870</ele>
        <time>2021-07-02T08:27:31Z</time>
      </trkpt>
      <trkpt lat="42.335072" lon="2.026367">
        <ele>1668.05237</ele>
        <time>2021-07-02T08:27:32Z</time>
      </trkpt>
      <trkpt lat="42.334961" lon="2.026404">
        <ele>1670.41882</ele>
        <time>2021-07-02T08:27:33Z</time>
      </trkpt>
      <trkpt lat="42.334801" lon="2.026352">
        <ele>1671.39587</ele>
        <time>2021-07-02T08:27:34Z</time>
      </trkpt>
      <trkpt lat="42.334690" lon="2.026253">
        <ele>1672.80481</ele>
        <time>2021-07-02T08:27:35Z</time>
      </trkpt>
      <trkpt lat="42.334576" lon="2.026148">
        <ele>1675.04236</ele>
        <time>2021-07-02T08:27:36Z</time>
      </trkpt>
      <trkpt lat="42.334503" lon="2.026037">
        <ele>1676.02307</ele>
        <time>2021-07-02T08:27:37Z</time>
      </trkpt>
      <trkpt lat="42.334457" lon="2.025886">
        <ele>1676.63953</ele>
        <time>2021-07-02T08:27:38Z</time>
      </trkpt>
      <trkpt lat="42.334415" lon="2.025738">
        <ele>1678.87317</ele>
        <time>2021-07-02T08:27:39Z</time>
      </trkpt>
      <trkpt lat="42.334320" lon="2.025656">
        <ele>1679.94055</ele>
        <time>2021-07-02T08:27:40Z</time>
      </trkpt>
      <trkpt lat="42.334202" lon="2.025659">
        <ele>1680.83582</ele>
        <time>2021-07-02T08:27:41Z</time>
      </trkpt>
      <trkpt lat="42.333988" lon="2.025694">
        <ele>1682.15857</ele>
        <time>2021-07-02T08:27:42Z</time>
      </trkpt>
      <trkpt lat="42.333824" lon="2.025711">
        <ele>1683.58337</ele>
        <time>2021-07-02T08:27:43Z</time>
      </trkpt>
      <trkpt lat="42.333668" lon="2.025727">
        <ele>1685.37952</ele>
        <time>2021-07-02T08:27:44Z</time>
      </trkpt>
      <trkpt lat="42.333370" lon="2.025757">
        <ele>1687.14368</ele>
        <time>2021-07-02T08:27:45Z</time>
      </trkpt>
      <trkpt lat="42.333145" lon="2.025780">
        <ele>1688.35583</ele>
        <time>2021-07-02T08:27:46Z</time>
      </trkpt>
      <trkpt lat="42.332920" lon="2.025803">
        <ele>1689.60388</ele>
        <time>2021-07-02T08:27:47Z</time>
      </trkpt>
      <trkpt lat="42.332733" lon="2.025823">
        <ele>1690.31628</ele>
        <time>2021-07-02T08:27:48Z</time>
      </trkpt>
      <trkpt lat="42.332535" lon="2.025841">
        <ele>1691.83533</ele>
        <time>2021-07-02T08:27:49Z</time>
      </trkpt>
      <trkpt lat="42.332310" lon="2.025815">
        <ele>1691.88953</ele>
        <time>2021-07-02T08:27:50Z</time>
      </trkpt>
      <trkpt lat="42.332085" lon="2.025756">
        <ele>1692.61243</ele>
        <time>2021-07-02T08:27:51Z</time>
      </trkpt>
      <trkpt lat="42.331848" lon="2.025694">
        <ele>1692.39856</ele>
        <time>2021-07-02T08:27:52Z</time>
      </trkpt>
      <trkpt lat="42.331600" lon="2.025619">
        <ele>1693.75525</ele>
        <time>2021-07-02T08:27:53Z</time>
      </trkpt>
      <trkpt lat="42.331394" lon="2.025547">
        <ele>1694.75085</ele>
        <time>2021-07-02T08:27:54Z</time>
      </trkpt>
      <trkpt lat="42.331165" lon="2.025467">
        <ele>1695.84412</ele>
        <time>2021-07-02T08:27:55Z</time>
      </trkpt>
      <trkpt lat="42.330982" lon="2.025457">
        <ele>1696.54993</ele>
        <time>2021-07-02T08:27:56Z</time>
      </trkpt>
      <trkpt lat="42.330788" lon="2.025471">
        <ele>1694.71521</ele>
        <time>2021-07-02T08:27:57Z</time>
      </trkpt>
      <trkpt lat="42.330616" lon="2.025458">
        <ele>1694.91321</ele>
        <time>2021-07-02T08:27:58Z</time>
      </trkpt>
      <trkpt lat="42.330456" lon="2.025404">
        <ele>1696.00427</ele>
        <time>2021-07-02T08:27:59Z</time>
      </trkpt>
      <trkpt lat="42.330311" lon="2.025299">
        <ele>1697.39343</ele>
        <time>2021-07-02T08:28:00Z</time>
      </trkpt>
      <trkpt lat="42.330212" lon="2.025199">
        <ele>1698.66052</ele>
        <time>2021-07-02T08:28:01Z</time>
      </trkpt>
      <trkpt lat="42.330112" lon="2.025072">
        <ele>1698.76404</ele>
        <time>2021-07-02T08:28:02Z</time>
      </trkpt>
      <trkpt lat="42.330021" lon="2.024942">
        <ele>1698.76404</ele>
        <time>2021-07-02T08:28:03Z</time>
      </trkpt>
      <trkpt lat="42.330021" lon="2.024942">
        <ele>1687.91150</ele>
        <time>2021-07-02T08:28:04Z</time>
      </trkpt>
      <trkpt lat="42.329838" lon="2.024683">
        <ele>1687.18567</ele>
        <time>2021-07-02T08:28:05Z</time>
      </trkpt>
      <trkpt lat="42.329838" lon="2.024683">
        <ele>1687.37659</ele>
        <time>2021-07-02T08:28:06Z</time>
      </trkpt>
      <trkpt lat="42.329704" lon="2.024361">
        <ele>1687.57349</ele>
        <time>2021-07-02T08:28:07Z</time>
      </trkpt>
      <trkpt lat="42.329720" lon="2.024247">
        <ele>1688.15381</ele>
        <time>2021-07-02T08:28:08Z</time>
      </trkpt>
      <trkpt lat="42.329758" lon="2.024102">
        <ele>1690.16284</ele>
        <time>2021-07-02T08:28:09Z</time>
      </trkpt>
      <trkpt lat="42.329800" lon="2.023955">
        <ele>1691.13928</ele>
        <time>2021-07-02T08:28:10Z</time>
      </trkpt>
      <trkpt lat="42.329842" lon="2.023733">
        <ele>1692.40662</ele>
        <time>2021-07-02T08:28:11Z</time>
      </trkpt>
      <trkpt lat="42.329857" lon="2.023475">
        <ele>1697.12170</ele>
        <time>2021-07-02T08:28:12Z</time>
      </trkpt>
      <trkpt lat="42.329842" lon="2.023174">
        <ele>1695.45496</ele>
        <time>2021-07-02T08:28:13Z</time>
      </trkpt>
      <trkpt lat="42.329819" lon="2.022898">
        <ele>1695.40906</ele>
        <time>2021-07-02T08:28:14Z</time>
      </trkpt>
      <trkpt lat="42.329815" lon="2.022654">
        <ele>1695.43127</ele>
        <time>2021-07-02T08:28:15Z</time>
      </trkpt>
      <trkpt lat="42.329838" lon="2.022443">
        <ele>1695.21094</ele>
        <time>2021-07-02T08:28:16Z</time>
      </trkpt>
      <trkpt lat="42.329830" lon="2.022274">
        <ele>1695.25281</ele>
        <time>2021-07-02T08:28:17Z</time>
      </trkpt>
      <trkpt lat="42.329819" lon="2.022233">
        <ele>1695.59229</ele>
        <time>2021-07-02T08:28:18Z</time>
      </trkpt>
      <trkpt lat="42.329769" lon="2.022163">
        <ele>1696.38306</ele>
        <time>2021-07-02T08:28:19Z</time>
      </trkpt>
      <trkpt lat="42.329693" lon="2.022135">
        <ele>1696.90247</ele>
        <time>2021-07-02T08:28:20Z</time>
      </trkpt>
      <trkpt lat="42.329597" lon="2.022130">
        <ele>1698.06519</ele>
        <time>2021-07-02T08:28:21Z</time>
      </trkpt>
      <trkpt lat="42.329475" lon="2.022123">
        <ele>1699.10962</ele>
        <time>2021-07-02T08:28:22Z</time>
      </trkpt>
      <trkpt lat="42.329361" lon="2.022081">
        <ele>1700.20459</ele>
        <time>2021-07-02T08:28:23Z</time>
      </trkpt>
      <trkpt lat="42.329197" lon="2.021973">
        <ele>1701.60718</ele>
        <time>2021-07-02T08:28:24Z</time>
      </trkpt>
      <trkpt lat="42.329021" lon="2.021854">
        <ele>1704.01111</ele>
        <time>2021-07-02T08:28:25Z</time>
      </trkpt>
      <trkpt lat="42.328831" lon="2.021765">
        <ele>1708.86218</ele>
        <time>2021-07-02T08:28:26Z</time>
      </trkpt>
      <trkpt lat="42.328636" lon="2.021707">
        <ele>1710.18103</ele>
        <time>2021-07-02T08:28:27Z</time>
      </trkpt>
      <trkpt lat="42.328415" lon="2.021641">
        <ele>1711.36584</ele>
        <time>2021-07-02T08:28:28Z</time>
      </trkpt>
      <trkpt lat="42.328220" lon="2.021600">
        <ele>1711.78845</ele>
        <time>2021-07-02T08:28:29Z</time>
      </trkpt>
      <trkpt lat="42.327984" lon="2.021557">
        <ele>1708.47803</ele>
        <time>2021-07-02T08:28:30Z</time>
      </trkpt>
      <trkpt lat="42.327812" lon="2.021525">
        <ele>1708.32349</ele>
        <time>2021-07-02T08:28:31Z</time>
      </trkpt>
      <trkpt lat="42.327713" lon="2.021474">
        <ele>1707.80518</ele>
        <time>2021-07-02T08:28:32Z</time>
      </trkpt>
      <trkpt lat="42.327713" lon="2.021474">
        <ele>1707.71143</ele>
        <time>2021-07-02T08:28:33Z</time>
      </trkpt>
      <trkpt lat="42.327587" lon="2.021381">
        <ele>1707.94409</ele>
        <time>2021-07-02T08:28:34Z</time>
      </trkpt>
      <trkpt lat="42.327515" lon="2.021277">
        <ele>1708.25769</ele>
        <time>2021-07-02T08:28:35Z</time>
      </trkpt>
      <trkpt lat="42.327465" lon="2.021173">
        <ele>1708.37061</ele>
        <time>2021-07-02T08:28:36Z</time>
      </trkpt>
      <trkpt lat="42.327431" lon="2.020993">
        <ele>1710.85791</ele>
        <time>2021-07-02T08:28:37Z</time>
      </trkpt>
      <trkpt lat="42.327415" lon="2.020763">
        <ele>1714.87292</ele>
        <time>2021-07-02T08:28:38Z</time>
      </trkpt>
      <trkpt lat="42.327396" lon="2.020505">
        <ele>1715.45642</ele>
        <time>2021-07-02T08:28:39Z</time>
      </trkpt>
      <trkpt lat="42.327370" lon="2.020172">
        <ele>1718.17078</ele>
        <time>2021-07-02T08:28:40Z</time>
      </trkpt>
      <trkpt lat="42.327347" lon="2.019842">
        <ele>1720.07117</ele>
        <time>2021-07-02T08:28:41Z</time>
      </trkpt>
      <trkpt lat="42.327358" lon="2.019616">
        <ele>1721.61780</ele>
        <time>2021-07-02T08:28:42Z</time>
      </trkpt>
      <trkpt lat="42.327412" lon="2.019379">
        <ele>1722.12781</ele>
        <time>2021-07-02T08:28:43Z</time>
      </trkpt>
      <trkpt lat="42.327518" lon="2.019156">
        <ele>1722.55945</ele>
        <time>2021-07-02T08:28:44Z</time>
      </trkpt>
      <trkpt lat="42.327629" lon="2.018963">
        <ele>1721.87537</ele>
        <time>2021-07-02T08:28:45Z</time>
      </trkpt>
      <trkpt lat="42.327751" lon="2.018780">
        <ele>1721.88318</ele>
        <time>2021-07-02T08:28:46Z</time>
      </trkpt>
      <trkpt lat="42.327866" lon="2.018625">
        <ele>1722.29138</ele>
        <time>2021-07-02T08:28:47Z</time>
      </trkpt>
      <trkpt lat="42.328011" lon="2.018442">
        <ele>1724.19421</ele>
        <time>2021-07-02T08:28:48Z</time>
      </trkpt>
      <trkpt lat="42.328228" lon="2.018179">
        <ele>1724.81262</ele>
        <time>2021-07-02T08:28:49Z</time>
      </trkpt>
      <trkpt lat="42.328381" lon="2.018021">
        <ele>1716.01392</ele>
        <time>2021-07-02T08:28:50Z</time>
      </trkpt>
      <trkpt lat="42.328526" lon="2.017886">
        <ele>1715.71936</ele>
        <time>2021-07-02T08:28:51Z</time>
      </trkpt>
      <trkpt lat="42.328663" lon="2.017760">
        <ele>1714.75256</ele>
        <time>2021-07-02T08:28:52Z</time>
      </trkpt>
      <trkpt lat="42.328762" lon="2.017640">
        <ele>1714.78333</ele>
        <time>2021-07-02T08:28:53Z</time>
      </trkpt>
      <trkpt lat="42.328808" lon="2.017467">
        <ele>1715.36267</ele>
        <time>2021-07-02T08:28:54Z</time>
      </trkpt>
      <trkpt lat="42.328831" lon="2.017245">
        <ele>1716.72119</ele>
        <time>2021-07-02T08:28:55Z</time>
      </trkpt>
      <trkpt lat="42.328835" lon="2.017014">
        <ele>1717.31262</ele>
        <time>2021-07-02T08:28:56Z</time>
      </trkpt>
      <trkpt lat="42.328827" lon="2.016754">
        <ele>1717.32617</ele>
        <time>2021-07-02T08:28:57Z</time>
      </trkpt>
      <trkpt lat="42.328827" lon="2.016754">
        <ele>1717.13818</ele>
        <time>2021-07-02T08:28:58Z</time>
      </trkpt>
      <trkpt lat="42.328823" lon="2.016502">
        <ele>1717.44006</ele>
        <time>2021-07-02T08:28:59Z</time>
      </trkpt>
      <trkpt lat="42.328850" lon="2.016307">
        <ele>1718.00488</ele>
        <time>2021-07-02T08:29:00Z</time>
      </trkpt>
      <trkpt lat="42.328903" lon="2.016122">
        <ele>1718.54150</ele>
        <time>2021-07-02T08:29:01Z</time>
      </trkpt>
      <trkpt lat="42.328995" lon="2.015916">
        <ele>1719.24915</ele>
        <time>2021-07-02T08:29:02Z</time>
      </trkpt>
      <trkpt lat="42.329124" lon="2.015735">
        <ele>1723.94324</ele>
        <time>2021-07-02T08:29:03Z</time>
      </trkpt>
      <trkpt lat="42.329258" lon="2.015572">
        <ele>1725.27625</ele>
        <time>2021-07-02T08:29:04Z</time>
      </trkpt>
      <trkpt lat="42.329456" lon="2.015359">
        <ele>1725.78723</ele>
        <time>2021-07-02T08:29:05Z</time>
      </trkpt>
      <trkpt lat="42.329662" lon="2.015151">
        <ele>1726.28235</ele>
        <time>2021-07-02T08:29:06Z</time>
      </trkpt>
      <trkpt lat="42.329857" lon="2.014968">
        <ele>1726.94690</ele>
        <time>2021-07-02T08:29:07Z</time>
      </trkpt>
      <trkpt lat="42.330055" lon="2.014766">
        <ele>1727.18933</ele>
        <time>2021-07-02T08:29:08Z</time>
      </trkpt>
      <trkpt lat="42.330238" lon="2.014537">
        <ele>1727.50378</ele>
        <time>2021-07-02T08:29:09Z</time>
      </trkpt>
      <trkpt lat="42.330414" lon="2.014311">
        <ele>1727.75574</ele>
        <time>2021-07-02T08:29:10Z</time>
      </trkpt>
      <trkpt lat="42.330570" lon="2.014128">
        <ele>1728.22400</ele>
        <time>2021-07-02T08:29:11Z</time>
      </trkpt>
      <trkpt lat="42.330727" lon="2.013975">
        <ele>1722.22375</ele>
        <time>2021-07-02T08:29:12Z</time>
      </trkpt>
      <trkpt lat="42.330879" lon="2.013903">
        <ele>1722.39832</ele>
        <time>2021-07-02T08:29:13Z</time>
      </trkpt>
      <trkpt lat="42.331028" lon="2.013868">
        <ele>1723.24170</ele>
        <time>2021-07-02T08:29:14Z</time>
      </trkpt>
      <trkpt lat="42.331203" lon="2.013854">
        <ele>1726.37097</ele>
        <time>2021-07-02T08:29:15Z</time>
      </trkpt>
      <trkpt lat="42.331390" lon="2.013833">
        <ele>1727.16882</ele>
        <time>2021-07-02T08:29:16Z</time>
      </trkpt>
      <trkpt lat="42.331711" lon="2.013754">
        <ele>1727.83582</ele>
        <time>2021-07-02T08:29:17Z</time>
      </trkpt>
      <trkpt lat="42.331909" lon="2.013694">
        <ele>1728.32385</ele>
        <time>2021-07-02T08:29:18Z</time>
      </trkpt>
      <trkpt lat="42.332069" lon="2.013647">
        <ele>1728.17664</ele>
        <time>2021-07-02T08:29:19Z</time>
      </trkpt>
      <trkpt lat="42.332268" lon="2.013648">
        <ele>1729.04504</ele>
        <time>2021-07-02T08:29:20Z</time>
      </trkpt>
      <trkpt lat="42.332520" lon="2.013691">
        <ele>1729.57556</ele>
        <time>2021-07-02T08:29:21Z</time>
      </trkpt>
      <trkpt lat="42.332764" lon="2.013721">
        <ele>1728.09729</ele>
        <time>2021-07-02T08:29:22Z</time>
      </trkpt>
      <trkpt lat="42.332977" lon="2.013749">
        <ele>1728.93616</ele>
        <time>2021-07-02T08:29:23Z</time>
      </trkpt>
      <trkpt lat="42.333126" lon="2.013789">
        <ele>1729.23181</ele>
        <time>2021-07-02T08:29:24Z</time>
      </trkpt>
      <trkpt lat="42.333305" lon="2.013829">
        <ele>1729.12634</ele>
        <time>2021-07-02T08:29:25Z</time>
      </trkpt>
      <trkpt lat="42.333462" lon="2.013802">
        <ele>1727.28992</ele>
        <time>2021-07-02T08:29:26Z</time>
      </trkpt>
      <trkpt lat="42.333496" lon="2.013743">
        <ele>1726.80603</ele>
        <time>2021-07-02T08:29:27Z</time>
      </trkpt>
      <trkpt lat="42.333496" lon="2.013743">
        <ele>1726.47644</ele>
        <time>2021-07-02T08:29:28Z</time>
      </trkpt>
      <trkpt lat="42.333496" lon="2.013732">
        <ele>1726.40808</ele>
        <time>2021-07-02T08:29:29Z</time>
      </trkpt>
      <trkpt lat="42.333504" lon="2.013676">
        <ele>1725.81384</ele>
        <time>2021-07-02T08:29:30Z</time>
      </trkpt>
      <trkpt lat="42.333508" lon="2.013605">
        <ele>1725.25769</ele>
        <time>2021-07-02T08:29:31Z</time>
      </trkpt>
      <trkpt lat="42.333500" lon="2.013459">
        <ele>1725.54333</ele>
        <time>2021-07-02T08:29:32Z</time>
      </trkpt>
      <trkpt lat="42.333485" lon="2.013102">
        <ele>1725.72107</ele>
        <time>2021-07-02T08:29:33Z</time>
      </trkpt>
      <trkpt lat="42.333469" lon="2.012757">
        <ele>1726.47546</ele>
        <time>2021-07-02T08:29:34Z</time>
      </trkpt>
      <trkpt lat="42.333477" lon="2.012578">
        <ele>1725.57776</ele>
        <time>2021-07-02T08:29:35Z</time>
      </trkpt>
      <trkpt lat="42.333511" lon="2.012402">
        <ele>1725.16101</ele>
        <time>2021-07-02T08:29:36Z</time>
      </trkpt>
      <trkpt lat="42.333591" lon="2.012216">
        <ele>1726.42419</ele>
        <time>2021-07-02T08:29:37Z</time>
      </trkpt>
      <trkpt lat="42.333706" lon="2.012044">
        <ele>1726.91882</ele>
        <time>2021-07-02T08:29:38Z</time>
      </trkpt>
      <trkpt lat="42.333878" lon="2.011808">
        <ele>1727.52917</ele>
        <time>2021-07-02T08:29:39Z</time>
      </trkpt>
      <trkpt lat="42.334038" lon="2.011624">
        <ele>1728.08533</ele>
        <time>2021-07-02T08:29:40Z</time>
      </trkpt>
      <trkpt lat="42.334175" lon="2.011494">
        <ele>1728.30115</ele>
        <time>2021-07-02T08:29:41Z</time>
      </trkpt>
      <trkpt lat="42.334332" lon="2.011370">
        <ele>1727.56360</ele>
        <time>2021-07-02T08:29:42Z</time>
      </trkpt>
      <trkpt lat="42.334507" lon="2.011249">
        <ele>1728.57703</ele>
        <time>2021-07-02T08:29:43Z</time>
      </trkpt>
      <trkpt lat="42.334709" lon="2.011135">
        <ele>1730.08337</ele>
        <time>2021-07-02T08:29:44Z</time>
      </trkpt>
      <trkpt lat="42.334885" lon="2.011054">
        <ele>1729.97156</ele>
        <time>2021-07-02T08:29:45Z</time>
      </trkpt>
      <trkpt lat="42.335072" lon="2.011019">
        <ele>1730.08484</ele>
        <time>2021-07-02T08:29:46Z</time>
      </trkpt>
      <trkpt lat="42.335247" lon="2.011024">
        <ele>1730.05798</ele>
        <time>2021-07-02T08:29:47Z</time>
      </trkpt>
      <trkpt lat="42.335415" lon="2.011052">
        <ele>1730.98596</ele>
        <time>2021-07-02T08:29:48Z</time>
      </trkpt>
      <trkpt lat="42.335579" lon="2.011105">
        <ele>1731.51453</ele>
        <time>2021-07-02T08:29:49Z</time>
      </trkpt>
      <trkpt lat="42.335709" lon="2.011147">
        <ele>1730.24036</ele>
        <time>2021-07-02T08:29:50Z</time>
      </trkpt>
      <trkpt lat="42.335827" lon="2.011178">
        <ele>1729.97644</ele>
        <time>2021-07-02T08:29:51Z</time>
      </trkpt>
      <trkpt lat="42.335903" lon="2.011167">
        <ele>1729.62830</ele>
        <time>2021-07-02T08:29:52Z</time>
      </trkpt>
      <trkpt lat="42.335987" lon="2.011108">
        <ele>1729.91248</ele>
        <time>2021-07-02T08:29:53Z</time>
      </trkpt>
      <trkpt lat="42.336018" lon="2.011028">
        <ele>1730.47986</ele>
        <time>2021-07-02T08:29:54Z</time>
      </trkpt>
      <trkpt lat="42.336018" lon="2.010930">
        <ele>1730.58752</ele>
        <time>2021-07-02T08:29:55Z</time>
      </trkpt>
      <trkpt lat="42.335968" lon="2.010796">
        <ele>1730.18396</ele>
        <time>2021-07-02T08:29:56Z</time>
      </trkpt>
      <trkpt lat="42.335903" lon="2.010696">
        <ele>1731.05334</ele>
        <time>2021-07-02T08:29:57Z</time>
      </trkpt>
      <trkpt lat="42.335823" lon="2.010564">
        <ele>1729.39734</ele>
        <time>2021-07-02T08:29:58Z</time>
      </trkpt>
      <trkpt lat="42.335773" lon="2.010469">
        <ele>1731.42468</ele>
        <time>2021-07-02T08:29:59Z</time>
      </trkpt>
      <trkpt lat="42.335640" lon="2.010194">
        <ele>1730.01135</ele>
        <time>2021-07-02T08:30:00Z</time>
      </trkpt>
      <trkpt lat="42.335480" lon="2.009865">
        <ele>1729.08484</ele>
        <time>2021-07-02T08:30:01Z</time>
      </trkpt>
      <trkpt lat="42.335381" lon="2.009681">
        <ele>1728.47839</ele>
        <time>2021-07-02T08:30:02Z</time>
      </trkpt>
      <trkpt lat="42.335278" lon="2.009448">
        <ele>1727.74011</ele>
        <time>2021-07-02T08:30:03Z</time>
      </trkpt>
      <trkpt lat="42.335190" lon="2.009218">
        <ele>1728.54675</ele>
        <time>2021-07-02T08:30:04Z</time>
      </trkpt>
      <trkpt lat="42.335091" lon="2.009014">
        <ele>1729.28796</ele>
        <time>2021-07-02T08:30:05Z</time>
      </trkpt>
      <trkpt lat="42.334965" lon="2.008950">
        <ele>1729.27600</ele>
        <time>2021-07-02T08:30:06Z</time>
      </trkpt>
      <trkpt lat="42.334965" lon="2.008950">
        <ele>1729.58899</ele>
        <time>2021-07-02T08:30:07Z</time>
      </trkpt>
      <trkpt lat="42.334892" lon="2.008970">
        <ele>1729.70886</ele>
        <time>2021-07-02T08:30:08Z</time>
      </trkpt>
      <trkpt lat="42.334816" lon="2.009013">
        <ele>1728.47253</ele>
        <time>2021-07-02T08:30:09Z</time>
      </trkpt>
      <trkpt lat="42.334721" lon="2.009067">
        <ele>1729.44226</ele>
        <time>2021-07-02T08:30:10Z</time>
      </trkpt>
      <trkpt lat="42.334545" lon="2.009152">
        <ele>1729.93396</ele>
        <time>2021-07-02T08:30:11Z</time>
      </trkpt>
      <trkpt lat="42.334312" lon="2.009205">
        <ele>1731.53137</ele>
        <time>2021-07-02T08:30:12Z</time>
      </trkpt>
      <trkpt lat="42.334091" lon="2.009241">
        <ele>1731.08704</ele>
        <time>2021-07-02T08:30:13Z</time>
      </trkpt>
      <trkpt lat="42.333881" lon="2.009247">
        <ele>1731.15515</ele>
        <time>2021-07-02T08:30:14Z</time>
      </trkpt>
      <trkpt lat="42.333652" lon="2.009235">
        <ele>1732.16003</ele>
        <time>2021-07-02T08:30:15Z</time>
      </trkpt>
      <trkpt lat="42.333439" lon="2.009215">
        <ele>1733.63757</ele>
        <time>2021-07-02T08:30:16Z</time>
      </trkpt>
      <trkpt lat="42.333233" lon="2.009170">
        <ele>1734.82654</ele>
        <time>2021-07-02T08:30:17Z</time>
      </trkpt>
      <trkpt lat="42.332989" lon="2.009101">
        <ele>1734.95447</ele>
        <time>2021-07-02T08:30:18Z</time>
      </trkpt>
      <trkpt lat="42.332783" lon="2.009020">
        <ele>1736.45740</ele>
        <time>2021-07-02T08:30:19Z</time>
      </trkpt>
      <trkpt lat="42.332588" lon="2.008879">
        <ele>1736.86072</ele>
        <time>2021-07-02T08:30:20Z</time>
      </trkpt>
      <trkpt lat="42.332516" lon="2.008776">
        <ele>1736.23328</ele>
        <time>2021-07-02T08:30:21Z</time>
      </trkpt>
      <trkpt lat="42.332466" lon="2.008565">
        <ele>1736.30554</ele>
        <time>2021-07-02T08:30:22Z</time>
      </trkpt>
      <trkpt lat="42.332466" lon="2.008503">
        <ele>1736.13074</ele>
        <time>2021-07-02T08:30:23Z</time>
      </trkpt>
      <trkpt lat="42.332500" lon="2.008340">
        <ele>1736.19373</ele>
        <time>2021-07-02T08:30:24Z</time>
      </trkpt>
      <trkpt lat="42.332535" lon="2.008211">
        <ele>1736.67126</ele>
        <time>2021-07-02T08:30:25Z</time>
      </trkpt>
      <trkpt lat="42.332584" lon="2.008063">
        <ele>1736.94788</ele>
        <time>2021-07-02T08:30:26Z</time>
      </trkpt>
      <trkpt lat="42.332718" lon="2.007616">
        <ele>1737.54968</ele>
        <time>2021-07-02T08:30:27Z</time>
      </trkpt>
      <trkpt lat="42.332783" lon="2.007344">
        <ele>1738.25330</ele>
        <time>2021-07-02T08:30:28Z</time>
      </trkpt>
      <trkpt lat="42.332859" lon="2.007034">
        <ele>1739.17957</ele>
        <time>2021-07-02T08:30:29Z</time>
      </trkpt>
      <trkpt lat="42.332924" lon="2.006759">
        <ele>1740.41980</ele>
        <time>2021-07-02T08:30:30Z</time>
      </trkpt>
      <trkpt lat="42.332977" lon="2.006545">
        <ele>1739.59338</ele>
        <time>2021-07-02T08:30:31Z</time>
      </trkpt>
      <trkpt lat="42.332996" lon="2.006352">
        <ele>1739.54382</ele>
        <time>2021-07-02T08:30:32Z</time>
      </trkpt>
      <trkpt lat="42.332993" lon="2.006294">
        <ele>1739.30750</ele>
        <time>2021-07-02T08:30:33Z</time>
      </trkpt>
      <trkpt lat="42.332947" lon="2.006129">
        <ele>1739.76404</ele>
        <time>2021-07-02T08:30:34Z</time>
      </trkpt>
      <trkpt lat="42.332867" lon="2.006036">
        <ele>1739.74207</ele>
        <time>2021-07-02T08:30:35Z</time>
      </trkpt>
      <trkpt lat="42.332745" lon="2.005981">
        <ele>1741.09119</ele>
        <time>2021-07-02T08:30:36Z</time>
      </trkpt>
      <trkpt lat="42.332584" lon="2.005922">
        <ele>1742.40466</ele>
        <time>2021-07-02T08:30:37Z</time>
      </trkpt>
      <trkpt lat="42.332333" lon="2.005830">
        <ele>1742.75574</ele>
        <time>2021-07-02T08:30:38Z</time>
      </trkpt>
      <trkpt lat="42.332138" lon="2.005759">
        <ele>1743.84607</ele>
        <time>2021-07-02T08:30:39Z</time>
      </trkpt>
      <trkpt lat="42.331913" lon="2.005676">
        <ele>1743.84387</ele>
        <time>2021-07-02T08:30:40Z</time>
      </trkpt>
      <trkpt lat="42.331715" lon="2.005584">
        <ele>1742.28210</ele>
        <time>2021-07-02T08:30:41Z</time>
      </trkpt>
      <trkpt lat="42.331715" lon="2.005584">
        <ele>1742.88318</ele>
        <time>2021-07-02T08:30:42Z</time>
      </trkpt>
      <trkpt lat="42.331505" lon="2.005449">
        <ele>1742.04309</ele>
        <time>2021-07-02T08:30:43Z</time>
      </trkpt>
      <trkpt lat="42.331322" lon="2.005306">
        <ele>1742.05286</ele>
        <time>2021-07-02T08:30:44Z</time>
      </trkpt>
      <trkpt lat="42.331135" lon="2.005133">
        <ele>1740.04187</ele>
        <time>2021-07-02T08:30:45Z</time>
      </trkpt>
      <trkpt lat="42.331009" lon="2.004954">
        <ele>1739.81140</ele>
        <time>2021-07-02T08:30:46Z</time>
      </trkpt>
      <trkpt lat="42.330959" lon="2.004826">
        <ele>1739.75037</ele>
        <time>2021-07-02T08:30:47Z</time>
      </trkpt>
      <trkpt lat="42.330933" lon="2.004642">
        <ele>1738.79651</ele>
        <time>2021-07-02T08:30:48Z</time>
      </trkpt>
      <trkpt lat="42.330952" lon="2.004528">
        <ele>1738.16687</ele>
        <time>2021-07-02T08:30:49Z</time>
      </trkpt>
      <trkpt lat="42.331005" lon="2.004398">
        <ele>1739.17346</ele>
        <time>2021-07-02T08:30:50Z</time>
      </trkpt>
      <trkpt lat="42.331078" lon="2.004310">
        <ele>1739.48474</ele>
        <time>2021-07-02T08:30:51Z</time>
      </trkpt>
      <trkpt lat="42.331177" lon="2.004254">
        <ele>1742.19470</ele>
        <time>2021-07-02T08:30:52Z</time>
      </trkpt>
      <trkpt lat="42.331318" lon="2.004209">
        <ele>1742.83411</ele>
        <time>2021-07-02T08:30:53Z</time>
      </trkpt>
      <trkpt lat="42.331551" lon="2.004078">
        <ele>1742.86511</ele>
        <time>2021-07-02T08:30:54Z</time>
      </trkpt>
      <trkpt lat="42.331661" lon="2.003940">
        <ele>1742.92834</ele>
        <time>2021-07-02T08:30:55Z</time>
      </trkpt>
      <trkpt lat="42.331860" lon="2.003676">
        <ele>1742.50500</ele>
        <time>2021-07-02T08:30:56Z</time>
      </trkpt>
      <trkpt lat="42.332024" lon="2.003406">
        <ele>1742.47498</ele>
        <time>2021-07-02T08:30:57Z</time>
      </trkpt>
      <trkpt lat="42.332180" lon="2.003155">
        <ele>1742.58582</ele>
        <time>2021-07-02T08:30:58Z</time>
      </trkpt>
      <trkpt lat="42.332302" lon="2.002953">
        <ele>1743.09363</ele>
        <time>2021-07-02T08:30:59Z</time>
      </trkpt>
      <trkpt lat="42.332443" lon="2.002781">
        <ele>1739.90564</ele>
        <time>2021-07-02T08:31:00Z</time>
      </trkpt>
      <trkpt lat="42.332626" lon="2.002614">
        <ele>1739.74158</ele>
        <time>2021-07-02T08:31:01Z</time>
      </trkpt>
      <trkpt lat="42.332752" lon="2.002518">
        <ele>1737.10754</ele>
        <time>2021-07-02T08:31:02Z</time>
      </trkpt>
      <trkpt lat="42.332935" lon="2.002408">
        <ele>1737.59973</ele>
        <time>2021-07-02T08:31:03Z</time>
      </trkpt>
      <trkpt lat="42.333214" lon="2.002248">
        <ele>1738.02820</ele>
        <time>2021-07-02T08:31:04Z</time>
      </trkpt>
      <trkpt lat="42.333408" lon="2.002148">
        <ele>1739.28406</ele>
        <time>2021-07-02T08:31:05Z</time>
      </trkpt>
      <trkpt lat="42.333588" lon="2.002056">
        <ele>1739.27039</ele>
        <time>2021-07-02T08:31:06Z</time>
      </trkpt>
      <trkpt lat="42.333847" lon="2.001924">
        <ele>1743.58289</ele>
        <time>2021-07-02T08:31:07Z</time>
      </trkpt>
      <trkpt lat="42.334042" lon="2.001859">
        <ele>1743.89832</ele>
        <time>2021-07-02T08:31:08Z</time>
      </trkpt>
      <trkpt lat="42.334221" lon="2.001813">
        <ele>1744.08923</ele>
        <time>2021-07-02T08:31:09Z</time>
      </trkpt>
      <trkpt lat="42.334351" lon="2.001709">
        <ele>1744.31287</ele>
        <time>2021-07-02T08:31:10Z</time>
      </trkpt>
      <trkpt lat="42.334393" lon="2.001650">
        <ele>1745.52673</ele>
        <time>2021-07-02T08:31:11Z</time>
      </trkpt>
      <trkpt lat="42.334507" lon="2.001402">
        <ele>1745.70813</ele>
        <time>2021-07-02T08:31:12Z</time>
      </trkpt>
      <trkpt lat="42.334606" lon="2.001159">
        <ele>1745.22864</ele>
        <time>2021-07-02T08:31:13Z</time>
      </trkpt>
      <trkpt lat="42.334606" lon="2.001159">
        <ele>1746.14514</ele>
        <time>2021-07-02T08:31:14Z</time>
      </trkpt>
      <trkpt lat="42.334686" lon="2.000954">
        <ele>1747.23474</ele>
        <time>2021-07-02T08:31:15Z</time>
      </trkpt>
      <trkpt lat="42.334816" lon="2.000751">
        <ele>1747.39148</ele>
        <time>2021-07-02T08:31:16Z</time>
      </trkpt>
      <trkpt lat="42.334953" lon="2.000584">
        <ele>1747.43860</ele>
        <time>2021-07-02T08:31:17Z</time>
      </trkpt>
      <trkpt lat="42.335110" lon="2.000395">
        <ele>1747.63318</ele>
        <time>2021-07-02T08:31:18Z</time>
      </trkpt>
      <trkpt lat="42.335228" lon="2.000248">
        <ele>1749.66199</ele>
        <time>2021-07-02T08:31:19Z</time>
      </trkpt>
      <trkpt lat="42.335350" lon="2.000094">
        <ele>1750.50623</ele>
        <time>2021-07-02T08:31:20Z</time>
      </trkpt>
      <trkpt lat="42.335384" lon="2.000012">
        <ele>1751.12048</ele>
        <time>2021-07-02T08:31:21Z</time>
      </trkpt>
      <trkpt lat="42.335388" lon="1.999913">
        <ele>1755.86853</ele>
        <time>2021-07-02T08:31:22Z</time>
      </trkpt>
      <trkpt lat="42.335342" lon="1.999786">
        <ele>1755.73816</ele>
        <time>2021-07-02T08:31:23Z</time>
      </trkpt>
      <trkpt lat="42.335247" lon="1.999614">
        <ele>1756.01843</ele>
        <time>2021-07-02T08:31:24Z</time>
      </trkpt>
      <trkpt lat="42.335133" lon="1.999395">
        <ele>1756.21033</ele>
        <time>2021-07-02T08:31:25Z</time>
      </trkpt>
      <trkpt lat="42.335060" lon="1.999262">
        <ele>1757.18054</ele>
        <time>2021-07-02T08:31:26Z</time>
      </trkpt>
      <trkpt lat="42.334934" lon="1.999003">
        <ele>1758.64319</ele>
        <time>2021-07-02T08:31:27Z</time>
      </trkpt>
      <trkpt lat="42.334900" lon="1.998828">
        <ele>1758.79797</ele>
        <time>2021-07-02T08:31:28Z</time>
      </trkpt>
      <trkpt lat="42.334915" lon="1.998631">
        <ele>1757.87292</ele>
        <time>2021-07-02T08:31:29Z</time>
      </trkpt>
      <trkpt lat="42.334965" lon="1.998474">
        <ele>1757.21033</ele>
        <time>2021-07-02T08:31:30Z</time>
      </trkpt>
      <trkpt lat="42.335037" lon="1.998309">
        <ele>1757.87781</ele>
        <time>2021-07-02T08:31:31Z</time>
      </trkpt>
      <trkpt lat="42.335155" lon="1.998066">
        <ele>1758.01428</ele>
        <time>2021-07-02T08:31:32Z</time>
      </trkpt>
      <trkpt lat="42.335304" lon="1.997746">
        <ele>1757.77478</ele>
        <time>2021-07-02T08:31:33Z</time>
      </trkpt>
      <trkpt lat="42.335423" lon="1.997491">
        <ele>1758.04871</ele>
        <time>2021-07-02T08:31:34Z</time>
      </trkpt>
      <trkpt lat="42.335529" lon="1.997241">
        <ele>1757.20691</ele>
        <time>2021-07-02T08:31:35Z</time>
      </trkpt>
      <trkpt lat="42.335617" lon="1.997024">
        <ele>1757.58044</ele>
        <time>2021-07-02T08:31:36Z</time>
      </trkpt>
      <trkpt lat="42.335705" lon="1.996839">
        <ele>1757.68713</ele>
        <time>2021-07-02T08:31:37Z</time>
      </trkpt>
      <trkpt lat="42.335781" lon="1.996664">
        <ele>1758.57751</ele>
        <time>2021-07-02T08:31:38Z</time>
      </trkpt>
      <trkpt lat="42.335770" lon="1.996499">
        <ele>1759.54456</ele>
        <time>2021-07-02T08:31:39Z</time>
      </trkpt>
      <trkpt lat="42.335709" lon="1.996407">
        <ele>1761.07898</ele>
        <time>2021-07-02T08:31:40Z</time>
      </trkpt>
      <trkpt lat="42.335659" lon="1.996368">
        <ele>1761.59705</ele>
        <time>2021-07-02T08:31:41Z</time>
      </trkpt>
      <trkpt lat="42.335552" lon="1.996307">
        <ele>1759.91394</ele>
        <time>2021-07-02T08:31:42Z</time>
      </trkpt>
      <trkpt lat="42.335445" lon="1.996245">
        <ele>1759.80359</ele>
        <time>2021-07-02T08:31:43Z</time>
      </trkpt>
      <trkpt lat="42.335445" lon="1.996245">
        <ele>1758.42029</ele>
        <time>2021-07-02T08:31:44Z</time>
      </trkpt>
      <trkpt lat="42.335312" lon="1.996154">
        <ele>1758.46863</ele>
        <time>2021-07-02T08:31:45Z</time>
      </trkpt>
      <trkpt lat="42.335171" lon="1.996010">
        <ele>1758.18713</ele>
        <time>2021-07-02T08:31:46Z</time>
      </trkpt>
      <trkpt lat="42.335094" lon="1.995871">
        <ele>1758.57800</ele>
        <time>2021-07-02T08:31:47Z</time>
      </trkpt>
      <trkpt lat="42.335072" lon="1.995705">
        <ele>1758.97058</ele>
        <time>2021-07-02T08:31:48Z</time>
      </trkpt>
      <trkpt lat="42.335079" lon="1.995499">
        <ele>1761.01208</ele>
        <time>2021-07-02T08:31:49Z</time>
      </trkpt>
      <trkpt lat="42.335033" lon="1.995342">
        <ele>1761.64783</ele>
        <time>2021-07-02T08:31:50Z</time>
      </trkpt>
      <trkpt lat="42.334919" lon="1.995221">
        <ele>1761.79895</ele>
        <time>2021-07-02T08:31:51Z</time>
      </trkpt>
      <trkpt lat="42.334801" lon="1.995111">
        <ele>1762.32654</ele>
        <time>2021-07-02T08:31:52Z</time>
      </trkpt>
      <trkpt lat="42.334717" lon="1.994994">
        <ele>1764.63806</ele>
        <time>2021-07-02T08:31:53Z</time>
      </trkpt>
      <trkpt lat="42.334660" lon="1.994858">
        <ele>1762.21301</ele>
        <time>2021-07-02T08:31:54Z</time>
      </trkpt>
      <trkpt lat="42.334644" lon="1.994704">
        <ele>1761.51453</ele>
        <time>2021-07-02T08:31:55Z</time>
      </trkpt>
      <trkpt lat="42.334667" lon="1.994481">
        <ele>1762.07117</ele>
        <time>2021-07-02T08:31:56Z</time>
      </trkpt>
      <trkpt lat="42.334705" lon="1.994267">
        <ele>1762.55994</ele>
        <time>2021-07-02T08:31:57Z</time>
      </trkpt>
      <trkpt lat="42.334743" lon="1.994043">
        <ele>1763.86951</ele>
        <time>2021-07-02T08:31:58Z</time>
      </trkpt>
      <trkpt lat="42.334805" lon="1.993712">
        <ele>1766.02234</ele>
        <time>2021-07-02T08:31:59Z</time>
      </trkpt>
      <trkpt lat="42.334850" lon="1.993461">
        <ele>1767.04016</ele>
        <time>2021-07-02T08:32:00Z</time>
      </trkpt>
      <trkpt lat="42.334919" lon="1.993226">
        <ele>1768.08044</ele>
        <time>2021-07-02T08:32:01Z</time>
      </trkpt>
      <trkpt lat="42.334991" lon="1.993015">
        <ele>1767.56335</ele>
        <time>2021-07-02T08:32:02Z</time>
      </trkpt>
      <trkpt lat="42.335056" lon="1.992835">
        <ele>1768.16858</ele>
        <time>2021-07-02T08:32:03Z</time>
      </trkpt>
      <trkpt lat="42.335114" lon="1.992671">
        <ele>1768.34656</ele>
        <time>2021-07-02T08:32:04Z</time>
      </trkpt>
      <trkpt lat="42.335175" lon="1.992474">
        <ele>1769.66589</ele>
        <time>2021-07-02T08:32:05Z</time>
      </trkpt>
      <trkpt lat="42.335197" lon="1.992389">
        <ele>1770.00623</ele>
        <time>2021-07-02T08:32:06Z</time>
      </trkpt>
      <trkpt lat="42.335243" lon="1.992223">
        <ele>1771.14148</ele>
        <time>2021-07-02T08:32:07Z</time>
      </trkpt>
      <trkpt lat="42.335285" lon="1.992077">
        <ele>1771.46179</ele>
        <time>2021-07-02T08:32:08Z</time>
      </trkpt>
      <trkpt lat="42.335300" lon="1.992017">
        <ele>1772.79480</ele>
        <time>2021-07-02T08:32:09Z</time>
      </trkpt>
      <trkpt lat="42.335358" lon="1.991854">
        <ele>1771.80212</ele>
        <time>2021-07-02T08:32:10Z</time>
      </trkpt>
      <trkpt lat="42.335434" lon="1.991711">
        <ele>1773.01477</ele>
        <time>2021-07-02T08:32:11Z</time>
      </trkpt>
      <trkpt lat="42.335522" lon="1.991594">
        <ele>1773.80554</ele>
        <time>2021-07-02T08:32:12Z</time>
      </trkpt>
      <trkpt lat="42.335625" lon="1.991476">
        <ele>1774.44910</ele>
        <time>2021-07-02T08:32:13Z</time>
      </trkpt>
      <trkpt lat="42.335625" lon="1.991476">
        <ele>1774.55115</ele>
        <time>2021-07-02T08:32:14Z</time>
      </trkpt>
      <trkpt lat="42.335712" lon="1.991386">
        <ele>1774.48669</ele>
        <time>2021-07-02T08:32:15Z</time>
      </trkpt>
      <trkpt lat="42.335796" lon="1.991301">
        <ele>1779.91638</ele>
        <time>2021-07-02T08:32:16Z</time>
      </trkpt>
      <trkpt lat="42.335880" lon="1.991226">
        <ele>1783.79919</ele>
        <time>2021-07-02T08:32:17Z</time>
      </trkpt>
      <trkpt lat="42.335976" lon="1.991162">
        <ele>1785.40466</ele>
        <time>2021-07-02T08:32:18Z</time>
      </trkpt>
      <trkpt lat="42.336033" lon="1.991140">
        <ele>1784.95349</ele>
        <time>2021-07-02T08:32:19Z</time>
      </trkpt>
      <trkpt lat="42.336033" lon="1.991140">
        <ele>1785.56750</ele>
        <time>2021-07-02T08:32:20Z</time>
      </trkpt>
      <trkpt lat="42.336224" lon="1.991115">
        <ele>1785.71179</ele>
        <time>2021-07-02T08:32:21Z</time>
      </trkpt>
      <trkpt lat="42.336418" lon="1.991102">
        <ele>1785.40125</ele>
        <time>2021-07-02T08:32:22Z</time>
      </trkpt>
      <trkpt lat="42.336418" lon="1.991102">
        <ele>1786.32336</ele>
        <time>2021-07-02T08:32:23Z</time>
      </trkpt>
      <trkpt lat="42.336418" lon="1.991102">
        <ele>1787.20251</ele>
        <time>2021-07-02T08:32:24Z</time>
      </trkpt>
      <trkpt lat="42.336655" lon="1.991086">
        <ele>1787.43152</ele>
        <time>2021-07-02T08:32:25Z</time>
      </trkpt>
      <trkpt lat="42.336700" lon="1.991083">
        <ele>1787.28601</ele>
        <time>2021-07-02T08:32:26Z</time>
      </trkpt>
      <trkpt lat="42.336769" lon="1.991078">
        <ele>1786.48718</ele>
        <time>2021-07-02T08:32:27Z</time>
      </trkpt>
      <trkpt lat="42.336819" lon="1.991075">
        <ele>1786.27429</ele>
        <time>2021-07-02T08:32:28Z</time>
      </trkpt>
      <trkpt lat="42.336853" lon="1.991072">
        <ele>1785.72205</ele>
        <time>2021-07-02T08:32:29Z</time>
      </trkpt>
      <trkpt lat="42.336903" lon="1.991069">
        <ele>1785.17175</ele>
        <time>2021-07-02T08:32:30Z</time>
      </trkpt>
      <trkpt lat="42.336903" lon="1.991069">
        <ele>1785.74109</ele>
        <time>2021-07-02T08:32:31Z</time>
      </trkpt>
      <trkpt lat="42.336903" lon="1.991069">
        <ele>1785.83386</ele>
        <time>2021-07-02T08:32:32Z</time>
      </trkpt>
      <trkpt lat="42.336903" lon="1.991069">
        <ele>1778.88965</ele>
        <time>2021-07-02T08:32:33Z</time>
      </trkpt>
      <trkpt lat="42.336903" lon="1.991069">
        <ele>1780.43933</ele>
        <time>2021-07-02T08:32:34Z</time>
      </trkpt>
      <trkpt lat="42.336903" lon="1.991069">
        <ele>1781.12097</ele>
        <time>2021-07-02T08:32:35Z</time>
      </trkpt>
      <trkpt lat="42.336903" lon="1.991069">
        <ele>1781.02844</ele>
        <time>2021-07-02T08:32:36Z</time>
      </trkpt>
      <trkpt lat="42.336903" lon="1.991069">
        <ele>1781.66467</ele>
        <time>2021-07-02T08:32:37Z</time>
      </trkpt>
      <trkpt lat="42.336903" lon="1.991069">
        <ele>1782.07947</ele>
        <time>2021-07-02T08:32:38Z</time>
      </trkpt>
      <trkpt lat="42.336903" lon="1.991069">
        <ele>1782.51599</ele>
        <time>2021-07-02T08:32:39Z</time>
      </trkpt>
      <trkpt lat="42.336903" lon="1.991069">
        <ele>1782.94763</ele>
        <time>2021-07-02T08:32:40Z</time>
      </trkpt>
      <trkpt lat="42.336903" lon="1.991069">
        <ele>1783.02747</ele>
        <time>2021-07-02T08:32:41Z</time>
      </trkpt>
      <trkpt lat="42.336903" lon="1.991069">
        <ele>1784.23279</ele>
        <time>2021-07-02T08:32:42Z</time>
      </trkpt>
      <trkpt lat="42.336903" lon="1.991069">
        <ele>1784.33679</ele>
        <time>2021-07-02T08:32:43Z</time>
      </trkpt>
      <trkpt lat="42.336903" lon="1.991069">
        <ele>1785.16516</ele>
        <time>2021-07-02T08:32:44Z</time>
      </trkpt>
      <trkpt lat="42.336903" lon="1.991069">
        <ele>1775.02515</ele>
        <time>2021-07-02T08:32:45Z</time>
      </trkpt>
      <trkpt lat="42.336903" lon="1.991069">
        <ele>1777.29578</ele>
        <time>2021-07-02T08:32:46Z</time>
      </trkpt>
      <trkpt lat="42.336903" lon="1.991069">
        <ele>1779.17810</ele>
        <time>2021-07-02T08:32:47Z</time>
      </trkpt>
      <trkpt lat="42.336903" lon="1.991069">
        <ele>1780.25623</ele>
        <time>2021-07-02T08:32:48Z</time>
      </trkpt>
      <trkpt lat="42.336903" lon="1.991069">
        <ele>1781.07703</ele>
        <time>2021-07-02T08:32:49Z</time>
      </trkpt>
      <trkpt lat="42.336926" lon="1.991067">
        <ele>1780.66101</ele>
        <time>2021-07-02T08:32:50Z</time>
      </trkpt>
      <trkpt lat="42.336964" lon="1.991065">
        <ele>1781.39294</ele>
        <time>2021-07-02T08:32:51Z</time>
      </trkpt>
      <trkpt lat="42.336964" lon="1.991065">
        <ele>1781.66980</ele>
        <time>2021-07-02T08:32:52Z</time>
      </trkpt>
      <trkpt lat="42.336964" lon="1.991065">
        <ele>1784.87634</ele>
        <time>2021-07-02T08:32:53Z</time>
      </trkpt>
      <trkpt lat="42.336964" lon="1.991065">
        <ele>1774.41235</ele>
        <time>2021-07-02T08:32:54Z</time>
      </trkpt>
      <trkpt lat="42.336964" lon="1.991065">
        <ele>1777.27454</ele>
        <time>2021-07-02T08:32:55Z</time>
      </trkpt>
      <trkpt lat="42.336964" lon="1.991065">
        <ele>1778.12048</ele>
        <time>2021-07-02T08:32:56Z</time>
      </trkpt>
      <trkpt lat="42.336964" lon="1.991065">
        <ele>1780.02966</ele>
        <time>2021-07-02T08:32:57Z</time>
      </trkpt>
      <trkpt lat="42.336964" lon="1.991065">
        <ele>1780.94910</ele>
        <time>2021-07-02T08:32:58Z</time>
      </trkpt>
      <trkpt lat="42.336964" lon="1.991065">
        <ele>1782.37244</ele>
        <time>2021-07-02T08:32:59Z</time>
      </trkpt>
      <trkpt lat="42.336964" lon="1.991065">
        <ele>1782.92639</ele>
        <time>2021-07-02T08:33:00Z</time>
      </trkpt>
      <trkpt lat="42.336964" lon="1.991065">
        <ele>1783.39978</ele>
        <time>2021-07-02T08:33:01Z</time>
      </trkpt>
      <trkpt lat="42.336964" lon="1.991065">
        <ele>1783.83337</ele>
        <time>2021-07-02T08:33:02Z</time>
      </trkpt>
      <trkpt lat="42.336964" lon="1.991065">
        <ele>1783.92712</ele>
        <time>2021-07-02T08:33:03Z</time>
      </trkpt>
      <trkpt lat="42.336964" lon="1.991065">
        <ele>1785.63708</ele>
        <time>2021-07-02T08:33:04Z</time>
      </trkpt>
      <trkpt lat="42.336964" lon="1.991065">
        <ele>1777.88037</ele>
        <time>2021-07-02T08:33:05Z</time>
      </trkpt>
      <trkpt lat="42.336964" lon="1.991065">
        <ele>1777.84009</ele>
        <time>2021-07-02T08:33:06Z</time>
      </trkpt>
      <trkpt lat="42.336964" lon="1.991065">
        <ele>1779.92957</ele>
        <time>2021-07-02T08:33:07Z</time>
      </trkpt>
      <trkpt lat="42.336964" lon="1.991065">
        <ele>1780.60925</ele>
        <time>2021-07-02T08:33:08Z</time>
      </trkpt>
      <trkpt lat="42.336964" lon="1.991065">
        <ele>1781.67224</ele>
        <time>2021-07-02T08:33:09Z</time>
      </trkpt>
      <trkpt lat="42.336964" lon="1.991065">
        <ele>1777.83398</ele>
        <time>2021-07-02T08:33:10Z</time>
      </trkpt>
      <trkpt lat="42.336964" lon="1.991065">
        <ele>1780.29260</ele>
        <time>2021-07-02T08:33:11Z</time>
      </trkpt>
      <trkpt lat="42.336964" lon="1.991065">
        <ele>1781.43152</ele>
        <time>2021-07-02T08:33:12Z</time>
      </trkpt>
      <trkpt lat="42.336964" lon="1.991065">
        <ele>1777.79224</ele>
        <time>2021-07-02T08:33:13Z</time>
      </trkpt>
      <trkpt lat="42.336964" lon="1.991065">
        <ele>1777.77759</ele>
        <time>2021-07-02T08:33:14Z</time>
      </trkpt>
      <trkpt lat="42.336964" lon="1.991065">
        <ele>1777.88599</ele>
        <time>2021-07-02T08:33:15Z</time>
      </trkpt>
      <trkpt lat="42.336964" lon="1.991065">
        <ele>1777.88306</ele>
        <time>2021-07-02T08:33:16Z</time>
      </trkpt>
      <trkpt lat="42.336964" lon="1.991065">
        <ele>1777.97961</ele>
        <time>2021-07-02T08:33:17Z</time>
      </trkpt>
      <trkpt lat="42.336964" lon="1.991065">
        <ele>1778.11255</ele>
        <time>2021-07-02T08:33:18Z</time>
      </trkpt>
      <trkpt lat="42.336964" lon="1.991065">
        <ele>1778.10791</ele>
        <time>2021-07-02T08:33:19Z</time>
      </trkpt>
      <trkpt lat="42.336964" lon="1.991065">
        <ele>1778.07812</ele>
        <time>2021-07-02T08:33:20Z</time>
      </trkpt>
      <trkpt lat="42.336964" lon="1.991065">
        <ele>1778.12537</ele>
        <time>2021-07-02T08:33:21Z</time>
      </trkpt>
      <trkpt lat="42.336964" lon="1.991065">
        <ele>1778.07275</ele>
        <time>2021-07-02T08:33:22Z</time>
      </trkpt>
      <trkpt lat="42.336964" lon="1.991065">
        <ele>1778.07068</ele>
        <time>2021-07-02T08:33:23Z</time>
      </trkpt>
      <trkpt lat="42.336964" lon="1.991065">
        <ele>1778.16309</ele>
        <time>2021-07-02T08:33:24Z</time>
      </trkpt>
      <trkpt lat="42.336964" lon="1.991065">
        <ele>1778.09119</ele>
        <time>2021-07-02T08:33:25Z</time>
      </trkpt>
      <trkpt lat="42.336964" lon="1.991065">
        <ele>1778.33630</ele>
        <time>2021-07-02T08:33:26Z</time>
      </trkpt>
      <trkpt lat="42.336964" lon="1.991065">
        <ele>1778.41479</ele>
        <time>2021-07-02T08:33:27Z</time>
      </trkpt>
      <trkpt lat="42.336964" lon="1.991065">
        <ele>1778.72864</ele>
        <time>2021-07-02T08:33:28Z</time>
      </trkpt>
      <trkpt lat="42.336964" lon="1.991065">
        <ele>1778.75500</ele>
        <time>2021-07-02T08:33:29Z</time>
      </trkpt>
      <trkpt lat="42.336964" lon="1.991065">
        <ele>1777.68506</ele>
        <time>2021-07-02T08:33:30Z</time>
      </trkpt>
      <trkpt lat="42.336964" lon="1.991065">
        <ele>1782.02478</ele>
        <time>2021-07-02T08:33:31Z</time>
      </trkpt>
      <trkpt lat="42.336964" lon="1.991065">
        <ele>1783.52673</ele>
        <time>2021-07-02T08:33:32Z</time>
      </trkpt>
      <trkpt lat="42.336964" lon="1.991065">
        <ele>1784.39758</ele>
        <time>2021-07-02T08:33:33Z</time>
      </trkpt>
      <trkpt lat="42.336964" lon="1.991065">
        <ele>1785.60974</ele>
        <time>2021-07-02T08:33:34Z</time>
      </trkpt>
      <trkpt lat="42.336964" lon="1.991065">
        <ele>1786.14978</ele>
        <time>2021-07-02T08:33:35Z</time>
      </trkpt>
      <trkpt lat="42.336964" lon="1.991065">
        <ele>1786.43396</ele>
        <time>2021-07-02T08:33:36Z</time>
      </trkpt>
      <trkpt lat="42.336975" lon="1.991064">
        <ele>1786.60925</ele>
        <time>2021-07-02T08:33:37Z</time>
      </trkpt>
      <trkpt lat="42.337044" lon="1.991059">
        <ele>1787.13513</ele>
        <time>2021-07-02T08:33:38Z</time>
      </trkpt>
      <trkpt lat="42.337067" lon="1.991058">
        <ele>1787.61707</ele>
        <time>2021-07-02T08:33:39Z</time>
      </trkpt>
      <trkpt lat="42.337177" lon="1.991050">
        <ele>1787.66882</ele>
        <time>2021-07-02T08:33:40Z</time>
      </trkpt>
      <trkpt lat="42.337318" lon="1.991029">
        <ele>1787.20154</ele>
        <time>2021-07-02T08:33:41Z</time>
      </trkpt>
      <trkpt lat="42.337391" lon="1.991004">
        <ele>1787.16833</ele>
        <time>2021-07-02T08:33:42Z</time>
      </trkpt>
      <trkpt lat="42.337502" lon="1.990894">
        <ele>1787.19666</ele>
        <time>2021-07-02T08:33:43Z</time>
      </trkpt>
      <trkpt lat="42.337540" lon="1.990819">
        <ele>1784.52722</ele>
        <time>2021-07-02T08:33:44Z</time>
      </trkpt>
      <trkpt lat="42.337540" lon="1.990819">
        <ele>1784.31335</ele>
        <time>2021-07-02T08:33:45Z</time>
      </trkpt>
      <trkpt lat="42.337627" lon="1.990606">
        <ele>1783.68469</ele>
        <time>2021-07-02T08:33:46Z</time>
      </trkpt>
      <trkpt lat="42.337730" lon="1.990374">
        <ele>1782.69910</ele>
        <time>2021-07-02T08:33:47Z</time>
      </trkpt>
      <trkpt lat="42.337841" lon="1.990145">
        <ele>1782.67566</ele>
        <time>2021-07-02T08:33:48Z</time>
      </trkpt>
      <trkpt lat="42.337978" lon="1.989867">
        <ele>1781.68518</ele>
        <time>2021-07-02T08:33:49Z</time>
      </trkpt>
      <trkpt lat="42.338070" lon="1.989690">
        <ele>1781.95691</ele>
        <time>2021-07-02T08:33:50Z</time>
      </trkpt>
      <trkpt lat="42.338177" lon="1.989530">
        <ele>1782.34070</ele>
        <time>2021-07-02T08:33:51Z</time>
      </trkpt>
      <trkpt lat="42.338291" lon="1.989388">
        <ele>1782.96106</ele>
        <time>2021-07-02T08:33:52Z</time>
      </trkpt>
      <trkpt lat="42.338432" lon="1.989278">
        <ele>1782.89685</ele>
        <time>2021-07-02T08:33:53Z</time>
      </trkpt>
      <trkpt lat="42.338566" lon="1.989258">
        <ele>1784.25525</ele>
        <time>2021-07-02T08:33:54Z</time>
      </trkpt>
      <trkpt lat="42.338680" lon="1.989260">
        <ele>1784.27283</ele>
        <time>2021-07-02T08:33:55Z</time>
      </trkpt>
      <trkpt lat="42.338772" lon="1.989281">
        <ele>1781.11804</ele>
        <time>2021-07-02T08:33:56Z</time>
      </trkpt>
      <trkpt lat="42.338867" lon="1.989313">
        <ele>1781.34656</ele>
        <time>2021-07-02T08:33:57Z</time>
      </trkpt>
      <trkpt lat="42.339127" lon="1.989402">
        <ele>1785.07507</ele>
        <time>2021-07-02T08:33:58Z</time>
      </trkpt>
      <trkpt lat="42.339394" lon="1.989493">
        <ele>1785.72937</ele>
        <time>2021-07-02T08:33:59Z</time>
      </trkpt>
      <trkpt lat="42.339516" lon="1.989535">
        <ele>1785.98450</ele>
        <time>2021-07-02T08:34:00Z</time>
      </trkpt>
      <trkpt lat="42.339729" lon="1.989609">
        <ele>1786.31189</ele>
        <time>2021-07-02T08:34:01Z</time>
      </trkpt>
      <trkpt lat="42.339863" lon="1.989654">
        <ele>1786.25769</ele>
        <time>2021-07-02T08:34:02Z</time>
      </trkpt>
      <trkpt lat="42.340061" lon="1.989723">
        <ele>1783.85681</ele>
        <time>2021-07-02T08:34:03Z</time>
      </trkpt>
      <trkpt lat="42.340252" lon="1.989788">
        <ele>1782.61414</ele>
        <time>2021-07-02T08:34:04Z</time>
      </trkpt>
      <trkpt lat="42.340458" lon="1.989859">
        <ele>1779.15222</ele>
        <time>2021-07-02T08:34:05Z</time>
      </trkpt>
      <trkpt lat="42.340637" lon="1.989951">
        <ele>1776.04285</ele>
        <time>2021-07-02T08:34:06Z</time>
      </trkpt>
      <trkpt lat="42.340843" lon="1.990132">
        <ele>1775.64734</ele>
        <time>2021-07-02T08:34:07Z</time>
      </trkpt>
      <trkpt lat="42.341038" lon="1.990364">
        <ele>1775.01355</ele>
        <time>2021-07-02T08:34:08Z</time>
      </trkpt>
      <trkpt lat="42.341183" lon="1.990522">
        <ele>1773.14197</ele>
        <time>2021-07-02T08:34:09Z</time>
      </trkpt>
      <trkpt lat="42.341324" lon="1.990641">
        <ele>1773.56775</ele>
        <time>2021-07-02T08:34:10Z</time>
      </trkpt>
      <trkpt lat="42.341454" lon="1.990660">
        <ele>1773.43494</ele>
        <time>2021-07-02T08:34:11Z</time>
      </trkpt>
      <trkpt lat="42.341492" lon="1.990652">
        <ele>1774.74353</ele>
        <time>2021-07-02T08:34:12Z</time>
      </trkpt>
      <trkpt lat="42.341610" lon="1.990541">
        <ele>1774.54138</ele>
        <time>2021-07-02T08:34:13Z</time>
      </trkpt>
      <trkpt lat="42.341682" lon="1.990426">
        <ele>1773.15222</ele>
        <time>2021-07-02T08:34:14Z</time>
      </trkpt>
      <trkpt lat="42.341766" lon="1.990203">
        <ele>1772.95740</ele>
        <time>2021-07-02T08:34:15Z</time>
      </trkpt>
      <trkpt lat="42.341797" lon="1.990001">
        <ele>1770.47693</ele>
        <time>2021-07-02T08:34:16Z</time>
      </trkpt>
      <trkpt lat="42.341824" lon="1.989762">
        <ele>1768.55701</ele>
        <time>2021-07-02T08:34:17Z</time>
      </trkpt>
      <trkpt lat="42.341854" lon="1.989444">
        <ele>1770.01306</ele>
        <time>2021-07-02T08:34:18Z</time>
      </trkpt>
      <trkpt lat="42.341854" lon="1.989444">
        <ele>1769.96179</ele>
        <time>2021-07-02T08:34:19Z</time>
      </trkpt>
      <trkpt lat="42.341915" lon="1.988819">
        <ele>1769.68567</ele>
        <time>2021-07-02T08:34:20Z</time>
      </trkpt>
      <trkpt lat="42.341915" lon="1.988819">
        <ele>1770.56384</ele>
        <time>2021-07-02T08:34:21Z</time>
      </trkpt>
      <trkpt lat="42.341934" lon="1.988594">
        <ele>1770.51965</ele>
        <time>2021-07-02T08:34:22Z</time>
      </trkpt>
      <trkpt lat="42.341949" lon="1.988372">
        <ele>1770.69763</ele>
        <time>2021-07-02T08:34:23Z</time>
      </trkpt>
      <trkpt lat="42.341896" lon="1.988154">
        <ele>1770.50134</ele>
        <time>2021-07-02T08:34:24Z</time>
      </trkpt>
      <trkpt lat="42.341846" lon="1.987927">
        <ele>1768.47742</ele>
        <time>2021-07-02T08:34:25Z</time>
      </trkpt>
      <trkpt lat="42.341801" lon="1.987670">
        <ele>1768.69983</ele>
        <time>2021-07-02T08:34:26Z</time>
      </trkpt>
      <trkpt lat="42.341713" lon="1.987464">
        <ele>1768.51624</ele>
        <time>2021-07-02T08:34:27Z</time>
      </trkpt>
      <trkpt lat="42.341602" lon="1.987264">
        <ele>1769.59949</ele>
        <time>2021-07-02T08:34:28Z</time>
      </trkpt>
      <trkpt lat="42.341469" lon="1.987027">
        <ele>1769.79431</ele>
        <time>2021-07-02T08:34:29Z</time>
      </trkpt>
      <trkpt lat="42.341373" lon="1.986815">
        <ele>1769.34607</ele>
        <time>2021-07-02T08:34:30Z</time>
      </trkpt>
      <trkpt lat="42.341305" lon="1.986596">
        <ele>1769.40027</ele>
        <time>2021-07-02T08:34:31Z</time>
      </trkpt>
      <trkpt lat="42.341267" lon="1.986340">
        <ele>1767.83630</ele>
        <time>2021-07-02T08:34:32Z</time>
      </trkpt>
      <trkpt lat="42.341236" lon="1.986046">
        <ele>1767.80823</ele>
        <time>2021-07-02T08:34:33Z</time>
      </trkpt>
      <trkpt lat="42.341213" lon="1.985776">
        <ele>1768.16785</ele>
        <time>2021-07-02T08:34:34Z</time>
      </trkpt>
      <trkpt lat="42.341190" lon="1.985505">
        <ele>1767.38074</ele>
        <time>2021-07-02T08:34:35Z</time>
      </trkpt>
      <trkpt lat="42.341194" lon="1.985312">
        <ele>1766.29749</ele>
        <time>2021-07-02T08:34:36Z</time>
      </trkpt>
      <trkpt lat="42.341259" lon="1.985091">
        <ele>1766.03894</ele>
        <time>2021-07-02T08:34:37Z</time>
      </trkpt>
      <trkpt lat="42.341339" lon="1.984887">
        <ele>1766.69324</ele>
        <time>2021-07-02T08:34:38Z</time>
      </trkpt>
      <trkpt lat="42.341427" lon="1.984667">
        <ele>1766.72058</ele>
        <time>2021-07-02T08:34:39Z</time>
      </trkpt>
      <trkpt lat="42.341465" lon="1.984475">
        <ele>1765.44495</ele>
        <time>2021-07-02T08:34:40Z</time>
      </trkpt>
      <trkpt lat="42.341419" lon="1.984240">
        <ele>1765.92566</ele>
        <time>2021-07-02T08:34:41Z</time>
      </trkpt>
      <trkpt lat="42.341396" lon="1.984191">
        <ele>1766.50452</ele>
        <time>2021-07-02T08:34:42Z</time>
      </trkpt>
      <trkpt lat="42.341312" lon="1.984026">
        <ele>1765.53113</ele>
        <time>2021-07-02T08:34:43Z</time>
      </trkpt>
      <trkpt lat="42.341225" lon="1.983856">
        <ele>1766.25110</ele>
        <time>2021-07-02T08:34:44Z</time>
      </trkpt>
      <trkpt lat="42.341091" lon="1.983605">
        <ele>1767.31140</ele>
        <time>2021-07-02T08:34:45Z</time>
      </trkpt>
      <trkpt lat="42.340996" lon="1.983330">
        <ele>1767.93054</ele>
        <time>2021-07-02T08:34:46Z</time>
      </trkpt>
      <trkpt lat="42.340977" lon="1.983192">
        <ele>1767.25964</ele>
        <time>2021-07-02T08:34:47Z</time>
      </trkpt>
      <trkpt lat="42.340996" lon="1.982946">
        <ele>1765.84949</ele>
        <time>2021-07-02T08:34:48Z</time>
      </trkpt>
      <trkpt lat="42.341042" lon="1.982745">
        <ele>1765.07263</ele>
        <time>2021-07-02T08:34:49Z</time>
      </trkpt>
      <trkpt lat="42.341129" lon="1.982557">
        <ele>1764.70398</ele>
        <time>2021-07-02T08:34:50Z</time>
      </trkpt>
      <trkpt lat="42.341232" lon="1.982398">
        <ele>1764.48450</ele>
        <time>2021-07-02T08:34:51Z</time>
      </trkpt>
      <trkpt lat="42.341366" lon="1.982247">
        <ele>1764.60486</ele>
        <time>2021-07-02T08:34:52Z</time>
      </trkpt>
      <trkpt lat="42.341545" lon="1.982074">
        <ele>1764.99915</ele>
        <time>2021-07-02T08:34:53Z</time>
      </trkpt>
      <trkpt lat="42.341698" lon="1.981925">
        <ele>1764.88074</ele>
        <time>2021-07-02T08:34:54Z</time>
      </trkpt>
      <trkpt lat="42.341698" lon="1.981925">
        <ele>1764.99084</ele>
        <time>2021-07-02T08:34:55Z</time>
      </trkpt>
      <trkpt lat="42.341869" lon="1.981778">
        <ele>1764.99207</ele>
        <time>2021-07-02T08:34:56Z</time>
      </trkpt>
      <trkpt lat="42.342018" lon="1.981684">
        <ele>1763.63708</ele>
        <time>2021-07-02T08:34:57Z</time>
      </trkpt>
      <trkpt lat="42.342190" lon="1.981609">
        <ele>1761.02722</ele>
        <time>2021-07-02T08:34:58Z</time>
      </trkpt>
      <trkpt lat="42.342381" lon="1.981528">
        <ele>1758.45447</ele>
        <time>2021-07-02T08:34:59Z</time>
      </trkpt>
      <trkpt lat="42.342560" lon="1.981448">
        <ele>1758.42859</ele>
        <time>2021-07-02T08:35:00Z</time>
      </trkpt>
      <trkpt lat="42.342686" lon="1.981360">
        <ele>1757.59216</ele>
        <time>2021-07-02T08:35:01Z</time>
      </trkpt>
      <trkpt lat="42.342751" lon="1.981250">
        <ele>1757.87292</ele>
        <time>2021-07-02T08:35:02Z</time>
      </trkpt>
      <trkpt lat="42.342785" lon="1.981122">
        <ele>1758.12830</ele>
        <time>2021-07-02T08:35:03Z</time>
      </trkpt>
      <trkpt lat="42.342812" lon="1.980977">
        <ele>1756.32556</ele>
        <time>2021-07-02T08:35:04Z</time>
      </trkpt>
      <trkpt lat="42.342838" lon="1.980649">
        <ele>1756.46130</ele>
        <time>2021-07-02T08:35:05Z</time>
      </trkpt>
      <trkpt lat="42.342888" lon="1.980429">
        <ele>1757.19421</ele>
        <time>2021-07-02T08:35:06Z</time>
      </trkpt>
      <trkpt lat="42.342964" lon="1.980239">
        <ele>1757.10095</ele>
        <time>2021-07-02T08:35:07Z</time>
      </trkpt>
      <trkpt lat="42.343082" lon="1.980053">
        <ele>1757.57043</ele>
        <time>2021-07-02T08:35:08Z</time>
      </trkpt>
      <trkpt lat="42.343258" lon="1.979867">
        <ele>1757.61169</ele>
        <time>2021-07-02T08:35:09Z</time>
      </trkpt>
      <trkpt lat="42.343414" lon="1.979704">
        <ele>1757.13269</ele>
        <time>2021-07-02T08:35:10Z</time>
      </trkpt>
      <trkpt lat="42.343567" lon="1.979550">
        <ele>1757.30408</ele>
        <time>2021-07-02T08:35:11Z</time>
      </trkpt>
      <trkpt lat="42.343822" lon="1.979285">
        <ele>1757.20691</ele>
        <time>2021-07-02T08:35:12Z</time>
      </trkpt>
      <trkpt lat="42.343994" lon="1.979112">
        <ele>1756.21204</ele>
        <time>2021-07-02T08:35:13Z</time>
      </trkpt>
      <trkpt lat="42.344173" lon="1.978938">
        <ele>1755.38367</ele>
        <time>2021-07-02T08:35:14Z</time>
      </trkpt>
      <trkpt lat="42.344311" lon="1.978819">
        <ele>1755.11414</ele>
        <time>2021-07-02T08:35:15Z</time>
      </trkpt>
      <trkpt lat="42.344513" lon="1.978686">
        <ele>1753.98572</ele>
        <time>2021-07-02T08:35:16Z</time>
      </trkpt>
      <trkpt lat="42.344677" lon="1.978581">
        <ele>1752.75354</ele>
        <time>2021-07-02T08:35:17Z</time>
      </trkpt>
      <trkpt lat="42.344845" lon="1.978480">
        <ele>1751.79211</ele>
        <time>2021-07-02T08:35:18Z</time>
      </trkpt>
      <trkpt lat="42.345024" lon="1.978420">
        <ele>1750.52771</ele>
        <time>2021-07-02T08:35:19Z</time>
      </trkpt>
      <trkpt lat="42.345222" lon="1.978387">
        <ele>1750.37048</ele>
        <time>2021-07-02T08:35:20Z</time>
      </trkpt>
      <trkpt lat="42.345436" lon="1.978351">
        <ele>1750.01746</ele>
        <time>2021-07-02T08:35:21Z</time>
      </trkpt>
      <trkpt lat="42.345634" lon="1.978318">
        <ele>1749.59705</ele>
        <time>2021-07-02T08:35:22Z</time>
      </trkpt>
      <trkpt lat="42.345882" lon="1.978277">
        <ele>1749.66199</ele>
        <time>2021-07-02T08:35:23Z</time>
      </trkpt>
      <trkpt lat="42.346096" lon="1.978241">
        <ele>1749.45544</ele>
        <time>2021-07-02T08:35:24Z</time>
      </trkpt>
      <trkpt lat="42.346279" lon="1.978211">
        <ele>1750.06580</ele>
        <time>2021-07-02T08:35:25Z</time>
      </trkpt>
      <trkpt lat="42.346458" lon="1.978181">
        <ele>1750.40955</ele>
        <time>2021-07-02T08:35:26Z</time>
      </trkpt>
      <trkpt lat="42.346630" lon="1.978153">
        <ele>1749.37463</ele>
        <time>2021-07-02T08:35:27Z</time>
      </trkpt>
      <trkpt lat="42.346794" lon="1.978143">
        <ele>1746.40588</ele>
        <time>2021-07-02T08:35:28Z</time>
      </trkpt>
      <trkpt lat="42.346966" lon="1.978179">
        <ele>1746.48254</ele>
        <time>2021-07-02T08:35:29Z</time>
      </trkpt>
      <trkpt lat="42.347153" lon="1.978244">
        <ele>1746.37048</ele>
        <time>2021-07-02T08:35:30Z</time>
      </trkpt>
      <trkpt lat="42.347328" lon="1.978334">
        <ele>1746.81238</ele>
        <time>2021-07-02T08:35:31Z</time>
      </trkpt>
      <trkpt lat="42.347481" lon="1.978452">
        <ele>1747.00916</ele>
        <time>2021-07-02T08:35:32Z</time>
      </trkpt>
      <trkpt lat="42.347481" lon="1.978452">
        <ele>1745.96423</ele>
        <time>2021-07-02T08:35:33Z</time>
      </trkpt>
      <trkpt lat="42.347599" lon="1.978611">
        <ele>1746.08533</ele>
        <time>2021-07-02T08:35:34Z</time>
      </trkpt>
      <trkpt lat="42.347652" lon="1.978804">
        <ele>1746.75916</ele>
        <time>2021-07-02T08:35:35Z</time>
      </trkpt>
      <trkpt lat="42.347672" lon="1.978944">
        <ele>1745.11365</ele>
        <time>2021-07-02T08:35:36Z</time>
      </trkpt>
      <trkpt lat="42.347687" lon="1.979081">
        <ele>1744.66589</ele>
        <time>2021-07-02T08:35:37Z</time>
      </trkpt>
      <trkpt lat="42.347691" lon="1.979294">
        <ele>1744.94714</ele>
        <time>2021-07-02T08:35:38Z</time>
      </trkpt>
      <trkpt lat="42.347664" lon="1.979571">
        <ele>1744.30188</ele>
        <time>2021-07-02T08:35:39Z</time>
      </trkpt>
      <trkpt lat="42.347618" lon="1.979850">
        <ele>1744.96326</ele>
        <time>2021-07-02T08:35:40Z</time>
      </trkpt>
      <trkpt lat="42.347588" lon="1.980170">
        <ele>1745.49890</ele>
        <time>2021-07-02T08:35:41Z</time>
      </trkpt>
      <trkpt lat="42.347591" lon="1.980484">
        <ele>1745.30408</ele>
        <time>2021-07-02T08:35:42Z</time>
      </trkpt>
      <trkpt lat="42.347591" lon="1.980837">
        <ele>1743.53015</ele>
        <time>2021-07-02T08:35:43Z</time>
      </trkpt>
      <trkpt lat="42.347595" lon="1.981155">
        <ele>1742.41443</ele>
        <time>2021-07-02T08:35:44Z</time>
      </trkpt>
      <trkpt lat="42.347599" lon="1.981415">
        <ele>1741.60681</ele>
        <time>2021-07-02T08:35:45Z</time>
      </trkpt>
      <trkpt lat="42.347626" lon="1.981707">
        <ele>1738.97644</ele>
        <time>2021-07-02T08:35:46Z</time>
      </trkpt>
      <trkpt lat="42.347691" lon="1.981938">
        <ele>1739.60193</ele>
        <time>2021-07-02T08:35:47Z</time>
      </trkpt>
      <trkpt lat="42.347767" lon="1.982174">
        <ele>1739.96692</ele>
        <time>2021-07-02T08:35:48Z</time>
      </trkpt>
      <trkpt lat="42.347771" lon="1.982394">
        <ele>1737.57214</ele>
        <time>2021-07-02T08:35:49Z</time>
      </trkpt>
      <trkpt lat="42.347752" lon="1.982453">
        <ele>1738.49304</ele>
        <time>2021-07-02T08:35:50Z</time>
      </trkpt>
      <trkpt lat="42.347675" lon="1.982590">
        <ele>1738.81482</ele>
        <time>2021-07-02T08:35:51Z</time>
      </trkpt>
      <trkpt lat="42.347584" lon="1.982735">
        <ele>1728.69739</ele>
        <time>2021-07-02T08:35:52Z</time>
      </trkpt>
      <trkpt lat="42.347435" lon="1.982975">
        <ele>1731.36121</ele>
        <time>2021-07-02T08:35:53Z</time>
      </trkpt>
      <trkpt lat="42.347313" lon="1.983192">
        <ele>1732.76111</ele>
        <time>2021-07-02T08:35:54Z</time>
      </trkpt>
      <trkpt lat="42.347214" lon="1.983445">
        <ele>1732.72498</ele>
        <time>2021-07-02T08:35:55Z</time>
      </trkpt>
      <trkpt lat="42.347122" lon="1.983677">
        <ele>1733.25037</ele>
        <time>2021-07-02T08:35:56Z</time>
      </trkpt>
      <trkpt lat="42.347057" lon="1.983888">
        <ele>1733.67224</ele>
        <time>2021-07-02T08:35:57Z</time>
      </trkpt>
      <trkpt lat="42.347038" lon="1.984090">
        <ele>1724.54712</ele>
        <time>2021-07-02T08:35:58Z</time>
      </trkpt>
      <trkpt lat="42.347069" lon="1.984211">
        <ele>1723.70251</ele>
        <time>2021-07-02T08:35:59Z</time>
      </trkpt>
      <trkpt lat="42.347095" lon="1.984255">
        <ele>1725.98157</ele>
        <time>2021-07-02T08:36:00Z</time>
      </trkpt>
      <trkpt lat="42.347095" lon="1.984257">
        <ele>1726.49939</ele>
        <time>2021-07-02T08:36:01Z</time>
      </trkpt>
      <trkpt lat="42.347095" lon="1.984257">
        <ele>1726.45886</ele>
        <time>2021-07-02T08:36:02Z</time>
      </trkpt>
      <trkpt lat="42.347095" lon="1.984257">
        <ele>1726.05042</ele>
        <time>2021-07-02T08:36:03Z</time>
      </trkpt>
      <trkpt lat="42.347210" lon="1.984322">
        <ele>1725.87537</ele>
        <time>2021-07-02T08:36:04Z</time>
      </trkpt>
      <trkpt lat="42.347500" lon="1.984242">
        <ele>1724.74890</ele>
        <time>2021-07-02T08:36:05Z</time>
      </trkpt>
      <trkpt lat="42.347664" lon="1.984182">
        <ele>1720.86707</ele>
        <time>2021-07-02T08:36:06Z</time>
      </trkpt>
      <trkpt lat="42.347824" lon="1.984157">
        <ele>1721.18884</ele>
        <time>2021-07-02T08:36:07Z</time>
      </trkpt>
      <trkpt lat="42.348007" lon="1.984177">
        <ele>1720.08044</ele>
        <time>2021-07-02T08:36:08Z</time>
      </trkpt>
      <trkpt lat="42.348160" lon="1.984231">
        <ele>1719.46667</ele>
        <time>2021-07-02T08:36:09Z</time>
      </trkpt>
      <trkpt lat="42.348335" lon="1.984317">
        <ele>1719.65356</ele>
        <time>2021-07-02T08:36:10Z</time>
      </trkpt>
      <trkpt lat="42.348480" lon="1.984436">
        <ele>1718.38525</ele>
        <time>2021-07-02T08:36:11Z</time>
      </trkpt>
      <trkpt lat="42.348610" lon="1.984578">
        <ele>1717.82190</ele>
        <time>2021-07-02T08:36:12Z</time>
      </trkpt>
      <trkpt lat="42.348717" lon="1.984753">
        <ele>1717.68542</ele>
        <time>2021-07-02T08:36:13Z</time>
      </trkpt>
      <trkpt lat="42.348793" lon="1.984943">
        <ele>1717.55823</ele>
        <time>2021-07-02T08:36:14Z</time>
      </trkpt>
      <trkpt lat="42.348869" lon="1.985145">
        <ele>1717.48865</ele>
        <time>2021-07-02T08:36:15Z</time>
      </trkpt>
      <trkpt lat="42.348957" lon="1.985387">
        <ele>1717.19226</ele>
        <time>2021-07-02T08:36:16Z</time>
      </trkpt>
      <trkpt lat="42.349045" lon="1.985643">
        <ele>1716.62341</ele>
        <time>2021-07-02T08:36:17Z</time>
      </trkpt>
      <trkpt lat="42.349129" lon="1.985897">
        <ele>1716.06042</ele>
        <time>2021-07-02T08:36:18Z</time>
      </trkpt>
      <trkpt lat="42.349205" lon="1.986136">
        <ele>1714.05212</ele>
        <time>2021-07-02T08:36:19Z</time>
      </trkpt>
      <trkpt lat="42.349247" lon="1.986371">
        <ele>1713.64392</ele>
        <time>2021-07-02T08:36:20Z</time>
      </trkpt>
      <trkpt lat="42.349274" lon="1.986623">
        <ele>1713.47449</ele>
        <time>2021-07-02T08:36:21Z</time>
      </trkpt>
      <trkpt lat="42.349289" lon="1.986910">
        <ele>1712.45984</ele>
        <time>2021-07-02T08:36:22Z</time>
      </trkpt>
      <trkpt lat="42.349304" lon="1.987192">
        <ele>1712.03455</ele>
        <time>2021-07-02T08:36:23Z</time>
      </trkpt>
      <trkpt lat="42.349316" lon="1.987487">
        <ele>1710.82959</ele>
        <time>2021-07-02T08:36:24Z</time>
      </trkpt>
      <trkpt lat="42.349339" lon="1.987693">
        <ele>1710.23804</ele>
        <time>2021-07-02T08:36:25Z</time>
      </trkpt>
      <trkpt lat="42.349411" lon="1.987859">
        <ele>1709.59766</ele>
        <time>2021-07-02T08:36:26Z</time>
      </trkpt>
      <trkpt lat="42.349499" lon="1.988002">
        <ele>1708.35242</ele>
        <time>2021-07-02T08:36:27Z</time>
      </trkpt>
      <trkpt lat="42.349560" lon="1.988175">
        <ele>1707.70789</ele>
        <time>2021-07-02T08:36:28Z</time>
      </trkpt>
      <trkpt lat="42.349556" lon="1.988302">
        <ele>1707.20520</ele>
        <time>2021-07-02T08:36:29Z</time>
      </trkpt>
      <trkpt lat="42.349537" lon="1.988475">
        <ele>1707.42554</ele>
        <time>2021-07-02T08:36:30Z</time>
      </trkpt>
      <trkpt lat="42.349537" lon="1.988475">
        <ele>1708.35010</ele>
        <time>2021-07-02T08:36:31Z</time>
      </trkpt>
      <trkpt lat="42.349480" lon="1.989037">
        <ele>1707.98853</ele>
        <time>2021-07-02T08:36:32Z</time>
      </trkpt>
      <trkpt lat="42.349480" lon="1.989037">
        <ele>1710.05457</ele>
        <time>2021-07-02T08:36:33Z</time>
      </trkpt>
      <trkpt lat="42.349434" lon="1.989275">
        <ele>1710.38757</ele>
        <time>2021-07-02T08:36:34Z</time>
      </trkpt>
      <trkpt lat="42.349388" lon="1.989524">
        <ele>1710.28503</ele>
        <time>2021-07-02T08:36:35Z</time>
      </trkpt>
      <trkpt lat="42.349361" lon="1.989795">
        <ele>1709.77966</ele>
        <time>2021-07-02T08:36:36Z</time>
      </trkpt>
      <trkpt lat="42.349335" lon="1.990106">
        <ele>1710.00085</ele>
        <time>2021-07-02T08:36:37Z</time>
      </trkpt>
      <trkpt lat="42.349308" lon="1.990418">
        <ele>1709.44006</ele>
        <time>2021-07-02T08:36:38Z</time>
      </trkpt>
      <trkpt lat="42.349285" lon="1.990731">
        <ele>1708.11340</ele>
        <time>2021-07-02T08:36:39Z</time>
      </trkpt>
      <trkpt lat="42.349258" lon="1.991031">
        <ele>1707.38147</ele>
        <time>2021-07-02T08:36:40Z</time>
      </trkpt>
      <trkpt lat="42.349243" lon="1.991302">
        <ele>1706.32605</ele>
        <time>2021-07-02T08:36:41Z</time>
      </trkpt>
      <trkpt lat="42.349236" lon="1.991552">
        <ele>1705.20496</ele>
        <time>2021-07-02T08:36:42Z</time>
      </trkpt>
      <trkpt lat="42.349247" lon="1.991852">
        <ele>1704.90027</ele>
        <time>2021-07-02T08:36:43Z</time>
      </trkpt>
      <trkpt lat="42.349293" lon="1.992125">
        <ele>1704.13660</ele>
        <time>2021-07-02T08:36:44Z</time>
      </trkpt>
      <trkpt lat="42.349361" lon="1.992452">
        <ele>1702.39929</ele>
        <time>2021-07-02T08:36:45Z</time>
      </trkpt>
      <trkpt lat="42.349419" lon="1.992726">
        <ele>1700.94910</ele>
        <time>2021-07-02T08:36:46Z</time>
      </trkpt>
      <trkpt lat="42.349468" lon="1.992951">
        <ele>1697.45581</ele>
        <time>2021-07-02T08:36:47Z</time>
      </trkpt>
      <trkpt lat="42.349495" lon="1.993187">
        <ele>1696.14941</ele>
        <time>2021-07-02T08:36:48Z</time>
      </trkpt>
      <trkpt lat="42.349510" lon="1.993368">
        <ele>1694.55664</ele>
        <time>2021-07-02T08:36:49Z</time>
      </trkpt>
      <trkpt lat="42.349579" lon="1.993528">
        <ele>1699.05920</ele>
        <time>2021-07-02T08:36:50Z</time>
      </trkpt>
      <trkpt lat="42.349651" lon="1.993587">
        <ele>1698.76062</ele>
        <time>2021-07-02T08:36:51Z</time>
      </trkpt>
      <trkpt lat="42.349693" lon="1.993616">
        <ele>1698.19763</ele>
        <time>2021-07-02T08:36:52Z</time>
      </trkpt>
      <trkpt lat="42.349800" lon="1.993692">
        <ele>1698.55750</ele>
        <time>2021-07-02T08:36:53Z</time>
      </trkpt>
      <trkpt lat="42.350002" lon="1.993959">
        <ele>1697.08679</ele>
        <time>2021-07-02T08:36:54Z</time>
      </trkpt>
      <trkpt lat="42.350113" lon="1.994181">
        <ele>1696.09851</ele>
        <time>2021-07-02T08:36:55Z</time>
      </trkpt>
      <trkpt lat="42.350201" lon="1.994353">
        <ele>1696.03259</ele>
        <time>2021-07-02T08:36:56Z</time>
      </trkpt>
      <trkpt lat="42.350273" lon="1.994439">
        <ele>1694.29626</ele>
        <time>2021-07-02T08:36:57Z</time>
      </trkpt>
      <trkpt lat="42.350323" lon="1.994461">
        <ele>1693.66199</ele>
        <time>2021-07-02T08:36:58Z</time>
      </trkpt>
      <trkpt lat="42.350399" lon="1.994459">
        <ele>1693.99036</ele>
        <time>2021-07-02T08:36:59Z</time>
      </trkpt>
      <trkpt lat="42.350399" lon="1.994459">
        <ele>1694.13074</ele>
        <time>2021-07-02T08:37:00Z</time>
      </trkpt>
      <trkpt lat="42.350525" lon="1.994374">
        <ele>1693.59973</ele>
        <time>2021-07-02T08:37:01Z</time>
      </trkpt>
      <trkpt lat="42.350525" lon="1.994374">
        <ele>1692.83508</ele>
        <time>2021-07-02T08:37:02Z</time>
      </trkpt>
      <trkpt lat="42.350529" lon="1.994372">
        <ele>1692.79602</ele>
        <time>2021-07-02T08:37:03Z</time>
      </trkpt>
      <trkpt lat="42.350548" lon="1.994335">
        <ele>1689.81506</ele>
        <time>2021-07-02T08:37:04Z</time>
      </trkpt>
      <trkpt lat="42.350567" lon="1.994249">
        <ele>1689.85388</ele>
        <time>2021-07-02T08:37:05Z</time>
      </trkpt>
      <trkpt lat="42.350491" lon="1.993910">
        <ele>1691.42249</ele>
        <time>2021-07-02T08:37:06Z</time>
      </trkpt>
      <trkpt lat="42.350365" lon="1.993509">
        <ele>1690.74646</ele>
        <time>2021-07-02T08:37:07Z</time>
      </trkpt>
      <trkpt lat="42.350315" lon="1.993326">
        <ele>1690.69177</ele>
        <time>2021-07-02T08:37:08Z</time>
      </trkpt>
      <trkpt lat="42.350292" lon="1.993133">
        <ele>1691.03528</ele>
        <time>2021-07-02T08:37:09Z</time>
      </trkpt>
      <trkpt lat="42.350296" lon="1.992955">
        <ele>1691.35974</ele>
        <time>2021-07-02T08:37:10Z</time>
      </trkpt>
      <trkpt lat="42.350327" lon="1.992705">
        <ele>1691.15564</ele>
        <time>2021-07-02T08:37:11Z</time>
      </trkpt>
      <trkpt lat="42.350361" lon="1.992449">
        <ele>1687.23816</ele>
        <time>2021-07-02T08:37:12Z</time>
      </trkpt>
      <trkpt lat="42.350376" lon="1.992225">
        <ele>1687.80896</ele>
        <time>2021-07-02T08:37:13Z</time>
      </trkpt>
      <trkpt lat="42.350395" lon="1.991948">
        <ele>1687.17371</ele>
        <time>2021-07-02T08:37:14Z</time>
      </trkpt>
      <trkpt lat="42.350433" lon="1.991714">
        <ele>1687.20789</ele>
        <time>2021-07-02T08:37:15Z</time>
      </trkpt>
      <trkpt lat="42.350510" lon="1.991488">
        <ele>1686.98767</ele>
        <time>2021-07-02T08:37:16Z</time>
      </trkpt>
      <trkpt lat="42.350594" lon="1.991245">
        <ele>1685.69177</ele>
        <time>2021-07-02T08:37:17Z</time>
      </trkpt>
      <trkpt lat="42.350677" lon="1.990998">
        <ele>1685.03528</ele>
        <time>2021-07-02T08:37:18Z</time>
      </trkpt>
      <trkpt lat="42.350796" lon="1.990654">
        <ele>1683.94250</ele>
        <time>2021-07-02T08:37:19Z</time>
      </trkpt>
      <trkpt lat="42.350899" lon="1.990328">
        <ele>1682.98547</ele>
        <time>2021-07-02T08:37:20Z</time>
      </trkpt>
      <trkpt lat="42.350998" lon="1.989994">
        <ele>1682.14734</ele>
        <time>2021-07-02T08:37:21Z</time>
      </trkpt>
      <trkpt lat="42.351082" lon="1.989713">
        <ele>1681.27698</ele>
        <time>2021-07-02T08:37:22Z</time>
      </trkpt>
      <trkpt lat="42.351158" lon="1.989436">
        <ele>1681.01770</ele>
        <time>2021-07-02T08:37:23Z</time>
      </trkpt>
      <trkpt lat="42.351234" lon="1.989173">
        <ele>1679.85413</ele>
        <time>2021-07-02T08:37:24Z</time>
      </trkpt>
      <trkpt lat="42.351337" lon="1.988883">
        <ele>1679.52136</ele>
        <time>2021-07-02T08:37:25Z</time>
      </trkpt>
      <trkpt lat="42.351444" lon="1.988622">
        <ele>1679.51428</ele>
        <time>2021-07-02T08:37:26Z</time>
      </trkpt>
      <trkpt lat="42.351543" lon="1.988419">
        <ele>1677.74597</ele>
        <time>2021-07-02T08:37:27Z</time>
      </trkpt>
      <trkpt lat="42.351643" lon="1.988311">
        <ele>1677.93372</ele>
        <time>2021-07-02T08:37:28Z</time>
      </trkpt>
      <trkpt lat="42.351643" lon="1.988311">
        <ele>1680.92322</ele>
        <time>2021-07-02T08:37:29Z</time>
      </trkpt>
      <trkpt lat="42.351746" lon="1.988299">
        <ele>1679.88342</ele>
        <time>2021-07-02T08:37:30Z</time>
      </trkpt>
      <trkpt lat="42.351837" lon="1.988329">
        <ele>1679.58044</ele>
        <time>2021-07-02T08:37:31Z</time>
      </trkpt>
      <trkpt lat="42.351875" lon="1.988359">
        <ele>1677.24451</ele>
        <time>2021-07-02T08:37:32Z</time>
      </trkpt>
      <trkpt lat="42.351925" lon="1.988426">
        <ele>1675.83777</ele>
        <time>2021-07-02T08:37:33Z</time>
      </trkpt>
      <trkpt lat="42.351990" lon="1.988533">
        <ele>1674.21521</ele>
        <time>2021-07-02T08:37:34Z</time>
      </trkpt>
      <trkpt lat="42.352070" lon="1.988626">
        <ele>1672.17151</ele>
        <time>2021-07-02T08:37:35Z</time>
      </trkpt>
      <trkpt lat="42.352165" lon="1.988636">
        <ele>1670.82996</ele>
        <time>2021-07-02T08:37:36Z</time>
      </trkpt>
      <trkpt lat="42.352238" lon="1.988597">
        <ele>1670.56433</ele>
        <time>2021-07-02T08:37:37Z</time>
      </trkpt>
      <trkpt lat="42.352268" lon="1.988544">
        <ele>1670.32336</ele>
        <time>2021-07-02T08:37:38Z</time>
      </trkpt>
      <trkpt lat="42.352303" lon="1.988467">
        <ele>1670.30896</ele>
        <time>2021-07-02T08:37:39Z</time>
      </trkpt>
      <trkpt lat="42.352325" lon="1.988388">
        <ele>1670.31433</ele>
        <time>2021-07-02T08:37:40Z</time>
      </trkpt>
      <trkpt lat="42.352341" lon="1.988309">
        <ele>1668.94153</ele>
        <time>2021-07-02T08:37:41Z</time>
      </trkpt>
      <trkpt lat="42.352276" lon="1.987867">
        <ele>1667.29480</ele>
        <time>2021-07-02T08:37:42Z</time>
      </trkpt>
      <trkpt lat="42.352158" lon="1.987584">
        <ele>1666.51746</ele>
        <time>2021-07-02T08:37:43Z</time>
      </trkpt>
      <trkpt lat="42.352051" lon="1.987376">
        <ele>1667.53748</ele>
        <time>2021-07-02T08:37:44Z</time>
      </trkpt>
      <trkpt lat="42.351894" lon="1.987205">
        <ele>1667.68298</ele>
        <time>2021-07-02T08:37:45Z</time>
      </trkpt>
      <trkpt lat="42.351753" lon="1.987069">
        <ele>1667.22913</ele>
        <time>2021-07-02T08:37:46Z</time>
      </trkpt>
      <trkpt lat="42.351665" lon="1.986958">
        <ele>1667.28308</ele>
        <time>2021-07-02T08:37:47Z</time>
      </trkpt>
      <trkpt lat="42.351597" lon="1.986796">
        <ele>1669.12634</ele>
        <time>2021-07-02T08:37:48Z</time>
      </trkpt>
      <trkpt lat="42.351543" lon="1.986599">
        <ele>1669.03992</ele>
        <time>2021-07-02T08:37:49Z</time>
      </trkpt>
      <trkpt lat="42.351509" lon="1.986366">
        <ele>1669.48572</ele>
        <time>2021-07-02T08:37:50Z</time>
      </trkpt>
      <trkpt lat="42.351479" lon="1.986167">
        <ele>1668.90222</ele>
        <time>2021-07-02T08:37:51Z</time>
      </trkpt>
      <trkpt lat="42.351395" lon="1.985773">
        <ele>1666.78552</ele>
        <time>2021-07-02T08:37:52Z</time>
      </trkpt>
      <trkpt lat="42.351360" lon="1.985532">
        <ele>1665.59949</ele>
        <time>2021-07-02T08:37:53Z</time>
      </trkpt>
      <trkpt lat="42.351337" lon="1.985275">
        <ele>1664.04309</ele>
        <time>2021-07-02T08:37:54Z</time>
      </trkpt>
      <trkpt lat="42.351337" lon="1.985041">
        <ele>1663.65759</ele>
        <time>2021-07-02T08:37:55Z</time>
      </trkpt>
      <trkpt lat="42.351360" lon="1.984774">
        <ele>1662.70886</ele>
        <time>2021-07-02T08:37:56Z</time>
      </trkpt>
      <trkpt lat="42.351406" lon="1.984554">
        <ele>1662.22498</ele>
        <time>2021-07-02T08:37:57Z</time>
      </trkpt>
      <trkpt lat="42.351486" lon="1.984378">
        <ele>1660.76697</ele>
        <time>2021-07-02T08:37:58Z</time>
      </trkpt>
      <trkpt lat="42.351604" lon="1.984189">
        <ele>1660.25916</ele>
        <time>2021-07-02T08:37:59Z</time>
      </trkpt>
      <trkpt lat="42.351673" lon="1.983990">
        <ele>1659.37439</ele>
        <time>2021-07-02T08:38:00Z</time>
      </trkpt>
      <trkpt lat="42.351673" lon="1.983829">
        <ele>1659.80261</ele>
        <time>2021-07-02T08:38:01Z</time>
      </trkpt>
      <trkpt lat="42.351662" lon="1.983632">
        <ele>1660.00183</ele>
        <time>2021-07-02T08:38:02Z</time>
      </trkpt>
      <trkpt lat="42.351662" lon="1.983632">
        <ele>1658.78845</ele>
        <time>2021-07-02T08:38:03Z</time>
      </trkpt>
      <trkpt lat="42.351665" lon="1.983401">
        <ele>1658.11609</ele>
        <time>2021-07-02T08:38:04Z</time>
      </trkpt>
      <trkpt lat="42.351742" lon="1.983153">
        <ele>1655.90076</ele>
        <time>2021-07-02T08:38:05Z</time>
      </trkpt>
      <trkpt lat="42.351807" lon="1.982969">
        <ele>1654.83044</ele>
        <time>2021-07-02T08:38:06Z</time>
      </trkpt>
      <trkpt lat="42.351875" lon="1.982769">
        <ele>1654.47986</ele>
        <time>2021-07-02T08:38:07Z</time>
      </trkpt>
      <trkpt lat="42.351971" lon="1.982533">
        <ele>1655.75073</ele>
        <time>2021-07-02T08:38:08Z</time>
      </trkpt>
      <trkpt lat="42.352089" lon="1.982346">
        <ele>1655.88904</ele>
        <time>2021-07-02T08:38:09Z</time>
      </trkpt>
      <trkpt lat="42.352226" lon="1.982172">
        <ele>1655.55212</ele>
        <time>2021-07-02T08:38:10Z</time>
      </trkpt>
      <trkpt lat="42.352348" lon="1.982017">
        <ele>1655.45850</ele>
        <time>2021-07-02T08:38:11Z</time>
      </trkpt>
      <trkpt lat="42.352489" lon="1.981837">
        <ele>1654.22400</ele>
        <time>2021-07-02T08:38:12Z</time>
      </trkpt>
      <trkpt lat="42.352615" lon="1.981645">
        <ele>1652.48621</ele>
        <time>2021-07-02T08:38:13Z</time>
      </trkpt>
      <trkpt lat="42.352734" lon="1.981433">
        <ele>1651.89685</ele>
        <time>2021-07-02T08:38:14Z</time>
      </trkpt>
      <trkpt lat="42.352825" lon="1.981195">
        <ele>1652.14246</ele>
        <time>2021-07-02T08:38:15Z</time>
      </trkpt>
      <trkpt lat="42.352875" lon="1.980971">
        <ele>1652.04285</ele>
        <time>2021-07-02T08:38:16Z</time>
      </trkpt>
      <trkpt lat="42.352913" lon="1.980777">
        <ele>1649.86243</ele>
        <time>2021-07-02T08:38:17Z</time>
      </trkpt>
      <trkpt lat="42.352959" lon="1.980589">
        <ele>1651.33289</ele>
        <time>2021-07-02T08:38:18Z</time>
      </trkpt>
      <trkpt lat="42.353016" lon="1.980494">
        <ele>1652.06897</ele>
        <time>2021-07-02T08:38:19Z</time>
      </trkpt>
      <trkpt lat="42.353088" lon="1.980434">
        <ele>1652.92834</ele>
        <time>2021-07-02T08:38:20Z</time>
      </trkpt>
      <trkpt lat="42.353165" lon="1.980417">
        <ele>1652.52332</ele>
        <time>2021-07-02T08:38:21Z</time>
      </trkpt>
      <trkpt lat="42.353256" lon="1.980423">
        <ele>1650.52625</ele>
        <time>2021-07-02T08:38:22Z</time>
      </trkpt>
      <trkpt lat="42.353512" lon="1.980518">
        <ele>1652.35461</ele>
        <time>2021-07-02T08:38:23Z</time>
      </trkpt>
      <trkpt lat="42.353615" lon="1.980591">
        <ele>1652.33923</ele>
        <time>2021-07-02T08:38:24Z</time>
      </trkpt>
      <trkpt lat="42.353748" lon="1.980676">
        <ele>1653.11267</ele>
        <time>2021-07-02T08:38:25Z</time>
      </trkpt>
      <trkpt lat="42.353859" lon="1.980663">
        <ele>1653.00916</ele>
        <time>2021-07-02T08:38:26Z</time>
      </trkpt>
      <trkpt lat="42.353912" lon="1.980622">
        <ele>1652.57068</ele>
        <time>2021-07-02T08:38:27Z</time>
      </trkpt>
      <trkpt lat="42.353970" lon="1.980517">
        <ele>1650.82849</ele>
        <time>2021-07-02T08:38:28Z</time>
      </trkpt>
      <trkpt lat="42.353985" lon="1.980447">
        <ele>1649.48816</ele>
        <time>2021-07-02T08:38:29Z</time>
      </trkpt>
      <trkpt lat="42.353996" lon="1.980385">
        <ele>1647.79919</ele>
        <time>2021-07-02T08:38:30Z</time>
      </trkpt>
      <trkpt lat="42.354008" lon="1.980296">
        <ele>1651.78784</ele>
        <time>2021-07-02T08:38:31Z</time>
      </trkpt>
      <trkpt lat="42.354015" lon="1.980085">
        <ele>1651.27673</ele>
        <time>2021-07-02T08:38:32Z</time>
      </trkpt>
      <trkpt lat="42.354015" lon="1.980085">
        <ele>1650.91125</ele>
        <time>2021-07-02T08:38:33Z</time>
      </trkpt>
      <trkpt lat="42.353878" lon="1.979316">
        <ele>1651.55652</ele>
        <time>2021-07-02T08:38:34Z</time>
      </trkpt>
      <trkpt lat="42.353878" lon="1.979316">
        <ele>1650.05042</ele>
        <time>2021-07-02T08:38:35Z</time>
      </trkpt>
      <trkpt lat="42.353745" lon="1.978881">
        <ele>1650.06140</ele>
        <time>2021-07-02T08:38:36Z</time>
      </trkpt>
      <trkpt lat="42.353657" lon="1.978598">
        <ele>1651.66711</ele>
        <time>2021-07-02T08:38:37Z</time>
      </trkpt>
      <trkpt lat="42.353626" lon="1.978376">
        <ele>1651.69373</ele>
        <time>2021-07-02T08:38:38Z</time>
      </trkpt>
      <trkpt lat="42.353630" lon="1.978199">
        <ele>1651.67712</ele>
        <time>2021-07-02T08:38:39Z</time>
      </trkpt>
      <trkpt lat="42.353680" lon="1.977975">
        <ele>1652.43494</ele>
        <time>2021-07-02T08:38:40Z</time>
      </trkpt>
      <trkpt lat="42.353771" lon="1.977732">
        <ele>1651.60486</ele>
        <time>2021-07-02T08:38:41Z</time>
      </trkpt>
      <trkpt lat="42.353893" lon="1.977511">
        <ele>1652.29871</ele>
        <time>2021-07-02T08:38:42Z</time>
      </trkpt>
      <trkpt lat="42.354031" lon="1.977313">
        <ele>1652.36267</ele>
        <time>2021-07-02T08:38:43Z</time>
      </trkpt>
      <trkpt lat="42.354160" lon="1.977158">
        <ele>1652.03015</ele>
        <time>2021-07-02T08:38:44Z</time>
      </trkpt>
      <trkpt lat="42.354332" lon="1.977013">
        <ele>1652.09412</ele>
        <time>2021-07-02T08:38:45Z</time>
      </trkpt>
      <trkpt lat="42.354439" lon="1.976946">
        <ele>1652.50256</ele>
        <time>2021-07-02T08:38:46Z</time>
      </trkpt>
      <trkpt lat="42.354595" lon="1.976873">
        <ele>1652.61365</ele>
        <time>2021-07-02T08:38:47Z</time>
      </trkpt>
      <trkpt lat="42.354733" lon="1.976813">
        <ele>1652.97522</ele>
        <time>2021-07-02T08:38:48Z</time>
      </trkpt>
      <trkpt lat="42.354778" lon="1.976775">
        <ele>1651.21375</ele>
        <time>2021-07-02T08:38:49Z</time>
      </trkpt>
      <trkpt lat="42.354855" lon="1.976650">
        <ele>1649.59119</ele>
        <time>2021-07-02T08:38:50Z</time>
      </trkpt>
      <trkpt lat="42.354874" lon="1.976510">
        <ele>1648.62585</ele>
        <time>2021-07-02T08:38:51Z</time>
      </trkpt>
      <trkpt lat="42.354866" lon="1.976450">
        <ele>1647.29919</ele>
        <time>2021-07-02T08:38:52Z</time>
      </trkpt>
      <trkpt lat="42.354740" lon="1.976017">
        <ele>1646.69788</ele>
        <time>2021-07-02T08:38:53Z</time>
      </trkpt>
      <trkpt lat="42.354691" lon="1.975836">
        <ele>1646.85510</ele>
        <time>2021-07-02T08:38:54Z</time>
      </trkpt>
      <trkpt lat="42.354675" lon="1.975654">
        <ele>1645.16394</ele>
        <time>2021-07-02T08:38:55Z</time>
      </trkpt>
      <trkpt lat="42.354698" lon="1.975475">
        <ele>1644.66394</ele>
        <time>2021-07-02T08:38:56Z</time>
      </trkpt>
      <trkpt lat="42.354752" lon="1.975259">
        <ele>1644.65515</ele>
        <time>2021-07-02T08:38:57Z</time>
      </trkpt>
      <trkpt lat="42.354828" lon="1.975053">
        <ele>1647.82300</ele>
        <time>2021-07-02T08:38:58Z</time>
      </trkpt>
      <trkpt lat="42.354935" lon="1.974868">
        <ele>1647.64294</ele>
        <time>2021-07-02T08:38:59Z</time>
      </trkpt>
      <trkpt lat="42.355034" lon="1.974705">
        <ele>1645.43933</ele>
        <time>2021-07-02T08:39:00Z</time>
      </trkpt>
      <trkpt lat="42.355167" lon="1.974517">
        <ele>1644.39709</ele>
        <time>2021-07-02T08:39:01Z</time>
      </trkpt>
      <trkpt lat="42.355320" lon="1.974373">
        <ele>1643.75500</ele>
        <time>2021-07-02T08:39:02Z</time>
      </trkpt>
      <trkpt lat="42.355484" lon="1.974252">
        <ele>1643.65930</ele>
        <time>2021-07-02T08:39:03Z</time>
      </trkpt>
      <trkpt lat="42.355625" lon="1.974122">
        <ele>1644.11609</ele>
        <time>2021-07-02T08:39:04Z</time>
      </trkpt>
      <trkpt lat="42.355625" lon="1.974122">
        <ele>1644.48523</ele>
        <time>2021-07-02T08:39:05Z</time>
      </trkpt>
      <trkpt lat="42.355747" lon="1.973767">
        <ele>1644.06970</ele>
        <time>2021-07-02T08:39:06Z</time>
      </trkpt>
      <trkpt lat="42.355747" lon="1.973767">
        <ele>1643.42493</ele>
        <time>2021-07-02T08:39:07Z</time>
      </trkpt>
      <trkpt lat="42.355789" lon="1.973537">
        <ele>1640.42712</ele>
        <time>2021-07-02T08:39:08Z</time>
      </trkpt>
      <trkpt lat="42.355831" lon="1.973287">
        <ele>1638.68689</ele>
        <time>2021-07-02T08:39:09Z</time>
      </trkpt>
      <trkpt lat="42.355877" lon="1.973050">
        <ele>1638.94641</ele>
        <time>2021-07-02T08:39:10Z</time>
      </trkpt>
      <trkpt lat="42.355949" lon="1.972849">
        <ele>1638.55627</ele>
        <time>2021-07-02T08:39:11Z</time>
      </trkpt>
      <trkpt lat="42.356064" lon="1.972675">
        <ele>1639.66882</ele>
        <time>2021-07-02T08:39:12Z</time>
      </trkpt>
      <trkpt lat="42.356205" lon="1.972556">
        <ele>1640.24915</ele>
        <time>2021-07-02T08:39:13Z</time>
      </trkpt>
      <trkpt lat="42.356365" lon="1.972488">
        <ele>1638.56628</ele>
        <time>2021-07-02T08:39:14Z</time>
      </trkpt>
      <trkpt lat="42.356525" lon="1.972439">
        <ele>1638.53503</ele>
        <time>2021-07-02T08:39:15Z</time>
      </trkpt>
      <trkpt lat="42.356655" lon="1.972357">
        <ele>1637.26843</ele>
        <time>2021-07-02T08:39:16Z</time>
      </trkpt>
      <trkpt lat="42.356731" lon="1.972211">
        <ele>1636.38269</ele>
        <time>2021-07-02T08:39:17Z</time>
      </trkpt>
      <trkpt lat="42.356750" lon="1.972108">
        <ele>1636.49622</ele>
        <time>2021-07-02T08:39:18Z</time>
      </trkpt>
      <trkpt lat="42.356724" lon="1.971946">
        <ele>1636.18054</ele>
        <time>2021-07-02T08:39:19Z</time>
      </trkpt>
      <trkpt lat="42.356640" lon="1.971773">
        <ele>1636.61414</ele>
        <time>2021-07-02T08:39:20Z</time>
      </trkpt>
      <trkpt lat="42.356552" lon="1.971581">
        <ele>1636.30408</ele>
        <time>2021-07-02T08:39:21Z</time>
      </trkpt>
      <trkpt lat="42.356419" lon="1.971295">
        <ele>1637.98157</ele>
        <time>2021-07-02T08:39:22Z</time>
      </trkpt>
      <trkpt lat="42.356335" lon="1.971108">
        <ele>1639.67566</ele>
        <time>2021-07-02T08:39:23Z</time>
      </trkpt>
      <trkpt lat="42.356297" lon="1.970951">
        <ele>1639.60681</ele>
        <time>2021-07-02T08:39:24Z</time>
      </trkpt>
      <trkpt lat="42.356316" lon="1.970743">
        <ele>1640.64099</ele>
        <time>2021-07-02T08:39:25Z</time>
      </trkpt>
      <trkpt lat="42.356373" lon="1.970606">
        <ele>1640.77820</ele>
        <time>2021-07-02T08:39:26Z</time>
      </trkpt>
      <trkpt lat="42.356438" lon="1.970526">
        <ele>1642.44080</ele>
        <time>2021-07-02T08:39:27Z</time>
      </trkpt>
      <trkpt lat="42.356510" lon="1.970465">
        <ele>1641.94373</ele>
        <time>2021-07-02T08:39:28Z</time>
      </trkpt>
      <trkpt lat="42.356808" lon="1.970337">
        <ele>1641.85437</ele>
        <time>2021-07-02T08:39:29Z</time>
      </trkpt>
      <trkpt lat="42.356937" lon="1.970304">
        <ele>1641.76550</ele>
        <time>2021-07-02T08:39:30Z</time>
      </trkpt>
      <trkpt lat="42.357086" lon="1.970300">
        <ele>1641.33264</ele>
        <time>2021-07-02T08:39:31Z</time>
      </trkpt>
      <trkpt lat="42.357269" lon="1.970340">
        <ele>1641.59460</ele>
        <time>2021-07-02T08:39:32Z</time>
      </trkpt>
      <trkpt lat="42.357407" lon="1.970405">
        <ele>1641.88293</ele>
        <time>2021-07-02T08:39:33Z</time>
      </trkpt>
      <trkpt lat="42.357571" lon="1.970518">
        <ele>1640.73767</ele>
        <time>2021-07-02T08:39:34Z</time>
      </trkpt>
      <trkpt lat="42.357746" lon="1.970649">
        <ele>1638.34607</ele>
        <time>2021-07-02T08:39:35Z</time>
      </trkpt>
      <trkpt lat="42.357925" lon="1.970780">
        <ele>1636.57166</ele>
        <time>2021-07-02T08:39:36Z</time>
      </trkpt>
      <trkpt lat="42.358093" lon="1.970874">
        <ele>1636.55750</ele>
        <time>2021-07-02T08:39:37Z</time>
      </trkpt>
      <trkpt lat="42.358181" lon="1.970877">
        <ele>1635.16931</ele>
        <time>2021-07-02T08:39:38Z</time>
      </trkpt>
      <trkpt lat="42.358181" lon="1.970877">
        <ele>1633.72083</ele>
        <time>2021-07-02T08:39:39Z</time>
      </trkpt>
      <trkpt lat="42.358284" lon="1.970820">
        <ele>1634.50378</ele>
        <time>2021-07-02T08:39:40Z</time>
      </trkpt>
      <trkpt lat="42.358334" lon="1.970736">
        <ele>1634.90295</ele>
        <time>2021-07-02T08:39:41Z</time>
      </trkpt>
      <trkpt lat="42.358356" lon="1.970615">
        <ele>1633.51990</ele>
        <time>2021-07-02T08:39:42Z</time>
      </trkpt>
      <trkpt lat="42.358360" lon="1.970434">
        <ele>1632.77185</ele>
        <time>2021-07-02T08:39:43Z</time>
      </trkpt>
      <trkpt lat="42.358372" lon="1.970148">
        <ele>1631.99158</ele>
        <time>2021-07-02T08:39:44Z</time>
      </trkpt>
      <trkpt lat="42.358376" lon="1.969892">
        <ele>1631.19519</ele>
        <time>2021-07-02T08:39:45Z</time>
      </trkpt>
      <trkpt lat="42.358383" lon="1.969641">
        <ele>1628.76379</ele>
        <time>2021-07-02T08:39:46Z</time>
      </trkpt>
      <trkpt lat="42.358391" lon="1.969383">
        <ele>1627.06775</ele>
        <time>2021-07-02T08:39:47Z</time>
      </trkpt>
      <trkpt lat="42.358398" lon="1.969135">
        <ele>1627.75500</ele>
        <time>2021-07-02T08:39:48Z</time>
      </trkpt>
      <trkpt lat="42.358414" lon="1.968919">
        <ele>1627.85828</ele>
        <time>2021-07-02T08:39:49Z</time>
      </trkpt>
      <trkpt lat="42.358437" lon="1.968686">
        <ele>1626.55212</ele>
        <time>2021-07-02T08:39:50Z</time>
      </trkpt>
      <trkpt lat="42.358471" lon="1.968469">
        <ele>1626.35437</ele>
        <time>2021-07-02T08:39:51Z</time>
      </trkpt>
      <trkpt lat="42.358513" lon="1.968283">
        <ele>1626.31189</ele>
        <time>2021-07-02T08:39:52Z</time>
      </trkpt>
      <trkpt lat="42.358601" lon="1.968140">
        <ele>1624.83655</ele>
        <time>2021-07-02T08:39:53Z</time>
      </trkpt>
      <trkpt lat="42.358734" lon="1.968089">
        <ele>1624.76184</ele>
        <time>2021-07-02T08:39:54Z</time>
      </trkpt>
      <trkpt lat="42.358768" lon="1.968085">
        <ele>1624.74060</ele>
        <time>2021-07-02T08:39:55Z</time>
      </trkpt>
      <trkpt lat="42.358868" lon="1.968074">
        <ele>1624.60535</ele>
        <time>2021-07-02T08:39:56Z</time>
      </trkpt>
      <trkpt lat="42.358944" lon="1.968044">
        <ele>1624.63025</ele>
        <time>2021-07-02T08:39:57Z</time>
      </trkpt>
      <trkpt lat="42.359062" lon="1.967927">
        <ele>1623.89099</ele>
        <time>2021-07-02T08:39:58Z</time>
      </trkpt>
      <trkpt lat="42.359127" lon="1.967799">
        <ele>1623.68787</ele>
        <time>2021-07-02T08:39:59Z</time>
      </trkpt>
      <trkpt lat="42.359276" lon="1.967364">
        <ele>1624.34753</ele>
        <time>2021-07-02T08:40:00Z</time>
      </trkpt>
      <trkpt lat="42.359371" lon="1.967069">
        <ele>1624.15271</ele>
        <time>2021-07-02T08:40:01Z</time>
      </trkpt>
      <trkpt lat="42.359398" lon="1.966861">
        <ele>1622.27991</ele>
        <time>2021-07-02T08:40:02Z</time>
      </trkpt>
      <trkpt lat="42.359421" lon="1.966606">
        <ele>1621.09436</ele>
        <time>2021-07-02T08:40:03Z</time>
      </trkpt>
      <trkpt lat="42.359440" lon="1.966351">
        <ele>1619.96033</ele>
        <time>2021-07-02T08:40:04Z</time>
      </trkpt>
      <trkpt lat="42.359455" lon="1.966168">
        <ele>1619.87390</ele>
        <time>2021-07-02T08:40:05Z</time>
      </trkpt>
      <trkpt lat="42.359455" lon="1.966168">
        <ele>1619.75623</ele>
        <time>2021-07-02T08:40:06Z</time>
      </trkpt>
      <trkpt lat="42.359478" lon="1.965961">
        <ele>1619.17346</ele>
        <time>2021-07-02T08:40:07Z</time>
      </trkpt>
      <trkpt lat="42.359505" lon="1.965764">
        <ele>1619.06970</ele>
        <time>2021-07-02T08:40:08Z</time>
      </trkpt>
      <trkpt lat="42.359505" lon="1.965764">
        <ele>1617.49475</ele>
        <time>2021-07-02T08:40:09Z</time>
      </trkpt>
      <trkpt lat="42.359581" lon="1.965553">
        <ele>1615.63123</ele>
        <time>2021-07-02T08:40:10Z</time>
      </trkpt>
      <trkpt lat="42.359760" lon="1.965241">
        <ele>1615.74158</ele>
        <time>2021-07-02T08:40:11Z</time>
      </trkpt>
      <trkpt lat="42.359905" lon="1.965023">
        <ele>1616.09875</ele>
        <time>2021-07-02T08:40:12Z</time>
      </trkpt>
      <trkpt lat="42.359905" lon="1.965023">
        <ele>1613.61902</ele>
        <time>2021-07-02T08:40:13Z</time>
      </trkpt>
      <trkpt lat="42.360222" lon="1.964703">
        <ele>1610.18689</ele>
        <time>2021-07-02T08:40:14Z</time>
      </trkpt>
      <trkpt lat="42.360386" lon="1.964634">
        <ele>1610.07019</ele>
        <time>2021-07-02T08:40:15Z</time>
      </trkpt>
      <trkpt lat="42.360386" lon="1.964634">
        <ele>1609.16248</ele>
        <time>2021-07-02T08:40:16Z</time>
      </trkpt>
      <trkpt lat="42.360607" lon="1.964550">
        <ele>1608.77454</ele>
        <time>2021-07-02T08:40:17Z</time>
      </trkpt>
      <trkpt lat="42.360737" lon="1.964450">
        <ele>1607.84949</ele>
        <time>2021-07-02T08:40:18Z</time>
      </trkpt>
      <trkpt lat="42.360821" lon="1.964323">
        <ele>1607.31091</ele>
        <time>2021-07-02T08:40:19Z</time>
      </trkpt>
      <trkpt lat="42.360912" lon="1.964090">
        <ele>1606.60681</ele>
        <time>2021-07-02T08:40:20Z</time>
      </trkpt>
      <trkpt lat="42.360966" lon="1.963866">
        <ele>1607.33191</ele>
        <time>2021-07-02T08:40:21Z</time>
      </trkpt>
      <trkpt lat="42.360985" lon="1.963602">
        <ele>1606.94836</ele>
        <time>2021-07-02T08:40:22Z</time>
      </trkpt>
      <trkpt lat="42.360989" lon="1.963350">
        <ele>1606.74939</ele>
        <time>2021-07-02T08:40:23Z</time>
      </trkpt>
      <trkpt lat="42.360992" lon="1.963102">
        <ele>1606.30847</ele>
        <time>2021-07-02T08:40:24Z</time>
      </trkpt>
      <trkpt lat="42.361004" lon="1.962876">
        <ele>1606.14856</ele>
        <time>2021-07-02T08:40:25Z</time>
      </trkpt>
      <trkpt lat="42.361046" lon="1.962653">
        <ele>1606.97375</ele>
        <time>2021-07-02T08:40:26Z</time>
      </trkpt>
      <trkpt lat="42.361099" lon="1.962398">
        <ele>1606.28455</ele>
        <time>2021-07-02T08:40:27Z</time>
      </trkpt>
      <trkpt lat="42.361156" lon="1.962175">
        <ele>1605.68201</ele>
        <time>2021-07-02T08:40:28Z</time>
      </trkpt>
      <trkpt lat="42.361210" lon="1.961981">
        <ele>1605.26428</ele>
        <time>2021-07-02T08:40:29Z</time>
      </trkpt>
      <trkpt lat="42.361282" lon="1.961839">
        <ele>1604.49841</ele>
        <time>2021-07-02T08:40:30Z</time>
      </trkpt>
      <trkpt lat="42.361401" lon="1.961701">
        <ele>1605.99426</ele>
        <time>2021-07-02T08:40:31Z</time>
      </trkpt>
      <trkpt lat="42.361481" lon="1.961660">
        <ele>1605.87341</ele>
        <time>2021-07-02T08:40:32Z</time>
      </trkpt>
      <trkpt lat="42.361652" lon="1.961639">
        <ele>1604.63318</ele>
        <time>2021-07-02T08:40:33Z</time>
      </trkpt>
      <trkpt lat="42.361786" lon="1.961644">
        <ele>1604.10583</ele>
        <time>2021-07-02T08:40:34Z</time>
      </trkpt>
      <trkpt lat="42.362064" lon="1.961653">
        <ele>1604.38171</ele>
        <time>2021-07-02T08:40:35Z</time>
      </trkpt>
      <trkpt lat="42.362255" lon="1.961666">
        <ele>1602.91541</ele>
        <time>2021-07-02T08:40:36Z</time>
      </trkpt>
      <trkpt lat="42.362415" lon="1.961713">
        <ele>1602.00330</ele>
        <time>2021-07-02T08:40:37Z</time>
      </trkpt>
      <trkpt lat="42.362614" lon="1.961813">
        <ele>1602.45911</ele>
        <time>2021-07-02T08:40:38Z</time>
      </trkpt>
      <trkpt lat="42.362740" lon="1.961939">
        <ele>1601.67419</ele>
        <time>2021-07-02T08:40:39Z</time>
      </trkpt>
      <trkpt lat="42.362785" lon="1.962029">
        <ele>1601.36072</ele>
        <time>2021-07-02T08:40:40Z</time>
      </trkpt>
      <trkpt lat="42.362869" lon="1.962281">
        <ele>1601.34412</ele>
        <time>2021-07-02T08:40:41Z</time>
      </trkpt>
      <trkpt lat="42.362946" lon="1.962396">
        <ele>1600.63000</ele>
        <time>2021-07-02T08:40:42Z</time>
      </trkpt>
      <trkpt lat="42.363068" lon="1.962449">
        <ele>1600.69958</ele>
        <time>2021-07-02T08:40:43Z</time>
      </trkpt>
      <trkpt lat="42.363136" lon="1.962435">
        <ele>1600.31409</ele>
        <time>2021-07-02T08:40:44Z</time>
      </trkpt>
      <trkpt lat="42.363136" lon="1.962435">
        <ele>1600.34094</ele>
        <time>2021-07-02T08:40:45Z</time>
      </trkpt>
      <trkpt lat="42.363297" lon="1.962301">
        <ele>1600.39294</ele>
        <time>2021-07-02T08:40:46Z</time>
      </trkpt>
      <trkpt lat="42.363297" lon="1.962301">
        <ele>1599.21716</ele>
        <time>2021-07-02T08:40:47Z</time>
      </trkpt>
      <trkpt lat="42.363350" lon="1.962237">
        <ele>1599.73840</ele>
        <time>2021-07-02T08:40:48Z</time>
      </trkpt>
      <trkpt lat="42.363483" lon="1.962069">
        <ele>1597.49402</ele>
        <time>2021-07-02T08:40:49Z</time>
      </trkpt>
      <trkpt lat="42.363670" lon="1.961830">
        <ele>1598.01453</ele>
        <time>2021-07-02T08:40:50Z</time>
      </trkpt>
      <trkpt lat="42.363777" lon="1.961671">
        <ele>1597.91589</ele>
        <time>2021-07-02T08:40:51Z</time>
      </trkpt>
      <trkpt lat="42.363857" lon="1.961466">
        <ele>1597.91589</ele>
        <time>2021-07-02T08:40:52Z</time>
      </trkpt>
      <trkpt lat="42.363873" lon="1.961260">
        <ele>1599.05701</ele>
        <time>2021-07-02T08:40:53Z</time>
      </trkpt>
      <trkpt lat="42.363880" lon="1.961068">
        <ele>1598.84802</ele>
        <time>2021-07-02T08:40:54Z</time>
      </trkpt>
      <trkpt lat="42.363907" lon="1.960881">
        <ele>1598.04138</ele>
        <time>2021-07-02T08:40:55Z</time>
      </trkpt>
      <trkpt lat="42.363998" lon="1.960738">
        <ele>1596.97253</ele>
        <time>2021-07-02T08:40:56Z</time>
      </trkpt>
      <trkpt lat="42.364090" lon="1.960646">
        <ele>1596.08630</ele>
        <time>2021-07-02T08:40:57Z</time>
      </trkpt>
      <trkpt lat="42.364204" lon="1.960561">
        <ele>1594.06287</ele>
        <time>2021-07-02T08:40:58Z</time>
      </trkpt>
      <trkpt lat="42.364346" lon="1.960468">
        <ele>1593.94617</ele>
        <time>2021-07-02T08:40:59Z</time>
      </trkpt>
      <trkpt lat="42.364460" lon="1.960403">
        <ele>1593.86804</ele>
        <time>2021-07-02T08:41:00Z</time>
      </trkpt>
      <trkpt lat="42.364578" lon="1.960353">
        <ele>1589.10046</ele>
        <time>2021-07-02T08:41:01Z</time>
      </trkpt>
      <trkpt lat="42.364712" lon="1.960299">
        <ele>1588.79773</ele>
        <time>2021-07-02T08:41:02Z</time>
      </trkpt>
      <trkpt lat="42.364876" lon="1.960256">
        <ele>1588.51135</ele>
        <time>2021-07-02T08:41:03Z</time>
      </trkpt>
      <trkpt lat="42.364998" lon="1.960223">
        <ele>1586.22815</ele>
        <time>2021-07-02T08:41:04Z</time>
      </trkpt>
      <trkpt lat="42.365131" lon="1.960187">
        <ele>1585.83630</ele>
        <time>2021-07-02T08:41:05Z</time>
      </trkpt>
      <trkpt lat="42.365231" lon="1.960174">
        <ele>1585.55701</ele>
        <time>2021-07-02T08:41:06Z</time>
      </trkpt>
      <trkpt lat="42.365341" lon="1.960165">
        <ele>1584.53967</ele>
        <time>2021-07-02T08:41:07Z</time>
      </trkpt>
      <trkpt lat="42.365471" lon="1.960163">
        <ele>1584.48816</ele>
        <time>2021-07-02T08:41:08Z</time>
      </trkpt>
      <trkpt lat="42.365574" lon="1.960179">
        <ele>1583.26013</ele>
        <time>2021-07-02T08:41:09Z</time>
      </trkpt>
      <trkpt lat="42.365696" lon="1.960167">
        <ele>1583.40100</ele>
        <time>2021-07-02T08:41:10Z</time>
      </trkpt>
      <trkpt lat="42.365833" lon="1.960105">
        <ele>1582.40442</ele>
        <time>2021-07-02T08:41:11Z</time>
      </trkpt>
      <trkpt lat="42.365944" lon="1.960041">
        <ele>1581.57678</ele>
        <time>2021-07-02T08:41:12Z</time>
      </trkpt>
      <trkpt lat="42.366123" lon="1.959938">
        <ele>1581.16882</ele>
        <time>2021-07-02T08:41:13Z</time>
      </trkpt>
      <trkpt lat="42.366230" lon="1.959877">
        <ele>1580.92566</ele>
        <time>2021-07-02T08:41:14Z</time>
      </trkpt>
      <trkpt lat="42.366341" lon="1.959812">
        <ele>1579.04187</ele>
        <time>2021-07-02T08:41:15Z</time>
      </trkpt>
      <trkpt lat="42.366455" lon="1.959753">
        <ele>1579.31946</ele>
        <time>2021-07-02T08:41:16Z</time>
      </trkpt>
      <trkpt lat="42.366577" lon="1.959695">
        <ele>1579.25281</ele>
        <time>2021-07-02T08:41:17Z</time>
      </trkpt>
      <trkpt lat="42.366577" lon="1.959695">
        <ele>1578.93835</ele>
        <time>2021-07-02T08:41:18Z</time>
      </trkpt>
      <trkpt lat="42.366795" lon="1.959623">
        <ele>1579.56433</ele>
        <time>2021-07-02T08:41:19Z</time>
      </trkpt>
      <trkpt lat="42.366795" lon="1.959623">
        <ele>1579.07703</ele>
        <time>2021-07-02T08:41:20Z</time>
      </trkpt>
      <trkpt lat="42.366928" lon="1.959617">
        <ele>1578.87830</ele>
        <time>2021-07-02T08:41:21Z</time>
      </trkpt>
      <trkpt lat="42.367065" lon="1.959610">
        <ele>1578.23328</ele>
        <time>2021-07-02T08:41:22Z</time>
      </trkpt>
      <trkpt lat="42.367168" lon="1.959610">
        <ele>1577.45886</ele>
        <time>2021-07-02T08:41:23Z</time>
      </trkpt>
      <trkpt lat="42.367264" lon="1.959570">
        <ele>1579.88806</ele>
        <time>2021-07-02T08:41:24Z</time>
      </trkpt>
      <trkpt lat="42.367329" lon="1.959509">
        <ele>1579.54285</ele>
        <time>2021-07-02T08:41:25Z</time>
      </trkpt>
      <trkpt lat="42.367367" lon="1.959406">
        <ele>1580.01941</ele>
        <time>2021-07-02T08:41:26Z</time>
      </trkpt>
      <trkpt lat="42.367378" lon="1.959290">
        <ele>1580.93103</ele>
        <time>2021-07-02T08:41:27Z</time>
      </trkpt>
      <trkpt lat="42.367363" lon="1.959187">
        <ele>1580.49817</ele>
        <time>2021-07-02T08:41:28Z</time>
      </trkpt>
      <trkpt lat="42.367313" lon="1.959100">
        <ele>1580.10242</ele>
        <time>2021-07-02T08:41:29Z</time>
      </trkpt>
      <trkpt lat="42.367245" lon="1.959040">
        <ele>1579.68542</ele>
        <time>2021-07-02T08:41:30Z</time>
      </trkpt>
      <trkpt lat="42.367191" lon="1.959015">
        <ele>1579.51379</ele>
        <time>2021-07-02T08:41:31Z</time>
      </trkpt>
      <trkpt lat="42.367107" lon="1.958994">
        <ele>1580.83850</ele>
        <time>2021-07-02T08:41:32Z</time>
      </trkpt>
      <trkpt lat="42.366978" lon="1.958961">
        <ele>1580.03748</ele>
        <time>2021-07-02T08:41:33Z</time>
      </trkpt>
      <trkpt lat="42.366879" lon="1.958937">
        <ele>1580.23083</ele>
        <time>2021-07-02T08:41:34Z</time>
      </trkpt>
      <trkpt lat="42.366692" lon="1.958883">
        <ele>1577.02283</ele>
        <time>2021-07-02T08:41:35Z</time>
      </trkpt>
      <trkpt lat="42.366489" lon="1.958824">
        <ele>1576.11902</ele>
        <time>2021-07-02T08:41:36Z</time>
      </trkpt>
      <trkpt lat="42.366184" lon="1.958734">
        <ele>1576.09021</ele>
        <time>2021-07-02T08:41:37Z</time>
      </trkpt>
      <trkpt lat="42.365986" lon="1.958675">
        <ele>1575.29480</ele>
        <time>2021-07-02T08:41:38Z</time>
      </trkpt>
      <trkpt lat="42.365757" lon="1.958607">
        <ele>1573.86755</ele>
        <time>2021-07-02T08:41:39Z</time>
      </trkpt>
      <trkpt lat="42.365524" lon="1.958520">
        <ele>1573.98108</ele>
        <time>2021-07-02T08:41:40Z</time>
      </trkpt>
      <trkpt lat="42.365299" lon="1.958434">
        <ele>1572.21423</ele>
        <time>2021-07-02T08:41:41Z</time>
      </trkpt>
      <trkpt lat="42.365074" lon="1.958348">
        <ele>1571.98108</ele>
        <time>2021-07-02T08:41:42Z</time>
      </trkpt>
      <trkpt lat="42.364857" lon="1.958265">
        <ele>1569.82605</ele>
        <time>2021-07-02T08:41:43Z</time>
      </trkpt>
      <trkpt lat="42.364647" lon="1.958184">
        <ele>1570.14954</ele>
        <time>2021-07-02T08:41:44Z</time>
      </trkpt>
      <trkpt lat="42.364468" lon="1.958115">
        <ele>1569.35291</ele>
        <time>2021-07-02T08:41:45Z</time>
      </trkpt>
      <trkpt lat="42.364285" lon="1.958066">
        <ele>1566.95154</ele>
        <time>2021-07-02T08:41:46Z</time>
      </trkpt>
      <trkpt lat="42.364090" lon="1.958071">
        <ele>1566.28577</ele>
        <time>2021-07-02T08:41:47Z</time>
      </trkpt>
      <trkpt lat="42.363869" lon="1.958095">
        <ele>1566.43274</ele>
        <time>2021-07-02T08:41:48Z</time>
      </trkpt>
      <trkpt lat="42.363609" lon="1.958076">
        <ele>1566.11926</ele>
        <time>2021-07-02T08:41:49Z</time>
      </trkpt>
      <trkpt lat="42.363380" lon="1.958024">
        <ele>1565.97302</ele>
        <time>2021-07-02T08:41:50Z</time>
      </trkpt>
      <trkpt lat="42.363148" lon="1.957965">
        <ele>1565.90564</ele>
        <time>2021-07-02T08:41:51Z</time>
      </trkpt>
      <trkpt lat="42.362915" lon="1.957907">
        <ele>1564.66003</ele>
        <time>2021-07-02T08:41:52Z</time>
      </trkpt>
      <trkpt lat="42.362728" lon="1.957855">
        <ele>1563.85095</ele>
        <time>2021-07-02T08:41:53Z</time>
      </trkpt>
      <trkpt lat="42.362728" lon="1.957855">
        <ele>1564.07263</ele>
        <time>2021-07-02T08:41:54Z</time>
      </trkpt>
      <trkpt lat="42.362534" lon="1.957782">
        <ele>1563.94934</ele>
        <time>2021-07-02T08:41:55Z</time>
      </trkpt>
      <trkpt lat="42.362373" lon="1.957678">
        <ele>1565.43860</ele>
        <time>2021-07-02T08:41:56Z</time>
      </trkpt>
      <trkpt lat="42.362228" lon="1.957546">
        <ele>1564.26892</ele>
        <time>2021-07-02T08:41:57Z</time>
      </trkpt>
      <trkpt lat="42.362118" lon="1.957354">
        <ele>1563.71033</ele>
        <time>2021-07-02T08:41:58Z</time>
      </trkpt>
      <trkpt lat="42.362030" lon="1.957154">
        <ele>1562.07166</ele>
        <time>2021-07-02T08:41:59Z</time>
      </trkpt>
      <trkpt lat="42.361931" lon="1.957036">
        <ele>1562.87146</ele>
        <time>2021-07-02T08:42:00Z</time>
      </trkpt>
      <trkpt lat="42.361866" lon="1.957012">
        <ele>1562.79968</ele>
        <time>2021-07-02T08:42:01Z</time>
      </trkpt>
      <trkpt lat="42.361729" lon="1.957020">
        <ele>1563.29773</ele>
        <time>2021-07-02T08:42:02Z</time>
      </trkpt>
      <trkpt lat="42.361511" lon="1.957079">
        <ele>1563.56433</ele>
        <time>2021-07-02T08:42:03Z</time>
      </trkpt>
      <trkpt lat="42.361317" lon="1.957131">
        <ele>1561.57214</ele>
        <time>2021-07-02T08:42:04Z</time>
      </trkpt>
      <trkpt lat="42.361137" lon="1.957174">
        <ele>1558.54041</ele>
        <time>2021-07-02T08:42:05Z</time>
      </trkpt>
      <trkpt lat="42.360985" lon="1.957187">
        <ele>1557.49182</ele>
        <time>2021-07-02T08:42:06Z</time>
      </trkpt>
      <trkpt lat="42.360855" lon="1.957162">
        <ele>1556.94177</ele>
        <time>2021-07-02T08:42:07Z</time>
      </trkpt>
      <trkpt lat="42.360691" lon="1.957080">
        <ele>1557.51306</ele>
        <time>2021-07-02T08:42:08Z</time>
      </trkpt>
      <trkpt lat="42.360558" lon="1.956959">
        <ele>1556.68884</ele>
        <time>2021-07-02T08:42:09Z</time>
      </trkpt>
      <trkpt lat="42.360474" lon="1.956838">
        <ele>1555.80627</ele>
        <time>2021-07-02T08:42:10Z</time>
      </trkpt>
      <trkpt lat="42.360378" lon="1.956668">
        <ele>1556.16736</ele>
        <time>2021-07-02T08:42:11Z</time>
      </trkpt>
      <trkpt lat="42.360279" lon="1.956449">
        <ele>1556.61975</ele>
        <time>2021-07-02T08:42:12Z</time>
      </trkpt>
      <trkpt lat="42.360226" lon="1.956258">
        <ele>1556.53406</ele>
        <time>2021-07-02T08:42:13Z</time>
      </trkpt>
      <trkpt lat="42.360229" lon="1.956059">
        <ele>1556.45886</ele>
        <time>2021-07-02T08:42:14Z</time>
      </trkpt>
      <trkpt lat="42.360283" lon="1.955878">
        <ele>1555.49841</ele>
        <time>2021-07-02T08:42:15Z</time>
      </trkpt>
      <trkpt lat="42.360344" lon="1.955753">
        <ele>1555.27991</ele>
        <time>2021-07-02T08:42:16Z</time>
      </trkpt>
      <trkpt lat="42.360409" lon="1.955661">
        <ele>1556.57898</ele>
        <time>2021-07-02T08:42:17Z</time>
      </trkpt>
      <trkpt lat="42.360508" lon="1.955506">
        <ele>1552.37634</ele>
        <time>2021-07-02T08:42:18Z</time>
      </trkpt>
      <trkpt lat="42.360718" lon="1.955191">
        <ele>1551.82751</ele>
        <time>2021-07-02T08:42:19Z</time>
      </trkpt>
      <trkpt lat="42.360802" lon="1.955061">
        <ele>1552.31091</ele>
        <time>2021-07-02T08:42:20Z</time>
      </trkpt>
      <trkpt lat="42.360905" lon="1.954899">
        <ele>1552.52576</ele>
        <time>2021-07-02T08:42:21Z</time>
      </trkpt>
      <trkpt lat="42.360970" lon="1.954763">
        <ele>1552.75012</ele>
        <time>2021-07-02T08:42:22Z</time>
      </trkpt>
      <trkpt lat="42.360985" lon="1.954671">
        <ele>1553.42859</ele>
        <time>2021-07-02T08:42:23Z</time>
      </trkpt>
      <trkpt lat="42.360931" lon="1.954508">
        <ele>1553.48914</ele>
        <time>2021-07-02T08:42:24Z</time>
      </trkpt>
      <trkpt lat="42.360874" lon="1.954451">
        <ele>1553.47205</ele>
        <time>2021-07-02T08:42:25Z</time>
      </trkpt>
      <trkpt lat="42.360779" lon="1.954396">
        <ele>1554.25525</ele>
        <time>2021-07-02T08:42:26Z</time>
      </trkpt>
      <trkpt lat="42.360683" lon="1.954363">
        <ele>1550.51843</ele>
        <time>2021-07-02T08:42:27Z</time>
      </trkpt>
      <trkpt lat="42.360542" lon="1.954342">
        <ele>1547.45911</ele>
        <time>2021-07-02T08:42:28Z</time>
      </trkpt>
      <trkpt lat="42.360306" lon="1.954350">
        <ele>1546.50085</ele>
        <time>2021-07-02T08:42:29Z</time>
      </trkpt>
      <trkpt lat="42.359924" lon="1.954377">
        <ele>1546.29236</ele>
        <time>2021-07-02T08:42:30Z</time>
      </trkpt>
      <trkpt lat="42.359760" lon="1.954374">
        <ele>1544.88733</ele>
        <time>2021-07-02T08:42:31Z</time>
      </trkpt>
      <trkpt lat="42.359760" lon="1.954374">
        <ele>1545.42029</ele>
        <time>2021-07-02T08:42:32Z</time>
      </trkpt>
      <trkpt lat="42.359573" lon="1.954356">
        <ele>1545.13635</ele>
        <time>2021-07-02T08:42:33Z</time>
      </trkpt>
      <trkpt lat="42.359402" lon="1.954322">
        <ele>1544.81628</ele>
        <time>2021-07-02T08:42:34Z</time>
      </trkpt>
      <trkpt lat="42.359264" lon="1.954268">
        <ele>1545.60535</ele>
        <time>2021-07-02T08:42:35Z</time>
      </trkpt>
      <trkpt lat="42.359138" lon="1.954135">
        <ele>1545.03088</ele>
        <time>2021-07-02T08:42:36Z</time>
      </trkpt>
      <trkpt lat="42.359020" lon="1.954014">
        <ele>1545.32092</ele>
        <time>2021-07-02T08:42:37Z</time>
      </trkpt>
      <trkpt lat="42.358891" lon="1.954001">
        <ele>1545.15198</ele>
        <time>2021-07-02T08:42:38Z</time>
      </trkpt>
      <trkpt lat="42.358746" lon="1.954037">
        <ele>1545.86560</ele>
        <time>2021-07-02T08:42:39Z</time>
      </trkpt>
      <trkpt lat="42.358589" lon="1.954091">
        <ele>1546.88684</ele>
        <time>2021-07-02T08:42:40Z</time>
      </trkpt>
      <trkpt lat="42.358383" lon="1.954160">
        <ele>1546.08386</ele>
        <time>2021-07-02T08:42:41Z</time>
      </trkpt>
      <trkpt lat="42.358135" lon="1.954246">
        <ele>1545.70398</ele>
        <time>2021-07-02T08:42:42Z</time>
      </trkpt>
      <trkpt lat="42.357929" lon="1.954299">
        <ele>1546.41296</ele>
        <time>2021-07-02T08:42:43Z</time>
      </trkpt>
      <trkpt lat="42.357742" lon="1.954345">
        <ele>1543.83557</ele>
        <time>2021-07-02T08:42:44Z</time>
      </trkpt>
      <trkpt lat="42.357533" lon="1.954365">
        <ele>1543.60925</ele>
        <time>2021-07-02T08:42:45Z</time>
      </trkpt>
      <trkpt lat="42.357319" lon="1.954383">
        <ele>1543.33386</ele>
        <time>2021-07-02T08:42:46Z</time>
      </trkpt>
      <trkpt lat="42.357151" lon="1.954385">
        <ele>1542.58484</ele>
        <time>2021-07-02T08:42:47Z</time>
      </trkpt>
      <trkpt lat="42.357002" lon="1.954380">
        <ele>1542.21326</ele>
        <time>2021-07-02T08:42:48Z</time>
      </trkpt>
      <trkpt lat="42.356861" lon="1.954335">
        <ele>1542.86340</ele>
        <time>2021-07-02T08:42:49Z</time>
      </trkpt>
      <trkpt lat="42.356720" lon="1.954203">
        <ele>1542.95154</ele>
        <time>2021-07-02T08:42:50Z</time>
      </trkpt>
      <trkpt lat="42.356655" lon="1.954065">
        <ele>1542.24939</ele>
        <time>2021-07-02T08:42:51Z</time>
      </trkpt>
      <trkpt lat="42.356625" lon="1.953932">
        <ele>1542.38074</ele>
        <time>2021-07-02T08:42:52Z</time>
      </trkpt>
      <trkpt lat="42.356586" lon="1.953645">
        <ele>1541.50476</ele>
        <time>2021-07-02T08:42:53Z</time>
      </trkpt>
      <trkpt lat="42.356552" lon="1.953380">
        <ele>1542.12439</ele>
        <time>2021-07-02T08:42:54Z</time>
      </trkpt>
      <trkpt lat="42.356518" lon="1.953106">
        <ele>1542.00134</ele>
        <time>2021-07-02T08:42:55Z</time>
      </trkpt>
      <trkpt lat="42.356476" lon="1.952807">
        <ele>1542.02917</ele>
        <time>2021-07-02T08:42:56Z</time>
      </trkpt>
      <trkpt lat="42.356438" lon="1.952521">
        <ele>1543.42175</ele>
        <time>2021-07-02T08:42:57Z</time>
      </trkpt>
      <trkpt lat="42.356403" lon="1.952270">
        <ele>1543.31628</ele>
        <time>2021-07-02T08:42:58Z</time>
      </trkpt>
      <trkpt lat="42.356373" lon="1.952006">
        <ele>1544.12244</ele>
        <time>2021-07-02T08:42:59Z</time>
      </trkpt>
      <trkpt lat="42.356342" lon="1.951755">
        <ele>1543.38562</ele>
        <time>2021-07-02T08:43:00Z</time>
      </trkpt>
      <trkpt lat="42.356342" lon="1.951473">
        <ele>1541.97644</ele>
        <time>2021-07-02T08:43:01Z</time>
      </trkpt>
      <trkpt lat="42.356380" lon="1.951192">
        <ele>1541.76794</ele>
        <time>2021-07-02T08:43:02Z</time>
      </trkpt>
      <trkpt lat="42.356380" lon="1.951192">
        <ele>1541.63440</ele>
        <time>2021-07-02T08:43:03Z</time>
      </trkpt>
      <trkpt lat="42.356434" lon="1.950930">
        <ele>1542.43250</ele>
        <time>2021-07-02T08:43:04Z</time>
      </trkpt>
      <trkpt lat="42.356483" lon="1.950675">
        <ele>1542.31604</ele>
        <time>2021-07-02T08:43:05Z</time>
      </trkpt>
      <trkpt lat="42.356506" lon="1.950375">
        <ele>1542.49158</ele>
        <time>2021-07-02T08:43:06Z</time>
      </trkpt>
      <trkpt lat="42.356525" lon="1.950103">
        <ele>1542.52258</ele>
        <time>2021-07-02T08:43:07Z</time>
      </trkpt>
      <trkpt lat="42.356541" lon="1.949866">
        <ele>1542.99402</ele>
        <time>2021-07-02T08:43:08Z</time>
      </trkpt>
      <trkpt lat="42.356537" lon="1.949630">
        <ele>1542.82141</ele>
        <time>2021-07-02T08:43:09Z</time>
      </trkpt>
      <trkpt lat="42.356537" lon="1.949507">
        <ele>1542.96667</ele>
        <time>2021-07-02T08:43:10Z</time>
      </trkpt>
      <trkpt lat="42.356483" lon="1.949398">
        <ele>1543.07898</ele>
        <time>2021-07-02T08:43:11Z</time>
      </trkpt>
      <trkpt lat="42.356426" lon="1.949351">
        <ele>1542.99036</ele>
        <time>2021-07-02T08:43:12Z</time>
      </trkpt>
      <trkpt lat="42.356346" lon="1.949342">
        <ele>1543.90662</ele>
        <time>2021-07-02T08:43:13Z</time>
      </trkpt>
      <trkpt lat="42.356289" lon="1.949348">
        <ele>1546.48401</ele>
        <time>2021-07-02T08:43:14Z</time>
      </trkpt>
      <trkpt lat="42.356171" lon="1.949398">
        <ele>1546.78870</ele>
        <time>2021-07-02T08:43:15Z</time>
      </trkpt>
      <trkpt lat="42.355961" lon="1.949689">
        <ele>1547.50549</ele>
        <time>2021-07-02T08:43:16Z</time>
      </trkpt>
      <trkpt lat="42.355858" lon="1.949911">
        <ele>1547.43005</ele>
        <time>2021-07-02T08:43:17Z</time>
      </trkpt>
      <trkpt lat="42.355751" lon="1.950146">
        <ele>1547.99548</ele>
        <time>2021-07-02T08:43:18Z</time>
      </trkpt>
      <trkpt lat="42.355618" lon="1.950395">
        <ele>1548.02795</ele>
        <time>2021-07-02T08:43:19Z</time>
      </trkpt>
      <trkpt lat="42.355457" lon="1.950575">
        <ele>1548.54138</ele>
        <time>2021-07-02T08:43:20Z</time>
      </trkpt>
      <trkpt lat="42.355309" lon="1.950740">
        <ele>1548.87415</ele>
        <time>2021-07-02T08:43:21Z</time>
      </trkpt>
      <trkpt lat="42.355133" lon="1.950957">
        <ele>1549.82019</ele>
        <time>2021-07-02T08:43:22Z</time>
      </trkpt>
      <trkpt lat="42.355003" lon="1.951206">
        <ele>1550.19373</ele>
        <time>2021-07-02T08:43:23Z</time>
      </trkpt>
      <trkpt lat="42.354874" lon="1.951491">
        <ele>1549.65173</ele>
        <time>2021-07-02T08:43:24Z</time>
      </trkpt>
      <trkpt lat="42.354744" lon="1.951779">
        <ele>1549.84314</ele>
        <time>2021-07-02T08:43:25Z</time>
      </trkpt>
      <trkpt lat="42.354630" lon="1.952063">
        <ele>1549.35974</ele>
        <time>2021-07-02T08:43:26Z</time>
      </trkpt>
      <trkpt lat="42.354538" lon="1.952313">
        <ele>1548.07605</ele>
        <time>2021-07-02T08:43:27Z</time>
      </trkpt>
      <trkpt lat="42.354443" lon="1.952558">
        <ele>1547.28943</ele>
        <time>2021-07-02T08:43:28Z</time>
      </trkpt>
      <trkpt lat="42.354355" lon="1.952766">
        <ele>1546.24817</ele>
        <time>2021-07-02T08:43:29Z</time>
      </trkpt>
      <trkpt lat="42.354267" lon="1.952908">
        <ele>1546.78284</ele>
        <time>2021-07-02T08:43:30Z</time>
      </trkpt>
      <trkpt lat="42.354164" lon="1.952987">
        <ele>1547.12878</ele>
        <time>2021-07-02T08:43:31Z</time>
      </trkpt>
      <trkpt lat="42.354092" lon="1.953006">
        <ele>1547.06311</ele>
        <time>2021-07-02T08:43:32Z</time>
      </trkpt>
      <trkpt lat="42.353943" lon="1.952990">
        <ele>1548.03894</ele>
        <time>2021-07-02T08:43:33Z</time>
      </trkpt>
      <trkpt lat="42.353786" lon="1.952930">
        <ele>1548.18640</ele>
        <time>2021-07-02T08:43:34Z</time>
      </trkpt>
      <trkpt lat="42.353611" lon="1.952825">
        <ele>1548.11731</ele>
        <time>2021-07-02T08:43:35Z</time>
      </trkpt>
      <trkpt lat="42.353477" lon="1.952763">
        <ele>1548.15051</ele>
        <time>2021-07-02T08:43:36Z</time>
      </trkpt>
      <trkpt lat="42.353306" lon="1.952721">
        <ele>1548.19421</ele>
        <time>2021-07-02T08:43:37Z</time>
      </trkpt>
      <trkpt lat="42.353081" lon="1.952697">
        <ele>1548.20129</ele>
        <time>2021-07-02T08:43:38Z</time>
      </trkpt>
      <trkpt lat="42.353081" lon="1.952697">
        <ele>1547.32947</ele>
        <time>2021-07-02T08:43:39Z</time>
      </trkpt>
      <trkpt lat="42.352570" lon="1.952648">
        <ele>1546.68298</ele>
        <time>2021-07-02T08:43:40Z</time>
      </trkpt>
      <trkpt lat="42.352570" lon="1.952648">
        <ele>1546.09558</ele>
        <time>2021-07-02T08:43:41Z</time>
      </trkpt>
      <trkpt lat="42.352390" lon="1.952617">
        <ele>1545.89124</ele>
        <time>2021-07-02T08:43:42Z</time>
      </trkpt>
      <trkpt lat="42.352234" lon="1.952546">
        <ele>1545.65076</ele>
        <time>2021-07-02T08:43:43Z</time>
      </trkpt>
      <trkpt lat="42.352077" lon="1.952436">
        <ele>1545.61560</ele>
        <time>2021-07-02T08:43:44Z</time>
      </trkpt>
      <trkpt lat="42.351978" lon="1.952309">
        <ele>1544.80603</ele>
        <time>2021-07-02T08:43:45Z</time>
      </trkpt>
      <trkpt lat="42.351913" lon="1.952155">
        <ele>1545.22083</ele>
        <time>2021-07-02T08:43:46Z</time>
      </trkpt>
      <trkpt lat="42.351875" lon="1.951982">
        <ele>1544.50061</ele>
        <time>2021-07-02T08:43:47Z</time>
      </trkpt>
      <trkpt lat="42.351852" lon="1.951774">
        <ele>1544.31726</ele>
        <time>2021-07-02T08:43:48Z</time>
      </trkpt>
      <trkpt lat="42.351830" lon="1.951500">
        <ele>1544.81873</ele>
        <time>2021-07-02T08:43:49Z</time>
      </trkpt>
      <trkpt lat="42.351807" lon="1.951258">
        <ele>1544.44324</ele>
        <time>2021-07-02T08:43:50Z</time>
      </trkpt>
      <trkpt lat="42.351768" lon="1.950928">
        <ele>1543.41858</ele>
        <time>2021-07-02T08:43:51Z</time>
      </trkpt>
      <trkpt lat="42.351692" lon="1.950627">
        <ele>1543.18542</ele>
        <time>2021-07-02T08:43:52Z</time>
      </trkpt>
      <trkpt lat="42.351608" lon="1.950375">
        <ele>1542.14490</ele>
        <time>2021-07-02T08:43:53Z</time>
      </trkpt>
      <trkpt lat="42.351524" lon="1.950129">
        <ele>1542.67908</ele>
        <time>2021-07-02T08:43:54Z</time>
      </trkpt>
      <trkpt lat="42.351460" lon="1.949965">
        <ele>1543.05408</ele>
        <time>2021-07-02T08:43:55Z</time>
      </trkpt>
      <trkpt lat="42.351360" lon="1.949831">
        <ele>1542.77332</ele>
        <time>2021-07-02T08:43:56Z</time>
      </trkpt>
      <trkpt lat="42.351196" lon="1.949735">
        <ele>1542.79163</ele>
        <time>2021-07-02T08:43:57Z</time>
      </trkpt>
      <trkpt lat="42.351055" lon="1.949577">
        <ele>1541.05750</ele>
        <time>2021-07-02T08:43:58Z</time>
      </trkpt>
      <trkpt lat="42.350952" lon="1.949418">
        <ele>1541.29333</ele>
        <time>2021-07-02T08:43:59Z</time>
      </trkpt>
      <trkpt lat="42.350796" lon="1.949151">
        <ele>1539.73914</ele>
        <time>2021-07-02T08:44:00Z</time>
      </trkpt>
      <trkpt lat="42.350739" lon="1.948990">
        <ele>1539.84314</ele>
        <time>2021-07-02T08:44:01Z</time>
      </trkpt>
      <trkpt lat="42.350735" lon="1.948939">
        <ele>1538.37439</ele>
        <time>2021-07-02T08:44:02Z</time>
      </trkpt>
      <trkpt lat="42.350758" lon="1.948781">
        <ele>1537.93567</ele>
        <time>2021-07-02T08:44:03Z</time>
      </trkpt>
      <trkpt lat="42.350815" lon="1.948642">
        <ele>1537.66150</ele>
        <time>2021-07-02T08:44:04Z</time>
      </trkpt>
      <trkpt lat="42.350864" lon="1.948510">
        <ele>1536.85925</ele>
        <time>2021-07-02T08:44:05Z</time>
      </trkpt>
      <trkpt lat="42.350903" lon="1.948225">
        <ele>1535.68591</ele>
        <time>2021-07-02T08:44:06Z</time>
      </trkpt>
      <trkpt lat="42.350849" lon="1.947984">
        <ele>1535.69275</ele>
        <time>2021-07-02T08:44:07Z</time>
      </trkpt>
      <trkpt lat="42.350792" lon="1.947739">
        <ele>1535.56335</ele>
        <time>2021-07-02T08:44:08Z</time>
      </trkpt>
      <trkpt lat="42.350784" lon="1.947541">
        <ele>1536.50623</ele>
        <time>2021-07-02T08:44:09Z</time>
      </trkpt>
      <trkpt lat="42.350807" lon="1.947335">
        <ele>1536.44373</ele>
        <time>2021-07-02T08:44:10Z</time>
      </trkpt>
      <trkpt lat="42.350861" lon="1.947154">
        <ele>1536.02258</ele>
        <time>2021-07-02T08:44:11Z</time>
      </trkpt>
      <trkpt lat="42.350929" lon="1.946972">
        <ele>1535.69897</ele>
        <time>2021-07-02T08:44:12Z</time>
      </trkpt>
      <trkpt lat="42.350929" lon="1.946972">
        <ele>1534.35461</ele>
        <time>2021-07-02T08:44:13Z</time>
      </trkpt>
      <trkpt lat="42.350986" lon="1.946689">
        <ele>1534.42578</ele>
        <time>2021-07-02T08:44:14Z</time>
      </trkpt>
      <trkpt lat="42.350986" lon="1.946689">
        <ele>1534.43677</ele>
        <time>2021-07-02T08:44:15Z</time>
      </trkpt>
      <trkpt lat="42.350945" lon="1.946573">
        <ele>1534.82068</ele>
        <time>2021-07-02T08:44:16Z</time>
      </trkpt>
      <trkpt lat="42.350845" lon="1.946485">
        <ele>1534.53735</ele>
        <time>2021-07-02T08:44:17Z</time>
      </trkpt>
      <trkpt lat="42.350742" lon="1.946410">
        <ele>1534.57190</ele>
        <time>2021-07-02T08:44:18Z</time>
      </trkpt>
      <trkpt lat="42.350632" lon="1.946303">
        <ele>1534.72668</ele>
        <time>2021-07-02T08:44:19Z</time>
      </trkpt>
      <trkpt lat="42.350540" lon="1.946086">
        <ele>1535.99939</ele>
        <time>2021-07-02T08:44:20Z</time>
      </trkpt>
      <trkpt lat="42.350487" lon="1.945806">
        <ele>1535.77759</ele>
        <time>2021-07-02T08:44:21Z</time>
      </trkpt>
      <trkpt lat="42.350468" lon="1.945561">
        <ele>1535.44006</ele>
        <time>2021-07-02T08:44:22Z</time>
      </trkpt>
      <trkpt lat="42.350445" lon="1.945336">
        <ele>1534.91064</ele>
        <time>2021-07-02T08:44:23Z</time>
      </trkpt>
      <trkpt lat="42.350391" lon="1.945136">
        <ele>1535.05615</ele>
        <time>2021-07-02T08:44:24Z</time>
      </trkpt>
      <trkpt lat="42.350311" lon="1.944972">
        <ele>1534.94897</ele>
        <time>2021-07-02T08:44:25Z</time>
      </trkpt>
      <trkpt lat="42.350166" lon="1.944752">
        <ele>1534.46729</ele>
        <time>2021-07-02T08:44:26Z</time>
      </trkpt>
      <trkpt lat="42.350056" lon="1.944570">
        <ele>1532.63489</ele>
        <time>2021-07-02T08:44:27Z</time>
      </trkpt>
      <trkpt lat="42.349995" lon="1.944400">
        <ele>1531.58984</ele>
        <time>2021-07-02T08:44:28Z</time>
      </trkpt>
      <trkpt lat="42.349998" lon="1.944320">
        <ele>1531.27112</ele>
        <time>2021-07-02T08:44:29Z</time>
      </trkpt>
      <trkpt lat="42.350048" lon="1.944191">
        <ele>1530.55286</ele>
        <time>2021-07-02T08:44:30Z</time>
      </trkpt>
      <trkpt lat="42.350147" lon="1.944119">
        <ele>1530.41577</ele>
        <time>2021-07-02T08:44:31Z</time>
      </trkpt>
      <trkpt lat="42.350182" lon="1.944113">
        <ele>1531.27588</ele>
        <time>2021-07-02T08:44:32Z</time>
      </trkpt>
      <trkpt lat="42.350227" lon="1.944115">
        <ele>1531.74011</ele>
        <time>2021-07-02T08:44:33Z</time>
      </trkpt>
      <trkpt lat="42.350471" lon="1.944212">
        <ele>1531.71570</ele>
        <time>2021-07-02T08:44:34Z</time>
      </trkpt>
      <trkpt lat="42.350567" lon="1.944271">
        <ele>1531.30640</ele>
        <time>2021-07-02T08:44:35Z</time>
      </trkpt>
      <trkpt lat="42.350746" lon="1.944385">
        <ele>1530.69336</ele>
        <time>2021-07-02T08:44:36Z</time>
      </trkpt>
      <trkpt lat="42.350971" lon="1.944458">
        <ele>1529.01477</ele>
        <time>2021-07-02T08:44:37Z</time>
      </trkpt>
      <trkpt lat="42.351105" lon="1.944427">
        <ele>1528.24854</ele>
        <time>2021-07-02T08:44:38Z</time>
      </trkpt>
      <trkpt lat="42.351200" lon="1.944322">
        <ele>1527.68579</ele>
        <time>2021-07-02T08:44:39Z</time>
      </trkpt>
      <trkpt lat="42.351292" lon="1.944206">
        <ele>1527.62280</ele>
        <time>2021-07-02T08:44:40Z</time>
      </trkpt>
      <trkpt lat="42.351387" lon="1.944115">
        <ele>1527.38159</ele>
        <time>2021-07-02T08:44:41Z</time>
      </trkpt>
      <trkpt lat="42.351570" lon="1.943934">
        <ele>1526.61401</ele>
        <time>2021-07-02T08:44:42Z</time>
      </trkpt>
      <trkpt lat="42.351624" lon="1.943827">
        <ele>1525.99866</ele>
        <time>2021-07-02T08:44:43Z</time>
      </trkpt>
      <trkpt lat="42.351658" lon="1.943612">
        <ele>1526.31079</ele>
        <time>2021-07-02T08:44:44Z</time>
      </trkpt>
      <trkpt lat="42.351688" lon="1.943356">
        <ele>1526.16711</ele>
        <time>2021-07-02T08:44:45Z</time>
      </trkpt>
      <trkpt lat="42.351730" lon="1.942995">
        <ele>1525.39050</ele>
        <time>2021-07-02T08:44:46Z</time>
      </trkpt>
      <trkpt lat="42.351761" lon="1.942668">
        <ele>1525.22278</ele>
        <time>2021-07-02T08:44:47Z</time>
      </trkpt>
      <trkpt lat="42.351765" lon="1.942377">
        <ele>1524.92566</ele>
        <time>2021-07-02T08:44:48Z</time>
      </trkpt>
      <trkpt lat="42.351765" lon="1.942377">
        <ele>1523.75964</ele>
        <time>2021-07-02T08:44:49Z</time>
      </trkpt>
      <trkpt lat="42.351776" lon="1.942118">
        <ele>1522.32947</ele>
        <time>2021-07-02T08:44:50Z</time>
      </trkpt>
      <trkpt lat="42.351810" lon="1.941865">
        <ele>1522.05920</ele>
        <time>2021-07-02T08:44:51Z</time>
      </trkpt>
      <trkpt lat="42.351879" lon="1.941622">
        <ele>1521.63562</ele>
        <time>2021-07-02T08:44:52Z</time>
      </trkpt>
      <trkpt lat="42.351933" lon="1.941373">
        <ele>1520.40076</ele>
        <time>2021-07-02T08:44:53Z</time>
      </trkpt>
      <trkpt lat="42.351933" lon="1.941126">
        <ele>1519.73328</ele>
        <time>2021-07-02T08:44:54Z</time>
      </trkpt>
      <trkpt lat="42.351925" lon="1.940819">
        <ele>1518.51306</ele>
        <time>2021-07-02T08:44:55Z</time>
      </trkpt>
      <trkpt lat="42.351910" lon="1.940451">
        <ele>1517.73572</ele>
        <time>2021-07-02T08:44:56Z</time>
      </trkpt>
      <trkpt lat="42.351902" lon="1.940167">
        <ele>1517.15271</ele>
        <time>2021-07-02T08:44:57Z</time>
      </trkpt>
      <trkpt lat="42.351894" lon="1.939910">
        <ele>1516.50403</ele>
        <time>2021-07-02T08:44:58Z</time>
      </trkpt>
      <trkpt lat="42.351898" lon="1.939648">
        <ele>1517.14880</ele>
        <time>2021-07-02T08:44:59Z</time>
      </trkpt>
      <trkpt lat="42.351913" lon="1.939396">
        <ele>1514.21069</ele>
        <time>2021-07-02T08:45:00Z</time>
      </trkpt>
      <trkpt lat="42.351940" lon="1.939227">
        <ele>1512.96667</ele>
        <time>2021-07-02T08:45:01Z</time>
      </trkpt>
      <trkpt lat="42.351986" lon="1.939124">
        <ele>1512.11975</ele>
        <time>2021-07-02T08:45:02Z</time>
      </trkpt>
      <trkpt lat="42.352085" lon="1.938999">
        <ele>1511.93823</ele>
        <time>2021-07-02T08:45:03Z</time>
      </trkpt>
      <trkpt lat="42.352211" lon="1.938884">
        <ele>1511.52490</ele>
        <time>2021-07-02T08:45:04Z</time>
      </trkpt>
      <trkpt lat="42.352375" lon="1.938755">
        <ele>1511.10876</ele>
        <time>2021-07-02T08:45:05Z</time>
      </trkpt>
      <trkpt lat="42.352558" lon="1.938662">
        <ele>1510.16711</ele>
        <time>2021-07-02T08:45:06Z</time>
      </trkpt>
      <trkpt lat="42.352695" lon="1.938605">
        <ele>1507.99548</ele>
        <time>2021-07-02T08:45:07Z</time>
      </trkpt>
      <trkpt lat="42.352821" lon="1.938513">
        <ele>1507.39551</ele>
        <time>2021-07-02T08:45:08Z</time>
      </trkpt>
      <trkpt lat="42.352875" lon="1.938431">
        <ele>1507.26538</ele>
        <time>2021-07-02T08:45:09Z</time>
      </trkpt>
      <trkpt lat="42.352928" lon="1.938250">
        <ele>1506.73486</ele>
        <time>2021-07-02T08:45:10Z</time>
      </trkpt>
      <trkpt lat="42.352985" lon="1.937959">
        <ele>1506.42932</ele>
        <time>2021-07-02T08:45:11Z</time>
      </trkpt>
      <trkpt lat="42.352959" lon="1.937735">
        <ele>1506.62939</ele>
        <time>2021-07-02T08:45:12Z</time>
      </trkpt>
      <trkpt lat="42.352871" lon="1.937531">
        <ele>1506.93127</ele>
        <time>2021-07-02T08:45:13Z</time>
      </trkpt>
      <trkpt lat="42.352798" lon="1.937387">
        <ele>1506.66187</ele>
        <time>2021-07-02T08:45:14Z</time>
      </trkpt>
      <trkpt lat="42.352718" lon="1.937179">
        <ele>1506.29333</ele>
        <time>2021-07-02T08:45:15Z</time>
      </trkpt>
      <trkpt lat="42.352669" lon="1.936939">
        <ele>1506.03918</ele>
        <time>2021-07-02T08:45:16Z</time>
      </trkpt>
      <trkpt lat="42.352669" lon="1.936939">
        <ele>1504.67749</ele>
        <time>2021-07-02T08:45:17Z</time>
      </trkpt>
      <trkpt lat="42.352665" lon="1.936742">
        <ele>1504.13062</ele>
        <time>2021-07-02T08:45:18Z</time>
      </trkpt>
      <trkpt lat="42.352695" lon="1.936538">
        <ele>1503.81677</ele>
        <time>2021-07-02T08:45:19Z</time>
      </trkpt>
      <trkpt lat="42.352753" lon="1.936335">
        <ele>1502.91370</ele>
        <time>2021-07-02T08:45:20Z</time>
      </trkpt>
      <trkpt lat="42.352837" lon="1.936074">
        <ele>1502.31531</ele>
        <time>2021-07-02T08:45:21Z</time>
      </trkpt>
      <trkpt lat="42.352886" lon="1.935799">
        <ele>1501.38525</ele>
        <time>2021-07-02T08:45:22Z</time>
      </trkpt>
      <trkpt lat="42.352917" lon="1.935524">
        <ele>1499.39905</ele>
        <time>2021-07-02T08:45:23Z</time>
      </trkpt>
      <trkpt lat="42.352913" lon="1.935289">
        <ele>1500.59167</ele>
        <time>2021-07-02T08:45:24Z</time>
      </trkpt>
      <trkpt lat="42.352863" lon="1.935081">
        <ele>1500.34827</ele>
        <time>2021-07-02T08:45:25Z</time>
      </trkpt>
      <trkpt lat="42.352757" lon="1.934853">
        <ele>1499.86292</ele>
        <time>2021-07-02T08:45:26Z</time>
      </trkpt>
      <trkpt lat="42.352650" lon="1.934623">
        <ele>1499.20386</ele>
        <time>2021-07-02T08:45:27Z</time>
      </trkpt>
      <trkpt lat="42.352570" lon="1.934418">
        <ele>1498.57056</ele>
        <time>2021-07-02T08:45:28Z</time>
      </trkpt>
      <trkpt lat="42.352531" lon="1.934199">
        <ele>1498.07520</ele>
        <time>2021-07-02T08:45:29Z</time>
      </trkpt>
      <trkpt lat="42.352524" lon="1.933968">
        <ele>1496.37292</ele>
        <time>2021-07-02T08:45:30Z</time>
      </trkpt>
      <trkpt lat="42.352543" lon="1.933704">
        <ele>1494.71912</ele>
        <time>2021-07-02T08:45:31Z</time>
      </trkpt>
      <trkpt lat="42.352592" lon="1.933522">
        <ele>1493.45691</ele>
        <time>2021-07-02T08:45:32Z</time>
      </trkpt>
      <trkpt lat="42.352646" lon="1.933417">
        <ele>1493.36340</ele>
        <time>2021-07-02T08:45:33Z</time>
      </trkpt>
      <trkpt lat="42.352753" lon="1.933231">
        <ele>1492.72449</ele>
        <time>2021-07-02T08:45:34Z</time>
      </trkpt>
      <trkpt lat="42.352882" lon="1.933070">
        <ele>1492.44946</ele>
        <time>2021-07-02T08:45:35Z</time>
      </trkpt>
      <trkpt lat="42.353020" lon="1.932941">
        <ele>1490.42346</ele>
        <time>2021-07-02T08:45:36Z</time>
      </trkpt>
      <trkpt lat="42.353184" lon="1.932791">
        <ele>1489.67651</ele>
        <time>2021-07-02T08:45:37Z</time>
      </trkpt>
      <trkpt lat="42.353386" lon="1.932637">
        <ele>1488.52307</ele>
        <time>2021-07-02T08:45:38Z</time>
      </trkpt>
      <trkpt lat="42.353573" lon="1.932516">
        <ele>1487.70154</ele>
        <time>2021-07-02T08:45:39Z</time>
      </trkpt>
      <trkpt lat="42.353745" lon="1.932441">
        <ele>1487.26221</ele>
        <time>2021-07-02T08:45:40Z</time>
      </trkpt>
      <trkpt lat="42.353939" lon="1.932398">
        <ele>1486.68945</ele>
        <time>2021-07-02T08:45:41Z</time>
      </trkpt>
      <trkpt lat="42.354149" lon="1.932355">
        <ele>1486.67285</ele>
        <time>2021-07-02T08:45:42Z</time>
      </trkpt>
      <trkpt lat="42.354362" lon="1.932296">
        <ele>1486.94397</ele>
        <time>2021-07-02T08:45:43Z</time>
      </trkpt>
      <trkpt lat="42.354595" lon="1.932212">
        <ele>1487.61829</ele>
        <time>2021-07-02T08:45:44Z</time>
      </trkpt>
      <trkpt lat="42.354767" lon="1.932123">
        <ele>1486.23340</ele>
        <time>2021-07-02T08:45:45Z</time>
      </trkpt>
      <trkpt lat="42.354923" lon="1.932073">
        <ele>1484.44165</ele>
        <time>2021-07-02T08:45:46Z</time>
      </trkpt>
      <trkpt lat="42.355083" lon="1.932086">
        <ele>1481.52222</ele>
        <time>2021-07-02T08:45:47Z</time>
      </trkpt>
      <trkpt lat="42.355217" lon="1.932053">
        <ele>1480.38452</ele>
        <time>2021-07-02T08:45:48Z</time>
      </trkpt>
      <trkpt lat="42.355331" lon="1.931952">
        <ele>1478.98596</ele>
        <time>2021-07-02T08:45:49Z</time>
      </trkpt>
      <trkpt lat="42.355476" lon="1.931808">
        <ele>1477.75403</ele>
        <time>2021-07-02T08:45:50Z</time>
      </trkpt>
      <trkpt lat="42.355659" lon="1.931664">
        <ele>1476.16321</ele>
        <time>2021-07-02T08:45:51Z</time>
      </trkpt>
      <trkpt lat="42.355850" lon="1.931556">
        <ele>1474.34106</ele>
        <time>2021-07-02T08:45:52Z</time>
      </trkpt>
      <trkpt lat="42.355850" lon="1.931556">
        <ele>1473.31201</ele>
        <time>2021-07-02T08:45:53Z</time>
      </trkpt>
      <trkpt lat="42.356056" lon="1.931406">
        <ele>1472.71118</ele>
        <time>2021-07-02T08:45:54Z</time>
      </trkpt>
      <trkpt lat="42.356304" lon="1.931224">
        <ele>1470.76855</ele>
        <time>2021-07-02T08:45:55Z</time>
      </trkpt>
      <trkpt lat="42.356483" lon="1.931090">
        <ele>1470.96509</ele>
        <time>2021-07-02T08:45:56Z</time>
      </trkpt>
      <trkpt lat="42.356647" lon="1.930966">
        <ele>1470.71423</ele>
        <time>2021-07-02T08:45:57Z</time>
      </trkpt>
      <trkpt lat="42.356758" lon="1.930882">
        <ele>1470.23889</ele>
        <time>2021-07-02T08:45:58Z</time>
      </trkpt>
      <trkpt lat="42.356907" lon="1.930832">
        <ele>1469.22485</ele>
        <time>2021-07-02T08:45:59Z</time>
      </trkpt>
      <trkpt lat="42.357067" lon="1.930777">
        <ele>1468.97034</ele>
        <time>2021-07-02T08:46:00Z</time>
      </trkpt>
      <trkpt lat="42.357204" lon="1.930736">
        <ele>1466.65198</ele>
        <time>2021-07-02T08:46:01Z</time>
      </trkpt>
      <trkpt lat="42.357330" lon="1.930776">
        <ele>1467.71179</ele>
        <time>2021-07-02T08:46:02Z</time>
      </trkpt>
      <trkpt lat="42.357433" lon="1.930901">
        <ele>1467.47852</ele>
        <time>2021-07-02T08:46:03Z</time>
      </trkpt>
      <trkpt lat="42.357521" lon="1.930956">
        <ele>1467.56738</ele>
        <time>2021-07-02T08:46:04Z</time>
      </trkpt>
      <trkpt lat="42.357609" lon="1.930947">
        <ele>1468.06067</ele>
        <time>2021-07-02T08:46:05Z</time>
      </trkpt>
      <trkpt lat="42.357693" lon="1.930845">
        <ele>1468.42737</ele>
        <time>2021-07-02T08:46:06Z</time>
      </trkpt>
      <trkpt lat="42.357716" lon="1.930786">
        <ele>1469.21265</ele>
        <time>2021-07-02T08:46:07Z</time>
      </trkpt>
      <trkpt lat="42.357731" lon="1.930727">
        <ele>1468.37329</ele>
        <time>2021-07-02T08:46:08Z</time>
      </trkpt>
      <trkpt lat="42.357765" lon="1.930604">
        <ele>1468.09460</ele>
        <time>2021-07-02T08:46:09Z</time>
      </trkpt>
      <trkpt lat="42.357815" lon="1.930441">
        <ele>1467.55408</ele>
        <time>2021-07-02T08:46:10Z</time>
      </trkpt>
      <trkpt lat="42.357925" lon="1.930164">
        <ele>1466.91565</ele>
        <time>2021-07-02T08:46:11Z</time>
      </trkpt>
      <trkpt lat="42.358013" lon="1.930071">
        <ele>1465.94714</ele>
        <time>2021-07-02T08:46:12Z</time>
      </trkpt>
      <trkpt lat="42.358204" lon="1.929954">
        <ele>1465.14294</ele>
        <time>2021-07-02T08:46:13Z</time>
      </trkpt>
      <trkpt lat="42.358452" lon="1.929802">
        <ele>1464.67651</ele>
        <time>2021-07-02T08:46:14Z</time>
      </trkpt>
      <trkpt lat="42.358585" lon="1.929717">
        <ele>1463.89246</ele>
        <time>2021-07-02T08:46:15Z</time>
      </trkpt>
      <trkpt lat="42.358723" lon="1.929617">
        <ele>1463.27930</ele>
        <time>2021-07-02T08:46:16Z</time>
      </trkpt>
      <trkpt lat="42.358784" lon="1.929526">
        <ele>1461.97925</ele>
        <time>2021-07-02T08:46:17Z</time>
      </trkpt>
      <trkpt lat="42.358818" lon="1.929349">
        <ele>1460.99866</ele>
        <time>2021-07-02T08:46:18Z</time>
      </trkpt>
      <trkpt lat="42.358829" lon="1.929222">
        <ele>1461.62964</ele>
        <time>2021-07-02T08:46:19Z</time>
      </trkpt>
      <trkpt lat="42.358829" lon="1.928971">
        <ele>1462.82910</ele>
        <time>2021-07-02T08:46:20Z</time>
      </trkpt>
      <trkpt lat="42.358810" lon="1.928621">
        <ele>1459.91260</ele>
        <time>2021-07-02T08:46:21Z</time>
      </trkpt>
      <trkpt lat="42.358810" lon="1.928307">
        <ele>1459.53625</ele>
        <time>2021-07-02T08:46:22Z</time>
      </trkpt>
      <trkpt lat="42.358883" lon="1.928112">
        <ele>1455.91589</ele>
        <time>2021-07-02T08:46:23Z</time>
      </trkpt>
      <trkpt lat="42.358963" lon="1.927937">
        <ele>1456.71985</ele>
        <time>2021-07-02T08:46:24Z</time>
      </trkpt>
      <trkpt lat="42.359013" lon="1.927834">
        <ele>1457.16174</ele>
        <time>2021-07-02T08:46:25Z</time>
      </trkpt>
      <trkpt lat="42.359123" lon="1.927612">
        <ele>1456.86499</ele>
        <time>2021-07-02T08:46:26Z</time>
      </trkpt>
      <trkpt lat="42.359123" lon="1.927612">
        <ele>1456.35559</ele>
        <time>2021-07-02T08:46:27Z</time>
      </trkpt>
      <trkpt lat="42.359261" lon="1.927412">
        <ele>1456.12219</ele>
        <time>2021-07-02T08:46:28Z</time>
      </trkpt>
      <trkpt lat="42.359383" lon="1.927330">
        <ele>1456.91553</ele>
        <time>2021-07-02T08:46:29Z</time>
      </trkpt>
      <trkpt lat="42.359493" lon="1.927269">
        <ele>1457.45972</ele>
        <time>2021-07-02T08:46:30Z</time>
      </trkpt>
      <trkpt lat="42.359619" lon="1.927199">
        <ele>1455.30579</ele>
        <time>2021-07-02T08:46:31Z</time>
      </trkpt>
      <trkpt lat="42.359818" lon="1.927088">
        <ele>1454.77686</ele>
        <time>2021-07-02T08:46:32Z</time>
      </trkpt>
      <trkpt lat="42.360027" lon="1.926981">
        <ele>1454.17017</ele>
        <time>2021-07-02T08:46:33Z</time>
      </trkpt>
      <trkpt lat="42.360203" lon="1.926939">
        <ele>1454.55920</ele>
        <time>2021-07-02T08:46:34Z</time>
      </trkpt>
      <trkpt lat="42.360374" lon="1.926922">
        <ele>1454.97168</ele>
        <time>2021-07-02T08:46:35Z</time>
      </trkpt>
      <trkpt lat="42.360535" lon="1.926862">
        <ele>1455.54736</ele>
        <time>2021-07-02T08:46:36Z</time>
      </trkpt>
      <trkpt lat="42.360672" lon="1.926741">
        <ele>1454.19641</ele>
        <time>2021-07-02T08:46:37Z</time>
      </trkpt>
      <trkpt lat="42.360752" lon="1.926594">
        <ele>1453.85706</ele>
        <time>2021-07-02T08:46:38Z</time>
      </trkpt>
      <trkpt lat="42.360783" lon="1.926422">
        <ele>1453.56580</ele>
        <time>2021-07-02T08:46:39Z</time>
      </trkpt>
      <trkpt lat="42.360798" lon="1.926289">
        <ele>1452.36560</ele>
        <time>2021-07-02T08:46:40Z</time>
      </trkpt>
      <trkpt lat="42.360836" lon="1.926101">
        <ele>1452.04224</ele>
        <time>2021-07-02T08:46:41Z</time>
      </trkpt>
      <trkpt lat="42.360928" lon="1.925990">
        <ele>1448.00745</ele>
        <time>2021-07-02T08:46:42Z</time>
      </trkpt>
      <trkpt lat="42.361031" lon="1.925945">
        <ele>1447.89819</ele>
        <time>2021-07-02T08:46:43Z</time>
      </trkpt>
      <trkpt lat="42.361176" lon="1.925907">
        <ele>1447.62646</ele>
        <time>2021-07-02T08:46:44Z</time>
      </trkpt>
      <trkpt lat="42.361305" lon="1.925871">
        <ele>1446.99268</ele>
        <time>2021-07-02T08:46:45Z</time>
      </trkpt>
      <trkpt lat="42.361427" lon="1.925784">
        <ele>1447.07764</ele>
        <time>2021-07-02T08:46:46Z</time>
      </trkpt>
      <trkpt lat="42.361477" lon="1.925658">
        <ele>1445.59106</ele>
        <time>2021-07-02T08:46:47Z</time>
      </trkpt>
      <trkpt lat="42.361485" lon="1.925552">
        <ele>1443.42358</ele>
        <time>2021-07-02T08:46:48Z</time>
      </trkpt>
      <trkpt lat="42.361423" lon="1.925393">
        <ele>1442.90894</ele>
        <time>2021-07-02T08:46:49Z</time>
      </trkpt>
      <trkpt lat="42.361378" lon="1.925261">
        <ele>1441.31030</ele>
        <time>2021-07-02T08:46:50Z</time>
      </trkpt>
      <trkpt lat="42.361290" lon="1.925032">
        <ele>1440.16309</ele>
        <time>2021-07-02T08:46:51Z</time>
      </trkpt>
      <trkpt lat="42.361183" lon="1.924724">
        <ele>1439.51660</ele>
        <time>2021-07-02T08:46:52Z</time>
      </trkpt>
      <trkpt lat="42.361115" lon="1.924531">
        <ele>1437.75305</ele>
        <time>2021-07-02T08:46:53Z</time>
      </trkpt>
      <trkpt lat="42.361050" lon="1.924339">
        <ele>1437.69458</ele>
        <time>2021-07-02T08:46:54Z</time>
      </trkpt>
      <trkpt lat="42.361012" lon="1.924184">
        <ele>1437.13623</ele>
        <time>2021-07-02T08:46:55Z</time>
      </trkpt>
      <trkpt lat="42.361034" lon="1.924021">
        <ele>1435.75574</ele>
        <time>2021-07-02T08:46:56Z</time>
      </trkpt>
      <trkpt lat="42.361034" lon="1.924021">
        <ele>1435.61182</ele>
        <time>2021-07-02T08:46:57Z</time>
      </trkpt>
      <trkpt lat="42.361168" lon="1.923834">
        <ele>1435.73828</ele>
        <time>2021-07-02T08:46:58Z</time>
      </trkpt>
      <trkpt lat="42.361168" lon="1.923834">
        <ele>1435.04517</ele>
        <time>2021-07-02T08:46:59Z</time>
      </trkpt>
      <trkpt lat="42.361221" lon="1.923776">
        <ele>1434.74805</ele>
        <time>2021-07-02T08:47:00Z</time>
      </trkpt>
      <trkpt lat="42.361359" lon="1.923629">
        <ele>1435.00610</ele>
        <time>2021-07-02T08:47:01Z</time>
      </trkpt>
      <trkpt lat="42.361565" lon="1.923404">
        <ele>1434.27478</ele>
        <time>2021-07-02T08:47:02Z</time>
      </trkpt>
      <trkpt lat="42.361740" lon="1.923169">
        <ele>1433.94043</ele>
        <time>2021-07-02T08:47:03Z</time>
      </trkpt>
      <trkpt lat="42.361862" lon="1.922879">
        <ele>1432.11609</ele>
        <time>2021-07-02T08:47:04Z</time>
      </trkpt>
      <trkpt lat="42.361935" lon="1.922649">
        <ele>1433.34937</ele>
        <time>2021-07-02T08:47:05Z</time>
      </trkpt>
      <trkpt lat="42.362019" lon="1.922508">
        <ele>1433.13318</ele>
        <time>2021-07-02T08:47:06Z</time>
      </trkpt>
      <trkpt lat="42.362141" lon="1.922408">
        <ele>1429.19165</ele>
        <time>2021-07-02T08:47:07Z</time>
      </trkpt>
      <trkpt lat="42.362286" lon="1.922345">
        <ele>1429.31995</ele>
        <time>2021-07-02T08:47:08Z</time>
      </trkpt>
      <trkpt lat="42.362427" lon="1.922324">
        <ele>1429.74768</ele>
        <time>2021-07-02T08:47:09Z</time>
      </trkpt>
      <trkpt lat="42.362583" lon="1.922302">
        <ele>1431.15637</ele>
        <time>2021-07-02T08:47:10Z</time>
      </trkpt>
      <trkpt lat="42.362724" lon="1.922276">
        <ele>1431.24524</ele>
        <time>2021-07-02T08:47:11Z</time>
      </trkpt>
      <trkpt lat="42.362823" lon="1.922229">
        <ele>1430.83496</ele>
        <time>2021-07-02T08:47:12Z</time>
      </trkpt>
      <trkpt lat="42.362915" lon="1.922039">
        <ele>1431.17969</ele>
        <time>2021-07-02T08:47:13Z</time>
      </trkpt>
      <trkpt lat="42.362949" lon="1.921875">
        <ele>1429.04980</ele>
        <time>2021-07-02T08:47:14Z</time>
      </trkpt>
      <trkpt lat="42.363037" lon="1.921475">
        <ele>1427.32007</ele>
        <time>2021-07-02T08:47:15Z</time>
      </trkpt>
      <trkpt lat="42.363132" lon="1.921226">
        <ele>1425.19568</ele>
        <time>2021-07-02T08:47:16Z</time>
      </trkpt>
      <trkpt lat="42.363205" lon="1.921008">
        <ele>1425.60291</ele>
        <time>2021-07-02T08:47:17Z</time>
      </trkpt>
      <trkpt lat="42.363201" lon="1.920786">
        <ele>1422.81396</ele>
        <time>2021-07-02T08:47:18Z</time>
      </trkpt>
      <trkpt lat="42.363182" lon="1.920599">
        <ele>1420.67078</ele>
        <time>2021-07-02T08:47:19Z</time>
      </trkpt>
      <trkpt lat="42.363167" lon="1.920462">
        <ele>1421.12781</ele>
        <time>2021-07-02T08:47:20Z</time>
      </trkpt>
      <trkpt lat="42.363186" lon="1.920300">
        <ele>1421.13940</ele>
        <time>2021-07-02T08:47:21Z</time>
      </trkpt>
      <trkpt lat="42.363213" lon="1.920171">
        <ele>1418.81665</ele>
        <time>2021-07-02T08:47:22Z</time>
      </trkpt>
      <trkpt lat="42.363266" lon="1.920034">
        <ele>1419.68945</ele>
        <time>2021-07-02T08:47:23Z</time>
      </trkpt>
      <trkpt lat="42.363388" lon="1.919930">
        <ele>1418.04517</ele>
        <time>2021-07-02T08:47:24Z</time>
      </trkpt>
      <trkpt lat="42.363510" lon="1.919880">
        <ele>1418.07092</ele>
        <time>2021-07-02T08:47:25Z</time>
      </trkpt>
      <trkpt lat="42.363689" lon="1.919791">
        <ele>1418.26233</ele>
        <time>2021-07-02T08:47:26Z</time>
      </trkpt>
      <trkpt lat="42.363857" lon="1.919661">
        <ele>1418.02490</ele>
        <time>2021-07-02T08:47:27Z</time>
      </trkpt>
      <trkpt lat="42.364037" lon="1.919544">
        <ele>1417.28223</ele>
        <time>2021-07-02T08:47:28Z</time>
      </trkpt>
      <trkpt lat="42.364189" lon="1.919446">
        <ele>1415.21863</ele>
        <time>2021-07-02T08:47:29Z</time>
      </trkpt>
      <trkpt lat="42.364349" lon="1.919333">
        <ele>1415.28796</ele>
        <time>2021-07-02T08:47:30Z</time>
      </trkpt>
      <trkpt lat="42.364475" lon="1.919232">
        <ele>1415.63696</ele>
        <time>2021-07-02T08:47:31Z</time>
      </trkpt>
      <trkpt lat="42.364552" lon="1.919112">
        <ele>1413.99951</ele>
        <time>2021-07-02T08:47:32Z</time>
      </trkpt>
      <trkpt lat="42.364605" lon="1.918996">
        <ele>1413.74927</ele>
        <time>2021-07-02T08:47:33Z</time>
      </trkpt>
      <trkpt lat="42.364605" lon="1.918996">
        <ele>1413.74036</ele>
        <time>2021-07-02T08:47:34Z</time>
      </trkpt>
      <trkpt lat="42.364609" lon="1.918729">
        <ele>1411.59229</ele>
        <time>2021-07-02T08:47:35Z</time>
      </trkpt>
      <trkpt lat="42.364609" lon="1.918729">
        <ele>1411.18188</ele>
        <time>2021-07-02T08:47:36Z</time>
      </trkpt>
      <trkpt lat="42.364594" lon="1.918602">
        <ele>1411.33984</ele>
        <time>2021-07-02T08:47:37Z</time>
      </trkpt>
      <trkpt lat="42.364571" lon="1.918443">
        <ele>1410.74426</ele>
        <time>2021-07-02T08:47:38Z</time>
      </trkpt>
      <trkpt lat="42.364548" lon="1.918272">
        <ele>1410.56775</ele>
        <time>2021-07-02T08:47:39Z</time>
      </trkpt>
      <trkpt lat="42.364540" lon="1.918144">
        <ele>1409.88342</ele>
        <time>2021-07-02T08:47:40Z</time>
      </trkpt>
      <trkpt lat="42.364574" lon="1.918012">
        <ele>1408.44885</ele>
        <time>2021-07-02T08:47:41Z</time>
      </trkpt>
      <trkpt lat="42.364628" lon="1.917907">
        <ele>1407.84607</ele>
        <time>2021-07-02T08:47:42Z</time>
      </trkpt>
      <trkpt lat="42.364700" lon="1.917751">
        <ele>1408.13513</ele>
        <time>2021-07-02T08:47:43Z</time>
      </trkpt>
      <trkpt lat="42.364723" lon="1.917600">
        <ele>1407.52124</ele>
        <time>2021-07-02T08:47:44Z</time>
      </trkpt>
      <trkpt lat="42.364674" lon="1.917441">
        <ele>1406.92273</ele>
        <time>2021-07-02T08:47:45Z</time>
      </trkpt>
      <trkpt lat="42.364616" lon="1.917292">
        <ele>1404.93787</ele>
        <time>2021-07-02T08:47:46Z</time>
      </trkpt>
      <trkpt lat="42.364563" lon="1.917150">
        <ele>1403.87781</ele>
        <time>2021-07-02T08:47:47Z</time>
      </trkpt>
      <trkpt lat="42.364445" lon="1.916779">
        <ele>1401.84729</ele>
        <time>2021-07-02T08:47:48Z</time>
      </trkpt>
      <trkpt lat="42.364414" lon="1.916511">
        <ele>1401.67078</ele>
        <time>2021-07-02T08:47:49Z</time>
      </trkpt>
      <trkpt lat="42.364418" lon="1.916307">
        <ele>1402.18530</ele>
        <time>2021-07-02T08:47:50Z</time>
      </trkpt>
      <trkpt lat="42.364445" lon="1.916123">
        <ele>1401.62817</ele>
        <time>2021-07-02T08:47:51Z</time>
      </trkpt>
      <trkpt lat="42.364506" lon="1.915902">
        <ele>1399.42151</ele>
        <time>2021-07-02T08:47:52Z</time>
      </trkpt>
      <trkpt lat="42.364601" lon="1.915736">
        <ele>1399.32825</ele>
        <time>2021-07-02T08:47:53Z</time>
      </trkpt>
      <trkpt lat="42.364716" lon="1.915580">
        <ele>1397.71008</ele>
        <time>2021-07-02T08:47:54Z</time>
      </trkpt>
      <trkpt lat="42.364822" lon="1.915452">
        <ele>1397.76465</ele>
        <time>2021-07-02T08:47:55Z</time>
      </trkpt>
      <trkpt lat="42.365025" lon="1.915216">
        <ele>1394.23157</ele>
        <time>2021-07-02T08:47:56Z</time>
      </trkpt>
      <trkpt lat="42.365150" lon="1.915086">
        <ele>1393.71106</ele>
        <time>2021-07-02T08:47:57Z</time>
      </trkpt>
      <trkpt lat="42.365311" lon="1.914960">
        <ele>1392.47412</ele>
        <time>2021-07-02T08:47:58Z</time>
      </trkpt>
      <trkpt lat="42.365501" lon="1.914838">
        <ele>1392.71155</ele>
        <time>2021-07-02T08:47:59Z</time>
      </trkpt>
      <trkpt lat="42.365696" lon="1.914731">
        <ele>1388.30640</ele>
        <time>2021-07-02T08:48:00Z</time>
      </trkpt>
      <trkpt lat="42.365883" lon="1.914664">
        <ele>1387.43311</ele>
        <time>2021-07-02T08:48:01Z</time>
      </trkpt>
      <trkpt lat="42.366032" lon="1.914613">
        <ele>1386.38684</ele>
        <time>2021-07-02T08:48:02Z</time>
      </trkpt>
      <trkpt lat="42.366165" lon="1.914554">
        <ele>1385.29810</ele>
        <time>2021-07-02T08:48:03Z</time>
      </trkpt>
      <trkpt lat="42.366299" lon="1.914441">
        <ele>1385.77722</ele>
        <time>2021-07-02T08:48:04Z</time>
      </trkpt>
      <trkpt lat="42.366299" lon="1.914441">
        <ele>1385.01709</ele>
        <time>2021-07-02T08:48:05Z</time>
      </trkpt>
      <trkpt lat="42.366383" lon="1.914278">
        <ele>1387.02686</ele>
        <time>2021-07-02T08:48:06Z</time>
      </trkpt>
      <trkpt lat="42.366405" lon="1.914141">
        <ele>1385.94409</ele>
        <time>2021-07-02T08:48:07Z</time>
      </trkpt>
      <trkpt lat="42.366405" lon="1.913917">
        <ele>1384.32275</ele>
        <time>2021-07-02T08:48:08Z</time>
      </trkpt>
      <trkpt lat="42.366459" lon="1.913634">
        <ele>1382.96313</ele>
        <time>2021-07-02T08:48:09Z</time>
      </trkpt>
      <trkpt lat="42.366520" lon="1.913404">
        <ele>1380.73303</ele>
        <time>2021-07-02T08:48:10Z</time>
      </trkpt>
      <trkpt lat="42.366596" lon="1.913119">
        <ele>1380.20520</ele>
        <time>2021-07-02T08:48:11Z</time>
      </trkpt>
      <trkpt lat="42.366657" lon="1.912832">
        <ele>1379.91980</ele>
        <time>2021-07-02T08:48:12Z</time>
      </trkpt>
      <trkpt lat="42.366714" lon="1.912581">
        <ele>1376.99231</ele>
        <time>2021-07-02T08:48:13Z</time>
      </trkpt>
      <trkpt lat="42.366768" lon="1.912358">
        <ele>1376.10071</ele>
        <time>2021-07-02T08:48:14Z</time>
      </trkpt>
      <trkpt lat="42.366844" lon="1.912178">
        <ele>1375.45764</ele>
        <time>2021-07-02T08:48:15Z</time>
      </trkpt>
      <trkpt lat="42.366959" lon="1.912031">
        <ele>1374.57812</ele>
        <time>2021-07-02T08:48:16Z</time>
      </trkpt>
      <trkpt lat="42.367104" lon="1.911843">
        <ele>1373.94385</ele>
        <time>2021-07-02T08:48:17Z</time>
      </trkpt>
      <trkpt lat="42.367268" lon="1.911631">
        <ele>1373.80945</ele>
        <time>2021-07-02T08:48:18Z</time>
      </trkpt>
      <trkpt lat="42.367401" lon="1.911457">
        <ele>1374.36768</ele>
        <time>2021-07-02T08:48:19Z</time>
      </trkpt>
      <trkpt lat="42.367542" lon="1.911294">
        <ele>1374.33276</ele>
        <time>2021-07-02T08:48:20Z</time>
      </trkpt>
      <trkpt lat="42.367695" lon="1.911152">
        <ele>1372.15576</ele>
        <time>2021-07-02T08:48:21Z</time>
      </trkpt>
      <trkpt lat="42.367863" lon="1.911048">
        <ele>1370.30640</ele>
        <time>2021-07-02T08:48:22Z</time>
      </trkpt>
      <trkpt lat="42.368050" lon="1.910938">
        <ele>1367.74902</ele>
        <time>2021-07-02T08:48:23Z</time>
      </trkpt>
      <trkpt lat="42.368286" lon="1.910790">
        <ele>1366.91321</ele>
        <time>2021-07-02T08:48:24Z</time>
      </trkpt>
      <trkpt lat="42.368435" lon="1.910656">
        <ele>1364.21924</ele>
        <time>2021-07-02T08:48:25Z</time>
      </trkpt>
      <trkpt lat="42.368607" lon="1.910494">
        <ele>1362.51624</ele>
        <time>2021-07-02T08:48:26Z</time>
      </trkpt>
      <trkpt lat="42.368763" lon="1.910363">
        <ele>1360.07434</ele>
        <time>2021-07-02T08:48:27Z</time>
      </trkpt>
      <trkpt lat="42.368938" lon="1.910246">
        <ele>1359.24927</ele>
        <time>2021-07-02T08:48:28Z</time>
      </trkpt>
      <trkpt lat="42.369110" lon="1.910173">
        <ele>1359.26929</ele>
        <time>2021-07-02T08:48:29Z</time>
      </trkpt>
      <trkpt lat="42.369259" lon="1.910097">
        <ele>1358.43213</ele>
        <time>2021-07-02T08:48:30Z</time>
      </trkpt>
      <trkpt lat="42.369385" lon="1.909996">
        <ele>1358.49756</ele>
        <time>2021-07-02T08:48:31Z</time>
      </trkpt>
      <trkpt lat="42.369495" lon="1.909813">
        <ele>1358.05432</ele>
        <time>2021-07-02T08:48:32Z</time>
      </trkpt>
      <trkpt lat="42.369598" lon="1.909627">
        <ele>1357.68396</ele>
        <time>2021-07-02T08:48:33Z</time>
      </trkpt>
      <trkpt lat="42.369759" lon="1.909279">
        <ele>1356.66162</ele>
        <time>2021-07-02T08:48:34Z</time>
      </trkpt>
      <trkpt lat="42.369831" lon="1.909030">
        <ele>1354.80945</ele>
        <time>2021-07-02T08:48:35Z</time>
      </trkpt>
      <trkpt lat="42.369946" lon="1.908655">
        <ele>1354.36694</ele>
        <time>2021-07-02T08:48:36Z</time>
      </trkpt>
      <trkpt lat="42.370010" lon="1.908435">
        <ele>1353.30188</ele>
        <time>2021-07-02T08:48:37Z</time>
      </trkpt>
      <trkpt lat="42.370083" lon="1.908206">
        <ele>1352.87854</ele>
        <time>2021-07-02T08:48:38Z</time>
      </trkpt>
      <trkpt lat="42.370083" lon="1.908206">
        <ele>1352.11719</ele>
        <time>2021-07-02T08:48:39Z</time>
      </trkpt>
      <trkpt lat="42.370155" lon="1.907989">
        <ele>1351.94189</ele>
        <time>2021-07-02T08:48:40Z</time>
      </trkpt>
      <trkpt lat="42.370220" lon="1.907821">
        <ele>1352.37646</ele>
        <time>2021-07-02T08:48:41Z</time>
      </trkpt>
      <trkpt lat="42.370319" lon="1.907697">
        <ele>1352.59363</ele>
        <time>2021-07-02T08:48:42Z</time>
      </trkpt>
      <trkpt lat="42.370422" lon="1.907668">
        <ele>1352.68567</ele>
        <time>2021-07-02T08:48:43Z</time>
      </trkpt>
      <trkpt lat="42.370499" lon="1.907694">
        <ele>1350.98242</ele>
        <time>2021-07-02T08:48:44Z</time>
      </trkpt>
      <trkpt lat="42.370560" lon="1.907742">
        <ele>1349.95032</ele>
        <time>2021-07-02T08:48:45Z</time>
      </trkpt>
      <trkpt lat="42.370632" lon="1.907816">
        <ele>1349.94067</ele>
        <time>2021-07-02T08:48:46Z</time>
      </trkpt>
      <trkpt lat="42.370735" lon="1.907931">
        <ele>1348.98499</ele>
        <time>2021-07-02T08:48:47Z</time>
      </trkpt>
      <trkpt lat="42.371002" lon="1.908227">
        <ele>1346.76843</ele>
        <time>2021-07-02T08:48:48Z</time>
      </trkpt>
      <trkpt lat="42.371166" lon="1.908460">
        <ele>1345.46545</ele>
        <time>2021-07-02T08:48:49Z</time>
      </trkpt>
      <trkpt lat="42.371284" lon="1.908659">
        <ele>1345.15564</ele>
        <time>2021-07-02T08:48:50Z</time>
      </trkpt>
      <trkpt lat="42.371391" lon="1.908851">
        <ele>1345.57141</ele>
        <time>2021-07-02T08:48:51Z</time>
      </trkpt>
      <trkpt lat="42.371471" lon="1.908974">
        <ele>1344.31946</ele>
        <time>2021-07-02T08:48:52Z</time>
      </trkpt>
      <trkpt lat="42.371529" lon="1.909032">
        <ele>1344.13586</ele>
        <time>2021-07-02T08:48:53Z</time>
      </trkpt>
      <trkpt lat="42.371620" lon="1.909053">
        <ele>1343.50732</ele>
        <time>2021-07-02T08:48:54Z</time>
      </trkpt>
      <trkpt lat="42.371708" lon="1.909021">
        <ele>1343.42065</ele>
        <time>2021-07-02T08:48:55Z</time>
      </trkpt>
      <trkpt lat="42.371746" lon="1.908987">
        <ele>1342.35840</ele>
        <time>2021-07-02T08:48:56Z</time>
      </trkpt>
      <trkpt lat="42.371811" lon="1.908874">
        <ele>1341.12122</ele>
        <time>2021-07-02T08:48:57Z</time>
      </trkpt>
      <trkpt lat="42.371864" lon="1.908719">
        <ele>1339.67554</ele>
        <time>2021-07-02T08:48:58Z</time>
      </trkpt>
      <trkpt lat="42.371975" lon="1.908292">
        <ele>1340.40955</ele>
        <time>2021-07-02T08:48:59Z</time>
      </trkpt>
      <trkpt lat="42.372028" lon="1.908075">
        <ele>1338.72424</ele>
        <time>2021-07-02T08:49:00Z</time>
      </trkpt>
      <trkpt lat="42.372082" lon="1.907857">
        <ele>1336.92224</ele>
        <time>2021-07-02T08:49:01Z</time>
      </trkpt>
      <trkpt lat="42.372150" lon="1.907602">
        <ele>1337.06470</ele>
        <time>2021-07-02T08:49:02Z</time>
      </trkpt>
      <trkpt lat="42.372238" lon="1.907419">
        <ele>1336.09998</ele>
        <time>2021-07-02T08:49:03Z</time>
      </trkpt>
      <trkpt lat="42.372353" lon="1.907253">
        <ele>1336.13770</ele>
        <time>2021-07-02T08:49:04Z</time>
      </trkpt>
      <trkpt lat="42.372421" lon="1.907052">
        <ele>1335.09900</ele>
        <time>2021-07-02T08:49:05Z</time>
      </trkpt>
      <trkpt lat="42.372406" lon="1.906887">
        <ele>1334.96875</ele>
        <time>2021-07-02T08:49:06Z</time>
      </trkpt>
      <trkpt lat="42.372406" lon="1.906887">
        <ele>1334.12476</ele>
        <time>2021-07-02T08:49:07Z</time>
      </trkpt>
      <trkpt lat="42.372391" lon="1.906765">
        <ele>1333.01904</ele>
        <time>2021-07-02T08:49:08Z</time>
      </trkpt>
      <trkpt lat="42.372368" lon="1.906508">
        <ele>1332.29736</ele>
        <time>2021-07-02T08:49:09Z</time>
      </trkpt>
      <trkpt lat="42.372387" lon="1.906295">
        <ele>1330.32385</ele>
        <time>2021-07-02T08:49:10Z</time>
      </trkpt>
      <trkpt lat="42.372440" lon="1.906083">
        <ele>1330.24011</ele>
        <time>2021-07-02T08:49:11Z</time>
      </trkpt>
      <trkpt lat="42.372513" lon="1.905892">
        <ele>1329.23572</ele>
        <time>2021-07-02T08:49:12Z</time>
      </trkpt>
      <trkpt lat="42.372597" lon="1.905749">
        <ele>1329.29858</ele>
        <time>2021-07-02T08:49:13Z</time>
      </trkpt>
      <trkpt lat="42.372700" lon="1.905675">
        <ele>1331.31494</ele>
        <time>2021-07-02T08:49:14Z</time>
      </trkpt>
      <trkpt lat="42.372799" lon="1.905647">
        <ele>1328.08728</ele>
        <time>2021-07-02T08:49:15Z</time>
      </trkpt>
      <trkpt lat="42.372871" lon="1.905630">
        <ele>1327.51245</ele>
        <time>2021-07-02T08:49:16Z</time>
      </trkpt>
      <trkpt lat="42.373085" lon="1.905597">
        <ele>1323.89355</ele>
        <time>2021-07-02T08:49:17Z</time>
      </trkpt>
      <trkpt lat="42.373272" lon="1.905572">
        <ele>1323.49072</ele>
        <time>2021-07-02T08:49:18Z</time>
      </trkpt>
      <trkpt lat="42.373478" lon="1.905574">
        <ele>1322.82410</ele>
        <time>2021-07-02T08:49:19Z</time>
      </trkpt>
      <trkpt lat="42.373669" lon="1.905599">
        <ele>1321.48706</ele>
        <time>2021-07-02T08:49:20Z</time>
      </trkpt>
      <trkpt lat="42.373821" lon="1.905619">
        <ele>1322.56250</ele>
        <time>2021-07-02T08:49:21Z</time>
      </trkpt>
      <trkpt lat="42.373970" lon="1.905623">
        <ele>1321.38416</ele>
        <time>2021-07-02T08:49:22Z</time>
      </trkpt>
      <trkpt lat="42.374134" lon="1.905590">
        <ele>1320.08447</ele>
        <time>2021-07-02T08:49:23Z</time>
      </trkpt>
      <trkpt lat="42.374287" lon="1.905501">
        <ele>1319.93469</ele>
        <time>2021-07-02T08:49:24Z</time>
      </trkpt>
      <trkpt lat="42.374439" lon="1.905393">
        <ele>1320.03809</ele>
        <time>2021-07-02T08:49:25Z</time>
      </trkpt>
      <trkpt lat="42.374538" lon="1.905223">
        <ele>1319.39832</ele>
        <time>2021-07-02T08:49:26Z</time>
      </trkpt>
      <trkpt lat="42.374557" lon="1.905085">
        <ele>1318.58618</ele>
        <time>2021-07-02T08:49:27Z</time>
      </trkpt>
      <trkpt lat="42.374588" lon="1.904896">
        <ele>1317.80347</ele>
        <time>2021-07-02T08:49:28Z</time>
      </trkpt>
      <trkpt lat="42.374641" lon="1.904696">
        <ele>1320.46289</ele>
        <time>2021-07-02T08:49:29Z</time>
      </trkpt>
      <trkpt lat="42.374664" lon="1.904527">
        <ele>1319.18677</ele>
        <time>2021-07-02T08:49:30Z</time>
      </trkpt>
      <trkpt lat="42.374645" lon="1.904248">
        <ele>1318.70105</ele>
        <time>2021-07-02T08:49:31Z</time>
      </trkpt>
      <trkpt lat="42.374641" lon="1.904014">
        <ele>1315.55359</ele>
        <time>2021-07-02T08:49:32Z</time>
      </trkpt>
      <trkpt lat="42.374653" lon="1.903812">
        <ele>1315.69385</ele>
        <time>2021-07-02T08:49:33Z</time>
      </trkpt>
      <trkpt lat="42.374634" lon="1.903613">
        <ele>1315.13806</ele>
        <time>2021-07-02T08:49:34Z</time>
      </trkpt>
      <trkpt lat="42.374561" lon="1.903519">
        <ele>1313.32654</ele>
        <time>2021-07-02T08:49:35Z</time>
      </trkpt>
      <trkpt lat="42.374458" lon="1.903393">
        <ele>1312.45459</ele>
        <time>2021-07-02T08:49:36Z</time>
      </trkpt>
      <trkpt lat="42.374298" lon="1.903185">
        <ele>1311.57239</ele>
        <time>2021-07-02T08:49:37Z</time>
      </trkpt>
      <trkpt lat="42.374199" lon="1.903050">
        <ele>1308.61157</ele>
        <time>2021-07-02T08:49:38Z</time>
      </trkpt>
      <trkpt lat="42.374016" lon="1.902799">
        <ele>1307.18311</ele>
        <time>2021-07-02T08:49:39Z</time>
      </trkpt>
      <trkpt lat="42.373905" lon="1.902632">
        <ele>1306.40076</ele>
        <time>2021-07-02T08:49:40Z</time>
      </trkpt>
      <trkpt lat="42.373810" lon="1.902429">
        <ele>1306.41113</ele>
        <time>2021-07-02T08:49:41Z</time>
      </trkpt>
      <trkpt lat="42.373749" lon="1.902240">
        <ele>1305.96924</ele>
        <time>2021-07-02T08:49:42Z</time>
      </trkpt>
      <trkpt lat="42.373734" lon="1.902106">
        <ele>1305.56274</ele>
        <time>2021-07-02T08:49:43Z</time>
      </trkpt>
      <trkpt lat="42.373749" lon="1.901937">
        <ele>1305.38501</ele>
        <time>2021-07-02T08:49:44Z</time>
      </trkpt>
      <trkpt lat="42.373795" lon="1.901774">
        <ele>1305.01624</ele>
        <time>2021-07-02T08:49:45Z</time>
      </trkpt>
      <trkpt lat="42.373795" lon="1.901774">
        <ele>1302.82581</ele>
        <time>2021-07-02T08:49:46Z</time>
      </trkpt>
      <trkpt lat="42.373875" lon="1.901606">
        <ele>1301.65479</ele>
        <time>2021-07-02T08:49:47Z</time>
      </trkpt>
      <trkpt lat="42.374004" lon="1.901382">
        <ele>1301.30908</ele>
        <time>2021-07-02T08:49:48Z</time>
      </trkpt>
      <trkpt lat="42.374184" lon="1.901159">
        <ele>1301.21936</ele>
        <time>2021-07-02T08:49:49Z</time>
      </trkpt>
      <trkpt lat="42.374348" lon="1.900983">
        <ele>1299.12329</ele>
        <time>2021-07-02T08:49:50Z</time>
      </trkpt>
      <trkpt lat="42.374504" lon="1.900817">
        <ele>1298.25415</ele>
        <time>2021-07-02T08:49:51Z</time>
      </trkpt>
      <trkpt lat="42.374676" lon="1.900663">
        <ele>1296.65588</ele>
        <time>2021-07-02T08:49:52Z</time>
      </trkpt>
      <trkpt lat="42.374863" lon="1.900524">
        <ele>1295.03247</ele>
        <time>2021-07-02T08:49:53Z</time>
      </trkpt>
      <trkpt lat="42.375099" lon="1.900349">
        <ele>1294.32080</ele>
        <time>2021-07-02T08:49:54Z</time>
      </trkpt>
      <trkpt lat="42.375340" lon="1.900202">
        <ele>1294.68982</ele>
        <time>2021-07-02T08:49:55Z</time>
      </trkpt>
      <trkpt lat="42.375549" lon="1.900097">
        <ele>1294.51453</ele>
        <time>2021-07-02T08:49:56Z</time>
      </trkpt>
      <trkpt lat="42.375751" lon="1.899995">
        <ele>1295.21448</ele>
        <time>2021-07-02T08:49:57Z</time>
      </trkpt>
      <trkpt lat="42.375954" lon="1.899856">
        <ele>1294.61279</ele>
        <time>2021-07-02T08:49:58Z</time>
      </trkpt>
      <trkpt lat="42.376045" lon="1.899709">
        <ele>1293.02332</ele>
        <time>2021-07-02T08:49:59Z</time>
      </trkpt>
      <trkpt lat="42.376114" lon="1.899590">
        <ele>1293.06189</ele>
        <time>2021-07-02T08:50:00Z</time>
      </trkpt>
      <trkpt lat="42.376232" lon="1.899445">
        <ele>1291.15442</ele>
        <time>2021-07-02T08:50:01Z</time>
      </trkpt>
      <trkpt lat="42.376381" lon="1.899353">
        <ele>1288.63281</ele>
        <time>2021-07-02T08:50:02Z</time>
      </trkpt>
      <trkpt lat="42.376537" lon="1.899276">
        <ele>1288.56152</ele>
        <time>2021-07-02T08:50:03Z</time>
      </trkpt>
      <trkpt lat="42.376686" lon="1.899225">
        <ele>1287.15784</ele>
        <time>2021-07-02T08:50:04Z</time>
      </trkpt>
      <trkpt lat="42.376846" lon="1.899182">
        <ele>1287.81262</ele>
        <time>2021-07-02T08:50:05Z</time>
      </trkpt>
      <trkpt lat="42.377087" lon="1.899146">
        <ele>1284.77795</ele>
        <time>2021-07-02T08:50:06Z</time>
      </trkpt>
      <trkpt lat="42.377274" lon="1.899129">
        <ele>1284.05225</ele>
        <time>2021-07-02T08:50:07Z</time>
      </trkpt>
      <trkpt lat="42.377541" lon="1.899161">
        <ele>1283.86536</ele>
        <time>2021-07-02T08:50:08Z</time>
      </trkpt>
      <trkpt lat="42.377747" lon="1.899186">
        <ele>1281.48462</ele>
        <time>2021-07-02T08:50:09Z</time>
      </trkpt>
      <trkpt lat="42.377995" lon="1.899216">
        <ele>1279.61584</ele>
        <time>2021-07-02T08:50:10Z</time>
      </trkpt>
      <trkpt lat="42.378239" lon="1.899245">
        <ele>1277.56531</ele>
        <time>2021-07-02T08:50:11Z</time>
      </trkpt>
      <trkpt lat="42.378239" lon="1.899245">
        <ele>1275.86816</ele>
        <time>2021-07-02T08:50:12Z</time>
      </trkpt>
      <trkpt lat="42.378674" lon="1.899322">
        <ele>1275.39392</ele>
        <time>2021-07-02T08:50:13Z</time>
      </trkpt>
      <trkpt lat="42.378674" lon="1.899322">
        <ele>1273.94751</ele>
        <time>2021-07-02T08:50:14Z</time>
      </trkpt>
      <trkpt lat="42.378876" lon="1.899371">
        <ele>1272.24646</ele>
        <time>2021-07-02T08:50:15Z</time>
      </trkpt>
      <trkpt lat="42.379082" lon="1.899439">
        <ele>1270.49768</ele>
        <time>2021-07-02T08:50:16Z</time>
      </trkpt>
      <trkpt lat="42.379238" lon="1.899501">
        <ele>1269.88281</ele>
        <time>2021-07-02T08:50:17Z</time>
      </trkpt>
      <trkpt lat="42.379349" lon="1.899594">
        <ele>1266.49609</ele>
        <time>2021-07-02T08:50:18Z</time>
      </trkpt>
      <trkpt lat="42.379444" lon="1.899740">
        <ele>1265.88171</ele>
        <time>2021-07-02T08:50:19Z</time>
      </trkpt>
      <trkpt lat="42.379532" lon="1.899958">
        <ele>1262.64258</ele>
        <time>2021-07-02T08:50:20Z</time>
      </trkpt>
      <trkpt lat="42.379608" lon="1.900161">
        <ele>1259.85315</ele>
        <time>2021-07-02T08:50:21Z</time>
      </trkpt>
      <trkpt lat="42.379723" lon="1.900463">
        <ele>1258.57483</ele>
        <time>2021-07-02T08:50:22Z</time>
      </trkpt>
      <trkpt lat="42.379845" lon="1.900791">
        <ele>1257.04590</ele>
        <time>2021-07-02T08:50:23Z</time>
      </trkpt>
      <trkpt lat="42.379951" lon="1.901031">
        <ele>1254.71960</ele>
        <time>2021-07-02T08:50:24Z</time>
      </trkpt>
      <trkpt lat="42.380096" lon="1.901256">
        <ele>1254.40845</ele>
        <time>2021-07-02T08:50:25Z</time>
      </trkpt>
      <trkpt lat="42.380230" lon="1.901451">
        <ele>1252.71130</ele>
        <time>2021-07-02T08:50:26Z</time>
      </trkpt>
      <trkpt lat="42.380310" lon="1.901607">
        <ele>1251.01709</ele>
        <time>2021-07-02T08:50:27Z</time>
      </trkpt>
      <trkpt lat="42.380344" lon="1.901749">
        <ele>1249.35535</ele>
        <time>2021-07-02T08:50:28Z</time>
      </trkpt>
      <trkpt lat="42.380344" lon="1.901947">
        <ele>1248.40051</ele>
        <time>2021-07-02T08:50:29Z</time>
      </trkpt>
      <trkpt lat="42.380291" lon="1.902110">
        <ele>1247.65588</ele>
        <time>2021-07-02T08:50:30Z</time>
      </trkpt>
      <trkpt lat="42.380222" lon="1.902260">
        <ele>1247.08252</ele>
        <time>2021-07-02T08:50:31Z</time>
      </trkpt>
      <trkpt lat="42.380104" lon="1.902525">
        <ele>1246.51660</ele>
        <time>2021-07-02T08:50:32Z</time>
      </trkpt>
      <trkpt lat="42.380028" lon="1.902713">
        <ele>1246.06030</ele>
        <time>2021-07-02T08:50:33Z</time>
      </trkpt>
      <trkpt lat="42.379951" lon="1.902980">
        <ele>1245.57422</ele>
        <time>2021-07-02T08:50:34Z</time>
      </trkpt>
      <trkpt lat="42.379917" lon="1.903155">
        <ele>1246.06226</ele>
        <time>2021-07-02T08:50:35Z</time>
      </trkpt>
      <trkpt lat="42.379932" lon="1.903311">
        <ele>1246.39001</ele>
        <time>2021-07-02T08:50:36Z</time>
      </trkpt>
      <trkpt lat="42.380009" lon="1.903459">
        <ele>1246.16418</ele>
        <time>2021-07-02T08:50:37Z</time>
      </trkpt>
      <trkpt lat="42.380123" lon="1.903515">
        <ele>1246.29175</ele>
        <time>2021-07-02T08:50:38Z</time>
      </trkpt>
      <trkpt lat="42.380173" lon="1.903512">
        <ele>1246.78882</ele>
        <time>2021-07-02T08:50:39Z</time>
      </trkpt>
      <trkpt lat="42.380238" lon="1.903491">
        <ele>1247.26794</ele>
        <time>2021-07-02T08:50:40Z</time>
      </trkpt>
      <trkpt lat="42.380325" lon="1.903448">
        <ele>1244.74902</ele>
        <time>2021-07-02T08:50:41Z</time>
      </trkpt>
      <trkpt lat="42.380478" lon="1.903363">
        <ele>1243.93054</ele>
        <time>2021-07-02T08:50:42Z</time>
      </trkpt>
      <trkpt lat="42.380791" lon="1.903325">
        <ele>1239.12769</ele>
        <time>2021-07-02T08:50:43Z</time>
      </trkpt>
      <trkpt lat="42.380791" lon="1.903325">
        <ele>1238.57214</ele>
        <time>2021-07-02T08:50:44Z</time>
      </trkpt>
      <trkpt lat="42.380997" lon="1.903363">
        <ele>1238.07153</ele>
        <time>2021-07-02T08:50:45Z</time>
      </trkpt>
      <trkpt lat="42.381237" lon="1.903503">
        <ele>1236.43005</ele>
        <time>2021-07-02T08:50:46Z</time>
      </trkpt>
      <trkpt lat="42.381458" lon="1.903643">
        <ele>1235.02808</ele>
        <time>2021-07-02T08:50:47Z</time>
      </trkpt>
      <trkpt lat="42.381702" lon="1.903754">
        <ele>1234.45044</ele>
        <time>2021-07-02T08:50:48Z</time>
      </trkpt>
      <trkpt lat="42.381882" lon="1.903805">
        <ele>1231.72925</ele>
        <time>2021-07-02T08:50:49Z</time>
      </trkpt>
      <trkpt lat="42.382053" lon="1.903883">
        <ele>1231.39050</ele>
        <time>2021-07-02T08:50:50Z</time>
      </trkpt>
      <trkpt lat="42.382114" lon="1.903959">
        <ele>1229.93945</ele>
        <time>2021-07-02T08:50:51Z</time>
      </trkpt>
      <trkpt lat="42.382153" lon="1.904084">
        <ele>1228.19861</ele>
        <time>2021-07-02T08:50:52Z</time>
      </trkpt>
      <trkpt lat="42.382153" lon="1.904164">
        <ele>1228.14795</ele>
        <time>2021-07-02T08:50:53Z</time>
      </trkpt>
      <trkpt lat="42.382141" lon="1.904294">
        <ele>1227.92175</ele>
        <time>2021-07-02T08:50:54Z</time>
      </trkpt>
      <trkpt lat="42.382088" lon="1.904572">
        <ele>1224.96753</ele>
        <time>2021-07-02T08:50:55Z</time>
      </trkpt>
      <trkpt lat="42.382034" lon="1.904752">
        <ele>1223.80676</ele>
        <time>2021-07-02T08:50:56Z</time>
      </trkpt>
      <trkpt lat="42.381916" lon="1.905076">
        <ele>1222.48914</ele>
        <time>2021-07-02T08:50:57Z</time>
      </trkpt>
      <trkpt lat="42.381790" lon="1.905412">
        <ele>1220.96997</ele>
        <time>2021-07-02T08:50:58Z</time>
      </trkpt>
      <trkpt lat="42.381706" lon="1.905685">
        <ele>1218.79761</ele>
        <time>2021-07-02T08:50:59Z</time>
      </trkpt>
      <trkpt lat="42.381626" lon="1.905963">
        <ele>1217.88672</ele>
        <time>2021-07-02T08:51:00Z</time>
      </trkpt>
      <trkpt lat="42.381523" lon="1.906202">
        <ele>1216.64734</ele>
        <time>2021-07-02T08:51:01Z</time>
      </trkpt>
      <trkpt lat="42.381393" lon="1.906396">
        <ele>1218.17249</ele>
        <time>2021-07-02T08:51:02Z</time>
      </trkpt>
      <trkpt lat="42.381287" lon="1.906557">
        <ele>1218.18286</ele>
        <time>2021-07-02T08:51:03Z</time>
      </trkpt>
      <trkpt lat="42.381256" lon="1.906615">
        <ele>1217.42065</ele>
        <time>2021-07-02T08:51:04Z</time>
      </trkpt>
      <trkpt lat="42.381226" lon="1.906820">
        <ele>1217.68042</ele>
        <time>2021-07-02T08:51:05Z</time>
      </trkpt>
      <trkpt lat="42.381241" lon="1.906903">
        <ele>1216.60376</ele>
        <time>2021-07-02T08:51:06Z</time>
      </trkpt>
      <trkpt lat="42.381306" lon="1.907027">
        <ele>1214.31506</ele>
        <time>2021-07-02T08:51:07Z</time>
      </trkpt>
      <trkpt lat="42.381474" lon="1.907183">
        <ele>1213.33435</ele>
        <time>2021-07-02T08:51:08Z</time>
      </trkpt>
      <trkpt lat="42.381634" lon="1.907289">
        <ele>1212.52234</ele>
        <time>2021-07-02T08:51:09Z</time>
      </trkpt>
      <trkpt lat="42.381756" lon="1.907296">
        <ele>1211.36926</ele>
        <time>2021-07-02T08:51:10Z</time>
      </trkpt>
      <trkpt lat="42.381901" lon="1.907243">
        <ele>1210.85706</ele>
        <time>2021-07-02T08:51:11Z</time>
      </trkpt>
      <trkpt lat="42.382027" lon="1.907172">
        <ele>1209.87231</ele>
        <time>2021-07-02T08:51:12Z</time>
      </trkpt>
      <trkpt lat="42.382027" lon="1.907172">
        <ele>1207.79248</ele>
        <time>2021-07-02T08:51:13Z</time>
      </trkpt>
      <trkpt lat="42.382198" lon="1.907074">
        <ele>1206.54077</ele>
        <time>2021-07-02T08:51:14Z</time>
      </trkpt>
      <trkpt lat="42.382492" lon="1.906902">
        <ele>1205.19934</ele>
        <time>2021-07-02T08:51:15Z</time>
      </trkpt>
      <trkpt lat="42.382694" lon="1.906785">
        <ele>1204.12634</ele>
        <time>2021-07-02T08:51:16Z</time>
      </trkpt>
      <trkpt lat="42.382889" lon="1.906677">
        <ele>1203.94165</ele>
        <time>2021-07-02T08:51:17Z</time>
      </trkpt>
      <trkpt lat="42.383068" lon="1.906581">
        <ele>1204.24500</ele>
        <time>2021-07-02T08:51:18Z</time>
      </trkpt>
      <trkpt lat="42.383236" lon="1.906489">
        <ele>1203.13232</ele>
        <time>2021-07-02T08:51:19Z</time>
      </trkpt>
      <trkpt lat="42.383381" lon="1.906414">
        <ele>1202.43408</ele>
        <time>2021-07-02T08:51:20Z</time>
      </trkpt>
      <trkpt lat="42.383518" lon="1.906349">
        <ele>1202.12988</ele>
        <time>2021-07-02T08:51:21Z</time>
      </trkpt>
      <trkpt lat="42.383633" lon="1.906327">
        <ele>1199.03625</ele>
        <time>2021-07-02T08:51:22Z</time>
      </trkpt>
      <trkpt lat="42.383762" lon="1.906360">
        <ele>1197.68567</ele>
        <time>2021-07-02T08:51:23Z</time>
      </trkpt>
      <trkpt lat="42.383877" lon="1.906431">
        <ele>1196.22717</ele>
        <time>2021-07-02T08:51:24Z</time>
      </trkpt>
      <trkpt lat="42.383968" lon="1.906567">
        <ele>1195.47351</ele>
        <time>2021-07-02T08:51:25Z</time>
      </trkpt>
      <trkpt lat="42.384014" lon="1.906712">
        <ele>1194.57727</ele>
        <time>2021-07-02T08:51:26Z</time>
      </trkpt>
      <trkpt lat="42.384068" lon="1.906871">
        <ele>1193.31995</ele>
        <time>2021-07-02T08:51:27Z</time>
      </trkpt>
      <trkpt lat="42.384178" lon="1.907089">
        <ele>1191.40857</ele>
        <time>2021-07-02T08:51:28Z</time>
      </trkpt>
      <trkpt lat="42.384323" lon="1.907199">
        <ele>1190.59290</ele>
        <time>2021-07-02T08:51:29Z</time>
      </trkpt>
      <trkpt lat="42.384525" lon="1.907294">
        <ele>1190.49292</ele>
        <time>2021-07-02T08:51:30Z</time>
      </trkpt>
      <trkpt lat="42.384674" lon="1.907365">
        <ele>1188.01453</ele>
        <time>2021-07-02T08:51:31Z</time>
      </trkpt>
      <trkpt lat="42.384922" lon="1.907483">
        <ele>1186.55896</ele>
        <time>2021-07-02T08:51:32Z</time>
      </trkpt>
      <trkpt lat="42.385166" lon="1.907599">
        <ele>1186.09045</ele>
        <time>2021-07-02T08:51:33Z</time>
      </trkpt>
      <trkpt lat="42.385357" lon="1.907690">
        <ele>1186.02917</ele>
        <time>2021-07-02T08:51:34Z</time>
      </trkpt>
      <trkpt lat="42.385571" lon="1.907792">
        <ele>1186.19763</ele>
        <time>2021-07-02T08:51:35Z</time>
      </trkpt>
      <trkpt lat="42.385746" lon="1.907876">
        <ele>1183.98669</ele>
        <time>2021-07-02T08:51:36Z</time>
      </trkpt>
      <trkpt lat="42.385921" lon="1.907961">
        <ele>1182.18555</ele>
        <time>2021-07-02T08:51:37Z</time>
      </trkpt>
      <trkpt lat="42.386078" lon="1.908034">
        <ele>1181.57983</ele>
        <time>2021-07-02T08:51:38Z</time>
      </trkpt>
      <trkpt lat="42.386250" lon="1.908119">
        <ele>1180.63684</ele>
        <time>2021-07-02T08:51:39Z</time>
      </trkpt>
      <trkpt lat="42.386417" lon="1.908195">
        <ele>1180.20044</ele>
        <time>2021-07-02T08:51:40Z</time>
      </trkpt>
      <trkpt lat="42.386562" lon="1.908261">
        <ele>1178.45740</ele>
        <time>2021-07-02T08:51:41Z</time>
      </trkpt>
      <trkpt lat="42.386719" lon="1.908335">
        <ele>1178.57483</ele>
        <time>2021-07-02T08:51:42Z</time>
      </trkpt>
      <trkpt lat="42.386837" lon="1.908390">
        <ele>1178.24255</ele>
        <time>2021-07-02T08:51:43Z</time>
      </trkpt>
      <trkpt lat="42.386837" lon="1.908390">
        <ele>1177.36731</ele>
        <time>2021-07-02T08:51:44Z</time>
      </trkpt>
      <trkpt lat="42.386997" lon="1.908464">
        <ele>1176.80701</ele>
        <time>2021-07-02T08:51:45Z</time>
      </trkpt>
      <trkpt lat="42.387131" lon="1.908527">
        <ele>1175.99365</ele>
        <time>2021-07-02T08:51:46Z</time>
      </trkpt>
      <trkpt lat="42.387253" lon="1.908583">
        <ele>1174.73840</ele>
        <time>2021-07-02T08:51:47Z</time>
      </trkpt>
      <trkpt lat="42.387379" lon="1.908642">
        <ele>1175.41382</ele>
        <time>2021-07-02T08:51:48Z</time>
      </trkpt>
      <trkpt lat="42.387501" lon="1.908699">
        <ele>1173.49036</ele>
        <time>2021-07-02T08:51:49Z</time>
      </trkpt>
      <trkpt lat="42.387627" lon="1.908758">
        <ele>1173.27600</ele>
        <time>2021-07-02T08:51:50Z</time>
      </trkpt>
      <trkpt lat="42.387753" lon="1.908818">
        <ele>1172.51428</ele>
        <time>2021-07-02T08:51:51Z</time>
      </trkpt>
      <trkpt lat="42.387890" lon="1.908881">
        <ele>1171.64685</ele>
        <time>2021-07-02T08:51:52Z</time>
      </trkpt>
      <trkpt lat="42.388023" lon="1.908943">
        <ele>1171.04541</ele>
        <time>2021-07-02T08:51:53Z</time>
      </trkpt>
      <trkpt lat="42.388168" lon="1.909011">
        <ele>1170.04297</ele>
        <time>2021-07-02T08:51:54Z</time>
      </trkpt>
      <trkpt lat="42.388313" lon="1.909079">
        <ele>1169.90649</ele>
        <time>2021-07-02T08:51:55Z</time>
      </trkpt>
      <trkpt lat="42.388454" lon="1.909144">
        <ele>1169.81018</ele>
        <time>2021-07-02T08:51:56Z</time>
      </trkpt>
      <trkpt lat="42.388596" lon="1.909211">
        <ele>1169.80481</ele>
        <time>2021-07-02T08:51:57Z</time>
      </trkpt>
      <trkpt lat="42.388737" lon="1.909277">
        <ele>1169.72083</ele>
        <time>2021-07-02T08:51:58Z</time>
      </trkpt>
      <trkpt lat="42.388882" lon="1.909344">
        <ele>1169.23438</ele>
        <time>2021-07-02T08:51:59Z</time>
      </trkpt>
      <trkpt lat="42.389023" lon="1.909411">
        <ele>1169.14868</ele>
        <time>2021-07-02T08:52:00Z</time>
      </trkpt>
      <trkpt lat="42.389156" lon="1.909475">
        <ele>1167.52625</ele>
        <time>2021-07-02T08:52:01Z</time>
      </trkpt>
      <trkpt lat="42.389297" lon="1.909540">
        <ele>1167.27783</ele>
        <time>2021-07-02T08:52:02Z</time>
      </trkpt>
      <trkpt lat="42.389420" lon="1.909598">
        <ele>1167.42883</ele>
        <time>2021-07-02T08:52:03Z</time>
      </trkpt>
      <trkpt lat="42.389557" lon="1.909664">
        <ele>1166.64502</ele>
        <time>2021-07-02T08:52:04Z</time>
      </trkpt>
      <trkpt lat="42.389702" lon="1.909733">
        <ele>1167.52539</ele>
        <time>2021-07-02T08:52:05Z</time>
      </trkpt>
      <trkpt lat="42.389820" lon="1.909788">
        <ele>1167.02234</ele>
        <time>2021-07-02T08:52:06Z</time>
      </trkpt>
      <trkpt lat="42.389820" lon="1.909789">
        <ele>1166.86133</ele>
        <time>2021-07-02T08:52:07Z</time>
      </trkpt>
      <trkpt lat="42.389851" lon="1.909802">
        <ele>1166.93909</ele>
        <time>2021-07-02T08:52:08Z</time>
      </trkpt>
      <trkpt lat="42.390293" lon="1.910006">
        <ele>1165.06055</ele>
        <time>2021-07-02T08:52:09Z</time>
      </trkpt>
      <trkpt lat="42.390488" lon="1.910093">
        <ele>1163.31287</ele>
        <time>2021-07-02T08:52:10Z</time>
      </trkpt>
      <trkpt lat="42.390678" lon="1.910181">
        <ele>1162.35474</ele>
        <time>2021-07-02T08:52:11Z</time>
      </trkpt>
      <trkpt lat="42.390678" lon="1.910181">
        <ele>1161.10303</ele>
        <time>2021-07-02T08:52:12Z</time>
      </trkpt>
      <trkpt lat="42.390678" lon="1.910181">
        <ele>1159.99207</ele>
        <time>2021-07-02T08:52:13Z</time>
      </trkpt>
      <trkpt lat="42.391064" lon="1.910368">
        <ele>1159.43262</ele>
        <time>2021-07-02T08:52:14Z</time>
      </trkpt>
      <trkpt lat="42.391212" lon="1.910441">
        <ele>1157.88342</ele>
        <time>2021-07-02T08:52:15Z</time>
      </trkpt>
      <trkpt lat="42.391376" lon="1.910554">
        <ele>1156.71997</ele>
        <time>2021-07-02T08:52:16Z</time>
      </trkpt>
      <trkpt lat="42.391479" lon="1.910665">
        <ele>1155.65503</ele>
        <time>2021-07-02T08:52:17Z</time>
      </trkpt>
      <trkpt lat="42.391590" lon="1.910830">
        <ele>1154.91125</ele>
        <time>2021-07-02T08:52:18Z</time>
      </trkpt>
      <trkpt lat="42.391697" lon="1.911054">
        <ele>1154.46350</ele>
        <time>2021-07-02T08:52:19Z</time>
      </trkpt>
      <trkpt lat="42.391781" lon="1.911242">
        <ele>1152.89050</ele>
        <time>2021-07-02T08:52:20Z</time>
      </trkpt>
      <trkpt lat="42.391895" lon="1.911496">
        <ele>1152.11719</ele>
        <time>2021-07-02T08:52:21Z</time>
      </trkpt>
      <trkpt lat="42.391998" lon="1.911720">
        <ele>1150.54272</ele>
        <time>2021-07-02T08:52:22Z</time>
      </trkpt>
      <trkpt lat="42.392090" lon="1.911923">
        <ele>1149.86707</ele>
        <time>2021-07-02T08:52:23Z</time>
      </trkpt>
      <trkpt lat="42.392193" lon="1.912148">
        <ele>1149.10315</ele>
        <time>2021-07-02T08:52:24Z</time>
      </trkpt>
      <trkpt lat="42.392296" lon="1.912376">
        <ele>1148.47766</ele>
        <time>2021-07-02T08:52:25Z</time>
      </trkpt>
      <trkpt lat="42.392406" lon="1.912625">
        <ele>1148.35132</ele>
        <time>2021-07-02T08:52:26Z</time>
      </trkpt>
      <trkpt lat="42.392490" lon="1.912815">
        <ele>1148.23132</ele>
        <time>2021-07-02T08:52:27Z</time>
      </trkpt>
      <trkpt lat="42.392578" lon="1.913008">
        <ele>1147.58289</ele>
        <time>2021-07-02T08:52:28Z</time>
      </trkpt>
      <trkpt lat="42.392677" lon="1.913224">
        <ele>1147.56140</ele>
        <time>2021-07-02T08:52:29Z</time>
      </trkpt>
      <trkpt lat="42.392754" lon="1.913369">
        <ele>1146.69519</ele>
        <time>2021-07-02T08:52:30Z</time>
      </trkpt>
      <trkpt lat="42.392883" lon="1.913502">
        <ele>1147.10132</ele>
        <time>2021-07-02T08:52:31Z</time>
      </trkpt>
      <trkpt lat="42.392986" lon="1.913549">
        <ele>1147.15051</ele>
        <time>2021-07-02T08:52:32Z</time>
      </trkpt>
      <trkpt lat="42.393131" lon="1.913558">
        <ele>1147.29175</ele>
        <time>2021-07-02T08:52:33Z</time>
      </trkpt>
      <trkpt lat="42.393234" lon="1.913531">
        <ele>1147.40503</ele>
        <time>2021-07-02T08:52:34Z</time>
      </trkpt>
      <trkpt lat="42.393353" lon="1.913482">
        <ele>1147.09875</ele>
        <time>2021-07-02T08:52:35Z</time>
      </trkpt>
      <trkpt lat="42.393532" lon="1.913408">
        <ele>1148.15112</ele>
        <time>2021-07-02T08:52:36Z</time>
      </trkpt>
      <trkpt lat="42.393768" lon="1.913310">
        <ele>1147.03491</ele>
        <time>2021-07-02T08:52:37Z</time>
      </trkpt>
      <trkpt lat="42.393768" lon="1.913310">
        <ele>1147.03699</ele>
        <time>2021-07-02T08:52:38Z</time>
      </trkpt>
      <trkpt lat="42.393929" lon="1.913243">
        <ele>1145.94116</ele>
        <time>2021-07-02T08:52:39Z</time>
      </trkpt>
      <trkpt lat="42.394077" lon="1.913181">
        <ele>1144.64429</ele>
        <time>2021-07-02T08:52:40Z</time>
      </trkpt>
      <trkpt lat="42.394234" lon="1.913130">
        <ele>1144.16431</ele>
        <time>2021-07-02T08:52:41Z</time>
      </trkpt>
      <trkpt lat="42.394363" lon="1.913099">
        <ele>1144.51025</ele>
        <time>2021-07-02T08:52:42Z</time>
      </trkpt>
      <trkpt lat="42.394512" lon="1.913097">
        <ele>1142.49744</ele>
        <time>2021-07-02T08:52:43Z</time>
      </trkpt>
      <trkpt lat="42.394665" lon="1.913141">
        <ele>1142.60327</ele>
        <time>2021-07-02T08:52:44Z</time>
      </trkpt>
      <trkpt lat="42.394829" lon="1.913219">
        <ele>1141.04321</ele>
        <time>2021-07-02T08:52:45Z</time>
      </trkpt>
      <trkpt lat="42.395027" lon="1.913327">
        <ele>1140.26855</ele>
        <time>2021-07-02T08:52:46Z</time>
      </trkpt>
      <trkpt lat="42.395187" lon="1.913450">
        <ele>1139.51599</ele>
        <time>2021-07-02T08:52:47Z</time>
      </trkpt>
      <trkpt lat="42.395313" lon="1.913594">
        <ele>1138.94153</ele>
        <time>2021-07-02T08:52:48Z</time>
      </trkpt>
      <trkpt lat="42.395432" lon="1.913780">
        <ele>1137.74280</ele>
        <time>2021-07-02T08:52:49Z</time>
      </trkpt>
      <trkpt lat="42.395573" lon="1.914012">
        <ele>1137.27515</ele>
        <time>2021-07-02T08:52:50Z</time>
      </trkpt>
      <trkpt lat="42.395721" lon="1.914251">
        <ele>1136.28381</ele>
        <time>2021-07-02T08:52:51Z</time>
      </trkpt>
      <trkpt lat="42.395866" lon="1.914471">
        <ele>1134.76233</ele>
        <time>2021-07-02T08:52:52Z</time>
      </trkpt>
      <trkpt lat="42.396027" lon="1.914696">
        <ele>1133.47986</ele>
        <time>2021-07-02T08:52:53Z</time>
      </trkpt>
      <trkpt lat="42.396191" lon="1.914901">
        <ele>1132.45300</ele>
        <time>2021-07-02T08:52:54Z</time>
      </trkpt>
      <trkpt lat="42.396355" lon="1.915082">
        <ele>1131.10291</ele>
        <time>2021-07-02T08:52:55Z</time>
      </trkpt>
      <trkpt lat="42.396519" lon="1.915240">
        <ele>1129.93250</ele>
        <time>2021-07-02T08:52:56Z</time>
      </trkpt>
      <trkpt lat="42.396706" lon="1.915397">
        <ele>1128.71790</ele>
        <time>2021-07-02T08:52:57Z</time>
      </trkpt>
      <trkpt lat="42.396881" lon="1.915521">
        <ele>1126.12354</ele>
        <time>2021-07-02T08:52:58Z</time>
      </trkpt>
      <trkpt lat="42.396992" lon="1.915596">
        <ele>1124.95398</ele>
        <time>2021-07-02T08:52:59Z</time>
      </trkpt>
      <trkpt lat="42.397003" lon="1.915610">
        <ele>1122.82922</ele>
        <time>2021-07-02T08:53:00Z</time>
      </trkpt>
      <trkpt lat="42.397369" lon="1.915928">
        <ele>1122.17480</ele>
        <time>2021-07-02T08:53:01Z</time>
      </trkpt>
      <trkpt lat="42.397636" lon="1.915851">
        <ele>1121.33081</ele>
        <time>2021-07-02T08:53:02Z</time>
      </trkpt>
      <trkpt lat="42.397850" lon="1.915855">
        <ele>1121.17725</ele>
        <time>2021-07-02T08:53:03Z</time>
      </trkpt>
      <trkpt lat="42.397850" lon="1.915855">
        <ele>1120.83057</ele>
        <time>2021-07-02T08:53:04Z</time>
      </trkpt>
      <trkpt lat="42.397850" lon="1.915855">
        <ele>1120.83057</ele>
        <time>2021-07-02T08:53:05Z</time>
      </trkpt>
      <trkpt lat="42.397850" lon="1.915855">
        <ele>1119.00208</ele>
        <time>2021-07-02T08:53:06Z</time>
      </trkpt>
      <trkpt lat="42.398525" lon="1.915658">
        <ele>1117.09778</ele>
        <time>2021-07-02T08:53:07Z</time>
      </trkpt>
      <trkpt lat="42.398701" lon="1.915597">
        <ele>1116.74084</ele>
        <time>2021-07-02T08:53:08Z</time>
      </trkpt>
      <trkpt lat="42.398933" lon="1.915536">
        <ele>1116.21753</ele>
        <time>2021-07-02T08:53:09Z</time>
      </trkpt>
      <trkpt lat="42.399136" lon="1.915542">
        <ele>1115.69946</ele>
        <time>2021-07-02T08:53:10Z</time>
      </trkpt>
      <trkpt lat="42.399319" lon="1.915605">
        <ele>1114.47681</ele>
        <time>2021-07-02T08:53:11Z</time>
      </trkpt>
      <trkpt lat="42.399475" lon="1.915702">
        <ele>1111.89771</ele>
        <time>2021-07-02T08:53:12Z</time>
      </trkpt>
      <trkpt lat="42.399651" lon="1.915832">
        <ele>1112.36877</ele>
        <time>2021-07-02T08:53:13Z</time>
      </trkpt>
      <trkpt lat="42.399815" lon="1.915956">
        <ele>1109.98120</ele>
        <time>2021-07-02T08:53:14Z</time>
      </trkpt>
      <trkpt lat="42.399979" lon="1.916022">
        <ele>1108.43970</ele>
        <time>2021-07-02T08:53:15Z</time>
      </trkpt>
      <trkpt lat="42.400105" lon="1.916038">
        <ele>1107.26672</ele>
        <time>2021-07-02T08:53:16Z</time>
      </trkpt>
      <trkpt lat="42.400246" lon="1.916012">
        <ele>1107.36340</ele>
        <time>2021-07-02T08:53:17Z</time>
      </trkpt>
      <trkpt lat="42.400375" lon="1.915921">
        <ele>1105.96936</ele>
        <time>2021-07-02T08:53:18Z</time>
      </trkpt>
      <trkpt lat="42.400375" lon="1.915921">
        <ele>1106.30103</ele>
        <time>2021-07-02T08:53:19Z</time>
      </trkpt>
      <trkpt lat="42.400452" lon="1.915848">
        <ele>1105.90906</ele>
        <time>2021-07-02T08:53:20Z</time>
      </trkpt>
      <trkpt lat="42.400517" lon="1.915727">
        <ele>1105.39807</ele>
        <time>2021-07-02T08:53:21Z</time>
      </trkpt>
      <trkpt lat="42.400543" lon="1.915468">
        <ele>1105.25208</ele>
        <time>2021-07-02T08:53:22Z</time>
      </trkpt>
      <trkpt lat="42.400955" lon="1.915673">
        <ele>1104.25989</ele>
        <time>2021-07-02T08:53:23Z</time>
      </trkpt>
      <trkpt lat="42.401100" lon="1.915681">
        <ele>1104.45264</ele>
        <time>2021-07-02T08:53:24Z</time>
      </trkpt>
      <trkpt lat="42.401283" lon="1.915665">
        <ele>1104.17200</ele>
        <time>2021-07-02T08:53:25Z</time>
      </trkpt>
      <trkpt lat="42.401283" lon="1.915665">
        <ele>1104.37366</ele>
        <time>2021-07-02T08:53:26Z</time>
      </trkpt>
      <trkpt lat="42.401283" lon="1.915665">
        <ele>1104.28101</ele>
        <time>2021-07-02T08:53:27Z</time>
      </trkpt>
      <trkpt lat="42.401920" lon="1.915550">
        <ele>1104.12756</ele>
        <time>2021-07-02T08:53:28Z</time>
      </trkpt>
      <trkpt lat="42.402142" lon="1.915465">
        <ele>1104.21326</ele>
        <time>2021-07-02T08:53:29Z</time>
      </trkpt>
      <trkpt lat="42.402336" lon="1.915397">
        <ele>1105.49646</ele>
        <time>2021-07-02T08:53:30Z</time>
      </trkpt>
      <trkpt lat="42.402504" lon="1.915352">
        <ele>1105.30835</ele>
        <time>2021-07-02T08:53:31Z</time>
      </trkpt>
      <trkpt lat="42.402699" lon="1.915300">
        <ele>1104.38354</ele>
        <time>2021-07-02T08:53:32Z</time>
      </trkpt>
      <trkpt lat="42.402893" lon="1.915249">
        <ele>1101.81482</ele>
        <time>2021-07-02T08:53:33Z</time>
      </trkpt>
      <trkpt lat="42.403072" lon="1.915201">
        <ele>1101.25793</ele>
        <time>2021-07-02T08:53:34Z</time>
      </trkpt>
      <trkpt lat="42.403072" lon="1.915201">
        <ele>1101.12195</ele>
        <time>2021-07-02T08:53:35Z</time>
      </trkpt>
      <trkpt lat="42.403282" lon="1.915157">
        <ele>1100.52136</ele>
        <time>2021-07-02T08:53:36Z</time>
      </trkpt>
      <trkpt lat="42.403477" lon="1.915138">
        <ele>1100.76343</ele>
        <time>2021-07-02T08:53:37Z</time>
      </trkpt>
      <trkpt lat="42.403709" lon="1.915146">
        <ele>1101.16772</ele>
        <time>2021-07-02T08:53:38Z</time>
      </trkpt>
      <trkpt lat="42.403950" lon="1.915174">
        <ele>1102.92896</ele>
        <time>2021-07-02T08:53:39Z</time>
      </trkpt>
      <trkpt lat="42.404163" lon="1.915256">
        <ele>1103.95996</ele>
        <time>2021-07-02T08:53:40Z</time>
      </trkpt>
      <trkpt lat="42.404408" lon="1.915361">
        <ele>1104.05042</ele>
        <time>2021-07-02T08:53:41Z</time>
      </trkpt>
      <trkpt lat="42.404636" lon="1.915483">
        <ele>1104.11792</ele>
        <time>2021-07-02T08:53:42Z</time>
      </trkpt>
      <trkpt lat="42.404854" lon="1.915599">
        <ele>1103.72083</ele>
        <time>2021-07-02T08:53:43Z</time>
      </trkpt>
      <trkpt lat="42.405064" lon="1.915711">
        <ele>1103.91907</ele>
        <time>2021-07-02T08:53:44Z</time>
      </trkpt>
      <trkpt lat="42.405281" lon="1.915828">
        <ele>1104.69482</ele>
        <time>2021-07-02T08:53:45Z</time>
      </trkpt>
      <trkpt lat="42.405514" lon="1.915935">
        <ele>1106.50293</ele>
        <time>2021-07-02T08:53:46Z</time>
      </trkpt>
      <trkpt lat="42.405758" lon="1.916047">
        <ele>1107.33154</ele>
        <time>2021-07-02T08:53:47Z</time>
      </trkpt>
      <trkpt lat="42.405991" lon="1.916154">
        <ele>1107.55164</ele>
        <time>2021-07-02T08:53:48Z</time>
      </trkpt>
      <trkpt lat="42.406235" lon="1.916248">
        <ele>1108.21118</ele>
        <time>2021-07-02T08:53:49Z</time>
      </trkpt>
      <trkpt lat="42.406490" lon="1.916343">
        <ele>1108.76624</ele>
        <time>2021-07-02T08:53:50Z</time>
      </trkpt>
      <trkpt lat="42.406738" lon="1.916436">
        <ele>1108.70398</ele>
        <time>2021-07-02T08:53:51Z</time>
      </trkpt>
      <trkpt lat="42.406971" lon="1.916522">
        <ele>1109.53772</ele>
        <time>2021-07-02T08:53:52Z</time>
      </trkpt>
      <trkpt lat="42.407219" lon="1.916615">
        <ele>1109.90515</ele>
        <time>2021-07-02T08:53:53Z</time>
      </trkpt>
      <trkpt lat="42.407455" lon="1.916703">
        <ele>1110.50916</ele>
        <time>2021-07-02T08:53:54Z</time>
      </trkpt>
      <trkpt lat="42.407703" lon="1.916796">
        <ele>1111.58337</ele>
        <time>2021-07-02T08:53:55Z</time>
      </trkpt>
      <trkpt lat="42.407936" lon="1.916883">
        <ele>1112.68530</ele>
        <time>2021-07-02T08:53:56Z</time>
      </trkpt>
      <trkpt lat="42.408173" lon="1.916970">
        <ele>1112.50635</ele>
        <time>2021-07-02T08:53:57Z</time>
      </trkpt>
      <trkpt lat="42.408417" lon="1.917062">
        <ele>1113.02087</ele>
        <time>2021-07-02T08:53:58Z</time>
      </trkpt>
      <trkpt lat="42.408634" lon="1.917144">
        <ele>1112.60315</ele>
        <time>2021-07-02T08:53:59Z</time>
      </trkpt>
      <trkpt lat="42.408859" lon="1.917228">
        <ele>1112.22595</ele>
        <time>2021-07-02T08:54:00Z</time>
      </trkpt>
      <trkpt lat="42.409103" lon="1.917319">
        <ele>1112.79456</ele>
        <time>2021-07-02T08:54:01Z</time>
      </trkpt>
      <trkpt lat="42.409336" lon="1.917405">
        <ele>1113.14453</ele>
        <time>2021-07-02T08:54:02Z</time>
      </trkpt>
      <trkpt lat="42.409565" lon="1.917491">
        <ele>1113.21899</ele>
        <time>2021-07-02T08:54:03Z</time>
      </trkpt>
      <trkpt lat="42.409790" lon="1.917575">
        <ele>1112.78137</ele>
        <time>2021-07-02T08:54:04Z</time>
      </trkpt>
      <trkpt lat="42.409992" lon="1.917650">
        <ele>1113.68298</ele>
        <time>2021-07-02T08:54:05Z</time>
      </trkpt>
      <trkpt lat="42.410217" lon="1.917735">
        <ele>1114.51941</ele>
        <time>2021-07-02T08:54:06Z</time>
      </trkpt>
      <trkpt lat="42.410217" lon="1.917735">
        <ele>1115.49561</ele>
        <time>2021-07-02T08:54:07Z</time>
      </trkpt>
      <trkpt lat="42.410446" lon="1.917806">
        <ele>1115.81787</ele>
        <time>2021-07-02T08:54:08Z</time>
      </trkpt>
      <trkpt lat="42.410679" lon="1.917872">
        <ele>1116.33215</ele>
        <time>2021-07-02T08:54:09Z</time>
      </trkpt>
      <trkpt lat="42.410881" lon="1.917951">
        <ele>1116.48389</ele>
        <time>2021-07-02T08:54:10Z</time>
      </trkpt>
      <trkpt lat="42.411095" lon="1.918034">
        <ele>1117.10840</ele>
        <time>2021-07-02T08:54:11Z</time>
      </trkpt>
      <trkpt lat="42.411304" lon="1.918116">
        <ele>1117.46289</ele>
        <time>2021-07-02T08:54:12Z</time>
      </trkpt>
      <trkpt lat="42.411510" lon="1.918196">
        <ele>1118.34485</ele>
        <time>2021-07-02T08:54:13Z</time>
      </trkpt>
      <trkpt lat="42.411709" lon="1.918274">
        <ele>1117.51953</ele>
        <time>2021-07-02T08:54:14Z</time>
      </trkpt>
      <trkpt lat="42.411915" lon="1.918354">
        <ele>1118.12402</ele>
        <time>2021-07-02T08:54:15Z</time>
      </trkpt>
      <trkpt lat="42.412106" lon="1.918429">
        <ele>1118.74536</ele>
        <time>2021-07-02T08:54:16Z</time>
      </trkpt>
      <trkpt lat="42.412292" lon="1.918503">
        <ele>1118.92786</ele>
        <time>2021-07-02T08:54:17Z</time>
      </trkpt>
      <trkpt lat="42.412483" lon="1.918577">
        <ele>1119.17554</ele>
        <time>2021-07-02T08:54:18Z</time>
      </trkpt>
      <trkpt lat="42.412678" lon="1.918654">
        <ele>1120.15186</ele>
        <time>2021-07-02T08:54:19Z</time>
      </trkpt>
      <trkpt lat="42.412876" lon="1.918731">
        <ele>1120.76147</ele>
        <time>2021-07-02T08:54:20Z</time>
      </trkpt>
      <trkpt lat="42.413067" lon="1.918805">
        <ele>1120.90112</ele>
        <time>2021-07-02T08:54:21Z</time>
      </trkpt>
      <trkpt lat="42.413265" lon="1.918883">
        <ele>1122.07971</ele>
        <time>2021-07-02T08:54:22Z</time>
      </trkpt>
      <trkpt lat="42.413464" lon="1.918960">
        <ele>1121.64685</ele>
        <time>2021-07-02T08:54:23Z</time>
      </trkpt>
      <trkpt lat="42.413639" lon="1.919029">
        <ele>1121.98621</ele>
        <time>2021-07-02T08:54:24Z</time>
      </trkpt>
      <trkpt lat="42.413792" lon="1.919089">
        <ele>1123.03418</ele>
        <time>2021-07-02T08:54:25Z</time>
      </trkpt>
      <trkpt lat="42.413940" lon="1.919147">
        <ele>1123.11096</ele>
        <time>2021-07-02T08:54:26Z</time>
      </trkpt>
      <trkpt lat="42.414101" lon="1.919208">
        <ele>1123.36902</ele>
        <time>2021-07-02T08:54:27Z</time>
      </trkpt>
      <trkpt lat="42.414261" lon="1.919268">
        <ele>1123.97278</ele>
        <time>2021-07-02T08:54:28Z</time>
      </trkpt>
      <trkpt lat="42.414406" lon="1.919321">
        <ele>1124.02820</ele>
        <time>2021-07-02T08:54:29Z</time>
      </trkpt>
      <trkpt lat="42.414570" lon="1.919381">
        <ele>1123.62646</ele>
        <time>2021-07-02T08:54:30Z</time>
      </trkpt>
      <trkpt lat="42.414707" lon="1.919433">
        <ele>1123.58594</ele>
        <time>2021-07-02T08:54:31Z</time>
      </trkpt>
      <trkpt lat="42.414886" lon="1.919499">
        <ele>1123.99585</ele>
        <time>2021-07-02T08:54:32Z</time>
      </trkpt>
      <trkpt lat="42.415066" lon="1.919565">
        <ele>1124.09497</ele>
        <time>2021-07-02T08:54:33Z</time>
      </trkpt>
      <trkpt lat="42.415222" lon="1.919623">
        <ele>1123.79382</ele>
        <time>2021-07-02T08:54:34Z</time>
      </trkpt>
      <trkpt lat="42.415379" lon="1.919680">
        <ele>1124.57080</ele>
        <time>2021-07-02T08:54:35Z</time>
      </trkpt>
      <trkpt lat="42.415550" lon="1.919744">
        <ele>1123.97461</ele>
        <time>2021-07-02T08:54:36Z</time>
      </trkpt>
      <trkpt lat="42.415707" lon="1.919801">
        <ele>1124.19238</ele>
        <time>2021-07-02T08:54:37Z</time>
      </trkpt>
      <trkpt lat="42.415855" lon="1.919857">
        <ele>1124.55042</ele>
        <time>2021-07-02T08:54:38Z</time>
      </trkpt>
      <trkpt lat="42.416008" lon="1.919912">
        <ele>1125.57678</ele>
        <time>2021-07-02T08:54:39Z</time>
      </trkpt>
      <trkpt lat="42.416008" lon="1.919912">
        <ele>1126.34570</ele>
        <time>2021-07-02T08:54:40Z</time>
      </trkpt>
      <trkpt lat="42.416138" lon="1.919961">
        <ele>1126.80017</ele>
        <time>2021-07-02T08:54:41Z</time>
      </trkpt>
      <trkpt lat="42.416294" lon="1.920019">
        <ele>1127.63574</ele>
        <time>2021-07-02T08:54:42Z</time>
      </trkpt>
      <trkpt lat="42.416447" lon="1.920076">
        <ele>1128.37317</ele>
        <time>2021-07-02T08:54:43Z</time>
      </trkpt>
      <trkpt lat="42.416599" lon="1.920133">
        <ele>1128.37439</ele>
        <time>2021-07-02T08:54:44Z</time>
      </trkpt>
      <trkpt lat="42.416756" lon="1.920193">
        <ele>1128.85669</ele>
        <time>2021-07-02T08:54:45Z</time>
      </trkpt>
      <trkpt lat="42.416904" lon="1.920248">
        <ele>1128.90125</ele>
        <time>2021-07-02T08:54:46Z</time>
      </trkpt>
      <trkpt lat="42.417049" lon="1.920304">
        <ele>1129.43506</ele>
        <time>2021-07-02T08:54:47Z</time>
      </trkpt>
      <trkpt lat="42.417198" lon="1.920360">
        <ele>1129.91089</ele>
        <time>2021-07-02T08:54:48Z</time>
      </trkpt>
      <trkpt lat="42.417347" lon="1.920416">
        <ele>1130.05042</ele>
        <time>2021-07-02T08:54:49Z</time>
      </trkpt>
      <trkpt lat="42.417511" lon="1.920477">
        <ele>1130.61267</ele>
        <time>2021-07-02T08:54:50Z</time>
      </trkpt>
      <trkpt lat="42.417664" lon="1.920536">
        <ele>1130.75696</ele>
        <time>2021-07-02T08:54:51Z</time>
      </trkpt>
      <trkpt lat="42.417839" lon="1.920601">
        <ele>1130.66943</ele>
        <time>2021-07-02T08:54:52Z</time>
      </trkpt>
      <trkpt lat="42.418026" lon="1.920672">
        <ele>1130.89270</ele>
        <time>2021-07-02T08:54:53Z</time>
      </trkpt>
      <trkpt lat="42.418205" lon="1.920740">
        <ele>1131.30249</ele>
        <time>2021-07-02T08:54:54Z</time>
      </trkpt>
      <trkpt lat="42.418373" lon="1.920804">
        <ele>1131.75244</ele>
        <time>2021-07-02T08:54:55Z</time>
      </trkpt>
      <trkpt lat="42.418537" lon="1.920865">
        <ele>1131.83728</ele>
        <time>2021-07-02T08:54:56Z</time>
      </trkpt>
      <trkpt lat="42.418705" lon="1.920928">
        <ele>1131.79358</ele>
        <time>2021-07-02T08:54:57Z</time>
      </trkpt>
      <trkpt lat="42.418880" lon="1.920994">
        <ele>1131.96472</ele>
        <time>2021-07-02T08:54:58Z</time>
      </trkpt>
      <trkpt lat="42.419071" lon="1.921067">
        <ele>1131.56860</ele>
        <time>2021-07-02T08:54:59Z</time>
      </trkpt>
      <trkpt lat="42.419254" lon="1.921135">
        <ele>1131.74646</ele>
        <time>2021-07-02T08:55:00Z</time>
      </trkpt>
      <trkpt lat="42.419403" lon="1.921192">
        <ele>1133.06860</ele>
        <time>2021-07-02T08:55:01Z</time>
      </trkpt>
      <trkpt lat="42.419567" lon="1.921256">
        <ele>1133.33887</ele>
        <time>2021-07-02T08:55:02Z</time>
      </trkpt>
      <trkpt lat="42.419704" lon="1.921307">
        <ele>1132.33655</ele>
        <time>2021-07-02T08:55:03Z</time>
      </trkpt>
      <trkpt lat="42.419872" lon="1.921372">
        <ele>1133.21973</ele>
        <time>2021-07-02T08:55:04Z</time>
      </trkpt>
      <trkpt lat="42.420040" lon="1.921437">
        <ele>1133.55859</ele>
        <time>2021-07-02T08:55:05Z</time>
      </trkpt>
      <trkpt lat="42.420197" lon="1.921497">
        <ele>1133.31128</ele>
        <time>2021-07-02T08:55:06Z</time>
      </trkpt>
      <trkpt lat="42.420353" lon="1.921557">
        <ele>1133.46277</ele>
        <time>2021-07-02T08:55:07Z</time>
      </trkpt>
      <trkpt lat="42.420509" lon="1.921612">
        <ele>1132.91943</ele>
        <time>2021-07-02T08:55:08Z</time>
      </trkpt>
      <trkpt lat="42.420509" lon="1.921612">
        <ele>1133.71631</ele>
        <time>2021-07-02T08:55:09Z</time>
      </trkpt>
      <trkpt lat="42.420666" lon="1.921669">
        <ele>1133.18188</ele>
        <time>2021-07-02T08:55:10Z</time>
      </trkpt>
      <trkpt lat="42.420834" lon="1.921729">
        <ele>1132.87109</ele>
        <time>2021-07-02T08:55:11Z</time>
      </trkpt>
      <trkpt lat="42.420998" lon="1.921791">
        <ele>1133.37573</ele>
        <time>2021-07-02T08:55:12Z</time>
      </trkpt>
      <trkpt lat="42.421165" lon="1.921853">
        <ele>1133.40027</ele>
        <time>2021-07-02T08:55:13Z</time>
      </trkpt>
      <trkpt lat="42.421329" lon="1.921916">
        <ele>1133.78406</ele>
        <time>2021-07-02T08:55:14Z</time>
      </trkpt>
      <trkpt lat="42.421494" lon="1.921977">
        <ele>1133.67761</ele>
        <time>2021-07-02T08:55:15Z</time>
      </trkpt>
      <trkpt lat="42.421677" lon="1.922047">
        <ele>1133.34595</ele>
        <time>2021-07-02T08:55:16Z</time>
      </trkpt>
      <trkpt lat="42.421860" lon="1.922117">
        <ele>1132.61377</ele>
        <time>2021-07-02T08:55:17Z</time>
      </trkpt>
      <trkpt lat="42.422031" lon="1.922182">
        <ele>1133.24866</ele>
        <time>2021-07-02T08:55:18Z</time>
      </trkpt>
      <trkpt lat="42.422207" lon="1.922248">
        <ele>1133.30444</ele>
        <time>2021-07-02T08:55:19Z</time>
      </trkpt>
      <trkpt lat="42.422382" lon="1.922314">
        <ele>1134.51672</ele>
        <time>2021-07-02T08:55:20Z</time>
      </trkpt>
      <trkpt lat="42.422543" lon="1.922375">
        <ele>1134.87952</ele>
        <time>2021-07-02T08:55:21Z</time>
      </trkpt>
      <trkpt lat="42.422703" lon="1.922435">
        <ele>1135.06543</ele>
        <time>2021-07-02T08:55:22Z</time>
      </trkpt>
      <trkpt lat="42.422871" lon="1.922498">
        <ele>1134.67542</ele>
        <time>2021-07-02T08:55:23Z</time>
      </trkpt>
      <trkpt lat="42.423027" lon="1.922556">
        <ele>1134.97717</ele>
        <time>2021-07-02T08:55:24Z</time>
      </trkpt>
      <trkpt lat="42.423149" lon="1.922602">
        <ele>1135.53394</ele>
        <time>2021-07-02T08:55:25Z</time>
      </trkpt>
      <trkpt lat="42.423271" lon="1.922647">
        <ele>1134.80896</ele>
        <time>2021-07-02T08:55:26Z</time>
      </trkpt>
      <trkpt lat="42.423382" lon="1.922688">
        <ele>1135.59363</ele>
        <time>2021-07-02T08:55:27Z</time>
      </trkpt>
      <trkpt lat="42.423473" lon="1.922722">
        <ele>1135.79724</ele>
        <time>2021-07-02T08:55:28Z</time>
      </trkpt>
      <trkpt lat="42.423584" lon="1.922764">
        <ele>1136.36487</ele>
        <time>2021-07-02T08:55:29Z</time>
      </trkpt>
      <trkpt lat="42.423676" lon="1.922800">
        <ele>1137.00989</ele>
        <time>2021-07-02T08:55:30Z</time>
      </trkpt>
      <trkpt lat="42.423740" lon="1.922823">
        <ele>1138.16956</ele>
        <time>2021-07-02T08:55:31Z</time>
      </trkpt>
      <trkpt lat="42.423801" lon="1.922847">
        <ele>1139.18274</ele>
        <time>2021-07-02T08:55:32Z</time>
      </trkpt>
      <trkpt lat="42.423882" lon="1.922876">
        <ele>1138.99377</ele>
        <time>2021-07-02T08:55:33Z</time>
      </trkpt>
      <trkpt lat="42.423958" lon="1.922905">
        <ele>1139.21692</ele>
        <time>2021-07-02T08:55:34Z</time>
      </trkpt>
      <trkpt lat="42.423996" lon="1.922920">
        <ele>1139.14905</ele>
        <time>2021-07-02T08:55:35Z</time>
      </trkpt>
      <trkpt lat="42.424053" lon="1.922941">
        <ele>1139.52612</ele>
        <time>2021-07-02T08:55:36Z</time>
      </trkpt>
      <trkpt lat="42.424107" lon="1.922962">
        <ele>1139.35059</ele>
        <time>2021-07-02T08:55:37Z</time>
      </trkpt>
      <trkpt lat="42.424160" lon="1.922982">
        <ele>1139.43750</ele>
        <time>2021-07-02T08:55:38Z</time>
      </trkpt>
      <trkpt lat="42.424213" lon="1.923002">
        <ele>1139.69373</ele>
        <time>2021-07-02T08:55:39Z</time>
      </trkpt>
      <trkpt lat="42.424213" lon="1.923002">
        <ele>1139.79370</ele>
        <time>2021-07-02T08:55:40Z</time>
      </trkpt>
      <trkpt lat="42.424328" lon="1.923045">
        <ele>1139.65967</ele>
        <time>2021-07-02T08:55:41Z</time>
      </trkpt>
      <trkpt lat="42.424328" lon="1.923045">
        <ele>1139.04956</ele>
        <time>2021-07-02T08:55:42Z</time>
      </trkpt>
      <trkpt lat="42.424389" lon="1.923067">
        <ele>1139.56433</ele>
        <time>2021-07-02T08:55:43Z</time>
      </trkpt>
      <trkpt lat="42.424454" lon="1.923091">
        <ele>1139.65967</ele>
        <time>2021-07-02T08:55:44Z</time>
      </trkpt>
      <trkpt lat="42.424515" lon="1.923114">
        <ele>1139.99316</ele>
        <time>2021-07-02T08:55:45Z</time>
      </trkpt>
      <trkpt lat="42.424568" lon="1.923134">
        <ele>1139.74902</ele>
        <time>2021-07-02T08:55:46Z</time>
      </trkpt>
      <trkpt lat="42.424629" lon="1.923158">
        <ele>1140.17358</ele>
        <time>2021-07-02T08:55:47Z</time>
      </trkpt>
      <trkpt lat="42.424690" lon="1.923180">
        <ele>1140.38013</ele>
        <time>2021-07-02T08:55:48Z</time>
      </trkpt>
      <trkpt lat="42.424740" lon="1.923207">
        <ele>1140.67480</ele>
        <time>2021-07-02T08:55:49Z</time>
      </trkpt>
      <trkpt lat="42.424797" lon="1.923244">
        <ele>1141.22974</ele>
        <time>2021-07-02T08:55:50Z</time>
      </trkpt>
      <trkpt lat="42.424873" lon="1.923279">
        <ele>1141.40222</ele>
        <time>2021-07-02T08:55:51Z</time>
      </trkpt>
      <trkpt lat="42.424961" lon="1.923333">
        <ele>1141.65833</ele>
        <time>2021-07-02T08:55:52Z</time>
      </trkpt>
      <trkpt lat="42.425037" lon="1.923399">
        <ele>1141.93530</ele>
        <time>2021-07-02T08:55:53Z</time>
      </trkpt>
      <trkpt lat="42.425095" lon="1.923450">
        <ele>1142.35815</ele>
        <time>2021-07-02T08:55:54Z</time>
      </trkpt>
      <trkpt lat="42.425137" lon="1.923500">
        <ele>1142.80518</ele>
        <time>2021-07-02T08:55:55Z</time>
      </trkpt>
      <trkpt lat="42.425194" lon="1.923567">
        <ele>1142.85291</ele>
        <time>2021-07-02T08:55:56Z</time>
      </trkpt>
      <trkpt lat="42.425255" lon="1.923639">
        <ele>1143.56946</ele>
        <time>2021-07-02T08:55:57Z</time>
      </trkpt>
      <trkpt lat="42.425308" lon="1.923731">
        <ele>1143.78149</ele>
        <time>2021-07-02T08:55:58Z</time>
      </trkpt>
      <trkpt lat="42.425385" lon="1.923825">
        <ele>1143.80701</ele>
        <time>2021-07-02T08:55:59Z</time>
      </trkpt>
      <trkpt lat="42.425392" lon="1.923831">
        <ele>1143.47034</ele>
        <time>2021-07-02T08:56:00Z</time>
      </trkpt>
      <trkpt lat="42.425583" lon="1.923878">
        <ele>1143.72266</ele>
        <time>2021-07-02T08:56:01Z</time>
      </trkpt>
      <trkpt lat="42.425587" lon="1.924218">
        <ele>1143.82947</ele>
        <time>2021-07-02T08:56:02Z</time>
      </trkpt>
      <trkpt lat="42.425629" lon="1.924369">
        <ele>1143.43481</ele>
        <time>2021-07-02T08:56:03Z</time>
      </trkpt>
      <trkpt lat="42.425659" lon="1.924529">
        <ele>1142.70886</ele>
        <time>2021-07-02T08:56:04Z</time>
      </trkpt>
      <trkpt lat="42.425674" lon="1.924678">
        <ele>1142.15088</ele>
        <time>2021-07-02T08:56:05Z</time>
      </trkpt>
      <trkpt lat="42.425694" lon="1.924872">
        <ele>1142.11511</ele>
        <time>2021-07-02T08:56:06Z</time>
      </trkpt>
      <trkpt lat="42.425694" lon="1.924872">
        <ele>1142.64648</ele>
        <time>2021-07-02T08:56:09Z</time>
      </trkpt>
      <trkpt lat="42.425713" lon="1.925070">
        <ele>1142.64648</ele>
        <time>2021-07-02T08:56:09Z</time>
      </trkpt>
      <trkpt lat="42.425735" lon="1.925285">
        <ele>1142.64648</ele>
        <time>2021-07-02T08:56:09Z</time>
      </trkpt>
      <trkpt lat="42.425735" lon="1.925285">
        <ele>1141.87012</ele>
        <time>2021-07-02T08:56:10Z</time>
      </trkpt>
      <trkpt lat="42.425747" lon="1.925400">
        <ele>1141.27576</ele>
        <time>2021-07-02T08:56:11Z</time>
      </trkpt>
      <trkpt lat="42.425762" lon="1.925548">
        <ele>1141.00171</ele>
        <time>2021-07-02T08:56:12Z</time>
      </trkpt>
      <trkpt lat="42.425789" lon="1.925804">
        <ele>1140.47852</ele>
        <time>2021-07-02T08:56:13Z</time>
      </trkpt>
      <trkpt lat="42.425819" lon="1.926050">
        <ele>1140.90613</ele>
        <time>2021-07-02T08:56:14Z</time>
      </trkpt>
      <trkpt lat="42.425865" lon="1.926207">
        <ele>1141.81201</ele>
        <time>2021-07-02T08:56:15Z</time>
      </trkpt>
      <trkpt lat="42.425926" lon="1.926351">
        <ele>1142.00708</ele>
        <time>2021-07-02T08:56:16Z</time>
      </trkpt>
      <trkpt lat="42.425991" lon="1.926477">
        <ele>1142.43958</ele>
        <time>2021-07-02T08:56:17Z</time>
      </trkpt>
      <trkpt lat="42.426067" lon="1.926599">
        <ele>1142.79211</ele>
        <time>2021-07-02T08:56:18Z</time>
      </trkpt>
      <trkpt lat="42.426086" lon="1.926625">
        <ele>1143.59570</ele>
        <time>2021-07-02T08:56:19Z</time>
      </trkpt>
      <trkpt lat="42.426086" lon="1.926630">
        <ele>1143.17847</ele>
        <time>2021-07-02T08:56:20Z</time>
      </trkpt>
      <trkpt lat="42.426109" lon="1.926659">
        <ele>1143.57788</ele>
        <time>2021-07-02T08:56:21Z</time>
      </trkpt>
      <trkpt lat="42.426117" lon="1.926669">
        <ele>1143.38635</ele>
        <time>2021-07-02T08:56:22Z</time>
      </trkpt>
      <trkpt lat="42.426125" lon="1.926681">
        <ele>1144.41614</ele>
        <time>2021-07-02T08:56:23Z</time>
      </trkpt>
      <trkpt lat="42.426155" lon="1.926721">
        <ele>1145.41162</ele>
        <time>2021-07-02T08:56:24Z</time>
      </trkpt>
      <trkpt lat="42.426186" lon="1.926765">
        <ele>1145.43091</ele>
        <time>2021-07-02T08:56:25Z</time>
      </trkpt>
      <trkpt lat="42.426220" lon="1.926811">
        <ele>1145.86511</ele>
        <time>2021-07-02T08:56:26Z</time>
      </trkpt>
      <trkpt lat="42.426262" lon="1.926868">
        <ele>1145.85962</ele>
        <time>2021-07-02T08:56:27Z</time>
      </trkpt>
      <trkpt lat="42.426308" lon="1.926931">
        <ele>1144.83386</ele>
        <time>2021-07-02T08:56:28Z</time>
      </trkpt>
      <trkpt lat="42.426342" lon="1.926980">
        <ele>1144.84241</ele>
        <time>2021-07-02T08:56:29Z</time>
      </trkpt>
      <trkpt lat="42.426418" lon="1.927087">
        <ele>1145.22900</ele>
        <time>2021-07-02T08:56:30Z</time>
      </trkpt>
      <trkpt lat="42.426483" lon="1.927177">
        <ele>1144.52429</ele>
        <time>2021-07-02T08:56:31Z</time>
      </trkpt>
      <trkpt lat="42.426537" lon="1.927245">
        <ele>1144.32812</ele>
        <time>2021-07-02T08:56:32Z</time>
      </trkpt>
      <trkpt lat="42.426605" lon="1.927341">
        <ele>1144.60181</ele>
        <time>2021-07-02T08:56:33Z</time>
      </trkpt>
      <trkpt lat="42.426655" lon="1.927415">
        <ele>1140.07642</ele>
        <time>2021-07-02T08:56:34Z</time>
      </trkpt>
      <trkpt lat="42.426712" lon="1.927495">
        <ele>1140.17932</ele>
        <time>2021-07-02T08:56:35Z</time>
      </trkpt>
      <trkpt lat="42.426758" lon="1.927557">
        <ele>1140.10229</ele>
        <time>2021-07-02T08:56:36Z</time>
      </trkpt>
      <trkpt lat="42.426819" lon="1.927643">
        <ele>1140.26367</ele>
        <time>2021-07-02T08:56:37Z</time>
      </trkpt>
      <trkpt lat="42.426819" lon="1.927643">
        <ele>1140.20312</ele>
        <time>2021-07-02T08:56:38Z</time>
      </trkpt>
      <trkpt lat="42.426853" lon="1.927690">
        <ele>1140.31970</ele>
        <time>2021-07-02T08:56:39Z</time>
      </trkpt>
      <trkpt lat="42.426880" lon="1.927725">
        <ele>1140.37769</ele>
        <time>2021-07-02T08:56:40Z</time>
      </trkpt>
      <trkpt lat="42.426888" lon="1.927758">
        <ele>1140.69421</ele>
        <time>2021-07-02T08:56:41Z</time>
      </trkpt>
      <trkpt lat="42.426838" lon="1.927890">
        <ele>1140.96375</ele>
        <time>2021-07-02T08:56:42Z</time>
      </trkpt>
      <trkpt lat="42.426853" lon="1.928060">
        <ele>1141.22852</ele>
        <time>2021-07-02T08:56:43Z</time>
      </trkpt>
      <trkpt lat="42.426880" lon="1.928150">
        <ele>1141.44580</ele>
        <time>2021-07-02T08:56:44Z</time>
      </trkpt>
      <trkpt lat="42.426929" lon="1.928235">
        <ele>1141.51892</ele>
        <time>2021-07-02T08:56:45Z</time>
      </trkpt>
      <trkpt lat="42.426994" lon="1.928321">
        <ele>1141.63013</ele>
        <time>2021-07-02T08:56:46Z</time>
      </trkpt>
      <trkpt lat="42.427052" lon="1.928368">
        <ele>1141.63696</ele>
        <time>2021-07-02T08:56:47Z</time>
      </trkpt>
      <trkpt lat="42.427052" lon="1.928368">
        <ele>1141.56531</ele>
        <time>2021-07-02T08:56:48Z</time>
      </trkpt>
      <trkpt lat="42.427052" lon="1.928368">
        <ele>1141.39661</ele>
        <time>2021-07-02T08:56:49Z</time>
      </trkpt>
      <trkpt lat="42.427052" lon="1.928368">
        <ele>1141.54614</ele>
        <time>2021-07-02T08:56:50Z</time>
      </trkpt>
      <trkpt lat="42.427052" lon="1.928368">
        <ele>1141.57227</ele>
        <time>2021-07-02T08:56:51Z</time>
      </trkpt>
      <trkpt lat="42.427181" lon="1.928375">
        <ele>1141.58521</ele>
        <time>2021-07-02T08:56:52Z</time>
      </trkpt>
      <trkpt lat="42.427197" lon="1.928366">
        <ele>1141.57825</ele>
        <time>2021-07-02T08:56:53Z</time>
      </trkpt>
      <trkpt lat="42.427197" lon="1.928366">
        <ele>1141.31287</ele>
        <time>2021-07-02T08:56:54Z</time>
      </trkpt>
      <trkpt lat="42.427197" lon="1.928366">
        <ele>1141.04126</ele>
        <time>2021-07-02T08:56:55Z</time>
      </trkpt>
      <trkpt lat="42.427197" lon="1.928366">
        <ele>1141.13684</ele>
        <time>2021-07-02T08:56:56Z</time>
      </trkpt>
      <trkpt lat="42.427197" lon="1.928366">
        <ele>1141.14050</ele>
        <time>2021-07-02T08:56:57Z</time>
      </trkpt>
      <trkpt lat="42.427197" lon="1.928366">
        <ele>1141.32983</ele>
        <time>2021-07-02T08:56:58Z</time>
      </trkpt>
      <trkpt lat="42.427197" lon="1.928366">
        <ele>1141.35852</ele>
        <time>2021-07-02T08:56:59Z</time>
      </trkpt>
      <trkpt lat="42.427197" lon="1.928366">
        <ele>1141.35205</ele>
        <time>2021-07-02T08:57:00Z</time>
      </trkpt>
      <trkpt lat="42.427197" lon="1.928366">
        <ele>1141.37964</ele>
        <time>2021-07-02T08:57:01Z</time>
      </trkpt>
      <trkpt lat="42.427197" lon="1.928366">
        <ele>1141.38013</ele>
        <time>2021-07-02T08:57:02Z</time>
      </trkpt>
      <trkpt lat="42.427197" lon="1.928366">
        <ele>1141.43164</ele>
        <time>2021-07-02T08:57:03Z</time>
      </trkpt>
      <trkpt lat="42.427197" lon="1.928366">
        <ele>1141.55200</ele>
        <time>2021-07-02T08:57:04Z</time>
      </trkpt>
      <trkpt lat="42.427197" lon="1.928366">
        <ele>1141.50244</ele>
        <time>2021-07-02T08:57:05Z</time>
      </trkpt>
      <trkpt lat="42.427197" lon="1.928366">
        <ele>1141.56982</ele>
        <time>2021-07-02T08:57:06Z</time>
      </trkpt>
      <trkpt lat="42.427197" lon="1.928366">
        <ele>1141.53540</ele>
        <time>2021-07-02T08:57:07Z</time>
      </trkpt>
      <trkpt lat="42.427197" lon="1.928366">
        <ele>1141.66370</ele>
        <time>2021-07-02T08:57:08Z</time>
      </trkpt>
      <trkpt lat="42.427197" lon="1.928366">
        <ele>1141.68347</ele>
        <time>2021-07-02T08:57:09Z</time>
      </trkpt>
      <trkpt lat="42.427197" lon="1.928366">
        <ele>1141.78613</ele>
        <time>2021-07-02T08:57:10Z</time>
      </trkpt>
      <trkpt lat="42.427197" lon="1.928366">
        <ele>1141.87524</ele>
        <time>2021-07-02T08:57:11Z</time>
      </trkpt>
      <trkpt lat="42.427197" lon="1.928366">
        <ele>1141.88098</ele>
        <time>2021-07-02T08:57:12Z</time>
      </trkpt>
      <trkpt lat="42.427197" lon="1.928366">
        <ele>1141.86792</ele>
        <time>2021-07-02T08:57:13Z</time>
      </trkpt>
      <trkpt lat="42.427197" lon="1.928366">
        <ele>1141.90674</ele>
        <time>2021-07-02T08:57:14Z</time>
      </trkpt>
      <trkpt lat="42.427197" lon="1.928366">
        <ele>1141.92261</ele>
        <time>2021-07-02T08:57:15Z</time>
      </trkpt>
      <trkpt lat="42.427197" lon="1.928366">
        <ele>1141.99072</ele>
        <time>2021-07-02T08:57:16Z</time>
      </trkpt>
      <trkpt lat="42.427197" lon="1.928366">
        <ele>1141.99634</ele>
        <time>2021-07-02T08:57:17Z</time>
      </trkpt>
      <trkpt lat="42.427197" lon="1.928366">
        <ele>1142.07117</ele>
        <time>2021-07-02T08:57:18Z</time>
      </trkpt>
      <trkpt lat="42.427197" lon="1.928366">
        <ele>1142.12268</ele>
        <time>2021-07-02T08:57:19Z</time>
      </trkpt>
      <trkpt lat="42.427197" lon="1.928366">
        <ele>1142.14404</ele>
        <time>2021-07-02T08:57:20Z</time>
      </trkpt>
      <trkpt lat="42.427197" lon="1.928366">
        <ele>1142.19849</ele>
        <time>2021-07-02T08:57:21Z</time>
      </trkpt>
      <trkpt lat="42.427197" lon="1.928366">
        <ele>1142.15710</ele>
        <time>2021-07-02T08:57:22Z</time>
      </trkpt>
      <trkpt lat="42.427197" lon="1.928366">
        <ele>1142.29553</ele>
        <time>2021-07-02T08:57:23Z</time>
      </trkpt>
      <trkpt lat="42.427197" lon="1.928366">
        <ele>1142.30566</ele>
        <time>2021-07-02T08:57:24Z</time>
      </trkpt>
      <trkpt lat="42.427197" lon="1.928366">
        <ele>1142.27588</ele>
        <time>2021-07-02T08:57:25Z</time>
      </trkpt>
      <trkpt lat="42.427197" lon="1.928366">
        <ele>1142.34314</ele>
        <time>2021-07-02T08:57:26Z</time>
      </trkpt>
      <trkpt lat="42.427197" lon="1.928366">
        <ele>1142.38635</ele>
        <time>2021-07-02T08:57:27Z</time>
      </trkpt>
      <trkpt lat="42.427197" lon="1.928366">
        <ele>1142.43713</ele>
        <time>2021-07-02T08:57:28Z</time>
      </trkpt>
      <trkpt lat="42.427197" lon="1.928366">
        <ele>1142.54663</ele>
        <time>2021-07-02T08:57:29Z</time>
      </trkpt>
      <trkpt lat="42.427197" lon="1.928366">
        <ele>1142.55103</ele>
        <time>2021-07-02T08:57:30Z</time>
      </trkpt>
      <trkpt lat="42.427197" lon="1.928366">
        <ele>1142.58276</ele>
        <time>2021-07-02T08:57:31Z</time>
      </trkpt>
      <trkpt lat="42.427197" lon="1.928366">
        <ele>1142.67175</ele>
        <time>2021-07-02T08:57:32Z</time>
      </trkpt>
      <trkpt lat="42.427197" lon="1.928366">
        <ele>1142.66223</ele>
        <time>2021-07-02T08:57:33Z</time>
      </trkpt>
      <trkpt lat="42.427197" lon="1.928366">
        <ele>1142.74158</ele>
        <time>2021-07-02T08:57:34Z</time>
      </trkpt>
      <trkpt lat="42.427197" lon="1.928366">
        <ele>1142.82361</ele>
        <time>2021-07-02T08:57:35Z</time>
      </trkpt>
      <trkpt lat="42.427197" lon="1.928366">
        <ele>1142.84595</ele>
        <time>2021-07-02T08:57:36Z</time>
      </trkpt>
      <trkpt lat="42.427197" lon="1.928366">
        <ele>1142.91284</ele>
        <time>2021-07-02T08:57:37Z</time>
      </trkpt>
      <trkpt lat="42.427197" lon="1.928366">
        <ele>1142.98828</ele>
        <time>2021-07-02T08:57:38Z</time>
      </trkpt>
      <trkpt lat="42.427197" lon="1.928366">
        <ele>1143.06079</ele>
        <time>2021-07-02T08:57:39Z</time>
      </trkpt>
      <trkpt lat="42.427197" lon="1.928366">
        <ele>1143.12012</ele>
        <time>2021-07-02T08:57:40Z</time>
      </trkpt>
      <trkpt lat="42.427197" lon="1.928366">
        <ele>1143.17810</ele>
        <time>2021-07-02T08:57:41Z</time>
      </trkpt>
      <trkpt lat="42.427197" lon="1.928366">
        <ele>1143.23120</ele>
        <time>2021-07-02T08:57:42Z</time>
      </trkpt>
      <trkpt lat="42.427197" lon="1.928366">
        <ele>1143.36743</ele>
        <time>2021-07-02T08:57:43Z</time>
      </trkpt>
      <trkpt lat="42.427197" lon="1.928366">
        <ele>1143.32874</ele>
        <time>2021-07-02T08:57:44Z</time>
      </trkpt>
      <trkpt lat="42.427197" lon="1.928366">
        <ele>1143.50085</ele>
        <time>2021-07-02T08:57:45Z</time>
      </trkpt>
      <trkpt lat="42.427197" lon="1.928366">
        <ele>1143.58630</ele>
        <time>2021-07-02T08:57:46Z</time>
      </trkpt>
      <trkpt lat="42.427197" lon="1.928366">
        <ele>1143.74475</ele>
        <time>2021-07-02T08:57:47Z</time>
      </trkpt>
      <trkpt lat="42.427197" lon="1.928366">
        <ele>1143.88831</ele>
        <time>2021-07-02T08:57:48Z</time>
      </trkpt>
      <trkpt lat="42.427197" lon="1.928366">
        <ele>1143.97156</ele>
        <time>2021-07-02T08:57:49Z</time>
      </trkpt>
      <trkpt lat="42.427197" lon="1.928366">
        <ele>1143.97485</ele>
        <time>2021-07-02T08:57:50Z</time>
      </trkpt>
      <trkpt lat="42.427197" lon="1.928366">
        <ele>1144.09155</ele>
        <time>2021-07-02T08:57:51Z</time>
      </trkpt>
      <trkpt lat="42.427197" lon="1.928366">
        <ele>1144.14124</ele>
        <time>2021-07-02T08:57:52Z</time>
      </trkpt>
      <trkpt lat="42.427197" lon="1.928366">
        <ele>1144.25916</ele>
        <time>2021-07-02T08:57:53Z</time>
      </trkpt>
      <trkpt lat="42.427197" lon="1.928366">
        <ele>1144.31519</ele>
        <time>2021-07-02T08:57:54Z</time>
      </trkpt>
      <trkpt lat="42.427197" lon="1.928366">
        <ele>1144.31238</ele>
        <time>2021-07-02T08:57:55Z</time>
      </trkpt>
      <trkpt lat="42.427197" lon="1.928366">
        <ele>1144.44153</ele>
        <time>2021-07-02T08:57:56Z</time>
      </trkpt>
      <trkpt lat="42.427197" lon="1.928366">
        <ele>1144.44312</ele>
        <time>2021-07-02T08:57:57Z</time>
      </trkpt>
      <trkpt lat="42.427197" lon="1.928366">
        <ele>1144.51562</ele>
        <time>2021-07-02T08:57:58Z</time>
      </trkpt>
      <trkpt lat="42.427197" lon="1.928366">
        <ele>1144.56726</ele>
        <time>2021-07-02T08:57:59Z</time>
      </trkpt>
      <trkpt lat="42.427197" lon="1.928366">
        <ele>1144.63354</ele>
        <time>2021-07-02T08:58:00Z</time>
      </trkpt>
      <trkpt lat="42.427197" lon="1.928366">
        <ele>1144.69824</ele>
        <time>2021-07-02T08:58:01Z</time>
      </trkpt>
      <trkpt lat="42.427197" lon="1.928366">
        <ele>1144.78064</ele>
        <time>2021-07-02T08:58:02Z</time>
      </trkpt>
      <trkpt lat="42.427197" lon="1.928366">
        <ele>1144.82178</ele>
        <time>2021-07-02T08:58:03Z</time>
      </trkpt>
      <trkpt lat="42.427197" lon="1.928366">
        <ele>1144.87695</ele>
        <time>2021-07-02T08:58:04Z</time>
      </trkpt>
      <trkpt lat="42.427197" lon="1.928366">
        <ele>1144.94080</ele>
        <time>2021-07-02T08:58:05Z</time>
      </trkpt>
      <trkpt lat="42.427197" lon="1.928366">
        <ele>1145.00330</ele>
        <time>2021-07-02T08:58:06Z</time>
      </trkpt>
      <trkpt lat="42.427197" lon="1.928366">
        <ele>1144.97974</ele>
        <time>2021-07-02T08:58:07Z</time>
      </trkpt>
      <trkpt lat="42.427197" lon="1.928366">
        <ele>1145.04382</ele>
        <time>2021-07-02T08:58:08Z</time>
      </trkpt>
      <trkpt lat="42.427197" lon="1.928366">
        <ele>1145.21313</ele>
        <time>2021-07-02T08:58:09Z</time>
      </trkpt>
      <trkpt lat="42.427197" lon="1.928366">
        <ele>1145.20374</ele>
        <time>2021-07-02T08:58:10Z</time>
      </trkpt>
      <trkpt lat="42.427197" lon="1.928366">
        <ele>1145.20618</ele>
        <time>2021-07-02T08:58:11Z</time>
      </trkpt>
      <trkpt lat="42.427197" lon="1.928366">
        <ele>1145.24426</ele>
        <time>2021-07-02T08:58:12Z</time>
      </trkpt>
      <trkpt lat="42.427197" lon="1.928366">
        <ele>1145.24353</ele>
        <time>2021-07-02T08:58:13Z</time>
      </trkpt>
      <trkpt lat="42.427197" lon="1.928366">
        <ele>1145.31482</ele>
        <time>2021-07-02T08:58:14Z</time>
      </trkpt>
      <trkpt lat="42.427197" lon="1.928366">
        <ele>1145.34790</ele>
        <time>2021-07-02T08:58:15Z</time>
      </trkpt>
      <trkpt lat="42.427197" lon="1.928366">
        <ele>1145.35681</ele>
        <time>2021-07-02T08:58:16Z</time>
      </trkpt>
      <trkpt lat="42.427197" lon="1.928366">
        <ele>1145.44055</ele>
        <time>2021-07-02T08:58:17Z</time>
      </trkpt>
      <trkpt lat="42.427197" lon="1.928366">
        <ele>1145.54407</ele>
        <time>2021-07-02T08:58:18Z</time>
      </trkpt>
      <trkpt lat="42.427197" lon="1.928366">
        <ele>1145.48230</ele>
        <time>2021-07-02T08:58:19Z</time>
      </trkpt>
      <trkpt lat="42.427197" lon="1.928366">
        <ele>1145.52759</ele>
        <time>2021-07-02T08:58:20Z</time>
      </trkpt>
      <trkpt lat="42.427197" lon="1.928366">
        <ele>1145.55518</ele>
        <time>2021-07-02T08:58:21Z</time>
      </trkpt>
      <trkpt lat="42.427197" lon="1.928366">
        <ele>1145.65186</ele>
        <time>2021-07-02T08:58:22Z</time>
      </trkpt>
      <trkpt lat="42.427197" lon="1.928366">
        <ele>1145.58972</ele>
        <time>2021-07-02T08:58:23Z</time>
      </trkpt>
      <trkpt lat="42.427197" lon="1.928366">
        <ele>1145.67700</ele>
        <time>2021-07-02T08:58:24Z</time>
      </trkpt>
      <trkpt lat="42.427197" lon="1.928366">
        <ele>1145.67139</ele>
        <time>2021-07-02T08:58:25Z</time>
      </trkpt>
      <trkpt lat="42.427197" lon="1.928366">
        <ele>1145.71875</ele>
        <time>2021-07-02T08:58:26Z</time>
      </trkpt>
      <trkpt lat="42.427197" lon="1.928366">
        <ele>1145.78992</ele>
        <time>2021-07-02T08:58:27Z</time>
      </trkpt>
      <trkpt lat="42.427197" lon="1.928366">
        <ele>1145.73975</ele>
        <time>2021-07-02T08:58:28Z</time>
      </trkpt>
      <trkpt lat="42.427197" lon="1.928366">
        <ele>1145.88696</ele>
        <time>2021-07-02T08:58:29Z</time>
      </trkpt>
      <trkpt lat="42.427197" lon="1.928366">
        <ele>1145.81726</ele>
        <time>2021-07-02T08:58:30Z</time>
      </trkpt>
      <trkpt lat="42.427197" lon="1.928366">
        <ele>1145.82532</ele>
        <time>2021-07-02T08:58:31Z</time>
      </trkpt>
      <trkpt lat="42.427197" lon="1.928366">
        <ele>1145.72778</ele>
        <time>2021-07-02T08:58:32Z</time>
      </trkpt>
      <trkpt lat="42.427197" lon="1.928366">
        <ele>1145.77039</ele>
        <time>2021-07-02T08:58:33Z</time>
      </trkpt>
      <trkpt lat="42.427197" lon="1.928366">
        <ele>1145.85425</ele>
        <time>2021-07-02T08:58:34Z</time>
      </trkpt>
      <trkpt lat="42.427197" lon="1.928366">
        <ele>1145.95105</ele>
        <time>2021-07-02T08:58:35Z</time>
      </trkpt>
      <trkpt lat="42.427197" lon="1.928366">
        <ele>1145.88770</ele>
        <time>2021-07-02T08:58:36Z</time>
      </trkpt>
      <trkpt lat="42.427197" lon="1.928366">
        <ele>1145.89355</ele>
        <time>2021-07-02T08:58:37Z</time>
      </trkpt>
      <trkpt lat="42.427197" lon="1.928366">
        <ele>1145.83667</ele>
        <time>2021-07-02T08:58:38Z</time>
      </trkpt>
      <trkpt lat="42.427197" lon="1.928366">
        <ele>1145.96667</ele>
        <time>2021-07-02T08:58:39Z</time>
      </trkpt>
      <trkpt lat="42.427197" lon="1.928366">
        <ele>1145.89062</ele>
        <time>2021-07-02T08:58:40Z</time>
      </trkpt>
      <trkpt lat="42.427197" lon="1.928366">
        <ele>1145.85779</ele>
        <time>2021-07-02T08:58:41Z</time>
      </trkpt>
      <trkpt lat="42.427197" lon="1.928366">
        <ele>1145.94397</ele>
        <time>2021-07-02T08:58:42Z</time>
      </trkpt>
      <trkpt lat="42.427197" lon="1.928366">
        <ele>1145.96338</ele>
        <time>2021-07-02T08:58:43Z</time>
      </trkpt>
      <trkpt lat="42.427197" lon="1.928366">
        <ele>1146.02673</ele>
        <time>2021-07-02T08:58:44Z</time>
      </trkpt>
      <trkpt lat="42.427197" lon="1.928366">
        <ele>1145.99756</ele>
        <time>2021-07-02T08:58:45Z</time>
      </trkpt>
      <trkpt lat="42.427197" lon="1.928366">
        <ele>1146.06702</ele>
        <time>2021-07-02T08:58:46Z</time>
      </trkpt>
      <trkpt lat="42.427197" lon="1.928366">
        <ele>1146.09900</ele>
        <time>2021-07-02T08:58:47Z</time>
      </trkpt>
      <trkpt lat="42.427197" lon="1.928366">
        <ele>1146.20483</ele>
        <time>2021-07-02T08:58:48Z</time>
      </trkpt>
      <trkpt lat="42.427197" lon="1.928366">
        <ele>1146.13110</ele>
        <time>2021-07-02T08:58:49Z</time>
      </trkpt>
      <trkpt lat="42.427197" lon="1.928366">
        <ele>1146.15723</ele>
        <time>2021-07-02T08:58:50Z</time>
      </trkpt>
      <trkpt lat="42.427197" lon="1.928366">
        <ele>1146.08240</ele>
        <time>2021-07-02T08:58:51Z</time>
      </trkpt>
      <trkpt lat="42.427197" lon="1.928366">
        <ele>1146.18140</ele>
        <time>2021-07-02T08:58:52Z</time>
      </trkpt>
      <trkpt lat="42.427197" lon="1.928366">
        <ele>1146.15234</ele>
        <time>2021-07-02T08:58:53Z</time>
      </trkpt>
      <trkpt lat="42.427197" lon="1.928366">
        <ele>1146.18469</ele>
        <time>2021-07-02T08:58:54Z</time>
      </trkpt>
      <trkpt lat="42.427197" lon="1.928366">
        <ele>1146.18640</ele>
        <time>2021-07-02T08:58:55Z</time>
      </trkpt>
      <trkpt lat="42.427197" lon="1.928366">
        <ele>1146.26343</ele>
        <time>2021-07-02T08:58:56Z</time>
      </trkpt>
      <trkpt lat="42.427197" lon="1.928366">
        <ele>1146.21912</ele>
        <time>2021-07-02T08:58:57Z</time>
      </trkpt>
      <trkpt lat="42.427197" lon="1.928366">
        <ele>1146.26709</ele>
        <time>2021-07-02T08:58:58Z</time>
      </trkpt>
      <trkpt lat="42.427197" lon="1.928366">
        <ele>1146.37415</ele>
        <time>2021-07-02T08:58:59Z</time>
      </trkpt>
      <trkpt lat="42.427197" lon="1.928366">
        <ele>1146.34863</ele>
        <time>2021-07-02T08:59:00Z</time>
      </trkpt>
      <trkpt lat="42.427197" lon="1.928366">
        <ele>1146.36462</ele>
        <time>2021-07-02T08:59:01Z</time>
      </trkpt>
      <trkpt lat="42.427197" lon="1.928366">
        <ele>1147.80725</ele>
        <time>2021-07-02T08:59:02Z</time>
      </trkpt>
      <trkpt lat="42.427197" lon="1.928366">
        <ele>1148.11902</ele>
        <time>2021-07-02T08:59:03Z</time>
      </trkpt>
      <trkpt lat="42.427197" lon="1.928366">
        <ele>1146.49756</ele>
        <time>2021-07-02T08:59:04Z</time>
      </trkpt>
      <trkpt lat="42.427197" lon="1.928366">
        <ele>1146.65735</ele>
        <time>2021-07-02T08:59:05Z</time>
      </trkpt>
      <trkpt lat="42.427197" lon="1.928366">
        <ele>1146.67517</ele>
        <time>2021-07-02T08:59:06Z</time>
      </trkpt>
      <trkpt lat="42.427197" lon="1.928366">
        <ele>1146.68066</ele>
        <time>2021-07-02T08:59:07Z</time>
      </trkpt>
      <trkpt lat="42.427197" lon="1.928366">
        <ele>1146.65283</ele>
        <time>2021-07-02T08:59:08Z</time>
      </trkpt>
      <trkpt lat="42.427197" lon="1.928366">
        <ele>1146.75427</ele>
        <time>2021-07-02T08:59:09Z</time>
      </trkpt>
      <trkpt lat="42.427197" lon="1.928366">
        <ele>1146.76392</ele>
        <time>2021-07-02T08:59:10Z</time>
      </trkpt>
      <trkpt lat="42.427197" lon="1.928366">
        <ele>1146.75110</ele>
        <time>2021-07-02T08:59:11Z</time>
      </trkpt>
      <trkpt lat="42.427197" lon="1.928366">
        <ele>1146.84692</ele>
        <time>2021-07-02T08:59:12Z</time>
      </trkpt>
      <trkpt lat="42.427197" lon="1.928366">
        <ele>1146.86792</ele>
        <time>2021-07-02T08:59:13Z</time>
      </trkpt>
      <trkpt lat="42.427197" lon="1.928366">
        <ele>1146.86499</ele>
        <time>2021-07-02T08:59:14Z</time>
      </trkpt>
      <trkpt lat="42.427197" lon="1.928366">
        <ele>1146.88379</ele>
        <time>2021-07-02T08:59:15Z</time>
      </trkpt>
      <trkpt lat="42.427197" lon="1.928366">
        <ele>1146.99207</ele>
        <time>2021-07-02T08:59:16Z</time>
      </trkpt>
      <trkpt lat="42.427197" lon="1.928366">
        <ele>1146.93640</ele>
        <time>2021-07-02T08:59:17Z</time>
      </trkpt>
      <trkpt lat="42.427197" lon="1.928366">
        <ele>1147.04639</ele>
        <time>2021-07-02T08:59:18Z</time>
      </trkpt>
      <trkpt lat="42.427197" lon="1.928366">
        <ele>1146.19202</ele>
        <time>2021-07-02T08:59:19Z</time>
      </trkpt>
      <trkpt lat="42.427197" lon="1.928366">
        <ele>1144.27600</ele>
        <time>2021-07-02T08:59:20Z</time>
      </trkpt>
      <trkpt lat="42.427197" lon="1.928366">
        <ele>1146.96338</ele>
        <time>2021-07-02T08:59:21Z</time>
      </trkpt>
      <trkpt lat="42.427197" lon="1.928366">
        <ele>1147.66699</ele>
        <time>2021-07-02T08:59:22Z</time>
      </trkpt>
      <trkpt lat="42.427197" lon="1.928366">
        <ele>1148.05164</ele>
        <time>2021-07-02T08:59:23Z</time>
      </trkpt>
      <trkpt lat="42.427197" lon="1.928366">
        <ele>1147.32532</ele>
        <time>2021-07-02T08:59:24Z</time>
      </trkpt>
      <trkpt lat="42.427197" lon="1.928366">
        <ele>1147.63977</ele>
        <time>2021-07-02T08:59:25Z</time>
      </trkpt>
      <trkpt lat="42.427197" lon="1.928366">
        <ele>1147.72925</ele>
        <time>2021-07-02T08:59:26Z</time>
      </trkpt>
      <trkpt lat="42.427197" lon="1.928366">
        <ele>1147.76904</ele>
        <time>2021-07-02T08:59:27Z</time>
      </trkpt>
      <trkpt lat="42.427197" lon="1.928366">
        <ele>1147.81128</ele>
        <time>2021-07-02T08:59:28Z</time>
      </trkpt>
      <trkpt lat="42.427197" lon="1.928366">
        <ele>1148.83142</ele>
        <time>2021-07-02T08:59:29Z</time>
      </trkpt>
      <trkpt lat="42.427197" lon="1.928366">
        <ele>1149.01685</ele>
        <time>2021-07-02T08:59:30Z</time>
      </trkpt>
      <trkpt lat="42.427006" lon="1.929162">
        <ele>1156.15234</ele>
        <time>2021-07-02T09:00:41Z</time>
      </trkpt>
      <trkpt lat="42.427166" lon="1.928861">
        <ele>1157.52344</ele>
        <time>2021-07-02T09:00:42Z</time>
      </trkpt>
      <trkpt lat="42.427200" lon="1.928739">
        <ele>1158.92041</ele>
        <time>2021-07-02T09:00:43Z</time>
      </trkpt>
      <trkpt lat="42.427200" lon="1.928739">
        <ele>1157.14038</ele>
        <time>2021-07-02T09:00:44Z</time>
      </trkpt>
      <trkpt lat="42.427200" lon="1.928739">
        <ele>1157.19641</ele>
        <time>2021-07-02T09:00:45Z</time>
      </trkpt>
      <trkpt lat="42.427200" lon="1.928739">
        <ele>1155.92932</ele>
        <time>2021-07-02T09:00:46Z</time>
      </trkpt>
      <trkpt lat="42.427158" lon="1.928729">
        <ele>1156.06824</ele>
        <time>2021-07-02T09:00:47Z</time>
      </trkpt>
      <trkpt lat="42.427158" lon="1.928729">
        <ele>1152.71790</ele>
        <time>2021-07-02T09:00:48Z</time>
      </trkpt>
      <trkpt lat="42.427158" lon="1.928729">
        <ele>1152.26208</ele>
        <time>2021-07-02T09:00:49Z</time>
      </trkpt>
      <trkpt lat="42.427158" lon="1.928729">
        <ele>1152.15173</ele>
        <time>2021-07-02T09:00:50Z</time>
      </trkpt>
      <trkpt lat="42.427158" lon="1.928729">
        <ele>1151.58789</ele>
        <time>2021-07-02T09:00:51Z</time>
      </trkpt>
      <trkpt lat="42.427158" lon="1.928729">
        <ele>1151.24878</ele>
        <time>2021-07-02T09:00:52Z</time>
      </trkpt>
      <trkpt lat="42.427158" lon="1.928729">
        <ele>1151.14807</ele>
        <time>2021-07-02T09:00:53Z</time>
      </trkpt>
      <trkpt lat="42.427158" lon="1.928729">
        <ele>1151.13892</ele>
        <time>2021-07-02T09:00:54Z</time>
      </trkpt>
      <trkpt lat="42.427170" lon="1.928668">
        <ele>1150.43457</ele>
        <time>2021-07-02T09:00:55Z</time>
      </trkpt>
      <trkpt lat="42.427170" lon="1.928668">
        <ele>1151.12915</ele>
        <time>2021-07-02T09:00:56Z</time>
      </trkpt>
      <trkpt lat="42.427170" lon="1.928668">
        <ele>1152.18481</ele>
        <time>2021-07-02T09:00:57Z</time>
      </trkpt>
      <trkpt lat="42.427170" lon="1.928668">
        <ele>1150.08643</ele>
        <time>2021-07-02T09:00:58Z</time>
      </trkpt>
      <trkpt lat="42.427170" lon="1.928668">
        <ele>1149.53784</ele>
        <time>2021-07-02T09:00:59Z</time>
      </trkpt>
      <trkpt lat="42.427170" lon="1.928668">
        <ele>1149.87622</ele>
        <time>2021-07-02T09:01:00Z</time>
      </trkpt>
      <trkpt lat="42.427170" lon="1.928668">
        <ele>1149.52551</ele>
        <time>2021-07-02T09:01:01Z</time>
      </trkpt>
      <trkpt lat="42.427170" lon="1.928668">
        <ele>1147.77344</ele>
        <time>2021-07-02T09:01:02Z</time>
      </trkpt>
      <trkpt lat="42.427170" lon="1.928668">
        <ele>1147.45154</ele>
        <time>2021-07-02T09:01:03Z</time>
      </trkpt>
      <trkpt lat="42.427170" lon="1.928668">
        <ele>1147.76013</ele>
        <time>2021-07-02T09:01:04Z</time>
      </trkpt>
      <trkpt lat="42.427170" lon="1.928668">
        <ele>1149.29407</ele>
        <time>2021-07-02T09:01:05Z</time>
      </trkpt>
      <trkpt lat="42.427170" lon="1.928668">
        <ele>1149.29163</ele>
        <time>2021-07-02T09:01:06Z</time>
      </trkpt>
      <trkpt lat="42.427170" lon="1.928668">
        <ele>1148.08667</ele>
        <time>2021-07-02T09:01:07Z</time>
      </trkpt>
      <trkpt lat="42.427170" lon="1.928668">
        <ele>1147.86023</ele>
        <time>2021-07-02T09:01:08Z</time>
      </trkpt>
      <trkpt lat="42.427170" lon="1.928668">
        <ele>1147.36426</ele>
        <time>2021-07-02T09:01:09Z</time>
      </trkpt>
      <trkpt lat="42.427170" lon="1.928668">
        <ele>1147.51440</ele>
        <time>2021-07-02T09:01:10Z</time>
      </trkpt>
      <trkpt lat="42.427170" lon="1.928668">
        <ele>1148.50110</ele>
        <time>2021-07-02T09:01:11Z</time>
      </trkpt>
      <trkpt lat="42.427170" lon="1.928668">
        <ele>1149.13159</ele>
        <time>2021-07-02T09:01:12Z</time>
      </trkpt>
      <trkpt lat="42.427170" lon="1.928668">
        <ele>1148.35486</ele>
        <time>2021-07-02T09:01:13Z</time>
      </trkpt>
      <trkpt lat="42.427170" lon="1.928668">
        <ele>1148.11609</ele>
        <time>2021-07-02T09:01:14Z</time>
      </trkpt>
      <trkpt lat="42.427170" lon="1.928668">
        <ele>1147.59277</ele>
        <time>2021-07-02T09:01:15Z</time>
      </trkpt>
      <trkpt lat="42.427170" lon="1.928668">
        <ele>1147.47583</ele>
        <time>2021-07-02T09:01:16Z</time>
      </trkpt>
      <trkpt lat="42.427170" lon="1.928668">
        <ele>1147.29846</ele>
        <time>2021-07-02T09:01:17Z</time>
      </trkpt>
      <trkpt lat="42.427170" lon="1.928668">
        <ele>1147.30920</ele>
        <time>2021-07-02T09:01:18Z</time>
      </trkpt>
      <trkpt lat="42.427170" lon="1.928668">
        <ele>1147.60205</ele>
        <time>2021-07-02T09:01:19Z</time>
      </trkpt>
      <trkpt lat="42.427170" lon="1.928668">
        <ele>1147.88379</ele>
        <time>2021-07-02T09:01:20Z</time>
      </trkpt>
      <trkpt lat="42.427170" lon="1.928668">
        <ele>1147.84338</ele>
        <time>2021-07-02T09:01:21Z</time>
      </trkpt>
      <trkpt lat="42.427170" lon="1.928668">
        <ele>1147.76282</ele>
        <time>2021-07-02T09:01:22Z</time>
      </trkpt>
      <trkpt lat="42.427170" lon="1.928668">
        <ele>1147.70605</ele>
        <time>2021-07-02T09:01:23Z</time>
      </trkpt>
      <trkpt lat="42.427170" lon="1.928668">
        <ele>1148.04443</ele>
        <time>2021-07-02T09:01:24Z</time>
      </trkpt>
      <trkpt lat="42.427170" lon="1.928668">
        <ele>1147.96362</ele>
        <time>2021-07-02T09:01:25Z</time>
      </trkpt>
      <trkpt lat="42.427170" lon="1.928668">
        <ele>1148.29211</ele>
        <time>2021-07-02T09:01:26Z</time>
      </trkpt>
      <trkpt lat="42.427170" lon="1.928668">
        <ele>1148.10388</ele>
        <time>2021-07-02T09:01:27Z</time>
      </trkpt>
      <trkpt lat="42.427170" lon="1.928668">
        <ele>1148.38550</ele>
        <time>2021-07-02T09:01:28Z</time>
      </trkpt>
      <trkpt lat="42.427170" lon="1.928668">
        <ele>1148.16663</ele>
        <time>2021-07-02T09:01:29Z</time>
      </trkpt>
      <trkpt lat="42.427170" lon="1.928668">
        <ele>1148.11047</ele>
        <time>2021-07-02T09:01:30Z</time>
      </trkpt>
      <trkpt lat="42.427170" lon="1.928668">
        <ele>1148.07666</ele>
        <time>2021-07-02T09:01:31Z</time>
      </trkpt>
      <trkpt lat="42.427170" lon="1.928668">
        <ele>1148.04211</ele>
        <time>2021-07-02T09:01:32Z</time>
      </trkpt>
      <trkpt lat="42.427170" lon="1.928668">
        <ele>1148.02332</ele>
        <time>2021-07-02T09:01:33Z</time>
      </trkpt>
      <trkpt lat="42.427170" lon="1.928668">
        <ele>1148.01172</ele>
        <time>2021-07-02T09:01:34Z</time>
      </trkpt>
      <trkpt lat="42.427170" lon="1.928668">
        <ele>1148.16626</ele>
        <time>2021-07-02T09:01:35Z</time>
      </trkpt>
      <trkpt lat="42.427170" lon="1.928668">
        <ele>1148.08105</ele>
        <time>2021-07-02T09:01:36Z</time>
      </trkpt>
      <trkpt lat="42.427170" lon="1.928668">
        <ele>1148.24304</ele>
        <time>2021-07-02T09:01:37Z</time>
      </trkpt>
      <trkpt lat="42.427170" lon="1.928668">
        <ele>1148.12720</ele>
        <time>2021-07-02T09:01:38Z</time>
      </trkpt>
      <trkpt lat="42.427170" lon="1.928668">
        <ele>1148.08655</ele>
        <time>2021-07-02T09:01:39Z</time>
      </trkpt>
      <trkpt lat="42.427170" lon="1.928668">
        <ele>1148.05273</ele>
        <time>2021-07-02T09:01:40Z</time>
      </trkpt>
      <trkpt lat="42.427170" lon="1.928668">
        <ele>1148.03748</ele>
        <time>2021-07-02T09:01:41Z</time>
      </trkpt>
      <trkpt lat="42.427170" lon="1.928668">
        <ele>1147.68286</ele>
        <time>2021-07-02T09:01:42Z</time>
      </trkpt>
      <trkpt lat="42.427170" lon="1.928668">
        <ele>1147.86060</ele>
        <time>2021-07-02T09:01:43Z</time>
      </trkpt>
      <trkpt lat="42.427200" lon="1.928641">
        <ele>1148.72754</ele>
        <time>2021-07-02T09:01:44Z</time>
      </trkpt>
      <trkpt lat="42.427200" lon="1.928641">
        <ele>1148.96545</ele>
        <time>2021-07-02T09:01:45Z</time>
      </trkpt>
      <trkpt lat="42.427200" lon="1.928641">
        <ele>1149.03345</ele>
        <time>2021-07-02T09:01:46Z</time>
      </trkpt>
      <trkpt lat="42.427200" lon="1.928641">
        <ele>1149.46985</ele>
        <time>2021-07-02T09:01:47Z</time>
      </trkpt>
      <trkpt lat="42.427200" lon="1.928641">
        <ele>1150.53577</ele>
        <time>2021-07-02T09:01:48Z</time>
      </trkpt>
      <trkpt lat="42.427200" lon="1.928641">
        <ele>1150.73157</ele>
        <time>2021-07-02T09:01:49Z</time>
      </trkpt>
      <trkpt lat="42.427200" lon="1.928641">
        <ele>1150.44910</ele>
        <time>2021-07-02T09:01:50Z</time>
      </trkpt>
      <trkpt lat="42.427200" lon="1.928641">
        <ele>1150.43481</ele>
        <time>2021-07-02T09:01:51Z</time>
      </trkpt>
      <trkpt lat="42.427200" lon="1.928641">
        <ele>1151.35938</ele>
        <time>2021-07-02T09:01:52Z</time>
      </trkpt>
      <trkpt lat="42.427200" lon="1.928641">
        <ele>1152.14795</ele>
        <time>2021-07-02T09:01:53Z</time>
      </trkpt>
      <trkpt lat="42.427200" lon="1.928641">
        <ele>1151.87097</ele>
        <time>2021-07-02T09:01:54Z</time>
      </trkpt>
      <trkpt lat="42.427200" lon="1.928641">
        <ele>1151.86548</ele>
        <time>2021-07-02T09:01:55Z</time>
      </trkpt>
      <trkpt lat="42.427200" lon="1.928641">
        <ele>1151.94971</ele>
        <time>2021-07-02T09:01:56Z</time>
      </trkpt>
      <trkpt lat="42.427200" lon="1.928641">
        <ele>1151.74695</ele>
        <time>2021-07-02T09:01:57Z</time>
      </trkpt>
      <trkpt lat="42.427200" lon="1.928641">
        <ele>1151.60461</ele>
        <time>2021-07-02T09:01:58Z</time>
      </trkpt>
      <trkpt lat="42.427200" lon="1.928641">
        <ele>1151.49060</ele>
        <time>2021-07-02T09:01:59Z</time>
      </trkpt>
      <trkpt lat="42.427200" lon="1.928641">
        <ele>1151.14319</ele>
        <time>2021-07-02T09:02:00Z</time>
      </trkpt>
      <trkpt lat="42.427200" lon="1.928641">
        <ele>1148.44226</ele>
        <time>2021-07-02T09:02:01Z</time>
      </trkpt>
      <trkpt lat="42.427200" lon="1.928641">
        <ele>1149.43909</ele>
        <time>2021-07-02T09:02:02Z</time>
      </trkpt>
      <trkpt lat="42.427200" lon="1.928641">
        <ele>1149.45239</ele>
        <time>2021-07-02T09:02:03Z</time>
      </trkpt>
      <trkpt lat="42.427200" lon="1.928641">
        <ele>1149.46204</ele>
        <time>2021-07-02T09:02:04Z</time>
      </trkpt>
      <trkpt lat="42.427200" lon="1.928641">
        <ele>1149.43372</ele>
        <time>2021-07-02T09:02:05Z</time>
      </trkpt>
      <trkpt lat="42.427200" lon="1.928641">
        <ele>1149.18274</ele>
        <time>2021-07-02T09:02:06Z</time>
      </trkpt>
      <trkpt lat="42.427200" lon="1.928641">
        <ele>1149.03455</ele>
        <time>2021-07-02T09:02:07Z</time>
      </trkpt>
      <trkpt lat="42.427200" lon="1.928641">
        <ele>1149.05957</ele>
        <time>2021-07-02T09:02:08Z</time>
      </trkpt>
      <trkpt lat="42.427200" lon="1.928641">
        <ele>1149.82971</ele>
        <time>2021-07-02T09:02:09Z</time>
      </trkpt>
      <trkpt lat="42.427200" lon="1.928641">
        <ele>1150.16736</ele>
        <time>2021-07-02T09:02:10Z</time>
      </trkpt>
      <trkpt lat="42.427200" lon="1.928641">
        <ele>1148.86523</ele>
        <time>2021-07-02T09:02:11Z</time>
      </trkpt>
      <trkpt lat="42.427200" lon="1.928641">
        <ele>1148.86279</ele>
        <time>2021-07-02T09:02:12Z</time>
      </trkpt>
      <trkpt lat="42.427200" lon="1.928641">
        <ele>1147.32581</ele>
        <time>2021-07-02T09:02:13Z</time>
      </trkpt>
      <trkpt lat="42.427200" lon="1.928641">
        <ele>1146.89172</ele>
        <time>2021-07-02T09:02:14Z</time>
      </trkpt>
      <trkpt lat="42.427200" lon="1.928641">
        <ele>1146.51294</ele>
        <time>2021-07-02T09:02:15Z</time>
      </trkpt>
      <trkpt lat="42.427231" lon="1.928642">
        <ele>1145.57825</ele>
        <time>2021-07-02T09:02:16Z</time>
      </trkpt>
      <trkpt lat="42.427231" lon="1.928637">
        <ele>1145.17969</ele>
        <time>2021-07-02T09:02:17Z</time>
      </trkpt>
      <trkpt lat="42.427231" lon="1.928637">
        <ele>1145.78723</ele>
        <time>2021-07-02T09:02:18Z</time>
      </trkpt>
      <trkpt lat="42.427231" lon="1.928637">
        <ele>1145.54626</ele>
        <time>2021-07-02T09:02:19Z</time>
      </trkpt>
      <trkpt lat="42.427231" lon="1.928637">
        <ele>1145.84741</ele>
        <time>2021-07-02T09:02:20Z</time>
      </trkpt>
      <trkpt lat="42.427231" lon="1.928637">
        <ele>1145.92456</ele>
        <time>2021-07-02T09:02:21Z</time>
      </trkpt>
      <trkpt lat="42.427216" lon="1.928625">
        <ele>1144.71448</ele>
        <time>2021-07-02T09:02:22Z</time>
      </trkpt>
      <trkpt lat="42.427216" lon="1.928625">
        <ele>1143.52490</ele>
        <time>2021-07-02T09:02:23Z</time>
      </trkpt>
      <trkpt lat="42.427212" lon="1.928628">
        <ele>1142.73401</ele>
        <time>2021-07-02T09:02:24Z</time>
      </trkpt>
      <trkpt lat="42.427212" lon="1.928628">
        <ele>1141.75964</ele>
        <time>2021-07-02T09:02:25Z</time>
      </trkpt>
      <trkpt lat="42.427212" lon="1.928628">
        <ele>1141.98730</ele>
        <time>2021-07-02T09:02:26Z</time>
      </trkpt>
      <trkpt lat="42.427212" lon="1.928628">
        <ele>1142.17407</ele>
        <time>2021-07-02T09:02:27Z</time>
      </trkpt>
      <trkpt lat="42.427212" lon="1.928628">
        <ele>1141.73474</ele>
        <time>2021-07-02T09:02:28Z</time>
      </trkpt>
      <trkpt lat="42.427212" lon="1.928628">
        <ele>1141.73560</ele>
        <time>2021-07-02T09:02:29Z</time>
      </trkpt>
      <trkpt lat="42.427212" lon="1.928628">
        <ele>1141.78662</ele>
        <time>2021-07-02T09:02:30Z</time>
      </trkpt>
      <trkpt lat="42.427212" lon="1.928628">
        <ele>1141.49756</ele>
        <time>2021-07-02T09:02:31Z</time>
      </trkpt>
      <trkpt lat="42.427212" lon="1.928624">
        <ele>1141.61548</ele>
        <time>2021-07-02T09:02:32Z</time>
      </trkpt>
      <trkpt lat="42.427212" lon="1.928623">
        <ele>1140.14502</ele>
        <time>2021-07-02T09:02:33Z</time>
      </trkpt>
      <trkpt lat="42.427212" lon="1.928623">
        <ele>1139.72534</ele>
        <time>2021-07-02T09:02:34Z</time>
      </trkpt>
      <trkpt lat="42.427212" lon="1.928623">
        <ele>1139.77356</ele>
        <time>2021-07-02T09:02:35Z</time>
      </trkpt>
      <trkpt lat="42.427212" lon="1.928623">
        <ele>1140.31799</ele>
        <time>2021-07-02T09:02:36Z</time>
      </trkpt>
      <trkpt lat="42.427223" lon="1.928624">
        <ele>1140.49939</ele>
        <time>2021-07-02T09:02:37Z</time>
      </trkpt>
      <trkpt lat="42.427223" lon="1.928624">
        <ele>1140.88293</ele>
        <time>2021-07-02T09:02:38Z</time>
      </trkpt>
      <trkpt lat="42.427223" lon="1.928624">
        <ele>1148.41772</ele>
        <time>2021-07-02T09:02:39Z</time>
      </trkpt>
      <trkpt lat="42.427223" lon="1.928624">
        <ele>1148.25610</ele>
        <time>2021-07-02T09:02:40Z</time>
      </trkpt>
      <trkpt lat="42.427204" lon="1.928715">
        <ele>1144.46570</ele>
        <time>2021-07-02T09:24:54Z</time>
      </trkpt>
      <trkpt lat="42.427223" lon="1.928761">
        <ele>1144.41504</ele>
        <time>2021-07-02T09:24:55Z</time>
      </trkpt>
      <trkpt lat="42.427246" lon="1.928814">
        <ele>1143.81738</ele>
        <time>2021-07-02T09:24:56Z</time>
      </trkpt>
      <trkpt lat="42.427246" lon="1.928814">
        <ele>1144.47632</ele>
        <time>2021-07-02T09:24:57Z</time>
      </trkpt>
      <trkpt lat="42.427269" lon="1.928863">
        <ele>1144.63489</ele>
        <time>2021-07-02T09:24:58Z</time>
      </trkpt>
      <trkpt lat="42.427292" lon="1.928914">
        <ele>1144.66357</ele>
        <time>2021-07-02T09:24:59Z</time>
      </trkpt>
      <trkpt lat="42.427315" lon="1.928966">
        <ele>1144.74182</ele>
        <time>2021-07-02T09:25:00Z</time>
      </trkpt>
      <trkpt lat="42.427338" lon="1.929015">
        <ele>1144.83496</ele>
        <time>2021-07-02T09:25:01Z</time>
      </trkpt>
      <trkpt lat="42.427361" lon="1.929067">
        <ele>1144.90686</ele>
        <time>2021-07-02T09:25:02Z</time>
      </trkpt>
      <trkpt lat="42.427380" lon="1.929115">
        <ele>1144.85657</ele>
        <time>2021-07-02T09:25:03Z</time>
      </trkpt>
      <trkpt lat="42.427391" lon="1.929169">
        <ele>1144.94250</ele>
        <time>2021-07-02T09:25:04Z</time>
      </trkpt>
      <trkpt lat="42.427402" lon="1.929235">
        <ele>1145.09619</ele>
        <time>2021-07-02T09:25:05Z</time>
      </trkpt>
      <trkpt lat="42.427414" lon="1.929295">
        <ele>1145.04614</ele>
        <time>2021-07-02T09:25:06Z</time>
      </trkpt>
      <trkpt lat="42.427464" lon="1.929310">
        <ele>1145.18286</ele>
        <time>2021-07-02T09:25:07Z</time>
      </trkpt>
      <trkpt lat="42.427574" lon="1.929276">
        <ele>1145.29980</ele>
        <time>2021-07-02T09:25:08Z</time>
      </trkpt>
      <trkpt lat="42.427586" lon="1.929272">
        <ele>1145.40918</ele>
        <time>2021-07-02T09:25:09Z</time>
      </trkpt>
      <trkpt lat="42.427586" lon="1.929272">
        <ele>1145.64490</ele>
        <time>2021-07-02T09:25:10Z</time>
      </trkpt>
      <trkpt lat="42.427612" lon="1.929292">
        <ele>1146.52832</ele>
        <time>2021-07-02T09:25:11Z</time>
      </trkpt>
      <trkpt lat="42.427681" lon="1.929446">
        <ele>1146.37146</ele>
        <time>2021-07-02T09:25:12Z</time>
      </trkpt>
      <trkpt lat="42.427734" lon="1.929554">
        <ele>1146.46289</ele>
        <time>2021-07-02T09:25:13Z</time>
      </trkpt>
      <trkpt lat="42.427792" lon="1.929677">
        <ele>1144.49915</ele>
        <time>2021-07-02T09:25:14Z</time>
      </trkpt>
      <trkpt lat="42.427845" lon="1.929786">
        <ele>1144.80896</ele>
        <time>2021-07-02T09:25:15Z</time>
      </trkpt>
      <trkpt lat="42.427902" lon="1.929907">
        <ele>1144.85022</ele>
        <time>2021-07-02T09:25:16Z</time>
      </trkpt>
      <trkpt lat="42.427967" lon="1.930042">
        <ele>1144.31934</ele>
        <time>2021-07-02T09:25:17Z</time>
      </trkpt>
      <trkpt lat="42.428036" lon="1.930184">
        <ele>1144.43262</ele>
        <time>2021-07-02T09:25:18Z</time>
      </trkpt>
      <trkpt lat="42.428104" lon="1.930335">
        <ele>1144.03955</ele>
        <time>2021-07-02T09:25:19Z</time>
      </trkpt>
      <trkpt lat="42.428177" lon="1.930486">
        <ele>1144.27820</ele>
        <time>2021-07-02T09:25:20Z</time>
      </trkpt>
      <trkpt lat="42.428242" lon="1.930622">
        <ele>1144.88135</ele>
        <time>2021-07-02T09:25:21Z</time>
      </trkpt>
      <trkpt lat="42.428307" lon="1.930760">
        <ele>1144.39417</ele>
        <time>2021-07-02T09:25:22Z</time>
      </trkpt>
      <trkpt lat="42.428371" lon="1.930891">
        <ele>1143.83643</ele>
        <time>2021-07-02T09:25:23Z</time>
      </trkpt>
      <trkpt lat="42.428436" lon="1.931030">
        <ele>1143.28467</ele>
        <time>2021-07-02T09:25:24Z</time>
      </trkpt>
      <trkpt lat="42.428501" lon="1.931164">
        <ele>1143.08032</ele>
        <time>2021-07-02T09:25:25Z</time>
      </trkpt>
      <trkpt lat="42.428558" lon="1.931289">
        <ele>1143.36218</ele>
        <time>2021-07-02T09:25:26Z</time>
      </trkpt>
      <trkpt lat="42.428623" lon="1.931419">
        <ele>1142.97681</ele>
        <time>2021-07-02T09:25:27Z</time>
      </trkpt>
      <trkpt lat="42.428688" lon="1.931552">
        <ele>1143.12378</ele>
        <time>2021-07-02T09:25:28Z</time>
      </trkpt>
      <trkpt lat="42.428688" lon="1.931552">
        <ele>1143.00330</ele>
        <time>2021-07-02T09:25:29Z</time>
      </trkpt>
      <trkpt lat="42.428757" lon="1.931686">
        <ele>1142.90771</ele>
        <time>2021-07-02T09:25:30Z</time>
      </trkpt>
      <trkpt lat="42.428829" lon="1.931823">
        <ele>1142.82214</ele>
        <time>2021-07-02T09:25:31Z</time>
      </trkpt>
      <trkpt lat="42.428894" lon="1.931946">
        <ele>1142.16870</ele>
        <time>2021-07-02T09:25:32Z</time>
      </trkpt>
      <trkpt lat="42.428963" lon="1.932073">
        <ele>1141.86462</ele>
        <time>2021-07-02T09:25:33Z</time>
      </trkpt>
      <trkpt lat="42.429035" lon="1.932209">
        <ele>1142.32507</ele>
        <time>2021-07-02T09:25:34Z</time>
      </trkpt>
      <trkpt lat="42.429104" lon="1.932335">
        <ele>1142.11108</ele>
        <time>2021-07-02T09:25:35Z</time>
      </trkpt>
      <trkpt lat="42.429176" lon="1.932456">
        <ele>1141.75562</ele>
        <time>2021-07-02T09:25:36Z</time>
      </trkpt>
      <trkpt lat="42.429249" lon="1.932573">
        <ele>1141.63452</ele>
        <time>2021-07-02T09:25:37Z</time>
      </trkpt>
      <trkpt lat="42.429314" lon="1.932679">
        <ele>1142.08887</ele>
        <time>2021-07-02T09:25:38Z</time>
      </trkpt>
      <trkpt lat="42.429375" lon="1.932779">
        <ele>1141.70471</ele>
        <time>2021-07-02T09:25:39Z</time>
      </trkpt>
      <trkpt lat="42.429451" lon="1.932896">
        <ele>1141.88672</ele>
        <time>2021-07-02T09:25:40Z</time>
      </trkpt>
      <trkpt lat="42.429531" lon="1.933011">
        <ele>1142.22559</ele>
        <time>2021-07-02T09:25:41Z</time>
      </trkpt>
      <trkpt lat="42.429604" lon="1.933110">
        <ele>1142.21960</ele>
        <time>2021-07-02T09:25:42Z</time>
      </trkpt>
      <trkpt lat="42.429668" lon="1.933193">
        <ele>1142.78796</ele>
        <time>2021-07-02T09:25:43Z</time>
      </trkpt>
      <trkpt lat="42.429729" lon="1.933267">
        <ele>1143.98047</ele>
        <time>2021-07-02T09:25:44Z</time>
      </trkpt>
      <trkpt lat="42.429798" lon="1.933350">
        <ele>1143.98474</ele>
        <time>2021-07-02T09:25:45Z</time>
      </trkpt>
      <trkpt lat="42.429878" lon="1.933447">
        <ele>1143.82568</ele>
        <time>2021-07-02T09:25:46Z</time>
      </trkpt>
      <trkpt lat="42.429962" lon="1.933553">
        <ele>1143.32153</ele>
        <time>2021-07-02T09:25:47Z</time>
      </trkpt>
      <trkpt lat="42.430058" lon="1.933654">
        <ele>1142.74976</ele>
        <time>2021-07-02T09:25:48Z</time>
      </trkpt>
      <trkpt lat="42.430149" lon="1.933750">
        <ele>1143.41199</ele>
        <time>2021-07-02T09:25:49Z</time>
      </trkpt>
      <trkpt lat="42.430237" lon="1.933839">
        <ele>1143.92346</ele>
        <time>2021-07-02T09:25:50Z</time>
      </trkpt>
      <trkpt lat="42.430328" lon="1.933931">
        <ele>1145.26660</ele>
        <time>2021-07-02T09:25:51Z</time>
      </trkpt>
      <trkpt lat="42.430420" lon="1.934021">
        <ele>1144.34875</ele>
        <time>2021-07-02T09:25:52Z</time>
      </trkpt>
      <trkpt lat="42.430519" lon="1.934122">
        <ele>1144.21350</ele>
        <time>2021-07-02T09:25:53Z</time>
      </trkpt>
      <trkpt lat="42.430634" lon="1.934231">
        <ele>1143.98108</ele>
        <time>2021-07-02T09:25:54Z</time>
      </trkpt>
      <trkpt lat="42.430737" lon="1.934319">
        <ele>1143.84839</ele>
        <time>2021-07-02T09:25:55Z</time>
      </trkpt>
      <trkpt lat="42.430840" lon="1.934407">
        <ele>1145.01074</ele>
        <time>2021-07-02T09:25:56Z</time>
      </trkpt>
      <trkpt lat="42.430939" lon="1.934494">
        <ele>1146.11853</ele>
        <time>2021-07-02T09:25:57Z</time>
      </trkpt>
      <trkpt lat="42.430939" lon="1.934494">
        <ele>1145.87292</ele>
        <time>2021-07-02T09:25:58Z</time>
      </trkpt>
      <trkpt lat="42.431049" lon="1.934587">
        <ele>1145.60339</ele>
        <time>2021-07-02T09:25:59Z</time>
      </trkpt>
      <trkpt lat="42.431156" lon="1.934680">
        <ele>1144.96277</ele>
        <time>2021-07-02T09:26:00Z</time>
      </trkpt>
      <trkpt lat="42.431252" lon="1.934761">
        <ele>1144.83362</ele>
        <time>2021-07-02T09:26:01Z</time>
      </trkpt>
      <trkpt lat="42.431339" lon="1.934833">
        <ele>1145.75330</ele>
        <time>2021-07-02T09:26:02Z</time>
      </trkpt>
      <trkpt lat="42.431442" lon="1.934917">
        <ele>1146.13660</ele>
        <time>2021-07-02T09:26:03Z</time>
      </trkpt>
      <trkpt lat="42.431538" lon="1.934995">
        <ele>1145.74658</ele>
        <time>2021-07-02T09:26:04Z</time>
      </trkpt>
      <trkpt lat="42.431644" lon="1.935083">
        <ele>1145.55725</ele>
        <time>2021-07-02T09:26:05Z</time>
      </trkpt>
      <trkpt lat="42.431751" lon="1.935173">
        <ele>1144.52478</ele>
        <time>2021-07-02T09:26:06Z</time>
      </trkpt>
      <trkpt lat="42.431850" lon="1.935254">
        <ele>1145.02759</ele>
        <time>2021-07-02T09:26:07Z</time>
      </trkpt>
      <trkpt lat="42.431946" lon="1.935332">
        <ele>1145.37354</ele>
        <time>2021-07-02T09:26:08Z</time>
      </trkpt>
      <trkpt lat="42.432011" lon="1.935385">
        <ele>1145.34473</ele>
        <time>2021-07-02T09:26:09Z</time>
      </trkpt>
      <trkpt lat="42.432064" lon="1.935459">
        <ele>1144.94470</ele>
        <time>2021-07-02T09:26:10Z</time>
      </trkpt>
      <trkpt lat="42.432114" lon="1.935504">
        <ele>1145.18701</ele>
        <time>2021-07-02T09:26:11Z</time>
      </trkpt>
      <trkpt lat="42.432186" lon="1.935568">
        <ele>1144.99792</ele>
        <time>2021-07-02T09:26:12Z</time>
      </trkpt>
      <trkpt lat="42.432255" lon="1.935632">
        <ele>1144.28040</ele>
        <time>2021-07-02T09:26:13Z</time>
      </trkpt>
      <trkpt lat="42.432327" lon="1.935696">
        <ele>1144.41260</ele>
        <time>2021-07-02T09:26:14Z</time>
      </trkpt>
      <trkpt lat="42.432392" lon="1.935752">
        <ele>1144.28906</ele>
        <time>2021-07-02T09:26:15Z</time>
      </trkpt>
      <trkpt lat="42.432438" lon="1.935796">
        <ele>1143.76428</ele>
        <time>2021-07-02T09:26:16Z</time>
      </trkpt>
      <trkpt lat="42.432457" lon="1.935812">
        <ele>1144.56067</ele>
        <time>2021-07-02T09:26:17Z</time>
      </trkpt>
      <trkpt lat="42.432468" lon="1.935823">
        <ele>1144.44556</ele>
        <time>2021-07-02T09:26:18Z</time>
      </trkpt>
      <trkpt lat="42.432491" lon="1.935846">
        <ele>1145.29041</ele>
        <time>2021-07-02T09:26:19Z</time>
      </trkpt>
      <trkpt lat="42.432510" lon="1.935868">
        <ele>1144.57983</ele>
        <time>2021-07-02T09:26:20Z</time>
      </trkpt>
      <trkpt lat="42.432529" lon="1.935887">
        <ele>1144.32043</ele>
        <time>2021-07-02T09:26:21Z</time>
      </trkpt>
      <trkpt lat="42.432545" lon="1.935903">
        <ele>1144.63562</ele>
        <time>2021-07-02T09:26:22Z</time>
      </trkpt>
      <trkpt lat="42.432552" lon="1.935912">
        <ele>1145.37109</ele>
        <time>2021-07-02T09:26:23Z</time>
      </trkpt>
      <trkpt lat="42.432568" lon="1.935929">
        <ele>1145.63159</ele>
        <time>2021-07-02T09:26:24Z</time>
      </trkpt>
      <trkpt lat="42.432568" lon="1.935929">
        <ele>1144.77625</ele>
        <time>2021-07-02T09:26:25Z</time>
      </trkpt>
      <trkpt lat="42.432587" lon="1.935948">
        <ele>1143.59033</ele>
        <time>2021-07-02T09:26:26Z</time>
      </trkpt>
      <trkpt lat="42.432629" lon="1.935986">
        <ele>1144.20801</ele>
        <time>2021-07-02T09:26:27Z</time>
      </trkpt>
      <trkpt lat="42.432686" lon="1.936040">
        <ele>1143.83435</ele>
        <time>2021-07-02T09:26:28Z</time>
      </trkpt>
      <trkpt lat="42.432724" lon="1.936084">
        <ele>1143.65405</ele>
        <time>2021-07-02T09:26:29Z</time>
      </trkpt>
      <trkpt lat="42.432770" lon="1.936100">
        <ele>1143.06348</ele>
        <time>2021-07-02T09:26:30Z</time>
      </trkpt>
      <trkpt lat="42.432796" lon="1.936117">
        <ele>1142.12476</ele>
        <time>2021-07-02T09:26:31Z</time>
      </trkpt>
      <trkpt lat="42.432850" lon="1.936247">
        <ele>1141.84985</ele>
        <time>2021-07-02T09:26:32Z</time>
      </trkpt>
      <trkpt lat="42.432899" lon="1.936335">
        <ele>1142.28735</ele>
        <time>2021-07-02T09:26:33Z</time>
      </trkpt>
      <trkpt lat="42.432934" lon="1.936397">
        <ele>1142.59375</ele>
        <time>2021-07-02T09:26:34Z</time>
      </trkpt>
      <trkpt lat="42.432964" lon="1.936458">
        <ele>1141.61963</ele>
        <time>2021-07-02T09:26:35Z</time>
      </trkpt>
      <trkpt lat="42.432995" lon="1.936515">
        <ele>1141.48438</ele>
        <time>2021-07-02T09:26:36Z</time>
      </trkpt>
      <trkpt lat="42.433029" lon="1.936583">
        <ele>1141.47034</ele>
        <time>2021-07-02T09:26:37Z</time>
      </trkpt>
      <trkpt lat="42.433044" lon="1.936664">
        <ele>1141.41138</ele>
        <time>2021-07-02T09:26:38Z</time>
      </trkpt>
      <trkpt lat="42.433064" lon="1.936761">
        <ele>1142.90430</ele>
        <time>2021-07-02T09:26:39Z</time>
      </trkpt>
      <trkpt lat="42.433086" lon="1.936799">
        <ele>1143.08459</ele>
        <time>2021-07-02T09:26:40Z</time>
      </trkpt>
      <trkpt lat="42.433136" lon="1.936834">
        <ele>1145.21570</ele>
        <time>2021-07-02T09:26:41Z</time>
      </trkpt>
      <trkpt lat="42.433212" lon="1.936944">
        <ele>1144.87866</ele>
        <time>2021-07-02T09:26:42Z</time>
      </trkpt>
      <trkpt lat="42.433323" lon="1.937138">
        <ele>1145.79150</ele>
        <time>2021-07-02T09:26:43Z</time>
      </trkpt>
      <trkpt lat="42.433407" lon="1.937240">
        <ele>1144.20728</ele>
        <time>2021-07-02T09:26:44Z</time>
      </trkpt>
      <trkpt lat="42.433502" lon="1.937341">
        <ele>1143.86890</ele>
        <time>2021-07-02T09:26:45Z</time>
      </trkpt>
      <trkpt lat="42.433598" lon="1.937441">
        <ele>1143.53394</ele>
        <time>2021-07-02T09:26:46Z</time>
      </trkpt>
      <trkpt lat="42.433693" lon="1.937555">
        <ele>1143.60779</ele>
        <time>2021-07-02T09:26:47Z</time>
      </trkpt>
      <trkpt lat="42.433800" lon="1.937673">
        <ele>1145.67725</ele>
        <time>2021-07-02T09:26:48Z</time>
      </trkpt>
      <trkpt lat="42.433903" lon="1.937790">
        <ele>1147.02600</ele>
        <time>2021-07-02T09:26:49Z</time>
      </trkpt>
      <trkpt lat="42.434006" lon="1.937906">
        <ele>1147.14294</ele>
        <time>2021-07-02T09:26:50Z</time>
      </trkpt>
      <trkpt lat="42.434113" lon="1.938021">
        <ele>1150.87402</ele>
        <time>2021-07-02T09:26:51Z</time>
      </trkpt>
      <trkpt lat="42.434212" lon="1.938127">
        <ele>1151.99500</ele>
        <time>2021-07-02T09:26:52Z</time>
      </trkpt>
      <trkpt lat="42.434303" lon="1.938225">
        <ele>1152.13904</ele>
        <time>2021-07-02T09:26:53Z</time>
      </trkpt>
      <trkpt lat="42.434406" lon="1.938335">
        <ele>1151.54468</ele>
        <time>2021-07-02T09:26:54Z</time>
      </trkpt>
      <trkpt lat="42.434406" lon="1.938335">
        <ele>1150.54175</ele>
        <time>2021-07-02T09:26:55Z</time>
      </trkpt>
      <trkpt lat="42.434509" lon="1.938442">
        <ele>1150.05298</ele>
        <time>2021-07-02T09:26:56Z</time>
      </trkpt>
      <trkpt lat="42.434608" lon="1.938541">
        <ele>1150.07812</ele>
        <time>2021-07-02T09:26:57Z</time>
      </trkpt>
      <trkpt lat="42.434711" lon="1.938642">
        <ele>1150.67981</ele>
        <time>2021-07-02T09:26:58Z</time>
      </trkpt>
      <trkpt lat="42.434818" lon="1.938751">
        <ele>1149.96497</ele>
        <time>2021-07-02T09:26:59Z</time>
      </trkpt>
      <trkpt lat="42.434956" lon="1.938880">
        <ele>1149.46716</ele>
        <time>2021-07-02T09:27:00Z</time>
      </trkpt>
      <trkpt lat="42.435108" lon="1.939000">
        <ele>1150.14197</ele>
        <time>2021-07-02T09:27:01Z</time>
      </trkpt>
      <trkpt lat="42.435272" lon="1.939113">
        <ele>1151.09204</ele>
        <time>2021-07-02T09:27:02Z</time>
      </trkpt>
      <trkpt lat="42.435425" lon="1.939213">
        <ele>1150.63989</ele>
        <time>2021-07-02T09:27:03Z</time>
      </trkpt>
      <trkpt lat="42.435589" lon="1.939321">
        <ele>1149.88623</ele>
        <time>2021-07-02T09:27:04Z</time>
      </trkpt>
      <trkpt lat="42.435753" lon="1.939426">
        <ele>1149.85571</ele>
        <time>2021-07-02T09:27:05Z</time>
      </trkpt>
      <trkpt lat="42.435917" lon="1.939535">
        <ele>1150.95093</ele>
        <time>2021-07-02T09:27:06Z</time>
      </trkpt>
      <trkpt lat="42.436077" lon="1.939641">
        <ele>1150.64636</ele>
        <time>2021-07-02T09:27:07Z</time>
      </trkpt>
      <trkpt lat="42.436237" lon="1.939746">
        <ele>1150.62976</ele>
        <time>2021-07-02T09:27:08Z</time>
      </trkpt>
      <trkpt lat="42.436394" lon="1.939847">
        <ele>1151.16650</ele>
        <time>2021-07-02T09:27:09Z</time>
      </trkpt>
      <trkpt lat="42.436543" lon="1.939945">
        <ele>1151.05774</ele>
        <time>2021-07-02T09:27:10Z</time>
      </trkpt>
      <trkpt lat="42.436703" lon="1.940053">
        <ele>1149.51184</ele>
        <time>2021-07-02T09:27:11Z</time>
      </trkpt>
      <trkpt lat="42.436848" lon="1.940152">
        <ele>1150.20435</ele>
        <time>2021-07-02T09:27:12Z</time>
      </trkpt>
      <trkpt lat="42.436977" lon="1.940240">
        <ele>1151.27881</ele>
        <time>2021-07-02T09:27:13Z</time>
      </trkpt>
      <trkpt lat="42.437126" lon="1.940340">
        <ele>1151.80225</ele>
        <time>2021-07-02T09:27:14Z</time>
      </trkpt>
      <trkpt lat="42.437279" lon="1.940443">
        <ele>1151.18298</ele>
        <time>2021-07-02T09:27:15Z</time>
      </trkpt>
      <trkpt lat="42.437424" lon="1.940536">
        <ele>1150.93054</ele>
        <time>2021-07-02T09:27:16Z</time>
      </trkpt>
      <trkpt lat="42.437565" lon="1.940628">
        <ele>1151.65649</ele>
        <time>2021-07-02T09:27:17Z</time>
      </trkpt>
      <trkpt lat="42.437706" lon="1.940719">
        <ele>1151.41699</ele>
        <time>2021-07-02T09:27:18Z</time>
      </trkpt>
      <trkpt lat="42.437843" lon="1.940808">
        <ele>1150.83350</ele>
        <time>2021-07-02T09:27:19Z</time>
      </trkpt>
      <trkpt lat="42.437992" lon="1.940904">
        <ele>1150.76147</ele>
        <time>2021-07-02T09:27:20Z</time>
      </trkpt>
      <trkpt lat="42.438141" lon="1.940997">
        <ele>1151.85339</ele>
        <time>2021-07-02T09:27:21Z</time>
      </trkpt>
      <trkpt lat="42.438282" lon="1.941089">
        <ele>1151.61438</ele>
        <time>2021-07-02T09:27:22Z</time>
      </trkpt>
      <trkpt lat="42.438438" lon="1.941190">
        <ele>1152.04993</ele>
        <time>2021-07-02T09:27:23Z</time>
      </trkpt>
      <trkpt lat="42.438599" lon="1.941293">
        <ele>1152.41150</ele>
        <time>2021-07-02T09:27:24Z</time>
      </trkpt>
      <trkpt lat="42.438747" lon="1.941389">
        <ele>1151.26404</ele>
        <time>2021-07-02T09:27:25Z</time>
      </trkpt>
      <trkpt lat="42.438889" lon="1.941474">
        <ele>1151.36292</ele>
        <time>2021-07-02T09:27:26Z</time>
      </trkpt>
      <trkpt lat="42.439037" lon="1.941553">
        <ele>1154.19312</ele>
        <time>2021-07-02T09:27:27Z</time>
      </trkpt>
      <trkpt lat="42.439190" lon="1.941603">
        <ele>1154.08545</ele>
        <time>2021-07-02T09:27:28Z</time>
      </trkpt>
      <trkpt lat="42.439190" lon="1.941603">
        <ele>1154.45105</ele>
        <time>2021-07-02T09:27:29Z</time>
      </trkpt>
      <trkpt lat="42.439365" lon="1.941630">
        <ele>1154.28564</ele>
        <time>2021-07-02T09:27:30Z</time>
      </trkpt>
      <trkpt lat="42.439579" lon="1.941648">
        <ele>1154.51404</ele>
        <time>2021-07-02T09:27:31Z</time>
      </trkpt>
      <trkpt lat="42.439770" lon="1.941664">
        <ele>1155.56274</ele>
        <time>2021-07-02T09:27:32Z</time>
      </trkpt>
      <trkpt lat="42.440033" lon="1.941686">
        <ele>1155.97363</ele>
        <time>2021-07-02T09:27:33Z</time>
      </trkpt>
      <trkpt lat="42.440247" lon="1.941704">
        <ele>1156.10583</ele>
        <time>2021-07-02T09:27:34Z</time>
      </trkpt>
      <trkpt lat="42.440456" lon="1.941722">
        <ele>1156.46631</ele>
        <time>2021-07-02T09:27:35Z</time>
      </trkpt>
      <trkpt lat="42.440693" lon="1.941735">
        <ele>1155.86450</ele>
        <time>2021-07-02T09:27:36Z</time>
      </trkpt>
      <trkpt lat="42.440910" lon="1.941744">
        <ele>1154.24402</ele>
        <time>2021-07-02T09:27:37Z</time>
      </trkpt>
      <trkpt lat="42.441128" lon="1.941754">
        <ele>1153.71021</ele>
        <time>2021-07-02T09:27:38Z</time>
      </trkpt>
      <trkpt lat="42.441353" lon="1.941764">
        <ele>1154.04053</ele>
        <time>2021-07-02T09:27:39Z</time>
      </trkpt>
      <trkpt lat="42.441559" lon="1.941774">
        <ele>1153.81287</ele>
        <time>2021-07-02T09:27:40Z</time>
      </trkpt>
      <trkpt lat="42.441784" lon="1.941784">
        <ele>1154.95166</ele>
        <time>2021-07-02T09:27:41Z</time>
      </trkpt>
      <trkpt lat="42.442013" lon="1.941797">
        <ele>1152.57104</ele>
        <time>2021-07-02T09:27:42Z</time>
      </trkpt>
      <trkpt lat="42.442257" lon="1.941809">
        <ele>1152.83398</ele>
        <time>2021-07-02T09:27:43Z</time>
      </trkpt>
      <trkpt lat="42.442482" lon="1.941821">
        <ele>1153.17932</ele>
        <time>2021-07-02T09:27:44Z</time>
      </trkpt>
      <trkpt lat="42.442707" lon="1.941832">
        <ele>1152.60815</ele>
        <time>2021-07-02T09:27:45Z</time>
      </trkpt>
      <trkpt lat="42.442940" lon="1.941844">
        <ele>1152.80798</ele>
        <time>2021-07-02T09:27:46Z</time>
      </trkpt>
      <trkpt lat="42.443180" lon="1.941856">
        <ele>1152.92200</ele>
        <time>2021-07-02T09:27:47Z</time>
      </trkpt>
      <trkpt lat="42.443386" lon="1.941865">
        <ele>1152.54089</ele>
        <time>2021-07-02T09:27:48Z</time>
      </trkpt>
      <trkpt lat="42.443588" lon="1.941872">
        <ele>1154.88843</ele>
        <time>2021-07-02T09:27:49Z</time>
      </trkpt>
      <trkpt lat="42.443802" lon="1.941902">
        <ele>1156.04626</ele>
        <time>2021-07-02T09:27:50Z</time>
      </trkpt>
      <trkpt lat="42.443993" lon="1.941939">
        <ele>1156.05334</ele>
        <time>2021-07-02T09:27:51Z</time>
      </trkpt>
      <trkpt lat="42.444183" lon="1.942020">
        <ele>1157.07800</ele>
        <time>2021-07-02T09:27:52Z</time>
      </trkpt>
      <trkpt lat="42.444355" lon="1.942154">
        <ele>1158.81812</ele>
        <time>2021-07-02T09:27:53Z</time>
      </trkpt>
      <trkpt lat="42.444508" lon="1.942293">
        <ele>1160.54199</ele>
        <time>2021-07-02T09:27:54Z</time>
      </trkpt>
      <trkpt lat="42.444656" lon="1.942485">
        <ele>1162.67749</ele>
        <time>2021-07-02T09:27:55Z</time>
      </trkpt>
      <trkpt lat="42.444801" lon="1.942706">
        <ele>1163.90723</ele>
        <time>2021-07-02T09:27:56Z</time>
      </trkpt>
      <trkpt lat="42.444916" lon="1.942935">
        <ele>1164.80762</ele>
        <time>2021-07-02T09:27:57Z</time>
      </trkpt>
      <trkpt lat="42.445015" lon="1.943193">
        <ele>1164.92981</ele>
        <time>2021-07-02T09:27:58Z</time>
      </trkpt>
      <trkpt lat="42.445107" lon="1.943469">
        <ele>1164.97485</ele>
        <time>2021-07-02T09:27:59Z</time>
      </trkpt>
      <trkpt lat="42.445202" lon="1.943758">
        <ele>1164.96277</ele>
        <time>2021-07-02T09:28:00Z</time>
      </trkpt>
      <trkpt lat="42.445293" lon="1.944053">
        <ele>1165.01575</ele>
        <time>2021-07-02T09:28:01Z</time>
      </trkpt>
      <trkpt lat="42.445293" lon="1.944053">
        <ele>1163.93958</ele>
        <time>2021-07-02T09:28:02Z</time>
      </trkpt>
      <trkpt lat="42.445374" lon="1.944315">
        <ele>1163.41858</ele>
        <time>2021-07-02T09:28:03Z</time>
      </trkpt>
      <trkpt lat="42.445446" lon="1.944547">
        <ele>1163.37109</ele>
        <time>2021-07-02T09:28:04Z</time>
      </trkpt>
      <trkpt lat="42.445515" lon="1.944772">
        <ele>1163.01416</ele>
        <time>2021-07-02T09:28:05Z</time>
      </trkpt>
      <trkpt lat="42.445568" lon="1.944940">
        <ele>1162.37231</ele>
        <time>2021-07-02T09:28:06Z</time>
      </trkpt>
      <trkpt lat="42.445629" lon="1.945143">
        <ele>1160.94592</ele>
        <time>2021-07-02T09:28:07Z</time>
      </trkpt>
      <trkpt lat="42.445683" lon="1.945307">
        <ele>1160.72839</ele>
        <time>2021-07-02T09:28:08Z</time>
      </trkpt>
      <trkpt lat="42.445736" lon="1.945486">
        <ele>1160.67151</ele>
        <time>2021-07-02T09:28:09Z</time>
      </trkpt>
      <trkpt lat="42.445774" lon="1.945614">
        <ele>1160.53528</ele>
        <time>2021-07-02T09:28:10Z</time>
      </trkpt>
      <trkpt lat="42.445812" lon="1.945731">
        <ele>1160.71399</ele>
        <time>2021-07-02T09:28:11Z</time>
      </trkpt>
      <trkpt lat="42.445835" lon="1.945805">
        <ele>1160.95325</ele>
        <time>2021-07-02T09:28:12Z</time>
      </trkpt>
      <trkpt lat="42.445858" lon="1.945873">
        <ele>1161.42712</ele>
        <time>2021-07-02T09:28:13Z</time>
      </trkpt>
      <trkpt lat="42.445873" lon="1.945921">
        <ele>1161.44019</ele>
        <time>2021-07-02T09:28:14Z</time>
      </trkpt>
      <trkpt lat="42.445892" lon="1.945972">
        <ele>1160.74463</ele>
        <time>2021-07-02T09:28:15Z</time>
      </trkpt>
      <trkpt lat="42.445923" lon="1.946074">
        <ele>1159.93640</ele>
        <time>2021-07-02T09:28:16Z</time>
      </trkpt>
      <trkpt lat="42.445889" lon="1.946153">
        <ele>1159.93762</ele>
        <time>2021-07-02T09:28:17Z</time>
      </trkpt>
      <trkpt lat="42.445847" lon="1.946335">
        <ele>1160.94580</ele>
        <time>2021-07-02T09:28:18Z</time>
      </trkpt>
      <trkpt lat="42.445854" lon="1.946413">
        <ele>1159.82996</ele>
        <time>2021-07-02T09:28:19Z</time>
      </trkpt>
      <trkpt lat="42.445930" lon="1.946554">
        <ele>1159.53906</ele>
        <time>2021-07-02T09:28:20Z</time>
      </trkpt>
      <trkpt lat="42.446030" lon="1.946591">
        <ele>1160.87036</ele>
        <time>2021-07-02T09:28:21Z</time>
      </trkpt>
      <trkpt lat="42.446091" lon="1.946571">
        <ele>1159.08069</ele>
        <time>2021-07-02T09:28:22Z</time>
      </trkpt>
      <trkpt lat="42.446190" lon="1.946441">
        <ele>1159.34094</ele>
        <time>2021-07-02T09:28:23Z</time>
      </trkpt>
      <trkpt lat="42.446205" lon="1.946342">
        <ele>1159.15442</ele>
        <time>2021-07-02T09:28:24Z</time>
      </trkpt>
      <trkpt lat="42.446167" lon="1.946091">
        <ele>1157.55713</ele>
        <time>2021-07-02T09:28:25Z</time>
      </trkpt>
      <trkpt lat="42.446308" lon="1.945873">
        <ele>1158.24109</ele>
        <time>2021-07-02T09:28:26Z</time>
      </trkpt>
      <trkpt lat="42.446388" lon="1.945750">
        <ele>1158.68066</ele>
        <time>2021-07-02T09:28:27Z</time>
      </trkpt>
      <trkpt lat="42.446457" lon="1.945647">
        <ele>1159.71411</ele>
        <time>2021-07-02T09:28:28Z</time>
      </trkpt>
      <trkpt lat="42.446522" lon="1.945548">
        <ele>1158.98535</ele>
        <time>2021-07-02T09:28:29Z</time>
      </trkpt>
      <trkpt lat="42.446587" lon="1.945452">
        <ele>1159.65100</ele>
        <time>2021-07-02T09:28:30Z</time>
      </trkpt>
      <trkpt lat="42.446659" lon="1.945341">
        <ele>1159.68457</ele>
        <time>2021-07-02T09:28:31Z</time>
      </trkpt>
      <trkpt lat="42.446728" lon="1.945233">
        <ele>1161.15991</ele>
        <time>2021-07-02T09:28:32Z</time>
      </trkpt>
      <trkpt lat="42.446800" lon="1.945122">
        <ele>1161.37317</ele>
        <time>2021-07-02T09:28:33Z</time>
      </trkpt>
      <trkpt lat="42.446800" lon="1.945122">
        <ele>1161.37317</ele>
        <time>2021-07-02T09:28:34Z</time>
      </trkpt>
      <trkpt lat="42.446884" lon="1.944993">
        <ele>1161.67017</ele>
        <time>2021-07-02T09:28:35Z</time>
      </trkpt>
      <trkpt lat="42.446960" lon="1.944878">
        <ele>1161.50476</ele>
        <time>2021-07-02T09:28:36Z</time>
      </trkpt>
      <trkpt lat="42.447029" lon="1.944774">
        <ele>1162.02808</ele>
        <time>2021-07-02T09:28:37Z</time>
      </trkpt>
      <trkpt lat="42.447044" lon="1.944747">
        <ele>1162.76965</ele>
        <time>2021-07-02T09:28:38Z</time>
      </trkpt>
      <trkpt lat="42.447098" lon="1.944701">
        <ele>1163.41492</ele>
        <time>2021-07-02T09:28:39Z</time>
      </trkpt>
      <trkpt lat="42.447174" lon="1.944755">
        <ele>1162.95020</ele>
        <time>2021-07-02T09:28:40Z</time>
      </trkpt>
      <trkpt lat="42.447250" lon="1.944746">
        <ele>1163.85266</ele>
        <time>2021-07-02T09:28:41Z</time>
      </trkpt>
      <trkpt lat="42.447399" lon="1.944525">
        <ele>1164.09229</ele>
        <time>2021-07-02T09:28:42Z</time>
      </trkpt>
      <trkpt lat="42.447575" lon="1.944492">
        <ele>1163.89172</ele>
        <time>2021-07-02T09:28:43Z</time>
      </trkpt>
      <trkpt lat="42.447712" lon="1.944466">
        <ele>1164.37573</ele>
        <time>2021-07-02T09:28:44Z</time>
      </trkpt>
      <trkpt lat="42.447842" lon="1.944443">
        <ele>1164.90649</ele>
        <time>2021-07-02T09:28:45Z</time>
      </trkpt>
      <trkpt lat="42.448093" lon="1.944397">
        <ele>1165.94299</ele>
        <time>2021-07-02T09:28:46Z</time>
      </trkpt>
      <trkpt lat="42.448261" lon="1.944367">
        <ele>1165.39844</ele>
        <time>2021-07-02T09:28:47Z</time>
      </trkpt>
      <trkpt lat="42.448448" lon="1.944333">
        <ele>1165.52905</ele>
        <time>2021-07-02T09:28:48Z</time>
      </trkpt>
      <trkpt lat="42.448624" lon="1.944301">
        <ele>1166.41821</ele>
        <time>2021-07-02T09:28:49Z</time>
      </trkpt>
      <trkpt lat="42.448814" lon="1.944285">
        <ele>1165.96545</ele>
        <time>2021-07-02T09:28:50Z</time>
      </trkpt>
      <trkpt lat="42.449005" lon="1.944301">
        <ele>1166.30261</ele>
        <time>2021-07-02T09:28:51Z</time>
      </trkpt>
      <trkpt lat="42.449181" lon="1.944315">
        <ele>1166.08594</ele>
        <time>2021-07-02T09:28:52Z</time>
      </trkpt>
      <trkpt lat="42.449364" lon="1.944331">
        <ele>1168.14490</ele>
        <time>2021-07-02T09:28:53Z</time>
      </trkpt>
      <trkpt lat="42.449558" lon="1.944347">
        <ele>1168.28406</ele>
        <time>2021-07-02T09:28:54Z</time>
      </trkpt>
      <trkpt lat="42.449753" lon="1.944352">
        <ele>1169.06580</ele>
        <time>2021-07-02T09:28:55Z</time>
      </trkpt>
      <trkpt lat="42.449940" lon="1.944347">
        <ele>1169.41174</ele>
        <time>2021-07-02T09:28:56Z</time>
      </trkpt>
      <trkpt lat="42.450130" lon="1.944340">
        <ele>1169.35156</ele>
        <time>2021-07-02T09:28:57Z</time>
      </trkpt>
      <trkpt lat="42.450325" lon="1.944332">
        <ele>1168.90234</ele>
        <time>2021-07-02T09:28:58Z</time>
      </trkpt>
      <trkpt lat="42.450504" lon="1.944324">
        <ele>1168.41113</ele>
        <time>2021-07-02T09:28:59Z</time>
      </trkpt>
      <trkpt lat="42.450672" lon="1.944317">
        <ele>1168.27820</ele>
        <time>2021-07-02T09:29:00Z</time>
      </trkpt>
      <trkpt lat="42.450840" lon="1.944310">
        <ele>1168.84351</ele>
        <time>2021-07-02T09:29:01Z</time>
      </trkpt>
      <trkpt lat="42.451012" lon="1.944301">
        <ele>1168.86719</ele>
        <time>2021-07-02T09:29:02Z</time>
      </trkpt>
      <trkpt lat="42.451199" lon="1.944266">
        <ele>1169.16858</ele>
        <time>2021-07-02T09:29:03Z</time>
      </trkpt>
      <trkpt lat="42.451378" lon="1.944231">
        <ele>1170.27649</ele>
        <time>2021-07-02T09:29:04Z</time>
      </trkpt>
      <trkpt lat="42.451557" lon="1.944170">
        <ele>1169.94153</ele>
        <time>2021-07-02T09:29:05Z</time>
      </trkpt>
      <trkpt lat="42.451557" lon="1.944170">
        <ele>1171.48474</ele>
        <time>2021-07-02T09:29:06Z</time>
      </trkpt>
      <trkpt lat="42.451740" lon="1.944108">
        <ele>1171.58826</ele>
        <time>2021-07-02T09:29:07Z</time>
      </trkpt>
      <trkpt lat="42.451920" lon="1.944047">
        <ele>1172.40906</ele>
        <time>2021-07-02T09:29:08Z</time>
      </trkpt>
      <trkpt lat="42.452122" lon="1.943979">
        <ele>1172.28259</ele>
        <time>2021-07-02T09:29:09Z</time>
      </trkpt>
      <trkpt lat="42.452305" lon="1.943916">
        <ele>1172.84985</ele>
        <time>2021-07-02T09:29:10Z</time>
      </trkpt>
      <trkpt lat="42.452499" lon="1.943850">
        <ele>1173.34985</ele>
        <time>2021-07-02T09:29:11Z</time>
      </trkpt>
      <trkpt lat="42.452694" lon="1.943783">
        <ele>1173.54041</ele>
        <time>2021-07-02T09:29:12Z</time>
      </trkpt>
      <trkpt lat="42.452881" lon="1.943718">
        <ele>1175.08154</ele>
        <time>2021-07-02T09:29:13Z</time>
      </trkpt>
      <trkpt lat="42.453053" lon="1.943658">
        <ele>1175.55481</ele>
        <time>2021-07-02T09:29:14Z</time>
      </trkpt>
      <trkpt lat="42.453232" lon="1.943595">
        <ele>1175.99512</ele>
        <time>2021-07-02T09:29:15Z</time>
      </trkpt>
      <trkpt lat="42.453430" lon="1.943526">
        <ele>1177.50183</ele>
        <time>2021-07-02T09:29:16Z</time>
      </trkpt>
      <trkpt lat="42.453617" lon="1.943460">
        <ele>1178.80334</ele>
        <time>2021-07-02T09:29:17Z</time>
      </trkpt>
      <trkpt lat="42.453815" lon="1.943391">
        <ele>1179.37195</ele>
        <time>2021-07-02T09:29:18Z</time>
      </trkpt>
      <trkpt lat="42.454002" lon="1.943326">
        <ele>1179.38794</ele>
        <time>2021-07-02T09:29:19Z</time>
      </trkpt>
      <trkpt lat="42.454208" lon="1.943254">
        <ele>1179.57666</ele>
        <time>2021-07-02T09:29:20Z</time>
      </trkpt>
      <trkpt lat="42.454395" lon="1.943176">
        <ele>1179.64221</ele>
        <time>2021-07-02T09:29:21Z</time>
      </trkpt>
      <trkpt lat="42.454567" lon="1.943074">
        <ele>1179.66724</ele>
        <time>2021-07-02T09:29:22Z</time>
      </trkpt>
      <trkpt lat="42.454723" lon="1.942961">
        <ele>1180.82166</ele>
        <time>2021-07-02T09:29:23Z</time>
      </trkpt>
      <trkpt lat="42.454895" lon="1.942836">
        <ele>1181.37866</ele>
        <time>2021-07-02T09:29:24Z</time>
      </trkpt>
      <trkpt lat="42.455067" lon="1.942712">
        <ele>1181.83020</ele>
        <time>2021-07-02T09:29:25Z</time>
      </trkpt>
      <trkpt lat="42.455235" lon="1.942591">
        <ele>1182.40881</ele>
        <time>2021-07-02T09:29:26Z</time>
      </trkpt>
      <trkpt lat="42.455387" lon="1.942479">
        <ele>1182.65735</ele>
        <time>2021-07-02T09:29:27Z</time>
      </trkpt>
      <trkpt lat="42.455551" lon="1.942360">
        <ele>1182.92908</ele>
        <time>2021-07-02T09:29:28Z</time>
      </trkpt>
      <trkpt lat="42.455719" lon="1.942238">
        <ele>1183.02234</ele>
        <time>2021-07-02T09:29:29Z</time>
      </trkpt>
      <trkpt lat="42.455883" lon="1.942119">
        <ele>1182.71729</ele>
        <time>2021-07-02T09:29:30Z</time>
      </trkpt>
      <trkpt lat="42.456055" lon="1.941994">
        <ele>1183.46558</ele>
        <time>2021-07-02T09:29:31Z</time>
      </trkpt>
      <trkpt lat="42.456226" lon="1.941870">
        <ele>1185.75806</ele>
        <time>2021-07-02T09:29:32Z</time>
      </trkpt>
      <trkpt lat="42.456402" lon="1.941741">
        <ele>1186.85071</ele>
        <time>2021-07-02T09:29:33Z</time>
      </trkpt>
      <trkpt lat="42.456589" lon="1.941608">
        <ele>1188.04041</ele>
        <time>2021-07-02T09:29:34Z</time>
      </trkpt>
      <trkpt lat="42.456776" lon="1.941474">
        <ele>1190.61877</ele>
        <time>2021-07-02T09:29:35Z</time>
      </trkpt>
      <trkpt lat="42.456776" lon="1.941474">
        <ele>1193.16650</ele>
        <time>2021-07-02T09:29:36Z</time>
      </trkpt>
      <trkpt lat="42.457188" lon="1.941215">
        <ele>1192.63818</ele>
        <time>2021-07-02T09:29:37Z</time>
      </trkpt>
      <trkpt lat="42.457188" lon="1.941215">
        <ele>1192.46472</ele>
        <time>2021-07-02T09:29:38Z</time>
      </trkpt>
      <trkpt lat="42.457413" lon="1.941102">
        <ele>1192.06213</ele>
        <time>2021-07-02T09:29:39Z</time>
      </trkpt>
      <trkpt lat="42.457619" lon="1.940997">
        <ele>1191.81934</ele>
        <time>2021-07-02T09:29:40Z</time>
      </trkpt>
      <trkpt lat="42.457829" lon="1.940897">
        <ele>1191.78101</ele>
        <time>2021-07-02T09:29:41Z</time>
      </trkpt>
      <trkpt lat="42.458008" lon="1.940805">
        <ele>1192.00061</ele>
        <time>2021-07-02T09:29:42Z</time>
      </trkpt>
      <trkpt lat="42.458191" lon="1.940710">
        <ele>1191.03223</ele>
        <time>2021-07-02T09:29:43Z</time>
      </trkpt>
      <trkpt lat="42.458378" lon="1.940615">
        <ele>1191.35449</ele>
        <time>2021-07-02T09:29:44Z</time>
      </trkpt>
      <trkpt lat="42.458565" lon="1.940522">
        <ele>1191.97119</ele>
        <time>2021-07-02T09:29:45Z</time>
      </trkpt>
      <trkpt lat="42.458752" lon="1.940426">
        <ele>1190.34851</ele>
        <time>2021-07-02T09:29:46Z</time>
      </trkpt>
      <trkpt lat="42.458923" lon="1.940339">
        <ele>1190.88110</ele>
        <time>2021-07-02T09:29:47Z</time>
      </trkpt>
      <trkpt lat="42.459080" lon="1.940261">
        <ele>1191.67004</ele>
        <time>2021-07-02T09:29:48Z</time>
      </trkpt>
      <trkpt lat="42.459248" lon="1.940176">
        <ele>1192.13538</ele>
        <time>2021-07-02T09:29:49Z</time>
      </trkpt>
      <trkpt lat="42.459408" lon="1.940096">
        <ele>1193.07251</ele>
        <time>2021-07-02T09:29:50Z</time>
      </trkpt>
      <trkpt lat="42.459538" lon="1.940030">
        <ele>1193.49255</ele>
        <time>2021-07-02T09:29:51Z</time>
      </trkpt>
      <trkpt lat="42.459660" lon="1.939969">
        <ele>1193.58765</ele>
        <time>2021-07-02T09:29:52Z</time>
      </trkpt>
      <trkpt lat="42.459785" lon="1.939900">
        <ele>1193.80188</ele>
        <time>2021-07-02T09:29:53Z</time>
      </trkpt>
      <trkpt lat="42.459915" lon="1.939808">
        <ele>1194.45801</ele>
        <time>2021-07-02T09:29:54Z</time>
      </trkpt>
      <trkpt lat="42.460018" lon="1.939668">
        <ele>1194.05811</ele>
        <time>2021-07-02T09:29:55Z</time>
      </trkpt>
      <trkpt lat="42.460114" lon="1.939534">
        <ele>1194.19031</ele>
        <time>2021-07-02T09:29:56Z</time>
      </trkpt>
      <trkpt lat="42.460217" lon="1.939388">
        <ele>1194.02332</ele>
        <time>2021-07-02T09:29:57Z</time>
      </trkpt>
      <trkpt lat="42.460323" lon="1.939230">
        <ele>1194.66577</ele>
        <time>2021-07-02T09:29:58Z</time>
      </trkpt>
      <trkpt lat="42.460411" lon="1.939102">
        <ele>1194.82373</ele>
        <time>2021-07-02T09:29:59Z</time>
      </trkpt>
      <trkpt lat="42.460499" lon="1.938973">
        <ele>1194.08057</ele>
        <time>2021-07-02T09:30:00Z</time>
      </trkpt>
      <trkpt lat="42.460594" lon="1.938833">
        <ele>1195.00195</ele>
        <time>2021-07-02T09:30:01Z</time>
      </trkpt>
      <trkpt lat="42.460686" lon="1.938702">
        <ele>1195.64856</ele>
        <time>2021-07-02T09:30:02Z</time>
      </trkpt>
      <trkpt lat="42.460777" lon="1.938572">
        <ele>1196.22742</ele>
        <time>2021-07-02T09:30:03Z</time>
      </trkpt>
      <trkpt lat="42.460861" lon="1.938444">
        <ele>1195.69592</ele>
        <time>2021-07-02T09:30:04Z</time>
      </trkpt>
      <trkpt lat="42.460945" lon="1.938319">
        <ele>1198.00928</ele>
        <time>2021-07-02T09:30:05Z</time>
      </trkpt>
      <trkpt lat="42.461040" lon="1.938183">
        <ele>1198.19458</ele>
        <time>2021-07-02T09:30:06Z</time>
      </trkpt>
      <trkpt lat="42.461155" lon="1.938012">
        <ele>1201.09705</ele>
        <time>2021-07-02T09:30:07Z</time>
      </trkpt>
      <trkpt lat="42.461254" lon="1.937864">
        <ele>1201.41138</ele>
        <time>2021-07-02T09:30:08Z</time>
      </trkpt>
      <trkpt lat="42.461342" lon="1.937736">
        <ele>1200.18091</ele>
        <time>2021-07-02T09:30:09Z</time>
      </trkpt>
      <trkpt lat="42.461342" lon="1.937736">
        <ele>1200.88916</ele>
        <time>2021-07-02T09:30:10Z</time>
      </trkpt>
      <trkpt lat="42.461414" lon="1.937609">
        <ele>1201.17334</ele>
        <time>2021-07-02T09:30:11Z</time>
      </trkpt>
      <trkpt lat="42.461452" lon="1.937499">
        <ele>1201.19421</ele>
        <time>2021-07-02T09:30:12Z</time>
      </trkpt>
      <trkpt lat="42.461468" lon="1.937346">
        <ele>1200.98010</ele>
        <time>2021-07-02T09:30:13Z</time>
      </trkpt>
      <trkpt lat="42.461472" lon="1.937211">
        <ele>1201.08081</ele>
        <time>2021-07-02T09:30:14Z</time>
      </trkpt>
      <trkpt lat="42.461460" lon="1.937071">
        <ele>1200.87219</ele>
        <time>2021-07-02T09:30:15Z</time>
      </trkpt>
      <trkpt lat="42.461437" lon="1.936981">
        <ele>1200.65137</ele>
        <time>2021-07-02T09:30:16Z</time>
      </trkpt>
      <trkpt lat="42.461384" lon="1.936825">
        <ele>1202.91138</ele>
        <time>2021-07-02T09:30:17Z</time>
      </trkpt>
      <trkpt lat="42.461315" lon="1.936720">
        <ele>1203.56763</ele>
        <time>2021-07-02T09:30:18Z</time>
      </trkpt>
      <trkpt lat="42.461239" lon="1.936601">
        <ele>1204.21094</ele>
        <time>2021-07-02T09:30:19Z</time>
      </trkpt>
      <trkpt lat="42.461205" lon="1.936547">
        <ele>1205.00684</ele>
        <time>2021-07-02T09:30:20Z</time>
      </trkpt>
      <trkpt lat="42.461113" lon="1.936423">
        <ele>1204.08313</ele>
        <time>2021-07-02T09:30:21Z</time>
      </trkpt>
      <trkpt lat="42.461029" lon="1.936316">
        <ele>1203.12219</ele>
        <time>2021-07-02T09:30:22Z</time>
      </trkpt>
      <trkpt lat="42.460907" lon="1.936221">
        <ele>1203.06360</ele>
        <time>2021-07-02T09:30:23Z</time>
      </trkpt>
      <trkpt lat="42.460789" lon="1.936177">
        <ele>1202.24573</ele>
        <time>2021-07-02T09:30:24Z</time>
      </trkpt>
      <trkpt lat="42.460659" lon="1.936167">
        <ele>1202.82227</ele>
        <time>2021-07-02T09:30:25Z</time>
      </trkpt>
      <trkpt lat="42.460506" lon="1.936159">
        <ele>1202.93628</ele>
        <time>2021-07-02T09:30:26Z</time>
      </trkpt>
      <trkpt lat="42.460373" lon="1.936151">
        <ele>1203.53650</ele>
        <time>2021-07-02T09:30:27Z</time>
      </trkpt>
      <trkpt lat="42.460217" lon="1.936143">
        <ele>1202.85046</ele>
        <time>2021-07-02T09:30:28Z</time>
      </trkpt>
      <trkpt lat="42.460083" lon="1.936135">
        <ele>1202.39465</ele>
        <time>2021-07-02T09:30:29Z</time>
      </trkpt>
      <trkpt lat="42.459923" lon="1.936127">
        <ele>1203.10364</ele>
        <time>2021-07-02T09:30:30Z</time>
      </trkpt>
      <trkpt lat="42.459789" lon="1.936120">
        <ele>1203.83289</ele>
        <time>2021-07-02T09:30:31Z</time>
      </trkpt>
      <trkpt lat="42.459663" lon="1.936113">
        <ele>1203.79150</ele>
        <time>2021-07-02T09:30:32Z</time>
      </trkpt>
      <trkpt lat="42.459518" lon="1.936106">
        <ele>1203.83838</ele>
        <time>2021-07-02T09:30:33Z</time>
      </trkpt>
      <trkpt lat="42.459373" lon="1.936097">
        <ele>1209.25232</ele>
        <time>2021-07-02T09:30:34Z</time>
      </trkpt>
      <trkpt lat="42.459213" lon="1.936058">
        <ele>1209.79004</ele>
        <time>2021-07-02T09:30:35Z</time>
      </trkpt>
      <trkpt lat="42.459053" lon="1.936003">
        <ele>1210.92920</ele>
        <time>2021-07-02T09:30:36Z</time>
      </trkpt>
      <trkpt lat="42.458900" lon="1.935944">
        <ele>1212.07483</ele>
        <time>2021-07-02T09:30:37Z</time>
      </trkpt>
      <trkpt lat="42.458733" lon="1.935879">
        <ele>1212.84338</ele>
        <time>2021-07-02T09:30:38Z</time>
      </trkpt>
      <trkpt lat="42.458549" lon="1.935809">
        <ele>1214.12939</ele>
        <time>2021-07-02T09:30:39Z</time>
      </trkpt>
      <trkpt lat="42.458393" lon="1.935796">
        <ele>1213.99573</ele>
        <time>2021-07-02T09:30:40Z</time>
      </trkpt>
      <trkpt lat="42.458237" lon="1.935794">
        <ele>1214.21667</ele>
        <time>2021-07-02T09:30:41Z</time>
      </trkpt>
      <trkpt lat="42.458069" lon="1.935801">
        <ele>1214.94592</ele>
        <time>2021-07-02T09:30:42Z</time>
      </trkpt>
      <trkpt lat="42.457874" lon="1.935809">
        <ele>1215.26404</ele>
        <time>2021-07-02T09:30:43Z</time>
      </trkpt>
      <trkpt lat="42.457703" lon="1.935816">
        <ele>1215.68774</ele>
        <time>2021-07-02T09:30:44Z</time>
      </trkpt>
      <trkpt lat="42.457535" lon="1.935823">
        <ele>1216.23926</ele>
        <time>2021-07-02T09:30:45Z</time>
      </trkpt>
      <trkpt lat="42.457535" lon="1.935823">
        <ele>1217.60144</ele>
        <time>2021-07-02T09:30:46Z</time>
      </trkpt>
      <trkpt lat="42.457352" lon="1.935834">
        <ele>1218.26196</ele>
        <time>2021-07-02T09:30:47Z</time>
      </trkpt>
      <trkpt lat="42.457165" lon="1.935872">
        <ele>1219.07898</ele>
        <time>2021-07-02T09:30:48Z</time>
      </trkpt>
      <trkpt lat="42.456970" lon="1.935932">
        <ele>1219.69885</ele>
        <time>2021-07-02T09:30:49Z</time>
      </trkpt>
      <trkpt lat="42.456795" lon="1.935986">
        <ele>1220.65112</ele>
        <time>2021-07-02T09:30:50Z</time>
      </trkpt>
      <trkpt lat="42.456608" lon="1.936043">
        <ele>1221.30273</ele>
        <time>2021-07-02T09:30:51Z</time>
      </trkpt>
      <trkpt lat="42.456432" lon="1.936093">
        <ele>1221.22729</ele>
        <time>2021-07-02T09:30:52Z</time>
      </trkpt>
      <trkpt lat="42.456249" lon="1.936141">
        <ele>1221.43298</ele>
        <time>2021-07-02T09:30:53Z</time>
      </trkpt>
      <trkpt lat="42.456078" lon="1.936141">
        <ele>1220.86963</ele>
        <time>2021-07-02T09:30:54Z</time>
      </trkpt>
      <trkpt lat="42.455971" lon="1.936141">
        <ele>1221.17993</ele>
        <time>2021-07-02T09:30:55Z</time>
      </trkpt>
      <trkpt lat="42.455879" lon="1.936141">
        <ele>1221.94775</ele>
        <time>2021-07-02T09:30:56Z</time>
      </trkpt>
      <trkpt lat="42.455780" lon="1.936141">
        <ele>1222.40735</ele>
        <time>2021-07-02T09:30:57Z</time>
      </trkpt>
      <trkpt lat="42.455658" lon="1.936141">
        <ele>1223.18872</ele>
        <time>2021-07-02T09:30:58Z</time>
      </trkpt>
      <trkpt lat="42.455547" lon="1.936141">
        <ele>1223.57019</ele>
        <time>2021-07-02T09:30:59Z</time>
      </trkpt>
      <trkpt lat="42.455410" lon="1.936138">
        <ele>1224.37207</ele>
        <time>2021-07-02T09:31:00Z</time>
      </trkpt>
      <trkpt lat="42.455273" lon="1.936135">
        <ele>1224.43445</ele>
        <time>2021-07-02T09:31:01Z</time>
      </trkpt>
      <trkpt lat="42.455151" lon="1.936132">
        <ele>1224.70776</ele>
        <time>2021-07-02T09:31:02Z</time>
      </trkpt>
      <trkpt lat="42.455036" lon="1.936129">
        <ele>1224.78125</ele>
        <time>2021-07-02T09:31:03Z</time>
      </trkpt>
      <trkpt lat="42.454922" lon="1.936127">
        <ele>1225.20032</ele>
        <time>2021-07-02T09:31:04Z</time>
      </trkpt>
      <trkpt lat="42.454777" lon="1.936124">
        <ele>1226.42859</ele>
        <time>2021-07-02T09:31:05Z</time>
      </trkpt>
      <trkpt lat="42.454639" lon="1.936121">
        <ele>1226.99670</ele>
        <time>2021-07-02T09:31:06Z</time>
      </trkpt>
      <trkpt lat="42.454514" lon="1.936088">
        <ele>1228.26794</ele>
        <time>2021-07-02T09:31:07Z</time>
      </trkpt>
      <trkpt lat="42.454403" lon="1.936018">
        <ele>1228.86865</ele>
        <time>2021-07-02T09:31:08Z</time>
      </trkpt>
      <trkpt lat="42.454304" lon="1.935885">
        <ele>1226.94922</ele>
        <time>2021-07-02T09:31:09Z</time>
      </trkpt>
      <trkpt lat="42.454247" lon="1.935736">
        <ele>1227.16199</ele>
        <time>2021-07-02T09:31:10Z</time>
      </trkpt>
      <trkpt lat="42.454208" lon="1.935541">
        <ele>1227.52283</ele>
        <time>2021-07-02T09:31:11Z</time>
      </trkpt>
      <trkpt lat="42.454208" lon="1.935369">
        <ele>1228.39771</ele>
        <time>2021-07-02T09:31:12Z</time>
      </trkpt>
      <trkpt lat="42.454208" lon="1.935369">
        <ele>1226.04846</ele>
        <time>2021-07-02T09:31:13Z</time>
      </trkpt>
      <trkpt lat="42.454269" lon="1.935160">
        <ele>1225.45300</ele>
        <time>2021-07-02T09:31:14Z</time>
      </trkpt>
      <trkpt lat="42.454304" lon="1.935101">
        <ele>1229.60144</ele>
        <time>2021-07-02T09:31:15Z</time>
      </trkpt>
      <trkpt lat="42.454353" lon="1.935017">
        <ele>1232.02478</ele>
        <time>2021-07-02T09:31:16Z</time>
      </trkpt>
      <trkpt lat="42.454445" lon="1.934873">
        <ele>1232.60547</ele>
        <time>2021-07-02T09:31:17Z</time>
      </trkpt>
      <trkpt lat="42.454746" lon="1.934395">
        <ele>1233.79138</ele>
        <time>2021-07-02T09:31:18Z</time>
      </trkpt>
      <trkpt lat="42.454903" lon="1.934143">
        <ele>1233.59058</ele>
        <time>2021-07-02T09:31:19Z</time>
      </trkpt>
      <trkpt lat="42.455032" lon="1.933941">
        <ele>1234.05750</ele>
        <time>2021-07-02T09:31:20Z</time>
      </trkpt>
      <trkpt lat="42.455235" lon="1.933634">
        <ele>1235.25500</ele>
        <time>2021-07-02T09:31:21Z</time>
      </trkpt>
      <trkpt lat="42.455399" lon="1.933362">
        <ele>1235.27881</ele>
        <time>2021-07-02T09:31:22Z</time>
      </trkpt>
      <trkpt lat="42.455597" lon="1.933036">
        <ele>1237.82446</ele>
        <time>2021-07-02T09:31:23Z</time>
      </trkpt>
      <trkpt lat="42.455719" lon="1.932769">
        <ele>1240.05066</ele>
        <time>2021-07-02T09:31:24Z</time>
      </trkpt>
      <trkpt lat="42.455814" lon="1.932466">
        <ele>1241.01904</ele>
        <time>2021-07-02T09:31:25Z</time>
      </trkpt>
      <trkpt lat="42.455921" lon="1.932065">
        <ele>1241.08447</ele>
        <time>2021-07-02T09:31:26Z</time>
      </trkpt>
      <trkpt lat="42.456020" lon="1.931681">
        <ele>1242.78162</ele>
        <time>2021-07-02T09:31:27Z</time>
      </trkpt>
      <trkpt lat="42.456127" lon="1.931256">
        <ele>1242.80396</ele>
        <time>2021-07-02T09:31:28Z</time>
      </trkpt>
      <trkpt lat="42.456223" lon="1.930889">
        <ele>1244.45300</ele>
        <time>2021-07-02T09:31:29Z</time>
      </trkpt>
      <trkpt lat="42.456322" lon="1.930499">
        <ele>1245.00061</ele>
        <time>2021-07-02T09:31:30Z</time>
      </trkpt>
      <trkpt lat="42.456413" lon="1.930140">
        <ele>1245.82715</ele>
        <time>2021-07-02T09:31:31Z</time>
      </trkpt>
      <trkpt lat="42.456512" lon="1.929755">
        <ele>1246.01575</ele>
        <time>2021-07-02T09:31:32Z</time>
      </trkpt>
      <trkpt lat="42.456612" lon="1.929361">
        <ele>1246.64746</ele>
        <time>2021-07-02T09:31:33Z</time>
      </trkpt>
      <trkpt lat="42.456684" lon="1.928981">
        <ele>1247.34949</ele>
        <time>2021-07-02T09:31:34Z</time>
      </trkpt>
      <trkpt lat="42.456757" lon="1.928619">
        <ele>1247.32397</ele>
        <time>2021-07-02T09:31:35Z</time>
      </trkpt>
      <trkpt lat="42.456833" lon="1.928246">
        <ele>1247.52747</ele>
        <time>2021-07-02T09:31:36Z</time>
      </trkpt>
      <trkpt lat="42.456917" lon="1.927847">
        <ele>1248.18652</ele>
        <time>2021-07-02T09:31:37Z</time>
      </trkpt>
      <trkpt lat="42.456993" lon="1.927495">
        <ele>1248.91541</ele>
        <time>2021-07-02T09:31:38Z</time>
      </trkpt>
      <trkpt lat="42.457073" lon="1.927120">
        <ele>1249.62732</ele>
        <time>2021-07-02T09:31:39Z</time>
      </trkpt>
      <trkpt lat="42.457153" lon="1.926737">
        <ele>1250.28723</ele>
        <time>2021-07-02T09:31:40Z</time>
      </trkpt>
      <trkpt lat="42.457233" lon="1.926367">
        <ele>1251.04431</ele>
        <time>2021-07-02T09:31:41Z</time>
      </trkpt>
      <trkpt lat="42.457233" lon="1.926367">
        <ele>1250.69348</ele>
        <time>2021-07-02T09:31:42Z</time>
      </trkpt>
      <trkpt lat="42.457314" lon="1.925997">
        <ele>1250.70679</ele>
        <time>2021-07-02T09:31:43Z</time>
      </trkpt>
      <trkpt lat="42.457394" lon="1.925617">
        <ele>1250.03259</ele>
        <time>2021-07-02T09:31:44Z</time>
      </trkpt>
      <trkpt lat="42.457474" lon="1.925241">
        <ele>1250.18115</ele>
        <time>2021-07-02T09:31:45Z</time>
      </trkpt>
      <trkpt lat="42.457554" lon="1.924856">
        <ele>1250.73950</ele>
        <time>2021-07-02T09:31:46Z</time>
      </trkpt>
      <trkpt lat="42.457630" lon="1.924489">
        <ele>1250.46606</ele>
        <time>2021-07-02T09:31:47Z</time>
      </trkpt>
      <trkpt lat="42.457714" lon="1.924103">
        <ele>1250.65515</ele>
        <time>2021-07-02T09:31:48Z</time>
      </trkpt>
      <trkpt lat="42.457790" lon="1.923743">
        <ele>1251.03418</ele>
        <time>2021-07-02T09:31:49Z</time>
      </trkpt>
      <trkpt lat="42.457867" lon="1.923386">
        <ele>1251.21521</ele>
        <time>2021-07-02T09:31:50Z</time>
      </trkpt>
      <trkpt lat="42.457939" lon="1.923032">
        <ele>1251.86829</ele>
        <time>2021-07-02T09:31:51Z</time>
      </trkpt>
      <trkpt lat="42.458000" lon="1.922762">
        <ele>1252.59192</ele>
        <time>2021-07-02T09:31:52Z</time>
      </trkpt>
      <trkpt lat="42.458073" lon="1.922424">
        <ele>1251.48071</ele>
        <time>2021-07-02T09:31:53Z</time>
      </trkpt>
      <trkpt lat="42.458111" lon="1.922244">
        <ele>1250.81641</ele>
        <time>2021-07-02T09:31:54Z</time>
      </trkpt>
      <trkpt lat="42.458168" lon="1.921997">
        <ele>1251.10767</ele>
        <time>2021-07-02T09:31:55Z</time>
      </trkpt>
      <trkpt lat="42.458210" lon="1.921793">
        <ele>1251.12549</ele>
        <time>2021-07-02T09:31:56Z</time>
      </trkpt>
      <trkpt lat="42.458256" lon="1.921600">
        <ele>1251.05884</ele>
        <time>2021-07-02T09:31:57Z</time>
      </trkpt>
      <trkpt lat="42.458298" lon="1.921408">
        <ele>1251.19263</ele>
        <time>2021-07-02T09:31:58Z</time>
      </trkpt>
      <trkpt lat="42.458351" lon="1.921254">
        <ele>1252.33008</ele>
        <time>2021-07-02T09:31:59Z</time>
      </trkpt>
      <trkpt lat="42.458389" lon="1.921084">
        <ele>1252.75122</ele>
        <time>2021-07-02T09:32:00Z</time>
      </trkpt>
      <trkpt lat="42.458420" lon="1.920963">
        <ele>1253.02246</ele>
        <time>2021-07-02T09:32:01Z</time>
      </trkpt>
      <trkpt lat="42.458450" lon="1.920854">
        <ele>1253.12952</ele>
        <time>2021-07-02T09:32:02Z</time>
      </trkpt>
      <trkpt lat="42.458504" lon="1.920710">
        <ele>1254.12903</ele>
        <time>2021-07-02T09:32:03Z</time>
      </trkpt>
      <trkpt lat="42.458549" lon="1.920593">
        <ele>1253.91724</ele>
        <time>2021-07-02T09:32:04Z</time>
      </trkpt>
      <trkpt lat="42.458591" lon="1.920497">
        <ele>1252.32703</ele>
        <time>2021-07-02T09:32:05Z</time>
      </trkpt>
      <trkpt lat="42.458633" lon="1.920399">
        <ele>1250.99585</ele>
        <time>2021-07-02T09:32:06Z</time>
      </trkpt>
      <trkpt lat="42.458675" lon="1.920296">
        <ele>1250.85400</ele>
        <time>2021-07-02T09:32:07Z</time>
      </trkpt>
      <trkpt lat="42.458710" lon="1.920227">
        <ele>1251.30859</ele>
        <time>2021-07-02T09:32:08Z</time>
      </trkpt>
      <trkpt lat="42.458740" lon="1.920160">
        <ele>1251.67529</ele>
        <time>2021-07-02T09:32:09Z</time>
      </trkpt>
      <trkpt lat="42.458740" lon="1.920160">
        <ele>1251.71765</ele>
        <time>2021-07-02T09:32:10Z</time>
      </trkpt>
      <trkpt lat="42.458775" lon="1.920085">
        <ele>1251.91138</ele>
        <time>2021-07-02T09:32:11Z</time>
      </trkpt>
      <trkpt lat="42.458817" lon="1.920003">
        <ele>1252.12341</ele>
        <time>2021-07-02T09:32:12Z</time>
      </trkpt>
      <trkpt lat="42.458851" lon="1.919931">
        <ele>1251.26868</ele>
        <time>2021-07-02T09:32:13Z</time>
      </trkpt>
      <trkpt lat="42.458889" lon="1.919847">
        <ele>1251.44702</ele>
        <time>2021-07-02T09:32:14Z</time>
      </trkpt>
      <trkpt lat="42.458927" lon="1.919762">
        <ele>1252.27283</ele>
        <time>2021-07-02T09:32:15Z</time>
      </trkpt>
      <trkpt lat="42.458965" lon="1.919681">
        <ele>1252.29797</ele>
        <time>2021-07-02T09:32:16Z</time>
      </trkpt>
      <trkpt lat="42.459007" lon="1.919581">
        <ele>1252.46265</ele>
        <time>2021-07-02T09:32:17Z</time>
      </trkpt>
      <trkpt lat="42.459042" lon="1.919498">
        <ele>1252.68274</ele>
        <time>2021-07-02T09:32:18Z</time>
      </trkpt>
      <trkpt lat="42.459076" lon="1.919412">
        <ele>1252.70288</ele>
        <time>2021-07-02T09:32:19Z</time>
      </trkpt>
      <trkpt lat="42.459122" lon="1.919309">
        <ele>1252.71643</ele>
        <time>2021-07-02T09:32:20Z</time>
      </trkpt>
      <trkpt lat="42.459167" lon="1.919197">
        <ele>1253.50244</ele>
        <time>2021-07-02T09:32:21Z</time>
      </trkpt>
      <trkpt lat="42.459202" lon="1.919111">
        <ele>1254.21594</ele>
        <time>2021-07-02T09:32:22Z</time>
      </trkpt>
      <trkpt lat="42.459244" lon="1.919012">
        <ele>1255.22864</ele>
        <time>2021-07-02T09:32:23Z</time>
      </trkpt>
      <trkpt lat="42.459278" lon="1.918918">
        <ele>1254.41492</ele>
        <time>2021-07-02T09:32:24Z</time>
      </trkpt>
      <trkpt lat="42.459312" lon="1.918833">
        <ele>1254.60608</ele>
        <time>2021-07-02T09:32:25Z</time>
      </trkpt>
      <trkpt lat="42.459351" lon="1.918730">
        <ele>1255.48474</ele>
        <time>2021-07-02T09:32:26Z</time>
      </trkpt>
      <trkpt lat="42.459385" lon="1.918626">
        <ele>1255.52124</ele>
        <time>2021-07-02T09:32:27Z</time>
      </trkpt>
      <trkpt lat="42.459415" lon="1.918496">
        <ele>1256.09570</ele>
        <time>2021-07-02T09:32:28Z</time>
      </trkpt>
      <trkpt lat="42.459438" lon="1.918360">
        <ele>1256.42700</ele>
        <time>2021-07-02T09:32:29Z</time>
      </trkpt>
      <trkpt lat="42.459454" lon="1.918232">
        <ele>1256.48560</ele>
        <time>2021-07-02T09:32:30Z</time>
      </trkpt>
      <trkpt lat="42.459461" lon="1.918108">
        <ele>1256.29028</ele>
        <time>2021-07-02T09:32:31Z</time>
      </trkpt>
      <trkpt lat="42.459469" lon="1.917984">
        <ele>1255.39429</ele>
        <time>2021-07-02T09:32:32Z</time>
      </trkpt>
      <trkpt lat="42.459476" lon="1.917888">
        <ele>1255.27258</ele>
        <time>2021-07-02T09:32:33Z</time>
      </trkpt>
      <trkpt lat="42.459499" lon="1.917801">
        <ele>1255.39026</ele>
        <time>2021-07-02T09:32:34Z</time>
      </trkpt>
      <trkpt lat="42.459526" lon="1.917700">
        <ele>1255.50012</ele>
        <time>2021-07-02T09:32:35Z</time>
      </trkpt>
      <trkpt lat="42.459564" lon="1.917589">
        <ele>1255.86255</ele>
        <time>2021-07-02T09:32:36Z</time>
      </trkpt>
      <trkpt lat="42.459606" lon="1.917482">
        <ele>1255.62988</ele>
        <time>2021-07-02T09:32:37Z</time>
      </trkpt>
      <trkpt lat="42.459648" lon="1.917393">
        <ele>1254.08203</ele>
        <time>2021-07-02T09:32:38Z</time>
      </trkpt>
      <trkpt lat="42.459694" lon="1.917306">
        <ele>1254.24036</ele>
        <time>2021-07-02T09:32:39Z</time>
      </trkpt>
      <trkpt lat="42.459732" lon="1.917214">
        <ele>1253.46606</ele>
        <time>2021-07-02T09:32:40Z</time>
      </trkpt>
      <trkpt lat="42.459782" lon="1.917097">
        <ele>1253.76050</ele>
        <time>2021-07-02T09:32:41Z</time>
      </trkpt>
      <trkpt lat="42.459827" lon="1.916978">
        <ele>1253.99780</ele>
        <time>2021-07-02T09:32:42Z</time>
      </trkpt>
      <trkpt lat="42.459866" lon="1.916875">
        <ele>1255.10083</ele>
        <time>2021-07-02T09:32:43Z</time>
      </trkpt>
      <trkpt lat="42.459888" lon="1.916802">
        <ele>1255.19849</ele>
        <time>2021-07-02T09:32:44Z</time>
      </trkpt>
      <trkpt lat="42.459888" lon="1.916802">
        <ele>1254.77271</ele>
        <time>2021-07-02T09:32:45Z</time>
      </trkpt>
      <trkpt lat="42.459908" lon="1.916734">
        <ele>1254.66980</ele>
        <time>2021-07-02T09:32:46Z</time>
      </trkpt>
      <trkpt lat="42.459927" lon="1.916646">
        <ele>1256.39563</ele>
        <time>2021-07-02T09:32:47Z</time>
      </trkpt>
      <trkpt lat="42.459930" lon="1.916640">
        <ele>1256.16443</ele>
        <time>2021-07-02T09:32:48Z</time>
      </trkpt>
      <trkpt lat="42.459930" lon="1.916640">
        <ele>1256.85400</ele>
        <time>2021-07-02T09:32:49Z</time>
      </trkpt>
      <trkpt lat="42.459938" lon="1.916598">
        <ele>1257.13135</ele>
        <time>2021-07-02T09:32:50Z</time>
      </trkpt>
      <trkpt lat="42.459953" lon="1.916539">
        <ele>1258.06128</ele>
        <time>2021-07-02T09:32:51Z</time>
      </trkpt>
      <trkpt lat="42.459972" lon="1.916438">
        <ele>1258.16614</ele>
        <time>2021-07-02T09:32:52Z</time>
      </trkpt>
      <trkpt lat="42.459991" lon="1.916353">
        <ele>1258.49084</ele>
        <time>2021-07-02T09:32:53Z</time>
      </trkpt>
      <trkpt lat="42.460011" lon="1.916268">
        <ele>1258.50073</ele>
        <time>2021-07-02T09:32:54Z</time>
      </trkpt>
      <trkpt lat="42.460026" lon="1.916190">
        <ele>1251.72363</ele>
        <time>2021-07-02T09:32:55Z</time>
      </trkpt>
      <trkpt lat="42.460049" lon="1.916073">
        <ele>1254.54114</ele>
        <time>2021-07-02T09:32:56Z</time>
      </trkpt>
      <trkpt lat="42.460064" lon="1.915985">
        <ele>1255.67932</ele>
        <time>2021-07-02T09:32:57Z</time>
      </trkpt>
      <trkpt lat="42.460098" lon="1.915818">
        <ele>1255.17407</ele>
        <time>2021-07-02T09:32:58Z</time>
      </trkpt>
      <trkpt lat="42.460114" lon="1.915710">
        <ele>1255.69092</ele>
        <time>2021-07-02T09:32:59Z</time>
      </trkpt>
      <trkpt lat="42.460133" lon="1.915586">
        <ele>1256.30054</ele>
        <time>2021-07-02T09:33:00Z</time>
      </trkpt>
      <trkpt lat="42.460155" lon="1.915447">
        <ele>1256.55432</ele>
        <time>2021-07-02T09:33:01Z</time>
      </trkpt>
      <trkpt lat="42.460171" lon="1.915333">
        <ele>1257.01941</ele>
        <time>2021-07-02T09:33:02Z</time>
      </trkpt>
      <trkpt lat="42.460194" lon="1.915215">
        <ele>1258.09167</ele>
        <time>2021-07-02T09:33:03Z</time>
      </trkpt>
      <trkpt lat="42.460220" lon="1.915112">
        <ele>1259.25452</ele>
        <time>2021-07-02T09:33:04Z</time>
      </trkpt>
      <trkpt lat="42.460251" lon="1.914997">
        <ele>1259.05481</ele>
        <time>2021-07-02T09:33:05Z</time>
      </trkpt>
      <trkpt lat="42.460281" lon="1.914885">
        <ele>1260.49719</ele>
        <time>2021-07-02T09:33:06Z</time>
      </trkpt>
      <trkpt lat="42.460323" lon="1.914772">
        <ele>1261.40027</ele>
        <time>2021-07-02T09:33:07Z</time>
      </trkpt>
      <trkpt lat="42.460381" lon="1.914631">
        <ele>1261.54272</ele>
        <time>2021-07-02T09:33:08Z</time>
      </trkpt>
      <trkpt lat="42.460442" lon="1.914467">
        <ele>1261.78259</ele>
        <time>2021-07-02T09:33:09Z</time>
      </trkpt>
      <trkpt lat="42.460491" lon="1.914326">
        <ele>1262.05139</ele>
        <time>2021-07-02T09:33:10Z</time>
      </trkpt>
      <trkpt lat="42.460541" lon="1.914181">
        <ele>1262.68030</ele>
        <time>2021-07-02T09:33:11Z</time>
      </trkpt>
      <trkpt lat="42.460594" lon="1.914015">
        <ele>1262.29993</ele>
        <time>2021-07-02T09:33:12Z</time>
      </trkpt>
      <trkpt lat="42.460644" lon="1.913845">
        <ele>1262.27051</ele>
        <time>2021-07-02T09:33:13Z</time>
      </trkpt>
      <trkpt lat="42.460686" lon="1.913701">
        <ele>1262.40759</ele>
        <time>2021-07-02T09:33:14Z</time>
      </trkpt>
      <trkpt lat="42.460728" lon="1.913556">
        <ele>1261.38318</ele>
        <time>2021-07-02T09:33:15Z</time>
      </trkpt>
      <trkpt lat="42.460766" lon="1.913398">
        <ele>1261.49084</ele>
        <time>2021-07-02T09:33:16Z</time>
      </trkpt>
      <trkpt lat="42.460796" lon="1.913228">
        <ele>1261.66211</ele>
        <time>2021-07-02T09:33:17Z</time>
      </trkpt>
      <trkpt lat="42.460796" lon="1.913228">
        <ele>1261.50635</ele>
        <time>2021-07-02T09:33:18Z</time>
      </trkpt>
      <trkpt lat="42.460831" lon="1.913054">
        <ele>1262.76001</ele>
        <time>2021-07-02T09:33:19Z</time>
      </trkpt>
      <trkpt lat="42.460865" lon="1.912899">
        <ele>1262.91235</ele>
        <time>2021-07-02T09:33:20Z</time>
      </trkpt>
      <trkpt lat="42.460896" lon="1.912764">
        <ele>1263.19189</ele>
        <time>2021-07-02T09:33:21Z</time>
      </trkpt>
      <trkpt lat="42.460930" lon="1.912614">
        <ele>1263.58093</ele>
        <time>2021-07-02T09:33:22Z</time>
      </trkpt>
      <trkpt lat="42.460964" lon="1.912455">
        <ele>1261.44336</ele>
        <time>2021-07-02T09:33:23Z</time>
      </trkpt>
      <trkpt lat="42.461014" lon="1.912290">
        <ele>1261.51062</ele>
        <time>2021-07-02T09:33:24Z</time>
      </trkpt>
      <trkpt lat="42.461063" lon="1.912136">
        <ele>1261.69397</ele>
        <time>2021-07-02T09:33:25Z</time>
      </trkpt>
      <trkpt lat="42.461113" lon="1.912002">
        <ele>1261.09314</ele>
        <time>2021-07-02T09:33:26Z</time>
      </trkpt>
      <trkpt lat="42.461178" lon="1.911842">
        <ele>1261.98926</ele>
        <time>2021-07-02T09:33:27Z</time>
      </trkpt>
      <trkpt lat="42.461239" lon="1.911689">
        <ele>1261.70679</ele>
        <time>2021-07-02T09:33:28Z</time>
      </trkpt>
      <trkpt lat="42.461304" lon="1.911530">
        <ele>1262.09302</ele>
        <time>2021-07-02T09:33:29Z</time>
      </trkpt>
      <trkpt lat="42.461365" lon="1.911375">
        <ele>1258.71265</ele>
        <time>2021-07-02T09:33:30Z</time>
      </trkpt>
      <trkpt lat="42.461414" lon="1.911217">
        <ele>1258.77246</ele>
        <time>2021-07-02T09:33:31Z</time>
      </trkpt>
      <trkpt lat="42.461472" lon="1.911071">
        <ele>1259.28723</ele>
        <time>2021-07-02T09:33:32Z</time>
      </trkpt>
      <trkpt lat="42.461533" lon="1.910903">
        <ele>1258.82056</ele>
        <time>2021-07-02T09:33:33Z</time>
      </trkpt>
      <trkpt lat="42.461590" lon="1.910743">
        <ele>1259.95337</ele>
        <time>2021-07-02T09:33:34Z</time>
      </trkpt>
      <trkpt lat="42.461658" lon="1.910558">
        <ele>1260.25037</ele>
        <time>2021-07-02T09:33:35Z</time>
      </trkpt>
      <trkpt lat="42.461720" lon="1.910386">
        <ele>1260.50757</ele>
        <time>2021-07-02T09:33:36Z</time>
      </trkpt>
      <trkpt lat="42.461784" lon="1.910204">
        <ele>1260.30688</ele>
        <time>2021-07-02T09:33:37Z</time>
      </trkpt>
      <trkpt lat="42.461853" lon="1.910025">
        <ele>1261.46509</ele>
        <time>2021-07-02T09:33:38Z</time>
      </trkpt>
      <trkpt lat="42.461910" lon="1.909823">
        <ele>1261.46570</ele>
        <time>2021-07-02T09:33:39Z</time>
      </trkpt>
      <trkpt lat="42.461964" lon="1.909620">
        <ele>1261.74316</ele>
        <time>2021-07-02T09:33:40Z</time>
      </trkpt>
      <trkpt lat="42.462017" lon="1.909388">
        <ele>1261.77209</ele>
        <time>2021-07-02T09:33:41Z</time>
      </trkpt>
      <trkpt lat="42.462063" lon="1.909174">
        <ele>1261.71826</ele>
        <time>2021-07-02T09:33:42Z</time>
      </trkpt>
      <trkpt lat="42.462112" lon="1.908958">
        <ele>1260.90479</ele>
        <time>2021-07-02T09:33:43Z</time>
      </trkpt>
      <trkpt lat="42.462162" lon="1.908744">
        <ele>1260.78784</ele>
        <time>2021-07-02T09:33:44Z</time>
      </trkpt>
      <trkpt lat="42.462212" lon="1.908517">
        <ele>1261.41528</ele>
        <time>2021-07-02T09:33:45Z</time>
      </trkpt>
      <trkpt lat="42.462269" lon="1.908275">
        <ele>1261.24658</ele>
        <time>2021-07-02T09:33:46Z</time>
      </trkpt>
      <trkpt lat="42.462315" lon="1.908047">
        <ele>1261.47656</ele>
        <time>2021-07-02T09:33:47Z</time>
      </trkpt>
      <trkpt lat="42.462345" lon="1.907828">
        <ele>1260.76086</ele>
        <time>2021-07-02T09:33:48Z</time>
      </trkpt>
      <trkpt lat="42.462368" lon="1.907616">
        <ele>1260.70923</ele>
        <time>2021-07-02T09:33:49Z</time>
      </trkpt>
      <trkpt lat="42.462368" lon="1.907616">
        <ele>1261.35938</ele>
        <time>2021-07-02T09:33:50Z</time>
      </trkpt>
      <trkpt lat="42.462387" lon="1.907387">
        <ele>1261.32288</ele>
        <time>2021-07-02T09:33:51Z</time>
      </trkpt>
      <trkpt lat="42.462406" lon="1.907154">
        <ele>1261.47205</ele>
        <time>2021-07-02T09:33:52Z</time>
      </trkpt>
      <trkpt lat="42.462425" lon="1.906916">
        <ele>1260.94568</ele>
        <time>2021-07-02T09:33:53Z</time>
      </trkpt>
      <trkpt lat="42.462440" lon="1.906679">
        <ele>1262.13855</ele>
        <time>2021-07-02T09:33:54Z</time>
      </trkpt>
      <trkpt lat="42.462460" lon="1.906398">
        <ele>1262.20349</ele>
        <time>2021-07-02T09:33:55Z</time>
      </trkpt>
      <trkpt lat="42.462463" lon="1.906186">
        <ele>1260.73889</ele>
        <time>2021-07-02T09:33:56Z</time>
      </trkpt>
      <trkpt lat="42.462425" lon="1.905939">
        <ele>1261.72449</ele>
        <time>2021-07-02T09:33:57Z</time>
      </trkpt>
      <trkpt lat="42.462353" lon="1.905704">
        <ele>1262.24268</ele>
        <time>2021-07-02T09:33:58Z</time>
      </trkpt>
      <trkpt lat="42.462269" lon="1.905444">
        <ele>1262.16785</ele>
        <time>2021-07-02T09:33:59Z</time>
      </trkpt>
      <trkpt lat="42.462189" lon="1.905194">
        <ele>1261.46777</ele>
        <time>2021-07-02T09:34:00Z</time>
      </trkpt>
      <trkpt lat="42.462105" lon="1.904948">
        <ele>1260.67871</ele>
        <time>2021-07-02T09:34:01Z</time>
      </trkpt>
      <trkpt lat="42.462025" lon="1.904697">
        <ele>1260.87036</ele>
        <time>2021-07-02T09:34:02Z</time>
      </trkpt>
      <trkpt lat="42.461937" lon="1.904430">
        <ele>1262.07532</ele>
        <time>2021-07-02T09:34:03Z</time>
      </trkpt>
      <trkpt lat="42.461880" lon="1.904196">
        <ele>1261.42249</ele>
        <time>2021-07-02T09:34:04Z</time>
      </trkpt>
      <trkpt lat="42.461823" lon="1.903964">
        <ele>1262.16724</ele>
        <time>2021-07-02T09:34:05Z</time>
      </trkpt>
      <trkpt lat="42.461792" lon="1.903733">
        <ele>1262.34290</ele>
        <time>2021-07-02T09:34:06Z</time>
      </trkpt>
      <trkpt lat="42.461815" lon="1.903455">
        <ele>1260.09558</ele>
        <time>2021-07-02T09:34:07Z</time>
      </trkpt>
      <trkpt lat="42.461857" lon="1.903177">
        <ele>1260.20410</ele>
        <time>2021-07-02T09:34:08Z</time>
      </trkpt>
      <trkpt lat="42.461918" lon="1.902897">
        <ele>1262.10828</ele>
        <time>2021-07-02T09:34:09Z</time>
      </trkpt>
      <trkpt lat="42.462013" lon="1.902607">
        <ele>1262.22815</ele>
        <time>2021-07-02T09:34:10Z</time>
      </trkpt>
      <trkpt lat="42.462124" lon="1.902314">
        <ele>1262.29993</ele>
        <time>2021-07-02T09:34:11Z</time>
      </trkpt>
      <trkpt lat="42.462254" lon="1.901980">
        <ele>1262.48633</ele>
        <time>2021-07-02T09:34:12Z</time>
      </trkpt>
      <trkpt lat="42.462364" lon="1.901686">
        <ele>1262.48633</ele>
        <time>2021-07-02T09:34:13Z</time>
      </trkpt>
      <trkpt lat="42.462475" lon="1.901383">
        <ele>1261.76208</ele>
        <time>2021-07-02T09:34:14Z</time>
      </trkpt>
      <trkpt lat="42.462547" lon="1.901088">
        <ele>1261.38464</ele>
        <time>2021-07-02T09:34:15Z</time>
      </trkpt>
      <trkpt lat="42.462624" lon="1.900776">
        <ele>1262.03760</ele>
        <time>2021-07-02T09:34:16Z</time>
      </trkpt>
      <trkpt lat="42.462704" lon="1.900433">
        <ele>1262.75806</ele>
        <time>2021-07-02T09:34:17Z</time>
      </trkpt>
      <trkpt lat="42.462803" lon="1.900132">
        <ele>1262.60413</ele>
        <time>2021-07-02T09:34:18Z</time>
      </trkpt>
      <trkpt lat="42.462917" lon="1.899847">
        <ele>1262.02161</ele>
        <time>2021-07-02T09:34:19Z</time>
      </trkpt>
      <trkpt lat="42.462917" lon="1.899847">
        <ele>1261.41101</ele>
        <time>2021-07-02T09:34:20Z</time>
      </trkpt>
      <trkpt lat="42.463055" lon="1.899530">
        <ele>1261.31970</ele>
        <time>2021-07-02T09:34:21Z</time>
      </trkpt>
      <trkpt lat="42.463188" lon="1.899215">
        <ele>1261.00073</ele>
        <time>2021-07-02T09:34:22Z</time>
      </trkpt>
      <trkpt lat="42.463348" lon="1.898839">
        <ele>1260.66724</ele>
        <time>2021-07-02T09:34:23Z</time>
      </trkpt>
      <trkpt lat="42.463520" lon="1.898447">
        <ele>1259.42114</ele>
        <time>2021-07-02T09:34:24Z</time>
      </trkpt>
      <trkpt lat="42.463661" lon="1.898106">
        <ele>1259.66016</ele>
        <time>2021-07-02T09:34:25Z</time>
      </trkpt>
      <trkpt lat="42.463791" lon="1.897792">
        <ele>1259.45862</ele>
        <time>2021-07-02T09:34:26Z</time>
      </trkpt>
      <trkpt lat="42.463917" lon="1.897469">
        <ele>1258.89722</ele>
        <time>2021-07-02T09:34:27Z</time>
      </trkpt>
      <trkpt lat="42.464050" lon="1.897142">
        <ele>1257.33679</ele>
        <time>2021-07-02T09:34:28Z</time>
      </trkpt>
      <trkpt lat="42.464146" lon="1.896850">
        <ele>1255.32312</ele>
        <time>2021-07-02T09:34:29Z</time>
      </trkpt>
      <trkpt lat="42.464252" lon="1.896510">
        <ele>1254.81201</ele>
        <time>2021-07-02T09:34:30Z</time>
      </trkpt>
      <trkpt lat="42.464336" lon="1.896198">
        <ele>1253.89246</ele>
        <time>2021-07-02T09:34:31Z</time>
      </trkpt>
      <trkpt lat="42.464382" lon="1.895906">
        <ele>1253.95972</ele>
        <time>2021-07-02T09:34:32Z</time>
      </trkpt>
      <trkpt lat="42.464417" lon="1.895624">
        <ele>1249.29761</ele>
        <time>2021-07-02T09:34:33Z</time>
      </trkpt>
      <trkpt lat="42.464455" lon="1.895359">
        <ele>1249.16663</ele>
        <time>2021-07-02T09:34:34Z</time>
      </trkpt>
      <trkpt lat="42.464523" lon="1.895140">
        <ele>1251.76245</ele>
        <time>2021-07-02T09:34:35Z</time>
      </trkpt>
      <trkpt lat="42.464577" lon="1.895024">
        <ele>1252.05054</ele>
        <time>2021-07-02T09:34:36Z</time>
      </trkpt>
      <trkpt lat="42.464703" lon="1.894789">
        <ele>1252.37793</ele>
        <time>2021-07-02T09:34:37Z</time>
      </trkpt>
      <trkpt lat="42.464821" lon="1.894564">
        <ele>1250.66382</ele>
        <time>2021-07-02T09:34:38Z</time>
      </trkpt>
      <trkpt lat="42.464962" lon="1.894301">
        <ele>1250.05139</ele>
        <time>2021-07-02T09:34:39Z</time>
      </trkpt>
      <trkpt lat="42.465080" lon="1.894085">
        <ele>1248.76477</ele>
        <time>2021-07-02T09:34:40Z</time>
      </trkpt>
      <trkpt lat="42.465179" lon="1.893865">
        <ele>1245.97046</ele>
        <time>2021-07-02T09:34:41Z</time>
      </trkpt>
      <trkpt lat="42.465248" lon="1.893632">
        <ele>1244.82654</ele>
        <time>2021-07-02T09:34:42Z</time>
      </trkpt>
      <trkpt lat="42.465286" lon="1.893394">
        <ele>1244.08716</ele>
        <time>2021-07-02T09:34:43Z</time>
      </trkpt>
      <trkpt lat="42.465317" lon="1.893185">
        <ele>1243.60437</ele>
        <time>2021-07-02T09:34:44Z</time>
      </trkpt>
      <trkpt lat="42.465309" lon="1.892971">
        <ele>1243.13257</ele>
        <time>2021-07-02T09:34:45Z</time>
      </trkpt>
      <trkpt lat="42.465279" lon="1.892764">
        <ele>1242.55261</ele>
        <time>2021-07-02T09:34:46Z</time>
      </trkpt>
      <trkpt lat="42.465248" lon="1.892593">
        <ele>1241.93408</ele>
        <time>2021-07-02T09:34:47Z</time>
      </trkpt>
      <trkpt lat="42.465214" lon="1.892424">
        <ele>1241.45667</ele>
        <time>2021-07-02T09:34:48Z</time>
      </trkpt>
      <trkpt lat="42.465179" lon="1.892253">
        <ele>1240.64368</ele>
        <time>2021-07-02T09:34:49Z</time>
      </trkpt>
      <trkpt lat="42.465149" lon="1.892107">
        <ele>1240.34607</ele>
        <time>2021-07-02T09:34:50Z</time>
      </trkpt>
      <trkpt lat="42.465118" lon="1.891955">
        <ele>1240.05652</ele>
        <time>2021-07-02T09:34:51Z</time>
      </trkpt>
      <trkpt lat="42.465088" lon="1.891799">
        <ele>1239.13257</ele>
        <time>2021-07-02T09:34:52Z</time>
      </trkpt>
      <trkpt lat="42.465069" lon="1.891701">
        <ele>1239.20740</ele>
        <time>2021-07-02T09:34:53Z</time>
      </trkpt>
      <trkpt lat="42.465069" lon="1.891701">
        <ele>1239.20898</ele>
        <time>2021-07-02T09:34:54Z</time>
      </trkpt>
      <trkpt lat="42.465046" lon="1.891585">
        <ele>1239.35669</ele>
        <time>2021-07-02T09:34:55Z</time>
      </trkpt>
      <trkpt lat="42.465038" lon="1.891479">
        <ele>1246.31494</ele>
        <time>2021-07-02T09:34:56Z</time>
      </trkpt>
      <trkpt lat="42.465027" lon="1.891347">
        <ele>1247.03137</ele>
        <time>2021-07-02T09:34:57Z</time>
      </trkpt>
      <trkpt lat="42.465019" lon="1.891217">
        <ele>1247.07935</ele>
        <time>2021-07-02T09:34:58Z</time>
      </trkpt>
      <trkpt lat="42.465019" lon="1.891092">
        <ele>1247.35071</ele>
        <time>2021-07-02T09:34:59Z</time>
      </trkpt>
      <trkpt lat="42.465031" lon="1.890969">
        <ele>1247.15564</ele>
        <time>2021-07-02T09:35:00Z</time>
      </trkpt>
      <trkpt lat="42.465042" lon="1.890840">
        <ele>1247.29297</ele>
        <time>2021-07-02T09:35:01Z</time>
      </trkpt>
      <trkpt lat="42.465076" lon="1.890716">
        <ele>1247.25598</ele>
        <time>2021-07-02T09:35:02Z</time>
      </trkpt>
      <trkpt lat="42.465115" lon="1.890588">
        <ele>1247.45581</ele>
        <time>2021-07-02T09:35:03Z</time>
      </trkpt>
      <trkpt lat="42.465153" lon="1.890474">
        <ele>1246.65527</ele>
        <time>2021-07-02T09:35:04Z</time>
      </trkpt>
      <trkpt lat="42.465195" lon="1.890353">
        <ele>1246.80847</ele>
        <time>2021-07-02T09:35:05Z</time>
      </trkpt>
      <trkpt lat="42.465237" lon="1.890229">
        <ele>1246.94092</ele>
        <time>2021-07-02T09:35:06Z</time>
      </trkpt>
      <trkpt lat="42.465279" lon="1.890096">
        <ele>1247.91260</ele>
        <time>2021-07-02T09:35:07Z</time>
      </trkpt>
      <trkpt lat="42.465324" lon="1.889964">
        <ele>1248.26868</ele>
        <time>2021-07-02T09:35:08Z</time>
      </trkpt>
      <trkpt lat="42.465366" lon="1.889839">
        <ele>1242.46887</ele>
        <time>2021-07-02T09:35:09Z</time>
      </trkpt>
      <trkpt lat="42.465416" lon="1.889689">
        <ele>1242.39539</ele>
        <time>2021-07-02T09:35:10Z</time>
      </trkpt>
      <trkpt lat="42.465462" lon="1.889554">
        <ele>1242.45862</ele>
        <time>2021-07-02T09:35:11Z</time>
      </trkpt>
      <trkpt lat="42.465511" lon="1.889406">
        <ele>1242.82764</ele>
        <time>2021-07-02T09:35:12Z</time>
      </trkpt>
      <trkpt lat="42.465557" lon="1.889271">
        <ele>1243.42822</ele>
        <time>2021-07-02T09:35:13Z</time>
      </trkpt>
      <trkpt lat="42.465603" lon="1.889133">
        <ele>1243.43701</ele>
        <time>2021-07-02T09:35:14Z</time>
      </trkpt>
      <trkpt lat="42.465649" lon="1.888993">
        <ele>1243.78711</ele>
        <time>2021-07-02T09:35:15Z</time>
      </trkpt>
      <trkpt lat="42.465694" lon="1.888860">
        <ele>1243.70398</ele>
        <time>2021-07-02T09:35:16Z</time>
      </trkpt>
      <trkpt lat="42.465744" lon="1.888715">
        <ele>1244.09534</ele>
        <time>2021-07-02T09:35:17Z</time>
      </trkpt>
      <trkpt lat="42.465797" lon="1.888570">
        <ele>1244.80920</ele>
        <time>2021-07-02T09:35:18Z</time>
      </trkpt>
      <trkpt lat="42.465847" lon="1.888423">
        <ele>1245.59961</ele>
        <time>2021-07-02T09:35:19Z</time>
      </trkpt>
      <trkpt lat="42.465897" lon="1.888270">
        <ele>1246.24524</ele>
        <time>2021-07-02T09:35:20Z</time>
      </trkpt>
      <trkpt lat="42.465950" lon="1.888113">
        <ele>1246.53809</ele>
        <time>2021-07-02T09:35:21Z</time>
      </trkpt>
      <trkpt lat="42.465996" lon="1.887967">
        <ele>1246.69592</ele>
        <time>2021-07-02T09:35:22Z</time>
      </trkpt>
      <trkpt lat="42.466049" lon="1.887801">
        <ele>1246.95898</ele>
        <time>2021-07-02T09:35:23Z</time>
      </trkpt>
      <trkpt lat="42.466106" lon="1.887630">
        <ele>1247.12573</ele>
        <time>2021-07-02T09:35:24Z</time>
      </trkpt>
      <trkpt lat="42.466106" lon="1.887630">
        <ele>1247.19385</ele>
        <time>2021-07-02T09:35:25Z</time>
      </trkpt>
      <trkpt lat="42.466160" lon="1.887475">
        <ele>1247.74707</ele>
        <time>2021-07-02T09:35:26Z</time>
      </trkpt>
      <trkpt lat="42.466213" lon="1.887314">
        <ele>1247.99695</ele>
        <time>2021-07-02T09:35:27Z</time>
      </trkpt>
      <trkpt lat="42.466267" lon="1.887161">
        <ele>1248.08496</ele>
        <time>2021-07-02T09:35:28Z</time>
      </trkpt>
      <trkpt lat="42.466320" lon="1.887012">
        <ele>1248.52551</ele>
        <time>2021-07-02T09:35:29Z</time>
      </trkpt>
      <trkpt lat="42.466373" lon="1.886862">
        <ele>1248.64990</ele>
        <time>2021-07-02T09:35:30Z</time>
      </trkpt>
      <trkpt lat="42.466431" lon="1.886701">
        <ele>1248.85583</ele>
        <time>2021-07-02T09:35:31Z</time>
      </trkpt>
      <trkpt lat="42.466484" lon="1.886560">
        <ele>1248.88940</ele>
        <time>2021-07-02T09:35:32Z</time>
      </trkpt>
      <trkpt lat="42.466545" lon="1.886400">
        <ele>1249.66858</ele>
        <time>2021-07-02T09:35:33Z</time>
      </trkpt>
      <trkpt lat="42.466602" lon="1.886244">
        <ele>1250.08289</ele>
        <time>2021-07-02T09:35:34Z</time>
      </trkpt>
      <trkpt lat="42.466671" lon="1.886087">
        <ele>1250.37695</ele>
        <time>2021-07-02T09:35:35Z</time>
      </trkpt>
      <trkpt lat="42.466743" lon="1.885936">
        <ele>1251.19165</ele>
        <time>2021-07-02T09:35:36Z</time>
      </trkpt>
      <trkpt lat="42.466820" lon="1.885773">
        <ele>1251.47583</ele>
        <time>2021-07-02T09:35:37Z</time>
      </trkpt>
      <trkpt lat="42.466908" lon="1.885601">
        <ele>1252.16016</ele>
        <time>2021-07-02T09:35:38Z</time>
      </trkpt>
      <trkpt lat="42.466995" lon="1.885439">
        <ele>1252.57812</ele>
        <time>2021-07-02T09:35:39Z</time>
      </trkpt>
      <trkpt lat="42.467094" lon="1.885284">
        <ele>1254.49561</ele>
        <time>2021-07-02T09:35:40Z</time>
      </trkpt>
      <trkpt lat="42.467205" lon="1.885117">
        <ele>1258.32397</ele>
        <time>2021-07-02T09:35:41Z</time>
      </trkpt>
      <trkpt lat="42.467339" lon="1.884938">
        <ele>1260.39307</ele>
        <time>2021-07-02T09:35:42Z</time>
      </trkpt>
      <trkpt lat="42.467491" lon="1.884747">
        <ele>1261.71240</ele>
        <time>2021-07-02T09:35:43Z</time>
      </trkpt>
      <trkpt lat="42.467667" lon="1.884537">
        <ele>1262.97412</ele>
        <time>2021-07-02T09:35:44Z</time>
      </trkpt>
      <trkpt lat="42.467834" lon="1.884329">
        <ele>1263.80225</ele>
        <time>2021-07-02T09:35:45Z</time>
      </trkpt>
      <trkpt lat="42.468021" lon="1.884100">
        <ele>1264.96448</ele>
        <time>2021-07-02T09:35:46Z</time>
      </trkpt>
      <trkpt lat="42.468216" lon="1.883859">
        <ele>1266.12305</ele>
        <time>2021-07-02T09:35:47Z</time>
      </trkpt>
      <trkpt lat="42.468407" lon="1.883624">
        <ele>1266.79871</ele>
        <time>2021-07-02T09:35:48Z</time>
      </trkpt>
      <trkpt lat="42.468609" lon="1.883373">
        <ele>1268.11145</ele>
        <time>2021-07-02T09:35:49Z</time>
      </trkpt>
      <trkpt lat="42.468807" lon="1.883129">
        <ele>1268.81482</ele>
        <time>2021-07-02T09:35:50Z</time>
      </trkpt>
      <trkpt lat="42.468990" lon="1.882910">
        <ele>1269.17590</ele>
        <time>2021-07-02T09:35:51Z</time>
      </trkpt>
      <trkpt lat="42.469158" lon="1.882708">
        <ele>1269.48718</ele>
        <time>2021-07-02T09:35:52Z</time>
      </trkpt>
      <trkpt lat="42.469318" lon="1.882520">
        <ele>1269.51672</ele>
        <time>2021-07-02T09:35:53Z</time>
      </trkpt>
      <trkpt lat="42.469318" lon="1.882520">
        <ele>1266.61096</ele>
        <time>2021-07-02T09:35:54Z</time>
      </trkpt>
      <trkpt lat="42.469467" lon="1.882342">
        <ele>1266.12512</ele>
        <time>2021-07-02T09:35:55Z</time>
      </trkpt>
      <trkpt lat="42.469624" lon="1.882196">
        <ele>1265.81689</ele>
        <time>2021-07-02T09:35:56Z</time>
      </trkpt>
      <trkpt lat="42.469742" lon="1.882146">
        <ele>1266.18469</ele>
        <time>2021-07-02T09:35:57Z</time>
      </trkpt>
      <trkpt lat="42.469898" lon="1.882157">
        <ele>1266.56042</ele>
        <time>2021-07-02T09:35:58Z</time>
      </trkpt>
      <trkpt lat="42.470009" lon="1.882183">
        <ele>1266.99646</ele>
        <time>2021-07-02T09:35:59Z</time>
      </trkpt>
      <trkpt lat="42.470158" lon="1.882225">
        <ele>1270.35242</ele>
        <time>2021-07-02T09:36:00Z</time>
      </trkpt>
      <trkpt lat="42.470352" lon="1.882229">
        <ele>1270.31482</ele>
        <time>2021-07-02T09:36:01Z</time>
      </trkpt>
      <trkpt lat="42.470566" lon="1.882162">
        <ele>1271.25464</ele>
        <time>2021-07-02T09:36:02Z</time>
      </trkpt>
      <trkpt lat="42.470772" lon="1.882044">
        <ele>1271.60791</ele>
        <time>2021-07-02T09:36:03Z</time>
      </trkpt>
      <trkpt lat="42.470985" lon="1.881832">
        <ele>1271.20947</ele>
        <time>2021-07-02T09:36:04Z</time>
      </trkpt>
      <trkpt lat="42.471180" lon="1.881619">
        <ele>1271.17627</ele>
        <time>2021-07-02T09:36:05Z</time>
      </trkpt>
      <trkpt lat="42.471363" lon="1.881389">
        <ele>1270.93799</ele>
        <time>2021-07-02T09:36:06Z</time>
      </trkpt>
      <trkpt lat="42.471535" lon="1.881137">
        <ele>1270.80408</ele>
        <time>2021-07-02T09:36:07Z</time>
      </trkpt>
      <trkpt lat="42.471722" lon="1.880858">
        <ele>1270.46655</ele>
        <time>2021-07-02T09:36:08Z</time>
      </trkpt>
      <trkpt lat="42.471916" lon="1.880564">
        <ele>1270.32642</ele>
        <time>2021-07-02T09:36:09Z</time>
      </trkpt>
      <trkpt lat="42.472103" lon="1.880282">
        <ele>1270.75940</ele>
        <time>2021-07-02T09:36:10Z</time>
      </trkpt>
      <trkpt lat="42.472275" lon="1.880022">
        <ele>1270.77258</ele>
        <time>2021-07-02T09:36:11Z</time>
      </trkpt>
      <trkpt lat="42.472439" lon="1.879772">
        <ele>1270.83630</ele>
        <time>2021-07-02T09:36:12Z</time>
      </trkpt>
      <trkpt lat="42.472580" lon="1.879533">
        <ele>1270.51965</ele>
        <time>2021-07-02T09:36:13Z</time>
      </trkpt>
      <trkpt lat="42.472725" lon="1.879300">
        <ele>1270.38110</ele>
        <time>2021-07-02T09:36:14Z</time>
      </trkpt>
      <trkpt lat="42.472847" lon="1.879099">
        <ele>1268.74719</ele>
        <time>2021-07-02T09:36:15Z</time>
      </trkpt>
      <trkpt lat="42.472954" lon="1.878928">
        <ele>1268.52258</ele>
        <time>2021-07-02T09:36:16Z</time>
      </trkpt>
      <trkpt lat="42.473057" lon="1.878757">
        <ele>1268.43652</ele>
        <time>2021-07-02T09:36:17Z</time>
      </trkpt>
      <trkpt lat="42.473148" lon="1.878566">
        <ele>1268.28296</ele>
        <time>2021-07-02T09:36:18Z</time>
      </trkpt>
      <trkpt lat="42.473213" lon="1.878337">
        <ele>1268.34058</ele>
        <time>2021-07-02T09:36:19Z</time>
      </trkpt>
      <trkpt lat="42.473278" lon="1.878106">
        <ele>1267.93811</ele>
        <time>2021-07-02T09:36:20Z</time>
      </trkpt>
      <trkpt lat="42.473278" lon="1.878106">
        <ele>1267.85913</ele>
        <time>2021-07-02T09:36:21Z</time>
      </trkpt>
      <trkpt lat="42.473343" lon="1.877889">
        <ele>1267.68018</ele>
        <time>2021-07-02T09:36:22Z</time>
      </trkpt>
      <trkpt lat="42.473400" lon="1.877675">
        <ele>1268.34753</ele>
        <time>2021-07-02T09:36:23Z</time>
      </trkpt>
      <trkpt lat="42.473461" lon="1.877475">
        <ele>1269.59314</ele>
        <time>2021-07-02T09:36:24Z</time>
      </trkpt>
      <trkpt lat="42.473537" lon="1.877268">
        <ele>1269.44043</ele>
        <time>2021-07-02T09:36:25Z</time>
      </trkpt>
      <trkpt lat="42.473633" lon="1.877004">
        <ele>1269.49854</ele>
        <time>2021-07-02T09:36:26Z</time>
      </trkpt>
      <trkpt lat="42.473759" lon="1.876680">
        <ele>1269.89600</ele>
        <time>2021-07-02T09:36:27Z</time>
      </trkpt>
      <trkpt lat="42.473904" lon="1.876320">
        <ele>1270.27417</ele>
        <time>2021-07-02T09:36:28Z</time>
      </trkpt>
      <trkpt lat="42.474037" lon="1.876003">
        <ele>1270.15808</ele>
        <time>2021-07-02T09:36:29Z</time>
      </trkpt>
      <trkpt lat="42.474148" lon="1.875768">
        <ele>1270.21558</ele>
        <time>2021-07-02T09:36:30Z</time>
      </trkpt>
      <trkpt lat="42.474255" lon="1.875537">
        <ele>1270.28284</ele>
        <time>2021-07-02T09:36:31Z</time>
      </trkpt>
      <trkpt lat="42.474365" lon="1.875310">
        <ele>1270.68933</ele>
        <time>2021-07-02T09:36:32Z</time>
      </trkpt>
      <trkpt lat="42.474480" lon="1.875070">
        <ele>1271.39978</ele>
        <time>2021-07-02T09:36:33Z</time>
      </trkpt>
      <trkpt lat="42.474598" lon="1.874832">
        <ele>1272.09692</ele>
        <time>2021-07-02T09:36:34Z</time>
      </trkpt>
      <trkpt lat="42.474697" lon="1.874618">
        <ele>1270.58801</ele>
        <time>2021-07-02T09:36:35Z</time>
      </trkpt>
      <trkpt lat="42.474796" lon="1.874421">
        <ele>1270.70801</ele>
        <time>2021-07-02T09:36:36Z</time>
      </trkpt>
      <trkpt lat="42.474892" lon="1.874241">
        <ele>1270.80847</ele>
        <time>2021-07-02T09:36:37Z</time>
      </trkpt>
      <trkpt lat="42.474991" lon="1.874049">
        <ele>1271.13416</ele>
        <time>2021-07-02T09:36:38Z</time>
      </trkpt>
      <trkpt lat="42.475090" lon="1.873859">
        <ele>1271.52881</ele>
        <time>2021-07-02T09:36:39Z</time>
      </trkpt>
      <trkpt lat="42.475185" lon="1.873678">
        <ele>1272.29053</ele>
        <time>2021-07-02T09:36:40Z</time>
      </trkpt>
      <trkpt lat="42.475285" lon="1.873492">
        <ele>1272.90723</ele>
        <time>2021-07-02T09:36:41Z</time>
      </trkpt>
      <trkpt lat="42.475384" lon="1.873300">
        <ele>1272.94348</ele>
        <time>2021-07-02T09:36:42Z</time>
      </trkpt>
      <trkpt lat="42.475479" lon="1.873107">
        <ele>1272.70471</ele>
        <time>2021-07-02T09:36:43Z</time>
      </trkpt>
      <trkpt lat="42.475586" lon="1.872905">
        <ele>1272.39880</ele>
        <time>2021-07-02T09:36:44Z</time>
      </trkpt>
      <trkpt lat="42.475693" lon="1.872699">
        <ele>1272.22717</ele>
        <time>2021-07-02T09:36:45Z</time>
      </trkpt>
      <trkpt lat="42.475800" lon="1.872499">
        <ele>1271.63049</ele>
        <time>2021-07-02T09:36:46Z</time>
      </trkpt>
      <trkpt lat="42.475899" lon="1.872304">
        <ele>1271.16199</ele>
        <time>2021-07-02T09:36:47Z</time>
      </trkpt>
      <trkpt lat="42.475998" lon="1.872111">
        <ele>1270.86584</ele>
        <time>2021-07-02T09:36:48Z</time>
      </trkpt>
      <trkpt lat="42.476097" lon="1.871921">
        <ele>1272.92615</ele>
        <time>2021-07-02T09:36:49Z</time>
      </trkpt>
      <trkpt lat="42.476196" lon="1.871724">
        <ele>1273.23865</ele>
        <time>2021-07-02T09:36:50Z</time>
      </trkpt>
      <trkpt lat="42.476311" lon="1.871503">
        <ele>1273.33191</ele>
        <time>2021-07-02T09:36:51Z</time>
      </trkpt>
      <trkpt lat="42.476433" lon="1.871272">
        <ele>1273.33472</ele>
        <time>2021-07-02T09:36:52Z</time>
      </trkpt>
      <trkpt lat="42.476547" lon="1.871046">
        <ele>1273.45227</ele>
        <time>2021-07-02T09:36:53Z</time>
      </trkpt>
      <trkpt lat="42.476669" lon="1.870807">
        <ele>1273.47485</ele>
        <time>2021-07-02T09:36:54Z</time>
      </trkpt>
      <trkpt lat="42.476791" lon="1.870571">
        <ele>1273.62097</ele>
        <time>2021-07-02T09:36:55Z</time>
      </trkpt>
      <trkpt lat="42.476879" lon="1.870355">
        <ele>1273.77905</ele>
        <time>2021-07-02T09:36:56Z</time>
      </trkpt>
      <trkpt lat="42.476879" lon="1.870355">
        <ele>1274.70044</ele>
        <time>2021-07-02T09:36:57Z</time>
      </trkpt>
      <trkpt lat="42.476948" lon="1.870109">
        <ele>1274.74292</ele>
        <time>2021-07-02T09:36:58Z</time>
      </trkpt>
      <trkpt lat="42.476997" lon="1.869838">
        <ele>1273.58911</ele>
        <time>2021-07-02T09:36:59Z</time>
      </trkpt>
      <trkpt lat="42.477055" lon="1.869550">
        <ele>1273.28979</ele>
        <time>2021-07-02T09:37:00Z</time>
      </trkpt>
      <trkpt lat="42.477150" lon="1.869289">
        <ele>1273.27881</ele>
        <time>2021-07-02T09:37:01Z</time>
      </trkpt>
      <trkpt lat="42.477264" lon="1.869056">
        <ele>1273.41943</ele>
        <time>2021-07-02T09:37:02Z</time>
      </trkpt>
      <trkpt lat="42.477390" lon="1.868799">
        <ele>1272.91577</ele>
        <time>2021-07-02T09:37:03Z</time>
      </trkpt>
      <trkpt lat="42.477558" lon="1.868477">
        <ele>1273.15063</ele>
        <time>2021-07-02T09:37:04Z</time>
      </trkpt>
      <trkpt lat="42.477692" lon="1.868218">
        <ele>1273.55188</ele>
        <time>2021-07-02T09:37:05Z</time>
      </trkpt>
      <trkpt lat="42.477867" lon="1.867882">
        <ele>1273.78662</ele>
        <time>2021-07-02T09:37:06Z</time>
      </trkpt>
      <trkpt lat="42.478020" lon="1.867592">
        <ele>1274.92603</ele>
        <time>2021-07-02T09:37:07Z</time>
      </trkpt>
      <trkpt lat="42.478172" lon="1.867296">
        <ele>1275.41919</ele>
        <time>2021-07-02T09:37:08Z</time>
      </trkpt>
      <trkpt lat="42.478313" lon="1.867021">
        <ele>1275.82654</ele>
        <time>2021-07-02T09:37:09Z</time>
      </trkpt>
      <trkpt lat="42.478462" lon="1.866729">
        <ele>1275.74792</ele>
        <time>2021-07-02T09:37:10Z</time>
      </trkpt>
      <trkpt lat="42.478611" lon="1.866411">
        <ele>1275.93970</ele>
        <time>2021-07-02T09:37:11Z</time>
      </trkpt>
      <trkpt lat="42.478760" lon="1.866091">
        <ele>1276.49890</ele>
        <time>2021-07-02T09:37:12Z</time>
      </trkpt>
      <trkpt lat="42.478901" lon="1.865768">
        <ele>1276.09143</ele>
        <time>2021-07-02T09:37:13Z</time>
      </trkpt>
      <trkpt lat="42.479050" lon="1.865419">
        <ele>1277.80298</ele>
        <time>2021-07-02T09:37:14Z</time>
      </trkpt>
      <trkpt lat="42.479202" lon="1.865070">
        <ele>1278.14429</ele>
        <time>2021-07-02T09:37:15Z</time>
      </trkpt>
      <trkpt lat="42.479336" lon="1.864809">
        <ele>1278.80518</ele>
        <time>2021-07-02T09:37:16Z</time>
      </trkpt>
      <trkpt lat="42.479500" lon="1.864553">
        <ele>1279.10437</ele>
        <time>2021-07-02T09:37:17Z</time>
      </trkpt>
      <trkpt lat="42.479694" lon="1.864295">
        <ele>1280.14490</ele>
        <time>2021-07-02T09:37:18Z</time>
      </trkpt>
      <trkpt lat="42.479889" lon="1.864041">
        <ele>1281.51465</ele>
        <time>2021-07-02T09:37:19Z</time>
      </trkpt>
      <trkpt lat="42.480114" lon="1.863827">
        <ele>1281.97644</ele>
        <time>2021-07-02T09:37:20Z</time>
      </trkpt>
      <trkpt lat="42.480362" lon="1.863611">
        <ele>1282.36169</ele>
        <time>2021-07-02T09:37:21Z</time>
      </trkpt>
      <trkpt lat="42.480610" lon="1.863427">
        <ele>1284.60620</ele>
        <time>2021-07-02T09:37:22Z</time>
      </trkpt>
      <trkpt lat="42.480843" lon="1.863253">
        <ele>1284.94202</ele>
        <time>2021-07-02T09:37:23Z</time>
      </trkpt>
      <trkpt lat="42.481068" lon="1.863083">
        <ele>1284.89844</ele>
        <time>2021-07-02T09:37:24Z</time>
      </trkpt>
      <trkpt lat="42.481331" lon="1.862963">
        <ele>1285.59448</ele>
        <time>2021-07-02T09:37:25Z</time>
      </trkpt>
      <trkpt lat="42.481552" lon="1.862877">
        <ele>1286.23083</ele>
        <time>2021-07-02T09:37:26Z</time>
      </trkpt>
      <trkpt lat="42.481785" lon="1.862787">
        <ele>1286.25220</ele>
        <time>2021-07-02T09:37:27Z</time>
      </trkpt>
      <trkpt lat="42.482014" lon="1.862671">
        <ele>1286.42358</ele>
        <time>2021-07-02T09:37:28Z</time>
      </trkpt>
      <trkpt lat="42.482014" lon="1.862671">
        <ele>1288.21680</ele>
        <time>2021-07-02T09:37:29Z</time>
      </trkpt>
      <trkpt lat="42.482098" lon="1.862581">
        <ele>1288.92688</ele>
        <time>2021-07-02T09:37:30Z</time>
      </trkpt>
      <trkpt lat="42.482220" lon="1.862363">
        <ele>1288.81128</ele>
        <time>2021-07-02T09:37:31Z</time>
      </trkpt>
      <trkpt lat="42.482292" lon="1.862214">
        <ele>1289.07666</ele>
        <time>2021-07-02T09:37:32Z</time>
      </trkpt>
      <trkpt lat="42.482422" lon="1.861934">
        <ele>1289.38647</ele>
        <time>2021-07-02T09:37:33Z</time>
      </trkpt>
      <trkpt lat="42.482529" lon="1.861712">
        <ele>1291.29272</ele>
        <time>2021-07-02T09:37:34Z</time>
      </trkpt>
      <trkpt lat="42.482643" lon="1.861542">
        <ele>1290.28528</ele>
        <time>2021-07-02T09:37:35Z</time>
      </trkpt>
      <trkpt lat="42.482796" lon="1.861380">
        <ele>1288.90552</ele>
        <time>2021-07-02T09:37:36Z</time>
      </trkpt>
      <trkpt lat="42.483009" lon="1.861172">
        <ele>1289.12524</ele>
        <time>2021-07-02T09:37:37Z</time>
      </trkpt>
      <trkpt lat="42.483215" lon="1.860952">
        <ele>1289.69666</ele>
        <time>2021-07-02T09:37:38Z</time>
      </trkpt>
      <trkpt lat="42.483463" lon="1.860628">
        <ele>1290.05042</ele>
        <time>2021-07-02T09:37:39Z</time>
      </trkpt>
      <trkpt lat="42.483669" lon="1.860357">
        <ele>1292.34985</ele>
        <time>2021-07-02T09:37:40Z</time>
      </trkpt>
      <trkpt lat="42.483875" lon="1.860096">
        <ele>1292.67908</ele>
        <time>2021-07-02T09:37:41Z</time>
      </trkpt>
      <trkpt lat="42.484077" lon="1.859941">
        <ele>1294.61658</ele>
        <time>2021-07-02T09:37:42Z</time>
      </trkpt>
      <trkpt lat="42.484219" lon="1.859867">
        <ele>1296.86328</ele>
        <time>2021-07-02T09:37:43Z</time>
      </trkpt>
      <trkpt lat="42.484447" lon="1.859756">
        <ele>1297.54016</ele>
        <time>2021-07-02T09:37:44Z</time>
      </trkpt>
      <trkpt lat="42.484699" lon="1.859613">
        <ele>1297.25574</ele>
        <time>2021-07-02T09:37:45Z</time>
      </trkpt>
      <trkpt lat="42.484928" lon="1.859435">
        <ele>1297.71021</ele>
        <time>2021-07-02T09:37:46Z</time>
      </trkpt>
      <trkpt lat="42.485176" lon="1.859238">
        <ele>1299.70166</ele>
        <time>2021-07-02T09:37:47Z</time>
      </trkpt>
      <trkpt lat="42.485435" lon="1.859036">
        <ele>1301.70923</ele>
        <time>2021-07-02T09:37:48Z</time>
      </trkpt>
      <trkpt lat="42.485676" lon="1.858845">
        <ele>1302.69739</ele>
        <time>2021-07-02T09:37:49Z</time>
      </trkpt>
      <trkpt lat="42.485889" lon="1.858651">
        <ele>1303.92798</ele>
        <time>2021-07-02T09:37:50Z</time>
      </trkpt>
      <trkpt lat="42.486061" lon="1.858476">
        <ele>1303.29919</ele>
        <time>2021-07-02T09:37:51Z</time>
      </trkpt>
      <trkpt lat="42.486225" lon="1.858307">
        <ele>1303.29919</ele>
        <time>2021-07-02T09:37:52Z</time>
      </trkpt>
      <trkpt lat="42.486351" lon="1.858152">
        <ele>1303.54114</ele>
        <time>2021-07-02T09:37:53Z</time>
      </trkpt>
      <trkpt lat="42.486351" lon="1.858152">
        <ele>1303.54114</ele>
        <time>2021-07-02T09:37:54Z</time>
      </trkpt>
      <trkpt lat="42.486492" lon="1.857884">
        <ele>1303.53638</ele>
        <time>2021-07-02T09:37:55Z</time>
      </trkpt>
      <trkpt lat="42.486546" lon="1.857660">
        <ele>1303.79956</ele>
        <time>2021-07-02T09:37:56Z</time>
      </trkpt>
      <trkpt lat="42.486576" lon="1.857415">
        <ele>1311.27209</ele>
        <time>2021-07-02T09:37:57Z</time>
      </trkpt>
      <trkpt lat="42.486603" lon="1.857196">
        <ele>1310.67725</ele>
        <time>2021-07-02T09:37:58Z</time>
      </trkpt>
      <trkpt lat="42.486637" lon="1.857005">
        <ele>1311.29578</ele>
        <time>2021-07-02T09:37:59Z</time>
      </trkpt>
      <trkpt lat="42.486748" lon="1.856821">
        <ele>1312.06921</ele>
        <time>2021-07-02T09:38:00Z</time>
      </trkpt>
      <trkpt lat="42.486973" lon="1.856720">
        <ele>1313.92407</ele>
        <time>2021-07-02T09:38:01Z</time>
      </trkpt>
      <trkpt lat="42.487125" lon="1.856682">
        <ele>1315.61340</ele>
        <time>2021-07-02T09:38:02Z</time>
      </trkpt>
      <trkpt lat="42.487236" lon="1.856654">
        <ele>1317.02795</ele>
        <time>2021-07-02T09:38:03Z</time>
      </trkpt>
      <trkpt lat="42.487358" lon="1.856623">
        <ele>1317.89502</ele>
        <time>2021-07-02T09:38:04Z</time>
      </trkpt>
      <trkpt lat="42.487499" lon="1.856588">
        <ele>1314.58740</ele>
        <time>2021-07-02T09:38:05Z</time>
      </trkpt>
      <trkpt lat="42.487686" lon="1.856542">
        <ele>1313.14001</ele>
        <time>2021-07-02T09:38:06Z</time>
      </trkpt>
      <trkpt lat="42.487972" lon="1.856471">
        <ele>1313.24426</ele>
        <time>2021-07-02T09:38:07Z</time>
      </trkpt>
      <trkpt lat="42.488258" lon="1.856374">
        <ele>1313.83118</ele>
        <time>2021-07-02T09:38:08Z</time>
      </trkpt>
      <trkpt lat="42.488434" lon="1.856219">
        <ele>1315.73914</ele>
        <time>2021-07-02T09:38:09Z</time>
      </trkpt>
      <trkpt lat="42.488632" lon="1.855999">
        <ele>1316.69629</ele>
        <time>2021-07-02T09:38:10Z</time>
      </trkpt>
      <trkpt lat="42.488838" lon="1.855776">
        <ele>1318.37671</ele>
        <time>2021-07-02T09:38:11Z</time>
      </trkpt>
      <trkpt lat="42.489048" lon="1.855530">
        <ele>1319.67712</ele>
        <time>2021-07-02T09:38:12Z</time>
      </trkpt>
      <trkpt lat="42.489216" lon="1.855303">
        <ele>1321.32166</ele>
        <time>2021-07-02T09:38:13Z</time>
      </trkpt>
      <trkpt lat="42.489357" lon="1.855088">
        <ele>1323.02307</ele>
        <time>2021-07-02T09:38:14Z</time>
      </trkpt>
      <trkpt lat="42.489498" lon="1.854879">
        <ele>1324.22974</ele>
        <time>2021-07-02T09:38:15Z</time>
      </trkpt>
      <trkpt lat="42.489635" lon="1.854671">
        <ele>1325.41211</ele>
        <time>2021-07-02T09:38:16Z</time>
      </trkpt>
      <trkpt lat="42.489784" lon="1.854447">
        <ele>1326.62146</ele>
        <time>2021-07-02T09:38:17Z</time>
      </trkpt>
      <trkpt lat="42.489944" lon="1.854206">
        <ele>1327.89526</ele>
        <time>2021-07-02T09:38:18Z</time>
      </trkpt>
      <trkpt lat="42.490105" lon="1.853977">
        <ele>1329.41516</ele>
        <time>2021-07-02T09:38:19Z</time>
      </trkpt>
      <trkpt lat="42.490250" lon="1.853767">
        <ele>1330.43811</ele>
        <time>2021-07-02T09:38:20Z</time>
      </trkpt>
      <trkpt lat="42.490395" lon="1.853558">
        <ele>1331.75049</ele>
        <time>2021-07-02T09:38:21Z</time>
      </trkpt>
      <trkpt lat="42.490562" lon="1.853363">
        <ele>1332.46704</ele>
        <time>2021-07-02T09:38:22Z</time>
      </trkpt>
      <trkpt lat="42.490768" lon="1.853187">
        <ele>1334.62622</ele>
        <time>2021-07-02T09:38:23Z</time>
      </trkpt>
      <trkpt lat="42.490990" lon="1.853008">
        <ele>1334.59229</ele>
        <time>2021-07-02T09:38:24Z</time>
      </trkpt>
      <trkpt lat="42.491173" lon="1.852864">
        <ele>1334.65381</ele>
        <time>2021-07-02T09:38:25Z</time>
      </trkpt>
      <trkpt lat="42.491173" lon="1.852864">
        <ele>1334.55957</ele>
        <time>2021-07-02T09:38:26Z</time>
      </trkpt>
      <trkpt lat="42.491333" lon="1.852738">
        <ele>1334.48145</ele>
        <time>2021-07-02T09:38:27Z</time>
      </trkpt>
      <trkpt lat="42.491501" lon="1.852604">
        <ele>1333.70239</ele>
        <time>2021-07-02T09:38:28Z</time>
      </trkpt>
      <trkpt lat="42.491619" lon="1.852513">
        <ele>1334.24487</ele>
        <time>2021-07-02T09:38:29Z</time>
      </trkpt>
      <trkpt lat="42.491760" lon="1.852399">
        <ele>1333.82532</ele>
        <time>2021-07-02T09:38:30Z</time>
      </trkpt>
      <trkpt lat="42.491940" lon="1.852260">
        <ele>1333.04541</ele>
        <time>2021-07-02T09:38:31Z</time>
      </trkpt>
      <trkpt lat="42.492123" lon="1.852109">
        <ele>1333.73828</ele>
        <time>2021-07-02T09:38:32Z</time>
      </trkpt>
      <trkpt lat="42.492294" lon="1.851944">
        <ele>1333.92773</ele>
        <time>2021-07-02T09:38:33Z</time>
      </trkpt>
      <trkpt lat="42.492435" lon="1.851716">
        <ele>1334.97205</ele>
        <time>2021-07-02T09:38:34Z</time>
      </trkpt>
      <trkpt lat="42.492569" lon="1.851465">
        <ele>1335.17737</ele>
        <time>2021-07-02T09:38:35Z</time>
      </trkpt>
      <trkpt lat="42.492695" lon="1.851233">
        <ele>1335.71350</ele>
        <time>2021-07-02T09:38:36Z</time>
      </trkpt>
      <trkpt lat="42.492847" lon="1.850967">
        <ele>1339.06104</ele>
        <time>2021-07-02T09:38:37Z</time>
      </trkpt>
      <trkpt lat="42.493015" lon="1.850711">
        <ele>1339.43457</ele>
        <time>2021-07-02T09:38:38Z</time>
      </trkpt>
      <trkpt lat="42.493183" lon="1.850467">
        <ele>1339.16602</ele>
        <time>2021-07-02T09:38:39Z</time>
      </trkpt>
      <trkpt lat="42.493343" lon="1.850235">
        <ele>1338.67102</ele>
        <time>2021-07-02T09:38:40Z</time>
      </trkpt>
      <trkpt lat="42.493500" lon="1.850006">
        <ele>1339.02478</ele>
        <time>2021-07-02T09:38:41Z</time>
      </trkpt>
      <trkpt lat="42.493668" lon="1.849763">
        <ele>1341.74158</ele>
        <time>2021-07-02T09:38:42Z</time>
      </trkpt>
      <trkpt lat="42.493835" lon="1.849518">
        <ele>1342.58936</ele>
        <time>2021-07-02T09:38:43Z</time>
      </trkpt>
      <trkpt lat="42.493980" lon="1.849318">
        <ele>1344.02893</ele>
        <time>2021-07-02T09:38:44Z</time>
      </trkpt>
      <trkpt lat="42.494110" lon="1.849153">
        <ele>1344.52795</ele>
        <time>2021-07-02T09:38:45Z</time>
      </trkpt>
      <trkpt lat="42.494247" lon="1.848975">
        <ele>1345.51123</ele>
        <time>2021-07-02T09:38:46Z</time>
      </trkpt>
      <trkpt lat="42.494377" lon="1.848804">
        <ele>1345.56775</ele>
        <time>2021-07-02T09:38:47Z</time>
      </trkpt>
      <trkpt lat="42.494511" lon="1.848632">
        <ele>1346.39417</ele>
        <time>2021-07-02T09:38:48Z</time>
      </trkpt>
      <trkpt lat="42.494640" lon="1.848467">
        <ele>1346.81604</ele>
        <time>2021-07-02T09:38:49Z</time>
      </trkpt>
      <trkpt lat="42.494762" lon="1.848317">
        <ele>1346.86694</ele>
        <time>2021-07-02T09:38:50Z</time>
      </trkpt>
      <trkpt lat="42.494884" lon="1.848185">
        <ele>1347.50037</ele>
        <time>2021-07-02T09:38:51Z</time>
      </trkpt>
      <trkpt lat="42.495018" lon="1.848098">
        <ele>1348.01941</ele>
        <time>2021-07-02T09:38:52Z</time>
      </trkpt>
      <trkpt lat="42.495163" lon="1.848024">
        <ele>1348.13550</ele>
        <time>2021-07-02T09:38:53Z</time>
      </trkpt>
      <trkpt lat="42.495323" lon="1.847958">
        <ele>1348.81384</ele>
        <time>2021-07-02T09:38:54Z</time>
      </trkpt>
      <trkpt lat="42.495453" lon="1.847899">
        <ele>1349.30286</ele>
        <time>2021-07-02T09:38:55Z</time>
      </trkpt>
      <trkpt lat="42.495560" lon="1.847850">
        <ele>1349.60632</ele>
        <time>2021-07-02T09:38:56Z</time>
      </trkpt>
      <trkpt lat="42.495560" lon="1.847850">
        <ele>1349.51099</ele>
        <time>2021-07-02T09:38:57Z</time>
      </trkpt>
      <trkpt lat="42.495689" lon="1.847792">
        <ele>1349.82910</ele>
        <time>2021-07-02T09:38:58Z</time>
      </trkpt>
      <trkpt lat="42.495792" lon="1.847750">
        <ele>1349.92871</ele>
        <time>2021-07-02T09:38:59Z</time>
      </trkpt>
      <trkpt lat="42.495869" lon="1.847704">
        <ele>1350.05872</ele>
        <time>2021-07-02T09:39:00Z</time>
      </trkpt>
      <trkpt lat="42.495956" lon="1.847646">
        <ele>1350.37244</ele>
        <time>2021-07-02T09:39:01Z</time>
      </trkpt>
      <trkpt lat="42.496021" lon="1.847574">
        <ele>1351.10596</ele>
        <time>2021-07-02T09:39:02Z</time>
      </trkpt>
      <trkpt lat="42.496052" lon="1.847508">
        <ele>1351.15271</ele>
        <time>2021-07-02T09:39:03Z</time>
      </trkpt>
      <trkpt lat="42.496071" lon="1.847458">
        <ele>1350.79199</ele>
        <time>2021-07-02T09:39:04Z</time>
      </trkpt>
      <trkpt lat="42.496075" lon="1.847351">
        <ele>1350.57898</ele>
        <time>2021-07-02T09:39:05Z</time>
      </trkpt>
      <trkpt lat="42.496063" lon="1.847284">
        <ele>1350.70068</ele>
        <time>2021-07-02T09:39:06Z</time>
      </trkpt>
      <trkpt lat="42.496052" lon="1.847211">
        <ele>1351.04285</ele>
        <time>2021-07-02T09:39:07Z</time>
      </trkpt>
      <trkpt lat="42.496040" lon="1.847072">
        <ele>1352.04675</ele>
        <time>2021-07-02T09:39:08Z</time>
      </trkpt>
      <trkpt lat="42.496078" lon="1.846931">
        <ele>1352.59302</ele>
        <time>2021-07-02T09:39:09Z</time>
      </trkpt>
      <trkpt lat="42.496128" lon="1.846818">
        <ele>1354.13403</ele>
        <time>2021-07-02T09:39:10Z</time>
      </trkpt>
      <trkpt lat="42.496197" lon="1.846677">
        <ele>1358.52612</ele>
        <time>2021-07-02T09:39:11Z</time>
      </trkpt>
      <trkpt lat="42.496326" lon="1.846434">
        <ele>1360.46387</ele>
        <time>2021-07-02T09:39:12Z</time>
      </trkpt>
      <trkpt lat="42.496487" lon="1.846143">
        <ele>1359.38574</ele>
        <time>2021-07-02T09:39:13Z</time>
      </trkpt>
      <trkpt lat="42.496613" lon="1.845909">
        <ele>1358.79724</ele>
        <time>2021-07-02T09:39:14Z</time>
      </trkpt>
      <trkpt lat="42.496704" lon="1.845744">
        <ele>1359.82227</ele>
        <time>2021-07-02T09:39:15Z</time>
      </trkpt>
      <trkpt lat="42.496769" lon="1.845596">
        <ele>1363.94153</ele>
        <time>2021-07-02T09:39:16Z</time>
      </trkpt>
      <trkpt lat="42.496845" lon="1.845387">
        <ele>1365.24609</ele>
        <time>2021-07-02T09:39:17Z</time>
      </trkpt>
      <trkpt lat="42.496956" lon="1.845036">
        <ele>1367.40625</ele>
        <time>2021-07-02T09:39:18Z</time>
      </trkpt>
      <trkpt lat="42.497066" lon="1.844628">
        <ele>1369.32922</ele>
        <time>2021-07-02T09:39:19Z</time>
      </trkpt>
      <trkpt lat="42.497215" lon="1.844158">
        <ele>1371.19971</ele>
        <time>2021-07-02T09:39:20Z</time>
      </trkpt>
      <trkpt lat="42.497326" lon="1.843853">
        <ele>1373.39246</ele>
        <time>2021-07-02T09:39:21Z</time>
      </trkpt>
      <trkpt lat="42.497326" lon="1.843853">
        <ele>1375.32874</ele>
        <time>2021-07-02T09:39:22Z</time>
      </trkpt>
      <trkpt lat="42.497437" lon="1.843563">
        <ele>1376.37012</ele>
        <time>2021-07-02T09:39:23Z</time>
      </trkpt>
      <trkpt lat="42.497574" lon="1.843215">
        <ele>1376.80994</ele>
        <time>2021-07-02T09:39:24Z</time>
      </trkpt>
      <trkpt lat="42.497704" lon="1.842899">
        <ele>1377.80322</ele>
        <time>2021-07-02T09:39:25Z</time>
      </trkpt>
      <trkpt lat="42.497807" lon="1.842651">
        <ele>1379.11499</ele>
        <time>2021-07-02T09:39:26Z</time>
      </trkpt>
      <trkpt lat="42.497932" lon="1.842462">
        <ele>1380.41736</ele>
        <time>2021-07-02T09:39:27Z</time>
      </trkpt>
      <trkpt lat="42.498074" lon="1.842299">
        <ele>1382.38672</ele>
        <time>2021-07-02T09:39:28Z</time>
      </trkpt>
      <trkpt lat="42.498276" lon="1.842066">
        <ele>1383.35291</ele>
        <time>2021-07-02T09:39:29Z</time>
      </trkpt>
      <trkpt lat="42.498432" lon="1.841859">
        <ele>1384.44031</ele>
        <time>2021-07-02T09:39:30Z</time>
      </trkpt>
      <trkpt lat="42.498573" lon="1.841628">
        <ele>1384.49158</ele>
        <time>2021-07-02T09:39:31Z</time>
      </trkpt>
      <trkpt lat="42.498672" lon="1.841404">
        <ele>1385.08643</ele>
        <time>2021-07-02T09:39:32Z</time>
      </trkpt>
      <trkpt lat="42.498764" lon="1.841188">
        <ele>1381.53052</ele>
        <time>2021-07-02T09:39:33Z</time>
      </trkpt>
      <trkpt lat="42.498833" lon="1.840943">
        <ele>1385.63464</ele>
        <time>2021-07-02T09:39:34Z</time>
      </trkpt>
      <trkpt lat="42.498859" lon="1.840718">
        <ele>1386.56482</ele>
        <time>2021-07-02T09:39:35Z</time>
      </trkpt>
      <trkpt lat="42.498882" lon="1.840497">
        <ele>1388.31592</ele>
        <time>2021-07-02T09:39:36Z</time>
      </trkpt>
      <trkpt lat="42.498905" lon="1.840240">
        <ele>1390.31201</ele>
        <time>2021-07-02T09:39:37Z</time>
      </trkpt>
      <trkpt lat="42.498928" lon="1.839993">
        <ele>1385.94543</ele>
        <time>2021-07-02T09:39:38Z</time>
      </trkpt>
      <trkpt lat="42.498951" lon="1.839708">
        <ele>1385.95752</ele>
        <time>2021-07-02T09:39:39Z</time>
      </trkpt>
      <trkpt lat="42.498974" lon="1.839486">
        <ele>1387.07251</ele>
        <time>2021-07-02T09:39:40Z</time>
      </trkpt>
      <trkpt lat="42.499001" lon="1.839266">
        <ele>1388.25330</ele>
        <time>2021-07-02T09:39:41Z</time>
      </trkpt>
      <trkpt lat="42.499050" lon="1.839084">
        <ele>1390.06909</ele>
        <time>2021-07-02T09:39:42Z</time>
      </trkpt>
      <trkpt lat="42.499142" lon="1.838912">
        <ele>1391.21533</ele>
        <time>2021-07-02T09:39:43Z</time>
      </trkpt>
      <trkpt lat="42.499283" lon="1.838749">
        <ele>1394.96912</ele>
        <time>2021-07-02T09:39:44Z</time>
      </trkpt>
      <trkpt lat="42.499447" lon="1.838600">
        <ele>1396.65527</ele>
        <time>2021-07-02T09:39:45Z</time>
      </trkpt>
      <trkpt lat="42.499622" lon="1.838434">
        <ele>1397.94543</ele>
        <time>2021-07-02T09:39:46Z</time>
      </trkpt>
      <trkpt lat="42.499805" lon="1.838264">
        <ele>1398.53198</ele>
        <time>2021-07-02T09:39:47Z</time>
      </trkpt>
      <trkpt lat="42.499992" lon="1.838091">
        <ele>1399.59656</ele>
        <time>2021-07-02T09:39:48Z</time>
      </trkpt>
      <trkpt lat="42.500160" lon="1.837941">
        <ele>1400.37402</ele>
        <time>2021-07-02T09:39:49Z</time>
      </trkpt>
      <trkpt lat="42.500332" lon="1.837789">
        <ele>1402.01270</ele>
        <time>2021-07-02T09:39:50Z</time>
      </trkpt>
      <trkpt lat="42.500519" lon="1.837619">
        <ele>1402.42725</ele>
        <time>2021-07-02T09:39:51Z</time>
      </trkpt>
      <trkpt lat="42.500725" lon="1.837428">
        <ele>1403.38037</ele>
        <time>2021-07-02T09:39:52Z</time>
      </trkpt>
      <trkpt lat="42.500942" lon="1.837229">
        <ele>1403.69336</ele>
        <time>2021-07-02T09:39:53Z</time>
      </trkpt>
      <trkpt lat="42.500942" lon="1.837229">
        <ele>1404.40833</ele>
        <time>2021-07-02T09:39:54Z</time>
      </trkpt>
      <trkpt lat="42.501163" lon="1.837045">
        <ele>1405.45911</ele>
        <time>2021-07-02T09:39:55Z</time>
      </trkpt>
      <trkpt lat="42.501396" lon="1.836866">
        <ele>1406.63342</ele>
        <time>2021-07-02T09:39:56Z</time>
      </trkpt>
      <trkpt lat="42.501591" lon="1.836720">
        <ele>1409.67102</ele>
        <time>2021-07-02T09:39:57Z</time>
      </trkpt>
      <trkpt lat="42.501759" lon="1.836601">
        <ele>1411.46973</ele>
        <time>2021-07-02T09:39:58Z</time>
      </trkpt>
      <trkpt lat="42.501949" lon="1.836463">
        <ele>1412.41785</ele>
        <time>2021-07-02T09:39:59Z</time>
      </trkpt>
      <trkpt lat="42.502094" lon="1.836347">
        <ele>1413.92505</ele>
        <time>2021-07-02T09:40:00Z</time>
      </trkpt>
      <trkpt lat="42.502258" lon="1.836178">
        <ele>1414.33875</ele>
        <time>2021-07-02T09:40:01Z</time>
      </trkpt>
      <trkpt lat="42.502445" lon="1.836048">
        <ele>1415.78137</ele>
        <time>2021-07-02T09:40:02Z</time>
      </trkpt>
      <trkpt lat="42.502632" lon="1.835950">
        <ele>1417.32678</ele>
        <time>2021-07-02T09:40:03Z</time>
      </trkpt>
      <trkpt lat="42.502823" lon="1.835852">
        <ele>1411.30005</ele>
        <time>2021-07-02T09:40:04Z</time>
      </trkpt>
      <trkpt lat="42.502979" lon="1.835796">
        <ele>1411.15747</ele>
        <time>2021-07-02T09:40:05Z</time>
      </trkpt>
      <trkpt lat="42.503151" lon="1.835821">
        <ele>1410.95093</ele>
        <time>2021-07-02T09:40:06Z</time>
      </trkpt>
      <trkpt lat="42.503265" lon="1.835894">
        <ele>1410.83447</ele>
        <time>2021-07-02T09:40:07Z</time>
      </trkpt>
      <trkpt lat="42.503345" lon="1.835943">
        <ele>1411.08423</ele>
        <time>2021-07-02T09:40:08Z</time>
      </trkpt>
      <trkpt lat="42.503410" lon="1.835946">
        <ele>1411.46130</ele>
        <time>2021-07-02T09:40:09Z</time>
      </trkpt>
      <trkpt lat="42.503502" lon="1.835891">
        <ele>1411.52588</ele>
        <time>2021-07-02T09:40:10Z</time>
      </trkpt>
      <trkpt lat="42.503616" lon="1.835756">
        <ele>1412.23059</ele>
        <time>2021-07-02T09:40:11Z</time>
      </trkpt>
      <trkpt lat="42.503742" lon="1.835614">
        <ele>1412.73242</ele>
        <time>2021-07-02T09:40:12Z</time>
      </trkpt>
      <trkpt lat="42.503883" lon="1.835466">
        <ele>1412.73242</ele>
        <time>2021-07-02T09:40:13Z</time>
      </trkpt>
      <trkpt lat="42.504044" lon="1.835317">
        <ele>1420.49402</ele>
        <time>2021-07-02T09:40:14Z</time>
      </trkpt>
      <trkpt lat="42.504234" lon="1.835168">
        <ele>1421.95361</ele>
        <time>2021-07-02T09:40:15Z</time>
      </trkpt>
      <trkpt lat="42.504448" lon="1.834995">
        <ele>1422.73633</ele>
        <time>2021-07-02T09:40:16Z</time>
      </trkpt>
      <trkpt lat="42.504635" lon="1.834847">
        <ele>1422.64795</ele>
        <time>2021-07-02T09:40:17Z</time>
      </trkpt>
      <trkpt lat="42.504845" lon="1.834680">
        <ele>1423.50989</ele>
        <time>2021-07-02T09:40:18Z</time>
      </trkpt>
      <trkpt lat="42.505058" lon="1.834513">
        <ele>1424.17554</ele>
        <time>2021-07-02T09:40:19Z</time>
      </trkpt>
      <trkpt lat="42.505257" lon="1.834368">
        <ele>1425.20532</ele>
        <time>2021-07-02T09:40:20Z</time>
      </trkpt>
      <trkpt lat="42.505463" lon="1.834223">
        <ele>1425.51331</ele>
        <time>2021-07-02T09:40:21Z</time>
      </trkpt>
      <trkpt lat="42.505692" lon="1.834061">
        <ele>1425.91040</ele>
        <time>2021-07-02T09:40:22Z</time>
      </trkpt>
      <trkpt lat="42.505913" lon="1.833888">
        <ele>1426.48547</ele>
        <time>2021-07-02T09:40:23Z</time>
      </trkpt>
      <trkpt lat="42.506149" lon="1.833705">
        <ele>1427.37512</ele>
        <time>2021-07-02T09:40:24Z</time>
      </trkpt>
      <trkpt lat="42.506355" lon="1.833481">
        <ele>1427.55078</ele>
        <time>2021-07-02T09:40:25Z</time>
      </trkpt>
      <trkpt lat="42.506573" lon="1.833277">
        <ele>1428.39490</ele>
        <time>2021-07-02T09:40:26Z</time>
      </trkpt>
      <trkpt lat="42.506775" lon="1.833108">
        <ele>1428.29858</ele>
        <time>2021-07-02T09:40:27Z</time>
      </trkpt>
      <trkpt lat="42.506775" lon="1.833108">
        <ele>1428.72827</ele>
        <time>2021-07-02T09:40:28Z</time>
      </trkpt>
      <trkpt lat="42.506989" lon="1.832930">
        <ele>1429.12305</ele>
        <time>2021-07-02T09:40:29Z</time>
      </trkpt>
      <trkpt lat="42.507206" lon="1.832747">
        <ele>1430.22693</ele>
        <time>2021-07-02T09:40:30Z</time>
      </trkpt>
      <trkpt lat="42.507404" lon="1.832580">
        <ele>1430.95667</ele>
        <time>2021-07-02T09:40:31Z</time>
      </trkpt>
      <trkpt lat="42.507607" lon="1.832410">
        <ele>1431.17798</ele>
        <time>2021-07-02T09:40:32Z</time>
      </trkpt>
      <trkpt lat="42.507812" lon="1.832239">
        <ele>1431.65332</ele>
        <time>2021-07-02T09:40:33Z</time>
      </trkpt>
      <trkpt lat="42.507988" lon="1.832089">
        <ele>1432.43555</ele>
        <time>2021-07-02T09:40:34Z</time>
      </trkpt>
      <trkpt lat="42.508167" lon="1.831940">
        <ele>1420.43225</ele>
        <time>2021-07-02T09:40:35Z</time>
      </trkpt>
      <trkpt lat="42.508308" lon="1.831820">
        <ele>1420.93140</ele>
        <time>2021-07-02T09:40:36Z</time>
      </trkpt>
      <trkpt lat="42.508446" lon="1.831722">
        <ele>1421.38843</ele>
        <time>2021-07-02T09:40:37Z</time>
      </trkpt>
      <trkpt lat="42.508595" lon="1.831618">
        <ele>1421.26514</ele>
        <time>2021-07-02T09:40:38Z</time>
      </trkpt>
      <trkpt lat="42.508747" lon="1.831479">
        <ele>1421.53638</ele>
        <time>2021-07-02T09:40:39Z</time>
      </trkpt>
      <trkpt lat="42.508896" lon="1.831326">
        <ele>1421.13733</ele>
        <time>2021-07-02T09:40:40Z</time>
      </trkpt>
      <trkpt lat="42.509026" lon="1.831166">
        <ele>1421.55029</ele>
        <time>2021-07-02T09:40:41Z</time>
      </trkpt>
      <trkpt lat="42.509148" lon="1.831018">
        <ele>1421.71350</ele>
        <time>2021-07-02T09:40:42Z</time>
      </trkpt>
      <trkpt lat="42.509266" lon="1.830872">
        <ele>1422.78894</ele>
        <time>2021-07-02T09:40:43Z</time>
      </trkpt>
      <trkpt lat="42.509392" lon="1.830723">
        <ele>1423.20032</ele>
        <time>2021-07-02T09:40:44Z</time>
      </trkpt>
      <trkpt lat="42.509529" lon="1.830558">
        <ele>1423.22229</ele>
        <time>2021-07-02T09:40:45Z</time>
      </trkpt>
      <trkpt lat="42.509663" lon="1.830372">
        <ele>1430.80139</ele>
        <time>2021-07-02T09:40:46Z</time>
      </trkpt>
      <trkpt lat="42.509789" lon="1.830169">
        <ele>1432.79150</ele>
        <time>2021-07-02T09:40:47Z</time>
      </trkpt>
      <trkpt lat="42.509895" lon="1.829961">
        <ele>1424.22168</ele>
        <time>2021-07-02T09:40:48Z</time>
      </trkpt>
      <trkpt lat="42.509998" lon="1.829742">
        <ele>1424.03516</ele>
        <time>2021-07-02T09:40:49Z</time>
      </trkpt>
      <trkpt lat="42.510094" lon="1.829528">
        <ele>1426.26428</ele>
        <time>2021-07-02T09:40:50Z</time>
      </trkpt>
      <trkpt lat="42.510185" lon="1.829329">
        <ele>1426.20447</ele>
        <time>2021-07-02T09:40:51Z</time>
      </trkpt>
      <trkpt lat="42.510277" lon="1.829128">
        <ele>1426.37830</ele>
        <time>2021-07-02T09:40:52Z</time>
      </trkpt>
      <trkpt lat="42.510395" lon="1.828935">
        <ele>1427.94983</ele>
        <time>2021-07-02T09:40:53Z</time>
      </trkpt>
      <trkpt lat="42.510517" lon="1.828759">
        <ele>1428.54211</ele>
        <time>2021-07-02T09:40:54Z</time>
      </trkpt>
      <trkpt lat="42.510628" lon="1.828603">
        <ele>1428.83521</ele>
        <time>2021-07-02T09:40:55Z</time>
      </trkpt>
      <trkpt lat="42.510731" lon="1.828469">
        <ele>1428.58435</ele>
        <time>2021-07-02T09:40:56Z</time>
      </trkpt>
      <trkpt lat="42.510860" lon="1.828352">
        <ele>1438.62939</ele>
        <time>2021-07-02T09:40:57Z</time>
      </trkpt>
      <trkpt lat="42.511032" lon="1.828203">
        <ele>1440.42334</ele>
        <time>2021-07-02T09:40:58Z</time>
      </trkpt>
      <trkpt lat="42.511032" lon="1.828203">
        <ele>1442.99744</ele>
        <time>2021-07-02T09:40:59Z</time>
      </trkpt>
      <trkpt lat="42.511230" lon="1.828037">
        <ele>1445.01282</ele>
        <time>2021-07-02T09:41:00Z</time>
      </trkpt>
      <trkpt lat="42.511456" lon="1.827844">
        <ele>1436.07935</ele>
        <time>2021-07-02T09:41:01Z</time>
      </trkpt>
      <trkpt lat="42.511642" lon="1.827686">
        <ele>1435.77197</ele>
        <time>2021-07-02T09:41:02Z</time>
      </trkpt>
      <trkpt lat="42.511784" lon="1.827563">
        <ele>1435.86414</ele>
        <time>2021-07-02T09:41:03Z</time>
      </trkpt>
      <trkpt lat="42.511902" lon="1.827463">
        <ele>1443.73877</ele>
        <time>2021-07-02T09:41:04Z</time>
      </trkpt>
      <trkpt lat="42.512032" lon="1.827353">
        <ele>1445.44580</ele>
        <time>2021-07-02T09:41:05Z</time>
      </trkpt>
      <trkpt lat="42.512138" lon="1.827262">
        <ele>1446.64954</ele>
        <time>2021-07-02T09:41:06Z</time>
      </trkpt>
      <trkpt lat="42.512241" lon="1.827168">
        <ele>1438.91602</ele>
        <time>2021-07-02T09:41:07Z</time>
      </trkpt>
      <trkpt lat="42.512337" lon="1.827021">
        <ele>1439.74976</ele>
        <time>2021-07-02T09:41:08Z</time>
      </trkpt>
      <trkpt lat="42.512390" lon="1.826875">
        <ele>1440.03516</ele>
        <time>2021-07-02T09:41:09Z</time>
      </trkpt>
      <trkpt lat="42.512405" lon="1.826752">
        <ele>1440.77063</ele>
        <time>2021-07-02T09:41:10Z</time>
      </trkpt>
      <trkpt lat="42.512417" lon="1.826577">
        <ele>1440.61646</ele>
        <time>2021-07-02T09:41:11Z</time>
      </trkpt>
      <trkpt lat="42.512444" lon="1.826419">
        <ele>1447.73755</ele>
        <time>2021-07-02T09:41:12Z</time>
      </trkpt>
      <trkpt lat="42.512486" lon="1.826279">
        <ele>1448.82104</ele>
        <time>2021-07-02T09:41:13Z</time>
      </trkpt>
      <trkpt lat="42.512554" lon="1.826127">
        <ele>1450.11865</ele>
        <time>2021-07-02T09:41:14Z</time>
      </trkpt>
      <trkpt lat="42.512653" lon="1.826011">
        <ele>1451.09985</ele>
        <time>2021-07-02T09:41:15Z</time>
      </trkpt>
      <trkpt lat="42.512749" lon="1.825908">
        <ele>1450.60352</ele>
        <time>2021-07-02T09:41:16Z</time>
      </trkpt>
      <trkpt lat="42.512848" lon="1.825821">
        <ele>1451.14514</ele>
        <time>2021-07-02T09:41:17Z</time>
      </trkpt>
      <trkpt lat="42.512989" lon="1.825701">
        <ele>1451.91956</ele>
        <time>2021-07-02T09:41:18Z</time>
      </trkpt>
      <trkpt lat="42.513123" lon="1.825578">
        <ele>1451.72424</ele>
        <time>2021-07-02T09:41:19Z</time>
      </trkpt>
      <trkpt lat="42.513241" lon="1.825465">
        <ele>1452.48120</ele>
        <time>2021-07-02T09:41:20Z</time>
      </trkpt>
      <trkpt lat="42.513359" lon="1.825346">
        <ele>1452.59058</ele>
        <time>2021-07-02T09:41:21Z</time>
      </trkpt>
      <trkpt lat="42.513439" lon="1.825214">
        <ele>1452.60608</ele>
        <time>2021-07-02T09:41:22Z</time>
      </trkpt>
      <trkpt lat="42.513496" lon="1.825091">
        <ele>1452.46790</ele>
        <time>2021-07-02T09:41:23Z</time>
      </trkpt>
      <trkpt lat="42.513535" lon="1.824983">
        <ele>1452.85876</ele>
        <time>2021-07-02T09:41:24Z</time>
      </trkpt>
      <trkpt lat="42.513577" lon="1.824867">
        <ele>1453.08704</ele>
        <time>2021-07-02T09:41:25Z</time>
      </trkpt>
      <trkpt lat="42.513653" lon="1.824742">
        <ele>1453.33386</ele>
        <time>2021-07-02T09:41:26Z</time>
      </trkpt>
      <trkpt lat="42.513783" lon="1.824600">
        <ele>1455.24292</ele>
        <time>2021-07-02T09:41:27Z</time>
      </trkpt>
      <trkpt lat="42.513893" lon="1.824502">
        <ele>1455.67883</ele>
        <time>2021-07-02T09:41:28Z</time>
      </trkpt>
      <trkpt lat="42.514046" lon="1.824370">
        <ele>1456.52039</ele>
        <time>2021-07-02T09:41:29Z</time>
      </trkpt>
      <trkpt lat="42.514046" lon="1.824370">
        <ele>1457.26880</ele>
        <time>2021-07-02T09:41:30Z</time>
      </trkpt>
      <trkpt lat="42.514156" lon="1.824269">
        <ele>1457.60034</ele>
        <time>2021-07-02T09:41:31Z</time>
      </trkpt>
      <trkpt lat="42.514267" lon="1.824195">
        <ele>1457.96826</ele>
        <time>2021-07-02T09:41:32Z</time>
      </trkpt>
      <trkpt lat="42.514359" lon="1.824165">
        <ele>1457.91809</ele>
        <time>2021-07-02T09:41:33Z</time>
      </trkpt>
      <trkpt lat="42.514435" lon="1.824172">
        <ele>1459.55945</ele>
        <time>2021-07-02T09:41:34Z</time>
      </trkpt>
      <trkpt lat="42.514545" lon="1.824210">
        <ele>1457.49768</ele>
        <time>2021-07-02T09:41:35Z</time>
      </trkpt>
      <trkpt lat="42.514637" lon="1.824246">
        <ele>1459.93140</ele>
        <time>2021-07-02T09:41:36Z</time>
      </trkpt>
      <trkpt lat="42.514755" lon="1.824282">
        <ele>1462.82922</ele>
        <time>2021-07-02T09:41:37Z</time>
      </trkpt>
      <trkpt lat="42.515041" lon="1.824327">
        <ele>1462.59253</ele>
        <time>2021-07-02T09:41:38Z</time>
      </trkpt>
      <trkpt lat="42.515285" lon="1.824369">
        <ele>1463.14380</ele>
        <time>2021-07-02T09:41:39Z</time>
      </trkpt>
      <trkpt lat="42.515476" lon="1.824395">
        <ele>1463.86560</ele>
        <time>2021-07-02T09:41:40Z</time>
      </trkpt>
      <trkpt lat="42.515759" lon="1.824373">
        <ele>1464.38940</ele>
        <time>2021-07-02T09:41:41Z</time>
      </trkpt>
      <trkpt lat="42.515945" lon="1.824311">
        <ele>1464.57300</ele>
        <time>2021-07-02T09:41:42Z</time>
      </trkpt>
      <trkpt lat="42.516155" lon="1.824184">
        <ele>1465.85010</ele>
        <time>2021-07-02T09:41:43Z</time>
      </trkpt>
      <trkpt lat="42.516331" lon="1.824077">
        <ele>1467.63147</ele>
        <time>2021-07-02T09:41:44Z</time>
      </trkpt>
      <trkpt lat="42.516518" lon="1.823946">
        <ele>1469.16980</ele>
        <time>2021-07-02T09:41:45Z</time>
      </trkpt>
      <trkpt lat="42.516785" lon="1.823759">
        <ele>1469.94836</ele>
        <time>2021-07-02T09:41:46Z</time>
      </trkpt>
      <trkpt lat="42.516987" lon="1.823582">
        <ele>1470.13855</ele>
        <time>2021-07-02T09:41:47Z</time>
      </trkpt>
      <trkpt lat="42.517159" lon="1.823398">
        <ele>1472.98206</ele>
        <time>2021-07-02T09:41:48Z</time>
      </trkpt>
      <trkpt lat="42.517319" lon="1.823211">
        <ele>1474.38611</ele>
        <time>2021-07-02T09:41:49Z</time>
      </trkpt>
      <trkpt lat="42.517471" lon="1.823066">
        <ele>1474.57336</ele>
        <time>2021-07-02T09:41:50Z</time>
      </trkpt>
      <trkpt lat="42.517612" lon="1.822988">
        <ele>1476.13000</ele>
        <time>2021-07-02T09:41:51Z</time>
      </trkpt>
      <trkpt lat="42.517784" lon="1.822912">
        <ele>1477.32825</ele>
        <time>2021-07-02T09:41:52Z</time>
      </trkpt>
      <trkpt lat="42.518009" lon="1.822817">
        <ele>1480.75366</ele>
        <time>2021-07-02T09:41:53Z</time>
      </trkpt>
      <trkpt lat="42.518211" lon="1.822753">
        <ele>1480.90076</ele>
        <time>2021-07-02T09:41:54Z</time>
      </trkpt>
      <trkpt lat="42.518356" lon="1.822747">
        <ele>1481.11841</ele>
        <time>2021-07-02T09:41:55Z</time>
      </trkpt>
      <trkpt lat="42.518517" lon="1.822755">
        <ele>1483.56775</ele>
        <time>2021-07-02T09:41:56Z</time>
      </trkpt>
      <trkpt lat="42.518700" lon="1.822764">
        <ele>1489.70105</ele>
        <time>2021-07-02T09:41:57Z</time>
      </trkpt>
      <trkpt lat="42.518906" lon="1.822759">
        <ele>1490.67676</ele>
        <time>2021-07-02T09:41:58Z</time>
      </trkpt>
      <trkpt lat="42.519077" lon="1.822721">
        <ele>1490.87366</ele>
        <time>2021-07-02T09:41:59Z</time>
      </trkpt>
      <trkpt lat="42.519245" lon="1.822670">
        <ele>1485.56921</ele>
        <time>2021-07-02T09:42:00Z</time>
      </trkpt>
      <trkpt lat="42.519245" lon="1.822670">
        <ele>1487.23865</ele>
        <time>2021-07-02T09:42:01Z</time>
      </trkpt>
      <trkpt lat="42.519424" lon="1.822615">
        <ele>1488.58704</ele>
        <time>2021-07-02T09:42:02Z</time>
      </trkpt>
      <trkpt lat="42.519581" lon="1.822566">
        <ele>1489.29150</ele>
        <time>2021-07-02T09:42:03Z</time>
      </trkpt>
      <trkpt lat="42.519772" lon="1.822508">
        <ele>1490.90991</ele>
        <time>2021-07-02T09:42:04Z</time>
      </trkpt>
      <trkpt lat="42.519951" lon="1.822453">
        <ele>1491.08716</ele>
        <time>2021-07-02T09:42:05Z</time>
      </trkpt>
      <trkpt lat="42.520115" lon="1.822402">
        <ele>1491.48157</ele>
        <time>2021-07-02T09:42:06Z</time>
      </trkpt>
      <trkpt lat="42.520260" lon="1.822357">
        <ele>1492.24146</ele>
        <time>2021-07-02T09:42:07Z</time>
      </trkpt>
      <trkpt lat="42.520378" lon="1.822321">
        <ele>1493.50952</ele>
        <time>2021-07-02T09:42:08Z</time>
      </trkpt>
      <trkpt lat="42.520527" lon="1.822293">
        <ele>1493.79211</ele>
        <time>2021-07-02T09:42:09Z</time>
      </trkpt>
      <trkpt lat="42.520664" lon="1.822275">
        <ele>1494.18848</ele>
        <time>2021-07-02T09:42:10Z</time>
      </trkpt>
      <trkpt lat="42.520790" lon="1.822265">
        <ele>1493.28943</ele>
        <time>2021-07-02T09:42:11Z</time>
      </trkpt>
      <trkpt lat="42.520943" lon="1.822274">
        <ele>1493.40186</ele>
        <time>2021-07-02T09:42:12Z</time>
      </trkpt>
      <trkpt lat="42.521095" lon="1.822290">
        <ele>1493.32214</ele>
        <time>2021-07-02T09:42:13Z</time>
      </trkpt>
      <trkpt lat="42.521252" lon="1.822332">
        <ele>1493.12463</ele>
        <time>2021-07-02T09:42:14Z</time>
      </trkpt>
      <trkpt lat="42.521385" lon="1.822383">
        <ele>1493.10779</ele>
        <time>2021-07-02T09:42:15Z</time>
      </trkpt>
      <trkpt lat="42.521519" lon="1.822437">
        <ele>1493.01111</ele>
        <time>2021-07-02T09:42:16Z</time>
      </trkpt>
      <trkpt lat="42.521633" lon="1.822499">
        <ele>1494.81494</ele>
        <time>2021-07-02T09:42:17Z</time>
      </trkpt>
      <trkpt lat="42.521774" lon="1.822574">
        <ele>1488.57263</ele>
        <time>2021-07-02T09:42:18Z</time>
      </trkpt>
      <trkpt lat="42.521919" lon="1.822632">
        <ele>1490.34265</ele>
        <time>2021-07-02T09:42:19Z</time>
      </trkpt>
      <trkpt lat="42.522053" lon="1.822689">
        <ele>1491.62708</ele>
        <time>2021-07-02T09:42:20Z</time>
      </trkpt>
      <trkpt lat="42.522205" lon="1.822737">
        <ele>1488.09631</ele>
        <time>2021-07-02T09:42:21Z</time>
      </trkpt>
      <trkpt lat="42.522335" lon="1.822774">
        <ele>1490.23730</ele>
        <time>2021-07-02T09:42:22Z</time>
      </trkpt>
      <trkpt lat="42.522461" lon="1.822809">
        <ele>1487.62170</ele>
        <time>2021-07-02T09:42:23Z</time>
      </trkpt>
      <trkpt lat="42.522572" lon="1.822829">
        <ele>1487.44849</ele>
        <time>2021-07-02T09:42:24Z</time>
      </trkpt>
      <trkpt lat="42.522690" lon="1.822849">
        <ele>1487.70483</ele>
        <time>2021-07-02T09:42:25Z</time>
      </trkpt>
      <trkpt lat="42.522842" lon="1.822867">
        <ele>1491.56897</ele>
        <time>2021-07-02T09:42:26Z</time>
      </trkpt>
      <trkpt lat="42.522945" lon="1.822871">
        <ele>1493.17090</ele>
        <time>2021-07-02T09:42:27Z</time>
      </trkpt>
      <trkpt lat="42.523014" lon="1.822864">
        <ele>1494.44922</ele>
        <time>2021-07-02T09:42:28Z</time>
      </trkpt>
      <trkpt lat="42.523109" lon="1.822851">
        <ele>1496.86194</ele>
        <time>2021-07-02T09:42:29Z</time>
      </trkpt>
      <trkpt lat="42.523216" lon="1.822837">
        <ele>1497.86560</ele>
        <time>2021-07-02T09:42:30Z</time>
      </trkpt>
      <trkpt lat="42.523323" lon="1.822820">
        <ele>1499.04651</ele>
        <time>2021-07-02T09:42:31Z</time>
      </trkpt>
      <trkpt lat="42.523422" lon="1.822801">
        <ele>1499.47351</ele>
        <time>2021-07-02T09:42:32Z</time>
      </trkpt>
      <trkpt lat="42.523422" lon="1.822801">
        <ele>1501.63416</ele>
        <time>2021-07-02T09:42:33Z</time>
      </trkpt>
      <trkpt lat="42.523556" lon="1.822776">
        <ele>1502.41492</ele>
        <time>2021-07-02T09:42:34Z</time>
      </trkpt>
      <trkpt lat="42.523674" lon="1.822753">
        <ele>1502.54724</ele>
        <time>2021-07-02T09:42:35Z</time>
      </trkpt>
      <trkpt lat="42.523766" lon="1.822735">
        <ele>1501.49011</ele>
        <time>2021-07-02T09:42:36Z</time>
      </trkpt>
      <trkpt lat="42.523880" lon="1.822714">
        <ele>1501.33484</ele>
        <time>2021-07-02T09:42:37Z</time>
      </trkpt>
      <trkpt lat="42.523994" lon="1.822704">
        <ele>1499.66736</ele>
        <time>2021-07-02T09:42:38Z</time>
      </trkpt>
      <trkpt lat="42.524109" lon="1.822695">
        <ele>1500.67883</ele>
        <time>2021-07-02T09:42:39Z</time>
      </trkpt>
      <trkpt lat="42.524258" lon="1.822701">
        <ele>1501.71179</ele>
        <time>2021-07-02T09:42:40Z</time>
      </trkpt>
      <trkpt lat="42.524349" lon="1.822709">
        <ele>1501.83728</ele>
        <time>2021-07-02T09:42:41Z</time>
      </trkpt>
      <trkpt lat="42.524445" lon="1.822717">
        <ele>1505.95056</ele>
        <time>2021-07-02T09:42:42Z</time>
      </trkpt>
      <trkpt lat="42.524586" lon="1.822749">
        <ele>1505.67419</ele>
        <time>2021-07-02T09:42:43Z</time>
      </trkpt>
      <trkpt lat="42.524689" lon="1.822775">
        <ele>1505.84460</ele>
        <time>2021-07-02T09:42:44Z</time>
      </trkpt>
      <trkpt lat="42.524796" lon="1.822801">
        <ele>1504.62390</ele>
        <time>2021-07-02T09:42:45Z</time>
      </trkpt>
      <trkpt lat="42.524952" lon="1.822838">
        <ele>1503.05920</ele>
        <time>2021-07-02T09:42:46Z</time>
      </trkpt>
      <trkpt lat="42.525082" lon="1.822874">
        <ele>1502.27527</ele>
        <time>2021-07-02T09:42:47Z</time>
      </trkpt>
      <trkpt lat="42.525227" lon="1.822915">
        <ele>1489.24658</ele>
        <time>2021-07-02T09:42:48Z</time>
      </trkpt>
      <trkpt lat="42.525360" lon="1.822953">
        <ele>1489.51880</ele>
        <time>2021-07-02T09:42:49Z</time>
      </trkpt>
      <trkpt lat="42.525501" lon="1.822993">
        <ele>1489.41614</ele>
        <time>2021-07-02T09:42:50Z</time>
      </trkpt>
      <trkpt lat="42.525620" lon="1.823027">
        <ele>1489.62268</ele>
        <time>2021-07-02T09:42:51Z</time>
      </trkpt>
      <trkpt lat="42.525734" lon="1.823060">
        <ele>1494.80493</ele>
        <time>2021-07-02T09:42:52Z</time>
      </trkpt>
      <trkpt lat="42.525848" lon="1.823099">
        <ele>1496.92273</ele>
        <time>2021-07-02T09:42:53Z</time>
      </trkpt>
      <trkpt lat="42.525978" lon="1.823144">
        <ele>1498.32361</ele>
        <time>2021-07-02T09:42:54Z</time>
      </trkpt>
      <trkpt lat="42.526096" lon="1.823185">
        <ele>1500.87830</ele>
        <time>2021-07-02T09:42:55Z</time>
      </trkpt>
      <trkpt lat="42.526215" lon="1.823225">
        <ele>1502.41589</ele>
        <time>2021-07-02T09:42:56Z</time>
      </trkpt>
      <trkpt lat="42.526325" lon="1.823264">
        <ele>1503.50330</ele>
        <time>2021-07-02T09:42:57Z</time>
      </trkpt>
      <trkpt lat="42.526421" lon="1.823297">
        <ele>1503.97009</ele>
        <time>2021-07-02T09:42:58Z</time>
      </trkpt>
      <trkpt lat="42.526512" lon="1.823329">
        <ele>1504.90710</ele>
        <time>2021-07-02T09:42:59Z</time>
      </trkpt>
      <trkpt lat="42.526615" lon="1.823380">
        <ele>1505.90100</ele>
        <time>2021-07-02T09:43:00Z</time>
      </trkpt>
      <trkpt lat="42.526745" lon="1.823461">
        <ele>1506.01355</ele>
        <time>2021-07-02T09:43:01Z</time>
      </trkpt>
      <trkpt lat="42.526867" lon="1.823570">
        <ele>1505.56433</ele>
        <time>2021-07-02T09:43:02Z</time>
      </trkpt>
      <trkpt lat="42.526974" lon="1.823669">
        <ele>1506.76282</ele>
        <time>2021-07-02T09:43:03Z</time>
      </trkpt>
      <trkpt lat="42.527092" lon="1.823808">
        <ele>1508.18640</ele>
        <time>2021-07-02T09:43:04Z</time>
      </trkpt>
      <trkpt lat="42.527229" lon="1.823935">
        <ele>1508.94324</ele>
        <time>2021-07-02T09:43:05Z</time>
      </trkpt>
      <trkpt lat="42.527229" lon="1.823935">
        <ele>1509.34729</ele>
        <time>2021-07-02T09:43:06Z</time>
      </trkpt>
      <trkpt lat="42.527397" lon="1.824050">
        <ele>1515.04797</ele>
        <time>2021-07-02T09:43:07Z</time>
      </trkpt>
      <trkpt lat="42.527538" lon="1.824126">
        <ele>1515.47083</ele>
        <time>2021-07-02T09:43:08Z</time>
      </trkpt>
      <trkpt lat="42.527679" lon="1.824161">
        <ele>1514.14148</ele>
        <time>2021-07-02T09:43:09Z</time>
      </trkpt>
      <trkpt lat="42.527802" lon="1.824186">
        <ele>1514.81091</ele>
        <time>2021-07-02T09:43:10Z</time>
      </trkpt>
      <trkpt lat="42.527946" lon="1.824216">
        <ele>1514.97937</ele>
        <time>2021-07-02T09:43:11Z</time>
      </trkpt>
      <trkpt lat="42.528099" lon="1.824231">
        <ele>1519.97620</ele>
        <time>2021-07-02T09:43:12Z</time>
      </trkpt>
      <trkpt lat="42.528252" lon="1.824240">
        <ele>1520.44861</ele>
        <time>2021-07-02T09:43:13Z</time>
      </trkpt>
      <trkpt lat="42.528393" lon="1.824233">
        <ele>1521.65613</ele>
        <time>2021-07-02T09:43:14Z</time>
      </trkpt>
      <trkpt lat="42.528496" lon="1.824223">
        <ele>1523.23181</ele>
        <time>2021-07-02T09:43:15Z</time>
      </trkpt>
      <trkpt lat="42.528629" lon="1.824189">
        <ele>1523.17712</ele>
        <time>2021-07-02T09:43:16Z</time>
      </trkpt>
      <trkpt lat="42.528793" lon="1.824125">
        <ele>1525.70984</ele>
        <time>2021-07-02T09:43:17Z</time>
      </trkpt>
      <trkpt lat="42.528915" lon="1.824053">
        <ele>1526.46814</ele>
        <time>2021-07-02T09:43:18Z</time>
      </trkpt>
      <trkpt lat="42.529041" lon="1.823960">
        <ele>1526.54407</ele>
        <time>2021-07-02T09:43:19Z</time>
      </trkpt>
      <trkpt lat="42.529140" lon="1.823872">
        <ele>1526.06042</ele>
        <time>2021-07-02T09:43:20Z</time>
      </trkpt>
      <trkpt lat="42.529266" lon="1.823762">
        <ele>1526.14343</ele>
        <time>2021-07-02T09:43:21Z</time>
      </trkpt>
      <trkpt lat="42.529381" lon="1.823654">
        <ele>1527.84070</ele>
        <time>2021-07-02T09:43:22Z</time>
      </trkpt>
      <trkpt lat="42.529503" lon="1.823523">
        <ele>1528.59412</ele>
        <time>2021-07-02T09:43:23Z</time>
      </trkpt>
      <trkpt lat="42.529621" lon="1.823398">
        <ele>1530.65710</ele>
        <time>2021-07-02T09:43:24Z</time>
      </trkpt>
      <trkpt lat="42.529747" lon="1.823271">
        <ele>1530.58508</ele>
        <time>2021-07-02T09:43:25Z</time>
      </trkpt>
      <trkpt lat="42.529915" lon="1.823099">
        <ele>1531.63391</ele>
        <time>2021-07-02T09:43:26Z</time>
      </trkpt>
      <trkpt lat="42.530125" lon="1.822881">
        <ele>1533.01648</ele>
        <time>2021-07-02T09:43:27Z</time>
      </trkpt>
      <trkpt lat="42.530323" lon="1.822672">
        <ele>1533.91736</ele>
        <time>2021-07-02T09:43:28Z</time>
      </trkpt>
      <trkpt lat="42.530540" lon="1.822444">
        <ele>1535.60046</ele>
        <time>2021-07-02T09:43:29Z</time>
      </trkpt>
      <trkpt lat="42.530727" lon="1.822250">
        <ele>1536.71790</ele>
        <time>2021-07-02T09:43:30Z</time>
      </trkpt>
      <trkpt lat="42.530907" lon="1.822068">
        <ele>1537.03381</ele>
        <time>2021-07-02T09:43:31Z</time>
      </trkpt>
      <trkpt lat="42.531078" lon="1.821897">
        <ele>1537.68005</ele>
        <time>2021-07-02T09:43:32Z</time>
      </trkpt>
      <trkpt lat="42.531265" lon="1.821772">
        <ele>1537.37854</ele>
        <time>2021-07-02T09:43:33Z</time>
      </trkpt>
      <trkpt lat="42.531437" lon="1.821665">
        <ele>1536.95251</ele>
        <time>2021-07-02T09:43:34Z</time>
      </trkpt>
      <trkpt lat="42.531582" lon="1.821600">
        <ele>1534.92664</ele>
        <time>2021-07-02T09:43:35Z</time>
      </trkpt>
      <trkpt lat="42.531765" lon="1.821549">
        <ele>1534.83386</ele>
        <time>2021-07-02T09:43:36Z</time>
      </trkpt>
      <trkpt lat="42.531944" lon="1.821525">
        <ele>1534.86780</ele>
        <time>2021-07-02T09:43:37Z</time>
      </trkpt>
      <trkpt lat="42.531944" lon="1.821525">
        <ele>1537.31726</ele>
        <time>2021-07-02T09:43:38Z</time>
      </trkpt>
      <trkpt lat="42.532108" lon="1.821519">
        <ele>1537.89343</ele>
        <time>2021-07-02T09:43:39Z</time>
      </trkpt>
      <trkpt lat="42.532284" lon="1.821532">
        <ele>1536.92859</ele>
        <time>2021-07-02T09:43:40Z</time>
      </trkpt>
      <trkpt lat="42.532436" lon="1.821568">
        <ele>1537.32629</ele>
        <time>2021-07-02T09:43:41Z</time>
      </trkpt>
      <trkpt lat="42.532597" lon="1.821618">
        <ele>1537.27478</ele>
        <time>2021-07-02T09:43:42Z</time>
      </trkpt>
      <trkpt lat="42.532776" lon="1.821725">
        <ele>1537.73694</ele>
        <time>2021-07-02T09:43:43Z</time>
      </trkpt>
      <trkpt lat="42.532925" lon="1.821827">
        <ele>1536.27747</ele>
        <time>2021-07-02T09:43:44Z</time>
      </trkpt>
      <trkpt lat="42.533081" lon="1.821935">
        <ele>1537.38318</ele>
        <time>2021-07-02T09:43:45Z</time>
      </trkpt>
      <trkpt lat="42.533237" lon="1.822047">
        <ele>1537.44568</ele>
        <time>2021-07-02T09:43:46Z</time>
      </trkpt>
      <trkpt lat="42.533409" lon="1.822155">
        <ele>1538.15686</ele>
        <time>2021-07-02T09:43:47Z</time>
      </trkpt>
      <trkpt lat="42.533577" lon="1.822249">
        <ele>1538.48132</ele>
        <time>2021-07-02T09:43:48Z</time>
      </trkpt>
      <trkpt lat="42.533768" lon="1.822322">
        <ele>1539.20691</ele>
        <time>2021-07-02T09:43:49Z</time>
      </trkpt>
      <trkpt lat="42.534058" lon="1.822422">
        <ele>1539.26697</ele>
        <time>2021-07-02T09:43:50Z</time>
      </trkpt>
      <trkpt lat="42.534286" lon="1.822500">
        <ele>1539.44031</ele>
        <time>2021-07-02T09:43:51Z</time>
      </trkpt>
      <trkpt lat="42.534519" lon="1.822580">
        <ele>1523.48767</ele>
        <time>2021-07-02T09:43:52Z</time>
      </trkpt>
      <trkpt lat="42.534702" lon="1.822659">
        <ele>1523.43921</ele>
        <time>2021-07-02T09:43:53Z</time>
      </trkpt>
      <trkpt lat="42.534840" lon="1.822734">
        <ele>1523.50098</ele>
        <time>2021-07-02T09:43:54Z</time>
      </trkpt>
      <trkpt lat="42.534973" lon="1.822806">
        <ele>1524.16455</ele>
        <time>2021-07-02T09:43:55Z</time>
      </trkpt>
      <trkpt lat="42.535133" lon="1.822895">
        <ele>1524.27002</ele>
        <time>2021-07-02T09:43:56Z</time>
      </trkpt>
      <trkpt lat="42.535290" lon="1.822981">
        <ele>1524.40125</ele>
        <time>2021-07-02T09:43:57Z</time>
      </trkpt>
      <trkpt lat="42.535458" lon="1.823075">
        <ele>1525.18103</ele>
        <time>2021-07-02T09:43:58Z</time>
      </trkpt>
      <trkpt lat="42.535614" lon="1.823188">
        <ele>1525.64185</ele>
        <time>2021-07-02T09:43:59Z</time>
      </trkpt>
      <trkpt lat="42.535778" lon="1.823285">
        <ele>1532.03064</ele>
        <time>2021-07-02T09:44:00Z</time>
      </trkpt>
      <trkpt lat="42.535954" lon="1.823368">
        <ele>1532.82458</ele>
        <time>2021-07-02T09:44:01Z</time>
      </trkpt>
      <trkpt lat="42.536114" lon="1.823441">
        <ele>1528.17297</ele>
        <time>2021-07-02T09:44:02Z</time>
      </trkpt>
      <trkpt lat="42.536278" lon="1.823513">
        <ele>1528.76709</ele>
        <time>2021-07-02T09:44:03Z</time>
      </trkpt>
      <trkpt lat="42.536438" lon="1.823595">
        <ele>1532.82825</ele>
        <time>2021-07-02T09:44:04Z</time>
      </trkpt>
      <trkpt lat="42.536587" lon="1.823683">
        <ele>1530.14355</ele>
        <time>2021-07-02T09:44:05Z</time>
      </trkpt>
      <trkpt lat="42.536587" lon="1.823683">
        <ele>1530.77832</ele>
        <time>2021-07-02T09:44:06Z</time>
      </trkpt>
      <trkpt lat="42.536724" lon="1.823765">
        <ele>1531.31152</ele>
        <time>2021-07-02T09:44:07Z</time>
      </trkpt>
      <trkpt lat="42.536877" lon="1.823859">
        <ele>1532.21802</ele>
        <time>2021-07-02T09:44:08Z</time>
      </trkpt>
      <trkpt lat="42.537029" lon="1.823952">
        <ele>1532.73071</ele>
        <time>2021-07-02T09:44:09Z</time>
      </trkpt>
      <trkpt lat="42.537186" lon="1.824048">
        <ele>1533.95251</ele>
        <time>2021-07-02T09:44:10Z</time>
      </trkpt>
      <trkpt lat="42.537342" lon="1.824138">
        <ele>1534.81824</ele>
        <time>2021-07-02T09:44:11Z</time>
      </trkpt>
      <trkpt lat="42.537491" lon="1.824220">
        <ele>1535.85327</ele>
        <time>2021-07-02T09:44:12Z</time>
      </trkpt>
      <trkpt lat="42.537663" lon="1.824307">
        <ele>1536.89771</ele>
        <time>2021-07-02T09:44:13Z</time>
      </trkpt>
      <trkpt lat="42.537823" lon="1.824352">
        <ele>1537.47412</ele>
        <time>2021-07-02T09:44:14Z</time>
      </trkpt>
      <trkpt lat="42.538002" lon="1.824354">
        <ele>1538.32764</ele>
        <time>2021-07-02T09:44:15Z</time>
      </trkpt>
      <trkpt lat="42.538185" lon="1.824312">
        <ele>1538.58740</ele>
        <time>2021-07-02T09:44:16Z</time>
      </trkpt>
      <trkpt lat="42.538330" lon="1.824280">
        <ele>1538.97961</ele>
        <time>2021-07-02T09:44:17Z</time>
      </trkpt>
      <trkpt lat="42.538448" lon="1.824242">
        <ele>1539.42249</ele>
        <time>2021-07-02T09:44:18Z</time>
      </trkpt>
      <trkpt lat="42.538567" lon="1.824209">
        <ele>1539.70752</ele>
        <time>2021-07-02T09:44:19Z</time>
      </trkpt>
      <trkpt lat="42.538662" lon="1.824183">
        <ele>1540.12415</ele>
        <time>2021-07-02T09:44:20Z</time>
      </trkpt>
      <trkpt lat="42.538750" lon="1.824159">
        <ele>1540.39697</ele>
        <time>2021-07-02T09:44:21Z</time>
      </trkpt>
      <trkpt lat="42.538837" lon="1.824135">
        <ele>1540.99719</ele>
        <time>2021-07-02T09:44:22Z</time>
      </trkpt>
      <trkpt lat="42.538910" lon="1.824115">
        <ele>1541.48303</ele>
        <time>2021-07-02T09:44:23Z</time>
      </trkpt>
      <trkpt lat="42.538982" lon="1.824095">
        <ele>1541.65063</ele>
        <time>2021-07-02T09:44:24Z</time>
      </trkpt>
      <trkpt lat="42.539043" lon="1.824079">
        <ele>1541.98474</ele>
        <time>2021-07-02T09:44:25Z</time>
      </trkpt>
      <trkpt lat="42.539101" lon="1.824062">
        <ele>1542.24854</ele>
        <time>2021-07-02T09:44:26Z</time>
      </trkpt>
      <trkpt lat="42.539165" lon="1.824057">
        <ele>1542.60608</ele>
        <time>2021-07-02T09:44:27Z</time>
      </trkpt>
      <trkpt lat="42.539242" lon="1.824051">
        <ele>1542.87976</ele>
        <time>2021-07-02T09:44:28Z</time>
      </trkpt>
      <trkpt lat="42.539310" lon="1.824045">
        <ele>1543.21509</ele>
        <time>2021-07-02T09:44:29Z</time>
      </trkpt>
      <trkpt lat="42.539364" lon="1.824041">
        <ele>1543.31714</ele>
        <time>2021-07-02T09:44:30Z</time>
      </trkpt>
      <trkpt lat="42.539413" lon="1.824040">
        <ele>1543.45398</ele>
        <time>2021-07-02T09:44:31Z</time>
      </trkpt>
      <trkpt lat="42.539444" lon="1.824039">
        <ele>1543.69739</ele>
        <time>2021-07-02T09:44:32Z</time>
      </trkpt>
      <trkpt lat="42.539467" lon="1.824038">
        <ele>1543.85461</ele>
        <time>2021-07-02T09:44:33Z</time>
      </trkpt>
      <trkpt lat="42.539509" lon="1.824037">
        <ele>1544.14221</ele>
        <time>2021-07-02T09:44:34Z</time>
      </trkpt>
      <trkpt lat="42.539551" lon="1.824036">
        <ele>1544.39282</ele>
        <time>2021-07-02T09:44:35Z</time>
      </trkpt>
      <trkpt lat="42.539562" lon="1.824036">
        <ele>1544.33362</ele>
        <time>2021-07-02T09:44:36Z</time>
      </trkpt>
      <trkpt lat="42.539581" lon="1.824034">
        <ele>1544.36731</ele>
        <time>2021-07-02T09:44:37Z</time>
      </trkpt>
      <trkpt lat="42.539604" lon="1.824033">
        <ele>1544.39917</ele>
        <time>2021-07-02T09:44:38Z</time>
      </trkpt>
      <trkpt lat="42.539604" lon="1.824032">
        <ele>1544.35632</ele>
        <time>2021-07-02T09:44:39Z</time>
      </trkpt>
      <trkpt lat="42.539604" lon="1.824032">
        <ele>1544.23792</ele>
        <time>2021-07-02T09:44:40Z</time>
      </trkpt>
      <trkpt lat="42.539616" lon="1.824031">
        <ele>1544.39087</ele>
        <time>2021-07-02T09:44:41Z</time>
      </trkpt>
      <trkpt lat="42.539616" lon="1.824031">
        <ele>1544.42188</ele>
        <time>2021-07-02T09:44:42Z</time>
      </trkpt>
      <trkpt lat="42.539635" lon="1.824030">
        <ele>1544.52466</ele>
        <time>2021-07-02T09:44:43Z</time>
      </trkpt>
      <trkpt lat="42.539661" lon="1.824027">
        <ele>1544.60278</ele>
        <time>2021-07-02T09:44:44Z</time>
      </trkpt>
      <trkpt lat="42.539715" lon="1.824023">
        <ele>1544.75903</ele>
        <time>2021-07-02T09:44:45Z</time>
      </trkpt>
      <trkpt lat="42.539772" lon="1.824018">
        <ele>1544.67676</ele>
        <time>2021-07-02T09:44:46Z</time>
      </trkpt>
      <trkpt lat="42.539837" lon="1.824013">
        <ele>1544.69922</ele>
        <time>2021-07-02T09:44:47Z</time>
      </trkpt>
      <trkpt lat="42.539898" lon="1.824008">
        <ele>1544.74487</ele>
        <time>2021-07-02T09:44:48Z</time>
      </trkpt>
      <trkpt lat="42.539928" lon="1.824004">
        <ele>1544.72168</ele>
        <time>2021-07-02T09:44:49Z</time>
      </trkpt>
      <trkpt lat="42.539936" lon="1.824002">
        <ele>1544.67554</ele>
        <time>2021-07-02T09:44:50Z</time>
      </trkpt>
      <trkpt lat="42.539940" lon="1.824002">
        <ele>1544.70044</ele>
        <time>2021-07-02T09:44:51Z</time>
      </trkpt>
      <trkpt lat="42.539940" lon="1.824002">
        <ele>1544.74646</ele>
        <time>2021-07-02T09:44:52Z</time>
      </trkpt>
      <trkpt lat="42.539940" lon="1.824002">
        <ele>1544.69958</ele>
        <time>2021-07-02T09:44:53Z</time>
      </trkpt>
      <trkpt lat="42.539940" lon="1.824002">
        <ele>1544.78540</ele>
        <time>2021-07-02T09:44:54Z</time>
      </trkpt>
      <trkpt lat="42.539940" lon="1.824002">
        <ele>1544.80273</ele>
        <time>2021-07-02T09:44:55Z</time>
      </trkpt>
      <trkpt lat="42.539940" lon="1.824002">
        <ele>1544.74377</ele>
        <time>2021-07-02T09:44:56Z</time>
      </trkpt>
      <trkpt lat="42.539940" lon="1.824002">
        <ele>1544.79492</ele>
        <time>2021-07-02T09:44:57Z</time>
      </trkpt>
      <trkpt lat="42.539940" lon="1.824002">
        <ele>1544.77637</ele>
        <time>2021-07-02T09:44:58Z</time>
      </trkpt>
      <trkpt lat="42.539940" lon="1.824002">
        <ele>1544.89502</ele>
        <time>2021-07-02T09:44:59Z</time>
      </trkpt>
      <trkpt lat="42.539940" lon="1.824002">
        <ele>1544.98853</ele>
        <time>2021-07-02T09:45:00Z</time>
      </trkpt>
      <trkpt lat="42.539989" lon="1.823992">
        <ele>1545.05066</ele>
        <time>2021-07-02T09:45:01Z</time>
      </trkpt>
      <trkpt lat="42.540073" lon="1.823975">
        <ele>1545.03870</ele>
        <time>2021-07-02T09:45:02Z</time>
      </trkpt>
      <trkpt lat="42.540134" lon="1.823961">
        <ele>1545.09265</ele>
        <time>2021-07-02T09:45:03Z</time>
      </trkpt>
      <trkpt lat="42.540230" lon="1.823930">
        <ele>1545.06897</ele>
        <time>2021-07-02T09:45:04Z</time>
      </trkpt>
      <trkpt lat="42.540298" lon="1.823907">
        <ele>1545.05408</ele>
        <time>2021-07-02T09:45:05Z</time>
      </trkpt>
      <trkpt lat="42.540375" lon="1.823883">
        <ele>1545.01196</ele>
        <time>2021-07-02T09:45:06Z</time>
      </trkpt>
      <trkpt lat="42.540447" lon="1.823855">
        <ele>1545.01697</ele>
        <time>2021-07-02T09:45:07Z</time>
      </trkpt>
      <trkpt lat="42.540485" lon="1.823841">
        <ele>1544.86987</ele>
        <time>2021-07-02T09:45:08Z</time>
      </trkpt>
      <trkpt lat="42.540531" lon="1.823823">
        <ele>1544.90967</ele>
        <time>2021-07-02T09:45:09Z</time>
      </trkpt>
      <trkpt lat="42.540577" lon="1.823804">
        <ele>1545.15356</ele>
        <time>2021-07-02T09:45:10Z</time>
      </trkpt>
      <trkpt lat="42.540627" lon="1.823785">
        <ele>1545.40710</ele>
        <time>2021-07-02T09:45:11Z</time>
      </trkpt>
      <trkpt lat="42.540691" lon="1.823759">
        <ele>1546.56323</ele>
        <time>2021-07-02T09:45:12Z</time>
      </trkpt>
      <trkpt lat="42.540749" lon="1.823731">
        <ele>1546.60815</ele>
        <time>2021-07-02T09:45:13Z</time>
      </trkpt>
      <trkpt lat="42.540810" lon="1.823699">
        <ele>1546.65088</ele>
        <time>2021-07-02T09:45:14Z</time>
      </trkpt>
      <trkpt lat="42.540810" lon="1.823699">
        <ele>1546.65088</ele>
        <time>2021-07-02T09:45:15Z</time>
      </trkpt>
      <trkpt lat="42.540867" lon="1.823668">
        <ele>1546.65088</ele>
        <time>2021-07-02T09:45:16Z</time>
      </trkpt>
      <trkpt lat="42.540920" lon="1.823632">
        <ele>1546.65088</ele>
        <time>2021-07-02T09:45:17Z</time>
      </trkpt>
      <trkpt lat="42.540920" lon="1.823632">
        <ele>1546.65088</ele>
        <time>2021-07-02T09:45:18Z</time>
      </trkpt>
      <trkpt lat="42.540920" lon="1.823632">
        <ele>1546.65088</ele>
        <time>2021-07-02T09:45:19Z</time>
      </trkpt>
      <trkpt lat="42.540920" lon="1.823632">
        <ele>1546.65088</ele>
        <time>2021-07-02T09:45:20Z</time>
      </trkpt>
      <trkpt lat="42.540920" lon="1.823632">
        <ele>1546.65088</ele>
        <time>2021-07-02T09:45:21Z</time>
      </trkpt>
      <trkpt lat="42.540920" lon="1.823632">
        <ele>1546.65088</ele>
        <time>2021-07-02T09:45:22Z</time>
      </trkpt>
      <trkpt lat="42.540920" lon="1.823632">
        <ele>1546.65088</ele>
        <time>2021-07-02T09:45:23Z</time>
      </trkpt>
      <trkpt lat="42.540920" lon="1.823632">
        <ele>1546.65088</ele>
        <time>2021-07-02T09:45:24Z</time>
      </trkpt>
      <trkpt lat="42.540920" lon="1.823632">
        <ele>1546.65088</ele>
        <time>2021-07-02T09:45:25Z</time>
      </trkpt>
      <trkpt lat="42.540920" lon="1.823632">
        <ele>1546.65088</ele>
        <time>2021-07-02T09:45:26Z</time>
      </trkpt>
      <trkpt lat="42.540920" lon="1.823632">
        <ele>1546.65088</ele>
        <time>2021-07-02T09:45:27Z</time>
      </trkpt>
      <trkpt lat="42.540920" lon="1.823632">
        <ele>1546.65088</ele>
        <time>2021-07-02T09:45:28Z</time>
      </trkpt>
      <trkpt lat="42.540920" lon="1.823632">
        <ele>1546.65088</ele>
        <time>2021-07-02T09:45:29Z</time>
      </trkpt>
      <trkpt lat="42.540920" lon="1.823632">
        <ele>1546.65088</ele>
        <time>2021-07-02T09:45:30Z</time>
      </trkpt>
      <trkpt lat="42.540920" lon="1.823632">
        <ele>1546.65088</ele>
        <time>2021-07-02T09:45:31Z</time>
      </trkpt>
      <trkpt lat="42.540920" lon="1.823632">
        <ele>1546.65088</ele>
        <time>2021-07-02T09:45:32Z</time>
      </trkpt>
      <trkpt lat="42.540920" lon="1.823632">
        <ele>1546.65088</ele>
        <time>2021-07-02T09:45:33Z</time>
      </trkpt>
      <trkpt lat="42.540920" lon="1.823632">
        <ele>1546.65088</ele>
        <time>2021-07-02T09:45:34Z</time>
      </trkpt>
      <trkpt lat="42.540920" lon="1.823632">
        <ele>1546.65088</ele>
        <time>2021-07-02T09:45:35Z</time>
      </trkpt>
      <trkpt lat="42.540920" lon="1.823632">
        <ele>1546.65088</ele>
        <time>2021-07-02T09:45:36Z</time>
      </trkpt>
      <trkpt lat="42.541183" lon="1.823457">
        <ele>1546.65088</ele>
        <time>2021-07-02T09:45:37Z</time>
      </trkpt>
      <trkpt lat="42.541821" lon="1.822979">
        <ele>1546.65088</ele>
        <time>2021-07-02T09:45:38Z</time>
      </trkpt>
      <trkpt lat="42.541821" lon="1.822979">
        <ele>1546.65088</ele>
        <time>2021-07-02T09:45:39Z</time>
      </trkpt>
      <trkpt lat="42.541821" lon="1.822979">
        <ele>1546.65088</ele>
        <time>2021-07-02T09:45:40Z</time>
      </trkpt>
      <trkpt lat="42.541821" lon="1.822979">
        <ele>1546.65088</ele>
        <time>2021-07-02T09:45:41Z</time>
      </trkpt>
      <trkpt lat="42.541821" lon="1.822979">
        <ele>1546.65088</ele>
        <time>2021-07-02T09:45:42Z</time>
      </trkpt>
      <trkpt lat="42.541821" lon="1.822979">
        <ele>1546.65088</ele>
        <time>2021-07-02T09:45:43Z</time>
      </trkpt>
      <trkpt lat="42.541821" lon="1.822979">
        <ele>1546.65088</ele>
        <time>2021-07-02T09:45:44Z</time>
      </trkpt>
      <trkpt lat="42.541821" lon="1.822979">
        <ele>1546.65088</ele>
        <time>2021-07-02T09:45:45Z</time>
      </trkpt>
      <trkpt lat="42.541821" lon="1.822979">
        <ele>1546.65088</ele>
        <time>2021-07-02T09:45:46Z</time>
      </trkpt>
      <trkpt lat="42.541821" lon="1.822979">
        <ele>1546.65088</ele>
        <time>2021-07-02T09:45:47Z</time>
      </trkpt>
      <trkpt lat="42.541821" lon="1.822979">
        <ele>1546.65088</ele>
        <time>2021-07-02T09:45:48Z</time>
      </trkpt>
      <trkpt lat="42.541821" lon="1.822979">
        <ele>1546.65088</ele>
        <time>2021-07-02T09:45:49Z</time>
      </trkpt>
      <trkpt lat="42.541821" lon="1.822979">
        <ele>1546.65088</ele>
        <time>2021-07-02T09:45:50Z</time>
      </trkpt>
      <trkpt lat="42.541821" lon="1.822979">
        <ele>1546.65088</ele>
        <time>2021-07-02T09:45:51Z</time>
      </trkpt>
      <trkpt lat="42.541821" lon="1.822979">
        <ele>1546.65088</ele>
        <time>2021-07-02T09:45:52Z</time>
      </trkpt>
      <trkpt lat="42.541821" lon="1.822979">
        <ele>1546.65088</ele>
        <time>2021-07-02T09:45:53Z</time>
      </trkpt>
      <trkpt lat="42.541821" lon="1.822979">
        <ele>1546.65088</ele>
        <time>2021-07-02T09:45:54Z</time>
      </trkpt>
      <trkpt lat="42.541821" lon="1.822979">
        <ele>1546.65088</ele>
        <time>2021-07-02T09:45:55Z</time>
      </trkpt>
      <trkpt lat="42.541821" lon="1.822979">
        <ele>1546.65088</ele>
        <time>2021-07-02T09:45:56Z</time>
      </trkpt>
      <trkpt lat="42.541821" lon="1.822979">
        <ele>1546.65088</ele>
        <time>2021-07-02T09:45:57Z</time>
      </trkpt>
      <trkpt lat="42.541821" lon="1.822979">
        <ele>1546.65088</ele>
        <time>2021-07-02T09:45:58Z</time>
      </trkpt>
      <trkpt lat="42.541821" lon="1.822979">
        <ele>1546.65088</ele>
        <time>2021-07-02T09:45:59Z</time>
      </trkpt>
      <trkpt lat="42.541821" lon="1.822979">
        <ele>1546.65088</ele>
        <time>2021-07-02T09:46:00Z</time>
      </trkpt>
      <trkpt lat="42.541821" lon="1.822979">
        <ele>1546.65088</ele>
        <time>2021-07-02T09:46:01Z</time>
      </trkpt>
      <trkpt lat="42.541821" lon="1.822979">
        <ele>1546.65088</ele>
        <time>2021-07-02T09:46:02Z</time>
      </trkpt>
      <trkpt lat="42.541821" lon="1.822979">
        <ele>1546.65088</ele>
        <time>2021-07-02T09:46:03Z</time>
      </trkpt>
      <trkpt lat="42.541821" lon="1.822979">
        <ele>1546.65088</ele>
        <time>2021-07-02T09:46:04Z</time>
      </trkpt>
      <trkpt lat="42.541821" lon="1.822979">
        <ele>1546.65088</ele>
        <time>2021-07-02T09:46:05Z</time>
      </trkpt>
      <trkpt lat="42.541821" lon="1.822979">
        <ele>1546.65088</ele>
        <time>2021-07-02T09:46:06Z</time>
      </trkpt>
      <trkpt lat="42.541821" lon="1.822979">
        <ele>1546.65088</ele>
        <time>2021-07-02T09:46:07Z</time>
      </trkpt>
      <trkpt lat="42.541821" lon="1.822979">
        <ele>1546.65088</ele>
        <time>2021-07-02T09:46:08Z</time>
      </trkpt>
      <trkpt lat="42.541821" lon="1.822979">
        <ele>1546.65088</ele>
        <time>2021-07-02T09:46:09Z</time>
      </trkpt>
      <trkpt lat="42.541821" lon="1.822979">
        <ele>1546.65088</ele>
        <time>2021-07-02T09:46:10Z</time>
      </trkpt>
      <trkpt lat="42.541821" lon="1.822979">
        <ele>1546.65088</ele>
        <time>2021-07-02T09:46:11Z</time>
      </trkpt>
      <trkpt lat="42.541821" lon="1.822979">
        <ele>1546.65088</ele>
        <time>2021-07-02T09:46:12Z</time>
      </trkpt>
      <trkpt lat="42.541821" lon="1.822979">
        <ele>1546.65088</ele>
        <time>2021-07-02T09:46:13Z</time>
      </trkpt>
      <trkpt lat="42.541821" lon="1.822979">
        <ele>1546.65088</ele>
        <time>2021-07-02T09:46:14Z</time>
      </trkpt>
      <trkpt lat="42.541821" lon="1.822979">
        <ele>1546.65088</ele>
        <time>2021-07-02T09:46:15Z</time>
      </trkpt>
      <trkpt lat="42.541821" lon="1.822979">
        <ele>1546.65088</ele>
        <time>2021-07-02T09:46:16Z</time>
      </trkpt>
      <trkpt lat="42.541821" lon="1.822979">
        <ele>1546.65088</ele>
        <time>2021-07-02T09:46:17Z</time>
      </trkpt>
      <trkpt lat="42.541821" lon="1.822979">
        <ele>1546.65088</ele>
        <time>2021-07-02T09:46:18Z</time>
      </trkpt>
      <trkpt lat="42.541821" lon="1.822979">
        <ele>1546.65088</ele>
        <time>2021-07-02T09:46:19Z</time>
      </trkpt>
      <trkpt lat="42.541821" lon="1.822979">
        <ele>1546.65088</ele>
        <time>2021-07-02T09:46:20Z</time>
      </trkpt>
      <trkpt lat="42.541821" lon="1.822979">
        <ele>1546.65088</ele>
        <time>2021-07-02T09:46:21Z</time>
      </trkpt>
      <trkpt lat="42.541821" lon="1.822979">
        <ele>1546.65088</ele>
        <time>2021-07-02T09:46:22Z</time>
      </trkpt>
      <trkpt lat="42.541821" lon="1.822979">
        <ele>1546.65088</ele>
        <time>2021-07-02T09:46:23Z</time>
      </trkpt>
      <trkpt lat="42.541821" lon="1.822979">
        <ele>1546.65088</ele>
        <time>2021-07-02T09:46:24Z</time>
      </trkpt>
      <trkpt lat="42.541821" lon="1.822979">
        <ele>1546.65088</ele>
        <time>2021-07-02T09:46:25Z</time>
      </trkpt>
      <trkpt lat="42.541821" lon="1.822979">
        <ele>1546.65088</ele>
        <time>2021-07-02T09:46:26Z</time>
      </trkpt>
      <trkpt lat="42.541821" lon="1.822979">
        <ele>1546.65088</ele>
        <time>2021-07-02T09:46:27Z</time>
      </trkpt>
      <trkpt lat="42.541821" lon="1.822979">
        <ele>1546.65088</ele>
        <time>2021-07-02T09:46:28Z</time>
      </trkpt>
      <trkpt lat="42.541821" lon="1.822979">
        <ele>1546.65088</ele>
        <time>2021-07-02T09:46:29Z</time>
      </trkpt>
      <trkpt lat="42.541821" lon="1.822979">
        <ele>1546.65088</ele>
        <time>2021-07-02T09:46:30Z</time>
      </trkpt>
      <trkpt lat="42.541821" lon="1.822979">
        <ele>1546.65088</ele>
        <time>2021-07-02T09:46:31Z</time>
      </trkpt>
      <trkpt lat="42.541821" lon="1.822979">
        <ele>1546.65088</ele>
        <time>2021-07-02T09:46:32Z</time>
      </trkpt>
      <trkpt lat="42.541821" lon="1.822979">
        <ele>1546.65088</ele>
        <time>2021-07-02T09:46:33Z</time>
      </trkpt>
      <trkpt lat="42.541821" lon="1.822979">
        <ele>1546.65088</ele>
        <time>2021-07-02T09:46:34Z</time>
      </trkpt>
      <trkpt lat="42.541821" lon="1.822979">
        <ele>1546.65088</ele>
        <time>2021-07-02T09:46:35Z</time>
      </trkpt>
      <trkpt lat="42.541821" lon="1.822979">
        <ele>1546.65088</ele>
        <time>2021-07-02T09:46:36Z</time>
      </trkpt>
      <trkpt lat="42.541821" lon="1.822979">
        <ele>1546.65088</ele>
        <time>2021-07-02T09:46:37Z</time>
      </trkpt>
      <trkpt lat="42.541821" lon="1.822979">
        <ele>1546.65088</ele>
        <time>2021-07-02T09:46:38Z</time>
      </trkpt>
      <trkpt lat="42.541821" lon="1.822979">
        <ele>1546.65088</ele>
        <time>2021-07-02T09:46:39Z</time>
      </trkpt>
      <trkpt lat="42.541821" lon="1.822979">
        <ele>1546.07544</ele>
        <time>2021-07-02T09:46:40Z</time>
      </trkpt>
      <trkpt lat="42.541821" lon="1.822978">
        <ele>1546.07544</ele>
        <time>2021-07-02T09:46:41Z</time>
      </trkpt>
      <trkpt lat="42.553638" lon="1.812015">
        <ele>1545.33301</ele>
        <time>2021-07-02T09:46:42Z</time>
      </trkpt>
      <trkpt lat="42.557976" lon="1.809185">
        <ele>1545.33301</ele>
        <time>2021-07-02T09:46:43Z</time>
      </trkpt>
      <trkpt lat="42.557545" lon="1.808340">
        <ele>1544.91467</ele>
        <time>2021-07-02T09:46:44Z</time>
      </trkpt>
      <trkpt lat="42.557545" lon="1.808340">
        <ele>1544.91467</ele>
        <time>2021-07-02T09:46:45Z</time>
      </trkpt>
      <trkpt lat="42.565224" lon="1.801170">
        <ele>1544.91467</ele>
        <time>2021-07-02T09:46:46Z</time>
      </trkpt>
      <trkpt lat="42.565224" lon="1.801170">
        <ele>1544.91467</ele>
        <time>2021-07-02T09:46:47Z</time>
      </trkpt>
      <trkpt lat="42.565224" lon="1.801170">
        <ele>1544.91467</ele>
        <time>2021-07-02T09:46:48Z</time>
      </trkpt>
      <trkpt lat="42.565224" lon="1.801170">
        <ele>1544.91467</ele>
        <time>2021-07-02T09:46:49Z</time>
      </trkpt>
      <trkpt lat="42.565224" lon="1.801170">
        <ele>1544.91467</ele>
        <time>2021-07-02T09:46:50Z</time>
      </trkpt>
      <trkpt lat="42.565224" lon="1.801170">
        <ele>1544.91467</ele>
        <time>2021-07-02T09:46:51Z</time>
      </trkpt>
      <trkpt lat="42.565224" lon="1.801170">
        <ele>1544.91467</ele>
        <time>2021-07-02T09:46:52Z</time>
      </trkpt>
      <trkpt lat="42.565224" lon="1.801170">
        <ele>1544.91467</ele>
        <time>2021-07-02T09:46:53Z</time>
      </trkpt>
      <trkpt lat="42.565224" lon="1.801170">
        <ele>1544.91467</ele>
        <time>2021-07-02T09:46:54Z</time>
      </trkpt>
      <trkpt lat="42.565224" lon="1.801170">
        <ele>1544.91467</ele>
        <time>2021-07-02T09:46:55Z</time>
      </trkpt>
      <trkpt lat="42.565224" lon="1.801170">
        <ele>1544.91467</ele>
        <time>2021-07-02T09:46:56Z</time>
      </trkpt>
      <trkpt lat="42.565224" lon="1.801170">
        <ele>1544.91467</ele>
        <time>2021-07-02T09:46:57Z</time>
      </trkpt>
      <trkpt lat="42.565224" lon="1.801170">
        <ele>1544.91467</ele>
        <time>2021-07-02T09:46:58Z</time>
      </trkpt>
      <trkpt lat="42.565224" lon="1.801170">
        <ele>1544.91467</ele>
        <time>2021-07-02T09:46:59Z</time>
      </trkpt>
      <trkpt lat="42.567856" lon="1.798711">
        <ele>1544.91467</ele>
        <time>2021-07-02T09:47:00Z</time>
      </trkpt>
      <trkpt lat="42.567856" lon="1.798711">
        <ele>1544.91467</ele>
        <time>2021-07-02T09:47:01Z</time>
      </trkpt>
      <trkpt lat="42.567856" lon="1.798711">
        <ele>1544.91467</ele>
        <time>2021-07-02T09:47:02Z</time>
      </trkpt>
      <trkpt lat="42.567856" lon="1.798711">
        <ele>1544.91467</ele>
        <time>2021-07-02T09:47:03Z</time>
      </trkpt>
      <trkpt lat="42.567856" lon="1.798711">
        <ele>1544.91467</ele>
        <time>2021-07-02T09:47:04Z</time>
      </trkpt>
      <trkpt lat="42.567856" lon="1.798711">
        <ele>1544.91467</ele>
        <time>2021-07-02T09:47:05Z</time>
      </trkpt>
      <trkpt lat="42.567856" lon="1.798711">
        <ele>1544.91467</ele>
        <time>2021-07-02T09:47:06Z</time>
      </trkpt>
      <trkpt lat="42.567856" lon="1.798711">
        <ele>1544.91467</ele>
        <time>2021-07-02T09:47:07Z</time>
      </trkpt>
      <trkpt lat="42.567856" lon="1.798711">
        <ele>1544.91467</ele>
        <time>2021-07-02T09:47:08Z</time>
      </trkpt>
      <trkpt lat="42.567856" lon="1.798711">
        <ele>1544.91467</ele>
        <time>2021-07-02T09:47:09Z</time>
      </trkpt>
      <trkpt lat="42.567856" lon="1.798711">
        <ele>1544.91467</ele>
        <time>2021-07-02T09:47:10Z</time>
      </trkpt>
      <trkpt lat="42.567856" lon="1.798711">
        <ele>1544.91467</ele>
        <time>2021-07-02T09:47:11Z</time>
      </trkpt>
      <trkpt lat="42.567856" lon="1.798711">
        <ele>1544.91467</ele>
        <time>2021-07-02T09:47:12Z</time>
      </trkpt>
      <trkpt lat="42.567856" lon="1.798711">
        <ele>1544.91467</ele>
        <time>2021-07-02T09:47:13Z</time>
      </trkpt>
      <trkpt lat="42.567856" lon="1.798711">
        <ele>1546.68970</ele>
        <time>2021-07-02T09:47:14Z</time>
      </trkpt>
      <trkpt lat="42.567856" lon="1.798711">
        <ele>1547.93347</ele>
        <time>2021-07-02T09:47:15Z</time>
      </trkpt>
      <trkpt lat="42.567856" lon="1.798711">
        <ele>1547.93347</ele>
        <time>2021-07-02T09:47:16Z</time>
      </trkpt>
      <trkpt lat="42.571644" lon="1.795155">
        <ele>1547.93347</ele>
        <time>2021-07-02T09:47:17Z</time>
      </trkpt>
      <trkpt lat="42.571644" lon="1.795155">
        <ele>1547.93347</ele>
        <time>2021-07-02T09:47:18Z</time>
      </trkpt>
      <trkpt lat="42.571644" lon="1.795155">
        <ele>1547.93347</ele>
        <time>2021-07-02T09:47:19Z</time>
      </trkpt>
      <trkpt lat="42.571644" lon="1.795155">
        <ele>1547.93347</ele>
        <time>2021-07-02T09:47:20Z</time>
      </trkpt>
      <trkpt lat="42.571644" lon="1.795155">
        <ele>1547.93347</ele>
        <time>2021-07-02T09:47:21Z</time>
      </trkpt>
      <trkpt lat="42.571644" lon="1.795155">
        <ele>1547.93347</ele>
        <time>2021-07-02T09:47:22Z</time>
      </trkpt>
      <trkpt lat="42.571644" lon="1.795155">
        <ele>1547.93347</ele>
        <time>2021-07-02T09:47:23Z</time>
      </trkpt>
      <trkpt lat="42.571644" lon="1.795155">
        <ele>1553.55005</ele>
        <time>2021-07-02T09:47:24Z</time>
      </trkpt>
      <trkpt lat="42.571644" lon="1.795154">
        <ele>1554.54614</ele>
        <time>2021-07-02T09:47:25Z</time>
      </trkpt>
      <trkpt lat="42.571648" lon="1.795151">
        <ele>1554.54614</ele>
        <time>2021-07-02T09:47:26Z</time>
      </trkpt>
      <trkpt lat="42.572018" lon="1.794803">
        <ele>1554.54614</ele>
        <time>2021-07-02T09:47:27Z</time>
      </trkpt>
      <trkpt lat="42.572304" lon="1.794533">
        <ele>1554.54614</ele>
        <time>2021-07-02T09:47:28Z</time>
      </trkpt>
      <trkpt lat="42.572304" lon="1.794533">
        <ele>1554.54614</ele>
        <time>2021-07-02T09:47:29Z</time>
      </trkpt>
      <trkpt lat="42.572304" lon="1.794533">
        <ele>1554.54614</ele>
        <time>2021-07-02T09:47:30Z</time>
      </trkpt>
      <trkpt lat="42.572304" lon="1.794533">
        <ele>1554.54614</ele>
        <time>2021-07-02T09:47:31Z</time>
      </trkpt>
      <trkpt lat="42.572304" lon="1.794533">
        <ele>1554.54614</ele>
        <time>2021-07-02T09:47:32Z</time>
      </trkpt>
      <trkpt lat="42.572308" lon="1.794529">
        <ele>1553.46985</ele>
        <time>2021-07-02T09:47:33Z</time>
      </trkpt>
      <trkpt lat="42.572311" lon="1.794527">
        <ele>1553.46985</ele>
        <time>2021-07-02T09:47:34Z</time>
      </trkpt>
      <trkpt lat="42.572643" lon="1.794214">
        <ele>1552.74316</ele>
        <time>2021-07-02T09:47:35Z</time>
      </trkpt>
      <trkpt lat="42.572735" lon="1.794126">
        <ele>1552.74316</ele>
        <time>2021-07-02T09:47:36Z</time>
      </trkpt>
      <trkpt lat="42.572739" lon="1.794123">
        <ele>1552.74316</ele>
        <time>2021-07-02T09:47:37Z</time>
      </trkpt>
      <trkpt lat="42.572739" lon="1.794123">
        <ele>1552.74316</ele>
        <time>2021-07-02T09:47:38Z</time>
      </trkpt>
      <trkpt lat="42.572834" lon="1.794033">
        <ele>1552.74316</ele>
        <time>2021-07-02T09:47:39Z</time>
      </trkpt>
      <trkpt lat="42.572853" lon="1.794017">
        <ele>1552.74316</ele>
        <time>2021-07-02T09:47:40Z</time>
      </trkpt>
      <trkpt lat="42.572853" lon="1.794017">
        <ele>1552.74316</ele>
        <time>2021-07-02T09:47:41Z</time>
      </trkpt>
      <trkpt lat="42.572853" lon="1.794017">
        <ele>1552.74316</ele>
        <time>2021-07-02T09:47:42Z</time>
      </trkpt>
      <trkpt lat="42.572853" lon="1.794017">
        <ele>1552.74316</ele>
        <time>2021-07-02T09:47:43Z</time>
      </trkpt>
      <trkpt lat="42.572853" lon="1.794017">
        <ele>1552.74316</ele>
        <time>2021-07-02T09:47:44Z</time>
      </trkpt>
      <trkpt lat="42.572853" lon="1.794017">
        <ele>1552.74316</ele>
        <time>2021-07-02T09:47:45Z</time>
      </trkpt>
      <trkpt lat="42.572876" lon="1.793995">
        <ele>1552.74316</ele>
        <time>2021-07-02T09:47:46Z</time>
      </trkpt>
      <trkpt lat="42.573227" lon="1.793664">
        <ele>1550.63953</ele>
        <time>2021-07-02T09:47:47Z</time>
      </trkpt>
      <trkpt lat="42.573250" lon="1.793644">
        <ele>1550.63953</ele>
        <time>2021-07-02T09:47:48Z</time>
      </trkpt>
      <trkpt lat="42.573269" lon="1.793625">
        <ele>1550.63953</ele>
        <time>2021-07-02T09:47:49Z</time>
      </trkpt>
      <trkpt lat="42.573448" lon="1.793464">
        <ele>1550.63953</ele>
        <time>2021-07-02T09:47:50Z</time>
      </trkpt>
      <trkpt lat="42.573456" lon="1.793459">
        <ele>1550.63953</ele>
        <time>2021-07-02T09:47:51Z</time>
      </trkpt>
      <trkpt lat="42.573456" lon="1.793459">
        <ele>1550.63953</ele>
        <time>2021-07-02T09:47:52Z</time>
      </trkpt>
      <trkpt lat="42.573456" lon="1.793459">
        <ele>1550.63953</ele>
        <time>2021-07-02T09:47:53Z</time>
      </trkpt>
      <trkpt lat="42.573456" lon="1.793459">
        <ele>1550.63953</ele>
        <time>2021-07-02T09:47:54Z</time>
      </trkpt>
      <trkpt lat="42.573456" lon="1.793459">
        <ele>1550.63953</ele>
        <time>2021-07-02T09:47:55Z</time>
      </trkpt>
      <trkpt lat="42.573456" lon="1.793459">
        <ele>1550.63953</ele>
        <time>2021-07-02T09:47:56Z</time>
      </trkpt>
      <trkpt lat="42.573456" lon="1.793459">
        <ele>1550.63953</ele>
        <time>2021-07-02T09:47:57Z</time>
      </trkpt>
      <trkpt lat="42.573456" lon="1.793459">
        <ele>1550.63953</ele>
        <time>2021-07-02T09:47:58Z</time>
      </trkpt>
      <trkpt lat="42.573456" lon="1.793459">
        <ele>1550.63953</ele>
        <time>2021-07-02T09:47:59Z</time>
      </trkpt>
      <trkpt lat="42.573456" lon="1.793459">
        <ele>1550.63953</ele>
        <time>2021-07-02T09:48:00Z</time>
      </trkpt>
      <trkpt lat="42.573456" lon="1.793459">
        <ele>1550.63953</ele>
        <time>2021-07-02T09:48:01Z</time>
      </trkpt>
      <trkpt lat="42.573456" lon="1.793459">
        <ele>1550.63953</ele>
        <time>2021-07-02T09:48:02Z</time>
      </trkpt>
      <trkpt lat="42.573456" lon="1.793459">
        <ele>1550.63953</ele>
        <time>2021-07-02T09:48:03Z</time>
      </trkpt>
      <trkpt lat="42.573456" lon="1.793459">
        <ele>1550.63953</ele>
        <time>2021-07-02T09:48:04Z</time>
      </trkpt>
      <trkpt lat="42.573456" lon="1.793459">
        <ele>1550.63953</ele>
        <time>2021-07-02T09:48:05Z</time>
      </trkpt>
      <trkpt lat="42.573456" lon="1.793459">
        <ele>1550.63953</ele>
        <time>2021-07-02T09:48:06Z</time>
      </trkpt>
      <trkpt lat="42.573456" lon="1.793459">
        <ele>1550.63953</ele>
        <time>2021-07-02T09:48:07Z</time>
      </trkpt>
      <trkpt lat="42.573456" lon="1.793459">
        <ele>1550.63953</ele>
        <time>2021-07-02T09:48:08Z</time>
      </trkpt>
      <trkpt lat="42.573456" lon="1.793459">
        <ele>1550.63953</ele>
        <time>2021-07-02T09:48:09Z</time>
      </trkpt>
      <trkpt lat="42.573456" lon="1.793459">
        <ele>1550.63953</ele>
        <time>2021-07-02T09:48:10Z</time>
      </trkpt>
      <trkpt lat="42.573456" lon="1.793459">
        <ele>1550.63953</ele>
        <time>2021-07-02T09:48:11Z</time>
      </trkpt>
      <trkpt lat="42.573456" lon="1.793459">
        <ele>1550.63953</ele>
        <time>2021-07-02T09:48:12Z</time>
      </trkpt>
      <trkpt lat="42.573456" lon="1.793459">
        <ele>1550.63953</ele>
        <time>2021-07-02T09:48:13Z</time>
      </trkpt>
      <trkpt lat="42.573456" lon="1.793459">
        <ele>1550.63953</ele>
        <time>2021-07-02T09:48:14Z</time>
      </trkpt>
      <trkpt lat="42.573456" lon="1.793459">
        <ele>1550.63953</ele>
        <time>2021-07-02T09:48:15Z</time>
      </trkpt>
      <trkpt lat="42.573456" lon="1.793459">
        <ele>1537.36951</ele>
        <time>2021-07-02T09:48:16Z</time>
      </trkpt>
      <trkpt lat="42.573456" lon="1.793459">
        <ele>1537.36951</ele>
        <time>2021-07-02T09:48:17Z</time>
      </trkpt>
      <trkpt lat="42.573456" lon="1.793458">
        <ele>1537.36951</ele>
        <time>2021-07-02T09:48:18Z</time>
      </trkpt>
      <trkpt lat="42.574203" lon="1.792941">
        <ele>1538.03064</ele>
        <time>2021-07-02T09:48:19Z</time>
      </trkpt>
      <trkpt lat="42.574810" lon="1.792648">
        <ele>1538.03064</ele>
        <time>2021-07-02T09:48:20Z</time>
      </trkpt>
      <trkpt lat="42.574860" lon="1.792626">
        <ele>1538.03064</ele>
        <time>2021-07-02T09:48:21Z</time>
      </trkpt>
      <trkpt lat="42.574894" lon="1.792611">
        <ele>1538.03064</ele>
        <time>2021-07-02T09:48:22Z</time>
      </trkpt>
      <trkpt lat="42.574894" lon="1.792611">
        <ele>1538.03064</ele>
        <time>2021-07-02T09:48:23Z</time>
      </trkpt>
      <trkpt lat="42.574894" lon="1.792611">
        <ele>1538.03064</ele>
        <time>2021-07-02T09:48:24Z</time>
      </trkpt>
      <trkpt lat="42.574894" lon="1.792611">
        <ele>1538.03064</ele>
        <time>2021-07-02T09:48:25Z</time>
      </trkpt>
      <trkpt lat="42.574894" lon="1.792611">
        <ele>1538.03064</ele>
        <time>2021-07-02T09:48:26Z</time>
      </trkpt>
      <trkpt lat="42.574894" lon="1.792611">
        <ele>1538.03064</ele>
        <time>2021-07-02T09:48:27Z</time>
      </trkpt>
      <trkpt lat="42.574894" lon="1.792611">
        <ele>1538.03064</ele>
        <time>2021-07-02T09:48:28Z</time>
      </trkpt>
      <trkpt lat="42.574894" lon="1.792611">
        <ele>1538.03064</ele>
        <time>2021-07-02T09:48:29Z</time>
      </trkpt>
      <trkpt lat="42.574894" lon="1.792611">
        <ele>1538.03064</ele>
        <time>2021-07-02T09:48:30Z</time>
      </trkpt>
      <trkpt lat="42.574894" lon="1.792611">
        <ele>1538.03064</ele>
        <time>2021-07-02T09:48:31Z</time>
      </trkpt>
      <trkpt lat="42.574894" lon="1.792611">
        <ele>1538.03064</ele>
        <time>2021-07-02T09:48:32Z</time>
      </trkpt>
      <trkpt lat="42.574894" lon="1.792611">
        <ele>1538.03064</ele>
        <time>2021-07-02T09:48:33Z</time>
      </trkpt>
      <trkpt lat="42.574894" lon="1.792611">
        <ele>1538.03064</ele>
        <time>2021-07-02T09:48:34Z</time>
      </trkpt>
      <trkpt lat="42.574894" lon="1.792611">
        <ele>1538.03064</ele>
        <time>2021-07-02T09:48:35Z</time>
      </trkpt>
      <trkpt lat="42.574894" lon="1.792611">
        <ele>1538.03064</ele>
        <time>2021-07-02T09:48:36Z</time>
      </trkpt>
      <trkpt lat="42.574894" lon="1.792611">
        <ele>1538.03064</ele>
        <time>2021-07-02T09:48:37Z</time>
      </trkpt>
      <trkpt lat="42.574894" lon="1.792611">
        <ele>1538.03064</ele>
        <time>2021-07-02T09:48:38Z</time>
      </trkpt>
      <trkpt lat="42.574894" lon="1.792611">
        <ele>1538.03064</ele>
        <time>2021-07-02T09:48:39Z</time>
      </trkpt>
      <trkpt lat="42.574894" lon="1.792611">
        <ele>1538.03064</ele>
        <time>2021-07-02T09:48:40Z</time>
      </trkpt>
      <trkpt lat="42.574894" lon="1.792611">
        <ele>1538.03064</ele>
        <time>2021-07-02T09:48:41Z</time>
      </trkpt>
      <trkpt lat="42.574894" lon="1.792611">
        <ele>1538.03064</ele>
        <time>2021-07-02T09:48:42Z</time>
      </trkpt>
      <trkpt lat="42.574894" lon="1.792611">
        <ele>1538.03064</ele>
        <time>2021-07-02T09:48:43Z</time>
      </trkpt>
      <trkpt lat="42.574894" lon="1.792611">
        <ele>1538.03064</ele>
        <time>2021-07-02T09:48:44Z</time>
      </trkpt>
      <trkpt lat="42.574894" lon="1.792611">
        <ele>1538.03064</ele>
        <time>2021-07-02T09:48:45Z</time>
      </trkpt>
      <trkpt lat="42.574894" lon="1.792611">
        <ele>1538.03064</ele>
        <time>2021-07-02T09:48:46Z</time>
      </trkpt>
      <trkpt lat="42.574894" lon="1.792611">
        <ele>1538.03064</ele>
        <time>2021-07-02T09:48:47Z</time>
      </trkpt>
      <trkpt lat="42.574894" lon="1.792611">
        <ele>1538.03064</ele>
        <time>2021-07-02T09:48:48Z</time>
      </trkpt>
      <trkpt lat="42.574894" lon="1.792611">
        <ele>1538.03064</ele>
        <time>2021-07-02T09:48:49Z</time>
      </trkpt>
      <trkpt lat="42.574894" lon="1.792611">
        <ele>1538.03064</ele>
        <time>2021-07-02T09:48:50Z</time>
      </trkpt>
      <trkpt lat="42.574894" lon="1.792611">
        <ele>1538.03064</ele>
        <time>2021-07-02T09:48:51Z</time>
      </trkpt>
      <trkpt lat="42.574894" lon="1.792611">
        <ele>1538.03064</ele>
        <time>2021-07-02T09:48:52Z</time>
      </trkpt>
      <trkpt lat="42.574894" lon="1.792611">
        <ele>1538.03064</ele>
        <time>2021-07-02T09:48:53Z</time>
      </trkpt>
      <trkpt lat="42.574894" lon="1.792611">
        <ele>1538.03064</ele>
        <time>2021-07-02T09:48:54Z</time>
      </trkpt>
      <trkpt lat="42.574894" lon="1.792611">
        <ele>1538.03064</ele>
        <time>2021-07-02T09:48:55Z</time>
      </trkpt>
      <trkpt lat="42.574894" lon="1.792611">
        <ele>1538.03064</ele>
        <time>2021-07-02T09:48:56Z</time>
      </trkpt>
      <trkpt lat="42.574894" lon="1.792611">
        <ele>1538.03064</ele>
        <time>2021-07-02T09:48:57Z</time>
      </trkpt>
      <trkpt lat="42.574894" lon="1.792611">
        <ele>1538.03064</ele>
        <time>2021-07-02T09:48:58Z</time>
      </trkpt>
      <trkpt lat="42.574894" lon="1.792611">
        <ele>1538.03064</ele>
        <time>2021-07-02T09:48:59Z</time>
      </trkpt>
      <trkpt lat="42.574894" lon="1.792611">
        <ele>1538.03064</ele>
        <time>2021-07-02T09:49:00Z</time>
      </trkpt>
      <trkpt lat="42.574894" lon="1.792611">
        <ele>1538.03064</ele>
        <time>2021-07-02T09:49:01Z</time>
      </trkpt>
      <trkpt lat="42.574894" lon="1.792611">
        <ele>1538.03064</ele>
        <time>2021-07-02T09:49:02Z</time>
      </trkpt>
      <trkpt lat="42.574894" lon="1.792611">
        <ele>1538.03064</ele>
        <time>2021-07-02T09:49:03Z</time>
      </trkpt>
      <trkpt lat="42.574894" lon="1.792611">
        <ele>1538.03064</ele>
        <time>2021-07-02T09:49:04Z</time>
      </trkpt>
      <trkpt lat="42.574894" lon="1.792611">
        <ele>1538.03064</ele>
        <time>2021-07-02T09:49:05Z</time>
      </trkpt>
      <trkpt lat="42.574894" lon="1.792611">
        <ele>1538.03064</ele>
        <time>2021-07-02T09:49:06Z</time>
      </trkpt>
      <trkpt lat="42.574894" lon="1.792611">
        <ele>1538.03064</ele>
        <time>2021-07-02T09:49:07Z</time>
      </trkpt>
      <trkpt lat="42.574894" lon="1.792611">
        <ele>1537.39258</ele>
        <time>2021-07-02T09:49:08Z</time>
      </trkpt>
      <trkpt lat="42.574894" lon="1.792611">
        <ele>1537.39258</ele>
        <time>2021-07-02T09:49:09Z</time>
      </trkpt>
      <trkpt lat="42.579163" lon="1.794003">
        <ele>1537.39258</ele>
        <time>2021-07-02T09:49:10Z</time>
      </trkpt>
      <trkpt lat="42.579163" lon="1.794003">
        <ele>1527.70764</ele>
        <time>2021-07-02T09:49:11Z</time>
      </trkpt>
      <trkpt lat="42.579163" lon="1.794003">
        <ele>1527.70764</ele>
        <time>2021-07-02T09:49:12Z</time>
      </trkpt>
      <trkpt lat="42.578793" lon="1.793593">
        <ele>1527.70764</ele>
        <time>2021-07-02T09:49:13Z</time>
      </trkpt>
      <trkpt lat="42.578793" lon="1.793593">
        <ele>1527.70764</ele>
        <time>2021-07-02T09:49:14Z</time>
      </trkpt>
      <trkpt lat="42.578793" lon="1.793593">
        <ele>1527.70764</ele>
        <time>2021-07-02T09:49:15Z</time>
      </trkpt>
      <trkpt lat="42.578793" lon="1.793593">
        <ele>1527.70764</ele>
        <time>2021-07-02T09:49:16Z</time>
      </trkpt>
      <trkpt lat="42.578793" lon="1.793593">
        <ele>1527.70764</ele>
        <time>2021-07-02T09:49:17Z</time>
      </trkpt>
      <trkpt lat="42.578793" lon="1.793593">
        <ele>1527.70764</ele>
        <time>2021-07-02T09:49:18Z</time>
      </trkpt>
      <trkpt lat="42.578793" lon="1.793593">
        <ele>1527.70764</ele>
        <time>2021-07-02T09:49:19Z</time>
      </trkpt>
      <trkpt lat="42.578793" lon="1.793593">
        <ele>1527.70764</ele>
        <time>2021-07-02T09:49:20Z</time>
      </trkpt>
      <trkpt lat="42.578793" lon="1.793593">
        <ele>1527.70764</ele>
        <time>2021-07-02T09:49:21Z</time>
      </trkpt>
      <trkpt lat="42.578793" lon="1.793593">
        <ele>1527.70764</ele>
        <time>2021-07-02T09:49:22Z</time>
      </trkpt>
      <trkpt lat="42.578793" lon="1.793593">
        <ele>1527.70764</ele>
        <time>2021-07-02T09:49:23Z</time>
      </trkpt>
      <trkpt lat="42.578793" lon="1.793593">
        <ele>1527.70764</ele>
        <time>2021-07-02T09:49:24Z</time>
      </trkpt>
      <trkpt lat="42.578793" lon="1.793593">
        <ele>1527.70764</ele>
        <time>2021-07-02T09:49:25Z</time>
      </trkpt>
      <trkpt lat="42.578793" lon="1.793594">
        <ele>1516.43848</ele>
        <time>2021-07-02T09:49:26Z</time>
      </trkpt>
      <trkpt lat="42.578793" lon="1.793594">
        <ele>1516.43848</ele>
        <time>2021-07-02T09:49:27Z</time>
      </trkpt>
      <trkpt lat="42.578793" lon="1.793594">
        <ele>1516.43848</ele>
        <time>2021-07-02T09:49:28Z</time>
      </trkpt>
      <trkpt lat="42.578793" lon="1.793594">
        <ele>1516.43848</ele>
        <time>2021-07-02T09:49:29Z</time>
      </trkpt>
      <trkpt lat="42.578793" lon="1.793594">
        <ele>1516.43848</ele>
        <time>2021-07-02T09:49:30Z</time>
      </trkpt>
      <trkpt lat="42.578793" lon="1.793594">
        <ele>1516.43848</ele>
        <time>2021-07-02T09:49:31Z</time>
      </trkpt>
      <trkpt lat="42.578793" lon="1.793594">
        <ele>1516.43848</ele>
        <time>2021-07-02T09:49:32Z</time>
      </trkpt>
      <trkpt lat="42.578793" lon="1.793594">
        <ele>1516.43848</ele>
        <time>2021-07-02T09:49:33Z</time>
      </trkpt>
      <trkpt lat="42.578793" lon="1.793594">
        <ele>1516.43848</ele>
        <time>2021-07-02T09:49:34Z</time>
      </trkpt>
      <trkpt lat="42.578793" lon="1.793594">
        <ele>1516.43848</ele>
        <time>2021-07-02T09:49:35Z</time>
      </trkpt>
      <trkpt lat="42.578793" lon="1.793594">
        <ele>1516.43848</ele>
        <time>2021-07-02T09:49:36Z</time>
      </trkpt>
      <trkpt lat="42.578793" lon="1.793594">
        <ele>1516.43848</ele>
        <time>2021-07-02T09:49:37Z</time>
      </trkpt>
      <trkpt lat="42.578793" lon="1.793594">
        <ele>1516.43848</ele>
        <time>2021-07-02T09:49:38Z</time>
      </trkpt>
      <trkpt lat="42.578793" lon="1.793594">
        <ele>1516.43848</ele>
        <time>2021-07-02T09:49:39Z</time>
      </trkpt>
      <trkpt lat="42.578793" lon="1.793594">
        <ele>1516.43848</ele>
        <time>2021-07-02T09:49:40Z</time>
      </trkpt>
      <trkpt lat="42.578793" lon="1.793594">
        <ele>1516.43848</ele>
        <time>2021-07-02T09:49:41Z</time>
      </trkpt>
      <trkpt lat="42.578793" lon="1.793594">
        <ele>1516.43848</ele>
        <time>2021-07-02T09:49:42Z</time>
      </trkpt>
      <trkpt lat="42.578793" lon="1.793594">
        <ele>1516.43848</ele>
        <time>2021-07-02T09:49:43Z</time>
      </trkpt>
      <trkpt lat="42.578793" lon="1.793594">
        <ele>1516.43848</ele>
        <time>2021-07-02T09:49:44Z</time>
      </trkpt>
      <trkpt lat="42.578793" lon="1.793594">
        <ele>1516.43848</ele>
        <time>2021-07-02T09:49:45Z</time>
      </trkpt>
      <trkpt lat="42.578793" lon="1.793594">
        <ele>1516.43848</ele>
        <time>2021-07-02T09:49:46Z</time>
      </trkpt>
      <trkpt lat="42.578793" lon="1.793594">
        <ele>1503.87952</ele>
        <time>2021-07-02T09:49:47Z</time>
      </trkpt>
      <trkpt lat="42.578793" lon="1.793594">
        <ele>1503.87952</ele>
        <time>2021-07-02T09:49:48Z</time>
      </trkpt>
      <trkpt lat="42.578945" lon="1.793767">
        <ele>1503.87952</ele>
        <time>2021-07-02T09:49:49Z</time>
      </trkpt>
      <trkpt lat="42.579140" lon="1.793982">
        <ele>1504.87500</ele>
        <time>2021-07-02T09:49:50Z</time>
      </trkpt>
      <trkpt lat="42.579140" lon="1.793982">
        <ele>1509.31445</ele>
        <time>2021-07-02T09:49:51Z</time>
      </trkpt>
      <trkpt lat="42.579140" lon="1.793982">
        <ele>1511.86230</ele>
        <time>2021-07-02T09:49:52Z</time>
      </trkpt>
      <trkpt lat="42.578117" lon="1.792814">
        <ele>1514.75586</ele>
        <time>2021-07-02T09:49:53Z</time>
      </trkpt>
      <trkpt lat="42.578213" lon="1.792890">
        <ele>1508.83508</ele>
        <time>2021-07-02T09:49:54Z</time>
      </trkpt>
      <trkpt lat="42.578320" lon="1.793003">
        <ele>1508.82349</ele>
        <time>2021-07-02T09:49:55Z</time>
      </trkpt>
      <trkpt lat="42.578403" lon="1.793095">
        <ele>1509.71326</ele>
        <time>2021-07-02T09:49:56Z</time>
      </trkpt>
      <trkpt lat="42.578514" lon="1.793215">
        <ele>1509.48157</ele>
        <time>2021-07-02T09:49:57Z</time>
      </trkpt>
      <trkpt lat="42.578594" lon="1.793377">
        <ele>1508.87915</ele>
        <time>2021-07-02T09:49:58Z</time>
      </trkpt>
      <trkpt lat="42.578716" lon="1.793510">
        <ele>1508.57129</ele>
        <time>2021-07-02T09:49:59Z</time>
      </trkpt>
      <trkpt lat="42.578835" lon="1.793641">
        <ele>1508.26416</ele>
        <time>2021-07-02T09:50:00Z</time>
      </trkpt>
      <trkpt lat="42.578934" lon="1.793754">
        <ele>1507.94678</ele>
        <time>2021-07-02T09:50:01Z</time>
      </trkpt>
      <trkpt lat="42.579044" lon="1.793880">
        <ele>1507.37256</ele>
        <time>2021-07-02T09:50:02Z</time>
      </trkpt>
      <trkpt lat="42.579170" lon="1.794010">
        <ele>1506.82776</ele>
        <time>2021-07-02T09:50:03Z</time>
      </trkpt>
      <trkpt lat="42.579281" lon="1.794086">
        <ele>1506.12402</ele>
        <time>2021-07-02T09:50:04Z</time>
      </trkpt>
      <trkpt lat="42.579391" lon="1.794149">
        <ele>1515.19458</ele>
        <time>2021-07-02T09:50:05Z</time>
      </trkpt>
      <trkpt lat="42.579502" lon="1.794214">
        <ele>1515.68604</ele>
        <time>2021-07-02T09:50:06Z</time>
      </trkpt>
      <trkpt lat="42.579582" lon="1.794260">
        <ele>1515.82812</ele>
        <time>2021-07-02T09:50:07Z</time>
      </trkpt>
      <trkpt lat="42.579620" lon="1.794279">
        <ele>1515.54248</ele>
        <time>2021-07-02T09:50:08Z</time>
      </trkpt>
      <trkpt lat="42.579647" lon="1.794292">
        <ele>1514.50513</ele>
        <time>2021-07-02T09:50:09Z</time>
      </trkpt>
      <trkpt lat="42.579708" lon="1.794319">
        <ele>1513.31543</ele>
        <time>2021-07-02T09:50:10Z</time>
      </trkpt>
      <trkpt lat="42.579708" lon="1.794319">
        <ele>1500.48059</ele>
        <time>2021-07-02T09:50:11Z</time>
      </trkpt>
      <trkpt lat="42.579769" lon="1.794110">
        <ele>1500.47229</ele>
        <time>2021-07-02T09:50:12Z</time>
      </trkpt>
      <trkpt lat="42.579796" lon="1.794014">
        <ele>1500.76233</ele>
        <time>2021-07-02T09:50:13Z</time>
      </trkpt>
      <trkpt lat="42.579796" lon="1.794014">
        <ele>1508.01221</ele>
        <time>2021-07-02T09:50:14Z</time>
      </trkpt>
      <trkpt lat="42.579800" lon="1.793925">
        <ele>1508.64355</ele>
        <time>2021-07-02T09:50:15Z</time>
      </trkpt>
      <trkpt lat="42.579784" lon="1.793841">
        <ele>1509.56543</ele>
        <time>2021-07-02T09:50:16Z</time>
      </trkpt>
      <trkpt lat="42.579723" lon="1.793735">
        <ele>1509.98584</ele>
        <time>2021-07-02T09:50:17Z</time>
      </trkpt>
      <trkpt lat="42.579659" lon="1.793658">
        <ele>1510.04468</ele>
        <time>2021-07-02T09:50:18Z</time>
      </trkpt>
      <trkpt lat="42.579582" lon="1.793579">
        <ele>1510.26465</ele>
        <time>2021-07-02T09:50:19Z</time>
      </trkpt>
      <trkpt lat="42.579510" lon="1.793531">
        <ele>1510.53003</ele>
        <time>2021-07-02T09:50:20Z</time>
      </trkpt>
      <trkpt lat="42.579411" lon="1.793429">
        <ele>1511.74243</ele>
        <time>2021-07-02T09:50:21Z</time>
      </trkpt>
      <trkpt lat="42.579323" lon="1.793338">
        <ele>1512.99414</ele>
        <time>2021-07-02T09:50:22Z</time>
      </trkpt>
      <trkpt lat="42.579220" lon="1.793233">
        <ele>1514.48242</ele>
        <time>2021-07-02T09:50:23Z</time>
      </trkpt>
      <trkpt lat="42.579117" lon="1.793127">
        <ele>1514.77368</ele>
        <time>2021-07-02T09:50:24Z</time>
      </trkpt>
      <trkpt lat="42.578987" lon="1.792997">
        <ele>1515.75000</ele>
        <time>2021-07-02T09:50:25Z</time>
      </trkpt>
      <trkpt lat="42.578884" lon="1.792876">
        <ele>1516.12744</ele>
        <time>2021-07-02T09:50:26Z</time>
      </trkpt>
      <trkpt lat="42.578773" lon="1.792771">
        <ele>1514.27148</ele>
        <time>2021-07-02T09:50:27Z</time>
      </trkpt>
      <trkpt lat="42.578644" lon="1.792690">
        <ele>1514.59229</ele>
        <time>2021-07-02T09:50:28Z</time>
      </trkpt>
      <trkpt lat="42.578522" lon="1.792580">
        <ele>1515.77539</ele>
        <time>2021-07-02T09:50:29Z</time>
      </trkpt>
      <trkpt lat="42.578403" lon="1.792465">
        <ele>1516.65747</ele>
        <time>2021-07-02T09:50:30Z</time>
      </trkpt>
      <trkpt lat="42.578285" lon="1.792327">
        <ele>1516.87451</ele>
        <time>2021-07-02T09:50:31Z</time>
      </trkpt>
      <trkpt lat="42.578159" lon="1.792170">
        <ele>1517.44189</ele>
        <time>2021-07-02T09:50:32Z</time>
      </trkpt>
      <trkpt lat="42.578033" lon="1.791998">
        <ele>1517.78516</ele>
        <time>2021-07-02T09:50:33Z</time>
      </trkpt>
      <trkpt lat="42.577915" lon="1.791817">
        <ele>1517.86133</ele>
        <time>2021-07-02T09:50:34Z</time>
      </trkpt>
      <trkpt lat="42.577801" lon="1.791633">
        <ele>1519.51465</ele>
        <time>2021-07-02T09:50:35Z</time>
      </trkpt>
      <trkpt lat="42.577698" lon="1.791443">
        <ele>1521.14966</ele>
        <time>2021-07-02T09:50:36Z</time>
      </trkpt>
      <trkpt lat="42.577602" lon="1.791225">
        <ele>1522.07129</ele>
        <time>2021-07-02T09:50:37Z</time>
      </trkpt>
      <trkpt lat="42.577503" lon="1.790995">
        <ele>1523.50049</ele>
        <time>2021-07-02T09:50:38Z</time>
      </trkpt>
      <trkpt lat="42.577404" lon="1.790775">
        <ele>1525.72168</ele>
        <time>2021-07-02T09:50:39Z</time>
      </trkpt>
      <trkpt lat="42.577309" lon="1.790559">
        <ele>1527.73730</ele>
        <time>2021-07-02T09:50:40Z</time>
      </trkpt>
      <trkpt lat="42.577213" lon="1.790346">
        <ele>1529.21143</ele>
        <time>2021-07-02T09:50:41Z</time>
      </trkpt>
      <trkpt lat="42.577122" lon="1.790140">
        <ele>1531.10474</ele>
        <time>2021-07-02T09:50:42Z</time>
      </trkpt>
      <trkpt lat="42.577011" lon="1.789927">
        <ele>1531.89355</ele>
        <time>2021-07-02T09:50:43Z</time>
      </trkpt>
      <trkpt lat="42.577011" lon="1.789927">
        <ele>1532.89502</ele>
        <time>2021-07-02T09:50:44Z</time>
      </trkpt>
      <trkpt lat="42.576889" lon="1.789706">
        <ele>1532.62305</ele>
        <time>2021-07-02T09:50:45Z</time>
      </trkpt>
      <trkpt lat="42.576767" lon="1.789509">
        <ele>1532.60962</ele>
        <time>2021-07-02T09:50:46Z</time>
      </trkpt>
      <trkpt lat="42.576675" lon="1.789368">
        <ele>1532.57471</ele>
        <time>2021-07-02T09:50:47Z</time>
      </trkpt>
      <trkpt lat="42.576576" lon="1.789236">
        <ele>1533.73022</ele>
        <time>2021-07-02T09:50:48Z</time>
      </trkpt>
      <trkpt lat="42.576450" lon="1.789122">
        <ele>1533.74341</ele>
        <time>2021-07-02T09:50:49Z</time>
      </trkpt>
      <trkpt lat="42.576401" lon="1.789109">
        <ele>1533.66455</ele>
        <time>2021-07-02T09:50:50Z</time>
      </trkpt>
      <trkpt lat="42.576286" lon="1.789137">
        <ele>1534.52710</ele>
        <time>2021-07-02T09:50:51Z</time>
      </trkpt>
      <trkpt lat="42.576214" lon="1.789222">
        <ele>1535.97705</ele>
        <time>2021-07-02T09:50:52Z</time>
      </trkpt>
      <trkpt lat="42.576172" lon="1.789340">
        <ele>1538.41797</ele>
        <time>2021-07-02T09:50:53Z</time>
      </trkpt>
      <trkpt lat="42.576164" lon="1.789394">
        <ele>1538.73975</ele>
        <time>2021-07-02T09:50:54Z</time>
      </trkpt>
      <trkpt lat="42.576157" lon="1.789701">
        <ele>1539.08301</ele>
        <time>2021-07-02T09:50:55Z</time>
      </trkpt>
      <trkpt lat="42.576153" lon="1.789871">
        <ele>1540.55957</ele>
        <time>2021-07-02T09:50:56Z</time>
      </trkpt>
      <trkpt lat="42.576153" lon="1.790084">
        <ele>1540.86182</ele>
        <time>2021-07-02T09:50:57Z</time>
      </trkpt>
      <trkpt lat="42.576153" lon="1.790314">
        <ele>1540.01123</ele>
        <time>2021-07-02T09:50:58Z</time>
      </trkpt>
      <trkpt lat="42.576157" lon="1.790642">
        <ele>1540.22705</ele>
        <time>2021-07-02T09:50:59Z</time>
      </trkpt>
      <trkpt lat="42.576157" lon="1.790858">
        <ele>1540.81079</ele>
        <time>2021-07-02T09:51:00Z</time>
      </trkpt>
      <trkpt lat="42.576172" lon="1.791099">
        <ele>1543.14697</ele>
        <time>2021-07-02T09:51:01Z</time>
      </trkpt>
      <trkpt lat="42.576218" lon="1.791353">
        <ele>1545.58545</ele>
        <time>2021-07-02T09:51:02Z</time>
      </trkpt>
      <trkpt lat="42.576290" lon="1.791621">
        <ele>1546.41846</ele>
        <time>2021-07-02T09:51:03Z</time>
      </trkpt>
      <trkpt lat="42.576389" lon="1.791846">
        <ele>1546.49634</ele>
        <time>2021-07-02T09:51:04Z</time>
      </trkpt>
      <trkpt lat="42.576473" lon="1.792023">
        <ele>1550.73999</ele>
        <time>2021-07-02T09:51:05Z</time>
      </trkpt>
      <trkpt lat="42.576557" lon="1.792213">
        <ele>1550.68701</ele>
        <time>2021-07-02T09:51:06Z</time>
      </trkpt>
      <trkpt lat="42.576580" lon="1.792362">
        <ele>1551.48633</ele>
        <time>2021-07-02T09:51:07Z</time>
      </trkpt>
      <trkpt lat="42.576572" lon="1.792449">
        <ele>1552.94824</ele>
        <time>2021-07-02T09:51:08Z</time>
      </trkpt>
      <trkpt lat="42.576519" lon="1.792536">
        <ele>1552.50903</ele>
        <time>2021-07-02T09:51:09Z</time>
      </trkpt>
      <trkpt lat="42.576481" lon="1.792554">
        <ele>1552.40381</ele>
        <time>2021-07-02T09:51:10Z</time>
      </trkpt>
      <trkpt lat="42.576466" lon="1.792559">
        <ele>1553.67822</ele>
        <time>2021-07-02T09:51:11Z</time>
      </trkpt>
      <trkpt lat="42.576458" lon="1.792562">
        <ele>1552.14014</ele>
        <time>2021-07-02T09:51:12Z</time>
      </trkpt>
      <trkpt lat="42.576458" lon="1.792562">
        <ele>1556.89282</ele>
        <time>2021-07-02T09:51:13Z</time>
      </trkpt>
      <trkpt lat="42.576458" lon="1.792563">
        <ele>1557.27869</ele>
        <time>2021-07-02T09:51:14Z</time>
      </trkpt>
      <trkpt lat="42.576344" lon="1.792543">
        <ele>1558.73206</ele>
        <time>2021-07-02T09:51:15Z</time>
      </trkpt>
      <trkpt lat="42.576248" lon="1.792420">
        <ele>1559.39087</ele>
        <time>2021-07-02T09:51:16Z</time>
      </trkpt>
      <trkpt lat="42.576248" lon="1.792420">
        <ele>1560.57153</ele>
        <time>2021-07-02T09:51:17Z</time>
      </trkpt>
      <trkpt lat="42.576130" lon="1.792003">
        <ele>1561.58533</ele>
        <time>2021-07-02T09:51:18Z</time>
      </trkpt>
      <trkpt lat="42.575974" lon="1.791584">
        <ele>1562.54272</ele>
        <time>2021-07-02T09:51:19Z</time>
      </trkpt>
      <trkpt lat="42.575897" lon="1.791410">
        <ele>1564.87964</ele>
        <time>2021-07-02T09:51:20Z</time>
      </trkpt>
      <trkpt lat="42.575806" lon="1.791199">
        <ele>1566.37939</ele>
        <time>2021-07-02T09:51:21Z</time>
      </trkpt>
      <trkpt lat="42.575714" lon="1.790982">
        <ele>1563.39844</ele>
        <time>2021-07-02T09:51:22Z</time>
      </trkpt>
      <trkpt lat="42.575626" lon="1.790780">
        <ele>1561.59106</ele>
        <time>2021-07-02T09:51:23Z</time>
      </trkpt>
      <trkpt lat="42.575512" lon="1.790517">
        <ele>1560.62305</ele>
        <time>2021-07-02T09:51:24Z</time>
      </trkpt>
      <trkpt lat="42.575394" lon="1.790244">
        <ele>1561.06421</ele>
        <time>2021-07-02T09:51:25Z</time>
      </trkpt>
      <trkpt lat="42.575184" lon="1.789754">
        <ele>1560.85400</ele>
        <time>2021-07-02T09:51:26Z</time>
      </trkpt>
      <trkpt lat="42.575050" lon="1.789443">
        <ele>1562.87939</ele>
        <time>2021-07-02T09:51:27Z</time>
      </trkpt>
      <trkpt lat="42.574921" lon="1.789148">
        <ele>1564.04004</ele>
        <time>2021-07-02T09:51:28Z</time>
      </trkpt>
      <trkpt lat="42.574814" lon="1.788858">
        <ele>1567.63037</ele>
        <time>2021-07-02T09:51:29Z</time>
      </trkpt>
      <trkpt lat="42.574753" lon="1.788668">
        <ele>1566.50195</ele>
        <time>2021-07-02T09:51:30Z</time>
      </trkpt>
      <trkpt lat="42.574692" lon="1.788473">
        <ele>1568.98022</ele>
        <time>2021-07-02T09:51:31Z</time>
      </trkpt>
      <trkpt lat="42.574650" lon="1.788366">
        <ele>1568.48584</ele>
        <time>2021-07-02T09:51:32Z</time>
      </trkpt>
      <trkpt lat="42.574566" lon="1.788278">
        <ele>1570.20264</ele>
        <time>2021-07-02T09:51:33Z</time>
      </trkpt>
      <trkpt lat="42.574532" lon="1.788269">
        <ele>1570.15771</ele>
        <time>2021-07-02T09:51:34Z</time>
      </trkpt>
      <trkpt lat="42.574432" lon="1.788302">
        <ele>1570.81958</ele>
        <time>2021-07-02T09:51:35Z</time>
      </trkpt>
      <trkpt lat="42.574379" lon="1.788365">
        <ele>1570.29492</ele>
        <time>2021-07-02T09:51:36Z</time>
      </trkpt>
      <trkpt lat="42.574352" lon="1.788454">
        <ele>1570.21191</ele>
        <time>2021-07-02T09:51:37Z</time>
      </trkpt>
      <trkpt lat="42.574348" lon="1.788594">
        <ele>1571.82324</ele>
        <time>2021-07-02T09:51:38Z</time>
      </trkpt>
      <trkpt lat="42.574394" lon="1.788748">
        <ele>1571.53125</ele>
        <time>2021-07-02T09:51:39Z</time>
      </trkpt>
      <trkpt lat="42.574451" lon="1.788888">
        <ele>1573.47314</ele>
        <time>2021-07-02T09:51:40Z</time>
      </trkpt>
      <trkpt lat="42.574524" lon="1.789060">
        <ele>1575.41528</ele>
        <time>2021-07-02T09:51:41Z</time>
      </trkpt>
      <trkpt lat="42.574692" lon="1.789497">
        <ele>1575.91504</ele>
        <time>2021-07-02T09:51:42Z</time>
      </trkpt>
      <trkpt lat="42.574776" lon="1.789883">
        <ele>1577.44141</ele>
        <time>2021-07-02T09:51:43Z</time>
      </trkpt>
      <trkpt lat="42.574829" lon="1.790176">
        <ele>1576.03906</ele>
        <time>2021-07-02T09:51:44Z</time>
      </trkpt>
      <trkpt lat="42.574898" lon="1.790578">
        <ele>1576.58105</ele>
        <time>2021-07-02T09:51:45Z</time>
      </trkpt>
      <trkpt lat="42.574898" lon="1.790578">
        <ele>1577.34741</ele>
        <time>2021-07-02T09:51:46Z</time>
      </trkpt>
      <trkpt lat="42.574966" lon="1.790954">
        <ele>1579.10889</ele>
        <time>2021-07-02T09:51:47Z</time>
      </trkpt>
      <trkpt lat="42.575031" lon="1.791315">
        <ele>1583.49976</ele>
        <time>2021-07-02T09:51:48Z</time>
      </trkpt>
      <trkpt lat="42.575104" lon="1.791718">
        <ele>1586.06689</ele>
        <time>2021-07-02T09:51:49Z</time>
      </trkpt>
      <trkpt lat="42.575180" lon="1.792056">
        <ele>1586.88013</ele>
        <time>2021-07-02T09:51:50Z</time>
      </trkpt>
      <trkpt lat="42.575279" lon="1.792339">
        <ele>1589.46875</ele>
        <time>2021-07-02T09:51:51Z</time>
      </trkpt>
      <trkpt lat="42.575436" lon="1.792620">
        <ele>1592.35596</ele>
        <time>2021-07-02T09:51:52Z</time>
      </trkpt>
      <trkpt lat="42.575573" lon="1.792826">
        <ele>1602.89087</ele>
        <time>2021-07-02T09:51:53Z</time>
      </trkpt>
      <trkpt lat="42.575699" lon="1.792989">
        <ele>1602.44336</ele>
        <time>2021-07-02T09:51:54Z</time>
      </trkpt>
      <trkpt lat="42.575813" lon="1.793148">
        <ele>1602.10730</ele>
        <time>2021-07-02T09:51:55Z</time>
      </trkpt>
      <trkpt lat="42.575867" lon="1.793277">
        <ele>1602.28992</ele>
        <time>2021-07-02T09:51:56Z</time>
      </trkpt>
      <trkpt lat="42.575844" lon="1.793417">
        <ele>1600.40063</ele>
        <time>2021-07-02T09:51:57Z</time>
      </trkpt>
      <trkpt lat="42.575779" lon="1.793519">
        <ele>1599.95361</ele>
        <time>2021-07-02T09:51:58Z</time>
      </trkpt>
      <trkpt lat="42.575733" lon="1.793570">
        <ele>1600.41895</ele>
        <time>2021-07-02T09:51:59Z</time>
      </trkpt>
      <trkpt lat="42.575722" lon="1.793585">
        <ele>1601.50708</ele>
        <time>2021-07-02T09:52:00Z</time>
      </trkpt>
      <trkpt lat="42.575687" lon="1.793623">
        <ele>1601.53638</ele>
        <time>2021-07-02T09:52:01Z</time>
      </trkpt>
      <trkpt lat="42.575588" lon="1.793471">
        <ele>1602.46631</ele>
        <time>2021-07-02T09:52:02Z</time>
      </trkpt>
      <trkpt lat="42.575428" lon="1.793203">
        <ele>1601.56519</ele>
        <time>2021-07-02T09:52:03Z</time>
      </trkpt>
      <trkpt lat="42.575352" lon="1.793048">
        <ele>1605.77197</ele>
        <time>2021-07-02T09:52:04Z</time>
      </trkpt>
      <trkpt lat="42.575191" lon="1.792735">
        <ele>1606.03955</ele>
        <time>2021-07-02T09:52:05Z</time>
      </trkpt>
      <trkpt lat="42.575005" lon="1.792386">
        <ele>1606.00781</ele>
        <time>2021-07-02T09:52:06Z</time>
      </trkpt>
      <trkpt lat="42.574795" lon="1.792036">
        <ele>1606.26904</ele>
        <time>2021-07-02T09:52:07Z</time>
      </trkpt>
      <trkpt lat="42.574635" lon="1.791786">
        <ele>1607.52344</ele>
        <time>2021-07-02T09:52:08Z</time>
      </trkpt>
      <trkpt lat="42.574474" lon="1.791533">
        <ele>1609.07764</ele>
        <time>2021-07-02T09:52:09Z</time>
      </trkpt>
      <trkpt lat="42.574333" lon="1.791247">
        <ele>1609.11523</ele>
        <time>2021-07-02T09:52:10Z</time>
      </trkpt>
      <trkpt lat="42.574196" lon="1.790972">
        <ele>1607.38037</ele>
        <time>2021-07-02T09:52:11Z</time>
      </trkpt>
      <trkpt lat="42.574013" lon="1.790735">
        <ele>1610.30151</ele>
        <time>2021-07-02T09:52:12Z</time>
      </trkpt>
      <trkpt lat="42.573841" lon="1.790481">
        <ele>1612.03955</ele>
        <time>2021-07-02T09:52:13Z</time>
      </trkpt>
      <trkpt lat="42.573696" lon="1.790263">
        <ele>1611.48877</ele>
        <time>2021-07-02T09:52:14Z</time>
      </trkpt>
      <trkpt lat="42.573582" lon="1.790077">
        <ele>1612.21899</ele>
        <time>2021-07-02T09:52:15Z</time>
      </trkpt>
      <trkpt lat="42.573456" lon="1.789945">
        <ele>1611.75830</ele>
        <time>2021-07-02T09:52:16Z</time>
      </trkpt>
      <trkpt lat="42.573299" lon="1.789818">
        <ele>1613.01221</ele>
        <time>2021-07-02T09:52:17Z</time>
      </trkpt>
      <trkpt lat="42.573299" lon="1.789818">
        <ele>1613.51562</ele>
        <time>2021-07-02T09:52:18Z</time>
      </trkpt>
      <trkpt lat="42.573151" lon="1.789701">
        <ele>1615.25635</ele>
        <time>2021-07-02T09:52:19Z</time>
      </trkpt>
      <trkpt lat="42.573006" lon="1.789587">
        <ele>1614.26587</ele>
        <time>2021-07-02T09:52:20Z</time>
      </trkpt>
      <trkpt lat="42.572880" lon="1.789482">
        <ele>1614.54468</ele>
        <time>2021-07-02T09:52:21Z</time>
      </trkpt>
      <trkpt lat="42.572739" lon="1.789354">
        <ele>1616.67529</ele>
        <time>2021-07-02T09:52:22Z</time>
      </trkpt>
      <trkpt lat="42.572620" lon="1.789240">
        <ele>1616.97363</ele>
        <time>2021-07-02T09:52:23Z</time>
      </trkpt>
      <trkpt lat="42.572506" lon="1.789119">
        <ele>1616.12109</ele>
        <time>2021-07-02T09:52:24Z</time>
      </trkpt>
      <trkpt lat="42.572407" lon="1.789042">
        <ele>1616.86963</ele>
        <time>2021-07-02T09:52:25Z</time>
      </trkpt>
      <trkpt lat="42.572277" lon="1.788955">
        <ele>1616.59326</ele>
        <time>2021-07-02T09:52:26Z</time>
      </trkpt>
      <trkpt lat="42.572147" lon="1.788877">
        <ele>1617.01880</ele>
        <time>2021-07-02T09:52:27Z</time>
      </trkpt>
      <trkpt lat="42.572021" lon="1.788838">
        <ele>1618.09717</ele>
        <time>2021-07-02T09:52:28Z</time>
      </trkpt>
      <trkpt lat="42.571930" lon="1.788754">
        <ele>1619.48486</ele>
        <time>2021-07-02T09:52:29Z</time>
      </trkpt>
      <trkpt lat="42.571857" lon="1.788627">
        <ele>1622.32471</ele>
        <time>2021-07-02T09:52:30Z</time>
      </trkpt>
      <trkpt lat="42.571812" lon="1.788508">
        <ele>1623.18823</ele>
        <time>2021-07-02T09:52:31Z</time>
      </trkpt>
      <trkpt lat="42.571739" lon="1.788318">
        <ele>1624.20996</ele>
        <time>2021-07-02T09:52:32Z</time>
      </trkpt>
      <trkpt lat="42.571701" lon="1.788121">
        <ele>1625.53662</ele>
        <time>2021-07-02T09:52:33Z</time>
      </trkpt>
      <trkpt lat="42.571724" lon="1.787973">
        <ele>1628.29907</ele>
        <time>2021-07-02T09:52:34Z</time>
      </trkpt>
      <trkpt lat="42.571770" lon="1.787825">
        <ele>1629.85059</ele>
        <time>2021-07-02T09:52:35Z</time>
      </trkpt>
      <trkpt lat="42.571808" lon="1.787689">
        <ele>1633.75952</ele>
        <time>2021-07-02T09:52:36Z</time>
      </trkpt>
      <trkpt lat="42.571831" lon="1.787524">
        <ele>1632.64209</ele>
        <time>2021-07-02T09:52:37Z</time>
      </trkpt>
      <trkpt lat="42.571796" lon="1.787354">
        <ele>1633.26611</ele>
        <time>2021-07-02T09:52:38Z</time>
      </trkpt>
      <trkpt lat="42.571724" lon="1.787218">
        <ele>1634.29688</ele>
        <time>2021-07-02T09:52:39Z</time>
      </trkpt>
      <trkpt lat="42.571648" lon="1.787117">
        <ele>1635.72192</ele>
        <time>2021-07-02T09:52:40Z</time>
      </trkpt>
      <trkpt lat="42.571564" lon="1.786996">
        <ele>1637.34546</ele>
        <time>2021-07-02T09:52:41Z</time>
      </trkpt>
      <trkpt lat="42.571445" lon="1.786827">
        <ele>1639.21191</ele>
        <time>2021-07-02T09:52:42Z</time>
      </trkpt>
      <trkpt lat="42.571259" lon="1.786569">
        <ele>1640.96680</ele>
        <time>2021-07-02T09:52:43Z</time>
      </trkpt>
      <trkpt lat="42.571087" lon="1.786322">
        <ele>1642.89722</ele>
        <time>2021-07-02T09:52:44Z</time>
      </trkpt>
      <trkpt lat="42.570946" lon="1.786116">
        <ele>1645.56104</ele>
        <time>2021-07-02T09:52:45Z</time>
      </trkpt>
      <trkpt lat="42.570827" lon="1.785848">
        <ele>1645.08545</ele>
        <time>2021-07-02T09:52:46Z</time>
      </trkpt>
      <trkpt lat="42.570759" lon="1.785573">
        <ele>1646.72021</ele>
        <time>2021-07-02T09:52:47Z</time>
      </trkpt>
      <trkpt lat="42.570679" lon="1.785311">
        <ele>1647.09595</ele>
        <time>2021-07-02T09:52:48Z</time>
      </trkpt>
      <trkpt lat="42.570549" lon="1.785061">
        <ele>1647.35010</ele>
        <time>2021-07-02T09:52:49Z</time>
      </trkpt>
      <trkpt lat="42.570549" lon="1.785061">
        <ele>1648.70752</ele>
        <time>2021-07-02T09:52:50Z</time>
      </trkpt>
      <trkpt lat="42.570423" lon="1.784873">
        <ele>1650.65625</ele>
        <time>2021-07-02T09:52:51Z</time>
      </trkpt>
      <trkpt lat="42.570267" lon="1.784650">
        <ele>1650.58716</ele>
        <time>2021-07-02T09:52:52Z</time>
      </trkpt>
      <trkpt lat="42.570038" lon="1.784347">
        <ele>1651.25024</ele>
        <time>2021-07-02T09:52:53Z</time>
      </trkpt>
      <trkpt lat="42.569893" lon="1.784162">
        <ele>1652.35205</ele>
        <time>2021-07-02T09:52:54Z</time>
      </trkpt>
      <trkpt lat="42.569740" lon="1.783905">
        <ele>1653.57690</ele>
        <time>2021-07-02T09:52:55Z</time>
      </trkpt>
      <trkpt lat="42.569618" lon="1.783622">
        <ele>1653.99805</ele>
        <time>2021-07-02T09:52:56Z</time>
      </trkpt>
      <trkpt lat="42.569508" lon="1.783364">
        <ele>1654.50952</ele>
        <time>2021-07-02T09:52:57Z</time>
      </trkpt>
      <trkpt lat="42.569420" lon="1.783171">
        <ele>1656.76172</ele>
        <time>2021-07-02T09:52:58Z</time>
      </trkpt>
      <trkpt lat="42.569321" lon="1.782952">
        <ele>1659.01758</ele>
        <time>2021-07-02T09:52:59Z</time>
      </trkpt>
      <trkpt lat="42.569195" lon="1.782753">
        <ele>1660.44360</ele>
        <time>2021-07-02T09:53:00Z</time>
      </trkpt>
      <trkpt lat="42.569027" lon="1.782544">
        <ele>1661.82080</ele>
        <time>2021-07-02T09:53:01Z</time>
      </trkpt>
      <trkpt lat="42.568867" lon="1.782341">
        <ele>1662.94092</ele>
        <time>2021-07-02T09:53:02Z</time>
      </trkpt>
      <trkpt lat="42.568695" lon="1.782134">
        <ele>1665.31763</ele>
        <time>2021-07-02T09:53:03Z</time>
      </trkpt>
      <trkpt lat="42.568535" lon="1.781939">
        <ele>1666.45752</ele>
        <time>2021-07-02T09:53:04Z</time>
      </trkpt>
      <trkpt lat="42.568394" lon="1.781700">
        <ele>1666.91846</ele>
        <time>2021-07-02T09:53:05Z</time>
      </trkpt>
      <trkpt lat="42.568268" lon="1.781443">
        <ele>1668.10376</ele>
        <time>2021-07-02T09:53:06Z</time>
      </trkpt>
      <trkpt lat="42.568153" lon="1.781223">
        <ele>1669.31421</ele>
        <time>2021-07-02T09:53:07Z</time>
      </trkpt>
      <trkpt lat="42.568054" lon="1.781076">
        <ele>1671.05322</ele>
        <time>2021-07-02T09:53:08Z</time>
      </trkpt>
      <trkpt lat="42.567890" lon="1.780919">
        <ele>1672.94824</ele>
        <time>2021-07-02T09:53:09Z</time>
      </trkpt>
      <trkpt lat="42.567699" lon="1.780750">
        <ele>1673.46289</ele>
        <time>2021-07-02T09:53:10Z</time>
      </trkpt>
      <trkpt lat="42.567513" lon="1.780588">
        <ele>1675.65161</ele>
        <time>2021-07-02T09:53:11Z</time>
      </trkpt>
      <trkpt lat="42.567341" lon="1.780435">
        <ele>1676.58350</ele>
        <time>2021-07-02T09:53:12Z</time>
      </trkpt>
      <trkpt lat="42.567192" lon="1.780268">
        <ele>1676.67627</ele>
        <time>2021-07-02T09:53:13Z</time>
      </trkpt>
      <trkpt lat="42.567066" lon="1.780049">
        <ele>1679.34692</ele>
        <time>2021-07-02T09:53:14Z</time>
      </trkpt>
      <trkpt lat="42.566940" lon="1.779782">
        <ele>1681.58301</ele>
        <time>2021-07-02T09:53:15Z</time>
      </trkpt>
      <trkpt lat="42.566807" lon="1.779542">
        <ele>1683.34546</ele>
        <time>2021-07-02T09:53:16Z</time>
      </trkpt>
      <trkpt lat="42.566650" lon="1.779323">
        <ele>1684.78271</ele>
        <time>2021-07-02T09:53:17Z</time>
      </trkpt>
      <trkpt lat="42.566479" lon="1.779087">
        <ele>1686.34790</ele>
        <time>2021-07-02T09:53:18Z</time>
      </trkpt>
      <trkpt lat="42.566315" lon="1.778863">
        <ele>1686.86279</ele>
        <time>2021-07-02T09:53:19Z</time>
      </trkpt>
      <trkpt lat="42.566147" lon="1.778640">
        <ele>1688.63574</ele>
        <time>2021-07-02T09:53:20Z</time>
      </trkpt>
      <trkpt lat="42.565983" lon="1.778414">
        <ele>1690.20190</ele>
        <time>2021-07-02T09:53:21Z</time>
      </trkpt>
      <trkpt lat="42.565823" lon="1.778198">
        <ele>1690.55103</ele>
        <time>2021-07-02T09:53:22Z</time>
      </trkpt>
      <trkpt lat="42.565678" lon="1.777989">
        <ele>1691.92432</ele>
        <time>2021-07-02T09:53:23Z</time>
      </trkpt>
      <trkpt lat="42.565678" lon="1.777989">
        <ele>1692.42139</ele>
        <time>2021-07-02T09:53:24Z</time>
      </trkpt>
      <trkpt lat="42.565563" lon="1.777732">
        <ele>1693.15088</ele>
        <time>2021-07-02T09:53:25Z</time>
      </trkpt>
      <trkpt lat="42.565483" lon="1.777448">
        <ele>1694.89160</ele>
        <time>2021-07-02T09:53:26Z</time>
      </trkpt>
      <trkpt lat="42.565407" lon="1.777174">
        <ele>1695.80322</ele>
        <time>2021-07-02T09:53:27Z</time>
      </trkpt>
      <trkpt lat="42.565319" lon="1.776867">
        <ele>1697.87402</ele>
        <time>2021-07-02T09:53:28Z</time>
      </trkpt>
      <trkpt lat="42.565250" lon="1.776631">
        <ele>1698.60156</ele>
        <time>2021-07-02T09:53:29Z</time>
      </trkpt>
      <trkpt lat="42.565159" lon="1.776385">
        <ele>1702.28711</ele>
        <time>2021-07-02T09:53:30Z</time>
      </trkpt>
      <trkpt lat="42.565022" lon="1.776144">
        <ele>1702.03613</ele>
        <time>2021-07-02T09:53:31Z</time>
      </trkpt>
      <trkpt lat="42.564880" lon="1.775877">
        <ele>1703.73291</ele>
        <time>2021-07-02T09:53:32Z</time>
      </trkpt>
      <trkpt lat="42.564732" lon="1.775604">
        <ele>1704.34644</ele>
        <time>2021-07-02T09:53:33Z</time>
      </trkpt>
      <trkpt lat="42.564625" lon="1.775409">
        <ele>1707.12769</ele>
        <time>2021-07-02T09:53:34Z</time>
      </trkpt>
      <trkpt lat="42.564522" lon="1.775201">
        <ele>1708.64648</ele>
        <time>2021-07-02T09:53:35Z</time>
      </trkpt>
      <trkpt lat="42.564442" lon="1.775000">
        <ele>1711.14795</ele>
        <time>2021-07-02T09:53:36Z</time>
      </trkpt>
      <trkpt lat="42.564411" lon="1.774748">
        <ele>1712.71631</ele>
        <time>2021-07-02T09:53:37Z</time>
      </trkpt>
      <trkpt lat="42.564438" lon="1.774527">
        <ele>1713.48486</ele>
        <time>2021-07-02T09:53:38Z</time>
      </trkpt>
      <trkpt lat="42.564457" lon="1.774331">
        <ele>1713.82373</ele>
        <time>2021-07-02T09:53:39Z</time>
      </trkpt>
      <trkpt lat="42.564426" lon="1.774118">
        <ele>1715.41748</ele>
        <time>2021-07-02T09:53:40Z</time>
      </trkpt>
      <trkpt lat="42.564362" lon="1.773875">
        <ele>1716.37720</ele>
        <time>2021-07-02T09:53:41Z</time>
      </trkpt>
      <trkpt lat="42.564289" lon="1.773608">
        <ele>1716.84082</ele>
        <time>2021-07-02T09:53:42Z</time>
      </trkpt>
      <trkpt lat="42.564201" lon="1.773308">
        <ele>1717.51294</ele>
        <time>2021-07-02T09:53:43Z</time>
      </trkpt>
      <trkpt lat="42.564117" lon="1.773026">
        <ele>1717.63330</ele>
        <time>2021-07-02T09:53:44Z</time>
      </trkpt>
      <trkpt lat="42.563999" lon="1.772754">
        <ele>1717.43213</ele>
        <time>2021-07-02T09:53:45Z</time>
      </trkpt>
      <trkpt lat="42.563885" lon="1.772530">
        <ele>1717.78101</ele>
        <time>2021-07-02T09:53:46Z</time>
      </trkpt>
      <trkpt lat="42.563786" lon="1.772334">
        <ele>1718.89282</ele>
        <time>2021-07-02T09:53:47Z</time>
      </trkpt>
      <trkpt lat="42.563721" lon="1.772124">
        <ele>1719.46436</ele>
        <time>2021-07-02T09:53:48Z</time>
      </trkpt>
      <trkpt lat="42.563713" lon="1.771928">
        <ele>1720.50732</ele>
        <time>2021-07-02T09:53:49Z</time>
      </trkpt>
      <trkpt lat="42.563751" lon="1.771712">
        <ele>1722.04541</ele>
        <time>2021-07-02T09:53:50Z</time>
      </trkpt>
      <trkpt lat="42.563766" lon="1.771603">
        <ele>1723.42065</ele>
        <time>2021-07-02T09:53:51Z</time>
      </trkpt>
      <trkpt lat="42.563770" lon="1.771466">
        <ele>1722.56934</ele>
        <time>2021-07-02T09:53:52Z</time>
      </trkpt>
      <trkpt lat="42.563770" lon="1.771466">
        <ele>1722.76123</ele>
        <time>2021-07-02T09:53:53Z</time>
      </trkpt>
      <trkpt lat="42.563736" lon="1.771337">
        <ele>1723.16846</ele>
        <time>2021-07-02T09:53:54Z</time>
      </trkpt>
      <trkpt lat="42.563656" lon="1.771242">
        <ele>1722.34204</ele>
        <time>2021-07-02T09:53:55Z</time>
      </trkpt>
      <trkpt lat="42.563553" lon="1.771213">
        <ele>1722.38281</ele>
        <time>2021-07-02T09:53:56Z</time>
      </trkpt>
      <trkpt lat="42.563454" lon="1.771254">
        <ele>1723.66455</ele>
        <time>2021-07-02T09:53:57Z</time>
      </trkpt>
      <trkpt lat="42.563396" lon="1.771321">
        <ele>1724.58496</ele>
        <time>2021-07-02T09:53:58Z</time>
      </trkpt>
      <trkpt lat="42.563362" lon="1.771437">
        <ele>1724.80127</ele>
        <time>2021-07-02T09:53:59Z</time>
      </trkpt>
      <trkpt lat="42.563374" lon="1.771606">
        <ele>1726.51953</ele>
        <time>2021-07-02T09:54:00Z</time>
      </trkpt>
      <trkpt lat="42.563427" lon="1.771817">
        <ele>1726.52197</ele>
        <time>2021-07-02T09:54:01Z</time>
      </trkpt>
      <trkpt lat="42.563488" lon="1.772035">
        <ele>1726.74927</ele>
        <time>2021-07-02T09:54:02Z</time>
      </trkpt>
      <trkpt lat="42.563534" lon="1.772198">
        <ele>1728.48120</ele>
        <time>2021-07-02T09:54:03Z</time>
      </trkpt>
      <trkpt lat="42.563580" lon="1.772412">
        <ele>1729.96558</ele>
        <time>2021-07-02T09:54:04Z</time>
      </trkpt>
      <trkpt lat="42.563648" lon="1.772774">
        <ele>1728.74609</ele>
        <time>2021-07-02T09:54:05Z</time>
      </trkpt>
      <trkpt lat="42.563660" lon="1.772983">
        <ele>1730.10889</ele>
        <time>2021-07-02T09:54:06Z</time>
      </trkpt>
      <trkpt lat="42.563629" lon="1.773154">
        <ele>1732.89966</ele>
        <time>2021-07-02T09:54:07Z</time>
      </trkpt>
      <trkpt lat="42.563564" lon="1.773308">
        <ele>1733.26172</ele>
        <time>2021-07-02T09:54:08Z</time>
      </trkpt>
      <trkpt lat="42.563515" lon="1.773467">
        <ele>1734.37109</ele>
        <time>2021-07-02T09:54:09Z</time>
      </trkpt>
      <trkpt lat="42.563503" lon="1.773636">
        <ele>1734.53711</ele>
        <time>2021-07-02T09:54:10Z</time>
      </trkpt>
      <trkpt lat="42.563519" lon="1.773826">
        <ele>1735.81299</ele>
        <time>2021-07-02T09:54:11Z</time>
      </trkpt>
      <trkpt lat="42.563538" lon="1.774032">
        <ele>1736.84961</ele>
        <time>2021-07-02T09:54:12Z</time>
      </trkpt>
      <trkpt lat="42.563541" lon="1.774315">
        <ele>1738.38525</ele>
        <time>2021-07-02T09:54:13Z</time>
      </trkpt>
      <trkpt lat="42.563541" lon="1.774704">
        <ele>1738.58350</ele>
        <time>2021-07-02T09:54:14Z</time>
      </trkpt>
      <trkpt lat="42.563538" lon="1.775068">
        <ele>1737.51489</ele>
        <time>2021-07-02T09:54:15Z</time>
      </trkpt>
      <trkpt lat="42.563530" lon="1.775323">
        <ele>1739.11572</ele>
        <time>2021-07-02T09:54:16Z</time>
      </trkpt>
      <trkpt lat="42.563507" lon="1.775582">
        <ele>1742.06787</ele>
        <time>2021-07-02T09:54:17Z</time>
      </trkpt>
      <trkpt lat="42.563473" lon="1.775829">
        <ele>1741.91309</ele>
        <time>2021-07-02T09:54:18Z</time>
      </trkpt>
      <trkpt lat="42.563435" lon="1.776049">
        <ele>1743.62451</ele>
        <time>2021-07-02T09:54:19Z</time>
      </trkpt>
      <trkpt lat="42.563377" lon="1.776245">
        <ele>1744.06152</ele>
        <time>2021-07-02T09:54:20Z</time>
      </trkpt>
      <trkpt lat="42.563282" lon="1.776370">
        <ele>1743.58887</ele>
        <time>2021-07-02T09:54:21Z</time>
      </trkpt>
      <trkpt lat="42.563168" lon="1.776443">
        <ele>1742.72729</ele>
        <time>2021-07-02T09:54:22Z</time>
      </trkpt>
      <trkpt lat="42.563038" lon="1.776548">
        <ele>1743.55615</ele>
        <time>2021-07-02T09:54:23Z</time>
      </trkpt>
      <trkpt lat="42.563038" lon="1.776548">
        <ele>1744.72510</ele>
        <time>2021-07-02T09:54:24Z</time>
      </trkpt>
      <trkpt lat="42.562950" lon="1.776673">
        <ele>1746.33887</ele>
        <time>2021-07-02T09:54:25Z</time>
      </trkpt>
      <trkpt lat="42.562916" lon="1.776780">
        <ele>1746.71680</ele>
        <time>2021-07-02T09:54:26Z</time>
      </trkpt>
      <trkpt lat="42.562893" lon="1.776908">
        <ele>1747.17676</ele>
        <time>2021-07-02T09:54:27Z</time>
      </trkpt>
      <trkpt lat="42.562904" lon="1.777085">
        <ele>1747.91553</ele>
        <time>2021-07-02T09:54:28Z</time>
      </trkpt>
      <trkpt lat="42.562950" lon="1.777254">
        <ele>1749.54980</ele>
        <time>2021-07-02T09:54:29Z</time>
      </trkpt>
      <trkpt lat="42.563076" lon="1.777404">
        <ele>1748.27051</ele>
        <time>2021-07-02T09:54:30Z</time>
      </trkpt>
      <trkpt lat="42.563213" lon="1.777501">
        <ele>1748.83813</ele>
        <time>2021-07-02T09:54:31Z</time>
      </trkpt>
      <trkpt lat="42.563332" lon="1.777613">
        <ele>1748.45972</ele>
        <time>2021-07-02T09:54:32Z</time>
      </trkpt>
      <trkpt lat="42.563389" lon="1.777728">
        <ele>1748.58008</ele>
        <time>2021-07-02T09:54:33Z</time>
      </trkpt>
      <trkpt lat="42.563416" lon="1.777886">
        <ele>1750.11011</ele>
        <time>2021-07-02T09:54:34Z</time>
      </trkpt>
      <trkpt lat="42.563427" lon="1.778091">
        <ele>1751.64966</ele>
        <time>2021-07-02T09:54:35Z</time>
      </trkpt>
      <trkpt lat="42.563435" lon="1.778311">
        <ele>1752.09253</ele>
        <time>2021-07-02T09:54:36Z</time>
      </trkpt>
      <trkpt lat="42.563454" lon="1.778507">
        <ele>1752.91479</ele>
        <time>2021-07-02T09:54:37Z</time>
      </trkpt>
      <trkpt lat="42.563499" lon="1.778674">
        <ele>1753.13013</ele>
        <time>2021-07-02T09:54:38Z</time>
      </trkpt>
      <trkpt lat="42.563560" lon="1.778853">
        <ele>1753.48193</ele>
        <time>2021-07-02T09:54:39Z</time>
      </trkpt>
      <trkpt lat="42.563622" lon="1.779041">
        <ele>1753.28613</ele>
        <time>2021-07-02T09:54:40Z</time>
      </trkpt>
      <trkpt lat="42.563683" lon="1.779259">
        <ele>1753.83984</ele>
        <time>2021-07-02T09:54:41Z</time>
      </trkpt>
      <trkpt lat="42.563725" lon="1.779482">
        <ele>1755.05176</ele>
        <time>2021-07-02T09:54:42Z</time>
      </trkpt>
      <trkpt lat="42.563732" lon="1.779719">
        <ele>1755.07983</ele>
        <time>2021-07-02T09:54:43Z</time>
      </trkpt>
      <trkpt lat="42.563721" lon="1.779915">
        <ele>1756.48438</ele>
        <time>2021-07-02T09:54:44Z</time>
      </trkpt>
      <trkpt lat="42.563705" lon="1.780122">
        <ele>1757.54395</ele>
        <time>2021-07-02T09:54:45Z</time>
      </trkpt>
      <trkpt lat="42.563694" lon="1.780285">
        <ele>1758.95337</ele>
        <time>2021-07-02T09:54:46Z</time>
      </trkpt>
      <trkpt lat="42.563709" lon="1.780446">
        <ele>1759.51929</ele>
        <time>2021-07-02T09:54:47Z</time>
      </trkpt>
      <trkpt lat="42.563736" lon="1.780537">
        <ele>1760.27295</ele>
        <time>2021-07-02T09:54:48Z</time>
      </trkpt>
      <trkpt lat="42.563801" lon="1.780642">
        <ele>1761.22070</ele>
        <time>2021-07-02T09:54:49Z</time>
      </trkpt>
      <trkpt lat="42.563885" lon="1.780740">
        <ele>1761.53345</ele>
        <time>2021-07-02T09:54:50Z</time>
      </trkpt>
      <trkpt lat="42.563953" lon="1.780818">
        <ele>1762.26025</ele>
        <time>2021-07-02T09:54:51Z</time>
      </trkpt>
      <trkpt lat="42.564026" lon="1.780906">
        <ele>1763.62988</ele>
        <time>2021-07-02T09:54:52Z</time>
      </trkpt>
      <trkpt lat="42.564026" lon="1.780906">
        <ele>1764.40625</ele>
        <time>2021-07-02T09:54:53Z</time>
      </trkpt>
      <trkpt lat="42.564140" lon="1.781077">
        <ele>1765.29248</ele>
        <time>2021-07-02T09:54:54Z</time>
      </trkpt>
      <trkpt lat="42.564220" lon="1.781216">
        <ele>1761.08325</ele>
        <time>2021-07-02T09:54:55Z</time>
      </trkpt>
      <trkpt lat="42.564297" lon="1.781388">
        <ele>1762.52441</ele>
        <time>2021-07-02T09:54:56Z</time>
      </trkpt>
      <trkpt lat="42.564358" lon="1.781523">
        <ele>1763.44092</ele>
        <time>2021-07-02T09:54:57Z</time>
      </trkpt>
      <trkpt lat="42.564453" lon="1.781752">
        <ele>1763.65869</ele>
        <time>2021-07-02T09:54:58Z</time>
      </trkpt>
      <trkpt lat="42.564491" lon="1.781844">
        <ele>1764.39404</ele>
        <time>2021-07-02T09:54:59Z</time>
      </trkpt>
      <trkpt lat="42.564514" lon="1.781917">
        <ele>1766.20361</ele>
        <time>2021-07-02T09:55:00Z</time>
      </trkpt>
      <trkpt lat="42.564514" lon="1.782044">
        <ele>1768.27490</ele>
        <time>2021-07-02T09:55:01Z</time>
      </trkpt>
      <trkpt lat="42.564510" lon="1.782061">
        <ele>1768.95557</ele>
        <time>2021-07-02T09:55:02Z</time>
      </trkpt>
      <trkpt lat="42.564438" lon="1.782134">
        <ele>1770.94971</ele>
        <time>2021-07-02T09:55:03Z</time>
      </trkpt>
      <trkpt lat="42.564358" lon="1.782128">
        <ele>1771.98193</ele>
        <time>2021-07-02T09:55:04Z</time>
      </trkpt>
      <trkpt lat="42.564281" lon="1.782006">
        <ele>1774.70752</ele>
        <time>2021-07-02T09:55:05Z</time>
      </trkpt>
      <trkpt lat="42.564259" lon="1.781913">
        <ele>1773.95801</ele>
        <time>2021-07-02T09:55:06Z</time>
      </trkpt>
      <trkpt lat="42.564159" lon="1.781665">
        <ele>1776.28613</ele>
        <time>2021-07-02T09:55:07Z</time>
      </trkpt>
      <trkpt lat="42.564102" lon="1.781564">
        <ele>1777.46484</ele>
        <time>2021-07-02T09:55:08Z</time>
      </trkpt>
      <trkpt lat="42.563995" lon="1.781428">
        <ele>1779.72656</ele>
        <time>2021-07-02T09:55:09Z</time>
      </trkpt>
      <trkpt lat="42.563881" lon="1.781325">
        <ele>1780.27246</ele>
        <time>2021-07-02T09:55:10Z</time>
      </trkpt>
      <trkpt lat="42.563774" lon="1.781255">
        <ele>1781.34424</ele>
        <time>2021-07-02T09:55:11Z</time>
      </trkpt>
      <trkpt lat="42.563637" lon="1.781211">
        <ele>1782.30176</ele>
        <time>2021-07-02T09:55:12Z</time>
      </trkpt>
      <trkpt lat="42.563526" lon="1.781186">
        <ele>1782.10156</ele>
        <time>2021-07-02T09:55:13Z</time>
      </trkpt>
      <trkpt lat="42.563416" lon="1.781180">
        <ele>1785.27979</ele>
        <time>2021-07-02T09:55:14Z</time>
      </trkpt>
      <trkpt lat="42.563320" lon="1.781144">
        <ele>1785.26636</ele>
        <time>2021-07-02T09:55:15Z</time>
      </trkpt>
      <trkpt lat="42.563244" lon="1.781083">
        <ele>1785.75244</ele>
        <time>2021-07-02T09:55:16Z</time>
      </trkpt>
      <trkpt lat="42.563194" lon="1.780986">
        <ele>1784.99854</ele>
        <time>2021-07-02T09:55:17Z</time>
      </trkpt>
      <trkpt lat="42.563171" lon="1.780912">
        <ele>1785.97998</ele>
        <time>2021-07-02T09:55:18Z</time>
      </trkpt>
      <trkpt lat="42.563145" lon="1.780740">
        <ele>1788.29248</ele>
        <time>2021-07-02T09:55:19Z</time>
      </trkpt>
      <trkpt lat="42.563122" lon="1.780526">
        <ele>1789.89624</ele>
        <time>2021-07-02T09:55:20Z</time>
      </trkpt>
      <trkpt lat="42.563099" lon="1.780328">
        <ele>1790.39062</ele>
        <time>2021-07-02T09:55:21Z</time>
      </trkpt>
      <trkpt lat="42.563080" lon="1.780169">
        <ele>1790.80396</ele>
        <time>2021-07-02T09:55:22Z</time>
      </trkpt>
      <trkpt lat="42.563042" lon="1.780000">
        <ele>1791.99902</ele>
        <time>2021-07-02T09:55:23Z</time>
      </trkpt>
      <trkpt lat="42.562973" lon="1.779823">
        <ele>1792.15381</ele>
        <time>2021-07-02T09:55:24Z</time>
      </trkpt>
      <trkpt lat="42.562973" lon="1.779823">
        <ele>1794.50586</ele>
        <time>2021-07-02T09:55:25Z</time>
      </trkpt>
      <trkpt lat="42.562885" lon="1.779687">
        <ele>1794.62598</ele>
        <time>2021-07-02T09:55:26Z</time>
      </trkpt>
      <trkpt lat="42.562794" lon="1.779578">
        <ele>1796.71460</ele>
        <time>2021-07-02T09:55:27Z</time>
      </trkpt>
      <trkpt lat="42.562572" lon="1.779314">
        <ele>1798.52441</ele>
        <time>2021-07-02T09:55:28Z</time>
      </trkpt>
      <trkpt lat="42.562424" lon="1.779135">
        <ele>1799.79785</ele>
        <time>2021-07-02T09:55:29Z</time>
      </trkpt>
      <trkpt lat="42.562263" lon="1.778941">
        <ele>1800.91235</ele>
        <time>2021-07-02T09:55:30Z</time>
      </trkpt>
      <trkpt lat="42.562080" lon="1.778730">
        <ele>1803.50537</ele>
        <time>2021-07-02T09:55:31Z</time>
      </trkpt>
      <trkpt lat="42.561928" lon="1.778604">
        <ele>1804.92822</ele>
        <time>2021-07-02T09:55:32Z</time>
      </trkpt>
      <trkpt lat="42.561741" lon="1.778520">
        <ele>1805.73633</ele>
        <time>2021-07-02T09:55:33Z</time>
      </trkpt>
      <trkpt lat="42.561516" lon="1.778475">
        <ele>1807.84155</ele>
        <time>2021-07-02T09:55:34Z</time>
      </trkpt>
      <trkpt lat="42.561291" lon="1.778442">
        <ele>1809.15308</ele>
        <time>2021-07-02T09:55:35Z</time>
      </trkpt>
      <trkpt lat="42.561066" lon="1.778410">
        <ele>1808.72266</ele>
        <time>2021-07-02T09:55:36Z</time>
      </trkpt>
      <trkpt lat="42.560886" lon="1.778385">
        <ele>1809.10156</ele>
        <time>2021-07-02T09:55:37Z</time>
      </trkpt>
      <trkpt lat="42.560745" lon="1.778339">
        <ele>1808.10449</ele>
        <time>2021-07-02T09:55:38Z</time>
      </trkpt>
      <trkpt lat="42.560658" lon="1.778277">
        <ele>1805.22021</ele>
        <time>2021-07-02T09:55:39Z</time>
      </trkpt>
      <trkpt lat="42.560577" lon="1.778106">
        <ele>1809.77490</ele>
        <time>2021-07-02T09:55:40Z</time>
      </trkpt>
      <trkpt lat="42.560574" lon="1.778033">
        <ele>1810.14087</ele>
        <time>2021-07-02T09:55:41Z</time>
      </trkpt>
      <trkpt lat="42.560581" lon="1.777965">
        <ele>1810.15869</ele>
        <time>2021-07-02T09:55:42Z</time>
      </trkpt>
      <trkpt lat="42.560635" lon="1.777824">
        <ele>1812.28247</ele>
        <time>2021-07-02T09:55:43Z</time>
      </trkpt>
      <trkpt lat="42.560734" lon="1.777725">
        <ele>1811.89941</ele>
        <time>2021-07-02T09:55:44Z</time>
      </trkpt>
      <trkpt lat="42.560841" lon="1.777645">
        <ele>1812.32568</ele>
        <time>2021-07-02T09:55:45Z</time>
      </trkpt>
      <trkpt lat="42.560974" lon="1.777516">
        <ele>1814.51025</ele>
        <time>2021-07-02T09:55:46Z</time>
      </trkpt>
      <trkpt lat="42.561085" lon="1.777303">
        <ele>1816.01587</ele>
        <time>2021-07-02T09:55:47Z</time>
      </trkpt>
      <trkpt lat="42.561192" lon="1.777069">
        <ele>1816.96289</ele>
        <time>2021-07-02T09:55:48Z</time>
      </trkpt>
      <trkpt lat="42.561214" lon="1.776859">
        <ele>1818.98145</ele>
        <time>2021-07-02T09:55:49Z</time>
      </trkpt>
      <trkpt lat="42.561188" lon="1.776683">
        <ele>1819.04883</ele>
        <time>2021-07-02T09:55:50Z</time>
      </trkpt>
      <trkpt lat="42.561092" lon="1.776483">
        <ele>1820.57275</ele>
        <time>2021-07-02T09:55:51Z</time>
      </trkpt>
      <trkpt lat="42.560944" lon="1.776296">
        <ele>1821.52832</ele>
        <time>2021-07-02T09:55:52Z</time>
      </trkpt>
      <trkpt lat="42.560825" lon="1.776166">
        <ele>1822.44019</ele>
        <time>2021-07-02T09:55:53Z</time>
      </trkpt>
      <trkpt lat="42.560764" lon="1.776001">
        <ele>1822.91895</ele>
        <time>2021-07-02T09:55:54Z</time>
      </trkpt>
      <trkpt lat="42.560764" lon="1.776001">
        <ele>1823.98438</ele>
        <time>2021-07-02T09:55:55Z</time>
      </trkpt>
      <trkpt lat="42.560787" lon="1.775832">
        <ele>1825.65918</ele>
        <time>2021-07-02T09:55:56Z</time>
      </trkpt>
      <trkpt lat="42.560814" lon="1.775764">
        <ele>1828.33398</ele>
        <time>2021-07-02T09:55:57Z</time>
      </trkpt>
      <trkpt lat="42.560883" lon="1.775603">
        <ele>1830.80078</ele>
        <time>2021-07-02T09:55:58Z</time>
      </trkpt>
      <trkpt lat="42.560951" lon="1.775387">
        <ele>1831.23926</ele>
        <time>2021-07-02T09:55:59Z</time>
      </trkpt>
      <trkpt lat="42.560966" lon="1.775228">
        <ele>1832.19336</ele>
        <time>2021-07-02T09:56:00Z</time>
      </trkpt>
      <trkpt lat="42.560959" lon="1.775089">
        <ele>1833.02881</ele>
        <time>2021-07-02T09:56:01Z</time>
      </trkpt>
      <trkpt lat="42.560928" lon="1.774949">
        <ele>1834.03320</ele>
        <time>2021-07-02T09:56:02Z</time>
      </trkpt>
      <trkpt lat="42.560879" lon="1.774742">
        <ele>1835.36230</ele>
        <time>2021-07-02T09:56:03Z</time>
      </trkpt>
      <trkpt lat="42.560822" lon="1.774531">
        <ele>1835.93750</ele>
        <time>2021-07-02T09:56:04Z</time>
      </trkpt>
      <trkpt lat="42.560783" lon="1.774394">
        <ele>1836.93506</ele>
        <time>2021-07-02T09:56:05Z</time>
      </trkpt>
      <trkpt lat="42.560738" lon="1.774228">
        <ele>1837.68213</ele>
        <time>2021-07-02T09:56:06Z</time>
      </trkpt>
      <trkpt lat="42.560692" lon="1.774067">
        <ele>1838.27539</ele>
        <time>2021-07-02T09:56:07Z</time>
      </trkpt>
      <trkpt lat="42.560642" lon="1.773897">
        <ele>1838.89258</ele>
        <time>2021-07-02T09:56:08Z</time>
      </trkpt>
      <trkpt lat="42.560600" lon="1.773741">
        <ele>1839.40723</ele>
        <time>2021-07-02T09:56:09Z</time>
      </trkpt>
      <trkpt lat="42.560555" lon="1.773580">
        <ele>1840.50513</ele>
        <time>2021-07-02T09:56:10Z</time>
      </trkpt>
      <trkpt lat="42.560509" lon="1.773409">
        <ele>1841.20312</ele>
        <time>2021-07-02T09:56:11Z</time>
      </trkpt>
      <trkpt lat="42.560455" lon="1.773227">
        <ele>1842.21582</ele>
        <time>2021-07-02T09:56:12Z</time>
      </trkpt>
      <trkpt lat="42.560410" lon="1.773061">
        <ele>1843.37988</ele>
        <time>2021-07-02T09:56:13Z</time>
      </trkpt>
      <trkpt lat="42.560364" lon="1.772885">
        <ele>1843.46045</ele>
        <time>2021-07-02T09:56:14Z</time>
      </trkpt>
      <trkpt lat="42.560310" lon="1.772693">
        <ele>1844.71094</ele>
        <time>2021-07-02T09:56:15Z</time>
      </trkpt>
      <trkpt lat="42.560257" lon="1.772509">
        <ele>1845.52441</ele>
        <time>2021-07-02T09:56:16Z</time>
      </trkpt>
      <trkpt lat="42.560192" lon="1.772333">
        <ele>1846.79980</ele>
        <time>2021-07-02T09:56:17Z</time>
      </trkpt>
      <trkpt lat="42.560081" lon="1.772153">
        <ele>1847.07056</ele>
        <time>2021-07-02T09:56:18Z</time>
      </trkpt>
      <trkpt lat="42.559937" lon="1.771975">
        <ele>1848.16626</ele>
        <time>2021-07-02T09:56:19Z</time>
      </trkpt>
      <trkpt lat="42.559750" lon="1.771781">
        <ele>1850.29492</ele>
        <time>2021-07-02T09:56:20Z</time>
      </trkpt>
      <trkpt lat="42.559570" lon="1.771594">
        <ele>1851.11816</ele>
        <time>2021-07-02T09:56:21Z</time>
      </trkpt>
      <trkpt lat="42.559414" lon="1.771434">
        <ele>1852.99072</ele>
        <time>2021-07-02T09:56:22Z</time>
      </trkpt>
      <trkpt lat="42.559258" lon="1.771274">
        <ele>1853.95166</ele>
        <time>2021-07-02T09:56:23Z</time>
      </trkpt>
      <trkpt lat="42.559124" lon="1.771136">
        <ele>1855.14404</ele>
        <time>2021-07-02T09:56:24Z</time>
      </trkpt>
      <trkpt lat="42.558987" lon="1.771019">
        <ele>1856.69019</ele>
        <time>2021-07-02T09:56:25Z</time>
      </trkpt>
      <trkpt lat="42.558834" lon="1.770930">
        <ele>1857.85498</ele>
        <time>2021-07-02T09:56:26Z</time>
      </trkpt>
      <trkpt lat="42.558674" lon="1.770840">
        <ele>1858.29053</ele>
        <time>2021-07-02T09:56:27Z</time>
      </trkpt>
      <trkpt lat="42.558674" lon="1.770840">
        <ele>1858.71777</ele>
        <time>2021-07-02T09:56:28Z</time>
      </trkpt>
      <trkpt lat="42.558514" lon="1.770739">
        <ele>1860.61279</ele>
        <time>2021-07-02T09:56:29Z</time>
      </trkpt>
      <trkpt lat="42.558395" lon="1.770592">
        <ele>1861.66553</ele>
        <time>2021-07-02T09:56:30Z</time>
      </trkpt>
      <trkpt lat="42.558311" lon="1.770422">
        <ele>1863.38525</ele>
        <time>2021-07-02T09:56:31Z</time>
      </trkpt>
      <trkpt lat="42.558247" lon="1.770243">
        <ele>1864.74023</ele>
        <time>2021-07-02T09:56:32Z</time>
      </trkpt>
      <trkpt lat="42.558178" lon="1.770053">
        <ele>1865.14697</ele>
        <time>2021-07-02T09:56:33Z</time>
      </trkpt>
      <trkpt lat="42.558125" lon="1.769922">
        <ele>1866.85352</ele>
        <time>2021-07-02T09:56:34Z</time>
      </trkpt>
      <trkpt lat="42.558044" lon="1.769772">
        <ele>1865.89600</ele>
        <time>2021-07-02T09:56:35Z</time>
      </trkpt>
      <trkpt lat="42.557941" lon="1.769641">
        <ele>1867.85474</ele>
        <time>2021-07-02T09:56:36Z</time>
      </trkpt>
      <trkpt lat="42.557804" lon="1.769503">
        <ele>1868.44482</ele>
        <time>2021-07-02T09:56:37Z</time>
      </trkpt>
      <trkpt lat="42.557671" lon="1.769382">
        <ele>1868.17310</ele>
        <time>2021-07-02T09:56:38Z</time>
      </trkpt>
      <trkpt lat="42.557549" lon="1.769285">
        <ele>1868.70630</ele>
        <time>2021-07-02T09:56:39Z</time>
      </trkpt>
      <trkpt lat="42.557449" lon="1.769203">
        <ele>1870.23096</ele>
        <time>2021-07-02T09:56:40Z</time>
      </trkpt>
      <trkpt lat="42.557354" lon="1.769121">
        <ele>1871.16162</ele>
        <time>2021-07-02T09:56:41Z</time>
      </trkpt>
      <trkpt lat="42.557247" lon="1.769040">
        <ele>1871.84497</ele>
        <time>2021-07-02T09:56:42Z</time>
      </trkpt>
      <trkpt lat="42.557137" lon="1.768996">
        <ele>1870.08887</ele>
        <time>2021-07-02T09:56:43Z</time>
      </trkpt>
      <trkpt lat="42.557045" lon="1.768966">
        <ele>1870.56104</ele>
        <time>2021-07-02T09:56:44Z</time>
      </trkpt>
      <trkpt lat="42.556950" lon="1.768928">
        <ele>1870.44434</ele>
        <time>2021-07-02T09:56:45Z</time>
      </trkpt>
      <trkpt lat="42.556862" lon="1.768866">
        <ele>1873.20288</ele>
        <time>2021-07-02T09:56:46Z</time>
      </trkpt>
      <trkpt lat="42.556805" lon="1.768791">
        <ele>1873.77637</ele>
        <time>2021-07-02T09:56:47Z</time>
      </trkpt>
      <trkpt lat="42.556770" lon="1.768686">
        <ele>1874.91064</ele>
        <time>2021-07-02T09:56:48Z</time>
      </trkpt>
      <trkpt lat="42.556774" lon="1.768575">
        <ele>1875.03467</ele>
        <time>2021-07-02T09:56:49Z</time>
      </trkpt>
      <trkpt lat="42.556805" lon="1.768449">
        <ele>1875.19238</ele>
        <time>2021-07-02T09:56:50Z</time>
      </trkpt>
      <trkpt lat="42.556870" lon="1.768264">
        <ele>1876.86133</ele>
        <time>2021-07-02T09:56:51Z</time>
      </trkpt>
      <trkpt lat="42.556961" lon="1.768087">
        <ele>1877.47998</ele>
        <time>2021-07-02T09:56:52Z</time>
      </trkpt>
      <trkpt lat="42.557034" lon="1.767977">
        <ele>1878.71948</ele>
        <time>2021-07-02T09:56:53Z</time>
      </trkpt>
      <trkpt lat="42.557098" lon="1.767883">
        <ele>1879.19141</ele>
        <time>2021-07-02T09:56:54Z</time>
      </trkpt>
      <trkpt lat="42.557182" lon="1.767790">
        <ele>1879.93359</ele>
        <time>2021-07-02T09:56:55Z</time>
      </trkpt>
      <trkpt lat="42.557255" lon="1.767706">
        <ele>1880.07153</ele>
        <time>2021-07-02T09:56:56Z</time>
      </trkpt>
      <trkpt lat="42.557331" lon="1.767619">
        <ele>1879.28296</ele>
        <time>2021-07-02T09:56:57Z</time>
      </trkpt>
      <trkpt lat="42.557415" lon="1.767539">
        <ele>1879.65503</ele>
        <time>2021-07-02T09:56:58Z</time>
      </trkpt>
      <trkpt lat="42.557564" lon="1.767444">
        <ele>1879.23242</ele>
        <time>2021-07-02T09:56:59Z</time>
      </trkpt>
      <trkpt lat="42.557701" lon="1.767379">
        <ele>1879.63721</ele>
        <time>2021-07-02T09:57:00Z</time>
      </trkpt>
      <trkpt lat="42.557823" lon="1.767320">
        <ele>1880.74023</ele>
        <time>2021-07-02T09:57:01Z</time>
      </trkpt>
      <trkpt lat="42.557999" lon="1.767239">
        <ele>1882.16406</ele>
        <time>2021-07-02T09:57:02Z</time>
      </trkpt>
      <trkpt lat="42.557999" lon="1.767239">
        <ele>1883.07129</ele>
        <time>2021-07-02T09:57:03Z</time>
      </trkpt>
      <trkpt lat="42.558155" lon="1.767172">
        <ele>1882.56982</ele>
        <time>2021-07-02T09:57:04Z</time>
      </trkpt>
      <trkpt lat="42.558311" lon="1.767143">
        <ele>1883.12549</ele>
        <time>2021-07-02T09:57:05Z</time>
      </trkpt>
      <trkpt lat="42.558468" lon="1.767121">
        <ele>1884.22900</ele>
        <time>2021-07-02T09:57:06Z</time>
      </trkpt>
      <trkpt lat="42.558601" lon="1.767073">
        <ele>1884.46729</ele>
        <time>2021-07-02T09:57:07Z</time>
      </trkpt>
      <trkpt lat="42.558765" lon="1.766953">
        <ele>1885.98706</ele>
        <time>2021-07-02T09:57:08Z</time>
      </trkpt>
      <trkpt lat="42.558899" lon="1.766820">
        <ele>1886.60693</ele>
        <time>2021-07-02T09:57:09Z</time>
      </trkpt>
      <trkpt lat="42.559010" lon="1.766694">
        <ele>1887.11426</ele>
        <time>2021-07-02T09:57:10Z</time>
      </trkpt>
      <trkpt lat="42.559120" lon="1.766580">
        <ele>1887.76270</ele>
        <time>2021-07-02T09:57:11Z</time>
      </trkpt>
      <trkpt lat="42.559231" lon="1.766476">
        <ele>1889.27686</ele>
        <time>2021-07-02T09:57:12Z</time>
      </trkpt>
      <trkpt lat="42.559345" lon="1.766370">
        <ele>1890.11963</ele>
        <time>2021-07-02T09:57:13Z</time>
      </trkpt>
      <trkpt lat="42.559467" lon="1.766270">
        <ele>1891.41016</ele>
        <time>2021-07-02T09:57:14Z</time>
      </trkpt>
      <trkpt lat="42.559628" lon="1.766164">
        <ele>1893.56836</ele>
        <time>2021-07-02T09:57:15Z</time>
      </trkpt>
      <trkpt lat="42.559769" lon="1.766082">
        <ele>1893.61719</ele>
        <time>2021-07-02T09:57:16Z</time>
      </trkpt>
      <trkpt lat="42.559891" lon="1.765973">
        <ele>1895.87476</ele>
        <time>2021-07-02T09:57:17Z</time>
      </trkpt>
      <trkpt lat="42.560024" lon="1.765823">
        <ele>1898.56104</ele>
        <time>2021-07-02T09:57:18Z</time>
      </trkpt>
      <trkpt lat="42.560120" lon="1.765669">
        <ele>1899.86401</ele>
        <time>2021-07-02T09:57:19Z</time>
      </trkpt>
      <trkpt lat="42.560200" lon="1.765489">
        <ele>1900.51562</ele>
        <time>2021-07-02T09:57:20Z</time>
      </trkpt>
      <trkpt lat="42.560246" lon="1.765333">
        <ele>1901.66162</ele>
        <time>2021-07-02T09:57:21Z</time>
      </trkpt>
      <trkpt lat="42.560272" lon="1.765154">
        <ele>1903.55933</ele>
        <time>2021-07-02T09:57:22Z</time>
      </trkpt>
      <trkpt lat="42.560291" lon="1.764924">
        <ele>1904.44580</ele>
        <time>2021-07-02T09:57:23Z</time>
      </trkpt>
      <trkpt lat="42.560307" lon="1.764709">
        <ele>1905.84424</ele>
        <time>2021-07-02T09:57:24Z</time>
      </trkpt>
      <trkpt lat="42.560329" lon="1.764519">
        <ele>1906.32666</ele>
        <time>2021-07-02T09:57:25Z</time>
      </trkpt>
      <trkpt lat="42.560352" lon="1.764322">
        <ele>1907.18701</ele>
        <time>2021-07-02T09:57:26Z</time>
      </trkpt>
      <trkpt lat="42.560379" lon="1.764123">
        <ele>1908.62207</ele>
        <time>2021-07-02T09:57:27Z</time>
      </trkpt>
      <trkpt lat="42.560406" lon="1.763912">
        <ele>1908.68994</ele>
        <time>2021-07-02T09:57:28Z</time>
      </trkpt>
      <trkpt lat="42.560432" lon="1.763691">
        <ele>1910.31470</ele>
        <time>2021-07-02T09:57:29Z</time>
      </trkpt>
      <trkpt lat="42.560444" lon="1.763475">
        <ele>1910.80615</ele>
        <time>2021-07-02T09:57:30Z</time>
      </trkpt>
      <trkpt lat="42.560452" lon="1.763223">
        <ele>1912.80664</ele>
        <time>2021-07-02T09:57:31Z</time>
      </trkpt>
      <trkpt lat="42.560448" lon="1.762992">
        <ele>1913.91431</ele>
        <time>2021-07-02T09:57:32Z</time>
      </trkpt>
      <trkpt lat="42.560444" lon="1.762755">
        <ele>1914.60547</ele>
        <time>2021-07-02T09:57:33Z</time>
      </trkpt>
      <trkpt lat="42.560440" lon="1.762535">
        <ele>1916.00439</ele>
        <time>2021-07-02T09:57:34Z</time>
      </trkpt>
      <trkpt lat="42.560432" lon="1.762294">
        <ele>1917.75977</ele>
        <time>2021-07-02T09:57:35Z</time>
      </trkpt>
      <trkpt lat="42.560432" lon="1.762294">
        <ele>1919.15039</ele>
        <time>2021-07-02T09:57:36Z</time>
      </trkpt>
      <trkpt lat="42.560429" lon="1.762068">
        <ele>1918.97363</ele>
        <time>2021-07-02T09:57:37Z</time>
      </trkpt>
      <trkpt lat="42.560425" lon="1.761831">
        <ele>1918.82227</ele>
        <time>2021-07-02T09:57:38Z</time>
      </trkpt>
      <trkpt lat="42.560417" lon="1.761588">
        <ele>1919.60742</ele>
        <time>2021-07-02T09:57:39Z</time>
      </trkpt>
      <trkpt lat="42.560413" lon="1.761365">
        <ele>1922.15601</ele>
        <time>2021-07-02T09:57:40Z</time>
      </trkpt>
      <trkpt lat="42.560410" lon="1.761159">
        <ele>1924.15527</ele>
        <time>2021-07-02T09:57:41Z</time>
      </trkpt>
      <trkpt lat="42.560413" lon="1.760963">
        <ele>1925.27393</ele>
        <time>2021-07-02T09:57:42Z</time>
      </trkpt>
      <trkpt lat="42.560417" lon="1.760753">
        <ele>1927.37622</ele>
        <time>2021-07-02T09:57:43Z</time>
      </trkpt>
      <trkpt lat="42.560413" lon="1.760551">
        <ele>1928.72998</ele>
        <time>2021-07-02T09:57:44Z</time>
      </trkpt>
      <trkpt lat="42.560413" lon="1.760338">
        <ele>1929.75098</ele>
        <time>2021-07-02T09:57:45Z</time>
      </trkpt>
      <trkpt lat="42.560402" lon="1.760109">
        <ele>1930.36841</ele>
        <time>2021-07-02T09:57:46Z</time>
      </trkpt>
      <trkpt lat="42.560368" lon="1.759901">
        <ele>1930.86841</ele>
        <time>2021-07-02T09:57:47Z</time>
      </trkpt>
      <trkpt lat="42.560322" lon="1.759685">
        <ele>1931.04199</ele>
        <time>2021-07-02T09:57:48Z</time>
      </trkpt>
      <trkpt lat="42.560268" lon="1.759493">
        <ele>1931.45142</ele>
        <time>2021-07-02T09:57:49Z</time>
      </trkpt>
      <trkpt lat="42.560215" lon="1.759304">
        <ele>1931.48901</ele>
        <time>2021-07-02T09:57:50Z</time>
      </trkpt>
      <trkpt lat="42.560165" lon="1.759131">
        <ele>1931.58398</ele>
        <time>2021-07-02T09:57:51Z</time>
      </trkpt>
      <trkpt lat="42.560120" lon="1.758963">
        <ele>1931.98730</ele>
        <time>2021-07-02T09:57:52Z</time>
      </trkpt>
      <trkpt lat="42.560070" lon="1.758785">
        <ele>1933.12207</ele>
        <time>2021-07-02T09:57:53Z</time>
      </trkpt>
      <trkpt lat="42.560024" lon="1.758625">
        <ele>1933.84766</ele>
        <time>2021-07-02T09:57:54Z</time>
      </trkpt>
      <trkpt lat="42.559986" lon="1.758495">
        <ele>1935.81934</ele>
        <time>2021-07-02T09:57:55Z</time>
      </trkpt>
      <trkpt lat="42.559944" lon="1.758362">
        <ele>1935.00366</ele>
        <time>2021-07-02T09:57:56Z</time>
      </trkpt>
      <trkpt lat="42.559898" lon="1.758240">
        <ele>1934.71582</ele>
        <time>2021-07-02T09:57:57Z</time>
      </trkpt>
      <trkpt lat="42.559856" lon="1.758128">
        <ele>1935.54224</ele>
        <time>2021-07-02T09:57:58Z</time>
      </trkpt>
      <trkpt lat="42.559822" lon="1.758015">
        <ele>1935.59985</ele>
        <time>2021-07-02T09:57:59Z</time>
      </trkpt>
      <trkpt lat="42.559792" lon="1.757906">
        <ele>1936.52246</ele>
        <time>2021-07-02T09:58:00Z</time>
      </trkpt>
      <trkpt lat="42.559769" lon="1.757803">
        <ele>1937.62988</ele>
        <time>2021-07-02T09:58:01Z</time>
      </trkpt>
      <trkpt lat="42.559750" lon="1.757694">
        <ele>1938.18262</ele>
        <time>2021-07-02T09:58:02Z</time>
      </trkpt>
      <trkpt lat="42.559731" lon="1.757591">
        <ele>1937.23682</ele>
        <time>2021-07-02T09:58:03Z</time>
      </trkpt>
      <trkpt lat="42.559723" lon="1.757485">
        <ele>1937.74146</ele>
        <time>2021-07-02T09:58:04Z</time>
      </trkpt>
      <trkpt lat="42.559723" lon="1.757485">
        <ele>1939.02637</ele>
        <time>2021-07-02T09:58:05Z</time>
      </trkpt>
      <trkpt lat="42.559719" lon="1.757429">
        <ele>1939.40723</ele>
        <time>2021-07-02T09:58:06Z</time>
      </trkpt>
      <trkpt lat="42.559719" lon="1.757384">
        <ele>1938.96875</ele>
        <time>2021-07-02T09:58:07Z</time>
      </trkpt>
      <trkpt lat="42.559723" lon="1.757341">
        <ele>1939.84082</ele>
        <time>2021-07-02T09:58:08Z</time>
      </trkpt>
      <trkpt lat="42.559727" lon="1.757289">
        <ele>1939.70264</ele>
        <time>2021-07-02T09:58:09Z</time>
      </trkpt>
      <trkpt lat="42.559731" lon="1.757249">
        <ele>1938.09473</ele>
        <time>2021-07-02T09:58:10Z</time>
      </trkpt>
      <trkpt lat="42.559734" lon="1.757210">
        <ele>1938.27344</ele>
        <time>2021-07-02T09:58:11Z</time>
      </trkpt>
      <trkpt lat="42.559734" lon="1.757200">
        <ele>1938.91064</ele>
        <time>2021-07-02T09:58:12Z</time>
      </trkpt>
      <trkpt lat="42.559734" lon="1.757194">
        <ele>1939.15576</ele>
        <time>2021-07-02T09:58:13Z</time>
      </trkpt>
      <trkpt lat="42.559734" lon="1.757194">
        <ele>1940.55078</ele>
        <time>2021-07-02T09:58:14Z</time>
      </trkpt>
      <trkpt lat="42.559734" lon="1.757194">
        <ele>1940.87646</ele>
        <time>2021-07-02T09:58:15Z</time>
      </trkpt>
      <trkpt lat="42.559734" lon="1.757194">
        <ele>1941.43701</ele>
        <time>2021-07-02T09:58:16Z</time>
      </trkpt>
      <trkpt lat="42.559734" lon="1.757194">
        <ele>1941.10229</ele>
        <time>2021-07-02T09:58:17Z</time>
      </trkpt>
      <trkpt lat="42.559734" lon="1.757194">
        <ele>1941.69873</ele>
        <time>2021-07-02T09:58:18Z</time>
      </trkpt>
      <trkpt lat="42.559734" lon="1.757194">
        <ele>1933.55212</ele>
        <time>2021-07-02T09:58:19Z</time>
      </trkpt>
      <trkpt lat="42.559734" lon="1.757194">
        <ele>1938.51660</ele>
        <time>2021-07-02T09:58:20Z</time>
      </trkpt>
      <trkpt lat="42.559734" lon="1.757194">
        <ele>1940.02881</ele>
        <time>2021-07-02T09:58:21Z</time>
      </trkpt>
      <trkpt lat="42.559734" lon="1.757194">
        <ele>1933.84595</ele>
        <time>2021-07-02T09:58:22Z</time>
      </trkpt>
      <trkpt lat="42.559734" lon="1.757194">
        <ele>1938.16284</ele>
        <time>2021-07-02T09:58:23Z</time>
      </trkpt>
      <trkpt lat="42.559734" lon="1.757194">
        <ele>1938.90283</ele>
        <time>2021-07-02T09:58:24Z</time>
      </trkpt>
      <trkpt lat="42.559734" lon="1.757194">
        <ele>1934.56677</ele>
        <time>2021-07-02T09:58:25Z</time>
      </trkpt>
      <trkpt lat="42.559734" lon="1.757194">
        <ele>1936.98560</ele>
        <time>2021-07-02T09:58:26Z</time>
      </trkpt>
      <trkpt lat="42.559734" lon="1.757194">
        <ele>1938.37061</ele>
        <time>2021-07-02T09:58:27Z</time>
      </trkpt>
      <trkpt lat="42.559734" lon="1.757194">
        <ele>1939.13818</ele>
        <time>2021-07-02T09:58:28Z</time>
      </trkpt>
      <trkpt lat="42.559734" lon="1.757194">
        <ele>1940.49414</ele>
        <time>2021-07-02T09:58:29Z</time>
      </trkpt>
      <trkpt lat="42.559734" lon="1.757194">
        <ele>1934.88123</ele>
        <time>2021-07-02T09:58:30Z</time>
      </trkpt>
      <trkpt lat="42.559734" lon="1.757194">
        <ele>1934.89197</ele>
        <time>2021-07-02T09:58:31Z</time>
      </trkpt>
      <trkpt lat="42.559734" lon="1.757194">
        <ele>1934.93567</ele>
        <time>2021-07-02T09:58:32Z</time>
      </trkpt>
      <trkpt lat="42.559734" lon="1.757194">
        <ele>1938.26343</ele>
        <time>2021-07-02T09:58:33Z</time>
      </trkpt>
      <trkpt lat="42.559734" lon="1.757194">
        <ele>1938.86377</ele>
        <time>2021-07-02T09:58:34Z</time>
      </trkpt>
      <trkpt lat="42.559734" lon="1.757194">
        <ele>1939.26221</ele>
        <time>2021-07-02T09:58:35Z</time>
      </trkpt>
      <trkpt lat="42.559734" lon="1.757194">
        <ele>1940.46338</ele>
        <time>2021-07-02T09:58:36Z</time>
      </trkpt>
      <trkpt lat="42.559734" lon="1.757194">
        <ele>1941.09741</ele>
        <time>2021-07-02T09:58:37Z</time>
      </trkpt>
      <trkpt lat="42.559734" lon="1.757194">
        <ele>1935.44995</ele>
        <time>2021-07-02T09:58:38Z</time>
      </trkpt>
      <trkpt lat="42.559734" lon="1.757194">
        <ele>1938.95898</ele>
        <time>2021-07-02T09:58:39Z</time>
      </trkpt>
      <trkpt lat="42.559734" lon="1.757194">
        <ele>1939.82739</ele>
        <time>2021-07-02T09:58:40Z</time>
      </trkpt>
      <trkpt lat="42.559734" lon="1.757194">
        <ele>1940.47070</ele>
        <time>2021-07-02T09:58:41Z</time>
      </trkpt>
      <trkpt lat="42.559734" lon="1.757194">
        <ele>1940.63940</ele>
        <time>2021-07-02T09:58:42Z</time>
      </trkpt>
      <trkpt lat="42.559734" lon="1.757194">
        <ele>1940.67822</ele>
        <time>2021-07-02T09:58:43Z</time>
      </trkpt>
      <trkpt lat="42.559734" lon="1.757194">
        <ele>1940.79932</ele>
        <time>2021-07-02T09:58:44Z</time>
      </trkpt>
      <trkpt lat="42.559734" lon="1.757194">
        <ele>1940.85669</ele>
        <time>2021-07-02T09:58:45Z</time>
      </trkpt>
      <trkpt lat="42.559734" lon="1.757194">
        <ele>1941.00415</ele>
        <time>2021-07-02T09:58:46Z</time>
      </trkpt>
      <trkpt lat="42.559734" lon="1.757194">
        <ele>1941.07422</ele>
        <time>2021-07-02T09:58:47Z</time>
      </trkpt>
      <trkpt lat="42.559734" lon="1.757194">
        <ele>1940.97021</ele>
        <time>2021-07-02T09:58:48Z</time>
      </trkpt>
      <trkpt lat="42.559734" lon="1.757194">
        <ele>1940.67139</ele>
        <time>2021-07-02T09:58:49Z</time>
      </trkpt>
      <trkpt lat="42.559734" lon="1.757194">
        <ele>1941.39331</ele>
        <time>2021-07-02T09:58:50Z</time>
      </trkpt>
      <trkpt lat="42.559734" lon="1.757194">
        <ele>1940.85034</ele>
        <time>2021-07-02T09:58:51Z</time>
      </trkpt>
      <trkpt lat="42.559731" lon="1.757138">
        <ele>1941.32471</ele>
        <time>2021-07-02T09:58:52Z</time>
      </trkpt>
      <trkpt lat="42.559731" lon="1.757138">
        <ele>1942.16211</ele>
        <time>2021-07-02T09:58:53Z</time>
      </trkpt>
      <trkpt lat="42.559727" lon="1.757091">
        <ele>1942.58203</ele>
        <time>2021-07-02T09:58:54Z</time>
      </trkpt>
      <trkpt lat="42.559727" lon="1.757080">
        <ele>1943.54688</ele>
        <time>2021-07-02T09:58:55Z</time>
      </trkpt>
      <trkpt lat="42.559723" lon="1.757043">
        <ele>1943.27930</ele>
        <time>2021-07-02T09:58:56Z</time>
      </trkpt>
      <trkpt lat="42.559723" lon="1.757017">
        <ele>1942.76953</ele>
        <time>2021-07-02T09:58:57Z</time>
      </trkpt>
      <trkpt lat="42.559719" lon="1.757006">
        <ele>1943.05396</ele>
        <time>2021-07-02T09:58:58Z</time>
      </trkpt>
      <trkpt lat="42.559719" lon="1.756980">
        <ele>1943.46387</ele>
        <time>2021-07-02T09:58:59Z</time>
      </trkpt>
      <trkpt lat="42.559715" lon="1.756961">
        <ele>1943.61353</ele>
        <time>2021-07-02T09:59:00Z</time>
      </trkpt>
      <trkpt lat="42.559715" lon="1.756960">
        <ele>1944.08447</ele>
        <time>2021-07-02T09:59:01Z</time>
      </trkpt>
      <trkpt lat="42.559715" lon="1.756960">
        <ele>1943.14746</ele>
        <time>2021-07-02T09:59:02Z</time>
      </trkpt>
      <trkpt lat="42.559715" lon="1.756960">
        <ele>1942.83911</ele>
        <time>2021-07-02T09:59:03Z</time>
      </trkpt>
      <trkpt lat="42.559715" lon="1.756960">
        <ele>1942.96338</ele>
        <time>2021-07-02T09:59:04Z</time>
      </trkpt>
      <trkpt lat="42.559715" lon="1.756957">
        <ele>1942.93604</ele>
        <time>2021-07-02T09:59:05Z</time>
      </trkpt>
      <trkpt lat="42.559704" lon="1.756910">
        <ele>1943.02124</ele>
        <time>2021-07-02T09:59:06Z</time>
      </trkpt>
      <trkpt lat="42.559696" lon="1.756884">
        <ele>1943.34766</ele>
        <time>2021-07-02T09:59:07Z</time>
      </trkpt>
      <trkpt lat="42.559692" lon="1.756860">
        <ele>1943.29272</ele>
        <time>2021-07-02T09:59:08Z</time>
      </trkpt>
      <trkpt lat="42.559689" lon="1.756836">
        <ele>1943.49561</ele>
        <time>2021-07-02T09:59:09Z</time>
      </trkpt>
      <trkpt lat="42.559681" lon="1.756810">
        <ele>1943.50122</ele>
        <time>2021-07-02T09:59:10Z</time>
      </trkpt>
      <trkpt lat="42.559677" lon="1.756787">
        <ele>1938.42163</ele>
        <time>2021-07-02T09:59:11Z</time>
      </trkpt>
      <trkpt lat="42.559669" lon="1.756756">
        <ele>1938.57397</ele>
        <time>2021-07-02T09:59:12Z</time>
      </trkpt>
      <trkpt lat="42.559662" lon="1.756724">
        <ele>1938.53259</ele>
        <time>2021-07-02T09:59:13Z</time>
      </trkpt>
      <trkpt lat="42.559654" lon="1.756691">
        <ele>1938.61572</ele>
        <time>2021-07-02T09:59:14Z</time>
      </trkpt>
      <trkpt lat="42.559650" lon="1.756670">
        <ele>1938.67114</ele>
        <time>2021-07-02T09:59:15Z</time>
      </trkpt>
      <trkpt lat="42.559647" lon="1.756657">
        <ele>1938.93762</ele>
        <time>2021-07-02T09:59:16Z</time>
      </trkpt>
      <trkpt lat="42.559643" lon="1.756643">
        <ele>1939.03503</ele>
        <time>2021-07-02T09:59:17Z</time>
      </trkpt>
      <trkpt lat="42.559635" lon="1.756612">
        <ele>1939.12390</ele>
        <time>2021-07-02T09:59:18Z</time>
      </trkpt>
      <trkpt lat="42.559628" lon="1.756571">
        <ele>1939.54065</ele>
        <time>2021-07-02T09:59:19Z</time>
      </trkpt>
      <trkpt lat="42.559616" lon="1.756528">
        <ele>1939.64038</ele>
        <time>2021-07-02T09:59:20Z</time>
      </trkpt>
      <trkpt lat="42.559605" lon="1.756467">
        <ele>1939.91846</ele>
        <time>2021-07-02T09:59:21Z</time>
      </trkpt>
      <trkpt lat="42.559586" lon="1.756399">
        <ele>1939.82166</ele>
        <time>2021-07-02T09:59:22Z</time>
      </trkpt>
      <trkpt lat="42.559570" lon="1.756342">
        <ele>1940.44165</ele>
        <time>2021-07-02T09:59:23Z</time>
      </trkpt>
      <trkpt lat="42.559551" lon="1.756274">
        <ele>1940.20288</ele>
        <time>2021-07-02T09:59:24Z</time>
      </trkpt>
      <trkpt lat="42.559525" lon="1.756164">
        <ele>1940.32800</ele>
        <time>2021-07-02T09:59:25Z</time>
      </trkpt>
      <trkpt lat="42.559494" lon="1.756073">
        <ele>1940.52197</ele>
        <time>2021-07-02T09:59:26Z</time>
      </trkpt>
      <trkpt lat="42.559452" lon="1.755981">
        <ele>1940.87427</ele>
        <time>2021-07-02T09:59:27Z</time>
      </trkpt>
      <trkpt lat="42.559452" lon="1.755981">
        <ele>1941.68823</ele>
        <time>2021-07-02T09:59:28Z</time>
      </trkpt>
      <trkpt lat="42.559410" lon="1.755915">
        <ele>1942.34241</ele>
        <time>2021-07-02T09:59:29Z</time>
      </trkpt>
      <trkpt lat="42.559361" lon="1.755858">
        <ele>1942.72559</ele>
        <time>2021-07-02T09:59:30Z</time>
      </trkpt>
      <trkpt lat="42.559322" lon="1.755823">
        <ele>1943.06738</ele>
        <time>2021-07-02T09:59:31Z</time>
      </trkpt>
      <trkpt lat="42.559273" lon="1.755771">
        <ele>1943.37378</ele>
        <time>2021-07-02T09:59:32Z</time>
      </trkpt>
      <trkpt lat="42.559242" lon="1.755694">
        <ele>1943.65942</ele>
        <time>2021-07-02T09:59:33Z</time>
      </trkpt>
      <trkpt lat="42.559219" lon="1.755593">
        <ele>1944.49536</ele>
        <time>2021-07-02T09:59:34Z</time>
      </trkpt>
      <trkpt lat="42.559196" lon="1.755499">
        <ele>1945.17822</ele>
        <time>2021-07-02T09:59:35Z</time>
      </trkpt>
      <trkpt lat="42.559166" lon="1.755377">
        <ele>1945.93677</ele>
        <time>2021-07-02T09:59:36Z</time>
      </trkpt>
      <trkpt lat="42.559135" lon="1.755248">
        <ele>1946.23218</ele>
        <time>2021-07-02T09:59:37Z</time>
      </trkpt>
      <trkpt lat="42.559101" lon="1.755106">
        <ele>1948.25757</ele>
        <time>2021-07-02T09:59:38Z</time>
      </trkpt>
      <trkpt lat="42.559071" lon="1.754955">
        <ele>1949.96680</ele>
        <time>2021-07-02T09:59:39Z</time>
      </trkpt>
      <trkpt lat="42.559036" lon="1.754773">
        <ele>1950.52393</ele>
        <time>2021-07-02T09:59:40Z</time>
      </trkpt>
      <trkpt lat="42.559006" lon="1.754585">
        <ele>1951.15137</ele>
        <time>2021-07-02T09:59:41Z</time>
      </trkpt>
      <trkpt lat="42.558964" lon="1.754389">
        <ele>1954.62903</ele>
        <time>2021-07-02T09:59:42Z</time>
      </trkpt>
      <trkpt lat="42.558937" lon="1.754166">
        <ele>1951.45947</ele>
        <time>2021-07-02T09:59:43Z</time>
      </trkpt>
      <trkpt lat="42.558933" lon="1.753923">
        <ele>1951.41699</ele>
        <time>2021-07-02T09:59:44Z</time>
      </trkpt>
      <trkpt lat="42.558941" lon="1.753657">
        <ele>1952.25146</ele>
        <time>2021-07-02T09:59:45Z</time>
      </trkpt>
      <trkpt lat="42.558922" lon="1.753405">
        <ele>1953.18677</ele>
        <time>2021-07-02T09:59:46Z</time>
      </trkpt>
      <trkpt lat="42.558891" lon="1.753145">
        <ele>1954.09619</ele>
        <time>2021-07-02T09:59:47Z</time>
      </trkpt>
      <trkpt lat="42.558861" lon="1.752868">
        <ele>1954.62695</ele>
        <time>2021-07-02T09:59:48Z</time>
      </trkpt>
      <trkpt lat="42.558819" lon="1.752586">
        <ele>1955.67261</ele>
        <time>2021-07-02T09:59:49Z</time>
      </trkpt>
      <trkpt lat="42.558777" lon="1.752299">
        <ele>1960.70508</ele>
        <time>2021-07-02T09:59:50Z</time>
      </trkpt>
      <trkpt lat="42.558746" lon="1.752061">
        <ele>1960.21265</ele>
        <time>2021-07-02T09:59:51Z</time>
      </trkpt>
      <trkpt lat="42.558743" lon="1.751864">
        <ele>1961.04309</ele>
        <time>2021-07-02T09:59:52Z</time>
      </trkpt>
      <trkpt lat="42.558781" lon="1.751679">
        <ele>1958.86523</ele>
        <time>2021-07-02T09:59:53Z</time>
      </trkpt>
      <trkpt lat="42.558846" lon="1.751463">
        <ele>1959.12524</ele>
        <time>2021-07-02T09:59:54Z</time>
      </trkpt>
      <trkpt lat="42.558853" lon="1.751210">
        <ele>1960.36035</ele>
        <time>2021-07-02T09:59:55Z</time>
      </trkpt>
      <trkpt lat="42.558849" lon="1.750969">
        <ele>1963.76550</ele>
        <time>2021-07-02T09:59:56Z</time>
      </trkpt>
      <trkpt lat="42.558849" lon="1.750698">
        <ele>1964.13538</ele>
        <time>2021-07-02T09:59:57Z</time>
      </trkpt>
      <trkpt lat="42.558853" lon="1.750495">
        <ele>1964.09375</ele>
        <time>2021-07-02T09:59:58Z</time>
      </trkpt>
      <trkpt lat="42.558872" lon="1.750310">
        <ele>1964.77148</ele>
        <time>2021-07-02T09:59:59Z</time>
      </trkpt>
      <trkpt lat="42.558903" lon="1.750191">
        <ele>1965.47949</ele>
        <time>2021-07-02T10:00:00Z</time>
      </trkpt>
      <trkpt lat="42.558903" lon="1.750191">
        <ele>1966.69629</ele>
        <time>2021-07-02T10:00:01Z</time>
      </trkpt>
      <trkpt lat="42.558933" lon="1.750061">
        <ele>1967.52148</ele>
        <time>2021-07-02T10:00:02Z</time>
      </trkpt>
      <trkpt lat="42.558945" lon="1.749933">
        <ele>1966.38049</ele>
        <time>2021-07-02T10:00:03Z</time>
      </trkpt>
      <trkpt lat="42.558941" lon="1.749779">
        <ele>1967.51624</ele>
        <time>2021-07-02T10:00:04Z</time>
      </trkpt>
      <trkpt lat="42.558918" lon="1.749586">
        <ele>1968.27588</ele>
        <time>2021-07-02T10:00:05Z</time>
      </trkpt>
      <trkpt lat="42.558887" lon="1.749389">
        <ele>1969.38257</ele>
        <time>2021-07-02T10:00:06Z</time>
      </trkpt>
      <trkpt lat="42.558861" lon="1.749200">
        <ele>1969.86218</ele>
        <time>2021-07-02T10:00:07Z</time>
      </trkpt>
      <trkpt lat="42.558823" lon="1.749026">
        <ele>1970.25208</ele>
        <time>2021-07-02T10:00:08Z</time>
      </trkpt>
      <trkpt lat="42.558781" lon="1.748856">
        <ele>1972.14209</ele>
        <time>2021-07-02T10:00:09Z</time>
      </trkpt>
      <trkpt lat="42.558739" lon="1.748674">
        <ele>1972.37097</ele>
        <time>2021-07-02T10:00:10Z</time>
      </trkpt>
      <trkpt lat="42.558697" lon="1.748495">
        <ele>1973.19739</ele>
        <time>2021-07-02T10:00:11Z</time>
      </trkpt>
      <trkpt lat="42.558643" lon="1.748319">
        <ele>1973.91455</ele>
        <time>2021-07-02T10:00:12Z</time>
      </trkpt>
      <trkpt lat="42.558578" lon="1.748140">
        <ele>1975.23462</ele>
        <time>2021-07-02T10:00:13Z</time>
      </trkpt>
      <trkpt lat="42.558502" lon="1.747965">
        <ele>1976.43958</ele>
        <time>2021-07-02T10:00:14Z</time>
      </trkpt>
      <trkpt lat="42.558399" lon="1.747801">
        <ele>1979.10486</ele>
        <time>2021-07-02T10:00:15Z</time>
      </trkpt>
      <trkpt lat="42.558285" lon="1.747637">
        <ele>1981.09265</ele>
        <time>2021-07-02T10:00:16Z</time>
      </trkpt>
      <trkpt lat="42.558163" lon="1.747470">
        <ele>1982.40430</ele>
        <time>2021-07-02T10:00:17Z</time>
      </trkpt>
      <trkpt lat="42.558044" lon="1.747300">
        <ele>1982.19910</ele>
        <time>2021-07-02T10:00:18Z</time>
      </trkpt>
      <trkpt lat="42.557911" lon="1.747111">
        <ele>1983.22961</ele>
        <time>2021-07-02T10:00:19Z</time>
      </trkpt>
      <trkpt lat="42.557774" lon="1.746923">
        <ele>1983.14453</ele>
        <time>2021-07-02T10:00:20Z</time>
      </trkpt>
      <trkpt lat="42.557644" lon="1.746754">
        <ele>1984.08423</ele>
        <time>2021-07-02T10:00:21Z</time>
      </trkpt>
      <trkpt lat="42.557507" lon="1.746574">
        <ele>1985.43213</ele>
        <time>2021-07-02T10:00:22Z</time>
      </trkpt>
      <trkpt lat="42.557377" lon="1.746421">
        <ele>1985.37085</ele>
        <time>2021-07-02T10:00:23Z</time>
      </trkpt>
      <trkpt lat="42.557259" lon="1.746281">
        <ele>1985.94751</ele>
        <time>2021-07-02T10:00:24Z</time>
      </trkpt>
      <trkpt lat="42.557129" lon="1.746125">
        <ele>1985.94751</ele>
        <time>2021-07-02T10:00:25Z</time>
      </trkpt>
      <trkpt lat="42.557129" lon="1.746125">
        <ele>1986.94006</ele>
        <time>2021-07-02T10:00:26Z</time>
      </trkpt>
      <trkpt lat="42.557014" lon="1.745960">
        <ele>1988.10168</ele>
        <time>2021-07-02T10:00:27Z</time>
      </trkpt>
      <trkpt lat="42.556908" lon="1.745799">
        <ele>1989.30969</ele>
        <time>2021-07-02T10:00:28Z</time>
      </trkpt>
      <trkpt lat="42.556805" lon="1.745628">
        <ele>1991.73169</ele>
        <time>2021-07-02T10:00:29Z</time>
      </trkpt>
      <trkpt lat="42.556686" lon="1.745437">
        <ele>1992.51489</ele>
        <time>2021-07-02T10:00:30Z</time>
      </trkpt>
      <trkpt lat="42.556580" lon="1.745277">
        <ele>1993.18921</ele>
        <time>2021-07-02T10:00:31Z</time>
      </trkpt>
      <trkpt lat="42.556435" lon="1.745104">
        <ele>1994.22607</ele>
        <time>2021-07-02T10:00:32Z</time>
      </trkpt>
      <trkpt lat="42.556301" lon="1.744948">
        <ele>1995.19751</ele>
        <time>2021-07-02T10:00:33Z</time>
      </trkpt>
      <trkpt lat="42.556175" lon="1.744799">
        <ele>1994.74866</ele>
        <time>2021-07-02T10:00:34Z</time>
      </trkpt>
      <trkpt lat="42.556046" lon="1.744651">
        <ele>1995.89441</ele>
        <time>2021-07-02T10:00:35Z</time>
      </trkpt>
      <trkpt lat="42.555916" lon="1.744499">
        <ele>1996.35852</ele>
        <time>2021-07-02T10:00:36Z</time>
      </trkpt>
      <trkpt lat="42.555782" lon="1.744344">
        <ele>1997.23840</ele>
        <time>2021-07-02T10:00:37Z</time>
      </trkpt>
      <trkpt lat="42.555664" lon="1.744171">
        <ele>1998.58789</ele>
        <time>2021-07-02T10:00:38Z</time>
      </trkpt>
      <trkpt lat="42.555542" lon="1.743992">
        <ele>2000.10168</ele>
        <time>2021-07-02T10:00:39Z</time>
      </trkpt>
      <trkpt lat="42.555424" lon="1.743817">
        <ele>2000.61841</ele>
        <time>2021-07-02T10:00:40Z</time>
      </trkpt>
      <trkpt lat="42.555302" lon="1.743638">
        <ele>2002.77173</ele>
        <time>2021-07-02T10:00:41Z</time>
      </trkpt>
      <trkpt lat="42.555187" lon="1.743478">
        <ele>2004.28174</ele>
        <time>2021-07-02T10:00:42Z</time>
      </trkpt>
      <trkpt lat="42.555077" lon="1.743318">
        <ele>2003.71960</ele>
        <time>2021-07-02T10:00:43Z</time>
      </trkpt>
      <trkpt lat="42.554951" lon="1.743143">
        <ele>2005.05347</ele>
        <time>2021-07-02T10:00:44Z</time>
      </trkpt>
      <trkpt lat="42.554832" lon="1.742977">
        <ele>2006.23267</ele>
        <time>2021-07-02T10:00:45Z</time>
      </trkpt>
      <trkpt lat="42.554714" lon="1.742811">
        <ele>2006.29126</ele>
        <time>2021-07-02T10:00:46Z</time>
      </trkpt>
      <trkpt lat="42.554623" lon="1.742631">
        <ele>2007.87427</ele>
        <time>2021-07-02T10:00:47Z</time>
      </trkpt>
      <trkpt lat="42.554546" lon="1.742482">
        <ele>2009.39941</ele>
        <time>2021-07-02T10:00:48Z</time>
      </trkpt>
      <trkpt lat="42.554459" lon="1.742295">
        <ele>2010.21509</ele>
        <time>2021-07-02T10:00:49Z</time>
      </trkpt>
      <trkpt lat="42.554371" lon="1.742098">
        <ele>2010.71765</ele>
        <time>2021-07-02T10:00:50Z</time>
      </trkpt>
      <trkpt lat="42.554291" lon="1.741919">
        <ele>2011.55322</ele>
        <time>2021-07-02T10:00:51Z</time>
      </trkpt>
      <trkpt lat="42.554207" lon="1.741724">
        <ele>2012.72498</ele>
        <time>2021-07-02T10:00:52Z</time>
      </trkpt>
      <trkpt lat="42.554115" lon="1.741543">
        <ele>2013.19849</ele>
        <time>2021-07-02T10:00:53Z</time>
      </trkpt>
      <trkpt lat="42.554016" lon="1.741357">
        <ele>2013.53125</ele>
        <time>2021-07-02T10:00:54Z</time>
      </trkpt>
      <trkpt lat="42.553905" lon="1.741193">
        <ele>2015.19543</ele>
        <time>2021-07-02T10:00:55Z</time>
      </trkpt>
      <trkpt lat="42.553787" lon="1.741026">
        <ele>2014.66699</ele>
        <time>2021-07-02T10:00:56Z</time>
      </trkpt>
      <trkpt lat="42.553658" lon="1.740875">
        <ele>2015.30811</ele>
        <time>2021-07-02T10:00:57Z</time>
      </trkpt>
      <trkpt lat="42.553505" lon="1.740733">
        <ele>2016.24683</ele>
        <time>2021-07-02T10:00:58Z</time>
      </trkpt>
      <trkpt lat="42.553333" lon="1.740583">
        <ele>2017.77075</ele>
        <time>2021-07-02T10:00:59Z</time>
      </trkpt>
      <trkpt lat="42.553181" lon="1.740450">
        <ele>2018.89526</ele>
        <time>2021-07-02T10:01:00Z</time>
      </trkpt>
      <trkpt lat="42.553181" lon="1.740450">
        <ele>2021.06799</ele>
        <time>2021-07-02T10:01:01Z</time>
      </trkpt>
      <trkpt lat="42.553020" lon="1.740309">
        <ele>2021.81812</ele>
        <time>2021-07-02T10:01:02Z</time>
      </trkpt>
      <trkpt lat="42.552876" lon="1.740155">
        <ele>2022.78662</ele>
        <time>2021-07-02T10:01:03Z</time>
      </trkpt>
      <trkpt lat="42.552742" lon="1.740014">
        <ele>2024.31958</ele>
        <time>2021-07-02T10:01:04Z</time>
      </trkpt>
      <trkpt lat="42.552620" lon="1.739907">
        <ele>2025.63062</ele>
        <time>2021-07-02T10:01:05Z</time>
      </trkpt>
      <trkpt lat="42.552475" lon="1.739785">
        <ele>2024.00439</ele>
        <time>2021-07-02T10:01:06Z</time>
      </trkpt>
      <trkpt lat="42.552330" lon="1.739676">
        <ele>2024.62634</ele>
        <time>2021-07-02T10:01:07Z</time>
      </trkpt>
      <trkpt lat="42.552185" lon="1.739570">
        <ele>2025.97021</ele>
        <time>2021-07-02T10:01:08Z</time>
      </trkpt>
      <trkpt lat="42.552052" lon="1.739471">
        <ele>2026.23621</ele>
        <time>2021-07-02T10:01:09Z</time>
      </trkpt>
      <trkpt lat="42.551914" lon="1.739362">
        <ele>2029.91797</ele>
        <time>2021-07-02T10:01:10Z</time>
      </trkpt>
      <trkpt lat="42.551792" lon="1.739261">
        <ele>2031.81592</ele>
        <time>2021-07-02T10:01:11Z</time>
      </trkpt>
      <trkpt lat="42.551678" lon="1.739164">
        <ele>2033.14722</ele>
        <time>2021-07-02T10:01:12Z</time>
      </trkpt>
      <trkpt lat="42.551571" lon="1.739077">
        <ele>2032.81299</ele>
        <time>2021-07-02T10:01:13Z</time>
      </trkpt>
      <trkpt lat="42.551453" lon="1.738981">
        <ele>2033.62744</ele>
        <time>2021-07-02T10:01:14Z</time>
      </trkpt>
      <trkpt lat="42.551334" lon="1.738891">
        <ele>2033.94751</ele>
        <time>2021-07-02T10:01:15Z</time>
      </trkpt>
      <trkpt lat="42.551212" lon="1.738804">
        <ele>2033.98779</ele>
        <time>2021-07-02T10:01:16Z</time>
      </trkpt>
      <trkpt lat="42.551098" lon="1.738721">
        <ele>2034.23169</ele>
        <time>2021-07-02T10:01:17Z</time>
      </trkpt>
      <trkpt lat="42.550991" lon="1.738651">
        <ele>2035.13965</ele>
        <time>2021-07-02T10:01:18Z</time>
      </trkpt>
      <trkpt lat="42.550880" lon="1.738580">
        <ele>2035.99146</ele>
        <time>2021-07-02T10:01:19Z</time>
      </trkpt>
      <trkpt lat="42.550777" lon="1.738512">
        <ele>2037.08569</ele>
        <time>2021-07-02T10:01:20Z</time>
      </trkpt>
      <trkpt lat="42.550648" lon="1.738428">
        <ele>2037.76685</ele>
        <time>2021-07-02T10:01:21Z</time>
      </trkpt>
      <trkpt lat="42.550510" lon="1.738340">
        <ele>2036.27075</ele>
        <time>2021-07-02T10:01:22Z</time>
      </trkpt>
      <trkpt lat="42.550369" lon="1.738260">
        <ele>2035.59131</ele>
        <time>2021-07-02T10:01:23Z</time>
      </trkpt>
      <trkpt lat="42.550240" lon="1.738184">
        <ele>2035.74219</ele>
        <time>2021-07-02T10:01:24Z</time>
      </trkpt>
      <trkpt lat="42.550102" lon="1.738111">
        <ele>2037.23315</ele>
        <time>2021-07-02T10:01:25Z</time>
      </trkpt>
      <trkpt lat="42.549969" lon="1.738064">
        <ele>2038.30396</ele>
        <time>2021-07-02T10:01:26Z</time>
      </trkpt>
      <trkpt lat="42.549858" lon="1.738025">
        <ele>2039.40356</ele>
        <time>2021-07-02T10:01:27Z</time>
      </trkpt>
      <trkpt lat="42.549751" lon="1.737994">
        <ele>2039.47461</ele>
        <time>2021-07-02T10:01:28Z</time>
      </trkpt>
      <trkpt lat="42.549644" lon="1.737970">
        <ele>2039.70508</ele>
        <time>2021-07-02T10:01:29Z</time>
      </trkpt>
      <trkpt lat="42.549553" lon="1.737949">
        <ele>2040.36377</ele>
        <time>2021-07-02T10:01:30Z</time>
      </trkpt>
      <trkpt lat="42.549477" lon="1.737931">
        <ele>2039.41748</ele>
        <time>2021-07-02T10:01:31Z</time>
      </trkpt>
      <trkpt lat="42.549416" lon="1.737917">
        <ele>2038.36304</ele>
        <time>2021-07-02T10:01:32Z</time>
      </trkpt>
      <trkpt lat="42.549381" lon="1.737910">
        <ele>2038.58008</ele>
        <time>2021-07-02T10:01:33Z</time>
      </trkpt>
      <trkpt lat="42.549294" lon="1.737889">
        <ele>2039.47119</ele>
        <time>2021-07-02T10:01:34Z</time>
      </trkpt>
      <trkpt lat="42.549294" lon="1.737889">
        <ele>2040.18457</ele>
        <time>2021-07-02T10:01:35Z</time>
      </trkpt>
      <trkpt lat="42.549164" lon="1.737642">
        <ele>2040.48145</ele>
        <time>2021-07-02T10:01:36Z</time>
      </trkpt>
      <trkpt lat="42.549099" lon="1.737619">
        <ele>2040.54810</ele>
        <time>2021-07-02T10:01:37Z</time>
      </trkpt>
      <trkpt lat="42.549065" lon="1.737618">
        <ele>2041.90015</ele>
        <time>2021-07-02T10:01:38Z</time>
      </trkpt>
      <trkpt lat="42.549004" lon="1.737636">
        <ele>2042.52759</ele>
        <time>2021-07-02T10:01:39Z</time>
      </trkpt>
      <trkpt lat="42.548931" lon="1.737721">
        <ele>2042.29077</ele>
        <time>2021-07-02T10:01:40Z</time>
      </trkpt>
      <trkpt lat="42.548897" lon="1.737856">
        <ele>2043.51245</ele>
        <time>2021-07-02T10:01:41Z</time>
      </trkpt>
      <trkpt lat="42.548698" lon="1.737821">
        <ele>2044.39160</ele>
        <time>2021-07-02T10:01:42Z</time>
      </trkpt>
      <trkpt lat="42.548592" lon="1.737802">
        <ele>2046.19214</ele>
        <time>2021-07-02T10:01:43Z</time>
      </trkpt>
      <trkpt lat="42.548470" lon="1.737781">
        <ele>2048.25342</ele>
        <time>2021-07-02T10:01:44Z</time>
      </trkpt>
      <trkpt lat="42.548325" lon="1.737758">
        <ele>2048.41138</ele>
        <time>2021-07-02T10:01:45Z</time>
      </trkpt>
      <trkpt lat="42.548210" lon="1.737739">
        <ele>2048.70020</ele>
        <time>2021-07-02T10:01:46Z</time>
      </trkpt>
      <trkpt lat="42.548084" lon="1.737686">
        <ele>2049.46143</ele>
        <time>2021-07-02T10:01:47Z</time>
      </trkpt>
      <trkpt lat="42.547947" lon="1.737628">
        <ele>2050.64307</ele>
        <time>2021-07-02T10:01:48Z</time>
      </trkpt>
      <trkpt lat="42.547825" lon="1.737577">
        <ele>2051.90210</ele>
        <time>2021-07-02T10:01:49Z</time>
      </trkpt>
      <trkpt lat="42.547691" lon="1.737514">
        <ele>2051.63428</ele>
        <time>2021-07-02T10:01:50Z</time>
      </trkpt>
      <trkpt lat="42.547573" lon="1.737458">
        <ele>2052.97559</ele>
        <time>2021-07-02T10:01:51Z</time>
      </trkpt>
      <trkpt lat="42.547447" lon="1.737405">
        <ele>2053.44263</ele>
        <time>2021-07-02T10:01:52Z</time>
      </trkpt>
      <trkpt lat="42.547333" lon="1.737355">
        <ele>2054.40234</ele>
        <time>2021-07-02T10:01:53Z</time>
      </trkpt>
      <trkpt lat="42.547218" lon="1.737302">
        <ele>2055.15137</ele>
        <time>2021-07-02T10:01:54Z</time>
      </trkpt>
      <trkpt lat="42.547108" lon="1.737238">
        <ele>2056.65137</ele>
        <time>2021-07-02T10:01:55Z</time>
      </trkpt>
      <trkpt lat="42.546986" lon="1.737170">
        <ele>2057.31201</ele>
        <time>2021-07-02T10:01:56Z</time>
      </trkpt>
      <trkpt lat="42.546875" lon="1.737102">
        <ele>2057.78418</ele>
        <time>2021-07-02T10:01:57Z</time>
      </trkpt>
      <trkpt lat="42.546757" lon="1.737022">
        <ele>2058.96509</ele>
        <time>2021-07-02T10:01:58Z</time>
      </trkpt>
      <trkpt lat="42.546646" lon="1.736946">
        <ele>2059.97437</ele>
        <time>2021-07-02T10:01:59Z</time>
      </trkpt>
      <trkpt lat="42.546524" lon="1.736876">
        <ele>2060.06543</ele>
        <time>2021-07-02T10:02:00Z</time>
      </trkpt>
      <trkpt lat="42.546394" lon="1.736838">
        <ele>2061.69092</ele>
        <time>2021-07-02T10:02:01Z</time>
      </trkpt>
      <trkpt lat="42.546265" lon="1.736801">
        <ele>2062.31885</ele>
        <time>2021-07-02T10:02:02Z</time>
      </trkpt>
      <trkpt lat="42.546112" lon="1.736774">
        <ele>2062.87598</ele>
        <time>2021-07-02T10:02:03Z</time>
      </trkpt>
      <trkpt lat="42.545963" lon="1.736751">
        <ele>2063.51001</ele>
        <time>2021-07-02T10:02:04Z</time>
      </trkpt>
      <trkpt lat="42.545826" lon="1.736731">
        <ele>2064.42676</ele>
        <time>2021-07-02T10:02:05Z</time>
      </trkpt>
      <trkpt lat="42.545685" lon="1.736710">
        <ele>2064.85791</ele>
        <time>2021-07-02T10:02:06Z</time>
      </trkpt>
      <trkpt lat="42.545555" lon="1.736691">
        <ele>2065.84448</ele>
        <time>2021-07-02T10:02:07Z</time>
      </trkpt>
      <trkpt lat="42.545422" lon="1.736664">
        <ele>2066.31299</ele>
        <time>2021-07-02T10:02:08Z</time>
      </trkpt>
      <trkpt lat="42.545292" lon="1.736637">
        <ele>2066.70874</ele>
        <time>2021-07-02T10:02:09Z</time>
      </trkpt>
      <trkpt lat="42.545189" lon="1.736616">
        <ele>2066.99854</ele>
        <time>2021-07-02T10:02:10Z</time>
      </trkpt>
      <trkpt lat="42.545189" lon="1.736616">
        <ele>2067.51685</ele>
        <time>2021-07-02T10:02:11Z</time>
      </trkpt>
      <trkpt lat="42.545094" lon="1.736596">
        <ele>2067.95679</ele>
        <time>2021-07-02T10:02:12Z</time>
      </trkpt>
      <trkpt lat="42.544998" lon="1.736577">
        <ele>2068.42065</ele>
        <time>2021-07-02T10:02:13Z</time>
      </trkpt>
      <trkpt lat="42.544895" lon="1.736553">
        <ele>2068.69702</ele>
        <time>2021-07-02T10:02:14Z</time>
      </trkpt>
      <trkpt lat="42.544811" lon="1.736531">
        <ele>2069.54102</ele>
        <time>2021-07-02T10:02:15Z</time>
      </trkpt>
      <trkpt lat="42.544712" lon="1.736505">
        <ele>2069.70337</ele>
        <time>2021-07-02T10:02:16Z</time>
      </trkpt>
      <trkpt lat="42.544643" lon="1.736488">
        <ele>2069.65063</ele>
        <time>2021-07-02T10:02:17Z</time>
      </trkpt>
      <trkpt lat="42.544582" lon="1.736472">
        <ele>2070.11133</ele>
        <time>2021-07-02T10:02:18Z</time>
      </trkpt>
      <trkpt lat="42.544548" lon="1.736463">
        <ele>2070.10938</ele>
        <time>2021-07-02T10:02:19Z</time>
      </trkpt>
      <trkpt lat="42.544548" lon="1.736463">
        <ele>2070.30420</ele>
        <time>2021-07-02T10:02:20Z</time>
      </trkpt>
      <trkpt lat="42.544548" lon="1.736463">
        <ele>2070.57495</ele>
        <time>2021-07-02T10:02:21Z</time>
      </trkpt>
      <trkpt lat="42.544548" lon="1.736463">
        <ele>2070.70947</ele>
        <time>2021-07-02T10:02:22Z</time>
      </trkpt>
      <trkpt lat="42.544548" lon="1.736463">
        <ele>2070.95337</ele>
        <time>2021-07-02T10:02:23Z</time>
      </trkpt>
      <trkpt lat="42.544544" lon="1.736462">
        <ele>2071.42920</ele>
        <time>2021-07-02T10:02:24Z</time>
      </trkpt>
      <trkpt lat="42.544518" lon="1.736455">
        <ele>2071.61768</ele>
        <time>2021-07-02T10:02:25Z</time>
      </trkpt>
      <trkpt lat="42.544479" lon="1.736446">
        <ele>2072.19531</ele>
        <time>2021-07-02T10:02:26Z</time>
      </trkpt>
      <trkpt lat="42.544434" lon="1.736433">
        <ele>2072.53638</ele>
        <time>2021-07-02T10:02:27Z</time>
      </trkpt>
      <trkpt lat="42.544376" lon="1.736419">
        <ele>2072.99780</ele>
        <time>2021-07-02T10:02:28Z</time>
      </trkpt>
      <trkpt lat="42.544327" lon="1.736405">
        <ele>2073.37207</ele>
        <time>2021-07-02T10:02:29Z</time>
      </trkpt>
      <trkpt lat="42.544281" lon="1.736390">
        <ele>2073.77954</ele>
        <time>2021-07-02T10:02:30Z</time>
      </trkpt>
      <trkpt lat="42.544224" lon="1.736371">
        <ele>2074.44922</ele>
        <time>2021-07-02T10:02:31Z</time>
      </trkpt>
      <trkpt lat="42.544170" lon="1.736347">
        <ele>2074.73438</ele>
        <time>2021-07-02T10:02:32Z</time>
      </trkpt>
      <trkpt lat="42.544125" lon="1.736322">
        <ele>2075.20093</ele>
        <time>2021-07-02T10:02:33Z</time>
      </trkpt>
      <trkpt lat="42.544071" lon="1.736293">
        <ele>2075.98096</ele>
        <time>2021-07-02T10:02:34Z</time>
      </trkpt>
      <trkpt lat="42.544003" lon="1.736255">
        <ele>2076.25635</ele>
        <time>2021-07-02T10:02:35Z</time>
      </trkpt>
      <trkpt lat="42.543938" lon="1.736200">
        <ele>2076.64819</ele>
        <time>2021-07-02T10:02:36Z</time>
      </trkpt>
      <trkpt lat="42.543877" lon="1.736144">
        <ele>2076.64819</ele>
        <time>2021-07-02T10:02:37Z</time>
      </trkpt>
      <trkpt lat="42.543812" lon="1.736085">
        <ele>2077.62695</ele>
        <time>2021-07-02T10:02:38Z</time>
      </trkpt>
      <trkpt lat="42.543747" lon="1.736016">
        <ele>2077.97949</ele>
        <time>2021-07-02T10:02:39Z</time>
      </trkpt>
      <trkpt lat="42.543694" lon="1.735934">
        <ele>2078.28833</ele>
        <time>2021-07-02T10:02:40Z</time>
      </trkpt>
      <trkpt lat="42.543663" lon="1.735815">
        <ele>2078.93213</ele>
        <time>2021-07-02T10:02:41Z</time>
      </trkpt>
      <trkpt lat="42.543636" lon="1.735777">
        <ele>2079.03638</ele>
        <time>2021-07-02T10:02:42Z</time>
      </trkpt>
      <trkpt lat="42.543560" lon="1.735668">
        <ele>2079.25610</ele>
        <time>2021-07-02T10:02:43Z</time>
      </trkpt>
      <trkpt lat="42.543491" lon="1.735570">
        <ele>2079.44385</ele>
        <time>2021-07-02T10:02:44Z</time>
      </trkpt>
      <trkpt lat="42.543461" lon="1.735480">
        <ele>2079.74854</ele>
        <time>2021-07-02T10:02:45Z</time>
      </trkpt>
      <trkpt lat="42.543503" lon="1.735400">
        <ele>2080.33643</ele>
        <time>2021-07-02T10:02:46Z</time>
      </trkpt>
      <trkpt lat="42.543541" lon="1.735339">
        <ele>2080.72046</ele>
        <time>2021-07-02T10:02:47Z</time>
      </trkpt>
      <trkpt lat="42.543541" lon="1.735339">
        <ele>2080.91919</ele>
        <time>2021-07-02T10:02:48Z</time>
      </trkpt>
      <trkpt lat="42.543613" lon="1.735228">
        <ele>2080.82935</ele>
        <time>2021-07-02T10:02:49Z</time>
      </trkpt>
      <trkpt lat="42.543686" lon="1.735107">
        <ele>2088.43555</ele>
        <time>2021-07-02T10:02:50Z</time>
      </trkpt>
      <trkpt lat="42.543736" lon="1.734986">
        <ele>2088.94409</ele>
        <time>2021-07-02T10:02:51Z</time>
      </trkpt>
      <trkpt lat="42.543777" lon="1.734851">
        <ele>2081.18091</ele>
        <time>2021-07-02T10:02:52Z</time>
      </trkpt>
      <trkpt lat="42.543804" lon="1.734696">
        <ele>2081.18555</ele>
        <time>2021-07-02T10:02:53Z</time>
      </trkpt>
      <trkpt lat="42.543812" lon="1.734549">
        <ele>2080.85962</ele>
        <time>2021-07-02T10:02:54Z</time>
      </trkpt>
      <trkpt lat="42.543804" lon="1.734387">
        <ele>2080.79565</ele>
        <time>2021-07-02T10:02:55Z</time>
      </trkpt>
      <trkpt lat="42.543804" lon="1.734295">
        <ele>2080.92139</ele>
        <time>2021-07-02T10:02:56Z</time>
      </trkpt>
      <trkpt lat="42.543800" lon="1.734208">
        <ele>2081.15186</ele>
        <time>2021-07-02T10:02:57Z</time>
      </trkpt>
      <trkpt lat="42.543800" lon="1.734137">
        <ele>2086.44824</ele>
        <time>2021-07-02T10:02:58Z</time>
      </trkpt>
      <trkpt lat="42.543808" lon="1.734036">
        <ele>2082.00684</ele>
        <time>2021-07-02T10:02:59Z</time>
      </trkpt>
      <trkpt lat="42.543831" lon="1.733923">
        <ele>2082.14551</ele>
        <time>2021-07-02T10:03:00Z</time>
      </trkpt>
      <trkpt lat="42.543873" lon="1.733833">
        <ele>2082.51245</ele>
        <time>2021-07-02T10:03:01Z</time>
      </trkpt>
      <trkpt lat="42.543880" lon="1.733724">
        <ele>2082.69897</ele>
        <time>2021-07-02T10:03:02Z</time>
      </trkpt>
      <trkpt lat="42.543861" lon="1.733644">
        <ele>2083.20020</ele>
        <time>2021-07-02T10:03:03Z</time>
      </trkpt>
      <trkpt lat="42.543812" lon="1.733581">
        <ele>2083.02100</ele>
        <time>2021-07-02T10:03:04Z</time>
      </trkpt>
      <trkpt lat="42.543755" lon="1.733550">
        <ele>2083.18970</ele>
        <time>2021-07-02T10:03:05Z</time>
      </trkpt>
      <trkpt lat="42.543736" lon="1.733548">
        <ele>2083.42944</ele>
        <time>2021-07-02T10:03:06Z</time>
      </trkpt>
      <trkpt lat="42.543736" lon="1.733548">
        <ele>2083.53613</ele>
        <time>2021-07-02T10:03:07Z</time>
      </trkpt>
      <trkpt lat="42.543736" lon="1.733548">
        <ele>2083.55151</ele>
        <time>2021-07-02T10:03:08Z</time>
      </trkpt>
      <trkpt lat="42.543736" lon="1.733548">
        <ele>2083.74512</ele>
        <time>2021-07-02T10:03:09Z</time>
      </trkpt>
      <trkpt lat="42.543736" lon="1.733548">
        <ele>2083.94067</ele>
        <time>2021-07-02T10:03:10Z</time>
      </trkpt>
      <trkpt lat="42.543736" lon="1.733548">
        <ele>2084.11694</ele>
        <time>2021-07-02T10:03:11Z</time>
      </trkpt>
      <trkpt lat="42.543732" lon="1.733547">
        <ele>2084.12134</ele>
        <time>2021-07-02T10:03:12Z</time>
      </trkpt>
      <trkpt lat="42.543793" lon="1.733367">
        <ele>2089.21191</ele>
        <time>2021-07-02T10:03:13Z</time>
      </trkpt>
      <trkpt lat="42.543793" lon="1.733367">
        <ele>2091.57544</ele>
        <time>2021-07-02T10:03:14Z</time>
      </trkpt>
      <trkpt lat="42.543793" lon="1.733345">
        <ele>2091.89331</ele>
        <time>2021-07-02T10:03:15Z</time>
      </trkpt>
      <trkpt lat="42.543797" lon="1.733336">
        <ele>2092.64038</ele>
        <time>2021-07-02T10:03:16Z</time>
      </trkpt>
      <trkpt lat="42.543797" lon="1.733307">
        <ele>2093.77563</ele>
        <time>2021-07-02T10:03:17Z</time>
      </trkpt>
      <trkpt lat="42.543808" lon="1.733211">
        <ele>2094.01733</ele>
        <time>2021-07-02T10:03:18Z</time>
      </trkpt>
      <trkpt lat="42.543835" lon="1.733111">
        <ele>2092.56763</ele>
        <time>2021-07-02T10:03:19Z</time>
      </trkpt>
      <trkpt lat="42.543865" lon="1.733001">
        <ele>2089.66187</ele>
        <time>2021-07-02T10:03:20Z</time>
      </trkpt>
      <trkpt lat="42.543896" lon="1.732884">
        <ele>2090.02002</ele>
        <time>2021-07-02T10:03:21Z</time>
      </trkpt>
      <trkpt lat="42.543968" lon="1.732745">
        <ele>2090.56665</ele>
        <time>2021-07-02T10:03:22Z</time>
      </trkpt>
      <trkpt lat="42.544037" lon="1.732624">
        <ele>2091.28662</ele>
        <time>2021-07-02T10:03:23Z</time>
      </trkpt>
      <trkpt lat="42.544121" lon="1.732530">
        <ele>2091.19556</ele>
        <time>2021-07-02T10:03:24Z</time>
      </trkpt>
      <trkpt lat="42.544205" lon="1.732454">
        <ele>2091.14136</ele>
        <time>2021-07-02T10:03:25Z</time>
      </trkpt>
      <trkpt lat="42.544315" lon="1.732381">
        <ele>2091.27295</ele>
        <time>2021-07-02T10:03:26Z</time>
      </trkpt>
      <trkpt lat="42.544411" lon="1.732325">
        <ele>2092.13110</ele>
        <time>2021-07-02T10:03:27Z</time>
      </trkpt>
      <trkpt lat="42.544498" lon="1.732284">
        <ele>2092.18433</ele>
        <time>2021-07-02T10:03:28Z</time>
      </trkpt>
      <trkpt lat="42.544548" lon="1.732262">
        <ele>2092.73389</ele>
        <time>2021-07-02T10:03:29Z</time>
      </trkpt>
      <trkpt lat="42.544624" lon="1.732229">
        <ele>2093.35718</ele>
        <time>2021-07-02T10:03:30Z</time>
      </trkpt>
      <trkpt lat="42.544670" lon="1.732209">
        <ele>2095.74951</ele>
        <time>2021-07-02T10:03:31Z</time>
      </trkpt>
      <trkpt lat="42.544670" lon="1.732209">
        <ele>2094.90967</ele>
        <time>2021-07-02T10:03:32Z</time>
      </trkpt>
      <trkpt lat="42.544697" lon="1.732199">
        <ele>2092.41699</ele>
        <time>2021-07-02T10:03:33Z</time>
      </trkpt>
      <trkpt lat="42.544708" lon="1.732195">
        <ele>2095.12378</ele>
        <time>2021-07-02T10:03:34Z</time>
      </trkpt>
      <trkpt lat="42.544712" lon="1.732194">
        <ele>2097.37402</ele>
        <time>2021-07-02T10:03:35Z</time>
      </trkpt>
      <trkpt lat="42.544895" lon="1.732117">
        <ele>2099.56689</ele>
        <time>2021-07-02T10:03:36Z</time>
      </trkpt>
      <trkpt lat="42.545158" lon="1.731976">
        <ele>2100.51758</ele>
        <time>2021-07-02T10:03:37Z</time>
      </trkpt>
      <trkpt lat="42.545296" lon="1.731943">
        <ele>2101.31079</ele>
        <time>2021-07-02T10:03:38Z</time>
      </trkpt>
      <trkpt lat="42.545467" lon="1.731902">
        <ele>2101.77734</ele>
        <time>2021-07-02T10:03:39Z</time>
      </trkpt>
      <trkpt lat="42.545647" lon="1.731861">
        <ele>2101.55811</ele>
        <time>2021-07-02T10:03:40Z</time>
      </trkpt>
      <trkpt lat="42.545811" lon="1.731822">
        <ele>2101.95386</ele>
        <time>2021-07-02T10:03:41Z</time>
      </trkpt>
      <trkpt lat="42.545990" lon="1.731769">
        <ele>2102.51855</ele>
        <time>2021-07-02T10:03:42Z</time>
      </trkpt>
      <trkpt lat="42.546169" lon="1.731718">
        <ele>2103.67310</ele>
        <time>2021-07-02T10:03:43Z</time>
      </trkpt>
      <trkpt lat="42.546360" lon="1.731673">
        <ele>2103.81348</ele>
        <time>2021-07-02T10:03:44Z</time>
      </trkpt>
      <trkpt lat="42.546360" lon="1.731673">
        <ele>2104.32959</ele>
        <time>2021-07-02T10:03:45Z</time>
      </trkpt>
      <trkpt lat="42.546535" lon="1.731669">
        <ele>2106.62817</ele>
        <time>2021-07-02T10:03:46Z</time>
      </trkpt>
      <trkpt lat="42.546741" lon="1.731726">
        <ele>2108.17383</ele>
        <time>2021-07-02T10:03:47Z</time>
      </trkpt>
      <trkpt lat="42.546928" lon="1.731834">
        <ele>2110.04639</ele>
        <time>2021-07-02T10:03:48Z</time>
      </trkpt>
      <trkpt lat="42.547134" lon="1.731958">
        <ele>2110.80200</ele>
        <time>2021-07-02T10:03:49Z</time>
      </trkpt>
      <trkpt lat="42.547348" lon="1.732045">
        <ele>2112.37769</ele>
        <time>2021-07-02T10:03:50Z</time>
      </trkpt>
      <trkpt lat="42.547592" lon="1.732141">
        <ele>2114.10474</ele>
        <time>2021-07-02T10:03:51Z</time>
      </trkpt>
      <trkpt lat="42.547871" lon="1.732247">
        <ele>2116.52612</ele>
        <time>2021-07-02T10:03:52Z</time>
      </trkpt>
      <trkpt lat="42.548100" lon="1.732336">
        <ele>2117.73706</ele>
        <time>2021-07-02T10:03:53Z</time>
      </trkpt>
      <trkpt lat="42.548302" lon="1.732414">
        <ele>2119.21533</ele>
        <time>2021-07-02T10:03:54Z</time>
      </trkpt>
      <trkpt lat="42.548481" lon="1.732479">
        <ele>2119.72144</ele>
        <time>2021-07-02T10:03:55Z</time>
      </trkpt>
      <trkpt lat="42.548626" lon="1.732504">
        <ele>2120.03979</ele>
        <time>2021-07-02T10:03:56Z</time>
      </trkpt>
      <trkpt lat="42.548763" lon="1.732492">
        <ele>2121.14062</ele>
        <time>2021-07-02T10:03:57Z</time>
      </trkpt>
      <trkpt lat="42.548832" lon="1.732401">
        <ele>2121.11670</ele>
        <time>2021-07-02T10:03:58Z</time>
      </trkpt>
      <trkpt lat="42.548847" lon="1.732304">
        <ele>2122.89502</ele>
        <time>2021-07-02T10:03:59Z</time>
      </trkpt>
      <trkpt lat="42.548840" lon="1.732223">
        <ele>2123.14575</ele>
        <time>2021-07-02T10:04:00Z</time>
      </trkpt>
      <trkpt lat="42.548801" lon="1.732156">
        <ele>2122.56909</ele>
        <time>2021-07-02T10:04:01Z</time>
      </trkpt>
      <trkpt lat="42.548790" lon="1.732146">
        <ele>2125.02954</ele>
        <time>2021-07-02T10:04:02Z</time>
      </trkpt>
      <trkpt lat="42.548786" lon="1.732140">
        <ele>2125.71582</ele>
        <time>2021-07-02T10:04:03Z</time>
      </trkpt>
      <trkpt lat="42.548653" lon="1.732116">
        <ele>2120.51978</ele>
        <time>2021-07-02T10:04:04Z</time>
      </trkpt>
      <trkpt lat="42.548485" lon="1.732184">
        <ele>2120.96875</ele>
        <time>2021-07-02T10:04:05Z</time>
      </trkpt>
      <trkpt lat="42.548397" lon="1.732190">
        <ele>2121.24561</ele>
        <time>2021-07-02T10:04:06Z</time>
      </trkpt>
      <trkpt lat="42.548271" lon="1.732178">
        <ele>2124.29272</ele>
        <time>2021-07-02T10:04:07Z</time>
      </trkpt>
      <trkpt lat="42.548153" lon="1.732127">
        <ele>2125.58325</ele>
        <time>2021-07-02T10:04:08Z</time>
      </trkpt>
      <trkpt lat="42.547993" lon="1.732018">
        <ele>2126.15698</ele>
        <time>2021-07-02T10:04:09Z</time>
      </trkpt>
      <trkpt lat="42.547829" lon="1.731884">
        <ele>2126.46606</ele>
        <time>2021-07-02T10:04:10Z</time>
      </trkpt>
      <trkpt lat="42.547691" lon="1.731777">
        <ele>2127.52002</ele>
        <time>2021-07-02T10:04:11Z</time>
      </trkpt>
      <trkpt lat="42.547565" lon="1.731675">
        <ele>2129.34863</ele>
        <time>2021-07-02T10:04:12Z</time>
      </trkpt>
      <trkpt lat="42.547432" lon="1.731570">
        <ele>2129.26172</ele>
        <time>2021-07-02T10:04:13Z</time>
      </trkpt>
      <trkpt lat="42.547321" lon="1.731463">
        <ele>2129.58740</ele>
        <time>2021-07-02T10:04:14Z</time>
      </trkpt>
      <trkpt lat="42.547230" lon="1.731365">
        <ele>2129.95459</ele>
        <time>2021-07-02T10:04:15Z</time>
      </trkpt>
      <trkpt lat="42.547146" lon="1.731237">
        <ele>2129.96802</ele>
        <time>2021-07-02T10:04:16Z</time>
      </trkpt>
      <trkpt lat="42.547047" lon="1.731140">
        <ele>2130.67188</ele>
        <time>2021-07-02T10:04:17Z</time>
      </trkpt>
      <trkpt lat="42.546963" lon="1.731065">
        <ele>2130.95410</ele>
        <time>2021-07-02T10:04:18Z</time>
      </trkpt>
      <trkpt lat="42.546963" lon="1.731065">
        <ele>2131.38379</ele>
        <time>2021-07-02T10:04:19Z</time>
      </trkpt>
      <trkpt lat="42.546852" lon="1.730989">
        <ele>2131.47656</ele>
        <time>2021-07-02T10:04:20Z</time>
      </trkpt>
      <trkpt lat="42.546738" lon="1.730929">
        <ele>2134.99609</ele>
        <time>2021-07-02T10:04:21Z</time>
      </trkpt>
      <trkpt lat="42.546619" lon="1.730885">
        <ele>2136.54980</ele>
        <time>2021-07-02T10:04:22Z</time>
      </trkpt>
      <trkpt lat="42.546566" lon="1.730871">
        <ele>2137.50635</ele>
        <time>2021-07-02T10:04:23Z</time>
      </trkpt>
      <trkpt lat="42.546516" lon="1.730857">
        <ele>2132.02417</ele>
        <time>2021-07-02T10:04:24Z</time>
      </trkpt>
      <trkpt lat="42.546497" lon="1.730852">
        <ele>2131.93628</ele>
        <time>2021-07-02T10:04:25Z</time>
      </trkpt>
      <trkpt lat="42.546494" lon="1.730852">
        <ele>2136.80518</ele>
        <time>2021-07-02T10:04:26Z</time>
      </trkpt>
      <trkpt lat="42.546482" lon="1.730848">
        <ele>2138.24902</ele>
        <time>2021-07-02T10:04:27Z</time>
      </trkpt>
      <trkpt lat="42.546471" lon="1.730845">
        <ele>2139.15649</ele>
        <time>2021-07-02T10:04:28Z</time>
      </trkpt>
      <trkpt lat="42.546459" lon="1.730842">
        <ele>2139.50879</ele>
        <time>2021-07-02T10:04:29Z</time>
      </trkpt>
      <trkpt lat="42.546406" lon="1.730818">
        <ele>2138.64478</ele>
        <time>2021-07-02T10:04:30Z</time>
      </trkpt>
      <trkpt lat="42.546356" lon="1.730815">
        <ele>2139.17993</ele>
        <time>2021-07-02T10:04:31Z</time>
      </trkpt>
      <trkpt lat="42.546356" lon="1.730816">
        <ele>2139.52783</ele>
        <time>2021-07-02T10:04:32Z</time>
      </trkpt>
      <trkpt lat="42.546356" lon="1.730816">
        <ele>2141.43677</ele>
        <time>2021-07-02T10:04:33Z</time>
      </trkpt>
      <trkpt lat="42.546253" lon="1.730782">
        <ele>2142.43262</ele>
        <time>2021-07-02T10:04:34Z</time>
      </trkpt>
      <trkpt lat="42.546005" lon="1.730732">
        <ele>2143.53101</ele>
        <time>2021-07-02T10:04:35Z</time>
      </trkpt>
      <trkpt lat="42.545887" lon="1.730710">
        <ele>2144.60815</ele>
        <time>2021-07-02T10:04:36Z</time>
      </trkpt>
      <trkpt lat="42.545773" lon="1.730709">
        <ele>2145.97803</ele>
        <time>2021-07-02T10:04:37Z</time>
      </trkpt>
      <trkpt lat="42.545650" lon="1.730681">
        <ele>2146.71655</ele>
        <time>2021-07-02T10:04:38Z</time>
      </trkpt>
      <trkpt lat="42.545536" lon="1.730654">
        <ele>2147.47656</ele>
        <time>2021-07-02T10:04:39Z</time>
      </trkpt>
      <trkpt lat="42.545414" lon="1.730626">
        <ele>2148.39038</ele>
        <time>2021-07-02T10:04:40Z</time>
      </trkpt>
      <trkpt lat="42.545292" lon="1.730597">
        <ele>2149.06299</ele>
        <time>2021-07-02T10:04:41Z</time>
      </trkpt>
      <trkpt lat="42.545166" lon="1.730574">
        <ele>2150.34058</ele>
        <time>2021-07-02T10:04:42Z</time>
      </trkpt>
      <trkpt lat="42.545025" lon="1.730560">
        <ele>2151.61499</ele>
        <time>2021-07-02T10:04:43Z</time>
      </trkpt>
      <trkpt lat="42.544884" lon="1.730545">
        <ele>2153.07861</ele>
        <time>2021-07-02T10:04:44Z</time>
      </trkpt>
      <trkpt lat="42.544739" lon="1.730541">
        <ele>2153.99609</ele>
        <time>2021-07-02T10:04:45Z</time>
      </trkpt>
      <trkpt lat="42.544575" lon="1.730538">
        <ele>2154.94824</ele>
        <time>2021-07-02T10:04:46Z</time>
      </trkpt>
      <trkpt lat="42.544575" lon="1.730538">
        <ele>2155.32666</ele>
        <time>2021-07-02T10:04:47Z</time>
      </trkpt>
      <trkpt lat="42.544422" lon="1.730534">
        <ele>2156.96655</ele>
        <time>2021-07-02T10:04:48Z</time>
      </trkpt>
      <trkpt lat="42.544254" lon="1.730530">
        <ele>2158.13892</ele>
        <time>2021-07-02T10:04:49Z</time>
      </trkpt>
      <trkpt lat="42.544090" lon="1.730523">
        <ele>2158.96069</ele>
        <time>2021-07-02T10:04:50Z</time>
      </trkpt>
      <trkpt lat="42.543926" lon="1.730508">
        <ele>2160.84424</ele>
        <time>2021-07-02T10:04:51Z</time>
      </trkpt>
      <trkpt lat="42.543758" lon="1.730466">
        <ele>2162.69531</ele>
        <time>2021-07-02T10:04:52Z</time>
      </trkpt>
      <trkpt lat="42.543602" lon="1.730424">
        <ele>2163.96338</ele>
        <time>2021-07-02T10:04:53Z</time>
      </trkpt>
      <trkpt lat="42.543453" lon="1.730377">
        <ele>2163.90210</ele>
        <time>2021-07-02T10:04:54Z</time>
      </trkpt>
      <trkpt lat="42.543297" lon="1.730327">
        <ele>2164.71582</ele>
        <time>2021-07-02T10:04:55Z</time>
      </trkpt>
      <trkpt lat="42.543137" lon="1.730277">
        <ele>2165.64233</ele>
        <time>2021-07-02T10:04:56Z</time>
      </trkpt>
      <trkpt lat="42.543003" lon="1.730235">
        <ele>2167.04102</ele>
        <time>2021-07-02T10:04:57Z</time>
      </trkpt>
      <trkpt lat="42.542843" lon="1.730183">
        <ele>2168.54077</ele>
        <time>2021-07-02T10:04:58Z</time>
      </trkpt>
      <trkpt lat="42.542698" lon="1.730138">
        <ele>2169.99194</ele>
        <time>2021-07-02T10:04:59Z</time>
      </trkpt>
      <trkpt lat="42.542538" lon="1.730087">
        <ele>2171.15088</ele>
        <time>2021-07-02T10:05:00Z</time>
      </trkpt>
      <trkpt lat="42.542366" lon="1.730032">
        <ele>2172.12451</ele>
        <time>2021-07-02T10:05:01Z</time>
      </trkpt>
      <trkpt lat="42.542194" lon="1.729978">
        <ele>2173.88379</ele>
        <time>2021-07-02T10:05:02Z</time>
      </trkpt>
      <trkpt lat="42.542030" lon="1.729926">
        <ele>2175.19336</ele>
        <time>2021-07-02T10:05:03Z</time>
      </trkpt>
      <trkpt lat="42.541878" lon="1.729893">
        <ele>2176.00806</ele>
        <time>2021-07-02T10:05:04Z</time>
      </trkpt>
      <trkpt lat="42.541710" lon="1.729859">
        <ele>2177.70801</ele>
        <time>2021-07-02T10:05:05Z</time>
      </trkpt>
      <trkpt lat="42.541527" lon="1.729829">
        <ele>2179.46777</ele>
        <time>2021-07-02T10:05:06Z</time>
      </trkpt>
      <trkpt lat="42.541348" lon="1.729801">
        <ele>2180.28271</ele>
        <time>2021-07-02T10:05:07Z</time>
      </trkpt>
      <trkpt lat="42.541176" lon="1.729765">
        <ele>2180.72046</ele>
        <time>2021-07-02T10:05:08Z</time>
      </trkpt>
      <trkpt lat="42.540997" lon="1.729708">
        <ele>2185.00781</ele>
        <time>2021-07-02T10:05:09Z</time>
      </trkpt>
      <trkpt lat="42.540825" lon="1.729651">
        <ele>2185.25342</ele>
        <time>2021-07-02T10:05:10Z</time>
      </trkpt>
      <trkpt lat="42.540634" lon="1.729580">
        <ele>2186.65967</ele>
        <time>2021-07-02T10:05:11Z</time>
      </trkpt>
      <trkpt lat="42.540455" lon="1.729513">
        <ele>2188.27295</ele>
        <time>2021-07-02T10:05:12Z</time>
      </trkpt>
      <trkpt lat="42.540287" lon="1.729450">
        <ele>2189.67871</ele>
        <time>2021-07-02T10:05:13Z</time>
      </trkpt>
      <trkpt lat="42.540104" lon="1.729382">
        <ele>2192.61255</ele>
        <time>2021-07-02T10:05:14Z</time>
      </trkpt>
      <trkpt lat="42.539913" lon="1.729331">
        <ele>2192.94995</ele>
        <time>2021-07-02T10:05:15Z</time>
      </trkpt>
      <trkpt lat="42.539726" lon="1.729311">
        <ele>2194.44629</ele>
        <time>2021-07-02T10:05:16Z</time>
      </trkpt>
      <trkpt lat="42.539528" lon="1.729302">
        <ele>2195.80273</ele>
        <time>2021-07-02T10:05:17Z</time>
      </trkpt>
      <trkpt lat="42.539333" lon="1.729298">
        <ele>2196.42065</ele>
        <time>2021-07-02T10:05:18Z</time>
      </trkpt>
      <trkpt lat="42.539333" lon="1.729298">
        <ele>2194.67017</ele>
        <time>2021-07-02T10:05:19Z</time>
      </trkpt>
      <trkpt lat="42.539162" lon="1.729258">
        <ele>2195.52124</ele>
        <time>2021-07-02T10:05:20Z</time>
      </trkpt>
      <trkpt lat="42.539009" lon="1.729179">
        <ele>2197.77539</ele>
        <time>2021-07-02T10:05:21Z</time>
      </trkpt>
      <trkpt lat="42.538868" lon="1.729055">
        <ele>2197.72461</ele>
        <time>2021-07-02T10:05:22Z</time>
      </trkpt>
      <trkpt lat="42.538734" lon="1.728917">
        <ele>2199.70264</ele>
        <time>2021-07-02T10:05:23Z</time>
      </trkpt>
      <trkpt lat="42.538628" lon="1.728797">
        <ele>2199.82178</ele>
        <time>2021-07-02T10:05:24Z</time>
      </trkpt>
      <trkpt lat="42.538494" lon="1.728650">
        <ele>2201.53760</ele>
        <time>2021-07-02T10:05:25Z</time>
      </trkpt>
      <trkpt lat="42.538387" lon="1.728533">
        <ele>2201.78247</ele>
        <time>2021-07-02T10:05:26Z</time>
      </trkpt>
      <trkpt lat="42.538273" lon="1.728405">
        <ele>2203.43530</ele>
        <time>2021-07-02T10:05:27Z</time>
      </trkpt>
      <trkpt lat="42.538174" lon="1.728297">
        <ele>2203.76245</ele>
        <time>2021-07-02T10:05:28Z</time>
      </trkpt>
      <trkpt lat="42.538139" lon="1.728255">
        <ele>2204.77051</ele>
        <time>2021-07-02T10:05:29Z</time>
      </trkpt>
      <trkpt lat="42.538082" lon="1.728179">
        <ele>2206.46094</ele>
        <time>2021-07-02T10:05:30Z</time>
      </trkpt>
      <trkpt lat="42.537930" lon="1.727926">
        <ele>2208.32275</ele>
        <time>2021-07-02T10:05:31Z</time>
      </trkpt>
      <trkpt lat="42.537876" lon="1.727793">
        <ele>2208.95312</ele>
        <time>2021-07-02T10:05:32Z</time>
      </trkpt>
      <trkpt lat="42.537830" lon="1.727656">
        <ele>2209.96875</ele>
        <time>2021-07-02T10:05:33Z</time>
      </trkpt>
      <trkpt lat="42.537800" lon="1.727533">
        <ele>2210.60767</ele>
        <time>2021-07-02T10:05:34Z</time>
      </trkpt>
      <trkpt lat="42.537769" lon="1.727414">
        <ele>2211.77173</ele>
        <time>2021-07-02T10:05:35Z</time>
      </trkpt>
      <trkpt lat="42.537724" lon="1.727304">
        <ele>2212.87134</ele>
        <time>2021-07-02T10:05:36Z</time>
      </trkpt>
      <trkpt lat="42.537659" lon="1.727216">
        <ele>2214.03833</ele>
        <time>2021-07-02T10:05:37Z</time>
      </trkpt>
      <trkpt lat="42.537586" lon="1.727141">
        <ele>2214.62280</ele>
        <time>2021-07-02T10:05:38Z</time>
      </trkpt>
      <trkpt lat="42.537518" lon="1.727072">
        <ele>2215.47388</ele>
        <time>2021-07-02T10:05:39Z</time>
      </trkpt>
      <trkpt lat="42.537453" lon="1.727009">
        <ele>2215.52002</ele>
        <time>2021-07-02T10:05:40Z</time>
      </trkpt>
      <trkpt lat="42.537415" lon="1.726913">
        <ele>2216.42456</ele>
        <time>2021-07-02T10:05:41Z</time>
      </trkpt>
      <trkpt lat="42.537415" lon="1.726812">
        <ele>2215.54492</ele>
        <time>2021-07-02T10:05:42Z</time>
      </trkpt>
      <trkpt lat="42.537449" lon="1.726710">
        <ele>2216.54346</ele>
        <time>2021-07-02T10:05:43Z</time>
      </trkpt>
      <trkpt lat="42.537521" lon="1.726653">
        <ele>2217.91162</ele>
        <time>2021-07-02T10:05:44Z</time>
      </trkpt>
      <trkpt lat="42.537636" lon="1.726648">
        <ele>2217.57153</ele>
        <time>2021-07-02T10:05:45Z</time>
      </trkpt>
      <trkpt lat="42.537701" lon="1.726689">
        <ele>2219.65894</ele>
        <time>2021-07-02T10:05:46Z</time>
      </trkpt>
      <trkpt lat="42.537807" lon="1.726803">
        <ele>2220.44458</ele>
        <time>2021-07-02T10:05:47Z</time>
      </trkpt>
      <trkpt lat="42.537907" lon="1.726900">
        <ele>2221.31982</ele>
        <time>2021-07-02T10:05:48Z</time>
      </trkpt>
      <trkpt lat="42.537975" lon="1.726960">
        <ele>2221.02515</ele>
        <time>2021-07-02T10:05:49Z</time>
      </trkpt>
      <trkpt lat="42.538036" lon="1.727013">
        <ele>2222.77222</ele>
        <time>2021-07-02T10:05:50Z</time>
      </trkpt>
      <trkpt lat="42.538094" lon="1.727061">
        <ele>2221.70435</ele>
        <time>2021-07-02T10:05:51Z</time>
      </trkpt>
      <trkpt lat="42.538151" lon="1.727097">
        <ele>2222.51367</ele>
        <time>2021-07-02T10:05:52Z</time>
      </trkpt>
      <trkpt lat="42.538151" lon="1.727097">
        <ele>2223.00342</ele>
        <time>2021-07-02T10:05:53Z</time>
      </trkpt>
      <trkpt lat="42.538181" lon="1.727119">
        <ele>2223.67896</ele>
        <time>2021-07-02T10:05:54Z</time>
      </trkpt>
      <trkpt lat="42.538216" lon="1.727139">
        <ele>2223.89185</ele>
        <time>2021-07-02T10:05:55Z</time>
      </trkpt>
      <trkpt lat="42.538227" lon="1.727147">
        <ele>2223.83350</ele>
        <time>2021-07-02T10:05:56Z</time>
      </trkpt>
      <trkpt lat="42.538227" lon="1.727148">
        <ele>2225.26758</ele>
        <time>2021-07-02T10:05:57Z</time>
      </trkpt>
      <trkpt lat="42.538227" lon="1.727148">
        <ele>2225.92578</ele>
        <time>2021-07-02T10:05:58Z</time>
      </trkpt>
      <trkpt lat="42.538227" lon="1.727148">
        <ele>2226.49976</ele>
        <time>2021-07-02T10:05:59Z</time>
      </trkpt>
      <trkpt lat="42.538227" lon="1.727148">
        <ele>2227.02417</ele>
        <time>2021-07-02T10:06:00Z</time>
      </trkpt>
      <trkpt lat="42.538227" lon="1.727148">
        <ele>2226.76172</ele>
        <time>2021-07-02T10:06:01Z</time>
      </trkpt>
      <trkpt lat="42.538227" lon="1.727148">
        <ele>2226.62769</ele>
        <time>2021-07-02T10:06:02Z</time>
      </trkpt>
      <trkpt lat="42.538227" lon="1.727148">
        <ele>2226.53345</ele>
        <time>2021-07-02T10:06:03Z</time>
      </trkpt>
      <trkpt lat="42.538227" lon="1.727148">
        <ele>2219.34204</ele>
        <time>2021-07-02T10:06:04Z</time>
      </trkpt>
      <trkpt lat="42.538227" lon="1.727148">
        <ele>2219.44434</ele>
        <time>2021-07-02T10:06:05Z</time>
      </trkpt>
      <trkpt lat="42.538227" lon="1.727148">
        <ele>2219.68628</ele>
        <time>2021-07-02T10:06:06Z</time>
      </trkpt>
      <trkpt lat="42.538227" lon="1.727148">
        <ele>2224.57593</ele>
        <time>2021-07-02T10:06:07Z</time>
      </trkpt>
      <trkpt lat="42.538227" lon="1.727148">
        <ele>2225.94604</ele>
        <time>2021-07-02T10:06:08Z</time>
      </trkpt>
      <trkpt lat="42.538227" lon="1.727148">
        <ele>2226.95459</ele>
        <time>2021-07-02T10:06:09Z</time>
      </trkpt>
      <trkpt lat="42.538227" lon="1.727148">
        <ele>2227.71802</ele>
        <time>2021-07-02T10:06:10Z</time>
      </trkpt>
      <trkpt lat="42.538227" lon="1.727148">
        <ele>2228.38696</ele>
        <time>2021-07-02T10:06:11Z</time>
      </trkpt>
      <trkpt lat="42.538227" lon="1.727148">
        <ele>2227.78442</ele>
        <time>2021-07-02T10:06:12Z</time>
      </trkpt>
      <trkpt lat="42.538227" lon="1.727148">
        <ele>2221.03931</ele>
        <time>2021-07-02T10:06:13Z</time>
      </trkpt>
      <trkpt lat="42.538227" lon="1.727148">
        <ele>2221.20264</ele>
        <time>2021-07-02T10:06:14Z</time>
      </trkpt>
      <trkpt lat="42.538227" lon="1.727148">
        <ele>2221.37915</ele>
        <time>2021-07-02T10:06:15Z</time>
      </trkpt>
      <trkpt lat="42.538227" lon="1.727148">
        <ele>2221.65820</ele>
        <time>2021-07-02T10:06:16Z</time>
      </trkpt>
      <trkpt lat="42.538227" lon="1.727148">
        <ele>2221.78906</ele>
        <time>2021-07-02T10:06:17Z</time>
      </trkpt>
      <trkpt lat="42.538227" lon="1.727148">
        <ele>2221.84668</ele>
        <time>2021-07-02T10:06:18Z</time>
      </trkpt>
      <trkpt lat="42.538227" lon="1.727148">
        <ele>2221.98853</ele>
        <time>2021-07-02T10:06:19Z</time>
      </trkpt>
      <trkpt lat="42.538227" lon="1.727148">
        <ele>2222.08691</ele>
        <time>2021-07-02T10:06:20Z</time>
      </trkpt>
      <trkpt lat="42.538227" lon="1.727148">
        <ele>2222.36841</ele>
        <time>2021-07-02T10:06:21Z</time>
      </trkpt>
      <trkpt lat="42.538227" lon="1.727148">
        <ele>2222.42944</ele>
        <time>2021-07-02T10:06:22Z</time>
      </trkpt>
      <trkpt lat="42.538227" lon="1.727148">
        <ele>2222.66748</ele>
        <time>2021-07-02T10:06:23Z</time>
      </trkpt>
      <trkpt lat="42.538227" lon="1.727148">
        <ele>2222.71167</ele>
        <time>2021-07-02T10:06:24Z</time>
      </trkpt>
      <trkpt lat="42.538227" lon="1.727148">
        <ele>2222.99316</ele>
        <time>2021-07-02T10:06:25Z</time>
      </trkpt>
      <trkpt lat="42.538227" lon="1.727148">
        <ele>2223.20020</ele>
        <time>2021-07-02T10:06:26Z</time>
      </trkpt>
      <trkpt lat="42.538227" lon="1.727148">
        <ele>2223.33252</ele>
        <time>2021-07-02T10:06:27Z</time>
      </trkpt>
      <trkpt lat="42.538227" lon="1.727148">
        <ele>2223.49219</ele>
        <time>2021-07-02T10:06:28Z</time>
      </trkpt>
      <trkpt lat="42.538227" lon="1.727148">
        <ele>2223.71631</ele>
        <time>2021-07-02T10:06:29Z</time>
      </trkpt>
      <trkpt lat="42.538227" lon="1.727148">
        <ele>2223.94995</ele>
        <time>2021-07-02T10:06:30Z</time>
      </trkpt>
      <trkpt lat="42.538227" lon="1.727148">
        <ele>2223.98926</ele>
        <time>2021-07-02T10:06:31Z</time>
      </trkpt>
      <trkpt lat="42.538227" lon="1.727148">
        <ele>2224.22314</ele>
        <time>2021-07-02T10:06:32Z</time>
      </trkpt>
      <trkpt lat="42.538227" lon="1.727148">
        <ele>2224.28101</ele>
        <time>2021-07-02T10:06:33Z</time>
      </trkpt>
      <trkpt lat="42.538227" lon="1.727148">
        <ele>2224.45850</ele>
        <time>2021-07-02T10:06:34Z</time>
      </trkpt>
      <trkpt lat="42.538227" lon="1.727148">
        <ele>2224.50903</ele>
        <time>2021-07-02T10:06:35Z</time>
      </trkpt>
      <trkpt lat="42.538227" lon="1.727148">
        <ele>2224.58350</ele>
        <time>2021-07-02T10:06:36Z</time>
      </trkpt>
      <trkpt lat="42.538227" lon="1.727148">
        <ele>2224.75220</ele>
        <time>2021-07-02T10:06:37Z</time>
      </trkpt>
      <trkpt lat="42.538227" lon="1.727148">
        <ele>2224.89600</ele>
        <time>2021-07-02T10:06:38Z</time>
      </trkpt>
      <trkpt lat="42.538227" lon="1.727148">
        <ele>2225.14673</ele>
        <time>2021-07-02T10:06:39Z</time>
      </trkpt>
      <trkpt lat="42.538227" lon="1.727148">
        <ele>2225.14380</ele>
        <time>2021-07-02T10:06:40Z</time>
      </trkpt>
      <trkpt lat="42.538227" lon="1.727148">
        <ele>2225.23608</ele>
        <time>2021-07-02T10:06:41Z</time>
      </trkpt>
      <trkpt lat="42.538227" lon="1.727148">
        <ele>2225.39062</ele>
        <time>2021-07-02T10:06:42Z</time>
      </trkpt>
      <trkpt lat="42.538227" lon="1.727148">
        <ele>2225.60938</ele>
        <time>2021-07-02T10:06:43Z</time>
      </trkpt>
      <trkpt lat="42.538227" lon="1.727148">
        <ele>2225.64185</ele>
        <time>2021-07-02T10:06:44Z</time>
      </trkpt>
      <trkpt lat="42.538227" lon="1.727148">
        <ele>2225.81543</ele>
        <time>2021-07-02T10:06:45Z</time>
      </trkpt>
      <trkpt lat="42.538227" lon="1.727148">
        <ele>2225.95483</ele>
        <time>2021-07-02T10:06:46Z</time>
      </trkpt>
      <trkpt lat="42.538227" lon="1.727148">
        <ele>2226.14893</ele>
        <time>2021-07-02T10:06:47Z</time>
      </trkpt>
      <trkpt lat="42.538227" lon="1.727148">
        <ele>2226.13232</ele>
        <time>2021-07-02T10:06:48Z</time>
      </trkpt>
      <trkpt lat="42.538227" lon="1.727148">
        <ele>2226.41870</ele>
        <time>2021-07-02T10:06:49Z</time>
      </trkpt>
      <trkpt lat="42.538227" lon="1.727148">
        <ele>2226.56836</ele>
        <time>2021-07-02T10:06:50Z</time>
      </trkpt>
      <trkpt lat="42.538227" lon="1.727148">
        <ele>2230.45801</ele>
        <time>2021-07-02T10:06:51Z</time>
      </trkpt>
      <trkpt lat="42.538227" lon="1.727148">
        <ele>2231.30322</ele>
        <time>2021-07-02T10:06:52Z</time>
      </trkpt>
      <trkpt lat="42.538227" lon="1.727148">
        <ele>2231.75244</ele>
        <time>2021-07-02T10:06:53Z</time>
      </trkpt>
      <trkpt lat="42.538227" lon="1.727148">
        <ele>2231.97705</ele>
        <time>2021-07-02T10:06:54Z</time>
      </trkpt>
      <trkpt lat="42.538227" lon="1.727148">
        <ele>2232.32959</ele>
        <time>2021-07-02T10:06:55Z</time>
      </trkpt>
      <trkpt lat="42.538227" lon="1.727148">
        <ele>2232.96362</ele>
        <time>2021-07-02T10:06:56Z</time>
      </trkpt>
      <trkpt lat="42.538227" lon="1.727148">
        <ele>2233.07593</ele>
        <time>2021-07-02T10:06:57Z</time>
      </trkpt>
      <trkpt lat="42.538227" lon="1.727148">
        <ele>2233.28857</ele>
        <time>2021-07-02T10:06:58Z</time>
      </trkpt>
      <trkpt lat="42.538227" lon="1.727148">
        <ele>2233.31494</ele>
        <time>2021-07-02T10:06:59Z</time>
      </trkpt>
      <trkpt lat="42.538231" lon="1.727151">
        <ele>2233.50195</ele>
        <time>2021-07-02T10:07:00Z</time>
      </trkpt>
      <trkpt lat="42.538288" lon="1.727188">
        <ele>2234.11108</ele>
        <time>2021-07-02T10:07:01Z</time>
      </trkpt>
      <trkpt lat="42.538372" lon="1.727236">
        <ele>2234.73389</ele>
        <time>2021-07-02T10:07:02Z</time>
      </trkpt>
      <trkpt lat="42.538460" lon="1.727285">
        <ele>2236.42554</ele>
        <time>2021-07-02T10:07:03Z</time>
      </trkpt>
      <trkpt lat="42.538593" lon="1.727361">
        <ele>2237.67969</ele>
        <time>2021-07-02T10:07:04Z</time>
      </trkpt>
      <trkpt lat="42.538773" lon="1.727466">
        <ele>2239.03394</ele>
        <time>2021-07-02T10:07:05Z</time>
      </trkpt>
      <trkpt lat="42.538990" lon="1.727601">
        <ele>2240.43188</ele>
        <time>2021-07-02T10:07:06Z</time>
      </trkpt>
      <trkpt lat="42.539215" lon="1.727704">
        <ele>2241.82056</ele>
        <time>2021-07-02T10:07:07Z</time>
      </trkpt>
      <trkpt lat="42.539429" lon="1.727779">
        <ele>2243.10205</ele>
        <time>2021-07-02T10:07:08Z</time>
      </trkpt>
      <trkpt lat="42.539597" lon="1.727792">
        <ele>2244.37476</ele>
        <time>2021-07-02T10:07:09Z</time>
      </trkpt>
      <trkpt lat="42.539749" lon="1.727769">
        <ele>2245.81763</ele>
        <time>2021-07-02T10:07:10Z</time>
      </trkpt>
      <trkpt lat="42.539913" lon="1.727699">
        <ele>2246.93286</ele>
        <time>2021-07-02T10:07:11Z</time>
      </trkpt>
      <trkpt lat="42.540066" lon="1.727593">
        <ele>2247.69385</ele>
        <time>2021-07-02T10:07:12Z</time>
      </trkpt>
      <trkpt lat="42.540237" lon="1.727490">
        <ele>2249.30884</ele>
        <time>2021-07-02T10:07:13Z</time>
      </trkpt>
      <trkpt lat="42.540375" lon="1.727424">
        <ele>2249.81226</ele>
        <time>2021-07-02T10:07:14Z</time>
      </trkpt>
      <trkpt lat="42.540520" lon="1.727390">
        <ele>2251.16699</ele>
        <time>2021-07-02T10:07:15Z</time>
      </trkpt>
      <trkpt lat="42.540703" lon="1.727390">
        <ele>2252.44092</ele>
        <time>2021-07-02T10:07:16Z</time>
      </trkpt>
      <trkpt lat="42.540909" lon="1.727406">
        <ele>2254.07764</ele>
        <time>2021-07-02T10:07:17Z</time>
      </trkpt>
      <trkpt lat="42.541122" lon="1.727459">
        <ele>2255.71021</ele>
        <time>2021-07-02T10:07:18Z</time>
      </trkpt>
      <trkpt lat="42.541321" lon="1.727526">
        <ele>2257.26245</ele>
        <time>2021-07-02T10:07:19Z</time>
      </trkpt>
      <trkpt lat="42.541519" lon="1.727614">
        <ele>2259.11646</ele>
        <time>2021-07-02T10:07:20Z</time>
      </trkpt>
      <trkpt lat="42.541733" lon="1.727691">
        <ele>2260.71826</ele>
        <time>2021-07-02T10:07:21Z</time>
      </trkpt>
      <trkpt lat="42.541954" lon="1.727761">
        <ele>2262.64551</ele>
        <time>2021-07-02T10:07:22Z</time>
      </trkpt>
      <trkpt lat="42.542191" lon="1.727820">
        <ele>2264.66772</ele>
        <time>2021-07-02T10:07:23Z</time>
      </trkpt>
      <trkpt lat="42.542191" lon="1.727820">
        <ele>2266.50732</ele>
        <time>2021-07-02T10:07:24Z</time>
      </trkpt>
      <trkpt lat="42.542454" lon="1.727847">
        <ele>2268.20483</ele>
        <time>2021-07-02T10:07:25Z</time>
      </trkpt>
      <trkpt lat="42.542675" lon="1.727870">
        <ele>2269.32373</ele>
        <time>2021-07-02T10:07:26Z</time>
      </trkpt>
      <trkpt lat="42.542873" lon="1.727890">
        <ele>2270.74707</ele>
        <time>2021-07-02T10:07:27Z</time>
      </trkpt>
      <trkpt lat="42.543079" lon="1.727905">
        <ele>2271.80298</ele>
        <time>2021-07-02T10:07:28Z</time>
      </trkpt>
      <trkpt lat="42.543262" lon="1.727906">
        <ele>2272.61450</ele>
        <time>2021-07-02T10:07:29Z</time>
      </trkpt>
      <trkpt lat="42.543415" lon="1.727900">
        <ele>2273.24707</ele>
        <time>2021-07-02T10:07:30Z</time>
      </trkpt>
      <trkpt lat="42.543522" lon="1.727826">
        <ele>2273.38208</ele>
        <time>2021-07-02T10:07:31Z</time>
      </trkpt>
      <trkpt lat="42.543537" lon="1.727758">
        <ele>2271.48511</ele>
        <time>2021-07-02T10:07:32Z</time>
      </trkpt>
      <trkpt lat="42.543541" lon="1.727711">
        <ele>2272.23584</ele>
        <time>2021-07-02T10:07:33Z</time>
      </trkpt>
      <trkpt lat="42.543491" lon="1.727595">
        <ele>2272.19702</ele>
        <time>2021-07-02T10:07:34Z</time>
      </trkpt>
      <trkpt lat="42.543449" lon="1.727574">
        <ele>2272.30298</ele>
        <time>2021-07-02T10:07:35Z</time>
      </trkpt>
      <trkpt lat="42.543427" lon="1.727565">
        <ele>2274.02002</ele>
        <time>2021-07-02T10:07:36Z</time>
      </trkpt>
      <trkpt lat="42.543396" lon="1.727563">
        <ele>2274.08130</ele>
        <time>2021-07-02T10:07:37Z</time>
      </trkpt>
      <trkpt lat="42.543255" lon="1.727603">
        <ele>2275.39087</ele>
        <time>2021-07-02T10:07:38Z</time>
      </trkpt>
      <trkpt lat="42.543152" lon="1.727635">
        <ele>2278.68848</ele>
        <time>2021-07-02T10:07:39Z</time>
      </trkpt>
      <trkpt lat="42.542912" lon="1.727610">
        <ele>2276.23315</ele>
        <time>2021-07-02T10:07:40Z</time>
      </trkpt>
      <trkpt lat="42.542740" lon="1.727520">
        <ele>2277.69067</ele>
        <time>2021-07-02T10:07:41Z</time>
      </trkpt>
      <trkpt lat="42.542538" lon="1.727411">
        <ele>2279.23584</ele>
        <time>2021-07-02T10:07:42Z</time>
      </trkpt>
      <trkpt lat="42.542343" lon="1.727310">
        <ele>2279.95117</ele>
        <time>2021-07-02T10:07:43Z</time>
      </trkpt>
      <trkpt lat="42.542149" lon="1.727212">
        <ele>2281.15771</ele>
        <time>2021-07-02T10:07:44Z</time>
      </trkpt>
      <trkpt lat="42.541958" lon="1.727113">
        <ele>2282.82910</ele>
        <time>2021-07-02T10:07:45Z</time>
      </trkpt>
      <trkpt lat="42.541782" lon="1.726995">
        <ele>2284.12622</ele>
        <time>2021-07-02T10:07:46Z</time>
      </trkpt>
      <trkpt lat="42.541637" lon="1.726834">
        <ele>2285.76440</ele>
        <time>2021-07-02T10:07:47Z</time>
      </trkpt>
      <trkpt lat="42.541473" lon="1.726632">
        <ele>2287.06250</ele>
        <time>2021-07-02T10:07:48Z</time>
      </trkpt>
      <trkpt lat="42.541298" lon="1.726446">
        <ele>2288.92627</ele>
        <time>2021-07-02T10:07:49Z</time>
      </trkpt>
      <trkpt lat="42.541115" lon="1.726309">
        <ele>2291.02222</ele>
        <time>2021-07-02T10:07:50Z</time>
      </trkpt>
      <trkpt lat="42.540913" lon="1.726205">
        <ele>2293.04126</ele>
        <time>2021-07-02T10:07:51Z</time>
      </trkpt>
      <trkpt lat="42.540691" lon="1.726132">
        <ele>2294.40796</ele>
        <time>2021-07-02T10:07:52Z</time>
      </trkpt>
      <trkpt lat="42.540493" lon="1.726081">
        <ele>2298.41724</ele>
        <time>2021-07-02T10:07:53Z</time>
      </trkpt>
      <trkpt lat="42.540310" lon="1.726020">
        <ele>2299.19263</ele>
        <time>2021-07-02T10:07:54Z</time>
      </trkpt>
      <trkpt lat="42.540154" lon="1.725931">
        <ele>2300.31787</ele>
        <time>2021-07-02T10:07:55Z</time>
      </trkpt>
      <trkpt lat="42.540154" lon="1.725931">
        <ele>2302.51782</ele>
        <time>2021-07-02T10:07:56Z</time>
      </trkpt>
      <trkpt lat="42.540012" lon="1.725801">
        <ele>2301.71655</ele>
        <time>2021-07-02T10:07:57Z</time>
      </trkpt>
      <trkpt lat="42.539890" lon="1.725632">
        <ele>2302.66528</ele>
        <time>2021-07-02T10:07:58Z</time>
      </trkpt>
      <trkpt lat="42.539753" lon="1.725431">
        <ele>2305.74805</ele>
        <time>2021-07-02T10:07:59Z</time>
      </trkpt>
      <trkpt lat="42.539604" lon="1.725176">
        <ele>2306.04150</ele>
        <time>2021-07-02T10:08:00Z</time>
      </trkpt>
      <trkpt lat="42.539497" lon="1.724993">
        <ele>2307.29932</ele>
        <time>2021-07-02T10:08:01Z</time>
      </trkpt>
      <trkpt lat="42.539413" lon="1.724839">
        <ele>2306.95312</ele>
        <time>2021-07-02T10:08:02Z</time>
      </trkpt>
      <trkpt lat="42.539337" lon="1.724693">
        <ele>2306.82080</ele>
        <time>2021-07-02T10:08:03Z</time>
      </trkpt>
      <trkpt lat="42.539295" lon="1.724575">
        <ele>2307.06567</ele>
        <time>2021-07-02T10:08:04Z</time>
      </trkpt>
      <trkpt lat="42.539291" lon="1.724494">
        <ele>2306.89600</ele>
        <time>2021-07-02T10:08:05Z</time>
      </trkpt>
      <trkpt lat="42.539364" lon="1.724387">
        <ele>2307.41479</ele>
        <time>2021-07-02T10:08:06Z</time>
      </trkpt>
      <trkpt lat="42.539402" lon="1.724381">
        <ele>2307.99048</ele>
        <time>2021-07-02T10:08:07Z</time>
      </trkpt>
      <trkpt lat="42.539463" lon="1.724402">
        <ele>2309.70337</ele>
        <time>2021-07-02T10:08:08Z</time>
      </trkpt>
      <trkpt lat="42.539562" lon="1.724534">
        <ele>2311.00635</ele>
        <time>2021-07-02T10:08:09Z</time>
      </trkpt>
      <trkpt lat="42.539635" lon="1.724683">
        <ele>2312.82373</ele>
        <time>2021-07-02T10:08:10Z</time>
      </trkpt>
      <trkpt lat="42.539749" lon="1.724864">
        <ele>2314.37402</ele>
        <time>2021-07-02T10:08:11Z</time>
      </trkpt>
      <trkpt lat="42.539886" lon="1.725077">
        <ele>2315.63623</ele>
        <time>2021-07-02T10:08:12Z</time>
      </trkpt>
      <trkpt lat="42.540012" lon="1.725227">
        <ele>2316.92505</ele>
        <time>2021-07-02T10:08:13Z</time>
      </trkpt>
      <trkpt lat="42.540146" lon="1.725345">
        <ele>2318.04712</ele>
        <time>2021-07-02T10:08:14Z</time>
      </trkpt>
      <trkpt lat="42.540310" lon="1.725421">
        <ele>2318.05103</ele>
        <time>2021-07-02T10:08:15Z</time>
      </trkpt>
      <trkpt lat="42.540497" lon="1.725453">
        <ele>2319.06494</ele>
        <time>2021-07-02T10:08:16Z</time>
      </trkpt>
      <trkpt lat="42.540688" lon="1.725420">
        <ele>2320.21753</ele>
        <time>2021-07-02T10:08:17Z</time>
      </trkpt>
      <trkpt lat="42.540833" lon="1.725351">
        <ele>2321.32886</ele>
        <time>2021-07-02T10:08:18Z</time>
      </trkpt>
      <trkpt lat="42.540970" lon="1.725263">
        <ele>2322.28125</ele>
        <time>2021-07-02T10:08:19Z</time>
      </trkpt>
      <trkpt lat="42.541100" lon="1.725182">
        <ele>2322.87329</ele>
        <time>2021-07-02T10:08:20Z</time>
      </trkpt>
      <trkpt lat="42.541203" lon="1.725116">
        <ele>2323.94092</ele>
        <time>2021-07-02T10:08:21Z</time>
      </trkpt>
      <trkpt lat="42.541328" lon="1.725066">
        <ele>2324.89722</ele>
        <time>2021-07-02T10:08:22Z</time>
      </trkpt>
      <trkpt lat="42.541458" lon="1.725022">
        <ele>2326.32837</ele>
        <time>2021-07-02T10:08:23Z</time>
      </trkpt>
      <trkpt lat="42.541573" lon="1.725006">
        <ele>2327.29370</ele>
        <time>2021-07-02T10:08:24Z</time>
      </trkpt>
      <trkpt lat="42.541672" lon="1.724984">
        <ele>2326.48853</ele>
        <time>2021-07-02T10:08:25Z</time>
      </trkpt>
      <trkpt lat="42.541672" lon="1.724984">
        <ele>2327.50635</ele>
        <time>2021-07-02T10:08:26Z</time>
      </trkpt>
      <trkpt lat="42.541729" lon="1.724884">
        <ele>2327.98340</ele>
        <time>2021-07-02T10:08:27Z</time>
      </trkpt>
      <trkpt lat="42.541714" lon="1.724760">
        <ele>2327.95288</ele>
        <time>2021-07-02T10:08:28Z</time>
      </trkpt>
      <trkpt lat="42.541645" lon="1.724676">
        <ele>2328.47998</ele>
        <time>2021-07-02T10:08:29Z</time>
      </trkpt>
      <trkpt lat="42.541580" lon="1.724671">
        <ele>2329.43872</ele>
        <time>2021-07-02T10:08:30Z</time>
      </trkpt>
      <trkpt lat="42.541573" lon="1.724671">
        <ele>2330.08081</ele>
        <time>2021-07-02T10:08:31Z</time>
      </trkpt>
      <trkpt lat="42.541477" lon="1.724710">
        <ele>2331.16797</ele>
        <time>2021-07-02T10:08:32Z</time>
      </trkpt>
      <trkpt lat="42.541397" lon="1.724758">
        <ele>2333.79468</ele>
        <time>2021-07-02T10:08:33Z</time>
      </trkpt>
      <trkpt lat="42.541245" lon="1.724820">
        <ele>2333.94727</ele>
        <time>2021-07-02T10:08:34Z</time>
      </trkpt>
      <trkpt lat="42.541004" lon="1.724826">
        <ele>2335.08643</ele>
        <time>2021-07-02T10:08:35Z</time>
      </trkpt>
      <trkpt lat="42.540821" lon="1.724764">
        <ele>2338.14600</ele>
        <time>2021-07-02T10:08:36Z</time>
      </trkpt>
      <trkpt lat="42.540688" lon="1.724667">
        <ele>2336.68921</ele>
        <time>2021-07-02T10:08:37Z</time>
      </trkpt>
      <trkpt lat="42.540531" lon="1.724483">
        <ele>2338.74268</ele>
        <time>2021-07-02T10:08:38Z</time>
      </trkpt>
      <trkpt lat="42.540359" lon="1.724280">
        <ele>2340.86450</ele>
        <time>2021-07-02T10:08:39Z</time>
      </trkpt>
      <trkpt lat="42.540180" lon="1.724070">
        <ele>2343.32275</ele>
        <time>2021-07-02T10:08:40Z</time>
      </trkpt>
      <trkpt lat="42.539989" lon="1.723847">
        <ele>2344.94189</ele>
        <time>2021-07-02T10:08:41Z</time>
      </trkpt>
      <trkpt lat="42.539814" lon="1.723640">
        <ele>2347.12573</ele>
        <time>2021-07-02T10:08:42Z</time>
      </trkpt>
      <trkpt lat="42.539635" lon="1.723427">
        <ele>2348.69067</ele>
        <time>2021-07-02T10:08:43Z</time>
      </trkpt>
      <trkpt lat="42.539471" lon="1.723234">
        <ele>2350.36157</ele>
        <time>2021-07-02T10:08:44Z</time>
      </trkpt>
      <trkpt lat="42.539322" lon="1.723061">
        <ele>2351.75854</ele>
        <time>2021-07-02T10:08:45Z</time>
      </trkpt>
      <trkpt lat="42.539177" lon="1.722891">
        <ele>2353.71753</ele>
        <time>2021-07-02T10:08:46Z</time>
      </trkpt>
      <trkpt lat="42.539024" lon="1.722710">
        <ele>2355.74854</ele>
        <time>2021-07-02T10:08:47Z</time>
      </trkpt>
      <trkpt lat="42.538849" lon="1.722507">
        <ele>2357.87988</ele>
        <time>2021-07-02T10:08:48Z</time>
      </trkpt>
      <trkpt lat="42.538689" lon="1.722280">
        <ele>2359.42358</ele>
        <time>2021-07-02T10:08:49Z</time>
      </trkpt>
      <trkpt lat="42.538532" lon="1.722062">
        <ele>2360.40479</ele>
        <time>2021-07-02T10:08:50Z</time>
      </trkpt>
      <trkpt lat="42.538364" lon="1.721851">
        <ele>2362.18823</ele>
        <time>2021-07-02T10:08:51Z</time>
      </trkpt>
      <trkpt lat="42.538197" lon="1.721642">
        <ele>2363.68237</ele>
        <time>2021-07-02T10:08:52Z</time>
      </trkpt>
      <trkpt lat="42.538029" lon="1.721433">
        <ele>2365.04980</ele>
        <time>2021-07-02T10:08:53Z</time>
      </trkpt>
      <trkpt lat="42.537880" lon="1.721234">
        <ele>2366.45630</ele>
        <time>2021-07-02T10:08:54Z</time>
      </trkpt>
      <trkpt lat="42.537766" lon="1.721058">
        <ele>2365.54395</ele>
        <time>2021-07-02T10:08:55Z</time>
      </trkpt>
      <trkpt lat="42.537674" lon="1.720886">
        <ele>2368.50928</ele>
        <time>2021-07-02T10:08:56Z</time>
      </trkpt>
      <trkpt lat="42.537605" lon="1.720709">
        <ele>2368.42798</ele>
        <time>2021-07-02T10:08:57Z</time>
      </trkpt>
      <trkpt lat="42.537552" lon="1.720515">
        <ele>2368.82593</ele>
        <time>2021-07-02T10:08:58Z</time>
      </trkpt>
      <trkpt lat="42.537537" lon="1.720332">
        <ele>2371.73706</ele>
        <time>2021-07-02T10:08:59Z</time>
      </trkpt>
      <trkpt lat="42.537537" lon="1.720332">
        <ele>2373.36499</ele>
        <time>2021-07-02T10:09:00Z</time>
      </trkpt>
      <trkpt lat="42.537537" lon="1.720108">
        <ele>2374.94946</ele>
        <time>2021-07-02T10:09:01Z</time>
      </trkpt>
      <trkpt lat="42.537544" lon="1.719956">
        <ele>2375.58569</ele>
        <time>2021-07-02T10:09:02Z</time>
      </trkpt>
      <trkpt lat="42.537563" lon="1.719812">
        <ele>2375.58569</ele>
        <time>2021-07-02T10:09:03Z</time>
      </trkpt>
      <trkpt lat="42.537605" lon="1.719669">
        <ele>2374.89233</ele>
        <time>2021-07-02T10:09:04Z</time>
      </trkpt>
      <trkpt lat="42.537682" lon="1.719510">
        <ele>2375.55103</ele>
        <time>2021-07-02T10:09:05Z</time>
      </trkpt>
      <trkpt lat="42.537785" lon="1.719355">
        <ele>2377.37085</ele>
        <time>2021-07-02T10:09:06Z</time>
      </trkpt>
      <trkpt lat="42.537933" lon="1.719226">
        <ele>2378.45605</ele>
        <time>2021-07-02T10:09:07Z</time>
      </trkpt>
      <trkpt lat="42.538078" lon="1.719164">
        <ele>2381.08032</ele>
        <time>2021-07-02T10:09:08Z</time>
      </trkpt>
      <trkpt lat="42.538227" lon="1.719137">
        <ele>2382.92993</ele>
        <time>2021-07-02T10:09:09Z</time>
      </trkpt>
      <trkpt lat="42.538471" lon="1.719201">
        <ele>2384.42334</ele>
        <time>2021-07-02T10:09:10Z</time>
      </trkpt>
      <trkpt lat="42.538647" lon="1.719299">
        <ele>2386.40112</ele>
        <time>2021-07-02T10:09:11Z</time>
      </trkpt>
      <trkpt lat="42.538815" lon="1.719477">
        <ele>2388.27881</ele>
        <time>2021-07-02T10:09:12Z</time>
      </trkpt>
      <trkpt lat="42.538944" lon="1.719662">
        <ele>2389.04810</ele>
        <time>2021-07-02T10:09:13Z</time>
      </trkpt>
      <trkpt lat="42.539066" lon="1.719837">
        <ele>2390.47070</ele>
        <time>2021-07-02T10:09:14Z</time>
      </trkpt>
      <trkpt lat="42.539207" lon="1.720020">
        <ele>2392.70703</ele>
        <time>2021-07-02T10:09:15Z</time>
      </trkpt>
      <trkpt lat="42.539356" lon="1.720211">
        <ele>2394.01343</ele>
        <time>2021-07-02T10:09:16Z</time>
      </trkpt>
      <trkpt lat="42.539520" lon="1.720429">
        <ele>2395.58008</ele>
        <time>2021-07-02T10:09:17Z</time>
      </trkpt>
      <trkpt lat="42.539661" lon="1.720633">
        <ele>2390.50391</ele>
        <time>2021-07-02T10:09:18Z</time>
      </trkpt>
      <trkpt lat="42.539768" lon="1.720820">
        <ele>2390.51245</ele>
        <time>2021-07-02T10:09:19Z</time>
      </trkpt>
      <trkpt lat="42.539829" lon="1.721002">
        <ele>2390.82031</ele>
        <time>2021-07-02T10:09:20Z</time>
      </trkpt>
      <trkpt lat="42.539879" lon="1.721180">
        <ele>2397.75269</ele>
        <time>2021-07-02T10:09:21Z</time>
      </trkpt>
      <trkpt lat="42.539970" lon="1.721241">
        <ele>2399.20117</ele>
        <time>2021-07-02T10:09:22Z</time>
      </trkpt>
      <trkpt lat="42.540047" lon="1.721245">
        <ele>2400.15991</ele>
        <time>2021-07-02T10:09:23Z</time>
      </trkpt>
      <trkpt lat="42.540104" lon="1.721126">
        <ele>2394.65381</ele>
        <time>2021-07-02T10:09:24Z</time>
      </trkpt>
      <trkpt lat="42.540104" lon="1.721059">
        <ele>2401.32007</ele>
        <time>2021-07-02T10:09:25Z</time>
      </trkpt>
      <trkpt lat="42.540096" lon="1.721027">
        <ele>2397.64233</ele>
        <time>2021-07-02T10:09:26Z</time>
      </trkpt>
      <trkpt lat="42.540070" lon="1.720912">
        <ele>2398.35767</ele>
        <time>2021-07-02T10:09:27Z</time>
      </trkpt>
      <trkpt lat="42.540016" lon="1.720725">
        <ele>2399.51489</ele>
        <time>2021-07-02T10:09:28Z</time>
      </trkpt>
      <trkpt lat="42.539986" lon="1.720500">
        <ele>2402.75000</ele>
        <time>2021-07-02T10:09:29Z</time>
      </trkpt>
      <trkpt lat="42.539978" lon="1.720275">
        <ele>2403.80249</ele>
        <time>2021-07-02T10:09:30Z</time>
      </trkpt>
      <trkpt lat="42.539978" lon="1.720047">
        <ele>2404.19849</ele>
        <time>2021-07-02T10:09:31Z</time>
      </trkpt>
      <trkpt lat="42.540009" lon="1.719858">
        <ele>2404.38916</ele>
        <time>2021-07-02T10:09:32Z</time>
      </trkpt>
      <trkpt lat="42.540043" lon="1.719700">
        <ele>2404.43555</ele>
        <time>2021-07-02T10:09:33Z</time>
      </trkpt>
      <trkpt lat="42.540096" lon="1.719572">
        <ele>2404.77661</ele>
        <time>2021-07-02T10:09:34Z</time>
      </trkpt>
      <trkpt lat="42.540146" lon="1.719465">
        <ele>2405.01270</ele>
        <time>2021-07-02T10:09:35Z</time>
      </trkpt>
      <trkpt lat="42.540218" lon="1.719343">
        <ele>2404.66895</ele>
        <time>2021-07-02T10:09:36Z</time>
      </trkpt>
      <trkpt lat="42.540325" lon="1.719221">
        <ele>2404.19702</ele>
        <time>2021-07-02T10:09:37Z</time>
      </trkpt>
      <trkpt lat="42.540417" lon="1.719129">
        <ele>2403.71606</ele>
        <time>2021-07-02T10:09:38Z</time>
      </trkpt>
      <trkpt lat="42.540516" lon="1.719054">
        <ele>2402.31812</ele>
        <time>2021-07-02T10:09:39Z</time>
      </trkpt>
      <trkpt lat="42.540516" lon="1.719054">
        <ele>2402.06665</ele>
        <time>2021-07-02T10:09:40Z</time>
      </trkpt>
      <trkpt lat="42.540649" lon="1.718958">
        <ele>2401.36768</ele>
        <time>2021-07-02T10:09:41Z</time>
      </trkpt>
      <trkpt lat="42.540787" lon="1.718858">
        <ele>2403.41846</ele>
        <time>2021-07-02T10:09:42Z</time>
      </trkpt>
      <trkpt lat="42.540958" lon="1.718736">
        <ele>2402.20264</ele>
        <time>2021-07-02T10:09:43Z</time>
      </trkpt>
      <trkpt lat="42.541138" lon="1.718605">
        <ele>2400.47144</ele>
        <time>2021-07-02T10:09:44Z</time>
      </trkpt>
      <trkpt lat="42.541313" lon="1.718468">
        <ele>2398.48682</ele>
        <time>2021-07-02T10:09:45Z</time>
      </trkpt>
      <trkpt lat="42.541477" lon="1.718270">
        <ele>2396.58887</ele>
        <time>2021-07-02T10:09:46Z</time>
      </trkpt>
      <trkpt lat="42.541615" lon="1.718029">
        <ele>2394.83130</ele>
        <time>2021-07-02T10:09:47Z</time>
      </trkpt>
      <trkpt lat="42.541752" lon="1.717759">
        <ele>2393.06104</ele>
        <time>2021-07-02T10:09:48Z</time>
      </trkpt>
      <trkpt lat="42.541870" lon="1.717504">
        <ele>2391.28784</ele>
        <time>2021-07-02T10:09:49Z</time>
      </trkpt>
      <trkpt lat="42.542007" lon="1.717215">
        <ele>2389.70068</ele>
        <time>2021-07-02T10:09:50Z</time>
      </trkpt>
      <trkpt lat="42.542122" lon="1.716982">
        <ele>2388.59033</ele>
        <time>2021-07-02T10:09:51Z</time>
      </trkpt>
      <trkpt lat="42.542248" lon="1.716742">
        <ele>2383.15747</ele>
        <time>2021-07-02T10:09:52Z</time>
      </trkpt>
      <trkpt lat="42.542343" lon="1.716552">
        <ele>2381.72485</ele>
        <time>2021-07-02T10:09:53Z</time>
      </trkpt>
      <trkpt lat="42.542374" lon="1.716402">
        <ele>2380.70410</ele>
        <time>2021-07-02T10:09:54Z</time>
      </trkpt>
      <trkpt lat="42.542385" lon="1.716273">
        <ele>2380.40112</ele>
        <time>2021-07-02T10:09:55Z</time>
      </trkpt>
      <trkpt lat="42.542336" lon="1.716190">
        <ele>2379.55737</ele>
        <time>2021-07-02T10:09:56Z</time>
      </trkpt>
      <trkpt lat="42.542290" lon="1.716136">
        <ele>2379.33984</ele>
        <time>2021-07-02T10:09:57Z</time>
      </trkpt>
      <trkpt lat="42.542229" lon="1.716118">
        <ele>2379.34155</ele>
        <time>2021-07-02T10:09:58Z</time>
      </trkpt>
      <trkpt lat="42.542114" lon="1.716134">
        <ele>2382.63208</ele>
        <time>2021-07-02T10:09:59Z</time>
      </trkpt>
      <trkpt lat="42.541969" lon="1.716184">
        <ele>2382.37085</ele>
        <time>2021-07-02T10:10:00Z</time>
      </trkpt>
      <trkpt lat="42.541813" lon="1.716228">
        <ele>2381.30347</ele>
        <time>2021-07-02T10:10:01Z</time>
      </trkpt>
      <trkpt lat="42.541660" lon="1.716220">
        <ele>2378.11914</ele>
        <time>2021-07-02T10:10:02Z</time>
      </trkpt>
      <trkpt lat="42.541508" lon="1.716172">
        <ele>2378.81641</ele>
        <time>2021-07-02T10:10:03Z</time>
      </trkpt>
      <trkpt lat="42.541359" lon="1.716065">
        <ele>2378.53442</ele>
        <time>2021-07-02T10:10:04Z</time>
      </trkpt>
      <trkpt lat="42.541237" lon="1.715882">
        <ele>2377.27295</ele>
        <time>2021-07-02T10:10:05Z</time>
      </trkpt>
      <trkpt lat="42.541100" lon="1.715615">
        <ele>2374.84863</ele>
        <time>2021-07-02T10:10:06Z</time>
      </trkpt>
      <trkpt lat="42.540989" lon="1.715349">
        <ele>2373.02588</ele>
        <time>2021-07-02T10:10:07Z</time>
      </trkpt>
      <trkpt lat="42.540859" lon="1.715036">
        <ele>2370.89453</ele>
        <time>2021-07-02T10:10:08Z</time>
      </trkpt>
      <trkpt lat="42.540749" lon="1.714760">
        <ele>2368.87769</ele>
        <time>2021-07-02T10:10:09Z</time>
      </trkpt>
      <trkpt lat="42.540638" lon="1.714518">
        <ele>2366.92993</ele>
        <time>2021-07-02T10:10:10Z</time>
      </trkpt>
      <trkpt lat="42.540638" lon="1.714518">
        <ele>2365.03931</ele>
        <time>2021-07-02T10:10:11Z</time>
      </trkpt>
      <trkpt lat="42.540531" lon="1.714280">
        <ele>2363.67871</ele>
        <time>2021-07-02T10:10:12Z</time>
      </trkpt>
      <trkpt lat="42.540428" lon="1.714077">
        <ele>2362.88428</ele>
        <time>2021-07-02T10:10:13Z</time>
      </trkpt>
      <trkpt lat="42.540298" lon="1.713887">
        <ele>2362.30469</ele>
        <time>2021-07-02T10:10:14Z</time>
      </trkpt>
      <trkpt lat="42.540203" lon="1.713791">
        <ele>2361.12646</ele>
        <time>2021-07-02T10:10:15Z</time>
      </trkpt>
      <trkpt lat="42.540146" lon="1.713714">
        <ele>2360.64819</ele>
        <time>2021-07-02T10:10:16Z</time>
      </trkpt>
      <trkpt lat="42.540127" lon="1.713620">
        <ele>2359.99170</ele>
        <time>2021-07-02T10:10:17Z</time>
      </trkpt>
      <trkpt lat="42.540138" lon="1.713557">
        <ele>2359.48975</ele>
        <time>2021-07-02T10:10:18Z</time>
      </trkpt>
      <trkpt lat="42.540161" lon="1.713498">
        <ele>2355.40112</ele>
        <time>2021-07-02T10:10:19Z</time>
      </trkpt>
      <trkpt lat="42.540249" lon="1.713452">
        <ele>2355.50073</ele>
        <time>2021-07-02T10:10:20Z</time>
      </trkpt>
      <trkpt lat="42.540363" lon="1.713499">
        <ele>2355.13892</ele>
        <time>2021-07-02T10:10:21Z</time>
      </trkpt>
      <trkpt lat="42.540501" lon="1.713664">
        <ele>2355.31030</ele>
        <time>2021-07-02T10:10:22Z</time>
      </trkpt>
      <trkpt lat="42.540691" lon="1.713781">
        <ele>2355.52246</ele>
        <time>2021-07-02T10:10:23Z</time>
      </trkpt>
      <trkpt lat="42.540905" lon="1.713863">
        <ele>2354.40527</ele>
        <time>2021-07-02T10:10:24Z</time>
      </trkpt>
      <trkpt lat="42.541115" lon="1.713933">
        <ele>2353.35034</ele>
        <time>2021-07-02T10:10:25Z</time>
      </trkpt>
      <trkpt lat="42.541290" lon="1.713990">
        <ele>2352.31006</ele>
        <time>2021-07-02T10:10:26Z</time>
      </trkpt>
      <trkpt lat="42.541477" lon="1.714013">
        <ele>2351.10742</ele>
        <time>2021-07-02T10:10:27Z</time>
      </trkpt>
      <trkpt lat="42.541676" lon="1.713985">
        <ele>2349.81812</ele>
        <time>2021-07-02T10:10:28Z</time>
      </trkpt>
      <trkpt lat="42.541870" lon="1.713917">
        <ele>2348.17749</ele>
        <time>2021-07-02T10:10:29Z</time>
      </trkpt>
      <trkpt lat="42.542042" lon="1.713774">
        <ele>2346.72144</ele>
        <time>2021-07-02T10:10:30Z</time>
      </trkpt>
      <trkpt lat="42.542198" lon="1.713584">
        <ele>2344.72412</ele>
        <time>2021-07-02T10:10:31Z</time>
      </trkpt>
      <trkpt lat="42.542343" lon="1.713363">
        <ele>2342.97632</ele>
        <time>2021-07-02T10:10:32Z</time>
      </trkpt>
      <trkpt lat="42.542484" lon="1.713133">
        <ele>2341.61206</ele>
        <time>2021-07-02T10:10:33Z</time>
      </trkpt>
      <trkpt lat="42.542595" lon="1.712916">
        <ele>2340.20605</ele>
        <time>2021-07-02T10:10:34Z</time>
      </trkpt>
      <trkpt lat="42.542656" lon="1.712693">
        <ele>2339.06177</ele>
        <time>2021-07-02T10:10:35Z</time>
      </trkpt>
      <trkpt lat="42.542690" lon="1.712444">
        <ele>2337.90649</ele>
        <time>2021-07-02T10:10:36Z</time>
      </trkpt>
      <trkpt lat="42.542679" lon="1.712187">
        <ele>2337.13208</ele>
        <time>2021-07-02T10:10:37Z</time>
      </trkpt>
      <trkpt lat="42.542675" lon="1.711943">
        <ele>2336.34546</ele>
        <time>2021-07-02T10:10:38Z</time>
      </trkpt>
      <trkpt lat="42.542702" lon="1.711721">
        <ele>2332.92163</ele>
        <time>2021-07-02T10:10:39Z</time>
      </trkpt>
      <trkpt lat="42.542702" lon="1.711721">
        <ele>2331.37891</ele>
        <time>2021-07-02T10:10:40Z</time>
      </trkpt>
      <trkpt lat="42.542679" lon="1.711546">
        <ele>2331.03662</ele>
        <time>2021-07-02T10:10:41Z</time>
      </trkpt>
      <trkpt lat="42.542637" lon="1.711488">
        <ele>2330.98804</ele>
        <time>2021-07-02T10:10:42Z</time>
      </trkpt>
      <trkpt lat="42.542591" lon="1.711469">
        <ele>2330.31372</ele>
        <time>2021-07-02T10:10:43Z</time>
      </trkpt>
      <trkpt lat="42.542507" lon="1.711495">
        <ele>2329.72070</ele>
        <time>2021-07-02T10:10:44Z</time>
      </trkpt>
      <trkpt lat="42.542461" lon="1.711560">
        <ele>2329.35522</ele>
        <time>2021-07-02T10:10:45Z</time>
      </trkpt>
      <trkpt lat="42.542446" lon="1.711601">
        <ele>2331.75464</ele>
        <time>2021-07-02T10:10:46Z</time>
      </trkpt>
      <trkpt lat="42.542446" lon="1.711736">
        <ele>2331.17700</ele>
        <time>2021-07-02T10:10:47Z</time>
      </trkpt>
      <trkpt lat="42.542458" lon="1.711877">
        <ele>2327.06714</ele>
        <time>2021-07-02T10:10:48Z</time>
      </trkpt>
      <trkpt lat="42.542484" lon="1.712123">
        <ele>2326.46021</ele>
        <time>2021-07-02T10:10:49Z</time>
      </trkpt>
      <trkpt lat="42.542450" lon="1.712325">
        <ele>2325.75049</ele>
        <time>2021-07-02T10:10:50Z</time>
      </trkpt>
      <trkpt lat="42.542362" lon="1.712485">
        <ele>2324.76270</ele>
        <time>2021-07-02T10:10:51Z</time>
      </trkpt>
      <trkpt lat="42.542248" lon="1.712587">
        <ele>2324.46240</ele>
        <time>2021-07-02T10:10:52Z</time>
      </trkpt>
      <trkpt lat="42.542171" lon="1.712624">
        <ele>2324.42700</ele>
        <time>2021-07-02T10:10:53Z</time>
      </trkpt>
      <trkpt lat="42.542034" lon="1.712613">
        <ele>2324.55005</ele>
        <time>2021-07-02T10:10:54Z</time>
      </trkpt>
      <trkpt lat="42.541851" lon="1.712540">
        <ele>2322.98633</ele>
        <time>2021-07-02T10:10:55Z</time>
      </trkpt>
      <trkpt lat="42.541737" lon="1.712454">
        <ele>2320.77002</ele>
        <time>2021-07-02T10:10:56Z</time>
      </trkpt>
      <trkpt lat="42.541492" lon="1.712287">
        <ele>2318.54004</ele>
        <time>2021-07-02T10:10:57Z</time>
      </trkpt>
      <trkpt lat="42.541142" lon="1.712076">
        <ele>2315.35986</ele>
        <time>2021-07-02T10:10:58Z</time>
      </trkpt>
      <trkpt lat="42.541004" lon="1.711996">
        <ele>2314.61621</ele>
        <time>2021-07-02T10:10:59Z</time>
      </trkpt>
      <trkpt lat="42.540829" lon="1.711929">
        <ele>2313.87720</ele>
        <time>2021-07-02T10:11:00Z</time>
      </trkpt>
      <trkpt lat="42.540703" lon="1.711875">
        <ele>2313.59033</ele>
        <time>2021-07-02T10:11:01Z</time>
      </trkpt>
      <trkpt lat="42.540642" lon="1.711818">
        <ele>2314.03882</ele>
        <time>2021-07-02T10:11:02Z</time>
      </trkpt>
      <trkpt lat="42.540607" lon="1.711755">
        <ele>2313.26123</ele>
        <time>2021-07-02T10:11:03Z</time>
      </trkpt>
      <trkpt lat="42.540596" lon="1.711663">
        <ele>2313.55591</ele>
        <time>2021-07-02T10:11:04Z</time>
      </trkpt>
      <trkpt lat="42.540615" lon="1.711592">
        <ele>2313.99951</ele>
        <time>2021-07-02T10:11:05Z</time>
      </trkpt>
      <trkpt lat="42.540745" lon="1.711522">
        <ele>2310.86108</ele>
        <time>2021-07-02T10:11:06Z</time>
      </trkpt>
      <trkpt lat="42.540913" lon="1.711593">
        <ele>2310.40186</ele>
        <time>2021-07-02T10:11:07Z</time>
      </trkpt>
      <trkpt lat="42.541080" lon="1.711684">
        <ele>2308.63525</ele>
        <time>2021-07-02T10:11:08Z</time>
      </trkpt>
      <trkpt lat="42.541267" lon="1.711728">
        <ele>2307.79858</ele>
        <time>2021-07-02T10:11:09Z</time>
      </trkpt>
      <trkpt lat="42.541439" lon="1.711696">
        <ele>2306.56177</ele>
        <time>2021-07-02T10:11:10Z</time>
      </trkpt>
      <trkpt lat="42.541592" lon="1.711634">
        <ele>2305.68604</ele>
        <time>2021-07-02T10:11:11Z</time>
      </trkpt>
      <trkpt lat="42.541744" lon="1.711516">
        <ele>2304.50879</ele>
        <time>2021-07-02T10:11:12Z</time>
      </trkpt>
      <trkpt lat="42.541851" lon="1.711330">
        <ele>2302.48804</ele>
        <time>2021-07-02T10:11:13Z</time>
      </trkpt>
      <trkpt lat="42.541927" lon="1.711118">
        <ele>2299.34741</ele>
        <time>2021-07-02T10:11:14Z</time>
      </trkpt>
      <trkpt lat="42.541992" lon="1.710844">
        <ele>2297.62085</ele>
        <time>2021-07-02T10:11:15Z</time>
      </trkpt>
      <trkpt lat="42.542042" lon="1.710583">
        <ele>2295.79810</ele>
        <time>2021-07-02T10:11:16Z</time>
      </trkpt>
      <trkpt lat="42.542118" lon="1.710318">
        <ele>2294.14209</ele>
        <time>2021-07-02T10:11:17Z</time>
      </trkpt>
      <trkpt lat="42.542229" lon="1.710046">
        <ele>2292.96729</ele>
        <time>2021-07-02T10:11:18Z</time>
      </trkpt>
      <trkpt lat="42.542229" lon="1.710046">
        <ele>2291.05566</ele>
        <time>2021-07-02T10:11:19Z</time>
      </trkpt>
      <trkpt lat="42.542351" lon="1.709803">
        <ele>2289.78320</ele>
        <time>2021-07-02T10:11:20Z</time>
      </trkpt>
      <trkpt lat="42.542507" lon="1.709568">
        <ele>2289.00781</ele>
        <time>2021-07-02T10:11:21Z</time>
      </trkpt>
      <trkpt lat="42.542648" lon="1.709344">
        <ele>2288.41504</ele>
        <time>2021-07-02T10:11:22Z</time>
      </trkpt>
      <trkpt lat="42.542778" lon="1.709133">
        <ele>2286.80249</ele>
        <time>2021-07-02T10:11:23Z</time>
      </trkpt>
      <trkpt lat="42.542885" lon="1.708961">
        <ele>2285.95679</ele>
        <time>2021-07-02T10:11:24Z</time>
      </trkpt>
      <trkpt lat="42.543022" lon="1.708769">
        <ele>2284.92163</ele>
        <time>2021-07-02T10:11:25Z</time>
      </trkpt>
      <trkpt lat="42.543106" lon="1.708686">
        <ele>2284.31934</ele>
        <time>2021-07-02T10:11:26Z</time>
      </trkpt>
      <trkpt lat="42.543232" lon="1.708563">
        <ele>2283.39746</ele>
        <time>2021-07-02T10:11:27Z</time>
      </trkpt>
      <trkpt lat="42.543343" lon="1.708466">
        <ele>2281.91797</ele>
        <time>2021-07-02T10:11:28Z</time>
      </trkpt>
      <trkpt lat="42.543465" lon="1.708370">
        <ele>2281.96118</ele>
        <time>2021-07-02T10:11:29Z</time>
      </trkpt>
      <trkpt lat="42.543583" lon="1.708283">
        <ele>2280.75146</ele>
        <time>2021-07-02T10:11:30Z</time>
      </trkpt>
      <trkpt lat="42.543743" lon="1.708211">
        <ele>2279.34839</ele>
        <time>2021-07-02T10:11:31Z</time>
      </trkpt>
      <trkpt lat="42.543949" lon="1.708119">
        <ele>2277.39648</ele>
        <time>2021-07-02T10:11:32Z</time>
      </trkpt>
      <trkpt lat="42.544155" lon="1.708048">
        <ele>2275.45264</ele>
        <time>2021-07-02T10:11:33Z</time>
      </trkpt>
      <trkpt lat="42.544392" lon="1.707967">
        <ele>2274.14722</ele>
        <time>2021-07-02T10:11:34Z</time>
      </trkpt>
      <trkpt lat="42.544636" lon="1.707849">
        <ele>2271.29370</ele>
        <time>2021-07-02T10:11:35Z</time>
      </trkpt>
      <trkpt lat="42.544903" lon="1.707711">
        <ele>2269.05469</ele>
        <time>2021-07-02T10:11:36Z</time>
      </trkpt>
      <trkpt lat="42.545158" lon="1.707557">
        <ele>2267.74292</ele>
        <time>2021-07-02T10:11:37Z</time>
      </trkpt>
      <trkpt lat="42.545406" lon="1.707405">
        <ele>2265.31470</ele>
        <time>2021-07-02T10:11:38Z</time>
      </trkpt>
      <trkpt lat="42.545647" lon="1.707235">
        <ele>2262.52661</ele>
        <time>2021-07-02T10:11:39Z</time>
      </trkpt>
      <trkpt lat="42.545876" lon="1.707017">
        <ele>2259.61963</ele>
        <time>2021-07-02T10:11:40Z</time>
      </trkpt>
      <trkpt lat="42.546089" lon="1.706777">
        <ele>2258.07593</ele>
        <time>2021-07-02T10:11:41Z</time>
      </trkpt>
      <trkpt lat="42.546291" lon="1.706512">
        <ele>2256.80713</ele>
        <time>2021-07-02T10:11:42Z</time>
      </trkpt>
      <trkpt lat="42.546486" lon="1.706283">
        <ele>2255.89307</ele>
        <time>2021-07-02T10:11:43Z</time>
      </trkpt>
      <trkpt lat="42.546684" lon="1.706077">
        <ele>2255.02075</ele>
        <time>2021-07-02T10:11:44Z</time>
      </trkpt>
      <trkpt lat="42.546886" lon="1.705897">
        <ele>2253.09814</ele>
        <time>2021-07-02T10:11:45Z</time>
      </trkpt>
      <trkpt lat="42.547115" lon="1.705729">
        <ele>2252.14136</ele>
        <time>2021-07-02T10:11:46Z</time>
      </trkpt>
      <trkpt lat="42.547325" lon="1.705593">
        <ele>2248.73462</ele>
        <time>2021-07-02T10:11:47Z</time>
      </trkpt>
      <trkpt lat="42.547539" lon="1.705484">
        <ele>2248.05347</ele>
        <time>2021-07-02T10:11:48Z</time>
      </trkpt>
      <trkpt lat="42.547680" lon="1.705440">
        <ele>2247.47363</ele>
        <time>2021-07-02T10:11:49Z</time>
      </trkpt>
      <trkpt lat="42.547863" lon="1.705444">
        <ele>2245.34546</ele>
        <time>2021-07-02T10:11:50Z</time>
      </trkpt>
      <trkpt lat="42.548092" lon="1.705470">
        <ele>2245.10181</ele>
        <time>2021-07-02T10:11:51Z</time>
      </trkpt>
      <trkpt lat="42.548298" lon="1.705481">
        <ele>2243.67334</ele>
        <time>2021-07-02T10:11:52Z</time>
      </trkpt>
      <trkpt lat="42.548298" lon="1.705481">
        <ele>2242.53149</ele>
        <time>2021-07-02T10:11:53Z</time>
      </trkpt>
      <trkpt lat="42.548527" lon="1.705415">
        <ele>2241.24878</ele>
        <time>2021-07-02T10:11:54Z</time>
      </trkpt>
      <trkpt lat="42.548725" lon="1.705300">
        <ele>2237.88306</ele>
        <time>2021-07-02T10:11:55Z</time>
      </trkpt>
      <trkpt lat="42.548912" lon="1.705107">
        <ele>2237.67358</ele>
        <time>2021-07-02T10:11:56Z</time>
      </trkpt>
      <trkpt lat="42.549103" lon="1.704864">
        <ele>2236.74097</ele>
        <time>2021-07-02T10:11:57Z</time>
      </trkpt>
      <trkpt lat="42.549274" lon="1.704634">
        <ele>2234.71753</ele>
        <time>2021-07-02T10:11:58Z</time>
      </trkpt>
      <trkpt lat="42.549427" lon="1.704436">
        <ele>2234.85352</ele>
        <time>2021-07-02T10:11:59Z</time>
      </trkpt>
      <trkpt lat="42.549580" lon="1.704265">
        <ele>2234.73120</ele>
        <time>2021-07-02T10:12:00Z</time>
      </trkpt>
      <trkpt lat="42.549717" lon="1.704107">
        <ele>2234.42603</ele>
        <time>2021-07-02T10:12:01Z</time>
      </trkpt>
      <trkpt lat="42.549812" lon="1.704001">
        <ele>2231.38843</ele>
        <time>2021-07-02T10:12:02Z</time>
      </trkpt>
      <trkpt lat="42.549881" lon="1.703868">
        <ele>2231.13428</ele>
        <time>2021-07-02T10:12:03Z</time>
      </trkpt>
      <trkpt lat="42.549885" lon="1.703730">
        <ele>2231.16797</ele>
        <time>2021-07-02T10:12:04Z</time>
      </trkpt>
      <trkpt lat="42.549816" lon="1.703656">
        <ele>2229.96899</ele>
        <time>2021-07-02T10:12:05Z</time>
      </trkpt>
      <trkpt lat="42.549770" lon="1.703643">
        <ele>2228.41650</ele>
        <time>2021-07-02T10:12:06Z</time>
      </trkpt>
      <trkpt lat="42.549770" lon="1.703643">
        <ele>2226.30688</ele>
        <time>2021-07-02T10:12:07Z</time>
      </trkpt>
      <trkpt lat="42.549690" lon="1.703659">
        <ele>2225.01611</ele>
        <time>2021-07-02T10:12:08Z</time>
      </trkpt>
      <trkpt lat="42.549503" lon="1.703847">
        <ele>2222.30688</ele>
        <time>2021-07-02T10:12:09Z</time>
      </trkpt>
      <trkpt lat="42.549328" lon="1.704036">
        <ele>2219.76831</ele>
        <time>2021-07-02T10:12:10Z</time>
      </trkpt>
      <trkpt lat="42.549133" lon="1.704207">
        <ele>2218.13574</ele>
        <time>2021-07-02T10:12:11Z</time>
      </trkpt>
      <trkpt lat="42.548962" lon="1.704328">
        <ele>2215.50757</ele>
        <time>2021-07-02T10:12:12Z</time>
      </trkpt>
      <trkpt lat="42.548759" lon="1.704373">
        <ele>2214.30908</ele>
        <time>2021-07-02T10:12:13Z</time>
      </trkpt>
      <trkpt lat="42.548519" lon="1.704383">
        <ele>2212.19531</ele>
        <time>2021-07-02T10:12:14Z</time>
      </trkpt>
      <trkpt lat="42.548286" lon="1.704314">
        <ele>2212.29858</ele>
        <time>2021-07-02T10:12:15Z</time>
      </trkpt>
      <trkpt lat="42.548092" lon="1.704214">
        <ele>2209.65991</ele>
        <time>2021-07-02T10:12:16Z</time>
      </trkpt>
      <trkpt lat="42.547817" lon="1.704147">
        <ele>2207.69360</ele>
        <time>2021-07-02T10:12:17Z</time>
      </trkpt>
      <trkpt lat="42.547577" lon="1.704101">
        <ele>2206.64624</ele>
        <time>2021-07-02T10:12:18Z</time>
      </trkpt>
      <trkpt lat="42.547371" lon="1.704075">
        <ele>2205.79492</ele>
        <time>2021-07-02T10:12:19Z</time>
      </trkpt>
      <trkpt lat="42.547180" lon="1.704081">
        <ele>2203.96973</ele>
        <time>2021-07-02T10:12:20Z</time>
      </trkpt>
      <trkpt lat="42.547180" lon="1.704081">
        <ele>2202.11987</ele>
        <time>2021-07-02T10:12:21Z</time>
      </trkpt>
      <trkpt lat="42.546955" lon="1.704139">
        <ele>2200.12964</ele>
        <time>2021-07-02T10:12:22Z</time>
      </trkpt>
      <trkpt lat="42.546692" lon="1.704207">
        <ele>2198.36426</ele>
        <time>2021-07-02T10:12:23Z</time>
      </trkpt>
      <trkpt lat="42.546398" lon="1.704292">
        <ele>2196.37061</ele>
        <time>2021-07-02T10:12:24Z</time>
      </trkpt>
      <trkpt lat="42.546120" lon="1.704374">
        <ele>2194.32275</ele>
        <time>2021-07-02T10:12:25Z</time>
      </trkpt>
      <trkpt lat="42.545841" lon="1.704449">
        <ele>2191.95752</ele>
        <time>2021-07-02T10:12:26Z</time>
      </trkpt>
      <trkpt lat="42.545559" lon="1.704525">
        <ele>2190.13940</ele>
        <time>2021-07-02T10:12:27Z</time>
      </trkpt>
      <trkpt lat="42.545319" lon="1.704591">
        <ele>2187.21973</ele>
        <time>2021-07-02T10:12:28Z</time>
      </trkpt>
      <trkpt lat="42.545067" lon="1.704669">
        <ele>2184.63672</ele>
        <time>2021-07-02T10:12:29Z</time>
      </trkpt>
      <trkpt lat="42.544811" lon="1.704739">
        <ele>2183.10840</ele>
        <time>2021-07-02T10:12:30Z</time>
      </trkpt>
      <trkpt lat="42.544544" lon="1.704809">
        <ele>2180.99585</ele>
        <time>2021-07-02T10:12:31Z</time>
      </trkpt>
      <trkpt lat="42.544285" lon="1.704878">
        <ele>2178.50000</ele>
        <time>2021-07-02T10:12:32Z</time>
      </trkpt>
      <trkpt lat="42.544025" lon="1.704947">
        <ele>2176.65454</ele>
        <time>2021-07-02T10:12:33Z</time>
      </trkpt>
      <trkpt lat="42.543781" lon="1.704997">
        <ele>2173.54297</ele>
        <time>2021-07-02T10:12:34Z</time>
      </trkpt>
      <trkpt lat="42.543545" lon="1.705021">
        <ele>2171.95264</ele>
        <time>2021-07-02T10:12:35Z</time>
      </trkpt>
      <trkpt lat="42.543320" lon="1.705011">
        <ele>2169.09229</ele>
        <time>2021-07-02T10:12:36Z</time>
      </trkpt>
      <trkpt lat="42.543102" lon="1.705001">
        <ele>2167.36108</ele>
        <time>2021-07-02T10:12:37Z</time>
      </trkpt>
      <trkpt lat="42.542892" lon="1.704979">
        <ele>2166.41016</ele>
        <time>2021-07-02T10:12:38Z</time>
      </trkpt>
      <trkpt lat="42.542706" lon="1.704957">
        <ele>2165.37891</ele>
        <time>2021-07-02T10:12:39Z</time>
      </trkpt>
      <trkpt lat="42.542538" lon="1.704971">
        <ele>2164.92627</ele>
        <time>2021-07-02T10:12:40Z</time>
      </trkpt>
      <trkpt lat="42.542408" lon="1.705025">
        <ele>2165.09277</ele>
        <time>2021-07-02T10:12:41Z</time>
      </trkpt>
      <trkpt lat="42.542316" lon="1.705074">
        <ele>2163.85132</ele>
        <time>2021-07-02T10:12:42Z</time>
      </trkpt>
      <trkpt lat="42.542255" lon="1.705097">
        <ele>2163.41772</ele>
        <time>2021-07-02T10:12:43Z</time>
      </trkpt>
      <trkpt lat="42.542206" lon="1.705096">
        <ele>2162.03833</ele>
        <time>2021-07-02T10:12:44Z</time>
      </trkpt>
      <trkpt lat="42.542145" lon="1.705046">
        <ele>2161.31592</ele>
        <time>2021-07-02T10:12:45Z</time>
      </trkpt>
      <trkpt lat="42.542110" lon="1.704971">
        <ele>2160.88306</ele>
        <time>2021-07-02T10:12:46Z</time>
      </trkpt>
      <trkpt lat="42.542126" lon="1.704822">
        <ele>2160.45532</ele>
        <time>2021-07-02T10:12:47Z</time>
      </trkpt>
      <trkpt lat="42.542278" lon="1.704724">
        <ele>2160.64038</ele>
        <time>2021-07-02T10:12:48Z</time>
      </trkpt>
      <trkpt lat="42.542412" lon="1.704695">
        <ele>2159.72510</ele>
        <time>2021-07-02T10:12:49Z</time>
      </trkpt>
      <trkpt lat="42.542641" lon="1.704647">
        <ele>2159.27734</ele>
        <time>2021-07-02T10:12:50Z</time>
      </trkpt>
      <trkpt lat="42.542870" lon="1.704574">
        <ele>2156.76636</ele>
        <time>2021-07-02T10:12:51Z</time>
      </trkpt>
      <trkpt lat="42.543098" lon="1.704489">
        <ele>2153.65503</ele>
        <time>2021-07-02T10:12:52Z</time>
      </trkpt>
      <trkpt lat="42.543098" lon="1.704489">
        <ele>2151.66968</ele>
        <time>2021-07-02T10:12:53Z</time>
      </trkpt>
      <trkpt lat="42.543346" lon="1.704369">
        <ele>2150.15283</ele>
        <time>2021-07-02T10:12:54Z</time>
      </trkpt>
      <trkpt lat="42.543541" lon="1.704273">
        <ele>2149.02710</ele>
        <time>2021-07-02T10:12:55Z</time>
      </trkpt>
      <trkpt lat="42.543755" lon="1.704180">
        <ele>2149.36719</ele>
        <time>2021-07-02T10:12:56Z</time>
      </trkpt>
      <trkpt lat="42.543949" lon="1.704112">
        <ele>2146.37524</ele>
        <time>2021-07-02T10:12:57Z</time>
      </trkpt>
      <trkpt lat="42.544121" lon="1.704073">
        <ele>2146.06958</ele>
        <time>2021-07-02T10:12:58Z</time>
      </trkpt>
      <trkpt lat="42.544220" lon="1.704050">
        <ele>2145.86475</ele>
        <time>2021-07-02T10:12:59Z</time>
      </trkpt>
      <trkpt lat="42.544292" lon="1.703994">
        <ele>2146.31763</ele>
        <time>2021-07-02T10:13:00Z</time>
      </trkpt>
      <trkpt lat="42.544350" lon="1.703856">
        <ele>2145.63501</ele>
        <time>2021-07-02T10:13:01Z</time>
      </trkpt>
      <trkpt lat="42.544346" lon="1.703782">
        <ele>2144.22998</ele>
        <time>2021-07-02T10:13:02Z</time>
      </trkpt>
      <trkpt lat="42.544273" lon="1.703715">
        <ele>2143.90210</ele>
        <time>2021-07-02T10:13:03Z</time>
      </trkpt>
      <trkpt lat="42.544209" lon="1.703696">
        <ele>2143.05835</ele>
        <time>2021-07-02T10:13:04Z</time>
      </trkpt>
      <trkpt lat="42.544106" lon="1.703723">
        <ele>2142.49414</ele>
        <time>2021-07-02T10:13:05Z</time>
      </trkpt>
      <trkpt lat="42.544014" lon="1.703770">
        <ele>2141.14331</ele>
        <time>2021-07-02T10:13:06Z</time>
      </trkpt>
      <trkpt lat="42.543846" lon="1.703843">
        <ele>2138.38989</ele>
        <time>2021-07-02T10:13:07Z</time>
      </trkpt>
      <trkpt lat="42.543690" lon="1.703877">
        <ele>2136.83105</ele>
        <time>2021-07-02T10:13:08Z</time>
      </trkpt>
      <trkpt lat="42.543522" lon="1.703891">
        <ele>2135.08936</ele>
        <time>2021-07-02T10:13:09Z</time>
      </trkpt>
      <trkpt lat="42.543385" lon="1.703896">
        <ele>2134.37158</ele>
        <time>2021-07-02T10:13:10Z</time>
      </trkpt>
      <trkpt lat="42.543270" lon="1.703901">
        <ele>2133.75415</ele>
        <time>2021-07-02T10:13:11Z</time>
      </trkpt>
      <trkpt lat="42.543156" lon="1.703887">
        <ele>2132.23804</ele>
        <time>2021-07-02T10:13:12Z</time>
      </trkpt>
      <trkpt lat="42.543068" lon="1.703870">
        <ele>2133.59790</ele>
        <time>2021-07-02T10:13:13Z</time>
      </trkpt>
      <trkpt lat="42.543003" lon="1.703857">
        <ele>2133.57837</ele>
        <time>2021-07-02T10:13:14Z</time>
      </trkpt>
      <trkpt lat="42.542946" lon="1.703829">
        <ele>2133.17212</ele>
        <time>2021-07-02T10:13:15Z</time>
      </trkpt>
      <trkpt lat="42.542881" lon="1.703766">
        <ele>2132.95679</ele>
        <time>2021-07-02T10:13:16Z</time>
      </trkpt>
      <trkpt lat="42.542847" lon="1.703666">
        <ele>2132.86182</ele>
        <time>2021-07-02T10:13:17Z</time>
      </trkpt>
      <trkpt lat="42.542854" lon="1.703562">
        <ele>2132.74194</ele>
        <time>2021-07-02T10:13:18Z</time>
      </trkpt>
      <trkpt lat="42.542915" lon="1.703471">
        <ele>2130.95850</ele>
        <time>2021-07-02T10:13:19Z</time>
      </trkpt>
      <trkpt lat="42.543022" lon="1.703456">
        <ele>2130.60986</ele>
        <time>2021-07-02T10:13:20Z</time>
      </trkpt>
      <trkpt lat="42.543163" lon="1.703489">
        <ele>2130.49634</ele>
        <time>2021-07-02T10:13:21Z</time>
      </trkpt>
      <trkpt lat="42.543312" lon="1.703523">
        <ele>2130.22485</ele>
        <time>2021-07-02T10:13:22Z</time>
      </trkpt>
      <trkpt lat="42.543442" lon="1.703531">
        <ele>2129.31689</ele>
        <time>2021-07-02T10:13:23Z</time>
      </trkpt>
      <trkpt lat="42.543591" lon="1.703515">
        <ele>2127.41992</ele>
        <time>2021-07-02T10:13:24Z</time>
      </trkpt>
      <trkpt lat="42.543720" lon="1.703467">
        <ele>2126.79736</ele>
        <time>2021-07-02T10:13:25Z</time>
      </trkpt>
      <trkpt lat="42.543854" lon="1.703405">
        <ele>2125.77075</ele>
        <time>2021-07-02T10:13:26Z</time>
      </trkpt>
      <trkpt lat="42.543854" lon="1.703405">
        <ele>2126.78857</ele>
        <time>2021-07-02T10:13:27Z</time>
      </trkpt>
      <trkpt lat="42.544003" lon="1.703319">
        <ele>2126.22998</ele>
        <time>2021-07-02T10:13:28Z</time>
      </trkpt>
      <trkpt lat="42.544147" lon="1.703218">
        <ele>2124.96460</ele>
        <time>2021-07-02T10:13:29Z</time>
      </trkpt>
      <trkpt lat="42.544300" lon="1.703106">
        <ele>2122.80688</ele>
        <time>2021-07-02T10:13:30Z</time>
      </trkpt>
      <trkpt lat="42.544476" lon="1.702925">
        <ele>2121.33667</ele>
        <time>2021-07-02T10:13:31Z</time>
      </trkpt>
      <trkpt lat="42.544632" lon="1.702784">
        <ele>2119.37769</ele>
        <time>2021-07-02T10:13:32Z</time>
      </trkpt>
      <trkpt lat="42.544800" lon="1.702638">
        <ele>2117.42578</ele>
        <time>2021-07-02T10:13:33Z</time>
      </trkpt>
      <trkpt lat="42.544937" lon="1.702479">
        <ele>2115.06055</ele>
        <time>2021-07-02T10:13:34Z</time>
      </trkpt>
      <trkpt lat="42.545094" lon="1.702293">
        <ele>2114.49365</ele>
        <time>2021-07-02T10:13:35Z</time>
      </trkpt>
      <trkpt lat="42.545261" lon="1.702114">
        <ele>2112.71191</ele>
        <time>2021-07-02T10:13:36Z</time>
      </trkpt>
      <trkpt lat="42.545414" lon="1.701955">
        <ele>2110.62012</ele>
        <time>2021-07-02T10:13:37Z</time>
      </trkpt>
      <trkpt lat="42.545567" lon="1.701797">
        <ele>2108.62744</ele>
        <time>2021-07-02T10:13:38Z</time>
      </trkpt>
      <trkpt lat="42.545708" lon="1.701651">
        <ele>2107.36743</ele>
        <time>2021-07-02T10:13:39Z</time>
      </trkpt>
      <trkpt lat="42.545879" lon="1.701507">
        <ele>2106.63403</ele>
        <time>2021-07-02T10:13:40Z</time>
      </trkpt>
      <trkpt lat="42.546047" lon="1.701373">
        <ele>2105.27979</ele>
        <time>2021-07-02T10:13:41Z</time>
      </trkpt>
      <trkpt lat="42.546207" lon="1.701262">
        <ele>2104.59717</ele>
        <time>2021-07-02T10:13:42Z</time>
      </trkpt>
      <trkpt lat="42.546364" lon="1.701157">
        <ele>2103.02466</ele>
        <time>2021-07-02T10:13:43Z</time>
      </trkpt>
      <trkpt lat="42.546516" lon="1.701096">
        <ele>2101.73999</ele>
        <time>2021-07-02T10:13:44Z</time>
      </trkpt>
      <trkpt lat="42.546677" lon="1.700980">
        <ele>2101.38843</ele>
        <time>2021-07-02T10:13:45Z</time>
      </trkpt>
      <trkpt lat="42.546856" lon="1.700847">
        <ele>2100.58813</ele>
        <time>2021-07-02T10:13:46Z</time>
      </trkpt>
      <trkpt lat="42.547035" lon="1.700712">
        <ele>2097.59570</ele>
        <time>2021-07-02T10:13:47Z</time>
      </trkpt>
      <trkpt lat="42.547211" lon="1.700568">
        <ele>2093.87183</ele>
        <time>2021-07-02T10:13:48Z</time>
      </trkpt>
      <trkpt lat="42.547363" lon="1.700436">
        <ele>2091.97827</ele>
        <time>2021-07-02T10:13:49Z</time>
      </trkpt>
      <trkpt lat="42.547531" lon="1.700303">
        <ele>2089.97900</ele>
        <time>2021-07-02T10:13:50Z</time>
      </trkpt>
      <trkpt lat="42.547710" lon="1.700199">
        <ele>2089.58984</ele>
        <time>2021-07-02T10:13:51Z</time>
      </trkpt>
      <trkpt lat="42.547890" lon="1.700084">
        <ele>2088.29614</ele>
        <time>2021-07-02T10:13:52Z</time>
      </trkpt>
      <trkpt lat="42.548103" lon="1.700010">
        <ele>2086.74683</ele>
        <time>2021-07-02T10:13:53Z</time>
      </trkpt>
      <trkpt lat="42.548309" lon="1.699922">
        <ele>2084.87671</ele>
        <time>2021-07-02T10:13:54Z</time>
      </trkpt>
      <trkpt lat="42.548492" lon="1.699807">
        <ele>2081.89502</ele>
        <time>2021-07-02T10:13:55Z</time>
      </trkpt>
      <trkpt lat="42.548664" lon="1.699689">
        <ele>2080.35205</ele>
        <time>2021-07-02T10:13:56Z</time>
      </trkpt>
      <trkpt lat="42.548820" lon="1.699549">
        <ele>2078.13574</ele>
        <time>2021-07-02T10:13:57Z</time>
      </trkpt>
      <trkpt lat="42.548973" lon="1.699408">
        <ele>2075.84668</ele>
        <time>2021-07-02T10:13:58Z</time>
      </trkpt>
      <trkpt lat="42.549110" lon="1.699255">
        <ele>2073.75195</ele>
        <time>2021-07-02T10:13:59Z</time>
      </trkpt>
      <trkpt lat="42.549240" lon="1.699093">
        <ele>2071.96509</ele>
        <time>2021-07-02T10:14:00Z</time>
      </trkpt>
      <trkpt lat="42.549370" lon="1.698932">
        <ele>2070.86987</ele>
        <time>2021-07-02T10:14:01Z</time>
      </trkpt>
      <trkpt lat="42.549496" lon="1.698772">
        <ele>2069.55811</ele>
        <time>2021-07-02T10:14:02Z</time>
      </trkpt>
      <trkpt lat="42.549622" lon="1.698606">
        <ele>2067.73828</ele>
        <time>2021-07-02T10:14:03Z</time>
      </trkpt>
      <trkpt lat="42.549622" lon="1.698606">
        <ele>2066.39062</ele>
        <time>2021-07-02T10:14:04Z</time>
      </trkpt>
      <trkpt lat="42.549717" lon="1.698428">
        <ele>2065.11963</ele>
        <time>2021-07-02T10:14:05Z</time>
      </trkpt>
      <trkpt lat="42.549809" lon="1.698247">
        <ele>2063.70215</ele>
        <time>2021-07-02T10:14:06Z</time>
      </trkpt>
      <trkpt lat="42.549892" lon="1.698073">
        <ele>2061.97461</ele>
        <time>2021-07-02T10:14:07Z</time>
      </trkpt>
      <trkpt lat="42.549980" lon="1.697896">
        <ele>2060.62207</ele>
        <time>2021-07-02T10:14:08Z</time>
      </trkpt>
      <trkpt lat="42.550083" lon="1.697698">
        <ele>2059.62329</ele>
        <time>2021-07-02T10:14:09Z</time>
      </trkpt>
      <trkpt lat="42.550182" lon="1.697504">
        <ele>2057.09473</ele>
        <time>2021-07-02T10:14:10Z</time>
      </trkpt>
      <trkpt lat="42.550304" lon="1.697322">
        <ele>2055.56104</ele>
        <time>2021-07-02T10:14:11Z</time>
      </trkpt>
      <trkpt lat="42.550423" lon="1.697148">
        <ele>2054.70776</ele>
        <time>2021-07-02T10:14:12Z</time>
      </trkpt>
      <trkpt lat="42.550545" lon="1.696965">
        <ele>2052.72363</ele>
        <time>2021-07-02T10:14:13Z</time>
      </trkpt>
      <trkpt lat="42.550655" lon="1.696800">
        <ele>2051.36328</ele>
        <time>2021-07-02T10:14:14Z</time>
      </trkpt>
      <trkpt lat="42.550777" lon="1.696657">
        <ele>2050.65088</ele>
        <time>2021-07-02T10:14:15Z</time>
      </trkpt>
      <trkpt lat="42.550903" lon="1.696481">
        <ele>2049.15503</ele>
        <time>2021-07-02T10:14:16Z</time>
      </trkpt>
      <trkpt lat="42.551029" lon="1.696318">
        <ele>2048.73682</ele>
        <time>2021-07-02T10:14:17Z</time>
      </trkpt>
      <trkpt lat="42.551144" lon="1.696179">
        <ele>2047.16528</ele>
        <time>2021-07-02T10:14:18Z</time>
      </trkpt>
      <trkpt lat="42.551254" lon="1.696084">
        <ele>2048.00342</ele>
        <time>2021-07-02T10:14:19Z</time>
      </trkpt>
      <trkpt lat="42.551353" lon="1.695987">
        <ele>2047.14624</ele>
        <time>2021-07-02T10:14:20Z</time>
      </trkpt>
      <trkpt lat="42.551426" lon="1.695877">
        <ele>2046.85791</ele>
        <time>2021-07-02T10:14:21Z</time>
      </trkpt>
      <trkpt lat="42.551472" lon="1.695805">
        <ele>2047.14502</ele>
        <time>2021-07-02T10:14:22Z</time>
      </trkpt>
      <trkpt lat="42.551514" lon="1.695738">
        <ele>2046.01733</ele>
        <time>2021-07-02T10:14:23Z</time>
      </trkpt>
      <trkpt lat="42.551563" lon="1.695663">
        <ele>2045.92773</ele>
        <time>2021-07-02T10:14:24Z</time>
      </trkpt>
      <trkpt lat="42.551655" lon="1.695652">
        <ele>2045.73535</ele>
        <time>2021-07-02T10:14:25Z</time>
      </trkpt>
      <trkpt lat="42.551739" lon="1.695592">
        <ele>2045.18750</ele>
        <time>2021-07-02T10:14:26Z</time>
      </trkpt>
      <trkpt lat="42.551777" lon="1.695518">
        <ele>2044.29639</ele>
        <time>2021-07-02T10:14:27Z</time>
      </trkpt>
      <trkpt lat="42.551792" lon="1.695407">
        <ele>2044.98804</ele>
        <time>2021-07-02T10:14:28Z</time>
      </trkpt>
      <trkpt lat="42.551765" lon="1.695279">
        <ele>2043.00488</ele>
        <time>2021-07-02T10:14:29Z</time>
      </trkpt>
      <trkpt lat="42.551704" lon="1.695211">
        <ele>2041.88281</ele>
        <time>2021-07-02T10:14:30Z</time>
      </trkpt>
      <trkpt lat="42.551697" lon="1.695205">
        <ele>2041.02441</ele>
        <time>2021-07-02T10:14:31Z</time>
      </trkpt>
      <trkpt lat="42.551693" lon="1.695204">
        <ele>2041.01172</ele>
        <time>2021-07-02T10:14:32Z</time>
      </trkpt>
      <trkpt lat="42.551880" lon="1.694856">
        <ele>2040.83325</ele>
        <time>2021-07-02T10:14:33Z</time>
      </trkpt>
      <trkpt lat="42.552032" lon="1.694626">
        <ele>2039.83789</ele>
        <time>2021-07-02T10:14:34Z</time>
      </trkpt>
      <trkpt lat="42.552143" lon="1.694481">
        <ele>2038.87549</ele>
        <time>2021-07-02T10:14:35Z</time>
      </trkpt>
      <trkpt lat="42.552246" lon="1.694333">
        <ele>2038.03638</ele>
        <time>2021-07-02T10:14:36Z</time>
      </trkpt>
      <trkpt lat="42.552246" lon="1.694333">
        <ele>2037.31470</ele>
        <time>2021-07-02T10:14:37Z</time>
      </trkpt>
      <trkpt lat="42.552349" lon="1.694185">
        <ele>2036.61816</ele>
        <time>2021-07-02T10:14:38Z</time>
      </trkpt>
      <trkpt lat="42.552460" lon="1.694025">
        <ele>2036.13086</ele>
        <time>2021-07-02T10:14:39Z</time>
      </trkpt>
      <trkpt lat="42.552567" lon="1.693868">
        <ele>2034.81128</ele>
        <time>2021-07-02T10:14:40Z</time>
      </trkpt>
      <trkpt lat="42.552677" lon="1.693708">
        <ele>2034.09888</ele>
        <time>2021-07-02T10:14:41Z</time>
      </trkpt>
      <trkpt lat="42.552795" lon="1.693541">
        <ele>2033.27710</ele>
        <time>2021-07-02T10:14:42Z</time>
      </trkpt>
      <trkpt lat="42.552910" lon="1.693360">
        <ele>2032.44238</ele>
        <time>2021-07-02T10:14:43Z</time>
      </trkpt>
      <trkpt lat="42.553024" lon="1.693168">
        <ele>2030.84326</ele>
        <time>2021-07-02T10:14:44Z</time>
      </trkpt>
      <trkpt lat="42.553150" lon="1.692965">
        <ele>2030.18921</ele>
        <time>2021-07-02T10:14:45Z</time>
      </trkpt>
      <trkpt lat="42.553268" lon="1.692811">
        <ele>2030.14087</ele>
        <time>2021-07-02T10:14:46Z</time>
      </trkpt>
      <trkpt lat="42.553394" lon="1.692646">
        <ele>2029.75610</ele>
        <time>2021-07-02T10:14:47Z</time>
      </trkpt>
      <trkpt lat="42.553524" lon="1.692478">
        <ele>2029.68848</ele>
        <time>2021-07-02T10:14:48Z</time>
      </trkpt>
      <trkpt lat="42.553658" lon="1.692309">
        <ele>2030.59814</ele>
        <time>2021-07-02T10:14:49Z</time>
      </trkpt>
      <trkpt lat="42.553799" lon="1.692153">
        <ele>2029.16846</ele>
        <time>2021-07-02T10:14:50Z</time>
      </trkpt>
      <trkpt lat="42.553925" lon="1.692023">
        <ele>2028.57422</ele>
        <time>2021-07-02T10:14:51Z</time>
      </trkpt>
      <trkpt lat="42.554058" lon="1.691887">
        <ele>2028.19214</ele>
        <time>2021-07-02T10:14:52Z</time>
      </trkpt>
      <trkpt lat="42.554188" lon="1.691763">
        <ele>2028.32983</ele>
        <time>2021-07-02T10:14:53Z</time>
      </trkpt>
      <trkpt lat="42.554314" lon="1.691647">
        <ele>2027.08960</ele>
        <time>2021-07-02T10:14:54Z</time>
      </trkpt>
      <trkpt lat="42.554443" lon="1.691523">
        <ele>2027.37451</ele>
        <time>2021-07-02T10:14:55Z</time>
      </trkpt>
      <trkpt lat="42.554569" lon="1.691406">
        <ele>2026.98730</ele>
        <time>2021-07-02T10:14:56Z</time>
      </trkpt>
      <trkpt lat="42.554695" lon="1.691288">
        <ele>2025.48560</ele>
        <time>2021-07-02T10:14:57Z</time>
      </trkpt>
      <trkpt lat="42.554832" lon="1.691160">
        <ele>2025.28467</ele>
        <time>2021-07-02T10:14:58Z</time>
      </trkpt>
      <trkpt lat="42.554970" lon="1.691032">
        <ele>2025.39380</ele>
        <time>2021-07-02T10:14:59Z</time>
      </trkpt>
      <trkpt lat="42.555096" lon="1.690912">
        <ele>2024.73193</ele>
        <time>2021-07-02T10:15:00Z</time>
      </trkpt>
      <trkpt lat="42.555237" lon="1.690780">
        <ele>2024.41455</ele>
        <time>2021-07-02T10:15:01Z</time>
      </trkpt>
      <trkpt lat="42.555386" lon="1.690641">
        <ele>2024.12744</ele>
        <time>2021-07-02T10:15:02Z</time>
      </trkpt>
      <trkpt lat="42.555527" lon="1.690510">
        <ele>2023.37451</ele>
        <time>2021-07-02T10:15:03Z</time>
      </trkpt>
      <trkpt lat="42.555656" lon="1.690387">
        <ele>2020.95166</ele>
        <time>2021-07-02T10:15:04Z</time>
      </trkpt>
      <trkpt lat="42.555790" lon="1.690262">
        <ele>2021.00171</ele>
        <time>2021-07-02T10:15:05Z</time>
      </trkpt>
      <trkpt lat="42.555923" lon="1.690136">
        <ele>2019.95972</ele>
        <time>2021-07-02T10:15:06Z</time>
      </trkpt>
      <trkpt lat="42.556068" lon="1.690014">
        <ele>2019.91187</ele>
        <time>2021-07-02T10:15:07Z</time>
      </trkpt>
      <trkpt lat="42.556206" lon="1.689902">
        <ele>2018.99927</ele>
        <time>2021-07-02T10:15:08Z</time>
      </trkpt>
      <trkpt lat="42.556347" lon="1.689787">
        <ele>2017.75415</ele>
        <time>2021-07-02T10:15:09Z</time>
      </trkpt>
      <trkpt lat="42.556480" lon="1.689680">
        <ele>2017.38818</ele>
        <time>2021-07-02T10:15:10Z</time>
      </trkpt>
      <trkpt lat="42.556610" lon="1.689574">
        <ele>2017.37622</ele>
        <time>2021-07-02T10:15:11Z</time>
      </trkpt>
      <trkpt lat="42.556755" lon="1.689458">
        <ele>2017.96216</ele>
        <time>2021-07-02T10:15:12Z</time>
      </trkpt>
      <trkpt lat="42.556892" lon="1.689349">
        <ele>2018.04907</ele>
        <time>2021-07-02T10:15:13Z</time>
      </trkpt>
      <trkpt lat="42.557037" lon="1.689230">
        <ele>2017.66895</ele>
        <time>2021-07-02T10:15:14Z</time>
      </trkpt>
      <trkpt lat="42.557171" lon="1.689119">
        <ele>2016.35645</ele>
        <time>2021-07-02T10:15:15Z</time>
      </trkpt>
      <trkpt lat="42.557171" lon="1.689119">
        <ele>2016.16504</ele>
        <time>2021-07-02T10:15:16Z</time>
      </trkpt>
      <trkpt lat="42.557301" lon="1.688998">
        <ele>2016.77954</ele>
        <time>2021-07-02T10:15:17Z</time>
      </trkpt>
      <trkpt lat="42.557430" lon="1.688865">
        <ele>2016.12720</ele>
        <time>2021-07-02T10:15:18Z</time>
      </trkpt>
      <trkpt lat="42.557545" lon="1.688742">
        <ele>2015.08887</ele>
        <time>2021-07-02T10:15:19Z</time>
      </trkpt>
      <trkpt lat="42.557648" lon="1.688586">
        <ele>2014.36548</ele>
        <time>2021-07-02T10:15:20Z</time>
      </trkpt>
      <trkpt lat="42.557739" lon="1.688444">
        <ele>2014.29565</ele>
        <time>2021-07-02T10:15:21Z</time>
      </trkpt>
      <trkpt lat="42.557823" lon="1.688314">
        <ele>2013.90894</ele>
        <time>2021-07-02T10:15:22Z</time>
      </trkpt>
      <trkpt lat="42.557907" lon="1.688182">
        <ele>2013.58374</ele>
        <time>2021-07-02T10:15:23Z</time>
      </trkpt>
      <trkpt lat="42.557991" lon="1.688054">
        <ele>2013.49902</ele>
        <time>2021-07-02T10:15:24Z</time>
      </trkpt>
      <trkpt lat="42.558071" lon="1.687928">
        <ele>2013.41992</ele>
        <time>2021-07-02T10:15:25Z</time>
      </trkpt>
      <trkpt lat="42.558151" lon="1.687803">
        <ele>2011.67163</ele>
        <time>2021-07-02T10:15:26Z</time>
      </trkpt>
      <trkpt lat="42.558228" lon="1.687685">
        <ele>2011.12817</ele>
        <time>2021-07-02T10:15:27Z</time>
      </trkpt>
      <trkpt lat="42.558311" lon="1.687552">
        <ele>2010.52100</ele>
        <time>2021-07-02T10:15:28Z</time>
      </trkpt>
      <trkpt lat="42.558392" lon="1.687423">
        <ele>2008.92358</ele>
        <time>2021-07-02T10:15:29Z</time>
      </trkpt>
      <trkpt lat="42.558472" lon="1.687304">
        <ele>2008.57812</ele>
        <time>2021-07-02T10:15:30Z</time>
      </trkpt>
      <trkpt lat="42.558552" lon="1.687186">
        <ele>2008.28491</ele>
        <time>2021-07-02T10:15:31Z</time>
      </trkpt>
      <trkpt lat="42.558628" lon="1.687068">
        <ele>2007.40845</ele>
        <time>2021-07-02T10:15:32Z</time>
      </trkpt>
      <trkpt lat="42.558701" lon="1.686963">
        <ele>2006.48901</ele>
        <time>2021-07-02T10:15:33Z</time>
      </trkpt>
      <trkpt lat="42.558781" lon="1.686839">
        <ele>2005.96191</ele>
        <time>2021-07-02T10:15:34Z</time>
      </trkpt>
      <trkpt lat="42.558861" lon="1.686721">
        <ele>2005.56592</ele>
        <time>2021-07-02T10:15:35Z</time>
      </trkpt>
      <trkpt lat="42.558933" lon="1.686613">
        <ele>2004.86011</ele>
        <time>2021-07-02T10:15:36Z</time>
      </trkpt>
      <trkpt lat="42.559006" lon="1.686502">
        <ele>2003.81470</ele>
        <time>2021-07-02T10:15:37Z</time>
      </trkpt>
      <trkpt lat="42.559082" lon="1.686390">
        <ele>2003.20142</ele>
        <time>2021-07-02T10:15:38Z</time>
      </trkpt>
      <trkpt lat="42.559155" lon="1.686282">
        <ele>2001.38452</ele>
        <time>2021-07-02T10:15:39Z</time>
      </trkpt>
      <trkpt lat="42.559227" lon="1.686173">
        <ele>1999.37622</ele>
        <time>2021-07-02T10:15:40Z</time>
      </trkpt>
      <trkpt lat="42.559303" lon="1.686058">
        <ele>1999.36255</ele>
        <time>2021-07-02T10:15:41Z</time>
      </trkpt>
      <trkpt lat="42.559372" lon="1.685954">
        <ele>1998.06030</ele>
        <time>2021-07-02T10:15:42Z</time>
      </trkpt>
      <trkpt lat="42.559444" lon="1.685849">
        <ele>1996.77319</ele>
        <time>2021-07-02T10:15:43Z</time>
      </trkpt>
      <trkpt lat="42.559521" lon="1.685741">
        <ele>1996.85498</ele>
        <time>2021-07-02T10:15:44Z</time>
      </trkpt>
      <trkpt lat="42.559593" lon="1.685642">
        <ele>1996.98804</ele>
        <time>2021-07-02T10:15:45Z</time>
      </trkpt>
      <trkpt lat="42.559662" lon="1.685543">
        <ele>1995.89502</ele>
        <time>2021-07-02T10:15:46Z</time>
      </trkpt>
      <trkpt lat="42.559738" lon="1.685437">
        <ele>1995.09473</ele>
        <time>2021-07-02T10:15:47Z</time>
      </trkpt>
      <trkpt lat="42.559818" lon="1.685323">
        <ele>1995.06323</ele>
        <time>2021-07-02T10:15:48Z</time>
      </trkpt>
      <trkpt lat="42.559906" lon="1.685201">
        <ele>1994.60986</ele>
        <time>2021-07-02T10:15:49Z</time>
      </trkpt>
      <trkpt lat="42.559982" lon="1.685090">
        <ele>1996.71851</ele>
        <time>2021-07-02T10:15:50Z</time>
      </trkpt>
      <trkpt lat="42.560055" lon="1.684990">
        <ele>1996.56006</ele>
        <time>2021-07-02T10:15:51Z</time>
      </trkpt>
      <trkpt lat="42.560055" lon="1.684990">
        <ele>1994.82471</ele>
        <time>2021-07-02T10:15:52Z</time>
      </trkpt>
      <trkpt lat="42.560127" lon="1.684886">
        <ele>1994.61182</ele>
        <time>2021-07-02T10:15:53Z</time>
      </trkpt>
      <trkpt lat="42.560207" lon="1.684769">
        <ele>1994.71826</ele>
        <time>2021-07-02T10:15:54Z</time>
      </trkpt>
      <trkpt lat="42.560276" lon="1.684667">
        <ele>1993.63086</ele>
        <time>2021-07-02T10:15:55Z</time>
      </trkpt>
      <trkpt lat="42.560345" lon="1.684563">
        <ele>1993.41064</ele>
        <time>2021-07-02T10:15:56Z</time>
      </trkpt>
      <trkpt lat="42.560425" lon="1.684445">
        <ele>1992.45215</ele>
        <time>2021-07-02T10:15:57Z</time>
      </trkpt>
      <trkpt lat="42.560513" lon="1.684317">
        <ele>1991.42139</ele>
        <time>2021-07-02T10:15:58Z</time>
      </trkpt>
      <trkpt lat="42.560596" lon="1.684192">
        <ele>1990.62207</ele>
        <time>2021-07-02T10:15:59Z</time>
      </trkpt>
      <trkpt lat="42.560677" lon="1.684072">
        <ele>1988.11084</ele>
        <time>2021-07-02T10:16:00Z</time>
      </trkpt>
      <trkpt lat="42.560760" lon="1.683949">
        <ele>1987.43262</ele>
        <time>2021-07-02T10:16:01Z</time>
      </trkpt>
      <trkpt lat="42.560841" lon="1.683826">
        <ele>1985.12695</ele>
        <time>2021-07-02T10:16:02Z</time>
      </trkpt>
      <trkpt lat="42.560936" lon="1.683689">
        <ele>1984.55615</ele>
        <time>2021-07-02T10:16:03Z</time>
      </trkpt>
      <trkpt lat="42.561024" lon="1.683559">
        <ele>1984.55225</ele>
        <time>2021-07-02T10:16:04Z</time>
      </trkpt>
      <trkpt lat="42.561096" lon="1.683415">
        <ele>1985.02197</ele>
        <time>2021-07-02T10:16:05Z</time>
      </trkpt>
      <trkpt lat="42.561180" lon="1.683254">
        <ele>1983.87769</ele>
        <time>2021-07-02T10:16:06Z</time>
      </trkpt>
      <trkpt lat="42.561272" lon="1.683117">
        <ele>1982.88721</ele>
        <time>2021-07-02T10:16:07Z</time>
      </trkpt>
      <trkpt lat="42.561371" lon="1.682989">
        <ele>1981.41650</ele>
        <time>2021-07-02T10:16:08Z</time>
      </trkpt>
      <trkpt lat="42.561462" lon="1.682868">
        <ele>1982.12769</ele>
        <time>2021-07-02T10:16:09Z</time>
      </trkpt>
      <trkpt lat="42.561584" lon="1.682714">
        <ele>1982.10596</ele>
        <time>2021-07-02T10:16:10Z</time>
      </trkpt>
      <trkpt lat="42.561718" lon="1.682544">
        <ele>1981.39771</ele>
        <time>2021-07-02T10:16:11Z</time>
      </trkpt>
      <trkpt lat="42.561844" lon="1.682388">
        <ele>1980.03076</ele>
        <time>2021-07-02T10:16:12Z</time>
      </trkpt>
      <trkpt lat="42.561981" lon="1.682239">
        <ele>1980.29297</ele>
        <time>2021-07-02T10:16:13Z</time>
      </trkpt>
      <trkpt lat="42.562126" lon="1.682082">
        <ele>1976.54102</ele>
        <time>2021-07-02T10:16:14Z</time>
      </trkpt>
      <trkpt lat="42.562271" lon="1.681923">
        <ele>1974.45044</ele>
        <time>2021-07-02T10:16:15Z</time>
      </trkpt>
      <trkpt lat="42.562412" lon="1.681769">
        <ele>1974.79492</ele>
        <time>2021-07-02T10:16:16Z</time>
      </trkpt>
      <trkpt lat="42.562553" lon="1.681619">
        <ele>1972.50830</ele>
        <time>2021-07-02T10:16:17Z</time>
      </trkpt>
      <trkpt lat="42.562702" lon="1.681455">
        <ele>1970.68091</ele>
        <time>2021-07-02T10:16:18Z</time>
      </trkpt>
      <trkpt lat="42.562862" lon="1.681301">
        <ele>1966.57861</ele>
        <time>2021-07-02T10:16:19Z</time>
      </trkpt>
      <trkpt lat="42.563011" lon="1.681156">
        <ele>1966.57861</ele>
        <time>2021-07-02T10:16:20Z</time>
      </trkpt>
      <trkpt lat="42.563152" lon="1.681012">
        <ele>1963.56055</ele>
        <time>2021-07-02T10:16:21Z</time>
      </trkpt>
      <trkpt lat="42.563297" lon="1.680869">
        <ele>1961.87061</ele>
        <time>2021-07-02T10:16:22Z</time>
      </trkpt>
      <trkpt lat="42.563442" lon="1.680723">
        <ele>1959.93311</ele>
        <time>2021-07-02T10:16:23Z</time>
      </trkpt>
      <trkpt lat="42.563583" lon="1.680580">
        <ele>1957.86670</ele>
        <time>2021-07-02T10:16:24Z</time>
      </trkpt>
      <trkpt lat="42.563717" lon="1.680446">
        <ele>1957.27295</ele>
        <time>2021-07-02T10:16:25Z</time>
      </trkpt>
      <trkpt lat="42.563740" lon="1.680423">
        <ele>1955.44336</ele>
        <time>2021-07-02T10:16:26Z</time>
      </trkpt>
      <trkpt lat="42.563740" lon="1.680423">
        <ele>1954.87476</ele>
        <time>2021-07-02T10:16:27Z</time>
      </trkpt>
      <trkpt lat="42.563744" lon="1.680419">
        <ele>1953.57202</ele>
        <time>2021-07-02T10:16:28Z</time>
      </trkpt>
      <trkpt lat="42.564075" lon="1.680088">
        <ele>1952.76660</ele>
        <time>2021-07-02T10:16:29Z</time>
      </trkpt>
      <trkpt lat="42.564240" lon="1.679927">
        <ele>1951.33838</ele>
        <time>2021-07-02T10:16:30Z</time>
      </trkpt>
      <trkpt lat="42.564373" lon="1.679809">
        <ele>1950.10693</ele>
        <time>2021-07-02T10:16:31Z</time>
      </trkpt>
      <trkpt lat="42.564510" lon="1.679711">
        <ele>1948.85889</ele>
        <time>2021-07-02T10:16:32Z</time>
      </trkpt>
      <trkpt lat="42.564678" lon="1.679640">
        <ele>1947.11304</ele>
        <time>2021-07-02T10:16:33Z</time>
      </trkpt>
      <trkpt lat="42.564838" lon="1.679620">
        <ele>1944.51538</ele>
        <time>2021-07-02T10:16:34Z</time>
      </trkpt>
      <trkpt lat="42.564976" lon="1.679616">
        <ele>1941.17188</ele>
        <time>2021-07-02T10:16:35Z</time>
      </trkpt>
      <trkpt lat="42.565182" lon="1.679603">
        <ele>1939.88672</ele>
        <time>2021-07-02T10:16:36Z</time>
      </trkpt>
      <trkpt lat="42.565395" lon="1.679579">
        <ele>1938.19751</ele>
        <time>2021-07-02T10:16:37Z</time>
      </trkpt>
      <trkpt lat="42.565578" lon="1.679544">
        <ele>1935.31299</ele>
        <time>2021-07-02T10:16:38Z</time>
      </trkpt>
      <trkpt lat="42.565765" lon="1.679458">
        <ele>1934.50073</ele>
        <time>2021-07-02T10:16:39Z</time>
      </trkpt>
      <trkpt lat="42.565971" lon="1.679355">
        <ele>1934.51172</ele>
        <time>2021-07-02T10:16:40Z</time>
      </trkpt>
      <trkpt lat="42.566154" lon="1.679236">
        <ele>1934.68164</ele>
        <time>2021-07-02T10:16:41Z</time>
      </trkpt>
      <trkpt lat="42.566349" lon="1.679109">
        <ele>1932.93408</ele>
        <time>2021-07-02T10:16:42Z</time>
      </trkpt>
      <trkpt lat="42.566528" lon="1.678992">
        <ele>1933.56299</ele>
        <time>2021-07-02T10:16:43Z</time>
      </trkpt>
      <trkpt lat="42.566715" lon="1.678871">
        <ele>1932.32959</ele>
        <time>2021-07-02T10:16:44Z</time>
      </trkpt>
      <trkpt lat="42.566895" lon="1.678768">
        <ele>1930.81616</ele>
        <time>2021-07-02T10:16:45Z</time>
      </trkpt>
      <trkpt lat="42.567074" lon="1.678674">
        <ele>1927.88867</ele>
        <time>2021-07-02T10:16:46Z</time>
      </trkpt>
      <trkpt lat="42.567245" lon="1.678614">
        <ele>1927.63721</ele>
        <time>2021-07-02T10:16:47Z</time>
      </trkpt>
      <trkpt lat="42.567432" lon="1.678591">
        <ele>1928.42920</ele>
        <time>2021-07-02T10:16:48Z</time>
      </trkpt>
      <trkpt lat="42.567604" lon="1.678583">
        <ele>1927.53809</ele>
        <time>2021-07-02T10:16:49Z</time>
      </trkpt>
      <trkpt lat="42.567871" lon="1.678615">
        <ele>1928.25977</ele>
        <time>2021-07-02T10:16:50Z</time>
      </trkpt>
      <trkpt lat="42.568130" lon="1.678611">
        <ele>1924.07642</ele>
        <time>2021-07-02T10:16:51Z</time>
      </trkpt>
      <trkpt lat="42.568344" lon="1.678585">
        <ele>1921.79297</ele>
        <time>2021-07-02T10:16:52Z</time>
      </trkpt>
      <trkpt lat="42.568546" lon="1.678535">
        <ele>1919.02734</ele>
        <time>2021-07-02T10:16:53Z</time>
      </trkpt>
      <trkpt lat="42.568764" lon="1.678477">
        <ele>1915.66699</ele>
        <time>2021-07-02T10:16:54Z</time>
      </trkpt>
      <trkpt lat="42.568993" lon="1.678416">
        <ele>1912.03418</ele>
        <time>2021-07-02T10:16:55Z</time>
      </trkpt>
      <trkpt lat="42.569206" lon="1.678359">
        <ele>1912.14648</ele>
        <time>2021-07-02T10:16:56Z</time>
      </trkpt>
      <trkpt lat="42.569408" lon="1.678309">
        <ele>1910.85156</ele>
        <time>2021-07-02T10:16:57Z</time>
      </trkpt>
      <trkpt lat="42.569611" lon="1.678263">
        <ele>1910.83398</ele>
        <time>2021-07-02T10:16:58Z</time>
      </trkpt>
      <trkpt lat="42.569832" lon="1.678159">
        <ele>1909.60693</ele>
        <time>2021-07-02T10:16:59Z</time>
      </trkpt>
      <trkpt lat="42.570042" lon="1.678050">
        <ele>1905.40747</ele>
        <time>2021-07-02T10:17:00Z</time>
      </trkpt>
      <trkpt lat="42.570042" lon="1.678050">
        <ele>1902.05518</ele>
        <time>2021-07-02T10:17:01Z</time>
      </trkpt>
      <trkpt lat="42.570282" lon="1.677850">
        <ele>1901.92896</ele>
        <time>2021-07-02T10:17:02Z</time>
      </trkpt>
      <trkpt lat="42.570499" lon="1.677645">
        <ele>1899.88818</ele>
        <time>2021-07-02T10:17:03Z</time>
      </trkpt>
      <trkpt lat="42.570702" lon="1.677460">
        <ele>1898.19263</ele>
        <time>2021-07-02T10:17:04Z</time>
      </trkpt>
      <trkpt lat="42.570923" lon="1.677306">
        <ele>1897.07861</ele>
        <time>2021-07-02T10:17:05Z</time>
      </trkpt>
      <trkpt lat="42.571144" lon="1.677131">
        <ele>1894.19043</ele>
        <time>2021-07-02T10:17:06Z</time>
      </trkpt>
      <trkpt lat="42.571365" lon="1.676980">
        <ele>1892.68555</ele>
        <time>2021-07-02T10:17:07Z</time>
      </trkpt>
      <trkpt lat="42.571602" lon="1.676794">
        <ele>1892.11182</ele>
        <time>2021-07-02T10:17:08Z</time>
      </trkpt>
      <trkpt lat="42.571789" lon="1.676626">
        <ele>1890.61938</ele>
        <time>2021-07-02T10:17:09Z</time>
      </trkpt>
      <trkpt lat="42.571953" lon="1.676415">
        <ele>1888.98975</ele>
        <time>2021-07-02T10:17:10Z</time>
      </trkpt>
      <trkpt lat="42.572117" lon="1.676194">
        <ele>1886.75732</ele>
        <time>2021-07-02T10:17:11Z</time>
      </trkpt>
      <trkpt lat="42.572277" lon="1.675976">
        <ele>1884.41162</ele>
        <time>2021-07-02T10:17:12Z</time>
      </trkpt>
      <trkpt lat="42.572407" lon="1.675771">
        <ele>1881.95972</ele>
        <time>2021-07-02T10:17:13Z</time>
      </trkpt>
      <trkpt lat="42.572544" lon="1.675549">
        <ele>1881.42529</ele>
        <time>2021-07-02T10:17:14Z</time>
      </trkpt>
      <trkpt lat="42.572685" lon="1.675355">
        <ele>1881.38281</ele>
        <time>2021-07-02T10:17:15Z</time>
      </trkpt>
      <trkpt lat="42.572823" lon="1.675211">
        <ele>1878.88086</ele>
        <time>2021-07-02T10:17:16Z</time>
      </trkpt>
      <trkpt lat="42.572956" lon="1.675090">
        <ele>1876.17041</ele>
        <time>2021-07-02T10:17:17Z</time>
      </trkpt>
      <trkpt lat="42.573120" lon="1.674937">
        <ele>1875.34741</ele>
        <time>2021-07-02T10:17:18Z</time>
      </trkpt>
      <trkpt lat="42.573280" lon="1.674791">
        <ele>1874.71094</ele>
        <time>2021-07-02T10:17:19Z</time>
      </trkpt>
      <trkpt lat="42.573433" lon="1.674664">
        <ele>1873.89209</ele>
        <time>2021-07-02T10:17:20Z</time>
      </trkpt>
      <trkpt lat="42.573578" lon="1.674566">
        <ele>1874.04639</ele>
        <time>2021-07-02T10:17:21Z</time>
      </trkpt>
      <trkpt lat="42.573711" lon="1.674463">
        <ele>1871.52319</ele>
        <time>2021-07-02T10:17:22Z</time>
      </trkpt>
      <trkpt lat="42.573837" lon="1.674362">
        <ele>1871.50610</ele>
        <time>2021-07-02T10:17:23Z</time>
      </trkpt>
      <trkpt lat="42.573952" lon="1.674264">
        <ele>1870.29224</ele>
        <time>2021-07-02T10:17:24Z</time>
      </trkpt>
      <trkpt lat="42.574055" lon="1.674171">
        <ele>1869.64282</ele>
        <time>2021-07-02T10:17:25Z</time>
      </trkpt>
      <trkpt lat="42.574154" lon="1.674065">
        <ele>1869.64355</ele>
        <time>2021-07-02T10:17:26Z</time>
      </trkpt>
      <trkpt lat="42.574238" lon="1.673920">
        <ele>1870.30176</ele>
        <time>2021-07-02T10:17:27Z</time>
      </trkpt>
      <trkpt lat="42.574318" lon="1.673735">
        <ele>1868.78906</ele>
        <time>2021-07-02T10:17:28Z</time>
      </trkpt>
      <trkpt lat="42.574383" lon="1.673560">
        <ele>1868.06738</ele>
        <time>2021-07-02T10:17:29Z</time>
      </trkpt>
      <trkpt lat="42.574451" lon="1.673341">
        <ele>1868.01294</ele>
        <time>2021-07-02T10:17:30Z</time>
      </trkpt>
      <trkpt lat="42.574512" lon="1.673153">
        <ele>1867.78809</ele>
        <time>2021-07-02T10:17:31Z</time>
      </trkpt>
      <trkpt lat="42.574604" lon="1.673021">
        <ele>1867.74756</ele>
        <time>2021-07-02T10:17:32Z</time>
      </trkpt>
      <trkpt lat="42.574722" lon="1.672907">
        <ele>1866.55322</ele>
        <time>2021-07-02T10:17:33Z</time>
      </trkpt>
      <trkpt lat="42.574833" lon="1.672800">
        <ele>1866.54712</ele>
        <time>2021-07-02T10:17:34Z</time>
      </trkpt>
      <trkpt lat="42.574928" lon="1.672687">
        <ele>1866.09595</ele>
        <time>2021-07-02T10:17:35Z</time>
      </trkpt>
      <trkpt lat="42.575012" lon="1.672584">
        <ele>1866.01196</ele>
        <time>2021-07-02T10:17:36Z</time>
      </trkpt>
      <trkpt lat="42.575012" lon="1.672584">
        <ele>1865.24316</ele>
        <time>2021-07-02T10:17:37Z</time>
      </trkpt>
      <trkpt lat="42.575092" lon="1.672469">
        <ele>1864.43213</ele>
        <time>2021-07-02T10:17:38Z</time>
      </trkpt>
      <trkpt lat="42.575153" lon="1.672343">
        <ele>1863.90625</ele>
        <time>2021-07-02T10:17:39Z</time>
      </trkpt>
      <trkpt lat="42.575199" lon="1.672196">
        <ele>1862.56250</ele>
        <time>2021-07-02T10:17:40Z</time>
      </trkpt>
      <trkpt lat="42.575245" lon="1.672056">
        <ele>1862.22754</ele>
        <time>2021-07-02T10:17:41Z</time>
      </trkpt>
      <trkpt lat="42.575287" lon="1.671937">
        <ele>1860.49707</ele>
        <time>2021-07-02T10:17:42Z</time>
      </trkpt>
      <trkpt lat="42.575321" lon="1.671844">
        <ele>1859.29541</ele>
        <time>2021-07-02T10:17:43Z</time>
      </trkpt>
      <trkpt lat="42.575363" lon="1.671729">
        <ele>1856.97705</ele>
        <time>2021-07-02T10:17:44Z</time>
      </trkpt>
      <trkpt lat="42.575443" lon="1.671574">
        <ele>1855.82324</ele>
        <time>2021-07-02T10:17:45Z</time>
      </trkpt>
      <trkpt lat="42.575504" lon="1.671445">
        <ele>1856.38379</ele>
        <time>2021-07-02T10:17:46Z</time>
      </trkpt>
      <trkpt lat="42.575562" lon="1.671300">
        <ele>1855.21631</ele>
        <time>2021-07-02T10:17:47Z</time>
      </trkpt>
      <trkpt lat="42.575600" lon="1.671162">
        <ele>1854.35791</ele>
        <time>2021-07-02T10:17:48Z</time>
      </trkpt>
      <trkpt lat="42.575634" lon="1.671037">
        <ele>1853.54712</ele>
        <time>2021-07-02T10:17:49Z</time>
      </trkpt>
      <trkpt lat="42.575668" lon="1.670915">
        <ele>1853.44873</ele>
        <time>2021-07-02T10:17:50Z</time>
      </trkpt>
      <trkpt lat="42.575699" lon="1.670797">
        <ele>1852.94141</ele>
        <time>2021-07-02T10:17:51Z</time>
      </trkpt>
      <trkpt lat="42.575733" lon="1.670673">
        <ele>1852.78906</ele>
        <time>2021-07-02T10:17:52Z</time>
      </trkpt>
      <trkpt lat="42.575768" lon="1.670540">
        <ele>1852.10693</ele>
        <time>2021-07-02T10:17:53Z</time>
      </trkpt>
      <trkpt lat="42.575806" lon="1.670408">
        <ele>1851.60181</ele>
        <time>2021-07-02T10:17:54Z</time>
      </trkpt>
      <trkpt lat="42.575844" lon="1.670286">
        <ele>1851.21289</ele>
        <time>2021-07-02T10:17:55Z</time>
      </trkpt>
      <trkpt lat="42.575878" lon="1.670173">
        <ele>1851.15991</ele>
        <time>2021-07-02T10:17:56Z</time>
      </trkpt>
      <trkpt lat="42.575920" lon="1.670053">
        <ele>1850.46533</ele>
        <time>2021-07-02T10:17:57Z</time>
      </trkpt>
      <trkpt lat="42.575962" lon="1.669934">
        <ele>1850.44946</ele>
        <time>2021-07-02T10:17:58Z</time>
      </trkpt>
      <trkpt lat="42.576004" lon="1.669814">
        <ele>1850.10303</ele>
        <time>2021-07-02T10:17:59Z</time>
      </trkpt>
      <trkpt lat="42.576046" lon="1.669691">
        <ele>1849.59131</ele>
        <time>2021-07-02T10:18:00Z</time>
      </trkpt>
      <trkpt lat="42.576092" lon="1.669563">
        <ele>1849.19336</ele>
        <time>2021-07-02T10:18:01Z</time>
      </trkpt>
      <trkpt lat="42.576130" lon="1.669451">
        <ele>1849.42773</ele>
        <time>2021-07-02T10:18:02Z</time>
      </trkpt>
      <trkpt lat="42.576168" lon="1.669340">
        <ele>1849.21436</ele>
        <time>2021-07-02T10:18:03Z</time>
      </trkpt>
      <trkpt lat="42.576218" lon="1.669222">
        <ele>1847.63135</ele>
        <time>2021-07-02T10:18:04Z</time>
      </trkpt>
      <trkpt lat="42.576263" lon="1.669111">
        <ele>1844.76221</ele>
        <time>2021-07-02T10:18:05Z</time>
      </trkpt>
      <trkpt lat="42.576317" lon="1.668987">
        <ele>1843.43457</ele>
        <time>2021-07-02T10:18:06Z</time>
      </trkpt>
      <trkpt lat="42.576378" lon="1.668841">
        <ele>1842.50586</ele>
        <time>2021-07-02T10:18:07Z</time>
      </trkpt>
      <trkpt lat="42.576439" lon="1.668710">
        <ele>1840.43408</ele>
        <time>2021-07-02T10:18:08Z</time>
      </trkpt>
      <trkpt lat="42.576488" lon="1.668604">
        <ele>1840.31787</ele>
        <time>2021-07-02T10:18:09Z</time>
      </trkpt>
      <trkpt lat="42.576550" lon="1.668484">
        <ele>1839.58765</ele>
        <time>2021-07-02T10:18:10Z</time>
      </trkpt>
      <trkpt lat="42.576599" lon="1.668358">
        <ele>1838.76025</ele>
        <time>2021-07-02T10:18:11Z</time>
      </trkpt>
      <trkpt lat="42.576645" lon="1.668234">
        <ele>1838.62915</ele>
        <time>2021-07-02T10:18:12Z</time>
      </trkpt>
      <trkpt lat="42.576675" lon="1.668107">
        <ele>1838.49292</ele>
        <time>2021-07-02T10:18:13Z</time>
      </trkpt>
      <trkpt lat="42.576683" lon="1.668083">
        <ele>1836.69092</ele>
        <time>2021-07-02T10:18:14Z</time>
      </trkpt>
      <trkpt lat="42.576683" lon="1.668083">
        <ele>1837.67822</ele>
        <time>2021-07-02T10:18:15Z</time>
      </trkpt>
      <trkpt lat="42.576832" lon="1.667884">
        <ele>1837.51318</ele>
        <time>2021-07-02T10:18:16Z</time>
      </trkpt>
      <trkpt lat="42.576855" lon="1.667818">
        <ele>1835.76514</ele>
        <time>2021-07-02T10:18:17Z</time>
      </trkpt>
      <trkpt lat="42.576729" lon="1.667563">
        <ele>1835.52148</ele>
        <time>2021-07-02T10:18:18Z</time>
      </trkpt>
      <trkpt lat="42.576744" lon="1.667431">
        <ele>1832.17871</ele>
        <time>2021-07-02T10:18:19Z</time>
      </trkpt>
      <trkpt lat="42.576763" lon="1.667322">
        <ele>1831.83643</ele>
        <time>2021-07-02T10:18:20Z</time>
      </trkpt>
      <trkpt lat="42.576790" lon="1.667200">
        <ele>1830.27905</ele>
        <time>2021-07-02T10:18:21Z</time>
      </trkpt>
      <trkpt lat="42.576817" lon="1.667069">
        <ele>1830.12939</ele>
        <time>2021-07-02T10:18:22Z</time>
      </trkpt>
      <trkpt lat="42.576843" lon="1.666949">
        <ele>1830.78198</ele>
        <time>2021-07-02T10:18:23Z</time>
      </trkpt>
      <trkpt lat="42.576862" lon="1.666863">
        <ele>1828.59131</ele>
        <time>2021-07-02T10:18:24Z</time>
      </trkpt>
      <trkpt lat="42.576893" lon="1.666744">
        <ele>1828.53516</ele>
        <time>2021-07-02T10:18:25Z</time>
      </trkpt>
      <trkpt lat="42.576916" lon="1.666647">
        <ele>1828.18799</ele>
        <time>2021-07-02T10:18:26Z</time>
      </trkpt>
      <trkpt lat="42.576946" lon="1.666527">
        <ele>1827.96045</ele>
        <time>2021-07-02T10:18:27Z</time>
      </trkpt>
      <trkpt lat="42.576977" lon="1.666415">
        <ele>1827.70581</ele>
        <time>2021-07-02T10:18:28Z</time>
      </trkpt>
      <trkpt lat="42.577003" lon="1.666305">
        <ele>1828.64624</ele>
        <time>2021-07-02T10:18:29Z</time>
      </trkpt>
      <trkpt lat="42.577011" lon="1.666271">
        <ele>1829.28955</ele>
        <time>2021-07-02T10:18:30Z</time>
      </trkpt>
      <trkpt lat="42.577011" lon="1.666271">
        <ele>1829.80127</ele>
        <time>2021-07-02T10:18:31Z</time>
      </trkpt>
      <trkpt lat="42.577038" lon="1.666170">
        <ele>1829.60303</ele>
        <time>2021-07-02T10:18:32Z</time>
      </trkpt>
      <trkpt lat="42.577133" lon="1.665789">
        <ele>1828.61963</ele>
        <time>2021-07-02T10:18:33Z</time>
      </trkpt>
      <trkpt lat="42.577164" lon="1.665673">
        <ele>1828.78809</ele>
        <time>2021-07-02T10:18:34Z</time>
      </trkpt>
      <trkpt lat="42.577187" lon="1.665529">
        <ele>1827.08447</ele>
        <time>2021-07-02T10:18:35Z</time>
      </trkpt>
      <trkpt lat="42.577209" lon="1.665397">
        <ele>1825.83691</ele>
        <time>2021-07-02T10:18:36Z</time>
      </trkpt>
      <trkpt lat="42.577232" lon="1.665275">
        <ele>1824.23145</ele>
        <time>2021-07-02T10:18:37Z</time>
      </trkpt>
      <trkpt lat="42.577263" lon="1.665135">
        <ele>1824.84229</ele>
        <time>2021-07-02T10:18:38Z</time>
      </trkpt>
      <trkpt lat="42.577293" lon="1.665000">
        <ele>1824.19922</ele>
        <time>2021-07-02T10:18:39Z</time>
      </trkpt>
      <trkpt lat="42.577328" lon="1.664861">
        <ele>1826.16504</ele>
        <time>2021-07-02T10:18:40Z</time>
      </trkpt>
      <trkpt lat="42.577370" lon="1.664732">
        <ele>1824.67529</ele>
        <time>2021-07-02T10:18:41Z</time>
      </trkpt>
      <trkpt lat="42.577412" lon="1.664602">
        <ele>1823.81079</ele>
        <time>2021-07-02T10:18:42Z</time>
      </trkpt>
      <trkpt lat="42.577454" lon="1.664470">
        <ele>1822.33325</ele>
        <time>2021-07-02T10:18:43Z</time>
      </trkpt>
      <trkpt lat="42.577480" lon="1.664334">
        <ele>1823.24438</ele>
        <time>2021-07-02T10:18:44Z</time>
      </trkpt>
      <trkpt lat="42.577499" lon="1.664186">
        <ele>1822.75806</ele>
        <time>2021-07-02T10:18:45Z</time>
      </trkpt>
      <trkpt lat="42.577511" lon="1.664036">
        <ele>1821.71240</ele>
        <time>2021-07-02T10:18:46Z</time>
      </trkpt>
      <trkpt lat="42.577515" lon="1.663884">
        <ele>1820.38232</ele>
        <time>2021-07-02T10:18:47Z</time>
      </trkpt>
      <trkpt lat="42.577511" lon="1.663741">
        <ele>1821.03589</ele>
        <time>2021-07-02T10:18:48Z</time>
      </trkpt>
      <trkpt lat="42.577515" lon="1.663596">
        <ele>1818.50342</ele>
        <time>2021-07-02T10:18:49Z</time>
      </trkpt>
      <trkpt lat="42.577530" lon="1.663465">
        <ele>1817.47900</ele>
        <time>2021-07-02T10:18:50Z</time>
      </trkpt>
      <trkpt lat="42.577576" lon="1.663346">
        <ele>1816.52319</ele>
        <time>2021-07-02T10:18:51Z</time>
      </trkpt>
      <trkpt lat="42.577625" lon="1.663250">
        <ele>1816.35791</ele>
        <time>2021-07-02T10:18:52Z</time>
      </trkpt>
      <trkpt lat="42.577637" lon="1.663229">
        <ele>1816.30371</ele>
        <time>2021-07-02T10:18:53Z</time>
      </trkpt>
      <trkpt lat="42.577751" lon="1.663121">
        <ele>1818.02979</ele>
        <time>2021-07-02T10:18:54Z</time>
      </trkpt>
      <trkpt lat="42.577751" lon="1.663121">
        <ele>1817.65234</ele>
        <time>2021-07-02T10:18:55Z</time>
      </trkpt>
      <trkpt lat="42.577835" lon="1.663083">
        <ele>1814.91016</ele>
        <time>2021-07-02T10:18:56Z</time>
      </trkpt>
      <trkpt lat="42.577976" lon="1.663063">
        <ele>1814.61914</ele>
        <time>2021-07-02T10:18:57Z</time>
      </trkpt>
      <trkpt lat="42.578072" lon="1.663063">
        <ele>1814.58740</ele>
        <time>2021-07-02T10:18:58Z</time>
      </trkpt>
      <trkpt lat="42.578182" lon="1.663087">
        <ele>1813.80273</ele>
        <time>2021-07-02T10:18:59Z</time>
      </trkpt>
      <trkpt lat="42.578304" lon="1.663128">
        <ele>1808.72266</ele>
        <time>2021-07-02T10:19:00Z</time>
      </trkpt>
      <trkpt lat="42.578396" lon="1.663162">
        <ele>1806.31982</ele>
        <time>2021-07-02T10:19:01Z</time>
      </trkpt>
      <trkpt lat="42.578510" lon="1.663203">
        <ele>1806.44702</ele>
        <time>2021-07-02T10:19:02Z</time>
      </trkpt>
      <trkpt lat="42.578636" lon="1.663256">
        <ele>1806.80518</ele>
        <time>2021-07-02T10:19:03Z</time>
      </trkpt>
      <trkpt lat="42.578728" lon="1.663297">
        <ele>1806.65576</ele>
        <time>2021-07-02T10:19:04Z</time>
      </trkpt>
      <trkpt lat="42.578861" lon="1.663358">
        <ele>1806.23584</ele>
        <time>2021-07-02T10:19:05Z</time>
      </trkpt>
      <trkpt lat="42.578999" lon="1.663423">
        <ele>1807.15869</ele>
        <time>2021-07-02T10:19:06Z</time>
      </trkpt>
      <trkpt lat="42.579121" lon="1.663482">
        <ele>1807.22192</ele>
        <time>2021-07-02T10:19:07Z</time>
      </trkpt>
      <trkpt lat="42.579231" lon="1.663535">
        <ele>1807.93921</ele>
        <time>2021-07-02T10:19:08Z</time>
      </trkpt>
      <trkpt lat="42.579338" lon="1.663585">
        <ele>1807.47363</ele>
        <time>2021-07-02T10:19:09Z</time>
      </trkpt>
      <trkpt lat="42.579472" lon="1.663649">
        <ele>1807.50757</ele>
        <time>2021-07-02T10:19:10Z</time>
      </trkpt>
      <trkpt lat="42.579628" lon="1.663726">
        <ele>1807.66504</ele>
        <time>2021-07-02T10:19:11Z</time>
      </trkpt>
      <trkpt lat="42.579739" lon="1.663770">
        <ele>1803.78223</ele>
        <time>2021-07-02T10:19:12Z</time>
      </trkpt>
      <trkpt lat="42.579865" lon="1.663817">
        <ele>1803.73022</ele>
        <time>2021-07-02T10:19:13Z</time>
      </trkpt>
      <trkpt lat="42.580002" lon="1.663871">
        <ele>1800.11377</ele>
        <time>2021-07-02T10:19:14Z</time>
      </trkpt>
      <trkpt lat="42.580173" lon="1.663949">
        <ele>1796.84058</ele>
        <time>2021-07-02T10:19:15Z</time>
      </trkpt>
      <trkpt lat="42.580322" lon="1.664016">
        <ele>1793.56201</ele>
        <time>2021-07-02T10:19:16Z</time>
      </trkpt>
      <trkpt lat="42.580475" lon="1.664073">
        <ele>1792.94385</ele>
        <time>2021-07-02T10:19:17Z</time>
      </trkpt>
      <trkpt lat="42.580620" lon="1.664127">
        <ele>1791.36182</ele>
        <time>2021-07-02T10:19:18Z</time>
      </trkpt>
      <trkpt lat="42.580765" lon="1.664181">
        <ele>1791.49365</ele>
        <time>2021-07-02T10:19:19Z</time>
      </trkpt>
      <trkpt lat="42.580910" lon="1.664237">
        <ele>1791.55322</ele>
        <time>2021-07-02T10:19:20Z</time>
      </trkpt>
      <trkpt lat="42.581059" lon="1.664293">
        <ele>1787.66162</ele>
        <time>2021-07-02T10:19:21Z</time>
      </trkpt>
      <trkpt lat="42.581196" lon="1.664345">
        <ele>1788.05176</ele>
        <time>2021-07-02T10:19:22Z</time>
      </trkpt>
      <trkpt lat="42.581341" lon="1.664399">
        <ele>1787.77637</ele>
        <time>2021-07-02T10:19:23Z</time>
      </trkpt>
      <trkpt lat="42.581490" lon="1.664440">
        <ele>1787.02637</ele>
        <time>2021-07-02T10:19:24Z</time>
      </trkpt>
      <trkpt lat="42.581638" lon="1.664462">
        <ele>1786.47900</ele>
        <time>2021-07-02T10:19:25Z</time>
      </trkpt>
      <trkpt lat="42.581779" lon="1.664456">
        <ele>1787.02856</ele>
        <time>2021-07-02T10:19:26Z</time>
      </trkpt>
      <trkpt lat="42.581921" lon="1.664450">
        <ele>1787.26514</ele>
        <time>2021-07-02T10:19:27Z</time>
      </trkpt>
      <trkpt lat="42.582066" lon="1.664447">
        <ele>1786.05225</ele>
        <time>2021-07-02T10:19:28Z</time>
      </trkpt>
      <trkpt lat="42.582207" lon="1.664461">
        <ele>1782.81274</ele>
        <time>2021-07-02T10:19:29Z</time>
      </trkpt>
      <trkpt lat="42.582207" lon="1.664461">
        <ele>1780.21460</ele>
        <time>2021-07-02T10:19:30Z</time>
      </trkpt>
      <trkpt lat="42.582375" lon="1.664480">
        <ele>1777.37158</ele>
        <time>2021-07-02T10:19:31Z</time>
      </trkpt>
      <trkpt lat="42.582520" lon="1.664499">
        <ele>1776.02441</ele>
        <time>2021-07-02T10:19:32Z</time>
      </trkpt>
      <trkpt lat="42.582653" lon="1.664518">
        <ele>1774.82788</ele>
        <time>2021-07-02T10:19:33Z</time>
      </trkpt>
      <trkpt lat="42.582806" lon="1.664542">
        <ele>1773.66602</ele>
        <time>2021-07-02T10:19:34Z</time>
      </trkpt>
      <trkpt lat="42.582954" lon="1.664567">
        <ele>1768.12305</ele>
        <time>2021-07-02T10:19:35Z</time>
      </trkpt>
      <trkpt lat="42.583111" lon="1.664593">
        <ele>1765.53076</ele>
        <time>2021-07-02T10:19:36Z</time>
      </trkpt>
      <trkpt lat="42.583244" lon="1.664616">
        <ele>1761.69434</ele>
        <time>2021-07-02T10:19:37Z</time>
      </trkpt>
      <trkpt lat="42.583370" lon="1.664617">
        <ele>1760.04980</ele>
        <time>2021-07-02T10:19:38Z</time>
      </trkpt>
      <trkpt lat="42.583492" lon="1.664580">
        <ele>1757.81348</ele>
        <time>2021-07-02T10:19:39Z</time>
      </trkpt>
      <trkpt lat="42.583595" lon="1.664519">
        <ele>1758.30884</ele>
        <time>2021-07-02T10:19:40Z</time>
      </trkpt>
      <trkpt lat="42.583660" lon="1.664456">
        <ele>1758.61987</ele>
        <time>2021-07-02T10:19:41Z</time>
      </trkpt>
      <trkpt lat="42.583733" lon="1.664349">
        <ele>1758.61816</ele>
        <time>2021-07-02T10:19:42Z</time>
      </trkpt>
      <trkpt lat="42.583786" lon="1.664228">
        <ele>1758.47754</ele>
        <time>2021-07-02T10:19:43Z</time>
      </trkpt>
      <trkpt lat="42.583824" lon="1.664103">
        <ele>1757.08130</ele>
        <time>2021-07-02T10:19:44Z</time>
      </trkpt>
      <trkpt lat="42.583851" lon="1.663963">
        <ele>1757.57690</ele>
        <time>2021-07-02T10:19:45Z</time>
      </trkpt>
      <trkpt lat="42.583862" lon="1.663820">
        <ele>1757.90332</ele>
        <time>2021-07-02T10:19:46Z</time>
      </trkpt>
      <trkpt lat="42.583843" lon="1.663680">
        <ele>1757.25635</ele>
        <time>2021-07-02T10:19:47Z</time>
      </trkpt>
      <trkpt lat="42.583817" lon="1.663537">
        <ele>1757.85107</ele>
        <time>2021-07-02T10:19:48Z</time>
      </trkpt>
      <trkpt lat="42.583755" lon="1.663410">
        <ele>1757.75952</ele>
        <time>2021-07-02T10:19:49Z</time>
      </trkpt>
      <trkpt lat="42.583675" lon="1.663313">
        <ele>1757.83691</ele>
        <time>2021-07-02T10:19:50Z</time>
      </trkpt>
      <trkpt lat="42.583580" lon="1.663241">
        <ele>1757.69653</ele>
        <time>2021-07-02T10:19:51Z</time>
      </trkpt>
      <trkpt lat="42.583481" lon="1.663165">
        <ele>1757.02222</ele>
        <time>2021-07-02T10:19:52Z</time>
      </trkpt>
      <trkpt lat="42.583382" lon="1.663085">
        <ele>1757.22485</ele>
        <time>2021-07-02T10:19:53Z</time>
      </trkpt>
      <trkpt lat="42.583290" lon="1.663011">
        <ele>1756.83643</ele>
        <time>2021-07-02T10:19:54Z</time>
      </trkpt>
      <trkpt lat="42.583187" lon="1.662931">
        <ele>1756.01562</ele>
        <time>2021-07-02T10:19:55Z</time>
      </trkpt>
      <trkpt lat="42.583157" lon="1.662905">
        <ele>1755.29785</ele>
        <time>2021-07-02T10:19:56Z</time>
      </trkpt>
      <trkpt lat="42.583157" lon="1.662905">
        <ele>1753.08008</ele>
        <time>2021-07-02T10:19:57Z</time>
      </trkpt>
      <trkpt lat="42.582912" lon="1.662714">
        <ele>1752.69629</ele>
        <time>2021-07-02T10:19:58Z</time>
      </trkpt>
      <trkpt lat="42.582748" lon="1.662603">
        <ele>1752.25293</ele>
        <time>2021-07-02T10:19:59Z</time>
      </trkpt>
      <trkpt lat="42.582748" lon="1.662603">
        <ele>1751.71338</ele>
        <time>2021-07-02T10:20:00Z</time>
      </trkpt>
      <trkpt lat="42.582638" lon="1.662520">
        <ele>1751.86206</ele>
        <time>2021-07-02T10:20:01Z</time>
      </trkpt>
      <trkpt lat="42.582535" lon="1.662436">
        <ele>1751.62256</ele>
        <time>2021-07-02T10:20:02Z</time>
      </trkpt>
      <trkpt lat="42.582417" lon="1.662337">
        <ele>1751.19287</ele>
        <time>2021-07-02T10:20:03Z</time>
      </trkpt>
      <trkpt lat="42.582310" lon="1.662252">
        <ele>1750.70654</ele>
        <time>2021-07-02T10:20:04Z</time>
      </trkpt>
      <trkpt lat="42.582191" lon="1.662162">
        <ele>1750.25488</ele>
        <time>2021-07-02T10:20:05Z</time>
      </trkpt>
      <trkpt lat="42.582081" lon="1.662090">
        <ele>1750.25488</ele>
        <time>2021-07-02T10:20:06Z</time>
      </trkpt>
      <trkpt lat="42.581978" lon="1.661990">
        <ele>1749.93164</ele>
        <time>2021-07-02T10:20:07Z</time>
      </trkpt>
      <trkpt lat="42.581867" lon="1.661876">
        <ele>1749.93164</ele>
        <time>2021-07-02T10:20:08Z</time>
      </trkpt>
      <trkpt lat="42.581768" lon="1.661771">
        <ele>1751.69238</ele>
        <time>2021-07-02T10:20:09Z</time>
      </trkpt>
      <trkpt lat="42.581661" lon="1.661661">
        <ele>1749.95923</ele>
        <time>2021-07-02T10:20:10Z</time>
      </trkpt>
      <trkpt lat="42.581558" lon="1.661553">
        <ele>1749.85254</ele>
        <time>2021-07-02T10:20:11Z</time>
      </trkpt>
      <trkpt lat="42.581451" lon="1.661439">
        <ele>1746.35620</ele>
        <time>2021-07-02T10:20:12Z</time>
      </trkpt>
      <trkpt lat="42.581341" lon="1.661325">
        <ele>1744.15747</ele>
        <time>2021-07-02T10:20:13Z</time>
      </trkpt>
      <trkpt lat="42.581230" lon="1.661206">
        <ele>1743.31714</ele>
        <time>2021-07-02T10:20:14Z</time>
      </trkpt>
      <trkpt lat="42.581093" lon="1.661070">
        <ele>1742.62402</ele>
        <time>2021-07-02T10:20:15Z</time>
      </trkpt>
      <trkpt lat="42.580967" lon="1.660962">
        <ele>1741.60254</ele>
        <time>2021-07-02T10:20:16Z</time>
      </trkpt>
      <trkpt lat="42.580864" lon="1.660872">
        <ele>1741.30786</ele>
        <time>2021-07-02T10:20:17Z</time>
      </trkpt>
      <trkpt lat="42.580765" lon="1.660759">
        <ele>1739.22510</ele>
        <time>2021-07-02T10:20:18Z</time>
      </trkpt>
      <trkpt lat="42.580658" lon="1.660639">
        <ele>1738.45630</ele>
        <time>2021-07-02T10:20:19Z</time>
      </trkpt>
      <trkpt lat="42.580551" lon="1.660519">
        <ele>1738.62134</ele>
        <time>2021-07-02T10:20:20Z</time>
      </trkpt>
      <trkpt lat="42.580444" lon="1.660376">
        <ele>1738.50781</ele>
        <time>2021-07-02T10:20:21Z</time>
      </trkpt>
      <trkpt lat="42.580349" lon="1.660243">
        <ele>1738.87305</ele>
        <time>2021-07-02T10:20:22Z</time>
      </trkpt>
      <trkpt lat="42.580254" lon="1.660104">
        <ele>1738.80713</ele>
        <time>2021-07-02T10:20:23Z</time>
      </trkpt>
      <trkpt lat="42.580170" lon="1.659960">
        <ele>1737.71216</ele>
        <time>2021-07-02T10:20:24Z</time>
      </trkpt>
      <trkpt lat="42.580086" lon="1.659819">
        <ele>1737.14746</ele>
        <time>2021-07-02T10:20:25Z</time>
      </trkpt>
      <trkpt lat="42.579994" lon="1.659680">
        <ele>1735.36890</ele>
        <time>2021-07-02T10:20:26Z</time>
      </trkpt>
      <trkpt lat="42.579903" lon="1.659545">
        <ele>1733.82715</ele>
        <time>2021-07-02T10:20:27Z</time>
      </trkpt>
      <trkpt lat="42.579811" lon="1.659408">
        <ele>1733.94775</ele>
        <time>2021-07-02T10:20:28Z</time>
      </trkpt>
      <trkpt lat="42.579746" lon="1.659314">
        <ele>1734.16187</ele>
        <time>2021-07-02T10:20:29Z</time>
      </trkpt>
      <trkpt lat="42.579681" lon="1.659213">
        <ele>1734.04297</ele>
        <time>2021-07-02T10:20:30Z</time>
      </trkpt>
      <trkpt lat="42.579597" lon="1.659091">
        <ele>1733.32349</ele>
        <time>2021-07-02T10:20:31Z</time>
      </trkpt>
      <trkpt lat="42.579525" lon="1.658982">
        <ele>1734.46143</ele>
        <time>2021-07-02T10:20:32Z</time>
      </trkpt>
      <trkpt lat="42.579441" lon="1.658849">
        <ele>1734.01660</ele>
        <time>2021-07-02T10:20:33Z</time>
      </trkpt>
      <trkpt lat="42.579441" lon="1.658849">
        <ele>1733.40894</ele>
        <time>2021-07-02T10:20:34Z</time>
      </trkpt>
      <trkpt lat="42.579350" lon="1.658702">
        <ele>1732.79346</ele>
        <time>2021-07-02T10:20:35Z</time>
      </trkpt>
      <trkpt lat="42.579269" lon="1.658570">
        <ele>1732.28125</ele>
        <time>2021-07-02T10:20:36Z</time>
      </trkpt>
      <trkpt lat="42.579185" lon="1.658437">
        <ele>1731.59082</ele>
        <time>2021-07-02T10:20:37Z</time>
      </trkpt>
      <trkpt lat="42.579098" lon="1.658305">
        <ele>1730.63086</ele>
        <time>2021-07-02T10:20:38Z</time>
      </trkpt>
      <trkpt lat="42.579018" lon="1.658180">
        <ele>1728.40381</ele>
        <time>2021-07-02T10:20:39Z</time>
      </trkpt>
      <trkpt lat="42.578930" lon="1.658048">
        <ele>1727.97119</ele>
        <time>2021-07-02T10:20:40Z</time>
      </trkpt>
      <trkpt lat="42.578838" lon="1.657922">
        <ele>1730.69482</ele>
        <time>2021-07-02T10:20:41Z</time>
      </trkpt>
      <trkpt lat="42.578735" lon="1.657777">
        <ele>1729.50415</ele>
        <time>2021-07-02T10:20:42Z</time>
      </trkpt>
      <trkpt lat="42.578644" lon="1.657656">
        <ele>1728.86523</ele>
        <time>2021-07-02T10:20:43Z</time>
      </trkpt>
      <trkpt lat="42.578545" lon="1.657527">
        <ele>1728.82129</ele>
        <time>2021-07-02T10:20:44Z</time>
      </trkpt>
      <trkpt lat="42.578449" lon="1.657410">
        <ele>1728.21729</ele>
        <time>2021-07-02T10:20:45Z</time>
      </trkpt>
      <trkpt lat="42.578358" lon="1.657295">
        <ele>1725.96924</ele>
        <time>2021-07-02T10:20:46Z</time>
      </trkpt>
      <trkpt lat="42.578262" lon="1.657172">
        <ele>1726.81250</ele>
        <time>2021-07-02T10:20:47Z</time>
      </trkpt>
      <trkpt lat="42.578182" lon="1.657032">
        <ele>1725.57129</ele>
        <time>2021-07-02T10:20:48Z</time>
      </trkpt>
      <trkpt lat="42.578091" lon="1.656867">
        <ele>1725.46924</ele>
        <time>2021-07-02T10:20:49Z</time>
      </trkpt>
      <trkpt lat="42.578011" lon="1.656696">
        <ele>1726.91650</ele>
        <time>2021-07-02T10:20:50Z</time>
      </trkpt>
      <trkpt lat="42.577934" lon="1.656525">
        <ele>1724.41943</ele>
        <time>2021-07-02T10:20:51Z</time>
      </trkpt>
      <trkpt lat="42.577866" lon="1.656332">
        <ele>1722.52222</ele>
        <time>2021-07-02T10:20:52Z</time>
      </trkpt>
      <trkpt lat="42.577782" lon="1.656107">
        <ele>1720.71777</ele>
        <time>2021-07-02T10:20:53Z</time>
      </trkpt>
      <trkpt lat="42.577724" lon="1.655893">
        <ele>1720.18091</ele>
        <time>2021-07-02T10:20:54Z</time>
      </trkpt>
      <trkpt lat="42.577671" lon="1.655680">
        <ele>1719.42578</ele>
        <time>2021-07-02T10:20:55Z</time>
      </trkpt>
      <trkpt lat="42.577637" lon="1.655454">
        <ele>1719.14062</ele>
        <time>2021-07-02T10:20:56Z</time>
      </trkpt>
      <trkpt lat="42.577606" lon="1.655206">
        <ele>1716.49268</ele>
        <time>2021-07-02T10:20:57Z</time>
      </trkpt>
      <trkpt lat="42.577606" lon="1.654961">
        <ele>1712.83789</ele>
        <time>2021-07-02T10:20:58Z</time>
      </trkpt>
      <trkpt lat="42.577637" lon="1.654663">
        <ele>1711.63672</ele>
        <time>2021-07-02T10:20:59Z</time>
      </trkpt>
      <trkpt lat="42.577686" lon="1.654393">
        <ele>1712.45947</ele>
        <time>2021-07-02T10:21:00Z</time>
      </trkpt>
      <trkpt lat="42.577732" lon="1.654121">
        <ele>1712.20166</ele>
        <time>2021-07-02T10:21:01Z</time>
      </trkpt>
      <trkpt lat="42.577774" lon="1.653876">
        <ele>1711.28809</ele>
        <time>2021-07-02T10:21:02Z</time>
      </trkpt>
      <trkpt lat="42.577843" lon="1.653659">
        <ele>1710.95361</ele>
        <time>2021-07-02T10:21:03Z</time>
      </trkpt>
      <trkpt lat="42.577911" lon="1.653444">
        <ele>1710.68237</ele>
        <time>2021-07-02T10:21:04Z</time>
      </trkpt>
      <trkpt lat="42.577911" lon="1.653444">
        <ele>1710.65405</ele>
        <time>2021-07-02T10:21:05Z</time>
      </trkpt>
      <trkpt lat="42.577972" lon="1.653241">
        <ele>1710.13379</ele>
        <time>2021-07-02T10:21:06Z</time>
      </trkpt>
      <trkpt lat="42.578041" lon="1.653033">
        <ele>1708.53638</ele>
        <time>2021-07-02T10:21:07Z</time>
      </trkpt>
      <trkpt lat="42.578094" lon="1.652808">
        <ele>1708.01758</ele>
        <time>2021-07-02T10:21:08Z</time>
      </trkpt>
      <trkpt lat="42.578125" lon="1.652590">
        <ele>1707.58789</ele>
        <time>2021-07-02T10:21:09Z</time>
      </trkpt>
      <trkpt lat="42.578148" lon="1.652376">
        <ele>1706.72021</ele>
        <time>2021-07-02T10:21:10Z</time>
      </trkpt>
      <trkpt lat="42.578190" lon="1.652180">
        <ele>1704.65991</ele>
        <time>2021-07-02T10:21:11Z</time>
      </trkpt>
      <trkpt lat="42.578259" lon="1.651980">
        <ele>1703.24829</ele>
        <time>2021-07-02T10:21:12Z</time>
      </trkpt>
      <trkpt lat="42.578342" lon="1.651776">
        <ele>1701.89990</ele>
        <time>2021-07-02T10:21:13Z</time>
      </trkpt>
      <trkpt lat="42.578423" lon="1.651586">
        <ele>1700.91235</ele>
        <time>2021-07-02T10:21:14Z</time>
      </trkpt>
      <trkpt lat="42.578491" lon="1.651414">
        <ele>1699.67139</ele>
        <time>2021-07-02T10:21:15Z</time>
      </trkpt>
      <trkpt lat="42.578556" lon="1.651227">
        <ele>1697.06006</ele>
        <time>2021-07-02T10:21:16Z</time>
      </trkpt>
      <trkpt lat="42.578598" lon="1.651031">
        <ele>1695.42969</ele>
        <time>2021-07-02T10:21:17Z</time>
      </trkpt>
      <trkpt lat="42.578632" lon="1.650841">
        <ele>1695.02051</ele>
        <time>2021-07-02T10:21:18Z</time>
      </trkpt>
      <trkpt lat="42.578667" lon="1.650656">
        <ele>1694.22461</ele>
        <time>2021-07-02T10:21:19Z</time>
      </trkpt>
      <trkpt lat="42.578697" lon="1.650495">
        <ele>1693.19727</ele>
        <time>2021-07-02T10:21:20Z</time>
      </trkpt>
      <trkpt lat="42.578728" lon="1.650333">
        <ele>1691.46802</ele>
        <time>2021-07-02T10:21:21Z</time>
      </trkpt>
      <trkpt lat="42.578762" lon="1.650185">
        <ele>1690.70142</ele>
        <time>2021-07-02T10:21:22Z</time>
      </trkpt>
      <trkpt lat="42.578800" lon="1.650054">
        <ele>1689.84692</ele>
        <time>2021-07-02T10:21:23Z</time>
      </trkpt>
      <trkpt lat="42.578865" lon="1.649954">
        <ele>1689.64893</ele>
        <time>2021-07-02T10:21:24Z</time>
      </trkpt>
      <trkpt lat="42.578941" lon="1.649864">
        <ele>1689.43896</ele>
        <time>2021-07-02T10:21:25Z</time>
      </trkpt>
      <trkpt lat="42.579029" lon="1.649801">
        <ele>1689.36011</ele>
        <time>2021-07-02T10:21:26Z</time>
      </trkpt>
      <trkpt lat="42.579166" lon="1.649738">
        <ele>1687.61182</ele>
        <time>2021-07-02T10:21:27Z</time>
      </trkpt>
      <trkpt lat="42.579296" lon="1.649669">
        <ele>1685.87158</ele>
        <time>2021-07-02T10:21:28Z</time>
      </trkpt>
      <trkpt lat="42.579414" lon="1.649590">
        <ele>1685.06836</ele>
        <time>2021-07-02T10:21:29Z</time>
      </trkpt>
      <trkpt lat="42.579510" lon="1.649494">
        <ele>1685.42529</ele>
        <time>2021-07-02T10:21:30Z</time>
      </trkpt>
      <trkpt lat="42.579590" lon="1.649372">
        <ele>1684.39258</ele>
        <time>2021-07-02T10:21:31Z</time>
      </trkpt>
      <trkpt lat="42.579666" lon="1.649212">
        <ele>1683.67090</ele>
        <time>2021-07-02T10:21:32Z</time>
      </trkpt>
      <trkpt lat="42.579742" lon="1.649048">
        <ele>1683.24414</ele>
        <time>2021-07-02T10:21:33Z</time>
      </trkpt>
      <trkpt lat="42.579815" lon="1.648882">
        <ele>1683.06812</ele>
        <time>2021-07-02T10:21:34Z</time>
      </trkpt>
      <trkpt lat="42.579880" lon="1.648710">
        <ele>1681.94751</ele>
        <time>2021-07-02T10:21:35Z</time>
      </trkpt>
      <trkpt lat="42.579945" lon="1.648536">
        <ele>1681.74805</ele>
        <time>2021-07-02T10:21:36Z</time>
      </trkpt>
      <trkpt lat="42.580006" lon="1.648364">
        <ele>1682.09180</ele>
        <time>2021-07-02T10:21:37Z</time>
      </trkpt>
      <trkpt lat="42.580059" lon="1.648212">
        <ele>1681.90796</ele>
        <time>2021-07-02T10:21:38Z</time>
      </trkpt>
      <trkpt lat="42.580059" lon="1.648212">
        <ele>1681.35693</ele>
        <time>2021-07-02T10:21:39Z</time>
      </trkpt>
      <trkpt lat="42.580109" lon="1.648062">
        <ele>1679.77759</ele>
        <time>2021-07-02T10:21:40Z</time>
      </trkpt>
      <trkpt lat="42.580173" lon="1.647925">
        <ele>1680.24121</ele>
        <time>2021-07-02T10:21:41Z</time>
      </trkpt>
      <trkpt lat="42.580246" lon="1.647828">
        <ele>1679.85596</ele>
        <time>2021-07-02T10:21:42Z</time>
      </trkpt>
      <trkpt lat="42.580299" lon="1.647704">
        <ele>1679.57837</ele>
        <time>2021-07-02T10:21:43Z</time>
      </trkpt>
      <trkpt lat="42.580345" lon="1.647511">
        <ele>1679.56104</ele>
        <time>2021-07-02T10:21:44Z</time>
      </trkpt>
      <trkpt lat="42.580368" lon="1.647335">
        <ele>1679.34863</ele>
        <time>2021-07-02T10:21:45Z</time>
      </trkpt>
      <trkpt lat="42.580364" lon="1.647180">
        <ele>1679.90381</ele>
        <time>2021-07-02T10:21:46Z</time>
      </trkpt>
      <trkpt lat="42.580349" lon="1.647030">
        <ele>1679.97217</ele>
        <time>2021-07-02T10:21:47Z</time>
      </trkpt>
      <trkpt lat="42.580318" lon="1.646882">
        <ele>1679.79932</ele>
        <time>2021-07-02T10:21:48Z</time>
      </trkpt>
      <trkpt lat="42.580280" lon="1.646727">
        <ele>1680.61938</ele>
        <time>2021-07-02T10:21:49Z</time>
      </trkpt>
      <trkpt lat="42.580242" lon="1.646584">
        <ele>1680.94531</ele>
        <time>2021-07-02T10:21:50Z</time>
      </trkpt>
      <trkpt lat="42.580204" lon="1.646440">
        <ele>1680.28662</ele>
        <time>2021-07-02T10:21:51Z</time>
      </trkpt>
      <trkpt lat="42.580158" lon="1.646308">
        <ele>1681.60986</ele>
        <time>2021-07-02T10:21:52Z</time>
      </trkpt>
      <trkpt lat="42.580120" lon="1.646205">
        <ele>1681.52051</ele>
        <time>2021-07-02T10:21:53Z</time>
      </trkpt>
      <trkpt lat="42.580078" lon="1.646082">
        <ele>1683.08691</ele>
        <time>2021-07-02T10:21:54Z</time>
      </trkpt>
      <trkpt lat="42.580044" lon="1.645987">
        <ele>1682.80127</ele>
        <time>2021-07-02T10:21:55Z</time>
      </trkpt>
      <trkpt lat="42.580009" lon="1.645898">
        <ele>1681.48389</ele>
        <time>2021-07-02T10:21:56Z</time>
      </trkpt>
      <trkpt lat="42.580002" lon="1.645872">
        <ele>1680.90991</ele>
        <time>2021-07-02T10:21:57Z</time>
      </trkpt>
      <trkpt lat="42.579990" lon="1.645840">
        <ele>1679.75122</ele>
        <time>2021-07-02T10:21:58Z</time>
      </trkpt>
      <trkpt lat="42.579967" lon="1.645774">
        <ele>1679.94971</ele>
        <time>2021-07-02T10:21:59Z</time>
      </trkpt>
      <trkpt lat="42.579956" lon="1.645644">
        <ele>1679.60522</ele>
        <time>2021-07-02T10:22:00Z</time>
      </trkpt>
      <trkpt lat="42.579899" lon="1.645569">
        <ele>1679.64380</ele>
        <time>2021-07-02T10:22:01Z</time>
      </trkpt>
      <trkpt lat="42.579849" lon="1.645566">
        <ele>1679.91846</ele>
        <time>2021-07-02T10:22:02Z</time>
      </trkpt>
      <trkpt lat="42.579807" lon="1.645594">
        <ele>1679.41748</ele>
        <time>2021-07-02T10:22:03Z</time>
      </trkpt>
      <trkpt lat="42.579777" lon="1.645708">
        <ele>1679.52710</ele>
        <time>2021-07-02T10:22:04Z</time>
      </trkpt>
      <trkpt lat="42.579815" lon="1.645795">
        <ele>1679.84961</ele>
        <time>2021-07-02T10:22:05Z</time>
      </trkpt>
      <trkpt lat="42.579830" lon="1.645806">
        <ele>1680.54956</ele>
        <time>2021-07-02T10:22:06Z</time>
      </trkpt>
      <trkpt lat="42.579937" lon="1.645978">
        <ele>1679.88965</ele>
        <time>2021-07-02T10:22:07Z</time>
      </trkpt>
      <trkpt lat="42.580032" lon="1.646179">
        <ele>1680.83447</ele>
        <time>2021-07-02T10:22:08Z</time>
      </trkpt>
      <trkpt lat="42.580032" lon="1.646179">
        <ele>1678.75879</ele>
        <time>2021-07-02T10:22:09Z</time>
      </trkpt>
      <trkpt lat="42.580093" lon="1.646325">
        <ele>1678.52319</ele>
        <time>2021-07-02T10:22:10Z</time>
      </trkpt>
      <trkpt lat="42.580147" lon="1.646477">
        <ele>1678.46729</ele>
        <time>2021-07-02T10:22:11Z</time>
      </trkpt>
      <trkpt lat="42.580200" lon="1.646656">
        <ele>1681.07568</ele>
        <time>2021-07-02T10:22:12Z</time>
      </trkpt>
      <trkpt lat="42.580231" lon="1.646808">
        <ele>1681.14648</ele>
        <time>2021-07-02T10:22:13Z</time>
      </trkpt>
      <trkpt lat="42.580261" lon="1.646972">
        <ele>1681.19189</ele>
        <time>2021-07-02T10:22:14Z</time>
      </trkpt>
      <trkpt lat="42.580284" lon="1.647119">
        <ele>1681.86670</ele>
        <time>2021-07-02T10:22:15Z</time>
      </trkpt>
      <trkpt lat="42.580288" lon="1.647287">
        <ele>1683.06885</ele>
        <time>2021-07-02T10:22:16Z</time>
      </trkpt>
      <trkpt lat="42.580273" lon="1.647428">
        <ele>1683.23828</ele>
        <time>2021-07-02T10:22:17Z</time>
      </trkpt>
      <trkpt lat="42.580238" lon="1.647587">
        <ele>1683.08154</ele>
        <time>2021-07-02T10:22:18Z</time>
      </trkpt>
      <trkpt lat="42.580208" lon="1.647730">
        <ele>1683.70532</ele>
        <time>2021-07-02T10:22:19Z</time>
      </trkpt>
      <trkpt lat="42.580196" lon="1.647865">
        <ele>1682.46924</ele>
        <time>2021-07-02T10:22:20Z</time>
      </trkpt>
      <trkpt lat="42.580158" lon="1.647959">
        <ele>1683.26782</ele>
        <time>2021-07-02T10:22:21Z</time>
      </trkpt>
      <trkpt lat="42.580090" lon="1.648123">
        <ele>1684.24023</ele>
        <time>2021-07-02T10:22:22Z</time>
      </trkpt>
      <trkpt lat="42.580051" lon="1.648235">
        <ele>1682.94238</ele>
        <time>2021-07-02T10:22:23Z</time>
      </trkpt>
      <trkpt lat="42.580006" lon="1.648361">
        <ele>1681.56519</ele>
        <time>2021-07-02T10:22:24Z</time>
      </trkpt>
      <trkpt lat="42.579971" lon="1.648463">
        <ele>1681.78418</ele>
        <time>2021-07-02T10:22:25Z</time>
      </trkpt>
      <trkpt lat="42.579952" lon="1.648516">
        <ele>1679.83594</ele>
        <time>2021-07-02T10:22:26Z</time>
      </trkpt>
      <trkpt lat="42.579941" lon="1.648549">
        <ele>1678.31177</ele>
        <time>2021-07-02T10:22:27Z</time>
      </trkpt>
      <trkpt lat="42.579926" lon="1.648584">
        <ele>1677.62695</ele>
        <time>2021-07-02T10:22:28Z</time>
      </trkpt>
      <trkpt lat="42.579926" lon="1.648586">
        <ele>1678.37695</ele>
        <time>2021-07-02T10:22:29Z</time>
      </trkpt>
      <trkpt lat="42.579838" lon="1.648523">
        <ele>1679.17114</ele>
        <time>2021-07-02T10:22:30Z</time>
      </trkpt>
      <trkpt lat="42.579708" lon="1.648430">
        <ele>1679.67798</ele>
        <time>2021-07-02T10:22:31Z</time>
      </trkpt>
      <trkpt lat="42.579693" lon="1.648418">
        <ele>1678.36987</ele>
        <time>2021-07-02T10:22:32Z</time>
      </trkpt>
      <trkpt lat="42.579643" lon="1.648386">
        <ele>1676.31934</ele>
        <time>2021-07-02T10:22:33Z</time>
      </trkpt>
      <trkpt lat="42.579556" lon="1.648322">
        <ele>1678.84961</ele>
        <time>2021-07-02T10:22:34Z</time>
      </trkpt>
      <trkpt lat="42.579498" lon="1.648280">
        <ele>1678.53418</ele>
        <time>2021-07-02T10:22:35Z</time>
      </trkpt>
      <trkpt lat="42.579464" lon="1.648256">
        <ele>1676.01904</ele>
        <time>2021-07-02T10:22:36Z</time>
      </trkpt>
      <trkpt lat="42.579422" lon="1.648226">
        <ele>1677.11035</ele>
        <time>2021-07-02T10:22:37Z</time>
      </trkpt>
      <trkpt lat="42.579391" lon="1.648203">
        <ele>1677.73779</ele>
        <time>2021-07-02T10:22:38Z</time>
      </trkpt>
      <trkpt lat="42.579353" lon="1.648177">
        <ele>1679.55371</ele>
        <time>2021-07-02T10:22:39Z</time>
      </trkpt>
      <trkpt lat="42.579308" lon="1.648144">
        <ele>1679.85889</ele>
        <time>2021-07-02T10:22:40Z</time>
      </trkpt>
      <trkpt lat="42.579266" lon="1.648115">
        <ele>1679.09619</ele>
        <time>2021-07-02T10:22:41Z</time>
      </trkpt>
      <trkpt lat="42.579227" lon="1.648087">
        <ele>1680.69873</ele>
        <time>2021-07-02T10:22:42Z</time>
      </trkpt>
      <trkpt lat="42.579182" lon="1.648074">
        <ele>1680.47559</ele>
        <time>2021-07-02T10:22:43Z</time>
      </trkpt>
      <trkpt lat="42.579182" lon="1.648074">
        <ele>1680.33179</ele>
        <time>2021-07-02T10:22:44Z</time>
      </trkpt>
      <trkpt lat="42.579170" lon="1.648072">
        <ele>1678.83447</ele>
        <time>2021-07-02T10:22:45Z</time>
      </trkpt>
      <trkpt lat="42.579136" lon="1.648069">
        <ele>1678.60571</ele>
        <time>2021-07-02T10:22:46Z</time>
      </trkpt>
      <trkpt lat="42.579098" lon="1.648075">
        <ele>1678.27319</ele>
        <time>2021-07-02T10:22:47Z</time>
      </trkpt>
      <trkpt lat="42.579067" lon="1.648083">
        <ele>1677.82715</ele>
        <time>2021-07-02T10:22:48Z</time>
      </trkpt>
      <trkpt lat="42.579056" lon="1.648087">
        <ele>1679.25000</ele>
        <time>2021-07-02T10:22:49Z</time>
      </trkpt>
      <trkpt lat="42.579029" lon="1.648094">
        <ele>1678.82642</ele>
        <time>2021-07-02T10:22:50Z</time>
      </trkpt>
      <trkpt lat="42.579086" lon="1.647836">
        <ele>1679.13477</ele>
        <time>2021-07-02T10:22:51Z</time>
      </trkpt>
      <trkpt lat="42.579063" lon="1.647792">
        <ele>1680.10205</ele>
        <time>2021-07-02T10:22:52Z</time>
      </trkpt>
      <trkpt lat="42.579033" lon="1.647738">
        <ele>1679.48364</ele>
        <time>2021-07-02T10:22:53Z</time>
      </trkpt>
      <trkpt lat="42.579025" lon="1.647721">
        <ele>1679.83691</ele>
        <time>2021-07-02T10:22:54Z</time>
      </trkpt>
      <trkpt lat="42.579018" lon="1.647711">
        <ele>1679.21338</ele>
        <time>2021-07-02T10:22:55Z</time>
      </trkpt>
      <trkpt lat="42.579014" lon="1.647702">
        <ele>1679.30859</ele>
        <time>2021-07-02T10:22:56Z</time>
      </trkpt>
      <trkpt lat="42.579014" lon="1.647702">
        <ele>1679.09326</ele>
        <time>2021-07-02T10:22:57Z</time>
      </trkpt>
      <trkpt lat="42.579014" lon="1.647702">
        <ele>1678.58691</ele>
        <time>2021-07-02T10:22:58Z</time>
      </trkpt>
      <trkpt lat="42.579014" lon="1.647702">
        <ele>1678.83643</ele>
        <time>2021-07-02T10:22:59Z</time>
      </trkpt>
      <trkpt lat="42.579014" lon="1.647702">
        <ele>1678.46851</ele>
        <time>2021-07-02T10:23:00Z</time>
      </trkpt>
      <trkpt lat="42.579014" lon="1.647702">
        <ele>1678.49609</ele>
        <time>2021-07-02T10:23:01Z</time>
      </trkpt>
      <trkpt lat="42.579014" lon="1.647702">
        <ele>1679.22998</ele>
        <time>2021-07-02T10:23:02Z</time>
      </trkpt>
      <trkpt lat="42.579014" lon="1.647702">
        <ele>1678.66772</ele>
        <time>2021-07-02T10:23:03Z</time>
      </trkpt>
      <trkpt lat="42.578999" lon="1.647676">
        <ele>1680.60010</ele>
        <time>2021-07-02T10:23:04Z</time>
      </trkpt>
      <trkpt lat="42.578979" lon="1.647639">
        <ele>1680.95801</ele>
        <time>2021-07-02T10:23:05Z</time>
      </trkpt>
      <trkpt lat="42.578979" lon="1.647639">
        <ele>1680.60229</ele>
        <time>2021-07-02T10:23:06Z</time>
      </trkpt>
      <trkpt lat="42.578979" lon="1.647639">
        <ele>1684.25574</ele>
        <time>2021-07-02T10:23:07Z</time>
      </trkpt>
      <trkpt lat="42.578979" lon="1.647639">
        <ele>1683.28125</ele>
        <time>2021-07-02T10:23:08Z</time>
      </trkpt>
      <trkpt lat="42.578979" lon="1.647639">
        <ele>1682.62134</ele>
        <time>2021-07-02T10:23:09Z</time>
      </trkpt>
      <trkpt lat="42.578979" lon="1.647639">
        <ele>1681.80908</ele>
        <time>2021-07-02T10:23:10Z</time>
      </trkpt>
      <trkpt lat="42.578979" lon="1.647639">
        <ele>1681.14062</ele>
        <time>2021-07-02T10:23:11Z</time>
      </trkpt>
      <trkpt lat="42.578979" lon="1.647639">
        <ele>1680.74951</ele>
        <time>2021-07-02T10:23:12Z</time>
      </trkpt>
      <trkpt lat="42.578979" lon="1.647639">
        <ele>1680.03931</ele>
        <time>2021-07-02T10:23:13Z</time>
      </trkpt>
      <trkpt lat="42.578964" lon="1.647611">
        <ele>1678.98389</ele>
        <time>2021-07-02T10:23:14Z</time>
      </trkpt>
      <trkpt lat="42.578934" lon="1.647552">
        <ele>1678.64844</ele>
        <time>2021-07-02T10:23:15Z</time>
      </trkpt>
      <trkpt lat="42.578896" lon="1.647478">
        <ele>1679.05664</ele>
        <time>2021-07-02T10:23:16Z</time>
      </trkpt>
      <trkpt lat="42.578888" lon="1.647463">
        <ele>1677.36035</ele>
        <time>2021-07-02T10:23:17Z</time>
      </trkpt>
      <trkpt lat="42.578686" lon="1.647485">
        <ele>1678.32861</ele>
        <time>2021-07-02T10:23:18Z</time>
      </trkpt>
      <trkpt lat="42.578640" lon="1.647460">
        <ele>1678.70947</ele>
        <time>2021-07-02T10:23:19Z</time>
      </trkpt>
      <trkpt lat="42.578602" lon="1.647442">
        <ele>1679.66797</ele>
        <time>2021-07-02T10:23:20Z</time>
      </trkpt>
      <trkpt lat="42.578529" lon="1.647409">
        <ele>1680.11499</ele>
        <time>2021-07-02T10:23:21Z</time>
      </trkpt>
      <trkpt lat="42.578495" lon="1.647417">
        <ele>1680.48047</ele>
        <time>2021-07-02T10:23:22Z</time>
      </trkpt>
      <trkpt lat="42.578461" lon="1.647420">
        <ele>1681.12646</ele>
        <time>2021-07-02T10:23:23Z</time>
      </trkpt>
      <trkpt lat="42.578461" lon="1.647420">
        <ele>1682.43359</ele>
        <time>2021-07-02T10:23:24Z</time>
      </trkpt>
      <trkpt lat="42.578476" lon="1.647428">
        <ele>1682.66943</ele>
        <time>2021-07-02T10:23:25Z</time>
      </trkpt>
      <trkpt lat="42.578434" lon="1.647414">
        <ele>1682.98438</ele>
        <time>2021-07-02T10:23:26Z</time>
      </trkpt>
      <trkpt lat="42.578457" lon="1.647417">
        <ele>1682.74951</ele>
        <time>2021-07-02T10:23:27Z</time>
      </trkpt>
      <trkpt lat="42.578457" lon="1.647417">
        <ele>1682.29028</ele>
        <time>2021-07-02T10:23:28Z</time>
      </trkpt>
      <trkpt lat="42.578457" lon="1.647417">
        <ele>1684.03125</ele>
        <time>2021-07-02T10:23:29Z</time>
      </trkpt>
      <trkpt lat="42.578449" lon="1.647407">
        <ele>1685.28564</ele>
        <time>2021-07-02T10:23:30Z</time>
      </trkpt>
      <trkpt lat="42.578449" lon="1.647400">
        <ele>1685.36230</ele>
        <time>2021-07-02T10:23:31Z</time>
      </trkpt>
      <trkpt lat="42.578449" lon="1.647400">
        <ele>1685.88037</ele>
        <time>2021-07-02T10:23:32Z</time>
      </trkpt>
      <trkpt lat="42.578449" lon="1.647400">
        <ele>1686.18823</ele>
        <time>2021-07-02T10:23:33Z</time>
      </trkpt>
      <trkpt lat="42.578449" lon="1.647400">
        <ele>1685.40637</ele>
        <time>2021-07-02T10:23:34Z</time>
      </trkpt>
      <trkpt lat="42.578449" lon="1.647400">
        <ele>1685.67676</ele>
        <time>2021-07-02T10:23:35Z</time>
      </trkpt>
      <trkpt lat="42.578449" lon="1.647400">
        <ele>1686.00732</ele>
        <time>2021-07-02T10:23:36Z</time>
      </trkpt>
      <trkpt lat="42.578449" lon="1.647400">
        <ele>1685.98828</ele>
        <time>2021-07-02T10:23:37Z</time>
      </trkpt>
      <trkpt lat="42.578449" lon="1.647400">
        <ele>1685.89697</ele>
        <time>2021-07-02T10:23:38Z</time>
      </trkpt>
      <trkpt lat="42.578449" lon="1.647400">
        <ele>1685.68799</ele>
        <time>2021-07-02T10:23:39Z</time>
      </trkpt>
      <trkpt lat="42.578449" lon="1.647400">
        <ele>1685.57617</ele>
        <time>2021-07-02T10:23:40Z</time>
      </trkpt>
      <trkpt lat="42.578449" lon="1.647400">
        <ele>1685.10010</ele>
        <time>2021-07-02T10:23:41Z</time>
      </trkpt>
      <trkpt lat="42.578449" lon="1.647400">
        <ele>1685.31299</ele>
        <time>2021-07-02T10:23:42Z</time>
      </trkpt>
      <trkpt lat="42.578449" lon="1.647400">
        <ele>1685.26855</ele>
        <time>2021-07-02T10:23:43Z</time>
      </trkpt>
      <trkpt lat="42.578449" lon="1.647400">
        <ele>1685.34094</ele>
        <time>2021-07-02T10:23:44Z</time>
      </trkpt>
      <trkpt lat="42.578449" lon="1.647400">
        <ele>1685.43494</ele>
        <time>2021-07-02T10:23:45Z</time>
      </trkpt>
      <trkpt lat="42.578449" lon="1.647400">
        <ele>1685.43494</ele>
        <time>2021-07-02T10:23:46Z</time>
      </trkpt>
      <trkpt lat="42.578495" lon="1.647403">
        <ele>1685.34680</ele>
        <time>2021-07-02T10:23:47Z</time>
      </trkpt>
      <trkpt lat="42.578495" lon="1.647403">
        <ele>1685.96826</ele>
        <time>2021-07-02T10:23:48Z</time>
      </trkpt>
      <trkpt lat="42.578495" lon="1.647403">
        <ele>1686.02930</ele>
        <time>2021-07-02T10:23:49Z</time>
      </trkpt>
      <trkpt lat="42.578495" lon="1.647403">
        <ele>1686.00439</ele>
        <time>2021-07-02T10:23:50Z</time>
      </trkpt>
      <trkpt lat="42.578495" lon="1.647403">
        <ele>1686.55176</ele>
        <time>2021-07-02T10:23:51Z</time>
      </trkpt>
      <trkpt lat="42.578495" lon="1.647403">
        <ele>1686.48682</ele>
        <time>2021-07-02T10:23:52Z</time>
      </trkpt>
      <trkpt lat="42.578491" lon="1.647403">
        <ele>1686.41064</ele>
        <time>2021-07-02T10:23:53Z</time>
      </trkpt>
      <trkpt lat="42.578449" lon="1.647364">
        <ele>1686.33740</ele>
        <time>2021-07-02T10:23:54Z</time>
      </trkpt>
      <trkpt lat="42.578449" lon="1.647361">
        <ele>1686.44604</ele>
        <time>2021-07-02T10:23:55Z</time>
      </trkpt>
      <trkpt lat="42.578442" lon="1.647299">
        <ele>1686.44775</ele>
        <time>2021-07-02T10:23:56Z</time>
      </trkpt>
      <trkpt lat="42.578468" lon="1.647288">
        <ele>1686.05078</ele>
        <time>2021-07-02T10:23:57Z</time>
      </trkpt>
      <trkpt lat="42.578491" lon="1.647255">
        <ele>1682.76758</ele>
        <time>2021-07-02T10:23:58Z</time>
      </trkpt>
      <trkpt lat="42.578503" lon="1.647296">
        <ele>1683.06445</ele>
        <time>2021-07-02T10:23:59Z</time>
      </trkpt>
      <trkpt lat="42.578510" lon="1.647313">
        <ele>1684.15283</ele>
        <time>2021-07-02T10:24:00Z</time>
      </trkpt>
      <trkpt lat="42.578510" lon="1.647316">
        <ele>1684.83179</ele>
        <time>2021-07-02T10:24:01Z</time>
      </trkpt>
      <trkpt lat="42.578510" lon="1.647316">
        <ele>1685.17627</ele>
        <time>2021-07-02T10:24:02Z</time>
      </trkpt>
      <trkpt lat="42.578514" lon="1.647355">
        <ele>1686.06445</ele>
        <time>2021-07-02T10:24:03Z</time>
      </trkpt>
      <trkpt lat="42.578522" lon="1.647368">
        <ele>1684.94849</ele>
        <time>2021-07-02T10:24:04Z</time>
      </trkpt>
      <trkpt lat="42.578522" lon="1.647368">
        <ele>1684.79565</ele>
        <time>2021-07-02T10:24:05Z</time>
      </trkpt>
      <trkpt lat="42.578522" lon="1.647373">
        <ele>1684.09814</ele>
        <time>2021-07-02T10:24:06Z</time>
      </trkpt>
      <trkpt lat="42.578518" lon="1.647373">
        <ele>1683.45068</ele>
        <time>2021-07-02T10:24:07Z</time>
      </trkpt>
      <trkpt lat="42.578514" lon="1.647370">
        <ele>1683.12891</ele>
        <time>2021-07-02T10:24:08Z</time>
      </trkpt>
      <trkpt lat="42.578506" lon="1.647366">
        <ele>1683.72754</ele>
        <time>2021-07-02T10:24:09Z</time>
      </trkpt>
      <trkpt lat="42.578506" lon="1.647366">
        <ele>1683.97339</ele>
        <time>2021-07-02T10:24:10Z</time>
      </trkpt>
      <trkpt lat="42.578503" lon="1.647365">
        <ele>1685.75513</ele>
        <time>2021-07-02T10:24:11Z</time>
      </trkpt>
      <trkpt lat="42.578503" lon="1.647365">
        <ele>1685.74561</ele>
        <time>2021-07-02T10:24:12Z</time>
      </trkpt>
      <trkpt lat="42.578503" lon="1.647365">
        <ele>1685.73486</ele>
        <time>2021-07-02T10:24:13Z</time>
      </trkpt>
      <trkpt lat="42.578503" lon="1.647365">
        <ele>1685.81909</ele>
        <time>2021-07-02T10:24:14Z</time>
      </trkpt>
      <trkpt lat="42.578503" lon="1.647365">
        <ele>1685.64709</ele>
        <time>2021-07-02T10:24:15Z</time>
      </trkpt>
      <trkpt lat="42.578503" lon="1.647365">
        <ele>1686.32837</ele>
        <time>2021-07-02T10:24:16Z</time>
      </trkpt>
      <trkpt lat="42.578503" lon="1.647365">
        <ele>1685.72693</ele>
        <time>2021-07-02T10:24:17Z</time>
      </trkpt>
      <trkpt lat="42.578430" lon="1.647465">
        <ele>1645.28198</ele>
        <time>2021-07-02T10:34:55Z</time>
      </trkpt>
      <trkpt lat="42.578430" lon="1.647465">
        <ele>1640.72266</ele>
        <time>2021-07-02T10:34:56Z</time>
      </trkpt>
      <trkpt lat="42.578430" lon="1.647465">
        <ele>1661.88794</ele>
        <time>2021-07-02T10:34:57Z</time>
      </trkpt>
      <trkpt lat="42.578407" lon="1.647395">
        <ele>1653.93433</ele>
        <time>2021-07-02T10:34:58Z</time>
      </trkpt>
      <trkpt lat="42.578278" lon="1.647327">
        <ele>1648.14722</ele>
        <time>2021-07-02T10:34:59Z</time>
      </trkpt>
      <trkpt lat="42.578278" lon="1.647327">
        <ele>1658.29883</ele>
        <time>2021-07-02T10:35:00Z</time>
      </trkpt>
      <trkpt lat="42.578278" lon="1.647327">
        <ele>1661.55225</ele>
        <time>2021-07-02T10:35:01Z</time>
      </trkpt>
      <trkpt lat="42.578278" lon="1.647327">
        <ele>1671.16504</ele>
        <time>2021-07-02T10:35:02Z</time>
      </trkpt>
      <trkpt lat="42.578358" lon="1.647305">
        <ele>1668.32568</ele>
        <time>2021-07-02T10:35:03Z</time>
      </trkpt>
      <trkpt lat="42.578415" lon="1.647316">
        <ele>1669.79468</ele>
        <time>2021-07-02T10:35:04Z</time>
      </trkpt>
      <trkpt lat="42.578415" lon="1.647316">
        <ele>1670.10107</ele>
        <time>2021-07-02T10:35:05Z</time>
      </trkpt>
      <trkpt lat="42.578415" lon="1.647330">
        <ele>1671.27979</ele>
        <time>2021-07-02T10:35:06Z</time>
      </trkpt>
      <trkpt lat="42.578419" lon="1.647334">
        <ele>1671.26611</ele>
        <time>2021-07-02T10:35:07Z</time>
      </trkpt>
      <trkpt lat="42.578419" lon="1.647334">
        <ele>1669.91357</ele>
        <time>2021-07-02T10:35:08Z</time>
      </trkpt>
      <trkpt lat="42.578419" lon="1.647334">
        <ele>1670.31299</ele>
        <time>2021-07-02T10:35:09Z</time>
      </trkpt>
      <trkpt lat="42.578419" lon="1.647334">
        <ele>1670.78613</ele>
        <time>2021-07-02T10:35:10Z</time>
      </trkpt>
      <trkpt lat="42.578419" lon="1.647334">
        <ele>1672.16870</ele>
        <time>2021-07-02T10:35:11Z</time>
      </trkpt>
      <trkpt lat="42.578419" lon="1.647334">
        <ele>1673.06787</ele>
        <time>2021-07-02T10:35:12Z</time>
      </trkpt>
      <trkpt lat="42.578419" lon="1.647334">
        <ele>1674.11938</ele>
        <time>2021-07-02T10:35:13Z</time>
      </trkpt>
      <trkpt lat="42.578419" lon="1.647334">
        <ele>1673.23779</ele>
        <time>2021-07-02T10:35:14Z</time>
      </trkpt>
      <trkpt lat="42.578419" lon="1.647334">
        <ele>1675.44531</ele>
        <time>2021-07-02T10:35:15Z</time>
      </trkpt>
      <trkpt lat="42.578419" lon="1.647334">
        <ele>1676.13599</ele>
        <time>2021-07-02T10:35:16Z</time>
      </trkpt>
      <trkpt lat="42.578419" lon="1.647334">
        <ele>1677.42700</ele>
        <time>2021-07-02T10:35:17Z</time>
      </trkpt>
      <trkpt lat="42.578419" lon="1.647334">
        <ele>1676.61743</ele>
        <time>2021-07-02T10:35:18Z</time>
      </trkpt>
      <trkpt lat="42.578419" lon="1.647334">
        <ele>1676.48584</ele>
        <time>2021-07-02T10:35:19Z</time>
      </trkpt>
      <trkpt lat="42.578419" lon="1.647334">
        <ele>1677.35840</ele>
        <time>2021-07-02T10:35:20Z</time>
      </trkpt>
      <trkpt lat="42.578419" lon="1.647334">
        <ele>1676.83667</ele>
        <time>2021-07-02T10:35:21Z</time>
      </trkpt>
      <trkpt lat="42.578419" lon="1.647334">
        <ele>1676.66919</ele>
        <time>2021-07-02T10:35:22Z</time>
      </trkpt>
      <trkpt lat="42.578419" lon="1.647334">
        <ele>1677.63672</ele>
        <time>2021-07-02T10:35:23Z</time>
      </trkpt>
      <trkpt lat="42.578419" lon="1.647334">
        <ele>1677.62720</ele>
        <time>2021-07-02T10:35:24Z</time>
      </trkpt>
      <trkpt lat="42.578419" lon="1.647334">
        <ele>1679.03882</ele>
        <time>2021-07-02T10:35:25Z</time>
      </trkpt>
      <trkpt lat="42.578419" lon="1.647334">
        <ele>1679.14453</ele>
        <time>2021-07-02T10:35:26Z</time>
      </trkpt>
      <trkpt lat="42.578419" lon="1.647334">
        <ele>1679.37915</ele>
        <time>2021-07-02T10:35:27Z</time>
      </trkpt>
      <trkpt lat="42.578419" lon="1.647334">
        <ele>1680.67432</ele>
        <time>2021-07-02T10:35:28Z</time>
      </trkpt>
      <trkpt lat="42.578419" lon="1.647334">
        <ele>1681.56787</ele>
        <time>2021-07-02T10:35:29Z</time>
      </trkpt>
      <trkpt lat="42.578419" lon="1.647334">
        <ele>1682.08374</ele>
        <time>2021-07-02T10:35:30Z</time>
      </trkpt>
      <trkpt lat="42.578419" lon="1.647334">
        <ele>1682.97021</ele>
        <time>2021-07-02T10:35:31Z</time>
      </trkpt>
      <trkpt lat="42.578461" lon="1.647342">
        <ele>1682.91748</ele>
        <time>2021-07-02T10:35:32Z</time>
      </trkpt>
      <trkpt lat="42.578461" lon="1.647342">
        <ele>1683.20166</ele>
        <time>2021-07-02T10:35:33Z</time>
      </trkpt>
      <trkpt lat="42.578468" lon="1.647343">
        <ele>1683.22119</ele>
        <time>2021-07-02T10:35:34Z</time>
      </trkpt>
      <trkpt lat="42.578468" lon="1.647343">
        <ele>1681.85840</ele>
        <time>2021-07-02T10:35:35Z</time>
      </trkpt>
      <trkpt lat="42.578468" lon="1.647343">
        <ele>1682.10254</ele>
        <time>2021-07-02T10:35:36Z</time>
      </trkpt>
      <trkpt lat="42.578468" lon="1.647343">
        <ele>1682.38037</ele>
        <time>2021-07-02T10:35:37Z</time>
      </trkpt>
      <trkpt lat="42.578468" lon="1.647343">
        <ele>1682.31445</ele>
        <time>2021-07-02T10:35:38Z</time>
      </trkpt>
      <trkpt lat="42.578468" lon="1.647343">
        <ele>1682.29834</ele>
        <time>2021-07-02T10:35:39Z</time>
      </trkpt>
      <trkpt lat="42.578468" lon="1.647343">
        <ele>1682.31641</ele>
        <time>2021-07-02T10:35:40Z</time>
      </trkpt>
      <trkpt lat="42.578468" lon="1.647343">
        <ele>1682.14795</ele>
        <time>2021-07-02T10:35:41Z</time>
      </trkpt>
      <trkpt lat="42.578468" lon="1.647343">
        <ele>1681.40356</ele>
        <time>2021-07-02T10:35:42Z</time>
      </trkpt>
      <trkpt lat="42.578468" lon="1.647343">
        <ele>1682.33789</ele>
        <time>2021-07-02T10:35:43Z</time>
      </trkpt>
      <trkpt lat="42.578468" lon="1.647343">
        <ele>1681.96338</ele>
        <time>2021-07-02T10:35:44Z</time>
      </trkpt>
      <trkpt lat="42.578468" lon="1.647343">
        <ele>1682.21191</ele>
        <time>2021-07-02T10:35:45Z</time>
      </trkpt>
      <trkpt lat="42.578468" lon="1.647343">
        <ele>1680.79980</ele>
        <time>2021-07-02T10:35:46Z</time>
      </trkpt>
      <trkpt lat="42.578468" lon="1.647343">
        <ele>1680.44824</ele>
        <time>2021-07-02T10:35:47Z</time>
      </trkpt>
      <trkpt lat="42.578468" lon="1.647343">
        <ele>1681.37427</ele>
        <time>2021-07-02T10:35:48Z</time>
      </trkpt>
      <trkpt lat="42.578468" lon="1.647343">
        <ele>1680.77002</ele>
        <time>2021-07-02T10:35:49Z</time>
      </trkpt>
      <trkpt lat="42.578468" lon="1.647343">
        <ele>1680.50366</ele>
        <time>2021-07-02T10:35:50Z</time>
      </trkpt>
      <trkpt lat="42.578468" lon="1.647343">
        <ele>1680.00122</ele>
        <time>2021-07-02T10:35:51Z</time>
      </trkpt>
      <trkpt lat="42.578468" lon="1.647343">
        <ele>1681.81934</ele>
        <time>2021-07-02T10:35:52Z</time>
      </trkpt>
      <trkpt lat="42.578468" lon="1.647343">
        <ele>1681.50781</ele>
        <time>2021-07-02T10:35:53Z</time>
      </trkpt>
      <trkpt lat="42.578468" lon="1.647343">
        <ele>1679.83984</ele>
        <time>2021-07-02T10:35:54Z</time>
      </trkpt>
      <trkpt lat="42.578468" lon="1.647343">
        <ele>1679.63721</ele>
        <time>2021-07-02T10:35:55Z</time>
      </trkpt>
      <trkpt lat="42.578468" lon="1.647343">
        <ele>1681.22705</ele>
        <time>2021-07-02T10:35:56Z</time>
      </trkpt>
      <trkpt lat="42.578468" lon="1.647343">
        <ele>1682.34082</ele>
        <time>2021-07-02T10:35:57Z</time>
      </trkpt>
      <trkpt lat="42.578468" lon="1.647343">
        <ele>1683.10645</ele>
        <time>2021-07-02T10:35:58Z</time>
      </trkpt>
      <trkpt lat="42.578468" lon="1.647343">
        <ele>1683.32275</ele>
        <time>2021-07-02T10:35:59Z</time>
      </trkpt>
      <trkpt lat="42.578468" lon="1.647343">
        <ele>1683.30664</ele>
        <time>2021-07-02T10:36:00Z</time>
      </trkpt>
      <trkpt lat="42.578468" lon="1.647343">
        <ele>1683.57178</ele>
        <time>2021-07-02T10:36:01Z</time>
      </trkpt>
      <trkpt lat="42.578468" lon="1.647343">
        <ele>1683.01685</ele>
        <time>2021-07-02T10:36:02Z</time>
      </trkpt>
      <trkpt lat="42.578468" lon="1.647343">
        <ele>1684.91699</ele>
        <time>2021-07-02T10:36:03Z</time>
      </trkpt>
      <trkpt lat="42.578468" lon="1.647343">
        <ele>1686.64355</ele>
        <time>2021-07-02T10:36:04Z</time>
      </trkpt>
      <trkpt lat="42.578468" lon="1.647343">
        <ele>1688.41064</ele>
        <time>2021-07-02T10:36:05Z</time>
      </trkpt>
      <trkpt lat="42.578468" lon="1.647343">
        <ele>1689.40820</ele>
        <time>2021-07-02T10:36:06Z</time>
      </trkpt>
      <trkpt lat="42.578468" lon="1.647343">
        <ele>1689.35400</ele>
        <time>2021-07-02T10:36:07Z</time>
      </trkpt>
      <trkpt lat="42.578468" lon="1.647343">
        <ele>1689.23926</ele>
        <time>2021-07-02T10:36:08Z</time>
      </trkpt>
      <trkpt lat="42.578468" lon="1.647343">
        <ele>1689.16064</ele>
        <time>2021-07-02T10:36:09Z</time>
      </trkpt>
      <trkpt lat="42.578468" lon="1.647343">
        <ele>1688.76025</ele>
        <time>2021-07-02T10:36:10Z</time>
      </trkpt>
      <trkpt lat="42.578468" lon="1.647343">
        <ele>1688.64429</ele>
        <time>2021-07-02T10:36:11Z</time>
      </trkpt>
      <trkpt lat="42.578468" lon="1.647343">
        <ele>1688.05054</ele>
        <time>2021-07-02T10:36:12Z</time>
      </trkpt>
      <trkpt lat="42.578468" lon="1.647343">
        <ele>1687.17090</ele>
        <time>2021-07-02T10:36:13Z</time>
      </trkpt>
      <trkpt lat="42.578468" lon="1.647343">
        <ele>1687.23730</ele>
        <time>2021-07-02T10:36:14Z</time>
      </trkpt>
      <trkpt lat="42.578491" lon="1.647357">
        <ele>1687.38721</ele>
        <time>2021-07-02T10:36:15Z</time>
      </trkpt>
      <trkpt lat="42.578491" lon="1.647357">
        <ele>1687.62891</ele>
        <time>2021-07-02T10:36:16Z</time>
      </trkpt>
      <trkpt lat="42.578491" lon="1.647357">
        <ele>1687.97241</ele>
        <time>2021-07-02T10:36:17Z</time>
      </trkpt>
      <trkpt lat="42.578491" lon="1.647357">
        <ele>1688.06592</ele>
        <time>2021-07-02T10:36:18Z</time>
      </trkpt>
      <trkpt lat="42.578491" lon="1.647357">
        <ele>1687.95801</ele>
        <time>2021-07-02T10:36:19Z</time>
      </trkpt>
      <trkpt lat="42.578491" lon="1.647357">
        <ele>1687.95483</ele>
        <time>2021-07-02T10:36:20Z</time>
      </trkpt>
      <trkpt lat="42.578491" lon="1.647357">
        <ele>1685.87305</ele>
        <time>2021-07-02T10:36:21Z</time>
      </trkpt>
      <trkpt lat="42.578491" lon="1.647357">
        <ele>1685.87207</ele>
        <time>2021-07-02T10:36:22Z</time>
      </trkpt>
      <trkpt lat="42.578491" lon="1.647357">
        <ele>1685.92139</ele>
        <time>2021-07-02T10:36:23Z</time>
      </trkpt>
      <trkpt lat="42.578491" lon="1.647357">
        <ele>1685.71143</ele>
        <time>2021-07-02T10:36:24Z</time>
      </trkpt>
      <trkpt lat="42.578491" lon="1.647357">
        <ele>1686.19238</ele>
        <time>2021-07-02T10:36:32Z</time>
      </trkpt>
      <trkpt lat="42.578484" lon="1.647359">
        <ele>1685.03174</ele>
        <time>2021-07-02T10:36:38Z</time>
      </trkpt>
      <trkpt lat="42.578484" lon="1.647359">
        <ele>1685.03174</ele>
        <time>2021-07-02T10:36:38Z</time>
      </trkpt>
      <trkpt lat="42.578484" lon="1.647359">
        <ele>1685.03174</ele>
        <time>2021-07-02T10:36:38Z</time>
      </trkpt>
      <trkpt lat="42.578484" lon="1.647359">
        <ele>1685.03174</ele>
        <time>2021-07-02T10:36:39Z</time>
      </trkpt>
      <trkpt lat="42.578484" lon="1.647359">
        <ele>1685.03174</ele>
        <time>2021-07-02T10:36:39Z</time>
      </trkpt>
      <trkpt lat="42.578484" lon="1.647359">
        <ele>1685.03174</ele>
        <time>2021-07-02T10:36:39Z</time>
      </trkpt>
      <trkpt lat="42.578484" lon="1.647359">
        <ele>1685.04517</ele>
        <time>2021-07-02T10:36:39Z</time>
      </trkpt>
      <trkpt lat="42.578484" lon="1.647359">
        <ele>1684.53320</ele>
        <time>2021-07-02T10:36:40Z</time>
      </trkpt>
      <trkpt lat="42.578484" lon="1.647359">
        <ele>1685.25635</ele>
        <time>2021-07-02T10:36:41Z</time>
      </trkpt>
      <trkpt lat="42.578484" lon="1.647359">
        <ele>1685.40601</ele>
        <time>2021-07-02T10:36:42Z</time>
      </trkpt>
      <trkpt lat="42.578484" lon="1.647359">
        <ele>1685.57031</ele>
        <time>2021-07-02T10:36:43Z</time>
      </trkpt>
      <trkpt lat="42.578484" lon="1.647359">
        <ele>1685.54907</ele>
        <time>2021-07-02T10:36:44Z</time>
      </trkpt>
      <trkpt lat="42.578484" lon="1.647359">
        <ele>1685.52686</ele>
        <time>2021-07-02T10:36:45Z</time>
      </trkpt>
      <trkpt lat="42.578484" lon="1.647359">
        <ele>1685.69922</ele>
        <time>2021-07-02T10:36:46Z</time>
      </trkpt>
      <trkpt lat="42.578484" lon="1.647359">
        <ele>1685.85986</ele>
        <time>2021-07-02T10:36:47Z</time>
      </trkpt>
      <trkpt lat="42.578484" lon="1.647359">
        <ele>1685.89624</ele>
        <time>2021-07-02T10:36:48Z</time>
      </trkpt>
      <trkpt lat="42.578484" lon="1.647359">
        <ele>1685.89282</ele>
        <time>2021-07-02T10:36:49Z</time>
      </trkpt>
      <trkpt lat="42.578484" lon="1.647359">
        <ele>1686.06396</ele>
        <time>2021-07-02T10:36:50Z</time>
      </trkpt>
      <trkpt lat="42.578484" lon="1.647359">
        <ele>1686.20703</ele>
        <time>2021-07-02T10:36:51Z</time>
      </trkpt>
      <trkpt lat="42.578484" lon="1.647359">
        <ele>1685.99121</ele>
        <time>2021-07-02T10:36:52Z</time>
      </trkpt>
      <trkpt lat="42.578484" lon="1.647359">
        <ele>1685.94214</ele>
        <time>2021-07-02T10:36:53Z</time>
      </trkpt>
      <trkpt lat="42.578484" lon="1.647359">
        <ele>1685.82275</ele>
        <time>2021-07-02T10:36:54Z</time>
      </trkpt>
      <trkpt lat="42.578484" lon="1.647359">
        <ele>1685.79492</ele>
        <time>2021-07-02T10:36:55Z</time>
      </trkpt>
      <trkpt lat="42.578484" lon="1.647359">
        <ele>1685.77661</ele>
        <time>2021-07-02T10:36:56Z</time>
      </trkpt>
      <trkpt lat="42.578484" lon="1.647359">
        <ele>1685.78955</ele>
        <time>2021-07-02T10:36:57Z</time>
      </trkpt>
      <trkpt lat="42.578484" lon="1.647359">
        <ele>1685.78125</ele>
        <time>2021-07-02T10:36:58Z</time>
      </trkpt>
      <trkpt lat="42.578484" lon="1.647359">
        <ele>1685.78125</ele>
        <time>2021-07-02T10:36:59Z</time>
      </trkpt>
      <trkpt lat="42.578484" lon="1.647359">
        <ele>1682.45459</ele>
        <time>2021-07-02T10:37:00Z</time>
      </trkpt>
      <trkpt lat="42.578484" lon="1.647359">
        <ele>1681.43701</ele>
        <time>2021-07-02T10:37:01Z</time>
      </trkpt>
      <trkpt lat="42.578484" lon="1.647359">
        <ele>1679.91113</ele>
        <time>2021-07-02T10:37:02Z</time>
      </trkpt>
      <trkpt lat="42.578484" lon="1.647359">
        <ele>1680.23828</ele>
        <time>2021-07-02T10:37:03Z</time>
      </trkpt>
      <trkpt lat="42.578484" lon="1.647359">
        <ele>1678.17261</ele>
        <time>2021-07-02T10:37:04Z</time>
      </trkpt>
      <trkpt lat="42.578484" lon="1.647359">
        <ele>1677.44141</ele>
        <time>2021-07-02T10:37:05Z</time>
      </trkpt>
      <trkpt lat="42.578484" lon="1.647359">
        <ele>1678.41846</ele>
        <time>2021-07-02T10:37:06Z</time>
      </trkpt>
      <trkpt lat="42.578484" lon="1.647359">
        <ele>1678.67725</ele>
        <time>2021-07-02T10:37:07Z</time>
      </trkpt>
      <trkpt lat="42.578484" lon="1.647359">
        <ele>1679.39209</ele>
        <time>2021-07-02T10:37:08Z</time>
      </trkpt>
      <trkpt lat="42.578484" lon="1.647359">
        <ele>1679.92529</ele>
        <time>2021-07-02T10:37:09Z</time>
      </trkpt>
      <trkpt lat="42.578449" lon="1.647317">
        <ele>1679.93262</ele>
        <time>2021-07-02T10:37:10Z</time>
      </trkpt>
      <trkpt lat="42.578449" lon="1.647317">
        <ele>1678.16064</ele>
        <time>2021-07-02T10:37:11Z</time>
      </trkpt>
      <trkpt lat="42.578449" lon="1.647317">
        <ele>1678.93213</ele>
        <time>2021-07-02T10:37:12Z</time>
      </trkpt>
      <trkpt lat="42.578449" lon="1.647317">
        <ele>1679.38525</ele>
        <time>2021-07-02T10:37:13Z</time>
      </trkpt>
      <trkpt lat="42.578445" lon="1.647323">
        <ele>1680.69971</ele>
        <time>2021-07-02T10:37:14Z</time>
      </trkpt>
      <trkpt lat="42.578445" lon="1.647323">
        <ele>1681.48511</ele>
        <time>2021-07-02T10:37:15Z</time>
      </trkpt>
      <trkpt lat="42.578445" lon="1.647323">
        <ele>1681.15088</ele>
        <time>2021-07-02T10:37:16Z</time>
      </trkpt>
      <trkpt lat="42.578445" lon="1.647323">
        <ele>1682.49146</ele>
        <time>2021-07-02T10:37:17Z</time>
      </trkpt>
      <trkpt lat="42.578445" lon="1.647323">
        <ele>1684.24585</ele>
        <time>2021-07-02T10:37:18Z</time>
      </trkpt>
      <trkpt lat="42.578445" lon="1.647323">
        <ele>1684.41260</ele>
        <time>2021-07-02T10:37:19Z</time>
      </trkpt>
      <trkpt lat="42.578445" lon="1.647323">
        <ele>1684.75488</ele>
        <time>2021-07-02T10:37:20Z</time>
      </trkpt>
      <trkpt lat="42.578445" lon="1.647323">
        <ele>1685.55444</ele>
        <time>2021-07-02T10:37:21Z</time>
      </trkpt>
      <trkpt lat="42.578445" lon="1.647323">
        <ele>1685.23926</ele>
        <time>2021-07-02T10:37:22Z</time>
      </trkpt>
      <trkpt lat="42.578445" lon="1.647323">
        <ele>1686.24268</ele>
        <time>2021-07-02T10:37:23Z</time>
      </trkpt>
      <trkpt lat="42.578445" lon="1.647323">
        <ele>1686.87817</ele>
        <time>2021-07-02T10:37:24Z</time>
      </trkpt>
      <trkpt lat="42.578445" lon="1.647323">
        <ele>1686.66577</ele>
        <time>2021-07-02T10:37:25Z</time>
      </trkpt>
      <trkpt lat="42.578445" lon="1.647323">
        <ele>1685.79150</ele>
        <time>2021-07-02T10:37:26Z</time>
      </trkpt>
      <trkpt lat="42.578445" lon="1.647323">
        <ele>1684.98145</ele>
        <time>2021-07-02T10:37:27Z</time>
      </trkpt>
      <trkpt lat="42.578445" lon="1.647323">
        <ele>1684.44312</ele>
        <time>2021-07-02T10:37:28Z</time>
      </trkpt>
      <trkpt lat="42.578445" lon="1.647323">
        <ele>1684.01611</ele>
        <time>2021-07-02T10:37:29Z</time>
      </trkpt>
      <trkpt lat="42.578468" lon="1.647376">
        <ele>1682.89941</ele>
        <time>2021-07-02T10:37:30Z</time>
      </trkpt>
      <trkpt lat="42.578468" lon="1.647380">
        <ele>1684.07959</ele>
        <time>2021-07-02T10:37:31Z</time>
      </trkpt>
      <trkpt lat="42.578468" lon="1.647380">
        <ele>1684.41455</ele>
        <time>2021-07-02T10:37:32Z</time>
      </trkpt>
      <trkpt lat="42.578468" lon="1.647380">
        <ele>1684.15234</ele>
        <time>2021-07-02T10:37:33Z</time>
      </trkpt>
      <trkpt lat="42.578468" lon="1.647380">
        <ele>1683.64746</ele>
        <time>2021-07-02T10:37:34Z</time>
      </trkpt>
      <trkpt lat="42.578468" lon="1.647380">
        <ele>1683.46094</ele>
        <time>2021-07-02T10:37:35Z</time>
      </trkpt>
      <trkpt lat="42.578468" lon="1.647380">
        <ele>1683.46289</ele>
        <time>2021-07-02T10:37:36Z</time>
      </trkpt>
      <trkpt lat="42.578468" lon="1.647380">
        <ele>1683.05811</ele>
        <time>2021-07-02T10:37:37Z</time>
      </trkpt>
      <trkpt lat="42.578468" lon="1.647380">
        <ele>1682.29834</ele>
        <time>2021-07-02T10:37:38Z</time>
      </trkpt>
      <trkpt lat="42.578468" lon="1.647380">
        <ele>1682.82227</ele>
        <time>2021-07-02T10:37:39Z</time>
      </trkpt>
      <trkpt lat="42.578468" lon="1.647380">
        <ele>1682.48291</ele>
        <time>2021-07-02T10:37:40Z</time>
      </trkpt>
      <trkpt lat="42.578468" lon="1.647380">
        <ele>1681.80005</ele>
        <time>2021-07-02T10:37:41Z</time>
      </trkpt>
      <trkpt lat="42.578468" lon="1.647380">
        <ele>1680.72803</ele>
        <time>2021-07-02T10:37:42Z</time>
      </trkpt>
      <trkpt lat="42.578468" lon="1.647380">
        <ele>1681.21973</ele>
        <time>2021-07-02T10:37:43Z</time>
      </trkpt>
      <trkpt lat="42.578468" lon="1.647380">
        <ele>1682.66895</ele>
        <time>2021-07-02T10:37:44Z</time>
      </trkpt>
      <trkpt lat="42.578468" lon="1.647380">
        <ele>1683.08496</ele>
        <time>2021-07-02T10:37:45Z</time>
      </trkpt>
      <trkpt lat="42.578468" lon="1.647380">
        <ele>1683.38550</ele>
        <time>2021-07-02T10:37:46Z</time>
      </trkpt>
      <trkpt lat="42.578468" lon="1.647380">
        <ele>1682.95850</ele>
        <time>2021-07-02T10:37:47Z</time>
      </trkpt>
      <trkpt lat="42.578468" lon="1.647380">
        <ele>1682.31982</ele>
        <time>2021-07-02T10:37:48Z</time>
      </trkpt>
      <trkpt lat="42.578468" lon="1.647380">
        <ele>1682.25293</ele>
        <time>2021-07-02T10:37:49Z</time>
      </trkpt>
      <trkpt lat="42.578468" lon="1.647380">
        <ele>1682.43579</ele>
        <time>2021-07-02T10:37:50Z</time>
      </trkpt>
      <trkpt lat="42.578468" lon="1.647380">
        <ele>1683.00269</ele>
        <time>2021-07-02T10:37:51Z</time>
      </trkpt>
      <trkpt lat="42.578468" lon="1.647380">
        <ele>1682.45508</ele>
        <time>2021-07-02T10:37:52Z</time>
      </trkpt>
      <trkpt lat="42.578468" lon="1.647380">
        <ele>1681.71094</ele>
        <time>2021-07-02T10:37:53Z</time>
      </trkpt>
      <trkpt lat="42.578468" lon="1.647380">
        <ele>1682.00684</ele>
        <time>2021-07-02T10:37:54Z</time>
      </trkpt>
      <trkpt lat="42.578468" lon="1.647380">
        <ele>1681.73267</ele>
        <time>2021-07-02T10:37:55Z</time>
      </trkpt>
      <trkpt lat="42.578468" lon="1.647380">
        <ele>1679.79980</ele>
        <time>2021-07-02T10:37:56Z</time>
      </trkpt>
      <trkpt lat="42.578468" lon="1.647380">
        <ele>1679.50830</ele>
        <time>2021-07-02T10:37:57Z</time>
      </trkpt>
      <trkpt lat="42.578468" lon="1.647380">
        <ele>1679.44653</ele>
        <time>2021-07-02T10:37:58Z</time>
      </trkpt>
      <trkpt lat="42.578468" lon="1.647380">
        <ele>1679.23730</ele>
        <time>2021-07-02T10:37:59Z</time>
      </trkpt>
      <trkpt lat="42.578468" lon="1.647380">
        <ele>1678.76074</ele>
        <time>2021-07-02T10:38:00Z</time>
      </trkpt>
      <trkpt lat="42.578468" lon="1.647380">
        <ele>1678.54541</ele>
        <time>2021-07-02T10:38:01Z</time>
      </trkpt>
      <trkpt lat="42.578453" lon="1.647369">
        <ele>1678.42822</ele>
        <time>2021-07-02T10:38:02Z</time>
      </trkpt>
      <trkpt lat="42.578453" lon="1.647369">
        <ele>1680.10205</ele>
        <time>2021-07-02T10:38:03Z</time>
      </trkpt>
      <trkpt lat="42.578449" lon="1.647361">
        <ele>1680.75000</ele>
        <time>2021-07-02T10:38:04Z</time>
      </trkpt>
      <trkpt lat="42.578449" lon="1.647361">
        <ele>1680.91455</ele>
        <time>2021-07-02T10:38:05Z</time>
      </trkpt>
      <trkpt lat="42.578449" lon="1.647361">
        <ele>1680.40479</ele>
        <time>2021-07-02T10:38:06Z</time>
      </trkpt>
      <trkpt lat="42.578449" lon="1.647361">
        <ele>1678.43896</ele>
        <time>2021-07-02T10:38:07Z</time>
      </trkpt>
      <trkpt lat="42.578449" lon="1.647355">
        <ele>1677.21899</ele>
        <time>2021-07-02T10:38:08Z</time>
      </trkpt>
      <trkpt lat="42.578449" lon="1.647352">
        <ele>1677.20117</ele>
        <time>2021-07-02T10:38:09Z</time>
      </trkpt>
      <trkpt lat="42.578457" lon="1.647441">
        <ele>1696.04053</ele>
        <time>2021-07-02T10:50:11Z</time>
      </trkpt>
      <trkpt lat="42.578457" lon="1.647441">
        <ele>1695.88916</ele>
        <time>2021-07-02T10:50:12Z</time>
      </trkpt>
      <trkpt lat="42.578457" lon="1.647441">
        <ele>1695.50830</ele>
        <time>2021-07-02T10:50:13Z</time>
      </trkpt>
      <trkpt lat="42.578457" lon="1.647441">
        <ele>1695.06152</ele>
        <time>2021-07-02T10:50:14Z</time>
      </trkpt>
      <trkpt lat="42.578457" lon="1.647441">
        <ele>1694.27783</ele>
        <time>2021-07-02T10:50:15Z</time>
      </trkpt>
      <trkpt lat="42.578457" lon="1.647441">
        <ele>1693.88940</ele>
        <time>2021-07-02T10:50:16Z</time>
      </trkpt>
      <trkpt lat="42.578457" lon="1.647441">
        <ele>1693.68481</ele>
        <time>2021-07-02T10:50:17Z</time>
      </trkpt>
      <trkpt lat="42.578457" lon="1.647441">
        <ele>1693.03369</ele>
        <time>2021-07-02T10:50:18Z</time>
      </trkpt>
      <trkpt lat="42.578457" lon="1.647441">
        <ele>1692.78320</ele>
        <time>2021-07-02T10:50:19Z</time>
      </trkpt>
      <trkpt lat="42.578480" lon="1.647413">
        <ele>1692.38867</ele>
        <time>2021-07-02T10:50:20Z</time>
      </trkpt>
      <trkpt lat="42.578480" lon="1.647413">
        <ele>1691.85400</ele>
        <time>2021-07-02T10:50:21Z</time>
      </trkpt>
      <trkpt lat="42.578480" lon="1.647413">
        <ele>1691.81885</ele>
        <time>2021-07-02T10:50:22Z</time>
      </trkpt>
      <trkpt lat="42.578480" lon="1.647413">
        <ele>1691.63818</ele>
        <time>2021-07-02T10:50:23Z</time>
      </trkpt>
      <trkpt lat="42.578480" lon="1.647413">
        <ele>1691.39697</ele>
        <time>2021-07-02T10:50:24Z</time>
      </trkpt>
      <trkpt lat="42.578476" lon="1.647420">
        <ele>1691.49854</ele>
        <time>2021-07-02T10:50:25Z</time>
      </trkpt>
      <trkpt lat="42.578476" lon="1.647420">
        <ele>1692.84814</ele>
        <time>2021-07-02T10:50:26Z</time>
      </trkpt>
      <trkpt lat="42.578476" lon="1.647420">
        <ele>1692.88037</ele>
        <time>2021-07-02T10:50:27Z</time>
      </trkpt>
      <trkpt lat="42.578476" lon="1.647420">
        <ele>1692.43164</ele>
        <time>2021-07-02T10:50:28Z</time>
      </trkpt>
      <trkpt lat="42.578476" lon="1.647420">
        <ele>1693.15430</ele>
        <time>2021-07-02T10:50:29Z</time>
      </trkpt>
      <trkpt lat="42.578476" lon="1.647420">
        <ele>1692.53223</ele>
        <time>2021-07-02T10:50:30Z</time>
      </trkpt>
      <trkpt lat="42.578476" lon="1.647420">
        <ele>1691.83594</ele>
        <time>2021-07-02T10:50:31Z</time>
      </trkpt>
      <trkpt lat="42.578476" lon="1.647420">
        <ele>1691.18994</ele>
        <time>2021-07-02T10:50:32Z</time>
      </trkpt>
      <trkpt lat="42.578476" lon="1.647420">
        <ele>1690.08203</ele>
        <time>2021-07-02T10:50:33Z</time>
      </trkpt>
      <trkpt lat="42.578476" lon="1.647420">
        <ele>1689.54736</ele>
        <time>2021-07-02T10:50:34Z</time>
      </trkpt>
      <trkpt lat="42.578476" lon="1.647420">
        <ele>1688.97656</ele>
        <time>2021-07-02T10:50:35Z</time>
      </trkpt>
      <trkpt lat="42.578476" lon="1.647420">
        <ele>1688.89380</ele>
        <time>2021-07-02T10:50:36Z</time>
      </trkpt>
      <trkpt lat="42.578476" lon="1.647420">
        <ele>1689.20850</ele>
        <time>2021-07-02T10:50:37Z</time>
      </trkpt>
      <trkpt lat="42.578476" lon="1.647420">
        <ele>1689.31079</ele>
        <time>2021-07-02T10:50:38Z</time>
      </trkpt>
      <trkpt lat="42.578476" lon="1.647420">
        <ele>1689.71411</ele>
        <time>2021-07-02T10:50:39Z</time>
      </trkpt>
      <trkpt lat="42.578476" lon="1.647420">
        <ele>1690.24365</ele>
        <time>2021-07-02T10:50:40Z</time>
      </trkpt>
      <trkpt lat="42.578476" lon="1.647420">
        <ele>1689.55420</ele>
        <time>2021-07-02T10:50:41Z</time>
      </trkpt>
      <trkpt lat="42.578476" lon="1.647420">
        <ele>1690.39136</ele>
        <time>2021-07-02T10:50:42Z</time>
      </trkpt>
      <trkpt lat="42.578476" lon="1.647420">
        <ele>1690.28857</ele>
        <time>2021-07-02T10:50:43Z</time>
      </trkpt>
      <trkpt lat="42.578499" lon="1.647381">
        <ele>1690.11938</ele>
        <time>2021-07-02T10:50:44Z</time>
      </trkpt>
      <trkpt lat="42.578499" lon="1.647381">
        <ele>1690.00659</ele>
        <time>2021-07-02T10:50:45Z</time>
      </trkpt>
      <trkpt lat="42.578499" lon="1.647381">
        <ele>1690.59766</ele>
        <time>2021-07-02T10:50:46Z</time>
      </trkpt>
      <trkpt lat="42.578499" lon="1.647381">
        <ele>1691.24585</ele>
        <time>2021-07-02T10:50:47Z</time>
      </trkpt>
      <trkpt lat="42.578499" lon="1.647381">
        <ele>1693.15894</ele>
        <time>2021-07-02T10:50:48Z</time>
      </trkpt>
      <trkpt lat="42.578499" lon="1.647381">
        <ele>1693.33838</ele>
        <time>2021-07-02T10:50:49Z</time>
      </trkpt>
      <trkpt lat="42.578499" lon="1.647381">
        <ele>1693.53418</ele>
        <time>2021-07-02T10:50:50Z</time>
      </trkpt>
      <trkpt lat="42.578499" lon="1.647381">
        <ele>1693.44507</ele>
        <time>2021-07-02T10:50:51Z</time>
      </trkpt>
      <trkpt lat="42.578499" lon="1.647381">
        <ele>1694.11035</ele>
        <time>2021-07-02T10:50:52Z</time>
      </trkpt>
      <trkpt lat="42.578499" lon="1.647381">
        <ele>1693.97217</ele>
        <time>2021-07-02T10:50:53Z</time>
      </trkpt>
      <trkpt lat="42.578491" lon="1.647386">
        <ele>1692.42969</ele>
        <time>2021-07-02T10:50:54Z</time>
      </trkpt>
      <trkpt lat="42.578487" lon="1.647389">
        <ele>1692.03125</ele>
        <time>2021-07-02T10:50:55Z</time>
      </trkpt>
      <trkpt lat="42.578487" lon="1.647389">
        <ele>1692.45654</ele>
        <time>2021-07-02T10:50:56Z</time>
      </trkpt>
      <trkpt lat="42.578491" lon="1.647393">
        <ele>1691.32422</ele>
        <time>2021-07-02T10:50:57Z</time>
      </trkpt>
      <trkpt lat="42.578491" lon="1.647398">
        <ele>1690.63501</ele>
        <time>2021-07-02T10:50:58Z</time>
      </trkpt>
      <trkpt lat="42.578491" lon="1.647396">
        <ele>1689.48901</ele>
        <time>2021-07-02T10:50:59Z</time>
      </trkpt>
      <trkpt lat="42.578491" lon="1.647395">
        <ele>1688.80005</ele>
        <time>2021-07-02T10:51:00Z</time>
      </trkpt>
      <trkpt lat="42.578491" lon="1.647395">
        <ele>1687.91724</ele>
        <time>2021-07-02T10:51:01Z</time>
      </trkpt>
      <trkpt lat="42.578491" lon="1.647395">
        <ele>1687.24170</ele>
        <time>2021-07-02T10:51:02Z</time>
      </trkpt>
      <trkpt lat="42.578491" lon="1.647395">
        <ele>1686.50439</ele>
        <time>2021-07-02T10:51:03Z</time>
      </trkpt>
      <trkpt lat="42.578491" lon="1.647395">
        <ele>1685.99146</ele>
        <time>2021-07-02T10:51:04Z</time>
      </trkpt>
      <trkpt lat="42.578491" lon="1.647395">
        <ele>1686.56641</ele>
        <time>2021-07-02T10:51:05Z</time>
      </trkpt>
      <trkpt lat="42.578491" lon="1.647395">
        <ele>1686.65039</ele>
        <time>2021-07-02T10:51:06Z</time>
      </trkpt>
      <trkpt lat="42.578491" lon="1.647395">
        <ele>1687.51562</ele>
        <time>2021-07-02T10:51:07Z</time>
      </trkpt>
      <trkpt lat="42.578491" lon="1.647395">
        <ele>1687.49658</ele>
        <time>2021-07-02T10:51:08Z</time>
      </trkpt>
      <trkpt lat="42.578491" lon="1.647395">
        <ele>1686.66895</ele>
        <time>2021-07-02T10:51:09Z</time>
      </trkpt>
      <trkpt lat="42.578487" lon="1.647378">
        <ele>1686.57275</ele>
        <time>2021-07-02T10:51:10Z</time>
      </trkpt>
      <trkpt lat="42.578487" lon="1.647374">
        <ele>1686.96777</ele>
        <time>2021-07-02T10:51:11Z</time>
      </trkpt>
      <trkpt lat="42.578491" lon="1.647372">
        <ele>1687.54688</ele>
        <time>2021-07-02T10:51:12Z</time>
      </trkpt>
      <trkpt lat="42.578491" lon="1.647372">
        <ele>1687.52734</ele>
        <time>2021-07-02T10:51:13Z</time>
      </trkpt>
      <trkpt lat="42.578491" lon="1.647372">
        <ele>1687.96655</ele>
        <time>2021-07-02T10:51:14Z</time>
      </trkpt>
      <trkpt lat="42.578491" lon="1.647372">
        <ele>1685.49072</ele>
        <time>2021-07-02T10:51:15Z</time>
      </trkpt>
      <trkpt lat="42.578491" lon="1.647372">
        <ele>1687.26025</ele>
        <time>2021-07-02T10:51:16Z</time>
      </trkpt>
      <trkpt lat="42.578491" lon="1.647372">
        <ele>1687.35571</ele>
        <time>2021-07-02T10:51:17Z</time>
      </trkpt>
      <trkpt lat="42.578491" lon="1.647372">
        <ele>1687.61694</ele>
        <time>2021-07-02T10:51:18Z</time>
      </trkpt>
      <trkpt lat="42.578491" lon="1.647372">
        <ele>1687.98389</ele>
        <time>2021-07-02T10:51:19Z</time>
      </trkpt>
      <trkpt lat="42.578491" lon="1.647372">
        <ele>1688.25696</ele>
        <time>2021-07-02T10:51:20Z</time>
      </trkpt>
      <trkpt lat="42.578491" lon="1.647372">
        <ele>1687.90735</ele>
        <time>2021-07-02T10:51:21Z</time>
      </trkpt>
      <trkpt lat="42.578491" lon="1.647372">
        <ele>1687.54041</ele>
        <time>2021-07-02T10:51:22Z</time>
      </trkpt>
      <trkpt lat="42.578491" lon="1.647372">
        <ele>1687.85620</ele>
        <time>2021-07-02T10:51:23Z</time>
      </trkpt>
      <trkpt lat="42.578491" lon="1.647372">
        <ele>1687.58594</ele>
        <time>2021-07-02T10:51:24Z</time>
      </trkpt>
      <trkpt lat="42.578491" lon="1.647372">
        <ele>1686.62415</ele>
        <time>2021-07-02T10:51:25Z</time>
      </trkpt>
      <trkpt lat="42.578491" lon="1.647372">
        <ele>1688.27893</ele>
        <time>2021-07-02T10:51:26Z</time>
      </trkpt>
      <trkpt lat="42.578491" lon="1.647372">
        <ele>1689.28162</ele>
        <time>2021-07-02T10:51:27Z</time>
      </trkpt>
      <trkpt lat="42.578491" lon="1.647372">
        <ele>1686.81934</ele>
        <time>2021-07-02T10:51:28Z</time>
      </trkpt>
      <trkpt lat="42.578491" lon="1.647372">
        <ele>1687.97485</ele>
        <time>2021-07-02T10:51:29Z</time>
      </trkpt>
      <trkpt lat="42.578491" lon="1.647372">
        <ele>1687.78015</ele>
        <time>2021-07-02T10:51:30Z</time>
      </trkpt>
      <trkpt lat="42.578491" lon="1.647372">
        <ele>1685.59558</ele>
        <time>2021-07-02T10:51:31Z</time>
      </trkpt>
      <trkpt lat="42.578491" lon="1.647372">
        <ele>1687.31335</ele>
        <time>2021-07-02T10:51:32Z</time>
      </trkpt>
      <trkpt lat="42.578491" lon="1.647372">
        <ele>1687.67676</ele>
        <time>2021-07-02T10:51:33Z</time>
      </trkpt>
      <trkpt lat="42.578491" lon="1.647372">
        <ele>1689.65771</ele>
        <time>2021-07-02T10:51:34Z</time>
      </trkpt>
      <trkpt lat="42.578491" lon="1.647372">
        <ele>1686.56226</ele>
        <time>2021-07-02T10:51:35Z</time>
      </trkpt>
      <trkpt lat="42.578491" lon="1.647372">
        <ele>1689.13086</ele>
        <time>2021-07-02T10:51:36Z</time>
      </trkpt>
      <trkpt lat="42.578491" lon="1.647372">
        <ele>1685.58887</ele>
        <time>2021-07-02T10:51:37Z</time>
      </trkpt>
      <trkpt lat="42.578491" lon="1.647372">
        <ele>1694.30225</ele>
        <time>2021-07-02T10:51:38Z</time>
      </trkpt>
      <trkpt lat="42.578491" lon="1.647372">
        <ele>1688.02820</ele>
        <time>2021-07-02T10:51:39Z</time>
      </trkpt>
      <trkpt lat="42.578491" lon="1.647372">
        <ele>1687.78613</ele>
        <time>2021-07-02T10:51:40Z</time>
      </trkpt>
      <trkpt lat="42.578491" lon="1.647372">
        <ele>1687.73779</ele>
        <time>2021-07-02T10:51:41Z</time>
      </trkpt>
      <trkpt lat="42.578491" lon="1.647372">
        <ele>1687.70703</ele>
        <time>2021-07-02T10:51:42Z</time>
      </trkpt>
      <trkpt lat="42.578491" lon="1.647372">
        <ele>1687.69092</ele>
        <time>2021-07-02T10:51:43Z</time>
      </trkpt>
      <trkpt lat="42.578491" lon="1.647372">
        <ele>1687.68066</ele>
        <time>2021-07-02T10:51:44Z</time>
      </trkpt>
      <trkpt lat="42.578491" lon="1.647372">
        <ele>1687.67554</ele>
        <time>2021-07-02T10:51:45Z</time>
      </trkpt>
      <trkpt lat="42.578491" lon="1.647372">
        <ele>1687.66357</ele>
        <time>2021-07-02T10:51:46Z</time>
      </trkpt>
      <trkpt lat="42.578491" lon="1.647372">
        <ele>1687.65527</ele>
        <time>2021-07-02T10:51:47Z</time>
      </trkpt>
      <trkpt lat="42.578491" lon="1.647372">
        <ele>1687.64307</ele>
        <time>2021-07-02T10:51:48Z</time>
      </trkpt>
      <trkpt lat="42.578491" lon="1.647372">
        <ele>1687.63574</ele>
        <time>2021-07-02T10:51:49Z</time>
      </trkpt>
      <trkpt lat="42.578491" lon="1.647372">
        <ele>1687.63184</ele>
        <time>2021-07-02T10:51:50Z</time>
      </trkpt>
      <trkpt lat="42.578491" lon="1.647372">
        <ele>1687.62793</ele>
        <time>2021-07-02T10:51:51Z</time>
      </trkpt>
      <trkpt lat="42.578491" lon="1.647372">
        <ele>1687.62695</ele>
        <time>2021-07-02T10:51:52Z</time>
      </trkpt>
      <trkpt lat="42.578491" lon="1.647372">
        <ele>1687.62793</ele>
        <time>2021-07-02T10:51:53Z</time>
      </trkpt>
      <trkpt lat="42.578491" lon="1.647372">
        <ele>1687.62305</ele>
        <time>2021-07-02T10:51:54Z</time>
      </trkpt>
      <trkpt lat="42.578491" lon="1.647372">
        <ele>1687.61670</ele>
        <time>2021-07-02T10:51:55Z</time>
      </trkpt>
      <trkpt lat="42.578491" lon="1.647372">
        <ele>1687.61914</ele>
        <time>2021-07-02T10:51:56Z</time>
      </trkpt>
      <trkpt lat="42.578491" lon="1.647372">
        <ele>1687.61914</ele>
        <time>2021-07-02T10:51:57Z</time>
      </trkpt>
      <trkpt lat="42.578491" lon="1.647372">
        <ele>1687.62109</ele>
        <time>2021-07-02T10:51:58Z</time>
      </trkpt>
      <trkpt lat="42.578491" lon="1.647372">
        <ele>1687.61792</ele>
        <time>2021-07-02T10:51:59Z</time>
      </trkpt>
      <trkpt lat="42.578491" lon="1.647372">
        <ele>1687.61035</ele>
        <time>2021-07-02T10:52:00Z</time>
      </trkpt>
      <trkpt lat="42.578491" lon="1.647372">
        <ele>1687.61572</ele>
        <time>2021-07-02T10:52:01Z</time>
      </trkpt>
      <trkpt lat="42.578491" lon="1.647372">
        <ele>1687.62256</ele>
        <time>2021-07-02T10:52:02Z</time>
      </trkpt>
      <trkpt lat="42.578491" lon="1.647372">
        <ele>1693.87634</ele>
        <time>2021-07-02T10:52:03Z</time>
      </trkpt>
      <trkpt lat="42.578491" lon="1.647372">
        <ele>1693.60083</ele>
        <time>2021-07-02T10:52:04Z</time>
      </trkpt>
      <trkpt lat="42.578491" lon="1.647372">
        <ele>1693.42395</ele>
        <time>2021-07-02T10:52:05Z</time>
      </trkpt>
      <trkpt lat="42.578491" lon="1.647372">
        <ele>1693.24658</ele>
        <time>2021-07-02T10:52:06Z</time>
      </trkpt>
      <trkpt lat="42.578491" lon="1.647372">
        <ele>1693.20044</ele>
        <time>2021-07-02T10:52:07Z</time>
      </trkpt>
      <trkpt lat="42.578491" lon="1.647372">
        <ele>1693.16980</ele>
        <time>2021-07-02T10:52:08Z</time>
      </trkpt>
      <trkpt lat="42.578491" lon="1.647372">
        <ele>1693.00513</ele>
        <time>2021-07-02T10:52:09Z</time>
      </trkpt>
      <trkpt lat="42.578491" lon="1.647372">
        <ele>1693.03015</ele>
        <time>2021-07-02T10:52:10Z</time>
      </trkpt>
      <trkpt lat="42.578491" lon="1.647372">
        <ele>1692.89392</ele>
        <time>2021-07-02T10:52:11Z</time>
      </trkpt>
      <trkpt lat="42.578491" lon="1.647372">
        <ele>1693.01941</ele>
        <time>2021-07-02T10:52:12Z</time>
      </trkpt>
      <trkpt lat="42.578491" lon="1.647372">
        <ele>1692.84570</ele>
        <time>2021-07-02T10:52:13Z</time>
      </trkpt>
      <trkpt lat="42.578491" lon="1.647372">
        <ele>1692.61597</ele>
        <time>2021-07-02T10:52:14Z</time>
      </trkpt>
      <trkpt lat="42.578491" lon="1.647372">
        <ele>1692.49438</ele>
        <time>2021-07-02T10:52:15Z</time>
      </trkpt>
      <trkpt lat="42.578491" lon="1.647372">
        <ele>1692.29285</ele>
        <time>2021-07-02T10:52:16Z</time>
      </trkpt>
      <trkpt lat="42.578491" lon="1.647372">
        <ele>1692.35864</ele>
        <time>2021-07-02T10:52:17Z</time>
      </trkpt>
      <trkpt lat="42.578491" lon="1.647372">
        <ele>1692.29517</ele>
        <time>2021-07-02T10:52:18Z</time>
      </trkpt>
      <trkpt lat="42.578491" lon="1.647372">
        <ele>1692.19409</ele>
        <time>2021-07-02T10:52:19Z</time>
      </trkpt>
      <trkpt lat="42.578491" lon="1.647372">
        <ele>1692.29431</ele>
        <time>2021-07-02T10:52:20Z</time>
      </trkpt>
      <trkpt lat="42.578491" lon="1.647372">
        <ele>1692.12000</ele>
        <time>2021-07-02T10:52:21Z</time>
      </trkpt>
      <trkpt lat="42.578491" lon="1.647372">
        <ele>1692.03870</ele>
        <time>2021-07-02T10:52:22Z</time>
      </trkpt>
      <trkpt lat="42.578491" lon="1.647372">
        <ele>1691.92896</ele>
        <time>2021-07-02T10:52:23Z</time>
      </trkpt>
      <trkpt lat="42.578491" lon="1.647372">
        <ele>1691.85095</ele>
        <time>2021-07-02T10:52:24Z</time>
      </trkpt>
      <trkpt lat="42.578491" lon="1.647372">
        <ele>1691.76404</ele>
        <time>2021-07-02T10:52:25Z</time>
      </trkpt>
      <trkpt lat="42.578491" lon="1.647372">
        <ele>1691.71667</ele>
        <time>2021-07-02T10:52:26Z</time>
      </trkpt>
      <trkpt lat="42.578491" lon="1.647372">
        <ele>1691.74939</ele>
        <time>2021-07-02T10:52:27Z</time>
      </trkpt>
      <trkpt lat="42.578491" lon="1.647372">
        <ele>1691.74707</ele>
        <time>2021-07-02T10:52:28Z</time>
      </trkpt>
      <trkpt lat="42.578491" lon="1.647372">
        <ele>1689.62256</ele>
        <time>2021-07-02T10:52:29Z</time>
      </trkpt>
      <trkpt lat="42.578491" lon="1.647372">
        <ele>1688.32568</ele>
        <time>2021-07-02T10:52:30Z</time>
      </trkpt>
      <trkpt lat="42.578491" lon="1.647372">
        <ele>1688.02783</ele>
        <time>2021-07-02T10:52:31Z</time>
      </trkpt>
      <trkpt lat="42.578491" lon="1.647372">
        <ele>1687.56323</ele>
        <time>2021-07-02T10:52:32Z</time>
      </trkpt>
      <trkpt lat="42.578491" lon="1.647372">
        <ele>1686.68555</ele>
        <time>2021-07-02T10:52:33Z</time>
      </trkpt>
      <trkpt lat="42.578491" lon="1.647372">
        <ele>1685.71167</ele>
        <time>2021-07-02T10:52:34Z</time>
      </trkpt>
      <trkpt lat="42.578491" lon="1.647372">
        <ele>1691.27454</ele>
        <time>2021-07-02T10:52:35Z</time>
      </trkpt>
      <trkpt lat="42.578491" lon="1.647372">
        <ele>1691.22913</ele>
        <time>2021-07-02T10:52:36Z</time>
      </trkpt>
      <trkpt lat="42.578491" lon="1.647372">
        <ele>1691.15393</ele>
        <time>2021-07-02T10:52:37Z</time>
      </trkpt>
      <trkpt lat="42.578491" lon="1.647372">
        <ele>1691.06812</ele>
        <time>2021-07-02T10:52:38Z</time>
      </trkpt>
      <trkpt lat="42.578491" lon="1.647372">
        <ele>1690.97571</ele>
        <time>2021-07-02T10:52:39Z</time>
      </trkpt>
      <trkpt lat="42.578491" lon="1.647372">
        <ele>1687.56543</ele>
        <time>2021-07-02T10:52:40Z</time>
      </trkpt>
      <trkpt lat="42.578491" lon="1.647372">
        <ele>1690.86548</ele>
        <time>2021-07-02T10:52:41Z</time>
      </trkpt>
      <trkpt lat="42.578491" lon="1.647372">
        <ele>1690.82483</ele>
        <time>2021-07-02T10:52:42Z</time>
      </trkpt>
      <trkpt lat="42.578491" lon="1.647372">
        <ele>1690.70935</ele>
        <time>2021-07-02T10:52:43Z</time>
      </trkpt>
      <trkpt lat="42.578491" lon="1.647372">
        <ele>1690.65466</ele>
        <time>2021-07-02T10:52:44Z</time>
      </trkpt>
      <trkpt lat="42.578491" lon="1.647372">
        <ele>1690.63330</ele>
        <time>2021-07-02T10:52:45Z</time>
      </trkpt>
      <trkpt lat="42.578491" lon="1.647372">
        <ele>1690.65820</ele>
        <time>2021-07-02T10:52:46Z</time>
      </trkpt>
      <trkpt lat="42.578491" lon="1.647372">
        <ele>1690.49036</ele>
        <time>2021-07-02T10:52:47Z</time>
      </trkpt>
      <trkpt lat="42.578491" lon="1.647372">
        <ele>1690.56165</ele>
        <time>2021-07-02T10:52:48Z</time>
      </trkpt>
      <trkpt lat="42.578491" lon="1.647372">
        <ele>1690.48816</ele>
        <time>2021-07-02T10:52:49Z</time>
      </trkpt>
      <trkpt lat="42.578491" lon="1.647372">
        <ele>1690.46375</ele>
        <time>2021-07-02T10:52:50Z</time>
      </trkpt>
      <trkpt lat="42.578491" lon="1.647372">
        <ele>1690.45581</ele>
        <time>2021-07-02T10:52:51Z</time>
      </trkpt>
      <trkpt lat="42.578491" lon="1.647372">
        <ele>1690.39282</ele>
        <time>2021-07-02T10:52:52Z</time>
      </trkpt>
      <trkpt lat="42.578491" lon="1.647372">
        <ele>1690.39307</ele>
        <time>2021-07-02T10:52:53Z</time>
      </trkpt>
      <trkpt lat="42.578491" lon="1.647372">
        <ele>1690.20227</ele>
        <time>2021-07-02T10:52:54Z</time>
      </trkpt>
      <trkpt lat="42.578491" lon="1.647372">
        <ele>1690.13184</ele>
        <time>2021-07-02T10:52:55Z</time>
      </trkpt>
      <trkpt lat="42.578491" lon="1.647372">
        <ele>1690.03564</ele>
        <time>2021-07-02T10:52:56Z</time>
      </trkpt>
      <trkpt lat="42.578491" lon="1.647372">
        <ele>1689.90637</ele>
        <time>2021-07-02T10:52:57Z</time>
      </trkpt>
      <trkpt lat="42.578491" lon="1.647372">
        <ele>1689.86072</ele>
        <time>2021-07-02T10:52:58Z</time>
      </trkpt>
      <trkpt lat="42.578491" lon="1.647372">
        <ele>1687.27124</ele>
        <time>2021-07-02T10:52:59Z</time>
      </trkpt>
      <trkpt lat="42.578491" lon="1.647372">
        <ele>1689.65466</ele>
        <time>2021-07-02T10:53:00Z</time>
      </trkpt>
      <trkpt lat="42.578491" lon="1.647372">
        <ele>1689.36230</ele>
        <time>2021-07-02T10:53:01Z</time>
      </trkpt>
      <trkpt lat="42.578491" lon="1.647372">
        <ele>1688.99731</ele>
        <time>2021-07-02T10:53:02Z</time>
      </trkpt>
      <trkpt lat="42.578491" lon="1.647372">
        <ele>1688.89685</ele>
        <time>2021-07-02T10:53:03Z</time>
      </trkpt>
      <trkpt lat="42.578491" lon="1.647372">
        <ele>1688.78821</ele>
        <time>2021-07-02T10:53:04Z</time>
      </trkpt>
      <trkpt lat="42.578491" lon="1.647372">
        <ele>1686.87427</ele>
        <time>2021-07-02T10:53:05Z</time>
      </trkpt>
      <trkpt lat="42.578491" lon="1.647372">
        <ele>1687.76636</ele>
        <time>2021-07-02T10:53:06Z</time>
      </trkpt>
      <trkpt lat="42.578491" lon="1.647372">
        <ele>1686.42822</ele>
        <time>2021-07-02T10:53:07Z</time>
      </trkpt>
      <trkpt lat="42.578491" lon="1.647372">
        <ele>1685.85791</ele>
        <time>2021-07-02T10:53:08Z</time>
      </trkpt>
      <trkpt lat="42.578491" lon="1.647372">
        <ele>1685.27954</ele>
        <time>2021-07-02T10:53:09Z</time>
      </trkpt>
      <trkpt lat="42.578491" lon="1.647372">
        <ele>1684.50073</ele>
        <time>2021-07-02T10:53:10Z</time>
      </trkpt>
      <trkpt lat="42.578491" lon="1.647372">
        <ele>1683.80566</ele>
        <time>2021-07-02T10:53:11Z</time>
      </trkpt>
      <trkpt lat="42.578472" lon="1.647365">
        <ele>1682.57666</ele>
        <time>2021-07-02T10:53:12Z</time>
      </trkpt>
      <trkpt lat="42.578518" lon="1.647392">
        <ele>1682.46875</ele>
        <time>2021-07-02T10:53:13Z</time>
      </trkpt>
      <trkpt lat="42.578560" lon="1.647419">
        <ele>1682.01074</ele>
        <time>2021-07-02T10:53:14Z</time>
      </trkpt>
      <trkpt lat="42.578617" lon="1.647445">
        <ele>1681.59912</ele>
        <time>2021-07-02T10:53:15Z</time>
      </trkpt>
      <trkpt lat="42.578644" lon="1.647477">
        <ele>1678.21729</ele>
        <time>2021-07-02T10:53:16Z</time>
      </trkpt>
      <trkpt lat="42.578667" lon="1.647522">
        <ele>1678.82812</ele>
        <time>2021-07-02T10:53:17Z</time>
      </trkpt>
      <trkpt lat="42.578671" lon="1.647622">
        <ele>1679.30859</ele>
        <time>2021-07-02T10:53:18Z</time>
      </trkpt>
      <trkpt lat="42.578674" lon="1.647680">
        <ele>1678.94824</ele>
        <time>2021-07-02T10:53:19Z</time>
      </trkpt>
      <trkpt lat="42.578697" lon="1.647720">
        <ele>1679.31274</ele>
        <time>2021-07-02T10:53:20Z</time>
      </trkpt>
      <trkpt lat="42.578735" lon="1.647770">
        <ele>1680.03687</ele>
        <time>2021-07-02T10:53:21Z</time>
      </trkpt>
      <trkpt lat="42.578777" lon="1.647795">
        <ele>1680.06519</ele>
        <time>2021-07-02T10:53:22Z</time>
      </trkpt>
      <trkpt lat="42.578819" lon="1.647818">
        <ele>1679.50439</ele>
        <time>2021-07-02T10:53:23Z</time>
      </trkpt>
      <trkpt lat="42.578743" lon="1.648071">
        <ele>1679.33472</ele>
        <time>2021-07-02T10:53:24Z</time>
      </trkpt>
      <trkpt lat="42.578777" lon="1.648106">
        <ele>1678.76807</ele>
        <time>2021-07-02T10:53:25Z</time>
      </trkpt>
      <trkpt lat="42.578903" lon="1.648126">
        <ele>1678.24805</ele>
        <time>2021-07-02T10:53:26Z</time>
      </trkpt>
      <trkpt lat="42.579010" lon="1.648100">
        <ele>1678.52344</ele>
        <time>2021-07-02T10:53:27Z</time>
      </trkpt>
      <trkpt lat="42.579052" lon="1.648088">
        <ele>1677.95654</ele>
        <time>2021-07-02T10:53:28Z</time>
      </trkpt>
      <trkpt lat="42.579060" lon="1.648086">
        <ele>1677.65967</ele>
        <time>2021-07-02T10:53:29Z</time>
      </trkpt>
      <trkpt lat="42.579071" lon="1.648083">
        <ele>1677.34033</ele>
        <time>2021-07-02T10:53:30Z</time>
      </trkpt>
      <trkpt lat="42.579082" lon="1.648080">
        <ele>1677.56104</ele>
        <time>2021-07-02T10:53:31Z</time>
      </trkpt>
      <trkpt lat="42.579136" lon="1.648069">
        <ele>1678.03955</ele>
        <time>2021-07-02T10:53:32Z</time>
      </trkpt>
      <trkpt lat="42.579269" lon="1.648117">
        <ele>1677.88232</ele>
        <time>2021-07-02T10:53:33Z</time>
      </trkpt>
      <trkpt lat="42.579273" lon="1.648122">
        <ele>1677.63110</ele>
        <time>2021-07-02T10:53:34Z</time>
      </trkpt>
      <trkpt lat="42.579304" lon="1.648141">
        <ele>1676.80762</ele>
        <time>2021-07-02T10:53:35Z</time>
      </trkpt>
      <trkpt lat="42.579334" lon="1.648162">
        <ele>1677.15186</ele>
        <time>2021-07-02T10:53:36Z</time>
      </trkpt>
      <trkpt lat="42.579350" lon="1.648175">
        <ele>1676.95850</ele>
        <time>2021-07-02T10:53:37Z</time>
      </trkpt>
      <trkpt lat="42.579372" lon="1.648189">
        <ele>1676.66870</ele>
        <time>2021-07-02T10:53:38Z</time>
      </trkpt>
      <trkpt lat="42.579372" lon="1.648189">
        <ele>1675.90674</ele>
        <time>2021-07-02T10:53:39Z</time>
      </trkpt>
      <trkpt lat="42.579403" lon="1.648212">
        <ele>1675.45923</ele>
        <time>2021-07-02T10:53:40Z</time>
      </trkpt>
      <trkpt lat="42.579441" lon="1.648240">
        <ele>1675.46899</ele>
        <time>2021-07-02T10:53:41Z</time>
      </trkpt>
      <trkpt lat="42.579479" lon="1.648266">
        <ele>1676.14844</ele>
        <time>2021-07-02T10:53:42Z</time>
      </trkpt>
      <trkpt lat="42.579514" lon="1.648293">
        <ele>1675.79370</ele>
        <time>2021-07-02T10:53:43Z</time>
      </trkpt>
      <trkpt lat="42.579556" lon="1.648322">
        <ele>1675.87354</ele>
        <time>2021-07-02T10:53:44Z</time>
      </trkpt>
      <trkpt lat="42.579609" lon="1.648360">
        <ele>1675.70410</ele>
        <time>2021-07-02T10:53:45Z</time>
      </trkpt>
      <trkpt lat="42.579674" lon="1.648405">
        <ele>1675.83008</ele>
        <time>2021-07-02T10:53:46Z</time>
      </trkpt>
      <trkpt lat="42.579727" lon="1.648444">
        <ele>1676.17871</ele>
        <time>2021-07-02T10:53:47Z</time>
      </trkpt>
      <trkpt lat="42.579788" lon="1.648488">
        <ele>1676.78174</ele>
        <time>2021-07-02T10:53:48Z</time>
      </trkpt>
      <trkpt lat="42.579849" lon="1.648533">
        <ele>1677.23291</ele>
        <time>2021-07-02T10:53:49Z</time>
      </trkpt>
      <trkpt lat="42.579884" lon="1.648558">
        <ele>1677.67651</ele>
        <time>2021-07-02T10:53:50Z</time>
      </trkpt>
      <trkpt lat="42.579895" lon="1.648566">
        <ele>1678.16138</ele>
        <time>2021-07-02T10:53:51Z</time>
      </trkpt>
      <trkpt lat="42.579899" lon="1.648568">
        <ele>1678.27295</ele>
        <time>2021-07-02T10:53:52Z</time>
      </trkpt>
      <trkpt lat="42.579899" lon="1.648569">
        <ele>1678.09131</ele>
        <time>2021-07-02T10:53:53Z</time>
      </trkpt>
      <trkpt lat="42.579899" lon="1.648569">
        <ele>1678.02393</ele>
        <time>2021-07-02T10:53:54Z</time>
      </trkpt>
      <trkpt lat="42.579899" lon="1.648569">
        <ele>1678.04150</ele>
        <time>2021-07-02T10:53:55Z</time>
      </trkpt>
      <trkpt lat="42.579899" lon="1.648569">
        <ele>1678.32471</ele>
        <time>2021-07-02T10:53:56Z</time>
      </trkpt>
      <trkpt lat="42.579899" lon="1.648569">
        <ele>1683.24414</ele>
        <time>2021-07-02T10:53:57Z</time>
      </trkpt>
      <trkpt lat="42.579899" lon="1.648569">
        <ele>1683.16602</ele>
        <time>2021-07-02T10:53:58Z</time>
      </trkpt>
      <trkpt lat="42.579899" lon="1.648569">
        <ele>1683.31519</ele>
        <time>2021-07-02T10:53:59Z</time>
      </trkpt>
      <trkpt lat="42.579899" lon="1.648569">
        <ele>1680.37354</ele>
        <time>2021-07-02T10:54:00Z</time>
      </trkpt>
      <trkpt lat="42.579914" lon="1.648578">
        <ele>1679.63916</ele>
        <time>2021-07-02T10:54:01Z</time>
      </trkpt>
      <trkpt lat="42.579926" lon="1.648587">
        <ele>1678.98853</ele>
        <time>2021-07-02T10:54:02Z</time>
      </trkpt>
      <trkpt lat="42.579956" lon="1.648506">
        <ele>1678.21240</ele>
        <time>2021-07-02T10:54:03Z</time>
      </trkpt>
      <trkpt lat="42.580059" lon="1.648220">
        <ele>1677.49023</ele>
        <time>2021-07-02T10:54:04Z</time>
      </trkpt>
      <trkpt lat="42.580093" lon="1.648110">
        <ele>1676.86914</ele>
        <time>2021-07-02T10:54:05Z</time>
      </trkpt>
      <trkpt lat="42.580154" lon="1.647965">
        <ele>1676.16406</ele>
        <time>2021-07-02T10:54:06Z</time>
      </trkpt>
      <trkpt lat="42.580231" lon="1.647838">
        <ele>1675.71680</ele>
        <time>2021-07-02T10:54:07Z</time>
      </trkpt>
      <trkpt lat="42.580292" lon="1.647739">
        <ele>1676.06152</ele>
        <time>2021-07-02T10:54:08Z</time>
      </trkpt>
      <trkpt lat="42.580326" lon="1.647599">
        <ele>1675.52100</ele>
        <time>2021-07-02T10:54:09Z</time>
      </trkpt>
      <trkpt lat="42.580364" lon="1.647390">
        <ele>1680.82886</ele>
        <time>2021-07-02T10:54:10Z</time>
      </trkpt>
      <trkpt lat="42.580368" lon="1.647233">
        <ele>1680.26868</ele>
        <time>2021-07-02T10:54:11Z</time>
      </trkpt>
      <trkpt lat="42.580353" lon="1.647077">
        <ele>1679.71973</ele>
        <time>2021-07-02T10:54:12Z</time>
      </trkpt>
      <trkpt lat="42.580334" lon="1.646928">
        <ele>1679.29834</ele>
        <time>2021-07-02T10:54:13Z</time>
      </trkpt>
      <trkpt lat="42.580292" lon="1.646776">
        <ele>1678.66980</ele>
        <time>2021-07-02T10:54:14Z</time>
      </trkpt>
      <trkpt lat="42.580292" lon="1.646776">
        <ele>1678.15967</ele>
        <time>2021-07-02T10:54:15Z</time>
      </trkpt>
      <trkpt lat="42.580254" lon="1.646630">
        <ele>1676.82886</ele>
        <time>2021-07-02T10:54:16Z</time>
      </trkpt>
      <trkpt lat="42.580219" lon="1.646495">
        <ele>1676.52844</ele>
        <time>2021-07-02T10:54:17Z</time>
      </trkpt>
      <trkpt lat="42.580181" lon="1.646371">
        <ele>1675.99060</ele>
        <time>2021-07-02T10:54:18Z</time>
      </trkpt>
      <trkpt lat="42.580135" lon="1.646249">
        <ele>1675.14380</ele>
        <time>2021-07-02T10:54:19Z</time>
      </trkpt>
      <trkpt lat="42.580097" lon="1.646134">
        <ele>1674.59314</ele>
        <time>2021-07-02T10:54:20Z</time>
      </trkpt>
      <trkpt lat="42.580055" lon="1.646027">
        <ele>1674.47083</ele>
        <time>2021-07-02T10:54:21Z</time>
      </trkpt>
      <trkpt lat="42.580021" lon="1.645920">
        <ele>1674.00977</ele>
        <time>2021-07-02T10:54:22Z</time>
      </trkpt>
      <trkpt lat="42.579979" lon="1.645811">
        <ele>1669.63916</ele>
        <time>2021-07-02T10:54:23Z</time>
      </trkpt>
      <trkpt lat="42.579960" lon="1.645727">
        <ele>1668.82812</ele>
        <time>2021-07-02T10:54:24Z</time>
      </trkpt>
      <trkpt lat="42.579948" lon="1.645622">
        <ele>1668.76465</ele>
        <time>2021-07-02T10:54:25Z</time>
      </trkpt>
      <trkpt lat="42.579914" lon="1.645579">
        <ele>1666.86890</ele>
        <time>2021-07-02T10:54:26Z</time>
      </trkpt>
      <trkpt lat="42.579914" lon="1.645578">
        <ele>1666.24072</ele>
        <time>2021-07-02T10:54:27Z</time>
      </trkpt>
      <trkpt lat="42.579845" lon="1.645283">
        <ele>1665.84180</ele>
        <time>2021-07-02T10:54:28Z</time>
      </trkpt>
      <trkpt lat="42.579819" lon="1.645091">
        <ele>1665.77368</ele>
        <time>2021-07-02T10:54:29Z</time>
      </trkpt>
      <trkpt lat="42.579796" lon="1.644947">
        <ele>1665.48804</ele>
        <time>2021-07-02T10:54:30Z</time>
      </trkpt>
      <trkpt lat="42.579746" lon="1.644802">
        <ele>1669.52429</ele>
        <time>2021-07-02T10:54:31Z</time>
      </trkpt>
      <trkpt lat="42.579727" lon="1.644663">
        <ele>1668.74243</ele>
        <time>2021-07-02T10:54:32Z</time>
      </trkpt>
      <trkpt lat="42.579704" lon="1.644499">
        <ele>1668.08398</ele>
        <time>2021-07-02T10:54:33Z</time>
      </trkpt>
      <trkpt lat="42.579678" lon="1.644329">
        <ele>1664.12500</ele>
        <time>2021-07-02T10:54:34Z</time>
      </trkpt>
      <trkpt lat="42.579655" lon="1.644164">
        <ele>1662.76416</ele>
        <time>2021-07-02T10:54:35Z</time>
      </trkpt>
      <trkpt lat="42.579636" lon="1.644011">
        <ele>1661.79443</ele>
        <time>2021-07-02T10:54:36Z</time>
      </trkpt>
      <trkpt lat="42.579613" lon="1.643857">
        <ele>1665.74622</ele>
        <time>2021-07-02T10:54:37Z</time>
      </trkpt>
      <trkpt lat="42.579597" lon="1.643685">
        <ele>1665.00586</ele>
        <time>2021-07-02T10:54:38Z</time>
      </trkpt>
      <trkpt lat="42.579590" lon="1.643515">
        <ele>1663.76123</ele>
        <time>2021-07-02T10:54:39Z</time>
      </trkpt>
      <trkpt lat="42.579578" lon="1.643331">
        <ele>1663.19836</ele>
        <time>2021-07-02T10:54:40Z</time>
      </trkpt>
      <trkpt lat="42.579575" lon="1.643194">
        <ele>1662.61389</ele>
        <time>2021-07-02T10:54:41Z</time>
      </trkpt>
      <trkpt lat="42.579567" lon="1.643053">
        <ele>1661.38782</ele>
        <time>2021-07-02T10:54:42Z</time>
      </trkpt>
      <trkpt lat="42.579559" lon="1.642911">
        <ele>1661.28760</ele>
        <time>2021-07-02T10:54:43Z</time>
      </trkpt>
      <trkpt lat="42.579552" lon="1.642774">
        <ele>1660.67151</ele>
        <time>2021-07-02T10:54:44Z</time>
      </trkpt>
      <trkpt lat="42.579544" lon="1.642638">
        <ele>1660.40759</ele>
        <time>2021-07-02T10:54:45Z</time>
      </trkpt>
      <trkpt lat="42.579536" lon="1.642513">
        <ele>1659.54712</ele>
        <time>2021-07-02T10:54:46Z</time>
      </trkpt>
      <trkpt lat="42.579529" lon="1.642382">
        <ele>1658.86426</ele>
        <time>2021-07-02T10:54:47Z</time>
      </trkpt>
      <trkpt lat="42.579517" lon="1.642247">
        <ele>1658.94482</ele>
        <time>2021-07-02T10:54:48Z</time>
      </trkpt>
      <trkpt lat="42.579514" lon="1.642100">
        <ele>1658.47986</ele>
        <time>2021-07-02T10:54:49Z</time>
      </trkpt>
      <trkpt lat="42.579510" lon="1.641957">
        <ele>1658.47742</ele>
        <time>2021-07-02T10:54:50Z</time>
      </trkpt>
      <trkpt lat="42.579506" lon="1.641810">
        <ele>1658.05627</ele>
        <time>2021-07-02T10:54:51Z</time>
      </trkpt>
      <trkpt lat="42.579502" lon="1.641675">
        <ele>1657.14124</ele>
        <time>2021-07-02T10:54:52Z</time>
      </trkpt>
      <trkpt lat="42.579502" lon="1.641561">
        <ele>1656.91187</ele>
        <time>2021-07-02T10:54:53Z</time>
      </trkpt>
      <trkpt lat="42.579498" lon="1.641446">
        <ele>1656.91077</ele>
        <time>2021-07-02T10:54:54Z</time>
      </trkpt>
      <trkpt lat="42.579498" lon="1.641446">
        <ele>1656.28430</ele>
        <time>2021-07-02T10:54:55Z</time>
      </trkpt>
      <trkpt lat="42.579494" lon="1.641312">
        <ele>1656.00281</ele>
        <time>2021-07-02T10:54:56Z</time>
      </trkpt>
      <trkpt lat="42.579494" lon="1.641176">
        <ele>1655.77588</ele>
        <time>2021-07-02T10:54:57Z</time>
      </trkpt>
      <trkpt lat="42.579491" lon="1.641038">
        <ele>1655.66138</ele>
        <time>2021-07-02T10:54:58Z</time>
      </trkpt>
      <trkpt lat="42.579483" lon="1.640907">
        <ele>1654.88135</ele>
        <time>2021-07-02T10:54:59Z</time>
      </trkpt>
      <trkpt lat="42.579472" lon="1.640774">
        <ele>1654.62854</ele>
        <time>2021-07-02T10:55:00Z</time>
      </trkpt>
      <trkpt lat="42.579460" lon="1.640634">
        <ele>1654.20300</ele>
        <time>2021-07-02T10:55:01Z</time>
      </trkpt>
      <trkpt lat="42.579433" lon="1.640499">
        <ele>1651.48340</ele>
        <time>2021-07-02T10:55:02Z</time>
      </trkpt>
      <trkpt lat="42.579395" lon="1.640373">
        <ele>1650.82910</ele>
        <time>2021-07-02T10:55:03Z</time>
      </trkpt>
      <trkpt lat="42.579350" lon="1.640246">
        <ele>1649.54883</ele>
        <time>2021-07-02T10:55:04Z</time>
      </trkpt>
      <trkpt lat="42.579296" lon="1.640101">
        <ele>1649.49829</ele>
        <time>2021-07-02T10:55:05Z</time>
      </trkpt>
      <trkpt lat="42.579247" lon="1.639969">
        <ele>1650.24609</ele>
        <time>2021-07-02T10:55:06Z</time>
      </trkpt>
      <trkpt lat="42.579208" lon="1.639859">
        <ele>1649.98291</ele>
        <time>2021-07-02T10:55:07Z</time>
      </trkpt>
      <trkpt lat="42.579163" lon="1.639754">
        <ele>1650.02490</ele>
        <time>2021-07-02T10:55:08Z</time>
      </trkpt>
      <trkpt lat="42.579105" lon="1.639626">
        <ele>1650.02954</ele>
        <time>2021-07-02T10:55:09Z</time>
      </trkpt>
      <trkpt lat="42.579056" lon="1.639506">
        <ele>1649.23755</ele>
        <time>2021-07-02T10:55:10Z</time>
      </trkpt>
      <trkpt lat="42.579010" lon="1.639403">
        <ele>1648.95410</ele>
        <time>2021-07-02T10:55:11Z</time>
      </trkpt>
      <trkpt lat="42.578968" lon="1.639305">
        <ele>1648.60107</ele>
        <time>2021-07-02T10:55:12Z</time>
      </trkpt>
      <trkpt lat="42.578930" lon="1.639213">
        <ele>1648.15283</ele>
        <time>2021-07-02T10:55:13Z</time>
      </trkpt>
      <trkpt lat="42.578873" lon="1.639079">
        <ele>1648.09009</ele>
        <time>2021-07-02T10:55:14Z</time>
      </trkpt>
      <trkpt lat="42.578819" lon="1.638928">
        <ele>1647.20483</ele>
        <time>2021-07-02T10:55:15Z</time>
      </trkpt>
      <trkpt lat="42.578785" lon="1.638766">
        <ele>1646.89258</ele>
        <time>2021-07-02T10:55:16Z</time>
      </trkpt>
      <trkpt lat="42.578781" lon="1.638591">
        <ele>1646.08350</ele>
        <time>2021-07-02T10:55:17Z</time>
      </trkpt>
      <trkpt lat="42.578789" lon="1.638461">
        <ele>1645.57520</ele>
        <time>2021-07-02T10:55:18Z</time>
      </trkpt>
      <trkpt lat="42.578804" lon="1.638285">
        <ele>1648.12646</ele>
        <time>2021-07-02T10:55:19Z</time>
      </trkpt>
      <trkpt lat="42.578819" lon="1.638086">
        <ele>1647.92920</ele>
        <time>2021-07-02T10:55:20Z</time>
      </trkpt>
      <trkpt lat="42.578838" lon="1.637878">
        <ele>1646.87842</ele>
        <time>2021-07-02T10:55:21Z</time>
      </trkpt>
      <trkpt lat="42.578857" lon="1.637681">
        <ele>1645.71155</ele>
        <time>2021-07-02T10:55:22Z</time>
      </trkpt>
      <trkpt lat="42.578865" lon="1.637487">
        <ele>1645.59729</ele>
        <time>2021-07-02T10:55:23Z</time>
      </trkpt>
      <trkpt lat="42.578861" lon="1.637271">
        <ele>1643.50488</ele>
        <time>2021-07-02T10:55:24Z</time>
      </trkpt>
      <trkpt lat="42.578846" lon="1.637058">
        <ele>1642.98120</ele>
        <time>2021-07-02T10:55:25Z</time>
      </trkpt>
      <trkpt lat="42.578815" lon="1.636848">
        <ele>1641.66016</ele>
        <time>2021-07-02T10:55:26Z</time>
      </trkpt>
      <trkpt lat="42.578766" lon="1.636646">
        <ele>1640.90454</ele>
        <time>2021-07-02T10:55:27Z</time>
      </trkpt>
      <trkpt lat="42.578705" lon="1.636452">
        <ele>1640.10010</ele>
        <time>2021-07-02T10:55:28Z</time>
      </trkpt>
      <trkpt lat="42.578705" lon="1.636452">
        <ele>1639.14062</ele>
        <time>2021-07-02T10:55:29Z</time>
      </trkpt>
      <trkpt lat="42.578651" lon="1.636277">
        <ele>1638.12866</ele>
        <time>2021-07-02T10:55:30Z</time>
      </trkpt>
      <trkpt lat="42.578537" lon="1.635959">
        <ele>1639.61707</ele>
        <time>2021-07-02T10:55:31Z</time>
      </trkpt>
      <trkpt lat="42.578537" lon="1.635959">
        <ele>1636.90381</ele>
        <time>2021-07-02T10:55:32Z</time>
      </trkpt>
      <trkpt lat="42.578484" lon="1.635801">
        <ele>1635.88013</ele>
        <time>2021-07-02T10:55:33Z</time>
      </trkpt>
      <trkpt lat="42.578430" lon="1.635633">
        <ele>1635.80176</ele>
        <time>2021-07-02T10:55:34Z</time>
      </trkpt>
      <trkpt lat="42.578392" lon="1.635465">
        <ele>1639.43188</ele>
        <time>2021-07-02T10:55:35Z</time>
      </trkpt>
      <trkpt lat="42.578354" lon="1.635268">
        <ele>1638.79407</ele>
        <time>2021-07-02T10:55:36Z</time>
      </trkpt>
      <trkpt lat="42.578323" lon="1.635077">
        <ele>1639.64160</ele>
        <time>2021-07-02T10:55:37Z</time>
      </trkpt>
      <trkpt lat="42.578300" lon="1.634906">
        <ele>1639.93921</ele>
        <time>2021-07-02T10:55:38Z</time>
      </trkpt>
      <trkpt lat="42.578278" lon="1.634762">
        <ele>1639.44031</ele>
        <time>2021-07-02T10:55:39Z</time>
      </trkpt>
      <trkpt lat="42.578259" lon="1.634624">
        <ele>1639.41357</ele>
        <time>2021-07-02T10:55:40Z</time>
      </trkpt>
      <trkpt lat="42.578239" lon="1.634484">
        <ele>1639.60303</ele>
        <time>2021-07-02T10:55:41Z</time>
      </trkpt>
      <trkpt lat="42.578220" lon="1.634333">
        <ele>1638.79834</ele>
        <time>2021-07-02T10:55:42Z</time>
      </trkpt>
      <trkpt lat="42.578217" lon="1.634290">
        <ele>1638.79663</ele>
        <time>2021-07-02T10:55:43Z</time>
      </trkpt>
      <trkpt lat="42.578213" lon="1.634290">
        <ele>1638.58423</ele>
        <time>2021-07-02T10:55:44Z</time>
      </trkpt>
      <trkpt lat="42.578213" lon="1.634290">
        <ele>1638.82617</ele>
        <time>2021-07-02T10:55:45Z</time>
      </trkpt>
      <trkpt lat="42.578213" lon="1.634290">
        <ele>1638.64380</ele>
        <time>2021-07-02T10:55:46Z</time>
      </trkpt>
      <trkpt lat="42.578239" lon="1.634265">
        <ele>1638.57764</ele>
        <time>2021-07-02T10:55:47Z</time>
      </trkpt>
      <trkpt lat="42.578209" lon="1.633505">
        <ele>1638.60303</ele>
        <time>2021-07-02T10:55:48Z</time>
      </trkpt>
      <trkpt lat="42.578213" lon="1.633302">
        <ele>1638.92114</ele>
        <time>2021-07-02T10:55:49Z</time>
      </trkpt>
      <trkpt lat="42.578217" lon="1.633102">
        <ele>1638.57800</ele>
        <time>2021-07-02T10:55:50Z</time>
      </trkpt>
      <trkpt lat="42.578232" lon="1.632926">
        <ele>1638.80701</ele>
        <time>2021-07-02T10:55:51Z</time>
      </trkpt>
      <trkpt lat="42.578247" lon="1.632727">
        <ele>1639.18481</ele>
        <time>2021-07-02T10:55:52Z</time>
      </trkpt>
      <trkpt lat="42.578262" lon="1.632519">
        <ele>1639.13757</ele>
        <time>2021-07-02T10:55:53Z</time>
      </trkpt>
      <trkpt lat="42.578297" lon="1.632327">
        <ele>1639.85901</ele>
        <time>2021-07-02T10:55:54Z</time>
      </trkpt>
      <trkpt lat="42.578331" lon="1.632111">
        <ele>1639.08496</ele>
        <time>2021-07-02T10:55:55Z</time>
      </trkpt>
      <trkpt lat="42.578369" lon="1.631893">
        <ele>1639.02002</ele>
        <time>2021-07-02T10:55:56Z</time>
      </trkpt>
      <trkpt lat="42.578403" lon="1.631693">
        <ele>1638.10791</ele>
        <time>2021-07-02T10:55:57Z</time>
      </trkpt>
      <trkpt lat="42.578449" lon="1.631482">
        <ele>1637.51648</ele>
        <time>2021-07-02T10:55:58Z</time>
      </trkpt>
      <trkpt lat="42.578491" lon="1.631270">
        <ele>1636.89404</ele>
        <time>2021-07-02T10:55:59Z</time>
      </trkpt>
      <trkpt lat="42.578491" lon="1.631270">
        <ele>1636.35315</ele>
        <time>2021-07-02T10:56:00Z</time>
      </trkpt>
      <trkpt lat="42.578518" lon="1.631064">
        <ele>1634.83179</ele>
        <time>2021-07-02T10:56:01Z</time>
      </trkpt>
      <trkpt lat="42.578541" lon="1.630867">
        <ele>1632.43982</ele>
        <time>2021-07-02T10:56:02Z</time>
      </trkpt>
      <trkpt lat="42.578552" lon="1.630667">
        <ele>1628.28369</ele>
        <time>2021-07-02T10:56:03Z</time>
      </trkpt>
      <trkpt lat="42.578533" lon="1.630487">
        <ele>1626.84082</ele>
        <time>2021-07-02T10:56:04Z</time>
      </trkpt>
      <trkpt lat="42.578506" lon="1.630317">
        <ele>1625.18945</ele>
        <time>2021-07-02T10:56:05Z</time>
      </trkpt>
      <trkpt lat="42.578465" lon="1.630151">
        <ele>1623.91260</ele>
        <time>2021-07-02T10:56:06Z</time>
      </trkpt>
      <trkpt lat="42.578392" lon="1.629991">
        <ele>1622.30713</ele>
        <time>2021-07-02T10:56:07Z</time>
      </trkpt>
      <trkpt lat="42.578304" lon="1.629831">
        <ele>1621.16162</ele>
        <time>2021-07-02T10:56:08Z</time>
      </trkpt>
      <trkpt lat="42.578224" lon="1.629683">
        <ele>1626.14551</ele>
        <time>2021-07-02T10:56:09Z</time>
      </trkpt>
      <trkpt lat="42.578144" lon="1.629544">
        <ele>1625.10205</ele>
        <time>2021-07-02T10:56:10Z</time>
      </trkpt>
      <trkpt lat="42.578068" lon="1.629407">
        <ele>1624.50854</ele>
        <time>2021-07-02T10:56:11Z</time>
      </trkpt>
      <trkpt lat="42.577995" lon="1.629271">
        <ele>1623.18774</ele>
        <time>2021-07-02T10:56:12Z</time>
      </trkpt>
      <trkpt lat="42.577984" lon="1.629247">
        <ele>1622.65417</ele>
        <time>2021-07-02T10:56:13Z</time>
      </trkpt>
      <trkpt lat="42.577984" lon="1.629246">
        <ele>1622.45923</ele>
        <time>2021-07-02T10:56:14Z</time>
      </trkpt>
      <trkpt lat="42.577976" lon="1.629231">
        <ele>1621.21082</ele>
        <time>2021-07-02T10:56:15Z</time>
      </trkpt>
      <trkpt lat="42.577778" lon="1.628789">
        <ele>1617.49902</ele>
        <time>2021-07-02T10:56:16Z</time>
      </trkpt>
      <trkpt lat="42.577709" lon="1.628637">
        <ele>1616.44482</ele>
        <time>2021-07-02T10:56:17Z</time>
      </trkpt>
      <trkpt lat="42.577679" lon="1.628499">
        <ele>1619.12036</ele>
        <time>2021-07-02T10:56:18Z</time>
      </trkpt>
      <trkpt lat="42.577663" lon="1.628328">
        <ele>1618.49243</ele>
        <time>2021-07-02T10:56:19Z</time>
      </trkpt>
      <trkpt lat="42.577663" lon="1.628179">
        <ele>1614.45947</ele>
        <time>2021-07-02T10:56:20Z</time>
      </trkpt>
      <trkpt lat="42.577675" lon="1.628020">
        <ele>1613.80762</ele>
        <time>2021-07-02T10:56:21Z</time>
      </trkpt>
      <trkpt lat="42.577690" lon="1.627892">
        <ele>1613.09814</ele>
        <time>2021-07-02T10:56:22Z</time>
      </trkpt>
      <trkpt lat="42.577724" lon="1.627743">
        <ele>1616.13086</ele>
        <time>2021-07-02T10:56:23Z</time>
      </trkpt>
      <trkpt lat="42.577755" lon="1.627599">
        <ele>1615.73828</ele>
        <time>2021-07-02T10:56:24Z</time>
      </trkpt>
      <trkpt lat="42.577793" lon="1.627449">
        <ele>1614.75220</ele>
        <time>2021-07-02T10:56:25Z</time>
      </trkpt>
      <trkpt lat="42.577827" lon="1.627294">
        <ele>1613.87146</ele>
        <time>2021-07-02T10:56:26Z</time>
      </trkpt>
      <trkpt lat="42.577843" lon="1.627108">
        <ele>1612.87708</ele>
        <time>2021-07-02T10:56:27Z</time>
      </trkpt>
      <trkpt lat="42.577843" lon="1.626940">
        <ele>1612.15039</ele>
        <time>2021-07-02T10:56:28Z</time>
      </trkpt>
      <trkpt lat="42.577831" lon="1.626772">
        <ele>1610.46802</ele>
        <time>2021-07-02T10:56:29Z</time>
      </trkpt>
      <trkpt lat="42.577808" lon="1.626597">
        <ele>1610.23511</ele>
        <time>2021-07-02T10:56:30Z</time>
      </trkpt>
      <trkpt lat="42.577766" lon="1.626438">
        <ele>1609.45056</ele>
        <time>2021-07-02T10:56:31Z</time>
      </trkpt>
      <trkpt lat="42.577694" lon="1.626273">
        <ele>1608.29480</ele>
        <time>2021-07-02T10:56:32Z</time>
      </trkpt>
      <trkpt lat="42.577610" lon="1.626128">
        <ele>1607.84656</ele>
        <time>2021-07-02T10:56:33Z</time>
      </trkpt>
      <trkpt lat="42.577522" lon="1.625996">
        <ele>1607.22314</ele>
        <time>2021-07-02T10:56:34Z</time>
      </trkpt>
      <trkpt lat="42.577522" lon="1.625996">
        <ele>1605.55200</ele>
        <time>2021-07-02T10:56:35Z</time>
      </trkpt>
      <trkpt lat="42.577419" lon="1.625901">
        <ele>1605.23132</ele>
        <time>2021-07-02T10:56:36Z</time>
      </trkpt>
      <trkpt lat="42.577290" lon="1.625808">
        <ele>1604.91724</ele>
        <time>2021-07-02T10:56:37Z</time>
      </trkpt>
      <trkpt lat="42.577137" lon="1.625721">
        <ele>1604.91638</ele>
        <time>2021-07-02T10:56:38Z</time>
      </trkpt>
      <trkpt lat="42.576988" lon="1.625633">
        <ele>1603.48364</ele>
        <time>2021-07-02T10:56:39Z</time>
      </trkpt>
      <trkpt lat="42.576859" lon="1.625538">
        <ele>1602.81799</ele>
        <time>2021-07-02T10:56:40Z</time>
      </trkpt>
      <trkpt lat="42.576767" lon="1.625432">
        <ele>1601.92773</ele>
        <time>2021-07-02T10:56:41Z</time>
      </trkpt>
      <trkpt lat="42.576664" lon="1.625305">
        <ele>1601.17505</ele>
        <time>2021-07-02T10:56:42Z</time>
      </trkpt>
      <trkpt lat="42.576565" lon="1.625158">
        <ele>1600.99438</ele>
        <time>2021-07-02T10:56:43Z</time>
      </trkpt>
      <trkpt lat="42.576485" lon="1.624994">
        <ele>1599.36841</ele>
        <time>2021-07-02T10:56:44Z</time>
      </trkpt>
      <trkpt lat="42.576405" lon="1.624838">
        <ele>1596.28174</ele>
        <time>2021-07-02T10:56:45Z</time>
      </trkpt>
      <trkpt lat="42.576328" lon="1.624665">
        <ele>1595.11865</ele>
        <time>2021-07-02T10:56:46Z</time>
      </trkpt>
      <trkpt lat="42.576256" lon="1.624490">
        <ele>1593.94287</ele>
        <time>2021-07-02T10:56:47Z</time>
      </trkpt>
      <trkpt lat="42.576176" lon="1.624285">
        <ele>1593.43604</ele>
        <time>2021-07-02T10:56:48Z</time>
      </trkpt>
      <trkpt lat="42.576130" lon="1.624096">
        <ele>1591.98071</ele>
        <time>2021-07-02T10:56:49Z</time>
      </trkpt>
      <trkpt lat="42.576088" lon="1.623894">
        <ele>1591.41211</ele>
        <time>2021-07-02T10:56:50Z</time>
      </trkpt>
      <trkpt lat="42.576042" lon="1.623680">
        <ele>1590.41797</ele>
        <time>2021-07-02T10:56:51Z</time>
      </trkpt>
      <trkpt lat="42.575993" lon="1.623453">
        <ele>1588.90039</ele>
        <time>2021-07-02T10:56:52Z</time>
      </trkpt>
      <trkpt lat="42.575939" lon="1.623242">
        <ele>1587.55469</ele>
        <time>2021-07-02T10:56:53Z</time>
      </trkpt>
      <trkpt lat="42.575886" lon="1.623039">
        <ele>1592.18030</ele>
        <time>2021-07-02T10:56:54Z</time>
      </trkpt>
      <trkpt lat="42.575832" lon="1.622838">
        <ele>1589.66174</ele>
        <time>2021-07-02T10:56:55Z</time>
      </trkpt>
      <trkpt lat="42.575779" lon="1.622662">
        <ele>1589.72327</ele>
        <time>2021-07-02T10:56:56Z</time>
      </trkpt>
      <trkpt lat="42.575706" lon="1.622506">
        <ele>1589.41858</ele>
        <time>2021-07-02T10:56:57Z</time>
      </trkpt>
      <trkpt lat="42.575600" lon="1.622390">
        <ele>1589.49585</ele>
        <time>2021-07-02T10:56:58Z</time>
      </trkpt>
      <trkpt lat="42.575493" lon="1.622272">
        <ele>1589.79333</ele>
        <time>2021-07-02T10:56:59Z</time>
      </trkpt>
      <trkpt lat="42.575371" lon="1.622139">
        <ele>1589.85571</ele>
        <time>2021-07-02T10:57:00Z</time>
      </trkpt>
      <trkpt lat="42.575233" lon="1.622011">
        <ele>1590.16309</ele>
        <time>2021-07-02T10:57:01Z</time>
      </trkpt>
      <trkpt lat="42.575123" lon="1.621902">
        <ele>1589.58130</ele>
        <time>2021-07-02T10:57:02Z</time>
      </trkpt>
      <trkpt lat="42.574993" lon="1.621779">
        <ele>1589.02954</ele>
        <time>2021-07-02T10:57:03Z</time>
      </trkpt>
      <trkpt lat="42.574898" lon="1.621666">
        <ele>1588.36328</ele>
        <time>2021-07-02T10:57:04Z</time>
      </trkpt>
      <trkpt lat="42.574814" lon="1.621549">
        <ele>1587.63977</ele>
        <time>2021-07-02T10:57:05Z</time>
      </trkpt>
      <trkpt lat="42.574749" lon="1.621435">
        <ele>1587.27466</ele>
        <time>2021-07-02T10:57:06Z</time>
      </trkpt>
      <trkpt lat="42.574749" lon="1.621435">
        <ele>1587.16455</ele>
        <time>2021-07-02T10:57:07Z</time>
      </trkpt>
      <trkpt lat="42.574684" lon="1.621303">
        <ele>1587.13489</ele>
        <time>2021-07-02T10:57:08Z</time>
      </trkpt>
      <trkpt lat="42.574623" lon="1.621166">
        <ele>1585.95959</ele>
        <time>2021-07-02T10:57:09Z</time>
      </trkpt>
      <trkpt lat="42.574566" lon="1.621036">
        <ele>1585.60974</ele>
        <time>2021-07-02T10:57:10Z</time>
      </trkpt>
      <trkpt lat="42.574512" lon="1.620909">
        <ele>1584.83472</ele>
        <time>2021-07-02T10:57:11Z</time>
      </trkpt>
      <trkpt lat="42.574455" lon="1.620762">
        <ele>1584.45691</ele>
        <time>2021-07-02T10:57:12Z</time>
      </trkpt>
      <trkpt lat="42.574413" lon="1.620599">
        <ele>1583.03784</ele>
        <time>2021-07-02T10:57:13Z</time>
      </trkpt>
      <trkpt lat="42.574375" lon="1.620416">
        <ele>1582.45654</ele>
        <time>2021-07-02T10:57:14Z</time>
      </trkpt>
      <trkpt lat="42.574345" lon="1.620236">
        <ele>1581.14014</ele>
        <time>2021-07-02T10:57:15Z</time>
      </trkpt>
      <trkpt lat="42.574318" lon="1.620104">
        <ele>1580.55640</ele>
        <time>2021-07-02T10:57:16Z</time>
      </trkpt>
      <trkpt lat="42.574318" lon="1.620103">
        <ele>1579.85352</ele>
        <time>2021-07-02T10:57:17Z</time>
      </trkpt>
      <trkpt lat="42.574314" lon="1.620094">
        <ele>1579.48999</ele>
        <time>2021-07-02T10:57:18Z</time>
      </trkpt>
      <trkpt lat="42.574226" lon="1.619511">
        <ele>1577.46814</ele>
        <time>2021-07-02T10:57:19Z</time>
      </trkpt>
      <trkpt lat="42.574169" lon="1.619277">
        <ele>1576.83899</ele>
        <time>2021-07-02T10:57:20Z</time>
      </trkpt>
      <trkpt lat="42.574116" lon="1.619117">
        <ele>1576.03296</ele>
        <time>2021-07-02T10:57:21Z</time>
      </trkpt>
      <trkpt lat="42.574059" lon="1.618951">
        <ele>1575.08899</ele>
        <time>2021-07-02T10:57:22Z</time>
      </trkpt>
      <trkpt lat="42.574001" lon="1.618791">
        <ele>1574.62573</ele>
        <time>2021-07-02T10:57:23Z</time>
      </trkpt>
      <trkpt lat="42.573944" lon="1.618633">
        <ele>1574.19385</ele>
        <time>2021-07-02T10:57:24Z</time>
      </trkpt>
      <trkpt lat="42.573837" lon="1.618499">
        <ele>1573.59875</ele>
        <time>2021-07-02T10:57:25Z</time>
      </trkpt>
      <trkpt lat="42.573715" lon="1.618344">
        <ele>1573.00635</ele>
        <time>2021-07-02T10:57:26Z</time>
      </trkpt>
      <trkpt lat="42.573612" lon="1.618208">
        <ele>1572.43188</ele>
        <time>2021-07-02T10:57:27Z</time>
      </trkpt>
      <trkpt lat="42.573517" lon="1.618059">
        <ele>1571.97253</ele>
        <time>2021-07-02T10:57:28Z</time>
      </trkpt>
      <trkpt lat="42.573456" lon="1.617912">
        <ele>1570.35730</ele>
        <time>2021-07-02T10:57:29Z</time>
      </trkpt>
      <trkpt lat="42.573387" lon="1.617756">
        <ele>1569.99048</ele>
        <time>2021-07-02T10:57:30Z</time>
      </trkpt>
      <trkpt lat="42.573296" lon="1.617598">
        <ele>1569.84619</ele>
        <time>2021-07-02T10:57:31Z</time>
      </trkpt>
      <trkpt lat="42.573223" lon="1.617477">
        <ele>1568.84656</ele>
        <time>2021-07-02T10:57:32Z</time>
      </trkpt>
      <trkpt lat="42.573170" lon="1.617352">
        <ele>1568.67896</ele>
        <time>2021-07-02T10:57:33Z</time>
      </trkpt>
      <trkpt lat="42.573132" lon="1.617208">
        <ele>1568.03662</ele>
        <time>2021-07-02T10:57:34Z</time>
      </trkpt>
      <trkpt lat="42.573093" lon="1.617068">
        <ele>1567.61743</ele>
        <time>2021-07-02T10:57:35Z</time>
      </trkpt>
      <trkpt lat="42.573093" lon="1.617068">
        <ele>1567.33154</ele>
        <time>2021-07-02T10:57:36Z</time>
      </trkpt>
      <trkpt lat="42.573067" lon="1.616966">
        <ele>1566.93213</ele>
        <time>2021-07-02T10:57:37Z</time>
      </trkpt>
      <trkpt lat="42.573036" lon="1.616863">
        <ele>1567.14490</ele>
        <time>2021-07-02T10:57:38Z</time>
      </trkpt>
      <trkpt lat="42.573013" lon="1.616764">
        <ele>1567.21899</ele>
        <time>2021-07-02T10:57:39Z</time>
      </trkpt>
      <trkpt lat="42.572987" lon="1.616671">
        <ele>1567.25928</ele>
        <time>2021-07-02T10:57:40Z</time>
      </trkpt>
      <trkpt lat="42.572964" lon="1.616581">
        <ele>1567.30554</ele>
        <time>2021-07-02T10:57:41Z</time>
      </trkpt>
      <trkpt lat="42.572941" lon="1.616490">
        <ele>1567.26221</ele>
        <time>2021-07-02T10:57:42Z</time>
      </trkpt>
      <trkpt lat="42.572906" lon="1.616373">
        <ele>1567.02246</ele>
        <time>2021-07-02T10:57:43Z</time>
      </trkpt>
      <trkpt lat="42.572876" lon="1.616251">
        <ele>1567.72925</ele>
        <time>2021-07-02T10:57:44Z</time>
      </trkpt>
      <trkpt lat="42.572834" lon="1.616097">
        <ele>1568.25256</ele>
        <time>2021-07-02T10:57:45Z</time>
      </trkpt>
      <trkpt lat="42.572788" lon="1.615929">
        <ele>1568.25330</ele>
        <time>2021-07-02T10:57:46Z</time>
      </trkpt>
      <trkpt lat="42.572754" lon="1.615789">
        <ele>1568.23169</ele>
        <time>2021-07-02T10:57:47Z</time>
      </trkpt>
      <trkpt lat="42.572716" lon="1.615652">
        <ele>1568.27979</ele>
        <time>2021-07-02T10:57:48Z</time>
      </trkpt>
      <trkpt lat="42.572681" lon="1.615498">
        <ele>1568.03149</ele>
        <time>2021-07-02T10:57:49Z</time>
      </trkpt>
      <trkpt lat="42.572662" lon="1.615356">
        <ele>1568.04321</ele>
        <time>2021-07-02T10:57:50Z</time>
      </trkpt>
      <trkpt lat="42.572632" lon="1.615219">
        <ele>1567.89355</ele>
        <time>2021-07-02T10:57:51Z</time>
      </trkpt>
      <trkpt lat="42.572582" lon="1.615057">
        <ele>1567.97388</ele>
        <time>2021-07-02T10:57:52Z</time>
      </trkpt>
      <trkpt lat="42.572536" lon="1.614903">
        <ele>1568.06360</ele>
        <time>2021-07-02T10:57:53Z</time>
      </trkpt>
      <trkpt lat="42.572491" lon="1.614754">
        <ele>1567.68005</ele>
        <time>2021-07-02T10:57:54Z</time>
      </trkpt>
      <trkpt lat="42.572449" lon="1.614603">
        <ele>1568.29675</ele>
        <time>2021-07-02T10:57:55Z</time>
      </trkpt>
      <trkpt lat="42.572407" lon="1.614447">
        <ele>1567.66431</ele>
        <time>2021-07-02T10:57:56Z</time>
      </trkpt>
      <trkpt lat="42.572357" lon="1.614279">
        <ele>1567.29993</ele>
        <time>2021-07-02T10:57:57Z</time>
      </trkpt>
      <trkpt lat="42.572311" lon="1.614107">
        <ele>1567.73987</ele>
        <time>2021-07-02T10:57:58Z</time>
      </trkpt>
      <trkpt lat="42.572262" lon="1.613931">
        <ele>1568.30115</ele>
        <time>2021-07-02T10:57:59Z</time>
      </trkpt>
      <trkpt lat="42.572220" lon="1.613776">
        <ele>1567.97791</ele>
        <time>2021-07-02T10:58:00Z</time>
      </trkpt>
      <trkpt lat="42.572182" lon="1.613641">
        <ele>1567.45312</ele>
        <time>2021-07-02T10:58:01Z</time>
      </trkpt>
      <trkpt lat="42.572147" lon="1.613495">
        <ele>1567.73889</ele>
        <time>2021-07-02T10:58:02Z</time>
      </trkpt>
      <trkpt lat="42.572124" lon="1.613340">
        <ele>1568.14758</ele>
        <time>2021-07-02T10:58:03Z</time>
      </trkpt>
      <trkpt lat="42.572117" lon="1.613147">
        <ele>1568.24731</ele>
        <time>2021-07-02T10:58:04Z</time>
      </trkpt>
      <trkpt lat="42.572109" lon="1.612964">
        <ele>1568.11633</ele>
        <time>2021-07-02T10:58:05Z</time>
      </trkpt>
      <trkpt lat="42.572109" lon="1.612784">
        <ele>1567.61804</ele>
        <time>2021-07-02T10:58:06Z</time>
      </trkpt>
      <trkpt lat="42.572109" lon="1.612583">
        <ele>1567.00500</ele>
        <time>2021-07-02T10:58:07Z</time>
      </trkpt>
      <trkpt lat="42.572109" lon="1.612404">
        <ele>1567.07153</ele>
        <time>2021-07-02T10:58:08Z</time>
      </trkpt>
      <trkpt lat="42.572102" lon="1.612210">
        <ele>1566.77820</ele>
        <time>2021-07-02T10:58:09Z</time>
      </trkpt>
      <trkpt lat="42.572063" lon="1.612001">
        <ele>1566.87122</ele>
        <time>2021-07-02T10:58:10Z</time>
      </trkpt>
      <trkpt lat="42.572063" lon="1.612001">
        <ele>1566.63855</ele>
        <time>2021-07-02T10:58:11Z</time>
      </trkpt>
      <trkpt lat="42.572002" lon="1.611807">
        <ele>1567.21423</ele>
        <time>2021-07-02T10:58:12Z</time>
      </trkpt>
      <trkpt lat="42.571934" lon="1.611649">
        <ele>1567.37366</ele>
        <time>2021-07-02T10:58:13Z</time>
      </trkpt>
      <trkpt lat="42.571850" lon="1.611504">
        <ele>1567.29761</ele>
        <time>2021-07-02T10:58:14Z</time>
      </trkpt>
      <trkpt lat="42.571754" lon="1.611360">
        <ele>1566.66724</ele>
        <time>2021-07-02T10:58:15Z</time>
      </trkpt>
      <trkpt lat="42.571663" lon="1.611207">
        <ele>1566.56848</ele>
        <time>2021-07-02T10:58:16Z</time>
      </trkpt>
      <trkpt lat="42.571587" lon="1.611036">
        <ele>1566.07556</ele>
        <time>2021-07-02T10:58:17Z</time>
      </trkpt>
      <trkpt lat="42.571537" lon="1.610838">
        <ele>1565.85864</ele>
        <time>2021-07-02T10:58:18Z</time>
      </trkpt>
      <trkpt lat="42.571510" lon="1.610659">
        <ele>1563.51660</ele>
        <time>2021-07-02T10:58:19Z</time>
      </trkpt>
      <trkpt lat="42.571514" lon="1.610484">
        <ele>1563.24023</ele>
        <time>2021-07-02T10:58:20Z</time>
      </trkpt>
      <trkpt lat="42.571526" lon="1.610295">
        <ele>1563.27783</ele>
        <time>2021-07-02T10:58:21Z</time>
      </trkpt>
      <trkpt lat="42.571541" lon="1.610104">
        <ele>1563.03699</ele>
        <time>2021-07-02T10:58:22Z</time>
      </trkpt>
      <trkpt lat="42.571564" lon="1.609905">
        <ele>1562.57776</ele>
        <time>2021-07-02T10:58:23Z</time>
      </trkpt>
      <trkpt lat="42.571583" lon="1.609715">
        <ele>1561.79407</ele>
        <time>2021-07-02T10:58:24Z</time>
      </trkpt>
      <trkpt lat="42.571613" lon="1.609525">
        <ele>1560.82849</ele>
        <time>2021-07-02T10:58:25Z</time>
      </trkpt>
      <trkpt lat="42.571629" lon="1.609331">
        <ele>1560.46875</ele>
        <time>2021-07-02T10:58:26Z</time>
      </trkpt>
      <trkpt lat="42.571621" lon="1.609128">
        <ele>1559.73450</ele>
        <time>2021-07-02T10:58:27Z</time>
      </trkpt>
      <trkpt lat="42.571583" lon="1.608955">
        <ele>1559.57642</ele>
        <time>2021-07-02T10:58:28Z</time>
      </trkpt>
      <trkpt lat="42.571526" lon="1.608777">
        <ele>1559.58813</ele>
        <time>2021-07-02T10:58:29Z</time>
      </trkpt>
      <trkpt lat="42.571449" lon="1.608588">
        <ele>1559.26331</ele>
        <time>2021-07-02T10:58:30Z</time>
      </trkpt>
      <trkpt lat="42.571373" lon="1.608426">
        <ele>1558.94751</ele>
        <time>2021-07-02T10:58:31Z</time>
      </trkpt>
      <trkpt lat="42.571285" lon="1.608255">
        <ele>1558.10364</ele>
        <time>2021-07-02T10:58:32Z</time>
      </trkpt>
      <trkpt lat="42.571201" lon="1.608077">
        <ele>1557.46240</ele>
        <time>2021-07-02T10:58:33Z</time>
      </trkpt>
      <trkpt lat="42.571129" lon="1.607889">
        <ele>1557.36609</ele>
        <time>2021-07-02T10:58:34Z</time>
      </trkpt>
      <trkpt lat="42.571075" lon="1.607712">
        <ele>1556.34668</ele>
        <time>2021-07-02T10:58:35Z</time>
      </trkpt>
      <trkpt lat="42.571033" lon="1.607556">
        <ele>1556.22571</ele>
        <time>2021-07-02T10:58:36Z</time>
      </trkpt>
      <trkpt lat="42.570999" lon="1.607386">
        <ele>1554.66003</ele>
        <time>2021-07-02T10:58:37Z</time>
      </trkpt>
      <trkpt lat="42.570969" lon="1.607225">
        <ele>1554.41992</ele>
        <time>2021-07-02T10:58:38Z</time>
      </trkpt>
      <trkpt lat="42.570934" lon="1.607055">
        <ele>1553.40356</ele>
        <time>2021-07-02T10:58:39Z</time>
      </trkpt>
      <trkpt lat="42.570908" lon="1.606894">
        <ele>1553.17993</ele>
        <time>2021-07-02T10:58:40Z</time>
      </trkpt>
      <trkpt lat="42.570877" lon="1.606730">
        <ele>1552.62708</ele>
        <time>2021-07-02T10:58:41Z</time>
      </trkpt>
      <trkpt lat="42.570847" lon="1.606555">
        <ele>1551.74585</ele>
        <time>2021-07-02T10:58:42Z</time>
      </trkpt>
      <trkpt lat="42.570847" lon="1.606555">
        <ele>1551.26880</ele>
        <time>2021-07-02T10:58:43Z</time>
      </trkpt>
      <trkpt lat="42.570820" lon="1.606387">
        <ele>1550.98474</ele>
        <time>2021-07-02T10:58:44Z</time>
      </trkpt>
      <trkpt lat="42.570797" lon="1.606212">
        <ele>1549.60461</ele>
        <time>2021-07-02T10:58:45Z</time>
      </trkpt>
      <trkpt lat="42.570770" lon="1.606042">
        <ele>1549.17212</ele>
        <time>2021-07-02T10:58:46Z</time>
      </trkpt>
      <trkpt lat="42.570736" lon="1.605866">
        <ele>1548.14368</ele>
        <time>2021-07-02T10:58:47Z</time>
      </trkpt>
      <trkpt lat="42.570683" lon="1.605695">
        <ele>1547.85022</ele>
        <time>2021-07-02T10:58:48Z</time>
      </trkpt>
      <trkpt lat="42.570621" lon="1.605540">
        <ele>1547.00830</ele>
        <time>2021-07-02T10:58:49Z</time>
      </trkpt>
      <trkpt lat="42.570560" lon="1.605406">
        <ele>1546.35828</ele>
        <time>2021-07-02T10:58:50Z</time>
      </trkpt>
      <trkpt lat="42.570499" lon="1.605269">
        <ele>1545.89685</ele>
        <time>2021-07-02T10:58:51Z</time>
      </trkpt>
      <trkpt lat="42.570419" lon="1.605140">
        <ele>1545.08887</ele>
        <time>2021-07-02T10:58:52Z</time>
      </trkpt>
      <trkpt lat="42.570320" lon="1.605034">
        <ele>1544.44543</ele>
        <time>2021-07-02T10:58:53Z</time>
      </trkpt>
      <trkpt lat="42.570206" lon="1.604957">
        <ele>1543.87097</ele>
        <time>2021-07-02T10:58:54Z</time>
      </trkpt>
      <trkpt lat="42.570087" lon="1.604892">
        <ele>1543.03918</ele>
        <time>2021-07-02T10:58:55Z</time>
      </trkpt>
      <trkpt lat="42.569969" lon="1.604856">
        <ele>1542.50061</ele>
        <time>2021-07-02T10:58:56Z</time>
      </trkpt>
      <trkpt lat="42.569862" lon="1.604824">
        <ele>1542.13269</ele>
        <time>2021-07-02T10:58:57Z</time>
      </trkpt>
      <trkpt lat="42.569733" lon="1.604784">
        <ele>1541.98328</ele>
        <time>2021-07-02T10:58:58Z</time>
      </trkpt>
      <trkpt lat="42.569645" lon="1.604758">
        <ele>1541.16980</ele>
        <time>2021-07-02T10:58:59Z</time>
      </trkpt>
      <trkpt lat="42.569527" lon="1.604722">
        <ele>1540.88684</ele>
        <time>2021-07-02T10:59:00Z</time>
      </trkpt>
      <trkpt lat="42.569412" lon="1.604690">
        <ele>1540.78394</ele>
        <time>2021-07-02T10:59:01Z</time>
      </trkpt>
      <trkpt lat="42.569302" lon="1.604659">
        <ele>1540.52966</ele>
        <time>2021-07-02T10:59:02Z</time>
      </trkpt>
      <trkpt lat="42.569206" lon="1.604632">
        <ele>1540.31946</ele>
        <time>2021-07-02T10:59:03Z</time>
      </trkpt>
      <trkpt lat="42.569103" lon="1.604595">
        <ele>1540.47180</ele>
        <time>2021-07-02T10:59:04Z</time>
      </trkpt>
      <trkpt lat="42.568996" lon="1.604553">
        <ele>1540.42395</ele>
        <time>2021-07-02T10:59:05Z</time>
      </trkpt>
      <trkpt lat="42.568890" lon="1.604511">
        <ele>1540.57190</ele>
        <time>2021-07-02T10:59:06Z</time>
      </trkpt>
      <trkpt lat="42.568794" lon="1.604448">
        <ele>1540.35266</ele>
        <time>2021-07-02T10:59:07Z</time>
      </trkpt>
      <trkpt lat="42.568714" lon="1.604372">
        <ele>1540.17578</ele>
        <time>2021-07-02T10:59:08Z</time>
      </trkpt>
      <trkpt lat="42.568661" lon="1.604268">
        <ele>1539.77771</ele>
        <time>2021-07-02T10:59:09Z</time>
      </trkpt>
      <trkpt lat="42.568592" lon="1.604042">
        <ele>1539.56104</ele>
        <time>2021-07-02T10:59:10Z</time>
      </trkpt>
      <trkpt lat="42.568554" lon="1.603920">
        <ele>1539.58032</ele>
        <time>2021-07-02T10:59:11Z</time>
      </trkpt>
      <trkpt lat="42.568512" lon="1.603790">
        <ele>1539.08459</ele>
        <time>2021-07-02T10:59:12Z</time>
      </trkpt>
      <trkpt lat="42.568474" lon="1.603664">
        <ele>1538.87012</ele>
        <time>2021-07-02T10:59:13Z</time>
      </trkpt>
      <trkpt lat="42.568432" lon="1.603532">
        <ele>1538.74646</ele>
        <time>2021-07-02T10:59:14Z</time>
      </trkpt>
      <trkpt lat="42.568390" lon="1.603398">
        <ele>1538.63135</ele>
        <time>2021-07-02T10:59:15Z</time>
      </trkpt>
      <trkpt lat="42.568348" lon="1.603260">
        <ele>1538.11133</ele>
        <time>2021-07-02T10:59:16Z</time>
      </trkpt>
      <trkpt lat="42.568310" lon="1.603131">
        <ele>1537.86267</ele>
        <time>2021-07-02T10:59:17Z</time>
      </trkpt>
      <trkpt lat="42.568310" lon="1.603131">
        <ele>1537.81055</ele>
        <time>2021-07-02T10:59:18Z</time>
      </trkpt>
      <trkpt lat="42.568260" lon="1.603000">
        <ele>1537.64893</ele>
        <time>2021-07-02T10:59:19Z</time>
      </trkpt>
      <trkpt lat="42.568211" lon="1.602862">
        <ele>1537.40796</ele>
        <time>2021-07-02T10:59:20Z</time>
      </trkpt>
      <trkpt lat="42.568165" lon="1.602734">
        <ele>1537.56519</ele>
        <time>2021-07-02T10:59:21Z</time>
      </trkpt>
      <trkpt lat="42.568123" lon="1.602618">
        <ele>1537.40918</ele>
        <time>2021-07-02T10:59:22Z</time>
      </trkpt>
      <trkpt lat="42.568054" lon="1.602498">
        <ele>1537.28455</ele>
        <time>2021-07-02T10:59:23Z</time>
      </trkpt>
      <trkpt lat="42.567989" lon="1.602377">
        <ele>1537.31055</ele>
        <time>2021-07-02T10:59:24Z</time>
      </trkpt>
      <trkpt lat="42.567921" lon="1.602252">
        <ele>1537.07361</ele>
        <time>2021-07-02T10:59:25Z</time>
      </trkpt>
      <trkpt lat="42.567856" lon="1.602139">
        <ele>1537.22351</ele>
        <time>2021-07-02T10:59:26Z</time>
      </trkpt>
      <trkpt lat="42.567787" lon="1.602016">
        <ele>1537.03223</ele>
        <time>2021-07-02T10:59:27Z</time>
      </trkpt>
      <trkpt lat="42.567722" lon="1.601897">
        <ele>1536.73608</ele>
        <time>2021-07-02T10:59:28Z</time>
      </trkpt>
      <trkpt lat="42.567665" lon="1.601794">
        <ele>1536.02502</ele>
        <time>2021-07-02T10:59:29Z</time>
      </trkpt>
      <trkpt lat="42.567600" lon="1.601680">
        <ele>1535.60718</ele>
        <time>2021-07-02T10:59:30Z</time>
      </trkpt>
      <trkpt lat="42.567554" lon="1.601603">
        <ele>1535.33252</ele>
        <time>2021-07-02T10:59:31Z</time>
      </trkpt>
      <trkpt lat="42.567516" lon="1.601539">
        <ele>1534.55518</ele>
        <time>2021-07-02T10:59:32Z</time>
      </trkpt>
      <trkpt lat="42.567482" lon="1.601475">
        <ele>1534.28540</ele>
        <time>2021-07-02T10:59:33Z</time>
      </trkpt>
      <trkpt lat="42.567448" lon="1.601419">
        <ele>1534.17847</ele>
        <time>2021-07-02T10:59:34Z</time>
      </trkpt>
      <trkpt lat="42.567429" lon="1.601382">
        <ele>1534.28418</ele>
        <time>2021-07-02T10:59:35Z</time>
      </trkpt>
      <trkpt lat="42.567417" lon="1.601361">
        <ele>1534.27087</ele>
        <time>2021-07-02T10:59:36Z</time>
      </trkpt>
      <trkpt lat="42.567402" lon="1.601339">
        <ele>1533.95312</ele>
        <time>2021-07-02T10:59:37Z</time>
      </trkpt>
      <trkpt lat="42.567383" lon="1.601282">
        <ele>1533.77893</ele>
        <time>2021-07-02T10:59:38Z</time>
      </trkpt>
      <trkpt lat="42.567341" lon="1.601224">
        <ele>1533.88904</ele>
        <time>2021-07-02T10:59:39Z</time>
      </trkpt>
      <trkpt lat="42.567272" lon="1.601211">
        <ele>1533.95996</ele>
        <time>2021-07-02T10:59:40Z</time>
      </trkpt>
      <trkpt lat="42.567261" lon="1.601214">
        <ele>1534.06018</ele>
        <time>2021-07-02T10:59:41Z</time>
      </trkpt>
      <trkpt lat="42.567253" lon="1.601171">
        <ele>1533.75623</ele>
        <time>2021-07-02T10:59:42Z</time>
      </trkpt>
      <trkpt lat="42.567154" lon="1.600922">
        <ele>1533.72156</ele>
        <time>2021-07-02T10:59:43Z</time>
      </trkpt>
      <trkpt lat="42.567123" lon="1.600856">
        <ele>1533.65320</ele>
        <time>2021-07-02T10:59:44Z</time>
      </trkpt>
      <trkpt lat="42.567081" lon="1.600776">
        <ele>1533.52246</ele>
        <time>2021-07-02T10:59:45Z</time>
      </trkpt>
      <trkpt lat="42.567047" lon="1.600702">
        <ele>1533.51428</ele>
        <time>2021-07-02T10:59:46Z</time>
      </trkpt>
      <trkpt lat="42.567017" lon="1.600642">
        <ele>1533.19629</ele>
        <time>2021-07-02T10:59:47Z</time>
      </trkpt>
      <trkpt lat="42.566990" lon="1.600584">
        <ele>1533.12842</ele>
        <time>2021-07-02T10:59:48Z</time>
      </trkpt>
      <trkpt lat="42.566959" lon="1.600525">
        <ele>1533.04089</ele>
        <time>2021-07-02T10:59:49Z</time>
      </trkpt>
      <trkpt lat="42.566933" lon="1.600467">
        <ele>1532.93054</ele>
        <time>2021-07-02T10:59:50Z</time>
      </trkpt>
      <trkpt lat="42.566898" lon="1.600402">
        <ele>1532.82532</ele>
        <time>2021-07-02T10:59:51Z</time>
      </trkpt>
      <trkpt lat="42.566898" lon="1.600402">
        <ele>1532.94470</ele>
        <time>2021-07-02T10:59:52Z</time>
      </trkpt>
      <trkpt lat="42.566860" lon="1.600324">
        <ele>1532.93628</ele>
        <time>2021-07-02T10:59:53Z</time>
      </trkpt>
      <trkpt lat="42.566818" lon="1.600242">
        <ele>1531.93579</ele>
        <time>2021-07-02T10:59:54Z</time>
      </trkpt>
      <trkpt lat="42.566792" lon="1.600194">
        <ele>1531.91504</ele>
        <time>2021-07-02T10:59:55Z</time>
      </trkpt>
      <trkpt lat="42.566761" lon="1.600152">
        <ele>1532.45996</ele>
        <time>2021-07-02T10:59:56Z</time>
      </trkpt>
      <trkpt lat="42.566757" lon="1.600147">
        <ele>1532.63647</ele>
        <time>2021-07-02T10:59:57Z</time>
      </trkpt>
      <trkpt lat="42.566757" lon="1.600147">
        <ele>1534.02991</ele>
        <time>2021-07-02T10:59:58Z</time>
      </trkpt>
      <trkpt lat="42.566757" lon="1.600147">
        <ele>1534.74658</ele>
        <time>2021-07-02T10:59:59Z</time>
      </trkpt>
      <trkpt lat="42.566681" lon="1.599814">
        <ele>1534.89880</ele>
        <time>2021-07-02T11:00:00Z</time>
      </trkpt>
      <trkpt lat="42.566650" lon="1.599733">
        <ele>1535.18616</ele>
        <time>2021-07-02T11:00:01Z</time>
      </trkpt>
      <trkpt lat="42.566608" lon="1.599610">
        <ele>1535.83313</ele>
        <time>2021-07-02T11:00:02Z</time>
      </trkpt>
      <trkpt lat="42.566566" lon="1.599504">
        <ele>1535.96204</ele>
        <time>2021-07-02T11:00:03Z</time>
      </trkpt>
      <trkpt lat="42.566544" lon="1.599439">
        <ele>1536.17212</ele>
        <time>2021-07-02T11:00:04Z</time>
      </trkpt>
      <trkpt lat="42.566540" lon="1.599431">
        <ele>1536.66028</ele>
        <time>2021-07-02T11:00:05Z</time>
      </trkpt>
      <trkpt lat="42.566540" lon="1.599426">
        <ele>1536.42334</ele>
        <time>2021-07-02T11:00:06Z</time>
      </trkpt>
      <trkpt lat="42.566532" lon="1.599413">
        <ele>1536.25513</ele>
        <time>2021-07-02T11:00:07Z</time>
      </trkpt>
      <trkpt lat="42.566437" lon="1.599155">
        <ele>1536.19910</ele>
        <time>2021-07-02T11:00:08Z</time>
      </trkpt>
      <trkpt lat="42.566422" lon="1.599119">
        <ele>1536.22974</ele>
        <time>2021-07-02T11:00:09Z</time>
      </trkpt>
      <trkpt lat="42.566418" lon="1.599106">
        <ele>1536.37549</ele>
        <time>2021-07-02T11:00:10Z</time>
      </trkpt>
      <trkpt lat="42.566406" lon="1.599078">
        <ele>1536.58020</ele>
        <time>2021-07-02T11:00:11Z</time>
      </trkpt>
      <trkpt lat="42.566383" lon="1.599014">
        <ele>1536.78943</ele>
        <time>2021-07-02T11:00:12Z</time>
      </trkpt>
      <trkpt lat="42.566364" lon="1.598970">
        <ele>1536.93872</ele>
        <time>2021-07-02T11:00:13Z</time>
      </trkpt>
      <trkpt lat="42.566315" lon="1.598842">
        <ele>1536.86499</ele>
        <time>2021-07-02T11:00:14Z</time>
      </trkpt>
      <trkpt lat="42.566284" lon="1.598763">
        <ele>1536.28601</ele>
        <time>2021-07-02T11:00:15Z</time>
      </trkpt>
      <trkpt lat="42.566246" lon="1.598661">
        <ele>1536.22986</ele>
        <time>2021-07-02T11:00:16Z</time>
      </trkpt>
      <trkpt lat="42.566208" lon="1.598565">
        <ele>1536.05371</ele>
        <time>2021-07-02T11:00:17Z</time>
      </trkpt>
      <trkpt lat="42.566166" lon="1.598459">
        <ele>1535.64771</ele>
        <time>2021-07-02T11:00:18Z</time>
      </trkpt>
      <trkpt lat="42.566128" lon="1.598352">
        <ele>1535.23718</ele>
        <time>2021-07-02T11:00:19Z</time>
      </trkpt>
      <trkpt lat="42.566086" lon="1.598250">
        <ele>1534.90588</ele>
        <time>2021-07-02T11:00:20Z</time>
      </trkpt>
      <trkpt lat="42.566044" lon="1.598145">
        <ele>1534.48901</ele>
        <time>2021-07-02T11:00:21Z</time>
      </trkpt>
      <trkpt lat="42.566002" lon="1.598033">
        <ele>1533.85999</ele>
        <time>2021-07-02T11:00:22Z</time>
      </trkpt>
      <trkpt lat="42.566002" lon="1.598033">
        <ele>1533.41699</ele>
        <time>2021-07-02T11:00:23Z</time>
      </trkpt>
      <trkpt lat="42.565964" lon="1.597930">
        <ele>1533.04431</ele>
        <time>2021-07-02T11:00:24Z</time>
      </trkpt>
      <trkpt lat="42.565922" lon="1.597824">
        <ele>1532.56543</ele>
        <time>2021-07-02T11:00:25Z</time>
      </trkpt>
      <trkpt lat="42.565880" lon="1.597720">
        <ele>1532.19922</ele>
        <time>2021-07-02T11:00:26Z</time>
      </trkpt>
      <trkpt lat="42.565838" lon="1.597607">
        <ele>1532.05200</ele>
        <time>2021-07-02T11:00:27Z</time>
      </trkpt>
      <trkpt lat="42.565788" lon="1.597492">
        <ele>1531.71985</ele>
        <time>2021-07-02T11:00:28Z</time>
      </trkpt>
      <trkpt lat="42.565765" lon="1.597374">
        <ele>1531.15271</ele>
        <time>2021-07-02T11:00:29Z</time>
      </trkpt>
      <trkpt lat="42.565758" lon="1.597238">
        <ele>1531.00281</ele>
        <time>2021-07-02T11:00:30Z</time>
      </trkpt>
      <trkpt lat="42.565765" lon="1.597113">
        <ele>1530.99756</ele>
        <time>2021-07-02T11:00:31Z</time>
      </trkpt>
      <trkpt lat="42.565784" lon="1.596991">
        <ele>1530.88049</ele>
        <time>2021-07-02T11:00:32Z</time>
      </trkpt>
      <trkpt lat="42.565819" lon="1.596874">
        <ele>1530.73694</ele>
        <time>2021-07-02T11:00:33Z</time>
      </trkpt>
      <trkpt lat="42.565857" lon="1.596771">
        <ele>1530.79602</ele>
        <time>2021-07-02T11:00:34Z</time>
      </trkpt>
      <trkpt lat="42.565899" lon="1.596665">
        <ele>1531.59668</ele>
        <time>2021-07-02T11:00:35Z</time>
      </trkpt>
      <trkpt lat="42.565956" lon="1.596574">
        <ele>1531.57629</ele>
        <time>2021-07-02T11:00:36Z</time>
      </trkpt>
      <trkpt lat="42.565929" lon="1.596486">
        <ele>1531.36646</ele>
        <time>2021-07-02T11:00:37Z</time>
      </trkpt>
      <trkpt lat="42.565868" lon="1.596508">
        <ele>1531.47314</ele>
        <time>2021-07-02T11:00:38Z</time>
      </trkpt>
      <trkpt lat="42.566055" lon="1.596230">
        <ele>1531.92358</ele>
        <time>2021-07-02T11:00:39Z</time>
      </trkpt>
      <trkpt lat="42.566090" lon="1.596124">
        <ele>1531.96326</ele>
        <time>2021-07-02T11:00:40Z</time>
      </trkpt>
      <trkpt lat="42.566120" lon="1.596007">
        <ele>1531.90833</ele>
        <time>2021-07-02T11:00:41Z</time>
      </trkpt>
      <trkpt lat="42.566158" lon="1.595879">
        <ele>1532.11426</ele>
        <time>2021-07-02T11:00:42Z</time>
      </trkpt>
      <trkpt lat="42.566193" lon="1.595750">
        <ele>1532.53662</ele>
        <time>2021-07-02T11:00:43Z</time>
      </trkpt>
      <trkpt lat="42.566223" lon="1.595601">
        <ele>1532.14929</ele>
        <time>2021-07-02T11:00:44Z</time>
      </trkpt>
      <trkpt lat="42.566242" lon="1.595493">
        <ele>1531.64148</ele>
        <time>2021-07-02T11:00:45Z</time>
      </trkpt>
      <trkpt lat="42.566269" lon="1.595366">
        <ele>1531.68970</ele>
        <time>2021-07-02T11:00:46Z</time>
      </trkpt>
      <trkpt lat="42.566292" lon="1.595257">
        <ele>1531.38037</ele>
        <time>2021-07-02T11:00:47Z</time>
      </trkpt>
      <trkpt lat="42.566303" lon="1.595145">
        <ele>1531.36963</ele>
        <time>2021-07-02T11:00:48Z</time>
      </trkpt>
      <trkpt lat="42.566319" lon="1.595035">
        <ele>1530.95801</ele>
        <time>2021-07-02T11:00:49Z</time>
      </trkpt>
      <trkpt lat="42.566334" lon="1.594923">
        <ele>1530.70471</ele>
        <time>2021-07-02T11:00:50Z</time>
      </trkpt>
      <trkpt lat="42.566345" lon="1.594820">
        <ele>1530.37280</ele>
        <time>2021-07-02T11:00:51Z</time>
      </trkpt>
      <trkpt lat="42.566341" lon="1.594718">
        <ele>1530.73413</ele>
        <time>2021-07-02T11:00:52Z</time>
      </trkpt>
      <trkpt lat="42.566315" lon="1.594611">
        <ele>1530.31677</ele>
        <time>2021-07-02T11:00:53Z</time>
      </trkpt>
      <trkpt lat="42.566315" lon="1.594611">
        <ele>1530.22607</ele>
        <time>2021-07-02T11:00:54Z</time>
      </trkpt>
      <trkpt lat="42.566277" lon="1.594518">
        <ele>1530.31238</ele>
        <time>2021-07-02T11:00:55Z</time>
      </trkpt>
      <trkpt lat="42.566238" lon="1.594423">
        <ele>1530.50513</ele>
        <time>2021-07-02T11:00:56Z</time>
      </trkpt>
      <trkpt lat="42.566181" lon="1.594338">
        <ele>1530.65344</ele>
        <time>2021-07-02T11:00:57Z</time>
      </trkpt>
      <trkpt lat="42.566120" lon="1.594248">
        <ele>1530.80627</ele>
        <time>2021-07-02T11:00:58Z</time>
      </trkpt>
      <trkpt lat="42.566055" lon="1.594149">
        <ele>1530.73511</ele>
        <time>2021-07-02T11:00:59Z</time>
      </trkpt>
      <trkpt lat="42.565990" lon="1.594057">
        <ele>1530.90723</ele>
        <time>2021-07-02T11:01:00Z</time>
      </trkpt>
      <trkpt lat="42.565926" lon="1.593966">
        <ele>1530.89001</ele>
        <time>2021-07-02T11:01:01Z</time>
      </trkpt>
      <trkpt lat="42.565853" lon="1.593862">
        <ele>1530.95862</ele>
        <time>2021-07-02T11:01:02Z</time>
      </trkpt>
      <trkpt lat="42.565788" lon="1.593768">
        <ele>1530.91870</ele>
        <time>2021-07-02T11:01:03Z</time>
      </trkpt>
      <trkpt lat="42.565727" lon="1.593669">
        <ele>1531.04504</ele>
        <time>2021-07-02T11:01:04Z</time>
      </trkpt>
      <trkpt lat="42.565666" lon="1.593563">
        <ele>1530.78369</ele>
        <time>2021-07-02T11:01:05Z</time>
      </trkpt>
      <trkpt lat="42.565601" lon="1.593449">
        <ele>1530.72729</ele>
        <time>2021-07-02T11:01:06Z</time>
      </trkpt>
      <trkpt lat="42.565536" lon="1.593347">
        <ele>1530.67566</ele>
        <time>2021-07-02T11:01:07Z</time>
      </trkpt>
      <trkpt lat="42.565456" lon="1.593269">
        <ele>1530.37903</ele>
        <time>2021-07-02T11:01:08Z</time>
      </trkpt>
      <trkpt lat="42.565384" lon="1.593217">
        <ele>1529.84497</ele>
        <time>2021-07-02T11:01:09Z</time>
      </trkpt>
      <trkpt lat="42.565277" lon="1.593176">
        <ele>1529.39783</ele>
        <time>2021-07-02T11:01:10Z</time>
      </trkpt>
      <trkpt lat="42.565189" lon="1.593157">
        <ele>1528.65991</ele>
        <time>2021-07-02T11:01:11Z</time>
      </trkpt>
      <trkpt lat="42.565090" lon="1.593148">
        <ele>1529.15015</ele>
        <time>2021-07-02T11:01:12Z</time>
      </trkpt>
      <trkpt lat="42.564991" lon="1.593138">
        <ele>1528.76294</ele>
        <time>2021-07-02T11:01:13Z</time>
      </trkpt>
      <trkpt lat="42.564903" lon="1.593130">
        <ele>1528.51819</ele>
        <time>2021-07-02T11:01:14Z</time>
      </trkpt>
      <trkpt lat="42.564819" lon="1.593124">
        <ele>1527.90405</ele>
        <time>2021-07-02T11:01:15Z</time>
      </trkpt>
      <trkpt lat="42.564751" lon="1.593104">
        <ele>1527.66895</ele>
        <time>2021-07-02T11:01:16Z</time>
      </trkpt>
      <trkpt lat="42.564690" lon="1.593065">
        <ele>1527.64502</ele>
        <time>2021-07-02T11:01:17Z</time>
      </trkpt>
      <trkpt lat="42.564613" lon="1.592999">
        <ele>1528.33594</ele>
        <time>2021-07-02T11:01:18Z</time>
      </trkpt>
      <trkpt lat="42.564579" lon="1.592991">
        <ele>1527.94885</ele>
        <time>2021-07-02T11:01:19Z</time>
      </trkpt>
      <trkpt lat="42.564541" lon="1.592993">
        <ele>1527.69385</ele>
        <time>2021-07-02T11:01:20Z</time>
      </trkpt>
      <trkpt lat="42.564434" lon="1.593072">
        <ele>1527.65173</ele>
        <time>2021-07-02T11:01:21Z</time>
      </trkpt>
      <trkpt lat="42.564350" lon="1.592777">
        <ele>1526.87292</ele>
        <time>2021-07-02T11:01:22Z</time>
      </trkpt>
      <trkpt lat="42.564297" lon="1.592677">
        <ele>1526.82556</ele>
        <time>2021-07-02T11:01:23Z</time>
      </trkpt>
      <trkpt lat="42.564243" lon="1.592554">
        <ele>1526.48901</ele>
        <time>2021-07-02T11:01:24Z</time>
      </trkpt>
      <trkpt lat="42.564198" lon="1.592445">
        <ele>1526.20862</ele>
        <time>2021-07-02T11:01:25Z</time>
      </trkpt>
      <trkpt lat="42.564152" lon="1.592332">
        <ele>1526.02673</ele>
        <time>2021-07-02T11:01:26Z</time>
      </trkpt>
      <trkpt lat="42.564152" lon="1.592332">
        <ele>1525.77307</ele>
        <time>2021-07-02T11:01:27Z</time>
      </trkpt>
      <trkpt lat="42.564102" lon="1.592194">
        <ele>1525.68481</ele>
        <time>2021-07-02T11:01:28Z</time>
      </trkpt>
      <trkpt lat="42.564072" lon="1.592042">
        <ele>1525.02039</ele>
        <time>2021-07-02T11:01:29Z</time>
      </trkpt>
      <trkpt lat="42.564060" lon="1.591899">
        <ele>1524.83191</ele>
        <time>2021-07-02T11:01:30Z</time>
      </trkpt>
      <trkpt lat="42.564049" lon="1.591768">
        <ele>1524.40857</ele>
        <time>2021-07-02T11:01:31Z</time>
      </trkpt>
      <trkpt lat="42.564034" lon="1.591632">
        <ele>1523.47949</ele>
        <time>2021-07-02T11:01:32Z</time>
      </trkpt>
      <trkpt lat="42.564018" lon="1.591470">
        <ele>1522.89319</ele>
        <time>2021-07-02T11:01:33Z</time>
      </trkpt>
      <trkpt lat="42.564007" lon="1.591309">
        <ele>1522.81885</ele>
        <time>2021-07-02T11:01:34Z</time>
      </trkpt>
      <trkpt lat="42.563976" lon="1.591177">
        <ele>1522.13428</ele>
        <time>2021-07-02T11:01:35Z</time>
      </trkpt>
      <trkpt lat="42.563889" lon="1.591041">
        <ele>1521.65991</ele>
        <time>2021-07-02T11:01:36Z</time>
      </trkpt>
      <trkpt lat="42.563793" lon="1.590941">
        <ele>1521.08313</ele>
        <time>2021-07-02T11:01:37Z</time>
      </trkpt>
      <trkpt lat="42.563629" lon="1.590820">
        <ele>1520.75781</ele>
        <time>2021-07-02T11:01:38Z</time>
      </trkpt>
      <trkpt lat="42.563515" lon="1.590760">
        <ele>1519.65308</ele>
        <time>2021-07-02T11:01:39Z</time>
      </trkpt>
      <trkpt lat="42.563385" lon="1.590691">
        <ele>1519.22156</ele>
        <time>2021-07-02T11:01:40Z</time>
      </trkpt>
      <trkpt lat="42.563267" lon="1.590637">
        <ele>1518.53308</ele>
        <time>2021-07-02T11:01:41Z</time>
      </trkpt>
      <trkpt lat="42.563126" lon="1.590575">
        <ele>1517.15918</ele>
        <time>2021-07-02T11:01:42Z</time>
      </trkpt>
      <trkpt lat="42.563019" lon="1.590525">
        <ele>1516.64526</ele>
        <time>2021-07-02T11:01:43Z</time>
      </trkpt>
      <trkpt lat="42.562901" lon="1.590464">
        <ele>1515.88464</ele>
        <time>2021-07-02T11:01:44Z</time>
      </trkpt>
      <trkpt lat="42.562782" lon="1.590405">
        <ele>1514.40613</ele>
        <time>2021-07-02T11:01:45Z</time>
      </trkpt>
      <trkpt lat="42.562653" lon="1.590359">
        <ele>1513.59216</ele>
        <time>2021-07-02T11:01:46Z</time>
      </trkpt>
      <trkpt lat="42.562531" lon="1.590341">
        <ele>1512.51562</ele>
        <time>2021-07-02T11:01:47Z</time>
      </trkpt>
      <trkpt lat="42.562401" lon="1.590334">
        <ele>1512.09558</ele>
        <time>2021-07-02T11:01:48Z</time>
      </trkpt>
      <trkpt lat="42.562267" lon="1.590328">
        <ele>1515.92188</ele>
        <time>2021-07-02T11:01:49Z</time>
      </trkpt>
      <trkpt lat="42.562119" lon="1.590321">
        <ele>1516.08789</ele>
        <time>2021-07-02T11:01:50Z</time>
      </trkpt>
      <trkpt lat="42.561974" lon="1.590314">
        <ele>1515.57861</ele>
        <time>2021-07-02T11:01:51Z</time>
      </trkpt>
      <trkpt lat="42.561844" lon="1.590312">
        <ele>1506.99146</ele>
        <time>2021-07-02T11:01:52Z</time>
      </trkpt>
      <trkpt lat="42.561707" lon="1.590309">
        <ele>1506.08887</ele>
        <time>2021-07-02T11:01:53Z</time>
      </trkpt>
      <trkpt lat="42.561577" lon="1.590297">
        <ele>1505.58301</ele>
        <time>2021-07-02T11:01:54Z</time>
      </trkpt>
      <trkpt lat="42.561447" lon="1.590279">
        <ele>1504.44141</ele>
        <time>2021-07-02T11:01:55Z</time>
      </trkpt>
      <trkpt lat="42.561325" lon="1.590268">
        <ele>1504.58008</ele>
        <time>2021-07-02T11:01:56Z</time>
      </trkpt>
      <trkpt lat="42.561184" lon="1.590251">
        <ele>1503.00977</ele>
        <time>2021-07-02T11:01:57Z</time>
      </trkpt>
      <trkpt lat="42.561184" lon="1.590251">
        <ele>1501.84131</ele>
        <time>2021-07-02T11:01:58Z</time>
      </trkpt>
      <trkpt lat="42.561050" lon="1.590223">
        <ele>1499.80347</ele>
        <time>2021-07-02T11:01:59Z</time>
      </trkpt>
      <trkpt lat="42.560925" lon="1.590191">
        <ele>1498.84058</ele>
        <time>2021-07-02T11:02:00Z</time>
      </trkpt>
      <trkpt lat="42.560791" lon="1.590142">
        <ele>1497.00220</ele>
        <time>2021-07-02T11:02:01Z</time>
      </trkpt>
      <trkpt lat="42.560658" lon="1.590075">
        <ele>1494.97729</ele>
        <time>2021-07-02T11:02:02Z</time>
      </trkpt>
      <trkpt lat="42.560524" lon="1.589997">
        <ele>1494.76550</ele>
        <time>2021-07-02T11:02:03Z</time>
      </trkpt>
      <trkpt lat="42.560390" lon="1.589912">
        <ele>1494.14502</ele>
        <time>2021-07-02T11:02:04Z</time>
      </trkpt>
      <trkpt lat="42.560265" lon="1.589833">
        <ele>1492.68994</ele>
        <time>2021-07-02T11:02:05Z</time>
      </trkpt>
      <trkpt lat="42.560150" lon="1.589760">
        <ele>1491.48779</ele>
        <time>2021-07-02T11:02:06Z</time>
      </trkpt>
      <trkpt lat="42.560028" lon="1.589685">
        <ele>1489.93396</ele>
        <time>2021-07-02T11:02:07Z</time>
      </trkpt>
      <trkpt lat="42.559902" lon="1.589596">
        <ele>1488.79626</ele>
        <time>2021-07-02T11:02:08Z</time>
      </trkpt>
      <trkpt lat="42.559769" lon="1.589480">
        <ele>1486.80298</ele>
        <time>2021-07-02T11:02:09Z</time>
      </trkpt>
      <trkpt lat="42.559654" lon="1.589378">
        <ele>1485.74390</ele>
        <time>2021-07-02T11:02:10Z</time>
      </trkpt>
      <trkpt lat="42.559532" lon="1.589274">
        <ele>1485.10986</ele>
        <time>2021-07-02T11:02:11Z</time>
      </trkpt>
      <trkpt lat="42.559513" lon="1.589255">
        <ele>1483.92017</ele>
        <time>2021-07-02T11:02:12Z</time>
      </trkpt>
      <trkpt lat="42.559505" lon="1.589254">
        <ele>1483.82361</ele>
        <time>2021-07-02T11:02:13Z</time>
      </trkpt>
      <trkpt lat="42.559162" lon="1.589235">
        <ele>1483.12561</ele>
        <time>2021-07-02T11:02:14Z</time>
      </trkpt>
      <trkpt lat="42.559010" lon="1.589226">
        <ele>1480.63513</ele>
        <time>2021-07-02T11:02:15Z</time>
      </trkpt>
      <trkpt lat="42.558865" lon="1.589218">
        <ele>1480.37354</ele>
        <time>2021-07-02T11:02:16Z</time>
      </trkpt>
      <trkpt lat="42.558743" lon="1.589181">
        <ele>1479.44653</ele>
        <time>2021-07-02T11:02:17Z</time>
      </trkpt>
      <trkpt lat="42.558605" lon="1.589121">
        <ele>1478.00000</ele>
        <time>2021-07-02T11:02:18Z</time>
      </trkpt>
      <trkpt lat="42.558495" lon="1.589067">
        <ele>1475.18420</ele>
        <time>2021-07-02T11:02:19Z</time>
      </trkpt>
      <trkpt lat="42.558365" lon="1.588992">
        <ele>1473.53870</ele>
        <time>2021-07-02T11:02:20Z</time>
      </trkpt>
      <trkpt lat="42.558254" lon="1.588917">
        <ele>1472.35364</ele>
        <time>2021-07-02T11:02:21Z</time>
      </trkpt>
      <trkpt lat="42.558121" lon="1.588835">
        <ele>1470.01062</ele>
        <time>2021-07-02T11:02:22Z</time>
      </trkpt>
      <trkpt lat="42.557995" lon="1.588777">
        <ele>1469.66833</ele>
        <time>2021-07-02T11:02:23Z</time>
      </trkpt>
      <trkpt lat="42.557861" lon="1.588734">
        <ele>1469.06311</ele>
        <time>2021-07-02T11:02:24Z</time>
      </trkpt>
      <trkpt lat="42.557720" lon="1.588697">
        <ele>1466.56018</ele>
        <time>2021-07-02T11:02:25Z</time>
      </trkpt>
      <trkpt lat="42.557590" lon="1.588667">
        <ele>1465.80957</ele>
        <time>2021-07-02T11:02:26Z</time>
      </trkpt>
      <trkpt lat="42.557449" lon="1.588642">
        <ele>1464.83350</ele>
        <time>2021-07-02T11:02:27Z</time>
      </trkpt>
      <trkpt lat="42.557312" lon="1.588623">
        <ele>1464.03333</ele>
        <time>2021-07-02T11:02:28Z</time>
      </trkpt>
      <trkpt lat="42.557312" lon="1.588623">
        <ele>1463.08252</ele>
        <time>2021-07-02T11:02:29Z</time>
      </trkpt>
      <trkpt lat="42.557175" lon="1.588604">
        <ele>1462.12646</ele>
        <time>2021-07-02T11:02:30Z</time>
      </trkpt>
      <trkpt lat="42.557045" lon="1.588607">
        <ele>1461.11902</ele>
        <time>2021-07-02T11:02:31Z</time>
      </trkpt>
      <trkpt lat="42.556904" lon="1.588612">
        <ele>1458.85681</ele>
        <time>2021-07-02T11:02:32Z</time>
      </trkpt>
      <trkpt lat="42.556778" lon="1.588617">
        <ele>1458.16223</ele>
        <time>2021-07-02T11:02:33Z</time>
      </trkpt>
      <trkpt lat="42.556641" lon="1.588627">
        <ele>1456.97498</ele>
        <time>2021-07-02T11:02:34Z</time>
      </trkpt>
      <trkpt lat="42.556496" lon="1.588640">
        <ele>1455.29895</ele>
        <time>2021-07-02T11:02:35Z</time>
      </trkpt>
      <trkpt lat="42.556362" lon="1.588652">
        <ele>1454.89050</ele>
        <time>2021-07-02T11:02:36Z</time>
      </trkpt>
      <trkpt lat="42.556225" lon="1.588664">
        <ele>1454.48743</ele>
        <time>2021-07-02T11:02:37Z</time>
      </trkpt>
      <trkpt lat="42.556072" lon="1.588677">
        <ele>1453.56848</ele>
        <time>2021-07-02T11:02:38Z</time>
      </trkpt>
      <trkpt lat="42.555943" lon="1.588628">
        <ele>1450.84802</ele>
        <time>2021-07-02T11:02:39Z</time>
      </trkpt>
      <trkpt lat="42.555794" lon="1.588569">
        <ele>1449.77698</ele>
        <time>2021-07-02T11:02:40Z</time>
      </trkpt>
      <trkpt lat="42.555656" lon="1.588519">
        <ele>1448.83911</ele>
        <time>2021-07-02T11:02:41Z</time>
      </trkpt>
      <trkpt lat="42.555496" lon="1.588516">
        <ele>1447.18054</ele>
        <time>2021-07-02T11:02:42Z</time>
      </trkpt>
      <trkpt lat="42.555359" lon="1.588514">
        <ele>1445.94812</ele>
        <time>2021-07-02T11:02:43Z</time>
      </trkpt>
      <trkpt lat="42.555210" lon="1.588517">
        <ele>1445.19470</ele>
        <time>2021-07-02T11:02:44Z</time>
      </trkpt>
      <trkpt lat="42.555073" lon="1.588522">
        <ele>1444.11804</ele>
        <time>2021-07-02T11:02:45Z</time>
      </trkpt>
      <trkpt lat="42.554928" lon="1.588526">
        <ele>1442.90442</ele>
        <time>2021-07-02T11:02:46Z</time>
      </trkpt>
      <trkpt lat="42.554783" lon="1.588530">
        <ele>1442.41943</ele>
        <time>2021-07-02T11:02:47Z</time>
      </trkpt>
      <trkpt lat="42.554646" lon="1.588535">
        <ele>1441.55151</ele>
        <time>2021-07-02T11:02:48Z</time>
      </trkpt>
      <trkpt lat="42.554501" lon="1.588539">
        <ele>1443.23303</ele>
        <time>2021-07-02T11:02:49Z</time>
      </trkpt>
      <trkpt lat="42.554363" lon="1.588543">
        <ele>1443.08594</ele>
        <time>2021-07-02T11:02:50Z</time>
      </trkpt>
      <trkpt lat="42.554218" lon="1.588555">
        <ele>1442.08813</ele>
        <time>2021-07-02T11:02:51Z</time>
      </trkpt>
      <trkpt lat="42.554092" lon="1.588584">
        <ele>1438.22998</ele>
        <time>2021-07-02T11:02:52Z</time>
      </trkpt>
      <trkpt lat="42.553959" lon="1.588631">
        <ele>1437.48047</ele>
        <time>2021-07-02T11:02:53Z</time>
      </trkpt>
      <trkpt lat="42.553829" lon="1.588654">
        <ele>1436.69189</ele>
        <time>2021-07-02T11:02:54Z</time>
      </trkpt>
      <trkpt lat="42.553703" lon="1.588658">
        <ele>1436.43909</ele>
        <time>2021-07-02T11:02:55Z</time>
      </trkpt>
      <trkpt lat="42.553562" lon="1.588663">
        <ele>1435.62671</ele>
        <time>2021-07-02T11:02:56Z</time>
      </trkpt>
      <trkpt lat="42.553539" lon="1.588664">
        <ele>1436.11597</ele>
        <time>2021-07-02T11:02:57Z</time>
      </trkpt>
      <trkpt lat="42.553539" lon="1.588664">
        <ele>1436.16284</ele>
        <time>2021-07-02T11:02:58Z</time>
      </trkpt>
      <trkpt lat="42.553371" lon="1.588690">
        <ele>1434.81616</ele>
        <time>2021-07-02T11:02:59Z</time>
      </trkpt>
      <trkpt lat="42.553371" lon="1.588690">
        <ele>1430.04529</ele>
        <time>2021-07-02T11:03:00Z</time>
      </trkpt>
      <trkpt lat="42.553036" lon="1.588774">
        <ele>1428.87488</ele>
        <time>2021-07-02T11:03:01Z</time>
      </trkpt>
      <trkpt lat="42.552914" lon="1.588853">
        <ele>1428.16382</ele>
        <time>2021-07-02T11:03:02Z</time>
      </trkpt>
      <trkpt lat="42.552799" lon="1.588940">
        <ele>1427.83899</ele>
        <time>2021-07-02T11:03:03Z</time>
      </trkpt>
      <trkpt lat="42.552692" lon="1.589030">
        <ele>1427.35486</ele>
        <time>2021-07-02T11:03:04Z</time>
      </trkpt>
      <trkpt lat="42.552586" lon="1.589137">
        <ele>1427.17139</ele>
        <time>2021-07-02T11:03:05Z</time>
      </trkpt>
      <trkpt lat="42.552490" lon="1.589258">
        <ele>1432.85535</ele>
        <time>2021-07-02T11:03:06Z</time>
      </trkpt>
      <trkpt lat="42.552387" lon="1.589389">
        <ele>1432.71765</ele>
        <time>2021-07-02T11:03:07Z</time>
      </trkpt>
      <trkpt lat="42.552292" lon="1.589526">
        <ele>1432.96667</ele>
        <time>2021-07-02T11:03:08Z</time>
      </trkpt>
      <trkpt lat="42.552197" lon="1.589673">
        <ele>1432.25952</ele>
        <time>2021-07-02T11:03:09Z</time>
      </trkpt>
      <trkpt lat="42.552101" lon="1.589815">
        <ele>1433.93347</ele>
        <time>2021-07-02T11:03:10Z</time>
      </trkpt>
      <trkpt lat="42.552013" lon="1.589939">
        <ele>1432.89331</ele>
        <time>2021-07-02T11:03:11Z</time>
      </trkpt>
      <trkpt lat="42.551933" lon="1.590041">
        <ele>1431.56763</ele>
        <time>2021-07-02T11:03:12Z</time>
      </trkpt>
      <trkpt lat="42.551846" lon="1.590155">
        <ele>1431.32397</ele>
        <time>2021-07-02T11:03:13Z</time>
      </trkpt>
      <trkpt lat="42.551754" lon="1.590251">
        <ele>1424.60046</ele>
        <time>2021-07-02T11:03:14Z</time>
      </trkpt>
      <trkpt lat="42.551662" lon="1.590350">
        <ele>1423.33618</ele>
        <time>2021-07-02T11:03:15Z</time>
      </trkpt>
      <trkpt lat="42.551563" lon="1.590444">
        <ele>1422.49146</ele>
        <time>2021-07-02T11:03:16Z</time>
      </trkpt>
      <trkpt lat="42.551468" lon="1.590515">
        <ele>1422.30969</ele>
        <time>2021-07-02T11:03:17Z</time>
      </trkpt>
      <trkpt lat="42.551376" lon="1.590584">
        <ele>1421.31689</ele>
        <time>2021-07-02T11:03:18Z</time>
      </trkpt>
      <trkpt lat="42.551281" lon="1.590646">
        <ele>1420.82935</ele>
        <time>2021-07-02T11:03:19Z</time>
      </trkpt>
      <trkpt lat="42.551193" lon="1.590702">
        <ele>1420.73901</ele>
        <time>2021-07-02T11:03:20Z</time>
      </trkpt>
      <trkpt lat="42.551136" lon="1.590740">
        <ele>1420.70496</ele>
        <time>2021-07-02T11:03:21Z</time>
      </trkpt>
      <trkpt lat="42.551117" lon="1.590751">
        <ele>1420.43396</ele>
        <time>2021-07-02T11:03:22Z</time>
      </trkpt>
      <trkpt lat="42.551086" lon="1.590772">
        <ele>1419.66821</ele>
        <time>2021-07-02T11:03:23Z</time>
      </trkpt>
      <trkpt lat="42.551029" lon="1.590808">
        <ele>1428.61743</ele>
        <time>2021-07-02T11:03:24Z</time>
      </trkpt>
      <trkpt lat="42.550964" lon="1.590742">
        <ele>1428.49524</ele>
        <time>2021-07-02T11:03:25Z</time>
      </trkpt>
      <trkpt lat="42.550850" lon="1.590726">
        <ele>1428.67419</ele>
        <time>2021-07-02T11:03:26Z</time>
      </trkpt>
      <trkpt lat="42.550850" lon="1.590726">
        <ele>1421.89661</ele>
        <time>2021-07-02T11:03:27Z</time>
      </trkpt>
      <trkpt lat="42.550850" lon="1.590726">
        <ele>1420.82886</ele>
        <time>2021-07-02T11:03:28Z</time>
      </trkpt>
      <trkpt lat="42.550812" lon="1.590757">
        <ele>1429.66211</ele>
        <time>2021-07-02T11:03:29Z</time>
      </trkpt>
      <trkpt lat="42.550629" lon="1.591031">
        <ele>1429.53833</ele>
        <time>2021-07-02T11:03:30Z</time>
      </trkpt>
      <trkpt lat="42.550320" lon="1.591160">
        <ele>1429.90894</ele>
        <time>2021-07-02T11:03:31Z</time>
      </trkpt>
      <trkpt lat="42.550167" lon="1.591221">
        <ele>1429.83289</ele>
        <time>2021-07-02T11:03:32Z</time>
      </trkpt>
      <trkpt lat="42.550011" lon="1.591277">
        <ele>1430.48926</ele>
        <time>2021-07-02T11:03:33Z</time>
      </trkpt>
      <trkpt lat="42.549866" lon="1.591328">
        <ele>1430.73145</ele>
        <time>2021-07-02T11:03:34Z</time>
      </trkpt>
      <trkpt lat="42.549706" lon="1.591385">
        <ele>1430.19324</ele>
        <time>2021-07-02T11:03:35Z</time>
      </trkpt>
      <trkpt lat="42.549568" lon="1.591419">
        <ele>1430.38696</ele>
        <time>2021-07-02T11:03:36Z</time>
      </trkpt>
      <trkpt lat="42.549416" lon="1.591445">
        <ele>1430.77795</ele>
        <time>2021-07-02T11:03:37Z</time>
      </trkpt>
      <trkpt lat="42.549255" lon="1.591498">
        <ele>1430.00061</ele>
        <time>2021-07-02T11:03:38Z</time>
      </trkpt>
      <trkpt lat="42.549088" lon="1.591543">
        <ele>1428.90039</ele>
        <time>2021-07-02T11:03:39Z</time>
      </trkpt>
      <trkpt lat="42.549088" lon="1.591543">
        <ele>1428.27966</ele>
        <time>2021-07-02T11:03:40Z</time>
      </trkpt>
      <trkpt lat="42.548920" lon="1.591585">
        <ele>1428.25708</ele>
        <time>2021-07-02T11:03:41Z</time>
      </trkpt>
      <trkpt lat="42.548756" lon="1.591626">
        <ele>1426.60815</ele>
        <time>2021-07-02T11:03:42Z</time>
      </trkpt>
      <trkpt lat="42.548576" lon="1.591671">
        <ele>1425.63269</ele>
        <time>2021-07-02T11:03:43Z</time>
      </trkpt>
      <trkpt lat="42.548389" lon="1.591716">
        <ele>1425.38220</ele>
        <time>2021-07-02T11:03:44Z</time>
      </trkpt>
      <trkpt lat="42.548214" lon="1.591749">
        <ele>1419.50061</ele>
        <time>2021-07-02T11:03:45Z</time>
      </trkpt>
      <trkpt lat="42.548031" lon="1.591782">
        <ele>1423.56409</ele>
        <time>2021-07-02T11:03:46Z</time>
      </trkpt>
      <trkpt lat="42.547825" lon="1.591807">
        <ele>1423.23987</ele>
        <time>2021-07-02T11:03:47Z</time>
      </trkpt>
      <trkpt lat="42.547661" lon="1.591796">
        <ele>1422.92419</ele>
        <time>2021-07-02T11:03:48Z</time>
      </trkpt>
      <trkpt lat="42.547508" lon="1.591776">
        <ele>1414.96277</ele>
        <time>2021-07-02T11:03:49Z</time>
      </trkpt>
      <trkpt lat="42.547352" lon="1.591754">
        <ele>1413.73352</ele>
        <time>2021-07-02T11:03:50Z</time>
      </trkpt>
      <trkpt lat="42.547203" lon="1.591733">
        <ele>1413.41968</ele>
        <time>2021-07-02T11:03:51Z</time>
      </trkpt>
      <trkpt lat="42.547058" lon="1.591712">
        <ele>1412.16711</ele>
        <time>2021-07-02T11:03:52Z</time>
      </trkpt>
      <trkpt lat="42.546917" lon="1.591677">
        <ele>1411.49011</ele>
        <time>2021-07-02T11:03:53Z</time>
      </trkpt>
      <trkpt lat="42.546780" lon="1.591635">
        <ele>1410.72644</ele>
        <time>2021-07-02T11:03:54Z</time>
      </trkpt>
      <trkpt lat="42.546638" lon="1.591575">
        <ele>1410.31653</ele>
        <time>2021-07-02T11:03:55Z</time>
      </trkpt>
      <trkpt lat="42.546513" lon="1.591500">
        <ele>1410.55920</ele>
        <time>2021-07-02T11:03:56Z</time>
      </trkpt>
      <trkpt lat="42.546375" lon="1.591424">
        <ele>1410.17664</ele>
        <time>2021-07-02T11:03:57Z</time>
      </trkpt>
      <trkpt lat="42.546246" lon="1.591369">
        <ele>1409.78662</ele>
        <time>2021-07-02T11:03:58Z</time>
      </trkpt>
      <trkpt lat="42.546089" lon="1.591304">
        <ele>1418.02563</ele>
        <time>2021-07-02T11:03:59Z</time>
      </trkpt>
      <trkpt lat="42.545918" lon="1.591259">
        <ele>1417.63159</ele>
        <time>2021-07-02T11:04:00Z</time>
      </trkpt>
      <trkpt lat="42.545742" lon="1.591246">
        <ele>1417.11646</ele>
        <time>2021-07-02T11:04:01Z</time>
      </trkpt>
      <trkpt lat="42.545582" lon="1.591261">
        <ele>1417.82629</ele>
        <time>2021-07-02T11:04:02Z</time>
      </trkpt>
      <trkpt lat="42.545380" lon="1.591302">
        <ele>1410.64539</ele>
        <time>2021-07-02T11:04:03Z</time>
      </trkpt>
      <trkpt lat="42.545185" lon="1.591366">
        <ele>1408.71204</ele>
        <time>2021-07-02T11:04:04Z</time>
      </trkpt>
      <trkpt lat="42.545017" lon="1.591435">
        <ele>1407.94299</ele>
        <time>2021-07-02T11:04:05Z</time>
      </trkpt>
      <trkpt lat="42.544880" lon="1.591508">
        <ele>1407.75110</ele>
        <time>2021-07-02T11:04:06Z</time>
      </trkpt>
      <trkpt lat="42.544731" lon="1.591586">
        <ele>1407.40430</ele>
        <time>2021-07-02T11:04:07Z</time>
      </trkpt>
      <trkpt lat="42.544594" lon="1.591657">
        <ele>1407.08228</ele>
        <time>2021-07-02T11:04:08Z</time>
      </trkpt>
      <trkpt lat="42.544453" lon="1.591721">
        <ele>1406.75537</ele>
        <time>2021-07-02T11:04:09Z</time>
      </trkpt>
      <trkpt lat="42.544319" lon="1.591760">
        <ele>1405.93188</ele>
        <time>2021-07-02T11:04:10Z</time>
      </trkpt>
      <trkpt lat="42.544197" lon="1.591779">
        <ele>1405.02539</ele>
        <time>2021-07-02T11:04:11Z</time>
      </trkpt>
      <trkpt lat="42.544052" lon="1.591767">
        <ele>1404.64294</ele>
        <time>2021-07-02T11:04:12Z</time>
      </trkpt>
      <trkpt lat="42.543903" lon="1.591741">
        <ele>1404.45032</ele>
        <time>2021-07-02T11:04:13Z</time>
      </trkpt>
      <trkpt lat="42.543903" lon="1.591741">
        <ele>1403.84570</ele>
        <time>2021-07-02T11:04:14Z</time>
      </trkpt>
      <trkpt lat="42.543755" lon="1.591684">
        <ele>1403.13330</ele>
        <time>2021-07-02T11:04:15Z</time>
      </trkpt>
      <trkpt lat="42.543598" lon="1.591608">
        <ele>1402.42993</ele>
        <time>2021-07-02T11:04:16Z</time>
      </trkpt>
      <trkpt lat="42.543461" lon="1.591534">
        <ele>1401.14758</ele>
        <time>2021-07-02T11:04:17Z</time>
      </trkpt>
      <trkpt lat="42.543316" lon="1.591476">
        <ele>1399.96912</ele>
        <time>2021-07-02T11:04:18Z</time>
      </trkpt>
      <trkpt lat="42.543182" lon="1.591445">
        <ele>1405.62476</ele>
        <time>2021-07-02T11:04:19Z</time>
      </trkpt>
      <trkpt lat="42.543045" lon="1.591427">
        <ele>1404.75696</ele>
        <time>2021-07-02T11:04:20Z</time>
      </trkpt>
      <trkpt lat="42.542912" lon="1.591416">
        <ele>1404.24329</ele>
        <time>2021-07-02T11:04:21Z</time>
      </trkpt>
      <trkpt lat="42.542774" lon="1.591429">
        <ele>1402.88770</ele>
        <time>2021-07-02T11:04:22Z</time>
      </trkpt>
      <trkpt lat="42.542652" lon="1.591441">
        <ele>1402.76355</ele>
        <time>2021-07-02T11:04:23Z</time>
      </trkpt>
      <trkpt lat="42.542519" lon="1.591454">
        <ele>1401.69446</ele>
        <time>2021-07-02T11:04:24Z</time>
      </trkpt>
      <trkpt lat="42.542370" lon="1.591478">
        <ele>1396.28491</ele>
        <time>2021-07-02T11:04:25Z</time>
      </trkpt>
      <trkpt lat="42.542225" lon="1.591503">
        <ele>1395.15759</ele>
        <time>2021-07-02T11:04:26Z</time>
      </trkpt>
      <trkpt lat="42.542068" lon="1.591529">
        <ele>1393.63525</ele>
        <time>2021-07-02T11:04:27Z</time>
      </trkpt>
      <trkpt lat="42.541912" lon="1.591555">
        <ele>1392.78369</ele>
        <time>2021-07-02T11:04:28Z</time>
      </trkpt>
      <trkpt lat="42.541767" lon="1.591594">
        <ele>1392.20825</ele>
        <time>2021-07-02T11:04:29Z</time>
      </trkpt>
      <trkpt lat="42.541630" lon="1.591681">
        <ele>1391.77393</ele>
        <time>2021-07-02T11:04:30Z</time>
      </trkpt>
      <trkpt lat="42.541504" lon="1.591792">
        <ele>1391.07971</ele>
        <time>2021-07-02T11:04:31Z</time>
      </trkpt>
      <trkpt lat="42.541393" lon="1.591914">
        <ele>1390.56030</ele>
        <time>2021-07-02T11:04:32Z</time>
      </trkpt>
      <trkpt lat="42.541294" lon="1.592033">
        <ele>1389.48425</ele>
        <time>2021-07-02T11:04:33Z</time>
      </trkpt>
      <trkpt lat="42.541199" lon="1.592146">
        <ele>1388.27844</ele>
        <time>2021-07-02T11:04:34Z</time>
      </trkpt>
      <trkpt lat="42.541080" lon="1.592240">
        <ele>1387.89099</ele>
        <time>2021-07-02T11:04:35Z</time>
      </trkpt>
      <trkpt lat="42.540932" lon="1.592287">
        <ele>1386.50708</ele>
        <time>2021-07-02T11:04:36Z</time>
      </trkpt>
      <trkpt lat="42.540771" lon="1.592273">
        <ele>1385.37878</ele>
        <time>2021-07-02T11:04:37Z</time>
      </trkpt>
      <trkpt lat="42.540611" lon="1.592191">
        <ele>1383.81726</ele>
        <time>2021-07-02T11:04:38Z</time>
      </trkpt>
      <trkpt lat="42.540470" lon="1.592049">
        <ele>1388.78503</ele>
        <time>2021-07-02T11:04:39Z</time>
      </trkpt>
      <trkpt lat="42.540340" lon="1.591916">
        <ele>1388.02881</ele>
        <time>2021-07-02T11:04:40Z</time>
      </trkpt>
      <trkpt lat="42.540340" lon="1.591916">
        <ele>1383.25256</ele>
        <time>2021-07-02T11:04:41Z</time>
      </trkpt>
      <trkpt lat="42.540211" lon="1.591805">
        <ele>1380.81628</ele>
        <time>2021-07-02T11:04:42Z</time>
      </trkpt>
      <trkpt lat="42.540081" lon="1.591719">
        <ele>1380.15625</ele>
        <time>2021-07-02T11:04:43Z</time>
      </trkpt>
      <trkpt lat="42.539944" lon="1.591689">
        <ele>1378.21802</ele>
        <time>2021-07-02T11:04:44Z</time>
      </trkpt>
      <trkpt lat="42.539783" lon="1.591678">
        <ele>1377.46680</ele>
        <time>2021-07-02T11:04:45Z</time>
      </trkpt>
      <trkpt lat="42.539600" lon="1.591673">
        <ele>1376.49841</ele>
        <time>2021-07-02T11:04:46Z</time>
      </trkpt>
      <trkpt lat="42.539421" lon="1.591668">
        <ele>1375.23657</ele>
        <time>2021-07-02T11:04:47Z</time>
      </trkpt>
      <trkpt lat="42.539238" lon="1.591662">
        <ele>1373.32202</ele>
        <time>2021-07-02T11:04:48Z</time>
      </trkpt>
      <trkpt lat="42.539082" lon="1.591658">
        <ele>1372.15466</ele>
        <time>2021-07-02T11:04:49Z</time>
      </trkpt>
      <trkpt lat="42.538929" lon="1.591655">
        <ele>1370.47571</ele>
        <time>2021-07-02T11:04:50Z</time>
      </trkpt>
      <trkpt lat="42.538765" lon="1.591653">
        <ele>1369.63818</ele>
        <time>2021-07-02T11:04:51Z</time>
      </trkpt>
      <trkpt lat="42.538620" lon="1.591650">
        <ele>1369.25366</ele>
        <time>2021-07-02T11:04:52Z</time>
      </trkpt>
      <trkpt lat="42.538452" lon="1.591625">
        <ele>1367.81677</ele>
        <time>2021-07-02T11:04:53Z</time>
      </trkpt>
      <trkpt lat="42.538315" lon="1.591589">
        <ele>1366.80664</ele>
        <time>2021-07-02T11:04:54Z</time>
      </trkpt>
      <trkpt lat="42.538174" lon="1.591501">
        <ele>1365.81396</ele>
        <time>2021-07-02T11:04:55Z</time>
      </trkpt>
      <trkpt lat="42.538052" lon="1.591381">
        <ele>1364.29712</ele>
        <time>2021-07-02T11:04:56Z</time>
      </trkpt>
      <trkpt lat="42.537945" lon="1.591242">
        <ele>1363.30481</ele>
        <time>2021-07-02T11:04:57Z</time>
      </trkpt>
      <trkpt lat="42.537811" lon="1.591050">
        <ele>1362.53857</ele>
        <time>2021-07-02T11:04:58Z</time>
      </trkpt>
      <trkpt lat="42.537727" lon="1.590870">
        <ele>1362.24622</ele>
        <time>2021-07-02T11:04:59Z</time>
      </trkpt>
      <trkpt lat="42.537651" lon="1.590678">
        <ele>1361.22778</ele>
        <time>2021-07-02T11:05:00Z</time>
      </trkpt>
      <trkpt lat="42.537586" lon="1.590495">
        <ele>1362.53247</ele>
        <time>2021-07-02T11:05:01Z</time>
      </trkpt>
      <trkpt lat="42.537521" lon="1.590309">
        <ele>1360.70825</ele>
        <time>2021-07-02T11:05:02Z</time>
      </trkpt>
      <trkpt lat="42.537457" lon="1.590134">
        <ele>1360.21838</ele>
        <time>2021-07-02T11:05:03Z</time>
      </trkpt>
      <trkpt lat="42.537373" lon="1.589952">
        <ele>1358.79614</ele>
        <time>2021-07-02T11:05:04Z</time>
      </trkpt>
      <trkpt lat="42.537292" lon="1.589795">
        <ele>1356.43848</ele>
        <time>2021-07-02T11:05:05Z</time>
      </trkpt>
      <trkpt lat="42.537216" lon="1.589643">
        <ele>1355.98682</ele>
        <time>2021-07-02T11:05:06Z</time>
      </trkpt>
      <trkpt lat="42.537140" lon="1.589487">
        <ele>1355.31726</ele>
        <time>2021-07-02T11:05:07Z</time>
      </trkpt>
      <trkpt lat="42.537060" lon="1.589332">
        <ele>1354.89514</ele>
        <time>2021-07-02T11:05:08Z</time>
      </trkpt>
      <trkpt lat="42.536968" lon="1.589183">
        <ele>1350.97156</ele>
        <time>2021-07-02T11:05:09Z</time>
      </trkpt>
      <trkpt lat="42.536869" lon="1.589058">
        <ele>1351.86011</ele>
        <time>2021-07-02T11:05:10Z</time>
      </trkpt>
      <trkpt lat="42.536766" lon="1.588960">
        <ele>1348.96716</ele>
        <time>2021-07-02T11:05:11Z</time>
      </trkpt>
      <trkpt lat="42.536655" lon="1.588882">
        <ele>1347.53674</ele>
        <time>2021-07-02T11:05:12Z</time>
      </trkpt>
      <trkpt lat="42.536533" lon="1.588815">
        <ele>1346.80359</ele>
        <time>2021-07-02T11:05:13Z</time>
      </trkpt>
      <trkpt lat="42.536419" lon="1.588766">
        <ele>1345.65918</ele>
        <time>2021-07-02T11:05:14Z</time>
      </trkpt>
      <trkpt lat="42.536419" lon="1.588766">
        <ele>1345.17786</ele>
        <time>2021-07-02T11:05:15Z</time>
      </trkpt>
      <trkpt lat="42.536312" lon="1.588725">
        <ele>1345.80847</ele>
        <time>2021-07-02T11:05:16Z</time>
      </trkpt>
      <trkpt lat="42.536217" lon="1.588687">
        <ele>1345.25037</ele>
        <time>2021-07-02T11:05:17Z</time>
      </trkpt>
      <trkpt lat="42.536137" lon="1.588656">
        <ele>1344.65332</ele>
        <time>2021-07-02T11:05:18Z</time>
      </trkpt>
      <trkpt lat="42.536049" lon="1.588621">
        <ele>1342.96252</ele>
        <time>2021-07-02T11:05:19Z</time>
      </trkpt>
      <trkpt lat="42.535961" lon="1.588587">
        <ele>1342.62158</ele>
        <time>2021-07-02T11:05:20Z</time>
      </trkpt>
      <trkpt lat="42.535873" lon="1.588553">
        <ele>1342.16284</ele>
        <time>2021-07-02T11:05:21Z</time>
      </trkpt>
      <trkpt lat="42.535809" lon="1.588527">
        <ele>1341.20581</ele>
        <time>2021-07-02T11:05:22Z</time>
      </trkpt>
      <trkpt lat="42.535751" lon="1.588496">
        <ele>1340.55884</ele>
        <time>2021-07-02T11:05:23Z</time>
      </trkpt>
      <trkpt lat="42.535690" lon="1.588463">
        <ele>1340.40161</ele>
        <time>2021-07-02T11:05:24Z</time>
      </trkpt>
      <trkpt lat="42.535629" lon="1.588429">
        <ele>1339.95435</ele>
        <time>2021-07-02T11:05:25Z</time>
      </trkpt>
      <trkpt lat="42.535549" lon="1.588383">
        <ele>1339.74805</ele>
        <time>2021-07-02T11:05:26Z</time>
      </trkpt>
      <trkpt lat="42.535480" lon="1.588332">
        <ele>1339.70728</ele>
        <time>2021-07-02T11:05:27Z</time>
      </trkpt>
      <trkpt lat="42.535404" lon="1.588278">
        <ele>1339.43701</ele>
        <time>2021-07-02T11:05:28Z</time>
      </trkpt>
      <trkpt lat="42.535416" lon="1.588198">
        <ele>1338.20801</ele>
        <time>2021-07-02T11:05:29Z</time>
      </trkpt>
      <trkpt lat="42.535366" lon="1.588078">
        <ele>1338.16296</ele>
        <time>2021-07-02T11:05:30Z</time>
      </trkpt>
      <trkpt lat="42.535351" lon="1.588065">
        <ele>1338.17822</ele>
        <time>2021-07-02T11:05:31Z</time>
      </trkpt>
      <trkpt lat="42.535328" lon="1.588055">
        <ele>1337.88159</ele>
        <time>2021-07-02T11:05:32Z</time>
      </trkpt>
      <trkpt lat="42.535301" lon="1.588050">
        <ele>1337.81323</ele>
        <time>2021-07-02T11:05:33Z</time>
      </trkpt>
      <trkpt lat="42.535301" lon="1.588050">
        <ele>1337.71313</ele>
        <time>2021-07-02T11:05:34Z</time>
      </trkpt>
      <trkpt lat="42.535301" lon="1.587996">
        <ele>1337.73206</ele>
        <time>2021-07-02T11:05:35Z</time>
      </trkpt>
      <trkpt lat="42.535149" lon="1.587937">
        <ele>1337.64502</ele>
        <time>2021-07-02T11:05:36Z</time>
      </trkpt>
      <trkpt lat="42.535118" lon="1.587911">
        <ele>1337.79871</ele>
        <time>2021-07-02T11:05:37Z</time>
      </trkpt>
      <trkpt lat="42.535027" lon="1.587828">
        <ele>1337.45740</ele>
        <time>2021-07-02T11:05:38Z</time>
      </trkpt>
      <trkpt lat="42.534977" lon="1.587761">
        <ele>1336.81116</ele>
        <time>2021-07-02T11:05:39Z</time>
      </trkpt>
      <trkpt lat="42.534912" lon="1.587673">
        <ele>1336.53662</ele>
        <time>2021-07-02T11:05:40Z</time>
      </trkpt>
      <trkpt lat="42.534863" lon="1.587600">
        <ele>1336.40662</ele>
        <time>2021-07-02T11:05:41Z</time>
      </trkpt>
      <trkpt lat="42.534801" lon="1.587521">
        <ele>1335.64990</ele>
        <time>2021-07-02T11:05:42Z</time>
      </trkpt>
      <trkpt lat="42.534748" lon="1.587446">
        <ele>1334.94006</ele>
        <time>2021-07-02T11:05:43Z</time>
      </trkpt>
      <trkpt lat="42.534698" lon="1.587344">
        <ele>1334.39099</ele>
        <time>2021-07-02T11:05:44Z</time>
      </trkpt>
      <trkpt lat="42.534634" lon="1.587205">
        <ele>1333.55420</ele>
        <time>2021-07-02T11:05:45Z</time>
      </trkpt>
      <trkpt lat="42.534584" lon="1.587101">
        <ele>1333.03845</ele>
        <time>2021-07-02T11:05:46Z</time>
      </trkpt>
      <trkpt lat="42.534538" lon="1.586998">
        <ele>1332.32434</ele>
        <time>2021-07-02T11:05:47Z</time>
      </trkpt>
      <trkpt lat="42.534489" lon="1.586889">
        <ele>1331.61377</ele>
        <time>2021-07-02T11:05:48Z</time>
      </trkpt>
      <trkpt lat="42.534443" lon="1.586794">
        <ele>1330.65796</ele>
        <time>2021-07-02T11:05:49Z</time>
      </trkpt>
      <trkpt lat="42.534405" lon="1.586709">
        <ele>1329.87415</ele>
        <time>2021-07-02T11:05:50Z</time>
      </trkpt>
      <trkpt lat="42.534405" lon="1.586709">
        <ele>1329.25671</ele>
        <time>2021-07-02T11:05:51Z</time>
      </trkpt>
      <trkpt lat="42.534363" lon="1.586621">
        <ele>1328.49866</ele>
        <time>2021-07-02T11:05:52Z</time>
      </trkpt>
      <trkpt lat="42.534325" lon="1.586545">
        <ele>1328.04590</ele>
        <time>2021-07-02T11:05:53Z</time>
      </trkpt>
      <trkpt lat="42.534286" lon="1.586463">
        <ele>1327.84900</ele>
        <time>2021-07-02T11:05:54Z</time>
      </trkpt>
      <trkpt lat="42.534233" lon="1.586373">
        <ele>1327.70789</ele>
        <time>2021-07-02T11:05:55Z</time>
      </trkpt>
      <trkpt lat="42.534187" lon="1.586271">
        <ele>1327.56226</ele>
        <time>2021-07-02T11:05:56Z</time>
      </trkpt>
      <trkpt lat="42.534142" lon="1.586187">
        <ele>1327.59143</ele>
        <time>2021-07-02T11:05:57Z</time>
      </trkpt>
      <trkpt lat="42.534092" lon="1.586108">
        <ele>1327.61353</ele>
        <time>2021-07-02T11:05:58Z</time>
      </trkpt>
      <trkpt lat="42.534042" lon="1.586028">
        <ele>1327.03186</ele>
        <time>2021-07-02T11:05:59Z</time>
      </trkpt>
      <trkpt lat="42.533955" lon="1.585940">
        <ele>1326.47375</ele>
        <time>2021-07-02T11:06:00Z</time>
      </trkpt>
      <trkpt lat="42.533897" lon="1.585884">
        <ele>1326.10498</ele>
        <time>2021-07-02T11:06:01Z</time>
      </trkpt>
      <trkpt lat="42.533833" lon="1.585816">
        <ele>1325.19885</ele>
        <time>2021-07-02T11:06:02Z</time>
      </trkpt>
      <trkpt lat="42.533768" lon="1.585747">
        <ele>1324.97412</ele>
        <time>2021-07-02T11:06:03Z</time>
      </trkpt>
      <trkpt lat="42.533703" lon="1.585680">
        <ele>1324.24463</ele>
        <time>2021-07-02T11:06:04Z</time>
      </trkpt>
      <trkpt lat="42.533630" lon="1.585598">
        <ele>1322.81799</ele>
        <time>2021-07-02T11:06:05Z</time>
      </trkpt>
      <trkpt lat="42.533569" lon="1.585528">
        <ele>1322.12927</ele>
        <time>2021-07-02T11:06:06Z</time>
      </trkpt>
      <trkpt lat="42.533524" lon="1.585475">
        <ele>1321.54150</ele>
        <time>2021-07-02T11:06:07Z</time>
      </trkpt>
      <trkpt lat="42.533489" lon="1.585396">
        <ele>1321.02759</ele>
        <time>2021-07-02T11:06:08Z</time>
      </trkpt>
      <trkpt lat="42.533463" lon="1.585329">
        <ele>1320.30676</ele>
        <time>2021-07-02T11:06:09Z</time>
      </trkpt>
      <trkpt lat="42.533443" lon="1.585278">
        <ele>1317.95312</ele>
        <time>2021-07-02T11:06:10Z</time>
      </trkpt>
      <trkpt lat="42.533409" lon="1.585192">
        <ele>1317.19592</ele>
        <time>2021-07-02T11:06:11Z</time>
      </trkpt>
      <trkpt lat="42.533466" lon="1.585052">
        <ele>1316.53247</ele>
        <time>2021-07-02T11:06:12Z</time>
      </trkpt>
      <trkpt lat="42.533459" lon="1.584990">
        <ele>1316.14990</ele>
        <time>2021-07-02T11:06:13Z</time>
      </trkpt>
      <trkpt lat="42.533398" lon="1.584911">
        <ele>1315.11401</ele>
        <time>2021-07-02T11:06:14Z</time>
      </trkpt>
      <trkpt lat="42.533340" lon="1.584896">
        <ele>1314.28638</ele>
        <time>2021-07-02T11:06:15Z</time>
      </trkpt>
      <trkpt lat="42.533283" lon="1.584920">
        <ele>1313.56519</ele>
        <time>2021-07-02T11:06:16Z</time>
      </trkpt>
      <trkpt lat="42.533260" lon="1.584946">
        <ele>1313.97876</ele>
        <time>2021-07-02T11:06:17Z</time>
      </trkpt>
      <trkpt lat="42.533260" lon="1.584946">
        <ele>1313.81812</ele>
        <time>2021-07-02T11:06:18Z</time>
      </trkpt>
      <trkpt lat="42.533260" lon="1.584946">
        <ele>1313.71899</ele>
        <time>2021-07-02T11:06:19Z</time>
      </trkpt>
      <trkpt lat="42.533260" lon="1.584946">
        <ele>1312.69348</ele>
        <time>2021-07-02T11:06:20Z</time>
      </trkpt>
      <trkpt lat="42.533371" lon="1.584653">
        <ele>1312.48499</ele>
        <time>2021-07-02T11:06:21Z</time>
      </trkpt>
      <trkpt lat="42.533382" lon="1.584634">
        <ele>1313.66638</ele>
        <time>2021-07-02T11:06:22Z</time>
      </trkpt>
      <trkpt lat="42.533398" lon="1.584607">
        <ele>1318.77075</ele>
        <time>2021-07-02T11:06:23Z</time>
      </trkpt>
      <trkpt lat="42.533417" lon="1.584601">
        <ele>1318.74646</ele>
        <time>2021-07-02T11:06:24Z</time>
      </trkpt>
      <trkpt lat="42.533421" lon="1.584661">
        <ele>1318.59570</ele>
        <time>2021-07-02T11:06:25Z</time>
      </trkpt>
      <trkpt lat="42.533440" lon="1.584662">
        <ele>1318.53162</ele>
        <time>2021-07-02T11:06:26Z</time>
      </trkpt>
      <trkpt lat="42.533443" lon="1.584663">
        <ele>1318.41528</ele>
        <time>2021-07-02T11:06:27Z</time>
      </trkpt>
      <trkpt lat="42.533443" lon="1.584663">
        <ele>1318.44788</ele>
        <time>2021-07-02T11:06:28Z</time>
      </trkpt>
      <trkpt lat="42.533443" lon="1.584663">
        <ele>1318.42554</ele>
        <time>2021-07-02T11:06:29Z</time>
      </trkpt>
      <trkpt lat="42.533443" lon="1.584663">
        <ele>1318.47241</ele>
        <time>2021-07-02T11:06:30Z</time>
      </trkpt>
      <trkpt lat="42.533443" lon="1.584663">
        <ele>1318.43579</ele>
        <time>2021-07-02T11:06:31Z</time>
      </trkpt>
      <trkpt lat="42.533443" lon="1.584663">
        <ele>1318.38928</ele>
        <time>2021-07-02T11:06:32Z</time>
      </trkpt>
      <trkpt lat="42.533443" lon="1.584663">
        <ele>1318.34143</ele>
        <time>2021-07-02T11:06:33Z</time>
      </trkpt>
      <trkpt lat="42.533443" lon="1.584663">
        <ele>1318.43860</ele>
        <time>2021-07-02T11:06:34Z</time>
      </trkpt>
      <trkpt lat="42.533443" lon="1.584663">
        <ele>1318.48206</ele>
        <time>2021-07-02T11:06:35Z</time>
      </trkpt>
      <trkpt lat="42.533443" lon="1.584663">
        <ele>1318.50806</ele>
        <time>2021-07-02T11:06:36Z</time>
      </trkpt>
      <trkpt lat="42.533443" lon="1.584663">
        <ele>1318.60815</ele>
        <time>2021-07-02T11:06:37Z</time>
      </trkpt>
      <trkpt lat="42.533443" lon="1.584663">
        <ele>1318.69568</ele>
        <time>2021-07-02T11:06:38Z</time>
      </trkpt>
      <trkpt lat="42.533443" lon="1.584663">
        <ele>1318.78723</ele>
        <time>2021-07-02T11:06:39Z</time>
      </trkpt>
      <trkpt lat="42.533443" lon="1.584663">
        <ele>1318.72180</ele>
        <time>2021-07-02T11:06:40Z</time>
      </trkpt>
      <trkpt lat="42.533443" lon="1.584663">
        <ele>1318.73083</ele>
        <time>2021-07-02T11:06:41Z</time>
      </trkpt>
      <trkpt lat="42.533443" lon="1.584663">
        <ele>1318.68640</ele>
        <time>2021-07-02T11:06:42Z</time>
      </trkpt>
      <trkpt lat="42.533443" lon="1.584663">
        <ele>1318.67639</ele>
        <time>2021-07-02T11:06:43Z</time>
      </trkpt>
      <trkpt lat="42.533443" lon="1.584663">
        <ele>1318.65259</ele>
        <time>2021-07-02T11:06:44Z</time>
      </trkpt>
      <trkpt lat="42.533447" lon="1.584663">
        <ele>1318.42639</ele>
        <time>2021-07-02T11:06:45Z</time>
      </trkpt>
      <trkpt lat="42.533463" lon="1.584664">
        <ele>1318.41663</ele>
        <time>2021-07-02T11:06:46Z</time>
      </trkpt>
      <trkpt lat="42.533287" lon="1.584508">
        <ele>1318.38367</ele>
        <time>2021-07-02T11:06:47Z</time>
      </trkpt>
      <trkpt lat="42.533283" lon="1.584468">
        <ele>1318.21655</ele>
        <time>2021-07-02T11:06:48Z</time>
      </trkpt>
      <trkpt lat="42.533283" lon="1.584450">
        <ele>1318.29370</ele>
        <time>2021-07-02T11:06:49Z</time>
      </trkpt>
      <trkpt lat="42.533283" lon="1.584450">
        <ele>1318.33435</ele>
        <time>2021-07-02T11:06:50Z</time>
      </trkpt>
      <trkpt lat="42.533283" lon="1.584450">
        <ele>1318.02295</ele>
        <time>2021-07-02T11:06:51Z</time>
      </trkpt>
      <trkpt lat="42.533283" lon="1.584450">
        <ele>1317.80591</ele>
        <time>2021-07-02T11:06:52Z</time>
      </trkpt>
      <trkpt lat="42.533283" lon="1.584450">
        <ele>1317.81067</ele>
        <time>2021-07-02T11:06:53Z</time>
      </trkpt>
      <trkpt lat="42.533283" lon="1.584450">
        <ele>1317.91003</ele>
        <time>2021-07-02T11:06:54Z</time>
      </trkpt>
      <trkpt lat="42.533283" lon="1.584450">
        <ele>1317.83386</ele>
        <time>2021-07-02T11:06:55Z</time>
      </trkpt>
      <trkpt lat="42.533283" lon="1.584450">
        <ele>1317.83984</ele>
        <time>2021-07-02T11:06:56Z</time>
      </trkpt>
      <trkpt lat="42.533283" lon="1.584450">
        <ele>1317.82910</ele>
        <time>2021-07-02T11:06:57Z</time>
      </trkpt>
      <trkpt lat="42.533283" lon="1.584450">
        <ele>1317.89917</ele>
        <time>2021-07-02T11:06:58Z</time>
      </trkpt>
      <trkpt lat="42.533283" lon="1.584450">
        <ele>1317.77832</ele>
        <time>2021-07-02T11:06:59Z</time>
      </trkpt>
      <trkpt lat="42.533283" lon="1.584450">
        <ele>1317.63184</ele>
        <time>2021-07-02T11:07:00Z</time>
      </trkpt>
      <trkpt lat="42.533283" lon="1.584450">
        <ele>1317.56580</ele>
        <time>2021-07-02T11:07:01Z</time>
      </trkpt>
      <trkpt lat="42.533283" lon="1.584450">
        <ele>1317.53198</ele>
        <time>2021-07-02T11:07:02Z</time>
      </trkpt>
      <trkpt lat="42.533283" lon="1.584450">
        <ele>1317.54065</ele>
        <time>2021-07-02T11:07:03Z</time>
      </trkpt>
      <trkpt lat="42.533283" lon="1.584450">
        <ele>1317.55884</ele>
        <time>2021-07-02T11:07:04Z</time>
      </trkpt>
      <trkpt lat="42.533283" lon="1.584450">
        <ele>1317.53857</ele>
        <time>2021-07-02T11:07:05Z</time>
      </trkpt>
      <trkpt lat="42.533283" lon="1.584450">
        <ele>1317.49146</ele>
        <time>2021-07-02T11:07:06Z</time>
      </trkpt>
      <trkpt lat="42.533283" lon="1.584450">
        <ele>1317.43616</ele>
        <time>2021-07-02T11:07:07Z</time>
      </trkpt>
      <trkpt lat="42.533283" lon="1.584450">
        <ele>1317.41541</ele>
        <time>2021-07-02T11:07:08Z</time>
      </trkpt>
      <trkpt lat="42.533283" lon="1.584450">
        <ele>1317.36438</ele>
        <time>2021-07-02T11:07:09Z</time>
      </trkpt>
      <trkpt lat="42.533283" lon="1.584450">
        <ele>1317.31372</ele>
        <time>2021-07-02T11:07:10Z</time>
      </trkpt>
      <trkpt lat="42.533283" lon="1.584450">
        <ele>1317.35229</ele>
        <time>2021-07-02T11:07:11Z</time>
      </trkpt>
      <trkpt lat="42.533283" lon="1.584450">
        <ele>1317.35144</ele>
        <time>2021-07-02T11:07:12Z</time>
      </trkpt>
      <trkpt lat="42.533283" lon="1.584450">
        <ele>1317.34985</ele>
        <time>2021-07-02T11:07:13Z</time>
      </trkpt>
      <trkpt lat="42.533283" lon="1.584450">
        <ele>1317.32239</ele>
        <time>2021-07-02T11:07:14Z</time>
      </trkpt>
      <trkpt lat="42.533283" lon="1.584450">
        <ele>1317.44519</ele>
        <time>2021-07-02T11:07:15Z</time>
      </trkpt>
      <trkpt lat="42.533283" lon="1.584450">
        <ele>1317.47180</ele>
        <time>2021-07-02T11:07:16Z</time>
      </trkpt>
      <trkpt lat="42.533283" lon="1.584450">
        <ele>1317.39868</ele>
        <time>2021-07-02T11:07:17Z</time>
      </trkpt>
      <trkpt lat="42.533283" lon="1.584450">
        <ele>1317.44397</ele>
        <time>2021-07-02T11:07:18Z</time>
      </trkpt>
      <trkpt lat="42.533283" lon="1.584450">
        <ele>1317.44495</ele>
        <time>2021-07-02T11:07:19Z</time>
      </trkpt>
      <trkpt lat="42.533283" lon="1.584450">
        <ele>1317.31262</ele>
        <time>2021-07-02T11:07:20Z</time>
      </trkpt>
      <trkpt lat="42.533283" lon="1.584450">
        <ele>1317.35999</ele>
        <time>2021-07-02T11:07:21Z</time>
      </trkpt>
      <trkpt lat="42.533283" lon="1.584450">
        <ele>1317.27234</ele>
        <time>2021-07-02T11:07:22Z</time>
      </trkpt>
      <trkpt lat="42.533283" lon="1.584450">
        <ele>1317.26526</ele>
        <time>2021-07-02T11:07:23Z</time>
      </trkpt>
      <trkpt lat="42.533283" lon="1.584450">
        <ele>1317.30713</ele>
        <time>2021-07-02T11:07:24Z</time>
      </trkpt>
      <trkpt lat="42.533283" lon="1.584450">
        <ele>1317.17212</ele>
        <time>2021-07-02T11:07:25Z</time>
      </trkpt>
      <trkpt lat="42.533283" lon="1.584450">
        <ele>1317.19104</ele>
        <time>2021-07-02T11:07:26Z</time>
      </trkpt>
      <trkpt lat="42.533283" lon="1.584450">
        <ele>1317.15515</ele>
        <time>2021-07-02T11:07:27Z</time>
      </trkpt>
      <trkpt lat="42.533283" lon="1.584450">
        <ele>1317.13257</ele>
        <time>2021-07-02T11:07:28Z</time>
      </trkpt>
      <trkpt lat="42.533283" lon="1.584450">
        <ele>1317.24805</ele>
        <time>2021-07-02T11:07:29Z</time>
      </trkpt>
      <trkpt lat="42.533283" lon="1.584450">
        <ele>1317.20496</ele>
        <time>2021-07-02T11:07:30Z</time>
      </trkpt>
      <trkpt lat="42.533283" lon="1.584450">
        <ele>1317.25293</ele>
        <time>2021-07-02T11:07:31Z</time>
      </trkpt>
      <trkpt lat="42.533283" lon="1.584450">
        <ele>1317.19470</ele>
        <time>2021-07-02T11:07:32Z</time>
      </trkpt>
      <trkpt lat="42.533283" lon="1.584450">
        <ele>1317.22595</ele>
        <time>2021-07-02T11:07:33Z</time>
      </trkpt>
      <trkpt lat="42.533283" lon="1.584450">
        <ele>1317.18176</ele>
        <time>2021-07-02T11:17:09Z</time>
      </trkpt>
      <trkpt lat="42.533283" lon="1.584450">
        <ele>1317.18445</ele>
        <time>2021-07-02T11:17:10Z</time>
      </trkpt>
      <trkpt lat="42.533283" lon="1.584450">
        <ele>1317.06775</ele>
        <time>2021-07-02T11:17:11Z</time>
      </trkpt>
      <trkpt lat="42.533283" lon="1.584450">
        <ele>1317.09302</ele>
        <time>2021-07-02T11:17:12Z</time>
      </trkpt>
      <trkpt lat="42.533283" lon="1.584450">
        <ele>1317.06213</ele>
        <time>2021-07-02T11:17:13Z</time>
      </trkpt>
      <trkpt lat="42.533283" lon="1.584450">
        <ele>1317.03467</ele>
        <time>2021-07-02T11:17:14Z</time>
      </trkpt>
      <trkpt lat="42.533283" lon="1.584450">
        <ele>1317.06152</ele>
        <time>2021-07-02T11:17:15Z</time>
      </trkpt>
      <trkpt lat="42.533283" lon="1.584450">
        <ele>1317.08752</ele>
        <time>2021-07-02T11:17:16Z</time>
      </trkpt>
      <trkpt lat="42.533283" lon="1.584450">
        <ele>1317.11853</ele>
        <time>2021-07-02T11:17:17Z</time>
      </trkpt>
      <trkpt lat="42.533283" lon="1.584450">
        <ele>1316.96716</ele>
        <time>2021-07-02T11:17:18Z</time>
      </trkpt>
      <trkpt lat="42.533283" lon="1.584450">
        <ele>1317.00281</ele>
        <time>2021-07-02T11:17:19Z</time>
      </trkpt>
      <trkpt lat="42.533283" lon="1.584450">
        <ele>1316.92334</ele>
        <time>2021-07-02T11:17:20Z</time>
      </trkpt>
      <trkpt lat="42.533283" lon="1.584450">
        <ele>1316.93787</ele>
        <time>2021-07-02T11:17:21Z</time>
      </trkpt>
      <trkpt lat="42.533283" lon="1.584450">
        <ele>1316.81067</ele>
        <time>2021-07-02T11:17:22Z</time>
      </trkpt>
      <trkpt lat="42.533283" lon="1.584450">
        <ele>1316.77075</ele>
        <time>2021-07-02T11:17:23Z</time>
      </trkpt>
      <trkpt lat="42.533283" lon="1.584450">
        <ele>1316.72900</ele>
        <time>2021-07-02T11:17:24Z</time>
      </trkpt>
      <trkpt lat="42.533283" lon="1.584450">
        <ele>1316.66125</ele>
        <time>2021-07-02T11:17:25Z</time>
      </trkpt>
      <trkpt lat="42.533283" lon="1.584450">
        <ele>1316.71753</ele>
        <time>2021-07-02T11:17:26Z</time>
      </trkpt>
      <trkpt lat="42.533283" lon="1.584450">
        <ele>1316.72253</ele>
        <time>2021-07-02T11:17:27Z</time>
      </trkpt>
      <trkpt lat="42.533283" lon="1.584450">
        <ele>1316.60889</ele>
        <time>2021-07-02T11:17:28Z</time>
      </trkpt>
      <trkpt lat="42.533283" lon="1.584450">
        <ele>1316.65063</ele>
        <time>2021-07-02T11:17:29Z</time>
      </trkpt>
      <trkpt lat="42.533283" lon="1.584450">
        <ele>1316.62317</ele>
        <time>2021-07-02T11:17:30Z</time>
      </trkpt>
      <trkpt lat="42.533283" lon="1.584450">
        <ele>1316.56055</ele>
        <time>2021-07-02T11:17:31Z</time>
      </trkpt>
      <trkpt lat="42.533283" lon="1.584450">
        <ele>1316.73743</ele>
        <time>2021-07-02T11:17:32Z</time>
      </trkpt>
      <trkpt lat="42.533283" lon="1.584450">
        <ele>1316.73877</ele>
        <time>2021-07-02T11:17:33Z</time>
      </trkpt>
      <trkpt lat="42.533283" lon="1.584450">
        <ele>1316.74475</ele>
        <time>2021-07-02T11:17:34Z</time>
      </trkpt>
      <trkpt lat="42.533283" lon="1.584450">
        <ele>1316.66895</ele>
        <time>2021-07-02T11:17:35Z</time>
      </trkpt>
      <trkpt lat="42.533283" lon="1.584450">
        <ele>1316.58667</ele>
        <time>2021-07-02T11:17:36Z</time>
      </trkpt>
      <trkpt lat="42.533283" lon="1.584450">
        <ele>1316.56213</ele>
        <time>2021-07-02T11:17:37Z</time>
      </trkpt>
      <trkpt lat="42.533283" lon="1.584450">
        <ele>1316.52271</ele>
        <time>2021-07-02T11:17:38Z</time>
      </trkpt>
      <trkpt lat="42.533283" lon="1.584450">
        <ele>1316.43042</ele>
        <time>2021-07-02T11:17:39Z</time>
      </trkpt>
      <trkpt lat="42.533283" lon="1.584450">
        <ele>1316.38013</ele>
        <time>2021-07-02T11:17:40Z</time>
      </trkpt>
      <trkpt lat="42.533283" lon="1.584450">
        <ele>1316.45923</ele>
        <time>2021-07-02T11:17:41Z</time>
      </trkpt>
      <trkpt lat="42.533283" lon="1.584450">
        <ele>1314.32166</ele>
        <time>2021-07-02T11:17:42Z</time>
      </trkpt>
      <trkpt lat="42.533283" lon="1.584450">
        <ele>1312.54797</ele>
        <time>2021-07-02T11:17:43Z</time>
      </trkpt>
      <trkpt lat="42.533283" lon="1.584450">
        <ele>1311.81116</ele>
        <time>2021-07-02T11:17:44Z</time>
      </trkpt>
      <trkpt lat="42.533283" lon="1.584450">
        <ele>1313.72766</ele>
        <time>2021-07-02T11:17:45Z</time>
      </trkpt>
      <trkpt lat="42.533283" lon="1.584450">
        <ele>1312.36719</ele>
        <time>2021-07-02T11:17:46Z</time>
      </trkpt>
      <trkpt lat="42.533283" lon="1.584450">
        <ele>1311.62207</ele>
        <time>2021-07-02T11:17:47Z</time>
      </trkpt>
      <trkpt lat="42.533283" lon="1.584450">
        <ele>1311.24255</ele>
        <time>2021-07-02T11:17:48Z</time>
      </trkpt>
      <trkpt lat="42.533283" lon="1.584450">
        <ele>1310.89075</ele>
        <time>2021-07-02T11:17:49Z</time>
      </trkpt>
      <trkpt lat="42.533283" lon="1.584450">
        <ele>1310.88391</ele>
        <time>2021-07-02T11:17:50Z</time>
      </trkpt>
      <trkpt lat="42.533283" lon="1.584450">
        <ele>1310.72144</ele>
        <time>2021-07-02T11:17:51Z</time>
      </trkpt>
      <trkpt lat="42.533283" lon="1.584450">
        <ele>1310.66064</ele>
        <time>2021-07-02T11:17:52Z</time>
      </trkpt>
      <trkpt lat="42.533283" lon="1.584450">
        <ele>1312.78687</ele>
        <time>2021-07-02T11:17:53Z</time>
      </trkpt>
      <trkpt lat="42.533283" lon="1.584450">
        <ele>1315.59290</ele>
        <time>2021-07-02T11:17:54Z</time>
      </trkpt>
      <trkpt lat="42.533283" lon="1.584450">
        <ele>1316.66162</ele>
        <time>2021-07-02T11:17:55Z</time>
      </trkpt>
      <trkpt lat="42.533283" lon="1.584450">
        <ele>1316.67566</ele>
        <time>2021-07-02T11:17:56Z</time>
      </trkpt>
      <trkpt lat="42.533283" lon="1.584450">
        <ele>1316.72070</ele>
        <time>2021-07-02T11:17:57Z</time>
      </trkpt>
      <trkpt lat="42.533283" lon="1.584450">
        <ele>1316.61670</ele>
        <time>2021-07-02T11:17:58Z</time>
      </trkpt>
      <trkpt lat="42.533283" lon="1.584450">
        <ele>1316.47485</ele>
        <time>2021-07-02T11:17:59Z</time>
      </trkpt>
      <trkpt lat="42.533283" lon="1.584450">
        <ele>1316.45618</ele>
        <time>2021-07-02T11:18:00Z</time>
      </trkpt>
      <trkpt lat="42.533283" lon="1.584450">
        <ele>1316.44873</ele>
        <time>2021-07-02T11:18:01Z</time>
      </trkpt>
      <trkpt lat="42.533283" lon="1.584450">
        <ele>1313.65869</ele>
        <time>2021-07-02T11:18:02Z</time>
      </trkpt>
      <trkpt lat="42.533283" lon="1.584450">
        <ele>1312.28723</ele>
        <time>2021-07-02T11:18:03Z</time>
      </trkpt>
      <trkpt lat="42.533283" lon="1.584450">
        <ele>1311.53918</ele>
        <time>2021-07-02T11:18:04Z</time>
      </trkpt>
      <trkpt lat="42.533283" lon="1.584450">
        <ele>1313.48804</ele>
        <time>2021-07-02T11:18:05Z</time>
      </trkpt>
      <trkpt lat="42.533283" lon="1.584450">
        <ele>1312.14795</ele>
        <time>2021-07-02T11:18:06Z</time>
      </trkpt>
      <trkpt lat="42.533279" lon="1.584426">
        <ele>1311.30029</ele>
        <time>2021-07-02T11:18:07Z</time>
      </trkpt>
      <trkpt lat="42.533230" lon="1.584377">
        <ele>1310.81189</ele>
        <time>2021-07-02T11:18:08Z</time>
      </trkpt>
      <trkpt lat="42.533215" lon="1.584366">
        <ele>1310.65247</ele>
        <time>2021-07-02T11:18:09Z</time>
      </trkpt>
      <trkpt lat="42.533195" lon="1.584352">
        <ele>1310.56152</ele>
        <time>2021-07-02T11:18:10Z</time>
      </trkpt>
      <trkpt lat="42.533287" lon="1.584474">
        <ele>1310.45044</ele>
        <time>2021-07-02T11:18:11Z</time>
      </trkpt>
      <trkpt lat="42.533287" lon="1.584528">
        <ele>1310.47449</ele>
        <time>2021-07-02T11:18:12Z</time>
      </trkpt>
      <trkpt lat="42.533318" lon="1.584603">
        <ele>1312.80286</ele>
        <time>2021-07-02T11:18:13Z</time>
      </trkpt>
      <trkpt lat="42.533356" lon="1.584646">
        <ele>1315.93506</ele>
        <time>2021-07-02T11:18:14Z</time>
      </trkpt>
      <trkpt lat="42.533363" lon="1.584649">
        <ele>1317.38184</ele>
        <time>2021-07-02T11:18:15Z</time>
      </trkpt>
      <trkpt lat="42.533363" lon="1.584649">
        <ele>1317.36047</ele>
        <time>2021-07-02T11:18:16Z</time>
      </trkpt>
      <trkpt lat="42.533363" lon="1.584649">
        <ele>1315.08716</ele>
        <time>2021-07-02T11:18:17Z</time>
      </trkpt>
      <trkpt lat="42.533363" lon="1.584649">
        <ele>1313.29797</ele>
        <time>2021-07-02T11:18:18Z</time>
      </trkpt>
      <trkpt lat="42.533298" lon="1.584666">
        <ele>1312.17053</ele>
        <time>2021-07-02T11:18:19Z</time>
      </trkpt>
      <trkpt lat="42.533264" lon="1.584633">
        <ele>1311.94592</ele>
        <time>2021-07-02T11:18:20Z</time>
      </trkpt>
      <trkpt lat="42.533226" lon="1.584600">
        <ele>1311.89746</ele>
        <time>2021-07-02T11:18:21Z</time>
      </trkpt>
      <trkpt lat="42.533195" lon="1.584572">
        <ele>1311.96729</ele>
        <time>2021-07-02T11:18:22Z</time>
      </trkpt>
      <trkpt lat="42.533192" lon="1.584568">
        <ele>1312.22107</ele>
        <time>2021-07-02T11:18:23Z</time>
      </trkpt>
      <trkpt lat="42.533192" lon="1.584568">
        <ele>1312.58484</ele>
        <time>2021-07-02T11:18:24Z</time>
      </trkpt>
      <trkpt lat="42.533192" lon="1.584568">
        <ele>1313.04517</ele>
        <time>2021-07-02T11:18:25Z</time>
      </trkpt>
      <trkpt lat="42.533192" lon="1.584568">
        <ele>1312.83533</ele>
        <time>2021-07-02T11:18:26Z</time>
      </trkpt>
      <trkpt lat="42.533192" lon="1.584568">
        <ele>1312.86462</ele>
        <time>2021-07-02T11:18:27Z</time>
      </trkpt>
      <trkpt lat="42.533192" lon="1.584568">
        <ele>1312.86328</ele>
        <time>2021-07-02T11:18:28Z</time>
      </trkpt>
      <trkpt lat="42.533192" lon="1.584568">
        <ele>1312.92566</ele>
        <time>2021-07-02T11:18:29Z</time>
      </trkpt>
      <trkpt lat="42.533192" lon="1.584568">
        <ele>1312.91394</ele>
        <time>2021-07-02T11:18:30Z</time>
      </trkpt>
      <trkpt lat="42.533192" lon="1.584568">
        <ele>1313.56543</ele>
        <time>2021-07-02T11:18:31Z</time>
      </trkpt>
      <trkpt lat="42.533192" lon="1.584568">
        <ele>1313.30920</ele>
        <time>2021-07-02T11:18:32Z</time>
      </trkpt>
      <trkpt lat="42.533192" lon="1.584568">
        <ele>1313.36121</ele>
        <time>2021-07-02T11:18:33Z</time>
      </trkpt>
      <trkpt lat="42.533192" lon="1.584568">
        <ele>1312.93054</ele>
        <time>2021-07-02T11:18:34Z</time>
      </trkpt>
      <trkpt lat="42.533192" lon="1.584568">
        <ele>1312.45386</ele>
        <time>2021-07-02T11:18:35Z</time>
      </trkpt>
      <trkpt lat="42.533188" lon="1.584563">
        <ele>1311.43616</ele>
        <time>2021-07-02T11:18:36Z</time>
      </trkpt>
      <trkpt lat="42.533154" lon="1.584534">
        <ele>1311.34119</ele>
        <time>2021-07-02T11:18:37Z</time>
      </trkpt>
      <trkpt lat="42.533108" lon="1.584492">
        <ele>1311.61682</ele>
        <time>2021-07-02T11:18:38Z</time>
      </trkpt>
      <trkpt lat="42.533020" lon="1.584437">
        <ele>1311.13208</ele>
        <time>2021-07-02T11:18:39Z</time>
      </trkpt>
      <trkpt lat="42.532944" lon="1.584389">
        <ele>1314.90295</ele>
        <time>2021-07-02T11:18:40Z</time>
      </trkpt>
      <trkpt lat="42.532867" lon="1.584328">
        <ele>1313.18164</ele>
        <time>2021-07-02T11:18:41Z</time>
      </trkpt>
      <trkpt lat="42.532867" lon="1.584327">
        <ele>1312.86694</ele>
        <time>2021-07-02T11:18:42Z</time>
      </trkpt>
      <trkpt lat="42.532867" lon="1.584327">
        <ele>1312.26428</ele>
        <time>2021-07-02T11:18:43Z</time>
      </trkpt>
      <trkpt lat="42.532589" lon="1.584214">
        <ele>1311.22058</ele>
        <time>2021-07-02T11:18:44Z</time>
      </trkpt>
      <trkpt lat="42.532524" lon="1.584133">
        <ele>1308.54773</ele>
        <time>2021-07-02T11:18:45Z</time>
      </trkpt>
      <trkpt lat="42.532459" lon="1.584054">
        <ele>1304.97083</ele>
        <time>2021-07-02T11:18:46Z</time>
      </trkpt>
      <trkpt lat="42.532379" lon="1.583952">
        <ele>1304.59290</ele>
        <time>2021-07-02T11:18:47Z</time>
      </trkpt>
      <trkpt lat="42.532303" lon="1.583834">
        <ele>1303.88977</ele>
        <time>2021-07-02T11:18:48Z</time>
      </trkpt>
      <trkpt lat="42.532246" lon="1.583750">
        <ele>1303.60608</ele>
        <time>2021-07-02T11:18:49Z</time>
      </trkpt>
      <trkpt lat="42.532158" lon="1.583618">
        <ele>1301.85571</ele>
        <time>2021-07-02T11:18:50Z</time>
      </trkpt>
      <trkpt lat="42.532078" lon="1.583473">
        <ele>1300.40369</ele>
        <time>2021-07-02T11:18:51Z</time>
      </trkpt>
      <trkpt lat="42.532001" lon="1.583307">
        <ele>1300.24182</ele>
        <time>2021-07-02T11:18:52Z</time>
      </trkpt>
      <trkpt lat="42.531937" lon="1.583134">
        <ele>1300.36353</ele>
        <time>2021-07-02T11:18:53Z</time>
      </trkpt>
      <trkpt lat="42.531883" lon="1.582975">
        <ele>1299.71936</ele>
        <time>2021-07-02T11:18:54Z</time>
      </trkpt>
      <trkpt lat="42.531830" lon="1.582818">
        <ele>1300.66101</ele>
        <time>2021-07-02T11:18:55Z</time>
      </trkpt>
      <trkpt lat="42.531792" lon="1.582651">
        <ele>1300.02051</ele>
        <time>2021-07-02T11:18:56Z</time>
      </trkpt>
      <trkpt lat="42.531757" lon="1.582472">
        <ele>1293.79431</ele>
        <time>2021-07-02T11:18:57Z</time>
      </trkpt>
      <trkpt lat="42.531746" lon="1.582280">
        <ele>1292.42871</ele>
        <time>2021-07-02T11:18:58Z</time>
      </trkpt>
      <trkpt lat="42.531742" lon="1.582117">
        <ele>1289.91113</ele>
        <time>2021-07-02T11:18:59Z</time>
      </trkpt>
      <trkpt lat="42.531742" lon="1.581938">
        <ele>1288.36243</ele>
        <time>2021-07-02T11:19:00Z</time>
      </trkpt>
      <trkpt lat="42.531746" lon="1.581778">
        <ele>1285.90100</ele>
        <time>2021-07-02T11:19:01Z</time>
      </trkpt>
      <trkpt lat="42.531750" lon="1.581597">
        <ele>1285.12292</ele>
        <time>2021-07-02T11:19:02Z</time>
      </trkpt>
      <trkpt lat="42.531757" lon="1.581406">
        <ele>1283.68127</ele>
        <time>2021-07-02T11:19:03Z</time>
      </trkpt>
      <trkpt lat="42.531761" lon="1.581241">
        <ele>1283.21826</ele>
        <time>2021-07-02T11:19:04Z</time>
      </trkpt>
      <trkpt lat="42.531765" lon="1.581089">
        <ele>1282.89636</ele>
        <time>2021-07-02T11:19:05Z</time>
      </trkpt>
      <trkpt lat="42.531765" lon="1.580929">
        <ele>1281.84912</ele>
        <time>2021-07-02T11:19:06Z</time>
      </trkpt>
      <trkpt lat="42.531761" lon="1.580758">
        <ele>1281.25122</ele>
        <time>2021-07-02T11:19:07Z</time>
      </trkpt>
      <trkpt lat="42.531761" lon="1.580613">
        <ele>1280.42188</ele>
        <time>2021-07-02T11:19:08Z</time>
      </trkpt>
      <trkpt lat="42.531757" lon="1.580460">
        <ele>1279.42273</ele>
        <time>2021-07-02T11:19:09Z</time>
      </trkpt>
      <trkpt lat="42.531757" lon="1.580460">
        <ele>1278.26062</ele>
        <time>2021-07-02T11:19:10Z</time>
      </trkpt>
      <trkpt lat="42.531757" lon="1.580333">
        <ele>1278.21399</ele>
        <time>2021-07-02T11:19:11Z</time>
      </trkpt>
      <trkpt lat="42.531754" lon="1.580225">
        <ele>1278.19226</ele>
        <time>2021-07-02T11:19:12Z</time>
      </trkpt>
      <trkpt lat="42.531754" lon="1.580110">
        <ele>1278.09692</ele>
        <time>2021-07-02T11:19:13Z</time>
      </trkpt>
      <trkpt lat="42.531750" lon="1.580022">
        <ele>1277.53357</ele>
        <time>2021-07-02T11:19:14Z</time>
      </trkpt>
      <trkpt lat="42.531754" lon="1.579986">
        <ele>1276.03394</ele>
        <time>2021-07-02T11:19:15Z</time>
      </trkpt>
      <trkpt lat="42.531776" lon="1.579972">
        <ele>1274.01233</ele>
        <time>2021-07-02T11:19:16Z</time>
      </trkpt>
      <trkpt lat="42.531776" lon="1.579972">
        <ele>1274.52332</ele>
        <time>2021-07-02T11:19:17Z</time>
      </trkpt>
      <trkpt lat="42.531776" lon="1.579972">
        <ele>1276.03491</ele>
        <time>2021-07-02T11:19:18Z</time>
      </trkpt>
      <trkpt lat="42.531826" lon="1.579849">
        <ele>1278.84351</ele>
        <time>2021-07-02T11:19:19Z</time>
      </trkpt>
      <trkpt lat="42.531750" lon="1.579697">
        <ele>1278.80029</ele>
        <time>2021-07-02T11:19:20Z</time>
      </trkpt>
      <trkpt lat="42.531742" lon="1.579451">
        <ele>1278.87915</ele>
        <time>2021-07-02T11:19:21Z</time>
      </trkpt>
      <trkpt lat="42.531738" lon="1.578998">
        <ele>1278.89062</ele>
        <time>2021-07-02T11:19:22Z</time>
      </trkpt>
      <trkpt lat="42.531734" lon="1.578830">
        <ele>1278.42102</ele>
        <time>2021-07-02T11:19:23Z</time>
      </trkpt>
      <trkpt lat="42.531731" lon="1.578658">
        <ele>1278.02136</ele>
        <time>2021-07-02T11:19:24Z</time>
      </trkpt>
      <trkpt lat="42.531727" lon="1.578502">
        <ele>1276.67078</ele>
        <time>2021-07-02T11:19:25Z</time>
      </trkpt>
      <trkpt lat="42.531723" lon="1.578329">
        <ele>1276.21179</ele>
        <time>2021-07-02T11:19:26Z</time>
      </trkpt>
      <trkpt lat="42.531719" lon="1.578165">
        <ele>1276.16431</ele>
        <time>2021-07-02T11:19:27Z</time>
      </trkpt>
      <trkpt lat="42.531719" lon="1.578000">
        <ele>1274.84375</ele>
        <time>2021-07-02T11:19:28Z</time>
      </trkpt>
      <trkpt lat="42.531715" lon="1.577832">
        <ele>1273.76221</ele>
        <time>2021-07-02T11:19:29Z</time>
      </trkpt>
      <trkpt lat="42.531704" lon="1.577656">
        <ele>1273.14026</ele>
        <time>2021-07-02T11:19:30Z</time>
      </trkpt>
      <trkpt lat="42.531685" lon="1.577483">
        <ele>1272.92529</ele>
        <time>2021-07-02T11:19:31Z</time>
      </trkpt>
      <trkpt lat="42.531670" lon="1.577313">
        <ele>1272.35803</ele>
        <time>2021-07-02T11:19:32Z</time>
      </trkpt>
      <trkpt lat="42.531651" lon="1.577140">
        <ele>1272.37170</ele>
        <time>2021-07-02T11:19:33Z</time>
      </trkpt>
      <trkpt lat="42.531631" lon="1.576973">
        <ele>1272.05054</ele>
        <time>2021-07-02T11:19:34Z</time>
      </trkpt>
      <trkpt lat="42.531612" lon="1.576806">
        <ele>1271.72729</ele>
        <time>2021-07-02T11:19:35Z</time>
      </trkpt>
      <trkpt lat="42.531597" lon="1.576642">
        <ele>1272.40576</ele>
        <time>2021-07-02T11:19:36Z</time>
      </trkpt>
      <trkpt lat="42.531578" lon="1.576486">
        <ele>1271.96008</ele>
        <time>2021-07-02T11:19:37Z</time>
      </trkpt>
      <trkpt lat="42.531555" lon="1.576319">
        <ele>1272.19202</ele>
        <time>2021-07-02T11:19:38Z</time>
      </trkpt>
      <trkpt lat="42.531536" lon="1.576178">
        <ele>1271.94031</ele>
        <time>2021-07-02T11:19:39Z</time>
      </trkpt>
      <trkpt lat="42.531513" lon="1.576023">
        <ele>1271.42590</ele>
        <time>2021-07-02T11:19:40Z</time>
      </trkpt>
      <trkpt lat="42.531490" lon="1.575858">
        <ele>1270.46106</ele>
        <time>2021-07-02T11:19:41Z</time>
      </trkpt>
      <trkpt lat="42.531467" lon="1.575688">
        <ele>1270.03967</ele>
        <time>2021-07-02T11:19:42Z</time>
      </trkpt>
      <trkpt lat="42.531437" lon="1.575515">
        <ele>1269.44055</ele>
        <time>2021-07-02T11:19:43Z</time>
      </trkpt>
      <trkpt lat="42.531403" lon="1.575340">
        <ele>1267.95776</ele>
        <time>2021-07-02T11:19:44Z</time>
      </trkpt>
      <trkpt lat="42.531368" lon="1.575168">
        <ele>1267.52087</ele>
        <time>2021-07-02T11:19:45Z</time>
      </trkpt>
      <trkpt lat="42.531368" lon="1.575168">
        <ele>1267.22546</ele>
        <time>2021-07-02T11:19:46Z</time>
      </trkpt>
      <trkpt lat="42.531326" lon="1.574989">
        <ele>1266.30920</ele>
        <time>2021-07-02T11:19:47Z</time>
      </trkpt>
      <trkpt lat="42.531277" lon="1.574819">
        <ele>1264.83630</ele>
        <time>2021-07-02T11:19:48Z</time>
      </trkpt>
      <trkpt lat="42.531216" lon="1.574652">
        <ele>1263.37158</ele>
        <time>2021-07-02T11:19:49Z</time>
      </trkpt>
      <trkpt lat="42.531143" lon="1.574501">
        <ele>1261.97290</ele>
        <time>2021-07-02T11:19:50Z</time>
      </trkpt>
      <trkpt lat="42.531067" lon="1.574344">
        <ele>1259.67310</ele>
        <time>2021-07-02T11:19:51Z</time>
      </trkpt>
      <trkpt lat="42.530994" lon="1.574196">
        <ele>1258.21069</ele>
        <time>2021-07-02T11:19:52Z</time>
      </trkpt>
      <trkpt lat="42.530914" lon="1.574066">
        <ele>1256.10205</ele>
        <time>2021-07-02T11:19:53Z</time>
      </trkpt>
      <trkpt lat="42.530838" lon="1.573954">
        <ele>1253.84338</ele>
        <time>2021-07-02T11:19:54Z</time>
      </trkpt>
      <trkpt lat="42.530762" lon="1.573844">
        <ele>1253.11938</ele>
        <time>2021-07-02T11:19:55Z</time>
      </trkpt>
      <trkpt lat="42.530682" lon="1.573753">
        <ele>1252.45728</ele>
        <time>2021-07-02T11:19:56Z</time>
      </trkpt>
      <trkpt lat="42.530582" lon="1.573652">
        <ele>1251.43103</ele>
        <time>2021-07-02T11:19:57Z</time>
      </trkpt>
      <trkpt lat="42.530464" lon="1.573580">
        <ele>1248.63025</ele>
        <time>2021-07-02T11:19:58Z</time>
      </trkpt>
      <trkpt lat="42.530346" lon="1.573506">
        <ele>1247.95715</ele>
        <time>2021-07-02T11:19:59Z</time>
      </trkpt>
      <trkpt lat="42.530243" lon="1.573438">
        <ele>1245.00500</ele>
        <time>2021-07-02T11:20:00Z</time>
      </trkpt>
      <trkpt lat="42.530144" lon="1.573368">
        <ele>1243.93933</ele>
        <time>2021-07-02T11:20:01Z</time>
      </trkpt>
      <trkpt lat="42.530037" lon="1.573295">
        <ele>1242.54260</ele>
        <time>2021-07-02T11:20:02Z</time>
      </trkpt>
      <trkpt lat="42.529926" lon="1.573213">
        <ele>1240.67566</ele>
        <time>2021-07-02T11:20:03Z</time>
      </trkpt>
      <trkpt lat="42.529804" lon="1.573111">
        <ele>1240.31873</ele>
        <time>2021-07-02T11:20:04Z</time>
      </trkpt>
      <trkpt lat="42.529701" lon="1.572968">
        <ele>1238.01428</ele>
        <time>2021-07-02T11:20:05Z</time>
      </trkpt>
      <trkpt lat="42.529606" lon="1.572820">
        <ele>1236.95569</ele>
        <time>2021-07-02T11:20:06Z</time>
      </trkpt>
      <trkpt lat="42.529510" lon="1.572673">
        <ele>1236.98840</ele>
        <time>2021-07-02T11:20:07Z</time>
      </trkpt>
      <trkpt lat="42.529427" lon="1.572526">
        <ele>1235.65173</ele>
        <time>2021-07-02T11:20:08Z</time>
      </trkpt>
      <trkpt lat="42.529373" lon="1.572350">
        <ele>1235.82898</ele>
        <time>2021-07-02T11:20:09Z</time>
      </trkpt>
      <trkpt lat="42.529339" lon="1.572192">
        <ele>1236.18506</ele>
        <time>2021-07-02T11:20:10Z</time>
      </trkpt>
      <trkpt lat="42.529316" lon="1.572064">
        <ele>1234.12158</ele>
        <time>2021-07-02T11:20:11Z</time>
      </trkpt>
      <trkpt lat="42.529308" lon="1.572006">
        <ele>1233.71533</ele>
        <time>2021-07-02T11:20:12Z</time>
      </trkpt>
      <trkpt lat="42.529305" lon="1.571951">
        <ele>1234.09534</ele>
        <time>2021-07-02T11:20:13Z</time>
      </trkpt>
      <trkpt lat="42.529305" lon="1.571837">
        <ele>1233.67236</ele>
        <time>2021-07-02T11:20:14Z</time>
      </trkpt>
      <trkpt lat="42.529305" lon="1.571821">
        <ele>1233.74072</ele>
        <time>2021-07-02T11:20:15Z</time>
      </trkpt>
      <trkpt lat="42.529301" lon="1.571744">
        <ele>1234.09607</ele>
        <time>2021-07-02T11:20:16Z</time>
      </trkpt>
      <trkpt lat="42.529301" lon="1.571655">
        <ele>1233.49695</ele>
        <time>2021-07-02T11:20:17Z</time>
      </trkpt>
      <trkpt lat="42.529438" lon="1.571538">
        <ele>1234.10059</ele>
        <time>2021-07-02T11:20:18Z</time>
      </trkpt>
      <trkpt lat="42.529453" lon="1.571480">
        <ele>1233.76514</ele>
        <time>2021-07-02T11:20:19Z</time>
      </trkpt>
      <trkpt lat="42.529461" lon="1.571430">
        <ele>1234.55957</ele>
        <time>2021-07-02T11:20:20Z</time>
      </trkpt>
      <trkpt lat="42.529453" lon="1.571371">
        <ele>1235.20117</ele>
        <time>2021-07-02T11:20:21Z</time>
      </trkpt>
      <trkpt lat="42.529377" lon="1.571271">
        <ele>1234.47534</ele>
        <time>2021-07-02T11:20:22Z</time>
      </trkpt>
      <trkpt lat="42.529369" lon="1.571266">
        <ele>1234.53101</ele>
        <time>2021-07-02T11:20:23Z</time>
      </trkpt>
      <trkpt lat="42.529369" lon="1.571266">
        <ele>1233.96997</ele>
        <time>2021-07-02T11:20:24Z</time>
      </trkpt>
      <trkpt lat="42.529327" lon="1.571255">
        <ele>1232.97095</ele>
        <time>2021-07-02T11:20:25Z</time>
      </trkpt>
      <trkpt lat="42.529209" lon="1.571346">
        <ele>1232.60229</ele>
        <time>2021-07-02T11:20:26Z</time>
      </trkpt>
      <trkpt lat="42.529209" lon="1.571347">
        <ele>1232.69946</ele>
        <time>2021-07-02T11:20:27Z</time>
      </trkpt>
      <trkpt lat="42.529209" lon="1.571347">
        <ele>1231.58203</ele>
        <time>2021-07-02T11:20:28Z</time>
      </trkpt>
      <trkpt lat="42.529091" lon="1.571216">
        <ele>1231.28882</ele>
        <time>2021-07-02T11:20:29Z</time>
      </trkpt>
      <trkpt lat="42.528866" lon="1.570933">
        <ele>1231.88953</ele>
        <time>2021-07-02T11:20:30Z</time>
      </trkpt>
      <trkpt lat="42.528812" lon="1.570864">
        <ele>1238.14111</ele>
        <time>2021-07-02T11:20:31Z</time>
      </trkpt>
      <trkpt lat="42.528748" lon="1.570786">
        <ele>1237.00940</ele>
        <time>2021-07-02T11:20:32Z</time>
      </trkpt>
      <trkpt lat="42.528706" lon="1.570718">
        <ele>1236.45154</ele>
        <time>2021-07-02T11:20:33Z</time>
      </trkpt>
      <trkpt lat="42.528667" lon="1.570654">
        <ele>1235.64233</ele>
        <time>2021-07-02T11:20:34Z</time>
      </trkpt>
      <trkpt lat="42.528622" lon="1.570577">
        <ele>1235.27234</ele>
        <time>2021-07-02T11:20:35Z</time>
      </trkpt>
      <trkpt lat="42.528580" lon="1.570510">
        <ele>1234.48120</ele>
        <time>2021-07-02T11:20:36Z</time>
      </trkpt>
      <trkpt lat="42.528530" lon="1.570433">
        <ele>1233.80054</ele>
        <time>2021-07-02T11:20:37Z</time>
      </trkpt>
      <trkpt lat="42.528488" lon="1.570360">
        <ele>1232.93921</ele>
        <time>2021-07-02T11:20:38Z</time>
      </trkpt>
      <trkpt lat="42.528442" lon="1.570291">
        <ele>1232.96643</ele>
        <time>2021-07-02T11:20:39Z</time>
      </trkpt>
      <trkpt lat="42.528393" lon="1.570220">
        <ele>1232.70947</ele>
        <time>2021-07-02T11:20:40Z</time>
      </trkpt>
      <trkpt lat="42.528343" lon="1.570150">
        <ele>1230.65332</ele>
        <time>2021-07-02T11:20:41Z</time>
      </trkpt>
      <trkpt lat="42.528294" lon="1.570083">
        <ele>1229.18958</ele>
        <time>2021-07-02T11:20:42Z</time>
      </trkpt>
      <trkpt lat="42.528248" lon="1.570015">
        <ele>1228.73413</ele>
        <time>2021-07-02T11:20:43Z</time>
      </trkpt>
      <trkpt lat="42.527946" lon="1.569599">
        <ele>1228.30713</ele>
        <time>2021-07-02T11:20:44Z</time>
      </trkpt>
      <trkpt lat="42.527702" lon="1.569260">
        <ele>1227.37476</ele>
        <time>2021-07-02T11:20:45Z</time>
      </trkpt>
      <trkpt lat="42.527649" lon="1.569155">
        <ele>1226.00916</ele>
        <time>2021-07-02T11:20:46Z</time>
      </trkpt>
      <trkpt lat="42.527592" lon="1.569034">
        <ele>1225.59875</ele>
        <time>2021-07-02T11:20:47Z</time>
      </trkpt>
      <trkpt lat="42.527527" lon="1.568893">
        <ele>1224.57666</ele>
        <time>2021-07-02T11:20:48Z</time>
      </trkpt>
      <trkpt lat="42.527470" lon="1.568759">
        <ele>1223.44019</ele>
        <time>2021-07-02T11:20:49Z</time>
      </trkpt>
      <trkpt lat="42.527409" lon="1.568616">
        <ele>1222.61389</ele>
        <time>2021-07-02T11:20:50Z</time>
      </trkpt>
      <trkpt lat="42.527344" lon="1.568465">
        <ele>1222.13660</ele>
        <time>2021-07-02T11:20:51Z</time>
      </trkpt>
      <trkpt lat="42.527287" lon="1.568322">
        <ele>1220.82629</ele>
        <time>2021-07-02T11:20:52Z</time>
      </trkpt>
      <trkpt lat="42.527225" lon="1.568184">
        <ele>1219.94763</ele>
        <time>2021-07-02T11:20:53Z</time>
      </trkpt>
      <trkpt lat="42.527164" lon="1.568041">
        <ele>1219.29895</ele>
        <time>2021-07-02T11:20:54Z</time>
      </trkpt>
      <trkpt lat="42.527107" lon="1.567909">
        <ele>1218.68958</ele>
        <time>2021-07-02T11:20:55Z</time>
      </trkpt>
      <trkpt lat="42.527107" lon="1.567909">
        <ele>1217.60474</ele>
        <time>2021-07-02T11:20:56Z</time>
      </trkpt>
      <trkpt lat="42.527042" lon="1.567803">
        <ele>1217.05139</ele>
        <time>2021-07-02T11:20:57Z</time>
      </trkpt>
      <trkpt lat="42.526970" lon="1.567703">
        <ele>1216.29651</ele>
        <time>2021-07-02T11:20:58Z</time>
      </trkpt>
      <trkpt lat="42.526901" lon="1.567615">
        <ele>1215.07129</ele>
        <time>2021-07-02T11:20:59Z</time>
      </trkpt>
      <trkpt lat="42.526863" lon="1.567569">
        <ele>1209.70850</ele>
        <time>2021-07-02T11:21:00Z</time>
      </trkpt>
      <trkpt lat="42.526855" lon="1.567558">
        <ele>1208.90942</ele>
        <time>2021-07-02T11:21:01Z</time>
      </trkpt>
      <trkpt lat="42.526852" lon="1.567554">
        <ele>1208.27112</ele>
        <time>2021-07-02T11:21:02Z</time>
      </trkpt>
      <trkpt lat="42.526852" lon="1.567552">
        <ele>1207.83044</ele>
        <time>2021-07-02T11:21:03Z</time>
      </trkpt>
      <trkpt lat="42.526829" lon="1.567525">
        <ele>1207.83252</ele>
        <time>2021-07-02T11:21:04Z</time>
      </trkpt>
      <trkpt lat="42.526783" lon="1.567468">
        <ele>1207.98206</ele>
        <time>2021-07-02T11:21:05Z</time>
      </trkpt>
      <trkpt lat="42.526737" lon="1.567411">
        <ele>1207.87317</ele>
        <time>2021-07-02T11:21:06Z</time>
      </trkpt>
      <trkpt lat="42.526672" lon="1.567330">
        <ele>1207.42407</ele>
        <time>2021-07-02T11:21:07Z</time>
      </trkpt>
      <trkpt lat="42.526608" lon="1.567247">
        <ele>1207.35168</ele>
        <time>2021-07-02T11:21:08Z</time>
      </trkpt>
      <trkpt lat="42.526543" lon="1.567168">
        <ele>1207.28271</ele>
        <time>2021-07-02T11:21:09Z</time>
      </trkpt>
      <trkpt lat="42.526482" lon="1.567092">
        <ele>1206.70801</ele>
        <time>2021-07-02T11:21:10Z</time>
      </trkpt>
      <trkpt lat="42.526394" lon="1.566979">
        <ele>1205.32361</ele>
        <time>2021-07-02T11:21:11Z</time>
      </trkpt>
      <trkpt lat="42.526295" lon="1.566855">
        <ele>1204.54321</ele>
        <time>2021-07-02T11:21:12Z</time>
      </trkpt>
      <trkpt lat="42.526199" lon="1.566729">
        <ele>1203.23413</ele>
        <time>2021-07-02T11:21:13Z</time>
      </trkpt>
      <trkpt lat="42.526104" lon="1.566597">
        <ele>1203.84448</ele>
        <time>2021-07-02T11:21:14Z</time>
      </trkpt>
      <trkpt lat="42.526005" lon="1.566461">
        <ele>1199.74573</ele>
        <time>2021-07-02T11:21:15Z</time>
      </trkpt>
      <trkpt lat="42.525913" lon="1.566331">
        <ele>1198.78674</ele>
        <time>2021-07-02T11:21:16Z</time>
      </trkpt>
      <trkpt lat="42.525814" lon="1.566197">
        <ele>1199.68933</ele>
        <time>2021-07-02T11:21:17Z</time>
      </trkpt>
      <trkpt lat="42.525719" lon="1.566037">
        <ele>1199.20166</ele>
        <time>2021-07-02T11:21:18Z</time>
      </trkpt>
      <trkpt lat="42.525620" lon="1.565867">
        <ele>1198.52429</ele>
        <time>2021-07-02T11:21:19Z</time>
      </trkpt>
      <trkpt lat="42.525539" lon="1.565694">
        <ele>1198.14514</ele>
        <time>2021-07-02T11:21:20Z</time>
      </trkpt>
      <trkpt lat="42.525452" lon="1.565499">
        <ele>1196.39453</ele>
        <time>2021-07-02T11:21:21Z</time>
      </trkpt>
      <trkpt lat="42.525375" lon="1.565317">
        <ele>1196.31714</ele>
        <time>2021-07-02T11:21:22Z</time>
      </trkpt>
      <trkpt lat="42.525322" lon="1.565161">
        <ele>1193.65137</ele>
        <time>2021-07-02T11:21:23Z</time>
      </trkpt>
      <trkpt lat="42.525272" lon="1.565014">
        <ele>1192.87463</ele>
        <time>2021-07-02T11:21:24Z</time>
      </trkpt>
      <trkpt lat="42.525227" lon="1.564891">
        <ele>1191.29993</ele>
        <time>2021-07-02T11:21:25Z</time>
      </trkpt>
      <trkpt lat="42.525192" lon="1.564780">
        <ele>1191.03748</ele>
        <time>2021-07-02T11:21:26Z</time>
      </trkpt>
      <trkpt lat="42.525185" lon="1.564695">
        <ele>1191.10474</ele>
        <time>2021-07-02T11:21:27Z</time>
      </trkpt>
      <trkpt lat="42.525181" lon="1.564620">
        <ele>1190.92493</ele>
        <time>2021-07-02T11:21:28Z</time>
      </trkpt>
      <trkpt lat="42.525185" lon="1.564522">
        <ele>1191.09546</ele>
        <time>2021-07-02T11:21:29Z</time>
      </trkpt>
      <trkpt lat="42.525307" lon="1.564438">
        <ele>1190.72742</ele>
        <time>2021-07-02T11:21:30Z</time>
      </trkpt>
      <trkpt lat="42.525333" lon="1.564353">
        <ele>1191.07788</ele>
        <time>2021-07-02T11:21:31Z</time>
      </trkpt>
      <trkpt lat="42.525333" lon="1.564261">
        <ele>1191.30664</ele>
        <time>2021-07-02T11:21:32Z</time>
      </trkpt>
      <trkpt lat="42.525330" lon="1.564250">
        <ele>1191.19739</ele>
        <time>2021-07-02T11:21:33Z</time>
      </trkpt>
      <trkpt lat="42.525173" lon="1.564115">
        <ele>1192.36755</ele>
        <time>2021-07-02T11:21:34Z</time>
      </trkpt>
      <trkpt lat="42.525082" lon="1.564134">
        <ele>1192.35034</ele>
        <time>2021-07-02T11:21:35Z</time>
      </trkpt>
      <trkpt lat="42.525040" lon="1.564183">
        <ele>1191.97839</ele>
        <time>2021-07-02T11:21:36Z</time>
      </trkpt>
      <trkpt lat="42.525040" lon="1.564183">
        <ele>1192.10059</ele>
        <time>2021-07-02T11:21:37Z</time>
      </trkpt>
      <trkpt lat="42.525005" lon="1.564125">
        <ele>1192.78796</ele>
        <time>2021-07-02T11:21:38Z</time>
      </trkpt>
      <trkpt lat="42.525005" lon="1.564125">
        <ele>1191.45056</ele>
        <time>2021-07-02T11:21:39Z</time>
      </trkpt>
      <trkpt lat="42.524845" lon="1.563709">
        <ele>1191.08362</ele>
        <time>2021-07-02T11:21:40Z</time>
      </trkpt>
      <trkpt lat="42.524803" lon="1.563583">
        <ele>1189.53064</ele>
        <time>2021-07-02T11:21:41Z</time>
      </trkpt>
      <trkpt lat="42.524757" lon="1.563442">
        <ele>1188.88855</ele>
        <time>2021-07-02T11:21:42Z</time>
      </trkpt>
      <trkpt lat="42.524715" lon="1.563315">
        <ele>1188.90625</ele>
        <time>2021-07-02T11:21:43Z</time>
      </trkpt>
      <trkpt lat="42.524677" lon="1.563196">
        <ele>1188.92102</ele>
        <time>2021-07-02T11:21:44Z</time>
      </trkpt>
      <trkpt lat="42.524643" lon="1.563095">
        <ele>1189.06140</ele>
        <time>2021-07-02T11:21:45Z</time>
      </trkpt>
      <trkpt lat="42.524609" lon="1.562984">
        <ele>1188.67493</ele>
        <time>2021-07-02T11:21:46Z</time>
      </trkpt>
      <trkpt lat="42.524555" lon="1.562870">
        <ele>1188.65723</ele>
        <time>2021-07-02T11:21:47Z</time>
      </trkpt>
      <trkpt lat="42.524479" lon="1.562745">
        <ele>1188.42957</ele>
        <time>2021-07-02T11:21:48Z</time>
      </trkpt>
      <trkpt lat="42.524399" lon="1.562633">
        <ele>1187.66077</ele>
        <time>2021-07-02T11:21:49Z</time>
      </trkpt>
      <trkpt lat="42.524323" lon="1.562524">
        <ele>1186.97729</ele>
        <time>2021-07-02T11:21:50Z</time>
      </trkpt>
      <trkpt lat="42.524216" lon="1.562421">
        <ele>1186.64294</ele>
        <time>2021-07-02T11:21:51Z</time>
      </trkpt>
      <trkpt lat="42.524128" lon="1.562340">
        <ele>1186.55359</ele>
        <time>2021-07-02T11:21:52Z</time>
      </trkpt>
      <trkpt lat="42.524029" lon="1.562252">
        <ele>1188.09937</ele>
        <time>2021-07-02T11:21:53Z</time>
      </trkpt>
      <trkpt lat="42.523937" lon="1.562172">
        <ele>1187.55627</ele>
        <time>2021-07-02T11:21:54Z</time>
      </trkpt>
      <trkpt lat="42.523849" lon="1.562093">
        <ele>1187.85742</ele>
        <time>2021-07-02T11:21:55Z</time>
      </trkpt>
      <trkpt lat="42.523773" lon="1.562026">
        <ele>1187.42078</ele>
        <time>2021-07-02T11:21:56Z</time>
      </trkpt>
      <trkpt lat="42.523708" lon="1.561971">
        <ele>1185.82776</ele>
        <time>2021-07-02T11:21:57Z</time>
      </trkpt>
      <trkpt lat="42.523655" lon="1.561922">
        <ele>1185.99023</ele>
        <time>2021-07-02T11:21:58Z</time>
      </trkpt>
      <trkpt lat="42.523609" lon="1.561881">
        <ele>1185.09497</ele>
        <time>2021-07-02T11:21:59Z</time>
      </trkpt>
      <trkpt lat="42.523552" lon="1.561831">
        <ele>1184.68994</ele>
        <time>2021-07-02T11:22:00Z</time>
      </trkpt>
      <trkpt lat="42.523502" lon="1.561788">
        <ele>1184.13464</ele>
        <time>2021-07-02T11:22:01Z</time>
      </trkpt>
      <trkpt lat="42.523445" lon="1.561738">
        <ele>1183.86865</ele>
        <time>2021-07-02T11:22:02Z</time>
      </trkpt>
      <trkpt lat="42.523418" lon="1.561713">
        <ele>1183.52478</ele>
        <time>2021-07-02T11:22:03Z</time>
      </trkpt>
      <trkpt lat="42.523369" lon="1.561670">
        <ele>1183.37817</ele>
        <time>2021-07-02T11:22:04Z</time>
      </trkpt>
      <trkpt lat="42.523300" lon="1.561612">
        <ele>1181.94849</ele>
        <time>2021-07-02T11:22:05Z</time>
      </trkpt>
      <trkpt lat="42.523251" lon="1.561567">
        <ele>1181.89490</ele>
        <time>2021-07-02T11:22:06Z</time>
      </trkpt>
      <trkpt lat="42.523167" lon="1.561492">
        <ele>1181.46338</ele>
        <time>2021-07-02T11:22:07Z</time>
      </trkpt>
      <trkpt lat="42.523094" lon="1.561411">
        <ele>1181.86377</ele>
        <time>2021-07-02T11:22:08Z</time>
      </trkpt>
      <trkpt lat="42.523029" lon="1.561331">
        <ele>1181.10852</ele>
        <time>2021-07-02T11:22:09Z</time>
      </trkpt>
      <trkpt lat="42.522961" lon="1.561246">
        <ele>1179.14282</ele>
        <time>2021-07-02T11:22:10Z</time>
      </trkpt>
      <trkpt lat="42.522865" lon="1.561132">
        <ele>1179.36633</ele>
        <time>2021-07-02T11:22:11Z</time>
      </trkpt>
      <trkpt lat="42.522789" lon="1.561035">
        <ele>1180.15161</ele>
        <time>2021-07-02T11:22:12Z</time>
      </trkpt>
      <trkpt lat="42.522705" lon="1.560933">
        <ele>1179.09692</ele>
        <time>2021-07-02T11:22:13Z</time>
      </trkpt>
      <trkpt lat="42.522644" lon="1.560825">
        <ele>1178.99463</ele>
        <time>2021-07-02T11:22:14Z</time>
      </trkpt>
      <trkpt lat="42.522579" lon="1.560710">
        <ele>1179.18896</ele>
        <time>2021-07-02T11:22:15Z</time>
      </trkpt>
      <trkpt lat="42.522530" lon="1.560605">
        <ele>1179.18445</ele>
        <time>2021-07-02T11:22:16Z</time>
      </trkpt>
      <trkpt lat="42.522472" lon="1.560492">
        <ele>1178.95654</ele>
        <time>2021-07-02T11:22:17Z</time>
      </trkpt>
      <trkpt lat="42.522415" lon="1.560379">
        <ele>1178.29834</ele>
        <time>2021-07-02T11:22:18Z</time>
      </trkpt>
      <trkpt lat="42.522358" lon="1.560259">
        <ele>1178.48291</ele>
        <time>2021-07-02T11:22:19Z</time>
      </trkpt>
      <trkpt lat="42.522308" lon="1.560163">
        <ele>1177.79260</ele>
        <time>2021-07-02T11:22:20Z</time>
      </trkpt>
      <trkpt lat="42.522251" lon="1.560052">
        <ele>1178.42566</ele>
        <time>2021-07-02T11:22:21Z</time>
      </trkpt>
      <trkpt lat="42.522194" lon="1.559942">
        <ele>1177.13965</ele>
        <time>2021-07-02T11:22:22Z</time>
      </trkpt>
      <trkpt lat="42.522133" lon="1.559823">
        <ele>1177.15491</ele>
        <time>2021-07-02T11:22:23Z</time>
      </trkpt>
      <trkpt lat="42.522064" lon="1.559698">
        <ele>1177.98486</ele>
        <time>2021-07-02T11:22:24Z</time>
      </trkpt>
      <trkpt lat="42.522064" lon="1.559698">
        <ele>1179.05884</ele>
        <time>2021-07-02T11:22:25Z</time>
      </trkpt>
      <trkpt lat="42.522007" lon="1.559593">
        <ele>1178.53650</ele>
        <time>2021-07-02T11:22:26Z</time>
      </trkpt>
      <trkpt lat="42.521935" lon="1.559488">
        <ele>1179.60071</ele>
        <time>2021-07-02T11:22:27Z</time>
      </trkpt>
      <trkpt lat="42.521866" lon="1.559392">
        <ele>1179.32751</ele>
        <time>2021-07-02T11:22:28Z</time>
      </trkpt>
      <trkpt lat="42.521790" lon="1.559293">
        <ele>1179.36047</ele>
        <time>2021-07-02T11:22:29Z</time>
      </trkpt>
      <trkpt lat="42.521709" lon="1.559176">
        <ele>1179.34973</ele>
        <time>2021-07-02T11:22:30Z</time>
      </trkpt>
      <trkpt lat="42.521633" lon="1.559072">
        <ele>1182.17053</ele>
        <time>2021-07-02T11:22:31Z</time>
      </trkpt>
      <trkpt lat="42.521549" lon="1.558975">
        <ele>1180.02283</ele>
        <time>2021-07-02T11:22:32Z</time>
      </trkpt>
      <trkpt lat="42.521458" lon="1.558871">
        <ele>1180.26257</ele>
        <time>2021-07-02T11:22:33Z</time>
      </trkpt>
      <trkpt lat="42.521370" lon="1.558770">
        <ele>1178.77356</ele>
        <time>2021-07-02T11:22:34Z</time>
      </trkpt>
      <trkpt lat="42.521263" lon="1.558646">
        <ele>1178.69373</ele>
        <time>2021-07-02T11:22:35Z</time>
      </trkpt>
      <trkpt lat="42.521172" lon="1.558539">
        <ele>1176.73792</ele>
        <time>2021-07-02T11:22:36Z</time>
      </trkpt>
      <trkpt lat="42.521057" lon="1.558414">
        <ele>1176.25403</ele>
        <time>2021-07-02T11:22:37Z</time>
      </trkpt>
      <trkpt lat="42.520958" lon="1.558301">
        <ele>1175.34583</ele>
        <time>2021-07-02T11:22:38Z</time>
      </trkpt>
      <trkpt lat="42.520866" lon="1.558197">
        <ele>1174.11499</ele>
        <time>2021-07-02T11:22:39Z</time>
      </trkpt>
      <trkpt lat="42.520767" lon="1.558087">
        <ele>1173.76782</ele>
        <time>2021-07-02T11:22:40Z</time>
      </trkpt>
      <trkpt lat="42.520672" lon="1.557978">
        <ele>1173.73840</ele>
        <time>2021-07-02T11:22:41Z</time>
      </trkpt>
      <trkpt lat="42.520573" lon="1.557872">
        <ele>1173.21155</ele>
        <time>2021-07-02T11:22:42Z</time>
      </trkpt>
      <trkpt lat="42.520462" lon="1.557761">
        <ele>1172.06812</ele>
        <time>2021-07-02T11:22:43Z</time>
      </trkpt>
      <trkpt lat="42.520348" lon="1.557648">
        <ele>1172.34338</ele>
        <time>2021-07-02T11:22:44Z</time>
      </trkpt>
      <trkpt lat="42.520229" lon="1.557529">
        <ele>1172.22668</ele>
        <time>2021-07-02T11:22:45Z</time>
      </trkpt>
      <trkpt lat="42.520103" lon="1.557415">
        <ele>1170.08118</ele>
        <time>2021-07-02T11:22:46Z</time>
      </trkpt>
      <trkpt lat="42.519985" lon="1.557303">
        <ele>1168.13123</ele>
        <time>2021-07-02T11:22:47Z</time>
      </trkpt>
      <trkpt lat="42.519852" lon="1.557190">
        <ele>1168.61633</ele>
        <time>2021-07-02T11:22:48Z</time>
      </trkpt>
      <trkpt lat="42.519737" lon="1.557095">
        <ele>1167.36206</ele>
        <time>2021-07-02T11:22:49Z</time>
      </trkpt>
      <trkpt lat="42.519650" lon="1.557025">
        <ele>1166.23718</ele>
        <time>2021-07-02T11:22:50Z</time>
      </trkpt>
      <trkpt lat="42.519554" lon="1.556956">
        <ele>1165.65967</ele>
        <time>2021-07-02T11:22:51Z</time>
      </trkpt>
      <trkpt lat="42.519470" lon="1.556880">
        <ele>1165.43091</ele>
        <time>2021-07-02T11:22:52Z</time>
      </trkpt>
      <trkpt lat="42.519375" lon="1.556776">
        <ele>1162.95850</ele>
        <time>2021-07-02T11:22:53Z</time>
      </trkpt>
      <trkpt lat="42.519279" lon="1.556689">
        <ele>1162.61438</ele>
        <time>2021-07-02T11:22:54Z</time>
      </trkpt>
      <trkpt lat="42.519192" lon="1.556606">
        <ele>1162.19250</ele>
        <time>2021-07-02T11:22:55Z</time>
      </trkpt>
      <trkpt lat="42.519096" lon="1.556516">
        <ele>1161.36206</ele>
        <time>2021-07-02T11:22:56Z</time>
      </trkpt>
      <trkpt lat="42.518997" lon="1.556434">
        <ele>1160.87610</ele>
        <time>2021-07-02T11:22:57Z</time>
      </trkpt>
      <trkpt lat="42.518898" lon="1.556353">
        <ele>1159.03979</ele>
        <time>2021-07-02T11:22:58Z</time>
      </trkpt>
      <trkpt lat="42.518795" lon="1.556271">
        <ele>1158.93433</ele>
        <time>2021-07-02T11:22:59Z</time>
      </trkpt>
      <trkpt lat="42.518681" lon="1.556176">
        <ele>1159.06323</ele>
        <time>2021-07-02T11:23:00Z</time>
      </trkpt>
      <trkpt lat="42.518681" lon="1.556176">
        <ele>1158.89160</ele>
        <time>2021-07-02T11:23:01Z</time>
      </trkpt>
      <trkpt lat="42.518585" lon="1.556088">
        <ele>1159.51050</ele>
        <time>2021-07-02T11:23:02Z</time>
      </trkpt>
      <trkpt lat="42.518520" lon="1.556014">
        <ele>1160.00024</ele>
        <time>2021-07-02T11:23:03Z</time>
      </trkpt>
      <trkpt lat="42.518433" lon="1.555908">
        <ele>1159.84277</ele>
        <time>2021-07-02T11:23:04Z</time>
      </trkpt>
      <trkpt lat="42.518349" lon="1.555810">
        <ele>1161.01172</ele>
        <time>2021-07-02T11:23:05Z</time>
      </trkpt>
      <trkpt lat="42.518272" lon="1.555723">
        <ele>1160.22009</ele>
        <time>2021-07-02T11:23:06Z</time>
      </trkpt>
      <trkpt lat="42.518211" lon="1.555649">
        <ele>1159.86536</ele>
        <time>2021-07-02T11:23:07Z</time>
      </trkpt>
      <trkpt lat="42.518181" lon="1.555598">
        <ele>1158.93396</ele>
        <time>2021-07-02T11:23:08Z</time>
      </trkpt>
      <trkpt lat="42.518154" lon="1.555496">
        <ele>1173.22266</ele>
        <time>2021-07-02T11:23:09Z</time>
      </trkpt>
      <trkpt lat="42.518154" lon="1.555434">
        <ele>1173.02087</ele>
        <time>2021-07-02T11:23:10Z</time>
      </trkpt>
      <trkpt lat="42.518135" lon="1.555374">
        <ele>1172.72827</ele>
        <time>2021-07-02T11:23:11Z</time>
      </trkpt>
      <trkpt lat="42.518108" lon="1.555334">
        <ele>1173.00122</ele>
        <time>2021-07-02T11:23:12Z</time>
      </trkpt>
      <trkpt lat="42.518101" lon="1.555324">
        <ele>1173.20813</ele>
        <time>2021-07-02T11:23:13Z</time>
      </trkpt>
      <trkpt lat="42.518013" lon="1.555281">
        <ele>1172.93127</ele>
        <time>2021-07-02T11:23:14Z</time>
      </trkpt>
      <trkpt lat="42.517960" lon="1.555289">
        <ele>1170.99866</ele>
        <time>2021-07-02T11:23:15Z</time>
      </trkpt>
      <trkpt lat="42.517956" lon="1.555289">
        <ele>1170.11133</ele>
        <time>2021-07-02T11:23:16Z</time>
      </trkpt>
      <trkpt lat="42.517956" lon="1.555289">
        <ele>1169.34155</ele>
        <time>2021-07-02T11:23:17Z</time>
      </trkpt>
      <trkpt lat="42.517803" lon="1.554981">
        <ele>1167.53015</ele>
        <time>2021-07-02T11:23:18Z</time>
      </trkpt>
      <trkpt lat="42.517723" lon="1.554823">
        <ele>1165.93579</ele>
        <time>2021-07-02T11:23:19Z</time>
      </trkpt>
      <trkpt lat="42.517624" lon="1.554636">
        <ele>1165.50391</ele>
        <time>2021-07-02T11:23:20Z</time>
      </trkpt>
      <trkpt lat="42.517567" lon="1.554555">
        <ele>1164.13928</ele>
        <time>2021-07-02T11:23:21Z</time>
      </trkpt>
      <trkpt lat="42.517448" lon="1.554411">
        <ele>1162.03674</ele>
        <time>2021-07-02T11:23:22Z</time>
      </trkpt>
      <trkpt lat="42.517368" lon="1.554313">
        <ele>1161.53052</ele>
        <time>2021-07-02T11:23:23Z</time>
      </trkpt>
      <trkpt lat="42.517281" lon="1.554209">
        <ele>1161.14368</ele>
        <time>2021-07-02T11:23:24Z</time>
      </trkpt>
      <trkpt lat="42.517193" lon="1.554097">
        <ele>1159.83337</ele>
        <time>2021-07-02T11:23:25Z</time>
      </trkpt>
      <trkpt lat="42.517090" lon="1.554008">
        <ele>1159.15759</ele>
        <time>2021-07-02T11:23:26Z</time>
      </trkpt>
      <trkpt lat="42.516972" lon="1.553899">
        <ele>1157.36462</ele>
        <time>2021-07-02T11:23:27Z</time>
      </trkpt>
      <trkpt lat="42.516972" lon="1.553899">
        <ele>1157.67798</ele>
        <time>2021-07-02T11:23:28Z</time>
      </trkpt>
      <trkpt lat="42.516853" lon="1.553811">
        <ele>1158.04724</ele>
        <time>2021-07-02T11:23:29Z</time>
      </trkpt>
      <trkpt lat="42.516724" lon="1.553713">
        <ele>1157.75293</ele>
        <time>2021-07-02T11:23:30Z</time>
      </trkpt>
      <trkpt lat="42.516609" lon="1.553637">
        <ele>1157.55212</ele>
        <time>2021-07-02T11:23:31Z</time>
      </trkpt>
      <trkpt lat="42.516468" lon="1.553569">
        <ele>1156.20642</ele>
        <time>2021-07-02T11:23:32Z</time>
      </trkpt>
      <trkpt lat="42.516342" lon="1.553517">
        <ele>1156.50110</ele>
        <time>2021-07-02T11:23:33Z</time>
      </trkpt>
      <trkpt lat="42.516205" lon="1.553467">
        <ele>1156.40674</ele>
        <time>2021-07-02T11:23:34Z</time>
      </trkpt>
      <trkpt lat="42.516064" lon="1.553417">
        <ele>1156.41492</ele>
        <time>2021-07-02T11:23:35Z</time>
      </trkpt>
      <trkpt lat="42.515919" lon="1.553364">
        <ele>1155.81360</ele>
        <time>2021-07-02T11:23:36Z</time>
      </trkpt>
      <trkpt lat="42.515781" lon="1.553317">
        <ele>1155.67004</ele>
        <time>2021-07-02T11:23:37Z</time>
      </trkpt>
      <trkpt lat="42.515640" lon="1.553266">
        <ele>1154.41016</ele>
        <time>2021-07-02T11:23:38Z</time>
      </trkpt>
      <trkpt lat="42.515499" lon="1.553199">
        <ele>1153.01538</ele>
        <time>2021-07-02T11:23:39Z</time>
      </trkpt>
      <trkpt lat="42.515366" lon="1.553104">
        <ele>1152.74341</ele>
        <time>2021-07-02T11:23:40Z</time>
      </trkpt>
      <trkpt lat="42.515247" lon="1.552999">
        <ele>1152.31470</ele>
        <time>2021-07-02T11:23:41Z</time>
      </trkpt>
      <trkpt lat="42.515133" lon="1.552903">
        <ele>1151.69421</ele>
        <time>2021-07-02T11:23:42Z</time>
      </trkpt>
      <trkpt lat="42.515011" lon="1.552819">
        <ele>1149.70398</ele>
        <time>2021-07-02T11:23:43Z</time>
      </trkpt>
      <trkpt lat="42.514877" lon="1.552742">
        <ele>1149.33838</ele>
        <time>2021-07-02T11:23:44Z</time>
      </trkpt>
      <trkpt lat="42.514751" lon="1.552690">
        <ele>1148.31873</ele>
        <time>2021-07-02T11:23:45Z</time>
      </trkpt>
      <trkpt lat="42.514618" lon="1.552639">
        <ele>1146.92505</ele>
        <time>2021-07-02T11:23:46Z</time>
      </trkpt>
      <trkpt lat="42.514484" lon="1.552616">
        <ele>1145.32422</ele>
        <time>2021-07-02T11:23:47Z</time>
      </trkpt>
      <trkpt lat="42.514347" lon="1.552613">
        <ele>1143.54443</ele>
        <time>2021-07-02T11:23:48Z</time>
      </trkpt>
      <trkpt lat="42.514202" lon="1.552625">
        <ele>1142.13000</ele>
        <time>2021-07-02T11:23:49Z</time>
      </trkpt>
      <trkpt lat="42.514072" lon="1.552637">
        <ele>1140.44592</ele>
        <time>2021-07-02T11:23:50Z</time>
      </trkpt>
      <trkpt lat="42.513954" lon="1.552637">
        <ele>1139.24744</ele>
        <time>2021-07-02T11:23:51Z</time>
      </trkpt>
      <trkpt lat="42.513847" lon="1.552613">
        <ele>1138.28210</ele>
        <time>2021-07-02T11:23:52Z</time>
      </trkpt>
      <trkpt lat="42.513737" lon="1.552550">
        <ele>1137.69177</ele>
        <time>2021-07-02T11:23:53Z</time>
      </trkpt>
      <trkpt lat="42.513634" lon="1.552494">
        <ele>1136.55835</ele>
        <time>2021-07-02T11:23:54Z</time>
      </trkpt>
      <trkpt lat="42.513535" lon="1.552450">
        <ele>1135.51404</ele>
        <time>2021-07-02T11:23:55Z</time>
      </trkpt>
      <trkpt lat="42.513405" lon="1.552389">
        <ele>1131.96960</ele>
        <time>2021-07-02T11:23:56Z</time>
      </trkpt>
      <trkpt lat="42.513309" lon="1.552302">
        <ele>1131.29126</ele>
        <time>2021-07-02T11:23:57Z</time>
      </trkpt>
      <trkpt lat="42.513241" lon="1.552129">
        <ele>1129.54993</ele>
        <time>2021-07-02T11:23:58Z</time>
      </trkpt>
      <trkpt lat="42.513184" lon="1.551944">
        <ele>1127.85156</ele>
        <time>2021-07-02T11:23:59Z</time>
      </trkpt>
      <trkpt lat="42.513088" lon="1.551767">
        <ele>1126.00989</ele>
        <time>2021-07-02T11:24:00Z</time>
      </trkpt>
      <trkpt lat="42.513035" lon="1.551642">
        <ele>1125.28894</ele>
        <time>2021-07-02T11:24:01Z</time>
      </trkpt>
      <trkpt lat="42.513035" lon="1.551642">
        <ele>1125.03003</ele>
        <time>2021-07-02T11:24:02Z</time>
      </trkpt>
      <trkpt lat="42.512985" lon="1.551505">
        <ele>1124.44910</ele>
        <time>2021-07-02T11:24:03Z</time>
      </trkpt>
      <trkpt lat="42.512905" lon="1.551381">
        <ele>1121.62830</ele>
        <time>2021-07-02T11:24:04Z</time>
      </trkpt>
      <trkpt lat="42.512833" lon="1.551273">
        <ele>1120.34656</ele>
        <time>2021-07-02T11:24:05Z</time>
      </trkpt>
      <trkpt lat="42.512753" lon="1.551148">
        <ele>1118.89307</ele>
        <time>2021-07-02T11:24:06Z</time>
      </trkpt>
      <trkpt lat="42.512680" lon="1.551035">
        <ele>1118.27539</ele>
        <time>2021-07-02T11:24:07Z</time>
      </trkpt>
      <trkpt lat="42.512604" lon="1.550922">
        <ele>1117.75793</ele>
        <time>2021-07-02T11:24:08Z</time>
      </trkpt>
      <trkpt lat="42.512531" lon="1.550814">
        <ele>1117.28503</ele>
        <time>2021-07-02T11:24:09Z</time>
      </trkpt>
      <trkpt lat="42.512459" lon="1.550702">
        <ele>1116.99719</ele>
        <time>2021-07-02T11:24:10Z</time>
      </trkpt>
      <trkpt lat="42.512398" lon="1.550608">
        <ele>1117.62622</ele>
        <time>2021-07-02T11:24:11Z</time>
      </trkpt>
      <trkpt lat="42.512360" lon="1.550553">
        <ele>1116.99170</ele>
        <time>2021-07-02T11:24:12Z</time>
      </trkpt>
      <trkpt lat="42.512348" lon="1.550519">
        <ele>1115.64343</ele>
        <time>2021-07-02T11:24:13Z</time>
      </trkpt>
      <trkpt lat="42.512333" lon="1.550436">
        <ele>1115.74622</ele>
        <time>2021-07-02T11:24:14Z</time>
      </trkpt>
      <trkpt lat="42.512283" lon="1.550408">
        <ele>1115.45483</ele>
        <time>2021-07-02T11:24:15Z</time>
      </trkpt>
      <trkpt lat="42.512280" lon="1.550408">
        <ele>1114.17810</ele>
        <time>2021-07-02T11:24:16Z</time>
      </trkpt>
      <trkpt lat="42.512199" lon="1.550448">
        <ele>1114.19141</ele>
        <time>2021-07-02T11:24:17Z</time>
      </trkpt>
      <trkpt lat="42.512203" lon="1.550554">
        <ele>1113.85510</ele>
        <time>2021-07-02T11:24:18Z</time>
      </trkpt>
      <trkpt lat="42.512218" lon="1.550573">
        <ele>1113.20117</ele>
        <time>2021-07-02T11:24:19Z</time>
      </trkpt>
      <trkpt lat="42.511955" lon="1.550188">
        <ele>1112.29785</ele>
        <time>2021-07-02T11:24:20Z</time>
      </trkpt>
      <trkpt lat="42.511909" lon="1.550085">
        <ele>1111.16931</ele>
        <time>2021-07-02T11:24:21Z</time>
      </trkpt>
      <trkpt lat="42.511864" lon="1.549976">
        <ele>1112.58716</ele>
        <time>2021-07-02T11:24:22Z</time>
      </trkpt>
      <trkpt lat="42.511806" lon="1.549851">
        <ele>1110.23242</ele>
        <time>2021-07-02T11:24:23Z</time>
      </trkpt>
      <trkpt lat="42.511730" lon="1.549728">
        <ele>1110.92603</ele>
        <time>2021-07-02T11:24:24Z</time>
      </trkpt>
      <trkpt lat="42.511658" lon="1.549627">
        <ele>1111.41614</ele>
        <time>2021-07-02T11:24:25Z</time>
      </trkpt>
      <trkpt lat="42.511589" lon="1.549536">
        <ele>1113.01294</ele>
        <time>2021-07-02T11:24:26Z</time>
      </trkpt>
      <trkpt lat="42.511509" lon="1.549426">
        <ele>1113.30713</ele>
        <time>2021-07-02T11:24:27Z</time>
      </trkpt>
      <trkpt lat="42.511452" lon="1.549310">
        <ele>1113.72986</ele>
        <time>2021-07-02T11:24:28Z</time>
      </trkpt>
      <trkpt lat="42.511406" lon="1.549173">
        <ele>1113.48816</ele>
        <time>2021-07-02T11:24:29Z</time>
      </trkpt>
      <trkpt lat="42.511364" lon="1.549032">
        <ele>1113.09570</ele>
        <time>2021-07-02T11:24:30Z</time>
      </trkpt>
      <trkpt lat="42.511326" lon="1.548919">
        <ele>1112.54297</ele>
        <time>2021-07-02T11:24:31Z</time>
      </trkpt>
      <trkpt lat="42.511276" lon="1.548798">
        <ele>1113.51758</ele>
        <time>2021-07-02T11:24:32Z</time>
      </trkpt>
      <trkpt lat="42.511223" lon="1.548724">
        <ele>1115.08923</ele>
        <time>2021-07-02T11:24:33Z</time>
      </trkpt>
      <trkpt lat="42.511147" lon="1.548639">
        <ele>1115.29468</ele>
        <time>2021-07-02T11:24:34Z</time>
      </trkpt>
      <trkpt lat="42.511059" lon="1.548577">
        <ele>1115.57935</ele>
        <time>2021-07-02T11:24:35Z</time>
      </trkpt>
      <trkpt lat="42.511002" lon="1.548545">
        <ele>1113.77441</ele>
        <time>2021-07-02T11:24:36Z</time>
      </trkpt>
      <trkpt lat="42.510906" lon="1.548494">
        <ele>1112.62256</ele>
        <time>2021-07-02T11:24:37Z</time>
      </trkpt>
      <trkpt lat="42.510818" lon="1.548449">
        <ele>1114.09985</ele>
        <time>2021-07-02T11:24:38Z</time>
      </trkpt>
      <trkpt lat="42.510719" lon="1.548401">
        <ele>1115.27698</ele>
        <time>2021-07-02T11:24:39Z</time>
      </trkpt>
      <trkpt lat="42.510719" lon="1.548401">
        <ele>1116.39172</ele>
        <time>2021-07-02T11:24:40Z</time>
      </trkpt>
      <trkpt lat="42.510632" lon="1.548368">
        <ele>1117.33557</ele>
        <time>2021-07-02T11:24:41Z</time>
      </trkpt>
      <trkpt lat="42.510532" lon="1.548342">
        <ele>1118.39587</ele>
        <time>2021-07-02T11:24:42Z</time>
      </trkpt>
      <trkpt lat="42.510437" lon="1.548316">
        <ele>1119.77417</ele>
        <time>2021-07-02T11:24:43Z</time>
      </trkpt>
      <trkpt lat="42.510357" lon="1.548294">
        <ele>1119.41833</ele>
        <time>2021-07-02T11:24:44Z</time>
      </trkpt>
      <trkpt lat="42.510277" lon="1.548271">
        <ele>1119.62134</ele>
        <time>2021-07-02T11:24:45Z</time>
      </trkpt>
      <trkpt lat="42.510246" lon="1.548262">
        <ele>1119.37317</ele>
        <time>2021-07-02T11:24:46Z</time>
      </trkpt>
      <trkpt lat="42.510208" lon="1.548252">
        <ele>1120.18811</ele>
        <time>2021-07-02T11:24:47Z</time>
      </trkpt>
      <trkpt lat="42.510201" lon="1.548249">
        <ele>1120.77966</ele>
        <time>2021-07-02T11:24:48Z</time>
      </trkpt>
      <trkpt lat="42.510193" lon="1.548246">
        <ele>1121.02991</ele>
        <time>2021-07-02T11:24:49Z</time>
      </trkpt>
      <trkpt lat="42.510174" lon="1.548241">
        <ele>1120.93677</ele>
        <time>2021-07-02T11:24:50Z</time>
      </trkpt>
      <trkpt lat="42.510136" lon="1.548230">
        <ele>1121.60132</ele>
        <time>2021-07-02T11:24:51Z</time>
      </trkpt>
      <trkpt lat="42.510117" lon="1.548184">
        <ele>1121.96460</ele>
        <time>2021-07-02T11:24:52Z</time>
      </trkpt>
      <trkpt lat="42.510040" lon="1.548149">
        <ele>1121.27039</ele>
        <time>2021-07-02T11:24:53Z</time>
      </trkpt>
      <trkpt lat="42.510010" lon="1.548157">
        <ele>1121.22351</ele>
        <time>2021-07-02T11:24:54Z</time>
      </trkpt>
      <trkpt lat="42.509995" lon="1.548170">
        <ele>1121.48840</ele>
        <time>2021-07-02T11:24:55Z</time>
      </trkpt>
      <trkpt lat="42.509747" lon="1.548053">
        <ele>1122.25244</ele>
        <time>2021-07-02T11:24:56Z</time>
      </trkpt>
      <trkpt lat="42.509647" lon="1.548014">
        <ele>1121.09277</ele>
        <time>2021-07-02T11:24:57Z</time>
      </trkpt>
      <trkpt lat="42.509541" lon="1.547972">
        <ele>1120.61792</ele>
        <time>2021-07-02T11:24:58Z</time>
      </trkpt>
      <trkpt lat="42.509445" lon="1.547935">
        <ele>1120.41711</ele>
        <time>2021-07-02T11:24:59Z</time>
      </trkpt>
      <trkpt lat="42.509335" lon="1.547891">
        <ele>1120.43604</ele>
        <time>2021-07-02T11:25:00Z</time>
      </trkpt>
      <trkpt lat="42.509228" lon="1.547849">
        <ele>1118.31018</ele>
        <time>2021-07-02T11:25:01Z</time>
      </trkpt>
      <trkpt lat="42.509113" lon="1.547804">
        <ele>1117.56555</ele>
        <time>2021-07-02T11:25:02Z</time>
      </trkpt>
      <trkpt lat="42.509010" lon="1.547764">
        <ele>1116.76758</ele>
        <time>2021-07-02T11:25:03Z</time>
      </trkpt>
      <trkpt lat="42.508911" lon="1.547724">
        <ele>1115.09167</ele>
        <time>2021-07-02T11:25:04Z</time>
      </trkpt>
      <trkpt lat="42.508793" lon="1.547677">
        <ele>1113.74817</ele>
        <time>2021-07-02T11:25:05Z</time>
      </trkpt>
      <trkpt lat="42.508682" lon="1.547620">
        <ele>1112.98853</ele>
        <time>2021-07-02T11:25:06Z</time>
      </trkpt>
      <trkpt lat="42.508591" lon="1.547555">
        <ele>1111.51892</ele>
        <time>2021-07-02T11:25:07Z</time>
      </trkpt>
      <trkpt lat="42.508492" lon="1.547482">
        <ele>1111.05298</ele>
        <time>2021-07-02T11:25:08Z</time>
      </trkpt>
      <trkpt lat="42.508396" lon="1.547350">
        <ele>1110.34021</ele>
        <time>2021-07-02T11:25:09Z</time>
      </trkpt>
      <trkpt lat="42.508331" lon="1.547225">
        <ele>1108.88684</ele>
        <time>2021-07-02T11:25:10Z</time>
      </trkpt>
      <trkpt lat="42.508263" lon="1.547100">
        <ele>1108.09424</ele>
        <time>2021-07-02T11:25:11Z</time>
      </trkpt>
      <trkpt lat="42.508263" lon="1.547100">
        <ele>1107.08130</ele>
        <time>2021-07-02T11:25:12Z</time>
      </trkpt>
      <trkpt lat="42.508198" lon="1.546891">
        <ele>1105.77209</ele>
        <time>2021-07-02T11:25:13Z</time>
      </trkpt>
      <trkpt lat="42.508175" lon="1.546730">
        <ele>1104.66748</ele>
        <time>2021-07-02T11:25:14Z</time>
      </trkpt>
      <trkpt lat="42.508167" lon="1.546554">
        <ele>1102.60986</ele>
        <time>2021-07-02T11:25:15Z</time>
      </trkpt>
      <trkpt lat="42.508175" lon="1.546394">
        <ele>1101.75293</ele>
        <time>2021-07-02T11:25:16Z</time>
      </trkpt>
      <trkpt lat="42.508198" lon="1.546222">
        <ele>1101.36804</ele>
        <time>2021-07-02T11:25:17Z</time>
      </trkpt>
      <trkpt lat="42.508244" lon="1.546061">
        <ele>1100.87500</ele>
        <time>2021-07-02T11:25:18Z</time>
      </trkpt>
      <trkpt lat="42.508289" lon="1.545914">
        <ele>1100.81580</ele>
        <time>2021-07-02T11:25:19Z</time>
      </trkpt>
      <trkpt lat="42.508335" lon="1.545752">
        <ele>1099.91870</ele>
        <time>2021-07-02T11:25:20Z</time>
      </trkpt>
      <trkpt lat="42.508381" lon="1.545601">
        <ele>1099.35107</ele>
        <time>2021-07-02T11:25:21Z</time>
      </trkpt>
      <trkpt lat="42.508430" lon="1.545430">
        <ele>1098.70447</ele>
        <time>2021-07-02T11:25:22Z</time>
      </trkpt>
      <trkpt lat="42.508472" lon="1.545279">
        <ele>1099.07776</ele>
        <time>2021-07-02T11:25:23Z</time>
      </trkpt>
      <trkpt lat="42.508511" lon="1.545131">
        <ele>1098.22827</ele>
        <time>2021-07-02T11:25:24Z</time>
      </trkpt>
      <trkpt lat="42.508541" lon="1.544980">
        <ele>1096.57166</ele>
        <time>2021-07-02T11:25:25Z</time>
      </trkpt>
      <trkpt lat="42.508556" lon="1.544819">
        <ele>1095.71143</ele>
        <time>2021-07-02T11:25:26Z</time>
      </trkpt>
      <trkpt lat="42.508564" lon="1.544651">
        <ele>1095.47852</ele>
        <time>2021-07-02T11:25:27Z</time>
      </trkpt>
      <trkpt lat="42.508553" lon="1.544471">
        <ele>1093.82751</ele>
        <time>2021-07-02T11:25:28Z</time>
      </trkpt>
      <trkpt lat="42.508526" lon="1.544292">
        <ele>1092.58081</ele>
        <time>2021-07-02T11:25:29Z</time>
      </trkpt>
      <trkpt lat="42.508488" lon="1.544113">
        <ele>1091.27039</ele>
        <time>2021-07-02T11:25:30Z</time>
      </trkpt>
      <trkpt lat="42.508427" lon="1.543944">
        <ele>1089.31482</ele>
        <time>2021-07-02T11:25:31Z</time>
      </trkpt>
      <trkpt lat="42.508362" lon="1.543782">
        <ele>1089.13440</ele>
        <time>2021-07-02T11:25:32Z</time>
      </trkpt>
      <trkpt lat="42.508289" lon="1.543619">
        <ele>1087.97107</ele>
        <time>2021-07-02T11:25:33Z</time>
      </trkpt>
      <trkpt lat="42.508232" lon="1.543468">
        <ele>1087.90210</ele>
        <time>2021-07-02T11:25:34Z</time>
      </trkpt>
      <trkpt lat="42.508198" lon="1.543300">
        <ele>1087.99866</ele>
        <time>2021-07-02T11:25:35Z</time>
      </trkpt>
      <trkpt lat="42.508171" lon="1.543118">
        <ele>1087.12439</ele>
        <time>2021-07-02T11:25:36Z</time>
      </trkpt>
      <trkpt lat="42.508141" lon="1.542915">
        <ele>1086.72546</ele>
        <time>2021-07-02T11:25:37Z</time>
      </trkpt>
      <trkpt lat="42.508110" lon="1.542730">
        <ele>1085.13452</ele>
        <time>2021-07-02T11:25:38Z</time>
      </trkpt>
      <trkpt lat="42.508083" lon="1.542547">
        <ele>1082.55103</ele>
        <time>2021-07-02T11:25:39Z</time>
      </trkpt>
      <trkpt lat="42.508057" lon="1.542376">
        <ele>1081.42102</ele>
        <time>2021-07-02T11:25:40Z</time>
      </trkpt>
      <trkpt lat="42.508026" lon="1.542217">
        <ele>1080.84351</ele>
        <time>2021-07-02T11:25:41Z</time>
      </trkpt>
      <trkpt lat="42.507988" lon="1.542056">
        <ele>1081.15564</ele>
        <time>2021-07-02T11:25:42Z</time>
      </trkpt>
      <trkpt lat="42.507946" lon="1.541891">
        <ele>1078.31848</ele>
        <time>2021-07-02T11:25:43Z</time>
      </trkpt>
      <trkpt lat="42.507900" lon="1.541721">
        <ele>1077.76025</ele>
        <time>2021-07-02T11:25:44Z</time>
      </trkpt>
      <trkpt lat="42.507866" lon="1.541582">
        <ele>1077.16577</ele>
        <time>2021-07-02T11:25:45Z</time>
      </trkpt>
      <trkpt lat="42.507832" lon="1.541411">
        <ele>1078.29663</ele>
        <time>2021-07-02T11:25:46Z</time>
      </trkpt>
      <trkpt lat="42.507805" lon="1.541248">
        <ele>1078.03967</ele>
        <time>2021-07-02T11:25:47Z</time>
      </trkpt>
      <trkpt lat="42.507782" lon="1.541087">
        <ele>1076.40002</ele>
        <time>2021-07-02T11:25:48Z</time>
      </trkpt>
      <trkpt lat="42.507782" lon="1.541087">
        <ele>1079.57312</ele>
        <time>2021-07-02T11:25:49Z</time>
      </trkpt>
      <trkpt lat="42.507759" lon="1.540913">
        <ele>1079.13745</ele>
        <time>2021-07-02T11:25:50Z</time>
      </trkpt>
      <trkpt lat="42.507736" lon="1.540768">
        <ele>1078.91479</ele>
        <time>2021-07-02T11:25:51Z</time>
      </trkpt>
      <trkpt lat="42.507721" lon="1.540651">
        <ele>1077.47400</ele>
        <time>2021-07-02T11:25:52Z</time>
      </trkpt>
      <trkpt lat="42.507702" lon="1.540492">
        <ele>1076.90710</ele>
        <time>2021-07-02T11:25:53Z</time>
      </trkpt>
      <trkpt lat="42.507675" lon="1.540303">
        <ele>1074.86035</ele>
        <time>2021-07-02T11:25:54Z</time>
      </trkpt>
      <trkpt lat="42.507648" lon="1.540125">
        <ele>1073.40808</ele>
        <time>2021-07-02T11:25:55Z</time>
      </trkpt>
      <trkpt lat="42.507622" lon="1.539931">
        <ele>1071.96777</ele>
        <time>2021-07-02T11:25:56Z</time>
      </trkpt>
      <trkpt lat="42.507580" lon="1.539746">
        <ele>1071.24475</ele>
        <time>2021-07-02T11:25:57Z</time>
      </trkpt>
      <trkpt lat="42.507534" lon="1.539573">
        <ele>1071.40173</ele>
        <time>2021-07-02T11:25:58Z</time>
      </trkpt>
      <trkpt lat="42.507492" lon="1.539396">
        <ele>1069.68604</ele>
        <time>2021-07-02T11:25:59Z</time>
      </trkpt>
      <trkpt lat="42.507458" lon="1.539239">
        <ele>1069.28638</ele>
        <time>2021-07-02T11:26:00Z</time>
      </trkpt>
      <trkpt lat="42.507423" lon="1.539087">
        <ele>1067.89185</ele>
        <time>2021-07-02T11:26:01Z</time>
      </trkpt>
      <trkpt lat="42.507389" lon="1.538910">
        <ele>1064.89062</ele>
        <time>2021-07-02T11:26:02Z</time>
      </trkpt>
      <trkpt lat="42.507359" lon="1.538738">
        <ele>1064.91541</ele>
        <time>2021-07-02T11:26:03Z</time>
      </trkpt>
      <trkpt lat="42.507332" lon="1.538571">
        <ele>1064.55322</ele>
        <time>2021-07-02T11:26:04Z</time>
      </trkpt>
      <trkpt lat="42.507305" lon="1.538407">
        <ele>1064.22522</ele>
        <time>2021-07-02T11:26:05Z</time>
      </trkpt>
      <trkpt lat="42.507275" lon="1.538236">
        <ele>1064.26685</ele>
        <time>2021-07-02T11:26:06Z</time>
      </trkpt>
      <trkpt lat="42.507248" lon="1.538074">
        <ele>1065.34241</ele>
        <time>2021-07-02T11:26:07Z</time>
      </trkpt>
      <trkpt lat="42.507221" lon="1.537910">
        <ele>1064.99512</ele>
        <time>2021-07-02T11:26:08Z</time>
      </trkpt>
      <trkpt lat="42.507198" lon="1.537768">
        <ele>1064.05212</ele>
        <time>2021-07-02T11:26:09Z</time>
      </trkpt>
      <trkpt lat="42.507175" lon="1.537629">
        <ele>1063.11133</ele>
        <time>2021-07-02T11:26:10Z</time>
      </trkpt>
      <trkpt lat="42.507153" lon="1.537486">
        <ele>1061.83093</ele>
        <time>2021-07-02T11:26:11Z</time>
      </trkpt>
      <trkpt lat="42.507130" lon="1.537351">
        <ele>1059.89075</ele>
        <time>2021-07-02T11:26:12Z</time>
      </trkpt>
      <trkpt lat="42.507111" lon="1.537223">
        <ele>1059.09399</ele>
        <time>2021-07-02T11:26:13Z</time>
      </trkpt>
      <trkpt lat="42.507092" lon="1.537108">
        <ele>1056.25098</ele>
        <time>2021-07-02T11:26:14Z</time>
      </trkpt>
      <trkpt lat="42.507076" lon="1.537000">
        <ele>1057.14233</ele>
        <time>2021-07-02T11:26:15Z</time>
      </trkpt>
      <trkpt lat="42.507065" lon="1.536936">
        <ele>1056.13733</ele>
        <time>2021-07-02T11:26:16Z</time>
      </trkpt>
      <trkpt lat="42.507053" lon="1.536854">
        <ele>1054.91772</ele>
        <time>2021-07-02T11:26:17Z</time>
      </trkpt>
      <trkpt lat="42.507107" lon="1.536826">
        <ele>1054.77771</ele>
        <time>2021-07-02T11:26:18Z</time>
      </trkpt>
      <trkpt lat="42.507126" lon="1.536807">
        <ele>1053.41809</ele>
        <time>2021-07-02T11:26:19Z</time>
      </trkpt>
      <trkpt lat="42.507080" lon="1.536562">
        <ele>1052.35120</ele>
        <time>2021-07-02T11:26:20Z</time>
      </trkpt>
      <trkpt lat="42.506981" lon="1.536594">
        <ele>1051.63513</ele>
        <time>2021-07-02T11:26:21Z</time>
      </trkpt>
      <trkpt lat="42.506981" lon="1.536594">
        <ele>1050.46423</ele>
        <time>2021-07-02T11:26:22Z</time>
      </trkpt>
      <trkpt lat="42.506989" lon="1.536208">
        <ele>1049.43018</ele>
        <time>2021-07-02T11:26:23Z</time>
      </trkpt>
      <trkpt lat="42.506958" lon="1.536061">
        <ele>1048.10522</ele>
        <time>2021-07-02T11:26:24Z</time>
      </trkpt>
      <trkpt lat="42.506931" lon="1.535923">
        <ele>1047.56506</ele>
        <time>2021-07-02T11:26:25Z</time>
      </trkpt>
      <trkpt lat="42.506901" lon="1.535784">
        <ele>1046.21338</ele>
        <time>2021-07-02T11:26:26Z</time>
      </trkpt>
      <trkpt lat="42.506870" lon="1.535636">
        <ele>1045.49060</ele>
        <time>2021-07-02T11:26:27Z</time>
      </trkpt>
      <trkpt lat="42.506840" lon="1.535487">
        <ele>1044.43079</ele>
        <time>2021-07-02T11:26:28Z</time>
      </trkpt>
      <trkpt lat="42.506805" lon="1.535332">
        <ele>1043.14978</ele>
        <time>2021-07-02T11:26:29Z</time>
      </trkpt>
      <trkpt lat="42.506771" lon="1.535174">
        <ele>1041.85901</ele>
        <time>2021-07-02T11:26:30Z</time>
      </trkpt>
      <trkpt lat="42.506741" lon="1.535023">
        <ele>1041.76965</ele>
        <time>2021-07-02T11:26:31Z</time>
      </trkpt>
      <trkpt lat="42.506710" lon="1.534885">
        <ele>1041.51062</ele>
        <time>2021-07-02T11:26:32Z</time>
      </trkpt>
      <trkpt lat="42.506680" lon="1.534738">
        <ele>1040.08923</ele>
        <time>2021-07-02T11:26:33Z</time>
      </trkpt>
      <trkpt lat="42.506649" lon="1.534598">
        <ele>1039.29578</ele>
        <time>2021-07-02T11:26:34Z</time>
      </trkpt>
      <trkpt lat="42.506630" lon="1.534498">
        <ele>1039.09631</ele>
        <time>2021-07-02T11:26:35Z</time>
      </trkpt>
      <trkpt lat="42.506622" lon="1.534447">
        <ele>1037.92493</ele>
        <time>2021-07-02T11:26:36Z</time>
      </trkpt>
      <trkpt lat="42.506607" lon="1.534357">
        <ele>1038.32544</ele>
        <time>2021-07-02T11:26:37Z</time>
      </trkpt>
      <trkpt lat="42.506603" lon="1.534318">
        <ele>1037.79248</ele>
        <time>2021-07-02T11:26:38Z</time>
      </trkpt>
      <trkpt lat="42.506603" lon="1.534318">
        <ele>1037.07361</ele>
        <time>2021-07-02T11:26:39Z</time>
      </trkpt>
      <trkpt lat="42.506603" lon="1.534318">
        <ele>1036.65918</ele>
        <time>2021-07-02T11:26:40Z</time>
      </trkpt>
      <trkpt lat="42.506603" lon="1.534318">
        <ele>1035.99207</ele>
        <time>2021-07-02T11:26:41Z</time>
      </trkpt>
      <trkpt lat="42.506599" lon="1.534312">
        <ele>1035.95837</ele>
        <time>2021-07-02T11:26:42Z</time>
      </trkpt>
      <trkpt lat="42.506599" lon="1.534301">
        <ele>1034.09448</ele>
        <time>2021-07-02T11:26:43Z</time>
      </trkpt>
      <trkpt lat="42.506611" lon="1.534280">
        <ele>1034.22449</ele>
        <time>2021-07-02T11:26:44Z</time>
      </trkpt>
      <trkpt lat="42.506573" lon="1.534161">
        <ele>1033.23279</ele>
        <time>2021-07-02T11:26:45Z</time>
      </trkpt>
      <trkpt lat="42.506573" lon="1.534161">
        <ele>1031.23450</ele>
        <time>2021-07-02T11:26:46Z</time>
      </trkpt>
      <trkpt lat="42.506573" lon="1.534153">
        <ele>1030.27344</ele>
        <time>2021-07-02T11:26:47Z</time>
      </trkpt>
      <trkpt lat="42.506481" lon="1.533755">
        <ele>1030.02881</ele>
        <time>2021-07-02T11:26:48Z</time>
      </trkpt>
      <trkpt lat="42.506451" lon="1.533615">
        <ele>1029.42578</ele>
        <time>2021-07-02T11:26:49Z</time>
      </trkpt>
      <trkpt lat="42.506424" lon="1.533499">
        <ele>1029.64331</ele>
        <time>2021-07-02T11:26:50Z</time>
      </trkpt>
      <trkpt lat="42.506386" lon="1.533335">
        <ele>1028.48096</ele>
        <time>2021-07-02T11:26:51Z</time>
      </trkpt>
      <trkpt lat="42.506359" lon="1.533205">
        <ele>1028.82202</ele>
        <time>2021-07-02T11:26:52Z</time>
      </trkpt>
      <trkpt lat="42.506336" lon="1.533104">
        <ele>1027.27502</ele>
        <time>2021-07-02T11:26:53Z</time>
      </trkpt>
      <trkpt lat="42.506313" lon="1.532993">
        <ele>1026.54797</ele>
        <time>2021-07-02T11:26:54Z</time>
      </trkpt>
      <trkpt lat="42.506290" lon="1.532888">
        <ele>1026.48389</ele>
        <time>2021-07-02T11:26:55Z</time>
      </trkpt>
      <trkpt lat="42.506290" lon="1.532888">
        <ele>1025.11572</ele>
        <time>2021-07-02T11:26:56Z</time>
      </trkpt>
      <trkpt lat="42.506264" lon="1.532770">
        <ele>1024.97021</ele>
        <time>2021-07-02T11:26:57Z</time>
      </trkpt>
      <trkpt lat="42.506245" lon="1.532684">
        <ele>1025.81873</ele>
        <time>2021-07-02T11:26:58Z</time>
      </trkpt>
      <trkpt lat="42.506245" lon="1.532671">
        <ele>1026.10034</ele>
        <time>2021-07-02T11:26:59Z</time>
      </trkpt>
      <trkpt lat="42.506237" lon="1.532642">
        <ele>1026.80994</ele>
        <time>2021-07-02T11:27:00Z</time>
      </trkpt>
      <trkpt lat="42.506233" lon="1.532630">
        <ele>1026.55652</ele>
        <time>2021-07-02T11:27:01Z</time>
      </trkpt>
      <trkpt lat="42.506233" lon="1.532630">
        <ele>1025.37744</ele>
        <time>2021-07-02T11:27:02Z</time>
      </trkpt>
      <trkpt lat="42.506233" lon="1.532630">
        <ele>1023.23291</ele>
        <time>2021-07-02T11:27:03Z</time>
      </trkpt>
      <trkpt lat="42.506233" lon="1.532630">
        <ele>1021.82349</ele>
        <time>2021-07-02T11:27:04Z</time>
      </trkpt>
      <trkpt lat="42.506233" lon="1.532630">
        <ele>1021.43140</ele>
        <time>2021-07-02T11:27:05Z</time>
      </trkpt>
      <trkpt lat="42.506233" lon="1.532630">
        <ele>1021.67017</ele>
        <time>2021-07-02T11:27:06Z</time>
      </trkpt>
      <trkpt lat="42.506233" lon="1.532630">
        <ele>1022.10815</ele>
        <time>2021-07-02T11:27:07Z</time>
      </trkpt>
      <trkpt lat="42.506233" lon="1.532630">
        <ele>1022.14722</ele>
        <time>2021-07-02T11:27:08Z</time>
      </trkpt>
      <trkpt lat="42.506233" lon="1.532630">
        <ele>1027.58130</ele>
        <time>2021-07-02T11:27:09Z</time>
      </trkpt>
      <trkpt lat="42.506233" lon="1.532630">
        <ele>1025.83057</ele>
        <time>2021-07-02T11:27:10Z</time>
      </trkpt>
      <trkpt lat="42.506233" lon="1.532630">
        <ele>1027.39185</ele>
        <time>2021-07-02T11:27:11Z</time>
      </trkpt>
      <trkpt lat="42.506233" lon="1.532630">
        <ele>1027.46985</ele>
        <time>2021-07-02T11:27:12Z</time>
      </trkpt>
      <trkpt lat="42.506233" lon="1.532630">
        <ele>1026.22815</ele>
        <time>2021-07-02T11:27:13Z</time>
      </trkpt>
      <trkpt lat="42.506233" lon="1.532630">
        <ele>1025.49622</ele>
        <time>2021-07-02T11:27:14Z</time>
      </trkpt>
      <trkpt lat="42.506233" lon="1.532630">
        <ele>1027.29297</ele>
        <time>2021-07-02T11:27:15Z</time>
      </trkpt>
      <trkpt lat="42.506233" lon="1.532630">
        <ele>1027.21619</ele>
        <time>2021-07-02T11:27:16Z</time>
      </trkpt>
      <trkpt lat="42.506233" lon="1.532630">
        <ele>1027.16284</ele>
        <time>2021-07-02T11:27:17Z</time>
      </trkpt>
      <trkpt lat="42.506233" lon="1.532630">
        <ele>1027.09509</ele>
        <time>2021-07-02T11:27:18Z</time>
      </trkpt>
      <trkpt lat="42.506233" lon="1.532630">
        <ele>1026.98547</ele>
        <time>2021-07-02T11:27:19Z</time>
      </trkpt>
      <trkpt lat="42.506233" lon="1.532630">
        <ele>1025.61121</ele>
        <time>2021-07-02T11:27:20Z</time>
      </trkpt>
      <trkpt lat="42.506233" lon="1.532630">
        <ele>1025.09717</ele>
        <time>2021-07-02T11:27:21Z</time>
      </trkpt>
      <trkpt lat="42.506233" lon="1.532630">
        <ele>1024.28296</ele>
        <time>2021-07-02T11:27:22Z</time>
      </trkpt>
      <trkpt lat="42.506229" lon="1.532603">
        <ele>1023.82983</ele>
        <time>2021-07-02T11:27:23Z</time>
      </trkpt>
      <trkpt lat="42.506218" lon="1.532552">
        <ele>1023.66870</ele>
        <time>2021-07-02T11:27:24Z</time>
      </trkpt>
      <trkpt lat="42.506207" lon="1.532500">
        <ele>1022.62976</ele>
        <time>2021-07-02T11:27:25Z</time>
      </trkpt>
      <trkpt lat="42.506187" lon="1.532405">
        <ele>1022.44910</ele>
        <time>2021-07-02T11:27:26Z</time>
      </trkpt>
      <trkpt lat="42.506172" lon="1.532328">
        <ele>1022.96436</ele>
        <time>2021-07-02T11:27:27Z</time>
      </trkpt>
      <trkpt lat="42.506153" lon="1.532242">
        <ele>1022.93188</ele>
        <time>2021-07-02T11:27:28Z</time>
      </trkpt>
      <trkpt lat="42.506134" lon="1.532155">
        <ele>1022.26990</ele>
        <time>2021-07-02T11:27:29Z</time>
      </trkpt>
      <trkpt lat="42.506115" lon="1.532066">
        <ele>1022.19714</ele>
        <time>2021-07-02T11:27:30Z</time>
      </trkpt>
      <trkpt lat="42.506096" lon="1.531969">
        <ele>1019.19165</ele>
        <time>2021-07-02T11:27:31Z</time>
      </trkpt>
      <trkpt lat="42.506081" lon="1.531899">
        <ele>1018.60767</ele>
        <time>2021-07-02T11:27:32Z</time>
      </trkpt>
      <trkpt lat="42.506088" lon="1.531766">
        <ele>1018.55261</ele>
        <time>2021-07-02T11:27:33Z</time>
      </trkpt>
      <trkpt lat="42.506199" lon="1.531745">
        <ele>1017.93921</ele>
        <time>2021-07-02T11:27:34Z</time>
      </trkpt>
      <trkpt lat="42.506214" lon="1.531683">
        <ele>1018.14050</ele>
        <time>2021-07-02T11:27:35Z</time>
      </trkpt>
      <trkpt lat="42.506222" lon="1.531668">
        <ele>1020.45691</ele>
        <time>2021-07-02T11:27:36Z</time>
      </trkpt>
      <trkpt lat="42.506245" lon="1.531650">
        <ele>1021.15161</ele>
        <time>2021-07-02T11:27:37Z</time>
      </trkpt>
      <trkpt lat="42.506290" lon="1.531615">
        <ele>1022.14771</ele>
        <time>2021-07-02T11:27:38Z</time>
      </trkpt>
      <trkpt lat="42.506313" lon="1.531599">
        <ele>1024.54736</ele>
        <time>2021-07-02T11:27:39Z</time>
      </trkpt>
      <trkpt lat="42.506355" lon="1.531565">
        <ele>1024.47363</ele>
        <time>2021-07-02T11:27:40Z</time>
      </trkpt>
      <trkpt lat="42.506378" lon="1.531547">
        <ele>1026.56824</ele>
        <time>2021-07-02T11:27:41Z</time>
      </trkpt>
      <trkpt lat="42.506378" lon="1.531547">
        <ele>1028.44226</ele>
        <time>2021-07-02T11:27:42Z</time>
      </trkpt>
      <trkpt lat="42.506393" lon="1.531537">
        <ele>1027.03906</ele>
        <time>2021-07-02T11:27:43Z</time>
      </trkpt>
      <trkpt lat="42.506420" lon="1.531515">
        <ele>1028.54395</ele>
        <time>2021-07-02T11:27:44Z</time>
      </trkpt>
      <trkpt lat="42.506451" lon="1.531494">
        <ele>1023.36670</ele>
        <time>2021-07-02T11:27:45Z</time>
      </trkpt>
      <trkpt lat="42.506451" lon="1.531493">
        <ele>1023.88940</ele>
        <time>2021-07-02T11:27:46Z</time>
      </trkpt>
      <trkpt lat="42.506451" lon="1.531493">
        <ele>1024.76514</ele>
        <time>2021-07-02T11:27:47Z</time>
      </trkpt>
      <trkpt lat="42.506451" lon="1.531493">
        <ele>1025.96790</ele>
        <time>2021-07-02T11:27:48Z</time>
      </trkpt>
      <trkpt lat="42.506512" lon="1.531450">
        <ele>1025.75745</ele>
        <time>2021-07-02T11:27:49Z</time>
      </trkpt>
      <trkpt lat="42.506744" lon="1.531284">
        <ele>1026.64941</ele>
        <time>2021-07-02T11:27:50Z</time>
      </trkpt>
      <trkpt lat="42.506813" lon="1.531238">
        <ele>1024.87170</ele>
        <time>2021-07-02T11:27:51Z</time>
      </trkpt>
      <trkpt lat="42.506889" lon="1.531183">
        <ele>1022.45679</ele>
        <time>2021-07-02T11:27:52Z</time>
      </trkpt>
      <trkpt lat="42.506950" lon="1.531139">
        <ele>1022.53625</ele>
        <time>2021-07-02T11:27:53Z</time>
      </trkpt>
      <trkpt lat="42.507008" lon="1.531098">
        <ele>1027.27539</ele>
        <time>2021-07-02T11:27:54Z</time>
      </trkpt>
      <trkpt lat="42.507038" lon="1.531076">
        <ele>1024.98218</ele>
        <time>2021-07-02T11:27:55Z</time>
      </trkpt>
      <trkpt lat="42.507042" lon="1.531075">
        <ele>1027.49878</ele>
        <time>2021-07-02T11:27:56Z</time>
      </trkpt>
      <trkpt lat="42.507042" lon="1.531075">
        <ele>1028.81702</ele>
        <time>2021-07-02T11:27:57Z</time>
      </trkpt>
      <trkpt lat="42.507050" lon="1.531069">
        <ele>1031.18481</ele>
        <time>2021-07-02T11:27:58Z</time>
      </trkpt>
      <trkpt lat="42.507050" lon="1.531069">
        <ele>1032.02734</ele>
        <time>2021-07-02T11:27:59Z</time>
      </trkpt>
      <trkpt lat="42.507050" lon="1.531069">
        <ele>1021.80774</ele>
        <time>2021-07-02T11:28:00Z</time>
      </trkpt>
      <trkpt lat="42.507050" lon="1.531069">
        <ele>1022.45789</ele>
        <time>2021-07-02T11:28:01Z</time>
      </trkpt>
      <trkpt lat="42.507050" lon="1.531069">
        <ele>1021.82159</ele>
        <time>2021-07-02T11:28:02Z</time>
      </trkpt>
      <trkpt lat="42.507236" lon="1.530963">
        <ele>1021.68280</ele>
        <time>2021-07-02T11:28:03Z</time>
      </trkpt>
      <trkpt lat="42.507351" lon="1.530899">
        <ele>1021.51477</ele>
        <time>2021-07-02T11:28:04Z</time>
      </trkpt>
      <trkpt lat="42.507389" lon="1.530877">
        <ele>1021.52075</ele>
        <time>2021-07-02T11:28:05Z</time>
      </trkpt>
      <trkpt lat="42.507401" lon="1.530869">
        <ele>1021.53284</ele>
        <time>2021-07-02T11:28:06Z</time>
      </trkpt>
      <trkpt lat="42.507435" lon="1.530852">
        <ele>1021.44385</ele>
        <time>2021-07-02T11:28:07Z</time>
      </trkpt>
      <trkpt lat="42.507462" lon="1.530836">
        <ele>1021.55280</ele>
        <time>2021-07-02T11:28:08Z</time>
      </trkpt>
      <trkpt lat="42.507496" lon="1.530822">
        <ele>1021.53186</ele>
        <time>2021-07-02T11:28:09Z</time>
      </trkpt>
      <trkpt lat="42.507519" lon="1.530811">
        <ele>1021.47461</ele>
        <time>2021-07-02T11:28:10Z</time>
      </trkpt>
      <trkpt lat="42.507534" lon="1.530803">
        <ele>1021.54498</ele>
        <time>2021-07-02T11:28:11Z</time>
      </trkpt>
      <trkpt lat="42.507534" lon="1.530803">
        <ele>1021.53595</ele>
        <time>2021-07-02T11:28:12Z</time>
      </trkpt>
      <trkpt lat="42.507538" lon="1.530757">
        <ele>1021.54480</ele>
        <time>2021-07-02T11:28:13Z</time>
      </trkpt>
      <trkpt lat="42.507538" lon="1.530742">
        <ele>1021.52057</ele>
        <time>2021-07-02T11:28:14Z</time>
      </trkpt>
      <trkpt lat="42.507530" lon="1.530663">
        <ele>1021.58179</ele>
        <time>2021-07-02T11:28:15Z</time>
      </trkpt>
      <trkpt lat="42.507526" lon="1.530631">
        <ele>1021.49884</ele>
        <time>2021-07-02T11:28:16Z</time>
      </trkpt>
      <trkpt lat="42.507526" lon="1.530617">
        <ele>1021.38373</ele>
        <time>2021-07-02T11:28:17Z</time>
      </trkpt>
      <trkpt lat="42.507523" lon="1.530588">
        <ele>1021.33209</ele>
        <time>2021-07-02T11:28:18Z</time>
      </trkpt>
      <trkpt lat="42.507523" lon="1.530588">
        <ele>1021.18182</ele>
        <time>2021-07-02T11:28:19Z</time>
      </trkpt>
      <trkpt lat="42.507523" lon="1.530588">
        <ele>1021.14880</ele>
        <time>2021-07-02T11:28:20Z</time>
      </trkpt>
      <trkpt lat="42.507507" lon="1.530434">
        <ele>1020.96899</ele>
        <time>2021-07-02T11:28:21Z</time>
      </trkpt>
      <trkpt lat="42.507477" lon="1.530200">
        <ele>1020.92731</ele>
        <time>2021-07-02T11:28:22Z</time>
      </trkpt>
      <trkpt lat="42.507473" lon="1.530179">
        <ele>1020.73016</ele>
        <time>2021-07-02T11:28:23Z</time>
      </trkpt>
      <trkpt lat="42.507465" lon="1.530130">
        <ele>1020.71405</ele>
        <time>2021-07-02T11:28:24Z</time>
      </trkpt>
      <trkpt lat="42.507462" lon="1.530102">
        <ele>1020.70850</ele>
        <time>2021-07-02T11:28:25Z</time>
      </trkpt>
      <trkpt lat="42.507462" lon="1.530081">
        <ele>1020.61200</ele>
        <time>2021-07-02T11:28:26Z</time>
      </trkpt>
      <trkpt lat="42.507458" lon="1.530064">
        <ele>1020.65149</ele>
        <time>2021-07-02T11:28:27Z</time>
      </trkpt>
      <trkpt lat="42.507458" lon="1.530062">
        <ele>1019.60754</ele>
        <time>2021-07-02T11:28:28Z</time>
      </trkpt>
      <trkpt lat="42.507458" lon="1.530062">
        <ele>1019.74622</ele>
        <time>2021-07-02T11:28:29Z</time>
      </trkpt>
      <trkpt lat="42.507458" lon="1.530062">
        <ele>1019.97766</ele>
        <time>2021-07-02T11:28:30Z</time>
      </trkpt>
      <trkpt lat="42.507458" lon="1.530062">
        <ele>1019.17419</ele>
        <time>2021-07-02T11:28:31Z</time>
      </trkpt>
      <trkpt lat="42.507454" lon="1.530028">
        <ele>1019.10229</ele>
        <time>2021-07-02T11:28:32Z</time>
      </trkpt>
      <trkpt lat="42.507450" lon="1.530006">
        <ele>1020.27686</ele>
        <time>2021-07-02T11:28:33Z</time>
      </trkpt>
      <trkpt lat="42.507450" lon="1.530005">
        <ele>1020.00220</ele>
        <time>2021-07-02T11:28:34Z</time>
      </trkpt>
      <trkpt lat="42.507450" lon="1.530005">
        <ele>1022.32874</ele>
        <time>2021-07-02T11:28:35Z</time>
      </trkpt>
      <trkpt lat="42.507446" lon="1.529990">
        <ele>1022.84814</ele>
        <time>2021-07-02T11:28:36Z</time>
      </trkpt>
      <trkpt lat="42.507446" lon="1.529988">
        <ele>1023.68530</ele>
        <time>2021-07-02T11:28:37Z</time>
      </trkpt>
      <trkpt lat="42.507446" lon="1.529988">
        <ele>1023.85352</ele>
        <time>2021-07-02T11:28:38Z</time>
      </trkpt>
      <trkpt lat="42.507446" lon="1.529988">
        <ele>1024.13306</ele>
        <time>2021-07-02T11:28:39Z</time>
      </trkpt>
      <trkpt lat="42.507446" lon="1.529988">
        <ele>1024.63306</ele>
        <time>2021-07-02T11:28:40Z</time>
      </trkpt>
      <trkpt lat="42.507446" lon="1.529988">
        <ele>1025.59241</ele>
        <time>2021-07-02T11:28:41Z</time>
      </trkpt>
      <trkpt lat="42.507446" lon="1.529988">
        <ele>1026.21692</ele>
        <time>2021-07-02T11:28:42Z</time>
      </trkpt>
      <trkpt lat="42.507446" lon="1.529988">
        <ele>1022.79993</ele>
        <time>2021-07-02T11:28:43Z</time>
      </trkpt>
      <trkpt lat="42.507446" lon="1.529988">
        <ele>1022.96619</ele>
        <time>2021-07-02T11:28:44Z</time>
      </trkpt>
      <trkpt lat="42.507446" lon="1.529988">
        <ele>1022.58557</ele>
        <time>2021-07-02T11:28:45Z</time>
      </trkpt>
      <trkpt lat="42.507446" lon="1.529988">
        <ele>1020.21429</ele>
        <time>2021-07-02T11:28:46Z</time>
      </trkpt>
      <trkpt lat="42.507401" lon="1.529920">
        <ele>1020.17554</ele>
        <time>2021-07-02T11:28:47Z</time>
      </trkpt>
      <trkpt lat="42.507168" lon="1.529578">
        <ele>1020.09412</ele>
        <time>2021-07-02T11:28:48Z</time>
      </trkpt>
      <trkpt lat="42.507141" lon="1.529545">
        <ele>1018.85046</ele>
        <time>2021-07-02T11:28:49Z</time>
      </trkpt>
      <trkpt lat="42.507118" lon="1.529510">
        <ele>1021.82922</ele>
        <time>2021-07-02T11:28:50Z</time>
      </trkpt>
      <trkpt lat="42.507114" lon="1.529501">
        <ele>1021.83789</ele>
        <time>2021-07-02T11:28:51Z</time>
      </trkpt>
      <trkpt lat="42.507103" lon="1.529487">
        <ele>1022.47949</ele>
        <time>2021-07-02T11:28:52Z</time>
      </trkpt>
      <trkpt lat="42.507088" lon="1.529467">
        <ele>1020.96033</ele>
        <time>2021-07-02T11:28:53Z</time>
      </trkpt>
      <trkpt lat="42.507072" lon="1.529443">
        <ele>1020.55444</ele>
        <time>2021-07-02T11:28:54Z</time>
      </trkpt>
      <trkpt lat="42.507065" lon="1.529433">
        <ele>1020.87036</ele>
        <time>2021-07-02T11:28:55Z</time>
      </trkpt>
      <trkpt lat="42.507065" lon="1.529433">
        <ele>1020.91418</ele>
        <time>2021-07-02T11:28:56Z</time>
      </trkpt>
      <trkpt lat="42.507065" lon="1.529433">
        <ele>1019.48962</ele>
        <time>2021-07-02T11:28:57Z</time>
      </trkpt>
      <trkpt lat="42.507065" lon="1.529433">
        <ele>1019.65839</ele>
        <time>2021-07-02T11:28:58Z</time>
      </trkpt>
      <trkpt lat="42.507065" lon="1.529433">
        <ele>1019.57025</ele>
        <time>2021-07-02T11:28:59Z</time>
      </trkpt>
      <trkpt lat="42.507065" lon="1.529433">
        <ele>1018.52710</ele>
        <time>2021-07-02T11:29:00Z</time>
      </trkpt>
      <trkpt lat="42.507065" lon="1.529433">
        <ele>1017.89575</ele>
        <time>2021-07-02T11:29:01Z</time>
      </trkpt>
      <trkpt lat="42.507065" lon="1.529433">
        <ele>1016.60193</ele>
        <time>2021-07-02T11:29:02Z</time>
      </trkpt>
      <trkpt lat="42.506981" lon="1.529307">
        <ele>1015.62952</ele>
        <time>2021-07-02T11:29:03Z</time>
      </trkpt>
      <trkpt lat="42.506878" lon="1.529164">
        <ele>1014.15491</ele>
        <time>2021-07-02T11:29:04Z</time>
      </trkpt>
      <trkpt lat="42.506863" lon="1.529138">
        <ele>1013.33289</ele>
        <time>2021-07-02T11:29:05Z</time>
      </trkpt>
      <trkpt lat="42.506851" lon="1.529122">
        <ele>1013.49731</ele>
        <time>2021-07-02T11:29:06Z</time>
      </trkpt>
      <trkpt lat="42.506840" lon="1.529106">
        <ele>1011.64404</ele>
        <time>2021-07-02T11:29:07Z</time>
      </trkpt>
      <trkpt lat="42.506821" lon="1.529079">
        <ele>1011.65930</ele>
        <time>2021-07-02T11:29:08Z</time>
      </trkpt>
      <trkpt lat="42.506802" lon="1.529050">
        <ele>1010.39307</ele>
        <time>2021-07-02T11:29:09Z</time>
      </trkpt>
      <trkpt lat="42.506779" lon="1.529020">
        <ele>1009.29224</ele>
        <time>2021-07-02T11:29:10Z</time>
      </trkpt>
      <trkpt lat="42.506756" lon="1.528988">
        <ele>1008.76709</ele>
        <time>2021-07-02T11:29:11Z</time>
      </trkpt>
      <trkpt lat="42.506729" lon="1.528948">
        <ele>1007.57251</ele>
        <time>2021-07-02T11:29:12Z</time>
      </trkpt>
      <trkpt lat="42.506702" lon="1.528911">
        <ele>1007.71497</ele>
        <time>2021-07-02T11:29:13Z</time>
      </trkpt>
      <trkpt lat="42.506680" lon="1.528875">
        <ele>1007.09961</ele>
        <time>2021-07-02T11:29:14Z</time>
      </trkpt>
      <trkpt lat="42.506657" lon="1.528839">
        <ele>1004.86365</ele>
        <time>2021-07-02T11:29:15Z</time>
      </trkpt>
      <trkpt lat="42.506634" lon="1.528806">
        <ele>1003.47852</ele>
        <time>2021-07-02T11:29:16Z</time>
      </trkpt>
      <trkpt lat="42.506599" lon="1.528755">
        <ele>1004.09619</ele>
        <time>2021-07-02T11:29:17Z</time>
      </trkpt>
      <trkpt lat="42.506557" lon="1.528697">
        <ele>1003.41125</ele>
        <time>2021-07-02T11:29:18Z</time>
      </trkpt>
      <trkpt lat="42.506531" lon="1.528657">
        <ele>1001.32104</ele>
        <time>2021-07-02T11:29:19Z</time>
      </trkpt>
      <trkpt lat="42.506496" lon="1.528623">
        <ele>999.83472</ele>
        <time>2021-07-02T11:29:20Z</time>
      </trkpt>
      <trkpt lat="42.506470" lon="1.528614">
        <ele>998.42358</ele>
        <time>2021-07-02T11:29:21Z</time>
      </trkpt>
      <trkpt lat="42.506466" lon="1.528614">
        <ele>998.56641</ele>
        <time>2021-07-02T11:29:22Z</time>
      </trkpt>
      <trkpt lat="42.506466" lon="1.528614">
        <ele>997.95398</ele>
        <time>2021-07-02T11:29:23Z</time>
      </trkpt>
      <trkpt lat="42.506466" lon="1.528614">
        <ele>996.44031</ele>
        <time>2021-07-02T11:29:24Z</time>
      </trkpt>
      <trkpt lat="42.506466" lon="1.528614">
        <ele>996.42493</ele>
        <time>2021-07-02T11:29:25Z</time>
      </trkpt>
      <trkpt lat="42.506466" lon="1.528614">
        <ele>996.18726</ele>
        <time>2021-07-02T11:29:26Z</time>
      </trkpt>
      <trkpt lat="42.506466" lon="1.528614">
        <ele>996.28210</ele>
        <time>2021-07-02T11:29:27Z</time>
      </trkpt>
      <trkpt lat="42.506462" lon="1.528613">
        <ele>996.91345</ele>
        <time>2021-07-02T11:29:28Z</time>
      </trkpt>
      <trkpt lat="42.506443" lon="1.528612">
        <ele>998.12048</ele>
        <time>2021-07-02T11:29:29Z</time>
      </trkpt>
      <trkpt lat="42.506443" lon="1.528612">
        <ele>1001.73975</ele>
        <time>2021-07-02T11:29:30Z</time>
      </trkpt>
      <trkpt lat="42.506439" lon="1.528611">
        <ele>1003.38892</ele>
        <time>2021-07-02T11:29:31Z</time>
      </trkpt>
      <trkpt lat="42.506443" lon="1.528573">
        <ele>1004.21350</ele>
        <time>2021-07-02T11:29:32Z</time>
      </trkpt>
      <trkpt lat="42.506538" lon="1.528457">
        <ele>1004.16162</ele>
        <time>2021-07-02T11:29:33Z</time>
      </trkpt>
      <trkpt lat="42.506538" lon="1.528457">
        <ele>1005.16028</ele>
        <time>2021-07-02T11:29:34Z</time>
      </trkpt>
      <trkpt lat="42.506538" lon="1.528457">
        <ele>1005.12488</ele>
        <time>2021-07-02T11:29:35Z</time>
      </trkpt>
      <trkpt lat="42.506538" lon="1.528457">
        <ele>1019.08228</ele>
        <time>2021-07-02T11:29:36Z</time>
      </trkpt>
      <trkpt lat="42.506538" lon="1.528457">
        <ele>1019.22339</ele>
        <time>2021-07-02T11:29:37Z</time>
      </trkpt>
      <trkpt lat="42.506538" lon="1.528457">
        <ele>1018.28296</ele>
        <time>2021-07-02T11:29:38Z</time>
      </trkpt>
      <trkpt lat="42.506538" lon="1.528457">
        <ele>1017.99890</ele>
        <time>2021-07-02T11:29:39Z</time>
      </trkpt>
      <trkpt lat="42.506538" lon="1.528457">
        <ele>1010.35620</ele>
        <time>2021-07-02T11:29:40Z</time>
      </trkpt>
      <trkpt lat="42.506538" lon="1.528457">
        <ele>1010.56506</ele>
        <time>2021-07-02T11:29:41Z</time>
      </trkpt>
      <trkpt lat="42.506538" lon="1.528457">
        <ele>1010.35425</ele>
        <time>2021-07-02T11:29:42Z</time>
      </trkpt>
      <trkpt lat="42.506538" lon="1.528457">
        <ele>1010.62744</ele>
        <time>2021-07-02T11:29:43Z</time>
      </trkpt>
      <trkpt lat="42.506538" lon="1.528457">
        <ele>1010.20618</ele>
        <time>2021-07-02T11:29:44Z</time>
      </trkpt>
      <trkpt lat="42.506538" lon="1.528457">
        <ele>1010.41064</ele>
        <time>2021-07-02T11:29:45Z</time>
      </trkpt>
      <trkpt lat="42.506538" lon="1.528457">
        <ele>1009.62915</ele>
        <time>2021-07-02T11:29:46Z</time>
      </trkpt>
      <trkpt lat="42.506538" lon="1.528457">
        <ele>1009.41101</ele>
        <time>2021-07-02T11:29:47Z</time>
      </trkpt>
      <trkpt lat="42.506538" lon="1.528457">
        <ele>1009.33313</ele>
        <time>2021-07-02T11:29:48Z</time>
      </trkpt>
      <trkpt lat="42.506538" lon="1.528457">
        <ele>1008.10510</ele>
        <time>2021-07-02T11:29:49Z</time>
      </trkpt>
      <trkpt lat="42.506538" lon="1.528457">
        <ele>1009.31311</ele>
        <time>2021-07-02T11:29:50Z</time>
      </trkpt>
      <trkpt lat="42.506538" lon="1.528457">
        <ele>1009.90222</ele>
        <time>2021-07-02T11:29:51Z</time>
      </trkpt>
      <trkpt lat="42.506538" lon="1.528457">
        <ele>1010.06860</ele>
        <time>2021-07-02T11:29:52Z</time>
      </trkpt>
      <trkpt lat="42.506538" lon="1.528457">
        <ele>1009.65540</ele>
        <time>2021-07-02T11:29:53Z</time>
      </trkpt>
      <trkpt lat="42.506538" lon="1.528457">
        <ele>1009.73206</ele>
        <time>2021-07-02T11:29:54Z</time>
      </trkpt>
      <trkpt lat="42.506538" lon="1.528457">
        <ele>1009.99487</ele>
        <time>2021-07-02T11:29:55Z</time>
      </trkpt>
      <trkpt lat="42.506538" lon="1.528457">
        <ele>1010.88477</ele>
        <time>2021-07-02T11:29:56Z</time>
      </trkpt>
      <trkpt lat="42.506538" lon="1.528457">
        <ele>1011.09802</ele>
        <time>2021-07-02T11:29:57Z</time>
      </trkpt>
      <trkpt lat="42.506538" lon="1.528457">
        <ele>1011.19763</ele>
        <time>2021-07-02T11:29:58Z</time>
      </trkpt>
      <trkpt lat="42.506538" lon="1.528457">
        <ele>1011.02014</ele>
        <time>2021-07-02T11:29:59Z</time>
      </trkpt>
      <trkpt lat="42.506538" lon="1.528457">
        <ele>1010.93433</ele>
        <time>2021-07-02T11:30:00Z</time>
      </trkpt>
      <trkpt lat="42.506538" lon="1.528457">
        <ele>1019.37946</ele>
        <time>2021-07-02T11:30:01Z</time>
      </trkpt>
      <trkpt lat="42.506538" lon="1.528457">
        <ele>1017.59827</ele>
        <time>2021-07-02T11:30:02Z</time>
      </trkpt>
      <trkpt lat="42.506538" lon="1.528457">
        <ele>1013.12891</ele>
        <time>2021-07-02T11:30:03Z</time>
      </trkpt>
      <trkpt lat="42.506538" lon="1.528457">
        <ele>1012.30798</ele>
        <time>2021-07-02T11:30:04Z</time>
      </trkpt>
      <trkpt lat="42.506538" lon="1.528457">
        <ele>1011.74597</ele>
        <time>2021-07-02T11:30:05Z</time>
      </trkpt>
      <trkpt lat="42.506538" lon="1.528457">
        <ele>1012.85327</ele>
        <time>2021-07-02T11:30:06Z</time>
      </trkpt>
      <trkpt lat="42.506538" lon="1.528457">
        <ele>1012.72754</ele>
        <time>2021-07-02T11:30:07Z</time>
      </trkpt>
      <trkpt lat="42.506538" lon="1.528457">
        <ele>1012.63098</ele>
        <time>2021-07-02T11:30:08Z</time>
      </trkpt>
      <trkpt lat="42.506538" lon="1.528457">
        <ele>1012.27295</ele>
        <time>2021-07-02T11:30:09Z</time>
      </trkpt>
      <trkpt lat="42.506538" lon="1.528457">
        <ele>1012.96863</ele>
        <time>2021-07-02T11:30:10Z</time>
      </trkpt>
      <trkpt lat="42.506538" lon="1.528457">
        <ele>1012.80835</ele>
        <time>2021-07-02T11:30:11Z</time>
      </trkpt>
      <trkpt lat="42.506538" lon="1.528457">
        <ele>1012.78125</ele>
        <time>2021-07-02T11:30:12Z</time>
      </trkpt>
      <trkpt lat="42.506443" lon="1.528571">
        <ele>1013.05200</ele>
        <time>2021-07-02T11:30:13Z</time>
      </trkpt>
      <trkpt lat="42.506435" lon="1.528578">
        <ele>1013.04187</ele>
        <time>2021-07-02T11:30:14Z</time>
      </trkpt>
      <trkpt lat="42.506428" lon="1.528590">
        <ele>1013.40271</ele>
        <time>2021-07-02T11:30:15Z</time>
      </trkpt>
      <trkpt lat="42.506413" lon="1.528607">
        <ele>1013.68445</ele>
        <time>2021-07-02T11:30:16Z</time>
      </trkpt>
      <trkpt lat="42.506393" lon="1.528617">
        <ele>1013.35864</ele>
        <time>2021-07-02T11:30:17Z</time>
      </trkpt>
      <trkpt lat="42.506382" lon="1.528624">
        <ele>1013.51892</ele>
        <time>2021-07-02T11:30:18Z</time>
      </trkpt>
      <trkpt lat="42.506363" lon="1.528635">
        <ele>1013.65552</ele>
        <time>2021-07-02T11:30:19Z</time>
      </trkpt>
      <trkpt lat="42.506340" lon="1.528664">
        <ele>1014.17285</ele>
        <time>2021-07-02T11:30:20Z</time>
      </trkpt>
      <trkpt lat="42.506313" lon="1.528700">
        <ele>1014.64734</ele>
        <time>2021-07-02T11:30:21Z</time>
      </trkpt>
      <trkpt lat="42.506283" lon="1.528738">
        <ele>1014.84827</ele>
        <time>2021-07-02T11:30:22Z</time>
      </trkpt>
      <trkpt lat="42.506252" lon="1.528776">
        <ele>1018.29926</ele>
        <time>2021-07-02T11:30:23Z</time>
      </trkpt>
      <trkpt lat="42.506229" lon="1.528805">
        <ele>1018.32605</ele>
        <time>2021-07-02T11:30:24Z</time>
      </trkpt>
      <trkpt lat="42.506214" lon="1.528827">
        <ele>1018.48444</ele>
        <time>2021-07-02T11:30:25Z</time>
      </trkpt>
      <trkpt lat="42.506203" lon="1.528840">
        <ele>1017.01794</ele>
        <time>2021-07-02T11:30:26Z</time>
      </trkpt>
      <trkpt lat="42.506184" lon="1.528863">
        <ele>1016.32446</ele>
        <time>2021-07-02T11:30:27Z</time>
      </trkpt>
      <trkpt lat="42.506145" lon="1.528911">
        <ele>1016.14783</ele>
        <time>2021-07-02T11:30:28Z</time>
      </trkpt>
      <trkpt lat="42.506111" lon="1.528955">
        <ele>1015.49707</ele>
        <time>2021-07-02T11:30:29Z</time>
      </trkpt>
      <trkpt lat="42.506081" lon="1.528996">
        <ele>1015.30371</ele>
        <time>2021-07-02T11:30:30Z</time>
      </trkpt>
      <trkpt lat="42.506035" lon="1.529051">
        <ele>1018.81378</ele>
        <time>2021-07-02T11:30:31Z</time>
      </trkpt>
      <trkpt lat="42.506004" lon="1.529088">
        <ele>1018.91876</ele>
        <time>2021-07-02T11:30:32Z</time>
      </trkpt>
      <trkpt lat="42.505974" lon="1.529125">
        <ele>1018.88458</ele>
        <time>2021-07-02T11:30:33Z</time>
      </trkpt>
      <trkpt lat="42.505962" lon="1.529138">
        <ele>1017.72607</ele>
        <time>2021-07-02T11:30:34Z</time>
      </trkpt>
      <trkpt lat="42.505959" lon="1.529147">
        <ele>1017.39990</ele>
        <time>2021-07-02T11:30:35Z</time>
      </trkpt>
      <trkpt lat="42.505939" lon="1.529169">
        <ele>1018.99695</ele>
        <time>2021-07-02T11:30:36Z</time>
      </trkpt>
      <trkpt lat="42.505909" lon="1.529154">
        <ele>1019.25195</ele>
        <time>2021-07-02T11:30:37Z</time>
      </trkpt>
      <trkpt lat="42.505878" lon="1.529057">
        <ele>1019.11902</ele>
        <time>2021-07-02T11:30:38Z</time>
      </trkpt>
      <trkpt lat="42.505863" lon="1.529017">
        <ele>1019.25586</ele>
        <time>2021-07-02T11:30:39Z</time>
      </trkpt>
      <trkpt lat="42.505844" lon="1.528964">
        <ele>1019.05908</ele>
        <time>2021-07-02T11:30:40Z</time>
      </trkpt>
      <trkpt lat="42.505825" lon="1.528900">
        <ele>1018.84070</ele>
        <time>2021-07-02T11:30:41Z</time>
      </trkpt>
      <trkpt lat="42.505825" lon="1.528900">
        <ele>1018.52710</ele>
        <time>2021-07-02T11:30:42Z</time>
      </trkpt>
      <trkpt lat="42.505802" lon="1.528837">
        <ele>1017.81458</ele>
        <time>2021-07-02T11:30:43Z</time>
      </trkpt>
      <trkpt lat="42.505783" lon="1.528775">
        <ele>1017.23999</ele>
        <time>2021-07-02T11:30:44Z</time>
      </trkpt>
      <trkpt lat="42.505760" lon="1.528706">
        <ele>1016.98987</ele>
        <time>2021-07-02T11:30:45Z</time>
      </trkpt>
      <trkpt lat="42.505737" lon="1.528640">
        <ele>1016.45483</ele>
        <time>2021-07-02T11:30:46Z</time>
      </trkpt>
      <trkpt lat="42.505711" lon="1.528546">
        <ele>1015.96045</ele>
        <time>2021-07-02T11:30:47Z</time>
      </trkpt>
      <trkpt lat="42.505688" lon="1.528459">
        <ele>1015.64624</ele>
        <time>2021-07-02T11:30:48Z</time>
      </trkpt>
      <trkpt lat="42.505669" lon="1.528393">
        <ele>1015.57019</ele>
        <time>2021-07-02T11:30:49Z</time>
      </trkpt>
      <trkpt lat="42.505650" lon="1.528323">
        <ele>1013.90967</ele>
        <time>2021-07-02T11:30:50Z</time>
      </trkpt>
      <trkpt lat="42.505630" lon="1.528258">
        <ele>1014.03284</ele>
        <time>2021-07-02T11:30:51Z</time>
      </trkpt>
      <trkpt lat="42.505611" lon="1.528189">
        <ele>1016.00647</ele>
        <time>2021-07-02T11:30:52Z</time>
      </trkpt>
      <trkpt lat="42.505608" lon="1.528178">
        <ele>1015.78662</ele>
        <time>2021-07-02T11:30:53Z</time>
      </trkpt>
      <trkpt lat="42.505608" lon="1.528178">
        <ele>1016.05859</ele>
        <time>2021-07-02T11:30:54Z</time>
      </trkpt>
      <trkpt lat="42.505608" lon="1.528178">
        <ele>1016.10156</ele>
        <time>2021-07-02T11:30:55Z</time>
      </trkpt>
      <trkpt lat="42.505608" lon="1.528178">
        <ele>1013.66711</ele>
        <time>2021-07-02T11:30:56Z</time>
      </trkpt>
      <trkpt lat="42.505539" lon="1.527941">
        <ele>1013.73120</ele>
        <time>2021-07-02T11:30:57Z</time>
      </trkpt>
      <trkpt lat="42.505493" lon="1.527792">
        <ele>1016.07361</ele>
        <time>2021-07-02T11:30:58Z</time>
      </trkpt>
      <trkpt lat="42.505482" lon="1.527751">
        <ele>1015.93689</ele>
        <time>2021-07-02T11:30:59Z</time>
      </trkpt>
      <trkpt lat="42.505470" lon="1.527714">
        <ele>1011.93555</ele>
        <time>2021-07-02T11:31:00Z</time>
      </trkpt>
      <trkpt lat="42.505466" lon="1.527694">
        <ele>1011.42188</ele>
        <time>2021-07-02T11:31:01Z</time>
      </trkpt>
      <trkpt lat="42.505459" lon="1.527672">
        <ele>1011.14355</ele>
        <time>2021-07-02T11:31:02Z</time>
      </trkpt>
      <trkpt lat="42.505455" lon="1.527663">
        <ele>1010.32288</ele>
        <time>2021-07-02T11:31:03Z</time>
      </trkpt>
      <trkpt lat="42.505455" lon="1.527663">
        <ele>1010.38367</ele>
        <time>2021-07-02T11:31:04Z</time>
      </trkpt>
      <trkpt lat="42.505455" lon="1.527663">
        <ele>1010.49878</ele>
        <time>2021-07-02T11:31:05Z</time>
      </trkpt>
      <trkpt lat="42.505451" lon="1.527657">
        <ele>1010.26233</ele>
        <time>2021-07-02T11:31:06Z</time>
      </trkpt>
      <trkpt lat="42.505424" lon="1.527609">
        <ele>1010.33276</ele>
        <time>2021-07-02T11:31:07Z</time>
      </trkpt>
      <trkpt lat="42.505424" lon="1.527609">
        <ele>1011.54919</ele>
        <time>2021-07-02T11:31:08Z</time>
      </trkpt>
      <trkpt lat="42.505424" lon="1.527609">
        <ele>1011.11011</ele>
        <time>2021-07-02T11:31:09Z</time>
      </trkpt>
      <trkpt lat="42.505424" lon="1.527609">
        <ele>1010.77393</ele>
        <time>2021-07-02T11:31:10Z</time>
      </trkpt>
      <trkpt lat="42.505424" lon="1.527609">
        <ele>1009.69275</ele>
        <time>2021-07-02T11:31:11Z</time>
      </trkpt>
      <trkpt lat="42.505424" lon="1.527609">
        <ele>1009.17163</ele>
        <time>2021-07-02T11:31:12Z</time>
      </trkpt>
      <trkpt lat="42.505424" lon="1.527609">
        <ele>1008.39868</ele>
        <time>2021-07-02T11:31:13Z</time>
      </trkpt>
      <trkpt lat="42.505424" lon="1.527609">
        <ele>1015.96057</ele>
        <time>2021-07-02T11:31:14Z</time>
      </trkpt>
      <trkpt lat="42.505424" lon="1.527609">
        <ele>1016.06757</ele>
        <time>2021-07-02T11:31:15Z</time>
      </trkpt>
      <trkpt lat="42.505424" lon="1.527609">
        <ele>1015.96985</ele>
        <time>2021-07-02T11:31:16Z</time>
      </trkpt>
      <trkpt lat="42.505424" lon="1.527609">
        <ele>1011.13159</ele>
        <time>2021-07-02T11:31:17Z</time>
      </trkpt>
      <trkpt lat="42.505424" lon="1.527609">
        <ele>1010.31873</ele>
        <time>2021-07-02T11:31:18Z</time>
      </trkpt>
      <trkpt lat="42.505424" lon="1.527609">
        <ele>1010.21985</ele>
        <time>2021-07-02T11:31:19Z</time>
      </trkpt>
      <trkpt lat="42.505424" lon="1.527609">
        <ele>1010.09229</ele>
        <time>2021-07-02T11:31:20Z</time>
      </trkpt>
      <trkpt lat="42.505424" lon="1.527609">
        <ele>1009.43750</ele>
        <time>2021-07-02T11:31:21Z</time>
      </trkpt>
      <trkpt lat="42.505417" lon="1.527601">
        <ele>1009.52087</ele>
        <time>2021-07-02T11:31:22Z</time>
      </trkpt>
      <trkpt lat="42.505409" lon="1.527592">
        <ele>1009.73511</ele>
        <time>2021-07-02T11:31:23Z</time>
      </trkpt>
      <trkpt lat="42.505409" lon="1.527592">
        <ele>1010.13428</ele>
        <time>2021-07-02T11:31:24Z</time>
      </trkpt>
      <trkpt lat="42.505409" lon="1.527592">
        <ele>1010.23120</ele>
        <time>2021-07-02T11:31:25Z</time>
      </trkpt>
      <trkpt lat="42.505386" lon="1.527566">
        <ele>1009.60999</ele>
        <time>2021-07-02T11:31:26Z</time>
      </trkpt>
      <trkpt lat="42.505409" lon="1.527495">
        <ele>1008.87439</ele>
        <time>2021-07-02T11:31:27Z</time>
      </trkpt>
      <trkpt lat="42.505421" lon="1.527360">
        <ele>1007.39856</ele>
        <time>2021-07-02T11:31:28Z</time>
      </trkpt>
      <trkpt lat="42.505325" lon="1.527257">
        <ele>1007.44885</ele>
        <time>2021-07-02T11:31:29Z</time>
      </trkpt>
      <trkpt lat="42.505276" lon="1.527265">
        <ele>1006.98376</ele>
        <time>2021-07-02T11:31:30Z</time>
      </trkpt>
      <trkpt lat="42.505264" lon="1.527022">
        <ele>1006.66565</ele>
        <time>2021-07-02T11:31:31Z</time>
      </trkpt>
      <trkpt lat="42.505249" lon="1.526922">
        <ele>1005.96777</ele>
        <time>2021-07-02T11:31:32Z</time>
      </trkpt>
      <trkpt lat="42.505234" lon="1.526813">
        <ele>1005.52478</ele>
        <time>2021-07-02T11:31:33Z</time>
      </trkpt>
      <trkpt lat="42.505219" lon="1.526701">
        <ele>1005.23816</ele>
        <time>2021-07-02T11:31:34Z</time>
      </trkpt>
      <trkpt lat="42.505203" lon="1.526590">
        <ele>1004.32495</ele>
        <time>2021-07-02T11:31:35Z</time>
      </trkpt>
      <trkpt lat="42.505192" lon="1.526485">
        <ele>1003.82349</ele>
        <time>2021-07-02T11:31:36Z</time>
      </trkpt>
      <trkpt lat="42.505177" lon="1.526376">
        <ele>1003.32251</ele>
        <time>2021-07-02T11:31:37Z</time>
      </trkpt>
      <trkpt lat="42.505165" lon="1.526276">
        <ele>1003.22644</ele>
        <time>2021-07-02T11:31:38Z</time>
      </trkpt>
      <trkpt lat="42.505150" lon="1.526172">
        <ele>1003.61914</ele>
        <time>2021-07-02T11:31:39Z</time>
      </trkpt>
      <trkpt lat="42.505135" lon="1.526067">
        <ele>1003.53296</ele>
        <time>2021-07-02T11:31:40Z</time>
      </trkpt>
      <trkpt lat="42.505119" lon="1.525960">
        <ele>1003.37292</ele>
        <time>2021-07-02T11:31:41Z</time>
      </trkpt>
      <trkpt lat="42.505100" lon="1.525840">
        <ele>1003.52637</ele>
        <time>2021-07-02T11:31:42Z</time>
      </trkpt>
      <trkpt lat="42.505085" lon="1.525726">
        <ele>1003.64075</ele>
        <time>2021-07-02T11:31:43Z</time>
      </trkpt>
      <trkpt lat="42.505070" lon="1.525616">
        <ele>1003.60925</ele>
        <time>2021-07-02T11:31:44Z</time>
      </trkpt>
      <trkpt lat="42.505054" lon="1.525500">
        <ele>1003.44653</ele>
        <time>2021-07-02T11:31:45Z</time>
      </trkpt>
      <trkpt lat="42.505039" lon="1.525399">
        <ele>1003.44177</ele>
        <time>2021-07-02T11:31:46Z</time>
      </trkpt>
      <trkpt lat="42.505020" lon="1.525283">
        <ele>1003.75720</ele>
        <time>2021-07-02T11:31:47Z</time>
      </trkpt>
      <trkpt lat="42.505005" lon="1.525173">
        <ele>1003.05383</ele>
        <time>2021-07-02T11:31:48Z</time>
      </trkpt>
      <trkpt lat="42.504990" lon="1.525055">
        <ele>1002.92969</ele>
        <time>2021-07-02T11:31:49Z</time>
      </trkpt>
      <trkpt lat="42.504990" lon="1.525055">
        <ele>1001.61646</ele>
        <time>2021-07-02T11:31:50Z</time>
      </trkpt>
      <trkpt lat="42.504971" lon="1.524942">
        <ele>1001.31030</ele>
        <time>2021-07-02T11:31:51Z</time>
      </trkpt>
      <trkpt lat="42.504951" lon="1.524826">
        <ele>1000.40515</ele>
        <time>2021-07-02T11:31:52Z</time>
      </trkpt>
      <trkpt lat="42.504936" lon="1.524724">
        <ele>1000.21289</ele>
        <time>2021-07-02T11:31:53Z</time>
      </trkpt>
      <trkpt lat="42.504925" lon="1.524620">
        <ele>999.62817</ele>
        <time>2021-07-02T11:31:54Z</time>
      </trkpt>
      <trkpt lat="42.504906" lon="1.524517">
        <ele>1000.12793</ele>
        <time>2021-07-02T11:31:55Z</time>
      </trkpt>
      <trkpt lat="42.504890" lon="1.524414">
        <ele>999.76428</ele>
        <time>2021-07-02T11:31:56Z</time>
      </trkpt>
      <trkpt lat="42.504875" lon="1.524308">
        <ele>999.51367</ele>
        <time>2021-07-02T11:31:57Z</time>
      </trkpt>
      <trkpt lat="42.504860" lon="1.524193">
        <ele>999.96533</ele>
        <time>2021-07-02T11:31:58Z</time>
      </trkpt>
      <trkpt lat="42.504841" lon="1.524080">
        <ele>1000.37756</ele>
        <time>2021-07-02T11:31:59Z</time>
      </trkpt>
      <trkpt lat="42.504826" lon="1.523979">
        <ele>1000.34216</ele>
        <time>2021-07-02T11:32:00Z</time>
      </trkpt>
      <trkpt lat="42.504814" lon="1.523894">
        <ele>999.87305</ele>
        <time>2021-07-02T11:32:01Z</time>
      </trkpt>
      <trkpt lat="42.504803" lon="1.523820">
        <ele>999.89771</ele>
        <time>2021-07-02T11:32:02Z</time>
      </trkpt>
      <trkpt lat="42.504791" lon="1.523741">
        <ele>999.88086</ele>
        <time>2021-07-02T11:32:03Z</time>
      </trkpt>
      <trkpt lat="42.504780" lon="1.523665">
        <ele>999.58350</ele>
        <time>2021-07-02T11:32:04Z</time>
      </trkpt>
      <trkpt lat="42.504768" lon="1.523591">
        <ele>999.93115</ele>
        <time>2021-07-02T11:32:05Z</time>
      </trkpt>
      <trkpt lat="42.504757" lon="1.523529">
        <ele>1000.23071</ele>
        <time>2021-07-02T11:32:06Z</time>
      </trkpt>
      <trkpt lat="42.504753" lon="1.523502">
        <ele>999.88159</ele>
        <time>2021-07-02T11:32:07Z</time>
      </trkpt>
      <trkpt lat="42.504749" lon="1.523480">
        <ele>1000.11511</ele>
        <time>2021-07-02T11:32:08Z</time>
      </trkpt>
      <trkpt lat="42.504745" lon="1.523450">
        <ele>1000.25134</ele>
        <time>2021-07-02T11:32:09Z</time>
      </trkpt>
      <trkpt lat="42.504742" lon="1.523424">
        <ele>1000.83752</ele>
        <time>2021-07-02T11:32:10Z</time>
      </trkpt>
      <trkpt lat="42.504734" lon="1.523384">
        <ele>1001.03931</ele>
        <time>2021-07-02T11:32:11Z</time>
      </trkpt>
      <trkpt lat="42.504726" lon="1.523340">
        <ele>1001.01941</ele>
        <time>2021-07-02T11:32:12Z</time>
      </trkpt>
      <trkpt lat="42.504719" lon="1.523297">
        <ele>1001.49268</ele>
        <time>2021-07-02T11:32:13Z</time>
      </trkpt>
      <trkpt lat="42.504711" lon="1.523252">
        <ele>1001.65698</ele>
        <time>2021-07-02T11:32:14Z</time>
      </trkpt>
      <trkpt lat="42.504704" lon="1.523193">
        <ele>1001.68335</ele>
        <time>2021-07-02T11:32:15Z</time>
      </trkpt>
      <trkpt lat="42.504696" lon="1.523131">
        <ele>1001.78442</ele>
        <time>2021-07-02T11:32:16Z</time>
      </trkpt>
      <trkpt lat="42.504688" lon="1.523072">
        <ele>1001.64941</ele>
        <time>2021-07-02T11:32:17Z</time>
      </trkpt>
      <trkpt lat="42.504681" lon="1.523010">
        <ele>1001.51855</ele>
        <time>2021-07-02T11:32:18Z</time>
      </trkpt>
      <trkpt lat="42.504673" lon="1.522945">
        <ele>1001.53699</ele>
        <time>2021-07-02T11:32:19Z</time>
      </trkpt>
      <trkpt lat="42.504665" lon="1.522877">
        <ele>1001.94104</ele>
        <time>2021-07-02T11:32:20Z</time>
      </trkpt>
      <trkpt lat="42.504658" lon="1.522818">
        <ele>1002.30322</ele>
        <time>2021-07-02T11:32:21Z</time>
      </trkpt>
      <trkpt lat="42.504658" lon="1.522818">
        <ele>1002.43396</ele>
        <time>2021-07-02T11:32:22Z</time>
      </trkpt>
      <trkpt lat="42.504650" lon="1.522754">
        <ele>1002.26440</ele>
        <time>2021-07-02T11:32:23Z</time>
      </trkpt>
      <trkpt lat="42.504650" lon="1.522705">
        <ele>1002.67712</ele>
        <time>2021-07-02T11:32:24Z</time>
      </trkpt>
      <trkpt lat="42.504646" lon="1.522643">
        <ele>1002.46741</ele>
        <time>2021-07-02T11:32:25Z</time>
      </trkpt>
      <trkpt lat="42.504642" lon="1.522557">
        <ele>1002.55603</ele>
        <time>2021-07-02T11:32:26Z</time>
      </trkpt>
      <trkpt lat="42.504639" lon="1.522498">
        <ele>1003.05225</ele>
        <time>2021-07-02T11:32:27Z</time>
      </trkpt>
      <trkpt lat="42.504635" lon="1.522450">
        <ele>1003.32544</ele>
        <time>2021-07-02T11:32:28Z</time>
      </trkpt>
      <trkpt lat="42.504635" lon="1.522418">
        <ele>1003.86243</ele>
        <time>2021-07-02T11:32:29Z</time>
      </trkpt>
      <trkpt lat="42.504635" lon="1.522406">
        <ele>1003.63708</ele>
        <time>2021-07-02T11:32:30Z</time>
      </trkpt>
      <trkpt lat="42.504635" lon="1.522394">
        <ele>1003.81458</ele>
        <time>2021-07-02T11:32:31Z</time>
      </trkpt>
      <trkpt lat="42.504635" lon="1.522381">
        <ele>1004.52039</ele>
        <time>2021-07-02T11:32:32Z</time>
      </trkpt>
      <trkpt lat="42.504631" lon="1.522372">
        <ele>1004.69275</ele>
        <time>2021-07-02T11:32:33Z</time>
      </trkpt>
      <trkpt lat="42.504631" lon="1.522364">
        <ele>1005.21545</ele>
        <time>2021-07-02T11:32:34Z</time>
      </trkpt>
      <trkpt lat="42.504639" lon="1.522339">
        <ele>1005.07507</ele>
        <time>2021-07-02T11:32:35Z</time>
      </trkpt>
      <trkpt lat="42.504688" lon="1.522339">
        <ele>1005.28040</ele>
        <time>2021-07-02T11:32:36Z</time>
      </trkpt>
      <trkpt lat="42.504780" lon="1.522281">
        <ele>1005.33142</ele>
        <time>2021-07-02T11:32:37Z</time>
      </trkpt>
      <trkpt lat="42.504818" lon="1.522170">
        <ele>1005.23059</ele>
        <time>2021-07-02T11:32:38Z</time>
      </trkpt>
      <trkpt lat="42.504810" lon="1.522064">
        <ele>1004.78394</ele>
        <time>2021-07-02T11:32:39Z</time>
      </trkpt>
      <trkpt lat="42.504772" lon="1.521962">
        <ele>1004.23657</ele>
        <time>2021-07-02T11:32:40Z</time>
      </trkpt>
      <trkpt lat="42.504715" lon="1.521922">
        <ele>1004.29944</ele>
        <time>2021-07-02T11:32:41Z</time>
      </trkpt>
      <trkpt lat="42.504696" lon="1.521913">
        <ele>1004.37903</ele>
        <time>2021-07-02T11:32:42Z</time>
      </trkpt>
      <trkpt lat="42.504696" lon="1.521913">
        <ele>1003.92041</ele>
        <time>2021-07-02T11:32:43Z</time>
      </trkpt>
      <trkpt lat="42.504593" lon="1.521933">
        <ele>1003.52722</ele>
        <time>2021-07-02T11:32:44Z</time>
      </trkpt>
      <trkpt lat="42.504593" lon="1.521933">
        <ele>1003.55334</ele>
        <time>2021-07-02T11:32:45Z</time>
      </trkpt>
      <trkpt lat="42.504589" lon="1.521927">
        <ele>1003.68274</ele>
        <time>2021-07-02T11:32:46Z</time>
      </trkpt>
      <trkpt lat="42.504456" lon="1.521479">
        <ele>1003.79529</ele>
        <time>2021-07-02T11:32:47Z</time>
      </trkpt>
      <trkpt lat="42.504398" lon="1.521332">
        <ele>1003.47461</ele>
        <time>2021-07-02T11:32:48Z</time>
      </trkpt>
      <trkpt lat="42.504345" lon="1.521198">
        <ele>1003.45532</ele>
        <time>2021-07-02T11:32:49Z</time>
      </trkpt>
      <trkpt lat="42.504299" lon="1.521081">
        <ele>1003.46411</ele>
        <time>2021-07-02T11:32:50Z</time>
      </trkpt>
      <trkpt lat="42.504246" lon="1.520956">
        <ele>1003.07166</ele>
        <time>2021-07-02T11:32:51Z</time>
      </trkpt>
      <trkpt lat="42.504185" lon="1.520823">
        <ele>1003.02002</ele>
        <time>2021-07-02T11:32:52Z</time>
      </trkpt>
      <trkpt lat="42.504131" lon="1.520700">
        <ele>1002.66956</ele>
        <time>2021-07-02T11:32:53Z</time>
      </trkpt>
      <trkpt lat="42.504131" lon="1.520700">
        <ele>1002.69861</ele>
        <time>2021-07-02T11:32:54Z</time>
      </trkpt>
      <trkpt lat="42.504082" lon="1.520579">
        <ele>1002.24377</ele>
        <time>2021-07-02T11:32:55Z</time>
      </trkpt>
      <trkpt lat="42.504025" lon="1.520453">
        <ele>1001.81787</ele>
        <time>2021-07-02T11:32:56Z</time>
      </trkpt>
      <trkpt lat="42.503979" lon="1.520338">
        <ele>1001.93359</ele>
        <time>2021-07-02T11:32:57Z</time>
      </trkpt>
      <trkpt lat="42.503929" lon="1.520201">
        <ele>1001.45483</ele>
        <time>2021-07-02T11:32:58Z</time>
      </trkpt>
      <trkpt lat="42.503883" lon="1.520077">
        <ele>1001.51038</ele>
        <time>2021-07-02T11:32:59Z</time>
      </trkpt>
      <trkpt lat="42.503834" lon="1.519953">
        <ele>1001.17419</ele>
        <time>2021-07-02T11:33:00Z</time>
      </trkpt>
      <trkpt lat="42.503796" lon="1.519851">
        <ele>1001.05872</ele>
        <time>2021-07-02T11:33:01Z</time>
      </trkpt>
      <trkpt lat="42.503765" lon="1.519770">
        <ele>1001.29529</ele>
        <time>2021-07-02T11:33:02Z</time>
      </trkpt>
      <trkpt lat="42.503738" lon="1.519695">
        <ele>1001.30444</ele>
        <time>2021-07-02T11:33:03Z</time>
      </trkpt>
      <trkpt lat="42.503719" lon="1.519643">
        <ele>1001.72815</ele>
        <time>2021-07-02T11:33:04Z</time>
      </trkpt>
      <trkpt lat="42.503704" lon="1.519599">
        <ele>1001.85364</ele>
        <time>2021-07-02T11:33:05Z</time>
      </trkpt>
      <trkpt lat="42.503677" lon="1.519522">
        <ele>1002.05347</ele>
        <time>2021-07-02T11:33:06Z</time>
      </trkpt>
      <trkpt lat="42.503651" lon="1.519452">
        <ele>1001.69482</ele>
        <time>2021-07-02T11:33:07Z</time>
      </trkpt>
      <trkpt lat="42.503651" lon="1.519452">
        <ele>1001.62866</ele>
        <time>2021-07-02T11:33:08Z</time>
      </trkpt>
      <trkpt lat="42.503651" lon="1.519452">
        <ele>1001.28625</ele>
        <time>2021-07-02T11:33:09Z</time>
      </trkpt>
      <trkpt lat="42.503651" lon="1.519452">
        <ele>1000.79736</ele>
        <time>2021-07-02T11:33:10Z</time>
      </trkpt>
      <trkpt lat="42.503712" lon="1.519249">
        <ele>1000.18921</ele>
        <time>2021-07-02T11:33:11Z</time>
      </trkpt>
      <trkpt lat="42.503654" lon="1.519232">
        <ele>1000.13660</ele>
        <time>2021-07-02T11:33:12Z</time>
      </trkpt>
      <trkpt lat="42.503662" lon="1.518864">
        <ele>1000.17004</ele>
        <time>2021-07-02T11:33:13Z</time>
      </trkpt>
      <trkpt lat="42.503674" lon="1.518607">
        <ele>1000.16333</ele>
        <time>2021-07-02T11:33:14Z</time>
      </trkpt>
      <trkpt lat="42.503685" lon="1.518434">
        <ele>1000.40137</ele>
        <time>2021-07-02T11:33:15Z</time>
      </trkpt>
      <trkpt lat="42.503696" lon="1.518265">
        <ele>1000.35059</ele>
        <time>2021-07-02T11:33:16Z</time>
      </trkpt>
      <trkpt lat="42.503704" lon="1.518111">
        <ele>1000.20667</ele>
        <time>2021-07-02T11:33:17Z</time>
      </trkpt>
      <trkpt lat="42.503712" lon="1.517963">
        <ele>999.86035</ele>
        <time>2021-07-02T11:33:18Z</time>
      </trkpt>
      <trkpt lat="42.503719" lon="1.517819">
        <ele>999.79248</ele>
        <time>2021-07-02T11:33:19Z</time>
      </trkpt>
      <trkpt lat="42.503731" lon="1.517664">
        <ele>999.70227</ele>
        <time>2021-07-02T11:33:20Z</time>
      </trkpt>
      <trkpt lat="42.503738" lon="1.517507">
        <ele>999.66956</ele>
        <time>2021-07-02T11:33:21Z</time>
      </trkpt>
      <trkpt lat="42.503742" lon="1.517354">
        <ele>999.52588</ele>
        <time>2021-07-02T11:33:22Z</time>
      </trkpt>
      <trkpt lat="42.503742" lon="1.517191">
        <ele>999.71033</ele>
        <time>2021-07-02T11:33:23Z</time>
      </trkpt>
      <trkpt lat="42.503742" lon="1.517191">
        <ele>999.81433</ele>
        <time>2021-07-02T11:33:24Z</time>
      </trkpt>
      <trkpt lat="42.503742" lon="1.517032">
        <ele>999.49377</ele>
        <time>2021-07-02T11:33:25Z</time>
      </trkpt>
      <trkpt lat="42.503738" lon="1.516874">
        <ele>998.71582</ele>
        <time>2021-07-02T11:33:26Z</time>
      </trkpt>
      <trkpt lat="42.503712" lon="1.516709">
        <ele>998.62939</ele>
        <time>2021-07-02T11:33:27Z</time>
      </trkpt>
      <trkpt lat="42.503670" lon="1.516566">
        <ele>998.48584</ele>
        <time>2021-07-02T11:33:28Z</time>
      </trkpt>
      <trkpt lat="42.503609" lon="1.516430">
        <ele>998.07239</ele>
        <time>2021-07-02T11:33:29Z</time>
      </trkpt>
      <trkpt lat="42.503532" lon="1.516301">
        <ele>997.64526</ele>
        <time>2021-07-02T11:33:30Z</time>
      </trkpt>
      <trkpt lat="42.503460" lon="1.516181">
        <ele>997.56726</ele>
        <time>2021-07-02T11:33:31Z</time>
      </trkpt>
      <trkpt lat="42.503387" lon="1.516065">
        <ele>997.15808</ele>
        <time>2021-07-02T11:33:32Z</time>
      </trkpt>
      <trkpt lat="42.503323" lon="1.515954">
        <ele>996.51270</ele>
        <time>2021-07-02T11:33:33Z</time>
      </trkpt>
      <trkpt lat="42.503250" lon="1.515838">
        <ele>996.38574</ele>
        <time>2021-07-02T11:33:34Z</time>
      </trkpt>
      <trkpt lat="42.503170" lon="1.515707">
        <ele>996.49316</ele>
        <time>2021-07-02T11:33:35Z</time>
      </trkpt>
      <trkpt lat="42.503094" lon="1.515583">
        <ele>996.38220</ele>
        <time>2021-07-02T11:33:36Z</time>
      </trkpt>
      <trkpt lat="42.503017" lon="1.515456">
        <ele>996.43872</ele>
        <time>2021-07-02T11:33:37Z</time>
      </trkpt>
      <trkpt lat="42.502941" lon="1.515331">
        <ele>996.10559</ele>
        <time>2021-07-02T11:33:38Z</time>
      </trkpt>
      <trkpt lat="42.502865" lon="1.515207">
        <ele>995.91528</ele>
        <time>2021-07-02T11:33:39Z</time>
      </trkpt>
      <trkpt lat="42.502785" lon="1.515074">
        <ele>996.09021</ele>
        <time>2021-07-02T11:33:40Z</time>
      </trkpt>
      <trkpt lat="42.502705" lon="1.514946">
        <ele>995.31482</ele>
        <time>2021-07-02T11:33:41Z</time>
      </trkpt>
      <trkpt lat="42.502644" lon="1.514809">
        <ele>994.51440</ele>
        <time>2021-07-02T11:33:42Z</time>
      </trkpt>
      <trkpt lat="42.502590" lon="1.514685">
        <ele>994.43567</ele>
        <time>2021-07-02T11:33:43Z</time>
      </trkpt>
      <trkpt lat="42.502544" lon="1.514565">
        <ele>994.07617</ele>
        <time>2021-07-02T11:33:44Z</time>
      </trkpt>
      <trkpt lat="42.502495" lon="1.514446">
        <ele>993.78491</ele>
        <time>2021-07-02T11:33:45Z</time>
      </trkpt>
      <trkpt lat="42.502449" lon="1.514332">
        <ele>993.22266</ele>
        <time>2021-07-02T11:33:46Z</time>
      </trkpt>
      <trkpt lat="42.502419" lon="1.514255">
        <ele>993.55054</ele>
        <time>2021-07-02T11:33:47Z</time>
      </trkpt>
      <trkpt lat="42.502419" lon="1.514255">
        <ele>993.46094</ele>
        <time>2021-07-02T11:33:48Z</time>
      </trkpt>
      <trkpt lat="42.502335" lon="1.514070">
        <ele>993.43115</ele>
        <time>2021-07-02T11:33:49Z</time>
      </trkpt>
      <trkpt lat="42.502247" lon="1.513926">
        <ele>993.29968</ele>
        <time>2021-07-02T11:33:50Z</time>
      </trkpt>
      <trkpt lat="42.502171" lon="1.513825">
        <ele>993.65039</ele>
        <time>2021-07-02T11:33:51Z</time>
      </trkpt>
      <trkpt lat="42.502075" lon="1.513740">
        <ele>993.58203</ele>
        <time>2021-07-02T11:33:52Z</time>
      </trkpt>
      <trkpt lat="42.501984" lon="1.513664">
        <ele>993.53906</ele>
        <time>2021-07-02T11:33:53Z</time>
      </trkpt>
      <trkpt lat="42.501888" lon="1.513587">
        <ele>993.47107</ele>
        <time>2021-07-02T11:33:54Z</time>
      </trkpt>
      <trkpt lat="42.501804" lon="1.513514">
        <ele>993.28076</ele>
        <time>2021-07-02T11:33:55Z</time>
      </trkpt>
      <trkpt lat="42.501720" lon="1.513444">
        <ele>993.16760</ele>
        <time>2021-07-02T11:33:56Z</time>
      </trkpt>
      <trkpt lat="42.501625" lon="1.513365">
        <ele>993.05505</ele>
        <time>2021-07-02T11:33:57Z</time>
      </trkpt>
      <trkpt lat="42.501625" lon="1.513365">
        <ele>992.86218</ele>
        <time>2021-07-02T11:33:58Z</time>
      </trkpt>
      <trkpt lat="42.501522" lon="1.513281">
        <ele>992.82739</ele>
        <time>2021-07-02T11:33:59Z</time>
      </trkpt>
      <trkpt lat="42.501423" lon="1.513198">
        <ele>992.58252</ele>
        <time>2021-07-02T11:34:00Z</time>
      </trkpt>
      <trkpt lat="42.501324" lon="1.513118">
        <ele>992.06177</ele>
        <time>2021-07-02T11:34:01Z</time>
      </trkpt>
      <trkpt lat="42.501228" lon="1.513039">
        <ele>991.94641</ele>
        <time>2021-07-02T11:34:02Z</time>
      </trkpt>
      <trkpt lat="42.501129" lon="1.512958">
        <ele>991.74866</ele>
        <time>2021-07-02T11:34:03Z</time>
      </trkpt>
      <trkpt lat="42.501034" lon="1.512878">
        <ele>991.59302</ele>
        <time>2021-07-02T11:34:04Z</time>
      </trkpt>
      <trkpt lat="42.500938" lon="1.512798">
        <ele>991.20129</ele>
        <time>2021-07-02T11:34:05Z</time>
      </trkpt>
      <trkpt lat="42.500839" lon="1.512715">
        <ele>990.62732</ele>
        <time>2021-07-02T11:34:06Z</time>
      </trkpt>
      <trkpt lat="42.500744" lon="1.512635">
        <ele>990.39392</ele>
        <time>2021-07-02T11:34:07Z</time>
      </trkpt>
      <trkpt lat="42.500645" lon="1.512554">
        <ele>990.17346</ele>
        <time>2021-07-02T11:34:08Z</time>
      </trkpt>
      <trkpt lat="42.500546" lon="1.512475">
        <ele>989.90588</ele>
        <time>2021-07-02T11:34:09Z</time>
      </trkpt>
      <trkpt lat="42.500446" lon="1.512402">
        <ele>990.01099</ele>
        <time>2021-07-02T11:34:10Z</time>
      </trkpt>
      <trkpt lat="42.500343" lon="1.512323">
        <ele>989.36658</ele>
        <time>2021-07-02T11:34:11Z</time>
      </trkpt>
      <trkpt lat="42.500237" lon="1.512244">
        <ele>989.43066</ele>
        <time>2021-07-02T11:34:12Z</time>
      </trkpt>
      <trkpt lat="42.500141" lon="1.512170">
        <ele>989.01807</ele>
        <time>2021-07-02T11:34:13Z</time>
      </trkpt>
      <trkpt lat="42.500042" lon="1.512094">
        <ele>988.85791</ele>
        <time>2021-07-02T11:34:14Z</time>
      </trkpt>
      <trkpt lat="42.499939" lon="1.512018">
        <ele>988.91357</ele>
        <time>2021-07-02T11:34:15Z</time>
      </trkpt>
      <trkpt lat="42.499836" lon="1.511939">
        <ele>988.76208</ele>
        <time>2021-07-02T11:34:16Z</time>
      </trkpt>
      <trkpt lat="42.499733" lon="1.511863">
        <ele>988.86646</ele>
        <time>2021-07-02T11:34:17Z</time>
      </trkpt>
      <trkpt lat="42.499638" lon="1.511790">
        <ele>988.80408</ele>
        <time>2021-07-02T11:34:18Z</time>
      </trkpt>
      <trkpt lat="42.499538" lon="1.511715">
        <ele>988.77576</ele>
        <time>2021-07-02T11:34:19Z</time>
      </trkpt>
      <trkpt lat="42.499439" lon="1.511642">
        <ele>988.75757</ele>
        <time>2021-07-02T11:34:20Z</time>
      </trkpt>
      <trkpt lat="42.499340" lon="1.511565">
        <ele>988.71143</ele>
        <time>2021-07-02T11:34:21Z</time>
      </trkpt>
      <trkpt lat="42.499237" lon="1.511488">
        <ele>987.50720</ele>
        <time>2021-07-02T11:34:22Z</time>
      </trkpt>
      <trkpt lat="42.499146" lon="1.511415">
        <ele>987.44958</ele>
        <time>2021-07-02T11:34:23Z</time>
      </trkpt>
      <trkpt lat="42.499046" lon="1.511330">
        <ele>988.29102</ele>
        <time>2021-07-02T11:34:24Z</time>
      </trkpt>
      <trkpt lat="42.498951" lon="1.511246">
        <ele>988.65381</ele>
        <time>2021-07-02T11:34:25Z</time>
      </trkpt>
      <trkpt lat="42.498856" lon="1.511163">
        <ele>988.66333</ele>
        <time>2021-07-02T11:34:26Z</time>
      </trkpt>
      <trkpt lat="42.498753" lon="1.511077">
        <ele>987.90369</ele>
        <time>2021-07-02T11:34:27Z</time>
      </trkpt>
      <trkpt lat="42.498661" lon="1.510998">
        <ele>988.26123</ele>
        <time>2021-07-02T11:34:28Z</time>
      </trkpt>
      <trkpt lat="42.498569" lon="1.510943">
        <ele>987.90674</ele>
        <time>2021-07-02T11:34:29Z</time>
      </trkpt>
      <trkpt lat="42.498470" lon="1.510885">
        <ele>987.29773</ele>
        <time>2021-07-02T11:34:30Z</time>
      </trkpt>
      <trkpt lat="42.498470" lon="1.510885">
        <ele>987.63330</ele>
        <time>2021-07-02T11:34:31Z</time>
      </trkpt>
      <trkpt lat="42.498383" lon="1.510832">
        <ele>987.73950</ele>
        <time>2021-07-02T11:34:32Z</time>
      </trkpt>
      <trkpt lat="42.498306" lon="1.510787">
        <ele>987.74329</ele>
        <time>2021-07-02T11:34:33Z</time>
      </trkpt>
      <trkpt lat="42.498302" lon="1.510786">
        <ele>987.64246</ele>
        <time>2021-07-02T11:34:34Z</time>
      </trkpt>
      <trkpt lat="42.498302" lon="1.510786">
        <ele>987.46179</ele>
        <time>2021-07-02T11:34:35Z</time>
      </trkpt>
      <trkpt lat="42.498302" lon="1.510786">
        <ele>988.35815</ele>
        <time>2021-07-02T11:34:36Z</time>
      </trkpt>
      <trkpt lat="42.498199" lon="1.510658">
        <ele>987.85779</ele>
        <time>2021-07-02T11:34:37Z</time>
      </trkpt>
      <trkpt lat="42.497910" lon="1.510242">
        <ele>988.01050</ele>
        <time>2021-07-02T11:34:38Z</time>
      </trkpt>
      <trkpt lat="42.497841" lon="1.510129">
        <ele>987.69336</ele>
        <time>2021-07-02T11:34:39Z</time>
      </trkpt>
      <trkpt lat="42.497768" lon="1.510012">
        <ele>986.97607</ele>
        <time>2021-07-02T11:34:40Z</time>
      </trkpt>
      <trkpt lat="42.497707" lon="1.509893">
        <ele>986.71570</ele>
        <time>2021-07-02T11:34:41Z</time>
      </trkpt>
      <trkpt lat="42.497643" lon="1.509764">
        <ele>986.82263</ele>
        <time>2021-07-02T11:34:42Z</time>
      </trkpt>
      <trkpt lat="42.497574" lon="1.509623">
        <ele>986.59216</ele>
        <time>2021-07-02T11:34:43Z</time>
      </trkpt>
      <trkpt lat="42.497501" lon="1.509481">
        <ele>986.38428</ele>
        <time>2021-07-02T11:34:44Z</time>
      </trkpt>
      <trkpt lat="42.497429" lon="1.509335">
        <ele>985.52478</ele>
        <time>2021-07-02T11:34:45Z</time>
      </trkpt>
      <trkpt lat="42.497360" lon="1.509193">
        <ele>985.09619</ele>
        <time>2021-07-02T11:34:46Z</time>
      </trkpt>
      <trkpt lat="42.497295" lon="1.509050">
        <ele>985.01404</ele>
        <time>2021-07-02T11:34:47Z</time>
      </trkpt>
      <trkpt lat="42.497231" lon="1.508911">
        <ele>984.41675</ele>
        <time>2021-07-02T11:34:48Z</time>
      </trkpt>
      <trkpt lat="42.497162" lon="1.508769">
        <ele>983.73669</ele>
        <time>2021-07-02T11:34:49Z</time>
      </trkpt>
      <trkpt lat="42.497093" lon="1.508622">
        <ele>983.40466</ele>
        <time>2021-07-02T11:34:50Z</time>
      </trkpt>
      <trkpt lat="42.497028" lon="1.508476">
        <ele>983.08167</ele>
        <time>2021-07-02T11:34:51Z</time>
      </trkpt>
      <trkpt lat="42.496964" lon="1.508329">
        <ele>982.73792</ele>
        <time>2021-07-02T11:34:52Z</time>
      </trkpt>
      <trkpt lat="42.496906" lon="1.508191">
        <ele>982.07458</ele>
        <time>2021-07-02T11:34:53Z</time>
      </trkpt>
      <trkpt lat="42.496853" lon="1.508053">
        <ele>981.60303</ele>
        <time>2021-07-02T11:34:54Z</time>
      </trkpt>
      <trkpt lat="42.496788" lon="1.507918">
        <ele>981.65454</ele>
        <time>2021-07-02T11:34:55Z</time>
      </trkpt>
      <trkpt lat="42.496719" lon="1.507782">
        <ele>981.35498</ele>
        <time>2021-07-02T11:34:56Z</time>
      </trkpt>
      <trkpt lat="42.496643" lon="1.507660">
        <ele>981.39172</ele>
        <time>2021-07-02T11:34:57Z</time>
      </trkpt>
      <trkpt lat="42.496563" lon="1.507532">
        <ele>981.02332</ele>
        <time>2021-07-02T11:34:58Z</time>
      </trkpt>
      <trkpt lat="42.496479" lon="1.507398">
        <ele>981.01367</ele>
        <time>2021-07-02T11:34:59Z</time>
      </trkpt>
      <trkpt lat="42.496403" lon="1.507272">
        <ele>980.66968</ele>
        <time>2021-07-02T11:35:00Z</time>
      </trkpt>
      <trkpt lat="42.496326" lon="1.507150">
        <ele>980.43433</ele>
        <time>2021-07-02T11:35:01Z</time>
      </trkpt>
      <trkpt lat="42.496326" lon="1.507150">
        <ele>980.54846</ele>
        <time>2021-07-02T11:35:02Z</time>
      </trkpt>
      <trkpt lat="42.496243" lon="1.507017">
        <ele>980.50159</ele>
        <time>2021-07-02T11:35:03Z</time>
      </trkpt>
      <trkpt lat="42.496166" lon="1.506892">
        <ele>980.16687</ele>
        <time>2021-07-02T11:35:04Z</time>
      </trkpt>
      <trkpt lat="42.496082" lon="1.506761">
        <ele>980.14795</ele>
        <time>2021-07-02T11:35:05Z</time>
      </trkpt>
      <trkpt lat="42.496006" lon="1.506636">
        <ele>979.95239</ele>
        <time>2021-07-02T11:35:06Z</time>
      </trkpt>
      <trkpt lat="42.495930" lon="1.506513">
        <ele>980.14417</ele>
        <time>2021-07-02T11:35:07Z</time>
      </trkpt>
      <trkpt lat="42.495857" lon="1.506395">
        <ele>980.16907</ele>
        <time>2021-07-02T11:35:08Z</time>
      </trkpt>
      <trkpt lat="42.495781" lon="1.506272">
        <ele>980.15881</ele>
        <time>2021-07-02T11:35:09Z</time>
      </trkpt>
      <trkpt lat="42.495705" lon="1.506150">
        <ele>980.18762</ele>
        <time>2021-07-02T11:35:10Z</time>
      </trkpt>
      <trkpt lat="42.495632" lon="1.506036">
        <ele>980.07861</ele>
        <time>2021-07-02T11:35:11Z</time>
      </trkpt>
      <trkpt lat="42.495567" lon="1.505930">
        <ele>980.04175</ele>
        <time>2021-07-02T11:35:12Z</time>
      </trkpt>
      <trkpt lat="42.495502" lon="1.505821">
        <ele>979.86194</ele>
        <time>2021-07-02T11:35:13Z</time>
      </trkpt>
      <trkpt lat="42.495434" lon="1.505711">
        <ele>980.93188</ele>
        <time>2021-07-02T11:35:14Z</time>
      </trkpt>
      <trkpt lat="42.495365" lon="1.505607">
        <ele>981.04431</ele>
        <time>2021-07-02T11:35:15Z</time>
      </trkpt>
      <trkpt lat="42.495304" lon="1.505523">
        <ele>981.36462</ele>
        <time>2021-07-02T11:35:16Z</time>
      </trkpt>
      <trkpt lat="42.495255" lon="1.505450">
        <ele>981.01721</ele>
        <time>2021-07-02T11:35:17Z</time>
      </trkpt>
      <trkpt lat="42.495209" lon="1.505370">
        <ele>981.25146</ele>
        <time>2021-07-02T11:35:18Z</time>
      </trkpt>
      <trkpt lat="42.495171" lon="1.505288">
        <ele>981.77332</ele>
        <time>2021-07-02T11:35:19Z</time>
      </trkpt>
      <trkpt lat="42.495136" lon="1.505189">
        <ele>981.89819</ele>
        <time>2021-07-02T11:35:20Z</time>
      </trkpt>
      <trkpt lat="42.495110" lon="1.505077">
        <ele>982.32556</ele>
        <time>2021-07-02T11:35:21Z</time>
      </trkpt>
      <trkpt lat="42.495087" lon="1.504974">
        <ele>981.98059</ele>
        <time>2021-07-02T11:35:22Z</time>
      </trkpt>
      <trkpt lat="42.495068" lon="1.504851">
        <ele>981.33777</ele>
        <time>2021-07-02T11:35:23Z</time>
      </trkpt>
      <trkpt lat="42.495064" lon="1.504729">
        <ele>981.61292</ele>
        <time>2021-07-02T11:35:24Z</time>
      </trkpt>
      <trkpt lat="42.495060" lon="1.504600">
        <ele>981.55554</ele>
        <time>2021-07-02T11:35:25Z</time>
      </trkpt>
      <trkpt lat="42.495064" lon="1.504479">
        <ele>982.01636</ele>
        <time>2021-07-02T11:35:26Z</time>
      </trkpt>
      <trkpt lat="42.495071" lon="1.504366">
        <ele>981.96887</ele>
        <time>2021-07-02T11:35:27Z</time>
      </trkpt>
      <trkpt lat="42.495079" lon="1.504277">
        <ele>981.45740</ele>
        <time>2021-07-02T11:35:28Z</time>
      </trkpt>
      <trkpt lat="42.495083" lon="1.504215">
        <ele>981.11511</ele>
        <time>2021-07-02T11:35:29Z</time>
      </trkpt>
      <trkpt lat="42.495087" lon="1.504186">
        <ele>980.92432</ele>
        <time>2021-07-02T11:35:30Z</time>
      </trkpt>
      <trkpt lat="42.495087" lon="1.504186">
        <ele>980.33630</ele>
        <time>2021-07-02T11:35:31Z</time>
      </trkpt>
      <trkpt lat="42.495098" lon="1.504075">
        <ele>979.60437</ele>
        <time>2021-07-02T11:35:32Z</time>
      </trkpt>
      <trkpt lat="42.495098" lon="1.504071">
        <ele>978.96411</ele>
        <time>2021-07-02T11:35:33Z</time>
      </trkpt>
      <trkpt lat="42.495098" lon="1.504071">
        <ele>978.36438</ele>
        <time>2021-07-02T11:35:34Z</time>
      </trkpt>
      <trkpt lat="42.495098" lon="1.504071">
        <ele>977.73193</ele>
        <time>2021-07-02T11:35:35Z</time>
      </trkpt>
      <trkpt lat="42.495174" lon="1.503955">
        <ele>977.28125</ele>
        <time>2021-07-02T11:35:36Z</time>
      </trkpt>
      <trkpt lat="42.495007" lon="1.503366">
        <ele>976.67151</ele>
        <time>2021-07-02T11:35:37Z</time>
      </trkpt>
      <trkpt lat="42.494946" lon="1.503227">
        <ele>976.03418</ele>
        <time>2021-07-02T11:35:38Z</time>
      </trkpt>
      <trkpt lat="42.494877" lon="1.503076">
        <ele>975.41760</ele>
        <time>2021-07-02T11:35:39Z</time>
      </trkpt>
      <trkpt lat="42.494808" lon="1.502948">
        <ele>975.06677</ele>
        <time>2021-07-02T11:35:40Z</time>
      </trkpt>
      <trkpt lat="42.494747" lon="1.502813">
        <ele>974.84229</ele>
        <time>2021-07-02T11:35:41Z</time>
      </trkpt>
      <trkpt lat="42.494682" lon="1.502675">
        <ele>974.70850</ele>
        <time>2021-07-02T11:35:42Z</time>
      </trkpt>
      <trkpt lat="42.494614" lon="1.502530">
        <ele>974.83398</ele>
        <time>2021-07-02T11:35:43Z</time>
      </trkpt>
      <trkpt lat="42.494545" lon="1.502385">
        <ele>975.38757</ele>
        <time>2021-07-02T11:35:44Z</time>
      </trkpt>
      <trkpt lat="42.494480" lon="1.502221">
        <ele>975.55798</ele>
        <time>2021-07-02T11:35:45Z</time>
      </trkpt>
      <trkpt lat="42.494419" lon="1.502065">
        <ele>975.32349</ele>
        <time>2021-07-02T11:35:46Z</time>
      </trkpt>
      <trkpt lat="42.494362" lon="1.501921">
        <ele>975.07275</ele>
        <time>2021-07-02T11:35:47Z</time>
      </trkpt>
      <trkpt lat="42.494305" lon="1.501777">
        <ele>975.13501</ele>
        <time>2021-07-02T11:35:48Z</time>
      </trkpt>
      <trkpt lat="42.494263" lon="1.501649">
        <ele>975.27527</ele>
        <time>2021-07-02T11:35:49Z</time>
      </trkpt>
      <trkpt lat="42.494217" lon="1.501516">
        <ele>975.29297</ele>
        <time>2021-07-02T11:35:50Z</time>
      </trkpt>
      <trkpt lat="42.494160" lon="1.501391">
        <ele>974.53894</ele>
        <time>2021-07-02T11:35:51Z</time>
      </trkpt>
      <trkpt lat="42.494087" lon="1.501267">
        <ele>974.66028</ele>
        <time>2021-07-02T11:35:52Z</time>
      </trkpt>
      <trkpt lat="42.494034" lon="1.501175">
        <ele>974.35608</ele>
        <time>2021-07-02T11:35:53Z</time>
      </trkpt>
      <trkpt lat="42.493984" lon="1.501098">
        <ele>973.77344</ele>
        <time>2021-07-02T11:35:54Z</time>
      </trkpt>
      <trkpt lat="42.493942" lon="1.501006">
        <ele>973.06458</ele>
        <time>2021-07-02T11:35:55Z</time>
      </trkpt>
      <trkpt lat="42.493908" lon="1.500894">
        <ele>973.23962</ele>
        <time>2021-07-02T11:35:56Z</time>
      </trkpt>
      <trkpt lat="42.493855" lon="1.500790">
        <ele>973.39160</ele>
        <time>2021-07-02T11:35:57Z</time>
      </trkpt>
      <trkpt lat="42.493809" lon="1.500693">
        <ele>973.44751</ele>
        <time>2021-07-02T11:35:58Z</time>
      </trkpt>
      <trkpt lat="42.493755" lon="1.500600">
        <ele>973.60925</ele>
        <time>2021-07-02T11:35:59Z</time>
      </trkpt>
      <trkpt lat="42.493698" lon="1.500510">
        <ele>973.82837</ele>
        <time>2021-07-02T11:36:00Z</time>
      </trkpt>
      <trkpt lat="42.493641" lon="1.500423">
        <ele>974.04956</ele>
        <time>2021-07-02T11:36:01Z</time>
      </trkpt>
      <trkpt lat="42.493561" lon="1.500316">
        <ele>974.11975</ele>
        <time>2021-07-02T11:36:02Z</time>
      </trkpt>
      <trkpt lat="42.493481" lon="1.500210">
        <ele>974.19189</ele>
        <time>2021-07-02T11:36:03Z</time>
      </trkpt>
      <trkpt lat="42.493401" lon="1.500103">
        <ele>974.48962</ele>
        <time>2021-07-02T11:36:04Z</time>
      </trkpt>
      <trkpt lat="42.493401" lon="1.500103">
        <ele>974.24304</ele>
        <time>2021-07-02T11:36:05Z</time>
      </trkpt>
      <trkpt lat="42.493305" lon="1.499985">
        <ele>974.51343</ele>
        <time>2021-07-02T11:36:06Z</time>
      </trkpt>
      <trkpt lat="42.493225" lon="1.499879">
        <ele>974.68567</ele>
        <time>2021-07-02T11:36:07Z</time>
      </trkpt>
      <trkpt lat="42.493145" lon="1.499772">
        <ele>974.71777</ele>
        <time>2021-07-02T11:36:08Z</time>
      </trkpt>
      <trkpt lat="42.493073" lon="1.499670">
        <ele>974.62976</ele>
        <time>2021-07-02T11:36:09Z</time>
      </trkpt>
      <trkpt lat="42.493011" lon="1.499588">
        <ele>974.97510</ele>
        <time>2021-07-02T11:36:10Z</time>
      </trkpt>
      <trkpt lat="42.492950" lon="1.499503">
        <ele>973.98120</ele>
        <time>2021-07-02T11:36:11Z</time>
      </trkpt>
      <trkpt lat="42.492886" lon="1.499402">
        <ele>973.83813</ele>
        <time>2021-07-02T11:36:12Z</time>
      </trkpt>
      <trkpt lat="42.492836" lon="1.499325">
        <ele>974.10522</ele>
        <time>2021-07-02T11:36:13Z</time>
      </trkpt>
      <trkpt lat="42.492798" lon="1.499268">
        <ele>973.97681</ele>
        <time>2021-07-02T11:36:14Z</time>
      </trkpt>
      <trkpt lat="42.492733" lon="1.499164">
        <ele>973.03369</ele>
        <time>2021-07-02T11:36:15Z</time>
      </trkpt>
      <trkpt lat="42.492680" lon="1.499080">
        <ele>973.15417</ele>
        <time>2021-07-02T11:36:16Z</time>
      </trkpt>
      <trkpt lat="42.492634" lon="1.498993">
        <ele>973.79492</ele>
        <time>2021-07-02T11:36:17Z</time>
      </trkpt>
      <trkpt lat="42.492599" lon="1.498918">
        <ele>974.43457</ele>
        <time>2021-07-02T11:36:18Z</time>
      </trkpt>
      <trkpt lat="42.492565" lon="1.498851">
        <ele>974.00500</ele>
        <time>2021-07-02T11:36:19Z</time>
      </trkpt>
      <trkpt lat="42.492527" lon="1.498782">
        <ele>974.46997</ele>
        <time>2021-07-02T11:36:20Z</time>
      </trkpt>
      <trkpt lat="42.492489" lon="1.498712">
        <ele>974.61462</ele>
        <time>2021-07-02T11:36:21Z</time>
      </trkpt>
      <trkpt lat="42.492451" lon="1.498635">
        <ele>975.13513</ele>
        <time>2021-07-02T11:36:22Z</time>
      </trkpt>
      <trkpt lat="42.492416" lon="1.498548">
        <ele>974.58862</ele>
        <time>2021-07-02T11:36:23Z</time>
      </trkpt>
      <trkpt lat="42.492371" lon="1.498465">
        <ele>973.46753</ele>
        <time>2021-07-02T11:36:24Z</time>
      </trkpt>
      <trkpt lat="42.492329" lon="1.498401">
        <ele>973.61035</ele>
        <time>2021-07-02T11:36:25Z</time>
      </trkpt>
      <trkpt lat="42.492290" lon="1.498326">
        <ele>973.55542</ele>
        <time>2021-07-02T11:36:26Z</time>
      </trkpt>
      <trkpt lat="42.492245" lon="1.498238">
        <ele>974.38916</ele>
        <time>2021-07-02T11:36:27Z</time>
      </trkpt>
      <trkpt lat="42.492191" lon="1.498153">
        <ele>974.49829</ele>
        <time>2021-07-02T11:36:28Z</time>
      </trkpt>
      <trkpt lat="42.492130" lon="1.498045">
        <ele>973.95581</ele>
        <time>2021-07-02T11:36:29Z</time>
      </trkpt>
      <trkpt lat="42.492073" lon="1.497936">
        <ele>973.89685</ele>
        <time>2021-07-02T11:36:30Z</time>
      </trkpt>
      <trkpt lat="42.492012" lon="1.497823">
        <ele>973.99414</ele>
        <time>2021-07-02T11:36:31Z</time>
      </trkpt>
      <trkpt lat="42.491947" lon="1.497703">
        <ele>972.72742</ele>
        <time>2021-07-02T11:36:32Z</time>
      </trkpt>
      <trkpt lat="42.491901" lon="1.497622">
        <ele>972.46692</ele>
        <time>2021-07-02T11:36:33Z</time>
      </trkpt>
      <trkpt lat="42.491856" lon="1.497550">
        <ele>972.19238</ele>
        <time>2021-07-02T11:36:34Z</time>
      </trkpt>
      <trkpt lat="42.491856" lon="1.497550">
        <ele>971.74048</ele>
        <time>2021-07-02T11:36:35Z</time>
      </trkpt>
      <trkpt lat="42.491802" lon="1.497472">
        <ele>971.25391</ele>
        <time>2021-07-02T11:36:36Z</time>
      </trkpt>
      <trkpt lat="42.491753" lon="1.497399">
        <ele>971.39600</ele>
        <time>2021-07-02T11:36:37Z</time>
      </trkpt>
      <trkpt lat="42.491703" lon="1.497324">
        <ele>971.08948</ele>
        <time>2021-07-02T11:36:38Z</time>
      </trkpt>
      <trkpt lat="42.491665" lon="1.497260">
        <ele>971.40308</ele>
        <time>2021-07-02T11:36:39Z</time>
      </trkpt>
      <trkpt lat="42.491623" lon="1.497195">
        <ele>971.29712</ele>
        <time>2021-07-02T11:36:40Z</time>
      </trkpt>
      <trkpt lat="42.491577" lon="1.497107">
        <ele>970.45679</ele>
        <time>2021-07-02T11:36:41Z</time>
      </trkpt>
      <trkpt lat="42.491524" lon="1.497017">
        <ele>970.46985</ele>
        <time>2021-07-02T11:36:42Z</time>
      </trkpt>
      <trkpt lat="42.491467" lon="1.496919">
        <ele>970.12061</ele>
        <time>2021-07-02T11:36:43Z</time>
      </trkpt>
      <trkpt lat="42.491409" lon="1.496819">
        <ele>969.03540</ele>
        <time>2021-07-02T11:36:44Z</time>
      </trkpt>
      <trkpt lat="42.491360" lon="1.496737">
        <ele>967.88489</ele>
        <time>2021-07-02T11:36:45Z</time>
      </trkpt>
      <trkpt lat="42.491302" lon="1.496648">
        <ele>967.25781</ele>
        <time>2021-07-02T11:36:46Z</time>
      </trkpt>
      <trkpt lat="42.491238" lon="1.496572">
        <ele>966.33130</ele>
        <time>2021-07-02T11:36:47Z</time>
      </trkpt>
      <trkpt lat="42.491169" lon="1.496498">
        <ele>965.39600</ele>
        <time>2021-07-02T11:36:48Z</time>
      </trkpt>
      <trkpt lat="42.491093" lon="1.496452">
        <ele>965.15088</ele>
        <time>2021-07-02T11:36:49Z</time>
      </trkpt>
      <trkpt lat="42.491009" lon="1.496418">
        <ele>963.86572</ele>
        <time>2021-07-02T11:36:50Z</time>
      </trkpt>
      <trkpt lat="42.490917" lon="1.496391">
        <ele>964.05359</ele>
        <time>2021-07-02T11:36:51Z</time>
      </trkpt>
      <trkpt lat="42.490822" lon="1.496374">
        <ele>964.21216</ele>
        <time>2021-07-02T11:36:52Z</time>
      </trkpt>
      <trkpt lat="42.490707" lon="1.496374">
        <ele>962.93335</ele>
        <time>2021-07-02T11:36:53Z</time>
      </trkpt>
      <trkpt lat="42.490589" lon="1.496369">
        <ele>962.11792</ele>
        <time>2021-07-02T11:36:54Z</time>
      </trkpt>
      <trkpt lat="42.490479" lon="1.496364">
        <ele>962.20215</ele>
        <time>2021-07-02T11:36:55Z</time>
      </trkpt>
      <trkpt lat="42.490360" lon="1.496359">
        <ele>961.39148</ele>
        <time>2021-07-02T11:36:56Z</time>
      </trkpt>
      <trkpt lat="42.490257" lon="1.496355">
        <ele>960.98914</ele>
        <time>2021-07-02T11:36:57Z</time>
      </trkpt>
      <trkpt lat="42.490166" lon="1.496327">
        <ele>961.39001</ele>
        <time>2021-07-02T11:36:58Z</time>
      </trkpt>
      <trkpt lat="42.490055" lon="1.496270">
        <ele>960.97632</ele>
        <time>2021-07-02T11:36:59Z</time>
      </trkpt>
      <trkpt lat="42.489967" lon="1.496219">
        <ele>960.27563</ele>
        <time>2021-07-02T11:37:00Z</time>
      </trkpt>
      <trkpt lat="42.489868" lon="1.496158">
        <ele>959.58386</ele>
        <time>2021-07-02T11:37:01Z</time>
      </trkpt>
      <trkpt lat="42.489761" lon="1.496079">
        <ele>959.38025</ele>
        <time>2021-07-02T11:37:02Z</time>
      </trkpt>
      <trkpt lat="42.489658" lon="1.495985">
        <ele>959.19873</ele>
        <time>2021-07-02T11:37:03Z</time>
      </trkpt>
      <trkpt lat="42.489567" lon="1.495909">
        <ele>958.06763</ele>
        <time>2021-07-02T11:37:04Z</time>
      </trkpt>
      <trkpt lat="42.489460" lon="1.495823">
        <ele>958.06030</ele>
        <time>2021-07-02T11:37:05Z</time>
      </trkpt>
      <trkpt lat="42.489353" lon="1.495736">
        <ele>957.92517</ele>
        <time>2021-07-02T11:37:06Z</time>
      </trkpt>
      <trkpt lat="42.489246" lon="1.495654">
        <ele>958.15601</ele>
        <time>2021-07-02T11:37:07Z</time>
      </trkpt>
      <trkpt lat="42.489140" lon="1.495581">
        <ele>958.14160</ele>
        <time>2021-07-02T11:37:08Z</time>
      </trkpt>
      <trkpt lat="42.489052" lon="1.495503">
        <ele>958.23901</ele>
        <time>2021-07-02T11:37:09Z</time>
      </trkpt>
      <trkpt lat="42.489052" lon="1.495503">
        <ele>957.68066</ele>
        <time>2021-07-02T11:37:10Z</time>
      </trkpt>
      <trkpt lat="42.488960" lon="1.495423">
        <ele>957.25195</ele>
        <time>2021-07-02T11:37:11Z</time>
      </trkpt>
      <trkpt lat="42.488880" lon="1.495347">
        <ele>956.59253</ele>
        <time>2021-07-02T11:37:12Z</time>
      </trkpt>
      <trkpt lat="42.488808" lon="1.495285">
        <ele>956.78662</ele>
        <time>2021-07-02T11:37:13Z</time>
      </trkpt>
      <trkpt lat="42.488747" lon="1.495245">
        <ele>956.40259</ele>
        <time>2021-07-02T11:37:14Z</time>
      </trkpt>
      <trkpt lat="42.488724" lon="1.495230">
        <ele>956.06567</ele>
        <time>2021-07-02T11:37:15Z</time>
      </trkpt>
      <trkpt lat="42.488682" lon="1.495223">
        <ele>955.85986</ele>
        <time>2021-07-02T11:37:16Z</time>
      </trkpt>
      <trkpt lat="42.488575" lon="1.495275">
        <ele>955.73071</ele>
        <time>2021-07-02T11:37:17Z</time>
      </trkpt>
      <trkpt lat="42.488560" lon="1.495302">
        <ele>955.24268</ele>
        <time>2021-07-02T11:37:18Z</time>
      </trkpt>
      <trkpt lat="42.488461" lon="1.495004">
        <ele>955.59375</ele>
        <time>2021-07-02T11:37:19Z</time>
      </trkpt>
      <trkpt lat="42.488388" lon="1.494946">
        <ele>954.95813</ele>
        <time>2021-07-02T11:37:20Z</time>
      </trkpt>
      <trkpt lat="42.488312" lon="1.494888">
        <ele>954.31128</ele>
        <time>2021-07-02T11:37:21Z</time>
      </trkpt>
      <trkpt lat="42.488239" lon="1.494835">
        <ele>953.29077</ele>
        <time>2021-07-02T11:37:22Z</time>
      </trkpt>
      <trkpt lat="42.488148" lon="1.494776">
        <ele>952.72021</ele>
        <time>2021-07-02T11:37:23Z</time>
      </trkpt>
      <trkpt lat="42.488049" lon="1.494737">
        <ele>951.95862</ele>
        <time>2021-07-02T11:37:24Z</time>
      </trkpt>
      <trkpt lat="42.487972" lon="1.494726">
        <ele>950.49072</ele>
        <time>2021-07-02T11:37:25Z</time>
      </trkpt>
      <trkpt lat="42.487888" lon="1.494713">
        <ele>950.58521</ele>
        <time>2021-07-02T11:37:26Z</time>
      </trkpt>
      <trkpt lat="42.487808" lon="1.494717">
        <ele>950.75879</ele>
        <time>2021-07-02T11:37:27Z</time>
      </trkpt>
      <trkpt lat="42.487766" lon="1.494725">
        <ele>950.57251</ele>
        <time>2021-07-02T11:37:28Z</time>
      </trkpt>
      <trkpt lat="42.487747" lon="1.494729">
        <ele>951.58716</ele>
        <time>2021-07-02T11:37:29Z</time>
      </trkpt>
      <trkpt lat="42.487713" lon="1.494735">
        <ele>952.61646</ele>
        <time>2021-07-02T11:37:30Z</time>
      </trkpt>
      <trkpt lat="42.487671" lon="1.494740">
        <ele>953.58044</ele>
        <time>2021-07-02T11:37:31Z</time>
      </trkpt>
      <trkpt lat="42.487644" lon="1.494744">
        <ele>953.66187</ele>
        <time>2021-07-02T11:37:32Z</time>
      </trkpt>
      <trkpt lat="42.487606" lon="1.494748">
        <ele>952.99988</ele>
        <time>2021-07-02T11:37:33Z</time>
      </trkpt>
      <trkpt lat="42.487576" lon="1.494752">
        <ele>953.26392</ele>
        <time>2021-07-02T11:37:34Z</time>
      </trkpt>
      <trkpt lat="42.487541" lon="1.494756">
        <ele>954.09814</ele>
        <time>2021-07-02T11:37:35Z</time>
      </trkpt>
      <trkpt lat="42.487514" lon="1.494759">
        <ele>954.68164</ele>
        <time>2021-07-02T11:37:36Z</time>
      </trkpt>
      <trkpt lat="42.487484" lon="1.494762">
        <ele>954.48877</ele>
        <time>2021-07-02T11:37:37Z</time>
      </trkpt>
      <trkpt lat="42.487469" lon="1.494764">
        <ele>954.84326</ele>
        <time>2021-07-02T11:37:38Z</time>
      </trkpt>
      <trkpt lat="42.487450" lon="1.494767">
        <ele>953.93579</ele>
        <time>2021-07-02T11:37:39Z</time>
      </trkpt>
      <trkpt lat="42.487431" lon="1.494769">
        <ele>953.96069</ele>
        <time>2021-07-02T11:37:40Z</time>
      </trkpt>
      <trkpt lat="42.487411" lon="1.494771">
        <ele>953.90857</ele>
        <time>2021-07-02T11:37:41Z</time>
      </trkpt>
      <trkpt lat="42.487392" lon="1.494773">
        <ele>953.69470</ele>
        <time>2021-07-02T11:37:42Z</time>
      </trkpt>
      <trkpt lat="42.487354" lon="1.494778">
        <ele>952.94897</ele>
        <time>2021-07-02T11:37:43Z</time>
      </trkpt>
      <trkpt lat="42.487312" lon="1.494782">
        <ele>952.43140</ele>
        <time>2021-07-02T11:37:44Z</time>
      </trkpt>
      <trkpt lat="42.487270" lon="1.494788">
        <ele>952.15002</ele>
        <time>2021-07-02T11:37:45Z</time>
      </trkpt>
      <trkpt lat="42.487251" lon="1.494790">
        <ele>952.26147</ele>
        <time>2021-07-02T11:37:46Z</time>
      </trkpt>
      <trkpt lat="42.487251" lon="1.494790">
        <ele>951.98022</ele>
        <time>2021-07-02T11:37:47Z</time>
      </trkpt>
      <trkpt lat="42.487228" lon="1.494792">
        <ele>952.75098</ele>
        <time>2021-07-02T11:37:48Z</time>
      </trkpt>
      <trkpt lat="42.487183" lon="1.494798">
        <ele>952.56018</ele>
        <time>2021-07-02T11:37:49Z</time>
      </trkpt>
      <trkpt lat="42.487156" lon="1.494800">
        <ele>952.42847</ele>
        <time>2021-07-02T11:37:50Z</time>
      </trkpt>
      <trkpt lat="42.487122" lon="1.494801">
        <ele>952.62317</ele>
        <time>2021-07-02T11:37:51Z</time>
      </trkpt>
      <trkpt lat="42.487091" lon="1.494801">
        <ele>952.49341</ele>
        <time>2021-07-02T11:37:52Z</time>
      </trkpt>
      <trkpt lat="42.487057" lon="1.494802">
        <ele>952.53906</ele>
        <time>2021-07-02T11:37:53Z</time>
      </trkpt>
      <trkpt lat="42.487026" lon="1.494802">
        <ele>952.66870</ele>
        <time>2021-07-02T11:37:54Z</time>
      </trkpt>
      <trkpt lat="42.486984" lon="1.494803">
        <ele>952.58289</ele>
        <time>2021-07-02T11:37:55Z</time>
      </trkpt>
      <trkpt lat="42.486942" lon="1.494798">
        <ele>951.95007</ele>
        <time>2021-07-02T11:37:56Z</time>
      </trkpt>
      <trkpt lat="42.486904" lon="1.494794">
        <ele>952.37268</ele>
        <time>2021-07-02T11:37:57Z</time>
      </trkpt>
      <trkpt lat="42.486874" lon="1.494786">
        <ele>952.19653</ele>
        <time>2021-07-02T11:37:58Z</time>
      </trkpt>
      <trkpt lat="42.486839" lon="1.494776">
        <ele>951.54883</ele>
        <time>2021-07-02T11:37:59Z</time>
      </trkpt>
      <trkpt lat="42.486805" lon="1.494766">
        <ele>950.84741</ele>
        <time>2021-07-02T11:38:00Z</time>
      </trkpt>
      <trkpt lat="42.486763" lon="1.494753">
        <ele>950.67334</ele>
        <time>2021-07-02T11:38:01Z</time>
      </trkpt>
      <trkpt lat="42.486721" lon="1.494741">
        <ele>951.07178</ele>
        <time>2021-07-02T11:38:02Z</time>
      </trkpt>
      <trkpt lat="42.486691" lon="1.494732">
        <ele>951.13879</ele>
        <time>2021-07-02T11:38:03Z</time>
      </trkpt>
      <trkpt lat="42.486645" lon="1.494712">
        <ele>950.37463</ele>
        <time>2021-07-02T11:38:04Z</time>
      </trkpt>
      <trkpt lat="42.486588" lon="1.494686">
        <ele>950.43420</ele>
        <time>2021-07-02T11:38:05Z</time>
      </trkpt>
      <trkpt lat="42.486542" lon="1.494663">
        <ele>950.33716</ele>
        <time>2021-07-02T11:38:06Z</time>
      </trkpt>
      <trkpt lat="42.486492" lon="1.494641">
        <ele>950.66577</ele>
        <time>2021-07-02T11:38:07Z</time>
      </trkpt>
      <trkpt lat="42.486435" lon="1.494614">
        <ele>950.83875</ele>
        <time>2021-07-02T11:38:08Z</time>
      </trkpt>
      <trkpt lat="42.486370" lon="1.494579">
        <ele>950.65063</ele>
        <time>2021-07-02T11:38:09Z</time>
      </trkpt>
      <trkpt lat="42.486320" lon="1.494544">
        <ele>950.58716</ele>
        <time>2021-07-02T11:38:10Z</time>
      </trkpt>
      <trkpt lat="42.486286" lon="1.494518">
        <ele>950.41541</ele>
        <time>2021-07-02T11:38:11Z</time>
      </trkpt>
      <trkpt lat="42.486240" lon="1.494485">
        <ele>950.67261</ele>
        <time>2021-07-02T11:38:12Z</time>
      </trkpt>
      <trkpt lat="42.486198" lon="1.494447">
        <ele>950.51147</ele>
        <time>2021-07-02T11:38:13Z</time>
      </trkpt>
      <trkpt lat="42.486149" lon="1.494399">
        <ele>950.80542</ele>
        <time>2021-07-02T11:38:14Z</time>
      </trkpt>
      <trkpt lat="42.486103" lon="1.494356">
        <ele>951.20874</ele>
        <time>2021-07-02T11:38:15Z</time>
      </trkpt>
      <trkpt lat="42.486053" lon="1.494309">
        <ele>950.84937</ele>
        <time>2021-07-02T11:38:16Z</time>
      </trkpt>
      <trkpt lat="42.486004" lon="1.494262">
        <ele>950.95020</ele>
        <time>2021-07-02T11:38:17Z</time>
      </trkpt>
      <trkpt lat="42.485958" lon="1.494215">
        <ele>951.07483</ele>
        <time>2021-07-02T11:38:18Z</time>
      </trkpt>
      <trkpt lat="42.485909" lon="1.494161">
        <ele>951.59167</ele>
        <time>2021-07-02T11:38:19Z</time>
      </trkpt>
      <trkpt lat="42.485867" lon="1.494114">
        <ele>951.47461</ele>
        <time>2021-07-02T11:38:20Z</time>
      </trkpt>
      <trkpt lat="42.485825" lon="1.494066">
        <ele>950.89282</ele>
        <time>2021-07-02T11:38:21Z</time>
      </trkpt>
      <trkpt lat="42.485825" lon="1.494066">
        <ele>949.82642</ele>
        <time>2021-07-02T11:38:22Z</time>
      </trkpt>
      <trkpt lat="42.485779" lon="1.494016">
        <ele>948.74146</ele>
        <time>2021-07-02T11:38:23Z</time>
      </trkpt>
      <trkpt lat="42.485729" lon="1.493957">
        <ele>948.56055</ele>
        <time>2021-07-02T11:38:24Z</time>
      </trkpt>
      <trkpt lat="42.485687" lon="1.493911">
        <ele>949.85278</ele>
        <time>2021-07-02T11:38:25Z</time>
      </trkpt>
      <trkpt lat="42.485645" lon="1.493853">
        <ele>950.35083</ele>
        <time>2021-07-02T11:38:26Z</time>
      </trkpt>
      <trkpt lat="42.485603" lon="1.493800">
        <ele>948.99902</ele>
        <time>2021-07-02T11:38:27Z</time>
      </trkpt>
      <trkpt lat="42.485561" lon="1.493743">
        <ele>949.14539</ele>
        <time>2021-07-02T11:38:28Z</time>
      </trkpt>
      <trkpt lat="42.485512" lon="1.493675">
        <ele>949.58521</ele>
        <time>2021-07-02T11:38:29Z</time>
      </trkpt>
      <trkpt lat="42.485474" lon="1.493626">
        <ele>947.93408</ele>
        <time>2021-07-02T11:38:30Z</time>
      </trkpt>
      <trkpt lat="42.485435" lon="1.493574">
        <ele>947.46802</ele>
        <time>2021-07-02T11:38:31Z</time>
      </trkpt>
      <trkpt lat="42.485401" lon="1.493528">
        <ele>947.61157</ele>
        <time>2021-07-02T11:38:32Z</time>
      </trkpt>
      <trkpt lat="42.485367" lon="1.493479">
        <ele>947.48462</ele>
        <time>2021-07-02T11:38:33Z</time>
      </trkpt>
      <trkpt lat="42.485325" lon="1.493419">
        <ele>947.43665</ele>
        <time>2021-07-02T11:38:34Z</time>
      </trkpt>
      <trkpt lat="42.485283" lon="1.493356">
        <ele>947.03638</ele>
        <time>2021-07-02T11:38:35Z</time>
      </trkpt>
      <trkpt lat="42.485241" lon="1.493294">
        <ele>946.98535</ele>
        <time>2021-07-02T11:38:36Z</time>
      </trkpt>
      <trkpt lat="42.485191" lon="1.493224">
        <ele>947.46631</ele>
        <time>2021-07-02T11:38:37Z</time>
      </trkpt>
      <trkpt lat="42.485138" lon="1.493141">
        <ele>948.04150</ele>
        <time>2021-07-02T11:38:38Z</time>
      </trkpt>
      <trkpt lat="42.485077" lon="1.493051">
        <ele>948.36597</ele>
        <time>2021-07-02T11:38:39Z</time>
      </trkpt>
      <trkpt lat="42.485023" lon="1.492968">
        <ele>949.26025</ele>
        <time>2021-07-02T11:38:40Z</time>
      </trkpt>
      <trkpt lat="42.484978" lon="1.492887">
        <ele>948.38208</ele>
        <time>2021-07-02T11:38:41Z</time>
      </trkpt>
      <trkpt lat="42.484970" lon="1.492871">
        <ele>948.30457</ele>
        <time>2021-07-02T11:38:42Z</time>
      </trkpt>
      <trkpt lat="42.484970" lon="1.492871">
        <ele>949.34790</ele>
        <time>2021-07-02T11:38:43Z</time>
      </trkpt>
      <trkpt lat="42.484962" lon="1.492856">
        <ele>948.87415</ele>
        <time>2021-07-02T11:38:44Z</time>
      </trkpt>
      <trkpt lat="42.484947" lon="1.492832">
        <ele>949.45020</ele>
        <time>2021-07-02T11:38:45Z</time>
      </trkpt>
      <trkpt lat="42.484921" lon="1.492779">
        <ele>949.38794</ele>
        <time>2021-07-02T11:38:46Z</time>
      </trkpt>
      <trkpt lat="42.484894" lon="1.492724">
        <ele>949.59631</ele>
        <time>2021-07-02T11:38:47Z</time>
      </trkpt>
      <trkpt lat="42.484875" lon="1.492686">
        <ele>948.63794</ele>
        <time>2021-07-02T11:38:48Z</time>
      </trkpt>
      <trkpt lat="42.484837" lon="1.492614">
        <ele>948.60327</ele>
        <time>2021-07-02T11:38:49Z</time>
      </trkpt>
      <trkpt lat="42.484810" lon="1.492556">
        <ele>949.51648</ele>
        <time>2021-07-02T11:38:50Z</time>
      </trkpt>
      <trkpt lat="42.484776" lon="1.492487">
        <ele>949.15686</ele>
        <time>2021-07-02T11:38:51Z</time>
      </trkpt>
      <trkpt lat="42.484741" lon="1.492408">
        <ele>949.83606</ele>
        <time>2021-07-02T11:38:52Z</time>
      </trkpt>
      <trkpt lat="42.484715" lon="1.492350">
        <ele>950.23853</ele>
        <time>2021-07-02T11:38:53Z</time>
      </trkpt>
      <trkpt lat="42.484680" lon="1.492215">
        <ele>951.65869</ele>
        <time>2021-07-02T11:38:54Z</time>
      </trkpt>
      <trkpt lat="42.484680" lon="1.492215">
        <ele>951.14624</ele>
        <time>2021-07-02T11:38:55Z</time>
      </trkpt>
      <trkpt lat="42.484882" lon="1.492060">
        <ele>951.73462</ele>
        <time>2021-07-02T11:38:56Z</time>
      </trkpt>
      <trkpt lat="42.484905" lon="1.491989">
        <ele>950.94897</ele>
        <time>2021-07-02T11:38:57Z</time>
      </trkpt>
      <trkpt lat="42.484909" lon="1.491894">
        <ele>950.79224</ele>
        <time>2021-07-02T11:38:58Z</time>
      </trkpt>
      <trkpt lat="42.484867" lon="1.491784">
        <ele>950.77515</ele>
        <time>2021-07-02T11:38:59Z</time>
      </trkpt>
      <trkpt lat="42.484734" lon="1.491677">
        <ele>948.37207</ele>
        <time>2021-07-02T11:39:00Z</time>
      </trkpt>
      <trkpt lat="42.484650" lon="1.491593">
        <ele>949.11353</ele>
        <time>2021-07-02T11:39:01Z</time>
      </trkpt>
      <trkpt lat="42.484577" lon="1.491472">
        <ele>948.82788</ele>
        <time>2021-07-02T11:39:02Z</time>
      </trkpt>
      <trkpt lat="42.484516" lon="1.491352">
        <ele>948.65063</ele>
        <time>2021-07-02T11:39:03Z</time>
      </trkpt>
      <trkpt lat="42.484447" lon="1.491219">
        <ele>947.94214</ele>
        <time>2021-07-02T11:39:04Z</time>
      </trkpt>
      <trkpt lat="42.484406" lon="1.491106">
        <ele>947.72241</ele>
        <time>2021-07-02T11:39:05Z</time>
      </trkpt>
      <trkpt lat="42.484364" lon="1.491016">
        <ele>947.01514</ele>
        <time>2021-07-02T11:39:06Z</time>
      </trkpt>
      <trkpt lat="42.484310" lon="1.490994">
        <ele>946.56458</ele>
        <time>2021-07-02T11:39:07Z</time>
      </trkpt>
      <trkpt lat="42.484310" lon="1.490994">
        <ele>945.97986</ele>
        <time>2021-07-02T11:39:08Z</time>
      </trkpt>
      <trkpt lat="42.484310" lon="1.490994">
        <ele>944.69983</ele>
        <time>2021-07-02T11:39:09Z</time>
      </trkpt>
      <trkpt lat="42.483971" lon="1.490882">
        <ele>944.14404</ele>
        <time>2021-07-02T11:39:10Z</time>
      </trkpt>
      <trkpt lat="42.483868" lon="1.490819">
        <ele>944.04053</ele>
        <time>2021-07-02T11:39:11Z</time>
      </trkpt>
      <trkpt lat="42.483768" lon="1.490764">
        <ele>943.72974</ele>
        <time>2021-07-02T11:39:12Z</time>
      </trkpt>
      <trkpt lat="42.483669" lon="1.490704">
        <ele>943.46826</ele>
        <time>2021-07-02T11:39:13Z</time>
      </trkpt>
      <trkpt lat="42.483562" lon="1.490632">
        <ele>942.60889</ele>
        <time>2021-07-02T11:39:14Z</time>
      </trkpt>
      <trkpt lat="42.483456" lon="1.490564">
        <ele>942.49902</ele>
        <time>2021-07-02T11:39:15Z</time>
      </trkpt>
      <trkpt lat="42.483330" lon="1.490482">
        <ele>941.61023</ele>
        <time>2021-07-02T11:39:16Z</time>
      </trkpt>
      <trkpt lat="42.483196" lon="1.490407">
        <ele>941.15552</ele>
        <time>2021-07-02T11:39:17Z</time>
      </trkpt>
      <trkpt lat="42.483067" lon="1.490329">
        <ele>940.95728</ele>
        <time>2021-07-02T11:39:18Z</time>
      </trkpt>
      <trkpt lat="42.482944" lon="1.490254">
        <ele>939.98096</ele>
        <time>2021-07-02T11:39:19Z</time>
      </trkpt>
      <trkpt lat="42.482822" lon="1.490181">
        <ele>940.25964</ele>
        <time>2021-07-02T11:39:20Z</time>
      </trkpt>
      <trkpt lat="42.482712" lon="1.490112">
        <ele>940.28223</ele>
        <time>2021-07-02T11:39:21Z</time>
      </trkpt>
      <trkpt lat="42.482712" lon="1.490112">
        <ele>939.93164</ele>
        <time>2021-07-02T11:39:22Z</time>
      </trkpt>
      <trkpt lat="42.482597" lon="1.490044">
        <ele>939.58362</ele>
        <time>2021-07-02T11:39:23Z</time>
      </trkpt>
      <trkpt lat="42.482487" lon="1.489981">
        <ele>939.49902</ele>
        <time>2021-07-02T11:39:24Z</time>
      </trkpt>
      <trkpt lat="42.482391" lon="1.489928">
        <ele>937.51147</ele>
        <time>2021-07-02T11:39:25Z</time>
      </trkpt>
      <trkpt lat="42.482269" lon="1.489858">
        <ele>937.15088</ele>
        <time>2021-07-02T11:39:26Z</time>
      </trkpt>
      <trkpt lat="42.482155" lon="1.489795">
        <ele>937.07764</ele>
        <time>2021-07-02T11:39:27Z</time>
      </trkpt>
      <trkpt lat="42.482021" lon="1.489741">
        <ele>935.81592</ele>
        <time>2021-07-02T11:39:28Z</time>
      </trkpt>
      <trkpt lat="42.481899" lon="1.489692">
        <ele>935.80420</ele>
        <time>2021-07-02T11:39:29Z</time>
      </trkpt>
      <trkpt lat="42.481773" lon="1.489649">
        <ele>935.77734</ele>
        <time>2021-07-02T11:39:30Z</time>
      </trkpt>
      <trkpt lat="42.481663" lon="1.489612">
        <ele>935.49854</ele>
        <time>2021-07-02T11:39:31Z</time>
      </trkpt>
      <trkpt lat="42.481541" lon="1.489571">
        <ele>935.22803</ele>
        <time>2021-07-02T11:39:32Z</time>
      </trkpt>
      <trkpt lat="42.481426" lon="1.489545">
        <ele>933.93262</ele>
        <time>2021-07-02T11:39:33Z</time>
      </trkpt>
      <trkpt lat="42.481304" lon="1.489522">
        <ele>933.35327</ele>
        <time>2021-07-02T11:39:34Z</time>
      </trkpt>
      <trkpt lat="42.481182" lon="1.489499">
        <ele>933.12451</ele>
        <time>2021-07-02T11:39:35Z</time>
      </trkpt>
      <trkpt lat="42.481056" lon="1.489474">
        <ele>932.45728</ele>
        <time>2021-07-02T11:39:36Z</time>
      </trkpt>
      <trkpt lat="42.480927" lon="1.489449">
        <ele>931.92310</ele>
        <time>2021-07-02T11:39:37Z</time>
      </trkpt>
      <trkpt lat="42.480801" lon="1.489424">
        <ele>931.04504</ele>
        <time>2021-07-02T11:39:38Z</time>
      </trkpt>
      <trkpt lat="42.480682" lon="1.489403">
        <ele>931.12305</ele>
        <time>2021-07-02T11:39:39Z</time>
      </trkpt>
      <trkpt lat="42.480572" lon="1.489383">
        <ele>930.71289</ele>
        <time>2021-07-02T11:39:40Z</time>
      </trkpt>
      <trkpt lat="42.480457" lon="1.489366">
        <ele>932.02136</ele>
        <time>2021-07-02T11:39:41Z</time>
      </trkpt>
      <trkpt lat="42.480335" lon="1.489350">
        <ele>932.08057</ele>
        <time>2021-07-02T11:39:42Z</time>
      </trkpt>
      <trkpt lat="42.480221" lon="1.489335">
        <ele>932.10400</ele>
        <time>2021-07-02T11:39:43Z</time>
      </trkpt>
      <trkpt lat="42.480103" lon="1.489320">
        <ele>931.48657</ele>
        <time>2021-07-02T11:39:44Z</time>
      </trkpt>
      <trkpt lat="42.479988" lon="1.489304">
        <ele>931.27490</ele>
        <time>2021-07-02T11:39:45Z</time>
      </trkpt>
      <trkpt lat="42.479874" lon="1.489299">
        <ele>931.12170</ele>
        <time>2021-07-02T11:39:46Z</time>
      </trkpt>
      <trkpt lat="42.479755" lon="1.489301">
        <ele>931.26123</ele>
        <time>2021-07-02T11:39:47Z</time>
      </trkpt>
      <trkpt lat="42.479626" lon="1.489328">
        <ele>931.22510</ele>
        <time>2021-07-02T11:39:48Z</time>
      </trkpt>
      <trkpt lat="42.479492" lon="1.489355">
        <ele>931.66675</ele>
        <time>2021-07-02T11:39:49Z</time>
      </trkpt>
      <trkpt lat="42.479382" lon="1.489395">
        <ele>932.01965</ele>
        <time>2021-07-02T11:39:50Z</time>
      </trkpt>
      <trkpt lat="42.479282" lon="1.489434">
        <ele>931.08325</ele>
        <time>2021-07-02T11:39:51Z</time>
      </trkpt>
      <trkpt lat="42.479164" lon="1.489479">
        <ele>931.15198</ele>
        <time>2021-07-02T11:39:52Z</time>
      </trkpt>
      <trkpt lat="42.479050" lon="1.489536">
        <ele>930.45630</ele>
        <time>2021-07-02T11:39:53Z</time>
      </trkpt>
      <trkpt lat="42.478924" lon="1.489602">
        <ele>929.37195</ele>
        <time>2021-07-02T11:39:54Z</time>
      </trkpt>
      <trkpt lat="42.478809" lon="1.489664">
        <ele>928.79712</ele>
        <time>2021-07-02T11:39:55Z</time>
      </trkpt>
      <trkpt lat="42.478683" lon="1.489738">
        <ele>928.29639</ele>
        <time>2021-07-02T11:39:56Z</time>
      </trkpt>
      <trkpt lat="42.478683" lon="1.489738">
        <ele>928.17236</ele>
        <time>2021-07-02T11:39:57Z</time>
      </trkpt>
      <trkpt lat="42.478558" lon="1.489815">
        <ele>928.24768</ele>
        <time>2021-07-02T11:39:58Z</time>
      </trkpt>
      <trkpt lat="42.478447" lon="1.489888">
        <ele>928.39014</ele>
        <time>2021-07-02T11:39:59Z</time>
      </trkpt>
      <trkpt lat="42.478333" lon="1.489967">
        <ele>928.64404</ele>
        <time>2021-07-02T11:40:00Z</time>
      </trkpt>
      <trkpt lat="42.478222" lon="1.490033">
        <ele>927.86865</ele>
        <time>2021-07-02T11:40:01Z</time>
      </trkpt>
      <trkpt lat="42.478107" lon="1.490100">
        <ele>927.48218</ele>
        <time>2021-07-02T11:40:02Z</time>
      </trkpt>
      <trkpt lat="42.477993" lon="1.490165">
        <ele>927.21558</ele>
        <time>2021-07-02T11:40:03Z</time>
      </trkpt>
      <trkpt lat="42.477886" lon="1.490225">
        <ele>927.24377</ele>
        <time>2021-07-02T11:40:04Z</time>
      </trkpt>
      <trkpt lat="42.477783" lon="1.490284">
        <ele>927.22400</ele>
        <time>2021-07-02T11:40:05Z</time>
      </trkpt>
      <trkpt lat="42.477673" lon="1.490340">
        <ele>928.00940</ele>
        <time>2021-07-02T11:40:06Z</time>
      </trkpt>
      <trkpt lat="42.477558" lon="1.490396">
        <ele>928.21362</ele>
        <time>2021-07-02T11:40:07Z</time>
      </trkpt>
      <trkpt lat="42.477451" lon="1.490450">
        <ele>928.08154</ele>
        <time>2021-07-02T11:40:08Z</time>
      </trkpt>
      <trkpt lat="42.477329" lon="1.490498">
        <ele>925.78857</ele>
        <time>2021-07-02T11:40:09Z</time>
      </trkpt>
      <trkpt lat="42.477215" lon="1.490540">
        <ele>927.03564</ele>
        <time>2021-07-02T11:40:10Z</time>
      </trkpt>
      <trkpt lat="42.477112" lon="1.490568">
        <ele>925.41785</ele>
        <time>2021-07-02T11:40:11Z</time>
      </trkpt>
      <trkpt lat="42.477020" lon="1.490578">
        <ele>927.24561</ele>
        <time>2021-07-02T11:40:12Z</time>
      </trkpt>
      <trkpt lat="42.476936" lon="1.490583">
        <ele>927.52563</ele>
        <time>2021-07-02T11:40:13Z</time>
      </trkpt>
      <trkpt lat="42.476856" lon="1.490566">
        <ele>927.93555</ele>
        <time>2021-07-02T11:40:14Z</time>
      </trkpt>
      <trkpt lat="42.476791" lon="1.490532">
        <ele>928.15771</ele>
        <time>2021-07-02T11:40:15Z</time>
      </trkpt>
      <trkpt lat="42.476719" lon="1.490489">
        <ele>927.34180</ele>
        <time>2021-07-02T11:40:16Z</time>
      </trkpt>
      <trkpt lat="42.476627" lon="1.490305">
        <ele>928.50110</ele>
        <time>2021-07-02T11:40:17Z</time>
      </trkpt>
      <trkpt lat="42.476589" lon="1.490281">
        <ele>928.31348</ele>
        <time>2021-07-02T11:40:18Z</time>
      </trkpt>
      <trkpt lat="42.476540" lon="1.490272">
        <ele>930.34070</ele>
        <time>2021-07-02T11:40:19Z</time>
      </trkpt>
      <trkpt lat="42.476479" lon="1.490275">
        <ele>930.90002</ele>
        <time>2021-07-02T11:40:20Z</time>
      </trkpt>
      <trkpt lat="42.476425" lon="1.490308">
        <ele>930.98108</ele>
        <time>2021-07-02T11:40:21Z</time>
      </trkpt>
      <trkpt lat="42.476391" lon="1.490360">
        <ele>930.02319</ele>
        <time>2021-07-02T11:40:22Z</time>
      </trkpt>
      <trkpt lat="42.476372" lon="1.490432">
        <ele>930.11377</ele>
        <time>2021-07-02T11:40:23Z</time>
      </trkpt>
      <trkpt lat="42.476372" lon="1.490527">
        <ele>931.27344</ele>
        <time>2021-07-02T11:40:24Z</time>
      </trkpt>
      <trkpt lat="42.476372" lon="1.490527">
        <ele>930.70251</ele>
        <time>2021-07-02T11:40:25Z</time>
      </trkpt>
      <trkpt lat="42.476337" lon="1.490549">
        <ele>930.14136</ele>
        <time>2021-07-02T11:40:26Z</time>
      </trkpt>
      <trkpt lat="42.476109" lon="1.490641">
        <ele>929.10815</ele>
        <time>2021-07-02T11:40:27Z</time>
      </trkpt>
      <trkpt lat="42.476109" lon="1.490641">
        <ele>928.11169</ele>
        <time>2021-07-02T11:40:28Z</time>
      </trkpt>
      <trkpt lat="42.476032" lon="1.490651">
        <ele>927.95972</ele>
        <time>2021-07-02T11:40:29Z</time>
      </trkpt>
      <trkpt lat="42.475922" lon="1.490666">
        <ele>927.86023</ele>
        <time>2021-07-02T11:40:30Z</time>
      </trkpt>
      <trkpt lat="42.475792" lon="1.490697">
        <ele>927.43750</ele>
        <time>2021-07-02T11:40:31Z</time>
      </trkpt>
      <trkpt lat="42.475670" lon="1.490727">
        <ele>926.90942</ele>
        <time>2021-07-02T11:40:32Z</time>
      </trkpt>
      <trkpt lat="42.475559" lon="1.490754">
        <ele>926.79077</ele>
        <time>2021-07-02T11:40:33Z</time>
      </trkpt>
      <trkpt lat="42.475441" lon="1.490763">
        <ele>927.29858</ele>
        <time>2021-07-02T11:40:34Z</time>
      </trkpt>
      <trkpt lat="42.475315" lon="1.490758">
        <ele>927.71387</ele>
        <time>2021-07-02T11:40:35Z</time>
      </trkpt>
      <trkpt lat="42.475197" lon="1.490751">
        <ele>928.43115</ele>
        <time>2021-07-02T11:40:36Z</time>
      </trkpt>
      <trkpt lat="42.475079" lon="1.490738">
        <ele>929.12549</ele>
        <time>2021-07-02T11:40:37Z</time>
      </trkpt>
      <trkpt lat="42.474957" lon="1.490735">
        <ele>930.79871</ele>
        <time>2021-07-02T11:40:38Z</time>
      </trkpt>
      <trkpt lat="42.474827" lon="1.490744">
        <ele>931.02673</ele>
        <time>2021-07-02T11:40:39Z</time>
      </trkpt>
      <trkpt lat="42.474678" lon="1.490783">
        <ele>931.56458</ele>
        <time>2021-07-02T11:40:40Z</time>
      </trkpt>
      <trkpt lat="42.474541" lon="1.490849">
        <ele>929.95679</ele>
        <time>2021-07-02T11:40:41Z</time>
      </trkpt>
      <trkpt lat="42.474419" lon="1.490466">
        <ele>929.42212</ele>
        <time>2021-07-02T11:40:42Z</time>
      </trkpt>
      <trkpt lat="42.474304" lon="1.490435">
        <ele>927.14014</ele>
        <time>2021-07-02T11:40:43Z</time>
      </trkpt>
      <trkpt lat="42.474182" lon="1.490414">
        <ele>927.53711</ele>
        <time>2021-07-02T11:40:44Z</time>
      </trkpt>
      <trkpt lat="42.474083" lon="1.490403">
        <ele>927.50806</ele>
        <time>2021-07-02T11:40:45Z</time>
      </trkpt>
      <trkpt lat="42.473953" lon="1.490425">
        <ele>926.81482</ele>
        <time>2021-07-02T11:40:46Z</time>
      </trkpt>
      <trkpt lat="42.473839" lon="1.490427">
        <ele>926.81482</ele>
        <time>2021-07-02T11:40:47Z</time>
      </trkpt>
      <trkpt lat="42.473755" lon="1.490427">
        <ele>926.81482</ele>
        <time>2021-07-02T11:40:48Z</time>
      </trkpt>
      <trkpt lat="42.473747" lon="1.490428">
        <ele>926.81482</ele>
        <time>2021-07-02T11:40:49Z</time>
      </trkpt>
      <trkpt lat="42.473747" lon="1.490428">
        <ele>926.81482</ele>
        <time>2021-07-02T11:40:50Z</time>
      </trkpt>
      <trkpt lat="42.473747" lon="1.490428">
        <ele>926.81482</ele>
        <time>2021-07-02T11:40:51Z</time>
      </trkpt>
      <trkpt lat="42.473747" lon="1.490428">
        <ele>926.81482</ele>
        <time>2021-07-02T11:40:52Z</time>
      </trkpt>
      <trkpt lat="42.473747" lon="1.490428">
        <ele>926.81482</ele>
        <time>2021-07-02T11:40:53Z</time>
      </trkpt>
      <trkpt lat="42.473747" lon="1.490428">
        <ele>926.81482</ele>
        <time>2021-07-02T11:40:54Z</time>
      </trkpt>
      <trkpt lat="42.473747" lon="1.490428">
        <ele>926.81482</ele>
        <time>2021-07-02T11:40:55Z</time>
      </trkpt>
      <trkpt lat="42.473747" lon="1.490428">
        <ele>926.81482</ele>
        <time>2021-07-02T11:40:56Z</time>
      </trkpt>
      <trkpt lat="42.473747" lon="1.490428">
        <ele>926.81482</ele>
        <time>2021-07-02T11:40:57Z</time>
      </trkpt>
      <trkpt lat="42.473747" lon="1.490428">
        <ele>926.81482</ele>
        <time>2021-07-02T11:40:58Z</time>
      </trkpt>
      <trkpt lat="42.473747" lon="1.490428">
        <ele>926.81482</ele>
        <time>2021-07-02T11:40:59Z</time>
      </trkpt>
      <trkpt lat="42.473747" lon="1.490428">
        <ele>926.81482</ele>
        <time>2021-07-02T11:41:00Z</time>
      </trkpt>
      <trkpt lat="42.473747" lon="1.490428">
        <ele>926.81482</ele>
        <time>2021-07-02T11:41:01Z</time>
      </trkpt>
      <trkpt lat="42.473747" lon="1.490428">
        <ele>926.81482</ele>
        <time>2021-07-02T11:41:02Z</time>
      </trkpt>
      <trkpt lat="42.473747" lon="1.490428">
        <ele>926.81482</ele>
        <time>2021-07-02T11:41:03Z</time>
      </trkpt>
      <trkpt lat="42.473747" lon="1.490428">
        <ele>926.81482</ele>
        <time>2021-07-02T11:41:04Z</time>
      </trkpt>
      <trkpt lat="42.473747" lon="1.490428">
        <ele>926.81482</ele>
        <time>2021-07-02T11:41:05Z</time>
      </trkpt>
      <trkpt lat="42.473747" lon="1.490428">
        <ele>926.81482</ele>
        <time>2021-07-02T11:41:06Z</time>
      </trkpt>
      <trkpt lat="42.473747" lon="1.490428">
        <ele>926.81482</ele>
        <time>2021-07-02T11:41:07Z</time>
      </trkpt>
      <trkpt lat="42.473747" lon="1.490428">
        <ele>926.81482</ele>
        <time>2021-07-02T11:41:08Z</time>
      </trkpt>
      <trkpt lat="42.473747" lon="1.490428">
        <ele>926.81482</ele>
        <time>2021-07-02T11:41:09Z</time>
      </trkpt>
      <trkpt lat="42.473747" lon="1.490428">
        <ele>926.81482</ele>
        <time>2021-07-02T11:41:10Z</time>
      </trkpt>
      <trkpt lat="42.473747" lon="1.490428">
        <ele>926.81482</ele>
        <time>2021-07-02T11:41:11Z</time>
      </trkpt>
      <trkpt lat="42.473747" lon="1.490428">
        <ele>926.81482</ele>
        <time>2021-07-02T11:41:12Z</time>
      </trkpt>
      <trkpt lat="42.473747" lon="1.490428">
        <ele>926.81482</ele>
        <time>2021-07-02T11:41:13Z</time>
      </trkpt>
      <trkpt lat="42.471973" lon="1.490845">
        <ele>926.81482</ele>
        <time>2021-07-02T11:41:14Z</time>
      </trkpt>
      <trkpt lat="42.471973" lon="1.490845">
        <ele>926.81482</ele>
        <time>2021-07-02T11:41:15Z</time>
      </trkpt>
      <trkpt lat="42.471973" lon="1.490845">
        <ele>926.81482</ele>
        <time>2021-07-02T11:41:16Z</time>
      </trkpt>
      <trkpt lat="42.471973" lon="1.490845">
        <ele>926.81482</ele>
        <time>2021-07-02T11:41:17Z</time>
      </trkpt>
      <trkpt lat="42.471973" lon="1.490845">
        <ele>926.81482</ele>
        <time>2021-07-02T11:41:18Z</time>
      </trkpt>
      <trkpt lat="42.471828" lon="1.490923">
        <ele>926.81482</ele>
        <time>2021-07-02T11:41:19Z</time>
      </trkpt>
      <trkpt lat="42.471703" lon="1.490990">
        <ele>926.81482</ele>
        <time>2021-07-02T11:41:20Z</time>
      </trkpt>
      <trkpt lat="42.471703" lon="1.490990">
        <ele>926.81482</ele>
        <time>2021-07-02T11:41:21Z</time>
      </trkpt>
      <trkpt lat="42.471703" lon="1.490990">
        <ele>926.81482</ele>
        <time>2021-07-02T11:41:22Z</time>
      </trkpt>
      <trkpt lat="42.471703" lon="1.490990">
        <ele>926.81482</ele>
        <time>2021-07-02T11:41:23Z</time>
      </trkpt>
      <trkpt lat="42.471703" lon="1.490990">
        <ele>926.81482</ele>
        <time>2021-07-02T11:41:24Z</time>
      </trkpt>
      <trkpt lat="42.471703" lon="1.490990">
        <ele>926.81482</ele>
        <time>2021-07-02T11:41:25Z</time>
      </trkpt>
      <trkpt lat="42.471703" lon="1.490990">
        <ele>924.22015</ele>
        <time>2021-07-02T11:41:26Z</time>
      </trkpt>
      <trkpt lat="42.469345" lon="1.491970">
        <ele>922.65369</ele>
        <time>2021-07-02T11:41:27Z</time>
      </trkpt>
      <trkpt lat="42.469219" lon="1.491962">
        <ele>920.67017</ele>
        <time>2021-07-02T11:41:28Z</time>
      </trkpt>
      <trkpt lat="42.469055" lon="1.491924">
        <ele>917.74927</ele>
        <time>2021-07-02T11:41:29Z</time>
      </trkpt>
      <trkpt lat="42.468868" lon="1.491863">
        <ele>914.85620</ele>
        <time>2021-07-02T11:41:30Z</time>
      </trkpt>
      <trkpt lat="42.468700" lon="1.491809">
        <ele>913.53162</ele>
        <time>2021-07-02T11:41:31Z</time>
      </trkpt>
      <trkpt lat="42.468513" lon="1.491749">
        <ele>912.89661</ele>
        <time>2021-07-02T11:41:32Z</time>
      </trkpt>
      <trkpt lat="42.468334" lon="1.491690">
        <ele>911.91748</ele>
        <time>2021-07-02T11:41:33Z</time>
      </trkpt>
      <trkpt lat="42.468334" lon="1.491690">
        <ele>911.67773</ele>
        <time>2021-07-02T11:41:34Z</time>
      </trkpt>
      <trkpt lat="42.468143" lon="1.491636">
        <ele>911.10742</ele>
        <time>2021-07-02T11:41:35Z</time>
      </trkpt>
      <trkpt lat="42.467991" lon="1.491599">
        <ele>911.08423</ele>
        <time>2021-07-02T11:41:36Z</time>
      </trkpt>
      <trkpt lat="42.467838" lon="1.491583">
        <ele>911.93860</ele>
        <time>2021-07-02T11:41:37Z</time>
      </trkpt>
      <trkpt lat="42.467697" lon="1.491577">
        <ele>912.25671</ele>
        <time>2021-07-02T11:41:38Z</time>
      </trkpt>
      <trkpt lat="42.467564" lon="1.491571">
        <ele>911.80615</ele>
        <time>2021-07-02T11:41:39Z</time>
      </trkpt>
      <trkpt lat="42.467442" lon="1.491571">
        <ele>910.63843</ele>
        <time>2021-07-02T11:41:40Z</time>
      </trkpt>
      <trkpt lat="42.467331" lon="1.491568">
        <ele>910.86230</ele>
        <time>2021-07-02T11:41:41Z</time>
      </trkpt>
      <trkpt lat="42.467232" lon="1.491551">
        <ele>910.69128</ele>
        <time>2021-07-02T11:41:42Z</time>
      </trkpt>
      <trkpt lat="42.467144" lon="1.491553">
        <ele>910.67517</ele>
        <time>2021-07-02T11:41:43Z</time>
      </trkpt>
      <trkpt lat="42.467056" lon="1.491580">
        <ele>911.05908</ele>
        <time>2021-07-02T11:41:44Z</time>
      </trkpt>
      <trkpt lat="42.466984" lon="1.491618">
        <ele>911.04260</ele>
        <time>2021-07-02T11:41:45Z</time>
      </trkpt>
      <trkpt lat="42.466911" lon="1.491679">
        <ele>910.78711</ele>
        <time>2021-07-02T11:41:46Z</time>
      </trkpt>
      <trkpt lat="42.466854" lon="1.491742">
        <ele>911.05920</ele>
        <time>2021-07-02T11:41:47Z</time>
      </trkpt>
      <trkpt lat="42.466831" lon="1.491790">
        <ele>910.88318</ele>
        <time>2021-07-02T11:41:48Z</time>
      </trkpt>
      <trkpt lat="42.466824" lon="1.491844">
        <ele>910.93591</ele>
        <time>2021-07-02T11:41:49Z</time>
      </trkpt>
      <trkpt lat="42.466778" lon="1.491933">
        <ele>910.73804</ele>
        <time>2021-07-02T11:41:50Z</time>
      </trkpt>
      <trkpt lat="42.466789" lon="1.491995">
        <ele>911.53906</ele>
        <time>2021-07-02T11:41:51Z</time>
      </trkpt>
      <trkpt lat="42.466579" lon="1.491811">
        <ele>911.52869</ele>
        <time>2021-07-02T11:41:52Z</time>
      </trkpt>
      <trkpt lat="42.466503" lon="1.491792">
        <ele>910.09961</ele>
        <time>2021-07-02T11:41:53Z</time>
      </trkpt>
      <trkpt lat="42.466446" lon="1.491724">
        <ele>909.94568</ele>
        <time>2021-07-02T11:41:54Z</time>
      </trkpt>
      <trkpt lat="42.466373" lon="1.491634">
        <ele>909.98096</ele>
        <time>2021-07-02T11:41:55Z</time>
      </trkpt>
      <trkpt lat="42.466305" lon="1.491554">
        <ele>908.46460</ele>
        <time>2021-07-02T11:41:56Z</time>
      </trkpt>
      <trkpt lat="42.466232" lon="1.491468">
        <ele>907.35303</ele>
        <time>2021-07-02T11:41:57Z</time>
      </trkpt>
      <trkpt lat="42.466160" lon="1.491377">
        <ele>907.97485</ele>
        <time>2021-07-02T11:41:58Z</time>
      </trkpt>
      <trkpt lat="42.466076" lon="1.491277">
        <ele>907.90417</ele>
        <time>2021-07-02T11:41:59Z</time>
      </trkpt>
      <trkpt lat="42.466000" lon="1.491188">
        <ele>909.36572</ele>
        <time>2021-07-02T11:42:00Z</time>
      </trkpt>
      <trkpt lat="42.465916" lon="1.491077">
        <ele>907.38550</ele>
        <time>2021-07-02T11:42:01Z</time>
      </trkpt>
      <trkpt lat="42.465824" lon="1.490957">
        <ele>905.60522</ele>
        <time>2021-07-02T11:42:02Z</time>
      </trkpt>
      <trkpt lat="42.465736" lon="1.490834">
        <ele>904.77612</ele>
        <time>2021-07-02T11:42:03Z</time>
      </trkpt>
      <trkpt lat="42.465660" lon="1.490707">
        <ele>904.64893</ele>
        <time>2021-07-02T11:42:04Z</time>
      </trkpt>
      <trkpt lat="42.465588" lon="1.490592">
        <ele>903.56104</ele>
        <time>2021-07-02T11:42:05Z</time>
      </trkpt>
      <trkpt lat="42.465504" lon="1.490472">
        <ele>901.77148</ele>
        <time>2021-07-02T11:42:06Z</time>
      </trkpt>
      <trkpt lat="42.465424" lon="1.490359">
        <ele>901.68652</ele>
        <time>2021-07-02T11:42:07Z</time>
      </trkpt>
      <trkpt lat="42.465351" lon="1.490237">
        <ele>900.54053</ele>
        <time>2021-07-02T11:42:08Z</time>
      </trkpt>
      <trkpt lat="42.465351" lon="1.490237">
        <ele>900.78906</ele>
        <time>2021-07-02T11:42:09Z</time>
      </trkpt>
      <trkpt lat="42.465279" lon="1.490117">
        <ele>900.09338</ele>
        <time>2021-07-02T11:42:10Z</time>
      </trkpt>
      <trkpt lat="42.465176" lon="1.490005">
        <ele>899.65234</ele>
        <time>2021-07-02T11:42:11Z</time>
      </trkpt>
      <trkpt lat="42.465092" lon="1.489915">
        <ele>899.26501</ele>
        <time>2021-07-02T11:42:12Z</time>
      </trkpt>
      <trkpt lat="42.465008" lon="1.489853">
        <ele>898.17004</ele>
        <time>2021-07-02T11:42:13Z</time>
      </trkpt>
      <trkpt lat="42.464886" lon="1.489821">
        <ele>896.25024</ele>
        <time>2021-07-02T11:42:14Z</time>
      </trkpt>
      <trkpt lat="42.464756" lon="1.489806">
        <ele>894.74438</ele>
        <time>2021-07-02T11:42:15Z</time>
      </trkpt>
      <trkpt lat="42.464653" lon="1.489797">
        <ele>894.78345</ele>
        <time>2021-07-02T11:42:16Z</time>
      </trkpt>
      <trkpt lat="42.464565" lon="1.489776">
        <ele>894.74976</ele>
        <time>2021-07-02T11:42:17Z</time>
      </trkpt>
      <trkpt lat="42.464478" lon="1.489743">
        <ele>892.22107</ele>
        <time>2021-07-02T11:42:18Z</time>
      </trkpt>
      <trkpt lat="42.464378" lon="1.489685">
        <ele>892.21252</ele>
        <time>2021-07-02T11:42:19Z</time>
      </trkpt>
      <trkpt lat="42.464314" lon="1.489608">
        <ele>893.27600</ele>
        <time>2021-07-02T11:42:20Z</time>
      </trkpt>
      <trkpt lat="42.464237" lon="1.489517">
        <ele>894.03735</ele>
        <time>2021-07-02T11:42:21Z</time>
      </trkpt>
      <trkpt lat="42.464138" lon="1.489443">
        <ele>894.51367</ele>
        <time>2021-07-02T11:42:22Z</time>
      </trkpt>
      <trkpt lat="42.464020" lon="1.489406">
        <ele>895.29395</ele>
        <time>2021-07-02T11:42:23Z</time>
      </trkpt>
      <trkpt lat="42.463905" lon="1.489398">
        <ele>895.62671</ele>
        <time>2021-07-02T11:42:24Z</time>
      </trkpt>
      <trkpt lat="42.463787" lon="1.489389">
        <ele>895.81055</ele>
        <time>2021-07-02T11:42:25Z</time>
      </trkpt>
      <trkpt lat="42.463661" lon="1.489380">
        <ele>896.56494</ele>
        <time>2021-07-02T11:42:26Z</time>
      </trkpt>
      <trkpt lat="42.463539" lon="1.489371">
        <ele>895.00073</ele>
        <time>2021-07-02T11:42:27Z</time>
      </trkpt>
      <trkpt lat="42.463417" lon="1.489363">
        <ele>895.37524</ele>
        <time>2021-07-02T11:42:28Z</time>
      </trkpt>
      <trkpt lat="42.463299" lon="1.489354">
        <ele>894.91821</ele>
        <time>2021-07-02T11:42:29Z</time>
      </trkpt>
      <trkpt lat="42.463177" lon="1.489345">
        <ele>892.99097</ele>
        <time>2021-07-02T11:42:30Z</time>
      </trkpt>
      <trkpt lat="42.463177" lon="1.489345">
        <ele>892.38367</ele>
        <time>2021-07-02T11:42:31Z</time>
      </trkpt>
      <trkpt lat="42.462948" lon="1.489329">
        <ele>892.66333</ele>
        <time>2021-07-02T11:42:32Z</time>
      </trkpt>
      <trkpt lat="42.462948" lon="1.489329">
        <ele>891.82495</ele>
        <time>2021-07-02T11:42:33Z</time>
      </trkpt>
      <trkpt lat="42.462830" lon="1.489321">
        <ele>892.16504</ele>
        <time>2021-07-02T11:42:34Z</time>
      </trkpt>
      <trkpt lat="42.462715" lon="1.489327">
        <ele>891.36548</ele>
        <time>2021-07-02T11:42:35Z</time>
      </trkpt>
      <trkpt lat="42.462608" lon="1.489334">
        <ele>891.04077</ele>
        <time>2021-07-02T11:42:36Z</time>
      </trkpt>
      <trkpt lat="42.462498" lon="1.489347">
        <ele>891.58350</ele>
        <time>2021-07-02T11:42:37Z</time>
      </trkpt>
      <trkpt lat="42.462387" lon="1.489360">
        <ele>892.16382</ele>
        <time>2021-07-02T11:42:38Z</time>
      </trkpt>
      <trkpt lat="42.462284" lon="1.489372">
        <ele>891.69836</ele>
        <time>2021-07-02T11:42:39Z</time>
      </trkpt>
      <trkpt lat="42.462177" lon="1.489402">
        <ele>891.91846</ele>
        <time>2021-07-02T11:42:40Z</time>
      </trkpt>
      <trkpt lat="42.462078" lon="1.489429">
        <ele>892.17139</ele>
        <time>2021-07-02T11:42:41Z</time>
      </trkpt>
      <trkpt lat="42.461998" lon="1.489452">
        <ele>891.94312</ele>
        <time>2021-07-02T11:42:42Z</time>
      </trkpt>
      <trkpt lat="42.461922" lon="1.489473">
        <ele>892.86169</ele>
        <time>2021-07-02T11:42:43Z</time>
      </trkpt>
      <trkpt lat="42.461842" lon="1.489495">
        <ele>892.93555</ele>
        <time>2021-07-02T11:42:44Z</time>
      </trkpt>
      <trkpt lat="42.461754" lon="1.489519">
        <ele>890.85522</ele>
        <time>2021-07-02T11:42:45Z</time>
      </trkpt>
      <trkpt lat="42.461662" lon="1.489539">
        <ele>890.83020</ele>
        <time>2021-07-02T11:42:46Z</time>
      </trkpt>
      <trkpt lat="42.461582" lon="1.489557">
        <ele>890.75977</ele>
        <time>2021-07-02T11:42:47Z</time>
      </trkpt>
      <trkpt lat="42.461487" lon="1.489578">
        <ele>891.84558</ele>
        <time>2021-07-02T11:42:48Z</time>
      </trkpt>
      <trkpt lat="42.461391" lon="1.489600">
        <ele>891.71423</ele>
        <time>2021-07-02T11:42:49Z</time>
      </trkpt>
      <trkpt lat="42.461296" lon="1.489625">
        <ele>891.97583</ele>
        <time>2021-07-02T11:42:50Z</time>
      </trkpt>
      <trkpt lat="42.461189" lon="1.489592">
        <ele>892.22754</ele>
        <time>2021-07-02T11:42:51Z</time>
      </trkpt>
      <trkpt lat="42.461094" lon="1.489642">
        <ele>892.23096</ele>
        <time>2021-07-02T11:42:52Z</time>
      </trkpt>
      <trkpt lat="42.461037" lon="1.489775">
        <ele>892.37292</ele>
        <time>2021-07-02T11:42:53Z</time>
      </trkpt>
      <trkpt lat="42.461033" lon="1.489788">
        <ele>892.52490</ele>
        <time>2021-07-02T11:42:54Z</time>
      </trkpt>
      <trkpt lat="42.461029" lon="1.489789">
        <ele>891.81335</ele>
        <time>2021-07-02T11:42:55Z</time>
      </trkpt>
      <trkpt lat="42.460678" lon="1.489654">
        <ele>890.92407</ele>
        <time>2021-07-02T11:42:56Z</time>
      </trkpt>
      <trkpt lat="42.460529" lon="1.489557">
        <ele>890.55237</ele>
        <time>2021-07-02T11:42:57Z</time>
      </trkpt>
      <trkpt lat="42.460426" lon="1.489488">
        <ele>889.82471</ele>
        <time>2021-07-02T11:42:58Z</time>
      </trkpt>
      <trkpt lat="42.460320" lon="1.489419">
        <ele>889.32568</ele>
        <time>2021-07-02T11:42:59Z</time>
      </trkpt>
      <trkpt lat="42.460232" lon="1.489360">
        <ele>889.97729</ele>
        <time>2021-07-02T11:43:00Z</time>
      </trkpt>
      <trkpt lat="42.460125" lon="1.489291">
        <ele>889.10156</ele>
        <time>2021-07-02T11:43:01Z</time>
      </trkpt>
      <trkpt lat="42.460018" lon="1.489222">
        <ele>889.36841</ele>
        <time>2021-07-02T11:43:02Z</time>
      </trkpt>
      <trkpt lat="42.460018" lon="1.489222">
        <ele>889.36426</ele>
        <time>2021-07-02T11:43:03Z</time>
      </trkpt>
      <trkpt lat="42.459915" lon="1.489154">
        <ele>889.77612</ele>
        <time>2021-07-02T11:43:04Z</time>
      </trkpt>
      <trkpt lat="42.459808" lon="1.489084">
        <ele>889.44409</ele>
        <time>2021-07-02T11:43:05Z</time>
      </trkpt>
      <trkpt lat="42.459694" lon="1.489010">
        <ele>889.19922</ele>
        <time>2021-07-02T11:43:06Z</time>
      </trkpt>
      <trkpt lat="42.459591" lon="1.488940">
        <ele>888.72900</ele>
        <time>2021-07-02T11:43:07Z</time>
      </trkpt>
      <trkpt lat="42.459484" lon="1.488855">
        <ele>889.14404</ele>
        <time>2021-07-02T11:43:08Z</time>
      </trkpt>
      <trkpt lat="42.459267" lon="1.488685">
        <ele>888.84253</ele>
        <time>2021-07-02T11:43:09Z</time>
      </trkpt>
      <trkpt lat="42.459267" lon="1.488685">
        <ele>895.00031</ele>
        <time>2021-07-02T11:43:10Z</time>
      </trkpt>
      <trkpt lat="42.459164" lon="1.488602">
        <ele>892.80225</ele>
        <time>2021-07-02T11:43:11Z</time>
      </trkpt>
      <trkpt lat="42.459061" lon="1.488521">
        <ele>891.90405</ele>
        <time>2021-07-02T11:43:12Z</time>
      </trkpt>
      <trkpt lat="42.458973" lon="1.488452">
        <ele>892.09839</ele>
        <time>2021-07-02T11:43:13Z</time>
      </trkpt>
      <trkpt lat="42.458908" lon="1.488400">
        <ele>891.84058</ele>
        <time>2021-07-02T11:43:14Z</time>
      </trkpt>
      <trkpt lat="42.458839" lon="1.488347">
        <ele>892.06470</ele>
        <time>2021-07-02T11:43:15Z</time>
      </trkpt>
      <trkpt lat="42.458771" lon="1.488293">
        <ele>892.60730</ele>
        <time>2021-07-02T11:43:16Z</time>
      </trkpt>
      <trkpt lat="42.458714" lon="1.488245">
        <ele>893.17505</ele>
        <time>2021-07-02T11:43:17Z</time>
      </trkpt>
      <trkpt lat="42.458660" lon="1.488203">
        <ele>893.08630</ele>
        <time>2021-07-02T11:43:18Z</time>
      </trkpt>
      <trkpt lat="42.458614" lon="1.488167">
        <ele>893.68433</ele>
        <time>2021-07-02T11:43:19Z</time>
      </trkpt>
      <trkpt lat="42.458599" lon="1.488157">
        <ele>894.09473</ele>
        <time>2021-07-02T11:43:20Z</time>
      </trkpt>
      <trkpt lat="42.458595" lon="1.488154">
        <ele>894.59705</ele>
        <time>2021-07-02T11:43:21Z</time>
      </trkpt>
      <trkpt lat="42.458572" lon="1.488136">
        <ele>894.26465</ele>
        <time>2021-07-02T11:43:22Z</time>
      </trkpt>
      <trkpt lat="42.458588" lon="1.488065">
        <ele>894.45215</ele>
        <time>2021-07-02T11:43:23Z</time>
      </trkpt>
      <trkpt lat="42.458588" lon="1.488049">
        <ele>894.12732</ele>
        <time>2021-07-02T11:43:24Z</time>
      </trkpt>
      <trkpt lat="42.458588" lon="1.488049">
        <ele>894.54614</ele>
        <time>2021-07-02T11:43:25Z</time>
      </trkpt>
      <trkpt lat="42.458588" lon="1.488049">
        <ele>893.71887</ele>
        <time>2021-07-02T11:43:26Z</time>
      </trkpt>
      <trkpt lat="42.458401" lon="1.487987">
        <ele>894.77319</ele>
        <time>2021-07-02T11:43:27Z</time>
      </trkpt>
      <trkpt lat="42.458401" lon="1.487986">
        <ele>895.09521</ele>
        <time>2021-07-02T11:43:28Z</time>
      </trkpt>
      <trkpt lat="42.458221" lon="1.487804">
        <ele>895.78442</ele>
        <time>2021-07-02T11:43:29Z</time>
      </trkpt>
      <trkpt lat="42.458153" lon="1.487733">
        <ele>896.00391</ele>
        <time>2021-07-02T11:43:30Z</time>
      </trkpt>
      <trkpt lat="42.458141" lon="1.487720">
        <ele>895.38013</ele>
        <time>2021-07-02T11:43:31Z</time>
      </trkpt>
      <trkpt lat="42.458141" lon="1.487720">
        <ele>895.32434</ele>
        <time>2021-07-02T11:43:32Z</time>
      </trkpt>
      <trkpt lat="42.458126" lon="1.487705">
        <ele>895.35791</ele>
        <time>2021-07-02T11:43:33Z</time>
      </trkpt>
      <trkpt lat="42.458111" lon="1.487687">
        <ele>895.46936</ele>
        <time>2021-07-02T11:43:34Z</time>
      </trkpt>
      <trkpt lat="42.458107" lon="1.487685">
        <ele>895.49097</ele>
        <time>2021-07-02T11:43:35Z</time>
      </trkpt>
      <trkpt lat="42.458107" lon="1.487685">
        <ele>896.86157</ele>
        <time>2021-07-02T11:43:36Z</time>
      </trkpt>
      <trkpt lat="42.458107" lon="1.487685">
        <ele>894.16040</ele>
        <time>2021-07-02T11:43:37Z</time>
      </trkpt>
      <trkpt lat="42.458107" lon="1.487685">
        <ele>894.47070</ele>
        <time>2021-07-02T11:43:38Z</time>
      </trkpt>
      <trkpt lat="42.458107" lon="1.487685">
        <ele>894.78064</ele>
        <time>2021-07-02T11:43:39Z</time>
      </trkpt>
      <trkpt lat="42.458107" lon="1.487685">
        <ele>893.95605</ele>
        <time>2021-07-02T11:43:40Z</time>
      </trkpt>
      <trkpt lat="42.458107" lon="1.487685">
        <ele>894.26324</ele>
        <time>2021-07-02T11:43:41Z</time>
      </trkpt>
      <trkpt lat="42.458107" lon="1.487685">
        <ele>894.19580</ele>
        <time>2021-07-02T11:43:42Z</time>
      </trkpt>
      <trkpt lat="42.458107" lon="1.487685">
        <ele>894.17755</ele>
        <time>2021-07-02T11:43:43Z</time>
      </trkpt>
      <trkpt lat="42.458107" lon="1.487685">
        <ele>893.77979</ele>
        <time>2021-07-02T11:43:44Z</time>
      </trkpt>
      <trkpt lat="42.458107" lon="1.487685">
        <ele>894.34015</ele>
        <time>2021-07-02T11:43:45Z</time>
      </trkpt>
      <trkpt lat="42.458107" lon="1.487685">
        <ele>893.90137</ele>
        <time>2021-07-02T11:43:46Z</time>
      </trkpt>
      <trkpt lat="42.458107" lon="1.487685">
        <ele>893.61719</ele>
        <time>2021-07-02T11:43:47Z</time>
      </trkpt>
      <trkpt lat="42.458107" lon="1.487685">
        <ele>892.20972</ele>
        <time>2021-07-02T11:43:48Z</time>
      </trkpt>
      <trkpt lat="42.458107" lon="1.487685">
        <ele>891.20959</ele>
        <time>2021-07-02T11:43:49Z</time>
      </trkpt>
      <trkpt lat="42.458103" lon="1.487681">
        <ele>891.08679</ele>
        <time>2021-07-02T11:43:50Z</time>
      </trkpt>
      <trkpt lat="42.458073" lon="1.487651">
        <ele>890.45728</ele>
        <time>2021-07-02T11:43:51Z</time>
      </trkpt>
      <trkpt lat="42.458035" lon="1.487591">
        <ele>888.86157</ele>
        <time>2021-07-02T11:43:52Z</time>
      </trkpt>
      <trkpt lat="42.458000" lon="1.487531">
        <ele>888.83008</ele>
        <time>2021-07-02T11:43:53Z</time>
      </trkpt>
      <trkpt lat="42.457962" lon="1.487487">
        <ele>888.29688</ele>
        <time>2021-07-02T11:43:54Z</time>
      </trkpt>
      <trkpt lat="42.457928" lon="1.487453">
        <ele>888.27075</ele>
        <time>2021-07-02T11:43:55Z</time>
      </trkpt>
      <trkpt lat="42.457886" lon="1.487412">
        <ele>888.77246</ele>
        <time>2021-07-02T11:43:56Z</time>
      </trkpt>
      <trkpt lat="42.457844" lon="1.487367">
        <ele>887.99414</ele>
        <time>2021-07-02T11:43:57Z</time>
      </trkpt>
      <trkpt lat="42.457771" lon="1.487293">
        <ele>887.90674</ele>
        <time>2021-07-02T11:43:58Z</time>
      </trkpt>
      <trkpt lat="42.457672" lon="1.487197">
        <ele>888.30054</ele>
        <time>2021-07-02T11:43:59Z</time>
      </trkpt>
      <trkpt lat="42.457573" lon="1.487113">
        <ele>888.20532</ele>
        <time>2021-07-02T11:44:00Z</time>
      </trkpt>
      <trkpt lat="42.457474" lon="1.487029">
        <ele>888.74524</ele>
        <time>2021-07-02T11:44:01Z</time>
      </trkpt>
      <trkpt lat="42.457375" lon="1.486943">
        <ele>889.44507</ele>
        <time>2021-07-02T11:44:02Z</time>
      </trkpt>
      <trkpt lat="42.457268" lon="1.486864">
        <ele>888.94727</ele>
        <time>2021-07-02T11:44:03Z</time>
      </trkpt>
      <trkpt lat="42.457153" lon="1.486794">
        <ele>888.14661</ele>
        <time>2021-07-02T11:44:04Z</time>
      </trkpt>
      <trkpt lat="42.457047" lon="1.486748">
        <ele>887.76965</ele>
        <time>2021-07-02T11:44:05Z</time>
      </trkpt>
      <trkpt lat="42.456921" lon="1.486709">
        <ele>888.12622</ele>
        <time>2021-07-02T11:44:06Z</time>
      </trkpt>
      <trkpt lat="42.456814" lon="1.486676">
        <ele>888.25146</ele>
        <time>2021-07-02T11:44:07Z</time>
      </trkpt>
      <trkpt lat="42.456707" lon="1.486644">
        <ele>888.48218</ele>
        <time>2021-07-02T11:44:08Z</time>
      </trkpt>
      <trkpt lat="42.456600" lon="1.486612">
        <ele>888.61096</ele>
        <time>2021-07-02T11:44:09Z</time>
      </trkpt>
      <trkpt lat="42.456478" lon="1.486581">
        <ele>888.67908</ele>
        <time>2021-07-02T11:44:10Z</time>
      </trkpt>
      <trkpt lat="42.456345" lon="1.486548">
        <ele>889.02625</ele>
        <time>2021-07-02T11:44:11Z</time>
      </trkpt>
      <trkpt lat="42.456223" lon="1.486518">
        <ele>887.84888</ele>
        <time>2021-07-02T11:44:12Z</time>
      </trkpt>
      <trkpt lat="42.456078" lon="1.486476">
        <ele>887.49194</ele>
        <time>2021-07-02T11:44:13Z</time>
      </trkpt>
      <trkpt lat="42.455971" lon="1.486443">
        <ele>887.17334</ele>
        <time>2021-07-02T11:44:14Z</time>
      </trkpt>
      <trkpt lat="42.455845" lon="1.486407">
        <ele>888.02698</ele>
        <time>2021-07-02T11:44:15Z</time>
      </trkpt>
      <trkpt lat="42.455723" lon="1.486383">
        <ele>887.56201</ele>
        <time>2021-07-02T11:44:16Z</time>
      </trkpt>
      <trkpt lat="42.455708" lon="1.486385">
        <ele>887.59204</ele>
        <time>2021-07-02T11:44:17Z</time>
      </trkpt>
      <trkpt lat="42.455463" lon="1.486444">
        <ele>888.30322</ele>
        <time>2021-07-02T11:44:18Z</time>
      </trkpt>
      <trkpt lat="42.455463" lon="1.486444">
        <ele>888.92041</ele>
        <time>2021-07-02T11:44:19Z</time>
      </trkpt>
      <trkpt lat="42.455341" lon="1.486495">
        <ele>888.90649</ele>
        <time>2021-07-02T11:44:20Z</time>
      </trkpt>
      <trkpt lat="42.455196" lon="1.486553">
        <ele>888.22217</ele>
        <time>2021-07-02T11:44:21Z</time>
      </trkpt>
      <trkpt lat="42.455101" lon="1.486653">
        <ele>888.10291</ele>
        <time>2021-07-02T11:44:22Z</time>
      </trkpt>
      <trkpt lat="42.454998" lon="1.486701">
        <ele>887.69189</ele>
        <time>2021-07-02T11:44:23Z</time>
      </trkpt>
      <trkpt lat="42.454910" lon="1.486742">
        <ele>887.71924</ele>
        <time>2021-07-02T11:44:24Z</time>
      </trkpt>
      <trkpt lat="42.454853" lon="1.486770">
        <ele>887.46924</ele>
        <time>2021-07-02T11:44:25Z</time>
      </trkpt>
      <trkpt lat="42.454803" lon="1.486793">
        <ele>889.56256</ele>
        <time>2021-07-02T11:44:26Z</time>
      </trkpt>
      <trkpt lat="42.454720" lon="1.486833">
        <ele>889.54785</ele>
        <time>2021-07-02T11:44:27Z</time>
      </trkpt>
      <trkpt lat="42.454617" lon="1.486869">
        <ele>889.58472</ele>
        <time>2021-07-02T11:44:28Z</time>
      </trkpt>
      <trkpt lat="42.454514" lon="1.486904">
        <ele>890.76489</ele>
        <time>2021-07-02T11:44:29Z</time>
      </trkpt>
      <trkpt lat="42.454411" lon="1.486935">
        <ele>891.79761</ele>
        <time>2021-07-02T11:44:30Z</time>
      </trkpt>
      <trkpt lat="42.454315" lon="1.486959">
        <ele>891.86475</ele>
        <time>2021-07-02T11:44:31Z</time>
      </trkpt>
      <trkpt lat="42.454239" lon="1.486979">
        <ele>891.76270</ele>
        <time>2021-07-02T11:44:32Z</time>
      </trkpt>
      <trkpt lat="42.454155" lon="1.487000">
        <ele>891.31763</ele>
        <time>2021-07-02T11:44:33Z</time>
      </trkpt>
      <trkpt lat="42.454060" lon="1.487025">
        <ele>891.13696</ele>
        <time>2021-07-02T11:44:34Z</time>
      </trkpt>
      <trkpt lat="42.453960" lon="1.487051">
        <ele>890.59644</ele>
        <time>2021-07-02T11:44:35Z</time>
      </trkpt>
      <trkpt lat="42.453850" lon="1.487079">
        <ele>890.19629</ele>
        <time>2021-07-02T11:44:36Z</time>
      </trkpt>
      <trkpt lat="42.453747" lon="1.487106">
        <ele>890.77319</ele>
        <time>2021-07-02T11:44:37Z</time>
      </trkpt>
      <trkpt lat="42.453636" lon="1.487124">
        <ele>891.96130</ele>
        <time>2021-07-02T11:44:38Z</time>
      </trkpt>
      <trkpt lat="42.453510" lon="1.487142">
        <ele>890.90527</ele>
        <time>2021-07-02T11:44:39Z</time>
      </trkpt>
      <trkpt lat="42.453373" lon="1.487142">
        <ele>890.51440</ele>
        <time>2021-07-02T11:44:40Z</time>
      </trkpt>
      <trkpt lat="42.453255" lon="1.487133">
        <ele>892.63965</ele>
        <time>2021-07-02T11:44:41Z</time>
      </trkpt>
      <trkpt lat="42.453148" lon="1.487106">
        <ele>891.81494</ele>
        <time>2021-07-02T11:44:42Z</time>
      </trkpt>
      <trkpt lat="42.453022" lon="1.487075">
        <ele>893.01489</ele>
        <time>2021-07-02T11:44:43Z</time>
      </trkpt>
      <trkpt lat="42.452908" lon="1.487043">
        <ele>892.89014</ele>
        <time>2021-07-02T11:44:44Z</time>
      </trkpt>
      <trkpt lat="42.452824" lon="1.487012">
        <ele>892.14771</ele>
        <time>2021-07-02T11:44:45Z</time>
      </trkpt>
      <trkpt lat="42.452744" lon="1.486982">
        <ele>891.66479</ele>
        <time>2021-07-02T11:44:46Z</time>
      </trkpt>
      <trkpt lat="42.452724" lon="1.486897">
        <ele>891.28711</ele>
        <time>2021-07-02T11:44:47Z</time>
      </trkpt>
      <trkpt lat="42.452621" lon="1.486770">
        <ele>891.14636</ele>
        <time>2021-07-02T11:44:48Z</time>
      </trkpt>
      <trkpt lat="42.452606" lon="1.486769">
        <ele>889.87891</ele>
        <time>2021-07-02T11:44:49Z</time>
      </trkpt>
      <trkpt lat="42.452503" lon="1.486837">
        <ele>890.07678</ele>
        <time>2021-07-02T11:44:50Z</time>
      </trkpt>
      <trkpt lat="42.452503" lon="1.486837">
        <ele>890.49927</ele>
        <time>2021-07-02T11:44:51Z</time>
      </trkpt>
      <trkpt lat="42.452484" lon="1.486873">
        <ele>889.53369</ele>
        <time>2021-07-02T11:44:52Z</time>
      </trkpt>
      <trkpt lat="42.452484" lon="1.486874">
        <ele>888.56738</ele>
        <time>2021-07-02T11:44:53Z</time>
      </trkpt>
      <trkpt lat="42.452408" lon="1.486842">
        <ele>887.80579</ele>
        <time>2021-07-02T11:44:54Z</time>
      </trkpt>
      <trkpt lat="42.452057" lon="1.486693">
        <ele>886.91223</ele>
        <time>2021-07-02T11:44:55Z</time>
      </trkpt>
      <trkpt lat="42.451942" lon="1.486644">
        <ele>885.67847</ele>
        <time>2021-07-02T11:44:56Z</time>
      </trkpt>
      <trkpt lat="42.451824" lon="1.486593">
        <ele>885.69189</ele>
        <time>2021-07-02T11:44:57Z</time>
      </trkpt>
      <trkpt lat="42.451721" lon="1.486550">
        <ele>885.61609</ele>
        <time>2021-07-02T11:44:58Z</time>
      </trkpt>
      <trkpt lat="42.451614" lon="1.486505">
        <ele>884.82422</ele>
        <time>2021-07-02T11:44:59Z</time>
      </trkpt>
      <trkpt lat="42.451511" lon="1.486462">
        <ele>884.63916</ele>
        <time>2021-07-02T11:45:00Z</time>
      </trkpt>
      <trkpt lat="42.451389" lon="1.486408">
        <ele>883.89966</ele>
        <time>2021-07-02T11:45:01Z</time>
      </trkpt>
      <trkpt lat="42.451260" lon="1.486349">
        <ele>883.78882</ele>
        <time>2021-07-02T11:45:02Z</time>
      </trkpt>
      <trkpt lat="42.451141" lon="1.486283">
        <ele>882.73535</ele>
        <time>2021-07-02T11:45:03Z</time>
      </trkpt>
      <trkpt lat="42.451027" lon="1.486205">
        <ele>883.19702</ele>
        <time>2021-07-02T11:45:04Z</time>
      </trkpt>
      <trkpt lat="42.450905" lon="1.486098">
        <ele>883.83984</ele>
        <time>2021-07-02T11:45:05Z</time>
      </trkpt>
      <trkpt lat="42.450794" lon="1.485973">
        <ele>883.50488</ele>
        <time>2021-07-02T11:45:06Z</time>
      </trkpt>
      <trkpt lat="42.450699" lon="1.485847">
        <ele>883.36108</ele>
        <time>2021-07-02T11:45:07Z</time>
      </trkpt>
      <trkpt lat="42.450607" lon="1.485725">
        <ele>883.35193</ele>
        <time>2021-07-02T11:45:08Z</time>
      </trkpt>
      <trkpt lat="42.450520" lon="1.485607">
        <ele>884.41919</ele>
        <time>2021-07-02T11:45:09Z</time>
      </trkpt>
      <trkpt lat="42.450439" lon="1.485498">
        <ele>882.80688</ele>
        <time>2021-07-02T11:45:10Z</time>
      </trkpt>
      <trkpt lat="42.450356" lon="1.485381">
        <ele>882.28528</ele>
        <time>2021-07-02T11:45:11Z</time>
      </trkpt>
      <trkpt lat="42.450287" lon="1.485281">
        <ele>881.98120</ele>
        <time>2021-07-02T11:45:12Z</time>
      </trkpt>
      <trkpt lat="42.450211" lon="1.485173">
        <ele>881.26050</ele>
        <time>2021-07-02T11:45:13Z</time>
      </trkpt>
      <trkpt lat="42.450127" lon="1.485054">
        <ele>880.52942</ele>
        <time>2021-07-02T11:45:14Z</time>
      </trkpt>
      <trkpt lat="42.450047" lon="1.484939">
        <ele>878.83496</ele>
        <time>2021-07-02T11:45:15Z</time>
      </trkpt>
      <trkpt lat="42.449963" lon="1.484820">
        <ele>878.02124</ele>
        <time>2021-07-02T11:45:16Z</time>
      </trkpt>
      <trkpt lat="42.449875" lon="1.484698">
        <ele>877.92700</ele>
        <time>2021-07-02T11:45:17Z</time>
      </trkpt>
      <trkpt lat="42.449799" lon="1.484571">
        <ele>877.25537</ele>
        <time>2021-07-02T11:45:18Z</time>
      </trkpt>
      <trkpt lat="42.449726" lon="1.484446">
        <ele>874.81421</ele>
        <time>2021-07-02T11:45:19Z</time>
      </trkpt>
      <trkpt lat="42.449654" lon="1.484322">
        <ele>874.00171</ele>
        <time>2021-07-02T11:45:20Z</time>
      </trkpt>
      <trkpt lat="42.449581" lon="1.484197">
        <ele>874.14502</ele>
        <time>2021-07-02T11:45:21Z</time>
      </trkpt>
      <trkpt lat="42.449501" lon="1.484058">
        <ele>874.18628</ele>
        <time>2021-07-02T11:45:22Z</time>
      </trkpt>
      <trkpt lat="42.449425" lon="1.483918">
        <ele>873.37463</ele>
        <time>2021-07-02T11:45:23Z</time>
      </trkpt>
      <trkpt lat="42.449356" lon="1.483784">
        <ele>872.50049</ele>
        <time>2021-07-02T11:45:24Z</time>
      </trkpt>
      <trkpt lat="42.449295" lon="1.483631">
        <ele>871.39966</ele>
        <time>2021-07-02T11:45:25Z</time>
      </trkpt>
      <trkpt lat="42.449226" lon="1.483490">
        <ele>870.93433</ele>
        <time>2021-07-02T11:45:26Z</time>
      </trkpt>
      <trkpt lat="42.449226" lon="1.483490">
        <ele>869.79565</ele>
        <time>2021-07-02T11:45:27Z</time>
      </trkpt>
      <trkpt lat="42.449146" lon="1.483361">
        <ele>870.03149</ele>
        <time>2021-07-02T11:45:28Z</time>
      </trkpt>
      <trkpt lat="42.449055" lon="1.483229">
        <ele>869.80701</ele>
        <time>2021-07-02T11:45:29Z</time>
      </trkpt>
      <trkpt lat="42.448967" lon="1.483101">
        <ele>868.46680</ele>
        <time>2021-07-02T11:45:30Z</time>
      </trkpt>
      <trkpt lat="42.448879" lon="1.482975">
        <ele>867.83984</ele>
        <time>2021-07-02T11:45:31Z</time>
      </trkpt>
      <trkpt lat="42.448799" lon="1.482860">
        <ele>867.70386</ele>
        <time>2021-07-02T11:45:32Z</time>
      </trkpt>
      <trkpt lat="42.448715" lon="1.482755">
        <ele>867.45117</ele>
        <time>2021-07-02T11:45:33Z</time>
      </trkpt>
      <trkpt lat="42.448620" lon="1.482644">
        <ele>867.70947</ele>
        <time>2021-07-02T11:45:34Z</time>
      </trkpt>
      <trkpt lat="42.448528" lon="1.482538">
        <ele>867.67627</ele>
        <time>2021-07-02T11:45:35Z</time>
      </trkpt>
      <trkpt lat="42.448429" lon="1.482443">
        <ele>867.72119</ele>
        <time>2021-07-02T11:45:36Z</time>
      </trkpt>
      <trkpt lat="42.448322" lon="1.482362">
        <ele>867.76782</ele>
        <time>2021-07-02T11:45:37Z</time>
      </trkpt>
      <trkpt lat="42.448219" lon="1.482284">
        <ele>867.56152</ele>
        <time>2021-07-02T11:45:38Z</time>
      </trkpt>
      <trkpt lat="42.448109" lon="1.482230">
        <ele>867.74902</ele>
        <time>2021-07-02T11:45:39Z</time>
      </trkpt>
      <trkpt lat="42.448002" lon="1.482185">
        <ele>867.81348</ele>
        <time>2021-07-02T11:45:40Z</time>
      </trkpt>
      <trkpt lat="42.447899" lon="1.482143">
        <ele>866.85510</ele>
        <time>2021-07-02T11:45:41Z</time>
      </trkpt>
      <trkpt lat="42.447781" lon="1.482112">
        <ele>867.16382</ele>
        <time>2021-07-02T11:45:42Z</time>
      </trkpt>
      <trkpt lat="42.447643" lon="1.482088">
        <ele>867.46216</ele>
        <time>2021-07-02T11:45:43Z</time>
      </trkpt>
      <trkpt lat="42.447521" lon="1.482082">
        <ele>867.04370</ele>
        <time>2021-07-02T11:45:44Z</time>
      </trkpt>
      <trkpt lat="42.447399" lon="1.482077">
        <ele>866.70984</ele>
        <time>2021-07-02T11:45:45Z</time>
      </trkpt>
      <trkpt lat="42.447273" lon="1.482076">
        <ele>866.62854</ele>
        <time>2021-07-02T11:45:46Z</time>
      </trkpt>
      <trkpt lat="42.447151" lon="1.482076">
        <ele>865.59937</ele>
        <time>2021-07-02T11:45:47Z</time>
      </trkpt>
      <trkpt lat="42.447029" lon="1.482077">
        <ele>865.75513</ele>
        <time>2021-07-02T11:45:48Z</time>
      </trkpt>
      <trkpt lat="42.446896" lon="1.482077">
        <ele>865.70337</ele>
        <time>2021-07-02T11:45:49Z</time>
      </trkpt>
      <trkpt lat="42.446770" lon="1.482078">
        <ele>864.87378</ele>
        <time>2021-07-02T11:45:50Z</time>
      </trkpt>
      <trkpt lat="42.446648" lon="1.482079">
        <ele>865.54309</ele>
        <time>2021-07-02T11:45:51Z</time>
      </trkpt>
      <trkpt lat="42.446514" lon="1.482079">
        <ele>865.24023</ele>
        <time>2021-07-02T11:45:52Z</time>
      </trkpt>
      <trkpt lat="42.446381" lon="1.482080">
        <ele>865.02454</ele>
        <time>2021-07-02T11:45:53Z</time>
      </trkpt>
      <trkpt lat="42.446243" lon="1.482080">
        <ele>864.56458</ele>
        <time>2021-07-02T11:45:54Z</time>
      </trkpt>
      <trkpt lat="42.446114" lon="1.482081">
        <ele>864.91089</ele>
        <time>2021-07-02T11:45:55Z</time>
      </trkpt>
      <trkpt lat="42.445984" lon="1.482067">
        <ele>864.06885</ele>
        <time>2021-07-02T11:45:56Z</time>
      </trkpt>
      <trkpt lat="42.445843" lon="1.482043">
        <ele>863.90930</ele>
        <time>2021-07-02T11:45:57Z</time>
      </trkpt>
      <trkpt lat="42.445690" lon="1.481995">
        <ele>863.68262</ele>
        <time>2021-07-02T11:45:58Z</time>
      </trkpt>
      <trkpt lat="42.445534" lon="1.481945">
        <ele>863.20142</ele>
        <time>2021-07-02T11:45:59Z</time>
      </trkpt>
      <trkpt lat="42.445389" lon="1.481900">
        <ele>861.51514</ele>
        <time>2021-07-02T11:46:00Z</time>
      </trkpt>
      <trkpt lat="42.445232" lon="1.481837">
        <ele>860.35583</ele>
        <time>2021-07-02T11:46:01Z</time>
      </trkpt>
      <trkpt lat="42.445065" lon="1.481761">
        <ele>860.86792</ele>
        <time>2021-07-02T11:46:02Z</time>
      </trkpt>
      <trkpt lat="42.444893" lon="1.481654">
        <ele>860.79517</ele>
        <time>2021-07-02T11:46:03Z</time>
      </trkpt>
      <trkpt lat="42.444893" lon="1.481654">
        <ele>859.59131</ele>
        <time>2021-07-02T11:46:04Z</time>
      </trkpt>
      <trkpt lat="42.444725" lon="1.481543">
        <ele>860.34204</ele>
        <time>2021-07-02T11:46:05Z</time>
      </trkpt>
      <trkpt lat="42.444572" lon="1.481431">
        <ele>860.46021</ele>
        <time>2021-07-02T11:46:06Z</time>
      </trkpt>
      <trkpt lat="42.444416" lon="1.481314">
        <ele>860.38232</ele>
        <time>2021-07-02T11:46:07Z</time>
      </trkpt>
      <trkpt lat="42.444252" lon="1.481161">
        <ele>858.65674</ele>
        <time>2021-07-02T11:46:08Z</time>
      </trkpt>
      <trkpt lat="42.444103" lon="1.481002">
        <ele>858.73804</ele>
        <time>2021-07-02T11:46:09Z</time>
      </trkpt>
      <trkpt lat="42.443970" lon="1.480842">
        <ele>858.79358</ele>
        <time>2021-07-02T11:46:10Z</time>
      </trkpt>
      <trkpt lat="42.443829" lon="1.480674">
        <ele>858.73584</ele>
        <time>2021-07-02T11:46:11Z</time>
      </trkpt>
      <trkpt lat="42.443687" lon="1.480499">
        <ele>859.11865</ele>
        <time>2021-07-02T11:46:12Z</time>
      </trkpt>
      <trkpt lat="42.443542" lon="1.480308">
        <ele>859.52100</ele>
        <time>2021-07-02T11:46:13Z</time>
      </trkpt>
      <trkpt lat="42.443394" lon="1.480134">
        <ele>859.19275</ele>
        <time>2021-07-02T11:46:14Z</time>
      </trkpt>
      <trkpt lat="42.443226" lon="1.479965">
        <ele>859.85962</ele>
        <time>2021-07-02T11:46:15Z</time>
      </trkpt>
      <trkpt lat="42.443047" lon="1.479824">
        <ele>860.05200</ele>
        <time>2021-07-02T11:46:16Z</time>
      </trkpt>
      <trkpt lat="42.442860" lon="1.479681">
        <ele>860.84668</ele>
        <time>2021-07-02T11:46:17Z</time>
      </trkpt>
      <trkpt lat="42.442661" lon="1.479522">
        <ele>861.12073</ele>
        <time>2021-07-02T11:46:18Z</time>
      </trkpt>
      <trkpt lat="42.442478" lon="1.479366">
        <ele>861.93262</ele>
        <time>2021-07-02T11:46:19Z</time>
      </trkpt>
      <trkpt lat="42.442333" lon="1.479195">
        <ele>862.47046</ele>
        <time>2021-07-02T11:46:20Z</time>
      </trkpt>
      <trkpt lat="42.442204" lon="1.479004">
        <ele>863.31091</ele>
        <time>2021-07-02T11:46:21Z</time>
      </trkpt>
      <trkpt lat="42.442074" lon="1.478798">
        <ele>863.95935</ele>
        <time>2021-07-02T11:46:22Z</time>
      </trkpt>
      <trkpt lat="42.441944" lon="1.478597">
        <ele>863.76221</ele>
        <time>2021-07-02T11:46:23Z</time>
      </trkpt>
      <trkpt lat="42.441814" lon="1.478402">
        <ele>864.61548</ele>
        <time>2021-07-02T11:46:24Z</time>
      </trkpt>
      <trkpt lat="42.441696" lon="1.478234">
        <ele>865.51331</ele>
        <time>2021-07-02T11:46:25Z</time>
      </trkpt>
      <trkpt lat="42.441597" lon="1.478084">
        <ele>866.46777</ele>
        <time>2021-07-02T11:46:26Z</time>
      </trkpt>
      <trkpt lat="42.441471" lon="1.477937">
        <ele>866.09912</ele>
        <time>2021-07-02T11:46:27Z</time>
      </trkpt>
      <trkpt lat="42.441345" lon="1.477799">
        <ele>866.24683</ele>
        <time>2021-07-02T11:46:28Z</time>
      </trkpt>
      <trkpt lat="42.441212" lon="1.477685">
        <ele>866.03345</ele>
        <time>2021-07-02T11:46:29Z</time>
      </trkpt>
      <trkpt lat="42.441074" lon="1.477583">
        <ele>865.87585</ele>
        <time>2021-07-02T11:46:30Z</time>
      </trkpt>
      <trkpt lat="42.440926" lon="1.477488">
        <ele>865.87585</ele>
        <time>2021-07-02T11:46:31Z</time>
      </trkpt>
      <trkpt lat="42.440765" lon="1.477399">
        <ele>863.71545</ele>
        <time>2021-07-02T11:46:32Z</time>
      </trkpt>
      <trkpt lat="42.440613" lon="1.477316">
        <ele>863.21350</ele>
        <time>2021-07-02T11:46:33Z</time>
      </trkpt>
      <trkpt lat="42.440445" lon="1.477228">
        <ele>861.90454</ele>
        <time>2021-07-02T11:46:34Z</time>
      </trkpt>
      <trkpt lat="42.440445" lon="1.477228">
        <ele>861.12720</ele>
        <time>2021-07-02T11:46:35Z</time>
      </trkpt>
      <trkpt lat="42.440308" lon="1.477155">
        <ele>859.50806</ele>
        <time>2021-07-02T11:46:36Z</time>
      </trkpt>
      <trkpt lat="42.440132" lon="1.477062">
        <ele>857.51501</ele>
        <time>2021-07-02T11:46:37Z</time>
      </trkpt>
      <trkpt lat="42.439964" lon="1.476974">
        <ele>856.88623</ele>
        <time>2021-07-02T11:46:38Z</time>
      </trkpt>
      <trkpt lat="42.439816" lon="1.476894">
        <ele>856.57471</ele>
        <time>2021-07-02T11:46:39Z</time>
      </trkpt>
      <trkpt lat="42.439659" lon="1.476811">
        <ele>855.30029</ele>
        <time>2021-07-02T11:46:40Z</time>
      </trkpt>
      <trkpt lat="42.439507" lon="1.476734">
        <ele>854.03430</ele>
        <time>2021-07-02T11:46:41Z</time>
      </trkpt>
      <trkpt lat="42.439346" lon="1.476655">
        <ele>853.43164</ele>
        <time>2021-07-02T11:46:42Z</time>
      </trkpt>
      <trkpt lat="42.439190" lon="1.476584">
        <ele>853.03223</ele>
        <time>2021-07-02T11:46:43Z</time>
      </trkpt>
      <trkpt lat="42.439030" lon="1.476537">
        <ele>853.16101</ele>
        <time>2021-07-02T11:46:44Z</time>
      </trkpt>
      <trkpt lat="42.438896" lon="1.476510">
        <ele>852.60828</ele>
        <time>2021-07-02T11:46:45Z</time>
      </trkpt>
      <trkpt lat="42.438797" lon="1.476491">
        <ele>852.23438</ele>
        <time>2021-07-02T11:46:46Z</time>
      </trkpt>
      <trkpt lat="42.438686" lon="1.476471">
        <ele>851.72510</ele>
        <time>2021-07-02T11:46:47Z</time>
      </trkpt>
      <trkpt lat="42.438602" lon="1.476456">
        <ele>850.84460</ele>
        <time>2021-07-02T11:46:48Z</time>
      </trkpt>
      <trkpt lat="42.438522" lon="1.476414">
        <ele>850.55164</ele>
        <time>2021-07-02T11:46:49Z</time>
      </trkpt>
      <trkpt lat="42.438461" lon="1.476330">
        <ele>851.40015</ele>
        <time>2021-07-02T11:46:50Z</time>
      </trkpt>
      <trkpt lat="42.438374" lon="1.476285">
        <ele>851.04712</ele>
        <time>2021-07-02T11:46:51Z</time>
      </trkpt>
      <trkpt lat="42.438335" lon="1.476285">
        <ele>851.76880</ele>
        <time>2021-07-02T11:46:52Z</time>
      </trkpt>
      <trkpt lat="42.438194" lon="1.476368">
        <ele>851.82690</ele>
        <time>2021-07-02T11:46:53Z</time>
      </trkpt>
      <trkpt lat="42.438187" lon="1.476388">
        <ele>851.98950</ele>
        <time>2021-07-02T11:46:54Z</time>
      </trkpt>
      <trkpt lat="42.438183" lon="1.476388">
        <ele>851.08569</ele>
        <time>2021-07-02T11:46:55Z</time>
      </trkpt>
      <trkpt lat="42.437843" lon="1.476286">
        <ele>850.59314</ele>
        <time>2021-07-02T11:46:56Z</time>
      </trkpt>
      <trkpt lat="42.437744" lon="1.476244">
        <ele>850.42065</ele>
        <time>2021-07-02T11:46:57Z</time>
      </trkpt>
      <trkpt lat="42.437569" lon="1.476173">
        <ele>849.71631</ele>
        <time>2021-07-02T11:46:58Z</time>
      </trkpt>
      <trkpt lat="42.437458" lon="1.476117">
        <ele>849.48096</ele>
        <time>2021-07-02T11:46:59Z</time>
      </trkpt>
      <trkpt lat="42.437328" lon="1.476044">
        <ele>849.37073</ele>
        <time>2021-07-02T11:47:00Z</time>
      </trkpt>
      <trkpt lat="42.437218" lon="1.475982">
        <ele>848.94495</ele>
        <time>2021-07-02T11:47:01Z</time>
      </trkpt>
      <trkpt lat="42.437103" lon="1.475909">
        <ele>848.38391</ele>
        <time>2021-07-02T11:47:02Z</time>
      </trkpt>
      <trkpt lat="42.437031" lon="1.475853">
        <ele>848.88550</ele>
        <time>2021-07-02T11:47:03Z</time>
      </trkpt>
      <trkpt lat="42.437031" lon="1.475853">
        <ele>848.45483</ele>
        <time>2021-07-02T11:47:04Z</time>
      </trkpt>
      <trkpt lat="42.436939" lon="1.475772">
        <ele>848.39355</ele>
        <time>2021-07-02T11:47:05Z</time>
      </trkpt>
      <trkpt lat="42.436859" lon="1.475684">
        <ele>847.35144</ele>
        <time>2021-07-02T11:47:06Z</time>
      </trkpt>
      <trkpt lat="42.436787" lon="1.475583">
        <ele>847.88989</ele>
        <time>2021-07-02T11:47:07Z</time>
      </trkpt>
      <trkpt lat="42.436707" lon="1.475446">
        <ele>848.05750</ele>
        <time>2021-07-02T11:47:08Z</time>
      </trkpt>
      <trkpt lat="42.436646" lon="1.475296">
        <ele>848.52917</ele>
        <time>2021-07-02T11:47:09Z</time>
      </trkpt>
      <trkpt lat="42.436592" lon="1.475147">
        <ele>848.60889</ele>
        <time>2021-07-02T11:47:10Z</time>
      </trkpt>
      <trkpt lat="42.436562" lon="1.475045">
        <ele>848.56836</ele>
        <time>2021-07-02T11:47:11Z</time>
      </trkpt>
      <trkpt lat="42.436543" lon="1.474943">
        <ele>849.77136</ele>
        <time>2021-07-02T11:47:12Z</time>
      </trkpt>
      <trkpt lat="42.436523" lon="1.474836">
        <ele>849.99658</ele>
        <time>2021-07-02T11:47:13Z</time>
      </trkpt>
      <trkpt lat="42.436508" lon="1.474723">
        <ele>849.91699</ele>
        <time>2021-07-02T11:47:14Z</time>
      </trkpt>
      <trkpt lat="42.436504" lon="1.474645">
        <ele>851.56958</ele>
        <time>2021-07-02T11:47:15Z</time>
      </trkpt>
      <trkpt lat="42.436504" lon="1.474589">
        <ele>850.25671</ele>
        <time>2021-07-02T11:47:16Z</time>
      </trkpt>
      <trkpt lat="42.436501" lon="1.474549">
        <ele>851.24634</ele>
        <time>2021-07-02T11:47:17Z</time>
      </trkpt>
      <trkpt lat="42.436501" lon="1.474529">
        <ele>850.86865</ele>
        <time>2021-07-02T11:47:18Z</time>
      </trkpt>
      <trkpt lat="42.436497" lon="1.474510">
        <ele>851.10437</ele>
        <time>2021-07-02T11:47:19Z</time>
      </trkpt>
      <trkpt lat="42.436497" lon="1.474491">
        <ele>851.77979</ele>
        <time>2021-07-02T11:47:20Z</time>
      </trkpt>
      <trkpt lat="42.436520" lon="1.474456">
        <ele>853.28503</ele>
        <time>2021-07-02T11:47:21Z</time>
      </trkpt>
      <trkpt lat="42.436527" lon="1.474441">
        <ele>853.18677</ele>
        <time>2021-07-02T11:47:22Z</time>
      </trkpt>
      <trkpt lat="42.436527" lon="1.474441">
        <ele>854.02612</ele>
        <time>2021-07-02T11:47:23Z</time>
      </trkpt>
      <trkpt lat="42.436527" lon="1.474441">
        <ele>853.15356</ele>
        <time>2021-07-02T11:47:24Z</time>
      </trkpt>
      <trkpt lat="42.436527" lon="1.474440">
        <ele>853.42432</ele>
        <time>2021-07-02T11:47:25Z</time>
      </trkpt>
      <trkpt lat="42.436539" lon="1.474415">
        <ele>853.04309</ele>
        <time>2021-07-02T11:47:26Z</time>
      </trkpt>
      <trkpt lat="42.436543" lon="1.474407">
        <ele>852.44824</ele>
        <time>2021-07-02T11:47:27Z</time>
      </trkpt>
      <trkpt lat="42.436543" lon="1.474407">
        <ele>852.15503</ele>
        <time>2021-07-02T11:47:28Z</time>
      </trkpt>
      <trkpt lat="42.436543" lon="1.474407">
        <ele>853.69580</ele>
        <time>2021-07-02T11:47:29Z</time>
      </trkpt>
      <trkpt lat="42.436543" lon="1.474406">
        <ele>854.38977</ele>
        <time>2021-07-02T11:47:30Z</time>
      </trkpt>
      <trkpt lat="42.436550" lon="1.474343">
        <ele>855.06689</ele>
        <time>2021-07-02T11:47:31Z</time>
      </trkpt>
      <trkpt lat="42.436550" lon="1.474296">
        <ele>854.85010</ele>
        <time>2021-07-02T11:47:32Z</time>
      </trkpt>
      <trkpt lat="42.436539" lon="1.474219">
        <ele>854.37939</ele>
        <time>2021-07-02T11:47:33Z</time>
      </trkpt>
      <trkpt lat="42.436504" lon="1.474158">
        <ele>854.33447</ele>
        <time>2021-07-02T11:47:34Z</time>
      </trkpt>
      <trkpt lat="42.436470" lon="1.474118">
        <ele>854.72791</ele>
        <time>2021-07-02T11:47:35Z</time>
      </trkpt>
      <trkpt lat="42.436455" lon="1.474112">
        <ele>854.95642</ele>
        <time>2021-07-02T11:47:36Z</time>
      </trkpt>
      <trkpt lat="42.436356" lon="1.474123">
        <ele>855.55151</ele>
        <time>2021-07-02T11:47:37Z</time>
      </trkpt>
      <trkpt lat="42.436356" lon="1.474123">
        <ele>855.78125</ele>
        <time>2021-07-02T11:47:38Z</time>
      </trkpt>
      <trkpt lat="42.436352" lon="1.474126">
        <ele>854.95703</ele>
        <time>2021-07-02T11:47:39Z</time>
      </trkpt>
      <trkpt lat="42.436344" lon="1.474132">
        <ele>854.44482</ele>
        <time>2021-07-02T11:47:40Z</time>
      </trkpt>
      <trkpt lat="42.436310" lon="1.473798">
        <ele>854.07104</ele>
        <time>2021-07-02T11:47:41Z</time>
      </trkpt>
      <trkpt lat="42.436272" lon="1.473741">
        <ele>854.44727</ele>
        <time>2021-07-02T11:47:42Z</time>
      </trkpt>
      <trkpt lat="42.436234" lon="1.473683">
        <ele>854.06128</ele>
        <time>2021-07-02T11:47:43Z</time>
      </trkpt>
      <trkpt lat="42.436195" lon="1.473629">
        <ele>854.76135</ele>
        <time>2021-07-02T11:47:44Z</time>
      </trkpt>
      <trkpt lat="42.436157" lon="1.473581">
        <ele>854.93604</ele>
        <time>2021-07-02T11:47:45Z</time>
      </trkpt>
      <trkpt lat="42.436119" lon="1.473539">
        <ele>854.93481</ele>
        <time>2021-07-02T11:47:46Z</time>
      </trkpt>
      <trkpt lat="42.436089" lon="1.473506">
        <ele>854.85583</ele>
        <time>2021-07-02T11:47:47Z</time>
      </trkpt>
      <trkpt lat="42.436073" lon="1.473489">
        <ele>855.23901</ele>
        <time>2021-07-02T11:47:48Z</time>
      </trkpt>
      <trkpt lat="42.436062" lon="1.473476">
        <ele>854.73328</ele>
        <time>2021-07-02T11:47:49Z</time>
      </trkpt>
      <trkpt lat="42.436047" lon="1.473463">
        <ele>854.12231</ele>
        <time>2021-07-02T11:47:50Z</time>
      </trkpt>
      <trkpt lat="42.436047" lon="1.473460">
        <ele>854.67871</ele>
        <time>2021-07-02T11:47:51Z</time>
      </trkpt>
      <trkpt lat="42.436043" lon="1.473458">
        <ele>855.03638</ele>
        <time>2021-07-02T11:47:52Z</time>
      </trkpt>
      <trkpt lat="42.436043" lon="1.473458">
        <ele>848.61328</ele>
        <time>2021-07-02T11:47:53Z</time>
      </trkpt>
      <trkpt lat="42.436043" lon="1.473458">
        <ele>849.93848</ele>
        <time>2021-07-02T11:47:54Z</time>
      </trkpt>
      <trkpt lat="42.436043" lon="1.473458">
        <ele>850.73108</ele>
        <time>2021-07-02T11:47:55Z</time>
      </trkpt>
      <trkpt lat="42.436043" lon="1.473458">
        <ele>851.27246</ele>
        <time>2021-07-02T11:47:56Z</time>
      </trkpt>
      <trkpt lat="42.436043" lon="1.473458">
        <ele>851.77734</ele>
        <time>2021-07-02T11:47:57Z</time>
      </trkpt>
      <trkpt lat="42.436043" lon="1.473458">
        <ele>851.88940</ele>
        <time>2021-07-02T11:47:58Z</time>
      </trkpt>
      <trkpt lat="42.436043" lon="1.473458">
        <ele>852.04077</ele>
        <time>2021-07-02T11:47:59Z</time>
      </trkpt>
      <trkpt lat="42.436005" lon="1.473419">
        <ele>852.00806</ele>
        <time>2021-07-02T11:48:00Z</time>
      </trkpt>
      <trkpt lat="42.435963" lon="1.473380">
        <ele>852.05225</ele>
        <time>2021-07-02T11:48:01Z</time>
      </trkpt>
      <trkpt lat="42.435913" lon="1.473329">
        <ele>851.69373</ele>
        <time>2021-07-02T11:48:02Z</time>
      </trkpt>
      <trkpt lat="42.435890" lon="1.473308">
        <ele>852.19165</ele>
        <time>2021-07-02T11:48:03Z</time>
      </trkpt>
      <trkpt lat="42.435879" lon="1.473297">
        <ele>851.89844</ele>
        <time>2021-07-02T11:48:04Z</time>
      </trkpt>
      <trkpt lat="42.435867" lon="1.473288">
        <ele>851.64819</ele>
        <time>2021-07-02T11:48:05Z</time>
      </trkpt>
      <trkpt lat="42.435867" lon="1.473285">
        <ele>852.61206</ele>
        <time>2021-07-02T11:48:06Z</time>
      </trkpt>
      <trkpt lat="42.435863" lon="1.473284">
        <ele>853.14954</ele>
        <time>2021-07-02T11:48:07Z</time>
      </trkpt>
      <trkpt lat="42.435837" lon="1.473258">
        <ele>852.61438</ele>
        <time>2021-07-02T11:48:08Z</time>
      </trkpt>
      <trkpt lat="42.435833" lon="1.473253">
        <ele>851.86328</ele>
        <time>2021-07-02T11:48:09Z</time>
      </trkpt>
      <trkpt lat="42.435814" lon="1.473235">
        <ele>851.98901</ele>
        <time>2021-07-02T11:48:10Z</time>
      </trkpt>
      <trkpt lat="42.435806" lon="1.473226">
        <ele>851.81030</ele>
        <time>2021-07-02T11:48:11Z</time>
      </trkpt>
      <trkpt lat="42.435799" lon="1.473220">
        <ele>852.34570</ele>
        <time>2021-07-02T11:48:12Z</time>
      </trkpt>
      <trkpt lat="42.435795" lon="1.473216">
        <ele>853.28467</ele>
        <time>2021-07-02T11:48:13Z</time>
      </trkpt>
      <trkpt lat="42.435764" lon="1.473185">
        <ele>853.74023</ele>
        <time>2021-07-02T11:48:14Z</time>
      </trkpt>
      <trkpt lat="42.435753" lon="1.473176">
        <ele>853.18066</ele>
        <time>2021-07-02T11:48:15Z</time>
      </trkpt>
      <trkpt lat="42.435738" lon="1.473162">
        <ele>852.27686</ele>
        <time>2021-07-02T11:48:16Z</time>
      </trkpt>
      <trkpt lat="42.435738" lon="1.473162">
        <ele>852.27173</ele>
        <time>2021-07-02T11:48:17Z</time>
      </trkpt>
      <trkpt lat="42.435719" lon="1.473148">
        <ele>853.00171</ele>
        <time>2021-07-02T11:48:18Z</time>
      </trkpt>
      <trkpt lat="42.435707" lon="1.473139">
        <ele>852.64233</ele>
        <time>2021-07-02T11:48:19Z</time>
      </trkpt>
      <trkpt lat="42.435692" lon="1.473126">
        <ele>852.61877</ele>
        <time>2021-07-02T11:48:20Z</time>
      </trkpt>
      <trkpt lat="42.435677" lon="1.473113">
        <ele>852.80237</ele>
        <time>2021-07-02T11:48:21Z</time>
      </trkpt>
      <trkpt lat="42.435661" lon="1.473101">
        <ele>852.46118</ele>
        <time>2021-07-02T11:48:22Z</time>
      </trkpt>
      <trkpt lat="42.435642" lon="1.473085">
        <ele>852.22021</ele>
        <time>2021-07-02T11:48:23Z</time>
      </trkpt>
      <trkpt lat="42.435638" lon="1.473083">
        <ele>850.90063</ele>
        <time>2021-07-02T11:48:24Z</time>
      </trkpt>
      <trkpt lat="42.435627" lon="1.473070">
        <ele>849.01758</ele>
        <time>2021-07-02T11:48:25Z</time>
      </trkpt>
      <trkpt lat="42.435612" lon="1.473054">
        <ele>849.14380</ele>
        <time>2021-07-02T11:48:26Z</time>
      </trkpt>
      <trkpt lat="42.435608" lon="1.473051">
        <ele>849.95825</ele>
        <time>2021-07-02T11:48:27Z</time>
      </trkpt>
      <trkpt lat="42.435608" lon="1.473049">
        <ele>849.59229</ele>
        <time>2021-07-02T11:48:28Z</time>
      </trkpt>
      <trkpt lat="42.435589" lon="1.473028">
        <ele>849.34009</ele>
        <time>2021-07-02T11:48:29Z</time>
      </trkpt>
      <trkpt lat="42.435570" lon="1.473013">
        <ele>849.10840</ele>
        <time>2021-07-02T11:48:30Z</time>
      </trkpt>
      <trkpt lat="42.435562" lon="1.473003">
        <ele>847.18811</ele>
        <time>2021-07-02T11:48:31Z</time>
      </trkpt>
      <trkpt lat="42.435551" lon="1.472991">
        <ele>846.89783</ele>
        <time>2021-07-02T11:48:32Z</time>
      </trkpt>
      <trkpt lat="42.435543" lon="1.472983">
        <ele>846.86597</ele>
        <time>2021-07-02T11:48:33Z</time>
      </trkpt>
      <trkpt lat="42.435543" lon="1.472982">
        <ele>845.87427</ele>
        <time>2021-07-02T11:48:34Z</time>
      </trkpt>
      <trkpt lat="42.435520" lon="1.472959">
        <ele>845.87000</ele>
        <time>2021-07-02T11:48:35Z</time>
      </trkpt>
      <trkpt lat="42.435516" lon="1.472956">
        <ele>846.27734</ele>
        <time>2021-07-02T11:48:36Z</time>
      </trkpt>
      <trkpt lat="42.435509" lon="1.472948">
        <ele>845.92798</ele>
        <time>2021-07-02T11:48:37Z</time>
      </trkpt>
      <trkpt lat="42.435509" lon="1.472947">
        <ele>844.60303</ele>
        <time>2021-07-02T11:48:38Z</time>
      </trkpt>
      <trkpt lat="42.435478" lon="1.472918">
        <ele>846.05884</ele>
        <time>2021-07-02T11:48:39Z</time>
      </trkpt>
      <trkpt lat="42.435459" lon="1.472895">
        <ele>847.26587</ele>
        <time>2021-07-02T11:48:40Z</time>
      </trkpt>
      <trkpt lat="42.435436" lon="1.472870">
        <ele>847.66479</ele>
        <time>2021-07-02T11:48:41Z</time>
      </trkpt>
      <trkpt lat="42.435417" lon="1.472847">
        <ele>847.59692</ele>
        <time>2021-07-02T11:48:42Z</time>
      </trkpt>
      <trkpt lat="42.435394" lon="1.472816">
        <ele>845.99792</ele>
        <time>2021-07-02T11:48:43Z</time>
      </trkpt>
      <trkpt lat="42.435387" lon="1.472805">
        <ele>846.57251</ele>
        <time>2021-07-02T11:48:44Z</time>
      </trkpt>
      <trkpt lat="42.435371" lon="1.472786">
        <ele>846.78687</ele>
        <time>2021-07-02T11:48:45Z</time>
      </trkpt>
      <trkpt lat="42.435371" lon="1.472786">
        <ele>847.34277</ele>
        <time>2021-07-02T11:48:46Z</time>
      </trkpt>
      <trkpt lat="42.435368" lon="1.472782">
        <ele>847.85046</ele>
        <time>2021-07-02T11:48:47Z</time>
      </trkpt>
      <trkpt lat="42.435349" lon="1.472759">
        <ele>847.26807</ele>
        <time>2021-07-02T11:48:48Z</time>
      </trkpt>
      <trkpt lat="42.435337" lon="1.472748">
        <ele>846.37390</ele>
        <time>2021-07-02T11:48:49Z</time>
      </trkpt>
      <trkpt lat="42.435326" lon="1.472732">
        <ele>843.37280</ele>
        <time>2021-07-02T11:48:50Z</time>
      </trkpt>
      <trkpt lat="42.435310" lon="1.472715">
        <ele>844.13843</ele>
        <time>2021-07-02T11:48:51Z</time>
      </trkpt>
      <trkpt lat="42.435299" lon="1.472701">
        <ele>842.54883</ele>
        <time>2021-07-02T11:48:52Z</time>
      </trkpt>
      <trkpt lat="42.435291" lon="1.472693">
        <ele>842.93359</ele>
        <time>2021-07-02T11:48:53Z</time>
      </trkpt>
      <trkpt lat="42.435291" lon="1.472689">
        <ele>839.68359</ele>
        <time>2021-07-02T11:48:54Z</time>
      </trkpt>
      <trkpt lat="42.435280" lon="1.472673">
        <ele>838.43567</ele>
        <time>2021-07-02T11:48:55Z</time>
      </trkpt>
      <trkpt lat="42.435268" lon="1.472656">
        <ele>838.36694</ele>
        <time>2021-07-02T11:48:56Z</time>
      </trkpt>
      <trkpt lat="42.435261" lon="1.472648">
        <ele>838.55615</ele>
        <time>2021-07-02T11:48:57Z</time>
      </trkpt>
      <trkpt lat="42.435238" lon="1.472613">
        <ele>838.75122</ele>
        <time>2021-07-02T11:48:58Z</time>
      </trkpt>
      <trkpt lat="42.435196" lon="1.472555">
        <ele>838.44165</ele>
        <time>2021-07-02T11:48:59Z</time>
      </trkpt>
      <trkpt lat="42.435158" lon="1.472498">
        <ele>838.47437</ele>
        <time>2021-07-02T11:49:00Z</time>
      </trkpt>
      <trkpt lat="42.435104" lon="1.472422">
        <ele>839.18164</ele>
        <time>2021-07-02T11:49:01Z</time>
      </trkpt>
      <trkpt lat="42.435047" lon="1.472334">
        <ele>839.26538</ele>
        <time>2021-07-02T11:49:02Z</time>
      </trkpt>
      <trkpt lat="42.434986" lon="1.472242">
        <ele>839.59473</ele>
        <time>2021-07-02T11:49:03Z</time>
      </trkpt>
      <trkpt lat="42.434929" lon="1.472150">
        <ele>839.40540</ele>
        <time>2021-07-02T11:49:04Z</time>
      </trkpt>
      <trkpt lat="42.434860" lon="1.472043">
        <ele>839.61328</ele>
        <time>2021-07-02T11:49:05Z</time>
      </trkpt>
      <trkpt lat="42.434818" lon="1.471971">
        <ele>839.44153</ele>
        <time>2021-07-02T11:49:06Z</time>
      </trkpt>
      <trkpt lat="42.434784" lon="1.471915">
        <ele>839.08179</ele>
        <time>2021-07-02T11:49:07Z</time>
      </trkpt>
      <trkpt lat="42.434746" lon="1.471845">
        <ele>840.09912</ele>
        <time>2021-07-02T11:49:08Z</time>
      </trkpt>
      <trkpt lat="42.434704" lon="1.471771">
        <ele>839.90942</ele>
        <time>2021-07-02T11:49:09Z</time>
      </trkpt>
      <trkpt lat="42.434650" lon="1.471683">
        <ele>839.72485</ele>
        <time>2021-07-02T11:49:10Z</time>
      </trkpt>
      <trkpt lat="42.434586" lon="1.471569">
        <ele>840.80347</ele>
        <time>2021-07-02T11:49:11Z</time>
      </trkpt>
      <trkpt lat="42.434521" lon="1.471441">
        <ele>840.91724</ele>
        <time>2021-07-02T11:49:12Z</time>
      </trkpt>
      <trkpt lat="42.434464" lon="1.471322">
        <ele>840.54492</ele>
        <time>2021-07-02T11:49:13Z</time>
      </trkpt>
      <trkpt lat="42.434464" lon="1.471322">
        <ele>840.14453</ele>
        <time>2021-07-02T11:49:14Z</time>
      </trkpt>
      <trkpt lat="42.434414" lon="1.471222">
        <ele>840.66187</ele>
        <time>2021-07-02T11:49:15Z</time>
      </trkpt>
      <trkpt lat="42.434361" lon="1.471109">
        <ele>840.45483</ele>
        <time>2021-07-02T11:49:16Z</time>
      </trkpt>
      <trkpt lat="42.434303" lon="1.470997">
        <ele>840.30786</ele>
        <time>2021-07-02T11:49:17Z</time>
      </trkpt>
      <trkpt lat="42.434254" lon="1.470890">
        <ele>839.98450</ele>
        <time>2021-07-02T11:49:18Z</time>
      </trkpt>
      <trkpt lat="42.434212" lon="1.470807">
        <ele>839.54688</ele>
        <time>2021-07-02T11:49:19Z</time>
      </trkpt>
      <trkpt lat="42.434174" lon="1.470732">
        <ele>839.28711</ele>
        <time>2021-07-02T11:49:20Z</time>
      </trkpt>
      <trkpt lat="42.434132" lon="1.470657">
        <ele>839.61340</ele>
        <time>2021-07-02T11:49:21Z</time>
      </trkpt>
      <trkpt lat="42.434090" lon="1.470574">
        <ele>840.02637</ele>
        <time>2021-07-02T11:49:22Z</time>
      </trkpt>
      <trkpt lat="42.434044" lon="1.470486">
        <ele>839.63208</ele>
        <time>2021-07-02T11:49:23Z</time>
      </trkpt>
      <trkpt lat="42.433994" lon="1.470391">
        <ele>838.32605</ele>
        <time>2021-07-02T11:49:24Z</time>
      </trkpt>
      <trkpt lat="42.433956" lon="1.470316">
        <ele>837.27637</ele>
        <time>2021-07-02T11:49:25Z</time>
      </trkpt>
      <trkpt lat="42.433933" lon="1.470278">
        <ele>836.51575</ele>
        <time>2021-07-02T11:49:26Z</time>
      </trkpt>
      <trkpt lat="42.433918" lon="1.470247">
        <ele>836.15613</ele>
        <time>2021-07-02T11:49:27Z</time>
      </trkpt>
      <trkpt lat="42.433895" lon="1.470209">
        <ele>835.89111</ele>
        <time>2021-07-02T11:49:28Z</time>
      </trkpt>
      <trkpt lat="42.433876" lon="1.470183">
        <ele>836.08936</ele>
        <time>2021-07-02T11:49:29Z</time>
      </trkpt>
      <trkpt lat="42.433865" lon="1.470163">
        <ele>835.59253</ele>
        <time>2021-07-02T11:49:30Z</time>
      </trkpt>
      <trkpt lat="42.433853" lon="1.470145">
        <ele>835.71289</ele>
        <time>2021-07-02T11:49:31Z</time>
      </trkpt>
      <trkpt lat="42.433842" lon="1.470127">
        <ele>836.45874</ele>
        <time>2021-07-02T11:49:32Z</time>
      </trkpt>
      <trkpt lat="42.433830" lon="1.470110">
        <ele>835.37732</ele>
        <time>2021-07-02T11:49:33Z</time>
      </trkpt>
      <trkpt lat="42.433815" lon="1.470088">
        <ele>835.80786</ele>
        <time>2021-07-02T11:49:34Z</time>
      </trkpt>
      <trkpt lat="42.433796" lon="1.470059">
        <ele>835.87402</ele>
        <time>2021-07-02T11:49:35Z</time>
      </trkpt>
      <trkpt lat="42.433784" lon="1.470037">
        <ele>836.83386</ele>
        <time>2021-07-02T11:49:36Z</time>
      </trkpt>
      <trkpt lat="42.433765" lon="1.470011">
        <ele>836.49805</ele>
        <time>2021-07-02T11:49:37Z</time>
      </trkpt>
      <trkpt lat="42.433746" lon="1.469981">
        <ele>836.10083</ele>
        <time>2021-07-02T11:49:38Z</time>
      </trkpt>
      <trkpt lat="42.433723" lon="1.469952">
        <ele>835.05652</ele>
        <time>2021-07-02T11:49:39Z</time>
      </trkpt>
      <trkpt lat="42.433704" lon="1.469921">
        <ele>834.76758</ele>
        <time>2021-07-02T11:49:40Z</time>
      </trkpt>
      <trkpt lat="42.433685" lon="1.469892">
        <ele>833.75696</ele>
        <time>2021-07-02T11:49:41Z</time>
      </trkpt>
      <trkpt lat="42.433666" lon="1.469865">
        <ele>834.77063</ele>
        <time>2021-07-02T11:49:42Z</time>
      </trkpt>
      <trkpt lat="42.433655" lon="1.469850">
        <ele>834.94385</ele>
        <time>2021-07-02T11:49:43Z</time>
      </trkpt>
      <trkpt lat="42.433651" lon="1.469848">
        <ele>835.70581</ele>
        <time>2021-07-02T11:49:44Z</time>
      </trkpt>
      <trkpt lat="42.433640" lon="1.469831">
        <ele>836.07751</ele>
        <time>2021-07-02T11:49:45Z</time>
      </trkpt>
      <trkpt lat="42.433640" lon="1.469831">
        <ele>836.66016</ele>
        <time>2021-07-02T11:49:46Z</time>
      </trkpt>
      <trkpt lat="42.433640" lon="1.469831">
        <ele>835.15735</ele>
        <time>2021-07-02T11:49:47Z</time>
      </trkpt>
      <trkpt lat="42.433640" lon="1.469831">
        <ele>834.84375</ele>
        <time>2021-07-02T11:49:48Z</time>
      </trkpt>
      <trkpt lat="42.433640" lon="1.469831">
        <ele>835.56689</ele>
        <time>2021-07-02T11:49:49Z</time>
      </trkpt>
      <trkpt lat="42.433640" lon="1.469831">
        <ele>838.25708</ele>
        <time>2021-07-02T11:49:50Z</time>
      </trkpt>
      <trkpt lat="42.433640" lon="1.469831">
        <ele>839.54565</ele>
        <time>2021-07-02T11:49:51Z</time>
      </trkpt>
      <trkpt lat="42.433640" lon="1.469831">
        <ele>839.60120</ele>
        <time>2021-07-02T11:49:52Z</time>
      </trkpt>
      <trkpt lat="42.433640" lon="1.469831">
        <ele>839.86523</ele>
        <time>2021-07-02T11:49:53Z</time>
      </trkpt>
      <trkpt lat="42.433640" lon="1.469831">
        <ele>839.76904</ele>
        <time>2021-07-02T11:49:54Z</time>
      </trkpt>
      <trkpt lat="42.433640" lon="1.469831">
        <ele>840.58392</ele>
        <time>2021-07-02T11:49:55Z</time>
      </trkpt>
      <trkpt lat="42.433640" lon="1.469831">
        <ele>840.52094</ele>
        <time>2021-07-02T11:49:56Z</time>
      </trkpt>
      <trkpt lat="42.433640" lon="1.469831">
        <ele>840.69751</ele>
        <time>2021-07-02T11:49:57Z</time>
      </trkpt>
      <trkpt lat="42.433640" lon="1.469831">
        <ele>840.70654</ele>
        <time>2021-07-02T11:49:58Z</time>
      </trkpt>
      <trkpt lat="42.433640" lon="1.469831">
        <ele>840.56598</ele>
        <time>2021-07-02T11:49:59Z</time>
      </trkpt>
      <trkpt lat="42.433640" lon="1.469831">
        <ele>840.50793</ele>
        <time>2021-07-02T11:50:00Z</time>
      </trkpt>
      <trkpt lat="42.433640" lon="1.469831">
        <ele>840.52747</ele>
        <time>2021-07-02T11:50:01Z</time>
      </trkpt>
      <trkpt lat="42.433640" lon="1.469831">
        <ele>840.73157</ele>
        <time>2021-07-02T11:50:02Z</time>
      </trkpt>
      <trkpt lat="42.433640" lon="1.469831">
        <ele>840.94067</ele>
        <time>2021-07-02T11:50:03Z</time>
      </trkpt>
      <trkpt lat="42.433640" lon="1.469831">
        <ele>840.98315</ele>
        <time>2021-07-02T11:50:04Z</time>
      </trkpt>
      <trkpt lat="42.433640" lon="1.469831">
        <ele>841.06494</ele>
        <time>2021-07-02T11:50:05Z</time>
      </trkpt>
      <trkpt lat="42.433640" lon="1.469831">
        <ele>840.67334</ele>
        <time>2021-07-02T11:50:06Z</time>
      </trkpt>
      <trkpt lat="42.433640" lon="1.469831">
        <ele>840.64526</ele>
        <time>2021-07-02T11:50:07Z</time>
      </trkpt>
      <trkpt lat="42.433640" lon="1.469831">
        <ele>840.62079</ele>
        <time>2021-07-02T11:50:08Z</time>
      </trkpt>
      <trkpt lat="42.433640" lon="1.469831">
        <ele>840.61853</ele>
        <time>2021-07-02T11:50:09Z</time>
      </trkpt>
      <trkpt lat="42.433640" lon="1.469831">
        <ele>840.63202</ele>
        <time>2021-07-02T11:50:10Z</time>
      </trkpt>
      <trkpt lat="42.433640" lon="1.469831">
        <ele>841.02319</ele>
        <time>2021-07-02T11:50:11Z</time>
      </trkpt>
      <trkpt lat="42.433640" lon="1.469831">
        <ele>841.16260</ele>
        <time>2021-07-02T11:50:12Z</time>
      </trkpt>
      <trkpt lat="42.433640" lon="1.469831">
        <ele>840.76202</ele>
        <time>2021-07-02T11:50:13Z</time>
      </trkpt>
      <trkpt lat="42.433640" lon="1.469831">
        <ele>841.12549</ele>
        <time>2021-07-02T11:50:14Z</time>
      </trkpt>
      <trkpt lat="42.433640" lon="1.469831">
        <ele>841.05603</ele>
        <time>2021-07-02T11:50:15Z</time>
      </trkpt>
      <trkpt lat="42.433640" lon="1.469831">
        <ele>840.64294</ele>
        <time>2021-07-02T11:50:16Z</time>
      </trkpt>
      <trkpt lat="42.433594" lon="1.469766">
        <ele>840.09399</ele>
        <time>2021-07-02T11:50:17Z</time>
      </trkpt>
      <trkpt lat="42.433556" lon="1.469711">
        <ele>839.68579</ele>
        <time>2021-07-02T11:50:18Z</time>
      </trkpt>
      <trkpt lat="42.433540" lon="1.469688">
        <ele>839.43591</ele>
        <time>2021-07-02T11:50:19Z</time>
      </trkpt>
      <trkpt lat="42.433521" lon="1.469662">
        <ele>839.25635</ele>
        <time>2021-07-02T11:50:20Z</time>
      </trkpt>
      <trkpt lat="42.433506" lon="1.469636">
        <ele>838.85425</ele>
        <time>2021-07-02T11:50:21Z</time>
      </trkpt>
      <trkpt lat="42.433491" lon="1.469613">
        <ele>838.20923</ele>
        <time>2021-07-02T11:50:22Z</time>
      </trkpt>
      <trkpt lat="42.433468" lon="1.469584">
        <ele>837.76550</ele>
        <time>2021-07-02T11:50:23Z</time>
      </trkpt>
      <trkpt lat="42.433453" lon="1.469563">
        <ele>838.01855</ele>
        <time>2021-07-02T11:50:24Z</time>
      </trkpt>
      <trkpt lat="42.433437" lon="1.469541">
        <ele>837.47876</ele>
        <time>2021-07-02T11:50:25Z</time>
      </trkpt>
      <trkpt lat="42.433422" lon="1.469518">
        <ele>838.35706</ele>
        <time>2021-07-02T11:50:26Z</time>
      </trkpt>
      <trkpt lat="42.433411" lon="1.469502">
        <ele>838.93469</ele>
        <time>2021-07-02T11:50:27Z</time>
      </trkpt>
      <trkpt lat="42.433392" lon="1.469476">
        <ele>838.58350</ele>
        <time>2021-07-02T11:50:28Z</time>
      </trkpt>
      <trkpt lat="42.433376" lon="1.469447">
        <ele>838.18616</ele>
        <time>2021-07-02T11:50:29Z</time>
      </trkpt>
      <trkpt lat="42.433376" lon="1.469447">
        <ele>838.38818</ele>
        <time>2021-07-02T11:50:30Z</time>
      </trkpt>
      <trkpt lat="42.433361" lon="1.469423">
        <ele>838.23755</ele>
        <time>2021-07-02T11:50:31Z</time>
      </trkpt>
      <trkpt lat="42.433346" lon="1.469400">
        <ele>838.02490</ele>
        <time>2021-07-02T11:50:32Z</time>
      </trkpt>
      <trkpt lat="42.433331" lon="1.469373">
        <ele>837.43799</ele>
        <time>2021-07-02T11:50:33Z</time>
      </trkpt>
      <trkpt lat="42.433319" lon="1.469353">
        <ele>836.30054</ele>
        <time>2021-07-02T11:50:34Z</time>
      </trkpt>
      <trkpt lat="42.433304" lon="1.469327">
        <ele>837.10828</ele>
        <time>2021-07-02T11:50:35Z</time>
      </trkpt>
      <trkpt lat="42.433289" lon="1.469300">
        <ele>837.06396</ele>
        <time>2021-07-02T11:50:36Z</time>
      </trkpt>
      <trkpt lat="42.433285" lon="1.469293">
        <ele>836.93408</ele>
        <time>2021-07-02T11:50:37Z</time>
      </trkpt>
      <trkpt lat="42.433277" lon="1.469280">
        <ele>835.43787</ele>
        <time>2021-07-02T11:50:38Z</time>
      </trkpt>
      <trkpt lat="42.433266" lon="1.469263">
        <ele>836.24646</ele>
        <time>2021-07-02T11:50:39Z</time>
      </trkpt>
      <trkpt lat="42.433258" lon="1.469247">
        <ele>836.39160</ele>
        <time>2021-07-02T11:50:40Z</time>
      </trkpt>
      <trkpt lat="42.433247" lon="1.469232">
        <ele>837.00439</ele>
        <time>2021-07-02T11:50:41Z</time>
      </trkpt>
      <trkpt lat="42.433235" lon="1.469211">
        <ele>835.69043</ele>
        <time>2021-07-02T11:50:42Z</time>
      </trkpt>
      <trkpt lat="42.433224" lon="1.469186">
        <ele>835.32739</ele>
        <time>2021-07-02T11:50:43Z</time>
      </trkpt>
      <trkpt lat="42.433212" lon="1.469171">
        <ele>836.88647</ele>
        <time>2021-07-02T11:50:44Z</time>
      </trkpt>
      <trkpt lat="42.433208" lon="1.469161">
        <ele>836.84766</ele>
        <time>2021-07-02T11:50:45Z</time>
      </trkpt>
      <trkpt lat="42.433197" lon="1.469141">
        <ele>837.83667</ele>
        <time>2021-07-02T11:50:46Z</time>
      </trkpt>
      <trkpt lat="42.433186" lon="1.469120">
        <ele>836.80566</ele>
        <time>2021-07-02T11:50:47Z</time>
      </trkpt>
      <trkpt lat="42.433178" lon="1.469103">
        <ele>837.13281</ele>
        <time>2021-07-02T11:50:48Z</time>
      </trkpt>
      <trkpt lat="42.433159" lon="1.469070">
        <ele>836.38330</ele>
        <time>2021-07-02T11:50:49Z</time>
      </trkpt>
      <trkpt lat="42.433144" lon="1.469046">
        <ele>835.14502</ele>
        <time>2021-07-02T11:50:50Z</time>
      </trkpt>
      <trkpt lat="42.433128" lon="1.469014">
        <ele>834.03833</ele>
        <time>2021-07-02T11:50:51Z</time>
      </trkpt>
      <trkpt lat="42.433113" lon="1.468992">
        <ele>833.54126</ele>
        <time>2021-07-02T11:50:52Z</time>
      </trkpt>
      <trkpt lat="42.433102" lon="1.468965">
        <ele>832.63477</ele>
        <time>2021-07-02T11:50:53Z</time>
      </trkpt>
      <trkpt lat="42.433086" lon="1.468938">
        <ele>834.63367</ele>
        <time>2021-07-02T11:50:54Z</time>
      </trkpt>
      <trkpt lat="42.433079" lon="1.468924">
        <ele>834.52563</ele>
        <time>2021-07-02T11:50:55Z</time>
      </trkpt>
      <trkpt lat="42.433060" lon="1.468891">
        <ele>834.98828</ele>
        <time>2021-07-02T11:50:56Z</time>
      </trkpt>
      <trkpt lat="42.433044" lon="1.468868">
        <ele>835.13354</ele>
        <time>2021-07-02T11:50:57Z</time>
      </trkpt>
      <trkpt lat="42.433033" lon="1.468845">
        <ele>835.09119</ele>
        <time>2021-07-02T11:50:58Z</time>
      </trkpt>
      <trkpt lat="42.433018" lon="1.468813">
        <ele>837.90759</ele>
        <time>2021-07-02T11:50:59Z</time>
      </trkpt>
      <trkpt lat="42.433002" lon="1.468787">
        <ele>837.25537</ele>
        <time>2021-07-02T11:51:00Z</time>
      </trkpt>
      <trkpt lat="42.432999" lon="1.468775">
        <ele>836.44336</ele>
        <time>2021-07-02T11:51:01Z</time>
      </trkpt>
      <trkpt lat="42.432983" lon="1.468745">
        <ele>835.93506</ele>
        <time>2021-07-02T11:51:02Z</time>
      </trkpt>
      <trkpt lat="42.432972" lon="1.468726">
        <ele>835.03198</ele>
        <time>2021-07-02T11:51:03Z</time>
      </trkpt>
      <trkpt lat="42.432972" lon="1.468726">
        <ele>834.69263</ele>
        <time>2021-07-02T11:51:04Z</time>
      </trkpt>
      <trkpt lat="42.432961" lon="1.468701">
        <ele>834.85840</ele>
        <time>2021-07-02T11:51:05Z</time>
      </trkpt>
      <trkpt lat="42.432953" lon="1.468684">
        <ele>836.21118</ele>
        <time>2021-07-02T11:51:06Z</time>
      </trkpt>
      <trkpt lat="42.432941" lon="1.468664">
        <ele>837.55493</ele>
        <time>2021-07-02T11:51:07Z</time>
      </trkpt>
      <trkpt lat="42.432926" lon="1.468637">
        <ele>836.87646</ele>
        <time>2021-07-02T11:51:08Z</time>
      </trkpt>
      <trkpt lat="42.432915" lon="1.468613">
        <ele>836.31299</ele>
        <time>2021-07-02T11:51:09Z</time>
      </trkpt>
      <trkpt lat="42.432903" lon="1.468592">
        <ele>835.89819</ele>
        <time>2021-07-02T11:51:10Z</time>
      </trkpt>
      <trkpt lat="42.432892" lon="1.468568">
        <ele>835.86914</ele>
        <time>2021-07-02T11:51:11Z</time>
      </trkpt>
      <trkpt lat="42.432880" lon="1.468547">
        <ele>835.72778</ele>
        <time>2021-07-02T11:51:12Z</time>
      </trkpt>
      <trkpt lat="42.432865" lon="1.468522">
        <ele>836.48572</ele>
        <time>2021-07-02T11:51:13Z</time>
      </trkpt>
      <trkpt lat="42.432854" lon="1.468492">
        <ele>836.67078</ele>
        <time>2021-07-02T11:51:14Z</time>
      </trkpt>
      <trkpt lat="42.432838" lon="1.468464">
        <ele>836.71802</ele>
        <time>2021-07-02T11:51:15Z</time>
      </trkpt>
      <trkpt lat="42.432819" lon="1.468435">
        <ele>836.49585</ele>
        <time>2021-07-02T11:51:16Z</time>
      </trkpt>
      <trkpt lat="42.432804" lon="1.468406">
        <ele>837.48853</ele>
        <time>2021-07-02T11:51:17Z</time>
      </trkpt>
      <trkpt lat="42.432793" lon="1.468384">
        <ele>837.59412</ele>
        <time>2021-07-02T11:51:18Z</time>
      </trkpt>
      <trkpt lat="42.432781" lon="1.468361">
        <ele>837.38477</ele>
        <time>2021-07-02T11:51:19Z</time>
      </trkpt>
      <trkpt lat="42.432766" lon="1.468331">
        <ele>838.02356</ele>
        <time>2021-07-02T11:51:20Z</time>
      </trkpt>
      <trkpt lat="42.432751" lon="1.468306">
        <ele>837.58447</ele>
        <time>2021-07-02T11:51:21Z</time>
      </trkpt>
      <trkpt lat="42.432735" lon="1.468276">
        <ele>836.12036</ele>
        <time>2021-07-02T11:51:22Z</time>
      </trkpt>
      <trkpt lat="42.432724" lon="1.468256">
        <ele>836.05591</ele>
        <time>2021-07-02T11:51:23Z</time>
      </trkpt>
      <trkpt lat="42.432724" lon="1.468254">
        <ele>836.54761</ele>
        <time>2021-07-02T11:51:24Z</time>
      </trkpt>
      <trkpt lat="42.432724" lon="1.468254">
        <ele>837.26306</ele>
        <time>2021-07-02T11:51:25Z</time>
      </trkpt>
      <trkpt lat="42.432724" lon="1.468254">
        <ele>839.61621</ele>
        <time>2021-07-02T11:51:26Z</time>
      </trkpt>
      <trkpt lat="42.432724" lon="1.468254">
        <ele>839.47180</ele>
        <time>2021-07-02T11:51:27Z</time>
      </trkpt>
      <trkpt lat="42.432724" lon="1.468254">
        <ele>839.25146</ele>
        <time>2021-07-02T11:51:28Z</time>
      </trkpt>
      <trkpt lat="42.432724" lon="1.468254">
        <ele>839.39087</ele>
        <time>2021-07-02T11:51:29Z</time>
      </trkpt>
      <trkpt lat="42.432724" lon="1.468253">
        <ele>839.04053</ele>
        <time>2021-07-02T11:51:30Z</time>
      </trkpt>
      <trkpt lat="42.432682" lon="1.468174">
        <ele>838.48279</ele>
        <time>2021-07-02T11:51:31Z</time>
      </trkpt>
      <trkpt lat="42.432667" lon="1.468145">
        <ele>838.29150</ele>
        <time>2021-07-02T11:51:32Z</time>
      </trkpt>
      <trkpt lat="42.432659" lon="1.468130">
        <ele>839.36670</ele>
        <time>2021-07-02T11:51:33Z</time>
      </trkpt>
      <trkpt lat="42.432648" lon="1.468113">
        <ele>839.72791</ele>
        <time>2021-07-02T11:51:34Z</time>
      </trkpt>
      <trkpt lat="42.432632" lon="1.468086">
        <ele>839.16479</ele>
        <time>2021-07-02T11:51:35Z</time>
      </trkpt>
      <trkpt lat="42.432629" lon="1.468075">
        <ele>838.40454</ele>
        <time>2021-07-02T11:51:36Z</time>
      </trkpt>
      <trkpt lat="42.432617" lon="1.468055">
        <ele>837.70361</ele>
        <time>2021-07-02T11:51:37Z</time>
      </trkpt>
      <trkpt lat="42.432617" lon="1.468055">
        <ele>838.49683</ele>
        <time>2021-07-02T11:51:38Z</time>
      </trkpt>
      <trkpt lat="42.432610" lon="1.468043">
        <ele>838.52185</ele>
        <time>2021-07-02T11:51:39Z</time>
      </trkpt>
      <trkpt lat="42.432606" lon="1.468036">
        <ele>838.51892</ele>
        <time>2021-07-02T11:51:40Z</time>
      </trkpt>
      <trkpt lat="42.432587" lon="1.468000">
        <ele>837.59937</ele>
        <time>2021-07-02T11:51:41Z</time>
      </trkpt>
      <trkpt lat="42.432579" lon="1.467985">
        <ele>837.05701</ele>
        <time>2021-07-02T11:51:42Z</time>
      </trkpt>
      <trkpt lat="42.432568" lon="1.467964">
        <ele>836.46814</ele>
        <time>2021-07-02T11:51:43Z</time>
      </trkpt>
      <trkpt lat="42.432552" lon="1.467938">
        <ele>836.49878</ele>
        <time>2021-07-02T11:51:44Z</time>
      </trkpt>
      <trkpt lat="42.432541" lon="1.467914">
        <ele>836.71277</ele>
        <time>2021-07-02T11:51:45Z</time>
      </trkpt>
      <trkpt lat="42.432529" lon="1.467895">
        <ele>837.54541</ele>
        <time>2021-07-02T11:51:46Z</time>
      </trkpt>
      <trkpt lat="42.432522" lon="1.467878">
        <ele>836.53027</ele>
        <time>2021-07-02T11:51:47Z</time>
      </trkpt>
      <trkpt lat="42.432518" lon="1.467868">
        <ele>836.38342</ele>
        <time>2021-07-02T11:51:48Z</time>
      </trkpt>
      <trkpt lat="42.432510" lon="1.467857">
        <ele>836.68848</ele>
        <time>2021-07-02T11:51:49Z</time>
      </trkpt>
      <trkpt lat="42.432503" lon="1.467842">
        <ele>837.56494</ele>
        <time>2021-07-02T11:51:50Z</time>
      </trkpt>
      <trkpt lat="42.432495" lon="1.467827">
        <ele>836.46436</ele>
        <time>2021-07-02T11:51:51Z</time>
      </trkpt>
      <trkpt lat="42.432491" lon="1.467823">
        <ele>836.63892</ele>
        <time>2021-07-02T11:51:52Z</time>
      </trkpt>
      <trkpt lat="42.432491" lon="1.467823">
        <ele>836.79175</ele>
        <time>2021-07-02T11:51:53Z</time>
      </trkpt>
      <trkpt lat="42.432476" lon="1.467793">
        <ele>837.44116</ele>
        <time>2021-07-02T11:51:54Z</time>
      </trkpt>
      <trkpt lat="42.432468" lon="1.467775">
        <ele>837.20703</ele>
        <time>2021-07-02T11:51:55Z</time>
      </trkpt>
      <trkpt lat="42.432461" lon="1.467766">
        <ele>836.23926</ele>
        <time>2021-07-02T11:51:56Z</time>
      </trkpt>
      <trkpt lat="42.432461" lon="1.467763">
        <ele>836.09473</ele>
        <time>2021-07-02T11:51:57Z</time>
      </trkpt>
      <trkpt lat="42.432461" lon="1.467763">
        <ele>836.22815</ele>
        <time>2021-07-02T11:51:58Z</time>
      </trkpt>
      <trkpt lat="42.432438" lon="1.467717">
        <ele>835.96045</ele>
        <time>2021-07-02T11:51:59Z</time>
      </trkpt>
      <trkpt lat="42.432411" lon="1.467674">
        <ele>835.38135</ele>
        <time>2021-07-02T11:52:00Z</time>
      </trkpt>
      <trkpt lat="42.432377" lon="1.467607">
        <ele>834.41553</ele>
        <time>2021-07-02T11:52:01Z</time>
      </trkpt>
      <trkpt lat="42.432331" lon="1.467524">
        <ele>833.41602</ele>
        <time>2021-07-02T11:52:02Z</time>
      </trkpt>
      <trkpt lat="42.432301" lon="1.467470">
        <ele>833.05774</ele>
        <time>2021-07-02T11:52:03Z</time>
      </trkpt>
      <trkpt lat="42.432255" lon="1.467387">
        <ele>833.36450</ele>
        <time>2021-07-02T11:52:04Z</time>
      </trkpt>
      <trkpt lat="42.432217" lon="1.467317">
        <ele>833.86951</ele>
        <time>2021-07-02T11:52:05Z</time>
      </trkpt>
      <trkpt lat="42.432175" lon="1.467243">
        <ele>834.01135</ele>
        <time>2021-07-02T11:52:06Z</time>
      </trkpt>
      <trkpt lat="42.432129" lon="1.467165">
        <ele>834.92188</ele>
        <time>2021-07-02T11:52:07Z</time>
      </trkpt>
      <trkpt lat="42.432072" lon="1.467065">
        <ele>834.88428</ele>
        <time>2021-07-02T11:52:08Z</time>
      </trkpt>
      <trkpt lat="42.432072" lon="1.467065">
        <ele>835.25317</ele>
        <time>2021-07-02T11:52:09Z</time>
      </trkpt>
      <trkpt lat="42.432014" lon="1.466964">
        <ele>835.37878</ele>
        <time>2021-07-02T11:52:10Z</time>
      </trkpt>
      <trkpt lat="42.431961" lon="1.466872">
        <ele>834.60498</ele>
        <time>2021-07-02T11:52:11Z</time>
      </trkpt>
      <trkpt lat="42.431904" lon="1.466781">
        <ele>834.07617</ele>
        <time>2021-07-02T11:52:12Z</time>
      </trkpt>
      <trkpt lat="42.431843" lon="1.466696">
        <ele>833.82349</ele>
        <time>2021-07-02T11:52:13Z</time>
      </trkpt>
      <trkpt lat="42.431778" lon="1.466606">
        <ele>833.40649</ele>
        <time>2021-07-02T11:52:14Z</time>
      </trkpt>
      <trkpt lat="42.431717" lon="1.466523">
        <ele>833.32617</ele>
        <time>2021-07-02T11:52:15Z</time>
      </trkpt>
      <trkpt lat="42.431664" lon="1.466447">
        <ele>834.59412</ele>
        <time>2021-07-02T11:52:16Z</time>
      </trkpt>
      <trkpt lat="42.431625" lon="1.466400">
        <ele>833.67285</ele>
        <time>2021-07-02T11:52:17Z</time>
      </trkpt>
      <trkpt lat="42.431595" lon="1.466374">
        <ele>833.57764</ele>
        <time>2021-07-02T11:52:18Z</time>
      </trkpt>
      <trkpt lat="42.431553" lon="1.466341">
        <ele>832.68799</ele>
        <time>2021-07-02T11:52:19Z</time>
      </trkpt>
      <trkpt lat="42.431507" lon="1.466303">
        <ele>832.95764</ele>
        <time>2021-07-02T11:52:20Z</time>
      </trkpt>
      <trkpt lat="42.431458" lon="1.466267">
        <ele>833.45129</ele>
        <time>2021-07-02T11:52:21Z</time>
      </trkpt>
      <trkpt lat="42.431438" lon="1.466254">
        <ele>833.48291</ele>
        <time>2021-07-02T11:52:22Z</time>
      </trkpt>
      <trkpt lat="42.431427" lon="1.466246">
        <ele>833.41309</ele>
        <time>2021-07-02T11:52:23Z</time>
      </trkpt>
      <trkpt lat="42.431423" lon="1.466243">
        <ele>831.18347</ele>
        <time>2021-07-02T11:52:24Z</time>
      </trkpt>
      <trkpt lat="42.431412" lon="1.466236">
        <ele>830.67822</ele>
        <time>2021-07-02T11:52:25Z</time>
      </trkpt>
      <trkpt lat="42.431412" lon="1.466235">
        <ele>830.55823</ele>
        <time>2021-07-02T11:52:26Z</time>
      </trkpt>
      <trkpt lat="42.431412" lon="1.466235">
        <ele>830.97266</ele>
        <time>2021-07-02T11:52:27Z</time>
      </trkpt>
      <trkpt lat="42.431412" lon="1.466235">
        <ele>830.95508</ele>
        <time>2021-07-02T11:52:28Z</time>
      </trkpt>
      <trkpt lat="42.431412" lon="1.466235">
        <ele>831.23840</ele>
        <time>2021-07-02T11:52:29Z</time>
      </trkpt>
      <trkpt lat="42.431412" lon="1.466235">
        <ele>831.25000</ele>
        <time>2021-07-02T11:52:30Z</time>
      </trkpt>
      <trkpt lat="42.431412" lon="1.466235">
        <ele>831.95520</ele>
        <time>2021-07-02T11:52:31Z</time>
      </trkpt>
      <trkpt lat="42.431412" lon="1.466235">
        <ele>833.05084</ele>
        <time>2021-07-02T11:52:32Z</time>
      </trkpt>
      <trkpt lat="42.431412" lon="1.466235">
        <ele>832.96362</ele>
        <time>2021-07-02T11:52:33Z</time>
      </trkpt>
      <trkpt lat="42.431412" lon="1.466235">
        <ele>832.94214</ele>
        <time>2021-07-02T11:52:34Z</time>
      </trkpt>
      <trkpt lat="42.431412" lon="1.466235">
        <ele>832.81665</ele>
        <time>2021-07-02T11:52:35Z</time>
      </trkpt>
      <trkpt lat="42.431412" lon="1.466235">
        <ele>832.71844</ele>
        <time>2021-07-02T11:52:36Z</time>
      </trkpt>
      <trkpt lat="42.431412" lon="1.466235">
        <ele>832.65643</ele>
        <time>2021-07-02T11:52:37Z</time>
      </trkpt>
      <trkpt lat="42.431412" lon="1.466235">
        <ele>832.64825</ele>
        <time>2021-07-02T11:52:38Z</time>
      </trkpt>
      <trkpt lat="42.431412" lon="1.466235">
        <ele>832.71619</ele>
        <time>2021-07-02T11:52:39Z</time>
      </trkpt>
      <trkpt lat="42.431412" lon="1.466235">
        <ele>832.69739</ele>
        <time>2021-07-02T11:52:40Z</time>
      </trkpt>
      <trkpt lat="42.431412" lon="1.466235">
        <ele>832.66840</ele>
        <time>2021-07-02T11:52:41Z</time>
      </trkpt>
      <trkpt lat="42.431412" lon="1.466235">
        <ele>832.60706</ele>
        <time>2021-07-02T11:52:42Z</time>
      </trkpt>
      <trkpt lat="42.431412" lon="1.466235">
        <ele>832.53625</ele>
        <time>2021-07-02T11:52:43Z</time>
      </trkpt>
      <trkpt lat="42.431412" lon="1.466235">
        <ele>832.56958</ele>
        <time>2021-07-02T11:52:44Z</time>
      </trkpt>
      <trkpt lat="42.431412" lon="1.466235">
        <ele>832.50665</ele>
        <time>2021-07-02T11:52:45Z</time>
      </trkpt>
      <trkpt lat="42.431412" lon="1.466235">
        <ele>832.47650</ele>
        <time>2021-07-02T11:52:46Z</time>
      </trkpt>
      <trkpt lat="42.431412" lon="1.466235">
        <ele>832.59033</ele>
        <time>2021-07-02T11:52:47Z</time>
      </trkpt>
      <trkpt lat="42.431412" lon="1.466235">
        <ele>832.46088</ele>
        <time>2021-07-02T11:52:48Z</time>
      </trkpt>
      <trkpt lat="42.431412" lon="1.466235">
        <ele>832.45087</ele>
        <time>2021-07-02T11:52:49Z</time>
      </trkpt>
      <trkpt lat="42.431412" lon="1.466235">
        <ele>832.38745</ele>
        <time>2021-07-02T11:52:50Z</time>
      </trkpt>
      <trkpt lat="42.431412" lon="1.466235">
        <ele>832.36774</ele>
        <time>2021-07-02T11:52:51Z</time>
      </trkpt>
      <trkpt lat="42.431412" lon="1.466235">
        <ele>832.38843</ele>
        <time>2021-07-02T11:52:52Z</time>
      </trkpt>
      <trkpt lat="42.431412" lon="1.466235">
        <ele>832.47638</ele>
        <time>2021-07-02T11:52:53Z</time>
      </trkpt>
      <trkpt lat="42.431412" lon="1.466235">
        <ele>832.52490</ele>
        <time>2021-07-02T11:52:54Z</time>
      </trkpt>
      <trkpt lat="42.431412" lon="1.466235">
        <ele>832.51880</ele>
        <time>2021-07-02T11:52:55Z</time>
      </trkpt>
      <trkpt lat="42.431412" lon="1.466235">
        <ele>832.40350</ele>
        <time>2021-07-02T11:52:56Z</time>
      </trkpt>
      <trkpt lat="42.431412" lon="1.466235">
        <ele>832.31769</ele>
        <time>2021-07-02T11:52:57Z</time>
      </trkpt>
      <trkpt lat="42.431412" lon="1.466235">
        <ele>832.32831</ele>
        <time>2021-07-02T11:52:58Z</time>
      </trkpt>
      <trkpt lat="42.431412" lon="1.466235">
        <ele>832.40009</ele>
        <time>2021-07-02T11:52:59Z</time>
      </trkpt>
      <trkpt lat="42.431412" lon="1.466235">
        <ele>832.22156</ele>
        <time>2021-07-02T11:53:00Z</time>
      </trkpt>
      <trkpt lat="42.431412" lon="1.466235">
        <ele>832.20258</ele>
        <time>2021-07-02T11:53:01Z</time>
      </trkpt>
      <trkpt lat="42.431412" lon="1.466235">
        <ele>832.13977</ele>
        <time>2021-07-02T11:53:02Z</time>
      </trkpt>
      <trkpt lat="42.431412" lon="1.466235">
        <ele>832.25836</ele>
        <time>2021-07-02T11:53:03Z</time>
      </trkpt>
      <trkpt lat="42.431412" lon="1.466235">
        <ele>832.29529</ele>
        <time>2021-07-02T11:53:04Z</time>
      </trkpt>
      <trkpt lat="42.431412" lon="1.466235">
        <ele>832.24963</ele>
        <time>2021-07-02T11:53:05Z</time>
      </trkpt>
      <trkpt lat="42.431412" lon="1.466235">
        <ele>832.33801</ele>
        <time>2021-07-02T11:53:06Z</time>
      </trkpt>
      <trkpt lat="42.431412" lon="1.466235">
        <ele>832.33038</ele>
        <time>2021-07-02T11:53:07Z</time>
      </trkpt>
      <trkpt lat="42.431412" lon="1.466235">
        <ele>832.29370</ele>
        <time>2021-07-02T11:53:08Z</time>
      </trkpt>
      <trkpt lat="42.431412" lon="1.466235">
        <ele>832.22119</ele>
        <time>2021-07-02T11:53:09Z</time>
      </trkpt>
      <trkpt lat="42.431412" lon="1.466235">
        <ele>832.40936</ele>
        <time>2021-07-02T11:53:10Z</time>
      </trkpt>
      <trkpt lat="42.431412" lon="1.466235">
        <ele>832.46881</ele>
        <time>2021-07-02T11:53:11Z</time>
      </trkpt>
      <trkpt lat="42.431412" lon="1.466235">
        <ele>832.44958</ele>
        <time>2021-07-02T11:53:12Z</time>
      </trkpt>
      <trkpt lat="42.431412" lon="1.466235">
        <ele>832.68689</ele>
        <time>2021-07-02T11:53:13Z</time>
      </trkpt>
      <trkpt lat="42.431412" lon="1.466235">
        <ele>832.66052</ele>
        <time>2021-07-02T11:53:14Z</time>
      </trkpt>
      <trkpt lat="42.431412" lon="1.466235">
        <ele>832.72943</ele>
        <time>2021-07-02T11:53:15Z</time>
      </trkpt>
      <trkpt lat="42.431412" lon="1.466235">
        <ele>832.73572</ele>
        <time>2021-07-02T11:53:16Z</time>
      </trkpt>
      <trkpt lat="42.431412" lon="1.466235">
        <ele>832.73895</ele>
        <time>2021-07-02T11:53:17Z</time>
      </trkpt>
      <trkpt lat="42.431412" lon="1.466235">
        <ele>832.63647</ele>
        <time>2021-07-02T11:53:18Z</time>
      </trkpt>
      <trkpt lat="42.431412" lon="1.466235">
        <ele>832.52582</ele>
        <time>2021-07-02T11:53:19Z</time>
      </trkpt>
      <trkpt lat="42.431412" lon="1.466235">
        <ele>832.42102</ele>
        <time>2021-07-02T11:53:20Z</time>
      </trkpt>
      <trkpt lat="42.431412" lon="1.466235">
        <ele>832.32660</ele>
        <time>2021-07-02T11:53:21Z</time>
      </trkpt>
      <trkpt lat="42.431412" lon="1.466235">
        <ele>832.30847</ele>
        <time>2021-07-02T11:53:22Z</time>
      </trkpt>
      <trkpt lat="42.431412" lon="1.466235">
        <ele>832.76215</ele>
        <time>2021-07-02T11:53:23Z</time>
      </trkpt>
      <trkpt lat="42.431412" lon="1.466235">
        <ele>832.86957</ele>
        <time>2021-07-02T11:53:24Z</time>
      </trkpt>
      <trkpt lat="42.431412" lon="1.466235">
        <ele>832.69299</ele>
        <time>2021-07-02T11:53:25Z</time>
      </trkpt>
      <trkpt lat="42.431412" lon="1.466235">
        <ele>832.60052</ele>
        <time>2021-07-02T11:53:26Z</time>
      </trkpt>
      <trkpt lat="42.431412" lon="1.466235">
        <ele>832.24805</ele>
        <time>2021-07-02T11:53:27Z</time>
      </trkpt>
      <trkpt lat="42.431412" lon="1.466235">
        <ele>832.10016</ele>
        <time>2021-07-02T11:53:28Z</time>
      </trkpt>
      <trkpt lat="42.431412" lon="1.466235">
        <ele>831.78882</ele>
        <time>2021-07-02T11:53:29Z</time>
      </trkpt>
      <trkpt lat="42.431412" lon="1.466235">
        <ele>831.57507</ele>
        <time>2021-07-02T11:53:30Z</time>
      </trkpt>
      <trkpt lat="42.431412" lon="1.466235">
        <ele>831.66565</ele>
        <time>2021-07-02T11:53:31Z</time>
      </trkpt>
      <trkpt lat="42.431412" lon="1.466235">
        <ele>831.53076</ele>
        <time>2021-07-02T11:53:32Z</time>
      </trkpt>
      <trkpt lat="42.431412" lon="1.466235">
        <ele>831.56763</ele>
        <time>2021-07-02T11:53:33Z</time>
      </trkpt>
      <trkpt lat="42.431412" lon="1.466235">
        <ele>831.55884</ele>
        <time>2021-07-02T11:53:34Z</time>
      </trkpt>
      <trkpt lat="42.431412" lon="1.466235">
        <ele>831.26074</ele>
        <time>2021-07-02T11:53:35Z</time>
      </trkpt>
      <trkpt lat="42.431412" lon="1.466235">
        <ele>830.63501</ele>
        <time>2021-07-02T11:53:36Z</time>
      </trkpt>
      <trkpt lat="42.431412" lon="1.466235">
        <ele>829.50183</ele>
        <time>2021-07-02T11:53:37Z</time>
      </trkpt>
      <trkpt lat="42.431404" lon="1.466231">
        <ele>830.20679</ele>
        <time>2021-07-02T11:53:38Z</time>
      </trkpt>
      <trkpt lat="42.431389" lon="1.466224">
        <ele>828.55957</ele>
        <time>2021-07-02T11:53:39Z</time>
      </trkpt>
      <trkpt lat="42.431374" lon="1.466216">
        <ele>826.84692</ele>
        <time>2021-07-02T11:53:40Z</time>
      </trkpt>
      <trkpt lat="42.431347" lon="1.466209">
        <ele>826.87280</ele>
        <time>2021-07-02T11:53:41Z</time>
      </trkpt>
      <trkpt lat="42.431305" lon="1.466201">
        <ele>826.36047</ele>
        <time>2021-07-02T11:53:42Z</time>
      </trkpt>
      <trkpt lat="42.431263" lon="1.466198">
        <ele>826.79932</ele>
        <time>2021-07-02T11:53:43Z</time>
      </trkpt>
      <trkpt lat="42.431194" lon="1.466200">
        <ele>825.86426</ele>
        <time>2021-07-02T11:53:44Z</time>
      </trkpt>
      <trkpt lat="42.431122" lon="1.466203">
        <ele>824.21313</ele>
        <time>2021-07-02T11:53:45Z</time>
      </trkpt>
      <trkpt lat="42.431042" lon="1.466223">
        <ele>824.24780</ele>
        <time>2021-07-02T11:53:46Z</time>
      </trkpt>
      <trkpt lat="42.430958" lon="1.466262">
        <ele>824.98364</ele>
        <time>2021-07-02T11:53:47Z</time>
      </trkpt>
      <trkpt lat="42.430866" lon="1.466319">
        <ele>824.60400</ele>
        <time>2021-07-02T11:53:48Z</time>
      </trkpt>
      <trkpt lat="42.430820" lon="1.466358">
        <ele>823.84399</ele>
        <time>2021-07-02T11:53:49Z</time>
      </trkpt>
      <trkpt lat="42.430817" lon="1.466370">
        <ele>824.05493</ele>
        <time>2021-07-02T11:53:50Z</time>
      </trkpt>
      <trkpt lat="42.430576" lon="1.466574">
        <ele>824.73950</ele>
        <time>2021-07-02T11:53:51Z</time>
      </trkpt>
      <trkpt lat="42.430473" lon="1.466653">
        <ele>824.54248</ele>
        <time>2021-07-02T11:53:52Z</time>
      </trkpt>
      <trkpt lat="42.430336" lon="1.466711">
        <ele>825.42456</ele>
        <time>2021-07-02T11:53:53Z</time>
      </trkpt>
      <trkpt lat="42.430149" lon="1.466715">
        <ele>825.87109</ele>
        <time>2021-07-02T11:53:54Z</time>
      </trkpt>
      <trkpt lat="42.430149" lon="1.466715">
        <ele>825.17700</ele>
        <time>2021-07-02T11:53:55Z</time>
      </trkpt>
      <trkpt lat="42.429977" lon="1.466689">
        <ele>824.88477</ele>
        <time>2021-07-02T11:53:56Z</time>
      </trkpt>
      <trkpt lat="42.429810" lon="1.466642">
        <ele>824.60840</ele>
        <time>2021-07-02T11:53:57Z</time>
      </trkpt>
      <trkpt lat="42.429619" lon="1.466597">
        <ele>822.74146</ele>
        <time>2021-07-02T11:53:58Z</time>
      </trkpt>
      <trkpt lat="42.429417" lon="1.466493">
        <ele>822.32581</ele>
        <time>2021-07-02T11:53:59Z</time>
      </trkpt>
      <trkpt lat="42.429234" lon="1.466339">
        <ele>822.02661</ele>
        <time>2021-07-02T11:54:00Z</time>
      </trkpt>
      <trkpt lat="42.429081" lon="1.466163">
        <ele>821.94238</ele>
        <time>2021-07-02T11:54:01Z</time>
      </trkpt>
      <trkpt lat="42.428944" lon="1.465993">
        <ele>822.15186</ele>
        <time>2021-07-02T11:54:02Z</time>
      </trkpt>
      <trkpt lat="42.428814" lon="1.465810">
        <ele>821.67004</ele>
        <time>2021-07-02T11:54:03Z</time>
      </trkpt>
      <trkpt lat="42.428677" lon="1.465616">
        <ele>821.89844</ele>
        <time>2021-07-02T11:54:04Z</time>
      </trkpt>
      <trkpt lat="42.428543" lon="1.465423">
        <ele>821.83545</ele>
        <time>2021-07-02T11:54:05Z</time>
      </trkpt>
      <trkpt lat="42.428406" lon="1.465213">
        <ele>821.65503</ele>
        <time>2021-07-02T11:54:06Z</time>
      </trkpt>
      <trkpt lat="42.428272" lon="1.465005">
        <ele>821.60620</ele>
        <time>2021-07-02T11:54:07Z</time>
      </trkpt>
      <trkpt lat="42.428162" lon="1.464828">
        <ele>821.60193</ele>
        <time>2021-07-02T11:54:08Z</time>
      </trkpt>
      <trkpt lat="42.428036" lon="1.464637">
        <ele>821.64185</ele>
        <time>2021-07-02T11:54:09Z</time>
      </trkpt>
      <trkpt lat="42.427910" lon="1.464426">
        <ele>821.14380</ele>
        <time>2021-07-02T11:54:10Z</time>
      </trkpt>
      <trkpt lat="42.427769" lon="1.464186">
        <ele>822.75220</ele>
        <time>2021-07-02T11:54:11Z</time>
      </trkpt>
      <trkpt lat="42.427628" lon="1.463948">
        <ele>823.71570</ele>
        <time>2021-07-02T11:54:12Z</time>
      </trkpt>
      <trkpt lat="42.427479" lon="1.463717">
        <ele>823.70471</ele>
        <time>2021-07-02T11:54:13Z</time>
      </trkpt>
      <trkpt lat="42.427338" lon="1.463521">
        <ele>823.61658</ele>
        <time>2021-07-02T11:54:14Z</time>
      </trkpt>
      <trkpt lat="42.427204" lon="1.463330">
        <ele>823.55151</ele>
        <time>2021-07-02T11:54:15Z</time>
      </trkpt>
      <trkpt lat="42.427132" lon="1.463137">
        <ele>823.98340</ele>
        <time>2021-07-02T11:54:16Z</time>
      </trkpt>
      <trkpt lat="42.427036" lon="1.462973">
        <ele>828.08984</ele>
        <time>2021-07-02T11:54:17Z</time>
      </trkpt>
      <trkpt lat="42.426949" lon="1.462844">
        <ele>826.46033</ele>
        <time>2021-07-02T11:54:18Z</time>
      </trkpt>
      <trkpt lat="42.426857" lon="1.462706">
        <ele>824.87836</ele>
        <time>2021-07-02T11:54:19Z</time>
      </trkpt>
      <trkpt lat="42.426804" lon="1.462595">
        <ele>823.99585</ele>
        <time>2021-07-02T11:54:20Z</time>
      </trkpt>
      <trkpt lat="42.426750" lon="1.462464">
        <ele>822.17163</ele>
        <time>2021-07-02T11:54:21Z</time>
      </trkpt>
      <trkpt lat="42.426720" lon="1.462313">
        <ele>821.94116</ele>
        <time>2021-07-02T11:54:22Z</time>
      </trkpt>
      <trkpt lat="42.426643" lon="1.462178">
        <ele>822.23828</ele>
        <time>2021-07-02T11:54:23Z</time>
      </trkpt>
      <trkpt lat="42.426559" lon="1.462134">
        <ele>823.01233</ele>
        <time>2021-07-02T11:54:24Z</time>
      </trkpt>
      <trkpt lat="42.426559" lon="1.462134">
        <ele>823.79541</ele>
        <time>2021-07-02T11:54:25Z</time>
      </trkpt>
      <trkpt lat="42.426487" lon="1.462131">
        <ele>823.50525</ele>
        <time>2021-07-02T11:54:26Z</time>
      </trkpt>
      <trkpt lat="42.426334" lon="1.462255">
        <ele>824.56854</ele>
        <time>2021-07-02T11:54:27Z</time>
      </trkpt>
      <trkpt lat="42.426128" lon="1.462022">
        <ele>824.23218</ele>
        <time>2021-07-02T11:54:28Z</time>
      </trkpt>
      <trkpt lat="42.425972" lon="1.461967">
        <ele>821.50610</ele>
        <time>2021-07-02T11:54:29Z</time>
      </trkpt>
      <trkpt lat="42.425758" lon="1.461892">
        <ele>820.12866</ele>
        <time>2021-07-02T11:54:30Z</time>
      </trkpt>
      <trkpt lat="42.425556" lon="1.461832">
        <ele>819.57654</ele>
        <time>2021-07-02T11:54:31Z</time>
      </trkpt>
      <trkpt lat="42.425335" lon="1.461795">
        <ele>817.54980</ele>
        <time>2021-07-02T11:54:32Z</time>
      </trkpt>
      <trkpt lat="42.425117" lon="1.461755">
        <ele>816.04089</ele>
        <time>2021-07-02T11:54:33Z</time>
      </trkpt>
      <trkpt lat="42.424896" lon="1.461754">
        <ele>815.07349</ele>
        <time>2021-07-02T11:54:34Z</time>
      </trkpt>
      <trkpt lat="42.424664" lon="1.461763">
        <ele>813.47363</ele>
        <time>2021-07-02T11:54:35Z</time>
      </trkpt>
      <trkpt lat="42.424431" lon="1.461795">
        <ele>812.77905</ele>
        <time>2021-07-02T11:54:36Z</time>
      </trkpt>
      <trkpt lat="42.424198" lon="1.461856">
        <ele>812.00647</ele>
        <time>2021-07-02T11:54:37Z</time>
      </trkpt>
      <trkpt lat="42.423962" lon="1.461924">
        <ele>811.53687</ele>
        <time>2021-07-02T11:54:38Z</time>
      </trkpt>
      <trkpt lat="42.423717" lon="1.462000">
        <ele>810.82153</ele>
        <time>2021-07-02T11:54:39Z</time>
      </trkpt>
      <trkpt lat="42.423473" lon="1.462065">
        <ele>809.98706</ele>
        <time>2021-07-02T11:54:40Z</time>
      </trkpt>
      <trkpt lat="42.423222" lon="1.462126">
        <ele>809.66589</ele>
        <time>2021-07-02T11:54:41Z</time>
      </trkpt>
      <trkpt lat="42.422955" lon="1.462159">
        <ele>808.81641</ele>
        <time>2021-07-02T11:54:42Z</time>
      </trkpt>
      <trkpt lat="42.422672" lon="1.462189">
        <ele>809.23730</ele>
        <time>2021-07-02T11:54:43Z</time>
      </trkpt>
      <trkpt lat="42.422413" lon="1.462208">
        <ele>809.45837</ele>
        <time>2021-07-02T11:54:44Z</time>
      </trkpt>
      <trkpt lat="42.422165" lon="1.462227">
        <ele>809.61694</ele>
        <time>2021-07-02T11:54:45Z</time>
      </trkpt>
      <trkpt lat="42.421906" lon="1.462247">
        <ele>810.07593</ele>
        <time>2021-07-02T11:54:46Z</time>
      </trkpt>
      <trkpt lat="42.421665" lon="1.462288">
        <ele>810.53528</ele>
        <time>2021-07-02T11:54:47Z</time>
      </trkpt>
      <trkpt lat="42.421410" lon="1.462348">
        <ele>810.89697</ele>
        <time>2021-07-02T11:54:48Z</time>
      </trkpt>
      <trkpt lat="42.421169" lon="1.462437">
        <ele>810.80664</ele>
        <time>2021-07-02T11:54:49Z</time>
      </trkpt>
      <trkpt lat="42.420975" lon="1.462537">
        <ele>810.71057</ele>
        <time>2021-07-02T11:54:50Z</time>
      </trkpt>
      <trkpt lat="42.420753" lon="1.462673">
        <ele>811.09375</ele>
        <time>2021-07-02T11:54:51Z</time>
      </trkpt>
      <trkpt lat="42.420551" lon="1.462807">
        <ele>811.65698</ele>
        <time>2021-07-02T11:54:52Z</time>
      </trkpt>
      <trkpt lat="42.420380" lon="1.462951">
        <ele>811.85596</ele>
        <time>2021-07-02T11:54:53Z</time>
      </trkpt>
      <trkpt lat="42.420212" lon="1.463093">
        <ele>811.83655</ele>
        <time>2021-07-02T11:54:54Z</time>
      </trkpt>
      <trkpt lat="42.420048" lon="1.463237">
        <ele>812.26538</ele>
        <time>2021-07-02T11:54:55Z</time>
      </trkpt>
      <trkpt lat="42.419891" lon="1.463375">
        <ele>812.40198</ele>
        <time>2021-07-02T11:54:56Z</time>
      </trkpt>
      <trkpt lat="42.419750" lon="1.463496">
        <ele>811.99304</ele>
        <time>2021-07-02T11:54:57Z</time>
      </trkpt>
      <trkpt lat="42.419601" lon="1.463630">
        <ele>813.20874</ele>
        <time>2021-07-02T11:54:58Z</time>
      </trkpt>
      <trkpt lat="42.419601" lon="1.463630">
        <ele>813.59869</ele>
        <time>2021-07-02T11:54:59Z</time>
      </trkpt>
      <trkpt lat="42.419449" lon="1.463752">
        <ele>813.31775</ele>
        <time>2021-07-02T11:55:00Z</time>
      </trkpt>
      <trkpt lat="42.419163" lon="1.463975">
        <ele>813.40094</ele>
        <time>2021-07-02T11:55:01Z</time>
      </trkpt>
      <trkpt lat="42.419163" lon="1.463975">
        <ele>812.96722</ele>
        <time>2021-07-02T11:55:02Z</time>
      </trkpt>
      <trkpt lat="42.419025" lon="1.464078">
        <ele>812.81635</ele>
        <time>2021-07-02T11:55:03Z</time>
      </trkpt>
      <trkpt lat="42.418888" lon="1.464178">
        <ele>813.06042</ele>
        <time>2021-07-02T11:55:04Z</time>
      </trkpt>
      <trkpt lat="42.418743" lon="1.464282">
        <ele>812.72272</ele>
        <time>2021-07-02T11:55:05Z</time>
      </trkpt>
      <trkpt lat="42.418598" lon="1.464387">
        <ele>813.09296</ele>
        <time>2021-07-02T11:55:06Z</time>
      </trkpt>
      <trkpt lat="42.418442" lon="1.464497">
        <ele>812.40723</ele>
        <time>2021-07-02T11:55:07Z</time>
      </trkpt>
      <trkpt lat="42.418282" lon="1.464612">
        <ele>811.64417</ele>
        <time>2021-07-02T11:55:08Z</time>
      </trkpt>
      <trkpt lat="42.418091" lon="1.464723">
        <ele>810.82739</ele>
        <time>2021-07-02T11:55:09Z</time>
      </trkpt>
      <trkpt lat="42.417900" lon="1.464823">
        <ele>810.19812</ele>
        <time>2021-07-02T11:55:10Z</time>
      </trkpt>
      <trkpt lat="42.417698" lon="1.464900">
        <ele>809.59644</ele>
        <time>2021-07-02T11:55:11Z</time>
      </trkpt>
      <trkpt lat="42.417492" lon="1.464955">
        <ele>809.17529</ele>
        <time>2021-07-02T11:55:12Z</time>
      </trkpt>
      <trkpt lat="42.417271" lon="1.464988">
        <ele>808.34790</ele>
        <time>2021-07-02T11:55:13Z</time>
      </trkpt>
      <trkpt lat="42.417049" lon="1.464991">
        <ele>807.84863</ele>
        <time>2021-07-02T11:55:14Z</time>
      </trkpt>
      <trkpt lat="42.416821" lon="1.464983">
        <ele>806.73962</ele>
        <time>2021-07-02T11:55:15Z</time>
      </trkpt>
      <trkpt lat="42.416588" lon="1.464967">
        <ele>805.49365</ele>
        <time>2021-07-02T11:55:16Z</time>
      </trkpt>
      <trkpt lat="42.416378" lon="1.464935">
        <ele>804.34766</ele>
        <time>2021-07-02T11:55:17Z</time>
      </trkpt>
      <trkpt lat="42.416164" lon="1.464885">
        <ele>803.91711</ele>
        <time>2021-07-02T11:55:18Z</time>
      </trkpt>
      <trkpt lat="42.415955" lon="1.464832">
        <ele>803.62915</ele>
        <time>2021-07-02T11:55:19Z</time>
      </trkpt>
      <trkpt lat="42.415741" lon="1.464761">
        <ele>803.32532</ele>
        <time>2021-07-02T11:55:20Z</time>
      </trkpt>
      <trkpt lat="42.415543" lon="1.464686">
        <ele>803.03442</ele>
        <time>2021-07-02T11:55:21Z</time>
      </trkpt>
      <trkpt lat="42.415310" lon="1.464594">
        <ele>801.75391</ele>
        <time>2021-07-02T11:55:22Z</time>
      </trkpt>
      <trkpt lat="42.415089" lon="1.464508">
        <ele>801.11255</ele>
        <time>2021-07-02T11:55:23Z</time>
      </trkpt>
      <trkpt lat="42.414913" lon="1.464461">
        <ele>800.77002</ele>
        <time>2021-07-02T11:55:24Z</time>
      </trkpt>
      <trkpt lat="42.414692" lon="1.464422">
        <ele>800.32251</ele>
        <time>2021-07-02T11:55:25Z</time>
      </trkpt>
      <trkpt lat="42.414471" lon="1.464416">
        <ele>799.92456</ele>
        <time>2021-07-02T11:55:26Z</time>
      </trkpt>
      <trkpt lat="42.414268" lon="1.464439">
        <ele>799.33887</ele>
        <time>2021-07-02T11:55:27Z</time>
      </trkpt>
      <trkpt lat="42.414066" lon="1.464481">
        <ele>797.92517</ele>
        <time>2021-07-02T11:55:28Z</time>
      </trkpt>
      <trkpt lat="42.413872" lon="1.464538">
        <ele>796.95288</ele>
        <time>2021-07-02T11:55:29Z</time>
      </trkpt>
      <trkpt lat="42.413692" lon="1.464624">
        <ele>797.07410</ele>
        <time>2021-07-02T11:55:30Z</time>
      </trkpt>
      <trkpt lat="42.413502" lon="1.464723">
        <ele>797.05176</ele>
        <time>2021-07-02T11:55:31Z</time>
      </trkpt>
      <trkpt lat="42.413502" lon="1.464723">
        <ele>797.45679</ele>
        <time>2021-07-02T11:55:32Z</time>
      </trkpt>
      <trkpt lat="42.413311" lon="1.464857">
        <ele>797.45557</ele>
        <time>2021-07-02T11:55:33Z</time>
      </trkpt>
      <trkpt lat="42.413155" lon="1.464999">
        <ele>797.64624</ele>
        <time>2021-07-02T11:55:34Z</time>
      </trkpt>
      <trkpt lat="42.413013" lon="1.465138">
        <ele>795.97241</ele>
        <time>2021-07-02T11:55:35Z</time>
      </trkpt>
      <trkpt lat="42.412884" lon="1.465283">
        <ele>797.37695</ele>
        <time>2021-07-02T11:55:36Z</time>
      </trkpt>
      <trkpt lat="42.412762" lon="1.465447">
        <ele>797.26074</ele>
        <time>2021-07-02T11:55:37Z</time>
      </trkpt>
      <trkpt lat="42.412643" lon="1.465619">
        <ele>797.74988</ele>
        <time>2021-07-02T11:55:38Z</time>
      </trkpt>
      <trkpt lat="42.412537" lon="1.465803">
        <ele>797.31763</ele>
        <time>2021-07-02T11:55:39Z</time>
      </trkpt>
      <trkpt lat="42.412426" lon="1.466006">
        <ele>797.15704</ele>
        <time>2021-07-02T11:55:40Z</time>
      </trkpt>
      <trkpt lat="42.412327" lon="1.466209">
        <ele>797.96649</ele>
        <time>2021-07-02T11:55:41Z</time>
      </trkpt>
      <trkpt lat="42.412224" lon="1.466417">
        <ele>798.08899</ele>
        <time>2021-07-02T11:55:42Z</time>
      </trkpt>
      <trkpt lat="42.412121" lon="1.466634">
        <ele>798.25354</ele>
        <time>2021-07-02T11:55:43Z</time>
      </trkpt>
      <trkpt lat="42.412018" lon="1.466850">
        <ele>798.07617</ele>
        <time>2021-07-02T11:55:44Z</time>
      </trkpt>
      <trkpt lat="42.411907" lon="1.467068">
        <ele>798.17334</ele>
        <time>2021-07-02T11:55:45Z</time>
      </trkpt>
      <trkpt lat="42.411789" lon="1.467278">
        <ele>797.71741</ele>
        <time>2021-07-02T11:55:46Z</time>
      </trkpt>
      <trkpt lat="42.411648" lon="1.467492">
        <ele>797.24536</ele>
        <time>2021-07-02T11:55:47Z</time>
      </trkpt>
      <trkpt lat="42.411495" lon="1.467706">
        <ele>795.83057</ele>
        <time>2021-07-02T11:55:48Z</time>
      </trkpt>
      <trkpt lat="42.411331" lon="1.467897">
        <ele>795.23169</ele>
        <time>2021-07-02T11:55:49Z</time>
      </trkpt>
      <trkpt lat="42.411171" lon="1.468058">
        <ele>794.06213</ele>
        <time>2021-07-02T11:55:50Z</time>
      </trkpt>
      <trkpt lat="42.410995" lon="1.468216">
        <ele>792.46265</ele>
        <time>2021-07-02T11:55:51Z</time>
      </trkpt>
      <trkpt lat="42.410793" lon="1.468361">
        <ele>791.54126</ele>
        <time>2021-07-02T11:55:52Z</time>
      </trkpt>
      <trkpt lat="42.410580" lon="1.468500">
        <ele>789.67810</ele>
        <time>2021-07-02T11:55:53Z</time>
      </trkpt>
      <trkpt lat="42.410374" lon="1.468608">
        <ele>788.49780</ele>
        <time>2021-07-02T11:55:54Z</time>
      </trkpt>
      <trkpt lat="42.410156" lon="1.468699">
        <ele>787.46545</ele>
        <time>2021-07-02T11:55:55Z</time>
      </trkpt>
      <trkpt lat="42.410156" lon="1.468699">
        <ele>786.46716</ele>
        <time>2021-07-02T11:55:56Z</time>
      </trkpt>
      <trkpt lat="42.409954" lon="1.468769">
        <ele>785.19409</ele>
        <time>2021-07-02T11:55:57Z</time>
      </trkpt>
      <trkpt lat="42.409740" lon="1.468822">
        <ele>784.36548</ele>
        <time>2021-07-02T11:55:58Z</time>
      </trkpt>
      <trkpt lat="42.409676" lon="1.468839">
        <ele>783.52307</ele>
        <time>2021-07-02T11:55:59Z</time>
      </trkpt>
      <trkpt lat="42.409676" lon="1.468839">
        <ele>783.23267</ele>
        <time>2021-07-02T11:56:00Z</time>
      </trkpt>
      <trkpt lat="42.409458" lon="1.468877">
        <ele>782.77979</ele>
        <time>2021-07-02T11:56:01Z</time>
      </trkpt>
      <trkpt lat="42.408939" lon="1.468967">
        <ele>782.49548</ele>
        <time>2021-07-02T11:56:02Z</time>
      </trkpt>
      <trkpt lat="42.408726" lon="1.469005">
        <ele>782.34814</ele>
        <time>2021-07-02T11:56:03Z</time>
      </trkpt>
      <trkpt lat="42.408527" lon="1.469039">
        <ele>782.15503</ele>
        <time>2021-07-02T11:56:04Z</time>
      </trkpt>
      <trkpt lat="42.408356" lon="1.469069">
        <ele>782.28528</ele>
        <time>2021-07-02T11:56:05Z</time>
      </trkpt>
      <trkpt lat="42.408176" lon="1.469090">
        <ele>782.21729</ele>
        <time>2021-07-02T11:56:06Z</time>
      </trkpt>
      <trkpt lat="42.407974" lon="1.469106">
        <ele>781.55542</ele>
        <time>2021-07-02T11:56:07Z</time>
      </trkpt>
      <trkpt lat="42.407787" lon="1.469102">
        <ele>781.06152</ele>
        <time>2021-07-02T11:56:08Z</time>
      </trkpt>
      <trkpt lat="42.407593" lon="1.469085">
        <ele>781.30786</ele>
        <time>2021-07-02T11:56:09Z</time>
      </trkpt>
      <trkpt lat="42.407394" lon="1.469055">
        <ele>780.85962</ele>
        <time>2021-07-02T11:56:10Z</time>
      </trkpt>
      <trkpt lat="42.407200" lon="1.469000">
        <ele>780.66052</ele>
        <time>2021-07-02T11:56:11Z</time>
      </trkpt>
      <trkpt lat="42.407017" lon="1.468942">
        <ele>780.47778</ele>
        <time>2021-07-02T11:56:12Z</time>
      </trkpt>
      <trkpt lat="42.406857" lon="1.468881">
        <ele>780.50781</ele>
        <time>2021-07-02T11:56:13Z</time>
      </trkpt>
      <trkpt lat="42.406696" lon="1.468792">
        <ele>780.31311</ele>
        <time>2021-07-02T11:56:14Z</time>
      </trkpt>
      <trkpt lat="42.406544" lon="1.468700">
        <ele>780.32812</ele>
        <time>2021-07-02T11:56:15Z</time>
      </trkpt>
      <trkpt lat="42.406391" lon="1.468604">
        <ele>780.15503</ele>
        <time>2021-07-02T11:56:16Z</time>
      </trkpt>
      <trkpt lat="42.406254" lon="1.468504">
        <ele>781.16931</ele>
        <time>2021-07-02T11:56:17Z</time>
      </trkpt>
      <trkpt lat="42.406101" lon="1.468373">
        <ele>781.70404</ele>
        <time>2021-07-02T11:56:18Z</time>
      </trkpt>
      <trkpt lat="42.405933" lon="1.468219">
        <ele>781.50427</ele>
        <time>2021-07-02T11:56:19Z</time>
      </trkpt>
      <trkpt lat="42.405777" lon="1.468050">
        <ele>781.08618</ele>
        <time>2021-07-02T11:56:20Z</time>
      </trkpt>
      <trkpt lat="42.405640" lon="1.467887">
        <ele>780.92664</ele>
        <time>2021-07-02T11:56:21Z</time>
      </trkpt>
      <trkpt lat="42.405514" lon="1.467694">
        <ele>780.64868</ele>
        <time>2021-07-02T11:56:22Z</time>
      </trkpt>
      <trkpt lat="42.405388" lon="1.467503">
        <ele>780.70959</ele>
        <time>2021-07-02T11:56:23Z</time>
      </trkpt>
      <trkpt lat="42.405258" lon="1.467298">
        <ele>779.90613</ele>
        <time>2021-07-02T11:56:24Z</time>
      </trkpt>
      <trkpt lat="42.405148" lon="1.467102">
        <ele>780.11829</ele>
        <time>2021-07-02T11:56:25Z</time>
      </trkpt>
      <trkpt lat="42.405033" lon="1.466895">
        <ele>780.19165</ele>
        <time>2021-07-02T11:56:26Z</time>
      </trkpt>
      <trkpt lat="42.404919" lon="1.466694">
        <ele>779.80688</ele>
        <time>2021-07-02T11:56:27Z</time>
      </trkpt>
      <trkpt lat="42.404797" lon="1.466480">
        <ele>779.29834</ele>
        <time>2021-07-02T11:56:28Z</time>
      </trkpt>
      <trkpt lat="42.404686" lon="1.466279">
        <ele>778.77856</ele>
        <time>2021-07-02T11:56:29Z</time>
      </trkpt>
      <trkpt lat="42.404591" lon="1.466085">
        <ele>778.35913</ele>
        <time>2021-07-02T11:56:30Z</time>
      </trkpt>
      <trkpt lat="42.404480" lon="1.465877">
        <ele>778.37329</ele>
        <time>2021-07-02T11:56:31Z</time>
      </trkpt>
      <trkpt lat="42.404373" lon="1.465670">
        <ele>778.39600</ele>
        <time>2021-07-02T11:56:32Z</time>
      </trkpt>
      <trkpt lat="42.404373" lon="1.465670">
        <ele>777.82617</ele>
        <time>2021-07-02T11:56:33Z</time>
      </trkpt>
      <trkpt lat="42.404266" lon="1.465467">
        <ele>777.58215</ele>
        <time>2021-07-02T11:56:34Z</time>
      </trkpt>
      <trkpt lat="42.404167" lon="1.465277">
        <ele>776.98975</ele>
        <time>2021-07-02T11:56:35Z</time>
      </trkpt>
      <trkpt lat="42.404068" lon="1.465072">
        <ele>776.87036</ele>
        <time>2021-07-02T11:56:36Z</time>
      </trkpt>
      <trkpt lat="42.403969" lon="1.464854">
        <ele>776.41150</ele>
        <time>2021-07-02T11:56:37Z</time>
      </trkpt>
      <trkpt lat="42.403870" lon="1.464643">
        <ele>776.70337</ele>
        <time>2021-07-02T11:56:38Z</time>
      </trkpt>
      <trkpt lat="42.403770" lon="1.464438">
        <ele>776.19727</ele>
        <time>2021-07-02T11:56:39Z</time>
      </trkpt>
      <trkpt lat="42.403679" lon="1.464241">
        <ele>775.60010</ele>
        <time>2021-07-02T11:56:40Z</time>
      </trkpt>
      <trkpt lat="42.403595" lon="1.464053">
        <ele>775.10376</ele>
        <time>2021-07-02T11:56:41Z</time>
      </trkpt>
      <trkpt lat="42.403503" lon="1.463873">
        <ele>774.74304</ele>
        <time>2021-07-02T11:56:42Z</time>
      </trkpt>
      <trkpt lat="42.403412" lon="1.463691">
        <ele>774.77637</ele>
        <time>2021-07-02T11:56:43Z</time>
      </trkpt>
      <trkpt lat="42.403313" lon="1.463524">
        <ele>774.35474</ele>
        <time>2021-07-02T11:56:44Z</time>
      </trkpt>
      <trkpt lat="42.403194" lon="1.463345">
        <ele>774.37854</ele>
        <time>2021-07-02T11:56:45Z</time>
      </trkpt>
      <trkpt lat="42.403057" lon="1.463177">
        <ele>774.37866</ele>
        <time>2021-07-02T11:56:46Z</time>
      </trkpt>
      <trkpt lat="42.402912" lon="1.463037">
        <ele>774.35083</ele>
        <time>2021-07-02T11:56:47Z</time>
      </trkpt>
      <trkpt lat="42.402767" lon="1.462904">
        <ele>773.58594</ele>
        <time>2021-07-02T11:56:48Z</time>
      </trkpt>
      <trkpt lat="42.402611" lon="1.462792">
        <ele>773.35022</ele>
        <time>2021-07-02T11:56:49Z</time>
      </trkpt>
      <trkpt lat="42.402447" lon="1.462699">
        <ele>773.59106</ele>
        <time>2021-07-02T11:56:50Z</time>
      </trkpt>
      <trkpt lat="42.402271" lon="1.462609">
        <ele>773.45190</ele>
        <time>2021-07-02T11:56:51Z</time>
      </trkpt>
      <trkpt lat="42.402084" lon="1.462542">
        <ele>774.01733</ele>
        <time>2021-07-02T11:56:52Z</time>
      </trkpt>
      <trkpt lat="42.401913" lon="1.462503">
        <ele>773.98682</ele>
        <time>2021-07-02T11:56:53Z</time>
      </trkpt>
      <trkpt lat="42.401718" lon="1.462484">
        <ele>773.54248</ele>
        <time>2021-07-02T11:56:54Z</time>
      </trkpt>
      <trkpt lat="42.401535" lon="1.462480">
        <ele>773.46826</ele>
        <time>2021-07-02T11:56:55Z</time>
      </trkpt>
      <trkpt lat="42.401337" lon="1.462506">
        <ele>772.80298</ele>
        <time>2021-07-02T11:56:56Z</time>
      </trkpt>
      <trkpt lat="42.401154" lon="1.462550">
        <ele>771.93408</ele>
        <time>2021-07-02T11:56:57Z</time>
      </trkpt>
      <trkpt lat="42.400986" lon="1.462597">
        <ele>771.49731</ele>
        <time>2021-07-02T11:56:58Z</time>
      </trkpt>
      <trkpt lat="42.400814" lon="1.462659">
        <ele>770.83130</ele>
        <time>2021-07-02T11:56:59Z</time>
      </trkpt>
      <trkpt lat="42.400661" lon="1.462712">
        <ele>770.51001</ele>
        <time>2021-07-02T11:57:00Z</time>
      </trkpt>
      <trkpt lat="42.400463" lon="1.462778">
        <ele>769.23438</ele>
        <time>2021-07-02T11:57:01Z</time>
      </trkpt>
      <trkpt lat="42.400463" lon="1.462778">
        <ele>768.52246</ele>
        <time>2021-07-02T11:57:02Z</time>
      </trkpt>
      <trkpt lat="42.400272" lon="1.462845">
        <ele>768.20728</ele>
        <time>2021-07-02T11:57:03Z</time>
      </trkpt>
      <trkpt lat="42.399887" lon="1.462967">
        <ele>767.79907</ele>
        <time>2021-07-02T11:57:04Z</time>
      </trkpt>
      <trkpt lat="42.399887" lon="1.462967">
        <ele>767.62061</ele>
        <time>2021-07-02T11:57:05Z</time>
      </trkpt>
      <trkpt lat="42.399670" lon="1.463011">
        <ele>767.07544</ele>
        <time>2021-07-02T11:57:06Z</time>
      </trkpt>
      <trkpt lat="42.399475" lon="1.463038">
        <ele>766.59229</ele>
        <time>2021-07-02T11:57:07Z</time>
      </trkpt>
      <trkpt lat="42.399292" lon="1.463059">
        <ele>765.76367</ele>
        <time>2021-07-02T11:57:08Z</time>
      </trkpt>
      <trkpt lat="42.399105" lon="1.463066">
        <ele>765.30115</ele>
        <time>2021-07-02T11:57:09Z</time>
      </trkpt>
      <trkpt lat="42.398926" lon="1.463060">
        <ele>764.97656</ele>
        <time>2021-07-02T11:57:10Z</time>
      </trkpt>
      <trkpt lat="42.398750" lon="1.463043">
        <ele>764.07788</ele>
        <time>2021-07-02T11:57:11Z</time>
      </trkpt>
      <trkpt lat="42.398579" lon="1.463026">
        <ele>763.34595</ele>
        <time>2021-07-02T11:57:12Z</time>
      </trkpt>
      <trkpt lat="42.398380" lon="1.462979">
        <ele>762.84351</ele>
        <time>2021-07-02T11:57:13Z</time>
      </trkpt>
      <trkpt lat="42.398174" lon="1.462919">
        <ele>762.68896</ele>
        <time>2021-07-02T11:57:14Z</time>
      </trkpt>
      <trkpt lat="42.397991" lon="1.462839">
        <ele>762.26306</ele>
        <time>2021-07-02T11:57:15Z</time>
      </trkpt>
      <trkpt lat="42.397820" lon="1.462744">
        <ele>759.70154</ele>
        <time>2021-07-02T11:57:16Z</time>
      </trkpt>
      <trkpt lat="42.397663" lon="1.462639">
        <ele>759.80536</ele>
        <time>2021-07-02T11:57:17Z</time>
      </trkpt>
      <trkpt lat="42.397511" lon="1.462524">
        <ele>759.53168</ele>
        <time>2021-07-02T11:57:18Z</time>
      </trkpt>
      <trkpt lat="42.397366" lon="1.462413">
        <ele>760.16467</ele>
        <time>2021-07-02T11:57:19Z</time>
      </trkpt>
      <trkpt lat="42.397228" lon="1.462301">
        <ele>760.13483</ele>
        <time>2021-07-02T11:57:20Z</time>
      </trkpt>
      <trkpt lat="42.397091" lon="1.462193">
        <ele>760.25140</ele>
        <time>2021-07-02T11:57:21Z</time>
      </trkpt>
      <trkpt lat="42.396950" lon="1.462079">
        <ele>760.65002</ele>
        <time>2021-07-02T11:57:22Z</time>
      </trkpt>
      <trkpt lat="42.396797" lon="1.461960">
        <ele>760.70361</ele>
        <time>2021-07-02T11:57:23Z</time>
      </trkpt>
      <trkpt lat="42.396664" lon="1.461864">
        <ele>761.33459</ele>
        <time>2021-07-02T11:57:24Z</time>
      </trkpt>
      <trkpt lat="42.396530" lon="1.461771">
        <ele>761.15021</ele>
        <time>2021-07-02T11:57:25Z</time>
      </trkpt>
      <trkpt lat="42.396366" lon="1.461659">
        <ele>761.11230</ele>
        <time>2021-07-02T11:57:26Z</time>
      </trkpt>
      <trkpt lat="42.396206" lon="1.461562">
        <ele>761.79028</ele>
        <time>2021-07-02T11:57:27Z</time>
      </trkpt>
      <trkpt lat="42.396038" lon="1.461470">
        <ele>761.48596</ele>
        <time>2021-07-02T11:57:28Z</time>
      </trkpt>
      <trkpt lat="42.395870" lon="1.461385">
        <ele>761.73499</ele>
        <time>2021-07-02T11:57:29Z</time>
      </trkpt>
      <trkpt lat="42.395744" lon="1.461331">
        <ele>761.97754</ele>
        <time>2021-07-02T11:57:30Z</time>
      </trkpt>
      <trkpt lat="42.395599" lon="1.461273">
        <ele>761.13184</ele>
        <time>2021-07-02T11:57:31Z</time>
      </trkpt>
      <trkpt lat="42.395397" lon="1.461210">
        <ele>761.78107</ele>
        <time>2021-07-02T11:57:32Z</time>
      </trkpt>
      <trkpt lat="42.395229" lon="1.461171">
        <ele>761.82892</ele>
        <time>2021-07-02T11:57:33Z</time>
      </trkpt>
      <trkpt lat="42.395039" lon="1.461144">
        <ele>759.89600</ele>
        <time>2021-07-02T11:57:34Z</time>
      </trkpt>
      <trkpt lat="42.394836" lon="1.461120">
        <ele>758.91870</ele>
        <time>2021-07-02T11:57:35Z</time>
      </trkpt>
      <trkpt lat="42.394836" lon="1.461120">
        <ele>758.63318</ele>
        <time>2021-07-02T11:57:36Z</time>
      </trkpt>
      <trkpt lat="42.394650" lon="1.461113">
        <ele>758.13892</ele>
        <time>2021-07-02T11:57:37Z</time>
      </trkpt>
      <trkpt lat="42.394463" lon="1.461116">
        <ele>757.49048</ele>
        <time>2021-07-02T11:57:38Z</time>
      </trkpt>
      <trkpt lat="42.394279" lon="1.461136">
        <ele>757.10522</ele>
        <time>2021-07-02T11:57:39Z</time>
      </trkpt>
      <trkpt lat="42.394093" lon="1.461163">
        <ele>756.03979</ele>
        <time>2021-07-02T11:57:40Z</time>
      </trkpt>
      <trkpt lat="42.393913" lon="1.461207">
        <ele>755.51050</ele>
        <time>2021-07-02T11:57:41Z</time>
      </trkpt>
      <trkpt lat="42.393726" lon="1.461271">
        <ele>755.02710</ele>
        <time>2021-07-02T11:57:42Z</time>
      </trkpt>
      <trkpt lat="42.393547" lon="1.461335">
        <ele>754.79175</ele>
        <time>2021-07-02T11:57:43Z</time>
      </trkpt>
      <trkpt lat="42.393360" lon="1.461423">
        <ele>753.56262</ele>
        <time>2021-07-02T11:57:44Z</time>
      </trkpt>
      <trkpt lat="42.393166" lon="1.461527">
        <ele>753.13123</ele>
        <time>2021-07-02T11:57:45Z</time>
      </trkpt>
      <trkpt lat="42.392986" lon="1.461621">
        <ele>752.32300</ele>
        <time>2021-07-02T11:57:46Z</time>
      </trkpt>
      <trkpt lat="42.392796" lon="1.461719">
        <ele>751.31982</ele>
        <time>2021-07-02T11:57:47Z</time>
      </trkpt>
      <trkpt lat="42.392593" lon="1.461820">
        <ele>750.29443</ele>
        <time>2021-07-02T11:57:48Z</time>
      </trkpt>
      <trkpt lat="42.392399" lon="1.461920">
        <ele>749.65820</ele>
        <time>2021-07-02T11:57:49Z</time>
      </trkpt>
      <trkpt lat="42.392185" lon="1.462016">
        <ele>749.03271</ele>
        <time>2021-07-02T11:57:50Z</time>
      </trkpt>
      <trkpt lat="42.391972" lon="1.462093">
        <ele>748.10388</ele>
        <time>2021-07-02T11:57:51Z</time>
      </trkpt>
      <trkpt lat="42.391750" lon="1.462150">
        <ele>748.18408</ele>
        <time>2021-07-02T11:57:52Z</time>
      </trkpt>
      <trkpt lat="42.391560" lon="1.462192">
        <ele>748.49048</ele>
        <time>2021-07-02T11:57:53Z</time>
      </trkpt>
      <trkpt lat="42.391342" lon="1.462210">
        <ele>748.22534</ele>
        <time>2021-07-02T11:57:54Z</time>
      </trkpt>
      <trkpt lat="42.391136" lon="1.462216">
        <ele>749.00854</ele>
        <time>2021-07-02T11:57:55Z</time>
      </trkpt>
      <trkpt lat="42.390934" lon="1.462209">
        <ele>748.74683</ele>
        <time>2021-07-02T11:57:56Z</time>
      </trkpt>
      <trkpt lat="42.390747" lon="1.462183">
        <ele>748.85767</ele>
        <time>2021-07-02T11:57:57Z</time>
      </trkpt>
      <trkpt lat="42.390568" lon="1.462143">
        <ele>748.70642</ele>
        <time>2021-07-02T11:57:58Z</time>
      </trkpt>
      <trkpt lat="42.390366" lon="1.462076">
        <ele>749.00208</ele>
        <time>2021-07-02T11:57:59Z</time>
      </trkpt>
      <trkpt lat="42.390198" lon="1.462004">
        <ele>748.73462</ele>
        <time>2021-07-02T11:58:00Z</time>
      </trkpt>
      <trkpt lat="42.390007" lon="1.461900">
        <ele>748.48706</ele>
        <time>2021-07-02T11:58:01Z</time>
      </trkpt>
      <trkpt lat="42.389839" lon="1.461802">
        <ele>749.04419</ele>
        <time>2021-07-02T11:58:02Z</time>
      </trkpt>
      <trkpt lat="42.389671" lon="1.461692">
        <ele>750.82831</ele>
        <time>2021-07-02T11:58:03Z</time>
      </trkpt>
      <trkpt lat="42.389503" lon="1.461583">
        <ele>750.89642</ele>
        <time>2021-07-02T11:58:04Z</time>
      </trkpt>
      <trkpt lat="42.389347" lon="1.461490">
        <ele>751.99414</ele>
        <time>2021-07-02T11:58:05Z</time>
      </trkpt>
      <trkpt lat="42.389347" lon="1.461490">
        <ele>751.31970</ele>
        <time>2021-07-02T11:58:06Z</time>
      </trkpt>
      <trkpt lat="42.389027" lon="1.461299">
        <ele>751.00317</ele>
        <time>2021-07-02T11:58:07Z</time>
      </trkpt>
      <trkpt lat="42.389027" lon="1.461299">
        <ele>751.62085</ele>
        <time>2021-07-02T11:58:08Z</time>
      </trkpt>
      <trkpt lat="42.388836" lon="1.461188">
        <ele>751.57568</ele>
        <time>2021-07-02T11:58:09Z</time>
      </trkpt>
      <trkpt lat="42.388645" lon="1.461090">
        <ele>751.51111</ele>
        <time>2021-07-02T11:58:10Z</time>
      </trkpt>
      <trkpt lat="42.388462" lon="1.460994">
        <ele>750.91504</ele>
        <time>2021-07-02T11:58:11Z</time>
      </trkpt>
      <trkpt lat="42.388298" lon="1.460909">
        <ele>750.90381</ele>
        <time>2021-07-02T11:58:12Z</time>
      </trkpt>
      <trkpt lat="42.388134" lon="1.460828">
        <ele>750.57703</ele>
        <time>2021-07-02T11:58:13Z</time>
      </trkpt>
      <trkpt lat="42.387978" lon="1.460752">
        <ele>750.46948</ele>
        <time>2021-07-02T11:58:14Z</time>
      </trkpt>
      <trkpt lat="42.387817" lon="1.460675">
        <ele>750.20337</ele>
        <time>2021-07-02T11:58:15Z</time>
      </trkpt>
      <trkpt lat="42.387650" lon="1.460593">
        <ele>749.33667</ele>
        <time>2021-07-02T11:58:16Z</time>
      </trkpt>
      <trkpt lat="42.387466" lon="1.460519">
        <ele>748.87109</ele>
        <time>2021-07-02T11:58:17Z</time>
      </trkpt>
      <trkpt lat="42.387287" lon="1.460445">
        <ele>748.35889</ele>
        <time>2021-07-02T11:58:18Z</time>
      </trkpt>
      <trkpt lat="42.387112" lon="1.460373">
        <ele>747.50024</ele>
        <time>2021-07-02T11:58:19Z</time>
      </trkpt>
      <trkpt lat="42.386917" lon="1.460293">
        <ele>746.85938</ele>
        <time>2021-07-02T11:58:20Z</time>
      </trkpt>
      <trkpt lat="42.386723" lon="1.460214">
        <ele>746.55713</ele>
        <time>2021-07-02T11:58:21Z</time>
      </trkpt>
      <trkpt lat="42.386539" lon="1.460147">
        <ele>746.39185</ele>
        <time>2021-07-02T11:58:22Z</time>
      </trkpt>
      <trkpt lat="42.386349" lon="1.460084">
        <ele>746.07520</ele>
        <time>2021-07-02T11:58:23Z</time>
      </trkpt>
      <trkpt lat="42.386150" lon="1.460037">
        <ele>745.81982</ele>
        <time>2021-07-02T11:58:24Z</time>
      </trkpt>
      <trkpt lat="42.385967" lon="1.459997">
        <ele>745.06274</ele>
        <time>2021-07-02T11:58:25Z</time>
      </trkpt>
      <trkpt lat="42.385780" lon="1.459961">
        <ele>744.76965</ele>
        <time>2021-07-02T11:58:26Z</time>
      </trkpt>
      <trkpt lat="42.385551" lon="1.459942">
        <ele>744.25183</ele>
        <time>2021-07-02T11:58:27Z</time>
      </trkpt>
      <trkpt lat="42.385342" lon="1.459931">
        <ele>744.07544</ele>
        <time>2021-07-02T11:58:28Z</time>
      </trkpt>
      <trkpt lat="42.385124" lon="1.459919">
        <ele>743.81104</ele>
        <time>2021-07-02T11:58:29Z</time>
      </trkpt>
      <trkpt lat="42.384926" lon="1.459909">
        <ele>742.79956</ele>
        <time>2021-07-02T11:58:30Z</time>
      </trkpt>
      <trkpt lat="42.384735" lon="1.459899">
        <ele>742.34888</ele>
        <time>2021-07-02T11:58:31Z</time>
      </trkpt>
      <trkpt lat="42.384571" lon="1.459891">
        <ele>742.02966</ele>
        <time>2021-07-02T11:58:32Z</time>
      </trkpt>
      <trkpt lat="42.384373" lon="1.459881">
        <ele>741.28174</ele>
        <time>2021-07-02T11:58:33Z</time>
      </trkpt>
      <trkpt lat="42.384159" lon="1.459868">
        <ele>740.53650</ele>
        <time>2021-07-02T11:58:34Z</time>
      </trkpt>
      <trkpt lat="42.383957" lon="1.459854">
        <ele>739.83325</ele>
        <time>2021-07-02T11:58:35Z</time>
      </trkpt>
      <trkpt lat="42.383762" lon="1.459836">
        <ele>739.40454</ele>
        <time>2021-07-02T11:58:36Z</time>
      </trkpt>
      <trkpt lat="42.383762" lon="1.459836">
        <ele>738.82446</ele>
        <time>2021-07-02T11:58:37Z</time>
      </trkpt>
      <trkpt lat="42.383572" lon="1.459813">
        <ele>737.71851</ele>
        <time>2021-07-02T11:58:38Z</time>
      </trkpt>
      <trkpt lat="42.383335" lon="1.459785">
        <ele>737.05933</ele>
        <time>2021-07-02T11:58:39Z</time>
      </trkpt>
      <trkpt lat="42.383114" lon="1.459760">
        <ele>735.58301</ele>
        <time>2021-07-02T11:58:40Z</time>
      </trkpt>
      <trkpt lat="42.382912" lon="1.459736">
        <ele>734.76868</ele>
        <time>2021-07-02T11:58:41Z</time>
      </trkpt>
      <trkpt lat="42.382675" lon="1.459706">
        <ele>734.62769</ele>
        <time>2021-07-02T11:58:42Z</time>
      </trkpt>
      <trkpt lat="42.382458" lon="1.459670">
        <ele>734.42651</ele>
        <time>2021-07-02T11:58:43Z</time>
      </trkpt>
      <trkpt lat="42.382233" lon="1.459633">
        <ele>734.20422</ele>
        <time>2021-07-02T11:58:44Z</time>
      </trkpt>
      <trkpt lat="42.382000" lon="1.459595">
        <ele>733.89807</ele>
        <time>2021-07-02T11:58:45Z</time>
      </trkpt>
      <trkpt lat="42.381790" lon="1.459555">
        <ele>733.91968</ele>
        <time>2021-07-02T11:58:46Z</time>
      </trkpt>
      <trkpt lat="42.381584" lon="1.459505">
        <ele>734.01880</ele>
        <time>2021-07-02T11:58:47Z</time>
      </trkpt>
      <trkpt lat="42.381378" lon="1.459454">
        <ele>733.93091</ele>
        <time>2021-07-02T11:58:48Z</time>
      </trkpt>
      <trkpt lat="42.381180" lon="1.459405">
        <ele>733.91223</ele>
        <time>2021-07-02T11:58:49Z</time>
      </trkpt>
      <trkpt lat="42.380997" lon="1.459354">
        <ele>734.21167</ele>
        <time>2021-07-02T11:58:50Z</time>
      </trkpt>
      <trkpt lat="42.380798" lon="1.459283">
        <ele>734.33984</ele>
        <time>2021-07-02T11:58:51Z</time>
      </trkpt>
      <trkpt lat="42.380604" lon="1.459211">
        <ele>734.48291</ele>
        <time>2021-07-02T11:58:52Z</time>
      </trkpt>
      <trkpt lat="42.380432" lon="1.459136">
        <ele>735.21289</ele>
        <time>2021-07-02T11:58:53Z</time>
      </trkpt>
      <trkpt lat="42.380234" lon="1.459048">
        <ele>735.54871</ele>
        <time>2021-07-02T11:58:54Z</time>
      </trkpt>
      <trkpt lat="42.380016" lon="1.458940">
        <ele>736.20312</ele>
        <time>2021-07-02T11:58:55Z</time>
      </trkpt>
      <trkpt lat="42.379818" lon="1.458833">
        <ele>736.20068</ele>
        <time>2021-07-02T11:58:56Z</time>
      </trkpt>
      <trkpt lat="42.379658" lon="1.458737">
        <ele>735.16998</ele>
        <time>2021-07-02T11:58:57Z</time>
      </trkpt>
      <trkpt lat="42.379513" lon="1.458646">
        <ele>735.41772</ele>
        <time>2021-07-02T11:58:58Z</time>
      </trkpt>
      <trkpt lat="42.379360" lon="1.458547">
        <ele>735.88989</ele>
        <time>2021-07-02T11:58:59Z</time>
      </trkpt>
      <trkpt lat="42.379208" lon="1.458438">
        <ele>736.17096</ele>
        <time>2021-07-02T11:59:00Z</time>
      </trkpt>
      <trkpt lat="42.379051" lon="1.458326">
        <ele>736.34467</ele>
        <time>2021-07-02T11:59:01Z</time>
      </trkpt>
      <trkpt lat="42.378880" lon="1.458190">
        <ele>736.67603</ele>
        <time>2021-07-02T11:59:02Z</time>
      </trkpt>
      <trkpt lat="42.378731" lon="1.458065">
        <ele>736.50977</ele>
        <time>2021-07-02T11:59:03Z</time>
      </trkpt>
      <trkpt lat="42.378597" lon="1.457946">
        <ele>736.31458</ele>
        <time>2021-07-02T11:59:04Z</time>
      </trkpt>
      <trkpt lat="42.378490" lon="1.457848">
        <ele>736.47321</ele>
        <time>2021-07-02T11:59:05Z</time>
      </trkpt>
      <trkpt lat="42.378349" lon="1.457724">
        <ele>736.42706</ele>
        <time>2021-07-02T11:59:06Z</time>
      </trkpt>
      <trkpt lat="42.378220" lon="1.457599">
        <ele>736.46014</ele>
        <time>2021-07-02T11:59:07Z</time>
      </trkpt>
      <trkpt lat="42.378094" lon="1.457481">
        <ele>735.97687</ele>
        <time>2021-07-02T11:59:08Z</time>
      </trkpt>
      <trkpt lat="42.378090" lon="1.457476">
        <ele>736.10858</ele>
        <time>2021-07-02T11:59:09Z</time>
      </trkpt>
      <trkpt lat="42.377865" lon="1.457198">
        <ele>735.60986</ele>
        <time>2021-07-02T11:59:10Z</time>
      </trkpt>
      <trkpt lat="42.377865" lon="1.457198">
        <ele>735.24707</ele>
        <time>2021-07-02T11:59:11Z</time>
      </trkpt>
      <trkpt lat="42.377697" lon="1.457004">
        <ele>735.57422</ele>
        <time>2021-07-02T11:59:12Z</time>
      </trkpt>
      <trkpt lat="42.377575" lon="1.456862">
        <ele>735.32501</ele>
        <time>2021-07-02T11:59:13Z</time>
      </trkpt>
      <trkpt lat="42.377457" lon="1.456728">
        <ele>735.66602</ele>
        <time>2021-07-02T11:59:14Z</time>
      </trkpt>
      <trkpt lat="42.377323" lon="1.456615">
        <ele>736.15869</ele>
        <time>2021-07-02T11:59:15Z</time>
      </trkpt>
      <trkpt lat="42.377193" lon="1.456489">
        <ele>735.83026</ele>
        <time>2021-07-02T11:59:16Z</time>
      </trkpt>
      <trkpt lat="42.377102" lon="1.456354">
        <ele>735.42224</ele>
        <time>2021-07-02T11:59:17Z</time>
      </trkpt>
      <trkpt lat="42.376995" lon="1.456200">
        <ele>735.51013</ele>
        <time>2021-07-02T11:59:18Z</time>
      </trkpt>
      <trkpt lat="42.376736" lon="1.456198">
        <ele>735.36993</ele>
        <time>2021-07-02T11:59:19Z</time>
      </trkpt>
      <trkpt lat="42.376598" lon="1.456056">
        <ele>734.89294</ele>
        <time>2021-07-02T11:59:20Z</time>
      </trkpt>
      <trkpt lat="42.376457" lon="1.455902">
        <ele>735.03979</ele>
        <time>2021-07-02T11:59:21Z</time>
      </trkpt>
      <trkpt lat="42.376328" lon="1.455765">
        <ele>735.27307</ele>
        <time>2021-07-02T11:59:22Z</time>
      </trkpt>
      <trkpt lat="42.376205" lon="1.455645">
        <ele>735.94690</ele>
        <time>2021-07-02T11:59:23Z</time>
      </trkpt>
      <trkpt lat="42.376072" lon="1.455524">
        <ele>735.94690</ele>
        <time>2021-07-02T11:59:24Z</time>
      </trkpt>
      <trkpt lat="42.375931" lon="1.455394">
        <ele>735.94690</ele>
        <time>2021-07-02T11:59:25Z</time>
      </trkpt>
      <trkpt lat="42.375893" lon="1.455361">
        <ele>735.94690</ele>
        <time>2021-07-02T11:59:26Z</time>
      </trkpt>
      <trkpt lat="42.375893" lon="1.455361">
        <ele>735.94690</ele>
        <time>2021-07-02T11:59:27Z</time>
      </trkpt>
      <trkpt lat="42.375893" lon="1.455361">
        <ele>735.94690</ele>
        <time>2021-07-02T11:59:28Z</time>
      </trkpt>
      <trkpt lat="42.375893" lon="1.455361">
        <ele>735.94690</ele>
        <time>2021-07-02T11:59:29Z</time>
      </trkpt>
      <trkpt lat="42.375893" lon="1.455361">
        <ele>735.94690</ele>
        <time>2021-07-02T11:59:30Z</time>
      </trkpt>
      <trkpt lat="42.375893" lon="1.455361">
        <ele>735.94690</ele>
        <time>2021-07-02T11:59:31Z</time>
      </trkpt>
      <trkpt lat="42.375893" lon="1.455361">
        <ele>735.94690</ele>
        <time>2021-07-02T11:59:32Z</time>
      </trkpt>
      <trkpt lat="42.375893" lon="1.455361">
        <ele>735.94690</ele>
        <time>2021-07-02T11:59:33Z</time>
      </trkpt>
      <trkpt lat="42.375893" lon="1.455361">
        <ele>735.94690</ele>
        <time>2021-07-02T11:59:34Z</time>
      </trkpt>
      <trkpt lat="42.375893" lon="1.455361">
        <ele>735.94690</ele>
        <time>2021-07-02T11:59:35Z</time>
      </trkpt>
      <trkpt lat="42.375893" lon="1.455361">
        <ele>735.94690</ele>
        <time>2021-07-02T11:59:36Z</time>
      </trkpt>
      <trkpt lat="42.375893" lon="1.455361">
        <ele>735.94690</ele>
        <time>2021-07-02T11:59:37Z</time>
      </trkpt>
      <trkpt lat="42.375893" lon="1.455361">
        <ele>735.94690</ele>
        <time>2021-07-02T11:59:38Z</time>
      </trkpt>
      <trkpt lat="42.375893" lon="1.455361">
        <ele>735.94690</ele>
        <time>2021-07-02T11:59:39Z</time>
      </trkpt>
      <trkpt lat="42.374268" lon="1.454328">
        <ele>735.94690</ele>
        <time>2021-07-02T11:59:40Z</time>
      </trkpt>
      <trkpt lat="42.374268" lon="1.454328">
        <ele>735.94690</ele>
        <time>2021-07-02T11:59:41Z</time>
      </trkpt>
      <trkpt lat="42.374268" lon="1.454328">
        <ele>731.82642</ele>
        <time>2021-07-02T11:59:42Z</time>
      </trkpt>
      <trkpt lat="42.374268" lon="1.454328">
        <ele>728.41602</ele>
        <time>2021-07-02T11:59:43Z</time>
      </trkpt>
      <trkpt lat="42.373608" lon="1.454224">
        <ele>726.82202</ele>
        <time>2021-07-02T11:59:44Z</time>
      </trkpt>
      <trkpt lat="42.372440" lon="1.454493">
        <ele>724.13843</ele>
        <time>2021-07-02T11:59:45Z</time>
      </trkpt>
      <trkpt lat="42.372314" lon="1.454558">
        <ele>724.71936</ele>
        <time>2021-07-02T11:59:46Z</time>
      </trkpt>
      <trkpt lat="42.372105" lon="1.454666">
        <ele>725.31445</ele>
        <time>2021-07-02T11:59:47Z</time>
      </trkpt>
      <trkpt lat="42.371925" lon="1.454781">
        <ele>724.38647</ele>
        <time>2021-07-02T11:59:48Z</time>
      </trkpt>
      <trkpt lat="42.371750" lon="1.454898">
        <ele>723.49268</ele>
        <time>2021-07-02T11:59:49Z</time>
      </trkpt>
      <trkpt lat="42.371574" lon="1.455013">
        <ele>722.09497</ele>
        <time>2021-07-02T11:59:50Z</time>
      </trkpt>
      <trkpt lat="42.371410" lon="1.455119">
        <ele>722.23730</ele>
        <time>2021-07-02T11:59:51Z</time>
      </trkpt>
      <trkpt lat="42.371239" lon="1.455216">
        <ele>722.49512</ele>
        <time>2021-07-02T11:59:52Z</time>
      </trkpt>
      <trkpt lat="42.371067" lon="1.455315">
        <ele>721.76086</ele>
        <time>2021-07-02T11:59:53Z</time>
      </trkpt>
      <trkpt lat="42.370892" lon="1.455415">
        <ele>721.23999</ele>
        <time>2021-07-02T11:59:54Z</time>
      </trkpt>
      <trkpt lat="42.370720" lon="1.455512">
        <ele>720.87463</ele>
        <time>2021-07-02T11:59:55Z</time>
      </trkpt>
      <trkpt lat="42.370529" lon="1.455603">
        <ele>720.69019</ele>
        <time>2021-07-02T11:59:56Z</time>
      </trkpt>
      <trkpt lat="42.370327" lon="1.455679">
        <ele>719.11951</ele>
        <time>2021-07-02T11:59:57Z</time>
      </trkpt>
      <trkpt lat="42.370121" lon="1.455721">
        <ele>718.91284</ele>
        <time>2021-07-02T11:59:58Z</time>
      </trkpt>
      <trkpt lat="42.369915" lon="1.455746">
        <ele>719.19409</ele>
        <time>2021-07-02T11:59:59Z</time>
      </trkpt>
      <trkpt lat="42.369743" lon="1.455736">
        <ele>719.48120</ele>
        <time>2021-07-02T12:00:00Z</time>
      </trkpt>
      <trkpt lat="42.369560" lon="1.455723">
        <ele>719.54553</ele>
        <time>2021-07-02T12:00:01Z</time>
      </trkpt>
      <trkpt lat="42.369389" lon="1.455696">
        <ele>719.95679</ele>
        <time>2021-07-02T12:00:02Z</time>
      </trkpt>
      <trkpt lat="42.369202" lon="1.455660">
        <ele>720.21130</ele>
        <time>2021-07-02T12:00:03Z</time>
      </trkpt>
      <trkpt lat="42.369019" lon="1.455618">
        <ele>725.17828</ele>
        <time>2021-07-02T12:00:04Z</time>
      </trkpt>
      <trkpt lat="42.368813" lon="1.455568">
        <ele>724.92249</ele>
        <time>2021-07-02T12:00:05Z</time>
      </trkpt>
      <trkpt lat="42.368629" lon="1.455522">
        <ele>722.02466</ele>
        <time>2021-07-02T12:00:06Z</time>
      </trkpt>
      <trkpt lat="42.368454" lon="1.455478">
        <ele>721.71729</ele>
        <time>2021-07-02T12:00:07Z</time>
      </trkpt>
      <trkpt lat="42.368271" lon="1.455429">
        <ele>721.72546</ele>
        <time>2021-07-02T12:00:08Z</time>
      </trkpt>
      <trkpt lat="42.368271" lon="1.455429">
        <ele>722.18994</ele>
        <time>2021-07-02T12:00:09Z</time>
      </trkpt>
      <trkpt lat="42.368080" lon="1.455364">
        <ele>722.82007</ele>
        <time>2021-07-02T12:00:10Z</time>
      </trkpt>
      <trkpt lat="42.367893" lon="1.455301">
        <ele>722.96997</ele>
        <time>2021-07-02T12:00:11Z</time>
      </trkpt>
      <trkpt lat="42.367706" lon="1.455237">
        <ele>723.76746</ele>
        <time>2021-07-02T12:00:12Z</time>
      </trkpt>
      <trkpt lat="42.367531" lon="1.455173">
        <ele>726.14008</ele>
        <time>2021-07-02T12:00:13Z</time>
      </trkpt>
      <trkpt lat="42.367359" lon="1.455106">
        <ele>724.46851</ele>
        <time>2021-07-02T12:00:14Z</time>
      </trkpt>
      <trkpt lat="42.367180" lon="1.455040">
        <ele>724.13208</ele>
        <time>2021-07-02T12:00:15Z</time>
      </trkpt>
      <trkpt lat="42.367012" lon="1.454980">
        <ele>723.64087</ele>
        <time>2021-07-02T12:00:16Z</time>
      </trkpt>
      <trkpt lat="42.366814" lon="1.454931">
        <ele>722.72339</ele>
        <time>2021-07-02T12:00:17Z</time>
      </trkpt>
      <trkpt lat="42.366634" lon="1.454922">
        <ele>722.40894</ele>
        <time>2021-07-02T12:00:18Z</time>
      </trkpt>
      <trkpt lat="42.366451" lon="1.454929">
        <ele>722.58740</ele>
        <time>2021-07-02T12:00:19Z</time>
      </trkpt>
      <trkpt lat="42.366257" lon="1.454966">
        <ele>722.08862</ele>
        <time>2021-07-02T12:00:20Z</time>
      </trkpt>
      <trkpt lat="42.366055" lon="1.455012">
        <ele>721.68689</ele>
        <time>2021-07-02T12:00:21Z</time>
      </trkpt>
      <trkpt lat="42.365871" lon="1.455055">
        <ele>720.90369</ele>
        <time>2021-07-02T12:00:22Z</time>
      </trkpt>
      <trkpt lat="42.365704" lon="1.455094">
        <ele>720.95435</ele>
        <time>2021-07-02T12:00:23Z</time>
      </trkpt>
      <trkpt lat="42.365543" lon="1.455135">
        <ele>720.37207</ele>
        <time>2021-07-02T12:00:24Z</time>
      </trkpt>
      <trkpt lat="42.365391" lon="1.455176">
        <ele>719.99536</ele>
        <time>2021-07-02T12:00:25Z</time>
      </trkpt>
      <trkpt lat="42.365227" lon="1.455222">
        <ele>719.19043</ele>
        <time>2021-07-02T12:00:26Z</time>
      </trkpt>
      <trkpt lat="42.365051" lon="1.455270">
        <ele>719.11426</ele>
        <time>2021-07-02T12:00:27Z</time>
      </trkpt>
      <trkpt lat="42.364895" lon="1.455319">
        <ele>717.82202</ele>
        <time>2021-07-02T12:00:28Z</time>
      </trkpt>
      <trkpt lat="42.364750" lon="1.455363">
        <ele>717.73804</ele>
        <time>2021-07-02T12:00:29Z</time>
      </trkpt>
      <trkpt lat="42.364616" lon="1.455404">
        <ele>717.28418</ele>
        <time>2021-07-02T12:00:30Z</time>
      </trkpt>
      <trkpt lat="42.364475" lon="1.455447">
        <ele>716.97339</ele>
        <time>2021-07-02T12:00:31Z</time>
      </trkpt>
      <trkpt lat="42.364349" lon="1.455487">
        <ele>717.07544</ele>
        <time>2021-07-02T12:00:32Z</time>
      </trkpt>
      <trkpt lat="42.364231" lon="1.455527">
        <ele>717.25952</ele>
        <time>2021-07-02T12:00:33Z</time>
      </trkpt>
      <trkpt lat="42.364120" lon="1.455565">
        <ele>716.58008</ele>
        <time>2021-07-02T12:00:34Z</time>
      </trkpt>
      <trkpt lat="42.364014" lon="1.455603">
        <ele>716.18396</ele>
        <time>2021-07-02T12:00:35Z</time>
      </trkpt>
      <trkpt lat="42.363937" lon="1.455632">
        <ele>716.31104</ele>
        <time>2021-07-02T12:00:36Z</time>
      </trkpt>
      <trkpt lat="42.363861" lon="1.455660">
        <ele>715.97351</ele>
        <time>2021-07-02T12:00:37Z</time>
      </trkpt>
      <trkpt lat="42.363800" lon="1.455683">
        <ele>715.64209</ele>
        <time>2021-07-02T12:00:38Z</time>
      </trkpt>
      <trkpt lat="42.363724" lon="1.455710">
        <ele>715.96362</ele>
        <time>2021-07-02T12:00:39Z</time>
      </trkpt>
      <trkpt lat="42.363670" lon="1.455731">
        <ele>715.19202</ele>
        <time>2021-07-02T12:00:40Z</time>
      </trkpt>
      <trkpt lat="42.363670" lon="1.455731">
        <ele>714.80078</ele>
        <time>2021-07-02T12:00:41Z</time>
      </trkpt>
      <trkpt lat="42.363613" lon="1.455752">
        <ele>714.39209</ele>
        <time>2021-07-02T12:00:42Z</time>
      </trkpt>
      <trkpt lat="42.363548" lon="1.455778">
        <ele>713.94360</ele>
        <time>2021-07-02T12:00:43Z</time>
      </trkpt>
      <trkpt lat="42.363503" lon="1.455797">
        <ele>714.01440</ele>
        <time>2021-07-02T12:00:44Z</time>
      </trkpt>
      <trkpt lat="42.363438" lon="1.455822">
        <ele>713.60132</ele>
        <time>2021-07-02T12:00:45Z</time>
      </trkpt>
      <trkpt lat="42.363377" lon="1.455846">
        <ele>713.67065</ele>
        <time>2021-07-02T12:00:46Z</time>
      </trkpt>
      <trkpt lat="42.363304" lon="1.455873">
        <ele>712.93726</ele>
        <time>2021-07-02T12:00:47Z</time>
      </trkpt>
      <trkpt lat="42.363251" lon="1.455897">
        <ele>712.56165</ele>
        <time>2021-07-02T12:00:48Z</time>
      </trkpt>
      <trkpt lat="42.363136" lon="1.455941">
        <ele>712.49695</ele>
        <time>2021-07-02T12:00:49Z</time>
      </trkpt>
      <trkpt lat="42.363049" lon="1.455976">
        <ele>711.34180</ele>
        <time>2021-07-02T12:00:50Z</time>
      </trkpt>
      <trkpt lat="42.362953" lon="1.456015">
        <ele>711.69360</ele>
        <time>2021-07-02T12:00:51Z</time>
      </trkpt>
      <trkpt lat="42.362888" lon="1.456043">
        <ele>711.55396</ele>
        <time>2021-07-02T12:00:52Z</time>
      </trkpt>
      <trkpt lat="42.362846" lon="1.456060">
        <ele>710.97510</ele>
        <time>2021-07-02T12:00:53Z</time>
      </trkpt>
      <trkpt lat="42.362827" lon="1.456068">
        <ele>710.26624</ele>
        <time>2021-07-02T12:00:54Z</time>
      </trkpt>
      <trkpt lat="42.362820" lon="1.456072">
        <ele>710.48853</ele>
        <time>2021-07-02T12:00:55Z</time>
      </trkpt>
      <trkpt lat="42.362804" lon="1.456078">
        <ele>711.39551</ele>
        <time>2021-07-02T12:00:56Z</time>
      </trkpt>
      <trkpt lat="42.362782" lon="1.456043">
        <ele>710.87878</ele>
        <time>2021-07-02T12:00:57Z</time>
      </trkpt>
      <trkpt lat="42.362728" lon="1.455892">
        <ele>711.19604</ele>
        <time>2021-07-02T12:00:58Z</time>
      </trkpt>
      <trkpt lat="42.362621" lon="1.455789">
        <ele>710.63965</ele>
        <time>2021-07-02T12:00:59Z</time>
      </trkpt>
      <trkpt lat="42.362530" lon="1.455764">
        <ele>709.31580</ele>
        <time>2021-07-02T12:01:00Z</time>
      </trkpt>
      <trkpt lat="42.362411" lon="1.455794">
        <ele>708.73999</ele>
        <time>2021-07-02T12:01:01Z</time>
      </trkpt>
      <trkpt lat="42.362331" lon="1.455879">
        <ele>708.85071</ele>
        <time>2021-07-02T12:01:02Z</time>
      </trkpt>
      <trkpt lat="42.362282" lon="1.455976">
        <ele>708.31360</ele>
        <time>2021-07-02T12:01:03Z</time>
      </trkpt>
      <trkpt lat="42.362263" lon="1.456065">
        <ele>708.72046</ele>
        <time>2021-07-02T12:01:04Z</time>
      </trkpt>
      <trkpt lat="42.362263" lon="1.456154">
        <ele>708.37646</ele>
        <time>2021-07-02T12:01:05Z</time>
      </trkpt>
      <trkpt lat="42.362263" lon="1.456154">
        <ele>709.02441</ele>
        <time>2021-07-02T12:01:06Z</time>
      </trkpt>
      <trkpt lat="42.362293" lon="1.456288">
        <ele>709.57031</ele>
        <time>2021-07-02T12:01:07Z</time>
      </trkpt>
      <trkpt lat="42.362377" lon="1.456414">
        <ele>709.53125</ele>
        <time>2021-07-02T12:01:08Z</time>
      </trkpt>
      <trkpt lat="42.362480" lon="1.456467">
        <ele>709.59961</ele>
        <time>2021-07-02T12:01:09Z</time>
      </trkpt>
      <trkpt lat="42.362514" lon="1.456471">
        <ele>710.18225</ele>
        <time>2021-07-02T12:01:10Z</time>
      </trkpt>
      <trkpt lat="42.362499" lon="1.456716">
        <ele>710.39771</ele>
        <time>2021-07-02T12:01:11Z</time>
      </trkpt>
      <trkpt lat="42.362438" lon="1.457183">
        <ele>709.10620</ele>
        <time>2021-07-02T12:01:12Z</time>
      </trkpt>
      <trkpt lat="42.362396" lon="1.457338">
        <ele>708.98706</ele>
        <time>2021-07-02T12:01:13Z</time>
      </trkpt>
      <trkpt lat="42.362335" lon="1.457584">
        <ele>710.80371</ele>
        <time>2021-07-02T12:01:14Z</time>
      </trkpt>
      <trkpt lat="42.362247" lon="1.457886">
        <ele>711.72156</ele>
        <time>2021-07-02T12:01:15Z</time>
      </trkpt>
      <trkpt lat="42.362186" lon="1.458081">
        <ele>712.22754</ele>
        <time>2021-07-02T12:01:16Z</time>
      </trkpt>
      <trkpt lat="42.362122" lon="1.458309">
        <ele>713.07556</ele>
        <time>2021-07-02T12:01:17Z</time>
      </trkpt>
      <trkpt lat="42.362061" lon="1.458532">
        <ele>713.93750</ele>
        <time>2021-07-02T12:01:18Z</time>
      </trkpt>
      <trkpt lat="42.362003" lon="1.458775">
        <ele>713.90527</ele>
        <time>2021-07-02T12:01:19Z</time>
      </trkpt>
      <trkpt lat="42.361961" lon="1.459032">
        <ele>713.76196</ele>
        <time>2021-07-02T12:01:20Z</time>
      </trkpt>
      <trkpt lat="42.361923" lon="1.459285">
        <ele>714.03052</ele>
        <time>2021-07-02T12:01:21Z</time>
      </trkpt>
      <trkpt lat="42.361908" lon="1.459561">
        <ele>715.21594</ele>
        <time>2021-07-02T12:01:22Z</time>
      </trkpt>
      <trkpt lat="42.361900" lon="1.459848">
        <ele>715.50269</ele>
        <time>2021-07-02T12:01:23Z</time>
      </trkpt>
      <trkpt lat="42.361904" lon="1.460123">
        <ele>716.15479</ele>
        <time>2021-07-02T12:01:24Z</time>
      </trkpt>
      <trkpt lat="42.361916" lon="1.460411">
        <ele>715.35046</ele>
        <time>2021-07-02T12:01:25Z</time>
      </trkpt>
      <trkpt lat="42.361927" lon="1.460688">
        <ele>714.01184</ele>
        <time>2021-07-02T12:01:26Z</time>
      </trkpt>
      <trkpt lat="42.361942" lon="1.461008">
        <ele>711.78198</ele>
        <time>2021-07-02T12:01:27Z</time>
      </trkpt>
      <trkpt lat="42.361954" lon="1.461331">
        <ele>710.74951</ele>
        <time>2021-07-02T12:01:28Z</time>
      </trkpt>
      <trkpt lat="42.361969" lon="1.461639">
        <ele>710.26660</ele>
        <time>2021-07-02T12:01:29Z</time>
      </trkpt>
      <trkpt lat="42.361980" lon="1.461951">
        <ele>708.84399</ele>
        <time>2021-07-02T12:01:30Z</time>
      </trkpt>
      <trkpt lat="42.361992" lon="1.462254">
        <ele>706.25293</ele>
        <time>2021-07-02T12:01:31Z</time>
      </trkpt>
      <trkpt lat="42.361984" lon="1.462528">
        <ele>705.83911</ele>
        <time>2021-07-02T12:01:32Z</time>
      </trkpt>
      <trkpt lat="42.361977" lon="1.462841">
        <ele>703.88672</ele>
        <time>2021-07-02T12:01:33Z</time>
      </trkpt>
      <trkpt lat="42.361946" lon="1.463106">
        <ele>702.09766</ele>
        <time>2021-07-02T12:01:34Z</time>
      </trkpt>
      <trkpt lat="42.361946" lon="1.463106">
        <ele>701.18140</ele>
        <time>2021-07-02T12:01:35Z</time>
      </trkpt>
      <trkpt lat="42.361893" lon="1.463434">
        <ele>699.85449</ele>
        <time>2021-07-02T12:01:36Z</time>
      </trkpt>
      <trkpt lat="42.361820" lon="1.463730">
        <ele>698.01831</ele>
        <time>2021-07-02T12:01:37Z</time>
      </trkpt>
      <trkpt lat="42.361752" lon="1.464007">
        <ele>697.41724</ele>
        <time>2021-07-02T12:01:38Z</time>
      </trkpt>
      <trkpt lat="42.361679" lon="1.464287">
        <ele>694.23999</ele>
        <time>2021-07-02T12:01:39Z</time>
      </trkpt>
      <trkpt lat="42.361607" lon="1.464555">
        <ele>693.91248</ele>
        <time>2021-07-02T12:01:40Z</time>
      </trkpt>
      <trkpt lat="42.361542" lon="1.464829">
        <ele>693.42737</ele>
        <time>2021-07-02T12:01:41Z</time>
      </trkpt>
      <trkpt lat="42.361488" lon="1.465117">
        <ele>692.88110</ele>
        <time>2021-07-02T12:01:42Z</time>
      </trkpt>
      <trkpt lat="42.361458" lon="1.465371">
        <ele>692.28088</ele>
        <time>2021-07-02T12:01:43Z</time>
      </trkpt>
      <trkpt lat="42.361423" lon="1.465623">
        <ele>688.61157</ele>
        <time>2021-07-02T12:01:44Z</time>
      </trkpt>
      <trkpt lat="42.361408" lon="1.465875">
        <ele>688.02893</ele>
        <time>2021-07-02T12:01:45Z</time>
      </trkpt>
      <trkpt lat="42.361397" lon="1.466119">
        <ele>685.81848</ele>
        <time>2021-07-02T12:01:46Z</time>
      </trkpt>
      <trkpt lat="42.361385" lon="1.466377">
        <ele>684.08081</ele>
        <time>2021-07-02T12:01:47Z</time>
      </trkpt>
      <trkpt lat="42.361385" lon="1.466650">
        <ele>684.93799</ele>
        <time>2021-07-02T12:01:48Z</time>
      </trkpt>
      <trkpt lat="42.361374" lon="1.466916">
        <ele>683.37329</ele>
        <time>2021-07-02T12:01:49Z</time>
      </trkpt>
      <trkpt lat="42.361359" lon="1.467192">
        <ele>683.53992</ele>
        <time>2021-07-02T12:01:50Z</time>
      </trkpt>
      <trkpt lat="42.361336" lon="1.467482">
        <ele>683.28467</ele>
        <time>2021-07-02T12:01:51Z</time>
      </trkpt>
      <trkpt lat="42.361313" lon="1.467747">
        <ele>682.32910</ele>
        <time>2021-07-02T12:01:52Z</time>
      </trkpt>
      <trkpt lat="42.361294" lon="1.468002">
        <ele>681.85205</ele>
        <time>2021-07-02T12:01:53Z</time>
      </trkpt>
      <trkpt lat="42.361271" lon="1.468260">
        <ele>682.36951</ele>
        <time>2021-07-02T12:01:54Z</time>
      </trkpt>
      <trkpt lat="42.361248" lon="1.468510">
        <ele>682.49585</ele>
        <time>2021-07-02T12:01:55Z</time>
      </trkpt>
      <trkpt lat="42.361225" lon="1.468781">
        <ele>682.73975</ele>
        <time>2021-07-02T12:01:56Z</time>
      </trkpt>
      <trkpt lat="42.361195" lon="1.469075">
        <ele>683.19910</ele>
        <time>2021-07-02T12:01:57Z</time>
      </trkpt>
      <trkpt lat="42.361168" lon="1.469333">
        <ele>683.19800</ele>
        <time>2021-07-02T12:01:58Z</time>
      </trkpt>
      <trkpt lat="42.361134" lon="1.469624">
        <ele>683.50195</ele>
        <time>2021-07-02T12:01:59Z</time>
      </trkpt>
      <trkpt lat="42.361103" lon="1.469899">
        <ele>682.25525</ele>
        <time>2021-07-02T12:02:00Z</time>
      </trkpt>
      <trkpt lat="42.361076" lon="1.470143">
        <ele>681.04980</ele>
        <time>2021-07-02T12:02:01Z</time>
      </trkpt>
      <trkpt lat="42.361046" lon="1.470383">
        <ele>680.35291</ele>
        <time>2021-07-02T12:02:02Z</time>
      </trkpt>
      <trkpt lat="42.361019" lon="1.470604">
        <ele>679.97632</ele>
        <time>2021-07-02T12:02:03Z</time>
      </trkpt>
      <trkpt lat="42.360992" lon="1.470793">
        <ele>680.61621</ele>
        <time>2021-07-02T12:02:04Z</time>
      </trkpt>
      <trkpt lat="42.360977" lon="1.470896">
        <ele>680.94702</ele>
        <time>2021-07-02T12:02:05Z</time>
      </trkpt>
      <trkpt lat="42.360977" lon="1.470896">
        <ele>681.31494</ele>
        <time>2021-07-02T12:02:06Z</time>
      </trkpt>
      <trkpt lat="42.360962" lon="1.471021">
        <ele>682.05176</ele>
        <time>2021-07-02T12:02:07Z</time>
      </trkpt>
      <trkpt lat="42.360947" lon="1.471117">
        <ele>683.11499</ele>
        <time>2021-07-02T12:02:08Z</time>
      </trkpt>
      <trkpt lat="42.360928" lon="1.471222">
        <ele>681.50415</ele>
        <time>2021-07-02T12:02:09Z</time>
      </trkpt>
      <trkpt lat="42.360874" lon="1.471351">
        <ele>682.47498</ele>
        <time>2021-07-02T12:02:10Z</time>
      </trkpt>
      <trkpt lat="42.360825" lon="1.471470">
        <ele>682.66614</ele>
        <time>2021-07-02T12:02:11Z</time>
      </trkpt>
      <trkpt lat="42.360840" lon="1.471599">
        <ele>683.46143</ele>
        <time>2021-07-02T12:02:12Z</time>
      </trkpt>
      <trkpt lat="42.360928" lon="1.471719">
        <ele>684.00745</ele>
        <time>2021-07-02T12:02:13Z</time>
      </trkpt>
      <trkpt lat="42.361042" lon="1.471718">
        <ele>684.13013</ele>
        <time>2021-07-02T12:02:14Z</time>
      </trkpt>
      <trkpt lat="42.360935" lon="1.472127">
        <ele>684.44446</ele>
        <time>2021-07-02T12:02:15Z</time>
      </trkpt>
      <trkpt lat="42.360954" lon="1.472323">
        <ele>684.16968</ele>
        <time>2021-07-02T12:02:16Z</time>
      </trkpt>
      <trkpt lat="42.360973" lon="1.472539">
        <ele>684.13098</ele>
        <time>2021-07-02T12:02:17Z</time>
      </trkpt>
      <trkpt lat="42.361004" lon="1.472724">
        <ele>684.42334</ele>
        <time>2021-07-02T12:02:18Z</time>
      </trkpt>
      <trkpt lat="42.361008" lon="1.472952">
        <ele>685.48767</ele>
        <time>2021-07-02T12:02:19Z</time>
      </trkpt>
      <trkpt lat="42.361012" lon="1.473214">
        <ele>685.88159</ele>
        <time>2021-07-02T12:02:20Z</time>
      </trkpt>
      <trkpt lat="42.361019" lon="1.473456">
        <ele>686.98645</ele>
        <time>2021-07-02T12:02:21Z</time>
      </trkpt>
      <trkpt lat="42.361023" lon="1.473688">
        <ele>688.58960</ele>
        <time>2021-07-02T12:02:22Z</time>
      </trkpt>
      <trkpt lat="42.361031" lon="1.473943">
        <ele>689.72021</ele>
        <time>2021-07-02T12:02:23Z</time>
      </trkpt>
      <trkpt lat="42.361034" lon="1.474082">
        <ele>691.47705</ele>
        <time>2021-07-02T12:02:24Z</time>
      </trkpt>
      <trkpt lat="42.360985" lon="1.474357">
        <ele>691.43604</ele>
        <time>2021-07-02T12:02:25Z</time>
      </trkpt>
      <trkpt lat="42.360958" lon="1.474661">
        <ele>691.95068</ele>
        <time>2021-07-02T12:02:26Z</time>
      </trkpt>
      <trkpt lat="42.361008" lon="1.474852">
        <ele>691.94995</ele>
        <time>2021-07-02T12:02:27Z</time>
      </trkpt>
      <trkpt lat="42.361111" lon="1.475163">
        <ele>691.71948</ele>
        <time>2021-07-02T12:02:28Z</time>
      </trkpt>
      <trkpt lat="42.361141" lon="1.475384">
        <ele>691.94116</ele>
        <time>2021-07-02T12:02:29Z</time>
      </trkpt>
      <trkpt lat="42.361168" lon="1.475578">
        <ele>692.36365</ele>
        <time>2021-07-02T12:02:30Z</time>
      </trkpt>
      <trkpt lat="42.361210" lon="1.475871">
        <ele>692.44336</ele>
        <time>2021-07-02T12:02:31Z</time>
      </trkpt>
      <trkpt lat="42.361259" lon="1.476136">
        <ele>692.79932</ele>
        <time>2021-07-02T12:02:32Z</time>
      </trkpt>
      <trkpt lat="42.361301" lon="1.476393">
        <ele>693.43750</ele>
        <time>2021-07-02T12:02:33Z</time>
      </trkpt>
      <trkpt lat="42.361343" lon="1.476638">
        <ele>693.75098</ele>
        <time>2021-07-02T12:02:34Z</time>
      </trkpt>
      <trkpt lat="42.361389" lon="1.476882">
        <ele>693.78101</ele>
        <time>2021-07-02T12:02:35Z</time>
      </trkpt>
      <trkpt lat="42.361389" lon="1.476882">
        <ele>694.05725</ele>
        <time>2021-07-02T12:02:36Z</time>
      </trkpt>
      <trkpt lat="42.361439" lon="1.477165">
        <ele>694.76343</ele>
        <time>2021-07-02T12:02:37Z</time>
      </trkpt>
      <trkpt lat="42.361488" lon="1.477432">
        <ele>694.65930</ele>
        <time>2021-07-02T12:02:38Z</time>
      </trkpt>
      <trkpt lat="42.361534" lon="1.477702">
        <ele>695.23608</ele>
        <time>2021-07-02T12:02:39Z</time>
      </trkpt>
      <trkpt lat="42.361576" lon="1.477952">
        <ele>696.66235</ele>
        <time>2021-07-02T12:02:40Z</time>
      </trkpt>
      <trkpt lat="42.361622" lon="1.478251">
        <ele>696.37256</ele>
        <time>2021-07-02T12:02:41Z</time>
      </trkpt>
      <trkpt lat="42.361668" lon="1.478534">
        <ele>696.60681</ele>
        <time>2021-07-02T12:02:42Z</time>
      </trkpt>
      <trkpt lat="42.361706" lon="1.478822">
        <ele>696.20264</ele>
        <time>2021-07-02T12:02:43Z</time>
      </trkpt>
      <trkpt lat="42.361736" lon="1.479118">
        <ele>695.96838</ele>
        <time>2021-07-02T12:02:44Z</time>
      </trkpt>
      <trkpt lat="42.361740" lon="1.479384">
        <ele>696.63110</ele>
        <time>2021-07-02T12:02:45Z</time>
      </trkpt>
      <trkpt lat="42.361717" lon="1.479659">
        <ele>697.49146</ele>
        <time>2021-07-02T12:02:46Z</time>
      </trkpt>
      <trkpt lat="42.361691" lon="1.479955">
        <ele>697.97791</ele>
        <time>2021-07-02T12:02:47Z</time>
      </trkpt>
      <trkpt lat="42.361664" lon="1.480224">
        <ele>698.12085</ele>
        <time>2021-07-02T12:02:48Z</time>
      </trkpt>
      <trkpt lat="42.361649" lon="1.480376">
        <ele>697.32471</ele>
        <time>2021-07-02T12:02:49Z</time>
      </trkpt>
      <trkpt lat="42.361649" lon="1.480377">
        <ele>696.61304</ele>
        <time>2021-07-02T12:02:50Z</time>
      </trkpt>
      <trkpt lat="42.361607" lon="1.480729">
        <ele>696.35901</ele>
        <time>2021-07-02T12:02:51Z</time>
      </trkpt>
      <trkpt lat="42.361553" lon="1.481151">
        <ele>695.84937</ele>
        <time>2021-07-02T12:02:52Z</time>
      </trkpt>
      <trkpt lat="42.361523" lon="1.481391">
        <ele>695.20435</ele>
        <time>2021-07-02T12:02:53Z</time>
      </trkpt>
      <trkpt lat="42.361492" lon="1.481611">
        <ele>694.67578</ele>
        <time>2021-07-02T12:02:54Z</time>
      </trkpt>
      <trkpt lat="42.361469" lon="1.481799">
        <ele>694.76245</ele>
        <time>2021-07-02T12:02:55Z</time>
      </trkpt>
      <trkpt lat="42.361439" lon="1.481992">
        <ele>695.81274</ele>
        <time>2021-07-02T12:02:56Z</time>
      </trkpt>
      <trkpt lat="42.361416" lon="1.482166">
        <ele>693.84656</ele>
        <time>2021-07-02T12:02:57Z</time>
      </trkpt>
      <trkpt lat="42.361397" lon="1.482345">
        <ele>693.53979</ele>
        <time>2021-07-02T12:02:58Z</time>
      </trkpt>
      <trkpt lat="42.361382" lon="1.482578">
        <ele>693.04211</ele>
        <time>2021-07-02T12:02:59Z</time>
      </trkpt>
      <trkpt lat="42.361366" lon="1.482834">
        <ele>693.18884</ele>
        <time>2021-07-02T12:03:00Z</time>
      </trkpt>
      <trkpt lat="42.361343" lon="1.483034">
        <ele>693.02271</ele>
        <time>2021-07-02T12:03:01Z</time>
      </trkpt>
      <trkpt lat="42.361301" lon="1.483293">
        <ele>692.58813</ele>
        <time>2021-07-02T12:03:02Z</time>
      </trkpt>
      <trkpt lat="42.361301" lon="1.483293">
        <ele>692.09644</ele>
        <time>2021-07-02T12:03:03Z</time>
      </trkpt>
      <trkpt lat="42.361252" lon="1.483543">
        <ele>692.08691</ele>
        <time>2021-07-02T12:03:04Z</time>
      </trkpt>
      <trkpt lat="42.361198" lon="1.483810">
        <ele>691.98071</ele>
        <time>2021-07-02T12:03:05Z</time>
      </trkpt>
      <trkpt lat="42.361141" lon="1.484088">
        <ele>693.66553</ele>
        <time>2021-07-02T12:03:06Z</time>
      </trkpt>
      <trkpt lat="42.361076" lon="1.484390">
        <ele>693.44092</ele>
        <time>2021-07-02T12:03:07Z</time>
      </trkpt>
      <trkpt lat="42.361015" lon="1.484688">
        <ele>692.83179</ele>
        <time>2021-07-02T12:03:08Z</time>
      </trkpt>
      <trkpt lat="42.360950" lon="1.484992">
        <ele>693.37671</ele>
        <time>2021-07-02T12:03:09Z</time>
      </trkpt>
      <trkpt lat="42.360889" lon="1.485283">
        <ele>693.54297</ele>
        <time>2021-07-02T12:03:10Z</time>
      </trkpt>
      <trkpt lat="42.360821" lon="1.485609">
        <ele>694.23853</ele>
        <time>2021-07-02T12:03:11Z</time>
      </trkpt>
      <trkpt lat="42.360748" lon="1.485910">
        <ele>695.75684</ele>
        <time>2021-07-02T12:03:12Z</time>
      </trkpt>
      <trkpt lat="42.360683" lon="1.486185">
        <ele>695.72583</ele>
        <time>2021-07-02T12:03:13Z</time>
      </trkpt>
      <trkpt lat="42.360622" lon="1.486472">
        <ele>696.43433</ele>
        <time>2021-07-02T12:03:14Z</time>
      </trkpt>
      <trkpt lat="42.360558" lon="1.486764">
        <ele>696.94861</ele>
        <time>2021-07-02T12:03:15Z</time>
      </trkpt>
      <trkpt lat="42.360497" lon="1.487054">
        <ele>697.59204</ele>
        <time>2021-07-02T12:03:16Z</time>
      </trkpt>
      <trkpt lat="42.360435" lon="1.487326">
        <ele>698.15918</ele>
        <time>2021-07-02T12:03:17Z</time>
      </trkpt>
      <trkpt lat="42.360374" lon="1.487616">
        <ele>697.73071</ele>
        <time>2021-07-02T12:03:18Z</time>
      </trkpt>
      <trkpt lat="42.360310" lon="1.487913">
        <ele>696.92029</ele>
        <time>2021-07-02T12:03:19Z</time>
      </trkpt>
      <trkpt lat="42.360245" lon="1.488218">
        <ele>697.06763</ele>
        <time>2021-07-02T12:03:20Z</time>
      </trkpt>
      <trkpt lat="42.360180" lon="1.488532">
        <ele>697.30090</ele>
        <time>2021-07-02T12:03:21Z</time>
      </trkpt>
      <trkpt lat="42.360134" lon="1.488821">
        <ele>697.36450</ele>
        <time>2021-07-02T12:03:22Z</time>
      </trkpt>
      <trkpt lat="42.360100" lon="1.489144">
        <ele>697.89893</ele>
        <time>2021-07-02T12:03:23Z</time>
      </trkpt>
      <trkpt lat="42.360088" lon="1.489459">
        <ele>697.45850</ele>
        <time>2021-07-02T12:03:24Z</time>
      </trkpt>
      <trkpt lat="42.360081" lon="1.489758">
        <ele>697.71362</ele>
        <time>2021-07-02T12:03:25Z</time>
      </trkpt>
      <trkpt lat="42.360073" lon="1.490094">
        <ele>697.90576</ele>
        <time>2021-07-02T12:03:26Z</time>
      </trkpt>
      <trkpt lat="42.360065" lon="1.490426">
        <ele>698.95142</ele>
        <time>2021-07-02T12:03:27Z</time>
      </trkpt>
      <trkpt lat="42.360058" lon="1.490712">
        <ele>699.63586</ele>
        <time>2021-07-02T12:03:28Z</time>
      </trkpt>
      <trkpt lat="42.360050" lon="1.491027">
        <ele>699.38257</ele>
        <time>2021-07-02T12:03:29Z</time>
      </trkpt>
      <trkpt lat="42.360043" lon="1.491292">
        <ele>698.49170</ele>
        <time>2021-07-02T12:03:30Z</time>
      </trkpt>
      <trkpt lat="42.360016" lon="1.491581">
        <ele>698.46094</ele>
        <time>2021-07-02T12:03:31Z</time>
      </trkpt>
      <trkpt lat="42.359962" lon="1.491849">
        <ele>699.77783</ele>
        <time>2021-07-02T12:03:32Z</time>
      </trkpt>
      <trkpt lat="42.359875" lon="1.492149">
        <ele>700.44336</ele>
        <time>2021-07-02T12:03:33Z</time>
      </trkpt>
      <trkpt lat="42.359875" lon="1.492149">
        <ele>700.95300</ele>
        <time>2021-07-02T12:03:34Z</time>
      </trkpt>
      <trkpt lat="42.359764" lon="1.492401">
        <ele>702.95972</ele>
        <time>2021-07-02T12:03:35Z</time>
      </trkpt>
      <trkpt lat="42.359631" lon="1.492685">
        <ele>701.53882</ele>
        <time>2021-07-02T12:03:36Z</time>
      </trkpt>
      <trkpt lat="42.359520" lon="1.492918">
        <ele>703.23950</ele>
        <time>2021-07-02T12:03:37Z</time>
      </trkpt>
      <trkpt lat="42.359390" lon="1.493189">
        <ele>704.62402</ele>
        <time>2021-07-02T12:03:38Z</time>
      </trkpt>
      <trkpt lat="42.359287" lon="1.493412">
        <ele>705.84082</ele>
        <time>2021-07-02T12:03:39Z</time>
      </trkpt>
      <trkpt lat="42.359177" lon="1.493662">
        <ele>707.77527</ele>
        <time>2021-07-02T12:03:40Z</time>
      </trkpt>
      <trkpt lat="42.359081" lon="1.493920">
        <ele>709.63855</ele>
        <time>2021-07-02T12:03:41Z</time>
      </trkpt>
      <trkpt lat="42.359016" lon="1.494204">
        <ele>710.41748</ele>
        <time>2021-07-02T12:03:42Z</time>
      </trkpt>
      <trkpt lat="42.358955" lon="1.494468">
        <ele>710.28564</ele>
        <time>2021-07-02T12:03:43Z</time>
      </trkpt>
      <trkpt lat="42.358887" lon="1.494776">
        <ele>709.81787</ele>
        <time>2021-07-02T12:03:44Z</time>
      </trkpt>
      <trkpt lat="42.358818" lon="1.495069">
        <ele>709.63501</ele>
        <time>2021-07-02T12:03:45Z</time>
      </trkpt>
      <trkpt lat="42.358753" lon="1.495358">
        <ele>709.81323</ele>
        <time>2021-07-02T12:03:46Z</time>
      </trkpt>
      <trkpt lat="42.358688" lon="1.495630">
        <ele>711.13525</ele>
        <time>2021-07-02T12:03:47Z</time>
      </trkpt>
      <trkpt lat="42.358624" lon="1.495912">
        <ele>711.89038</ele>
        <time>2021-07-02T12:03:48Z</time>
      </trkpt>
      <trkpt lat="42.358559" lon="1.496199">
        <ele>711.82373</ele>
        <time>2021-07-02T12:03:49Z</time>
      </trkpt>
      <trkpt lat="42.358494" lon="1.496497">
        <ele>712.15112</ele>
        <time>2021-07-02T12:03:50Z</time>
      </trkpt>
      <trkpt lat="42.358425" lon="1.496804">
        <ele>712.61292</ele>
        <time>2021-07-02T12:03:51Z</time>
      </trkpt>
      <trkpt lat="42.358353" lon="1.497124">
        <ele>711.36255</ele>
        <time>2021-07-02T12:03:52Z</time>
      </trkpt>
      <trkpt lat="42.358280" lon="1.497448">
        <ele>708.33301</ele>
        <time>2021-07-02T12:03:53Z</time>
      </trkpt>
      <trkpt lat="42.358215" lon="1.497762">
        <ele>708.26392</ele>
        <time>2021-07-02T12:03:54Z</time>
      </trkpt>
      <trkpt lat="42.358166" lon="1.498059">
        <ele>708.11230</ele>
        <time>2021-07-02T12:03:55Z</time>
      </trkpt>
      <trkpt lat="42.358124" lon="1.498407">
        <ele>708.53503</ele>
        <time>2021-07-02T12:03:56Z</time>
      </trkpt>
      <trkpt lat="42.358093" lon="1.498755">
        <ele>708.96155</ele>
        <time>2021-07-02T12:03:57Z</time>
      </trkpt>
      <trkpt lat="42.358067" lon="1.499152">
        <ele>708.37134</ele>
        <time>2021-07-02T12:03:58Z</time>
      </trkpt>
      <trkpt lat="42.358067" lon="1.499152">
        <ele>708.32642</ele>
        <time>2021-07-02T12:03:59Z</time>
      </trkpt>
      <trkpt lat="42.358036" lon="1.499605">
        <ele>708.51575</ele>
        <time>2021-07-02T12:04:00Z</time>
      </trkpt>
      <trkpt lat="42.357998" lon="1.500062">
        <ele>707.61865</ele>
        <time>2021-07-02T12:04:01Z</time>
      </trkpt>
      <trkpt lat="42.357941" lon="1.500507">
        <ele>706.98206</ele>
        <time>2021-07-02T12:04:02Z</time>
      </trkpt>
      <trkpt lat="42.357887" lon="1.500906">
        <ele>707.14868</ele>
        <time>2021-07-02T12:04:03Z</time>
      </trkpt>
      <trkpt lat="42.357830" lon="1.501286">
        <ele>708.45117</ele>
        <time>2021-07-02T12:04:04Z</time>
      </trkpt>
      <trkpt lat="42.357765" lon="1.501676">
        <ele>709.02075</ele>
        <time>2021-07-02T12:04:05Z</time>
      </trkpt>
      <trkpt lat="42.357697" lon="1.502046">
        <ele>710.88354</ele>
        <time>2021-07-02T12:04:06Z</time>
      </trkpt>
      <trkpt lat="42.357632" lon="1.502387">
        <ele>710.96021</ele>
        <time>2021-07-02T12:04:07Z</time>
      </trkpt>
      <trkpt lat="42.357567" lon="1.502732">
        <ele>711.35620</ele>
        <time>2021-07-02T12:04:08Z</time>
      </trkpt>
      <trkpt lat="42.357498" lon="1.503080">
        <ele>711.35620</ele>
        <time>2021-07-02T12:04:09Z</time>
      </trkpt>
      <trkpt lat="42.357445" lon="1.503454">
        <ele>711.67432</ele>
        <time>2021-07-02T12:04:10Z</time>
      </trkpt>
      <trkpt lat="42.357410" lon="1.503787">
        <ele>711.67432</ele>
        <time>2021-07-02T12:04:11Z</time>
      </trkpt>
      <trkpt lat="42.357395" lon="1.503995">
        <ele>712.10229</ele>
        <time>2021-07-02T12:04:12Z</time>
      </trkpt>
      <trkpt lat="42.357380" lon="1.504282">
        <ele>712.13110</ele>
        <time>2021-07-02T12:04:13Z</time>
      </trkpt>
      <trkpt lat="42.357365" lon="1.504736">
        <ele>712.38232</ele>
        <time>2021-07-02T12:04:14Z</time>
      </trkpt>
      <trkpt lat="42.357353" lon="1.505026">
        <ele>711.51514</ele>
        <time>2021-07-02T12:04:15Z</time>
      </trkpt>
      <trkpt lat="42.357342" lon="1.505277">
        <ele>711.55933</ele>
        <time>2021-07-02T12:04:16Z</time>
      </trkpt>
      <trkpt lat="42.357342" lon="1.505277">
        <ele>711.55933</ele>
        <time>2021-07-02T12:04:17Z</time>
      </trkpt>
      <trkpt lat="42.357334" lon="1.505722">
        <ele>713.25250</ele>
        <time>2021-07-02T12:04:18Z</time>
      </trkpt>
      <trkpt lat="42.357330" lon="1.505898">
        <ele>713.33978</ele>
        <time>2021-07-02T12:04:19Z</time>
      </trkpt>
      <trkpt lat="42.357334" lon="1.505985">
        <ele>714.02850</ele>
        <time>2021-07-02T12:04:20Z</time>
      </trkpt>
      <trkpt lat="42.357349" lon="1.506359">
        <ele>714.34595</ele>
        <time>2021-07-02T12:04:21Z</time>
      </trkpt>
      <trkpt lat="42.357365" lon="1.506589">
        <ele>713.59558</ele>
        <time>2021-07-02T12:04:22Z</time>
      </trkpt>
      <trkpt lat="42.357399" lon="1.506817">
        <ele>714.39087</ele>
        <time>2021-07-02T12:04:23Z</time>
      </trkpt>
      <trkpt lat="42.357449" lon="1.507054">
        <ele>714.91699</ele>
        <time>2021-07-02T12:04:24Z</time>
      </trkpt>
      <trkpt lat="42.357494" lon="1.507258">
        <ele>715.16431</ele>
        <time>2021-07-02T12:04:25Z</time>
      </trkpt>
      <trkpt lat="42.357536" lon="1.507436">
        <ele>716.28467</ele>
        <time>2021-07-02T12:04:26Z</time>
      </trkpt>
      <trkpt lat="42.357597" lon="1.507614">
        <ele>717.55469</ele>
        <time>2021-07-02T12:04:27Z</time>
      </trkpt>
      <trkpt lat="42.357651" lon="1.507779">
        <ele>718.67822</ele>
        <time>2021-07-02T12:04:28Z</time>
      </trkpt>
      <trkpt lat="42.357700" lon="1.507926">
        <ele>719.28223</ele>
        <time>2021-07-02T12:04:29Z</time>
      </trkpt>
      <trkpt lat="42.357761" lon="1.508078">
        <ele>720.14160</ele>
        <time>2021-07-02T12:04:30Z</time>
      </trkpt>
      <trkpt lat="42.357822" lon="1.508226">
        <ele>720.90845</ele>
        <time>2021-07-02T12:04:31Z</time>
      </trkpt>
      <trkpt lat="42.357891" lon="1.508381">
        <ele>721.50537</ele>
        <time>2021-07-02T12:04:32Z</time>
      </trkpt>
      <trkpt lat="42.357967" lon="1.508544">
        <ele>722.55005</ele>
        <time>2021-07-02T12:04:33Z</time>
      </trkpt>
      <trkpt lat="42.357967" lon="1.508544">
        <ele>722.48157</ele>
        <time>2021-07-02T12:04:34Z</time>
      </trkpt>
      <trkpt lat="42.358116" lon="1.508848">
        <ele>722.66968</ele>
        <time>2021-07-02T12:04:35Z</time>
      </trkpt>
      <trkpt lat="42.358196" lon="1.509008">
        <ele>723.39038</ele>
        <time>2021-07-02T12:04:36Z</time>
      </trkpt>
      <trkpt lat="42.358196" lon="1.509008">
        <ele>724.32007</ele>
        <time>2021-07-02T12:04:37Z</time>
      </trkpt>
      <trkpt lat="42.358280" lon="1.509173">
        <ele>725.65247</ele>
        <time>2021-07-02T12:04:38Z</time>
      </trkpt>
      <trkpt lat="42.358368" lon="1.509339">
        <ele>726.54175</ele>
        <time>2021-07-02T12:04:39Z</time>
      </trkpt>
      <trkpt lat="42.358456" lon="1.509509">
        <ele>727.27393</ele>
        <time>2021-07-02T12:04:40Z</time>
      </trkpt>
      <trkpt lat="42.358540" lon="1.509683">
        <ele>728.18835</ele>
        <time>2021-07-02T12:04:41Z</time>
      </trkpt>
      <trkpt lat="42.358631" lon="1.509863">
        <ele>728.89966</ele>
        <time>2021-07-02T12:04:42Z</time>
      </trkpt>
      <trkpt lat="42.358715" lon="1.510032">
        <ele>730.17798</ele>
        <time>2021-07-02T12:04:43Z</time>
      </trkpt>
      <trkpt lat="42.358807" lon="1.510211">
        <ele>731.17505</ele>
        <time>2021-07-02T12:04:44Z</time>
      </trkpt>
      <trkpt lat="42.358894" lon="1.510388">
        <ele>732.29395</ele>
        <time>2021-07-02T12:04:45Z</time>
      </trkpt>
      <trkpt lat="42.358986" lon="1.510573">
        <ele>733.26282</ele>
        <time>2021-07-02T12:04:46Z</time>
      </trkpt>
      <trkpt lat="42.359081" lon="1.510767">
        <ele>734.19116</ele>
        <time>2021-07-02T12:04:47Z</time>
      </trkpt>
      <trkpt lat="42.359180" lon="1.510960">
        <ele>734.68726</ele>
        <time>2021-07-02T12:04:48Z</time>
      </trkpt>
      <trkpt lat="42.359276" lon="1.511150">
        <ele>735.44727</ele>
        <time>2021-07-02T12:04:49Z</time>
      </trkpt>
      <trkpt lat="42.359367" lon="1.511345">
        <ele>735.75525</ele>
        <time>2021-07-02T12:04:50Z</time>
      </trkpt>
      <trkpt lat="42.359467" lon="1.511543">
        <ele>736.08862</ele>
        <time>2021-07-02T12:04:51Z</time>
      </trkpt>
      <trkpt lat="42.359562" lon="1.511746">
        <ele>735.91040</ele>
        <time>2021-07-02T12:04:52Z</time>
      </trkpt>
      <trkpt lat="42.359657" lon="1.511942">
        <ele>736.16602</ele>
        <time>2021-07-02T12:04:53Z</time>
      </trkpt>
      <trkpt lat="42.359741" lon="1.512118">
        <ele>736.05371</ele>
        <time>2021-07-02T12:04:54Z</time>
      </trkpt>
      <trkpt lat="42.359818" lon="1.512276">
        <ele>735.98279</ele>
        <time>2021-07-02T12:04:55Z</time>
      </trkpt>
      <trkpt lat="42.359894" lon="1.512433">
        <ele>735.69946</ele>
        <time>2021-07-02T12:04:56Z</time>
      </trkpt>
      <trkpt lat="42.359959" lon="1.512596">
        <ele>732.85510</ele>
        <time>2021-07-02T12:04:57Z</time>
      </trkpt>
      <trkpt lat="42.360035" lon="1.512805">
        <ele>734.68506</ele>
        <time>2021-07-02T12:04:58Z</time>
      </trkpt>
      <trkpt lat="42.360088" lon="1.513010">
        <ele>734.91431</ele>
        <time>2021-07-02T12:04:59Z</time>
      </trkpt>
      <trkpt lat="42.360138" lon="1.513236">
        <ele>735.34180</ele>
        <time>2021-07-02T12:05:00Z</time>
      </trkpt>
      <trkpt lat="42.360165" lon="1.513448">
        <ele>735.69604</ele>
        <time>2021-07-02T12:05:01Z</time>
      </trkpt>
      <trkpt lat="42.360176" lon="1.513578">
        <ele>735.83301</ele>
        <time>2021-07-02T12:05:02Z</time>
      </trkpt>
      <trkpt lat="42.360161" lon="1.513613">
        <ele>736.10889</ele>
        <time>2021-07-02T12:05:03Z</time>
      </trkpt>
      <trkpt lat="42.360035" lon="1.514100">
        <ele>736.32617</ele>
        <time>2021-07-02T12:05:04Z</time>
      </trkpt>
      <trkpt lat="42.360058" lon="1.514344">
        <ele>736.04651</ele>
        <time>2021-07-02T12:05:05Z</time>
      </trkpt>
      <trkpt lat="42.360058" lon="1.514634">
        <ele>736.04468</ele>
        <time>2021-07-02T12:05:06Z</time>
      </trkpt>
      <trkpt lat="42.360058" lon="1.514634">
        <ele>736.14429</ele>
        <time>2021-07-02T12:05:07Z</time>
      </trkpt>
      <trkpt lat="42.360008" lon="1.514830">
        <ele>735.70410</ele>
        <time>2021-07-02T12:05:08Z</time>
      </trkpt>
      <trkpt lat="42.359982" lon="1.514945">
        <ele>735.84814</ele>
        <time>2021-07-02T12:05:09Z</time>
      </trkpt>
      <trkpt lat="42.359867" lon="1.515400">
        <ele>736.34375</ele>
        <time>2021-07-02T12:05:10Z</time>
      </trkpt>
      <trkpt lat="42.359806" lon="1.515646">
        <ele>736.78687</ele>
        <time>2021-07-02T12:05:11Z</time>
      </trkpt>
      <trkpt lat="42.359734" lon="1.515949">
        <ele>737.00427</ele>
        <time>2021-07-02T12:05:12Z</time>
      </trkpt>
      <trkpt lat="42.359650" lon="1.516322">
        <ele>737.00427</ele>
        <time>2021-07-02T12:05:13Z</time>
      </trkpt>
      <trkpt lat="42.359650" lon="1.516322">
        <ele>737.00427</ele>
        <time>2021-07-02T12:05:14Z</time>
      </trkpt>
      <trkpt lat="42.359581" lon="1.516656">
        <ele>735.76270</ele>
        <time>2021-07-02T12:05:15Z</time>
      </trkpt>
      <trkpt lat="42.359516" lon="1.516976">
        <ele>735.35889</ele>
        <time>2021-07-02T12:05:16Z</time>
      </trkpt>
      <trkpt lat="42.359432" lon="1.517360">
        <ele>735.67017</ele>
        <time>2021-07-02T12:05:17Z</time>
      </trkpt>
      <trkpt lat="42.359364" lon="1.517599">
        <ele>735.49829</ele>
        <time>2021-07-02T12:05:18Z</time>
      </trkpt>
      <trkpt lat="42.359253" lon="1.517892">
        <ele>735.05798</ele>
        <time>2021-07-02T12:05:19Z</time>
      </trkpt>
      <trkpt lat="42.359123" lon="1.518155">
        <ele>735.35278</ele>
        <time>2021-07-02T12:05:20Z</time>
      </trkpt>
      <trkpt lat="42.358952" lon="1.518453">
        <ele>736.28760</ele>
        <time>2021-07-02T12:05:21Z</time>
      </trkpt>
      <trkpt lat="42.358803" lon="1.518681">
        <ele>736.12402</ele>
        <time>2021-07-02T12:05:22Z</time>
      </trkpt>
      <trkpt lat="42.358654" lon="1.518914">
        <ele>736.26477</ele>
        <time>2021-07-02T12:05:23Z</time>
      </trkpt>
      <trkpt lat="42.358486" lon="1.519195">
        <ele>736.11987</ele>
        <time>2021-07-02T12:05:24Z</time>
      </trkpt>
      <trkpt lat="42.358334" lon="1.519457">
        <ele>736.28271</ele>
        <time>2021-07-02T12:05:25Z</time>
      </trkpt>
      <trkpt lat="42.358208" lon="1.519676">
        <ele>735.77612</ele>
        <time>2021-07-02T12:05:26Z</time>
      </trkpt>
      <trkpt lat="42.358086" lon="1.519888">
        <ele>736.35938</ele>
        <time>2021-07-02T12:05:27Z</time>
      </trkpt>
      <trkpt lat="42.357967" lon="1.520093">
        <ele>736.95020</ele>
        <time>2021-07-02T12:05:28Z</time>
      </trkpt>
      <trkpt lat="42.357826" lon="1.520333">
        <ele>736.85474</ele>
        <time>2021-07-02T12:05:29Z</time>
      </trkpt>
      <trkpt lat="42.357704" lon="1.520544">
        <ele>737.51855</ele>
        <time>2021-07-02T12:05:30Z</time>
      </trkpt>
      <trkpt lat="42.357586" lon="1.520758">
        <ele>737.87036</ele>
        <time>2021-07-02T12:05:31Z</time>
      </trkpt>
      <trkpt lat="42.357586" lon="1.520758">
        <ele>737.77344</ele>
        <time>2021-07-02T12:05:32Z</time>
      </trkpt>
      <trkpt lat="42.357342" lon="1.521213">
        <ele>737.86646</ele>
        <time>2021-07-02T12:05:33Z</time>
      </trkpt>
      <trkpt lat="42.357342" lon="1.521213">
        <ele>737.86353</ele>
        <time>2021-07-02T12:05:34Z</time>
      </trkpt>
      <trkpt lat="42.357231" lon="1.521420">
        <ele>737.86353</ele>
        <time>2021-07-02T12:05:35Z</time>
      </trkpt>
      <trkpt lat="42.357105" lon="1.521643">
        <ele>737.86353</ele>
        <time>2021-07-02T12:05:36Z</time>
      </trkpt>
      <trkpt lat="42.357029" lon="1.521786">
        <ele>737.86353</ele>
        <time>2021-07-02T12:05:37Z</time>
      </trkpt>
      <trkpt lat="42.357029" lon="1.521786">
        <ele>737.86353</ele>
        <time>2021-07-02T12:05:38Z</time>
      </trkpt>
      <trkpt lat="42.357029" lon="1.521786">
        <ele>737.86353</ele>
        <time>2021-07-02T12:05:39Z</time>
      </trkpt>
      <trkpt lat="42.357029" lon="1.521786">
        <ele>737.86353</ele>
        <time>2021-07-02T12:05:40Z</time>
      </trkpt>
      <trkpt lat="42.357029" lon="1.521786">
        <ele>738.44824</ele>
        <time>2021-07-02T12:05:41Z</time>
      </trkpt>
      <trkpt lat="42.357029" lon="1.521786">
        <ele>738.55261</ele>
        <time>2021-07-02T12:05:42Z</time>
      </trkpt>
      <trkpt lat="42.356647" lon="1.522529">
        <ele>739.40356</ele>
        <time>2021-07-02T12:05:43Z</time>
      </trkpt>
      <trkpt lat="42.356285" lon="1.523605">
        <ele>739.03638</ele>
        <time>2021-07-02T12:05:44Z</time>
      </trkpt>
      <trkpt lat="42.356243" lon="1.523751">
        <ele>739.71704</ele>
        <time>2021-07-02T12:05:45Z</time>
      </trkpt>
      <trkpt lat="42.356152" lon="1.524072">
        <ele>739.40332</ele>
        <time>2021-07-02T12:05:46Z</time>
      </trkpt>
      <trkpt lat="42.356075" lon="1.524355">
        <ele>739.96851</ele>
        <time>2021-07-02T12:05:47Z</time>
      </trkpt>
      <trkpt lat="42.355995" lon="1.524627">
        <ele>740.09375</ele>
        <time>2021-07-02T12:05:48Z</time>
      </trkpt>
      <trkpt lat="42.355911" lon="1.524920">
        <ele>740.22156</ele>
        <time>2021-07-02T12:05:49Z</time>
      </trkpt>
      <trkpt lat="42.355827" lon="1.525227">
        <ele>739.88843</ele>
        <time>2021-07-02T12:05:50Z</time>
      </trkpt>
      <trkpt lat="42.355766" lon="1.525519">
        <ele>739.53870</ele>
        <time>2021-07-02T12:05:51Z</time>
      </trkpt>
      <trkpt lat="42.355713" lon="1.525868">
        <ele>739.53503</ele>
        <time>2021-07-02T12:05:52Z</time>
      </trkpt>
      <trkpt lat="42.355686" lon="1.526133">
        <ele>739.84937</ele>
        <time>2021-07-02T12:05:53Z</time>
      </trkpt>
      <trkpt lat="42.355690" lon="1.526471">
        <ele>739.22302</ele>
        <time>2021-07-02T12:05:54Z</time>
      </trkpt>
      <trkpt lat="42.355743" lon="1.526766">
        <ele>739.43188</ele>
        <time>2021-07-02T12:05:55Z</time>
      </trkpt>
      <trkpt lat="42.355824" lon="1.527060">
        <ele>739.45068</ele>
        <time>2021-07-02T12:05:56Z</time>
      </trkpt>
      <trkpt lat="42.355919" lon="1.527376">
        <ele>739.35083</ele>
        <time>2021-07-02T12:05:57Z</time>
      </trkpt>
      <trkpt lat="42.356018" lon="1.527718">
        <ele>738.85242</ele>
        <time>2021-07-02T12:05:58Z</time>
      </trkpt>
      <trkpt lat="42.356110" lon="1.528030">
        <ele>738.34143</ele>
        <time>2021-07-02T12:05:59Z</time>
      </trkpt>
      <trkpt lat="42.356201" lon="1.528353">
        <ele>737.24487</ele>
        <time>2021-07-02T12:06:00Z</time>
      </trkpt>
      <trkpt lat="42.356201" lon="1.528353">
        <ele>736.58887</ele>
        <time>2021-07-02T12:06:01Z</time>
      </trkpt>
      <trkpt lat="42.356297" lon="1.528682">
        <ele>735.86023</ele>
        <time>2021-07-02T12:06:02Z</time>
      </trkpt>
      <trkpt lat="42.356388" lon="1.529005">
        <ele>735.18652</ele>
        <time>2021-07-02T12:06:03Z</time>
      </trkpt>
      <trkpt lat="42.356483" lon="1.529354">
        <ele>734.07129</ele>
        <time>2021-07-02T12:06:04Z</time>
      </trkpt>
      <trkpt lat="42.356575" lon="1.529701">
        <ele>732.72607</ele>
        <time>2021-07-02T12:06:05Z</time>
      </trkpt>
      <trkpt lat="42.356655" lon="1.530017">
        <ele>732.22461</ele>
        <time>2021-07-02T12:06:06Z</time>
      </trkpt>
      <trkpt lat="42.356728" lon="1.530328">
        <ele>731.12891</ele>
        <time>2021-07-02T12:06:07Z</time>
      </trkpt>
      <trkpt lat="42.356800" lon="1.530637">
        <ele>730.60547</ele>
        <time>2021-07-02T12:06:08Z</time>
      </trkpt>
      <trkpt lat="42.356857" lon="1.530955">
        <ele>730.47021</ele>
        <time>2021-07-02T12:06:09Z</time>
      </trkpt>
      <trkpt lat="42.356899" lon="1.531274">
        <ele>730.57190</ele>
        <time>2021-07-02T12:06:10Z</time>
      </trkpt>
      <trkpt lat="42.356937" lon="1.531633">
        <ele>729.70190</ele>
        <time>2021-07-02T12:06:11Z</time>
      </trkpt>
      <trkpt lat="42.356972" lon="1.531991">
        <ele>728.87561</ele>
        <time>2021-07-02T12:06:12Z</time>
      </trkpt>
      <trkpt lat="42.357006" lon="1.532343">
        <ele>728.88721</ele>
        <time>2021-07-02T12:06:13Z</time>
      </trkpt>
      <trkpt lat="42.357040" lon="1.532690">
        <ele>728.77100</ele>
        <time>2021-07-02T12:06:14Z</time>
      </trkpt>
      <trkpt lat="42.357067" lon="1.533061">
        <ele>728.60779</ele>
        <time>2021-07-02T12:06:15Z</time>
      </trkpt>
      <trkpt lat="42.357090" lon="1.533404">
        <ele>728.91870</ele>
        <time>2021-07-02T12:06:16Z</time>
      </trkpt>
      <trkpt lat="42.357098" lon="1.533750">
        <ele>729.27344</ele>
        <time>2021-07-02T12:06:17Z</time>
      </trkpt>
      <trkpt lat="42.357094" lon="1.534105">
        <ele>729.79041</ele>
        <time>2021-07-02T12:06:18Z</time>
      </trkpt>
      <trkpt lat="42.357063" lon="1.534464">
        <ele>730.33301</ele>
        <time>2021-07-02T12:06:19Z</time>
      </trkpt>
      <trkpt lat="42.357002" lon="1.534790">
        <ele>729.96387</ele>
        <time>2021-07-02T12:06:20Z</time>
      </trkpt>
      <trkpt lat="42.356922" lon="1.535103">
        <ele>730.75269</ele>
        <time>2021-07-02T12:06:21Z</time>
      </trkpt>
      <trkpt lat="42.356827" lon="1.535434">
        <ele>731.06885</ele>
        <time>2021-07-02T12:06:22Z</time>
      </trkpt>
      <trkpt lat="42.356739" lon="1.535738">
        <ele>731.21533</ele>
        <time>2021-07-02T12:06:23Z</time>
      </trkpt>
      <trkpt lat="42.356674" lon="1.536016">
        <ele>730.07129</ele>
        <time>2021-07-02T12:06:24Z</time>
      </trkpt>
      <trkpt lat="42.356674" lon="1.536016">
        <ele>730.54346</ele>
        <time>2021-07-02T12:06:25Z</time>
      </trkpt>
      <trkpt lat="42.356632" lon="1.536630">
        <ele>730.78723</ele>
        <time>2021-07-02T12:06:26Z</time>
      </trkpt>
      <trkpt lat="42.356632" lon="1.536630">
        <ele>731.73218</ele>
        <time>2021-07-02T12:06:27Z</time>
      </trkpt>
      <trkpt lat="42.356674" lon="1.536935">
        <ele>731.20923</ele>
        <time>2021-07-02T12:06:28Z</time>
      </trkpt>
      <trkpt lat="42.356750" lon="1.537254">
        <ele>730.82764</ele>
        <time>2021-07-02T12:06:29Z</time>
      </trkpt>
      <trkpt lat="42.356827" lon="1.537584">
        <ele>731.45972</ele>
        <time>2021-07-02T12:06:30Z</time>
      </trkpt>
      <trkpt lat="42.356888" lon="1.537904">
        <ele>733.41650</ele>
        <time>2021-07-02T12:06:31Z</time>
      </trkpt>
      <trkpt lat="42.356911" lon="1.538250">
        <ele>733.76660</ele>
        <time>2021-07-02T12:06:32Z</time>
      </trkpt>
      <trkpt lat="42.356899" lon="1.538586">
        <ele>734.05542</ele>
        <time>2021-07-02T12:06:33Z</time>
      </trkpt>
      <trkpt lat="42.356857" lon="1.538935">
        <ele>735.01062</ele>
        <time>2021-07-02T12:06:34Z</time>
      </trkpt>
      <trkpt lat="42.356812" lon="1.539277">
        <ele>734.27417</ele>
        <time>2021-07-02T12:06:35Z</time>
      </trkpt>
      <trkpt lat="42.356766" lon="1.539604">
        <ele>734.95605</ele>
        <time>2021-07-02T12:06:36Z</time>
      </trkpt>
      <trkpt lat="42.356724" lon="1.539912">
        <ele>732.93457</ele>
        <time>2021-07-02T12:06:37Z</time>
      </trkpt>
      <trkpt lat="42.356686" lon="1.540188">
        <ele>733.90869</ele>
        <time>2021-07-02T12:06:38Z</time>
      </trkpt>
      <trkpt lat="42.356667" lon="1.540485">
        <ele>735.16882</ele>
        <time>2021-07-02T12:06:39Z</time>
      </trkpt>
      <trkpt lat="42.356693" lon="1.540760">
        <ele>736.21265</ele>
        <time>2021-07-02T12:06:40Z</time>
      </trkpt>
      <trkpt lat="42.356766" lon="1.541027">
        <ele>737.00659</ele>
        <time>2021-07-02T12:06:41Z</time>
      </trkpt>
      <trkpt lat="42.356880" lon="1.541256">
        <ele>737.00000</ele>
        <time>2021-07-02T12:06:42Z</time>
      </trkpt>
      <trkpt lat="42.357040" lon="1.541452">
        <ele>740.58960</ele>
        <time>2021-07-02T12:06:43Z</time>
      </trkpt>
      <trkpt lat="42.357212" lon="1.541591">
        <ele>743.71729</ele>
        <time>2021-07-02T12:06:44Z</time>
      </trkpt>
      <trkpt lat="42.357475" lon="1.541740">
        <ele>743.19226</ele>
        <time>2021-07-02T12:06:45Z</time>
      </trkpt>
      <trkpt lat="42.357719" lon="1.541860">
        <ele>745.70752</ele>
        <time>2021-07-02T12:06:46Z</time>
      </trkpt>
      <trkpt lat="42.357895" lon="1.541960">
        <ele>743.92871</ele>
        <time>2021-07-02T12:06:47Z</time>
      </trkpt>
      <trkpt lat="42.358089" lon="1.542094">
        <ele>745.67358</ele>
        <time>2021-07-02T12:06:48Z</time>
      </trkpt>
      <trkpt lat="42.358276" lon="1.542297">
        <ele>745.45728</ele>
        <time>2021-07-02T12:06:49Z</time>
      </trkpt>
      <trkpt lat="42.358425" lon="1.542522">
        <ele>746.17395</ele>
        <time>2021-07-02T12:06:50Z</time>
      </trkpt>
      <trkpt lat="42.358555" lon="1.542828">
        <ele>746.01880</ele>
        <time>2021-07-02T12:06:51Z</time>
      </trkpt>
      <trkpt lat="42.358650" lon="1.543113">
        <ele>745.12048</ele>
        <time>2021-07-02T12:06:52Z</time>
      </trkpt>
      <trkpt lat="42.358753" lon="1.543448">
        <ele>745.86670</ele>
        <time>2021-07-02T12:06:53Z</time>
      </trkpt>
      <trkpt lat="42.358833" lon="1.543758">
        <ele>746.16650</ele>
        <time>2021-07-02T12:06:54Z</time>
      </trkpt>
      <trkpt lat="42.358833" lon="1.543758">
        <ele>747.32922</ele>
        <time>2021-07-02T12:06:55Z</time>
      </trkpt>
      <trkpt lat="42.358879" lon="1.544078">
        <ele>744.59033</ele>
        <time>2021-07-02T12:06:56Z</time>
      </trkpt>
      <trkpt lat="42.358894" lon="1.544432">
        <ele>743.60132</ele>
        <time>2021-07-02T12:06:57Z</time>
      </trkpt>
      <trkpt lat="42.358898" lon="1.544756">
        <ele>743.39160</ele>
        <time>2021-07-02T12:06:58Z</time>
      </trkpt>
      <trkpt lat="42.358891" lon="1.545099">
        <ele>743.57617</ele>
        <time>2021-07-02T12:06:59Z</time>
      </trkpt>
      <trkpt lat="42.358868" lon="1.545459">
        <ele>744.79077</ele>
        <time>2021-07-02T12:07:00Z</time>
      </trkpt>
      <trkpt lat="42.358814" lon="1.545819">
        <ele>744.05676</ele>
        <time>2021-07-02T12:07:01Z</time>
      </trkpt>
      <trkpt lat="42.358768" lon="1.546164">
        <ele>743.30420</ele>
        <time>2021-07-02T12:07:02Z</time>
      </trkpt>
      <trkpt lat="42.358719" lon="1.546501">
        <ele>743.93945</ele>
        <time>2021-07-02T12:07:03Z</time>
      </trkpt>
      <trkpt lat="42.358665" lon="1.546832">
        <ele>744.15137</ele>
        <time>2021-07-02T12:07:04Z</time>
      </trkpt>
      <trkpt lat="42.358620" lon="1.547154">
        <ele>744.69275</ele>
        <time>2021-07-02T12:07:05Z</time>
      </trkpt>
      <trkpt lat="42.358574" lon="1.547443">
        <ele>745.80420</ele>
        <time>2021-07-02T12:07:06Z</time>
      </trkpt>
      <trkpt lat="42.358528" lon="1.547737">
        <ele>746.65320</ele>
        <time>2021-07-02T12:07:07Z</time>
      </trkpt>
      <trkpt lat="42.358475" lon="1.548045">
        <ele>747.22778</ele>
        <time>2021-07-02T12:07:08Z</time>
      </trkpt>
      <trkpt lat="42.358406" lon="1.548340">
        <ele>747.52148</ele>
        <time>2021-07-02T12:07:09Z</time>
      </trkpt>
      <trkpt lat="42.358303" lon="1.548643">
        <ele>749.91931</ele>
        <time>2021-07-02T12:07:10Z</time>
      </trkpt>
      <trkpt lat="42.358204" lon="1.548909">
        <ele>750.59509</ele>
        <time>2021-07-02T12:07:11Z</time>
      </trkpt>
      <trkpt lat="42.358086" lon="1.549231">
        <ele>749.39343</ele>
        <time>2021-07-02T12:07:12Z</time>
      </trkpt>
      <trkpt lat="42.357986" lon="1.549522">
        <ele>749.36304</ele>
        <time>2021-07-02T12:07:13Z</time>
      </trkpt>
      <trkpt lat="42.357910" lon="1.549831">
        <ele>750.56763</ele>
        <time>2021-07-02T12:07:14Z</time>
      </trkpt>
      <trkpt lat="42.357872" lon="1.550181">
        <ele>749.90271</ele>
        <time>2021-07-02T12:07:15Z</time>
      </trkpt>
      <trkpt lat="42.357872" lon="1.550525">
        <ele>751.97778</ele>
        <time>2021-07-02T12:07:16Z</time>
      </trkpt>
      <trkpt lat="42.357910" lon="1.550871">
        <ele>752.39331</ele>
        <time>2021-07-02T12:07:17Z</time>
      </trkpt>
      <trkpt lat="42.357983" lon="1.551216">
        <ele>754.99353</ele>
        <time>2021-07-02T12:07:18Z</time>
      </trkpt>
      <trkpt lat="42.358063" lon="1.551568">
        <ele>755.85010</ele>
        <time>2021-07-02T12:07:19Z</time>
      </trkpt>
      <trkpt lat="42.358135" lon="1.551894">
        <ele>756.75696</ele>
        <time>2021-07-02T12:07:20Z</time>
      </trkpt>
      <trkpt lat="42.358223" lon="1.552268">
        <ele>757.95923</ele>
        <time>2021-07-02T12:07:21Z</time>
      </trkpt>
      <trkpt lat="42.358307" lon="1.552628">
        <ele>759.20044</ele>
        <time>2021-07-02T12:07:22Z</time>
      </trkpt>
      <trkpt lat="42.358307" lon="1.552628">
        <ele>759.91284</ele>
        <time>2021-07-02T12:07:23Z</time>
      </trkpt>
      <trkpt lat="42.358379" lon="1.552960">
        <ele>760.74207</ele>
        <time>2021-07-02T12:07:24Z</time>
      </trkpt>
      <trkpt lat="42.358463" lon="1.553329">
        <ele>760.25952</ele>
        <time>2021-07-02T12:07:25Z</time>
      </trkpt>
      <trkpt lat="42.358524" lon="1.553628">
        <ele>760.69055</ele>
        <time>2021-07-02T12:07:26Z</time>
      </trkpt>
      <trkpt lat="42.358540" lon="1.553936">
        <ele>760.83984</ele>
        <time>2021-07-02T12:07:27Z</time>
      </trkpt>
      <trkpt lat="42.358513" lon="1.554251">
        <ele>761.17615</ele>
        <time>2021-07-02T12:07:28Z</time>
      </trkpt>
      <trkpt lat="42.358482" lon="1.554616">
        <ele>760.69360</ele>
        <time>2021-07-02T12:07:29Z</time>
      </trkpt>
      <trkpt lat="42.358452" lon="1.554958">
        <ele>760.92957</ele>
        <time>2021-07-02T12:07:30Z</time>
      </trkpt>
      <trkpt lat="42.358463" lon="1.555264">
        <ele>761.47253</ele>
        <time>2021-07-02T12:07:31Z</time>
      </trkpt>
      <trkpt lat="42.358524" lon="1.555520">
        <ele>761.76782</ele>
        <time>2021-07-02T12:07:32Z</time>
      </trkpt>
      <trkpt lat="42.358597" lon="1.555754">
        <ele>762.42456</ele>
        <time>2021-07-02T12:07:33Z</time>
      </trkpt>
      <trkpt lat="42.358669" lon="1.555985">
        <ele>763.14648</ele>
        <time>2021-07-02T12:07:34Z</time>
      </trkpt>
      <trkpt lat="42.358753" lon="1.556211">
        <ele>762.99438</ele>
        <time>2021-07-02T12:07:35Z</time>
      </trkpt>
      <trkpt lat="42.358849" lon="1.556468">
        <ele>762.95654</ele>
        <time>2021-07-02T12:07:36Z</time>
      </trkpt>
      <trkpt lat="42.358940" lon="1.556717">
        <ele>762.35645</ele>
        <time>2021-07-02T12:07:37Z</time>
      </trkpt>
      <trkpt lat="42.359043" lon="1.556966">
        <ele>760.79810</ele>
        <time>2021-07-02T12:07:38Z</time>
      </trkpt>
      <trkpt lat="42.359154" lon="1.557233">
        <ele>759.77344</ele>
        <time>2021-07-02T12:07:39Z</time>
      </trkpt>
      <trkpt lat="42.359253" lon="1.557488">
        <ele>759.21240</ele>
        <time>2021-07-02T12:07:40Z</time>
      </trkpt>
      <trkpt lat="42.359344" lon="1.557774">
        <ele>758.95312</ele>
        <time>2021-07-02T12:07:41Z</time>
      </trkpt>
      <trkpt lat="42.359402" lon="1.558076">
        <ele>756.12488</ele>
        <time>2021-07-02T12:07:42Z</time>
      </trkpt>
      <trkpt lat="42.359447" lon="1.558387">
        <ele>755.34192</ele>
        <time>2021-07-02T12:07:43Z</time>
      </trkpt>
      <trkpt lat="42.359478" lon="1.558715">
        <ele>753.95569</ele>
        <time>2021-07-02T12:07:44Z</time>
      </trkpt>
      <trkpt lat="42.359478" lon="1.559098">
        <ele>753.10352</ele>
        <time>2021-07-02T12:07:45Z</time>
      </trkpt>
      <trkpt lat="42.359444" lon="1.559458">
        <ele>752.49048</ele>
        <time>2021-07-02T12:07:46Z</time>
      </trkpt>
      <trkpt lat="42.359409" lon="1.559830">
        <ele>752.43958</ele>
        <time>2021-07-02T12:07:47Z</time>
      </trkpt>
      <trkpt lat="42.359379" lon="1.560192">
        <ele>752.65601</ele>
        <time>2021-07-02T12:07:48Z</time>
      </trkpt>
      <trkpt lat="42.359367" lon="1.560570">
        <ele>754.65942</ele>
        <time>2021-07-02T12:07:49Z</time>
      </trkpt>
      <trkpt lat="42.359352" lon="1.560911">
        <ele>756.70898</ele>
        <time>2021-07-02T12:07:50Z</time>
      </trkpt>
      <trkpt lat="42.359367" lon="1.561227">
        <ele>758.22217</ele>
        <time>2021-07-02T12:07:51Z</time>
      </trkpt>
      <trkpt lat="42.359367" lon="1.561227">
        <ele>760.23486</ele>
        <time>2021-07-02T12:07:52Z</time>
      </trkpt>
      <trkpt lat="42.359402" lon="1.561563">
        <ele>761.77942</ele>
        <time>2021-07-02T12:07:53Z</time>
      </trkpt>
      <trkpt lat="42.359455" lon="1.561899">
        <ele>763.38757</ele>
        <time>2021-07-02T12:07:54Z</time>
      </trkpt>
      <trkpt lat="42.359516" lon="1.562233">
        <ele>764.73633</ele>
        <time>2021-07-02T12:07:55Z</time>
      </trkpt>
      <trkpt lat="42.359573" lon="1.562540">
        <ele>764.53271</ele>
        <time>2021-07-02T12:07:56Z</time>
      </trkpt>
      <trkpt lat="42.359634" lon="1.562860">
        <ele>761.69312</ele>
        <time>2021-07-02T12:07:57Z</time>
      </trkpt>
      <trkpt lat="42.359680" lon="1.563159">
        <ele>760.39282</ele>
        <time>2021-07-02T12:07:58Z</time>
      </trkpt>
      <trkpt lat="42.359669" lon="1.563500">
        <ele>761.23352</ele>
        <time>2021-07-02T12:07:59Z</time>
      </trkpt>
      <trkpt lat="42.359619" lon="1.563826">
        <ele>761.92139</ele>
        <time>2021-07-02T12:08:00Z</time>
      </trkpt>
      <trkpt lat="42.359539" lon="1.564168">
        <ele>762.16943</ele>
        <time>2021-07-02T12:08:01Z</time>
      </trkpt>
      <trkpt lat="42.359451" lon="1.564522">
        <ele>762.90869</ele>
        <time>2021-07-02T12:08:02Z</time>
      </trkpt>
      <trkpt lat="42.359371" lon="1.564840">
        <ele>763.75732</ele>
        <time>2021-07-02T12:08:03Z</time>
      </trkpt>
      <trkpt lat="42.359295" lon="1.565139">
        <ele>764.70947</ele>
        <time>2021-07-02T12:08:04Z</time>
      </trkpt>
      <trkpt lat="42.359226" lon="1.565423">
        <ele>764.50110</ele>
        <time>2021-07-02T12:08:05Z</time>
      </trkpt>
      <trkpt lat="42.359154" lon="1.565707">
        <ele>765.65723</ele>
        <time>2021-07-02T12:08:06Z</time>
      </trkpt>
      <trkpt lat="42.359081" lon="1.565998">
        <ele>766.53333</ele>
        <time>2021-07-02T12:08:07Z</time>
      </trkpt>
      <trkpt lat="42.359028" lon="1.566257">
        <ele>767.18530</ele>
        <time>2021-07-02T12:08:08Z</time>
      </trkpt>
      <trkpt lat="42.359035" lon="1.566521">
        <ele>768.37964</ele>
        <time>2021-07-02T12:08:09Z</time>
      </trkpt>
      <trkpt lat="42.359077" lon="1.566815">
        <ele>769.09924</ele>
        <time>2021-07-02T12:08:10Z</time>
      </trkpt>
      <trkpt lat="42.359165" lon="1.567131">
        <ele>770.40051</ele>
        <time>2021-07-02T12:08:11Z</time>
      </trkpt>
      <trkpt lat="42.359310" lon="1.567464">
        <ele>770.99072</ele>
        <time>2021-07-02T12:08:12Z</time>
      </trkpt>
      <trkpt lat="42.359440" lon="1.567739">
        <ele>770.96045</ele>
        <time>2021-07-02T12:08:13Z</time>
      </trkpt>
      <trkpt lat="42.359531" lon="1.567981">
        <ele>771.12122</ele>
        <time>2021-07-02T12:08:14Z</time>
      </trkpt>
      <trkpt lat="42.359577" lon="1.568285">
        <ele>772.92065</ele>
        <time>2021-07-02T12:08:15Z</time>
      </trkpt>
      <trkpt lat="42.359615" lon="1.568565">
        <ele>772.68213</ele>
        <time>2021-07-02T12:08:16Z</time>
      </trkpt>
      <trkpt lat="42.359680" lon="1.568885">
        <ele>774.53723</ele>
        <time>2021-07-02T12:08:17Z</time>
      </trkpt>
      <trkpt lat="42.359791" lon="1.569198">
        <ele>775.67542</ele>
        <time>2021-07-02T12:08:18Z</time>
      </trkpt>
      <trkpt lat="42.359791" lon="1.569198">
        <ele>776.13135</ele>
        <time>2021-07-02T12:08:19Z</time>
      </trkpt>
      <trkpt lat="42.360104" lon="1.569619">
        <ele>776.87329</ele>
        <time>2021-07-02T12:08:20Z</time>
      </trkpt>
      <trkpt lat="42.360104" lon="1.569619">
        <ele>778.20679</ele>
        <time>2021-07-02T12:08:21Z</time>
      </trkpt>
      <trkpt lat="42.360268" lon="1.569785">
        <ele>777.25464</ele>
        <time>2021-07-02T12:08:22Z</time>
      </trkpt>
      <trkpt lat="42.360489" lon="1.570014">
        <ele>779.23730</ele>
        <time>2021-07-02T12:08:23Z</time>
      </trkpt>
      <trkpt lat="42.360676" lon="1.570209">
        <ele>780.50427</ele>
        <time>2021-07-02T12:08:24Z</time>
      </trkpt>
      <trkpt lat="42.360886" lon="1.570424">
        <ele>780.11011</ele>
        <time>2021-07-02T12:08:25Z</time>
      </trkpt>
      <trkpt lat="42.361061" lon="1.570668">
        <ele>781.16345</ele>
        <time>2021-07-02T12:08:26Z</time>
      </trkpt>
      <trkpt lat="42.361210" lon="1.570937">
        <ele>781.07202</ele>
        <time>2021-07-02T12:08:27Z</time>
      </trkpt>
      <trkpt lat="42.361332" lon="1.571193">
        <ele>782.03162</ele>
        <time>2021-07-02T12:08:28Z</time>
      </trkpt>
      <trkpt lat="42.361446" lon="1.571439">
        <ele>780.93848</ele>
        <time>2021-07-02T12:08:29Z</time>
      </trkpt>
      <trkpt lat="42.361538" lon="1.571693">
        <ele>781.19800</ele>
        <time>2021-07-02T12:08:30Z</time>
      </trkpt>
      <trkpt lat="42.361607" lon="1.572006">
        <ele>781.90112</ele>
        <time>2021-07-02T12:08:31Z</time>
      </trkpt>
      <trkpt lat="42.361698" lon="1.572308">
        <ele>781.91443</ele>
        <time>2021-07-02T12:08:32Z</time>
      </trkpt>
      <trkpt lat="42.361797" lon="1.572561">
        <ele>782.81152</ele>
        <time>2021-07-02T12:08:33Z</time>
      </trkpt>
      <trkpt lat="42.361908" lon="1.572816">
        <ele>783.23315</ele>
        <time>2021-07-02T12:08:34Z</time>
      </trkpt>
      <trkpt lat="42.362019" lon="1.573056">
        <ele>783.19702</ele>
        <time>2021-07-02T12:08:35Z</time>
      </trkpt>
      <trkpt lat="42.362103" lon="1.573304">
        <ele>783.44946</ele>
        <time>2021-07-02T12:08:36Z</time>
      </trkpt>
      <trkpt lat="42.362144" lon="1.573576">
        <ele>783.35840</ele>
        <time>2021-07-02T12:08:37Z</time>
      </trkpt>
      <trkpt lat="42.362148" lon="1.573883">
        <ele>782.83496</ele>
        <time>2021-07-02T12:08:38Z</time>
      </trkpt>
      <trkpt lat="42.362099" lon="1.574236">
        <ele>782.62988</ele>
        <time>2021-07-02T12:08:39Z</time>
      </trkpt>
      <trkpt lat="42.362022" lon="1.574528">
        <ele>782.74475</ele>
        <time>2021-07-02T12:08:40Z</time>
      </trkpt>
      <trkpt lat="42.361935" lon="1.574850">
        <ele>783.35522</ele>
        <time>2021-07-02T12:08:41Z</time>
      </trkpt>
      <trkpt lat="42.361916" lon="1.574916">
        <ele>784.83325</ele>
        <time>2021-07-02T12:08:42Z</time>
      </trkpt>
      <trkpt lat="42.361687" lon="1.575404">
        <ele>785.54590</ele>
        <time>2021-07-02T12:08:43Z</time>
      </trkpt>
      <trkpt lat="42.361687" lon="1.575747">
        <ele>785.30713</ele>
        <time>2021-07-02T12:08:44Z</time>
      </trkpt>
      <trkpt lat="42.361607" lon="1.576028">
        <ele>786.20581</ele>
        <time>2021-07-02T12:08:45Z</time>
      </trkpt>
      <trkpt lat="42.361526" lon="1.576309">
        <ele>786.18677</ele>
        <time>2021-07-02T12:08:46Z</time>
      </trkpt>
      <trkpt lat="42.361431" lon="1.576538">
        <ele>786.84497</ele>
        <time>2021-07-02T12:08:47Z</time>
      </trkpt>
      <trkpt lat="42.361431" lon="1.576538">
        <ele>787.45410</ele>
        <time>2021-07-02T12:08:48Z</time>
      </trkpt>
      <trkpt lat="42.361286" lon="1.576763">
        <ele>787.98840</ele>
        <time>2021-07-02T12:08:49Z</time>
      </trkpt>
      <trkpt lat="42.361095" lon="1.576968">
        <ele>788.66943</ele>
        <time>2021-07-02T12:08:50Z</time>
      </trkpt>
      <trkpt lat="42.360889" lon="1.577140">
        <ele>789.81580</ele>
        <time>2021-07-02T12:08:51Z</time>
      </trkpt>
      <trkpt lat="42.360683" lon="1.577297">
        <ele>791.64539</ele>
        <time>2021-07-02T12:08:52Z</time>
      </trkpt>
      <trkpt lat="42.360435" lon="1.577460">
        <ele>792.71045</ele>
        <time>2021-07-02T12:08:53Z</time>
      </trkpt>
      <trkpt lat="42.360222" lon="1.577601">
        <ele>794.26611</ele>
        <time>2021-07-02T12:08:54Z</time>
      </trkpt>
      <trkpt lat="42.360023" lon="1.577731">
        <ele>795.51892</ele>
        <time>2021-07-02T12:08:55Z</time>
      </trkpt>
      <trkpt lat="42.359837" lon="1.577858">
        <ele>797.05127</ele>
        <time>2021-07-02T12:08:56Z</time>
      </trkpt>
      <trkpt lat="42.359638" lon="1.578007">
        <ele>798.04370</ele>
        <time>2021-07-02T12:08:57Z</time>
      </trkpt>
      <trkpt lat="42.359459" lon="1.578198">
        <ele>798.45703</ele>
        <time>2021-07-02T12:08:58Z</time>
      </trkpt>
      <trkpt lat="42.359299" lon="1.578441">
        <ele>799.58569</ele>
        <time>2021-07-02T12:08:59Z</time>
      </trkpt>
      <trkpt lat="42.359177" lon="1.578714">
        <ele>801.28674</ele>
        <time>2021-07-02T12:09:00Z</time>
      </trkpt>
      <trkpt lat="42.359100" lon="1.579004">
        <ele>802.03687</ele>
        <time>2021-07-02T12:09:01Z</time>
      </trkpt>
      <trkpt lat="42.359055" lon="1.579298">
        <ele>803.12280</ele>
        <time>2021-07-02T12:09:02Z</time>
      </trkpt>
      <trkpt lat="42.359051" lon="1.579594">
        <ele>803.31335</ele>
        <time>2021-07-02T12:09:03Z</time>
      </trkpt>
      <trkpt lat="42.359077" lon="1.579914">
        <ele>802.91052</ele>
        <time>2021-07-02T12:09:04Z</time>
      </trkpt>
      <trkpt lat="42.359165" lon="1.580229">
        <ele>802.22852</ele>
        <time>2021-07-02T12:09:05Z</time>
      </trkpt>
      <trkpt lat="42.359287" lon="1.580524">
        <ele>801.81152</ele>
        <time>2021-07-02T12:09:06Z</time>
      </trkpt>
      <trkpt lat="42.359413" lon="1.580792">
        <ele>801.36157</ele>
        <time>2021-07-02T12:09:07Z</time>
      </trkpt>
      <trkpt lat="42.359570" lon="1.581095">
        <ele>800.84961</ele>
        <time>2021-07-02T12:09:08Z</time>
      </trkpt>
      <trkpt lat="42.359737" lon="1.581430">
        <ele>800.07471</ele>
        <time>2021-07-02T12:09:09Z</time>
      </trkpt>
      <trkpt lat="42.359905" lon="1.581756">
        <ele>799.52368</ele>
        <time>2021-07-02T12:09:10Z</time>
      </trkpt>
      <trkpt lat="42.360065" lon="1.582068">
        <ele>800.13708</ele>
        <time>2021-07-02T12:09:11Z</time>
      </trkpt>
      <trkpt lat="42.360203" lon="1.582342">
        <ele>799.88086</ele>
        <time>2021-07-02T12:09:12Z</time>
      </trkpt>
      <trkpt lat="42.360325" lon="1.582597">
        <ele>800.79321</ele>
        <time>2021-07-02T12:09:13Z</time>
      </trkpt>
      <trkpt lat="42.360409" lon="1.582883">
        <ele>801.48755</ele>
        <time>2021-07-02T12:09:14Z</time>
      </trkpt>
      <trkpt lat="42.360443" lon="1.583148">
        <ele>802.00757</ele>
        <time>2021-07-02T12:09:15Z</time>
      </trkpt>
      <trkpt lat="42.360455" lon="1.583449">
        <ele>801.60498</ele>
        <time>2021-07-02T12:09:16Z</time>
      </trkpt>
      <trkpt lat="42.360428" lon="1.583850">
        <ele>802.55664</ele>
        <time>2021-07-02T12:09:17Z</time>
      </trkpt>
      <trkpt lat="42.360386" lon="1.584166">
        <ele>802.72437</ele>
        <time>2021-07-02T12:09:18Z</time>
      </trkpt>
      <trkpt lat="42.360352" lon="1.584452">
        <ele>803.48718</ele>
        <time>2021-07-02T12:09:19Z</time>
      </trkpt>
      <trkpt lat="42.360332" lon="1.584750">
        <ele>802.78564</ele>
        <time>2021-07-02T12:09:20Z</time>
      </trkpt>
      <trkpt lat="42.360332" lon="1.584750">
        <ele>803.15259</ele>
        <time>2021-07-02T12:09:21Z</time>
      </trkpt>
      <trkpt lat="42.360348" lon="1.585036">
        <ele>803.65942</ele>
        <time>2021-07-02T12:09:22Z</time>
      </trkpt>
      <trkpt lat="42.360413" lon="1.585334">
        <ele>804.18188</ele>
        <time>2021-07-02T12:09:23Z</time>
      </trkpt>
      <trkpt lat="42.360493" lon="1.585594">
        <ele>803.69836</ele>
        <time>2021-07-02T12:09:24Z</time>
      </trkpt>
      <trkpt lat="42.360600" lon="1.585864">
        <ele>804.17188</ele>
        <time>2021-07-02T12:09:25Z</time>
      </trkpt>
      <trkpt lat="42.360714" lon="1.586099">
        <ele>803.63062</ele>
        <time>2021-07-02T12:09:26Z</time>
      </trkpt>
      <trkpt lat="42.360836" lon="1.586290">
        <ele>803.14685</ele>
        <time>2021-07-02T12:09:27Z</time>
      </trkpt>
      <trkpt lat="42.360992" lon="1.586468">
        <ele>803.32007</ele>
        <time>2021-07-02T12:09:28Z</time>
      </trkpt>
      <trkpt lat="42.361172" lon="1.586650">
        <ele>803.25708</ele>
        <time>2021-07-02T12:09:29Z</time>
      </trkpt>
      <trkpt lat="42.361343" lon="1.586807">
        <ele>803.60986</ele>
        <time>2021-07-02T12:09:30Z</time>
      </trkpt>
      <trkpt lat="42.361511" lon="1.586947">
        <ele>803.68311</ele>
        <time>2021-07-02T12:09:31Z</time>
      </trkpt>
      <trkpt lat="42.361694" lon="1.587090">
        <ele>802.39990</ele>
        <time>2021-07-02T12:09:32Z</time>
      </trkpt>
      <trkpt lat="42.361862" lon="1.587232">
        <ele>802.15759</ele>
        <time>2021-07-02T12:09:33Z</time>
      </trkpt>
      <trkpt lat="42.362030" lon="1.587377">
        <ele>802.32642</ele>
        <time>2021-07-02T12:09:34Z</time>
      </trkpt>
      <trkpt lat="42.362206" lon="1.587533">
        <ele>802.41968</ele>
        <time>2021-07-02T12:09:35Z</time>
      </trkpt>
      <trkpt lat="42.362392" lon="1.587701">
        <ele>800.13647</ele>
        <time>2021-07-02T12:09:36Z</time>
      </trkpt>
      <trkpt lat="42.362579" lon="1.587863">
        <ele>799.90454</ele>
        <time>2021-07-02T12:09:37Z</time>
      </trkpt>
      <trkpt lat="42.362778" lon="1.587965">
        <ele>799.10425</ele>
        <time>2021-07-02T12:09:38Z</time>
      </trkpt>
      <trkpt lat="42.363010" lon="1.588030">
        <ele>798.37158</ele>
        <time>2021-07-02T12:09:39Z</time>
      </trkpt>
      <trkpt lat="42.363255" lon="1.588096">
        <ele>798.24902</ele>
        <time>2021-07-02T12:09:40Z</time>
      </trkpt>
      <trkpt lat="42.363525" lon="1.588162">
        <ele>798.48193</ele>
        <time>2021-07-02T12:09:41Z</time>
      </trkpt>
      <trkpt lat="42.363754" lon="1.588211">
        <ele>797.97534</ele>
        <time>2021-07-02T12:09:42Z</time>
      </trkpt>
      <trkpt lat="42.363995" lon="1.588219">
        <ele>797.37097</ele>
        <time>2021-07-02T12:09:43Z</time>
      </trkpt>
      <trkpt lat="42.364227" lon="1.588201">
        <ele>796.63501</ele>
        <time>2021-07-02T12:09:44Z</time>
      </trkpt>
      <trkpt lat="42.364494" lon="1.588146">
        <ele>796.74866</ele>
        <time>2021-07-02T12:09:45Z</time>
      </trkpt>
      <trkpt lat="42.364742" lon="1.588092">
        <ele>796.63757</ele>
        <time>2021-07-02T12:09:46Z</time>
      </trkpt>
      <trkpt lat="42.364983" lon="1.588035">
        <ele>796.84558</ele>
        <time>2021-07-02T12:09:47Z</time>
      </trkpt>
      <trkpt lat="42.365192" lon="1.587985">
        <ele>796.87573</ele>
        <time>2021-07-02T12:09:48Z</time>
      </trkpt>
      <trkpt lat="42.365440" lon="1.587949">
        <ele>796.83521</ele>
        <time>2021-07-02T12:09:49Z</time>
      </trkpt>
      <trkpt lat="42.365654" lon="1.587923">
        <ele>797.28882</ele>
        <time>2021-07-02T12:09:50Z</time>
      </trkpt>
      <trkpt lat="42.365883" lon="1.587916">
        <ele>798.13904</ele>
        <time>2021-07-02T12:09:51Z</time>
      </trkpt>
      <trkpt lat="42.366104" lon="1.587976">
        <ele>799.27563</ele>
        <time>2021-07-02T12:09:52Z</time>
      </trkpt>
      <trkpt lat="42.366333" lon="1.588091">
        <ele>801.14148</ele>
        <time>2021-07-02T12:09:53Z</time>
      </trkpt>
      <trkpt lat="42.366508" lon="1.588236">
        <ele>801.49280</ele>
        <time>2021-07-02T12:09:54Z</time>
      </trkpt>
      <trkpt lat="42.366676" lon="1.588414">
        <ele>802.04871</ele>
        <time>2021-07-02T12:09:55Z</time>
      </trkpt>
      <trkpt lat="42.366837" lon="1.588632">
        <ele>803.18652</ele>
        <time>2021-07-02T12:09:56Z</time>
      </trkpt>
      <trkpt lat="42.366959" lon="1.588867">
        <ele>804.84326</ele>
        <time>2021-07-02T12:09:57Z</time>
      </trkpt>
      <trkpt lat="42.367081" lon="1.589144">
        <ele>805.11194</ele>
        <time>2021-07-02T12:09:58Z</time>
      </trkpt>
      <trkpt lat="42.367218" lon="1.589467">
        <ele>803.36255</ele>
        <time>2021-07-02T12:09:59Z</time>
      </trkpt>
      <trkpt lat="42.367367" lon="1.589808">
        <ele>804.39380</ele>
        <time>2021-07-02T12:10:00Z</time>
      </trkpt>
      <trkpt lat="42.367367" lon="1.589808">
        <ele>805.87695</ele>
        <time>2021-07-02T12:10:01Z</time>
      </trkpt>
      <trkpt lat="42.367527" lon="1.590178">
        <ele>805.66992</ele>
        <time>2021-07-02T12:10:02Z</time>
      </trkpt>
      <trkpt lat="42.367691" lon="1.590562">
        <ele>806.67603</ele>
        <time>2021-07-02T12:10:03Z</time>
      </trkpt>
      <trkpt lat="42.367840" lon="1.590905">
        <ele>807.65283</ele>
        <time>2021-07-02T12:10:04Z</time>
      </trkpt>
      <trkpt lat="42.367973" lon="1.591218">
        <ele>808.76904</ele>
        <time>2021-07-02T12:10:05Z</time>
      </trkpt>
      <trkpt lat="42.368111" lon="1.591528">
        <ele>809.95630</ele>
        <time>2021-07-02T12:10:06Z</time>
      </trkpt>
      <trkpt lat="42.368233" lon="1.591846">
        <ele>810.49194</ele>
        <time>2021-07-02T12:10:07Z</time>
      </trkpt>
      <trkpt lat="42.368340" lon="1.592178">
        <ele>811.24341</ele>
        <time>2021-07-02T12:10:08Z</time>
      </trkpt>
      <trkpt lat="42.368423" lon="1.592523">
        <ele>811.70178</ele>
        <time>2021-07-02T12:10:09Z</time>
      </trkpt>
      <trkpt lat="42.368477" lon="1.592864">
        <ele>812.54053</ele>
        <time>2021-07-02T12:10:10Z</time>
      </trkpt>
      <trkpt lat="42.368515" lon="1.593219">
        <ele>812.96729</ele>
        <time>2021-07-02T12:10:11Z</time>
      </trkpt>
      <trkpt lat="42.368546" lon="1.593586">
        <ele>814.27747</ele>
        <time>2021-07-02T12:10:12Z</time>
      </trkpt>
      <trkpt lat="42.368584" lon="1.593945">
        <ele>815.70898</ele>
        <time>2021-07-02T12:10:13Z</time>
      </trkpt>
      <trkpt lat="42.368607" lon="1.594294">
        <ele>816.43188</ele>
        <time>2021-07-02T12:10:14Z</time>
      </trkpt>
      <trkpt lat="42.368633" lon="1.594639">
        <ele>818.76160</ele>
        <time>2021-07-02T12:10:15Z</time>
      </trkpt>
      <trkpt lat="42.368637" lon="1.594979">
        <ele>820.93848</ele>
        <time>2021-07-02T12:10:16Z</time>
      </trkpt>
      <trkpt lat="42.368645" lon="1.595291">
        <ele>822.13135</ele>
        <time>2021-07-02T12:10:17Z</time>
      </trkpt>
      <trkpt lat="42.368656" lon="1.595610">
        <ele>822.53638</ele>
        <time>2021-07-02T12:10:18Z</time>
      </trkpt>
      <trkpt lat="42.368687" lon="1.595929">
        <ele>823.80713</ele>
        <time>2021-07-02T12:10:19Z</time>
      </trkpt>
      <trkpt lat="42.368748" lon="1.596227">
        <ele>825.16504</ele>
        <time>2021-07-02T12:10:20Z</time>
      </trkpt>
      <trkpt lat="42.368835" lon="1.596491">
        <ele>827.27563</ele>
        <time>2021-07-02T12:10:21Z</time>
      </trkpt>
      <trkpt lat="42.368950" lon="1.596746">
        <ele>828.38281</ele>
        <time>2021-07-02T12:10:22Z</time>
      </trkpt>
      <trkpt lat="42.369087" lon="1.597026">
        <ele>828.85742</ele>
        <time>2021-07-02T12:10:23Z</time>
      </trkpt>
      <trkpt lat="42.369213" lon="1.597272">
        <ele>830.16223</ele>
        <time>2021-07-02T12:10:24Z</time>
      </trkpt>
      <trkpt lat="42.369362" lon="1.597486">
        <ele>830.74683</ele>
        <time>2021-07-02T12:10:25Z</time>
      </trkpt>
      <trkpt lat="42.369534" lon="1.597662">
        <ele>831.66016</ele>
        <time>2021-07-02T12:10:26Z</time>
      </trkpt>
      <trkpt lat="42.369736" lon="1.597846">
        <ele>832.56885</ele>
        <time>2021-07-02T12:10:27Z</time>
      </trkpt>
      <trkpt lat="42.369747" lon="1.597865">
        <ele>832.43506</ele>
        <time>2021-07-02T12:10:28Z</time>
      </trkpt>
      <trkpt lat="42.370056" lon="1.598220">
        <ele>832.57837</ele>
        <time>2021-07-02T12:10:29Z</time>
      </trkpt>
      <trkpt lat="42.370140" lon="1.598159">
        <ele>831.09497</ele>
        <time>2021-07-02T12:10:30Z</time>
      </trkpt>
      <trkpt lat="42.370140" lon="1.598159">
        <ele>830.10742</ele>
        <time>2021-07-02T12:10:31Z</time>
      </trkpt>
      <trkpt lat="42.370495" lon="1.598432">
        <ele>829.65894</ele>
        <time>2021-07-02T12:10:32Z</time>
      </trkpt>
      <trkpt lat="42.370632" lon="1.598672">
        <ele>829.68579</ele>
        <time>2021-07-02T12:10:33Z</time>
      </trkpt>
      <trkpt lat="42.370724" lon="1.598899">
        <ele>829.73267</ele>
        <time>2021-07-02T12:10:34Z</time>
      </trkpt>
      <trkpt lat="42.370842" lon="1.599252">
        <ele>829.72168</ele>
        <time>2021-07-02T12:10:35Z</time>
      </trkpt>
      <trkpt lat="42.370945" lon="1.599575">
        <ele>829.73047</ele>
        <time>2021-07-02T12:10:36Z</time>
      </trkpt>
      <trkpt lat="42.371052" lon="1.599930">
        <ele>829.29175</ele>
        <time>2021-07-02T12:10:37Z</time>
      </trkpt>
      <trkpt lat="42.371147" lon="1.600249">
        <ele>828.75366</ele>
        <time>2021-07-02T12:10:38Z</time>
      </trkpt>
      <trkpt lat="42.371223" lon="1.600546">
        <ele>828.01074</ele>
        <time>2021-07-02T12:10:39Z</time>
      </trkpt>
      <trkpt lat="42.371284" lon="1.600857">
        <ele>828.05969</ele>
        <time>2021-07-02T12:10:40Z</time>
      </trkpt>
      <trkpt lat="42.371304" lon="1.601213">
        <ele>826.41895</ele>
        <time>2021-07-02T12:10:41Z</time>
      </trkpt>
      <trkpt lat="42.371323" lon="1.601577">
        <ele>826.19800</ele>
        <time>2021-07-02T12:10:42Z</time>
      </trkpt>
      <trkpt lat="42.371311" lon="1.601947">
        <ele>825.66394</ele>
        <time>2021-07-02T12:10:43Z</time>
      </trkpt>
      <trkpt lat="42.371288" lon="1.602317">
        <ele>824.78967</ele>
        <time>2021-07-02T12:10:44Z</time>
      </trkpt>
      <trkpt lat="42.371254" lon="1.602687">
        <ele>824.47571</ele>
        <time>2021-07-02T12:10:45Z</time>
      </trkpt>
      <trkpt lat="42.371223" lon="1.603049">
        <ele>824.44592</ele>
        <time>2021-07-02T12:10:46Z</time>
      </trkpt>
      <trkpt lat="42.371193" lon="1.603442">
        <ele>823.90137</ele>
        <time>2021-07-02T12:10:47Z</time>
      </trkpt>
      <trkpt lat="42.371181" lon="1.603815">
        <ele>823.56787</ele>
        <time>2021-07-02T12:10:48Z</time>
      </trkpt>
      <trkpt lat="42.371155" lon="1.604197">
        <ele>823.32202</ele>
        <time>2021-07-02T12:10:49Z</time>
      </trkpt>
      <trkpt lat="42.371128" lon="1.604589">
        <ele>823.50305</ele>
        <time>2021-07-02T12:10:50Z</time>
      </trkpt>
      <trkpt lat="42.371101" lon="1.604956">
        <ele>823.67444</ele>
        <time>2021-07-02T12:10:51Z</time>
      </trkpt>
      <trkpt lat="42.371075" lon="1.605298">
        <ele>824.14624</ele>
        <time>2021-07-02T12:10:52Z</time>
      </trkpt>
      <trkpt lat="42.371052" lon="1.605646">
        <ele>824.93945</ele>
        <time>2021-07-02T12:10:53Z</time>
      </trkpt>
      <trkpt lat="42.371033" lon="1.605953">
        <ele>825.24512</ele>
        <time>2021-07-02T12:10:54Z</time>
      </trkpt>
      <trkpt lat="42.371006" lon="1.606285">
        <ele>827.02673</ele>
        <time>2021-07-02T12:10:55Z</time>
      </trkpt>
      <trkpt lat="42.370983" lon="1.606606">
        <ele>828.10327</ele>
        <time>2021-07-02T12:10:56Z</time>
      </trkpt>
      <trkpt lat="42.370956" lon="1.606947">
        <ele>828.92188</ele>
        <time>2021-07-02T12:10:57Z</time>
      </trkpt>
      <trkpt lat="42.370934" lon="1.607260">
        <ele>829.97986</ele>
        <time>2021-07-02T12:10:58Z</time>
      </trkpt>
      <trkpt lat="42.370899" lon="1.607558">
        <ele>831.65344</ele>
        <time>2021-07-02T12:10:59Z</time>
      </trkpt>
      <trkpt lat="42.370899" lon="1.607558">
        <ele>832.72412</ele>
        <time>2021-07-02T12:11:00Z</time>
      </trkpt>
      <trkpt lat="42.370834" lon="1.607890">
        <ele>833.53931</ele>
        <time>2021-07-02T12:11:01Z</time>
      </trkpt>
      <trkpt lat="42.370766" lon="1.608188">
        <ele>834.31738</ele>
        <time>2021-07-02T12:11:02Z</time>
      </trkpt>
      <trkpt lat="42.370663" lon="1.608485">
        <ele>835.23779</ele>
        <time>2021-07-02T12:11:03Z</time>
      </trkpt>
      <trkpt lat="42.370548" lon="1.608777">
        <ele>835.74402</ele>
        <time>2021-07-02T12:11:04Z</time>
      </trkpt>
      <trkpt lat="42.370419" lon="1.609049">
        <ele>836.84814</ele>
        <time>2021-07-02T12:11:05Z</time>
      </trkpt>
      <trkpt lat="42.370274" lon="1.609289">
        <ele>838.00977</ele>
        <time>2021-07-02T12:11:06Z</time>
      </trkpt>
      <trkpt lat="42.370110" lon="1.609514">
        <ele>838.25159</ele>
        <time>2021-07-02T12:11:07Z</time>
      </trkpt>
      <trkpt lat="42.369946" lon="1.609716">
        <ele>838.71118</ele>
        <time>2021-07-02T12:11:08Z</time>
      </trkpt>
      <trkpt lat="42.369778" lon="1.609919">
        <ele>839.33203</ele>
        <time>2021-07-02T12:11:09Z</time>
      </trkpt>
      <trkpt lat="42.369629" lon="1.610104">
        <ele>840.54016</ele>
        <time>2021-07-02T12:11:10Z</time>
      </trkpt>
      <trkpt lat="42.369480" lon="1.610284">
        <ele>840.44812</ele>
        <time>2021-07-02T12:11:11Z</time>
      </trkpt>
      <trkpt lat="42.369347" lon="1.610492">
        <ele>841.14124</ele>
        <time>2021-07-02T12:11:12Z</time>
      </trkpt>
      <trkpt lat="42.369236" lon="1.610725">
        <ele>841.68262</ele>
        <time>2021-07-02T12:11:13Z</time>
      </trkpt>
      <trkpt lat="42.369144" lon="1.610999">
        <ele>840.49060</ele>
        <time>2021-07-02T12:11:14Z</time>
      </trkpt>
      <trkpt lat="42.369087" lon="1.611287">
        <ele>841.01782</ele>
        <time>2021-07-02T12:11:15Z</time>
      </trkpt>
      <trkpt lat="42.369061" lon="1.611599">
        <ele>842.00024</ele>
        <time>2021-07-02T12:11:16Z</time>
      </trkpt>
      <trkpt lat="42.369061" lon="1.611936">
        <ele>842.59973</ele>
        <time>2021-07-02T12:11:17Z</time>
      </trkpt>
      <trkpt lat="42.369087" lon="1.612313">
        <ele>843.79761</ele>
        <time>2021-07-02T12:11:18Z</time>
      </trkpt>
      <trkpt lat="42.369144" lon="1.612754">
        <ele>843.87842</ele>
        <time>2021-07-02T12:11:19Z</time>
      </trkpt>
      <trkpt lat="42.369205" lon="1.613145">
        <ele>843.55957</ele>
        <time>2021-07-02T12:11:20Z</time>
      </trkpt>
      <trkpt lat="42.369274" lon="1.613548">
        <ele>843.98364</ele>
        <time>2021-07-02T12:11:21Z</time>
      </trkpt>
      <trkpt lat="42.369343" lon="1.613933">
        <ele>845.02380</ele>
        <time>2021-07-02T12:11:22Z</time>
      </trkpt>
      <trkpt lat="42.369419" lon="1.614301">
        <ele>846.26550</ele>
        <time>2021-07-02T12:11:23Z</time>
      </trkpt>
      <trkpt lat="42.369503" lon="1.614681">
        <ele>848.06030</ele>
        <time>2021-07-02T12:11:24Z</time>
      </trkpt>
      <trkpt lat="42.369587" lon="1.615039">
        <ele>849.43726</ele>
        <time>2021-07-02T12:11:25Z</time>
      </trkpt>
      <trkpt lat="42.369682" lon="1.615410">
        <ele>851.15967</ele>
        <time>2021-07-02T12:11:26Z</time>
      </trkpt>
      <trkpt lat="42.369785" lon="1.615777">
        <ele>851.64868</ele>
        <time>2021-07-02T12:11:27Z</time>
      </trkpt>
      <trkpt lat="42.369884" lon="1.616111">
        <ele>852.42383</ele>
        <time>2021-07-02T12:11:28Z</time>
      </trkpt>
      <trkpt lat="42.369991" lon="1.616483">
        <ele>852.53674</ele>
        <time>2021-07-02T12:11:29Z</time>
      </trkpt>
      <trkpt lat="42.370098" lon="1.616824">
        <ele>853.23291</ele>
        <time>2021-07-02T12:11:30Z</time>
      </trkpt>
      <trkpt lat="42.370205" lon="1.617144">
        <ele>854.61987</ele>
        <time>2021-07-02T12:11:31Z</time>
      </trkpt>
      <trkpt lat="42.370319" lon="1.617480">
        <ele>855.72351</ele>
        <time>2021-07-02T12:11:32Z</time>
      </trkpt>
      <trkpt lat="42.370426" lon="1.617807">
        <ele>856.00879</ele>
        <time>2021-07-02T12:11:33Z</time>
      </trkpt>
      <trkpt lat="42.370544" lon="1.618134">
        <ele>855.88513</ele>
        <time>2021-07-02T12:11:34Z</time>
      </trkpt>
      <trkpt lat="42.370655" lon="1.618439">
        <ele>856.81372</ele>
        <time>2021-07-02T12:11:35Z</time>
      </trkpt>
      <trkpt lat="42.370655" lon="1.618439">
        <ele>858.60815</ele>
        <time>2021-07-02T12:11:36Z</time>
      </trkpt>
      <trkpt lat="42.370766" lon="1.618751">
        <ele>859.24780</ele>
        <time>2021-07-02T12:11:37Z</time>
      </trkpt>
      <trkpt lat="42.370884" lon="1.619077">
        <ele>860.30103</ele>
        <time>2021-07-02T12:11:38Z</time>
      </trkpt>
      <trkpt lat="42.370987" lon="1.619363">
        <ele>860.26221</ele>
        <time>2021-07-02T12:11:39Z</time>
      </trkpt>
      <trkpt lat="42.371094" lon="1.619616">
        <ele>859.75391</ele>
        <time>2021-07-02T12:11:40Z</time>
      </trkpt>
      <trkpt lat="42.371231" lon="1.619855">
        <ele>861.48462</ele>
        <time>2021-07-02T12:11:41Z</time>
      </trkpt>
      <trkpt lat="42.371391" lon="1.620067">
        <ele>861.48608</ele>
        <time>2021-07-02T12:11:42Z</time>
      </trkpt>
      <trkpt lat="42.371571" lon="1.620259">
        <ele>862.30981</ele>
        <time>2021-07-02T12:11:43Z</time>
      </trkpt>
      <trkpt lat="42.371784" lon="1.620475">
        <ele>863.90283</ele>
        <time>2021-07-02T12:11:44Z</time>
      </trkpt>
      <trkpt lat="42.371964" lon="1.620674">
        <ele>864.25928</ele>
        <time>2021-07-02T12:11:45Z</time>
      </trkpt>
      <trkpt lat="42.372128" lon="1.620884">
        <ele>864.40442</ele>
        <time>2021-07-02T12:11:46Z</time>
      </trkpt>
      <trkpt lat="42.372276" lon="1.621128">
        <ele>863.94238</ele>
        <time>2021-07-02T12:11:47Z</time>
      </trkpt>
      <trkpt lat="42.372398" lon="1.621381">
        <ele>865.20508</ele>
        <time>2021-07-02T12:11:48Z</time>
      </trkpt>
      <trkpt lat="42.372505" lon="1.621685">
        <ele>866.29846</ele>
        <time>2021-07-02T12:11:49Z</time>
      </trkpt>
      <trkpt lat="42.372581" lon="1.622011">
        <ele>867.70874</ele>
        <time>2021-07-02T12:11:50Z</time>
      </trkpt>
      <trkpt lat="42.372627" lon="1.622355">
        <ele>868.88770</ele>
        <time>2021-07-02T12:11:51Z</time>
      </trkpt>
      <trkpt lat="42.372643" lon="1.622699">
        <ele>869.47168</ele>
        <time>2021-07-02T12:11:52Z</time>
      </trkpt>
      <trkpt lat="42.372643" lon="1.623058">
        <ele>870.94519</ele>
        <time>2021-07-02T12:11:53Z</time>
      </trkpt>
      <trkpt lat="42.372646" lon="1.623426">
        <ele>871.87061</ele>
        <time>2021-07-02T12:11:54Z</time>
      </trkpt>
      <trkpt lat="42.372650" lon="1.623809">
        <ele>873.81152</ele>
        <time>2021-07-02T12:11:55Z</time>
      </trkpt>
      <trkpt lat="42.372650" lon="1.624185">
        <ele>875.49939</ele>
        <time>2021-07-02T12:11:56Z</time>
      </trkpt>
      <trkpt lat="42.372654" lon="1.624574">
        <ele>877.81482</ele>
        <time>2021-07-02T12:11:57Z</time>
      </trkpt>
      <trkpt lat="42.372658" lon="1.624929">
        <ele>879.92102</ele>
        <time>2021-07-02T12:11:58Z</time>
      </trkpt>
      <trkpt lat="42.372658" lon="1.625300">
        <ele>881.12012</ele>
        <time>2021-07-02T12:11:59Z</time>
      </trkpt>
      <trkpt lat="42.372658" lon="1.625684">
        <ele>882.64526</ele>
        <time>2021-07-02T12:12:00Z</time>
      </trkpt>
      <trkpt lat="42.372662" lon="1.626047">
        <ele>883.90112</ele>
        <time>2021-07-02T12:12:01Z</time>
      </trkpt>
      <trkpt lat="42.372662" lon="1.626389">
        <ele>885.05420</ele>
        <time>2021-07-02T12:12:02Z</time>
      </trkpt>
      <trkpt lat="42.372662" lon="1.626714">
        <ele>886.15979</ele>
        <time>2021-07-02T12:12:03Z</time>
      </trkpt>
      <trkpt lat="42.372662" lon="1.626714">
        <ele>887.37598</ele>
        <time>2021-07-02T12:12:04Z</time>
      </trkpt>
      <trkpt lat="42.372665" lon="1.627010">
        <ele>887.70386</ele>
        <time>2021-07-02T12:12:05Z</time>
      </trkpt>
      <trkpt lat="42.372658" lon="1.627284">
        <ele>888.81104</ele>
        <time>2021-07-02T12:12:06Z</time>
      </trkpt>
      <trkpt lat="42.372662" lon="1.627577">
        <ele>889.67578</ele>
        <time>2021-07-02T12:12:07Z</time>
      </trkpt>
      <trkpt lat="42.372669" lon="1.627884">
        <ele>889.76904</ele>
        <time>2021-07-02T12:12:08Z</time>
      </trkpt>
      <trkpt lat="42.372673" lon="1.628191">
        <ele>890.89136</ele>
        <time>2021-07-02T12:12:09Z</time>
      </trkpt>
      <trkpt lat="42.372677" lon="1.628509">
        <ele>891.70312</ele>
        <time>2021-07-02T12:12:10Z</time>
      </trkpt>
      <trkpt lat="42.372696" lon="1.628828">
        <ele>891.56616</ele>
        <time>2021-07-02T12:12:11Z</time>
      </trkpt>
      <trkpt lat="42.372719" lon="1.629152">
        <ele>891.46094</ele>
        <time>2021-07-02T12:12:12Z</time>
      </trkpt>
      <trkpt lat="42.372768" lon="1.629460">
        <ele>891.34106</ele>
        <time>2021-07-02T12:12:13Z</time>
      </trkpt>
      <trkpt lat="42.372829" lon="1.629788">
        <ele>891.21484</ele>
        <time>2021-07-02T12:12:14Z</time>
      </trkpt>
      <trkpt lat="42.372929" lon="1.630101">
        <ele>891.52295</ele>
        <time>2021-07-02T12:12:15Z</time>
      </trkpt>
      <trkpt lat="42.373047" lon="1.630384">
        <ele>891.50989</ele>
        <time>2021-07-02T12:12:16Z</time>
      </trkpt>
      <trkpt lat="42.373199" lon="1.630644">
        <ele>891.80640</ele>
        <time>2021-07-02T12:12:17Z</time>
      </trkpt>
      <trkpt lat="42.373375" lon="1.630891">
        <ele>892.14148</ele>
        <time>2021-07-02T12:12:18Z</time>
      </trkpt>
      <trkpt lat="42.373558" lon="1.631133">
        <ele>891.83301</ele>
        <time>2021-07-02T12:12:19Z</time>
      </trkpt>
      <trkpt lat="42.373745" lon="1.631375">
        <ele>892.04663</ele>
        <time>2021-07-02T12:12:20Z</time>
      </trkpt>
      <trkpt lat="42.373917" lon="1.631595">
        <ele>891.70142</ele>
        <time>2021-07-02T12:12:21Z</time>
      </trkpt>
      <trkpt lat="42.374081" lon="1.631806">
        <ele>891.89819</ele>
        <time>2021-07-02T12:12:22Z</time>
      </trkpt>
      <trkpt lat="42.374229" lon="1.632028">
        <ele>891.55200</ele>
        <time>2021-07-02T12:12:23Z</time>
      </trkpt>
      <trkpt lat="42.374348" lon="1.632263">
        <ele>891.61572</ele>
        <time>2021-07-02T12:12:24Z</time>
      </trkpt>
      <trkpt lat="42.374424" lon="1.632515">
        <ele>891.47949</ele>
        <time>2021-07-02T12:12:25Z</time>
      </trkpt>
      <trkpt lat="42.374466" lon="1.632782">
        <ele>890.88611</ele>
        <time>2021-07-02T12:12:26Z</time>
      </trkpt>
      <trkpt lat="42.374470" lon="1.633037">
        <ele>889.76489</ele>
        <time>2021-07-02T12:12:27Z</time>
      </trkpt>
      <trkpt lat="42.374439" lon="1.633299">
        <ele>889.40173</ele>
        <time>2021-07-02T12:12:28Z</time>
      </trkpt>
      <trkpt lat="42.374397" lon="1.633512">
        <ele>890.32959</ele>
        <time>2021-07-02T12:12:29Z</time>
      </trkpt>
      <trkpt lat="42.374352" lon="1.633726">
        <ele>890.15332</ele>
        <time>2021-07-02T12:12:30Z</time>
      </trkpt>
      <trkpt lat="42.374287" lon="1.634034">
        <ele>890.71338</ele>
        <time>2021-07-02T12:12:31Z</time>
      </trkpt>
      <trkpt lat="42.374249" lon="1.634263">
        <ele>888.90759</ele>
        <time>2021-07-02T12:12:32Z</time>
      </trkpt>
      <trkpt lat="42.374226" lon="1.634504">
        <ele>888.90430</ele>
        <time>2021-07-02T12:12:33Z</time>
      </trkpt>
      <trkpt lat="42.374229" lon="1.634705">
        <ele>888.90698</ele>
        <time>2021-07-02T12:12:34Z</time>
      </trkpt>
      <trkpt lat="42.374229" lon="1.634705">
        <ele>888.27637</ele>
        <time>2021-07-02T12:12:35Z</time>
      </trkpt>
      <trkpt lat="42.374317" lon="1.635144">
        <ele>888.23315</ele>
        <time>2021-07-02T12:12:36Z</time>
      </trkpt>
      <trkpt lat="42.374317" lon="1.635144">
        <ele>888.65796</ele>
        <time>2021-07-02T12:12:37Z</time>
      </trkpt>
      <trkpt lat="42.374374" lon="1.635363">
        <ele>888.61377</ele>
        <time>2021-07-02T12:12:38Z</time>
      </trkpt>
      <trkpt lat="42.374432" lon="1.635556">
        <ele>887.39697</ele>
        <time>2021-07-02T12:12:39Z</time>
      </trkpt>
      <trkpt lat="42.374481" lon="1.635777">
        <ele>887.61401</ele>
        <time>2021-07-02T12:12:40Z</time>
      </trkpt>
      <trkpt lat="42.374508" lon="1.635996">
        <ele>887.47876</ele>
        <time>2021-07-02T12:12:41Z</time>
      </trkpt>
      <trkpt lat="42.374519" lon="1.636203">
        <ele>886.74963</ele>
        <time>2021-07-02T12:12:42Z</time>
      </trkpt>
      <trkpt lat="42.374516" lon="1.636407">
        <ele>887.50012</ele>
        <time>2021-07-02T12:12:43Z</time>
      </trkpt>
      <trkpt lat="42.374500" lon="1.636629">
        <ele>887.06946</ele>
        <time>2021-07-02T12:12:44Z</time>
      </trkpt>
      <trkpt lat="42.374481" lon="1.636846">
        <ele>888.07812</ele>
        <time>2021-07-02T12:12:45Z</time>
      </trkpt>
      <trkpt lat="42.374458" lon="1.637054">
        <ele>888.81189</ele>
        <time>2021-07-02T12:12:46Z</time>
      </trkpt>
      <trkpt lat="42.374428" lon="1.637246">
        <ele>887.15063</ele>
        <time>2021-07-02T12:12:47Z</time>
      </trkpt>
      <trkpt lat="42.374393" lon="1.637432">
        <ele>887.10547</ele>
        <time>2021-07-02T12:12:48Z</time>
      </trkpt>
      <trkpt lat="42.374348" lon="1.637633">
        <ele>887.36743</ele>
        <time>2021-07-02T12:12:49Z</time>
      </trkpt>
      <trkpt lat="42.374298" lon="1.637831">
        <ele>887.93311</ele>
        <time>2021-07-02T12:12:50Z</time>
      </trkpt>
      <trkpt lat="42.374237" lon="1.638015">
        <ele>887.99146</ele>
        <time>2021-07-02T12:12:51Z</time>
      </trkpt>
      <trkpt lat="42.374172" lon="1.638199">
        <ele>888.33789</ele>
        <time>2021-07-02T12:12:52Z</time>
      </trkpt>
      <trkpt lat="42.374115" lon="1.638364">
        <ele>889.03467</ele>
        <time>2021-07-02T12:12:53Z</time>
      </trkpt>
      <trkpt lat="42.374058" lon="1.638521">
        <ele>889.44092</ele>
        <time>2021-07-02T12:12:54Z</time>
      </trkpt>
      <trkpt lat="42.373985" lon="1.638692">
        <ele>889.72803</ele>
        <time>2021-07-02T12:12:55Z</time>
      </trkpt>
      <trkpt lat="42.373920" lon="1.638863">
        <ele>890.94189</ele>
        <time>2021-07-02T12:12:56Z</time>
      </trkpt>
      <trkpt lat="42.373848" lon="1.639039">
        <ele>890.95605</ele>
        <time>2021-07-02T12:12:57Z</time>
      </trkpt>
      <trkpt lat="42.373775" lon="1.639227">
        <ele>890.34021</ele>
        <time>2021-07-02T12:12:58Z</time>
      </trkpt>
      <trkpt lat="42.373699" lon="1.639423">
        <ele>891.34863</ele>
        <time>2021-07-02T12:12:59Z</time>
      </trkpt>
      <trkpt lat="42.373627" lon="1.639611">
        <ele>891.79089</ele>
        <time>2021-07-02T12:13:00Z</time>
      </trkpt>
      <trkpt lat="42.373550" lon="1.639818">
        <ele>892.93164</ele>
        <time>2021-07-02T12:13:01Z</time>
      </trkpt>
      <trkpt lat="42.373482" lon="1.640028">
        <ele>894.11438</ele>
        <time>2021-07-02T12:13:02Z</time>
      </trkpt>
      <trkpt lat="42.373421" lon="1.640240">
        <ele>895.13452</ele>
        <time>2021-07-02T12:13:03Z</time>
      </trkpt>
      <trkpt lat="42.373360" lon="1.640459">
        <ele>896.09021</ele>
        <time>2021-07-02T12:13:04Z</time>
      </trkpt>
      <trkpt lat="42.373302" lon="1.640701">
        <ele>896.70813</ele>
        <time>2021-07-02T12:13:05Z</time>
      </trkpt>
      <trkpt lat="42.373302" lon="1.640701">
        <ele>897.21973</ele>
        <time>2021-07-02T12:13:06Z</time>
      </trkpt>
      <trkpt lat="42.373249" lon="1.640945">
        <ele>896.86255</ele>
        <time>2021-07-02T12:13:07Z</time>
      </trkpt>
      <trkpt lat="42.373192" lon="1.641188">
        <ele>897.05481</ele>
        <time>2021-07-02T12:13:08Z</time>
      </trkpt>
      <trkpt lat="42.373135" lon="1.641439">
        <ele>897.77185</ele>
        <time>2021-07-02T12:13:09Z</time>
      </trkpt>
      <trkpt lat="42.373081" lon="1.641666">
        <ele>898.18652</ele>
        <time>2021-07-02T12:13:10Z</time>
      </trkpt>
      <trkpt lat="42.373020" lon="1.641932">
        <ele>898.51270</ele>
        <time>2021-07-02T12:13:11Z</time>
      </trkpt>
      <trkpt lat="42.372963" lon="1.642192">
        <ele>899.14124</ele>
        <time>2021-07-02T12:13:12Z</time>
      </trkpt>
      <trkpt lat="42.372898" lon="1.642468">
        <ele>899.60522</ele>
        <time>2021-07-02T12:13:13Z</time>
      </trkpt>
      <trkpt lat="42.372841" lon="1.642717">
        <ele>900.18970</ele>
        <time>2021-07-02T12:13:14Z</time>
      </trkpt>
      <trkpt lat="42.372780" lon="1.642981">
        <ele>901.15210</ele>
        <time>2021-07-02T12:13:15Z</time>
      </trkpt>
      <trkpt lat="42.372719" lon="1.643255">
        <ele>901.83228</ele>
        <time>2021-07-02T12:13:16Z</time>
      </trkpt>
      <trkpt lat="42.372658" lon="1.643503">
        <ele>902.15417</ele>
        <time>2021-07-02T12:13:17Z</time>
      </trkpt>
      <trkpt lat="42.372578" lon="1.643739">
        <ele>902.52148</ele>
        <time>2021-07-02T12:13:18Z</time>
      </trkpt>
      <trkpt lat="42.372471" lon="1.643966">
        <ele>902.43896</ele>
        <time>2021-07-02T12:13:19Z</time>
      </trkpt>
      <trkpt lat="42.372337" lon="1.644195">
        <ele>902.51733</ele>
        <time>2021-07-02T12:13:20Z</time>
      </trkpt>
      <trkpt lat="42.372173" lon="1.644434">
        <ele>902.47363</ele>
        <time>2021-07-02T12:13:21Z</time>
      </trkpt>
      <trkpt lat="42.372005" lon="1.644681">
        <ele>902.17896</ele>
        <time>2021-07-02T12:13:22Z</time>
      </trkpt>
      <trkpt lat="42.371849" lon="1.644908">
        <ele>902.14172</ele>
        <time>2021-07-02T12:13:23Z</time>
      </trkpt>
      <trkpt lat="42.371674" lon="1.645117">
        <ele>902.35864</ele>
        <time>2021-07-02T12:13:24Z</time>
      </trkpt>
      <trkpt lat="42.371487" lon="1.645337">
        <ele>901.92236</ele>
        <time>2021-07-02T12:13:25Z</time>
      </trkpt>
      <trkpt lat="42.371288" lon="1.645530">
        <ele>902.29150</ele>
        <time>2021-07-02T12:13:26Z</time>
      </trkpt>
      <trkpt lat="42.371063" lon="1.645713">
        <ele>903.36292</ele>
        <time>2021-07-02T12:13:27Z</time>
      </trkpt>
      <trkpt lat="42.370838" lon="1.645885">
        <ele>902.87207</ele>
        <time>2021-07-02T12:13:28Z</time>
      </trkpt>
      <trkpt lat="42.370605" lon="1.646053">
        <ele>903.56873</ele>
        <time>2021-07-02T12:13:29Z</time>
      </trkpt>
      <trkpt lat="42.370335" lon="1.646241">
        <ele>903.76855</ele>
        <time>2021-07-02T12:13:30Z</time>
      </trkpt>
      <trkpt lat="42.370094" lon="1.646381">
        <ele>904.37134</ele>
        <time>2021-07-02T12:13:31Z</time>
      </trkpt>
      <trkpt lat="42.369850" lon="1.646516">
        <ele>904.68433</ele>
        <time>2021-07-02T12:13:32Z</time>
      </trkpt>
      <trkpt lat="42.369583" lon="1.646641">
        <ele>904.92993</ele>
        <time>2021-07-02T12:13:33Z</time>
      </trkpt>
      <trkpt lat="42.369339" lon="1.646728">
        <ele>904.85925</ele>
        <time>2021-07-02T12:13:34Z</time>
      </trkpt>
      <trkpt lat="42.369099" lon="1.646807">
        <ele>905.41089</ele>
        <time>2021-07-02T12:13:35Z</time>
      </trkpt>
      <trkpt lat="42.368938" lon="1.646834">
        <ele>903.44617</ele>
        <time>2021-07-02T12:13:36Z</time>
      </trkpt>
      <trkpt lat="42.368732" lon="1.646868">
        <ele>903.03967</ele>
        <time>2021-07-02T12:13:37Z</time>
      </trkpt>
      <trkpt lat="42.368553" lon="1.646899">
        <ele>902.81787</ele>
        <time>2021-07-02T12:13:38Z</time>
      </trkpt>
      <trkpt lat="42.368553" lon="1.646899">
        <ele>901.19275</ele>
        <time>2021-07-02T12:13:39Z</time>
      </trkpt>
      <trkpt lat="42.368385" lon="1.646933">
        <ele>901.56812</ele>
        <time>2021-07-02T12:13:40Z</time>
      </trkpt>
      <trkpt lat="42.368225" lon="1.646960">
        <ele>901.06982</ele>
        <time>2021-07-02T12:13:41Z</time>
      </trkpt>
      <trkpt lat="42.368019" lon="1.646995">
        <ele>901.06934</ele>
        <time>2021-07-02T12:13:42Z</time>
      </trkpt>
      <trkpt lat="42.367828" lon="1.647028">
        <ele>901.11182</ele>
        <time>2021-07-02T12:13:43Z</time>
      </trkpt>
      <trkpt lat="42.367649" lon="1.647059">
        <ele>901.58240</ele>
        <time>2021-07-02T12:13:44Z</time>
      </trkpt>
      <trkpt lat="42.367477" lon="1.647088">
        <ele>902.10583</ele>
        <time>2021-07-02T12:13:45Z</time>
      </trkpt>
      <trkpt lat="42.367294" lon="1.647128">
        <ele>901.74316</ele>
        <time>2021-07-02T12:13:46Z</time>
      </trkpt>
      <trkpt lat="42.367130" lon="1.647176">
        <ele>902.11853</ele>
        <time>2021-07-02T12:13:47Z</time>
      </trkpt>
      <trkpt lat="42.366951" lon="1.647269">
        <ele>901.56763</ele>
        <time>2021-07-02T12:13:48Z</time>
      </trkpt>
      <trkpt lat="42.366791" lon="1.647368">
        <ele>899.43066</ele>
        <time>2021-07-02T12:13:49Z</time>
      </trkpt>
      <trkpt lat="42.366634" lon="1.647492">
        <ele>899.94226</ele>
        <time>2021-07-02T12:13:50Z</time>
      </trkpt>
      <trkpt lat="42.366493" lon="1.647649">
        <ele>899.73853</ele>
        <time>2021-07-02T12:13:51Z</time>
      </trkpt>
      <trkpt lat="42.366348" lon="1.647828">
        <ele>899.37524</ele>
        <time>2021-07-02T12:13:52Z</time>
      </trkpt>
      <trkpt lat="42.366219" lon="1.647989">
        <ele>899.32593</ele>
        <time>2021-07-02T12:13:53Z</time>
      </trkpt>
      <trkpt lat="42.366093" lon="1.648138">
        <ele>899.39807</ele>
        <time>2021-07-02T12:13:54Z</time>
      </trkpt>
      <trkpt lat="42.365967" lon="1.648288">
        <ele>900.15430</ele>
        <time>2021-07-02T12:13:55Z</time>
      </trkpt>
      <trkpt lat="42.365837" lon="1.648444">
        <ele>901.31409</ele>
        <time>2021-07-02T12:13:56Z</time>
      </trkpt>
      <trkpt lat="42.365711" lon="1.648597">
        <ele>902.76880</ele>
        <time>2021-07-02T12:13:57Z</time>
      </trkpt>
      <trkpt lat="42.365578" lon="1.648764">
        <ele>902.23730</ele>
        <time>2021-07-02T12:13:58Z</time>
      </trkpt>
      <trkpt lat="42.365440" lon="1.648934">
        <ele>898.98682</ele>
        <time>2021-07-02T12:13:59Z</time>
      </trkpt>
      <trkpt lat="42.365307" lon="1.649102">
        <ele>899.06030</ele>
        <time>2021-07-02T12:14:00Z</time>
      </trkpt>
      <trkpt lat="42.365181" lon="1.649259">
        <ele>898.81396</ele>
        <time>2021-07-02T12:14:01Z</time>
      </trkpt>
      <trkpt lat="42.365055" lon="1.649422">
        <ele>898.84241</ele>
        <time>2021-07-02T12:14:02Z</time>
      </trkpt>
      <trkpt lat="42.364914" lon="1.649606">
        <ele>898.82178</ele>
        <time>2021-07-02T12:14:03Z</time>
      </trkpt>
      <trkpt lat="42.364777" lon="1.649785">
        <ele>899.16663</ele>
        <time>2021-07-02T12:14:04Z</time>
      </trkpt>
      <trkpt lat="42.364643" lon="1.650002">
        <ele>899.60156</ele>
        <time>2021-07-02T12:14:05Z</time>
      </trkpt>
      <trkpt lat="42.364525" lon="1.650228">
        <ele>899.36536</ele>
        <time>2021-07-02T12:14:06Z</time>
      </trkpt>
      <trkpt lat="42.364414" lon="1.650499">
        <ele>899.30542</ele>
        <time>2021-07-02T12:14:07Z</time>
      </trkpt>
      <trkpt lat="42.364342" lon="1.650736">
        <ele>900.40454</ele>
        <time>2021-07-02T12:14:08Z</time>
      </trkpt>
      <trkpt lat="42.364265" lon="1.651004">
        <ele>900.16333</ele>
        <time>2021-07-02T12:14:09Z</time>
      </trkpt>
      <trkpt lat="42.364235" lon="1.651279">
        <ele>900.65845</ele>
        <time>2021-07-02T12:14:10Z</time>
      </trkpt>
      <trkpt lat="42.364212" lon="1.651574">
        <ele>901.27441</ele>
        <time>2021-07-02T12:14:11Z</time>
      </trkpt>
      <trkpt lat="42.364212" lon="1.651574">
        <ele>903.23181</ele>
        <time>2021-07-02T12:14:12Z</time>
      </trkpt>
      <trkpt lat="42.364204" lon="1.651896">
        <ele>903.38330</ele>
        <time>2021-07-02T12:14:13Z</time>
      </trkpt>
      <trkpt lat="42.364197" lon="1.652183">
        <ele>904.70679</ele>
        <time>2021-07-02T12:14:14Z</time>
      </trkpt>
      <trkpt lat="42.364185" lon="1.652479">
        <ele>905.55371</ele>
        <time>2021-07-02T12:14:15Z</time>
      </trkpt>
      <trkpt lat="42.364174" lon="1.652770">
        <ele>905.97510</ele>
        <time>2021-07-02T12:14:16Z</time>
      </trkpt>
      <trkpt lat="42.364159" lon="1.653010">
        <ele>905.40491</ele>
        <time>2021-07-02T12:14:17Z</time>
      </trkpt>
      <trkpt lat="42.364120" lon="1.653266">
        <ele>905.66614</ele>
        <time>2021-07-02T12:14:18Z</time>
      </trkpt>
      <trkpt lat="42.364086" lon="1.653493">
        <ele>903.76160</ele>
        <time>2021-07-02T12:14:19Z</time>
      </trkpt>
      <trkpt lat="42.364079" lon="1.653717">
        <ele>903.67700</ele>
        <time>2021-07-02T12:14:20Z</time>
      </trkpt>
      <trkpt lat="42.364086" lon="1.653928">
        <ele>904.16309</ele>
        <time>2021-07-02T12:14:21Z</time>
      </trkpt>
      <trkpt lat="42.364147" lon="1.654100">
        <ele>905.30103</ele>
        <time>2021-07-02T12:14:22Z</time>
      </trkpt>
      <trkpt lat="42.364239" lon="1.654224">
        <ele>906.16797</ele>
        <time>2021-07-02T12:14:23Z</time>
      </trkpt>
      <trkpt lat="42.364372" lon="1.654320">
        <ele>906.82654</ele>
        <time>2021-07-02T12:14:24Z</time>
      </trkpt>
      <trkpt lat="42.364559" lon="1.654367">
        <ele>905.81885</ele>
        <time>2021-07-02T12:14:25Z</time>
      </trkpt>
      <trkpt lat="42.364765" lon="1.654379">
        <ele>905.33118</ele>
        <time>2021-07-02T12:14:26Z</time>
      </trkpt>
      <trkpt lat="42.364994" lon="1.654392">
        <ele>906.03247</ele>
        <time>2021-07-02T12:14:27Z</time>
      </trkpt>
      <trkpt lat="42.365211" lon="1.654404">
        <ele>906.27539</ele>
        <time>2021-07-02T12:14:28Z</time>
      </trkpt>
      <trkpt lat="42.365421" lon="1.654418">
        <ele>906.30261</ele>
        <time>2021-07-02T12:14:29Z</time>
      </trkpt>
      <trkpt lat="42.365643" lon="1.654468">
        <ele>906.31250</ele>
        <time>2021-07-02T12:14:30Z</time>
      </trkpt>
      <trkpt lat="42.365833" lon="1.654580">
        <ele>906.66394</ele>
        <time>2021-07-02T12:14:31Z</time>
      </trkpt>
      <trkpt lat="42.366005" lon="1.654722">
        <ele>908.19897</ele>
        <time>2021-07-02T12:14:32Z</time>
      </trkpt>
      <trkpt lat="42.366169" lon="1.654918">
        <ele>908.49976</ele>
        <time>2021-07-02T12:14:33Z</time>
      </trkpt>
      <trkpt lat="42.366337" lon="1.655151">
        <ele>908.53418</ele>
        <time>2021-07-02T12:14:34Z</time>
      </trkpt>
      <trkpt lat="42.366489" lon="1.655386">
        <ele>908.54175</ele>
        <time>2021-07-02T12:14:35Z</time>
      </trkpt>
      <trkpt lat="42.366631" lon="1.655617">
        <ele>908.70337</ele>
        <time>2021-07-02T12:14:36Z</time>
      </trkpt>
      <trkpt lat="42.366756" lon="1.655879">
        <ele>908.45264</ele>
        <time>2021-07-02T12:14:37Z</time>
      </trkpt>
      <trkpt lat="42.366840" lon="1.656152">
        <ele>908.55835</ele>
        <time>2021-07-02T12:14:38Z</time>
      </trkpt>
      <trkpt lat="42.366840" lon="1.656152">
        <ele>907.93628</ele>
        <time>2021-07-02T12:14:39Z</time>
      </trkpt>
      <trkpt lat="42.366928" lon="1.656748">
        <ele>908.18726</ele>
        <time>2021-07-02T12:14:40Z</time>
      </trkpt>
      <trkpt lat="42.366928" lon="1.656748">
        <ele>908.15417</ele>
        <time>2021-07-02T12:14:41Z</time>
      </trkpt>
      <trkpt lat="42.366936" lon="1.657090">
        <ele>908.72607</ele>
        <time>2021-07-02T12:14:42Z</time>
      </trkpt>
      <trkpt lat="42.366924" lon="1.657417">
        <ele>908.86682</ele>
        <time>2021-07-02T12:14:43Z</time>
      </trkpt>
      <trkpt lat="42.366879" lon="1.657738">
        <ele>908.65527</ele>
        <time>2021-07-02T12:14:44Z</time>
      </trkpt>
      <trkpt lat="42.366783" lon="1.658101">
        <ele>908.21204</ele>
        <time>2021-07-02T12:14:45Z</time>
      </trkpt>
      <trkpt lat="42.366661" lon="1.658436">
        <ele>907.80371</ele>
        <time>2021-07-02T12:14:46Z</time>
      </trkpt>
      <trkpt lat="42.366528" lon="1.658702">
        <ele>907.34741</ele>
        <time>2021-07-02T12:14:47Z</time>
      </trkpt>
      <trkpt lat="42.366379" lon="1.658949">
        <ele>908.51501</ele>
        <time>2021-07-02T12:14:48Z</time>
      </trkpt>
      <trkpt lat="42.366184" lon="1.659188">
        <ele>907.43628</ele>
        <time>2021-07-02T12:14:49Z</time>
      </trkpt>
      <trkpt lat="42.365986" lon="1.659389">
        <ele>908.51575</ele>
        <time>2021-07-02T12:14:50Z</time>
      </trkpt>
      <trkpt lat="42.365776" lon="1.659574">
        <ele>907.94226</ele>
        <time>2021-07-02T12:14:51Z</time>
      </trkpt>
      <trkpt lat="42.365562" lon="1.659756">
        <ele>907.74805</ele>
        <time>2021-07-02T12:14:52Z</time>
      </trkpt>
      <trkpt lat="42.365364" lon="1.659931">
        <ele>908.54590</ele>
        <time>2021-07-02T12:14:53Z</time>
      </trkpt>
      <trkpt lat="42.365185" lon="1.660099">
        <ele>909.07520</ele>
        <time>2021-07-02T12:14:54Z</time>
      </trkpt>
      <trkpt lat="42.365021" lon="1.660285">
        <ele>909.49438</ele>
        <time>2021-07-02T12:14:55Z</time>
      </trkpt>
      <trkpt lat="42.364872" lon="1.660505">
        <ele>910.20166</ele>
        <time>2021-07-02T12:14:56Z</time>
      </trkpt>
      <trkpt lat="42.364754" lon="1.660734">
        <ele>910.23682</ele>
        <time>2021-07-02T12:14:57Z</time>
      </trkpt>
      <trkpt lat="42.364662" lon="1.660965">
        <ele>910.74121</ele>
        <time>2021-07-02T12:14:58Z</time>
      </trkpt>
      <trkpt lat="42.364594" lon="1.661212">
        <ele>910.74121</ele>
        <time>2021-07-02T12:14:59Z</time>
      </trkpt>
      <trkpt lat="42.364536" lon="1.661485">
        <ele>910.74121</ele>
        <time>2021-07-02T12:15:00Z</time>
      </trkpt>
      <trkpt lat="42.364532" lon="1.661490">
        <ele>910.74121</ele>
        <time>2021-07-02T12:15:01Z</time>
      </trkpt>
      <trkpt lat="42.364532" lon="1.661490">
        <ele>910.74121</ele>
        <time>2021-07-02T12:15:02Z</time>
      </trkpt>
      <trkpt lat="42.364532" lon="1.661490">
        <ele>910.74121</ele>
        <time>2021-07-02T12:15:03Z</time>
      </trkpt>
      <trkpt lat="42.364532" lon="1.661490">
        <ele>910.74121</ele>
        <time>2021-07-02T12:15:04Z</time>
      </trkpt>
      <trkpt lat="42.364532" lon="1.661490">
        <ele>910.74121</ele>
        <time>2021-07-02T12:15:05Z</time>
      </trkpt>
      <trkpt lat="42.364532" lon="1.661490">
        <ele>911.92188</ele>
        <time>2021-07-02T12:15:06Z</time>
      </trkpt>
      <trkpt lat="42.364506" lon="1.661682">
        <ele>913.10986</ele>
        <time>2021-07-02T12:15:07Z</time>
      </trkpt>
      <trkpt lat="42.364281" lon="1.663472">
        <ele>913.27356</ele>
        <time>2021-07-02T12:15:08Z</time>
      </trkpt>
      <trkpt lat="42.364243" lon="1.663649">
        <ele>913.50195</ele>
        <time>2021-07-02T12:15:09Z</time>
      </trkpt>
      <trkpt lat="42.364147" lon="1.663944">
        <ele>913.82397</ele>
        <time>2021-07-02T12:15:10Z</time>
      </trkpt>
      <trkpt lat="42.364147" lon="1.663944">
        <ele>913.11658</ele>
        <time>2021-07-02T12:15:11Z</time>
      </trkpt>
      <trkpt lat="42.364014" lon="1.664239">
        <ele>912.68213</ele>
        <time>2021-07-02T12:15:12Z</time>
      </trkpt>
      <trkpt lat="42.363846" lon="1.664517">
        <ele>913.06616</ele>
        <time>2021-07-02T12:15:13Z</time>
      </trkpt>
      <trkpt lat="42.363655" lon="1.664763">
        <ele>913.13501</ele>
        <time>2021-07-02T12:15:14Z</time>
      </trkpt>
      <trkpt lat="42.363434" lon="1.665037">
        <ele>913.96680</ele>
        <time>2021-07-02T12:15:15Z</time>
      </trkpt>
      <trkpt lat="42.363232" lon="1.665284">
        <ele>913.28394</ele>
        <time>2021-07-02T12:15:16Z</time>
      </trkpt>
      <trkpt lat="42.363022" lon="1.665542">
        <ele>914.02417</ele>
        <time>2021-07-02T12:15:17Z</time>
      </trkpt>
      <trkpt lat="42.362827" lon="1.665781">
        <ele>914.69727</ele>
        <time>2021-07-02T12:15:18Z</time>
      </trkpt>
      <trkpt lat="42.362663" lon="1.666005">
        <ele>914.33997</ele>
        <time>2021-07-02T12:15:19Z</time>
      </trkpt>
      <trkpt lat="42.362522" lon="1.666239">
        <ele>914.83130</ele>
        <time>2021-07-02T12:15:20Z</time>
      </trkpt>
      <trkpt lat="42.362423" lon="1.666496">
        <ele>914.04175</ele>
        <time>2021-07-02T12:15:21Z</time>
      </trkpt>
      <trkpt lat="42.362347" lon="1.666757">
        <ele>914.58447</ele>
        <time>2021-07-02T12:15:22Z</time>
      </trkpt>
      <trkpt lat="42.362297" lon="1.667017">
        <ele>914.52271</ele>
        <time>2021-07-02T12:15:23Z</time>
      </trkpt>
      <trkpt lat="42.362255" lon="1.667293">
        <ele>914.64819</ele>
        <time>2021-07-02T12:15:24Z</time>
      </trkpt>
      <trkpt lat="42.362240" lon="1.667560">
        <ele>914.64575</ele>
        <time>2021-07-02T12:15:25Z</time>
      </trkpt>
      <trkpt lat="42.362244" lon="1.667855">
        <ele>914.64575</ele>
        <time>2021-07-02T12:15:26Z</time>
      </trkpt>
      <trkpt lat="42.362259" lon="1.668103">
        <ele>914.64575</ele>
        <time>2021-07-02T12:15:27Z</time>
      </trkpt>
      <trkpt lat="42.362263" lon="1.668130">
        <ele>914.64575</ele>
        <time>2021-07-02T12:15:28Z</time>
      </trkpt>
      <trkpt lat="42.362263" lon="1.668130">
        <ele>914.64575</ele>
        <time>2021-07-02T12:15:29Z</time>
      </trkpt>
      <trkpt lat="42.362263" lon="1.668130">
        <ele>914.64575</ele>
        <time>2021-07-02T12:15:30Z</time>
      </trkpt>
      <trkpt lat="42.362263" lon="1.668130">
        <ele>914.64575</ele>
        <time>2021-07-02T12:15:31Z</time>
      </trkpt>
      <trkpt lat="42.362263" lon="1.668130">
        <ele>914.64575</ele>
        <time>2021-07-02T12:15:32Z</time>
      </trkpt>
      <trkpt lat="42.362263" lon="1.668130">
        <ele>914.64575</ele>
        <time>2021-07-02T12:15:33Z</time>
      </trkpt>
      <trkpt lat="42.362263" lon="1.668130">
        <ele>914.64575</ele>
        <time>2021-07-02T12:15:34Z</time>
      </trkpt>
      <trkpt lat="42.362263" lon="1.668130">
        <ele>914.64575</ele>
        <time>2021-07-02T12:15:35Z</time>
      </trkpt>
      <trkpt lat="42.362263" lon="1.668130">
        <ele>914.64575</ele>
        <time>2021-07-02T12:15:36Z</time>
      </trkpt>
      <trkpt lat="42.362263" lon="1.668130">
        <ele>914.64575</ele>
        <time>2021-07-02T12:15:37Z</time>
      </trkpt>
      <trkpt lat="42.362263" lon="1.668130">
        <ele>917.69531</ele>
        <time>2021-07-02T12:15:38Z</time>
      </trkpt>
      <trkpt lat="42.363274" lon="1.670591">
        <ele>921.31958</ele>
        <time>2021-07-02T12:15:39Z</time>
      </trkpt>
      <trkpt lat="42.363380" lon="1.670797">
        <ele>924.40454</ele>
        <time>2021-07-02T12:15:40Z</time>
      </trkpt>
      <trkpt lat="42.363499" lon="1.671035">
        <ele>926.56128</ele>
        <time>2021-07-02T12:15:41Z</time>
      </trkpt>
      <trkpt lat="42.363621" lon="1.671275">
        <ele>928.06335</ele>
        <time>2021-07-02T12:15:42Z</time>
      </trkpt>
      <trkpt lat="42.363743" lon="1.671518">
        <ele>930.25439</ele>
        <time>2021-07-02T12:15:43Z</time>
      </trkpt>
      <trkpt lat="42.363743" lon="1.671518">
        <ele>930.53210</ele>
        <time>2021-07-02T12:15:44Z</time>
      </trkpt>
      <trkpt lat="42.363876" lon="1.671779">
        <ele>931.85498</ele>
        <time>2021-07-02T12:15:45Z</time>
      </trkpt>
      <trkpt lat="42.364014" lon="1.672054">
        <ele>932.37231</ele>
        <time>2021-07-02T12:15:46Z</time>
      </trkpt>
      <trkpt lat="42.364151" lon="1.672327">
        <ele>933.56201</ele>
        <time>2021-07-02T12:15:47Z</time>
      </trkpt>
      <trkpt lat="42.364292" lon="1.672607">
        <ele>933.79517</ele>
        <time>2021-07-02T12:15:48Z</time>
      </trkpt>
      <trkpt lat="42.364437" lon="1.672893">
        <ele>933.85059</ele>
        <time>2021-07-02T12:15:49Z</time>
      </trkpt>
      <trkpt lat="42.364594" lon="1.673185">
        <ele>933.30090</ele>
        <time>2021-07-02T12:15:50Z</time>
      </trkpt>
      <trkpt lat="42.364742" lon="1.673468">
        <ele>933.57043</ele>
        <time>2021-07-02T12:15:51Z</time>
      </trkpt>
      <trkpt lat="42.364891" lon="1.673730">
        <ele>933.84021</ele>
        <time>2021-07-02T12:15:52Z</time>
      </trkpt>
      <trkpt lat="42.365059" lon="1.674019">
        <ele>934.00635</ele>
        <time>2021-07-02T12:15:53Z</time>
      </trkpt>
      <trkpt lat="42.365215" lon="1.674285">
        <ele>934.29651</ele>
        <time>2021-07-02T12:15:54Z</time>
      </trkpt>
      <trkpt lat="42.365364" lon="1.674535">
        <ele>934.89746</ele>
        <time>2021-07-02T12:15:55Z</time>
      </trkpt>
      <trkpt lat="42.365509" lon="1.674776">
        <ele>935.46924</ele>
        <time>2021-07-02T12:15:56Z</time>
      </trkpt>
      <trkpt lat="42.365650" lon="1.675015">
        <ele>936.48962</ele>
        <time>2021-07-02T12:15:57Z</time>
      </trkpt>
      <trkpt lat="42.365788" lon="1.675271">
        <ele>936.88672</ele>
        <time>2021-07-02T12:15:58Z</time>
      </trkpt>
      <trkpt lat="42.365921" lon="1.675545">
        <ele>936.10120</ele>
        <time>2021-07-02T12:15:59Z</time>
      </trkpt>
      <trkpt lat="42.366035" lon="1.675837">
        <ele>936.53052</ele>
        <time>2021-07-02T12:16:00Z</time>
      </trkpt>
      <trkpt lat="42.366131" lon="1.676137">
        <ele>936.46533</ele>
        <time>2021-07-02T12:16:01Z</time>
      </trkpt>
      <trkpt lat="42.366211" lon="1.676452">
        <ele>936.44165</ele>
        <time>2021-07-02T12:16:02Z</time>
      </trkpt>
      <trkpt lat="42.366264" lon="1.676777">
        <ele>936.65112</ele>
        <time>2021-07-02T12:16:03Z</time>
      </trkpt>
      <trkpt lat="42.366299" lon="1.677119">
        <ele>936.14258</ele>
        <time>2021-07-02T12:16:04Z</time>
      </trkpt>
      <trkpt lat="42.366306" lon="1.677449">
        <ele>937.26807</ele>
        <time>2021-07-02T12:16:05Z</time>
      </trkpt>
      <trkpt lat="42.366283" lon="1.677760">
        <ele>937.04932</ele>
        <time>2021-07-02T12:16:06Z</time>
      </trkpt>
      <trkpt lat="42.366222" lon="1.678126">
        <ele>936.22778</ele>
        <time>2021-07-02T12:16:07Z</time>
      </trkpt>
      <trkpt lat="42.366138" lon="1.678450">
        <ele>935.78162</ele>
        <time>2021-07-02T12:16:08Z</time>
      </trkpt>
      <trkpt lat="42.366005" lon="1.678748">
        <ele>937.67542</ele>
        <time>2021-07-02T12:16:09Z</time>
      </trkpt>
      <trkpt lat="42.365860" lon="1.679015">
        <ele>938.06909</ele>
        <time>2021-07-02T12:16:10Z</time>
      </trkpt>
      <trkpt lat="42.365681" lon="1.679306">
        <ele>937.63745</ele>
        <time>2021-07-02T12:16:11Z</time>
      </trkpt>
      <trkpt lat="42.365517" lon="1.679541">
        <ele>938.71753</ele>
        <time>2021-07-02T12:16:12Z</time>
      </trkpt>
      <trkpt lat="42.365368" lon="1.679755">
        <ele>939.59912</ele>
        <time>2021-07-02T12:16:13Z</time>
      </trkpt>
      <trkpt lat="42.365368" lon="1.679755">
        <ele>939.35754</ele>
        <time>2021-07-02T12:16:14Z</time>
      </trkpt>
      <trkpt lat="42.365215" lon="1.679966">
        <ele>940.19922</ele>
        <time>2021-07-02T12:16:15Z</time>
      </trkpt>
      <trkpt lat="42.365070" lon="1.680152">
        <ele>940.74341</ele>
        <time>2021-07-02T12:16:16Z</time>
      </trkpt>
      <trkpt lat="42.364922" lon="1.680339">
        <ele>941.54736</ele>
        <time>2021-07-02T12:16:17Z</time>
      </trkpt>
      <trkpt lat="42.364784" lon="1.680505">
        <ele>940.36548</ele>
        <time>2021-07-02T12:16:18Z</time>
      </trkpt>
      <trkpt lat="42.364635" lon="1.680679">
        <ele>939.84192</ele>
        <time>2021-07-02T12:16:19Z</time>
      </trkpt>
      <trkpt lat="42.364487" lon="1.680853">
        <ele>940.18213</ele>
        <time>2021-07-02T12:16:20Z</time>
      </trkpt>
      <trkpt lat="42.364342" lon="1.681022">
        <ele>939.97534</ele>
        <time>2021-07-02T12:16:21Z</time>
      </trkpt>
      <trkpt lat="42.364185" lon="1.681195">
        <ele>940.94556</ele>
        <time>2021-07-02T12:16:22Z</time>
      </trkpt>
      <trkpt lat="42.364017" lon="1.681346">
        <ele>941.06995</ele>
        <time>2021-07-02T12:16:23Z</time>
      </trkpt>
      <trkpt lat="42.363819" lon="1.681473">
        <ele>942.84741</ele>
        <time>2021-07-02T12:16:24Z</time>
      </trkpt>
      <trkpt lat="42.363609" lon="1.681555">
        <ele>942.86438</ele>
        <time>2021-07-02T12:16:25Z</time>
      </trkpt>
      <trkpt lat="42.363380" lon="1.681608">
        <ele>943.22388</ele>
        <time>2021-07-02T12:16:26Z</time>
      </trkpt>
      <trkpt lat="42.363136" lon="1.681642">
        <ele>941.83545</ele>
        <time>2021-07-02T12:16:27Z</time>
      </trkpt>
      <trkpt lat="42.362892" lon="1.681674">
        <ele>941.97937</ele>
        <time>2021-07-02T12:16:28Z</time>
      </trkpt>
      <trkpt lat="42.362637" lon="1.681710">
        <ele>941.35913</ele>
        <time>2021-07-02T12:16:29Z</time>
      </trkpt>
      <trkpt lat="42.362408" lon="1.681758">
        <ele>942.54211</ele>
        <time>2021-07-02T12:16:30Z</time>
      </trkpt>
      <trkpt lat="42.362183" lon="1.681816">
        <ele>942.00159</ele>
        <time>2021-07-02T12:16:31Z</time>
      </trkpt>
      <trkpt lat="42.361961" lon="1.681884">
        <ele>942.16016</ele>
        <time>2021-07-02T12:16:32Z</time>
      </trkpt>
      <trkpt lat="42.361736" lon="1.681961">
        <ele>940.62646</ele>
        <time>2021-07-02T12:16:33Z</time>
      </trkpt>
      <trkpt lat="42.361500" lon="1.682052">
        <ele>940.92725</ele>
        <time>2021-07-02T12:16:34Z</time>
      </trkpt>
      <trkpt lat="42.361263" lon="1.682164">
        <ele>941.86389</ele>
        <time>2021-07-02T12:16:35Z</time>
      </trkpt>
      <trkpt lat="42.361031" lon="1.682278">
        <ele>941.56177</ele>
        <time>2021-07-02T12:16:36Z</time>
      </trkpt>
      <trkpt lat="42.360802" lon="1.682411">
        <ele>941.47839</ele>
        <time>2021-07-02T12:16:37Z</time>
      </trkpt>
      <trkpt lat="42.360569" lon="1.682555">
        <ele>943.92236</ele>
        <time>2021-07-02T12:16:38Z</time>
      </trkpt>
      <trkpt lat="42.360382" lon="1.682672">
        <ele>945.16406</ele>
        <time>2021-07-02T12:16:39Z</time>
      </trkpt>
      <trkpt lat="42.360195" lon="1.682818">
        <ele>946.81519</ele>
        <time>2021-07-02T12:16:40Z</time>
      </trkpt>
      <trkpt lat="42.360016" lon="1.682985">
        <ele>947.48938</ele>
        <time>2021-07-02T12:16:41Z</time>
      </trkpt>
      <trkpt lat="42.359867" lon="1.683192">
        <ele>946.87207</ele>
        <time>2021-07-02T12:16:42Z</time>
      </trkpt>
      <trkpt lat="42.359726" lon="1.683440">
        <ele>947.49365</ele>
        <time>2021-07-02T12:16:43Z</time>
      </trkpt>
      <trkpt lat="42.359619" lon="1.683703">
        <ele>948.75269</ele>
        <time>2021-07-02T12:16:44Z</time>
      </trkpt>
      <trkpt lat="42.359539" lon="1.683995">
        <ele>949.91248</ele>
        <time>2021-07-02T12:16:45Z</time>
      </trkpt>
      <trkpt lat="42.359501" lon="1.684266">
        <ele>950.06177</ele>
        <time>2021-07-02T12:16:46Z</time>
      </trkpt>
      <trkpt lat="42.359482" lon="1.684566">
        <ele>950.73169</ele>
        <time>2021-07-02T12:16:47Z</time>
      </trkpt>
      <trkpt lat="42.359509" lon="1.684869">
        <ele>950.69653</ele>
        <time>2021-07-02T12:16:48Z</time>
      </trkpt>
      <trkpt lat="42.359558" lon="1.685152">
        <ele>950.55151</ele>
        <time>2021-07-02T12:16:49Z</time>
      </trkpt>
      <trkpt lat="42.359558" lon="1.685152">
        <ele>952.14478</ele>
        <time>2021-07-02T12:16:50Z</time>
      </trkpt>
      <trkpt lat="42.359650" lon="1.685458">
        <ele>953.56323</ele>
        <time>2021-07-02T12:16:51Z</time>
      </trkpt>
      <trkpt lat="42.359753" lon="1.685720">
        <ele>953.17847</ele>
        <time>2021-07-02T12:16:52Z</time>
      </trkpt>
      <trkpt lat="42.359852" lon="1.685970">
        <ele>954.13428</ele>
        <time>2021-07-02T12:16:53Z</time>
      </trkpt>
      <trkpt lat="42.359947" lon="1.686198">
        <ele>955.81445</ele>
        <time>2021-07-02T12:16:54Z</time>
      </trkpt>
      <trkpt lat="42.360043" lon="1.686421">
        <ele>957.02783</ele>
        <time>2021-07-02T12:16:55Z</time>
      </trkpt>
      <trkpt lat="42.360126" lon="1.686631">
        <ele>957.02271</ele>
        <time>2021-07-02T12:16:56Z</time>
      </trkpt>
      <trkpt lat="42.360214" lon="1.686849">
        <ele>957.94556</ele>
        <time>2021-07-02T12:16:57Z</time>
      </trkpt>
      <trkpt lat="42.360294" lon="1.687066">
        <ele>958.07275</ele>
        <time>2021-07-02T12:16:58Z</time>
      </trkpt>
      <trkpt lat="42.360359" lon="1.687270">
        <ele>958.43726</ele>
        <time>2021-07-02T12:16:59Z</time>
      </trkpt>
      <trkpt lat="42.360413" lon="1.687468">
        <ele>958.96777</ele>
        <time>2021-07-02T12:17:00Z</time>
      </trkpt>
      <trkpt lat="42.360458" lon="1.687685">
        <ele>959.03955</ele>
        <time>2021-07-02T12:17:01Z</time>
      </trkpt>
      <trkpt lat="42.360485" lon="1.687917">
        <ele>959.24133</ele>
        <time>2021-07-02T12:17:02Z</time>
      </trkpt>
      <trkpt lat="42.360493" lon="1.688146">
        <ele>959.40137</ele>
        <time>2021-07-02T12:17:03Z</time>
      </trkpt>
      <trkpt lat="42.360504" lon="1.688384">
        <ele>959.80713</ele>
        <time>2021-07-02T12:17:04Z</time>
      </trkpt>
      <trkpt lat="42.360512" lon="1.688617">
        <ele>959.72168</ele>
        <time>2021-07-02T12:17:05Z</time>
      </trkpt>
      <trkpt lat="42.360516" lon="1.688863">
        <ele>959.85791</ele>
        <time>2021-07-02T12:17:06Z</time>
      </trkpt>
      <trkpt lat="42.360523" lon="1.689112">
        <ele>959.63770</ele>
        <time>2021-07-02T12:17:07Z</time>
      </trkpt>
      <trkpt lat="42.360527" lon="1.689370">
        <ele>959.51172</ele>
        <time>2021-07-02T12:17:08Z</time>
      </trkpt>
      <trkpt lat="42.360523" lon="1.689634">
        <ele>959.53394</ele>
        <time>2021-07-02T12:17:09Z</time>
      </trkpt>
      <trkpt lat="42.360523" lon="1.689840">
        <ele>959.08191</ele>
        <time>2021-07-02T12:17:10Z</time>
      </trkpt>
      <trkpt lat="42.360512" lon="1.690041">
        <ele>958.37878</ele>
        <time>2021-07-02T12:17:11Z</time>
      </trkpt>
      <trkpt lat="42.360477" lon="1.690249">
        <ele>958.13379</ele>
        <time>2021-07-02T12:17:12Z</time>
      </trkpt>
      <trkpt lat="42.360447" lon="1.690450">
        <ele>957.66699</ele>
        <time>2021-07-02T12:17:13Z</time>
      </trkpt>
      <trkpt lat="42.360413" lon="1.690648">
        <ele>957.00122</ele>
        <time>2021-07-02T12:17:14Z</time>
      </trkpt>
      <trkpt lat="42.360371" lon="1.690823">
        <ele>956.44849</ele>
        <time>2021-07-02T12:17:15Z</time>
      </trkpt>
      <trkpt lat="42.360313" lon="1.690986">
        <ele>955.26050</ele>
        <time>2021-07-02T12:17:16Z</time>
      </trkpt>
      <trkpt lat="42.360256" lon="1.691149">
        <ele>954.91357</ele>
        <time>2021-07-02T12:17:17Z</time>
      </trkpt>
      <trkpt lat="42.360195" lon="1.691301">
        <ele>954.75317</ele>
        <time>2021-07-02T12:17:18Z</time>
      </trkpt>
      <trkpt lat="42.360130" lon="1.691438">
        <ele>954.68286</ele>
        <time>2021-07-02T12:17:19Z</time>
      </trkpt>
      <trkpt lat="42.360130" lon="1.691438">
        <ele>954.80322</ele>
        <time>2021-07-02T12:17:20Z</time>
      </trkpt>
      <trkpt lat="42.360065" lon="1.691561">
        <ele>954.61536</ele>
        <time>2021-07-02T12:17:21Z</time>
      </trkpt>
      <trkpt lat="42.360004" lon="1.691678">
        <ele>953.82397</ele>
        <time>2021-07-02T12:17:22Z</time>
      </trkpt>
      <trkpt lat="42.359947" lon="1.691792">
        <ele>952.30530</ele>
        <time>2021-07-02T12:17:23Z</time>
      </trkpt>
      <trkpt lat="42.359890" lon="1.691897">
        <ele>952.08423</ele>
        <time>2021-07-02T12:17:24Z</time>
      </trkpt>
      <trkpt lat="42.359837" lon="1.691994">
        <ele>952.34351</ele>
        <time>2021-07-02T12:17:25Z</time>
      </trkpt>
      <trkpt lat="42.359783" lon="1.692105">
        <ele>952.62988</ele>
        <time>2021-07-02T12:17:26Z</time>
      </trkpt>
      <trkpt lat="42.359722" lon="1.692228">
        <ele>951.69873</ele>
        <time>2021-07-02T12:17:27Z</time>
      </trkpt>
      <trkpt lat="42.359657" lon="1.692380">
        <ele>952.83496</ele>
        <time>2021-07-02T12:17:28Z</time>
      </trkpt>
      <trkpt lat="42.359585" lon="1.692574">
        <ele>952.80054</ele>
        <time>2021-07-02T12:17:29Z</time>
      </trkpt>
      <trkpt lat="42.359539" lon="1.692777">
        <ele>953.19556</ele>
        <time>2021-07-02T12:17:30Z</time>
      </trkpt>
      <trkpt lat="42.359505" lon="1.692983">
        <ele>953.27539</ele>
        <time>2021-07-02T12:17:31Z</time>
      </trkpt>
      <trkpt lat="42.359505" lon="1.693184">
        <ele>953.65100</ele>
        <time>2021-07-02T12:17:32Z</time>
      </trkpt>
      <trkpt lat="42.359512" lon="1.693401">
        <ele>954.02393</ele>
        <time>2021-07-02T12:17:33Z</time>
      </trkpt>
      <trkpt lat="42.359543" lon="1.693593">
        <ele>955.32300</ele>
        <time>2021-07-02T12:17:34Z</time>
      </trkpt>
      <trkpt lat="42.359570" lon="1.693754">
        <ele>956.21777</ele>
        <time>2021-07-02T12:17:35Z</time>
      </trkpt>
      <trkpt lat="42.359596" lon="1.693888">
        <ele>956.34399</ele>
        <time>2021-07-02T12:17:36Z</time>
      </trkpt>
      <trkpt lat="42.359623" lon="1.693991">
        <ele>956.60437</ele>
        <time>2021-07-02T12:17:37Z</time>
      </trkpt>
      <trkpt lat="42.359646" lon="1.694091">
        <ele>957.43677</ele>
        <time>2021-07-02T12:17:38Z</time>
      </trkpt>
      <trkpt lat="42.359669" lon="1.694200">
        <ele>957.92212</ele>
        <time>2021-07-02T12:17:39Z</time>
      </trkpt>
      <trkpt lat="42.359695" lon="1.694328">
        <ele>957.56616</ele>
        <time>2021-07-02T12:17:40Z</time>
      </trkpt>
      <trkpt lat="42.359718" lon="1.694441">
        <ele>957.26062</ele>
        <time>2021-07-02T12:17:41Z</time>
      </trkpt>
      <trkpt lat="42.359730" lon="1.694542">
        <ele>956.94714</ele>
        <time>2021-07-02T12:17:42Z</time>
      </trkpt>
      <trkpt lat="42.359737" lon="1.694630">
        <ele>957.60876</ele>
        <time>2021-07-02T12:17:43Z</time>
      </trkpt>
      <trkpt lat="42.359737" lon="1.694727">
        <ele>958.33813</ele>
        <time>2021-07-02T12:17:44Z</time>
      </trkpt>
      <trkpt lat="42.359737" lon="1.694814">
        <ele>959.23438</ele>
        <time>2021-07-02T12:17:45Z</time>
      </trkpt>
      <trkpt lat="42.359737" lon="1.694916">
        <ele>959.93250</ele>
        <time>2021-07-02T12:17:46Z</time>
      </trkpt>
      <trkpt lat="42.359734" lon="1.694998">
        <ele>960.63770</ele>
        <time>2021-07-02T12:17:47Z</time>
      </trkpt>
      <trkpt lat="42.359734" lon="1.695076">
        <ele>960.18164</ele>
        <time>2021-07-02T12:17:48Z</time>
      </trkpt>
      <trkpt lat="42.359734" lon="1.695161">
        <ele>960.21130</ele>
        <time>2021-07-02T12:17:49Z</time>
      </trkpt>
      <trkpt lat="42.359730" lon="1.695245">
        <ele>960.49292</ele>
        <time>2021-07-02T12:17:50Z</time>
      </trkpt>
      <trkpt lat="42.359730" lon="1.695334">
        <ele>960.45166</ele>
        <time>2021-07-02T12:17:51Z</time>
      </trkpt>
      <trkpt lat="42.359730" lon="1.695334">
        <ele>961.42041</ele>
        <time>2021-07-02T12:17:52Z</time>
      </trkpt>
      <trkpt lat="42.359730" lon="1.695408">
        <ele>961.75256</ele>
        <time>2021-07-02T12:17:53Z</time>
      </trkpt>
      <trkpt lat="42.359726" lon="1.695470">
        <ele>961.26416</ele>
        <time>2021-07-02T12:17:54Z</time>
      </trkpt>
      <trkpt lat="42.359722" lon="1.695567">
        <ele>961.29565</ele>
        <time>2021-07-02T12:17:55Z</time>
      </trkpt>
      <trkpt lat="42.359722" lon="1.695657">
        <ele>962.08813</ele>
        <time>2021-07-02T12:17:56Z</time>
      </trkpt>
      <trkpt lat="42.359722" lon="1.695766">
        <ele>962.06543</ele>
        <time>2021-07-02T12:17:57Z</time>
      </trkpt>
      <trkpt lat="42.359718" lon="1.695857">
        <ele>961.35352</ele>
        <time>2021-07-02T12:17:58Z</time>
      </trkpt>
      <trkpt lat="42.359718" lon="1.695945">
        <ele>961.14795</ele>
        <time>2021-07-02T12:17:59Z</time>
      </trkpt>
      <trkpt lat="42.359718" lon="1.696033">
        <ele>960.09082</ele>
        <time>2021-07-02T12:18:00Z</time>
      </trkpt>
      <trkpt lat="42.359718" lon="1.696125">
        <ele>959.12109</ele>
        <time>2021-07-02T12:18:01Z</time>
      </trkpt>
      <trkpt lat="42.359718" lon="1.696232">
        <ele>958.55249</ele>
        <time>2021-07-02T12:18:02Z</time>
      </trkpt>
      <trkpt lat="42.359718" lon="1.696343">
        <ele>958.05176</ele>
        <time>2021-07-02T12:18:03Z</time>
      </trkpt>
      <trkpt lat="42.359726" lon="1.696461">
        <ele>957.77747</ele>
        <time>2021-07-02T12:18:04Z</time>
      </trkpt>
      <trkpt lat="42.359745" lon="1.696586">
        <ele>957.93994</ele>
        <time>2021-07-02T12:18:05Z</time>
      </trkpt>
      <trkpt lat="42.359768" lon="1.696743">
        <ele>958.37451</ele>
        <time>2021-07-02T12:18:06Z</time>
      </trkpt>
      <trkpt lat="42.359795" lon="1.696915">
        <ele>958.19702</ele>
        <time>2021-07-02T12:18:07Z</time>
      </trkpt>
      <trkpt lat="42.359825" lon="1.697077">
        <ele>957.27966</ele>
        <time>2021-07-02T12:18:08Z</time>
      </trkpt>
      <trkpt lat="42.359848" lon="1.697242">
        <ele>957.32861</ele>
        <time>2021-07-02T12:18:09Z</time>
      </trkpt>
      <trkpt lat="42.359871" lon="1.697416">
        <ele>957.42627</ele>
        <time>2021-07-02T12:18:10Z</time>
      </trkpt>
      <trkpt lat="42.359879" lon="1.697557">
        <ele>957.73889</ele>
        <time>2021-07-02T12:18:11Z</time>
      </trkpt>
      <trkpt lat="42.359882" lon="1.697710">
        <ele>957.73279</ele>
        <time>2021-07-02T12:18:12Z</time>
      </trkpt>
      <trkpt lat="42.359882" lon="1.697886">
        <ele>958.44751</ele>
        <time>2021-07-02T12:18:13Z</time>
      </trkpt>
      <trkpt lat="42.359871" lon="1.698053">
        <ele>957.39282</ele>
        <time>2021-07-02T12:18:14Z</time>
      </trkpt>
      <trkpt lat="42.359852" lon="1.698211">
        <ele>956.82251</ele>
        <time>2021-07-02T12:18:15Z</time>
      </trkpt>
      <trkpt lat="42.359825" lon="1.698378">
        <ele>957.93579</ele>
        <time>2021-07-02T12:18:16Z</time>
      </trkpt>
      <trkpt lat="42.359798" lon="1.698558">
        <ele>958.82556</ele>
        <time>2021-07-02T12:18:17Z</time>
      </trkpt>
      <trkpt lat="42.359764" lon="1.698722">
        <ele>959.02612</ele>
        <time>2021-07-02T12:18:18Z</time>
      </trkpt>
      <trkpt lat="42.359718" lon="1.698899">
        <ele>958.05066</ele>
        <time>2021-07-02T12:18:19Z</time>
      </trkpt>
      <trkpt lat="42.359718" lon="1.698899">
        <ele>958.07520</ele>
        <time>2021-07-02T12:18:20Z</time>
      </trkpt>
      <trkpt lat="42.359661" lon="1.699080">
        <ele>958.70288</ele>
        <time>2021-07-02T12:18:21Z</time>
      </trkpt>
      <trkpt lat="42.359604" lon="1.699276">
        <ele>959.11890</ele>
        <time>2021-07-02T12:18:22Z</time>
      </trkpt>
      <trkpt lat="42.359543" lon="1.699470">
        <ele>959.59448</ele>
        <time>2021-07-02T12:18:23Z</time>
      </trkpt>
      <trkpt lat="42.359482" lon="1.699653">
        <ele>960.63989</ele>
        <time>2021-07-02T12:18:24Z</time>
      </trkpt>
      <trkpt lat="42.359421" lon="1.699840">
        <ele>960.37561</ele>
        <time>2021-07-02T12:18:25Z</time>
      </trkpt>
      <trkpt lat="42.359364" lon="1.700015">
        <ele>961.37915</ele>
        <time>2021-07-02T12:18:26Z</time>
      </trkpt>
      <trkpt lat="42.359303" lon="1.700207">
        <ele>961.23267</ele>
        <time>2021-07-02T12:18:27Z</time>
      </trkpt>
      <trkpt lat="42.359241" lon="1.700393">
        <ele>961.55408</ele>
        <time>2021-07-02T12:18:28Z</time>
      </trkpt>
      <trkpt lat="42.359188" lon="1.700569">
        <ele>961.79932</ele>
        <time>2021-07-02T12:18:29Z</time>
      </trkpt>
      <trkpt lat="42.359127" lon="1.700761">
        <ele>962.90771</ele>
        <time>2021-07-02T12:18:30Z</time>
      </trkpt>
      <trkpt lat="42.359066" lon="1.700962">
        <ele>963.38599</ele>
        <time>2021-07-02T12:18:31Z</time>
      </trkpt>
      <trkpt lat="42.359032" lon="1.701159">
        <ele>963.68848</ele>
        <time>2021-07-02T12:18:32Z</time>
      </trkpt>
      <trkpt lat="42.359013" lon="1.701370">
        <ele>964.11487</ele>
        <time>2021-07-02T12:18:33Z</time>
      </trkpt>
      <trkpt lat="42.359032" lon="1.701600">
        <ele>964.69751</ele>
        <time>2021-07-02T12:18:34Z</time>
      </trkpt>
      <trkpt lat="42.359081" lon="1.701833">
        <ele>966.97363</ele>
        <time>2021-07-02T12:18:35Z</time>
      </trkpt>
      <trkpt lat="42.359173" lon="1.702070">
        <ele>967.98584</ele>
        <time>2021-07-02T12:18:36Z</time>
      </trkpt>
      <trkpt lat="42.359280" lon="1.702265">
        <ele>969.26025</ele>
        <time>2021-07-02T12:18:37Z</time>
      </trkpt>
      <trkpt lat="42.359406" lon="1.702439">
        <ele>969.89893</ele>
        <time>2021-07-02T12:18:38Z</time>
      </trkpt>
      <trkpt lat="42.359577" lon="1.702604">
        <ele>971.26917</ele>
        <time>2021-07-02T12:18:39Z</time>
      </trkpt>
      <trkpt lat="42.359760" lon="1.702780">
        <ele>972.54333</ele>
        <time>2021-07-02T12:18:40Z</time>
      </trkpt>
      <trkpt lat="42.359951" lon="1.702961">
        <ele>973.62109</ele>
        <time>2021-07-02T12:18:41Z</time>
      </trkpt>
      <trkpt lat="42.360149" lon="1.703143">
        <ele>975.21973</ele>
        <time>2021-07-02T12:18:42Z</time>
      </trkpt>
      <trkpt lat="42.360340" lon="1.703312">
        <ele>975.33191</ele>
        <time>2021-07-02T12:18:43Z</time>
      </trkpt>
      <trkpt lat="42.360558" lon="1.703468">
        <ele>975.47827</ele>
        <time>2021-07-02T12:18:44Z</time>
      </trkpt>
      <trkpt lat="42.360775" lon="1.703609">
        <ele>975.17578</ele>
        <time>2021-07-02T12:18:45Z</time>
      </trkpt>
      <trkpt lat="42.360996" lon="1.703738">
        <ele>975.65149</ele>
        <time>2021-07-02T12:18:46Z</time>
      </trkpt>
      <trkpt lat="42.361198" lon="1.703849">
        <ele>975.60193</ele>
        <time>2021-07-02T12:18:47Z</time>
      </trkpt>
      <trkpt lat="42.361382" lon="1.703951">
        <ele>977.81531</ele>
        <time>2021-07-02T12:18:48Z</time>
      </trkpt>
      <trkpt lat="42.361565" lon="1.704051">
        <ele>978.45203</ele>
        <time>2021-07-02T12:18:49Z</time>
      </trkpt>
      <trkpt lat="42.361755" lon="1.704157">
        <ele>977.43298</ele>
        <time>2021-07-02T12:18:50Z</time>
      </trkpt>
      <trkpt lat="42.361958" lon="1.704269">
        <ele>977.78345</ele>
        <time>2021-07-02T12:18:51Z</time>
      </trkpt>
      <trkpt lat="42.362141" lon="1.704368">
        <ele>978.34436</ele>
        <time>2021-07-02T12:18:52Z</time>
      </trkpt>
      <trkpt lat="42.362312" lon="1.704463">
        <ele>978.28638</ele>
        <time>2021-07-02T12:18:53Z</time>
      </trkpt>
      <trkpt lat="42.362312" lon="1.704463">
        <ele>978.15063</ele>
        <time>2021-07-02T12:18:54Z</time>
      </trkpt>
      <trkpt lat="42.362499" lon="1.704567">
        <ele>978.10291</ele>
        <time>2021-07-02T12:18:55Z</time>
      </trkpt>
      <trkpt lat="42.362679" lon="1.704665">
        <ele>977.16858</ele>
        <time>2021-07-02T12:18:56Z</time>
      </trkpt>
      <trkpt lat="42.362850" lon="1.704760">
        <ele>977.21777</ele>
        <time>2021-07-02T12:18:57Z</time>
      </trkpt>
      <trkpt lat="42.363003" lon="1.704845">
        <ele>978.19958</ele>
        <time>2021-07-02T12:18:58Z</time>
      </trkpt>
      <trkpt lat="42.363148" lon="1.704926">
        <ele>978.75427</ele>
        <time>2021-07-02T12:18:59Z</time>
      </trkpt>
      <trkpt lat="42.363304" lon="1.705011">
        <ele>978.78442</ele>
        <time>2021-07-02T12:19:00Z</time>
      </trkpt>
      <trkpt lat="42.363457" lon="1.705096">
        <ele>979.14087</ele>
        <time>2021-07-02T12:19:01Z</time>
      </trkpt>
      <trkpt lat="42.363605" lon="1.705197">
        <ele>979.80811</ele>
        <time>2021-07-02T12:19:02Z</time>
      </trkpt>
      <trkpt lat="42.363747" lon="1.705301">
        <ele>979.41565</ele>
        <time>2021-07-02T12:19:03Z</time>
      </trkpt>
      <trkpt lat="42.363880" lon="1.705447">
        <ele>979.11182</ele>
        <time>2021-07-02T12:19:04Z</time>
      </trkpt>
      <trkpt lat="42.364006" lon="1.705652">
        <ele>978.33167</ele>
        <time>2021-07-02T12:19:05Z</time>
      </trkpt>
      <trkpt lat="42.364113" lon="1.705869">
        <ele>977.76660</ele>
        <time>2021-07-02T12:19:06Z</time>
      </trkpt>
      <trkpt lat="42.364193" lon="1.706106">
        <ele>977.32581</ele>
        <time>2021-07-02T12:19:07Z</time>
      </trkpt>
      <trkpt lat="42.364231" lon="1.706358">
        <ele>978.06628</ele>
        <time>2021-07-02T12:19:08Z</time>
      </trkpt>
      <trkpt lat="42.364235" lon="1.706603">
        <ele>977.78210</ele>
        <time>2021-07-02T12:19:09Z</time>
      </trkpt>
      <trkpt lat="42.364223" lon="1.706844">
        <ele>977.32556</ele>
        <time>2021-07-02T12:19:10Z</time>
      </trkpt>
      <trkpt lat="42.364197" lon="1.707100">
        <ele>976.97534</ele>
        <time>2021-07-02T12:19:11Z</time>
      </trkpt>
      <trkpt lat="42.364166" lon="1.707359">
        <ele>975.95044</ele>
        <time>2021-07-02T12:19:12Z</time>
      </trkpt>
      <trkpt lat="42.364140" lon="1.707620">
        <ele>976.75195</ele>
        <time>2021-07-02T12:19:13Z</time>
      </trkpt>
      <trkpt lat="42.364105" lon="1.707897">
        <ele>976.51111</ele>
        <time>2021-07-02T12:19:14Z</time>
      </trkpt>
      <trkpt lat="42.364079" lon="1.708165">
        <ele>976.26843</ele>
        <time>2021-07-02T12:19:15Z</time>
      </trkpt>
      <trkpt lat="42.364044" lon="1.708454">
        <ele>976.72522</ele>
        <time>2021-07-02T12:19:16Z</time>
      </trkpt>
      <trkpt lat="42.364014" lon="1.708740">
        <ele>976.40027</ele>
        <time>2021-07-02T12:19:17Z</time>
      </trkpt>
      <trkpt lat="42.363987" lon="1.709017">
        <ele>976.15820</ele>
        <time>2021-07-02T12:19:18Z</time>
      </trkpt>
      <trkpt lat="42.363972" lon="1.709296">
        <ele>976.28088</ele>
        <time>2021-07-02T12:19:19Z</time>
      </trkpt>
      <trkpt lat="42.363960" lon="1.709579">
        <ele>976.44519</ele>
        <time>2021-07-02T12:19:20Z</time>
      </trkpt>
      <trkpt lat="42.363968" lon="1.709865">
        <ele>976.59766</ele>
        <time>2021-07-02T12:19:21Z</time>
      </trkpt>
      <trkpt lat="42.363987" lon="1.710154">
        <ele>976.35535</ele>
        <time>2021-07-02T12:19:22Z</time>
      </trkpt>
      <trkpt lat="42.364021" lon="1.710433">
        <ele>976.66162</ele>
        <time>2021-07-02T12:19:23Z</time>
      </trkpt>
      <trkpt lat="42.364021" lon="1.710433">
        <ele>977.30469</ele>
        <time>2021-07-02T12:19:24Z</time>
      </trkpt>
      <trkpt lat="42.364113" lon="1.710941">
        <ele>977.81213</ele>
        <time>2021-07-02T12:19:25Z</time>
      </trkpt>
      <trkpt lat="42.364113" lon="1.710941">
        <ele>977.71851</ele>
        <time>2021-07-02T12:19:26Z</time>
      </trkpt>
      <trkpt lat="42.364166" lon="1.711183">
        <ele>977.53162</ele>
        <time>2021-07-02T12:19:27Z</time>
      </trkpt>
      <trkpt lat="42.364231" lon="1.711408">
        <ele>977.69446</ele>
        <time>2021-07-02T12:19:28Z</time>
      </trkpt>
      <trkpt lat="42.364304" lon="1.711636">
        <ele>977.74109</ele>
        <time>2021-07-02T12:19:29Z</time>
      </trkpt>
      <trkpt lat="42.364391" lon="1.711869">
        <ele>977.55579</ele>
        <time>2021-07-02T12:19:30Z</time>
      </trkpt>
      <trkpt lat="42.364479" lon="1.712090">
        <ele>976.17780</ele>
        <time>2021-07-02T12:19:31Z</time>
      </trkpt>
      <trkpt lat="42.364563" lon="1.712287">
        <ele>976.08594</ele>
        <time>2021-07-02T12:19:32Z</time>
      </trkpt>
      <trkpt lat="42.364643" lon="1.712474">
        <ele>976.26093</ele>
        <time>2021-07-02T12:19:33Z</time>
      </trkpt>
      <trkpt lat="42.364731" lon="1.712677">
        <ele>976.28741</ele>
        <time>2021-07-02T12:19:34Z</time>
      </trkpt>
      <trkpt lat="42.364803" lon="1.712852">
        <ele>975.18109</ele>
        <time>2021-07-02T12:19:35Z</time>
      </trkpt>
      <trkpt lat="42.364876" lon="1.713032">
        <ele>976.36493</ele>
        <time>2021-07-02T12:19:36Z</time>
      </trkpt>
      <trkpt lat="42.364948" lon="1.713236">
        <ele>975.99969</ele>
        <time>2021-07-02T12:19:37Z</time>
      </trkpt>
      <trkpt lat="42.365017" lon="1.713452">
        <ele>976.55432</ele>
        <time>2021-07-02T12:19:38Z</time>
      </trkpt>
      <trkpt lat="42.365070" lon="1.713665">
        <ele>976.98047</ele>
        <time>2021-07-02T12:19:39Z</time>
      </trkpt>
      <trkpt lat="42.365112" lon="1.713882">
        <ele>977.23462</ele>
        <time>2021-07-02T12:19:40Z</time>
      </trkpt>
      <trkpt lat="42.365150" lon="1.714145">
        <ele>977.86987</ele>
        <time>2021-07-02T12:19:41Z</time>
      </trkpt>
      <trkpt lat="42.365189" lon="1.714429">
        <ele>978.01074</ele>
        <time>2021-07-02T12:19:42Z</time>
      </trkpt>
      <trkpt lat="42.365215" lon="1.714679">
        <ele>975.99072</ele>
        <time>2021-07-02T12:19:43Z</time>
      </trkpt>
      <trkpt lat="42.365238" lon="1.714903">
        <ele>976.20654</ele>
        <time>2021-07-02T12:19:44Z</time>
      </trkpt>
      <trkpt lat="42.365257" lon="1.715125">
        <ele>976.76184</ele>
        <time>2021-07-02T12:19:45Z</time>
      </trkpt>
      <trkpt lat="42.365284" lon="1.715372">
        <ele>977.83594</ele>
        <time>2021-07-02T12:19:46Z</time>
      </trkpt>
      <trkpt lat="42.365311" lon="1.715618">
        <ele>979.41357</ele>
        <time>2021-07-02T12:19:47Z</time>
      </trkpt>
      <trkpt lat="42.365341" lon="1.715856">
        <ele>979.13647</ele>
        <time>2021-07-02T12:19:48Z</time>
      </trkpt>
      <trkpt lat="42.365391" lon="1.716116">
        <ele>979.25269</ele>
        <time>2021-07-02T12:19:49Z</time>
      </trkpt>
      <trkpt lat="42.365448" lon="1.716378">
        <ele>979.94507</ele>
        <time>2021-07-02T12:19:50Z</time>
      </trkpt>
      <trkpt lat="42.365536" lon="1.716675">
        <ele>980.24744</ele>
        <time>2021-07-02T12:19:51Z</time>
      </trkpt>
      <trkpt lat="42.365643" lon="1.716980">
        <ele>981.10950</ele>
        <time>2021-07-02T12:19:52Z</time>
      </trkpt>
      <trkpt lat="42.365753" lon="1.717291">
        <ele>981.10352</ele>
        <time>2021-07-02T12:19:53Z</time>
      </trkpt>
      <trkpt lat="42.365849" lon="1.717552">
        <ele>981.23901</ele>
        <time>2021-07-02T12:19:54Z</time>
      </trkpt>
      <trkpt lat="42.365940" lon="1.717817">
        <ele>983.56665</ele>
        <time>2021-07-02T12:19:55Z</time>
      </trkpt>
      <trkpt lat="42.366032" lon="1.718080">
        <ele>984.73230</ele>
        <time>2021-07-02T12:19:56Z</time>
      </trkpt>
      <trkpt lat="42.366119" lon="1.718334">
        <ele>984.95227</ele>
        <time>2021-07-02T12:19:57Z</time>
      </trkpt>
      <trkpt lat="42.366207" lon="1.718602">
        <ele>985.51404</ele>
        <time>2021-07-02T12:19:58Z</time>
      </trkpt>
      <trkpt lat="42.366272" lon="1.718842">
        <ele>985.25684</ele>
        <time>2021-07-02T12:19:59Z</time>
      </trkpt>
      <trkpt lat="42.366337" lon="1.719105">
        <ele>985.53833</ele>
        <time>2021-07-02T12:20:00Z</time>
      </trkpt>
      <trkpt lat="42.366337" lon="1.719105">
        <ele>986.62573</ele>
        <time>2021-07-02T12:20:01Z</time>
      </trkpt>
      <trkpt lat="42.366383" lon="1.719360">
        <ele>986.97327</ele>
        <time>2021-07-02T12:20:02Z</time>
      </trkpt>
      <trkpt lat="42.366425" lon="1.719622">
        <ele>987.58374</ele>
        <time>2021-07-02T12:20:03Z</time>
      </trkpt>
      <trkpt lat="42.366467" lon="1.719897">
        <ele>988.00684</ele>
        <time>2021-07-02T12:20:04Z</time>
      </trkpt>
      <trkpt lat="42.366505" lon="1.720152">
        <ele>988.77283</ele>
        <time>2021-07-02T12:20:05Z</time>
      </trkpt>
      <trkpt lat="42.366539" lon="1.720423">
        <ele>989.23633</ele>
        <time>2021-07-02T12:20:06Z</time>
      </trkpt>
      <trkpt lat="42.366573" lon="1.720683">
        <ele>989.87219</ele>
        <time>2021-07-02T12:20:07Z</time>
      </trkpt>
      <trkpt lat="42.366596" lon="1.720949">
        <ele>990.90784</ele>
        <time>2021-07-02T12:20:08Z</time>
      </trkpt>
      <trkpt lat="42.366623" lon="1.721217">
        <ele>992.02124</ele>
        <time>2021-07-02T12:20:09Z</time>
      </trkpt>
      <trkpt lat="42.366650" lon="1.721483">
        <ele>992.04163</ele>
        <time>2021-07-02T12:20:10Z</time>
      </trkpt>
      <trkpt lat="42.366676" lon="1.721739">
        <ele>992.51733</ele>
        <time>2021-07-02T12:20:11Z</time>
      </trkpt>
      <trkpt lat="42.366699" lon="1.721972">
        <ele>994.05273</ele>
        <time>2021-07-02T12:20:12Z</time>
      </trkpt>
      <trkpt lat="42.366726" lon="1.722213">
        <ele>995.08154</ele>
        <time>2021-07-02T12:20:13Z</time>
      </trkpt>
      <trkpt lat="42.366768" lon="1.722452">
        <ele>995.73999</ele>
        <time>2021-07-02T12:20:14Z</time>
      </trkpt>
      <trkpt lat="42.366814" lon="1.722669">
        <ele>995.81812</ele>
        <time>2021-07-02T12:20:15Z</time>
      </trkpt>
      <trkpt lat="42.366859" lon="1.722868">
        <ele>995.53796</ele>
        <time>2021-07-02T12:20:16Z</time>
      </trkpt>
      <trkpt lat="42.366905" lon="1.723072">
        <ele>996.57410</ele>
        <time>2021-07-02T12:20:17Z</time>
      </trkpt>
      <trkpt lat="42.366955" lon="1.723295">
        <ele>997.48035</ele>
        <time>2021-07-02T12:20:18Z</time>
      </trkpt>
      <trkpt lat="42.367008" lon="1.723503">
        <ele>998.06421</ele>
        <time>2021-07-02T12:20:19Z</time>
      </trkpt>
      <trkpt lat="42.367081" lon="1.723695">
        <ele>998.28638</ele>
        <time>2021-07-02T12:20:20Z</time>
      </trkpt>
      <trkpt lat="42.367172" lon="1.723884">
        <ele>998.25244</ele>
        <time>2021-07-02T12:20:21Z</time>
      </trkpt>
      <trkpt lat="42.367287" lon="1.724078">
        <ele>998.41919</ele>
        <time>2021-07-02T12:20:22Z</time>
      </trkpt>
      <trkpt lat="42.367413" lon="1.724283">
        <ele>998.26123</ele>
        <time>2021-07-02T12:20:23Z</time>
      </trkpt>
      <trkpt lat="42.367565" lon="1.724523">
        <ele>997.66589</ele>
        <time>2021-07-02T12:20:24Z</time>
      </trkpt>
      <trkpt lat="42.367748" lon="1.724812">
        <ele>997.67761</ele>
        <time>2021-07-02T12:20:25Z</time>
      </trkpt>
      <trkpt lat="42.367912" lon="1.725079">
        <ele>997.87390</ele>
        <time>2021-07-02T12:20:26Z</time>
      </trkpt>
      <trkpt lat="42.368073" lon="1.725350">
        <ele>997.55823</ele>
        <time>2021-07-02T12:20:27Z</time>
      </trkpt>
      <trkpt lat="42.368195" lon="1.725565">
        <ele>997.90295</ele>
        <time>2021-07-02T12:20:28Z</time>
      </trkpt>
      <trkpt lat="42.368286" lon="1.725757">
        <ele>999.12207</ele>
        <time>2021-07-02T12:20:29Z</time>
      </trkpt>
      <trkpt lat="42.368393" lon="1.726024">
        <ele>999.23315</ele>
        <time>2021-07-02T12:20:30Z</time>
      </trkpt>
      <trkpt lat="42.368488" lon="1.726354">
        <ele>999.66296</ele>
        <time>2021-07-02T12:20:31Z</time>
      </trkpt>
      <trkpt lat="42.368565" lon="1.726736">
        <ele>1000.12280</ele>
        <time>2021-07-02T12:20:32Z</time>
      </trkpt>
      <trkpt lat="42.368607" lon="1.727123">
        <ele>1000.98218</ele>
        <time>2021-07-02T12:20:33Z</time>
      </trkpt>
      <trkpt lat="42.368660" lon="1.727553">
        <ele>1001.31091</ele>
        <time>2021-07-02T12:20:34Z</time>
      </trkpt>
      <trkpt lat="42.368710" lon="1.727988">
        <ele>1002.25073</ele>
        <time>2021-07-02T12:20:35Z</time>
      </trkpt>
      <trkpt lat="42.368710" lon="1.727988">
        <ele>1003.34363</ele>
        <time>2021-07-02T12:20:36Z</time>
      </trkpt>
      <trkpt lat="42.368763" lon="1.728428">
        <ele>1004.47485</ele>
        <time>2021-07-02T12:20:37Z</time>
      </trkpt>
      <trkpt lat="42.368809" lon="1.728817">
        <ele>1006.33948</ele>
        <time>2021-07-02T12:20:38Z</time>
      </trkpt>
      <trkpt lat="42.368855" lon="1.729226">
        <ele>1007.34949</ele>
        <time>2021-07-02T12:20:39Z</time>
      </trkpt>
      <trkpt lat="42.368900" lon="1.729616">
        <ele>1008.96167</ele>
        <time>2021-07-02T12:20:40Z</time>
      </trkpt>
      <trkpt lat="42.368946" lon="1.730012">
        <ele>1010.85388</ele>
        <time>2021-07-02T12:20:41Z</time>
      </trkpt>
      <trkpt lat="42.368992" lon="1.730417">
        <ele>1012.40540</ele>
        <time>2021-07-02T12:20:42Z</time>
      </trkpt>
      <trkpt lat="42.369038" lon="1.730795">
        <ele>1013.37524</ele>
        <time>2021-07-02T12:20:43Z</time>
      </trkpt>
      <trkpt lat="42.369080" lon="1.731162">
        <ele>1014.68274</ele>
        <time>2021-07-02T12:20:44Z</time>
      </trkpt>
      <trkpt lat="42.369125" lon="1.731537">
        <ele>1015.20703</ele>
        <time>2021-07-02T12:20:45Z</time>
      </trkpt>
      <trkpt lat="42.369175" lon="1.731893">
        <ele>1016.06604</ele>
        <time>2021-07-02T12:20:46Z</time>
      </trkpt>
      <trkpt lat="42.369232" lon="1.732262">
        <ele>1017.01160</ele>
        <time>2021-07-02T12:20:47Z</time>
      </trkpt>
      <trkpt lat="42.369312" lon="1.732623">
        <ele>1017.92957</ele>
        <time>2021-07-02T12:20:48Z</time>
      </trkpt>
      <trkpt lat="42.369404" lon="1.732977">
        <ele>1019.06543</ele>
        <time>2021-07-02T12:20:49Z</time>
      </trkpt>
      <trkpt lat="42.369511" lon="1.733322">
        <ele>1020.05640</ele>
        <time>2021-07-02T12:20:50Z</time>
      </trkpt>
      <trkpt lat="42.369637" lon="1.733675">
        <ele>1020.06396</ele>
        <time>2021-07-02T12:20:51Z</time>
      </trkpt>
      <trkpt lat="42.369774" lon="1.733997">
        <ele>1019.46826</ele>
        <time>2021-07-02T12:20:52Z</time>
      </trkpt>
      <trkpt lat="42.369919" lon="1.734309">
        <ele>1018.47180</ele>
        <time>2021-07-02T12:20:53Z</time>
      </trkpt>
      <trkpt lat="42.370079" lon="1.734607">
        <ele>1018.04797</ele>
        <time>2021-07-02T12:20:54Z</time>
      </trkpt>
      <trkpt lat="42.370255" lon="1.734915">
        <ele>1017.50391</ele>
        <time>2021-07-02T12:20:55Z</time>
      </trkpt>
      <trkpt lat="42.370438" lon="1.735211">
        <ele>1016.42786</ele>
        <time>2021-07-02T12:20:56Z</time>
      </trkpt>
      <trkpt lat="42.370621" lon="1.735508">
        <ele>1015.80469</ele>
        <time>2021-07-02T12:20:57Z</time>
      </trkpt>
      <trkpt lat="42.370808" lon="1.735817">
        <ele>1014.89050</ele>
        <time>2021-07-02T12:20:58Z</time>
      </trkpt>
      <trkpt lat="42.370983" lon="1.736099">
        <ele>1014.84741</ele>
        <time>2021-07-02T12:20:59Z</time>
      </trkpt>
      <trkpt lat="42.371147" lon="1.736364">
        <ele>1014.98059</ele>
        <time>2021-07-02T12:21:00Z</time>
      </trkpt>
      <trkpt lat="42.371319" lon="1.736640">
        <ele>1015.07886</ele>
        <time>2021-07-02T12:21:01Z</time>
      </trkpt>
      <trkpt lat="42.371483" lon="1.736906">
        <ele>1014.85608</ele>
        <time>2021-07-02T12:21:02Z</time>
      </trkpt>
      <trkpt lat="42.371651" lon="1.737162">
        <ele>1015.41394</ele>
        <time>2021-07-02T12:21:03Z</time>
      </trkpt>
      <trkpt lat="42.371815" lon="1.737409">
        <ele>1015.21204</ele>
        <time>2021-07-02T12:21:04Z</time>
      </trkpt>
      <trkpt lat="42.371979" lon="1.737659">
        <ele>1014.82861</ele>
        <time>2021-07-02T12:21:05Z</time>
      </trkpt>
      <trkpt lat="42.372139" lon="1.737907">
        <ele>1014.42603</ele>
        <time>2021-07-02T12:21:06Z</time>
      </trkpt>
      <trkpt lat="42.372288" lon="1.738135">
        <ele>1013.81738</ele>
        <time>2021-07-02T12:21:07Z</time>
      </trkpt>
      <trkpt lat="42.372288" lon="1.738135">
        <ele>1013.32544</ele>
        <time>2021-07-02T12:21:08Z</time>
      </trkpt>
      <trkpt lat="42.372444" lon="1.738391">
        <ele>1011.77722</ele>
        <time>2021-07-02T12:21:09Z</time>
      </trkpt>
      <trkpt lat="42.372589" lon="1.738640">
        <ele>1011.94238</ele>
        <time>2021-07-02T12:21:10Z</time>
      </trkpt>
      <trkpt lat="42.372730" lon="1.738875">
        <ele>1011.83057</ele>
        <time>2021-07-02T12:21:11Z</time>
      </trkpt>
      <trkpt lat="42.372864" lon="1.739114">
        <ele>1011.48730</ele>
        <time>2021-07-02T12:21:12Z</time>
      </trkpt>
      <trkpt lat="42.372990" lon="1.739362">
        <ele>1012.50562</ele>
        <time>2021-07-02T12:21:13Z</time>
      </trkpt>
      <trkpt lat="42.373112" lon="1.739620">
        <ele>1012.61169</ele>
        <time>2021-07-02T12:21:14Z</time>
      </trkpt>
      <trkpt lat="42.373215" lon="1.739897">
        <ele>1013.25562</ele>
        <time>2021-07-02T12:21:15Z</time>
      </trkpt>
      <trkpt lat="42.373291" lon="1.740180">
        <ele>1014.31555</ele>
        <time>2021-07-02T12:21:16Z</time>
      </trkpt>
      <trkpt lat="42.373356" lon="1.740484">
        <ele>1014.69373</ele>
        <time>2021-07-02T12:21:17Z</time>
      </trkpt>
      <trkpt lat="42.373390" lon="1.740793">
        <ele>1015.16089</ele>
        <time>2021-07-02T12:21:18Z</time>
      </trkpt>
      <trkpt lat="42.373402" lon="1.741077">
        <ele>1015.29944</ele>
        <time>2021-07-02T12:21:19Z</time>
      </trkpt>
      <trkpt lat="42.373390" lon="1.741381">
        <ele>1015.27686</ele>
        <time>2021-07-02T12:21:20Z</time>
      </trkpt>
      <trkpt lat="42.373371" lon="1.741683">
        <ele>1015.91675</ele>
        <time>2021-07-02T12:21:21Z</time>
      </trkpt>
      <trkpt lat="42.373325" lon="1.741996">
        <ele>1015.74756</ele>
        <time>2021-07-02T12:21:22Z</time>
      </trkpt>
      <trkpt lat="42.373264" lon="1.742303">
        <ele>1015.57971</ele>
        <time>2021-07-02T12:21:23Z</time>
      </trkpt>
      <trkpt lat="42.373199" lon="1.742611">
        <ele>1015.45935</ele>
        <time>2021-07-02T12:21:24Z</time>
      </trkpt>
      <trkpt lat="42.373138" lon="1.742919">
        <ele>1015.07349</ele>
        <time>2021-07-02T12:21:25Z</time>
      </trkpt>
      <trkpt lat="42.373074" lon="1.743238">
        <ele>1014.68494</ele>
        <time>2021-07-02T12:21:26Z</time>
      </trkpt>
      <trkpt lat="42.373013" lon="1.743540">
        <ele>1014.83423</ele>
        <time>2021-07-02T12:21:27Z</time>
      </trkpt>
      <trkpt lat="42.372936" lon="1.743807">
        <ele>1014.34497</ele>
        <time>2021-07-02T12:21:28Z</time>
      </trkpt>
      <trkpt lat="42.372883" lon="1.744119">
        <ele>1013.69641</ele>
        <time>2021-07-02T12:21:29Z</time>
      </trkpt>
      <trkpt lat="42.372837" lon="1.744444">
        <ele>1012.60535</ele>
        <time>2021-07-02T12:21:30Z</time>
      </trkpt>
      <trkpt lat="42.372818" lon="1.744773">
        <ele>1011.72742</ele>
        <time>2021-07-02T12:21:31Z</time>
      </trkpt>
      <trkpt lat="42.372818" lon="1.745107">
        <ele>1011.57080</ele>
        <time>2021-07-02T12:21:32Z</time>
      </trkpt>
      <trkpt lat="42.372852" lon="1.745449">
        <ele>1012.07056</ele>
        <time>2021-07-02T12:21:33Z</time>
      </trkpt>
      <trkpt lat="42.372906" lon="1.745817">
        <ele>1012.02222</ele>
        <time>2021-07-02T12:21:34Z</time>
      </trkpt>
      <trkpt lat="42.372963" lon="1.746181">
        <ele>1012.93445</ele>
        <time>2021-07-02T12:21:35Z</time>
      </trkpt>
      <trkpt lat="42.373035" lon="1.746525">
        <ele>1013.52783</ele>
        <time>2021-07-02T12:21:36Z</time>
      </trkpt>
      <trkpt lat="42.373089" lon="1.746879">
        <ele>1015.19348</ele>
        <time>2021-07-02T12:21:37Z</time>
      </trkpt>
      <trkpt lat="42.373142" lon="1.747221">
        <ele>1016.26514</ele>
        <time>2021-07-02T12:21:38Z</time>
      </trkpt>
      <trkpt lat="42.373142" lon="1.747221">
        <ele>1017.14087</ele>
        <time>2021-07-02T12:21:39Z</time>
      </trkpt>
      <trkpt lat="42.373249" lon="1.747861">
        <ele>1018.41663</ele>
        <time>2021-07-02T12:21:40Z</time>
      </trkpt>
      <trkpt lat="42.373249" lon="1.747861">
        <ele>1019.71191</ele>
        <time>2021-07-02T12:21:41Z</time>
      </trkpt>
      <trkpt lat="42.373302" lon="1.748191">
        <ele>1020.52869</ele>
        <time>2021-07-02T12:21:42Z</time>
      </trkpt>
      <trkpt lat="42.373360" lon="1.748538">
        <ele>1021.78430</ele>
        <time>2021-07-02T12:21:43Z</time>
      </trkpt>
      <trkpt lat="42.373417" lon="1.748873">
        <ele>1023.05603</ele>
        <time>2021-07-02T12:21:44Z</time>
      </trkpt>
      <trkpt lat="42.373470" lon="1.749218">
        <ele>1024.11609</ele>
        <time>2021-07-02T12:21:45Z</time>
      </trkpt>
      <trkpt lat="42.373528" lon="1.749554">
        <ele>1024.62756</ele>
        <time>2021-07-02T12:21:46Z</time>
      </trkpt>
      <trkpt lat="42.373589" lon="1.749924">
        <ele>1025.46008</ele>
        <time>2021-07-02T12:21:47Z</time>
      </trkpt>
      <trkpt lat="42.373642" lon="1.750261">
        <ele>1026.47302</ele>
        <time>2021-07-02T12:21:48Z</time>
      </trkpt>
      <trkpt lat="42.373699" lon="1.750606">
        <ele>1026.25842</ele>
        <time>2021-07-02T12:21:49Z</time>
      </trkpt>
      <trkpt lat="42.373756" lon="1.750958">
        <ele>1025.92041</ele>
        <time>2021-07-02T12:21:50Z</time>
      </trkpt>
      <trkpt lat="42.373817" lon="1.751325">
        <ele>1026.21545</ele>
        <time>2021-07-02T12:21:51Z</time>
      </trkpt>
      <trkpt lat="42.373871" lon="1.751688">
        <ele>1026.48743</ele>
        <time>2021-07-02T12:21:52Z</time>
      </trkpt>
      <trkpt lat="42.373901" lon="1.752028">
        <ele>1026.48010</ele>
        <time>2021-07-02T12:21:53Z</time>
      </trkpt>
      <trkpt lat="42.373917" lon="1.752362">
        <ele>1027.21875</ele>
        <time>2021-07-02T12:21:54Z</time>
      </trkpt>
      <trkpt lat="42.373901" lon="1.752704">
        <ele>1027.67273</ele>
        <time>2021-07-02T12:21:55Z</time>
      </trkpt>
      <trkpt lat="42.373856" lon="1.753045">
        <ele>1027.30896</ele>
        <time>2021-07-02T12:21:56Z</time>
      </trkpt>
      <trkpt lat="42.373783" lon="1.753376">
        <ele>1027.55627</ele>
        <time>2021-07-02T12:21:57Z</time>
      </trkpt>
      <trkpt lat="42.373707" lon="1.753708">
        <ele>1028.21448</ele>
        <time>2021-07-02T12:21:58Z</time>
      </trkpt>
      <trkpt lat="42.373627" lon="1.754006">
        <ele>1028.04773</ele>
        <time>2021-07-02T12:21:59Z</time>
      </trkpt>
      <trkpt lat="42.373554" lon="1.754287">
        <ele>1028.01331</ele>
        <time>2021-07-02T12:22:00Z</time>
      </trkpt>
      <trkpt lat="42.373486" lon="1.754548">
        <ele>1028.12915</ele>
        <time>2021-07-02T12:22:01Z</time>
      </trkpt>
      <trkpt lat="42.373409" lon="1.754833">
        <ele>1029.01123</ele>
        <time>2021-07-02T12:22:02Z</time>
      </trkpt>
      <trkpt lat="42.373341" lon="1.755096">
        <ele>1029.40088</ele>
        <time>2021-07-02T12:22:03Z</time>
      </trkpt>
      <trkpt lat="42.373276" lon="1.755369">
        <ele>1029.48682</ele>
        <time>2021-07-02T12:22:04Z</time>
      </trkpt>
      <trkpt lat="42.373222" lon="1.755613">
        <ele>1029.77698</ele>
        <time>2021-07-02T12:22:05Z</time>
      </trkpt>
      <trkpt lat="42.373173" lon="1.755865">
        <ele>1029.84839</ele>
        <time>2021-07-02T12:22:06Z</time>
      </trkpt>
      <trkpt lat="42.373146" lon="1.756120">
        <ele>1029.51904</ele>
        <time>2021-07-02T12:22:07Z</time>
      </trkpt>
      <trkpt lat="42.373138" lon="1.756371">
        <ele>1029.91211</ele>
        <time>2021-07-02T12:22:08Z</time>
      </trkpt>
      <trkpt lat="42.373146" lon="1.756645">
        <ele>1029.65869</ele>
        <time>2021-07-02T12:22:09Z</time>
      </trkpt>
      <trkpt lat="42.373165" lon="1.756883">
        <ele>1028.43420</ele>
        <time>2021-07-02T12:22:10Z</time>
      </trkpt>
      <trkpt lat="42.373165" lon="1.756883">
        <ele>1028.04395</ele>
        <time>2021-07-02T12:22:11Z</time>
      </trkpt>
      <trkpt lat="42.373199" lon="1.757154">
        <ele>1028.56348</ele>
        <time>2021-07-02T12:22:12Z</time>
      </trkpt>
      <trkpt lat="42.373238" lon="1.757407">
        <ele>1028.40588</ele>
        <time>2021-07-02T12:22:13Z</time>
      </trkpt>
      <trkpt lat="42.373280" lon="1.757662">
        <ele>1027.40198</ele>
        <time>2021-07-02T12:22:14Z</time>
      </trkpt>
      <trkpt lat="42.373318" lon="1.757928">
        <ele>1027.37488</ele>
        <time>2021-07-02T12:22:15Z</time>
      </trkpt>
      <trkpt lat="42.373344" lon="1.758201">
        <ele>1027.22156</ele>
        <time>2021-07-02T12:22:16Z</time>
      </trkpt>
      <trkpt lat="42.373363" lon="1.758470">
        <ele>1024.80090</ele>
        <time>2021-07-02T12:22:17Z</time>
      </trkpt>
      <trkpt lat="42.373367" lon="1.758737">
        <ele>1024.17480</ele>
        <time>2021-07-02T12:22:18Z</time>
      </trkpt>
      <trkpt lat="42.373348" lon="1.759008">
        <ele>1023.64062</ele>
        <time>2021-07-02T12:22:19Z</time>
      </trkpt>
      <trkpt lat="42.373314" lon="1.759267">
        <ele>1022.43225</ele>
        <time>2021-07-02T12:22:20Z</time>
      </trkpt>
      <trkpt lat="42.373257" lon="1.759514">
        <ele>1021.95911</ele>
        <time>2021-07-02T12:22:21Z</time>
      </trkpt>
      <trkpt lat="42.373199" lon="1.759752">
        <ele>1021.49622</ele>
        <time>2021-07-02T12:22:22Z</time>
      </trkpt>
      <trkpt lat="42.373142" lon="1.759985">
        <ele>1020.97681</ele>
        <time>2021-07-02T12:22:23Z</time>
      </trkpt>
      <trkpt lat="42.373070" lon="1.760236">
        <ele>1020.79980</ele>
        <time>2021-07-02T12:22:24Z</time>
      </trkpt>
      <trkpt lat="42.373001" lon="1.760468">
        <ele>1020.53809</ele>
        <time>2021-07-02T12:22:25Z</time>
      </trkpt>
      <trkpt lat="42.372944" lon="1.760693">
        <ele>1020.65662</ele>
        <time>2021-07-02T12:22:26Z</time>
      </trkpt>
      <trkpt lat="42.372887" lon="1.760935">
        <ele>1020.01282</ele>
        <time>2021-07-02T12:22:27Z</time>
      </trkpt>
      <trkpt lat="42.372845" lon="1.761179">
        <ele>1019.78577</ele>
        <time>2021-07-02T12:22:28Z</time>
      </trkpt>
      <trkpt lat="42.372814" lon="1.761444">
        <ele>1019.52466</ele>
        <time>2021-07-02T12:22:29Z</time>
      </trkpt>
      <trkpt lat="42.372799" lon="1.761710">
        <ele>1018.97632</ele>
        <time>2021-07-02T12:22:30Z</time>
      </trkpt>
      <trkpt lat="42.372799" lon="1.761994">
        <ele>1018.43286</ele>
        <time>2021-07-02T12:22:31Z</time>
      </trkpt>
      <trkpt lat="42.372818" lon="1.762276">
        <ele>1018.59692</ele>
        <time>2021-07-02T12:22:32Z</time>
      </trkpt>
      <trkpt lat="42.372837" lon="1.762559">
        <ele>1018.46619</ele>
        <time>2021-07-02T12:22:33Z</time>
      </trkpt>
      <trkpt lat="42.372856" lon="1.762810">
        <ele>1017.77966</ele>
        <time>2021-07-02T12:22:34Z</time>
      </trkpt>
      <trkpt lat="42.372871" lon="1.763058">
        <ele>1017.41809</ele>
        <time>2021-07-02T12:22:35Z</time>
      </trkpt>
      <trkpt lat="42.372890" lon="1.763314">
        <ele>1016.84009</ele>
        <time>2021-07-02T12:22:36Z</time>
      </trkpt>
      <trkpt lat="42.372913" lon="1.763588">
        <ele>1016.15442</ele>
        <time>2021-07-02T12:22:37Z</time>
      </trkpt>
      <trkpt lat="42.372936" lon="1.763871">
        <ele>1015.21240</ele>
        <time>2021-07-02T12:22:38Z</time>
      </trkpt>
      <trkpt lat="42.372955" lon="1.764133">
        <ele>1014.27856</ele>
        <time>2021-07-02T12:22:39Z</time>
      </trkpt>
      <trkpt lat="42.372974" lon="1.764405">
        <ele>1013.22742</ele>
        <time>2021-07-02T12:22:40Z</time>
      </trkpt>
      <trkpt lat="42.372993" lon="1.764690">
        <ele>1012.83044</ele>
        <time>2021-07-02T12:22:41Z</time>
      </trkpt>
      <trkpt lat="42.373016" lon="1.764956">
        <ele>1012.89148</ele>
        <time>2021-07-02T12:22:42Z</time>
      </trkpt>
      <trkpt lat="42.373035" lon="1.765233">
        <ele>1012.17969</ele>
        <time>2021-07-02T12:22:43Z</time>
      </trkpt>
      <trkpt lat="42.373058" lon="1.765511">
        <ele>1011.10291</ele>
        <time>2021-07-02T12:22:44Z</time>
      </trkpt>
      <trkpt lat="42.373058" lon="1.765511">
        <ele>1011.02429</ele>
        <time>2021-07-02T12:22:45Z</time>
      </trkpt>
      <trkpt lat="42.373093" lon="1.765813">
        <ele>1010.31262</ele>
        <time>2021-07-02T12:22:46Z</time>
      </trkpt>
      <trkpt lat="42.373138" lon="1.766114">
        <ele>1009.47290</ele>
        <time>2021-07-02T12:22:47Z</time>
      </trkpt>
      <trkpt lat="42.373192" lon="1.766410">
        <ele>1008.82776</ele>
        <time>2021-07-02T12:22:48Z</time>
      </trkpt>
      <trkpt lat="42.373253" lon="1.766687">
        <ele>1008.39612</ele>
        <time>2021-07-02T12:22:49Z</time>
      </trkpt>
      <trkpt lat="42.373325" lon="1.766964">
        <ele>1007.00549</ele>
        <time>2021-07-02T12:22:50Z</time>
      </trkpt>
      <trkpt lat="42.373405" lon="1.767231">
        <ele>1005.54797</ele>
        <time>2021-07-02T12:22:51Z</time>
      </trkpt>
      <trkpt lat="42.373501" lon="1.767482">
        <ele>1005.11462</ele>
        <time>2021-07-02T12:22:52Z</time>
      </trkpt>
      <trkpt lat="42.373600" lon="1.767745">
        <ele>1005.48975</ele>
        <time>2021-07-02T12:22:53Z</time>
      </trkpt>
      <trkpt lat="42.373703" lon="1.767977">
        <ele>1004.81848</ele>
        <time>2021-07-02T12:22:54Z</time>
      </trkpt>
      <trkpt lat="42.373802" lon="1.768208">
        <ele>1004.81201</ele>
        <time>2021-07-02T12:22:55Z</time>
      </trkpt>
      <trkpt lat="42.373909" lon="1.768444">
        <ele>1004.37366</ele>
        <time>2021-07-02T12:22:56Z</time>
      </trkpt>
      <trkpt lat="42.374008" lon="1.768673">
        <ele>1003.43164</ele>
        <time>2021-07-02T12:22:57Z</time>
      </trkpt>
      <trkpt lat="42.374111" lon="1.768902">
        <ele>1003.60120</ele>
        <time>2021-07-02T12:22:58Z</time>
      </trkpt>
      <trkpt lat="42.374210" lon="1.769137">
        <ele>1004.03027</ele>
        <time>2021-07-02T12:22:59Z</time>
      </trkpt>
      <trkpt lat="42.374279" lon="1.769368">
        <ele>1003.89465</ele>
        <time>2021-07-02T12:23:00Z</time>
      </trkpt>
      <trkpt lat="42.374344" lon="1.769613">
        <ele>1004.27539</ele>
        <time>2021-07-02T12:23:01Z</time>
      </trkpt>
      <trkpt lat="42.374397" lon="1.769889">
        <ele>1003.91870</ele>
        <time>2021-07-02T12:23:02Z</time>
      </trkpt>
      <trkpt lat="42.374432" lon="1.770158">
        <ele>1003.94849</ele>
        <time>2021-07-02T12:23:03Z</time>
      </trkpt>
      <trkpt lat="42.374443" lon="1.770432">
        <ele>1003.82178</ele>
        <time>2021-07-02T12:23:04Z</time>
      </trkpt>
      <trkpt lat="42.374432" lon="1.770704">
        <ele>1003.90796</ele>
        <time>2021-07-02T12:23:05Z</time>
      </trkpt>
      <trkpt lat="42.374413" lon="1.770946">
        <ele>1004.53296</ele>
        <time>2021-07-02T12:23:06Z</time>
      </trkpt>
      <trkpt lat="42.374386" lon="1.771154">
        <ele>1004.71021</ele>
        <time>2021-07-02T12:23:07Z</time>
      </trkpt>
      <trkpt lat="42.374348" lon="1.771351">
        <ele>1004.12659</ele>
        <time>2021-07-02T12:23:08Z</time>
      </trkpt>
      <trkpt lat="42.374302" lon="1.771548">
        <ele>1003.76917</ele>
        <time>2021-07-02T12:23:09Z</time>
      </trkpt>
      <trkpt lat="42.374237" lon="1.771743">
        <ele>1003.88794</ele>
        <time>2021-07-02T12:23:10Z</time>
      </trkpt>
      <trkpt lat="42.374168" lon="1.771932">
        <ele>1005.15405</ele>
        <time>2021-07-02T12:23:11Z</time>
      </trkpt>
      <trkpt lat="42.374092" lon="1.772123">
        <ele>1005.81250</ele>
        <time>2021-07-02T12:23:12Z</time>
      </trkpt>
      <trkpt lat="42.373981" lon="1.772330">
        <ele>1005.91626</ele>
        <time>2021-07-02T12:23:13Z</time>
      </trkpt>
      <trkpt lat="42.373871" lon="1.772519">
        <ele>1005.91699</ele>
        <time>2021-07-02T12:23:14Z</time>
      </trkpt>
      <trkpt lat="42.373753" lon="1.772692">
        <ele>1006.84937</ele>
        <time>2021-07-02T12:23:15Z</time>
      </trkpt>
      <trkpt lat="42.373627" lon="1.772851">
        <ele>1007.10925</ele>
        <time>2021-07-02T12:23:16Z</time>
      </trkpt>
      <trkpt lat="42.373486" lon="1.773019">
        <ele>1006.77820</ele>
        <time>2021-07-02T12:23:17Z</time>
      </trkpt>
      <trkpt lat="42.373352" lon="1.773165">
        <ele>1006.73230</ele>
        <time>2021-07-02T12:23:18Z</time>
      </trkpt>
      <trkpt lat="42.373245" lon="1.773286">
        <ele>1006.25037</ele>
        <time>2021-07-02T12:23:19Z</time>
      </trkpt>
      <trkpt lat="42.373131" lon="1.773414">
        <ele>1006.82495</ele>
        <time>2021-07-02T12:23:20Z</time>
      </trkpt>
      <trkpt lat="42.373131" lon="1.773414">
        <ele>1007.75513</ele>
        <time>2021-07-02T12:23:21Z</time>
      </trkpt>
      <trkpt lat="42.373020" lon="1.773539">
        <ele>1007.77979</ele>
        <time>2021-07-02T12:23:22Z</time>
      </trkpt>
      <trkpt lat="42.372936" lon="1.773669">
        <ele>1008.47180</ele>
        <time>2021-07-02T12:23:23Z</time>
      </trkpt>
      <trkpt lat="42.372860" lon="1.773814">
        <ele>1008.62659</ele>
        <time>2021-07-02T12:23:24Z</time>
      </trkpt>
      <trkpt lat="42.372807" lon="1.773985">
        <ele>1008.86353</ele>
        <time>2021-07-02T12:23:25Z</time>
      </trkpt>
      <trkpt lat="42.372776" lon="1.774153">
        <ele>1009.44458</ele>
        <time>2021-07-02T12:23:26Z</time>
      </trkpt>
      <trkpt lat="42.372768" lon="1.774299">
        <ele>1009.98254</ele>
        <time>2021-07-02T12:23:27Z</time>
      </trkpt>
      <trkpt lat="42.372776" lon="1.774440">
        <ele>1010.66626</ele>
        <time>2021-07-02T12:23:28Z</time>
      </trkpt>
      <trkpt lat="42.372784" lon="1.774538">
        <ele>1010.87708</ele>
        <time>2021-07-02T12:23:29Z</time>
      </trkpt>
      <trkpt lat="42.372787" lon="1.774586">
        <ele>1010.86914</ele>
        <time>2021-07-02T12:23:30Z</time>
      </trkpt>
      <trkpt lat="42.372791" lon="1.774646">
        <ele>1010.80518</ele>
        <time>2021-07-02T12:23:31Z</time>
      </trkpt>
      <trkpt lat="42.372799" lon="1.774729">
        <ele>1010.52551</ele>
        <time>2021-07-02T12:23:32Z</time>
      </trkpt>
      <trkpt lat="42.372776" lon="1.774799">
        <ele>1009.56750</ele>
        <time>2021-07-02T12:23:33Z</time>
      </trkpt>
      <trkpt lat="42.372738" lon="1.774885">
        <ele>1010.63037</ele>
        <time>2021-07-02T12:23:34Z</time>
      </trkpt>
      <trkpt lat="42.372780" lon="1.774972">
        <ele>1011.01392</ele>
        <time>2021-07-02T12:23:35Z</time>
      </trkpt>
      <trkpt lat="42.372890" lon="1.774963">
        <ele>1010.39136</ele>
        <time>2021-07-02T12:23:36Z</time>
      </trkpt>
      <trkpt lat="42.372955" lon="1.774986">
        <ele>1010.26831</ele>
        <time>2021-07-02T12:23:37Z</time>
      </trkpt>
      <trkpt lat="42.373093" lon="1.775083">
        <ele>1010.51855</ele>
        <time>2021-07-02T12:23:38Z</time>
      </trkpt>
      <trkpt lat="42.373188" lon="1.775170">
        <ele>1011.21912</ele>
        <time>2021-07-02T12:23:39Z</time>
      </trkpt>
      <trkpt lat="42.373280" lon="1.775257">
        <ele>1011.95227</ele>
        <time>2021-07-02T12:23:40Z</time>
      </trkpt>
      <trkpt lat="42.373375" lon="1.775364">
        <ele>1012.31665</ele>
        <time>2021-07-02T12:23:41Z</time>
      </trkpt>
      <trkpt lat="42.373470" lon="1.775470">
        <ele>1012.90723</ele>
        <time>2021-07-02T12:23:42Z</time>
      </trkpt>
      <trkpt lat="42.373573" lon="1.775582">
        <ele>1013.16321</ele>
        <time>2021-07-02T12:23:43Z</time>
      </trkpt>
      <trkpt lat="42.373684" lon="1.775704">
        <ele>1013.76733</ele>
        <time>2021-07-02T12:23:44Z</time>
      </trkpt>
      <trkpt lat="42.373798" lon="1.775834">
        <ele>1014.40332</ele>
        <time>2021-07-02T12:23:45Z</time>
      </trkpt>
      <trkpt lat="42.373913" lon="1.775977">
        <ele>1014.60449</ele>
        <time>2021-07-02T12:23:46Z</time>
      </trkpt>
      <trkpt lat="42.374035" lon="1.776143">
        <ele>1014.58813</ele>
        <time>2021-07-02T12:23:47Z</time>
      </trkpt>
      <trkpt lat="42.374035" lon="1.776143">
        <ele>1015.19775</ele>
        <time>2021-07-02T12:23:48Z</time>
      </trkpt>
      <trkpt lat="42.374146" lon="1.776315">
        <ele>1015.59009</ele>
        <time>2021-07-02T12:23:49Z</time>
      </trkpt>
      <trkpt lat="42.374233" lon="1.776476">
        <ele>1016.80225</ele>
        <time>2021-07-02T12:23:50Z</time>
      </trkpt>
      <trkpt lat="42.374336" lon="1.776651">
        <ele>1016.93518</ele>
        <time>2021-07-02T12:23:51Z</time>
      </trkpt>
      <trkpt lat="42.374428" lon="1.776828">
        <ele>1017.71704</ele>
        <time>2021-07-02T12:23:52Z</time>
      </trkpt>
      <trkpt lat="42.374523" lon="1.777024">
        <ele>1018.77368</ele>
        <time>2021-07-02T12:23:53Z</time>
      </trkpt>
      <trkpt lat="42.374626" lon="1.777232">
        <ele>1018.66162</ele>
        <time>2021-07-02T12:23:54Z</time>
      </trkpt>
      <trkpt lat="42.374722" lon="1.777452">
        <ele>1016.95068</ele>
        <time>2021-07-02T12:23:55Z</time>
      </trkpt>
      <trkpt lat="42.374802" lon="1.777693">
        <ele>1017.49890</ele>
        <time>2021-07-02T12:23:56Z</time>
      </trkpt>
      <trkpt lat="42.374863" lon="1.777934">
        <ele>1018.14685</ele>
        <time>2021-07-02T12:23:57Z</time>
      </trkpt>
      <trkpt lat="42.374908" lon="1.778197">
        <ele>1018.08374</ele>
        <time>2021-07-02T12:23:58Z</time>
      </trkpt>
      <trkpt lat="42.374935" lon="1.778470">
        <ele>1018.19836</ele>
        <time>2021-07-02T12:23:59Z</time>
      </trkpt>
      <trkpt lat="42.374939" lon="1.778748">
        <ele>1018.14319</ele>
        <time>2021-07-02T12:24:00Z</time>
      </trkpt>
      <trkpt lat="42.374931" lon="1.779047">
        <ele>1018.59387</ele>
        <time>2021-07-02T12:24:01Z</time>
      </trkpt>
      <trkpt lat="42.374920" lon="1.779334">
        <ele>1017.56226</ele>
        <time>2021-07-02T12:24:02Z</time>
      </trkpt>
      <trkpt lat="42.374912" lon="1.779637">
        <ele>1017.29358</ele>
        <time>2021-07-02T12:24:03Z</time>
      </trkpt>
      <trkpt lat="42.374924" lon="1.779925">
        <ele>1016.54919</ele>
        <time>2021-07-02T12:24:04Z</time>
      </trkpt>
      <trkpt lat="42.374950" lon="1.780206">
        <ele>1016.57153</ele>
        <time>2021-07-02T12:24:05Z</time>
      </trkpt>
      <trkpt lat="42.374989" lon="1.780505">
        <ele>1015.99695</ele>
        <time>2021-07-02T12:24:06Z</time>
      </trkpt>
      <trkpt lat="42.375034" lon="1.780803">
        <ele>1016.12000</ele>
        <time>2021-07-02T12:24:07Z</time>
      </trkpt>
      <trkpt lat="42.375076" lon="1.781100">
        <ele>1016.14258</ele>
        <time>2021-07-02T12:24:08Z</time>
      </trkpt>
      <trkpt lat="42.375099" lon="1.781399">
        <ele>1016.36975</ele>
        <time>2021-07-02T12:24:09Z</time>
      </trkpt>
      <trkpt lat="42.375099" lon="1.781710">
        <ele>1016.67578</ele>
        <time>2021-07-02T12:24:10Z</time>
      </trkpt>
      <trkpt lat="42.375076" lon="1.781992">
        <ele>1016.85352</ele>
        <time>2021-07-02T12:24:11Z</time>
      </trkpt>
      <trkpt lat="42.375053" lon="1.782260">
        <ele>1016.96765</ele>
        <time>2021-07-02T12:24:12Z</time>
      </trkpt>
      <trkpt lat="42.375004" lon="1.782539">
        <ele>1017.18884</ele>
        <time>2021-07-02T12:24:13Z</time>
      </trkpt>
      <trkpt lat="42.374950" lon="1.782804">
        <ele>1016.67761</ele>
        <time>2021-07-02T12:24:14Z</time>
      </trkpt>
      <trkpt lat="42.374874" lon="1.783072">
        <ele>1016.90601</ele>
        <time>2021-07-02T12:24:15Z</time>
      </trkpt>
      <trkpt lat="42.374783" lon="1.783329">
        <ele>1016.45227</ele>
        <time>2021-07-02T12:24:16Z</time>
      </trkpt>
      <trkpt lat="42.374676" lon="1.783577">
        <ele>1016.16492</ele>
        <time>2021-07-02T12:24:17Z</time>
      </trkpt>
      <trkpt lat="42.374676" lon="1.783577">
        <ele>1015.84729</ele>
        <time>2021-07-02T12:24:18Z</time>
      </trkpt>
      <trkpt lat="42.374554" lon="1.783817">
        <ele>1016.17932</ele>
        <time>2021-07-02T12:24:19Z</time>
      </trkpt>
      <trkpt lat="42.374424" lon="1.784061">
        <ele>1015.81262</ele>
        <time>2021-07-02T12:24:20Z</time>
      </trkpt>
      <trkpt lat="42.374306" lon="1.784288">
        <ele>1016.32776</ele>
        <time>2021-07-02T12:24:21Z</time>
      </trkpt>
      <trkpt lat="42.374176" lon="1.784537">
        <ele>1016.28284</ele>
        <time>2021-07-02T12:24:22Z</time>
      </trkpt>
      <trkpt lat="42.374050" lon="1.784774">
        <ele>1016.45142</ele>
        <time>2021-07-02T12:24:23Z</time>
      </trkpt>
      <trkpt lat="42.373947" lon="1.784992">
        <ele>1016.39490</ele>
        <time>2021-07-02T12:24:24Z</time>
      </trkpt>
      <trkpt lat="42.373856" lon="1.785252">
        <ele>1016.90405</ele>
        <time>2021-07-02T12:24:25Z</time>
      </trkpt>
      <trkpt lat="42.373775" lon="1.785546">
        <ele>1017.07532</ele>
        <time>2021-07-02T12:24:26Z</time>
      </trkpt>
      <trkpt lat="42.373714" lon="1.785847">
        <ele>1016.96619</ele>
        <time>2021-07-02T12:24:27Z</time>
      </trkpt>
      <trkpt lat="42.373684" lon="1.786150">
        <ele>1016.17688</ele>
        <time>2021-07-02T12:24:28Z</time>
      </trkpt>
      <trkpt lat="42.373661" lon="1.786442">
        <ele>1015.61340</ele>
        <time>2021-07-02T12:24:29Z</time>
      </trkpt>
      <trkpt lat="42.373657" lon="1.786752">
        <ele>1014.29822</ele>
        <time>2021-07-02T12:24:30Z</time>
      </trkpt>
      <trkpt lat="42.373646" lon="1.787063">
        <ele>1012.64575</ele>
        <time>2021-07-02T12:24:31Z</time>
      </trkpt>
      <trkpt lat="42.373631" lon="1.787353">
        <ele>1011.11816</ele>
        <time>2021-07-02T12:24:32Z</time>
      </trkpt>
      <trkpt lat="42.373611" lon="1.787617">
        <ele>1010.84497</ele>
        <time>2021-07-02T12:24:33Z</time>
      </trkpt>
      <trkpt lat="42.373577" lon="1.787894">
        <ele>1011.28491</ele>
        <time>2021-07-02T12:24:34Z</time>
      </trkpt>
      <trkpt lat="42.373520" lon="1.788165">
        <ele>1011.46692</ele>
        <time>2021-07-02T12:24:35Z</time>
      </trkpt>
      <trkpt lat="42.373455" lon="1.788446">
        <ele>1012.00183</ele>
        <time>2021-07-02T12:24:36Z</time>
      </trkpt>
      <trkpt lat="42.373367" lon="1.788752">
        <ele>1012.45923</ele>
        <time>2021-07-02T12:24:37Z</time>
      </trkpt>
      <trkpt lat="42.373238" lon="1.789108">
        <ele>1011.92053</ele>
        <time>2021-07-02T12:24:38Z</time>
      </trkpt>
      <trkpt lat="42.373104" lon="1.789406">
        <ele>1010.90027</ele>
        <time>2021-07-02T12:24:39Z</time>
      </trkpt>
      <trkpt lat="42.372959" lon="1.789685">
        <ele>1010.81470</ele>
        <time>2021-07-02T12:24:40Z</time>
      </trkpt>
      <trkpt lat="42.372826" lon="1.789997">
        <ele>1010.21301</ele>
        <time>2021-07-02T12:24:41Z</time>
      </trkpt>
      <trkpt lat="42.372669" lon="1.790394">
        <ele>1009.84326</ele>
        <time>2021-07-02T12:24:42Z</time>
      </trkpt>
      <trkpt lat="42.372513" lon="1.790789">
        <ele>1009.42969</ele>
        <time>2021-07-02T12:24:43Z</time>
      </trkpt>
      <trkpt lat="42.372349" lon="1.791214">
        <ele>1007.89685</ele>
        <time>2021-07-02T12:24:44Z</time>
      </trkpt>
      <trkpt lat="42.372211" lon="1.791574">
        <ele>1008.01453</ele>
        <time>2021-07-02T12:24:45Z</time>
      </trkpt>
      <trkpt lat="42.372211" lon="1.791574">
        <ele>1009.08386</ele>
        <time>2021-07-02T12:24:46Z</time>
      </trkpt>
      <trkpt lat="42.372074" lon="1.791944">
        <ele>1009.71765</ele>
        <time>2021-07-02T12:24:47Z</time>
      </trkpt>
      <trkpt lat="42.371941" lon="1.792338">
        <ele>1009.58704</ele>
        <time>2021-07-02T12:24:48Z</time>
      </trkpt>
      <trkpt lat="42.371815" lon="1.792750">
        <ele>1010.17944</ele>
        <time>2021-07-02T12:24:49Z</time>
      </trkpt>
      <trkpt lat="42.371693" lon="1.793168">
        <ele>1010.42957</ele>
        <time>2021-07-02T12:24:50Z</time>
      </trkpt>
      <trkpt lat="42.371582" lon="1.793587">
        <ele>1011.30640</ele>
        <time>2021-07-02T12:24:51Z</time>
      </trkpt>
      <trkpt lat="42.371471" lon="1.794000">
        <ele>1011.53479</ele>
        <time>2021-07-02T12:24:52Z</time>
      </trkpt>
      <trkpt lat="42.371361" lon="1.794421">
        <ele>1012.03992</ele>
        <time>2021-07-02T12:24:53Z</time>
      </trkpt>
      <trkpt lat="42.371250" lon="1.794836">
        <ele>1011.89551</ele>
        <time>2021-07-02T12:24:54Z</time>
      </trkpt>
      <trkpt lat="42.371151" lon="1.795213">
        <ele>1011.77258</ele>
        <time>2021-07-02T12:24:55Z</time>
      </trkpt>
      <trkpt lat="42.371052" lon="1.795587">
        <ele>1012.69055</ele>
        <time>2021-07-02T12:24:56Z</time>
      </trkpt>
      <trkpt lat="42.370960" lon="1.795934">
        <ele>1013.21716</ele>
        <time>2021-07-02T12:24:57Z</time>
      </trkpt>
      <trkpt lat="42.370876" lon="1.796265">
        <ele>1014.10693</ele>
        <time>2021-07-02T12:24:58Z</time>
      </trkpt>
      <trkpt lat="42.370792" lon="1.796594">
        <ele>1014.94678</ele>
        <time>2021-07-02T12:24:59Z</time>
      </trkpt>
      <trkpt lat="42.370708" lon="1.796916">
        <ele>1014.91528</ele>
        <time>2021-07-02T12:25:00Z</time>
      </trkpt>
      <trkpt lat="42.370628" lon="1.797228">
        <ele>1015.11865</ele>
        <time>2021-07-02T12:25:01Z</time>
      </trkpt>
      <trkpt lat="42.370544" lon="1.797502">
        <ele>1015.82239</ele>
        <time>2021-07-02T12:25:02Z</time>
      </trkpt>
      <trkpt lat="42.370476" lon="1.797753">
        <ele>1016.07751</ele>
        <time>2021-07-02T12:25:03Z</time>
      </trkpt>
      <trkpt lat="42.370415" lon="1.797992">
        <ele>1016.78894</ele>
        <time>2021-07-02T12:25:04Z</time>
      </trkpt>
      <trkpt lat="42.370346" lon="1.798224">
        <ele>1016.63733</ele>
        <time>2021-07-02T12:25:05Z</time>
      </trkpt>
      <trkpt lat="42.370274" lon="1.798461">
        <ele>1016.79919</ele>
        <time>2021-07-02T12:25:06Z</time>
      </trkpt>
      <trkpt lat="42.370209" lon="1.798671">
        <ele>1017.45654</ele>
        <time>2021-07-02T12:25:07Z</time>
      </trkpt>
      <trkpt lat="42.370155" lon="1.798857">
        <ele>1017.83594</ele>
        <time>2021-07-02T12:25:08Z</time>
      </trkpt>
      <trkpt lat="42.370098" lon="1.799001">
        <ele>1017.83081</ele>
        <time>2021-07-02T12:25:09Z</time>
      </trkpt>
      <trkpt lat="42.370045" lon="1.799130">
        <ele>1018.83179</ele>
        <time>2021-07-02T12:25:10Z</time>
      </trkpt>
      <trkpt lat="42.369968" lon="1.799241">
        <ele>1019.50903</ele>
        <time>2021-07-02T12:25:11Z</time>
      </trkpt>
      <trkpt lat="42.369873" lon="1.799378">
        <ele>1019.71716</ele>
        <time>2021-07-02T12:25:12Z</time>
      </trkpt>
      <trkpt lat="42.369846" lon="1.799472">
        <ele>1019.85083</ele>
        <time>2021-07-02T12:25:13Z</time>
      </trkpt>
      <trkpt lat="42.369846" lon="1.799472">
        <ele>1019.92151</ele>
        <time>2021-07-02T12:25:14Z</time>
      </trkpt>
      <trkpt lat="42.369801" lon="1.799543">
        <ele>1019.45752</ele>
        <time>2021-07-02T12:25:15Z</time>
      </trkpt>
      <trkpt lat="42.369446" lon="1.800032">
        <ele>1020.30396</ele>
        <time>2021-07-02T12:25:16Z</time>
      </trkpt>
      <trkpt lat="42.369289" lon="1.800206">
        <ele>1020.13171</ele>
        <time>2021-07-02T12:25:17Z</time>
      </trkpt>
      <trkpt lat="42.369110" lon="1.800375">
        <ele>1020.97852</ele>
        <time>2021-07-02T12:25:18Z</time>
      </trkpt>
      <trkpt lat="42.369110" lon="1.800375">
        <ele>1021.44312</ele>
        <time>2021-07-02T12:25:19Z</time>
      </trkpt>
      <trkpt lat="42.368912" lon="1.800511">
        <ele>1021.51721</ele>
        <time>2021-07-02T12:25:20Z</time>
      </trkpt>
      <trkpt lat="42.368675" lon="1.800603">
        <ele>1021.92297</ele>
        <time>2021-07-02T12:25:21Z</time>
      </trkpt>
      <trkpt lat="42.368423" lon="1.800683">
        <ele>1022.62622</ele>
        <time>2021-07-02T12:25:22Z</time>
      </trkpt>
      <trkpt lat="42.368153" lon="1.800754">
        <ele>1023.44141</ele>
        <time>2021-07-02T12:25:23Z</time>
      </trkpt>
      <trkpt lat="42.367889" lon="1.800821">
        <ele>1024.21277</ele>
        <time>2021-07-02T12:25:24Z</time>
      </trkpt>
      <trkpt lat="42.367622" lon="1.800889">
        <ele>1024.33557</ele>
        <time>2021-07-02T12:25:25Z</time>
      </trkpt>
      <trkpt lat="42.367359" lon="1.800958">
        <ele>1024.52356</ele>
        <time>2021-07-02T12:25:26Z</time>
      </trkpt>
      <trkpt lat="42.367081" lon="1.801030">
        <ele>1025.39795</ele>
        <time>2021-07-02T12:25:27Z</time>
      </trkpt>
      <trkpt lat="42.366791" lon="1.801104">
        <ele>1026.44739</ele>
        <time>2021-07-02T12:25:28Z</time>
      </trkpt>
      <trkpt lat="42.366508" lon="1.801176">
        <ele>1027.05933</ele>
        <time>2021-07-02T12:25:29Z</time>
      </trkpt>
      <trkpt lat="42.366238" lon="1.801245">
        <ele>1028.49683</ele>
        <time>2021-07-02T12:25:30Z</time>
      </trkpt>
      <trkpt lat="42.365963" lon="1.801315">
        <ele>1029.36987</ele>
        <time>2021-07-02T12:25:31Z</time>
      </trkpt>
      <trkpt lat="42.365696" lon="1.801357">
        <ele>1031.43176</ele>
        <time>2021-07-02T12:25:32Z</time>
      </trkpt>
      <trkpt lat="42.365433" lon="1.801459">
        <ele>1034.20703</ele>
        <time>2021-07-02T12:25:33Z</time>
      </trkpt>
      <trkpt lat="42.365200" lon="1.801575">
        <ele>1036.11414</ele>
        <time>2021-07-02T12:25:34Z</time>
      </trkpt>
      <trkpt lat="42.365200" lon="1.801575">
        <ele>1038.24072</ele>
        <time>2021-07-02T12:25:35Z</time>
      </trkpt>
      <trkpt lat="42.364655" lon="1.801965">
        <ele>1039.38672</ele>
        <time>2021-07-02T12:25:36Z</time>
      </trkpt>
      <trkpt lat="42.364422" lon="1.802182">
        <ele>1041.30750</ele>
        <time>2021-07-02T12:25:37Z</time>
      </trkpt>
      <trkpt lat="42.364193" lon="1.802418">
        <ele>1042.44763</ele>
        <time>2021-07-02T12:25:38Z</time>
      </trkpt>
      <trkpt lat="42.363976" lon="1.802667">
        <ele>1044.21899</ele>
        <time>2021-07-02T12:25:39Z</time>
      </trkpt>
      <trkpt lat="42.363750" lon="1.802954">
        <ele>1046.02991</ele>
        <time>2021-07-02T12:25:40Z</time>
      </trkpt>
      <trkpt lat="42.363571" lon="1.803221">
        <ele>1047.50964</ele>
        <time>2021-07-02T12:25:41Z</time>
      </trkpt>
      <trkpt lat="42.363441" lon="1.803528">
        <ele>1049.21680</ele>
        <time>2021-07-02T12:25:42Z</time>
      </trkpt>
      <trkpt lat="42.363300" lon="1.803828">
        <ele>1050.91748</ele>
        <time>2021-07-02T12:25:43Z</time>
      </trkpt>
      <trkpt lat="42.363174" lon="1.804149">
        <ele>1052.71387</ele>
        <time>2021-07-02T12:25:44Z</time>
      </trkpt>
      <trkpt lat="42.363075" lon="1.804486">
        <ele>1054.46680</ele>
        <time>2021-07-02T12:25:45Z</time>
      </trkpt>
      <trkpt lat="42.362991" lon="1.804843">
        <ele>1055.74561</ele>
        <time>2021-07-02T12:25:46Z</time>
      </trkpt>
      <trkpt lat="42.362926" lon="1.805212">
        <ele>1056.46265</ele>
        <time>2021-07-02T12:25:47Z</time>
      </trkpt>
      <trkpt lat="42.362896" lon="1.805601">
        <ele>1056.82922</ele>
        <time>2021-07-02T12:25:48Z</time>
      </trkpt>
      <trkpt lat="42.362865" lon="1.806007">
        <ele>1058.97290</ele>
        <time>2021-07-02T12:25:49Z</time>
      </trkpt>
      <trkpt lat="42.362843" lon="1.806376">
        <ele>1060.37976</ele>
        <time>2021-07-02T12:25:50Z</time>
      </trkpt>
      <trkpt lat="42.362846" lon="1.806762">
        <ele>1061.40747</ele>
        <time>2021-07-02T12:25:51Z</time>
      </trkpt>
      <trkpt lat="42.362865" lon="1.807126">
        <ele>1062.64832</ele>
        <time>2021-07-02T12:25:52Z</time>
      </trkpt>
      <trkpt lat="42.362896" lon="1.807505">
        <ele>1063.77148</ele>
        <time>2021-07-02T12:25:53Z</time>
      </trkpt>
      <trkpt lat="42.362934" lon="1.807836">
        <ele>1064.88452</ele>
        <time>2021-07-02T12:25:54Z</time>
      </trkpt>
      <trkpt lat="42.362934" lon="1.807836">
        <ele>1066.23779</ele>
        <time>2021-07-02T12:25:55Z</time>
      </trkpt>
      <trkpt lat="42.362972" lon="1.808136">
        <ele>1066.78589</ele>
        <time>2021-07-02T12:25:56Z</time>
      </trkpt>
      <trkpt lat="42.363022" lon="1.808441">
        <ele>1067.74097</ele>
        <time>2021-07-02T12:25:57Z</time>
      </trkpt>
      <trkpt lat="42.363060" lon="1.808748">
        <ele>1069.24475</ele>
        <time>2021-07-02T12:25:58Z</time>
      </trkpt>
      <trkpt lat="42.363110" lon="1.809082">
        <ele>1070.23401</ele>
        <time>2021-07-02T12:25:59Z</time>
      </trkpt>
      <trkpt lat="42.362988" lon="1.809228">
        <ele>1070.80090</ele>
        <time>2021-07-02T12:26:00Z</time>
      </trkpt>
      <trkpt lat="42.363163" lon="1.809705">
        <ele>1071.61926</ele>
        <time>2021-07-02T12:26:01Z</time>
      </trkpt>
      <trkpt lat="42.363182" lon="1.810018">
        <ele>1072.15381</ele>
        <time>2021-07-02T12:26:02Z</time>
      </trkpt>
      <trkpt lat="42.363197" lon="1.810325">
        <ele>1072.66919</ele>
        <time>2021-07-02T12:26:03Z</time>
      </trkpt>
      <trkpt lat="42.363209" lon="1.810608">
        <ele>1072.54565</ele>
        <time>2021-07-02T12:26:04Z</time>
      </trkpt>
      <trkpt lat="42.363224" lon="1.810894">
        <ele>1072.92017</ele>
        <time>2021-07-02T12:26:05Z</time>
      </trkpt>
      <trkpt lat="42.363235" lon="1.811193">
        <ele>1073.95251</ele>
        <time>2021-07-02T12:26:06Z</time>
      </trkpt>
      <trkpt lat="42.363251" lon="1.811478">
        <ele>1074.34729</ele>
        <time>2021-07-02T12:26:07Z</time>
      </trkpt>
      <trkpt lat="42.363258" lon="1.811778">
        <ele>1075.89026</ele>
        <time>2021-07-02T12:26:08Z</time>
      </trkpt>
      <trkpt lat="42.363262" lon="1.812052">
        <ele>1076.98840</ele>
        <time>2021-07-02T12:26:09Z</time>
      </trkpt>
      <trkpt lat="42.363255" lon="1.812286">
        <ele>1078.08533</ele>
        <time>2021-07-02T12:26:10Z</time>
      </trkpt>
      <trkpt lat="42.363239" lon="1.812496">
        <ele>1079.33057</ele>
        <time>2021-07-02T12:26:11Z</time>
      </trkpt>
      <trkpt lat="42.362988" lon="1.812663">
        <ele>1080.14514</ele>
        <time>2021-07-02T12:26:12Z</time>
      </trkpt>
      <trkpt lat="42.362885" lon="1.812876">
        <ele>1081.04028</ele>
        <time>2021-07-02T12:26:13Z</time>
      </trkpt>
      <trkpt lat="42.362743" lon="1.813035">
        <ele>1082.94666</ele>
        <time>2021-07-02T12:26:14Z</time>
      </trkpt>
      <trkpt lat="42.362568" lon="1.813179">
        <ele>1084.84985</ele>
        <time>2021-07-02T12:26:15Z</time>
      </trkpt>
      <trkpt lat="42.362385" lon="1.813246">
        <ele>1086.90002</ele>
        <time>2021-07-02T12:26:16Z</time>
      </trkpt>
      <trkpt lat="42.362194" lon="1.813274">
        <ele>1089.12939</ele>
        <time>2021-07-02T12:26:17Z</time>
      </trkpt>
      <trkpt lat="42.361977" lon="1.813256">
        <ele>1090.49255</ele>
        <time>2021-07-02T12:26:18Z</time>
      </trkpt>
      <trkpt lat="42.361759" lon="1.813225">
        <ele>1092.92957</ele>
        <time>2021-07-02T12:26:19Z</time>
      </trkpt>
      <trkpt lat="42.361542" lon="1.813195">
        <ele>1094.54077</ele>
        <time>2021-07-02T12:26:20Z</time>
      </trkpt>
      <trkpt lat="42.361309" lon="1.813168">
        <ele>1096.61011</ele>
        <time>2021-07-02T12:26:21Z</time>
      </trkpt>
      <trkpt lat="42.361103" lon="1.813172">
        <ele>1098.41272</ele>
        <time>2021-07-02T12:26:22Z</time>
      </trkpt>
      <trkpt lat="42.360867" lon="1.813214">
        <ele>1100.59204</ele>
        <time>2021-07-02T12:26:23Z</time>
      </trkpt>
      <trkpt lat="42.360630" lon="1.813266">
        <ele>1100.93591</ele>
        <time>2021-07-02T12:26:24Z</time>
      </trkpt>
      <trkpt lat="42.360390" lon="1.813390">
        <ele>1102.63074</ele>
        <time>2021-07-02T12:26:25Z</time>
      </trkpt>
      <trkpt lat="42.360390" lon="1.813390">
        <ele>1104.14209</ele>
        <time>2021-07-02T12:26:26Z</time>
      </trkpt>
      <trkpt lat="42.360172" lon="1.813533">
        <ele>1106.17761</ele>
        <time>2021-07-02T12:26:27Z</time>
      </trkpt>
      <trkpt lat="42.359966" lon="1.813649">
        <ele>1108.41919</ele>
        <time>2021-07-02T12:26:28Z</time>
      </trkpt>
      <trkpt lat="42.359737" lon="1.813826">
        <ele>1110.32312</ele>
        <time>2021-07-02T12:26:29Z</time>
      </trkpt>
      <trkpt lat="42.359528" lon="1.814016">
        <ele>1112.05945</ele>
        <time>2021-07-02T12:26:30Z</time>
      </trkpt>
      <trkpt lat="42.359337" lon="1.814208">
        <ele>1113.32117</ele>
        <time>2021-07-02T12:26:31Z</time>
      </trkpt>
      <trkpt lat="42.359154" lon="1.814388">
        <ele>1115.08240</ele>
        <time>2021-07-02T12:26:32Z</time>
      </trkpt>
      <trkpt lat="42.358978" lon="1.814552">
        <ele>1116.91663</ele>
        <time>2021-07-02T12:26:33Z</time>
      </trkpt>
      <trkpt lat="42.358795" lon="1.814721">
        <ele>1118.56091</ele>
        <time>2021-07-02T12:26:34Z</time>
      </trkpt>
      <trkpt lat="42.358601" lon="1.814867">
        <ele>1120.54675</ele>
        <time>2021-07-02T12:26:35Z</time>
      </trkpt>
      <trkpt lat="42.358395" lon="1.814996">
        <ele>1121.97900</ele>
        <time>2021-07-02T12:26:36Z</time>
      </trkpt>
      <trkpt lat="42.358158" lon="1.815109">
        <ele>1123.65955</ele>
        <time>2021-07-02T12:26:37Z</time>
      </trkpt>
      <trkpt lat="42.357937" lon="1.815184">
        <ele>1125.31311</ele>
        <time>2021-07-02T12:26:38Z</time>
      </trkpt>
      <trkpt lat="42.357697" lon="1.815239">
        <ele>1126.43555</ele>
        <time>2021-07-02T12:26:39Z</time>
      </trkpt>
      <trkpt lat="42.357437" lon="1.815261">
        <ele>1128.00305</ele>
        <time>2021-07-02T12:26:40Z</time>
      </trkpt>
      <trkpt lat="42.357193" lon="1.815260">
        <ele>1129.67944</ele>
        <time>2021-07-02T12:26:41Z</time>
      </trkpt>
      <trkpt lat="42.356953" lon="1.815219">
        <ele>1131.83521</ele>
        <time>2021-07-02T12:26:42Z</time>
      </trkpt>
      <trkpt lat="42.356705" lon="1.815145">
        <ele>1133.18408</ele>
        <time>2021-07-02T12:26:43Z</time>
      </trkpt>
      <trkpt lat="42.356464" lon="1.815048">
        <ele>1135.76562</ele>
        <time>2021-07-02T12:26:44Z</time>
      </trkpt>
      <trkpt lat="42.356236" lon="1.814928">
        <ele>1138.37964</ele>
        <time>2021-07-02T12:26:45Z</time>
      </trkpt>
      <trkpt lat="42.355999" lon="1.814763">
        <ele>1139.83569</ele>
        <time>2021-07-02T12:26:46Z</time>
      </trkpt>
      <trkpt lat="42.355789" lon="1.814585">
        <ele>1140.66113</ele>
        <time>2021-07-02T12:26:47Z</time>
      </trkpt>
      <trkpt lat="42.355572" lon="1.814392">
        <ele>1141.94763</ele>
        <time>2021-07-02T12:26:48Z</time>
      </trkpt>
      <trkpt lat="42.355350" lon="1.814183">
        <ele>1143.09326</ele>
        <time>2021-07-02T12:26:49Z</time>
      </trkpt>
      <trkpt lat="42.355148" lon="1.813995">
        <ele>1144.76416</ele>
        <time>2021-07-02T12:26:50Z</time>
      </trkpt>
      <trkpt lat="42.354939" lon="1.813834">
        <ele>1146.85803</ele>
        <time>2021-07-02T12:26:51Z</time>
      </trkpt>
      <trkpt lat="42.354710" lon="1.813695">
        <ele>1148.90686</ele>
        <time>2021-07-02T12:26:52Z</time>
      </trkpt>
      <trkpt lat="42.354446" lon="1.813566">
        <ele>1149.96423</ele>
        <time>2021-07-02T12:26:53Z</time>
      </trkpt>
      <trkpt lat="42.354195" lon="1.813484">
        <ele>1150.94641</ele>
        <time>2021-07-02T12:26:54Z</time>
      </trkpt>
      <trkpt lat="42.353931" lon="1.813435">
        <ele>1150.93298</ele>
        <time>2021-07-02T12:26:55Z</time>
      </trkpt>
      <trkpt lat="42.353668" lon="1.813416">
        <ele>1151.24768</ele>
        <time>2021-07-02T12:26:56Z</time>
      </trkpt>
      <trkpt lat="42.353405" lon="1.813436">
        <ele>1151.65125</ele>
        <time>2021-07-02T12:26:57Z</time>
      </trkpt>
      <trkpt lat="42.353405" lon="1.813436">
        <ele>1153.76746</ele>
        <time>2021-07-02T12:26:58Z</time>
      </trkpt>
      <trkpt lat="42.353119" lon="1.813485">
        <ele>1154.85034</ele>
        <time>2021-07-02T12:26:59Z</time>
      </trkpt>
      <trkpt lat="42.352840" lon="1.813547">
        <ele>1155.40979</ele>
        <time>2021-07-02T12:27:00Z</time>
      </trkpt>
      <trkpt lat="42.352551" lon="1.813633">
        <ele>1155.31360</ele>
        <time>2021-07-02T12:27:01Z</time>
      </trkpt>
      <trkpt lat="42.352287" lon="1.813728">
        <ele>1157.15784</ele>
        <time>2021-07-02T12:27:02Z</time>
      </trkpt>
      <trkpt lat="42.352016" lon="1.813843">
        <ele>1157.49927</ele>
        <time>2021-07-02T12:27:03Z</time>
      </trkpt>
      <trkpt lat="42.351757" lon="1.813962">
        <ele>1158.41333</ele>
        <time>2021-07-02T12:27:04Z</time>
      </trkpt>
      <trkpt lat="42.351501" lon="1.814106">
        <ele>1159.08057</ele>
        <time>2021-07-02T12:27:05Z</time>
      </trkpt>
      <trkpt lat="42.351250" lon="1.814253">
        <ele>1159.50195</ele>
        <time>2021-07-02T12:27:06Z</time>
      </trkpt>
      <trkpt lat="42.350998" lon="1.814434">
        <ele>1160.58508</ele>
        <time>2021-07-02T12:27:07Z</time>
      </trkpt>
      <trkpt lat="42.350746" lon="1.814616">
        <ele>1161.40735</ele>
        <time>2021-07-02T12:27:08Z</time>
      </trkpt>
      <trkpt lat="42.350506" lon="1.814819">
        <ele>1161.67090</ele>
        <time>2021-07-02T12:27:09Z</time>
      </trkpt>
      <trkpt lat="42.350281" lon="1.815029">
        <ele>1162.84448</ele>
        <time>2021-07-02T12:27:10Z</time>
      </trkpt>
      <trkpt lat="42.350067" lon="1.815238">
        <ele>1163.80750</ele>
        <time>2021-07-02T12:27:11Z</time>
      </trkpt>
      <trkpt lat="42.349850" lon="1.815467">
        <ele>1164.19751</ele>
        <time>2021-07-02T12:27:12Z</time>
      </trkpt>
      <trkpt lat="42.349648" lon="1.815704">
        <ele>1165.29480</ele>
        <time>2021-07-02T12:27:13Z</time>
      </trkpt>
      <trkpt lat="42.349449" lon="1.815953">
        <ele>1166.31067</ele>
        <time>2021-07-02T12:27:14Z</time>
      </trkpt>
      <trkpt lat="42.349258" lon="1.816217">
        <ele>1167.20288</ele>
        <time>2021-07-02T12:27:15Z</time>
      </trkpt>
      <trkpt lat="42.349079" lon="1.816479">
        <ele>1168.02563</ele>
        <time>2021-07-02T12:27:16Z</time>
      </trkpt>
      <trkpt lat="42.348904" lon="1.816757">
        <ele>1169.66113</ele>
        <time>2021-07-02T12:27:17Z</time>
      </trkpt>
      <trkpt lat="42.348736" lon="1.817052">
        <ele>1170.49500</ele>
        <time>2021-07-02T12:27:18Z</time>
      </trkpt>
      <trkpt lat="42.348579" lon="1.817344">
        <ele>1171.81641</ele>
        <time>2021-07-02T12:27:19Z</time>
      </trkpt>
      <trkpt lat="42.348423" lon="1.817643">
        <ele>1173.23303</ele>
        <time>2021-07-02T12:27:20Z</time>
      </trkpt>
      <trkpt lat="42.348282" lon="1.817956">
        <ele>1174.60156</ele>
        <time>2021-07-02T12:27:21Z</time>
      </trkpt>
      <trkpt lat="42.348145" lon="1.818290">
        <ele>1175.57678</ele>
        <time>2021-07-02T12:27:22Z</time>
      </trkpt>
      <trkpt lat="42.348022" lon="1.818611">
        <ele>1176.23291</ele>
        <time>2021-07-02T12:27:23Z</time>
      </trkpt>
      <trkpt lat="42.347912" lon="1.818953">
        <ele>1177.27710</ele>
        <time>2021-07-02T12:27:24Z</time>
      </trkpt>
      <trkpt lat="42.347801" lon="1.819296">
        <ele>1178.63428</ele>
        <time>2021-07-02T12:27:25Z</time>
      </trkpt>
      <trkpt lat="42.347710" lon="1.819627">
        <ele>1179.33069</ele>
        <time>2021-07-02T12:27:26Z</time>
      </trkpt>
      <trkpt lat="42.347626" lon="1.819974">
        <ele>1180.68384</ele>
        <time>2021-07-02T12:27:27Z</time>
      </trkpt>
      <trkpt lat="42.347538" lon="1.820333">
        <ele>1181.92029</ele>
        <time>2021-07-02T12:27:28Z</time>
      </trkpt>
      <trkpt lat="42.347469" lon="1.820691">
        <ele>1182.85681</ele>
        <time>2021-07-02T12:27:29Z</time>
      </trkpt>
      <trkpt lat="42.347401" lon="1.821065">
        <ele>1184.22546</ele>
        <time>2021-07-02T12:27:30Z</time>
      </trkpt>
      <trkpt lat="42.347351" lon="1.821424">
        <ele>1185.35681</ele>
        <time>2021-07-02T12:27:31Z</time>
      </trkpt>
      <trkpt lat="42.347298" lon="1.821801">
        <ele>1185.83838</ele>
        <time>2021-07-02T12:27:32Z</time>
      </trkpt>
      <trkpt lat="42.347256" lon="1.822172">
        <ele>1187.37671</ele>
        <time>2021-07-02T12:27:33Z</time>
      </trkpt>
      <trkpt lat="42.347256" lon="1.822172">
        <ele>1187.41638</ele>
        <time>2021-07-02T12:27:34Z</time>
      </trkpt>
      <trkpt lat="42.347225" lon="1.822544">
        <ele>1187.91016</ele>
        <time>2021-07-02T12:27:35Z</time>
      </trkpt>
      <trkpt lat="42.347218" lon="1.822912">
        <ele>1189.34656</ele>
        <time>2021-07-02T12:27:36Z</time>
      </trkpt>
      <trkpt lat="42.347229" lon="1.823306">
        <ele>1190.31335</ele>
        <time>2021-07-02T12:27:37Z</time>
      </trkpt>
      <trkpt lat="42.347267" lon="1.823676">
        <ele>1190.87341</ele>
        <time>2021-07-02T12:27:38Z</time>
      </trkpt>
      <trkpt lat="42.347336" lon="1.824036">
        <ele>1192.01575</ele>
        <time>2021-07-02T12:27:39Z</time>
      </trkpt>
      <trkpt lat="42.347424" lon="1.824404">
        <ele>1192.20349</ele>
        <time>2021-07-02T12:27:40Z</time>
      </trkpt>
      <trkpt lat="42.347549" lon="1.824756">
        <ele>1193.01782</ele>
        <time>2021-07-02T12:27:41Z</time>
      </trkpt>
      <trkpt lat="42.347698" lon="1.825073">
        <ele>1193.35315</ele>
        <time>2021-07-02T12:27:42Z</time>
      </trkpt>
      <trkpt lat="42.347878" lon="1.825386">
        <ele>1193.02454</ele>
        <time>2021-07-02T12:27:43Z</time>
      </trkpt>
      <trkpt lat="42.348072" lon="1.825672">
        <ele>1192.99719</ele>
        <time>2021-07-02T12:27:44Z</time>
      </trkpt>
      <trkpt lat="42.348278" lon="1.825972">
        <ele>1193.57922</ele>
        <time>2021-07-02T12:27:45Z</time>
      </trkpt>
      <trkpt lat="42.348473" lon="1.826256">
        <ele>1194.03650</ele>
        <time>2021-07-02T12:27:46Z</time>
      </trkpt>
      <trkpt lat="42.348656" lon="1.826553">
        <ele>1194.76172</ele>
        <time>2021-07-02T12:27:47Z</time>
      </trkpt>
      <trkpt lat="42.348820" lon="1.826868">
        <ele>1195.33875</ele>
        <time>2021-07-02T12:27:48Z</time>
      </trkpt>
      <trkpt lat="42.348961" lon="1.827198">
        <ele>1196.23486</ele>
        <time>2021-07-02T12:27:49Z</time>
      </trkpt>
      <trkpt lat="42.349079" lon="1.827558">
        <ele>1197.12415</ele>
        <time>2021-07-02T12:27:50Z</time>
      </trkpt>
      <trkpt lat="42.349174" lon="1.827924">
        <ele>1197.24072</ele>
        <time>2021-07-02T12:27:51Z</time>
      </trkpt>
      <trkpt lat="42.349243" lon="1.828294">
        <ele>1196.93713</ele>
        <time>2021-07-02T12:27:52Z</time>
      </trkpt>
      <trkpt lat="42.349293" lon="1.828688">
        <ele>1197.90710</ele>
        <time>2021-07-02T12:27:53Z</time>
      </trkpt>
      <trkpt lat="42.349304" lon="1.829081">
        <ele>1198.17285</ele>
        <time>2021-07-02T12:27:54Z</time>
      </trkpt>
      <trkpt lat="42.349293" lon="1.829445">
        <ele>1198.64758</ele>
        <time>2021-07-02T12:27:55Z</time>
      </trkpt>
      <trkpt lat="42.349255" lon="1.829834">
        <ele>1199.53491</ele>
        <time>2021-07-02T12:27:56Z</time>
      </trkpt>
      <trkpt lat="42.349190" lon="1.830197">
        <ele>1201.21301</ele>
        <time>2021-07-02T12:27:57Z</time>
      </trkpt>
      <trkpt lat="42.349113" lon="1.830543">
        <ele>1202.09595</ele>
        <time>2021-07-02T12:27:58Z</time>
      </trkpt>
      <trkpt lat="42.349010" lon="1.830876">
        <ele>1202.86914</ele>
        <time>2021-07-02T12:27:59Z</time>
      </trkpt>
      <trkpt lat="42.348869" lon="1.831171">
        <ele>1204.08496</ele>
        <time>2021-07-02T12:28:00Z</time>
      </trkpt>
      <trkpt lat="42.348724" lon="1.831480">
        <ele>1205.22754</ele>
        <time>2021-07-02T12:28:01Z</time>
      </trkpt>
      <trkpt lat="42.348564" lon="1.831778">
        <ele>1206.59277</ele>
        <time>2021-07-02T12:28:02Z</time>
      </trkpt>
      <trkpt lat="42.348408" lon="1.832020">
        <ele>1208.04504</ele>
        <time>2021-07-02T12:28:03Z</time>
      </trkpt>
      <trkpt lat="42.348240" lon="1.832234">
        <ele>1208.81360</ele>
        <time>2021-07-02T12:28:04Z</time>
      </trkpt>
      <trkpt lat="42.348057" lon="1.832445">
        <ele>1210.47571</ele>
        <time>2021-07-02T12:28:05Z</time>
      </trkpt>
      <trkpt lat="42.348057" lon="1.832445">
        <ele>1211.93237</ele>
        <time>2021-07-02T12:28:06Z</time>
      </trkpt>
      <trkpt lat="42.347866" lon="1.832621">
        <ele>1212.77332</ele>
        <time>2021-07-02T12:28:07Z</time>
      </trkpt>
      <trkpt lat="42.347660" lon="1.832783">
        <ele>1214.54578</ele>
        <time>2021-07-02T12:28:08Z</time>
      </trkpt>
      <trkpt lat="42.347584" lon="1.832841">
        <ele>1216.05420</ele>
        <time>2021-07-02T12:28:09Z</time>
      </trkpt>
      <trkpt lat="42.347446" lon="1.832839">
        <ele>1217.68945</ele>
        <time>2021-07-02T12:28:10Z</time>
      </trkpt>
      <trkpt lat="42.346951" lon="1.833173">
        <ele>1218.79932</ele>
        <time>2021-07-02T12:28:11Z</time>
      </trkpt>
      <trkpt lat="42.346710" lon="1.833245">
        <ele>1220.17188</ele>
        <time>2021-07-02T12:28:12Z</time>
      </trkpt>
      <trkpt lat="42.346451" lon="1.833288">
        <ele>1221.66394</ele>
        <time>2021-07-02T12:28:13Z</time>
      </trkpt>
      <trkpt lat="42.346203" lon="1.833309">
        <ele>1222.52295</ele>
        <time>2021-07-02T12:28:14Z</time>
      </trkpt>
      <trkpt lat="42.345947" lon="1.833300">
        <ele>1223.88843</ele>
        <time>2021-07-02T12:28:15Z</time>
      </trkpt>
      <trkpt lat="42.345692" lon="1.833266">
        <ele>1223.77856</ele>
        <time>2021-07-02T12:28:16Z</time>
      </trkpt>
      <trkpt lat="42.345444" lon="1.833191">
        <ele>1224.71973</ele>
        <time>2021-07-02T12:28:17Z</time>
      </trkpt>
      <trkpt lat="42.345192" lon="1.833089">
        <ele>1225.74829</ele>
        <time>2021-07-02T12:28:18Z</time>
      </trkpt>
      <trkpt lat="42.344940" lon="1.832971">
        <ele>1225.87866</ele>
        <time>2021-07-02T12:28:19Z</time>
      </trkpt>
      <trkpt lat="42.344685" lon="1.832838">
        <ele>1226.78320</ele>
        <time>2021-07-02T12:28:20Z</time>
      </trkpt>
      <trkpt lat="42.344429" lon="1.832705">
        <ele>1227.15576</ele>
        <time>2021-07-02T12:28:21Z</time>
      </trkpt>
      <trkpt lat="42.344200" lon="1.832594">
        <ele>1226.24988</ele>
        <time>2021-07-02T12:28:22Z</time>
      </trkpt>
      <trkpt lat="42.343960" lon="1.832513">
        <ele>1226.32007</ele>
        <time>2021-07-02T12:28:23Z</time>
      </trkpt>
      <trkpt lat="42.343700" lon="1.832470">
        <ele>1227.14978</ele>
        <time>2021-07-02T12:28:24Z</time>
      </trkpt>
      <trkpt lat="42.343437" lon="1.832476">
        <ele>1226.92285</ele>
        <time>2021-07-02T12:28:25Z</time>
      </trkpt>
      <trkpt lat="42.343170" lon="1.832520">
        <ele>1226.53809</ele>
        <time>2021-07-02T12:28:26Z</time>
      </trkpt>
      <trkpt lat="42.342915" lon="1.832611">
        <ele>1225.62305</ele>
        <time>2021-07-02T12:28:27Z</time>
      </trkpt>
      <trkpt lat="42.342678" lon="1.832754">
        <ele>1225.98376</ele>
        <time>2021-07-02T12:28:28Z</time>
      </trkpt>
      <trkpt lat="42.342449" lon="1.832936">
        <ele>1226.37610</ele>
        <time>2021-07-02T12:28:29Z</time>
      </trkpt>
      <trkpt lat="42.342236" lon="1.833153">
        <ele>1225.35242</ele>
        <time>2021-07-02T12:28:30Z</time>
      </trkpt>
      <trkpt lat="42.342064" lon="1.833390">
        <ele>1225.18274</ele>
        <time>2021-07-02T12:28:31Z</time>
      </trkpt>
      <trkpt lat="42.341919" lon="1.833665">
        <ele>1224.25806</ele>
        <time>2021-07-02T12:28:32Z</time>
      </trkpt>
      <trkpt lat="42.341785" lon="1.833981">
        <ele>1224.15955</ele>
        <time>2021-07-02T12:28:33Z</time>
      </trkpt>
      <trkpt lat="42.341686" lon="1.834285">
        <ele>1223.26001</ele>
        <time>2021-07-02T12:28:34Z</time>
      </trkpt>
      <trkpt lat="42.341625" lon="1.834585">
        <ele>1222.64441</ele>
        <time>2021-07-02T12:28:35Z</time>
      </trkpt>
      <trkpt lat="42.341572" lon="1.834860">
        <ele>1221.37659</ele>
        <time>2021-07-02T12:28:36Z</time>
      </trkpt>
      <trkpt lat="42.341515" lon="1.835132">
        <ele>1220.38684</ele>
        <time>2021-07-02T12:28:37Z</time>
      </trkpt>
      <trkpt lat="42.341515" lon="1.835132">
        <ele>1219.77173</ele>
        <time>2021-07-02T12:28:38Z</time>
      </trkpt>
      <trkpt lat="42.341469" lon="1.835373">
        <ele>1219.32275</ele>
        <time>2021-07-02T12:28:39Z</time>
      </trkpt>
      <trkpt lat="42.341423" lon="1.835604">
        <ele>1218.88281</ele>
        <time>2021-07-02T12:28:40Z</time>
      </trkpt>
      <trkpt lat="42.341377" lon="1.835826">
        <ele>1218.18677</ele>
        <time>2021-07-02T12:28:41Z</time>
      </trkpt>
      <trkpt lat="42.341328" lon="1.836054">
        <ele>1217.45154</ele>
        <time>2021-07-02T12:28:42Z</time>
      </trkpt>
      <trkpt lat="42.341282" lon="1.836261">
        <ele>1216.58850</ele>
        <time>2021-07-02T12:28:43Z</time>
      </trkpt>
      <trkpt lat="42.341232" lon="1.836464">
        <ele>1216.15649</ele>
        <time>2021-07-02T12:28:44Z</time>
      </trkpt>
      <trkpt lat="42.341187" lon="1.836659">
        <ele>1214.97876</ele>
        <time>2021-07-02T12:28:45Z</time>
      </trkpt>
      <trkpt lat="42.341133" lon="1.836840">
        <ele>1213.87280</ele>
        <time>2021-07-02T12:28:46Z</time>
      </trkpt>
      <trkpt lat="42.341080" lon="1.837019">
        <ele>1213.56079</ele>
        <time>2021-07-02T12:28:47Z</time>
      </trkpt>
      <trkpt lat="42.341022" lon="1.837195">
        <ele>1212.67297</ele>
        <time>2021-07-02T12:28:48Z</time>
      </trkpt>
      <trkpt lat="42.340965" lon="1.837367">
        <ele>1211.69214</ele>
        <time>2021-07-02T12:28:49Z</time>
      </trkpt>
      <trkpt lat="42.340908" lon="1.837538">
        <ele>1210.47839</ele>
        <time>2021-07-02T12:28:50Z</time>
      </trkpt>
      <trkpt lat="42.340855" lon="1.837700">
        <ele>1209.94556</ele>
        <time>2021-07-02T12:28:51Z</time>
      </trkpt>
      <trkpt lat="42.340797" lon="1.837861">
        <ele>1209.41199</ele>
        <time>2021-07-02T12:28:52Z</time>
      </trkpt>
      <trkpt lat="42.340740" lon="1.838016">
        <ele>1209.43958</ele>
        <time>2021-07-02T12:28:53Z</time>
      </trkpt>
      <trkpt lat="42.340683" lon="1.838158">
        <ele>1209.49023</ele>
        <time>2021-07-02T12:28:54Z</time>
      </trkpt>
      <trkpt lat="42.340618" lon="1.838292">
        <ele>1209.03662</ele>
        <time>2021-07-02T12:28:55Z</time>
      </trkpt>
      <trkpt lat="42.340553" lon="1.838420">
        <ele>1209.50012</ele>
        <time>2021-07-02T12:28:56Z</time>
      </trkpt>
      <trkpt lat="42.340485" lon="1.838543">
        <ele>1209.14172</ele>
        <time>2021-07-02T12:28:57Z</time>
      </trkpt>
      <trkpt lat="42.340420" lon="1.838656">
        <ele>1209.21655</ele>
        <time>2021-07-02T12:28:58Z</time>
      </trkpt>
      <trkpt lat="42.340359" lon="1.838751">
        <ele>1208.95911</ele>
        <time>2021-07-02T12:28:59Z</time>
      </trkpt>
      <trkpt lat="42.340305" lon="1.838840">
        <ele>1208.72510</ele>
        <time>2021-07-02T12:29:00Z</time>
      </trkpt>
      <trkpt lat="42.340263" lon="1.838900">
        <ele>1207.64038</ele>
        <time>2021-07-02T12:29:01Z</time>
      </trkpt>
      <trkpt lat="42.340214" lon="1.838971">
        <ele>1208.08508</ele>
        <time>2021-07-02T12:29:02Z</time>
      </trkpt>
      <trkpt lat="42.340179" lon="1.839019">
        <ele>1208.51721</ele>
        <time>2021-07-02T12:29:03Z</time>
      </trkpt>
      <trkpt lat="42.340134" lon="1.839082">
        <ele>1208.10510</ele>
        <time>2021-07-02T12:29:04Z</time>
      </trkpt>
      <trkpt lat="42.340134" lon="1.839082">
        <ele>1207.43164</ele>
        <time>2021-07-02T12:29:05Z</time>
      </trkpt>
      <trkpt lat="42.340107" lon="1.839119">
        <ele>1207.21289</ele>
        <time>2021-07-02T12:29:06Z</time>
      </trkpt>
      <trkpt lat="42.340103" lon="1.839125">
        <ele>1207.12012</ele>
        <time>2021-07-02T12:29:07Z</time>
      </trkpt>
      <trkpt lat="42.340073" lon="1.839167">
        <ele>1207.18555</ele>
        <time>2021-07-02T12:29:08Z</time>
      </trkpt>
      <trkpt lat="42.340054" lon="1.839190">
        <ele>1205.12915</ele>
        <time>2021-07-02T12:29:09Z</time>
      </trkpt>
      <trkpt lat="42.340054" lon="1.839190">
        <ele>1205.24463</ele>
        <time>2021-07-02T12:29:10Z</time>
      </trkpt>
      <trkpt lat="42.340054" lon="1.839190">
        <ele>1205.40356</ele>
        <time>2021-07-02T12:29:11Z</time>
      </trkpt>
      <trkpt lat="42.340054" lon="1.839190">
        <ele>1207.62830</ele>
        <time>2021-07-02T12:29:12Z</time>
      </trkpt>
      <trkpt lat="42.340054" lon="1.839190">
        <ele>1207.94861</ele>
        <time>2021-07-02T12:29:13Z</time>
      </trkpt>
      <trkpt lat="42.340054" lon="1.839190">
        <ele>1207.77136</ele>
        <time>2021-07-02T12:29:14Z</time>
      </trkpt>
      <trkpt lat="42.340054" lon="1.839190">
        <ele>1206.50403</ele>
        <time>2021-07-02T12:29:15Z</time>
      </trkpt>
      <trkpt lat="42.340054" lon="1.839190">
        <ele>1206.15771</ele>
        <time>2021-07-02T12:29:16Z</time>
      </trkpt>
      <trkpt lat="42.340054" lon="1.839190">
        <ele>1206.31592</ele>
        <time>2021-07-02T12:29:17Z</time>
      </trkpt>
      <trkpt lat="42.340054" lon="1.839190">
        <ele>1206.38977</ele>
        <time>2021-07-02T12:29:18Z</time>
      </trkpt>
      <trkpt lat="42.340054" lon="1.839190">
        <ele>1201.76453</ele>
        <time>2021-07-02T12:29:19Z</time>
      </trkpt>
      <trkpt lat="42.340054" lon="1.839190">
        <ele>1202.20215</ele>
        <time>2021-07-02T12:29:20Z</time>
      </trkpt>
      <trkpt lat="42.340054" lon="1.839190">
        <ele>1202.78149</ele>
        <time>2021-07-02T12:29:21Z</time>
      </trkpt>
      <trkpt lat="42.340054" lon="1.839190">
        <ele>1201.32458</ele>
        <time>2021-07-02T12:29:22Z</time>
      </trkpt>
      <trkpt lat="42.340054" lon="1.839190">
        <ele>1201.23840</ele>
        <time>2021-07-02T12:29:23Z</time>
      </trkpt>
      <trkpt lat="42.340054" lon="1.839190">
        <ele>1201.34302</ele>
        <time>2021-07-02T12:29:24Z</time>
      </trkpt>
      <trkpt lat="42.340054" lon="1.839190">
        <ele>1200.89062</ele>
        <time>2021-07-02T12:29:25Z</time>
      </trkpt>
      <trkpt lat="42.340054" lon="1.839190">
        <ele>1196.33130</ele>
        <time>2021-07-02T12:29:26Z</time>
      </trkpt>
      <trkpt lat="42.340054" lon="1.839190">
        <ele>1202.89209</ele>
        <time>2021-07-02T12:29:27Z</time>
      </trkpt>
      <trkpt lat="42.340054" lon="1.839190">
        <ele>1203.46765</ele>
        <time>2021-07-02T12:29:28Z</time>
      </trkpt>
      <trkpt lat="42.340054" lon="1.839190">
        <ele>1203.61792</ele>
        <time>2021-07-02T12:29:29Z</time>
      </trkpt>
      <trkpt lat="42.340054" lon="1.839190">
        <ele>1203.66968</ele>
        <time>2021-07-02T12:29:30Z</time>
      </trkpt>
      <trkpt lat="42.340054" lon="1.839190">
        <ele>1203.55249</ele>
        <time>2021-07-02T12:29:31Z</time>
      </trkpt>
      <trkpt lat="42.340054" lon="1.839190">
        <ele>1203.66345</ele>
        <time>2021-07-02T12:29:32Z</time>
      </trkpt>
      <trkpt lat="42.340054" lon="1.839190">
        <ele>1203.55493</ele>
        <time>2021-07-02T12:29:33Z</time>
      </trkpt>
      <trkpt lat="42.340054" lon="1.839190">
        <ele>1203.58167</ele>
        <time>2021-07-02T12:29:34Z</time>
      </trkpt>
      <trkpt lat="42.340054" lon="1.839190">
        <ele>1203.58313</ele>
        <time>2021-07-02T12:29:35Z</time>
      </trkpt>
      <trkpt lat="42.340054" lon="1.839190">
        <ele>1203.50476</ele>
        <time>2021-07-02T12:29:36Z</time>
      </trkpt>
      <trkpt lat="42.340054" lon="1.839190">
        <ele>1203.41516</ele>
        <time>2021-07-02T12:29:37Z</time>
      </trkpt>
      <trkpt lat="42.340054" lon="1.839190">
        <ele>1203.46497</ele>
        <time>2021-07-02T12:29:38Z</time>
      </trkpt>
      <trkpt lat="42.340054" lon="1.839190">
        <ele>1203.38867</ele>
        <time>2021-07-02T12:29:39Z</time>
      </trkpt>
      <trkpt lat="42.340054" lon="1.839190">
        <ele>1203.38342</ele>
        <time>2021-07-02T12:29:40Z</time>
      </trkpt>
      <trkpt lat="42.340054" lon="1.839190">
        <ele>1203.38611</ele>
        <time>2021-07-02T12:29:41Z</time>
      </trkpt>
      <trkpt lat="42.340054" lon="1.839190">
        <ele>1203.29932</ele>
        <time>2021-07-02T12:29:42Z</time>
      </trkpt>
      <trkpt lat="42.340054" lon="1.839190">
        <ele>1203.38574</ele>
        <time>2021-07-02T12:29:43Z</time>
      </trkpt>
      <trkpt lat="42.340054" lon="1.839190">
        <ele>1203.31335</ele>
        <time>2021-07-02T12:29:44Z</time>
      </trkpt>
      <trkpt lat="42.340054" lon="1.839190">
        <ele>1203.34802</ele>
        <time>2021-07-02T12:29:45Z</time>
      </trkpt>
      <trkpt lat="42.340054" lon="1.839190">
        <ele>1203.40234</ele>
        <time>2021-07-02T12:29:46Z</time>
      </trkpt>
      <trkpt lat="42.340054" lon="1.839190">
        <ele>1203.44946</ele>
        <time>2021-07-02T12:29:47Z</time>
      </trkpt>
      <trkpt lat="42.340054" lon="1.839190">
        <ele>1203.55249</ele>
        <time>2021-07-02T12:29:48Z</time>
      </trkpt>
      <trkpt lat="42.340054" lon="1.839190">
        <ele>1203.63318</ele>
        <time>2021-07-02T12:29:49Z</time>
      </trkpt>
      <trkpt lat="42.340054" lon="1.839190">
        <ele>1203.58752</ele>
        <time>2021-07-02T12:29:50Z</time>
      </trkpt>
      <trkpt lat="42.340054" lon="1.839190">
        <ele>1203.53748</ele>
        <time>2021-07-02T12:29:51Z</time>
      </trkpt>
      <trkpt lat="42.340054" lon="1.839190">
        <ele>1203.63806</ele>
        <time>2021-07-02T12:29:52Z</time>
      </trkpt>
      <trkpt lat="42.340054" lon="1.839190">
        <ele>1201.61853</ele>
        <time>2021-07-02T12:29:53Z</time>
      </trkpt>
      <trkpt lat="42.340054" lon="1.839190">
        <ele>1200.66357</ele>
        <time>2021-07-02T12:29:54Z</time>
      </trkpt>
      <trkpt lat="42.340054" lon="1.839190">
        <ele>1200.15759</ele>
        <time>2021-07-02T12:29:55Z</time>
      </trkpt>
      <trkpt lat="42.340054" lon="1.839190">
        <ele>1199.52454</ele>
        <time>2021-07-02T12:29:56Z</time>
      </trkpt>
      <trkpt lat="42.340054" lon="1.839190">
        <ele>1199.67798</ele>
        <time>2021-07-02T12:29:57Z</time>
      </trkpt>
      <trkpt lat="42.340054" lon="1.839190">
        <ele>1199.80225</ele>
        <time>2021-07-02T12:29:58Z</time>
      </trkpt>
      <trkpt lat="42.340054" lon="1.839190">
        <ele>1199.37915</ele>
        <time>2021-07-02T12:29:59Z</time>
      </trkpt>
      <trkpt lat="42.340054" lon="1.839190">
        <ele>1200.00562</ele>
        <time>2021-07-02T12:30:00Z</time>
      </trkpt>
      <trkpt lat="42.340054" lon="1.839190">
        <ele>1201.01831</ele>
        <time>2021-07-02T12:30:01Z</time>
      </trkpt>
      <trkpt lat="42.340054" lon="1.839190">
        <ele>1201.70483</ele>
        <time>2021-07-02T12:30:02Z</time>
      </trkpt>
      <trkpt lat="42.340054" lon="1.839190">
        <ele>1202.95276</ele>
        <time>2021-07-02T12:30:03Z</time>
      </trkpt>
      <trkpt lat="42.340054" lon="1.839190">
        <ele>1200.66272</ele>
        <time>2021-07-02T12:30:04Z</time>
      </trkpt>
      <trkpt lat="42.340054" lon="1.839190">
        <ele>1200.54712</ele>
        <time>2021-07-02T12:30:05Z</time>
      </trkpt>
      <trkpt lat="42.340054" lon="1.839190">
        <ele>1201.39417</ele>
        <time>2021-07-02T12:30:06Z</time>
      </trkpt>
      <trkpt lat="42.340054" lon="1.839190">
        <ele>1200.89575</ele>
        <time>2021-07-02T12:30:07Z</time>
      </trkpt>
      <trkpt lat="42.340054" lon="1.839190">
        <ele>1200.54749</ele>
        <time>2021-07-02T12:30:08Z</time>
      </trkpt>
      <trkpt lat="42.340054" lon="1.839190">
        <ele>1202.03552</ele>
        <time>2021-07-02T12:30:09Z</time>
      </trkpt>
      <trkpt lat="42.340054" lon="1.839190">
        <ele>1201.96228</ele>
        <time>2021-07-02T12:30:10Z</time>
      </trkpt>
      <trkpt lat="42.340054" lon="1.839190">
        <ele>1201.00427</ele>
        <time>2021-07-02T12:30:11Z</time>
      </trkpt>
      <trkpt lat="42.340054" lon="1.839190">
        <ele>1201.68652</ele>
        <time>2021-07-02T12:30:12Z</time>
      </trkpt>
      <trkpt lat="42.340054" lon="1.839190">
        <ele>1201.77637</ele>
        <time>2021-07-02T12:30:13Z</time>
      </trkpt>
      <trkpt lat="42.340054" lon="1.839190">
        <ele>1201.85925</ele>
        <time>2021-07-02T12:30:14Z</time>
      </trkpt>
      <trkpt lat="42.340054" lon="1.839190">
        <ele>1201.60376</ele>
        <time>2021-07-02T12:30:15Z</time>
      </trkpt>
      <trkpt lat="42.340054" lon="1.839190">
        <ele>1200.47595</ele>
        <time>2021-07-02T12:30:16Z</time>
      </trkpt>
      <trkpt lat="42.340054" lon="1.839193">
        <ele>1200.98511</ele>
        <time>2021-07-02T12:30:17Z</time>
      </trkpt>
      <trkpt lat="42.340050" lon="1.839196">
        <ele>1200.98145</ele>
        <time>2021-07-02T12:30:18Z</time>
      </trkpt>
      <trkpt lat="42.340046" lon="1.839203">
        <ele>1199.65430</ele>
        <time>2021-07-02T12:30:19Z</time>
      </trkpt>
      <trkpt lat="42.340034" lon="1.839214">
        <ele>1200.99597</ele>
        <time>2021-07-02T12:30:20Z</time>
      </trkpt>
      <trkpt lat="42.340034" lon="1.839216">
        <ele>1201.84692</ele>
        <time>2021-07-02T12:30:21Z</time>
      </trkpt>
      <trkpt lat="42.340034" lon="1.839216">
        <ele>1201.78784</ele>
        <time>2021-07-02T12:30:22Z</time>
      </trkpt>
      <trkpt lat="42.340034" lon="1.839216">
        <ele>1200.32629</ele>
        <time>2021-07-02T12:30:23Z</time>
      </trkpt>
      <trkpt lat="42.340034" lon="1.839216">
        <ele>1198.81482</ele>
        <time>2021-07-02T12:30:24Z</time>
      </trkpt>
      <trkpt lat="42.340034" lon="1.839216">
        <ele>1198.73877</ele>
        <time>2021-07-02T12:30:25Z</time>
      </trkpt>
      <trkpt lat="42.340008" lon="1.839250">
        <ele>1199.13660</ele>
        <time>2021-07-02T12:30:26Z</time>
      </trkpt>
      <trkpt lat="42.340000" lon="1.839262">
        <ele>1204.59729</ele>
        <time>2021-07-02T12:30:27Z</time>
      </trkpt>
      <trkpt lat="42.339989" lon="1.839275">
        <ele>1204.61072</ele>
        <time>2021-07-02T12:30:28Z</time>
      </trkpt>
      <trkpt lat="42.339935" lon="1.839345">
        <ele>1204.44812</ele>
        <time>2021-07-02T12:30:29Z</time>
      </trkpt>
      <trkpt lat="42.339905" lon="1.839386">
        <ele>1204.36365</ele>
        <time>2021-07-02T12:30:30Z</time>
      </trkpt>
      <trkpt lat="42.339886" lon="1.839408">
        <ele>1204.35718</ele>
        <time>2021-07-02T12:30:31Z</time>
      </trkpt>
      <trkpt lat="42.339867" lon="1.839424">
        <ele>1204.88818</ele>
        <time>2021-07-02T12:30:32Z</time>
      </trkpt>
      <trkpt lat="42.339851" lon="1.839436">
        <ele>1205.06299</ele>
        <time>2021-07-02T12:30:33Z</time>
      </trkpt>
      <trkpt lat="42.339844" lon="1.839446">
        <ele>1205.12195</ele>
        <time>2021-07-02T12:30:34Z</time>
      </trkpt>
      <trkpt lat="42.339828" lon="1.839458">
        <ele>1205.63672</ele>
        <time>2021-07-02T12:30:35Z</time>
      </trkpt>
      <trkpt lat="42.339806" lon="1.839476">
        <ele>1204.96106</ele>
        <time>2021-07-02T12:30:36Z</time>
      </trkpt>
      <trkpt lat="42.339783" lon="1.839494">
        <ele>1205.32898</ele>
        <time>2021-07-02T12:30:37Z</time>
      </trkpt>
      <trkpt lat="42.339752" lon="1.839511">
        <ele>1203.80737</ele>
        <time>2021-07-02T12:30:38Z</time>
      </trkpt>
      <trkpt lat="42.339718" lon="1.839533">
        <ele>1203.92529</ele>
        <time>2021-07-02T12:30:39Z</time>
      </trkpt>
      <trkpt lat="42.339676" lon="1.839553">
        <ele>1204.20093</ele>
        <time>2021-07-02T12:30:40Z</time>
      </trkpt>
      <trkpt lat="42.339676" lon="1.839553">
        <ele>1204.40662</ele>
        <time>2021-07-02T12:30:41Z</time>
      </trkpt>
      <trkpt lat="42.339630" lon="1.839567">
        <ele>1204.01868</ele>
        <time>2021-07-02T12:30:42Z</time>
      </trkpt>
      <trkpt lat="42.339592" lon="1.839578">
        <ele>1204.98730</ele>
        <time>2021-07-02T12:30:43Z</time>
      </trkpt>
      <trkpt lat="42.339546" lon="1.839591">
        <ele>1205.06274</ele>
        <time>2021-07-02T12:30:44Z</time>
      </trkpt>
      <trkpt lat="42.339481" lon="1.839611">
        <ele>1206.24255</ele>
        <time>2021-07-02T12:30:45Z</time>
      </trkpt>
      <trkpt lat="42.339405" lon="1.839633">
        <ele>1207.65247</ele>
        <time>2021-07-02T12:30:46Z</time>
      </trkpt>
      <trkpt lat="42.339333" lon="1.839646">
        <ele>1208.95679</ele>
        <time>2021-07-02T12:30:47Z</time>
      </trkpt>
      <trkpt lat="42.339256" lon="1.839657">
        <ele>1209.17017</ele>
        <time>2021-07-02T12:30:48Z</time>
      </trkpt>
      <trkpt lat="42.339169" lon="1.839660">
        <ele>1208.62976</ele>
        <time>2021-07-02T12:30:49Z</time>
      </trkpt>
      <trkpt lat="42.339088" lon="1.839656">
        <ele>1209.16333</ele>
        <time>2021-07-02T12:30:50Z</time>
      </trkpt>
      <trkpt lat="42.339016" lon="1.839648">
        <ele>1210.00073</ele>
        <time>2021-07-02T12:30:51Z</time>
      </trkpt>
      <trkpt lat="42.338936" lon="1.839638">
        <ele>1210.77319</ele>
        <time>2021-07-02T12:30:52Z</time>
      </trkpt>
      <trkpt lat="42.338840" lon="1.839612">
        <ele>1210.32434</ele>
        <time>2021-07-02T12:30:53Z</time>
      </trkpt>
      <trkpt lat="42.338764" lon="1.839578">
        <ele>1210.49622</ele>
        <time>2021-07-02T12:30:54Z</time>
      </trkpt>
      <trkpt lat="42.338699" lon="1.839546">
        <ele>1210.81958</ele>
        <time>2021-07-02T12:30:55Z</time>
      </trkpt>
      <trkpt lat="42.338619" lon="1.839498">
        <ele>1212.30261</ele>
        <time>2021-07-02T12:30:56Z</time>
      </trkpt>
      <trkpt lat="42.338470" lon="1.839402">
        <ele>1214.19958</ele>
        <time>2021-07-02T12:30:57Z</time>
      </trkpt>
      <trkpt lat="42.338291" lon="1.839286">
        <ele>1214.93005</ele>
        <time>2021-07-02T12:30:58Z</time>
      </trkpt>
      <trkpt lat="42.338139" lon="1.839186">
        <ele>1216.83960</ele>
        <time>2021-07-02T12:30:59Z</time>
      </trkpt>
      <trkpt lat="42.337952" lon="1.839067">
        <ele>1218.57483</ele>
        <time>2021-07-02T12:31:00Z</time>
      </trkpt>
      <trkpt lat="42.337772" lon="1.838984">
        <ele>1218.12292</ele>
        <time>2021-07-02T12:31:01Z</time>
      </trkpt>
      <trkpt lat="42.337582" lon="1.838933">
        <ele>1219.44800</ele>
        <time>2021-07-02T12:31:02Z</time>
      </trkpt>
      <trkpt lat="42.337376" lon="1.838907">
        <ele>1219.85571</ele>
        <time>2021-07-02T12:31:03Z</time>
      </trkpt>
      <trkpt lat="42.337177" lon="1.838882">
        <ele>1219.33240</ele>
        <time>2021-07-02T12:31:04Z</time>
      </trkpt>
      <trkpt lat="42.337002" lon="1.838860">
        <ele>1220.17566</ele>
        <time>2021-07-02T12:31:05Z</time>
      </trkpt>
      <trkpt lat="42.336823" lon="1.838821">
        <ele>1219.76941</ele>
        <time>2021-07-02T12:31:06Z</time>
      </trkpt>
      <trkpt lat="42.336647" lon="1.838733">
        <ele>1220.14319</ele>
        <time>2021-07-02T12:31:07Z</time>
      </trkpt>
      <trkpt lat="42.336491" lon="1.838629">
        <ele>1220.72681</ele>
        <time>2021-07-02T12:31:08Z</time>
      </trkpt>
      <trkpt lat="42.336361" lon="1.838522">
        <ele>1222.33533</ele>
        <time>2021-07-02T12:31:09Z</time>
      </trkpt>
      <trkpt lat="42.336254" lon="1.838410">
        <ele>1223.06250</ele>
        <time>2021-07-02T12:31:10Z</time>
      </trkpt>
      <trkpt lat="42.336121" lon="1.838273">
        <ele>1223.75427</ele>
        <time>2021-07-02T12:31:11Z</time>
      </trkpt>
      <trkpt lat="42.335999" lon="1.838146">
        <ele>1223.81201</ele>
        <time>2021-07-02T12:31:12Z</time>
      </trkpt>
      <trkpt lat="42.335869" lon="1.838010">
        <ele>1224.36255</ele>
        <time>2021-07-02T12:31:13Z</time>
      </trkpt>
      <trkpt lat="42.335869" lon="1.838010">
        <ele>1221.64807</ele>
        <time>2021-07-02T12:31:14Z</time>
      </trkpt>
      <trkpt lat="42.335747" lon="1.837892">
        <ele>1222.61145</ele>
        <time>2021-07-02T12:31:15Z</time>
      </trkpt>
      <trkpt lat="42.335621" lon="1.837769">
        <ele>1223.64148</ele>
        <time>2021-07-02T12:31:16Z</time>
      </trkpt>
      <trkpt lat="42.335510" lon="1.837671">
        <ele>1224.79626</ele>
        <time>2021-07-02T12:31:17Z</time>
      </trkpt>
      <trkpt lat="42.335369" lon="1.837598">
        <ele>1224.96350</ele>
        <time>2021-07-02T12:31:18Z</time>
      </trkpt>
      <trkpt lat="42.335224" lon="1.837535">
        <ele>1224.57190</ele>
        <time>2021-07-02T12:31:19Z</time>
      </trkpt>
      <trkpt lat="42.335079" lon="1.837490">
        <ele>1224.57190</ele>
        <time>2021-07-02T12:31:20Z</time>
      </trkpt>
      <trkpt lat="42.334927" lon="1.837455">
        <ele>1224.57190</ele>
        <time>2021-07-02T12:31:21Z</time>
      </trkpt>
      <trkpt lat="42.334854" lon="1.837449">
        <ele>1224.57190</ele>
        <time>2021-07-02T12:31:22Z</time>
      </trkpt>
      <trkpt lat="42.334854" lon="1.837449">
        <ele>1224.57190</ele>
        <time>2021-07-02T12:31:23Z</time>
      </trkpt>
      <trkpt lat="42.334854" lon="1.837449">
        <ele>1224.57190</ele>
        <time>2021-07-02T12:31:24Z</time>
      </trkpt>
      <trkpt lat="42.334854" lon="1.837449">
        <ele>1224.57190</ele>
        <time>2021-07-02T12:31:25Z</time>
      </trkpt>
      <trkpt lat="42.334854" lon="1.837449">
        <ele>1224.57190</ele>
        <time>2021-07-02T12:31:26Z</time>
      </trkpt>
      <trkpt lat="42.334854" lon="1.837449">
        <ele>1224.57190</ele>
        <time>2021-07-02T12:31:27Z</time>
      </trkpt>
      <trkpt lat="42.334854" lon="1.837449">
        <ele>1224.57190</ele>
        <time>2021-07-02T12:31:28Z</time>
      </trkpt>
      <trkpt lat="42.334854" lon="1.837449">
        <ele>1224.57190</ele>
        <time>2021-07-02T12:31:29Z</time>
      </trkpt>
      <trkpt lat="42.334854" lon="1.837449">
        <ele>1224.57190</ele>
        <time>2021-07-02T12:31:30Z</time>
      </trkpt>
      <trkpt lat="42.334854" lon="1.837449">
        <ele>1224.57190</ele>
        <time>2021-07-02T12:31:31Z</time>
      </trkpt>
      <trkpt lat="42.334854" lon="1.837449">
        <ele>1224.57190</ele>
        <time>2021-07-02T12:31:32Z</time>
      </trkpt>
      <trkpt lat="42.334854" lon="1.837449">
        <ele>1224.57190</ele>
        <time>2021-07-02T12:31:33Z</time>
      </trkpt>
      <trkpt lat="42.334854" lon="1.837449">
        <ele>1224.57190</ele>
        <time>2021-07-02T12:31:34Z</time>
      </trkpt>
      <trkpt lat="42.334854" lon="1.837449">
        <ele>1224.57190</ele>
        <time>2021-07-02T12:31:35Z</time>
      </trkpt>
      <trkpt lat="42.334854" lon="1.837449">
        <ele>1224.57190</ele>
        <time>2021-07-02T12:31:36Z</time>
      </trkpt>
      <trkpt lat="42.334839" lon="1.837447">
        <ele>1224.57190</ele>
        <time>2021-07-02T12:31:37Z</time>
      </trkpt>
      <trkpt lat="42.333603" lon="1.837902">
        <ele>1224.57190</ele>
        <time>2021-07-02T12:31:38Z</time>
      </trkpt>
      <trkpt lat="42.333431" lon="1.838017">
        <ele>1224.57190</ele>
        <time>2021-07-02T12:31:39Z</time>
      </trkpt>
      <trkpt lat="42.333431" lon="1.838017">
        <ele>1224.57190</ele>
        <time>2021-07-02T12:31:40Z</time>
      </trkpt>
      <trkpt lat="42.333431" lon="1.838017">
        <ele>1224.57190</ele>
        <time>2021-07-02T12:31:41Z</time>
      </trkpt>
      <trkpt lat="42.333431" lon="1.838017">
        <ele>1224.57190</ele>
        <time>2021-07-02T12:31:42Z</time>
      </trkpt>
      <trkpt lat="42.333431" lon="1.838017">
        <ele>1224.57190</ele>
        <time>2021-07-02T12:31:43Z</time>
      </trkpt>
      <trkpt lat="42.333431" lon="1.838017">
        <ele>1224.57190</ele>
        <time>2021-07-02T12:31:44Z</time>
      </trkpt>
      <trkpt lat="42.333431" lon="1.838017">
        <ele>1224.57190</ele>
        <time>2021-07-02T12:31:45Z</time>
      </trkpt>
      <trkpt lat="42.333431" lon="1.838017">
        <ele>1224.57190</ele>
        <time>2021-07-02T12:31:46Z</time>
      </trkpt>
      <trkpt lat="42.333431" lon="1.838017">
        <ele>1224.57190</ele>
        <time>2021-07-02T12:31:47Z</time>
      </trkpt>
      <trkpt lat="42.333431" lon="1.838017">
        <ele>1224.57190</ele>
        <time>2021-07-02T12:31:48Z</time>
      </trkpt>
      <trkpt lat="42.333431" lon="1.838017">
        <ele>1224.57190</ele>
        <time>2021-07-02T12:31:49Z</time>
      </trkpt>
      <trkpt lat="42.333431" lon="1.838017">
        <ele>1224.57190</ele>
        <time>2021-07-02T12:31:50Z</time>
      </trkpt>
      <trkpt lat="42.333431" lon="1.838017">
        <ele>1224.57190</ele>
        <time>2021-07-02T12:31:51Z</time>
      </trkpt>
      <trkpt lat="42.333431" lon="1.838017">
        <ele>1224.57190</ele>
        <time>2021-07-02T12:31:52Z</time>
      </trkpt>
      <trkpt lat="42.333431" lon="1.838017">
        <ele>1224.57190</ele>
        <time>2021-07-02T12:31:53Z</time>
      </trkpt>
      <trkpt lat="42.333431" lon="1.838017">
        <ele>1224.57190</ele>
        <time>2021-07-02T12:31:54Z</time>
      </trkpt>
      <trkpt lat="42.333431" lon="1.838017">
        <ele>1224.57190</ele>
        <time>2021-07-02T12:31:55Z</time>
      </trkpt>
      <trkpt lat="42.333431" lon="1.838017">
        <ele>1224.57190</ele>
        <time>2021-07-02T12:31:56Z</time>
      </trkpt>
      <trkpt lat="42.333431" lon="1.838017">
        <ele>1224.57190</ele>
        <time>2021-07-02T12:31:57Z</time>
      </trkpt>
      <trkpt lat="42.333431" lon="1.838017">
        <ele>1224.57190</ele>
        <time>2021-07-02T12:31:58Z</time>
      </trkpt>
      <trkpt lat="42.333431" lon="1.838017">
        <ele>1224.57190</ele>
        <time>2021-07-02T12:31:59Z</time>
      </trkpt>
      <trkpt lat="42.333431" lon="1.838017">
        <ele>1224.57190</ele>
        <time>2021-07-02T12:32:00Z</time>
      </trkpt>
      <trkpt lat="42.333431" lon="1.838017">
        <ele>1224.57190</ele>
        <time>2021-07-02T12:32:01Z</time>
      </trkpt>
      <trkpt lat="42.333431" lon="1.838017">
        <ele>1224.57190</ele>
        <time>2021-07-02T12:32:02Z</time>
      </trkpt>
      <trkpt lat="42.333431" lon="1.838017">
        <ele>1224.57190</ele>
        <time>2021-07-02T12:32:03Z</time>
      </trkpt>
      <trkpt lat="42.333431" lon="1.838017">
        <ele>1224.57190</ele>
        <time>2021-07-02T12:32:04Z</time>
      </trkpt>
      <trkpt lat="42.333431" lon="1.838017">
        <ele>1224.57190</ele>
        <time>2021-07-02T12:32:05Z</time>
      </trkpt>
      <trkpt lat="42.333431" lon="1.838017">
        <ele>1224.57190</ele>
        <time>2021-07-02T12:32:06Z</time>
      </trkpt>
      <trkpt lat="42.333431" lon="1.838017">
        <ele>1224.57190</ele>
        <time>2021-07-02T12:32:07Z</time>
      </trkpt>
      <trkpt lat="42.333431" lon="1.838017">
        <ele>1224.57190</ele>
        <time>2021-07-02T12:32:08Z</time>
      </trkpt>
      <trkpt lat="42.333431" lon="1.838017">
        <ele>1224.57190</ele>
        <time>2021-07-02T12:32:09Z</time>
      </trkpt>
      <trkpt lat="42.333431" lon="1.838017">
        <ele>1224.57190</ele>
        <time>2021-07-02T12:32:10Z</time>
      </trkpt>
      <trkpt lat="42.333431" lon="1.838017">
        <ele>1224.57190</ele>
        <time>2021-07-02T12:32:11Z</time>
      </trkpt>
      <trkpt lat="42.333431" lon="1.838017">
        <ele>1224.57190</ele>
        <time>2021-07-02T12:32:12Z</time>
      </trkpt>
      <trkpt lat="42.333431" lon="1.838017">
        <ele>1224.57190</ele>
        <time>2021-07-02T12:32:13Z</time>
      </trkpt>
      <trkpt lat="42.333431" lon="1.838017">
        <ele>1224.57190</ele>
        <time>2021-07-02T12:32:14Z</time>
      </trkpt>
      <trkpt lat="42.333431" lon="1.838017">
        <ele>1224.57190</ele>
        <time>2021-07-02T12:32:15Z</time>
      </trkpt>
      <trkpt lat="42.333431" lon="1.838017">
        <ele>1224.57190</ele>
        <time>2021-07-02T12:32:16Z</time>
      </trkpt>
      <trkpt lat="42.333431" lon="1.838017">
        <ele>1224.57190</ele>
        <time>2021-07-02T12:32:17Z</time>
      </trkpt>
      <trkpt lat="42.333431" lon="1.838017">
        <ele>1224.57190</ele>
        <time>2021-07-02T12:32:18Z</time>
      </trkpt>
      <trkpt lat="42.333431" lon="1.838017">
        <ele>1224.57190</ele>
        <time>2021-07-02T12:32:19Z</time>
      </trkpt>
      <trkpt lat="42.333431" lon="1.838017">
        <ele>1224.57190</ele>
        <time>2021-07-02T12:32:20Z</time>
      </trkpt>
      <trkpt lat="42.333431" lon="1.838017">
        <ele>1224.57190</ele>
        <time>2021-07-02T12:32:21Z</time>
      </trkpt>
      <trkpt lat="42.333431" lon="1.838017">
        <ele>1224.57190</ele>
        <time>2021-07-02T12:32:22Z</time>
      </trkpt>
      <trkpt lat="42.333431" lon="1.838017">
        <ele>1224.57190</ele>
        <time>2021-07-02T12:32:23Z</time>
      </trkpt>
      <trkpt lat="42.333431" lon="1.838017">
        <ele>1224.57190</ele>
        <time>2021-07-02T12:32:24Z</time>
      </trkpt>
      <trkpt lat="42.333431" lon="1.838017">
        <ele>1224.57190</ele>
        <time>2021-07-02T12:32:25Z</time>
      </trkpt>
      <trkpt lat="42.333431" lon="1.838017">
        <ele>1224.57190</ele>
        <time>2021-07-02T12:32:26Z</time>
      </trkpt>
      <trkpt lat="42.333431" lon="1.838017">
        <ele>1224.57190</ele>
        <time>2021-07-02T12:32:27Z</time>
      </trkpt>
      <trkpt lat="42.333431" lon="1.838017">
        <ele>1224.57190</ele>
        <time>2021-07-02T12:32:28Z</time>
      </trkpt>
      <trkpt lat="42.333431" lon="1.838017">
        <ele>1224.57190</ele>
        <time>2021-07-02T12:32:29Z</time>
      </trkpt>
      <trkpt lat="42.333431" lon="1.838017">
        <ele>1224.57190</ele>
        <time>2021-07-02T12:32:30Z</time>
      </trkpt>
      <trkpt lat="42.333431" lon="1.838017">
        <ele>1224.57190</ele>
        <time>2021-07-02T12:32:31Z</time>
      </trkpt>
      <trkpt lat="42.333431" lon="1.838017">
        <ele>1224.57190</ele>
        <time>2021-07-02T12:32:32Z</time>
      </trkpt>
      <trkpt lat="42.333431" lon="1.838017">
        <ele>1224.57190</ele>
        <time>2021-07-02T12:32:33Z</time>
      </trkpt>
      <trkpt lat="42.333431" lon="1.838017">
        <ele>1224.57190</ele>
        <time>2021-07-02T12:32:34Z</time>
      </trkpt>
      <trkpt lat="42.333431" lon="1.838017">
        <ele>1224.57190</ele>
        <time>2021-07-02T12:32:35Z</time>
      </trkpt>
      <trkpt lat="42.333431" lon="1.838017">
        <ele>1224.57190</ele>
        <time>2021-07-02T12:32:36Z</time>
      </trkpt>
      <trkpt lat="42.333431" lon="1.838017">
        <ele>1224.57190</ele>
        <time>2021-07-02T12:32:37Z</time>
      </trkpt>
      <trkpt lat="42.333431" lon="1.838017">
        <ele>1224.57190</ele>
        <time>2021-07-02T12:32:38Z</time>
      </trkpt>
      <trkpt lat="42.333431" lon="1.838017">
        <ele>1224.57190</ele>
        <time>2021-07-02T12:32:39Z</time>
      </trkpt>
      <trkpt lat="42.333431" lon="1.838017">
        <ele>1224.57190</ele>
        <time>2021-07-02T12:32:40Z</time>
      </trkpt>
      <trkpt lat="42.333431" lon="1.838017">
        <ele>1224.57190</ele>
        <time>2021-07-02T12:32:41Z</time>
      </trkpt>
      <trkpt lat="42.333431" lon="1.838017">
        <ele>1224.57190</ele>
        <time>2021-07-02T12:32:42Z</time>
      </trkpt>
      <trkpt lat="42.333431" lon="1.838017">
        <ele>1224.57190</ele>
        <time>2021-07-02T12:32:43Z</time>
      </trkpt>
      <trkpt lat="42.333431" lon="1.838017">
        <ele>1224.57190</ele>
        <time>2021-07-02T12:32:44Z</time>
      </trkpt>
      <trkpt lat="42.333431" lon="1.838017">
        <ele>1224.57190</ele>
        <time>2021-07-02T12:32:45Z</time>
      </trkpt>
      <trkpt lat="42.333431" lon="1.838017">
        <ele>1224.57190</ele>
        <time>2021-07-02T12:32:46Z</time>
      </trkpt>
      <trkpt lat="42.333431" lon="1.838017">
        <ele>1224.57190</ele>
        <time>2021-07-02T12:32:47Z</time>
      </trkpt>
      <trkpt lat="42.333431" lon="1.838017">
        <ele>1224.57190</ele>
        <time>2021-07-02T12:32:48Z</time>
      </trkpt>
      <trkpt lat="42.333431" lon="1.838017">
        <ele>1224.57190</ele>
        <time>2021-07-02T12:32:49Z</time>
      </trkpt>
      <trkpt lat="42.333431" lon="1.838017">
        <ele>1224.57190</ele>
        <time>2021-07-02T12:32:50Z</time>
      </trkpt>
      <trkpt lat="42.333431" lon="1.838017">
        <ele>1224.57190</ele>
        <time>2021-07-02T12:32:51Z</time>
      </trkpt>
      <trkpt lat="42.333431" lon="1.838017">
        <ele>1224.57190</ele>
        <time>2021-07-02T12:32:52Z</time>
      </trkpt>
      <trkpt lat="42.333431" lon="1.838017">
        <ele>1224.57190</ele>
        <time>2021-07-02T12:32:53Z</time>
      </trkpt>
      <trkpt lat="42.333427" lon="1.838019">
        <ele>1224.57190</ele>
        <time>2021-07-02T12:32:54Z</time>
      </trkpt>
      <trkpt lat="42.313080" lon="1.852166">
        <ele>1224.57190</ele>
        <time>2021-07-02T12:32:55Z</time>
      </trkpt>
      <trkpt lat="42.313080" lon="1.852166">
        <ele>1224.57190</ele>
        <time>2021-07-02T12:32:56Z</time>
      </trkpt>
      <trkpt lat="42.313080" lon="1.852166">
        <ele>1224.57190</ele>
        <time>2021-07-02T12:32:57Z</time>
      </trkpt>
      <trkpt lat="42.313080" lon="1.852166">
        <ele>1224.57190</ele>
        <time>2021-07-02T12:32:58Z</time>
      </trkpt>
      <trkpt lat="42.313080" lon="1.852166">
        <ele>1224.57190</ele>
        <time>2021-07-02T12:32:59Z</time>
      </trkpt>
      <trkpt lat="42.313080" lon="1.852166">
        <ele>1224.57190</ele>
        <time>2021-07-02T12:33:00Z</time>
      </trkpt>
      <trkpt lat="42.313080" lon="1.852166">
        <ele>1224.57190</ele>
        <time>2021-07-02T12:33:01Z</time>
      </trkpt>
      <trkpt lat="42.313080" lon="1.852166">
        <ele>1224.57190</ele>
        <time>2021-07-02T12:33:02Z</time>
      </trkpt>
      <trkpt lat="42.313080" lon="1.852166">
        <ele>1224.57190</ele>
        <time>2021-07-02T12:33:03Z</time>
      </trkpt>
      <trkpt lat="42.313080" lon="1.852166">
        <ele>1224.57190</ele>
        <time>2021-07-02T12:33:04Z</time>
      </trkpt>
      <trkpt lat="42.313080" lon="1.852166">
        <ele>1224.57190</ele>
        <time>2021-07-02T12:33:05Z</time>
      </trkpt>
      <trkpt lat="42.313080" lon="1.852166">
        <ele>1224.57190</ele>
        <time>2021-07-02T12:33:06Z</time>
      </trkpt>
      <trkpt lat="42.313080" lon="1.852166">
        <ele>1224.57190</ele>
        <time>2021-07-02T12:33:07Z</time>
      </trkpt>
      <trkpt lat="42.313080" lon="1.852166">
        <ele>1224.57190</ele>
        <time>2021-07-02T12:33:08Z</time>
      </trkpt>
      <trkpt lat="42.313080" lon="1.852166">
        <ele>1224.57190</ele>
        <time>2021-07-02T12:33:09Z</time>
      </trkpt>
      <trkpt lat="42.313080" lon="1.852166">
        <ele>1224.57190</ele>
        <time>2021-07-02T12:33:10Z</time>
      </trkpt>
      <trkpt lat="42.313080" lon="1.852166">
        <ele>1224.57190</ele>
        <time>2021-07-02T12:33:11Z</time>
      </trkpt>
      <trkpt lat="42.313080" lon="1.852166">
        <ele>1224.57190</ele>
        <time>2021-07-02T12:33:12Z</time>
      </trkpt>
      <trkpt lat="42.313080" lon="1.852166">
        <ele>1224.57190</ele>
        <time>2021-07-02T12:33:13Z</time>
      </trkpt>
      <trkpt lat="42.313080" lon="1.852166">
        <ele>1224.57190</ele>
        <time>2021-07-02T12:33:14Z</time>
      </trkpt>
      <trkpt lat="42.313080" lon="1.852166">
        <ele>1224.57190</ele>
        <time>2021-07-02T12:33:15Z</time>
      </trkpt>
      <trkpt lat="42.313080" lon="1.852166">
        <ele>1224.57190</ele>
        <time>2021-07-02T12:33:16Z</time>
      </trkpt>
      <trkpt lat="42.313080" lon="1.852166">
        <ele>1224.57190</ele>
        <time>2021-07-02T12:33:17Z</time>
      </trkpt>
      <trkpt lat="42.313080" lon="1.852166">
        <ele>1224.57190</ele>
        <time>2021-07-02T12:33:18Z</time>
      </trkpt>
      <trkpt lat="42.313080" lon="1.852166">
        <ele>1224.57190</ele>
        <time>2021-07-02T12:33:19Z</time>
      </trkpt>
      <trkpt lat="42.313080" lon="1.852166">
        <ele>1224.57190</ele>
        <time>2021-07-02T12:33:20Z</time>
      </trkpt>
      <trkpt lat="42.313080" lon="1.852166">
        <ele>1224.57190</ele>
        <time>2021-07-02T12:33:21Z</time>
      </trkpt>
      <trkpt lat="42.313080" lon="1.852166">
        <ele>1224.57190</ele>
        <time>2021-07-02T12:33:22Z</time>
      </trkpt>
      <trkpt lat="42.313080" lon="1.852166">
        <ele>1224.57190</ele>
        <time>2021-07-02T12:33:23Z</time>
      </trkpt>
      <trkpt lat="42.313080" lon="1.852166">
        <ele>1224.57190</ele>
        <time>2021-07-02T12:33:24Z</time>
      </trkpt>
      <trkpt lat="42.313080" lon="1.852166">
        <ele>1224.57190</ele>
        <time>2021-07-02T12:33:25Z</time>
      </trkpt>
      <trkpt lat="42.313080" lon="1.852166">
        <ele>1224.57190</ele>
        <time>2021-07-02T12:33:26Z</time>
      </trkpt>
      <trkpt lat="42.313080" lon="1.852166">
        <ele>1224.57190</ele>
        <time>2021-07-02T12:33:27Z</time>
      </trkpt>
      <trkpt lat="42.313080" lon="1.852166">
        <ele>1224.57190</ele>
        <time>2021-07-02T12:33:28Z</time>
      </trkpt>
      <trkpt lat="42.313080" lon="1.852166">
        <ele>1224.57190</ele>
        <time>2021-07-02T12:33:29Z</time>
      </trkpt>
      <trkpt lat="42.313080" lon="1.852166">
        <ele>1224.57190</ele>
        <time>2021-07-02T12:33:30Z</time>
      </trkpt>
      <trkpt lat="42.313080" lon="1.852166">
        <ele>1224.57190</ele>
        <time>2021-07-02T12:33:31Z</time>
      </trkpt>
      <trkpt lat="42.313080" lon="1.852166">
        <ele>1224.57190</ele>
        <time>2021-07-02T12:33:32Z</time>
      </trkpt>
      <trkpt lat="42.313080" lon="1.852166">
        <ele>1224.57190</ele>
        <time>2021-07-02T12:33:33Z</time>
      </trkpt>
      <trkpt lat="42.313080" lon="1.852166">
        <ele>1224.57190</ele>
        <time>2021-07-02T12:33:34Z</time>
      </trkpt>
      <trkpt lat="42.313080" lon="1.852166">
        <ele>1224.57190</ele>
        <time>2021-07-02T12:33:35Z</time>
      </trkpt>
      <trkpt lat="42.313080" lon="1.852166">
        <ele>1224.57190</ele>
        <time>2021-07-02T12:33:36Z</time>
      </trkpt>
      <trkpt lat="42.313080" lon="1.852166">
        <ele>1224.57190</ele>
        <time>2021-07-02T12:33:37Z</time>
      </trkpt>
      <trkpt lat="42.313080" lon="1.852166">
        <ele>1224.57190</ele>
        <time>2021-07-02T12:33:38Z</time>
      </trkpt>
      <trkpt lat="42.313080" lon="1.852166">
        <ele>1224.57190</ele>
        <time>2021-07-02T12:33:39Z</time>
      </trkpt>
      <trkpt lat="42.313080" lon="1.852166">
        <ele>1224.57190</ele>
        <time>2021-07-02T12:33:40Z</time>
      </trkpt>
      <trkpt lat="42.313080" lon="1.852166">
        <ele>1224.57190</ele>
        <time>2021-07-02T12:33:41Z</time>
      </trkpt>
      <trkpt lat="42.313080" lon="1.852166">
        <ele>1224.57190</ele>
        <time>2021-07-02T12:33:42Z</time>
      </trkpt>
      <trkpt lat="42.313080" lon="1.852166">
        <ele>1224.57190</ele>
        <time>2021-07-02T12:33:43Z</time>
      </trkpt>
      <trkpt lat="42.313080" lon="1.852166">
        <ele>1224.57190</ele>
        <time>2021-07-02T12:33:44Z</time>
      </trkpt>
      <trkpt lat="42.313080" lon="1.852166">
        <ele>1224.57190</ele>
        <time>2021-07-02T12:33:45Z</time>
      </trkpt>
      <trkpt lat="42.313080" lon="1.852166">
        <ele>1224.57190</ele>
        <time>2021-07-02T12:33:46Z</time>
      </trkpt>
      <trkpt lat="42.313080" lon="1.852166">
        <ele>1224.57190</ele>
        <time>2021-07-02T12:33:47Z</time>
      </trkpt>
      <trkpt lat="42.313080" lon="1.852166">
        <ele>1224.57190</ele>
        <time>2021-07-02T12:33:48Z</time>
      </trkpt>
      <trkpt lat="42.313080" lon="1.852166">
        <ele>1224.57190</ele>
        <time>2021-07-02T12:33:49Z</time>
      </trkpt>
      <trkpt lat="42.313080" lon="1.852166">
        <ele>1224.57190</ele>
        <time>2021-07-02T12:33:50Z</time>
      </trkpt>
      <trkpt lat="42.313080" lon="1.852166">
        <ele>1224.57190</ele>
        <time>2021-07-02T12:33:51Z</time>
      </trkpt>
      <trkpt lat="42.313080" lon="1.852166">
        <ele>1224.57190</ele>
        <time>2021-07-02T12:33:52Z</time>
      </trkpt>
      <trkpt lat="42.313080" lon="1.852166">
        <ele>1224.57190</ele>
        <time>2021-07-02T12:33:53Z</time>
      </trkpt>
      <trkpt lat="42.313080" lon="1.852166">
        <ele>1224.57190</ele>
        <time>2021-07-02T12:33:54Z</time>
      </trkpt>
      <trkpt lat="42.313080" lon="1.852166">
        <ele>1224.57190</ele>
        <time>2021-07-02T12:33:55Z</time>
      </trkpt>
      <trkpt lat="42.313080" lon="1.852166">
        <ele>1224.57190</ele>
        <time>2021-07-02T12:33:56Z</time>
      </trkpt>
      <trkpt lat="42.313080" lon="1.852166">
        <ele>1224.57190</ele>
        <time>2021-07-02T12:33:57Z</time>
      </trkpt>
      <trkpt lat="42.313080" lon="1.852166">
        <ele>1224.57190</ele>
        <time>2021-07-02T12:33:58Z</time>
      </trkpt>
      <trkpt lat="42.313080" lon="1.852166">
        <ele>1224.57190</ele>
        <time>2021-07-02T12:33:59Z</time>
      </trkpt>
      <trkpt lat="42.313080" lon="1.852166">
        <ele>1224.57190</ele>
        <time>2021-07-02T12:34:00Z</time>
      </trkpt>
      <trkpt lat="42.313080" lon="1.852166">
        <ele>1224.57190</ele>
        <time>2021-07-02T12:34:01Z</time>
      </trkpt>
      <trkpt lat="42.313080" lon="1.852166">
        <ele>1224.57190</ele>
        <time>2021-07-02T12:34:02Z</time>
      </trkpt>
      <trkpt lat="42.313080" lon="1.852166">
        <ele>1224.57190</ele>
        <time>2021-07-02T12:34:03Z</time>
      </trkpt>
      <trkpt lat="42.313080" lon="1.852166">
        <ele>1224.57190</ele>
        <time>2021-07-02T12:34:04Z</time>
      </trkpt>
      <trkpt lat="42.313080" lon="1.852166">
        <ele>1224.57190</ele>
        <time>2021-07-02T12:34:05Z</time>
      </trkpt>
      <trkpt lat="42.313080" lon="1.852166">
        <ele>1224.57190</ele>
        <time>2021-07-02T12:34:06Z</time>
      </trkpt>
      <trkpt lat="42.313080" lon="1.852166">
        <ele>1224.57190</ele>
        <time>2021-07-02T12:34:07Z</time>
      </trkpt>
      <trkpt lat="42.313080" lon="1.852166">
        <ele>1224.57190</ele>
        <time>2021-07-02T12:34:08Z</time>
      </trkpt>
      <trkpt lat="42.313080" lon="1.852166">
        <ele>1224.57190</ele>
        <time>2021-07-02T12:34:09Z</time>
      </trkpt>
      <trkpt lat="42.313080" lon="1.852166">
        <ele>1224.57190</ele>
        <time>2021-07-02T12:34:10Z</time>
      </trkpt>
      <trkpt lat="42.313080" lon="1.852166">
        <ele>1224.57190</ele>
        <time>2021-07-02T12:34:11Z</time>
      </trkpt>
      <trkpt lat="42.313080" lon="1.852166">
        <ele>1224.57190</ele>
        <time>2021-07-02T12:34:12Z</time>
      </trkpt>
      <trkpt lat="42.313080" lon="1.852166">
        <ele>1224.57190</ele>
        <time>2021-07-02T12:34:13Z</time>
      </trkpt>
      <trkpt lat="42.313080" lon="1.852166">
        <ele>1224.57190</ele>
        <time>2021-07-02T12:34:14Z</time>
      </trkpt>
      <trkpt lat="42.313080" lon="1.852166">
        <ele>1224.57190</ele>
        <time>2021-07-02T12:34:15Z</time>
      </trkpt>
      <trkpt lat="42.313080" lon="1.852166">
        <ele>1224.57190</ele>
        <time>2021-07-02T12:34:16Z</time>
      </trkpt>
      <trkpt lat="42.313080" lon="1.852166">
        <ele>1224.57190</ele>
        <time>2021-07-02T12:34:17Z</time>
      </trkpt>
      <trkpt lat="42.313080" lon="1.852166">
        <ele>1224.57190</ele>
        <time>2021-07-02T12:34:18Z</time>
      </trkpt>
      <trkpt lat="42.313080" lon="1.852166">
        <ele>1224.57190</ele>
        <time>2021-07-02T12:34:19Z</time>
      </trkpt>
      <trkpt lat="42.313080" lon="1.852166">
        <ele>1224.57190</ele>
        <time>2021-07-02T12:34:20Z</time>
      </trkpt>
      <trkpt lat="42.313080" lon="1.852166">
        <ele>1224.57190</ele>
        <time>2021-07-02T12:34:21Z</time>
      </trkpt>
      <trkpt lat="42.313080" lon="1.852166">
        <ele>1224.57190</ele>
        <time>2021-07-02T12:34:22Z</time>
      </trkpt>
      <trkpt lat="42.313080" lon="1.852166">
        <ele>1224.57190</ele>
        <time>2021-07-02T12:34:23Z</time>
      </trkpt>
      <trkpt lat="42.313080" lon="1.852166">
        <ele>1224.57190</ele>
        <time>2021-07-02T12:34:24Z</time>
      </trkpt>
      <trkpt lat="42.313080" lon="1.852166">
        <ele>1224.57190</ele>
        <time>2021-07-02T12:34:25Z</time>
      </trkpt>
      <trkpt lat="42.313080" lon="1.852166">
        <ele>1224.57190</ele>
        <time>2021-07-02T12:34:26Z</time>
      </trkpt>
      <trkpt lat="42.313080" lon="1.852166">
        <ele>1224.57190</ele>
        <time>2021-07-02T12:34:27Z</time>
      </trkpt>
      <trkpt lat="42.313080" lon="1.852166">
        <ele>1224.57190</ele>
        <time>2021-07-02T12:34:28Z</time>
      </trkpt>
      <trkpt lat="42.313080" lon="1.852166">
        <ele>1224.57190</ele>
        <time>2021-07-02T12:34:29Z</time>
      </trkpt>
      <trkpt lat="42.313080" lon="1.852166">
        <ele>1224.57190</ele>
        <time>2021-07-02T12:34:30Z</time>
      </trkpt>
      <trkpt lat="42.313080" lon="1.852166">
        <ele>1224.57190</ele>
        <time>2021-07-02T12:34:31Z</time>
      </trkpt>
      <trkpt lat="42.313080" lon="1.852166">
        <ele>1224.57190</ele>
        <time>2021-07-02T12:34:32Z</time>
      </trkpt>
      <trkpt lat="42.313080" lon="1.852166">
        <ele>1224.57190</ele>
        <time>2021-07-02T12:34:33Z</time>
      </trkpt>
      <trkpt lat="42.313080" lon="1.852166">
        <ele>1224.57190</ele>
        <time>2021-07-02T12:34:34Z</time>
      </trkpt>
      <trkpt lat="42.313080" lon="1.852166">
        <ele>1224.57190</ele>
        <time>2021-07-02T12:34:35Z</time>
      </trkpt>
      <trkpt lat="42.313080" lon="1.852166">
        <ele>1224.57190</ele>
        <time>2021-07-02T12:34:36Z</time>
      </trkpt>
      <trkpt lat="42.313080" lon="1.852166">
        <ele>1224.57190</ele>
        <time>2021-07-02T12:34:37Z</time>
      </trkpt>
      <trkpt lat="42.313080" lon="1.852166">
        <ele>1224.57190</ele>
        <time>2021-07-02T12:34:38Z</time>
      </trkpt>
      <trkpt lat="42.313080" lon="1.852166">
        <ele>1224.57190</ele>
        <time>2021-07-02T12:34:39Z</time>
      </trkpt>
      <trkpt lat="42.313080" lon="1.852166">
        <ele>1224.57190</ele>
        <time>2021-07-02T12:34:40Z</time>
      </trkpt>
      <trkpt lat="42.313080" lon="1.852166">
        <ele>1224.57190</ele>
        <time>2021-07-02T12:34:41Z</time>
      </trkpt>
      <trkpt lat="42.313080" lon="1.852166">
        <ele>1224.57190</ele>
        <time>2021-07-02T12:34:42Z</time>
      </trkpt>
      <trkpt lat="42.313080" lon="1.852166">
        <ele>1224.57190</ele>
        <time>2021-07-02T12:34:43Z</time>
      </trkpt>
      <trkpt lat="42.313080" lon="1.852166">
        <ele>1224.57190</ele>
        <time>2021-07-02T12:34:44Z</time>
      </trkpt>
      <trkpt lat="42.313080" lon="1.852166">
        <ele>1224.57190</ele>
        <time>2021-07-02T12:34:45Z</time>
      </trkpt>
      <trkpt lat="42.313080" lon="1.852166">
        <ele>1224.57190</ele>
        <time>2021-07-02T12:34:46Z</time>
      </trkpt>
      <trkpt lat="42.307407" lon="1.856851">
        <ele>1224.57190</ele>
        <time>2021-07-02T12:34:47Z</time>
      </trkpt>
      <trkpt lat="42.307407" lon="1.856851">
        <ele>1224.57190</ele>
        <time>2021-07-02T12:34:48Z</time>
      </trkpt>
      <trkpt lat="42.307407" lon="1.856851">
        <ele>1224.57190</ele>
        <time>2021-07-02T12:34:49Z</time>
      </trkpt>
      <trkpt lat="42.307407" lon="1.856851">
        <ele>1224.57190</ele>
        <time>2021-07-02T12:34:50Z</time>
      </trkpt>
      <trkpt lat="42.307407" lon="1.856851">
        <ele>1224.57190</ele>
        <time>2021-07-02T12:34:51Z</time>
      </trkpt>
      <trkpt lat="42.307407" lon="1.856851">
        <ele>1224.57190</ele>
        <time>2021-07-02T12:34:52Z</time>
      </trkpt>
      <trkpt lat="42.307407" lon="1.856851">
        <ele>1224.57190</ele>
        <time>2021-07-02T12:34:53Z</time>
      </trkpt>
      <trkpt lat="42.307407" lon="1.856851">
        <ele>1224.57190</ele>
        <time>2021-07-02T12:34:54Z</time>
      </trkpt>
      <trkpt lat="42.307407" lon="1.856851">
        <ele>1224.57190</ele>
        <time>2021-07-02T12:34:55Z</time>
      </trkpt>
      <trkpt lat="42.307407" lon="1.856851">
        <ele>1224.57190</ele>
        <time>2021-07-02T12:34:56Z</time>
      </trkpt>
      <trkpt lat="42.307407" lon="1.856851">
        <ele>1224.57190</ele>
        <time>2021-07-02T12:34:57Z</time>
      </trkpt>
      <trkpt lat="42.307407" lon="1.856851">
        <ele>1224.57190</ele>
        <time>2021-07-02T12:34:58Z</time>
      </trkpt>
      <trkpt lat="42.307407" lon="1.856851">
        <ele>1224.57190</ele>
        <time>2021-07-02T12:34:59Z</time>
      </trkpt>
      <trkpt lat="42.307407" lon="1.856851">
        <ele>1224.57190</ele>
        <time>2021-07-02T12:35:00Z</time>
      </trkpt>
      <trkpt lat="42.307407" lon="1.856851">
        <ele>1224.57190</ele>
        <time>2021-07-02T12:35:01Z</time>
      </trkpt>
      <trkpt lat="42.307407" lon="1.856851">
        <ele>1224.57190</ele>
        <time>2021-07-02T12:35:02Z</time>
      </trkpt>
      <trkpt lat="42.307407" lon="1.856851">
        <ele>1224.57190</ele>
        <time>2021-07-02T12:35:03Z</time>
      </trkpt>
      <trkpt lat="42.307407" lon="1.856851">
        <ele>1224.57190</ele>
        <time>2021-07-02T12:35:04Z</time>
      </trkpt>
      <trkpt lat="42.307407" lon="1.856851">
        <ele>1224.57190</ele>
        <time>2021-07-02T12:35:05Z</time>
      </trkpt>
      <trkpt lat="42.307407" lon="1.856851">
        <ele>1224.57190</ele>
        <time>2021-07-02T12:35:06Z</time>
      </trkpt>
      <trkpt lat="42.307407" lon="1.856851">
        <ele>1224.57190</ele>
        <time>2021-07-02T12:35:07Z</time>
      </trkpt>
      <trkpt lat="42.307407" lon="1.856851">
        <ele>1224.57190</ele>
        <time>2021-07-02T12:35:08Z</time>
      </trkpt>
      <trkpt lat="42.307407" lon="1.856851">
        <ele>1224.57190</ele>
        <time>2021-07-02T12:35:09Z</time>
      </trkpt>
      <trkpt lat="42.307407" lon="1.856851">
        <ele>1224.57190</ele>
        <time>2021-07-02T12:35:10Z</time>
      </trkpt>
      <trkpt lat="42.307407" lon="1.856851">
        <ele>1224.57190</ele>
        <time>2021-07-02T12:35:11Z</time>
      </trkpt>
      <trkpt lat="42.307407" lon="1.856851">
        <ele>1224.57190</ele>
        <time>2021-07-02T12:35:12Z</time>
      </trkpt>
      <trkpt lat="42.307407" lon="1.856851">
        <ele>1224.57190</ele>
        <time>2021-07-02T12:35:13Z</time>
      </trkpt>
      <trkpt lat="42.307407" lon="1.856851">
        <ele>1224.57190</ele>
        <time>2021-07-02T12:35:14Z</time>
      </trkpt>
      <trkpt lat="42.307407" lon="1.856851">
        <ele>1224.57190</ele>
        <time>2021-07-02T12:35:15Z</time>
      </trkpt>
      <trkpt lat="42.307407" lon="1.856851">
        <ele>1224.57190</ele>
        <time>2021-07-02T12:35:16Z</time>
      </trkpt>
      <trkpt lat="42.307407" lon="1.856851">
        <ele>1224.57190</ele>
        <time>2021-07-02T12:35:17Z</time>
      </trkpt>
      <trkpt lat="42.307407" lon="1.856851">
        <ele>1224.57190</ele>
        <time>2021-07-02T12:35:18Z</time>
      </trkpt>
      <trkpt lat="42.307407" lon="1.856851">
        <ele>1224.57190</ele>
        <time>2021-07-02T12:35:19Z</time>
      </trkpt>
      <trkpt lat="42.307407" lon="1.856851">
        <ele>1224.57190</ele>
        <time>2021-07-02T12:35:20Z</time>
      </trkpt>
      <trkpt lat="42.307407" lon="1.856851">
        <ele>1224.57190</ele>
        <time>2021-07-02T12:35:21Z</time>
      </trkpt>
      <trkpt lat="42.307407" lon="1.856851">
        <ele>1224.57190</ele>
        <time>2021-07-02T12:35:22Z</time>
      </trkpt>
      <trkpt lat="42.307407" lon="1.856851">
        <ele>1224.57190</ele>
        <time>2021-07-02T12:35:23Z</time>
      </trkpt>
      <trkpt lat="42.307407" lon="1.856851">
        <ele>1224.57190</ele>
        <time>2021-07-02T12:35:24Z</time>
      </trkpt>
      <trkpt lat="42.307407" lon="1.856851">
        <ele>1224.57190</ele>
        <time>2021-07-02T12:35:25Z</time>
      </trkpt>
      <trkpt lat="42.307407" lon="1.856851">
        <ele>1224.57190</ele>
        <time>2021-07-02T12:35:26Z</time>
      </trkpt>
      <trkpt lat="42.307407" lon="1.856851">
        <ele>1224.57190</ele>
        <time>2021-07-02T12:35:27Z</time>
      </trkpt>
      <trkpt lat="42.307407" lon="1.856851">
        <ele>1224.57190</ele>
        <time>2021-07-02T12:35:28Z</time>
      </trkpt>
      <trkpt lat="42.307407" lon="1.856851">
        <ele>1224.57190</ele>
        <time>2021-07-02T12:35:29Z</time>
      </trkpt>
      <trkpt lat="42.294350" lon="1.853030">
        <ele>1224.57190</ele>
        <time>2021-07-02T12:35:30Z</time>
      </trkpt>
      <trkpt lat="42.294350" lon="1.853030">
        <ele>1224.57190</ele>
        <time>2021-07-02T12:35:31Z</time>
      </trkpt>
      <trkpt lat="42.294350" lon="1.853030">
        <ele>1224.57190</ele>
        <time>2021-07-02T12:35:32Z</time>
      </trkpt>
      <trkpt lat="42.294350" lon="1.853030">
        <ele>1224.57190</ele>
        <time>2021-07-02T12:35:33Z</time>
      </trkpt>
      <trkpt lat="42.294304" lon="1.853042">
        <ele>1224.57190</ele>
        <time>2021-07-02T12:35:34Z</time>
      </trkpt>
      <trkpt lat="42.294304" lon="1.853042">
        <ele>1224.57190</ele>
        <time>2021-07-02T12:35:35Z</time>
      </trkpt>
      <trkpt lat="42.294304" lon="1.853042">
        <ele>1224.57190</ele>
        <time>2021-07-02T12:35:36Z</time>
      </trkpt>
      <trkpt lat="42.294296" lon="1.853044">
        <ele>1224.57190</ele>
        <time>2021-07-02T12:35:37Z</time>
      </trkpt>
      <trkpt lat="42.294296" lon="1.853044">
        <ele>1224.57190</ele>
        <time>2021-07-02T12:35:38Z</time>
      </trkpt>
      <trkpt lat="42.294296" lon="1.853044">
        <ele>1224.57190</ele>
        <time>2021-07-02T12:35:39Z</time>
      </trkpt>
      <trkpt lat="42.294296" lon="1.853044">
        <ele>1224.57190</ele>
        <time>2021-07-02T12:35:40Z</time>
      </trkpt>
      <trkpt lat="42.294296" lon="1.853044">
        <ele>1224.57190</ele>
        <time>2021-07-02T12:35:41Z</time>
      </trkpt>
      <trkpt lat="42.294296" lon="1.853044">
        <ele>1224.57190</ele>
        <time>2021-07-02T12:35:42Z</time>
      </trkpt>
      <trkpt lat="42.294296" lon="1.853044">
        <ele>1178.78882</ele>
        <time>2021-07-02T12:35:43Z</time>
      </trkpt>
      <trkpt lat="42.294235" lon="1.856270">
        <ele>1174.24060</ele>
        <time>2021-07-02T12:35:44Z</time>
      </trkpt>
      <trkpt lat="42.294014" lon="1.862554">
        <ele>1175.42651</ele>
        <time>2021-07-02T12:35:45Z</time>
      </trkpt>
      <trkpt lat="42.293896" lon="1.862338">
        <ele>1168.62573</ele>
        <time>2021-07-02T12:35:46Z</time>
      </trkpt>
      <trkpt lat="42.293896" lon="1.862338">
        <ele>1169.49451</ele>
        <time>2021-07-02T12:35:47Z</time>
      </trkpt>
      <trkpt lat="42.293793" lon="1.862053">
        <ele>1170.43994</ele>
        <time>2021-07-02T12:35:48Z</time>
      </trkpt>
      <trkpt lat="42.293705" lon="1.861741">
        <ele>1170.25171</ele>
        <time>2021-07-02T12:35:49Z</time>
      </trkpt>
      <trkpt lat="42.293625" lon="1.861412">
        <ele>1168.77515</ele>
        <time>2021-07-02T12:35:50Z</time>
      </trkpt>
      <trkpt lat="42.293552" lon="1.861107">
        <ele>1167.96924</ele>
        <time>2021-07-02T12:35:51Z</time>
      </trkpt>
      <trkpt lat="42.293484" lon="1.860835">
        <ele>1167.00842</ele>
        <time>2021-07-02T12:35:52Z</time>
      </trkpt>
      <trkpt lat="42.293400" lon="1.860558">
        <ele>1166.66113</ele>
        <time>2021-07-02T12:35:53Z</time>
      </trkpt>
      <trkpt lat="42.293266" lon="1.860282">
        <ele>1166.25354</ele>
        <time>2021-07-02T12:35:54Z</time>
      </trkpt>
      <trkpt lat="42.293133" lon="1.860013">
        <ele>1164.64270</ele>
        <time>2021-07-02T12:35:55Z</time>
      </trkpt>
      <trkpt lat="42.292976" lon="1.859747">
        <ele>1162.81506</ele>
        <time>2021-07-02T12:35:56Z</time>
      </trkpt>
      <trkpt lat="42.292793" lon="1.859497">
        <ele>1161.63049</ele>
        <time>2021-07-02T12:35:57Z</time>
      </trkpt>
      <trkpt lat="42.292618" lon="1.859297">
        <ele>1160.25439</ele>
        <time>2021-07-02T12:35:58Z</time>
      </trkpt>
      <trkpt lat="42.292404" lon="1.859126">
        <ele>1158.57019</ele>
        <time>2021-07-02T12:35:59Z</time>
      </trkpt>
      <trkpt lat="42.292187" lon="1.859007">
        <ele>1157.29822</ele>
        <time>2021-07-02T12:36:00Z</time>
      </trkpt>
      <trkpt lat="42.291965" lon="1.858903">
        <ele>1155.79553</ele>
        <time>2021-07-02T12:36:01Z</time>
      </trkpt>
      <trkpt lat="42.291737" lon="1.858798">
        <ele>1154.73962</ele>
        <time>2021-07-02T12:36:02Z</time>
      </trkpt>
      <trkpt lat="42.291489" lon="1.858685">
        <ele>1152.56226</ele>
        <time>2021-07-02T12:36:03Z</time>
      </trkpt>
      <trkpt lat="42.291222" lon="1.858556">
        <ele>1150.68213</ele>
        <time>2021-07-02T12:36:04Z</time>
      </trkpt>
      <trkpt lat="42.290997" lon="1.858412">
        <ele>1148.82214</ele>
        <time>2021-07-02T12:36:05Z</time>
      </trkpt>
      <trkpt lat="42.290791" lon="1.858232">
        <ele>1147.78967</ele>
        <time>2021-07-02T12:36:06Z</time>
      </trkpt>
      <trkpt lat="42.290611" lon="1.858012">
        <ele>1146.48206</ele>
        <time>2021-07-02T12:36:07Z</time>
      </trkpt>
      <trkpt lat="42.290443" lon="1.857769">
        <ele>1145.11475</ele>
        <time>2021-07-02T12:36:08Z</time>
      </trkpt>
      <trkpt lat="42.290287" lon="1.857508">
        <ele>1143.60425</ele>
        <time>2021-07-02T12:36:09Z</time>
      </trkpt>
      <trkpt lat="42.290131" lon="1.857212">
        <ele>1140.62646</ele>
        <time>2021-07-02T12:36:10Z</time>
      </trkpt>
      <trkpt lat="42.289993" lon="1.856887">
        <ele>1136.95093</ele>
        <time>2021-07-02T12:36:11Z</time>
      </trkpt>
      <trkpt lat="42.289875" lon="1.856602">
        <ele>1135.40576</ele>
        <time>2021-07-02T12:36:12Z</time>
      </trkpt>
      <trkpt lat="42.289761" lon="1.856327">
        <ele>1132.94775</ele>
        <time>2021-07-02T12:36:13Z</time>
      </trkpt>
      <trkpt lat="42.289650" lon="1.856045">
        <ele>1130.64502</ele>
        <time>2021-07-02T12:36:14Z</time>
      </trkpt>
      <trkpt lat="42.289539" lon="1.855744">
        <ele>1128.25574</ele>
        <time>2021-07-02T12:36:15Z</time>
      </trkpt>
      <trkpt lat="42.289429" lon="1.855425">
        <ele>1126.84192</ele>
        <time>2021-07-02T12:36:16Z</time>
      </trkpt>
      <trkpt lat="42.289330" lon="1.855088">
        <ele>1124.92761</ele>
        <time>2021-07-02T12:36:17Z</time>
      </trkpt>
      <trkpt lat="42.289234" lon="1.854757">
        <ele>1122.56311</ele>
        <time>2021-07-02T12:36:18Z</time>
      </trkpt>
      <trkpt lat="42.289131" lon="1.854446">
        <ele>1119.94348</ele>
        <time>2021-07-02T12:36:19Z</time>
      </trkpt>
      <trkpt lat="42.289017" lon="1.854153">
        <ele>1118.50854</ele>
        <time>2021-07-02T12:36:20Z</time>
      </trkpt>
      <trkpt lat="42.288868" lon="1.853911">
        <ele>1118.52502</ele>
        <time>2021-07-02T12:36:21Z</time>
      </trkpt>
      <trkpt lat="42.288689" lon="1.853689">
        <ele>1114.86340</ele>
        <time>2021-07-02T12:36:22Z</time>
      </trkpt>
      <trkpt lat="42.288502" lon="1.853512">
        <ele>1112.78979</ele>
        <time>2021-07-02T12:36:23Z</time>
      </trkpt>
      <trkpt lat="42.288284" lon="1.853319">
        <ele>1110.91284</ele>
        <time>2021-07-02T12:36:24Z</time>
      </trkpt>
      <trkpt lat="42.288067" lon="1.853130">
        <ele>1109.47864</ele>
        <time>2021-07-02T12:36:25Z</time>
      </trkpt>
      <trkpt lat="42.287861" lon="1.852901">
        <ele>1107.75940</ele>
        <time>2021-07-02T12:36:26Z</time>
      </trkpt>
      <trkpt lat="42.287693" lon="1.852652">
        <ele>1105.72351</ele>
        <time>2021-07-02T12:36:27Z</time>
      </trkpt>
      <trkpt lat="42.287518" lon="1.852385">
        <ele>1102.45215</ele>
        <time>2021-07-02T12:36:28Z</time>
      </trkpt>
      <trkpt lat="42.287354" lon="1.852137">
        <ele>1099.85791</ele>
        <time>2021-07-02T12:36:29Z</time>
      </trkpt>
      <trkpt lat="42.287170" lon="1.851875">
        <ele>1098.02832</ele>
        <time>2021-07-02T12:36:30Z</time>
      </trkpt>
      <trkpt lat="42.287170" lon="1.851875">
        <ele>1096.29163</ele>
        <time>2021-07-02T12:36:31Z</time>
      </trkpt>
      <trkpt lat="42.286976" lon="1.851627">
        <ele>1095.26465</ele>
        <time>2021-07-02T12:36:32Z</time>
      </trkpt>
      <trkpt lat="42.286774" lon="1.851392">
        <ele>1093.36768</ele>
        <time>2021-07-02T12:36:33Z</time>
      </trkpt>
      <trkpt lat="42.286552" lon="1.851168">
        <ele>1092.19763</ele>
        <time>2021-07-02T12:36:34Z</time>
      </trkpt>
      <trkpt lat="42.286301" lon="1.850945">
        <ele>1088.47095</ele>
        <time>2021-07-02T12:36:35Z</time>
      </trkpt>
      <trkpt lat="42.286064" lon="1.850755">
        <ele>1087.11450</ele>
        <time>2021-07-02T12:36:36Z</time>
      </trkpt>
      <trkpt lat="42.285835" lon="1.850592">
        <ele>1086.34521</ele>
        <time>2021-07-02T12:36:37Z</time>
      </trkpt>
      <trkpt lat="42.285606" lon="1.850436">
        <ele>1083.63574</ele>
        <time>2021-07-02T12:36:38Z</time>
      </trkpt>
      <trkpt lat="42.285374" lon="1.850298">
        <ele>1079.23694</ele>
        <time>2021-07-02T12:36:39Z</time>
      </trkpt>
      <trkpt lat="42.285130" lon="1.850180">
        <ele>1076.44739</ele>
        <time>2021-07-02T12:36:40Z</time>
      </trkpt>
      <trkpt lat="42.284901" lon="1.850103">
        <ele>1075.22607</ele>
        <time>2021-07-02T12:36:41Z</time>
      </trkpt>
      <trkpt lat="42.284683" lon="1.850072">
        <ele>1073.17957</ele>
        <time>2021-07-02T12:36:42Z</time>
      </trkpt>
      <trkpt lat="42.284458" lon="1.850088">
        <ele>1072.41663</ele>
        <time>2021-07-02T12:36:43Z</time>
      </trkpt>
      <trkpt lat="42.284214" lon="1.850153">
        <ele>1071.53625</ele>
        <time>2021-07-02T12:36:44Z</time>
      </trkpt>
      <trkpt lat="42.283958" lon="1.850244">
        <ele>1070.37390</ele>
        <time>2021-07-02T12:36:45Z</time>
      </trkpt>
      <trkpt lat="42.283699" lon="1.850367">
        <ele>1068.78479</ele>
        <time>2021-07-02T12:36:46Z</time>
      </trkpt>
      <trkpt lat="42.283447" lon="1.850549">
        <ele>1068.44177</ele>
        <time>2021-07-02T12:36:47Z</time>
      </trkpt>
      <trkpt lat="42.283237" lon="1.850777">
        <ele>1066.06079</ele>
        <time>2021-07-02T12:36:48Z</time>
      </trkpt>
      <trkpt lat="42.283043" lon="1.851007">
        <ele>1067.08716</ele>
        <time>2021-07-02T12:36:49Z</time>
      </trkpt>
      <trkpt lat="42.282848" lon="1.851237">
        <ele>1064.96228</ele>
        <time>2021-07-02T12:36:50Z</time>
      </trkpt>
      <trkpt lat="42.282646" lon="1.851470">
        <ele>1063.90588</ele>
        <time>2021-07-02T12:36:51Z</time>
      </trkpt>
      <trkpt lat="42.282440" lon="1.851710">
        <ele>1062.99121</ele>
        <time>2021-07-02T12:36:52Z</time>
      </trkpt>
      <trkpt lat="42.282246" lon="1.851937">
        <ele>1062.82080</ele>
        <time>2021-07-02T12:36:53Z</time>
      </trkpt>
      <trkpt lat="42.282036" lon="1.852184">
        <ele>1061.87207</ele>
        <time>2021-07-02T12:36:54Z</time>
      </trkpt>
      <trkpt lat="42.281830" lon="1.852421">
        <ele>1060.15625</ele>
        <time>2021-07-02T12:36:55Z</time>
      </trkpt>
      <trkpt lat="42.281635" lon="1.852638">
        <ele>1059.54907</ele>
        <time>2021-07-02T12:36:56Z</time>
      </trkpt>
      <trkpt lat="42.281448" lon="1.852806">
        <ele>1059.65723</ele>
        <time>2021-07-02T12:36:57Z</time>
      </trkpt>
      <trkpt lat="42.281246" lon="1.852926">
        <ele>1058.53662</ele>
        <time>2021-07-02T12:36:58Z</time>
      </trkpt>
      <trkpt lat="42.280994" lon="1.853015">
        <ele>1057.10071</ele>
        <time>2021-07-02T12:36:59Z</time>
      </trkpt>
      <trkpt lat="42.280758" lon="1.853038">
        <ele>1054.60059</ele>
        <time>2021-07-02T12:37:00Z</time>
      </trkpt>
      <trkpt lat="42.280514" lon="1.853005">
        <ele>1051.67273</ele>
        <time>2021-07-02T12:37:01Z</time>
      </trkpt>
      <trkpt lat="42.280262" lon="1.852901">
        <ele>1050.85413</ele>
        <time>2021-07-02T12:37:02Z</time>
      </trkpt>
      <trkpt lat="42.280025" lon="1.852763">
        <ele>1049.77539</ele>
        <time>2021-07-02T12:37:03Z</time>
      </trkpt>
      <trkpt lat="42.279785" lon="1.852604">
        <ele>1045.19165</ele>
        <time>2021-07-02T12:37:04Z</time>
      </trkpt>
      <trkpt lat="42.279545" lon="1.852451">
        <ele>1044.03955</ele>
        <time>2021-07-02T12:37:05Z</time>
      </trkpt>
      <trkpt lat="42.279320" lon="1.852338">
        <ele>1043.07910</ele>
        <time>2021-07-02T12:37:06Z</time>
      </trkpt>
      <trkpt lat="42.279083" lon="1.852277">
        <ele>1039.89526</ele>
        <time>2021-07-02T12:37:07Z</time>
      </trkpt>
      <trkpt lat="42.279083" lon="1.852277">
        <ele>1038.74146</ele>
        <time>2021-07-02T12:37:08Z</time>
      </trkpt>
      <trkpt lat="42.278847" lon="1.852275">
        <ele>1035.35315</ele>
        <time>2021-07-02T12:37:09Z</time>
      </trkpt>
      <trkpt lat="42.278614" lon="1.852329">
        <ele>1033.66406</ele>
        <time>2021-07-02T12:37:10Z</time>
      </trkpt>
      <trkpt lat="42.278366" lon="1.852435">
        <ele>1031.71619</ele>
        <time>2021-07-02T12:37:11Z</time>
      </trkpt>
      <trkpt lat="42.278107" lon="1.852573">
        <ele>1030.21692</ele>
        <time>2021-07-02T12:37:12Z</time>
      </trkpt>
      <trkpt lat="42.277843" lon="1.852713">
        <ele>1028.25586</ele>
        <time>2021-07-02T12:37:13Z</time>
      </trkpt>
      <trkpt lat="42.277596" lon="1.852838">
        <ele>1026.81506</ele>
        <time>2021-07-02T12:37:14Z</time>
      </trkpt>
      <trkpt lat="42.277306" lon="1.852934">
        <ele>1025.10339</ele>
        <time>2021-07-02T12:37:15Z</time>
      </trkpt>
      <trkpt lat="42.277027" lon="1.852987">
        <ele>1024.05981</ele>
        <time>2021-07-02T12:37:16Z</time>
      </trkpt>
      <trkpt lat="42.276726" lon="1.853029">
        <ele>1021.71704</ele>
        <time>2021-07-02T12:37:17Z</time>
      </trkpt>
      <trkpt lat="42.276421" lon="1.853073">
        <ele>1020.97791</ele>
        <time>2021-07-02T12:37:18Z</time>
      </trkpt>
      <trkpt lat="42.276119" lon="1.853119">
        <ele>1020.79797</ele>
        <time>2021-07-02T12:37:19Z</time>
      </trkpt>
      <trkpt lat="42.275818" lon="1.853170">
        <ele>1019.26587</ele>
        <time>2021-07-02T12:37:20Z</time>
      </trkpt>
      <trkpt lat="42.275513" lon="1.853221">
        <ele>1018.59314</ele>
        <time>2021-07-02T12:37:21Z</time>
      </trkpt>
      <trkpt lat="42.275227" lon="1.853270">
        <ele>1017.70532</ele>
        <time>2021-07-02T12:37:22Z</time>
      </trkpt>
      <trkpt lat="42.274933" lon="1.853321">
        <ele>1016.13013</ele>
        <time>2021-07-02T12:37:23Z</time>
      </trkpt>
      <trkpt lat="42.274651" lon="1.853368">
        <ele>1013.91943</ele>
        <time>2021-07-02T12:37:24Z</time>
      </trkpt>
      <trkpt lat="42.274364" lon="1.853418">
        <ele>1012.23132</ele>
        <time>2021-07-02T12:37:25Z</time>
      </trkpt>
      <trkpt lat="42.274078" lon="1.853467">
        <ele>1011.18909</ele>
        <time>2021-07-02T12:37:26Z</time>
      </trkpt>
      <trkpt lat="42.273792" lon="1.853515">
        <ele>1010.45264</ele>
        <time>2021-07-02T12:37:27Z</time>
      </trkpt>
      <trkpt lat="42.273499" lon="1.853565">
        <ele>1009.33142</ele>
        <time>2021-07-02T12:37:28Z</time>
      </trkpt>
      <trkpt lat="42.273228" lon="1.853612">
        <ele>1008.41016</ele>
        <time>2021-07-02T12:37:29Z</time>
      </trkpt>
      <trkpt lat="42.272968" lon="1.853657">
        <ele>1007.32349</ele>
        <time>2021-07-02T12:37:30Z</time>
      </trkpt>
      <trkpt lat="42.272713" lon="1.853702">
        <ele>1006.53918</ele>
        <time>2021-07-02T12:37:31Z</time>
      </trkpt>
      <trkpt lat="42.272461" lon="1.853757">
        <ele>1005.98987</ele>
        <time>2021-07-02T12:37:32Z</time>
      </trkpt>
      <trkpt lat="42.272217" lon="1.853821">
        <ele>1006.61914</ele>
        <time>2021-07-02T12:37:33Z</time>
      </trkpt>
      <trkpt lat="42.271984" lon="1.853914">
        <ele>1005.75281</ele>
        <time>2021-07-02T12:37:34Z</time>
      </trkpt>
      <trkpt lat="42.271824" lon="1.853993">
        <ele>1002.87402</ele>
        <time>2021-07-02T12:37:35Z</time>
      </trkpt>
      <trkpt lat="42.271637" lon="1.854129">
        <ele>1001.42004</ele>
        <time>2021-07-02T12:37:36Z</time>
      </trkpt>
      <trkpt lat="42.271442" lon="1.854271">
        <ele>999.86670</ele>
        <time>2021-07-02T12:37:37Z</time>
      </trkpt>
      <trkpt lat="42.271248" lon="1.854414">
        <ele>998.02344</ele>
        <time>2021-07-02T12:37:38Z</time>
      </trkpt>
      <trkpt lat="42.271248" lon="1.854414">
        <ele>996.13257</ele>
        <time>2021-07-02T12:37:39Z</time>
      </trkpt>
      <trkpt lat="42.271030" lon="1.854550">
        <ele>994.79834</ele>
        <time>2021-07-02T12:37:40Z</time>
      </trkpt>
      <trkpt lat="42.270805" lon="1.854641">
        <ele>991.81372</ele>
        <time>2021-07-02T12:37:41Z</time>
      </trkpt>
      <trkpt lat="42.270580" lon="1.854676">
        <ele>991.05884</ele>
        <time>2021-07-02T12:37:42Z</time>
      </trkpt>
      <trkpt lat="42.270351" lon="1.854649">
        <ele>987.61377</ele>
        <time>2021-07-02T12:37:43Z</time>
      </trkpt>
      <trkpt lat="42.270126" lon="1.854596">
        <ele>986.13635</ele>
        <time>2021-07-02T12:37:44Z</time>
      </trkpt>
      <trkpt lat="42.269878" lon="1.854520">
        <ele>984.53284</ele>
        <time>2021-07-02T12:37:45Z</time>
      </trkpt>
      <trkpt lat="42.269600" lon="1.854427">
        <ele>983.64136</ele>
        <time>2021-07-02T12:37:46Z</time>
      </trkpt>
      <trkpt lat="42.269344" lon="1.854342">
        <ele>982.67517</ele>
        <time>2021-07-02T12:37:47Z</time>
      </trkpt>
      <trkpt lat="42.269119" lon="1.854265">
        <ele>981.67627</ele>
        <time>2021-07-02T12:37:48Z</time>
      </trkpt>
      <trkpt lat="42.268875" lon="1.854183">
        <ele>980.77283</ele>
        <time>2021-07-02T12:37:49Z</time>
      </trkpt>
      <trkpt lat="42.268646" lon="1.854081">
        <ele>977.98877</ele>
        <time>2021-07-02T12:37:50Z</time>
      </trkpt>
      <trkpt lat="42.268433" lon="1.853916">
        <ele>975.87366</ele>
        <time>2021-07-02T12:37:51Z</time>
      </trkpt>
      <trkpt lat="42.268227" lon="1.853687">
        <ele>974.99146</ele>
        <time>2021-07-02T12:37:52Z</time>
      </trkpt>
      <trkpt lat="42.268032" lon="1.853443">
        <ele>973.49500</ele>
        <time>2021-07-02T12:37:53Z</time>
      </trkpt>
      <trkpt lat="42.267841" lon="1.853218">
        <ele>971.71973</ele>
        <time>2021-07-02T12:37:54Z</time>
      </trkpt>
      <trkpt lat="42.267628" lon="1.853035">
        <ele>970.30127</ele>
        <time>2021-07-02T12:37:55Z</time>
      </trkpt>
      <trkpt lat="42.267406" lon="1.852872">
        <ele>968.80969</ele>
        <time>2021-07-02T12:37:56Z</time>
      </trkpt>
      <trkpt lat="42.267181" lon="1.852713">
        <ele>967.21326</ele>
        <time>2021-07-02T12:37:57Z</time>
      </trkpt>
      <trkpt lat="42.266953" lon="1.852553">
        <ele>966.21973</ele>
        <time>2021-07-02T12:37:58Z</time>
      </trkpt>
      <trkpt lat="42.266716" lon="1.852397">
        <ele>964.24573</ele>
        <time>2021-07-02T12:37:59Z</time>
      </trkpt>
      <trkpt lat="42.266506" lon="1.852269">
        <ele>962.65674</ele>
        <time>2021-07-02T12:38:00Z</time>
      </trkpt>
      <trkpt lat="42.266296" lon="1.852176">
        <ele>960.26550</ele>
        <time>2021-07-02T12:38:01Z</time>
      </trkpt>
      <trkpt lat="42.266083" lon="1.852131">
        <ele>959.49268</ele>
        <time>2021-07-02T12:38:02Z</time>
      </trkpt>
      <trkpt lat="42.265869" lon="1.852130">
        <ele>957.38794</ele>
        <time>2021-07-02T12:38:03Z</time>
      </trkpt>
      <trkpt lat="42.265656" lon="1.852170">
        <ele>955.19141</ele>
        <time>2021-07-02T12:38:04Z</time>
      </trkpt>
      <trkpt lat="42.265415" lon="1.852262">
        <ele>953.25146</ele>
        <time>2021-07-02T12:38:05Z</time>
      </trkpt>
      <trkpt lat="42.265179" lon="1.852375">
        <ele>951.86426</ele>
        <time>2021-07-02T12:38:06Z</time>
      </trkpt>
      <trkpt lat="42.264946" lon="1.852488">
        <ele>950.39526</ele>
        <time>2021-07-02T12:38:07Z</time>
      </trkpt>
      <trkpt lat="42.264732" lon="1.852563">
        <ele>948.25891</ele>
        <time>2021-07-02T12:38:08Z</time>
      </trkpt>
      <trkpt lat="42.264519" lon="1.852601">
        <ele>947.65332</ele>
        <time>2021-07-02T12:38:09Z</time>
      </trkpt>
      <trkpt lat="42.264313" lon="1.852601">
        <ele>946.74927</ele>
        <time>2021-07-02T12:38:10Z</time>
      </trkpt>
      <trkpt lat="42.264080" lon="1.852566">
        <ele>945.55298</ele>
        <time>2021-07-02T12:38:11Z</time>
      </trkpt>
      <trkpt lat="42.263836" lon="1.852528">
        <ele>944.82666</ele>
        <time>2021-07-02T12:38:12Z</time>
      </trkpt>
      <trkpt lat="42.263618" lon="1.852505">
        <ele>944.39001</ele>
        <time>2021-07-02T12:38:13Z</time>
      </trkpt>
      <trkpt lat="42.263390" lon="1.852508">
        <ele>943.16504</ele>
        <time>2021-07-02T12:38:14Z</time>
      </trkpt>
      <trkpt lat="42.263390" lon="1.852508">
        <ele>942.45435</ele>
        <time>2021-07-02T12:38:15Z</time>
      </trkpt>
      <trkpt lat="42.263168" lon="1.852544">
        <ele>941.08838</ele>
        <time>2021-07-02T12:38:16Z</time>
      </trkpt>
      <trkpt lat="42.262939" lon="1.852590">
        <ele>939.83813</ele>
        <time>2021-07-02T12:38:17Z</time>
      </trkpt>
      <trkpt lat="42.262737" lon="1.852635">
        <ele>938.64478</ele>
        <time>2021-07-02T12:38:18Z</time>
      </trkpt>
      <trkpt lat="42.262539" lon="1.852687">
        <ele>935.66113</ele>
        <time>2021-07-02T12:38:19Z</time>
      </trkpt>
      <trkpt lat="42.262329" lon="1.852756">
        <ele>931.96155</ele>
        <time>2021-07-02T12:38:20Z</time>
      </trkpt>
      <trkpt lat="42.262138" lon="1.852859">
        <ele>927.66699</ele>
        <time>2021-07-02T12:38:21Z</time>
      </trkpt>
      <trkpt lat="42.261978" lon="1.852988">
        <ele>925.12561</ele>
        <time>2021-07-02T12:38:22Z</time>
      </trkpt>
      <trkpt lat="42.261818" lon="1.853159">
        <ele>920.51123</ele>
        <time>2021-07-02T12:38:23Z</time>
      </trkpt>
      <trkpt lat="42.261681" lon="1.853360">
        <ele>918.73926</ele>
        <time>2021-07-02T12:38:24Z</time>
      </trkpt>
      <trkpt lat="42.261562" lon="1.853600">
        <ele>916.65552</ele>
        <time>2021-07-02T12:38:25Z</time>
      </trkpt>
      <trkpt lat="42.261467" lon="1.853857">
        <ele>914.40259</ele>
        <time>2021-07-02T12:38:26Z</time>
      </trkpt>
      <trkpt lat="42.261387" lon="1.854106">
        <ele>913.19556</ele>
        <time>2021-07-02T12:38:27Z</time>
      </trkpt>
      <trkpt lat="42.261299" lon="1.854359">
        <ele>910.90735</ele>
        <time>2021-07-02T12:38:28Z</time>
      </trkpt>
      <trkpt lat="42.261192" lon="1.854611">
        <ele>909.31384</ele>
        <time>2021-07-02T12:38:29Z</time>
      </trkpt>
      <trkpt lat="42.261082" lon="1.854827">
        <ele>907.67676</ele>
        <time>2021-07-02T12:38:30Z</time>
      </trkpt>
      <trkpt lat="42.260937" lon="1.855015">
        <ele>905.20972</ele>
        <time>2021-07-02T12:38:31Z</time>
      </trkpt>
      <trkpt lat="42.260784" lon="1.855183">
        <ele>905.18311</ele>
        <time>2021-07-02T12:38:32Z</time>
      </trkpt>
      <trkpt lat="42.260624" lon="1.855315">
        <ele>904.40552</ele>
        <time>2021-07-02T12:38:33Z</time>
      </trkpt>
      <trkpt lat="42.260445" lon="1.855441">
        <ele>903.79663</ele>
        <time>2021-07-02T12:38:34Z</time>
      </trkpt>
      <trkpt lat="42.260262" lon="1.855566">
        <ele>902.40332</ele>
        <time>2021-07-02T12:38:35Z</time>
      </trkpt>
      <trkpt lat="42.260071" lon="1.855696">
        <ele>901.17065</ele>
        <time>2021-07-02T12:38:36Z</time>
      </trkpt>
      <trkpt lat="42.259903" lon="1.855834">
        <ele>900.16797</ele>
        <time>2021-07-02T12:38:37Z</time>
      </trkpt>
      <trkpt lat="42.259750" lon="1.856001">
        <ele>896.02173</ele>
        <time>2021-07-02T12:38:38Z</time>
      </trkpt>
      <trkpt lat="42.259613" lon="1.856176">
        <ele>894.55859</ele>
        <time>2021-07-02T12:38:39Z</time>
      </trkpt>
      <trkpt lat="42.259487" lon="1.856342">
        <ele>892.75903</ele>
        <time>2021-07-02T12:38:40Z</time>
      </trkpt>
      <trkpt lat="42.259377" lon="1.856511">
        <ele>891.89307</ele>
        <time>2021-07-02T12:38:41Z</time>
      </trkpt>
      <trkpt lat="42.259254" lon="1.856691">
        <ele>890.87976</ele>
        <time>2021-07-02T12:38:42Z</time>
      </trkpt>
      <trkpt lat="42.259151" lon="1.856861">
        <ele>889.16516</ele>
        <time>2021-07-02T12:38:43Z</time>
      </trkpt>
      <trkpt lat="42.259045" lon="1.857041">
        <ele>887.84570</ele>
        <time>2021-07-02T12:38:44Z</time>
      </trkpt>
      <trkpt lat="42.258945" lon="1.857227">
        <ele>886.55896</ele>
        <time>2021-07-02T12:38:45Z</time>
      </trkpt>
      <trkpt lat="42.258858" lon="1.857408">
        <ele>884.85242</ele>
        <time>2021-07-02T12:38:46Z</time>
      </trkpt>
      <trkpt lat="42.258762" lon="1.857599">
        <ele>882.58679</ele>
        <time>2021-07-02T12:38:47Z</time>
      </trkpt>
      <trkpt lat="42.258762" lon="1.857599">
        <ele>881.21704</ele>
        <time>2021-07-02T12:38:48Z</time>
      </trkpt>
      <trkpt lat="42.258663" lon="1.857805">
        <ele>879.76416</ele>
        <time>2021-07-02T12:38:49Z</time>
      </trkpt>
      <trkpt lat="42.258579" lon="1.858021">
        <ele>877.30408</ele>
        <time>2021-07-02T12:38:50Z</time>
      </trkpt>
      <trkpt lat="42.258503" lon="1.858234">
        <ele>876.61609</ele>
        <time>2021-07-02T12:38:51Z</time>
      </trkpt>
      <trkpt lat="42.258430" lon="1.858464">
        <ele>875.39746</ele>
        <time>2021-07-02T12:38:52Z</time>
      </trkpt>
      <trkpt lat="42.258377" lon="1.858701">
        <ele>874.08496</ele>
        <time>2021-07-02T12:38:53Z</time>
      </trkpt>
      <trkpt lat="42.258327" lon="1.858931">
        <ele>872.99084</ele>
        <time>2021-07-02T12:38:54Z</time>
      </trkpt>
      <trkpt lat="42.258270" lon="1.859182">
        <ele>871.67456</ele>
        <time>2021-07-02T12:38:55Z</time>
      </trkpt>
      <trkpt lat="42.258232" lon="1.859427">
        <ele>870.31189</ele>
        <time>2021-07-02T12:38:56Z</time>
      </trkpt>
      <trkpt lat="42.258198" lon="1.859694">
        <ele>868.54443</ele>
        <time>2021-07-02T12:38:57Z</time>
      </trkpt>
      <trkpt lat="42.258179" lon="1.859964">
        <ele>867.40186</ele>
        <time>2021-07-02T12:38:58Z</time>
      </trkpt>
      <trkpt lat="42.258167" lon="1.860249">
        <ele>865.71875</ele>
        <time>2021-07-02T12:38:59Z</time>
      </trkpt>
      <trkpt lat="42.258167" lon="1.860558">
        <ele>864.41455</ele>
        <time>2021-07-02T12:39:00Z</time>
      </trkpt>
      <trkpt lat="42.258175" lon="1.860869">
        <ele>861.39636</ele>
        <time>2021-07-02T12:39:01Z</time>
      </trkpt>
      <trkpt lat="42.258202" lon="1.861202">
        <ele>860.34094</ele>
        <time>2021-07-02T12:39:02Z</time>
      </trkpt>
      <trkpt lat="42.258228" lon="1.861520">
        <ele>858.39807</ele>
        <time>2021-07-02T12:39:03Z</time>
      </trkpt>
      <trkpt lat="42.258255" lon="1.861805">
        <ele>856.38501</ele>
        <time>2021-07-02T12:39:04Z</time>
      </trkpt>
      <trkpt lat="42.258274" lon="1.862093">
        <ele>854.64075</ele>
        <time>2021-07-02T12:39:05Z</time>
      </trkpt>
      <trkpt lat="42.258286" lon="1.862404">
        <ele>853.20801</ele>
        <time>2021-07-02T12:39:06Z</time>
      </trkpt>
      <trkpt lat="42.258270" lon="1.862715">
        <ele>850.39111</ele>
        <time>2021-07-02T12:39:07Z</time>
      </trkpt>
      <trkpt lat="42.258240" lon="1.863023">
        <ele>848.02283</ele>
        <time>2021-07-02T12:39:08Z</time>
      </trkpt>
      <trkpt lat="42.258179" lon="1.863328">
        <ele>846.30103</ele>
        <time>2021-07-02T12:39:09Z</time>
      </trkpt>
      <trkpt lat="42.258091" lon="1.863631">
        <ele>844.81079</ele>
        <time>2021-07-02T12:39:10Z</time>
      </trkpt>
      <trkpt lat="42.257988" lon="1.863909">
        <ele>843.46851</ele>
        <time>2021-07-02T12:39:11Z</time>
      </trkpt>
      <trkpt lat="42.257866" lon="1.864169">
        <ele>841.50513</ele>
        <time>2021-07-02T12:39:12Z</time>
      </trkpt>
      <trkpt lat="42.257732" lon="1.864392">
        <ele>840.25659</ele>
        <time>2021-07-02T12:39:13Z</time>
      </trkpt>
      <trkpt lat="42.257584" lon="1.864604">
        <ele>838.61572</ele>
        <time>2021-07-02T12:39:14Z</time>
      </trkpt>
      <trkpt lat="42.257416" lon="1.864800">
        <ele>837.30432</ele>
        <time>2021-07-02T12:39:15Z</time>
      </trkpt>
      <trkpt lat="42.257236" lon="1.864978">
        <ele>835.59741</ele>
        <time>2021-07-02T12:39:16Z</time>
      </trkpt>
      <trkpt lat="42.257046" lon="1.865116">
        <ele>833.35278</ele>
        <time>2021-07-02T12:39:17Z</time>
      </trkpt>
      <trkpt lat="42.256855" lon="1.865237">
        <ele>831.44238</ele>
        <time>2021-07-02T12:39:18Z</time>
      </trkpt>
      <trkpt lat="42.256660" lon="1.865325">
        <ele>829.47949</ele>
        <time>2021-07-02T12:39:19Z</time>
      </trkpt>
      <trkpt lat="42.256454" lon="1.865388">
        <ele>827.58521</ele>
        <time>2021-07-02T12:39:20Z</time>
      </trkpt>
      <trkpt lat="42.256252" lon="1.865425">
        <ele>826.53430</ele>
        <time>2021-07-02T12:39:21Z</time>
      </trkpt>
      <trkpt lat="42.256065" lon="1.865441">
        <ele>825.06042</ele>
        <time>2021-07-02T12:39:22Z</time>
      </trkpt>
      <trkpt lat="42.255859" lon="1.865445">
        <ele>823.45435</ele>
        <time>2021-07-02T12:39:23Z</time>
      </trkpt>
      <trkpt lat="42.255859" lon="1.865445">
        <ele>821.46057</ele>
        <time>2021-07-02T12:39:24Z</time>
      </trkpt>
      <trkpt lat="42.255650" lon="1.865450">
        <ele>820.54150</ele>
        <time>2021-07-02T12:39:25Z</time>
      </trkpt>
      <trkpt lat="42.255436" lon="1.865454">
        <ele>818.36914</ele>
        <time>2021-07-02T12:39:26Z</time>
      </trkpt>
      <trkpt lat="42.255219" lon="1.865467">
        <ele>817.15747</ele>
        <time>2021-07-02T12:39:27Z</time>
      </trkpt>
      <trkpt lat="42.255013" lon="1.865492">
        <ele>815.70142</ele>
        <time>2021-07-02T12:39:28Z</time>
      </trkpt>
      <trkpt lat="42.254807" lon="1.865550">
        <ele>814.75977</ele>
        <time>2021-07-02T12:39:29Z</time>
      </trkpt>
      <trkpt lat="42.254601" lon="1.865617">
        <ele>812.83887</ele>
        <time>2021-07-02T12:39:30Z</time>
      </trkpt>
      <trkpt lat="42.254410" lon="1.865708">
        <ele>811.66199</ele>
        <time>2021-07-02T12:39:31Z</time>
      </trkpt>
      <trkpt lat="42.254208" lon="1.865822">
        <ele>810.43286</ele>
        <time>2021-07-02T12:39:32Z</time>
      </trkpt>
      <trkpt lat="42.254082" lon="1.865918">
        <ele>808.58057</ele>
        <time>2021-07-02T12:39:33Z</time>
      </trkpt>
      <trkpt lat="42.253956" lon="1.865977">
        <ele>807.43445</ele>
        <time>2021-07-02T12:39:34Z</time>
      </trkpt>
      <trkpt lat="42.253674" lon="1.866149">
        <ele>806.57886</ele>
        <time>2021-07-02T12:39:35Z</time>
      </trkpt>
      <trkpt lat="42.253513" lon="1.866270">
        <ele>806.30054</ele>
        <time>2021-07-02T12:39:36Z</time>
      </trkpt>
      <trkpt lat="42.253361" lon="1.866383">
        <ele>805.30151</ele>
        <time>2021-07-02T12:39:37Z</time>
      </trkpt>
      <trkpt lat="42.253201" lon="1.866502">
        <ele>804.03882</ele>
        <time>2021-07-02T12:39:38Z</time>
      </trkpt>
      <trkpt lat="42.253120" lon="1.866814">
        <ele>803.01135</ele>
        <time>2021-07-02T12:39:39Z</time>
      </trkpt>
      <trkpt lat="42.252975" lon="1.866948">
        <ele>802.86182</ele>
        <time>2021-07-02T12:39:40Z</time>
      </trkpt>
      <trkpt lat="42.252823" lon="1.867067">
        <ele>801.74402</ele>
        <time>2021-07-02T12:39:41Z</time>
      </trkpt>
      <trkpt lat="42.252674" lon="1.867172">
        <ele>800.71509</ele>
        <time>2021-07-02T12:39:42Z</time>
      </trkpt>
      <trkpt lat="42.252502" lon="1.867284">
        <ele>800.26221</ele>
        <time>2021-07-02T12:39:43Z</time>
      </trkpt>
      <trkpt lat="42.252331" lon="1.867382">
        <ele>799.11963</ele>
        <time>2021-07-02T12:39:44Z</time>
      </trkpt>
      <trkpt lat="42.252140" lon="1.867465">
        <ele>798.53735</ele>
        <time>2021-07-02T12:39:45Z</time>
      </trkpt>
      <trkpt lat="42.251938" lon="1.867540">
        <ele>798.52002</ele>
        <time>2021-07-02T12:39:46Z</time>
      </trkpt>
      <trkpt lat="42.251724" lon="1.867608">
        <ele>797.03247</ele>
        <time>2021-07-02T12:39:47Z</time>
      </trkpt>
      <trkpt lat="42.251492" lon="1.867652">
        <ele>795.43994</ele>
        <time>2021-07-02T12:39:48Z</time>
      </trkpt>
      <trkpt lat="42.251369" lon="1.867675">
        <ele>793.71936</ele>
        <time>2021-07-02T12:39:49Z</time>
      </trkpt>
      <trkpt lat="42.251049" lon="1.867703">
        <ele>792.60815</ele>
        <time>2021-07-02T12:39:50Z</time>
      </trkpt>
      <trkpt lat="42.250820" lon="1.867727">
        <ele>792.07251</ele>
        <time>2021-07-02T12:39:51Z</time>
      </trkpt>
      <trkpt lat="42.250580" lon="1.867753">
        <ele>791.32324</ele>
        <time>2021-07-02T12:39:52Z</time>
      </trkpt>
      <trkpt lat="42.250343" lon="1.867793">
        <ele>789.61841</ele>
        <time>2021-07-02T12:39:53Z</time>
      </trkpt>
      <trkpt lat="42.250118" lon="1.867849">
        <ele>787.96936</ele>
        <time>2021-07-02T12:39:54Z</time>
      </trkpt>
      <trkpt lat="42.249893" lon="1.867918">
        <ele>786.62830</ele>
        <time>2021-07-02T12:39:55Z</time>
      </trkpt>
      <trkpt lat="42.249680" lon="1.868005">
        <ele>785.80664</ele>
        <time>2021-07-02T12:39:56Z</time>
      </trkpt>
      <trkpt lat="42.249454" lon="1.868118">
        <ele>783.95874</ele>
        <time>2021-07-02T12:39:57Z</time>
      </trkpt>
      <trkpt lat="42.249252" lon="1.868242">
        <ele>782.04175</ele>
        <time>2021-07-02T12:39:58Z</time>
      </trkpt>
      <trkpt lat="42.249065" lon="1.868358">
        <ele>780.31824</ele>
        <time>2021-07-02T12:39:59Z</time>
      </trkpt>
      <trkpt lat="42.248875" lon="1.868477">
        <ele>778.68579</ele>
        <time>2021-07-02T12:40:00Z</time>
      </trkpt>
      <trkpt lat="42.248676" lon="1.868603">
        <ele>776.76196</ele>
        <time>2021-07-02T12:40:01Z</time>
      </trkpt>
      <trkpt lat="42.248478" lon="1.868722">
        <ele>775.85522</ele>
        <time>2021-07-02T12:40:02Z</time>
      </trkpt>
      <trkpt lat="42.248478" lon="1.868722">
        <ele>773.83130</ele>
        <time>2021-07-02T12:40:03Z</time>
      </trkpt>
      <trkpt lat="42.248295" lon="1.868811">
        <ele>773.06104</ele>
        <time>2021-07-02T12:40:04Z</time>
      </trkpt>
      <trkpt lat="42.248119" lon="1.868879">
        <ele>771.61963</ele>
        <time>2021-07-02T12:40:05Z</time>
      </trkpt>
      <trkpt lat="42.247944" lon="1.868942">
        <ele>770.56396</ele>
        <time>2021-07-02T12:40:06Z</time>
      </trkpt>
      <trkpt lat="42.247772" lon="1.868991">
        <ele>769.98486</ele>
        <time>2021-07-02T12:40:07Z</time>
      </trkpt>
      <trkpt lat="42.247616" lon="1.869002">
        <ele>769.29919</ele>
        <time>2021-07-02T12:40:08Z</time>
      </trkpt>
      <trkpt lat="42.247452" lon="1.869022">
        <ele>768.09570</ele>
        <time>2021-07-02T12:40:09Z</time>
      </trkpt>
      <trkpt lat="42.247295" lon="1.869035">
        <ele>767.29297</ele>
        <time>2021-07-02T12:40:10Z</time>
      </trkpt>
      <trkpt lat="42.247124" lon="1.869047">
        <ele>766.30334</ele>
        <time>2021-07-02T12:40:11Z</time>
      </trkpt>
      <trkpt lat="42.246948" lon="1.869049">
        <ele>765.25647</ele>
        <time>2021-07-02T12:40:12Z</time>
      </trkpt>
      <trkpt lat="42.246769" lon="1.869052">
        <ele>763.97485</ele>
        <time>2021-07-02T12:40:13Z</time>
      </trkpt>
      <trkpt lat="42.246571" lon="1.869064">
        <ele>761.80579</ele>
        <time>2021-07-02T12:40:14Z</time>
      </trkpt>
      <trkpt lat="42.246365" lon="1.869093">
        <ele>761.15210</ele>
        <time>2021-07-02T12:40:15Z</time>
      </trkpt>
      <trkpt lat="42.246162" lon="1.869164">
        <ele>759.53809</ele>
        <time>2021-07-02T12:40:16Z</time>
      </trkpt>
      <trkpt lat="42.245945" lon="1.869247">
        <ele>758.49280</ele>
        <time>2021-07-02T12:40:17Z</time>
      </trkpt>
      <trkpt lat="42.245728" lon="1.869371">
        <ele>757.42578</ele>
        <time>2021-07-02T12:40:18Z</time>
      </trkpt>
      <trkpt lat="42.245522" lon="1.869519">
        <ele>754.86841</ele>
        <time>2021-07-02T12:40:19Z</time>
      </trkpt>
      <trkpt lat="42.245327" lon="1.869696">
        <ele>754.39758</ele>
        <time>2021-07-02T12:40:20Z</time>
      </trkpt>
      <trkpt lat="42.245132" lon="1.869869">
        <ele>754.44116</ele>
        <time>2021-07-02T12:40:21Z</time>
      </trkpt>
      <trkpt lat="42.244949" lon="1.870082">
        <ele>754.19312</ele>
        <time>2021-07-02T12:40:22Z</time>
      </trkpt>
      <trkpt lat="42.244736" lon="1.870279">
        <ele>754.32568</ele>
        <time>2021-07-02T12:40:23Z</time>
      </trkpt>
      <trkpt lat="42.244549" lon="1.870453">
        <ele>753.48584</ele>
        <time>2021-07-02T12:40:24Z</time>
      </trkpt>
      <trkpt lat="42.244366" lon="1.870618">
        <ele>753.60840</ele>
        <time>2021-07-02T12:40:25Z</time>
      </trkpt>
      <trkpt lat="42.244183" lon="1.870788">
        <ele>753.00708</ele>
        <time>2021-07-02T12:40:26Z</time>
      </trkpt>
      <trkpt lat="42.243999" lon="1.870960">
        <ele>752.69751</ele>
        <time>2021-07-02T12:40:27Z</time>
      </trkpt>
      <trkpt lat="42.243820" lon="1.871127">
        <ele>752.42700</ele>
        <time>2021-07-02T12:40:28Z</time>
      </trkpt>
      <trkpt lat="42.243641" lon="1.871296">
        <ele>751.90503</ele>
        <time>2021-07-02T12:40:29Z</time>
      </trkpt>
      <trkpt lat="42.243458" lon="1.871465">
        <ele>752.35889</ele>
        <time>2021-07-02T12:40:30Z</time>
      </trkpt>
      <trkpt lat="42.243290" lon="1.871620">
        <ele>751.42993</ele>
        <time>2021-07-02T12:40:31Z</time>
      </trkpt>
      <trkpt lat="42.243141" lon="1.871758">
        <ele>751.00525</ele>
        <time>2021-07-02T12:40:32Z</time>
      </trkpt>
      <trkpt lat="42.242996" lon="1.871890">
        <ele>750.24976</ele>
        <time>2021-07-02T12:40:33Z</time>
      </trkpt>
      <trkpt lat="42.242832" lon="1.872046">
        <ele>749.88184</ele>
        <time>2021-07-02T12:40:34Z</time>
      </trkpt>
      <trkpt lat="42.242680" lon="1.872209">
        <ele>748.45801</ele>
        <time>2021-07-02T12:40:35Z</time>
      </trkpt>
      <trkpt lat="42.242680" lon="1.872209">
        <ele>748.30981</ele>
        <time>2021-07-02T12:40:36Z</time>
      </trkpt>
      <trkpt lat="42.242523" lon="1.872392">
        <ele>747.19409</ele>
        <time>2021-07-02T12:40:37Z</time>
      </trkpt>
      <trkpt lat="42.242378" lon="1.872575">
        <ele>747.32690</ele>
        <time>2021-07-02T12:40:38Z</time>
      </trkpt>
      <trkpt lat="42.242229" lon="1.872774">
        <ele>747.28760</ele>
        <time>2021-07-02T12:40:39Z</time>
      </trkpt>
      <trkpt lat="42.242077" lon="1.872975">
        <ele>747.05518</ele>
        <time>2021-07-02T12:40:40Z</time>
      </trkpt>
      <trkpt lat="42.241943" lon="1.873150">
        <ele>746.24744</ele>
        <time>2021-07-02T12:40:41Z</time>
      </trkpt>
      <trkpt lat="42.241795" lon="1.873324">
        <ele>745.71094</ele>
        <time>2021-07-02T12:40:42Z</time>
      </trkpt>
      <trkpt lat="42.241627" lon="1.873474">
        <ele>745.77856</ele>
        <time>2021-07-02T12:40:43Z</time>
      </trkpt>
      <trkpt lat="42.241447" lon="1.873588">
        <ele>745.41968</ele>
        <time>2021-07-02T12:40:44Z</time>
      </trkpt>
      <trkpt lat="42.241268" lon="1.873658">
        <ele>744.88025</ele>
        <time>2021-07-02T12:40:45Z</time>
      </trkpt>
      <trkpt lat="42.241074" lon="1.873698">
        <ele>743.36157</ele>
        <time>2021-07-02T12:40:46Z</time>
      </trkpt>
      <trkpt lat="42.240883" lon="1.873722">
        <ele>743.13330</ele>
        <time>2021-07-02T12:40:47Z</time>
      </trkpt>
      <trkpt lat="42.240707" lon="1.873737">
        <ele>742.84802</ele>
        <time>2021-07-02T12:40:48Z</time>
      </trkpt>
      <trkpt lat="42.240532" lon="1.873751">
        <ele>742.79065</ele>
        <time>2021-07-02T12:40:49Z</time>
      </trkpt>
      <trkpt lat="42.240356" lon="1.873762">
        <ele>742.37134</ele>
        <time>2021-07-02T12:40:50Z</time>
      </trkpt>
      <trkpt lat="42.240189" lon="1.873786">
        <ele>741.99707</ele>
        <time>2021-07-02T12:40:51Z</time>
      </trkpt>
      <trkpt lat="42.240025" lon="1.873810">
        <ele>741.01929</ele>
        <time>2021-07-02T12:40:52Z</time>
      </trkpt>
      <trkpt lat="42.239861" lon="1.873859">
        <ele>739.67065</ele>
        <time>2021-07-02T12:40:53Z</time>
      </trkpt>
      <trkpt lat="42.239697" lon="1.873950">
        <ele>740.32178</ele>
        <time>2021-07-02T12:40:54Z</time>
      </trkpt>
      <trkpt lat="42.239540" lon="1.874071">
        <ele>738.77808</ele>
        <time>2021-07-02T12:40:55Z</time>
      </trkpt>
      <trkpt lat="42.239376" lon="1.874207">
        <ele>738.37354</ele>
        <time>2021-07-02T12:40:56Z</time>
      </trkpt>
      <trkpt lat="42.239216" lon="1.874343">
        <ele>737.30054</ele>
        <time>2021-07-02T12:40:57Z</time>
      </trkpt>
      <trkpt lat="42.239059" lon="1.874452">
        <ele>735.76294</ele>
        <time>2021-07-02T12:40:58Z</time>
      </trkpt>
      <trkpt lat="42.238914" lon="1.874566">
        <ele>735.42566</ele>
        <time>2021-07-02T12:40:59Z</time>
      </trkpt>
      <trkpt lat="42.238766" lon="1.874681">
        <ele>735.20288</ele>
        <time>2021-07-02T12:41:00Z</time>
      </trkpt>
      <trkpt lat="42.238609" lon="1.874800">
        <ele>735.13696</ele>
        <time>2021-07-02T12:41:01Z</time>
      </trkpt>
      <trkpt lat="42.238464" lon="1.874909">
        <ele>734.83325</ele>
        <time>2021-07-02T12:41:02Z</time>
      </trkpt>
      <trkpt lat="42.238312" lon="1.875000">
        <ele>735.26978</ele>
        <time>2021-07-02T12:41:03Z</time>
      </trkpt>
      <trkpt lat="42.238216" lon="1.875056">
        <ele>735.24854</ele>
        <time>2021-07-02T12:41:04Z</time>
      </trkpt>
      <trkpt lat="42.238178" lon="1.875065">
        <ele>734.68750</ele>
        <time>2021-07-02T12:41:05Z</time>
      </trkpt>
      <trkpt lat="42.237793" lon="1.875153">
        <ele>734.35498</ele>
        <time>2021-07-02T12:41:06Z</time>
      </trkpt>
      <trkpt lat="42.237644" lon="1.875215">
        <ele>734.37659</ele>
        <time>2021-07-02T12:41:07Z</time>
      </trkpt>
      <trkpt lat="42.237503" lon="1.875297">
        <ele>734.30615</ele>
        <time>2021-07-02T12:41:08Z</time>
      </trkpt>
      <trkpt lat="42.237503" lon="1.875297">
        <ele>734.59521</ele>
        <time>2021-07-02T12:41:09Z</time>
      </trkpt>
      <trkpt lat="42.237335" lon="1.875398">
        <ele>734.26440</ele>
        <time>2021-07-02T12:41:10Z</time>
      </trkpt>
      <trkpt lat="42.237171" lon="1.875495">
        <ele>733.07959</ele>
        <time>2021-07-02T12:41:11Z</time>
      </trkpt>
      <trkpt lat="42.237064" lon="1.875892">
        <ele>732.74243</ele>
        <time>2021-07-02T12:41:12Z</time>
      </trkpt>
      <trkpt lat="42.236938" lon="1.876081">
        <ele>732.62329</ele>
        <time>2021-07-02T12:41:13Z</time>
      </trkpt>
      <trkpt lat="42.236824" lon="1.876296">
        <ele>732.00586</ele>
        <time>2021-07-02T12:41:14Z</time>
      </trkpt>
      <trkpt lat="42.236732" lon="1.876505">
        <ele>731.84119</ele>
        <time>2021-07-02T12:41:15Z</time>
      </trkpt>
      <trkpt lat="42.236629" lon="1.876744">
        <ele>731.46411</ele>
        <time>2021-07-02T12:41:16Z</time>
      </trkpt>
      <trkpt lat="42.236526" lon="1.876982">
        <ele>731.04663</ele>
        <time>2021-07-02T12:41:17Z</time>
      </trkpt>
      <trkpt lat="42.236435" lon="1.877199">
        <ele>730.29456</ele>
        <time>2021-07-02T12:41:18Z</time>
      </trkpt>
      <trkpt lat="42.236340" lon="1.877423">
        <ele>730.51538</ele>
        <time>2021-07-02T12:41:19Z</time>
      </trkpt>
      <trkpt lat="42.236240" lon="1.877629">
        <ele>731.25513</ele>
        <time>2021-07-02T12:41:20Z</time>
      </trkpt>
      <trkpt lat="42.236141" lon="1.877814">
        <ele>732.18665</ele>
        <time>2021-07-02T12:41:21Z</time>
      </trkpt>
      <trkpt lat="42.236027" lon="1.878004">
        <ele>732.25403</ele>
        <time>2021-07-02T12:41:22Z</time>
      </trkpt>
      <trkpt lat="42.235912" lon="1.878191">
        <ele>733.01270</ele>
        <time>2021-07-02T12:41:23Z</time>
      </trkpt>
      <trkpt lat="42.235802" lon="1.878367">
        <ele>733.02441</ele>
        <time>2021-07-02T12:41:24Z</time>
      </trkpt>
      <trkpt lat="42.235695" lon="1.878542">
        <ele>733.73621</ele>
        <time>2021-07-02T12:41:25Z</time>
      </trkpt>
      <trkpt lat="42.235584" lon="1.878721">
        <ele>734.88037</ele>
        <time>2021-07-02T12:41:26Z</time>
      </trkpt>
      <trkpt lat="42.235470" lon="1.878908">
        <ele>735.16357</ele>
        <time>2021-07-02T12:41:27Z</time>
      </trkpt>
      <trkpt lat="42.235363" lon="1.879085">
        <ele>735.60669</ele>
        <time>2021-07-02T12:41:28Z</time>
      </trkpt>
      <trkpt lat="42.235249" lon="1.879271">
        <ele>735.67920</ele>
        <time>2021-07-02T12:41:29Z</time>
      </trkpt>
      <trkpt lat="42.235119" lon="1.879483">
        <ele>736.42175</ele>
        <time>2021-07-02T12:41:30Z</time>
      </trkpt>
      <trkpt lat="42.234989" lon="1.879692">
        <ele>737.14185</ele>
        <time>2021-07-02T12:41:31Z</time>
      </trkpt>
      <trkpt lat="42.234863" lon="1.879907">
        <ele>737.31714</ele>
        <time>2021-07-02T12:41:32Z</time>
      </trkpt>
      <trkpt lat="42.234749" lon="1.880107">
        <ele>737.33118</ele>
        <time>2021-07-02T12:41:33Z</time>
      </trkpt>
      <trkpt lat="42.234638" lon="1.880339">
        <ele>737.33118</ele>
        <time>2021-07-02T12:41:34Z</time>
      </trkpt>
      <trkpt lat="42.234528" lon="1.880568">
        <ele>737.33118</ele>
        <time>2021-07-02T12:41:35Z</time>
      </trkpt>
      <trkpt lat="42.234524" lon="1.880583">
        <ele>737.33118</ele>
        <time>2021-07-02T12:41:36Z</time>
      </trkpt>
      <trkpt lat="42.234524" lon="1.880583">
        <ele>737.33118</ele>
        <time>2021-07-02T12:41:37Z</time>
      </trkpt>
      <trkpt lat="42.234524" lon="1.880583">
        <ele>737.33118</ele>
        <time>2021-07-02T12:41:38Z</time>
      </trkpt>
      <trkpt lat="42.234524" lon="1.880583">
        <ele>737.33118</ele>
        <time>2021-07-02T12:41:39Z</time>
      </trkpt>
      <trkpt lat="42.234524" lon="1.880583">
        <ele>737.33118</ele>
        <time>2021-07-02T12:41:40Z</time>
      </trkpt>
      <trkpt lat="42.234524" lon="1.880583">
        <ele>737.33118</ele>
        <time>2021-07-02T12:41:41Z</time>
      </trkpt>
      <trkpt lat="42.234524" lon="1.880583">
        <ele>737.33118</ele>
        <time>2021-07-02T12:41:42Z</time>
      </trkpt>
      <trkpt lat="42.234524" lon="1.880583">
        <ele>737.33118</ele>
        <time>2021-07-02T12:41:43Z</time>
      </trkpt>
      <trkpt lat="42.234524" lon="1.880583">
        <ele>737.33118</ele>
        <time>2021-07-02T12:41:44Z</time>
      </trkpt>
      <trkpt lat="42.234524" lon="1.880583">
        <ele>737.33118</ele>
        <time>2021-07-02T12:41:45Z</time>
      </trkpt>
      <trkpt lat="42.234524" lon="1.880583">
        <ele>737.33118</ele>
        <time>2021-07-02T12:41:46Z</time>
      </trkpt>
      <trkpt lat="42.234524" lon="1.880583">
        <ele>737.33118</ele>
        <time>2021-07-02T12:41:47Z</time>
      </trkpt>
      <trkpt lat="42.234524" lon="1.880583">
        <ele>737.33118</ele>
        <time>2021-07-02T12:41:48Z</time>
      </trkpt>
      <trkpt lat="42.234524" lon="1.880583">
        <ele>737.33118</ele>
        <time>2021-07-02T12:41:49Z</time>
      </trkpt>
      <trkpt lat="42.234524" lon="1.880583">
        <ele>737.33118</ele>
        <time>2021-07-02T12:41:50Z</time>
      </trkpt>
      <trkpt lat="42.234524" lon="1.880583">
        <ele>737.33118</ele>
        <time>2021-07-02T12:41:51Z</time>
      </trkpt>
      <trkpt lat="42.234524" lon="1.880583">
        <ele>726.62683</ele>
        <time>2021-07-02T12:41:52Z</time>
      </trkpt>
      <trkpt lat="42.234524" lon="1.880583">
        <ele>726.14966</ele>
        <time>2021-07-02T12:41:53Z</time>
      </trkpt>
      <trkpt lat="42.232651" lon="1.883930">
        <ele>726.32117</ele>
        <time>2021-07-02T12:41:54Z</time>
      </trkpt>
      <trkpt lat="42.232471" lon="1.883968">
        <ele>728.84888</ele>
        <time>2021-07-02T12:41:55Z</time>
      </trkpt>
      <trkpt lat="42.232281" lon="1.883981">
        <ele>729.91357</ele>
        <time>2021-07-02T12:41:56Z</time>
      </trkpt>
      <trkpt lat="42.232090" lon="1.883974">
        <ele>728.12744</ele>
        <time>2021-07-02T12:41:57Z</time>
      </trkpt>
      <trkpt lat="42.231926" lon="1.883951">
        <ele>727.15283</ele>
        <time>2021-07-02T12:41:58Z</time>
      </trkpt>
      <trkpt lat="42.231926" lon="1.883951">
        <ele>727.11768</ele>
        <time>2021-07-02T12:41:59Z</time>
      </trkpt>
      <trkpt lat="42.231575" lon="1.883734">
        <ele>726.50366</ele>
        <time>2021-07-02T12:42:00Z</time>
      </trkpt>
      <trkpt lat="42.231426" lon="1.883588">
        <ele>725.91162</ele>
        <time>2021-07-02T12:42:01Z</time>
      </trkpt>
      <trkpt lat="42.231285" lon="1.883426">
        <ele>724.66113</ele>
        <time>2021-07-02T12:42:02Z</time>
      </trkpt>
      <trkpt lat="42.231068" lon="1.883386">
        <ele>723.53027</ele>
        <time>2021-07-02T12:42:03Z</time>
      </trkpt>
      <trkpt lat="42.230934" lon="1.883216">
        <ele>722.79236</ele>
        <time>2021-07-02T12:42:04Z</time>
      </trkpt>
      <trkpt lat="42.230808" lon="1.883023">
        <ele>722.97827</ele>
        <time>2021-07-02T12:42:05Z</time>
      </trkpt>
      <trkpt lat="42.230682" lon="1.882817">
        <ele>722.74927</ele>
        <time>2021-07-02T12:42:06Z</time>
      </trkpt>
      <trkpt lat="42.230568" lon="1.882610">
        <ele>723.13257</ele>
        <time>2021-07-02T12:42:07Z</time>
      </trkpt>
      <trkpt lat="42.230442" lon="1.882386">
        <ele>722.93726</ele>
        <time>2021-07-02T12:42:08Z</time>
      </trkpt>
      <trkpt lat="42.230309" lon="1.882172">
        <ele>722.31982</ele>
        <time>2021-07-02T12:42:09Z</time>
      </trkpt>
      <trkpt lat="42.230137" lon="1.881950">
        <ele>722.17188</ele>
        <time>2021-07-02T12:42:10Z</time>
      </trkpt>
      <trkpt lat="42.229965" lon="1.881756">
        <ele>721.51001</ele>
        <time>2021-07-02T12:42:11Z</time>
      </trkpt>
      <trkpt lat="42.229797" lon="1.881577">
        <ele>720.94092</ele>
        <time>2021-07-02T12:42:12Z</time>
      </trkpt>
      <trkpt lat="42.229626" lon="1.881414">
        <ele>721.62415</ele>
        <time>2021-07-02T12:42:13Z</time>
      </trkpt>
      <trkpt lat="42.229446" lon="1.881248">
        <ele>721.00439</ele>
        <time>2021-07-02T12:42:14Z</time>
      </trkpt>
      <trkpt lat="42.229279" lon="1.881087">
        <ele>721.15063</ele>
        <time>2021-07-02T12:42:15Z</time>
      </trkpt>
      <trkpt lat="42.229115" lon="1.880934">
        <ele>720.84497</ele>
        <time>2021-07-02T12:42:16Z</time>
      </trkpt>
      <trkpt lat="42.228951" lon="1.880745">
        <ele>720.68164</ele>
        <time>2021-07-02T12:42:17Z</time>
      </trkpt>
      <trkpt lat="42.228806" lon="1.880554">
        <ele>720.63904</ele>
        <time>2021-07-02T12:42:18Z</time>
      </trkpt>
      <trkpt lat="42.228672" lon="1.880354">
        <ele>720.92993</ele>
        <time>2021-07-02T12:42:19Z</time>
      </trkpt>
      <trkpt lat="42.228550" lon="1.880117">
        <ele>720.99756</ele>
        <time>2021-07-02T12:42:20Z</time>
      </trkpt>
      <trkpt lat="42.228550" lon="1.880117">
        <ele>722.24316</ele>
        <time>2021-07-02T12:42:21Z</time>
      </trkpt>
      <trkpt lat="42.228439" lon="1.879863">
        <ele>721.62427</ele>
        <time>2021-07-02T12:42:22Z</time>
      </trkpt>
      <trkpt lat="42.228344" lon="1.879587">
        <ele>721.95398</ele>
        <time>2021-07-02T12:42:23Z</time>
      </trkpt>
      <trkpt lat="42.228275" lon="1.879297">
        <ele>721.87183</ele>
        <time>2021-07-02T12:42:24Z</time>
      </trkpt>
      <trkpt lat="42.228230" lon="1.879003">
        <ele>722.28308</ele>
        <time>2021-07-02T12:42:25Z</time>
      </trkpt>
      <trkpt lat="42.228203" lon="1.878710">
        <ele>722.12109</ele>
        <time>2021-07-02T12:42:26Z</time>
      </trkpt>
      <trkpt lat="42.228184" lon="1.878420">
        <ele>722.41443</ele>
        <time>2021-07-02T12:42:27Z</time>
      </trkpt>
      <trkpt lat="42.228168" lon="1.878143">
        <ele>722.08569</ele>
        <time>2021-07-02T12:42:28Z</time>
      </trkpt>
      <trkpt lat="42.228153" lon="1.877863">
        <ele>721.08789</ele>
        <time>2021-07-02T12:42:29Z</time>
      </trkpt>
      <trkpt lat="42.228134" lon="1.877591">
        <ele>720.63306</ele>
        <time>2021-07-02T12:42:30Z</time>
      </trkpt>
      <trkpt lat="42.228111" lon="1.877305">
        <ele>720.38342</ele>
        <time>2021-07-02T12:42:31Z</time>
      </trkpt>
      <trkpt lat="42.228065" lon="1.877026">
        <ele>720.60254</ele>
        <time>2021-07-02T12:42:32Z</time>
      </trkpt>
      <trkpt lat="42.228012" lon="1.876755">
        <ele>719.02368</ele>
        <time>2021-07-02T12:42:33Z</time>
      </trkpt>
      <trkpt lat="42.227928" lon="1.876496">
        <ele>718.74658</ele>
        <time>2021-07-02T12:42:34Z</time>
      </trkpt>
      <trkpt lat="42.227882" lon="1.876382">
        <ele>718.26050</ele>
        <time>2021-07-02T12:42:35Z</time>
      </trkpt>
      <trkpt lat="42.227936" lon="1.876096">
        <ele>717.39795</ele>
        <time>2021-07-02T12:42:36Z</time>
      </trkpt>
      <trkpt lat="42.227589" lon="1.875828">
        <ele>716.39978</ele>
        <time>2021-07-02T12:42:37Z</time>
      </trkpt>
      <trkpt lat="42.227444" lon="1.875615">
        <ele>716.11646</ele>
        <time>2021-07-02T12:42:38Z</time>
      </trkpt>
      <trkpt lat="42.227283" lon="1.875428">
        <ele>715.69006</ele>
        <time>2021-07-02T12:42:39Z</time>
      </trkpt>
      <trkpt lat="42.227108" lon="1.875252">
        <ele>715.17358</ele>
        <time>2021-07-02T12:42:40Z</time>
      </trkpt>
      <trkpt lat="42.226944" lon="1.875108">
        <ele>714.46570</ele>
        <time>2021-07-02T12:42:41Z</time>
      </trkpt>
      <trkpt lat="42.226772" lon="1.874956">
        <ele>714.26782</ele>
        <time>2021-07-02T12:42:42Z</time>
      </trkpt>
      <trkpt lat="42.226601" lon="1.874808">
        <ele>713.81812</ele>
        <time>2021-07-02T12:42:43Z</time>
      </trkpt>
      <trkpt lat="42.226429" lon="1.874667">
        <ele>714.18652</ele>
        <time>2021-07-02T12:42:44Z</time>
      </trkpt>
      <trkpt lat="42.226234" lon="1.874509">
        <ele>713.06567</ele>
        <time>2021-07-02T12:42:45Z</time>
      </trkpt>
      <trkpt lat="42.226063" lon="1.874368">
        <ele>712.47607</ele>
        <time>2021-07-02T12:42:46Z</time>
      </trkpt>
      <trkpt lat="42.225891" lon="1.874225">
        <ele>711.90112</ele>
        <time>2021-07-02T12:42:47Z</time>
      </trkpt>
      <trkpt lat="42.225716" lon="1.874081">
        <ele>711.42639</ele>
        <time>2021-07-02T12:42:48Z</time>
      </trkpt>
      <trkpt lat="42.225529" lon="1.873943">
        <ele>710.52966</ele>
        <time>2021-07-02T12:42:49Z</time>
      </trkpt>
      <trkpt lat="42.225357" lon="1.873815">
        <ele>709.72803</ele>
        <time>2021-07-02T12:42:50Z</time>
      </trkpt>
      <trkpt lat="42.225182" lon="1.873695">
        <ele>709.87256</ele>
        <time>2021-07-02T12:42:51Z</time>
      </trkpt>
      <trkpt lat="42.224991" lon="1.873564">
        <ele>709.67871</ele>
        <time>2021-07-02T12:42:52Z</time>
      </trkpt>
      <trkpt lat="42.224991" lon="1.873564">
        <ele>708.88062</ele>
        <time>2021-07-02T12:42:53Z</time>
      </trkpt>
      <trkpt lat="42.224796" lon="1.873444">
        <ele>708.91724</ele>
        <time>2021-07-02T12:42:54Z</time>
      </trkpt>
      <trkpt lat="42.224609" lon="1.873331">
        <ele>708.08704</ele>
        <time>2021-07-02T12:42:55Z</time>
      </trkpt>
      <trkpt lat="42.224430" lon="1.873224">
        <ele>708.45288</ele>
        <time>2021-07-02T12:42:56Z</time>
      </trkpt>
      <trkpt lat="42.224255" lon="1.873134">
        <ele>708.60718</ele>
        <time>2021-07-02T12:42:57Z</time>
      </trkpt>
      <trkpt lat="42.224091" lon="1.873055">
        <ele>708.88232</ele>
        <time>2021-07-02T12:42:58Z</time>
      </trkpt>
      <trkpt lat="42.223904" lon="1.872983">
        <ele>709.08813</ele>
        <time>2021-07-02T12:42:59Z</time>
      </trkpt>
      <trkpt lat="42.223721" lon="1.872922">
        <ele>708.22778</ele>
        <time>2021-07-02T12:43:00Z</time>
      </trkpt>
      <trkpt lat="42.223534" lon="1.872859">
        <ele>707.87598</ele>
        <time>2021-07-02T12:43:01Z</time>
      </trkpt>
      <trkpt lat="42.223377" lon="1.872806">
        <ele>707.73633</ele>
        <time>2021-07-02T12:43:02Z</time>
      </trkpt>
      <trkpt lat="42.223232" lon="1.872758">
        <ele>708.19531</ele>
        <time>2021-07-02T12:43:03Z</time>
      </trkpt>
      <trkpt lat="42.223064" lon="1.872702">
        <ele>708.08350</ele>
        <time>2021-07-02T12:43:04Z</time>
      </trkpt>
      <trkpt lat="42.222912" lon="1.872650">
        <ele>707.86499</ele>
        <time>2021-07-02T12:43:05Z</time>
      </trkpt>
      <trkpt lat="42.222748" lon="1.872598">
        <ele>708.08789</ele>
        <time>2021-07-02T12:43:06Z</time>
      </trkpt>
      <trkpt lat="42.222599" lon="1.872549">
        <ele>708.35864</ele>
        <time>2021-07-02T12:43:07Z</time>
      </trkpt>
      <trkpt lat="42.222469" lon="1.872508">
        <ele>708.26343</ele>
        <time>2021-07-02T12:43:08Z</time>
      </trkpt>
      <trkpt lat="42.222321" lon="1.872459">
        <ele>708.70483</ele>
        <time>2021-07-02T12:43:09Z</time>
      </trkpt>
      <trkpt lat="42.222172" lon="1.872410">
        <ele>708.37915</ele>
        <time>2021-07-02T12:43:10Z</time>
      </trkpt>
      <trkpt lat="42.221989" lon="1.872351">
        <ele>708.22632</ele>
        <time>2021-07-02T12:43:11Z</time>
      </trkpt>
      <trkpt lat="42.221802" lon="1.872291">
        <ele>708.25049</ele>
        <time>2021-07-02T12:43:12Z</time>
      </trkpt>
      <trkpt lat="42.221630" lon="1.872235">
        <ele>708.53845</ele>
        <time>2021-07-02T12:43:13Z</time>
      </trkpt>
      <trkpt lat="42.221436" lon="1.872150">
        <ele>708.46619</ele>
        <time>2021-07-02T12:43:14Z</time>
      </trkpt>
      <trkpt lat="42.221245" lon="1.872040">
        <ele>707.54858</ele>
        <time>2021-07-02T12:43:15Z</time>
      </trkpt>
      <trkpt lat="42.221073" lon="1.871911">
        <ele>707.04614</ele>
        <time>2021-07-02T12:43:16Z</time>
      </trkpt>
      <trkpt lat="42.220882" lon="1.871754">
        <ele>707.57947</ele>
        <time>2021-07-02T12:43:17Z</time>
      </trkpt>
      <trkpt lat="42.220692" lon="1.871589">
        <ele>707.38501</ele>
        <time>2021-07-02T12:43:18Z</time>
      </trkpt>
      <trkpt lat="42.220482" lon="1.871405">
        <ele>707.62720</ele>
        <time>2021-07-02T12:43:19Z</time>
      </trkpt>
      <trkpt lat="42.220272" lon="1.871218">
        <ele>708.84619</ele>
        <time>2021-07-02T12:43:20Z</time>
      </trkpt>
      <trkpt lat="42.220058" lon="1.871033">
        <ele>706.95178</ele>
        <time>2021-07-02T12:43:21Z</time>
      </trkpt>
      <trkpt lat="42.219845" lon="1.870845">
        <ele>707.04651</ele>
        <time>2021-07-02T12:43:22Z</time>
      </trkpt>
      <trkpt lat="42.219646" lon="1.870669">
        <ele>706.56079</ele>
        <time>2021-07-02T12:43:23Z</time>
      </trkpt>
      <trkpt lat="42.219425" lon="1.870475">
        <ele>708.33630</ele>
        <time>2021-07-02T12:43:24Z</time>
      </trkpt>
      <trkpt lat="42.219219" lon="1.870297">
        <ele>707.22119</ele>
        <time>2021-07-02T12:43:25Z</time>
      </trkpt>
      <trkpt lat="42.219009" lon="1.870113">
        <ele>706.98853</ele>
        <time>2021-07-02T12:43:26Z</time>
      </trkpt>
      <trkpt lat="42.219009" lon="1.870113">
        <ele>706.46472</ele>
        <time>2021-07-02T12:43:27Z</time>
      </trkpt>
      <trkpt lat="42.218803" lon="1.869936">
        <ele>706.35742</ele>
        <time>2021-07-02T12:43:28Z</time>
      </trkpt>
      <trkpt lat="42.218586" lon="1.869756">
        <ele>706.28687</ele>
        <time>2021-07-02T12:43:29Z</time>
      </trkpt>
      <trkpt lat="42.218479" lon="1.869682">
        <ele>707.07935</ele>
        <time>2021-07-02T12:43:30Z</time>
      </trkpt>
      <trkpt lat="42.218414" lon="1.869576">
        <ele>706.93213</ele>
        <time>2021-07-02T12:43:31Z</time>
      </trkpt>
      <trkpt lat="42.218071" lon="1.869201">
        <ele>705.78125</ele>
        <time>2021-07-02T12:43:32Z</time>
      </trkpt>
      <trkpt lat="42.217735" lon="1.869287">
        <ele>705.30542</ele>
        <time>2021-07-02T12:43:33Z</time>
      </trkpt>
      <trkpt lat="42.217529" lon="1.869201">
        <ele>705.34717</ele>
        <time>2021-07-02T12:43:34Z</time>
      </trkpt>
      <trkpt lat="42.217327" lon="1.869139">
        <ele>704.67480</ele>
        <time>2021-07-02T12:43:35Z</time>
      </trkpt>
      <trkpt lat="42.217129" lon="1.869087">
        <ele>704.04285</ele>
        <time>2021-07-02T12:43:36Z</time>
      </trkpt>
      <trkpt lat="42.216934" lon="1.869042">
        <ele>703.78101</ele>
        <time>2021-07-02T12:43:37Z</time>
      </trkpt>
      <trkpt lat="42.216743" lon="1.869004">
        <ele>703.98901</ele>
        <time>2021-07-02T12:43:38Z</time>
      </trkpt>
      <trkpt lat="42.216557" lon="1.868970">
        <ele>703.97729</ele>
        <time>2021-07-02T12:43:39Z</time>
      </trkpt>
      <trkpt lat="42.216377" lon="1.868933">
        <ele>703.58167</ele>
        <time>2021-07-02T12:43:40Z</time>
      </trkpt>
      <trkpt lat="42.216187" lon="1.868894">
        <ele>703.49683</ele>
        <time>2021-07-02T12:43:41Z</time>
      </trkpt>
      <trkpt lat="42.216000" lon="1.868856">
        <ele>703.49683</ele>
        <time>2021-07-02T12:43:42Z</time>
      </trkpt>
      <trkpt lat="42.215824" lon="1.868826">
        <ele>703.49683</ele>
        <time>2021-07-02T12:43:43Z</time>
      </trkpt>
      <trkpt lat="42.215748" lon="1.868814">
        <ele>703.49683</ele>
        <time>2021-07-02T12:43:44Z</time>
      </trkpt>
      <trkpt lat="42.215748" lon="1.868814">
        <ele>703.49683</ele>
        <time>2021-07-02T12:43:45Z</time>
      </trkpt>
      <trkpt lat="42.215748" lon="1.868814">
        <ele>703.49683</ele>
        <time>2021-07-02T12:43:46Z</time>
      </trkpt>
      <trkpt lat="42.215748" lon="1.868814">
        <ele>703.49683</ele>
        <time>2021-07-02T12:43:47Z</time>
      </trkpt>
      <trkpt lat="42.215748" lon="1.868814">
        <ele>703.49683</ele>
        <time>2021-07-02T12:43:48Z</time>
      </trkpt>
      <trkpt lat="42.215748" lon="1.868814">
        <ele>703.49683</ele>
        <time>2021-07-02T12:43:49Z</time>
      </trkpt>
      <trkpt lat="42.215748" lon="1.868814">
        <ele>699.54071</ele>
        <time>2021-07-02T12:43:50Z</time>
      </trkpt>
      <trkpt lat="42.215748" lon="1.868814">
        <ele>702.43457</ele>
        <time>2021-07-02T12:43:51Z</time>
      </trkpt>
      <trkpt lat="42.214779" lon="1.868907">
        <ele>702.25122</ele>
        <time>2021-07-02T12:43:52Z</time>
      </trkpt>
      <trkpt lat="42.214214" lon="1.869243">
        <ele>701.89832</ele>
        <time>2021-07-02T12:43:53Z</time>
      </trkpt>
      <trkpt lat="42.214031" lon="1.869355">
        <ele>701.52966</ele>
        <time>2021-07-02T12:43:54Z</time>
      </trkpt>
      <trkpt lat="42.213806" lon="1.869492">
        <ele>701.18787</ele>
        <time>2021-07-02T12:43:55Z</time>
      </trkpt>
      <trkpt lat="42.213615" lon="1.869589">
        <ele>700.93762</ele>
        <time>2021-07-02T12:43:56Z</time>
      </trkpt>
      <trkpt lat="42.213425" lon="1.869666">
        <ele>701.05713</ele>
        <time>2021-07-02T12:43:57Z</time>
      </trkpt>
      <trkpt lat="42.213223" lon="1.869697">
        <ele>700.93091</ele>
        <time>2021-07-02T12:43:58Z</time>
      </trkpt>
      <trkpt lat="42.213024" lon="1.869666">
        <ele>700.19727</ele>
        <time>2021-07-02T12:43:59Z</time>
      </trkpt>
      <trkpt lat="42.212814" lon="1.869580">
        <ele>699.08276</ele>
        <time>2021-07-02T12:44:00Z</time>
      </trkpt>
      <trkpt lat="42.212616" lon="1.869443">
        <ele>699.10742</ele>
        <time>2021-07-02T12:44:01Z</time>
      </trkpt>
      <trkpt lat="42.212418" lon="1.869264">
        <ele>698.81555</ele>
        <time>2021-07-02T12:44:02Z</time>
      </trkpt>
      <trkpt lat="42.212238" lon="1.869099">
        <ele>697.68091</ele>
        <time>2021-07-02T12:44:03Z</time>
      </trkpt>
      <trkpt lat="42.212074" lon="1.868963">
        <ele>697.92883</ele>
        <time>2021-07-02T12:44:04Z</time>
      </trkpt>
      <trkpt lat="42.211910" lon="1.868842">
        <ele>693.30817</ele>
        <time>2021-07-02T12:44:05Z</time>
      </trkpt>
      <trkpt lat="42.211746" lon="1.868727">
        <ele>692.57275</ele>
        <time>2021-07-02T12:44:06Z</time>
      </trkpt>
      <trkpt lat="42.211597" lon="1.868626">
        <ele>694.36523</ele>
        <time>2021-07-02T12:44:07Z</time>
      </trkpt>
      <trkpt lat="42.211597" lon="1.868626">
        <ele>696.52808</ele>
        <time>2021-07-02T12:44:08Z</time>
      </trkpt>
      <trkpt lat="42.211456" lon="1.868546">
        <ele>697.81555</ele>
        <time>2021-07-02T12:44:09Z</time>
      </trkpt>
      <trkpt lat="42.211308" lon="1.868463">
        <ele>697.42200</ele>
        <time>2021-07-02T12:44:10Z</time>
      </trkpt>
      <trkpt lat="42.211140" lon="1.868396">
        <ele>697.63672</ele>
        <time>2021-07-02T12:44:11Z</time>
      </trkpt>
      <trkpt lat="42.210991" lon="1.868361">
        <ele>698.44580</ele>
        <time>2021-07-02T12:44:12Z</time>
      </trkpt>
      <trkpt lat="42.210823" lon="1.868362">
        <ele>698.26147</ele>
        <time>2021-07-02T12:44:13Z</time>
      </trkpt>
      <trkpt lat="42.210651" lon="1.868397">
        <ele>698.22583</ele>
        <time>2021-07-02T12:44:14Z</time>
      </trkpt>
      <trkpt lat="42.210476" lon="1.868467">
        <ele>698.22302</ele>
        <time>2021-07-02T12:44:15Z</time>
      </trkpt>
      <trkpt lat="42.210320" lon="1.868573">
        <ele>698.34180</ele>
        <time>2021-07-02T12:44:16Z</time>
      </trkpt>
      <trkpt lat="42.210175" lon="1.868680">
        <ele>698.34717</ele>
        <time>2021-07-02T12:44:17Z</time>
      </trkpt>
      <trkpt lat="42.210026" lon="1.868794">
        <ele>698.39575</ele>
        <time>2021-07-02T12:44:18Z</time>
      </trkpt>
      <trkpt lat="42.209873" lon="1.868908">
        <ele>698.38354</ele>
        <time>2021-07-02T12:44:19Z</time>
      </trkpt>
      <trkpt lat="42.209721" lon="1.869026">
        <ele>699.14941</ele>
        <time>2021-07-02T12:44:20Z</time>
      </trkpt>
      <trkpt lat="42.209560" lon="1.869141">
        <ele>698.48657</ele>
        <time>2021-07-02T12:44:21Z</time>
      </trkpt>
      <trkpt lat="42.209385" lon="1.869208">
        <ele>698.51733</ele>
        <time>2021-07-02T12:44:22Z</time>
      </trkpt>
      <trkpt lat="42.209213" lon="1.869241">
        <ele>698.33093</ele>
        <time>2021-07-02T12:44:23Z</time>
      </trkpt>
      <trkpt lat="42.209038" lon="1.869224">
        <ele>698.28369</ele>
        <time>2021-07-02T12:44:24Z</time>
      </trkpt>
      <trkpt lat="42.208858" lon="1.869187">
        <ele>698.90942</ele>
        <time>2021-07-02T12:44:25Z</time>
      </trkpt>
      <trkpt lat="42.208698" lon="1.869140">
        <ele>699.24829</ele>
        <time>2021-07-02T12:44:26Z</time>
      </trkpt>
      <trkpt lat="42.208527" lon="1.869090">
        <ele>697.61572</ele>
        <time>2021-07-02T12:44:27Z</time>
      </trkpt>
      <trkpt lat="42.208366" lon="1.869042">
        <ele>697.70044</ele>
        <time>2021-07-02T12:44:28Z</time>
      </trkpt>
      <trkpt lat="42.208218" lon="1.868976">
        <ele>697.28516</ele>
        <time>2021-07-02T12:44:29Z</time>
      </trkpt>
      <trkpt lat="42.208076" lon="1.868909">
        <ele>696.92871</ele>
        <time>2021-07-02T12:44:30Z</time>
      </trkpt>
      <trkpt lat="42.207943" lon="1.868811">
        <ele>696.31421</ele>
        <time>2021-07-02T12:44:31Z</time>
      </trkpt>
      <trkpt lat="42.207840" lon="1.868696">
        <ele>695.53003</ele>
        <time>2021-07-02T12:44:32Z</time>
      </trkpt>
      <trkpt lat="42.207748" lon="1.868591">
        <ele>694.99609</ele>
        <time>2021-07-02T12:44:33Z</time>
      </trkpt>
      <trkpt lat="42.207657" lon="1.868451">
        <ele>694.85889</ele>
        <time>2021-07-02T12:44:34Z</time>
      </trkpt>
      <trkpt lat="42.207569" lon="1.868320">
        <ele>695.16797</ele>
        <time>2021-07-02T12:44:35Z</time>
      </trkpt>
      <trkpt lat="42.207489" lon="1.868180">
        <ele>694.27856</ele>
        <time>2021-07-02T12:44:36Z</time>
      </trkpt>
      <trkpt lat="42.207409" lon="1.868038">
        <ele>694.77979</ele>
        <time>2021-07-02T12:44:37Z</time>
      </trkpt>
      <trkpt lat="42.207325" lon="1.867900">
        <ele>693.22876</ele>
        <time>2021-07-02T12:44:38Z</time>
      </trkpt>
      <trkpt lat="42.207230" lon="1.867753">
        <ele>692.93164</ele>
        <time>2021-07-02T12:44:39Z</time>
      </trkpt>
      <trkpt lat="42.207104" lon="1.867620">
        <ele>690.96436</ele>
        <time>2021-07-02T12:44:40Z</time>
      </trkpt>
      <trkpt lat="42.206978" lon="1.867518">
        <ele>689.54932</ele>
        <time>2021-07-02T12:44:41Z</time>
      </trkpt>
      <trkpt lat="42.206799" lon="1.867418">
        <ele>689.99170</ele>
        <time>2021-07-02T12:44:42Z</time>
      </trkpt>
      <trkpt lat="42.206650" lon="1.867354">
        <ele>689.08447</ele>
        <time>2021-07-02T12:44:43Z</time>
      </trkpt>
      <trkpt lat="42.206467" lon="1.867282">
        <ele>687.96216</ele>
        <time>2021-07-02T12:44:44Z</time>
      </trkpt>
      <trkpt lat="42.206467" lon="1.867282">
        <ele>687.20166</ele>
        <time>2021-07-02T12:44:45Z</time>
      </trkpt>
      <trkpt lat="42.206310" lon="1.867222">
        <ele>687.28357</ele>
        <time>2021-07-02T12:44:46Z</time>
      </trkpt>
      <trkpt lat="42.206158" lon="1.867166">
        <ele>688.21130</ele>
        <time>2021-07-02T12:44:47Z</time>
      </trkpt>
      <trkpt lat="42.206013" lon="1.867133">
        <ele>688.92480</ele>
        <time>2021-07-02T12:44:48Z</time>
      </trkpt>
      <trkpt lat="42.205864" lon="1.867101">
        <ele>689.62744</ele>
        <time>2021-07-02T12:44:49Z</time>
      </trkpt>
      <trkpt lat="42.205711" lon="1.867073">
        <ele>688.98108</ele>
        <time>2021-07-02T12:44:50Z</time>
      </trkpt>
      <trkpt lat="42.205566" lon="1.867060">
        <ele>689.23840</ele>
        <time>2021-07-02T12:44:51Z</time>
      </trkpt>
      <trkpt lat="42.205429" lon="1.867047">
        <ele>688.83228</ele>
        <time>2021-07-02T12:44:52Z</time>
      </trkpt>
      <trkpt lat="42.205265" lon="1.867052">
        <ele>688.86084</ele>
        <time>2021-07-02T12:44:53Z</time>
      </trkpt>
      <trkpt lat="42.205109" lon="1.867066">
        <ele>688.45740</ele>
        <time>2021-07-02T12:44:54Z</time>
      </trkpt>
      <trkpt lat="42.204952" lon="1.867103">
        <ele>685.99756</ele>
        <time>2021-07-02T12:44:55Z</time>
      </trkpt>
      <trkpt lat="42.204784" lon="1.867164">
        <ele>684.47144</ele>
        <time>2021-07-02T12:44:56Z</time>
      </trkpt>
      <trkpt lat="42.204624" lon="1.867240">
        <ele>685.30273</ele>
        <time>2021-07-02T12:44:57Z</time>
      </trkpt>
      <trkpt lat="42.204472" lon="1.867330">
        <ele>685.44202</ele>
        <time>2021-07-02T12:44:58Z</time>
      </trkpt>
      <trkpt lat="42.204296" lon="1.867432">
        <ele>685.88672</ele>
        <time>2021-07-02T12:44:59Z</time>
      </trkpt>
      <trkpt lat="42.204124" lon="1.867546">
        <ele>685.24072</ele>
        <time>2021-07-02T12:45:00Z</time>
      </trkpt>
      <trkpt lat="42.203945" lon="1.867663">
        <ele>684.88208</ele>
        <time>2021-07-02T12:45:01Z</time>
      </trkpt>
      <trkpt lat="42.203762" lon="1.867783">
        <ele>685.57886</ele>
        <time>2021-07-02T12:45:02Z</time>
      </trkpt>
      <trkpt lat="42.203587" lon="1.867898">
        <ele>686.56372</ele>
        <time>2021-07-02T12:45:03Z</time>
      </trkpt>
      <trkpt lat="42.203407" lon="1.868017">
        <ele>686.37646</ele>
        <time>2021-07-02T12:45:04Z</time>
      </trkpt>
      <trkpt lat="42.203217" lon="1.868141">
        <ele>685.38184</ele>
        <time>2021-07-02T12:45:05Z</time>
      </trkpt>
      <trkpt lat="42.203033" lon="1.868246">
        <ele>686.36792</ele>
        <time>2021-07-02T12:45:06Z</time>
      </trkpt>
      <trkpt lat="42.202862" lon="1.868337">
        <ele>687.02466</ele>
        <time>2021-07-02T12:45:07Z</time>
      </trkpt>
      <trkpt lat="42.202690" lon="1.868405">
        <ele>687.93677</ele>
        <time>2021-07-02T12:45:08Z</time>
      </trkpt>
      <trkpt lat="42.202530" lon="1.868470">
        <ele>688.56262</ele>
        <time>2021-07-02T12:45:09Z</time>
      </trkpt>
      <trkpt lat="42.202370" lon="1.868533">
        <ele>688.45190</ele>
        <time>2021-07-02T12:45:10Z</time>
      </trkpt>
      <trkpt lat="42.202202" lon="1.868602">
        <ele>688.93042</ele>
        <time>2021-07-02T12:45:11Z</time>
      </trkpt>
      <trkpt lat="42.202045" lon="1.868665">
        <ele>689.73730</ele>
        <time>2021-07-02T12:45:12Z</time>
      </trkpt>
      <trkpt lat="42.201885" lon="1.868730">
        <ele>688.41125</ele>
        <time>2021-07-02T12:45:13Z</time>
      </trkpt>
      <trkpt lat="42.201733" lon="1.868792">
        <ele>686.22522</ele>
        <time>2021-07-02T12:45:14Z</time>
      </trkpt>
      <trkpt lat="42.201588" lon="1.868852">
        <ele>686.24756</ele>
        <time>2021-07-02T12:45:15Z</time>
      </trkpt>
      <trkpt lat="42.201439" lon="1.868912">
        <ele>686.00562</ele>
        <time>2021-07-02T12:45:16Z</time>
      </trkpt>
      <trkpt lat="42.201286" lon="1.868975">
        <ele>686.36133</ele>
        <time>2021-07-02T12:45:17Z</time>
      </trkpt>
      <trkpt lat="42.201107" lon="1.869047">
        <ele>688.14136</ele>
        <time>2021-07-02T12:45:18Z</time>
      </trkpt>
      <trkpt lat="42.200951" lon="1.869112">
        <ele>686.85217</ele>
        <time>2021-07-02T12:45:19Z</time>
      </trkpt>
      <trkpt lat="42.200802" lon="1.869167">
        <ele>686.41528</ele>
        <time>2021-07-02T12:45:20Z</time>
      </trkpt>
      <trkpt lat="42.200661" lon="1.869213">
        <ele>686.71436</ele>
        <time>2021-07-02T12:45:21Z</time>
      </trkpt>
      <trkpt lat="42.200520" lon="1.869242">
        <ele>687.42407</ele>
        <time>2021-07-02T12:45:22Z</time>
      </trkpt>
      <trkpt lat="42.200356" lon="1.869246">
        <ele>685.06787</ele>
        <time>2021-07-02T12:45:23Z</time>
      </trkpt>
      <trkpt lat="42.200356" lon="1.869246">
        <ele>686.01929</ele>
        <time>2021-07-02T12:45:24Z</time>
      </trkpt>
      <trkpt lat="42.200211" lon="1.869210">
        <ele>686.32788</ele>
        <time>2021-07-02T12:45:25Z</time>
      </trkpt>
      <trkpt lat="42.200096" lon="1.869172">
        <ele>685.95703</ele>
        <time>2021-07-02T12:45:26Z</time>
      </trkpt>
      <trkpt lat="42.199978" lon="1.869110">
        <ele>685.50867</ele>
        <time>2021-07-02T12:45:27Z</time>
      </trkpt>
      <trkpt lat="42.199863" lon="1.869042">
        <ele>685.16895</ele>
        <time>2021-07-02T12:45:28Z</time>
      </trkpt>
      <trkpt lat="42.199749" lon="1.868975">
        <ele>684.70520</ele>
        <time>2021-07-02T12:45:29Z</time>
      </trkpt>
      <trkpt lat="42.199631" lon="1.868906">
        <ele>683.54443</ele>
        <time>2021-07-02T12:45:30Z</time>
      </trkpt>
      <trkpt lat="42.199505" lon="1.868829">
        <ele>683.73413</ele>
        <time>2021-07-02T12:45:31Z</time>
      </trkpt>
      <trkpt lat="42.199383" lon="1.868775">
        <ele>682.73706</ele>
        <time>2021-07-02T12:45:32Z</time>
      </trkpt>
      <trkpt lat="42.199253" lon="1.868724">
        <ele>682.44727</ele>
        <time>2021-07-02T12:45:33Z</time>
      </trkpt>
      <trkpt lat="42.199120" lon="1.868692">
        <ele>681.89404</ele>
        <time>2021-07-02T12:45:34Z</time>
      </trkpt>
      <trkpt lat="42.198982" lon="1.868679">
        <ele>681.67041</ele>
        <time>2021-07-02T12:45:35Z</time>
      </trkpt>
      <trkpt lat="42.198845" lon="1.868665">
        <ele>681.83362</ele>
        <time>2021-07-02T12:45:36Z</time>
      </trkpt>
      <trkpt lat="42.198711" lon="1.868652">
        <ele>682.53223</ele>
        <time>2021-07-02T12:45:37Z</time>
      </trkpt>
      <trkpt lat="42.198570" lon="1.868638">
        <ele>682.48132</ele>
        <time>2021-07-02T12:45:38Z</time>
      </trkpt>
      <trkpt lat="42.198414" lon="1.868624">
        <ele>678.74878</ele>
        <time>2021-07-02T12:45:39Z</time>
      </trkpt>
      <trkpt lat="42.198261" lon="1.868615">
        <ele>678.75195</ele>
        <time>2021-07-02T12:45:40Z</time>
      </trkpt>
      <trkpt lat="42.198124" lon="1.868615">
        <ele>677.81653</ele>
        <time>2021-07-02T12:45:41Z</time>
      </trkpt>
      <trkpt lat="42.197971" lon="1.868639">
        <ele>677.58948</ele>
        <time>2021-07-02T12:45:42Z</time>
      </trkpt>
      <trkpt lat="42.197823" lon="1.868685">
        <ele>678.24036</ele>
        <time>2021-07-02T12:45:43Z</time>
      </trkpt>
      <trkpt lat="42.197681" lon="1.868767">
        <ele>679.21582</ele>
        <time>2021-07-02T12:45:44Z</time>
      </trkpt>
      <trkpt lat="42.197544" lon="1.868877">
        <ele>679.06445</ele>
        <time>2021-07-02T12:45:45Z</time>
      </trkpt>
      <trkpt lat="42.197430" lon="1.868995">
        <ele>678.54175</ele>
        <time>2021-07-02T12:45:46Z</time>
      </trkpt>
      <trkpt lat="42.197330" lon="1.869135">
        <ele>678.21411</ele>
        <time>2021-07-02T12:45:47Z</time>
      </trkpt>
      <trkpt lat="42.197243" lon="1.869289">
        <ele>678.35498</ele>
        <time>2021-07-02T12:45:48Z</time>
      </trkpt>
      <trkpt lat="42.197170" lon="1.869456">
        <ele>678.05835</ele>
        <time>2021-07-02T12:45:49Z</time>
      </trkpt>
      <trkpt lat="42.197098" lon="1.869648">
        <ele>677.93384</ele>
        <time>2021-07-02T12:45:50Z</time>
      </trkpt>
      <trkpt lat="42.197029" lon="1.869843">
        <ele>677.07812</ele>
        <time>2021-07-02T12:45:51Z</time>
      </trkpt>
      <trkpt lat="42.196957" lon="1.870050">
        <ele>676.60645</ele>
        <time>2021-07-02T12:45:52Z</time>
      </trkpt>
      <trkpt lat="42.196884" lon="1.870232">
        <ele>676.47546</ele>
        <time>2021-07-02T12:45:53Z</time>
      </trkpt>
      <trkpt lat="42.196793" lon="1.870410">
        <ele>675.68494</ele>
        <time>2021-07-02T12:45:54Z</time>
      </trkpt>
      <trkpt lat="42.196690" lon="1.870551">
        <ele>676.20972</ele>
        <time>2021-07-02T12:45:55Z</time>
      </trkpt>
      <trkpt lat="42.196579" lon="1.870663">
        <ele>674.00000</ele>
        <time>2021-07-02T12:45:56Z</time>
      </trkpt>
      <trkpt lat="42.196423" lon="1.870773">
        <ele>674.29590</ele>
        <time>2021-07-02T12:45:57Z</time>
      </trkpt>
      <trkpt lat="42.196297" lon="1.870838">
        <ele>674.54761</ele>
        <time>2021-07-02T12:45:58Z</time>
      </trkpt>
      <trkpt lat="42.196140" lon="1.870887">
        <ele>675.37854</ele>
        <time>2021-07-02T12:45:59Z</time>
      </trkpt>
      <trkpt lat="42.196140" lon="1.870887">
        <ele>674.22754</ele>
        <time>2021-07-02T12:46:00Z</time>
      </trkpt>
      <trkpt lat="42.195969" lon="1.870909">
        <ele>673.80273</ele>
        <time>2021-07-02T12:46:01Z</time>
      </trkpt>
      <trkpt lat="42.195808" lon="1.870891">
        <ele>673.57068</ele>
        <time>2021-07-02T12:46:02Z</time>
      </trkpt>
      <trkpt lat="42.195660" lon="1.870860">
        <ele>674.12061</ele>
        <time>2021-07-02T12:46:03Z</time>
      </trkpt>
      <trkpt lat="42.195507" lon="1.870811">
        <ele>674.56006</ele>
        <time>2021-07-02T12:46:04Z</time>
      </trkpt>
      <trkpt lat="42.195362" lon="1.870733">
        <ele>674.84937</ele>
        <time>2021-07-02T12:46:05Z</time>
      </trkpt>
      <trkpt lat="42.195206" lon="1.870623">
        <ele>674.40576</ele>
        <time>2021-07-02T12:46:06Z</time>
      </trkpt>
      <trkpt lat="42.195076" lon="1.870512">
        <ele>675.06592</ele>
        <time>2021-07-02T12:46:07Z</time>
      </trkpt>
      <trkpt lat="42.194946" lon="1.870397">
        <ele>674.03101</ele>
        <time>2021-07-02T12:46:08Z</time>
      </trkpt>
      <trkpt lat="42.194809" lon="1.870281">
        <ele>672.48755</ele>
        <time>2021-07-02T12:46:09Z</time>
      </trkpt>
      <trkpt lat="42.194675" lon="1.870148">
        <ele>672.74585</ele>
        <time>2021-07-02T12:46:10Z</time>
      </trkpt>
      <trkpt lat="42.194542" lon="1.870018">
        <ele>672.87866</ele>
        <time>2021-07-02T12:46:11Z</time>
      </trkpt>
      <trkpt lat="42.194408" lon="1.869890">
        <ele>672.53491</ele>
        <time>2021-07-02T12:46:12Z</time>
      </trkpt>
      <trkpt lat="42.194252" lon="1.869759">
        <ele>671.51953</ele>
        <time>2021-07-02T12:46:13Z</time>
      </trkpt>
      <trkpt lat="42.194099" lon="1.869633">
        <ele>670.86255</ele>
        <time>2021-07-02T12:46:14Z</time>
      </trkpt>
      <trkpt lat="42.193958" lon="1.869538">
        <ele>670.30859</ele>
        <time>2021-07-02T12:46:15Z</time>
      </trkpt>
      <trkpt lat="42.193821" lon="1.869479">
        <ele>669.57178</ele>
        <time>2021-07-02T12:46:16Z</time>
      </trkpt>
      <trkpt lat="42.193672" lon="1.869425">
        <ele>670.00220</ele>
        <time>2021-07-02T12:46:17Z</time>
      </trkpt>
      <trkpt lat="42.193508" lon="1.869385">
        <ele>670.93896</ele>
        <time>2021-07-02T12:46:18Z</time>
      </trkpt>
      <trkpt lat="42.193352" lon="1.869348">
        <ele>670.92700</ele>
        <time>2021-07-02T12:46:19Z</time>
      </trkpt>
      <trkpt lat="42.193184" lon="1.869317">
        <ele>670.03149</ele>
        <time>2021-07-02T12:46:20Z</time>
      </trkpt>
      <trkpt lat="42.193020" lon="1.869292">
        <ele>667.76074</ele>
        <time>2021-07-02T12:46:21Z</time>
      </trkpt>
      <trkpt lat="42.192848" lon="1.869266">
        <ele>666.83984</ele>
        <time>2021-07-02T12:46:22Z</time>
      </trkpt>
      <trkpt lat="42.192669" lon="1.869243">
        <ele>666.90613</ele>
        <time>2021-07-02T12:46:23Z</time>
      </trkpt>
      <trkpt lat="42.192486" lon="1.869222">
        <ele>666.68262</ele>
        <time>2021-07-02T12:46:24Z</time>
      </trkpt>
      <trkpt lat="42.192295" lon="1.869205">
        <ele>666.26611</ele>
        <time>2021-07-02T12:46:25Z</time>
      </trkpt>
      <trkpt lat="42.192093" lon="1.869188">
        <ele>665.31104</ele>
        <time>2021-07-02T12:46:26Z</time>
      </trkpt>
      <trkpt lat="42.191917" lon="1.869172">
        <ele>665.00806</ele>
        <time>2021-07-02T12:46:27Z</time>
      </trkpt>
      <trkpt lat="42.191727" lon="1.869158">
        <ele>664.46460</ele>
        <time>2021-07-02T12:46:28Z</time>
      </trkpt>
      <trkpt lat="42.191528" lon="1.869144">
        <ele>664.14868</ele>
        <time>2021-07-02T12:46:29Z</time>
      </trkpt>
      <trkpt lat="42.191353" lon="1.869131">
        <ele>663.22595</ele>
        <time>2021-07-02T12:46:30Z</time>
      </trkpt>
      <trkpt lat="42.191162" lon="1.869109">
        <ele>662.89966</ele>
        <time>2021-07-02T12:46:31Z</time>
      </trkpt>
      <trkpt lat="42.190956" lon="1.869068">
        <ele>662.63025</ele>
        <time>2021-07-02T12:46:32Z</time>
      </trkpt>
      <trkpt lat="42.190750" lon="1.868996">
        <ele>663.69116</ele>
        <time>2021-07-02T12:46:33Z</time>
      </trkpt>
      <trkpt lat="42.190590" lon="1.868903">
        <ele>664.20593</ele>
        <time>2021-07-02T12:46:34Z</time>
      </trkpt>
      <trkpt lat="42.190441" lon="1.868819">
        <ele>664.01001</ele>
        <time>2021-07-02T12:46:35Z</time>
      </trkpt>
      <trkpt lat="42.190289" lon="1.868731">
        <ele>663.54858</ele>
        <time>2021-07-02T12:46:36Z</time>
      </trkpt>
      <trkpt lat="42.190289" lon="1.868731">
        <ele>664.15283</ele>
        <time>2021-07-02T12:46:37Z</time>
      </trkpt>
      <trkpt lat="42.190125" lon="1.868636">
        <ele>663.38550</ele>
        <time>2021-07-02T12:46:38Z</time>
      </trkpt>
      <trkpt lat="42.189980" lon="1.868554">
        <ele>663.34399</ele>
        <time>2021-07-02T12:46:39Z</time>
      </trkpt>
      <trkpt lat="42.189819" lon="1.868475">
        <ele>663.62817</ele>
        <time>2021-07-02T12:46:40Z</time>
      </trkpt>
      <trkpt lat="42.189674" lon="1.868405">
        <ele>662.71680</ele>
        <time>2021-07-02T12:46:41Z</time>
      </trkpt>
      <trkpt lat="42.189533" lon="1.868337">
        <ele>662.78833</ele>
        <time>2021-07-02T12:46:42Z</time>
      </trkpt>
      <trkpt lat="42.189388" lon="1.868267">
        <ele>661.44775</ele>
        <time>2021-07-02T12:46:43Z</time>
      </trkpt>
      <trkpt lat="42.189232" lon="1.868208">
        <ele>661.31421</ele>
        <time>2021-07-02T12:46:44Z</time>
      </trkpt>
      <trkpt lat="42.189068" lon="1.868147">
        <ele>661.35449</ele>
        <time>2021-07-02T12:46:45Z</time>
      </trkpt>
      <trkpt lat="42.188892" lon="1.868082">
        <ele>661.14697</ele>
        <time>2021-07-02T12:46:46Z</time>
      </trkpt>
      <trkpt lat="42.188725" lon="1.868020">
        <ele>661.11169</ele>
        <time>2021-07-02T12:46:47Z</time>
      </trkpt>
      <trkpt lat="42.188560" lon="1.867958">
        <ele>660.39075</ele>
        <time>2021-07-02T12:46:48Z</time>
      </trkpt>
      <trkpt lat="42.188396" lon="1.867899">
        <ele>660.60718</ele>
        <time>2021-07-02T12:46:49Z</time>
      </trkpt>
      <trkpt lat="42.188244" lon="1.867854">
        <ele>660.86597</ele>
        <time>2021-07-02T12:46:50Z</time>
      </trkpt>
      <trkpt lat="42.188095" lon="1.867809">
        <ele>660.75513</ele>
        <time>2021-07-02T12:46:51Z</time>
      </trkpt>
      <trkpt lat="42.187908" lon="1.867754">
        <ele>659.34241</ele>
        <time>2021-07-02T12:46:52Z</time>
      </trkpt>
      <trkpt lat="42.187737" lon="1.867714">
        <ele>659.43677</ele>
        <time>2021-07-02T12:46:53Z</time>
      </trkpt>
      <trkpt lat="42.187561" lon="1.867682">
        <ele>659.32715</ele>
        <time>2021-07-02T12:46:54Z</time>
      </trkpt>
      <trkpt lat="42.187397" lon="1.867657">
        <ele>658.67310</ele>
        <time>2021-07-02T12:46:55Z</time>
      </trkpt>
      <trkpt lat="42.187237" lon="1.867633">
        <ele>658.44946</ele>
        <time>2021-07-02T12:46:56Z</time>
      </trkpt>
      <trkpt lat="42.187092" lon="1.867612">
        <ele>657.28491</ele>
        <time>2021-07-02T12:46:57Z</time>
      </trkpt>
      <trkpt lat="42.186943" lon="1.867589">
        <ele>656.49902</ele>
        <time>2021-07-02T12:46:58Z</time>
      </trkpt>
      <trkpt lat="42.186806" lon="1.867564">
        <ele>655.14160</ele>
        <time>2021-07-02T12:46:59Z</time>
      </trkpt>
      <trkpt lat="42.186672" lon="1.867554">
        <ele>655.00439</ele>
        <time>2021-07-02T12:47:00Z</time>
      </trkpt>
      <trkpt lat="42.186535" lon="1.867549">
        <ele>652.33765</ele>
        <time>2021-07-02T12:47:01Z</time>
      </trkpt>
      <trkpt lat="42.186390" lon="1.867544">
        <ele>652.33765</ele>
        <time>2021-07-02T12:47:02Z</time>
      </trkpt>
      <trkpt lat="42.186249" lon="1.867539">
        <ele>652.33765</ele>
        <time>2021-07-02T12:47:03Z</time>
      </trkpt>
      <trkpt lat="42.186245" lon="1.867540">
        <ele>652.33765</ele>
        <time>2021-07-02T12:47:04Z</time>
      </trkpt>
      <trkpt lat="42.186245" lon="1.867540">
        <ele>652.33765</ele>
        <time>2021-07-02T12:47:05Z</time>
      </trkpt>
      <trkpt lat="42.186245" lon="1.867540">
        <ele>652.33765</ele>
        <time>2021-07-02T12:47:06Z</time>
      </trkpt>
      <trkpt lat="42.186245" lon="1.867540">
        <ele>652.33765</ele>
        <time>2021-07-02T12:47:07Z</time>
      </trkpt>
      <trkpt lat="42.186245" lon="1.867540">
        <ele>652.33765</ele>
        <time>2021-07-02T12:47:08Z</time>
      </trkpt>
      <trkpt lat="42.186245" lon="1.867540">
        <ele>652.33765</ele>
        <time>2021-07-02T12:47:09Z</time>
      </trkpt>
      <trkpt lat="42.186245" lon="1.867540">
        <ele>652.33765</ele>
        <time>2021-07-02T12:47:10Z</time>
      </trkpt>
      <trkpt lat="42.186245" lon="1.867540">
        <ele>652.33765</ele>
        <time>2021-07-02T12:47:11Z</time>
      </trkpt>
      <trkpt lat="42.186245" lon="1.867540">
        <ele>648.25769</ele>
        <time>2021-07-02T12:47:12Z</time>
      </trkpt>
      <trkpt lat="42.184555" lon="1.867884">
        <ele>649.05200</ele>
        <time>2021-07-02T12:47:13Z</time>
      </trkpt>
      <trkpt lat="42.184391" lon="1.867875">
        <ele>649.90063</ele>
        <time>2021-07-02T12:47:14Z</time>
      </trkpt>
      <trkpt lat="42.184219" lon="1.867833">
        <ele>647.65662</ele>
        <time>2021-07-02T12:47:15Z</time>
      </trkpt>
      <trkpt lat="42.184219" lon="1.867833">
        <ele>647.42889</ele>
        <time>2021-07-02T12:47:16Z</time>
      </trkpt>
      <trkpt lat="42.184044" lon="1.867767">
        <ele>647.08899</ele>
        <time>2021-07-02T12:47:17Z</time>
      </trkpt>
      <trkpt lat="42.183868" lon="1.867688">
        <ele>649.00562</ele>
        <time>2021-07-02T12:47:18Z</time>
      </trkpt>
      <trkpt lat="42.183716" lon="1.867595">
        <ele>650.37952</ele>
        <time>2021-07-02T12:47:19Z</time>
      </trkpt>
      <trkpt lat="42.183548" lon="1.867466">
        <ele>650.53564</ele>
        <time>2021-07-02T12:47:20Z</time>
      </trkpt>
      <trkpt lat="42.183384" lon="1.867298">
        <ele>650.24976</ele>
        <time>2021-07-02T12:47:21Z</time>
      </trkpt>
      <trkpt lat="42.183216" lon="1.867124">
        <ele>650.13867</ele>
        <time>2021-07-02T12:47:22Z</time>
      </trkpt>
      <trkpt lat="42.183071" lon="1.866969">
        <ele>648.90991</ele>
        <time>2021-07-02T12:47:23Z</time>
      </trkpt>
      <trkpt lat="42.182919" lon="1.866793">
        <ele>648.29370</ele>
        <time>2021-07-02T12:47:24Z</time>
      </trkpt>
      <trkpt lat="42.182770" lon="1.866597">
        <ele>647.99377</ele>
        <time>2021-07-02T12:47:25Z</time>
      </trkpt>
      <trkpt lat="42.182629" lon="1.866410">
        <ele>647.33734</ele>
        <time>2021-07-02T12:47:26Z</time>
      </trkpt>
      <trkpt lat="42.182507" lon="1.866250">
        <ele>647.07660</ele>
        <time>2021-07-02T12:47:27Z</time>
      </trkpt>
      <trkpt lat="42.182396" lon="1.866087">
        <ele>646.80023</ele>
        <time>2021-07-02T12:47:28Z</time>
      </trkpt>
      <trkpt lat="42.182281" lon="1.865911">
        <ele>647.21509</ele>
        <time>2021-07-02T12:47:29Z</time>
      </trkpt>
      <trkpt lat="42.182159" lon="1.865727">
        <ele>646.86365</ele>
        <time>2021-07-02T12:47:30Z</time>
      </trkpt>
      <trkpt lat="42.182049" lon="1.865547">
        <ele>645.90845</ele>
        <time>2021-07-02T12:47:31Z</time>
      </trkpt>
      <trkpt lat="42.181942" lon="1.865372">
        <ele>646.38757</ele>
        <time>2021-07-02T12:47:32Z</time>
      </trkpt>
      <trkpt lat="42.181835" lon="1.865197">
        <ele>646.40234</ele>
        <time>2021-07-02T12:47:33Z</time>
      </trkpt>
      <trkpt lat="42.181728" lon="1.865036">
        <ele>646.13965</ele>
        <time>2021-07-02T12:47:34Z</time>
      </trkpt>
      <trkpt lat="42.181618" lon="1.864866">
        <ele>646.54114</ele>
        <time>2021-07-02T12:47:35Z</time>
      </trkpt>
      <trkpt lat="42.181499" lon="1.864706">
        <ele>645.52161</ele>
        <time>2021-07-02T12:47:36Z</time>
      </trkpt>
      <trkpt lat="42.181366" lon="1.864559">
        <ele>645.38379</ele>
        <time>2021-07-02T12:47:37Z</time>
      </trkpt>
      <trkpt lat="42.181229" lon="1.864422">
        <ele>644.50171</ele>
        <time>2021-07-02T12:47:38Z</time>
      </trkpt>
      <trkpt lat="42.181084" lon="1.864309">
        <ele>643.43481</ele>
        <time>2021-07-02T12:47:39Z</time>
      </trkpt>
      <trkpt lat="42.180920" lon="1.864193">
        <ele>642.85510</ele>
        <time>2021-07-02T12:47:40Z</time>
      </trkpt>
      <trkpt lat="42.180729" lon="1.864095">
        <ele>642.25269</ele>
        <time>2021-07-02T12:47:41Z</time>
      </trkpt>
      <trkpt lat="42.180531" lon="1.864004">
        <ele>642.30151</ele>
        <time>2021-07-02T12:47:42Z</time>
      </trkpt>
      <trkpt lat="42.180367" lon="1.863930">
        <ele>641.11792</ele>
        <time>2021-07-02T12:47:43Z</time>
      </trkpt>
      <trkpt lat="42.180202" lon="1.863875">
        <ele>639.67395</ele>
        <time>2021-07-02T12:47:44Z</time>
      </trkpt>
      <trkpt lat="42.180023" lon="1.863819">
        <ele>638.75537</ele>
        <time>2021-07-02T12:47:45Z</time>
      </trkpt>
      <trkpt lat="42.179852" lon="1.863739">
        <ele>638.51331</ele>
        <time>2021-07-02T12:47:46Z</time>
      </trkpt>
      <trkpt lat="42.179680" lon="1.863639">
        <ele>637.87524</ele>
        <time>2021-07-02T12:47:47Z</time>
      </trkpt>
      <trkpt lat="42.179523" lon="1.863514">
        <ele>636.99780</ele>
        <time>2021-07-02T12:47:48Z</time>
      </trkpt>
      <trkpt lat="42.179363" lon="1.863366">
        <ele>637.49719</ele>
        <time>2021-07-02T12:47:49Z</time>
      </trkpt>
      <trkpt lat="42.179214" lon="1.863201">
        <ele>637.88660</ele>
        <time>2021-07-02T12:47:50Z</time>
      </trkpt>
      <trkpt lat="42.179085" lon="1.863059">
        <ele>636.32849</ele>
        <time>2021-07-02T12:47:51Z</time>
      </trkpt>
      <trkpt lat="42.178940" lon="1.862899">
        <ele>636.52014</ele>
        <time>2021-07-02T12:47:52Z</time>
      </trkpt>
      <trkpt lat="42.178940" lon="1.862899">
        <ele>636.01794</ele>
        <time>2021-07-02T12:47:53Z</time>
      </trkpt>
      <trkpt lat="42.178806" lon="1.862755">
        <ele>635.58179</ele>
        <time>2021-07-02T12:47:54Z</time>
      </trkpt>
      <trkpt lat="42.178551" lon="1.862477">
        <ele>635.13904</ele>
        <time>2021-07-02T12:47:55Z</time>
      </trkpt>
      <trkpt lat="42.178551" lon="1.862477">
        <ele>635.34045</ele>
        <time>2021-07-02T12:47:56Z</time>
      </trkpt>
      <trkpt lat="42.178417" lon="1.862332">
        <ele>634.15186</ele>
        <time>2021-07-02T12:47:57Z</time>
      </trkpt>
      <trkpt lat="42.178272" lon="1.862172">
        <ele>634.00562</ele>
        <time>2021-07-02T12:47:58Z</time>
      </trkpt>
      <trkpt lat="42.178143" lon="1.862024">
        <ele>634.13684</ele>
        <time>2021-07-02T12:47:59Z</time>
      </trkpt>
      <trkpt lat="42.178001" lon="1.861866">
        <ele>634.60022</ele>
        <time>2021-07-02T12:48:00Z</time>
      </trkpt>
      <trkpt lat="42.177872" lon="1.861719">
        <ele>634.52173</ele>
        <time>2021-07-02T12:48:01Z</time>
      </trkpt>
      <trkpt lat="42.177750" lon="1.861580">
        <ele>635.22900</ele>
        <time>2021-07-02T12:48:02Z</time>
      </trkpt>
      <trkpt lat="42.177628" lon="1.861446">
        <ele>634.49036</ele>
        <time>2021-07-02T12:48:03Z</time>
      </trkpt>
      <trkpt lat="42.177513" lon="1.861341">
        <ele>634.97925</ele>
        <time>2021-07-02T12:48:04Z</time>
      </trkpt>
      <trkpt lat="42.177380" lon="1.861245">
        <ele>634.63037</ele>
        <time>2021-07-02T12:48:05Z</time>
      </trkpt>
      <trkpt lat="42.177250" lon="1.861181">
        <ele>632.59863</ele>
        <time>2021-07-02T12:48:06Z</time>
      </trkpt>
      <trkpt lat="42.177116" lon="1.861135">
        <ele>632.87646</ele>
        <time>2021-07-02T12:48:07Z</time>
      </trkpt>
      <trkpt lat="42.176960" lon="1.861104">
        <ele>634.08191</ele>
        <time>2021-07-02T12:48:08Z</time>
      </trkpt>
      <trkpt lat="42.176800" lon="1.861099">
        <ele>634.28271</ele>
        <time>2021-07-02T12:48:09Z</time>
      </trkpt>
      <trkpt lat="42.176662" lon="1.861120">
        <ele>635.44849</ele>
        <time>2021-07-02T12:48:10Z</time>
      </trkpt>
      <trkpt lat="42.176525" lon="1.861157">
        <ele>635.93774</ele>
        <time>2021-07-02T12:48:11Z</time>
      </trkpt>
      <trkpt lat="42.176399" lon="1.861200">
        <ele>637.56177</ele>
        <time>2021-07-02T12:48:12Z</time>
      </trkpt>
      <trkpt lat="42.176266" lon="1.861251">
        <ele>638.06616</ele>
        <time>2021-07-02T12:48:13Z</time>
      </trkpt>
      <trkpt lat="42.176132" lon="1.861299">
        <ele>639.55994</ele>
        <time>2021-07-02T12:48:14Z</time>
      </trkpt>
      <trkpt lat="42.176014" lon="1.861337">
        <ele>639.89526</ele>
        <time>2021-07-02T12:48:15Z</time>
      </trkpt>
      <trkpt lat="42.175888" lon="1.861370">
        <ele>641.13684</ele>
        <time>2021-07-02T12:48:16Z</time>
      </trkpt>
      <trkpt lat="42.175758" lon="1.861400">
        <ele>639.35840</ele>
        <time>2021-07-02T12:48:17Z</time>
      </trkpt>
      <trkpt lat="42.175636" lon="1.861429">
        <ele>639.78101</ele>
        <time>2021-07-02T12:48:18Z</time>
      </trkpt>
      <trkpt lat="42.175549" lon="1.861449">
        <ele>640.41797</ele>
        <time>2021-07-02T12:48:19Z</time>
      </trkpt>
      <trkpt lat="42.175453" lon="1.861471">
        <ele>641.65063</ele>
        <time>2021-07-02T12:48:20Z</time>
      </trkpt>
      <trkpt lat="42.175381" lon="1.861490">
        <ele>642.86035</ele>
        <time>2021-07-02T12:48:21Z</time>
      </trkpt>
      <trkpt lat="42.175293" lon="1.861513">
        <ele>642.70728</ele>
        <time>2021-07-02T12:48:22Z</time>
      </trkpt>
      <trkpt lat="42.175201" lon="1.861537">
        <ele>643.72705</ele>
        <time>2021-07-02T12:48:23Z</time>
      </trkpt>
      <trkpt lat="42.175117" lon="1.861558">
        <ele>644.19604</ele>
        <time>2021-07-02T12:48:24Z</time>
      </trkpt>
      <trkpt lat="42.175022" lon="1.861583">
        <ele>644.27844</ele>
        <time>2021-07-02T12:48:25Z</time>
      </trkpt>
      <trkpt lat="42.174915" lon="1.861611">
        <ele>645.89258</ele>
        <time>2021-07-02T12:48:26Z</time>
      </trkpt>
      <trkpt lat="42.174820" lon="1.861634">
        <ele>639.63062</ele>
        <time>2021-07-02T12:48:27Z</time>
      </trkpt>
      <trkpt lat="42.174679" lon="1.861663">
        <ele>640.21814</ele>
        <time>2021-07-02T12:48:28Z</time>
      </trkpt>
      <trkpt lat="42.174580" lon="1.861663">
        <ele>640.68677</ele>
        <time>2021-07-02T12:48:29Z</time>
      </trkpt>
      <trkpt lat="42.174461" lon="1.861660">
        <ele>641.11694</ele>
        <time>2021-07-02T12:48:30Z</time>
      </trkpt>
      <trkpt lat="42.174461" lon="1.861660">
        <ele>642.39819</ele>
        <time>2021-07-02T12:48:31Z</time>
      </trkpt>
      <trkpt lat="42.174343" lon="1.861635">
        <ele>642.78003</ele>
        <time>2021-07-02T12:48:32Z</time>
      </trkpt>
      <trkpt lat="42.174225" lon="1.861587">
        <ele>642.58252</ele>
        <time>2021-07-02T12:48:33Z</time>
      </trkpt>
      <trkpt lat="42.174076" lon="1.861518">
        <ele>642.40649</ele>
        <time>2021-07-02T12:48:34Z</time>
      </trkpt>
      <trkpt lat="42.173958" lon="1.861458">
        <ele>642.64136</ele>
        <time>2021-07-02T12:48:35Z</time>
      </trkpt>
      <trkpt lat="42.173805" lon="1.861380">
        <ele>643.78467</ele>
        <time>2021-07-02T12:48:36Z</time>
      </trkpt>
      <trkpt lat="42.173676" lon="1.861312">
        <ele>644.21802</ele>
        <time>2021-07-02T12:48:37Z</time>
      </trkpt>
      <trkpt lat="42.173569" lon="1.861255">
        <ele>645.49255</ele>
        <time>2021-07-02T12:48:38Z</time>
      </trkpt>
      <trkpt lat="42.173458" lon="1.861196">
        <ele>645.80493</ele>
        <time>2021-07-02T12:48:39Z</time>
      </trkpt>
      <trkpt lat="42.173336" lon="1.861130">
        <ele>656.58319</ele>
        <time>2021-07-02T12:48:40Z</time>
      </trkpt>
      <trkpt lat="42.173229" lon="1.861056">
        <ele>653.03882</ele>
        <time>2021-07-02T12:48:41Z</time>
      </trkpt>
      <trkpt lat="42.173130" lon="1.860988">
        <ele>652.27759</ele>
        <time>2021-07-02T12:48:42Z</time>
      </trkpt>
      <trkpt lat="42.173035" lon="1.860919">
        <ele>652.14990</ele>
        <time>2021-07-02T12:48:43Z</time>
      </trkpt>
      <trkpt lat="42.172955" lon="1.860854">
        <ele>651.42480</ele>
        <time>2021-07-02T12:48:44Z</time>
      </trkpt>
      <trkpt lat="42.172874" lon="1.860788">
        <ele>651.63062</ele>
        <time>2021-07-02T12:48:45Z</time>
      </trkpt>
      <trkpt lat="42.172791" lon="1.860719">
        <ele>652.48755</ele>
        <time>2021-07-02T12:48:46Z</time>
      </trkpt>
      <trkpt lat="42.172703" lon="1.860649">
        <ele>652.58643</ele>
        <time>2021-07-02T12:48:47Z</time>
      </trkpt>
      <trkpt lat="42.172607" lon="1.860572">
        <ele>653.27515</ele>
        <time>2021-07-02T12:48:48Z</time>
      </trkpt>
      <trkpt lat="42.172493" lon="1.860495">
        <ele>651.01440</ele>
        <time>2021-07-02T12:48:49Z</time>
      </trkpt>
      <trkpt lat="42.172352" lon="1.860412">
        <ele>650.63428</ele>
        <time>2021-07-02T12:48:50Z</time>
      </trkpt>
      <trkpt lat="42.172203" lon="1.860340">
        <ele>650.39673</ele>
        <time>2021-07-02T12:48:51Z</time>
      </trkpt>
      <trkpt lat="42.172050" lon="1.860274">
        <ele>650.83618</ele>
        <time>2021-07-02T12:48:52Z</time>
      </trkpt>
      <trkpt lat="42.171890" lon="1.860203">
        <ele>651.94055</ele>
        <time>2021-07-02T12:48:53Z</time>
      </trkpt>
      <trkpt lat="42.171745" lon="1.860138">
        <ele>652.35034</ele>
        <time>2021-07-02T12:48:54Z</time>
      </trkpt>
      <trkpt lat="42.171616" lon="1.860077">
        <ele>651.93408</ele>
        <time>2021-07-02T12:48:55Z</time>
      </trkpt>
      <trkpt lat="42.171490" lon="1.859991">
        <ele>652.59863</ele>
        <time>2021-07-02T12:48:56Z</time>
      </trkpt>
      <trkpt lat="42.171383" lon="1.859881">
        <ele>652.20593</ele>
        <time>2021-07-02T12:48:57Z</time>
      </trkpt>
      <trkpt lat="42.171303" lon="1.859763">
        <ele>651.87952</ele>
        <time>2021-07-02T12:48:58Z</time>
      </trkpt>
      <trkpt lat="42.171246" lon="1.859635">
        <ele>652.52942</ele>
        <time>2021-07-02T12:48:59Z</time>
      </trkpt>
      <trkpt lat="42.171196" lon="1.859477">
        <ele>653.32031</ele>
        <time>2021-07-02T12:49:00Z</time>
      </trkpt>
      <trkpt lat="42.171158" lon="1.859330">
        <ele>654.32678</ele>
        <time>2021-07-02T12:49:01Z</time>
      </trkpt>
      <trkpt lat="42.171120" lon="1.859172">
        <ele>655.08472</ele>
        <time>2021-07-02T12:49:02Z</time>
      </trkpt>
      <trkpt lat="42.171082" lon="1.859027">
        <ele>656.19556</ele>
        <time>2021-07-02T12:49:03Z</time>
      </trkpt>
      <trkpt lat="42.171043" lon="1.858886">
        <ele>656.85938</ele>
        <time>2021-07-02T12:49:04Z</time>
      </trkpt>
      <trkpt lat="42.170990" lon="1.858737">
        <ele>656.51367</ele>
        <time>2021-07-02T12:49:05Z</time>
      </trkpt>
      <trkpt lat="42.170925" lon="1.858580">
        <ele>657.00427</ele>
        <time>2021-07-02T12:49:06Z</time>
      </trkpt>
      <trkpt lat="42.170925" lon="1.858580">
        <ele>657.41187</ele>
        <time>2021-07-02T12:49:07Z</time>
      </trkpt>
      <trkpt lat="42.170853" lon="1.858451">
        <ele>657.89087</ele>
        <time>2021-07-02T12:49:08Z</time>
      </trkpt>
      <trkpt lat="42.170769" lon="1.858343">
        <ele>658.43311</ele>
        <time>2021-07-02T12:49:09Z</time>
      </trkpt>
      <trkpt lat="42.170681" lon="1.858235">
        <ele>661.98560</ele>
        <time>2021-07-02T12:49:10Z</time>
      </trkpt>
      <trkpt lat="42.170578" lon="1.858139">
        <ele>662.76233</ele>
        <time>2021-07-02T12:49:11Z</time>
      </trkpt>
      <trkpt lat="42.170460" lon="1.858030">
        <ele>663.23120</ele>
        <time>2021-07-02T12:49:12Z</time>
      </trkpt>
      <trkpt lat="42.170345" lon="1.857942">
        <ele>664.77734</ele>
        <time>2021-07-02T12:49:13Z</time>
      </trkpt>
      <trkpt lat="42.170242" lon="1.857861">
        <ele>664.93896</ele>
        <time>2021-07-02T12:49:14Z</time>
      </trkpt>
      <trkpt lat="42.170139" lon="1.857783">
        <ele>665.81238</ele>
        <time>2021-07-02T12:49:15Z</time>
      </trkpt>
      <trkpt lat="42.170052" lon="1.857714">
        <ele>665.62646</ele>
        <time>2021-07-02T12:49:16Z</time>
      </trkpt>
      <trkpt lat="42.169975" lon="1.857656">
        <ele>666.41138</ele>
        <time>2021-07-02T12:49:17Z</time>
      </trkpt>
      <trkpt lat="42.169895" lon="1.857593">
        <ele>667.57568</ele>
        <time>2021-07-02T12:49:18Z</time>
      </trkpt>
      <trkpt lat="42.169827" lon="1.857532">
        <ele>668.14209</ele>
        <time>2021-07-02T12:49:19Z</time>
      </trkpt>
      <trkpt lat="42.169765" lon="1.857478">
        <ele>668.28760</ele>
        <time>2021-07-02T12:49:20Z</time>
      </trkpt>
      <trkpt lat="42.169697" lon="1.857415">
        <ele>668.09375</ele>
        <time>2021-07-02T12:49:21Z</time>
      </trkpt>
      <trkpt lat="42.169621" lon="1.857345">
        <ele>668.07336</ele>
        <time>2021-07-02T12:49:22Z</time>
      </trkpt>
      <trkpt lat="42.169537" lon="1.857267">
        <ele>667.56006</ele>
        <time>2021-07-02T12:49:23Z</time>
      </trkpt>
      <trkpt lat="42.169434" lon="1.857156">
        <ele>668.69531</ele>
        <time>2021-07-02T12:49:24Z</time>
      </trkpt>
      <trkpt lat="42.169319" lon="1.857038">
        <ele>670.14844</ele>
        <time>2021-07-02T12:49:25Z</time>
      </trkpt>
      <trkpt lat="42.169231" lon="1.856913">
        <ele>670.13892</ele>
        <time>2021-07-02T12:49:26Z</time>
      </trkpt>
      <trkpt lat="42.169147" lon="1.856791">
        <ele>671.17261</ele>
        <time>2021-07-02T12:49:27Z</time>
      </trkpt>
      <trkpt lat="42.169079" lon="1.856697">
        <ele>671.87720</ele>
        <time>2021-07-02T12:49:28Z</time>
      </trkpt>
      <trkpt lat="42.169010" lon="1.856599">
        <ele>671.66382</ele>
        <time>2021-07-02T12:49:29Z</time>
      </trkpt>
      <trkpt lat="42.168930" lon="1.856509">
        <ele>672.04834</ele>
        <time>2021-07-02T12:49:30Z</time>
      </trkpt>
      <trkpt lat="42.168842" lon="1.856423">
        <ele>672.07373</ele>
        <time>2021-07-02T12:49:31Z</time>
      </trkpt>
      <trkpt lat="42.168755" lon="1.856364">
        <ele>673.21484</ele>
        <time>2021-07-02T12:49:32Z</time>
      </trkpt>
      <trkpt lat="42.168652" lon="1.856307">
        <ele>674.25049</ele>
        <time>2021-07-02T12:49:33Z</time>
      </trkpt>
      <trkpt lat="42.168552" lon="1.856274">
        <ele>675.82324</ele>
        <time>2021-07-02T12:49:34Z</time>
      </trkpt>
      <trkpt lat="42.168427" lon="1.856250">
        <ele>675.81299</ele>
        <time>2021-07-02T12:49:35Z</time>
      </trkpt>
      <trkpt lat="42.168312" lon="1.856235">
        <ele>676.81689</ele>
        <time>2021-07-02T12:49:36Z</time>
      </trkpt>
      <trkpt lat="42.168209" lon="1.856221">
        <ele>676.29370</ele>
        <time>2021-07-02T12:49:37Z</time>
      </trkpt>
      <trkpt lat="42.168198" lon="1.856220">
        <ele>676.50134</ele>
        <time>2021-07-02T12:49:38Z</time>
      </trkpt>
      <trkpt lat="42.168182" lon="1.856205">
        <ele>677.88647</ele>
        <time>2021-07-02T12:49:39Z</time>
      </trkpt>
      <trkpt lat="42.167976" lon="1.856065">
        <ele>678.86890</ele>
        <time>2021-07-02T12:49:40Z</time>
      </trkpt>
      <trkpt lat="42.167839" lon="1.856009">
        <ele>679.21924</ele>
        <time>2021-07-02T12:49:41Z</time>
      </trkpt>
      <trkpt lat="42.167652" lon="1.856166">
        <ele>679.98950</ele>
        <time>2021-07-02T12:49:42Z</time>
      </trkpt>
      <trkpt lat="42.167652" lon="1.856166">
        <ele>680.59448</ele>
        <time>2021-07-02T12:49:43Z</time>
      </trkpt>
      <trkpt lat="42.167538" lon="1.856149">
        <ele>681.12891</ele>
        <time>2021-07-02T12:49:44Z</time>
      </trkpt>
      <trkpt lat="42.167442" lon="1.856126">
        <ele>682.79053</ele>
        <time>2021-07-02T12:49:45Z</time>
      </trkpt>
      <trkpt lat="42.167332" lon="1.856094">
        <ele>681.21637</ele>
        <time>2021-07-02T12:49:46Z</time>
      </trkpt>
      <trkpt lat="42.167248" lon="1.856061">
        <ele>682.74719</ele>
        <time>2021-07-02T12:49:47Z</time>
      </trkpt>
      <trkpt lat="42.167179" lon="1.856032">
        <ele>684.01099</ele>
        <time>2021-07-02T12:49:48Z</time>
      </trkpt>
      <trkpt lat="42.167107" lon="1.856001">
        <ele>684.79346</ele>
        <time>2021-07-02T12:49:49Z</time>
      </trkpt>
      <trkpt lat="42.167034" lon="1.855972">
        <ele>685.19458</ele>
        <time>2021-07-02T12:49:50Z</time>
      </trkpt>
      <trkpt lat="42.166962" lon="1.855937">
        <ele>685.92542</ele>
        <time>2021-07-02T12:49:51Z</time>
      </trkpt>
      <trkpt lat="42.166870" lon="1.855889">
        <ele>687.80396</ele>
        <time>2021-07-02T12:49:52Z</time>
      </trkpt>
      <trkpt lat="42.166775" lon="1.855835">
        <ele>688.66284</ele>
        <time>2021-07-02T12:49:53Z</time>
      </trkpt>
      <trkpt lat="42.166664" lon="1.855766">
        <ele>689.42175</ele>
        <time>2021-07-02T12:49:54Z</time>
      </trkpt>
      <trkpt lat="42.166569" lon="1.855707">
        <ele>690.09473</ele>
        <time>2021-07-02T12:49:55Z</time>
      </trkpt>
      <trkpt lat="42.166473" lon="1.855647">
        <ele>691.23828</ele>
        <time>2021-07-02T12:49:56Z</time>
      </trkpt>
      <trkpt lat="42.166367" lon="1.855581">
        <ele>691.44995</ele>
        <time>2021-07-02T12:49:57Z</time>
      </trkpt>
      <trkpt lat="42.166267" lon="1.855519">
        <ele>692.03955</ele>
        <time>2021-07-02T12:49:58Z</time>
      </trkpt>
      <trkpt lat="42.166168" lon="1.855456">
        <ele>692.88989</ele>
        <time>2021-07-02T12:49:59Z</time>
      </trkpt>
      <trkpt lat="42.166061" lon="1.855390">
        <ele>693.52051</ele>
        <time>2021-07-02T12:50:00Z</time>
      </trkpt>
      <trkpt lat="42.165958" lon="1.855324">
        <ele>694.23706</ele>
        <time>2021-07-02T12:50:01Z</time>
      </trkpt>
      <trkpt lat="42.165867" lon="1.855268">
        <ele>695.10474</ele>
        <time>2021-07-02T12:50:02Z</time>
      </trkpt>
      <trkpt lat="42.165779" lon="1.855224">
        <ele>694.52637</ele>
        <time>2021-07-02T12:50:03Z</time>
      </trkpt>
      <trkpt lat="42.165684" lon="1.855185">
        <ele>693.73022</ele>
        <time>2021-07-02T12:50:04Z</time>
      </trkpt>
      <trkpt lat="42.165577" lon="1.855161">
        <ele>693.51599</ele>
        <time>2021-07-02T12:50:05Z</time>
      </trkpt>
      <trkpt lat="42.165459" lon="1.855145">
        <ele>693.53198</ele>
        <time>2021-07-02T12:50:06Z</time>
      </trkpt>
      <trkpt lat="42.165298" lon="1.855154">
        <ele>693.42517</ele>
        <time>2021-07-02T12:50:07Z</time>
      </trkpt>
      <trkpt lat="42.165165" lon="1.855197">
        <ele>694.02979</ele>
        <time>2021-07-02T12:50:08Z</time>
      </trkpt>
      <trkpt lat="42.165028" lon="1.855252">
        <ele>694.24011</ele>
        <time>2021-07-02T12:50:09Z</time>
      </trkpt>
      <trkpt lat="42.164936" lon="1.855318">
        <ele>694.42480</ele>
        <time>2021-07-02T12:50:10Z</time>
      </trkpt>
      <trkpt lat="42.164921" lon="1.855323">
        <ele>694.62256</ele>
        <time>2021-07-02T12:50:11Z</time>
      </trkpt>
      <trkpt lat="42.164661" lon="1.855612">
        <ele>695.37842</ele>
        <time>2021-07-02T12:50:12Z</time>
      </trkpt>
      <trkpt lat="42.164555" lon="1.855748">
        <ele>695.72559</ele>
        <time>2021-07-02T12:50:13Z</time>
      </trkpt>
      <trkpt lat="42.164459" lon="1.855866">
        <ele>696.67603</ele>
        <time>2021-07-02T12:50:14Z</time>
      </trkpt>
      <trkpt lat="42.164326" lon="1.856030">
        <ele>697.15894</ele>
        <time>2021-07-02T12:50:15Z</time>
      </trkpt>
      <trkpt lat="42.164326" lon="1.856030">
        <ele>697.39307</ele>
        <time>2021-07-02T12:50:16Z</time>
      </trkpt>
      <trkpt lat="42.164207" lon="1.856161">
        <ele>698.25720</ele>
        <time>2021-07-02T12:50:17Z</time>
      </trkpt>
      <trkpt lat="42.164085" lon="1.856244">
        <ele>698.82019</ele>
        <time>2021-07-02T12:50:18Z</time>
      </trkpt>
      <trkpt lat="42.163967" lon="1.856304">
        <ele>699.66040</ele>
        <time>2021-07-02T12:50:19Z</time>
      </trkpt>
      <trkpt lat="42.163834" lon="1.856323">
        <ele>698.86060</ele>
        <time>2021-07-02T12:50:20Z</time>
      </trkpt>
      <trkpt lat="42.163689" lon="1.856318">
        <ele>700.76855</ele>
        <time>2021-07-02T12:50:21Z</time>
      </trkpt>
      <trkpt lat="42.163559" lon="1.856298">
        <ele>701.60583</ele>
        <time>2021-07-02T12:50:22Z</time>
      </trkpt>
      <trkpt lat="42.163445" lon="1.856244">
        <ele>702.60718</ele>
        <time>2021-07-02T12:50:23Z</time>
      </trkpt>
      <trkpt lat="42.163322" lon="1.856164">
        <ele>702.58838</ele>
        <time>2021-07-02T12:50:24Z</time>
      </trkpt>
      <trkpt lat="42.163223" lon="1.856072">
        <ele>703.06104</ele>
        <time>2021-07-02T12:50:25Z</time>
      </trkpt>
      <trkpt lat="42.163128" lon="1.855980">
        <ele>701.81982</ele>
        <time>2021-07-02T12:50:26Z</time>
      </trkpt>
      <trkpt lat="42.163017" lon="1.855872">
        <ele>701.15308</ele>
        <time>2021-07-02T12:50:27Z</time>
      </trkpt>
      <trkpt lat="42.162895" lon="1.855747">
        <ele>701.25269</ele>
        <time>2021-07-02T12:50:28Z</time>
      </trkpt>
      <trkpt lat="42.162777" lon="1.855629">
        <ele>701.69263</ele>
        <time>2021-07-02T12:50:29Z</time>
      </trkpt>
      <trkpt lat="42.162643" lon="1.855510">
        <ele>702.25745</ele>
        <time>2021-07-02T12:50:30Z</time>
      </trkpt>
      <trkpt lat="42.162502" lon="1.855403">
        <ele>701.18359</ele>
        <time>2021-07-02T12:50:31Z</time>
      </trkpt>
      <trkpt lat="42.162354" lon="1.855328">
        <ele>701.54065</ele>
        <time>2021-07-02T12:50:32Z</time>
      </trkpt>
      <trkpt lat="42.162212" lon="1.855277">
        <ele>701.14258</ele>
        <time>2021-07-02T12:50:33Z</time>
      </trkpt>
      <trkpt lat="42.162064" lon="1.855243">
        <ele>701.25269</ele>
        <time>2021-07-02T12:50:34Z</time>
      </trkpt>
      <trkpt lat="42.161907" lon="1.855221">
        <ele>699.99500</ele>
        <time>2021-07-02T12:50:35Z</time>
      </trkpt>
      <trkpt lat="42.161751" lon="1.855226">
        <ele>700.16956</ele>
        <time>2021-07-02T12:50:36Z</time>
      </trkpt>
      <trkpt lat="42.161579" lon="1.855260">
        <ele>701.39111</ele>
        <time>2021-07-02T12:50:37Z</time>
      </trkpt>
      <trkpt lat="42.161430" lon="1.855322">
        <ele>700.71631</ele>
        <time>2021-07-02T12:50:38Z</time>
      </trkpt>
      <trkpt lat="42.161236" lon="1.855423">
        <ele>699.55493</ele>
        <time>2021-07-02T12:50:39Z</time>
      </trkpt>
      <trkpt lat="42.161091" lon="1.855527">
        <ele>699.74487</ele>
        <time>2021-07-02T12:50:40Z</time>
      </trkpt>
      <trkpt lat="42.160954" lon="1.855660">
        <ele>701.57922</ele>
        <time>2021-07-02T12:50:41Z</time>
      </trkpt>
      <trkpt lat="42.160816" lon="1.855822">
        <ele>701.78931</ele>
        <time>2021-07-02T12:50:42Z</time>
      </trkpt>
      <trkpt lat="42.160702" lon="1.855988">
        <ele>702.60413</ele>
        <time>2021-07-02T12:50:43Z</time>
      </trkpt>
      <trkpt lat="42.160587" lon="1.856183">
        <ele>702.11401</ele>
        <time>2021-07-02T12:50:44Z</time>
      </trkpt>
      <trkpt lat="42.160496" lon="1.856369">
        <ele>701.96252</ele>
        <time>2021-07-02T12:50:45Z</time>
      </trkpt>
      <trkpt lat="42.160412" lon="1.856561">
        <ele>701.89111</ele>
        <time>2021-07-02T12:50:46Z</time>
      </trkpt>
      <trkpt lat="42.160343" lon="1.856738">
        <ele>702.05786</ele>
        <time>2021-07-02T12:50:47Z</time>
      </trkpt>
      <trkpt lat="42.160343" lon="1.856738">
        <ele>702.82837</ele>
        <time>2021-07-02T12:50:48Z</time>
      </trkpt>
      <trkpt lat="42.160267" lon="1.856935">
        <ele>703.91931</ele>
        <time>2021-07-02T12:50:49Z</time>
      </trkpt>
      <trkpt lat="42.160191" lon="1.857128">
        <ele>704.85815</ele>
        <time>2021-07-02T12:50:50Z</time>
      </trkpt>
      <trkpt lat="42.160130" lon="1.857290">
        <ele>705.94250</ele>
        <time>2021-07-02T12:50:51Z</time>
      </trkpt>
      <trkpt lat="42.160046" lon="1.857465">
        <ele>707.09570</ele>
        <time>2021-07-02T12:50:52Z</time>
      </trkpt>
      <trkpt lat="42.159958" lon="1.857643">
        <ele>708.27490</ele>
        <time>2021-07-02T12:50:53Z</time>
      </trkpt>
      <trkpt lat="42.159859" lon="1.857817">
        <ele>708.47412</ele>
        <time>2021-07-02T12:50:54Z</time>
      </trkpt>
      <trkpt lat="42.159740" lon="1.858006">
        <ele>708.87598</ele>
        <time>2021-07-02T12:50:55Z</time>
      </trkpt>
      <trkpt lat="42.159622" lon="1.858158">
        <ele>709.10547</ele>
        <time>2021-07-02T12:50:56Z</time>
      </trkpt>
      <trkpt lat="42.159508" lon="1.858292">
        <ele>709.29004</ele>
        <time>2021-07-02T12:50:57Z</time>
      </trkpt>
      <trkpt lat="42.159382" lon="1.858421">
        <ele>709.71509</ele>
        <time>2021-07-02T12:50:58Z</time>
      </trkpt>
      <trkpt lat="42.159260" lon="1.858536">
        <ele>710.00598</ele>
        <time>2021-07-02T12:50:59Z</time>
      </trkpt>
      <trkpt lat="42.159134" lon="1.858631">
        <ele>710.00244</ele>
        <time>2021-07-02T12:51:00Z</time>
      </trkpt>
      <trkpt lat="42.159016" lon="1.858718">
        <ele>713.41626</ele>
        <time>2021-07-02T12:51:01Z</time>
      </trkpt>
      <trkpt lat="42.158878" lon="1.858804">
        <ele>714.04858</ele>
        <time>2021-07-02T12:51:02Z</time>
      </trkpt>
      <trkpt lat="42.158733" lon="1.858875">
        <ele>715.05225</ele>
        <time>2021-07-02T12:51:03Z</time>
      </trkpt>
      <trkpt lat="42.158588" lon="1.858947">
        <ele>715.23633</ele>
        <time>2021-07-02T12:51:04Z</time>
      </trkpt>
      <trkpt lat="42.158436" lon="1.859007">
        <ele>716.35132</ele>
        <time>2021-07-02T12:51:05Z</time>
      </trkpt>
      <trkpt lat="42.158287" lon="1.859062">
        <ele>716.94189</ele>
        <time>2021-07-02T12:51:06Z</time>
      </trkpt>
      <trkpt lat="42.158127" lon="1.859102">
        <ele>717.11743</ele>
        <time>2021-07-02T12:51:07Z</time>
      </trkpt>
      <trkpt lat="42.157974" lon="1.859131">
        <ele>717.54724</ele>
        <time>2021-07-02T12:51:08Z</time>
      </trkpt>
      <trkpt lat="42.157814" lon="1.859135">
        <ele>718.54956</ele>
        <time>2021-07-02T12:51:09Z</time>
      </trkpt>
      <trkpt lat="42.157661" lon="1.859132">
        <ele>718.93311</ele>
        <time>2021-07-02T12:51:10Z</time>
      </trkpt>
      <trkpt lat="42.157501" lon="1.859110">
        <ele>719.56311</ele>
        <time>2021-07-02T12:51:11Z</time>
      </trkpt>
      <trkpt lat="42.157333" lon="1.859078">
        <ele>719.00635</ele>
        <time>2021-07-02T12:51:12Z</time>
      </trkpt>
      <trkpt lat="42.157192" lon="1.859036">
        <ele>719.51514</ele>
        <time>2021-07-02T12:51:13Z</time>
      </trkpt>
      <trkpt lat="42.157043" lon="1.858982">
        <ele>719.14868</ele>
        <time>2021-07-02T12:51:14Z</time>
      </trkpt>
      <trkpt lat="42.156902" lon="1.858925">
        <ele>720.49084</ele>
        <time>2021-07-02T12:51:15Z</time>
      </trkpt>
      <trkpt lat="42.156731" lon="1.858838">
        <ele>721.03540</ele>
        <time>2021-07-02T12:51:16Z</time>
      </trkpt>
      <trkpt lat="42.156578" lon="1.858746">
        <ele>720.82629</ele>
        <time>2021-07-02T12:51:17Z</time>
      </trkpt>
      <trkpt lat="42.156441" lon="1.858657">
        <ele>720.16821</ele>
        <time>2021-07-02T12:51:18Z</time>
      </trkpt>
      <trkpt lat="42.156303" lon="1.858560">
        <ele>720.24805</ele>
        <time>2021-07-02T12:51:19Z</time>
      </trkpt>
      <trkpt lat="42.156151" lon="1.858443">
        <ele>717.47485</ele>
        <time>2021-07-02T12:51:20Z</time>
      </trkpt>
      <trkpt lat="42.155994" lon="1.858330">
        <ele>718.35669</ele>
        <time>2021-07-02T12:51:21Z</time>
      </trkpt>
      <trkpt lat="42.155865" lon="1.858246">
        <ele>718.11963</ele>
        <time>2021-07-02T12:51:22Z</time>
      </trkpt>
      <trkpt lat="42.155743" lon="1.858168">
        <ele>714.97778</ele>
        <time>2021-07-02T12:51:23Z</time>
      </trkpt>
      <trkpt lat="42.155731" lon="1.858146">
        <ele>715.27246</ele>
        <time>2021-07-02T12:51:24Z</time>
      </trkpt>
      <trkpt lat="42.155537" lon="1.857849">
        <ele>715.00146</ele>
        <time>2021-07-02T12:51:25Z</time>
      </trkpt>
      <trkpt lat="42.155338" lon="1.857959">
        <ele>714.53491</ele>
        <time>2021-07-02T12:51:26Z</time>
      </trkpt>
      <trkpt lat="42.155182" lon="1.857897">
        <ele>713.74243</ele>
        <time>2021-07-02T12:51:27Z</time>
      </trkpt>
      <trkpt lat="42.155182" lon="1.857897">
        <ele>714.29834</ele>
        <time>2021-07-02T12:51:28Z</time>
      </trkpt>
      <trkpt lat="42.154972" lon="1.857843">
        <ele>712.98621</ele>
        <time>2021-07-02T12:51:29Z</time>
      </trkpt>
      <trkpt lat="42.154785" lon="1.857818">
        <ele>711.73120</ele>
        <time>2021-07-02T12:51:30Z</time>
      </trkpt>
      <trkpt lat="42.154610" lon="1.857810">
        <ele>710.66235</ele>
        <time>2021-07-02T12:51:31Z</time>
      </trkpt>
      <trkpt lat="42.154430" lon="1.857819">
        <ele>712.03943</ele>
        <time>2021-07-02T12:51:32Z</time>
      </trkpt>
      <trkpt lat="42.154247" lon="1.857839">
        <ele>711.00085</ele>
        <time>2021-07-02T12:51:33Z</time>
      </trkpt>
      <trkpt lat="42.154057" lon="1.857886">
        <ele>708.36621</ele>
        <time>2021-07-02T12:51:34Z</time>
      </trkpt>
      <trkpt lat="42.153877" lon="1.857952">
        <ele>707.60742</ele>
        <time>2021-07-02T12:51:35Z</time>
      </trkpt>
      <trkpt lat="42.153721" lon="1.858015">
        <ele>706.35229</ele>
        <time>2021-07-02T12:51:36Z</time>
      </trkpt>
      <trkpt lat="42.153576" lon="1.858093">
        <ele>705.66089</ele>
        <time>2021-07-02T12:51:37Z</time>
      </trkpt>
      <trkpt lat="42.153419" lon="1.858187">
        <ele>705.11890</ele>
        <time>2021-07-02T12:51:38Z</time>
      </trkpt>
      <trkpt lat="42.153267" lon="1.858293">
        <ele>704.11841</ele>
        <time>2021-07-02T12:51:39Z</time>
      </trkpt>
      <trkpt lat="42.153126" lon="1.858422">
        <ele>702.55322</ele>
        <time>2021-07-02T12:51:40Z</time>
      </trkpt>
      <trkpt lat="42.152992" lon="1.858555">
        <ele>702.12231</ele>
        <time>2021-07-02T12:51:41Z</time>
      </trkpt>
      <trkpt lat="42.152870" lon="1.858696">
        <ele>701.89526</ele>
        <time>2021-07-02T12:51:42Z</time>
      </trkpt>
      <trkpt lat="42.152756" lon="1.858830">
        <ele>701.48376</ele>
        <time>2021-07-02T12:51:43Z</time>
      </trkpt>
      <trkpt lat="42.152657" lon="1.858976">
        <ele>700.22949</ele>
        <time>2021-07-02T12:51:44Z</time>
      </trkpt>
      <trkpt lat="42.152557" lon="1.859131">
        <ele>700.46313</ele>
        <time>2021-07-02T12:51:45Z</time>
      </trkpt>
      <trkpt lat="42.152470" lon="1.859289">
        <ele>699.70862</ele>
        <time>2021-07-02T12:51:46Z</time>
      </trkpt>
      <trkpt lat="42.152378" lon="1.859468">
        <ele>698.41064</ele>
        <time>2021-07-02T12:51:47Z</time>
      </trkpt>
      <trkpt lat="42.152306" lon="1.859643">
        <ele>698.41565</ele>
        <time>2021-07-02T12:51:48Z</time>
      </trkpt>
      <trkpt lat="42.152233" lon="1.859820">
        <ele>697.61475</ele>
        <time>2021-07-02T12:51:49Z</time>
      </trkpt>
      <trkpt lat="42.152180" lon="1.859993">
        <ele>696.91431</ele>
        <time>2021-07-02T12:51:50Z</time>
      </trkpt>
      <trkpt lat="42.152130" lon="1.860165">
        <ele>696.38232</ele>
        <time>2021-07-02T12:51:51Z</time>
      </trkpt>
      <trkpt lat="42.152088" lon="1.860348">
        <ele>694.57495</ele>
        <time>2021-07-02T12:51:52Z</time>
      </trkpt>
      <trkpt lat="42.152073" lon="1.860450">
        <ele>694.42773</ele>
        <time>2021-07-02T12:51:53Z</time>
      </trkpt>
      <trkpt lat="42.152073" lon="1.860451">
        <ele>693.12012</ele>
        <time>2021-07-02T12:51:54Z</time>
      </trkpt>
      <trkpt lat="42.151810" lon="1.860553">
        <ele>692.15039</ele>
        <time>2021-07-02T12:51:55Z</time>
      </trkpt>
      <trkpt lat="42.151997" lon="1.861053">
        <ele>691.83752</ele>
        <time>2021-07-02T12:51:56Z</time>
      </trkpt>
      <trkpt lat="42.151985" lon="1.861373">
        <ele>690.40784</ele>
        <time>2021-07-02T12:51:57Z</time>
      </trkpt>
      <trkpt lat="42.152000" lon="1.861598">
        <ele>688.84265</ele>
        <time>2021-07-02T12:51:58Z</time>
      </trkpt>
      <trkpt lat="42.152008" lon="1.861798">
        <ele>687.30042</ele>
        <time>2021-07-02T12:51:59Z</time>
      </trkpt>
      <trkpt lat="42.152023" lon="1.862005">
        <ele>686.67505</ele>
        <time>2021-07-02T12:52:00Z</time>
      </trkpt>
      <trkpt lat="42.152039" lon="1.862217">
        <ele>683.02368</ele>
        <time>2021-07-02T12:52:01Z</time>
      </trkpt>
      <trkpt lat="42.152046" lon="1.862420">
        <ele>681.60620</ele>
        <time>2021-07-02T12:52:02Z</time>
      </trkpt>
      <trkpt lat="42.152039" lon="1.862625">
        <ele>680.52783</ele>
        <time>2021-07-02T12:52:03Z</time>
      </trkpt>
      <trkpt lat="42.152058" lon="1.862833">
        <ele>680.63208</ele>
        <time>2021-07-02T12:52:04Z</time>
      </trkpt>
      <trkpt lat="42.152058" lon="1.862833">
        <ele>680.06409</ele>
        <time>2021-07-02T12:52:05Z</time>
      </trkpt>
      <trkpt lat="42.152081" lon="1.863069">
        <ele>678.53284</ele>
        <time>2021-07-02T12:52:06Z</time>
      </trkpt>
      <trkpt lat="42.152103" lon="1.863296">
        <ele>677.77002</ele>
        <time>2021-07-02T12:52:07Z</time>
      </trkpt>
      <trkpt lat="42.152126" lon="1.863507">
        <ele>677.70752</ele>
        <time>2021-07-02T12:52:08Z</time>
      </trkpt>
      <trkpt lat="42.152142" lon="1.863720">
        <ele>676.66882</ele>
        <time>2021-07-02T12:52:09Z</time>
      </trkpt>
      <trkpt lat="42.152149" lon="1.863935">
        <ele>674.94202</ele>
        <time>2021-07-02T12:52:10Z</time>
      </trkpt>
      <trkpt lat="42.152138" lon="1.864157">
        <ele>674.42419</ele>
        <time>2021-07-02T12:52:11Z</time>
      </trkpt>
      <trkpt lat="42.152107" lon="1.864367">
        <ele>673.55347</ele>
        <time>2021-07-02T12:52:12Z</time>
      </trkpt>
      <trkpt lat="42.152054" lon="1.864571">
        <ele>672.62939</ele>
        <time>2021-07-02T12:52:13Z</time>
      </trkpt>
      <trkpt lat="42.151981" lon="1.864758">
        <ele>672.10706</ele>
        <time>2021-07-02T12:52:14Z</time>
      </trkpt>
      <trkpt lat="42.151897" lon="1.864927">
        <ele>671.69006</ele>
        <time>2021-07-02T12:52:15Z</time>
      </trkpt>
      <trkpt lat="42.151791" lon="1.865080">
        <ele>671.62207</ele>
        <time>2021-07-02T12:52:16Z</time>
      </trkpt>
      <trkpt lat="42.151676" lon="1.865208">
        <ele>671.73926</ele>
        <time>2021-07-02T12:52:17Z</time>
      </trkpt>
      <trkpt lat="42.151546" lon="1.865321">
        <ele>671.30994</ele>
        <time>2021-07-02T12:52:18Z</time>
      </trkpt>
      <trkpt lat="42.151398" lon="1.865413">
        <ele>670.79370</ele>
        <time>2021-07-02T12:52:19Z</time>
      </trkpt>
      <trkpt lat="42.151268" lon="1.865478">
        <ele>670.54004</ele>
        <time>2021-07-02T12:52:20Z</time>
      </trkpt>
      <trkpt lat="42.151115" lon="1.865529">
        <ele>670.82666</ele>
        <time>2021-07-02T12:52:21Z</time>
      </trkpt>
      <trkpt lat="42.150974" lon="1.865549">
        <ele>670.76782</ele>
        <time>2021-07-02T12:52:22Z</time>
      </trkpt>
      <trkpt lat="42.150814" lon="1.865547">
        <ele>670.74463</ele>
        <time>2021-07-02T12:52:23Z</time>
      </trkpt>
      <trkpt lat="42.150661" lon="1.865530">
        <ele>670.59473</ele>
        <time>2021-07-02T12:52:24Z</time>
      </trkpt>
      <trkpt lat="42.150497" lon="1.865490">
        <ele>669.00464</ele>
        <time>2021-07-02T12:52:25Z</time>
      </trkpt>
      <trkpt lat="42.150333" lon="1.865449">
        <ele>668.55664</ele>
        <time>2021-07-02T12:52:26Z</time>
      </trkpt>
      <trkpt lat="42.150177" lon="1.865413">
        <ele>669.15222</ele>
        <time>2021-07-02T12:52:27Z</time>
      </trkpt>
      <trkpt lat="42.149998" lon="1.865372">
        <ele>668.55811</ele>
        <time>2021-07-02T12:52:28Z</time>
      </trkpt>
      <trkpt lat="42.149815" lon="1.865360">
        <ele>665.83923</ele>
        <time>2021-07-02T12:52:29Z</time>
      </trkpt>
      <trkpt lat="42.149632" lon="1.865376">
        <ele>665.12891</ele>
        <time>2021-07-02T12:52:30Z</time>
      </trkpt>
      <trkpt lat="42.149483" lon="1.865413">
        <ele>664.42358</ele>
        <time>2021-07-02T12:52:31Z</time>
      </trkpt>
      <trkpt lat="42.149483" lon="1.865413">
        <ele>664.47192</ele>
        <time>2021-07-02T12:52:32Z</time>
      </trkpt>
      <trkpt lat="42.149311" lon="1.865475">
        <ele>662.88525</ele>
        <time>2021-07-02T12:52:33Z</time>
      </trkpt>
      <trkpt lat="42.149151" lon="1.865566">
        <ele>662.26050</ele>
        <time>2021-07-02T12:52:34Z</time>
      </trkpt>
      <trkpt lat="42.148998" lon="1.865687">
        <ele>660.94336</ele>
        <time>2021-07-02T12:52:35Z</time>
      </trkpt>
      <trkpt lat="42.148838" lon="1.865838">
        <ele>658.83179</ele>
        <time>2021-07-02T12:52:36Z</time>
      </trkpt>
      <trkpt lat="42.148689" lon="1.865980">
        <ele>657.95874</ele>
        <time>2021-07-02T12:52:37Z</time>
      </trkpt>
      <trkpt lat="42.148537" lon="1.866125">
        <ele>657.11682</ele>
        <time>2021-07-02T12:52:38Z</time>
      </trkpt>
      <trkpt lat="42.148392" lon="1.866250">
        <ele>656.62598</ele>
        <time>2021-07-02T12:52:39Z</time>
      </trkpt>
      <trkpt lat="42.148228" lon="1.866350">
        <ele>656.02612</ele>
        <time>2021-07-02T12:52:40Z</time>
      </trkpt>
      <trkpt lat="42.148045" lon="1.866411">
        <ele>655.17651</ele>
        <time>2021-07-02T12:52:41Z</time>
      </trkpt>
      <trkpt lat="42.147865" lon="1.866432">
        <ele>655.17578</ele>
        <time>2021-07-02T12:52:42Z</time>
      </trkpt>
      <trkpt lat="42.147697" lon="1.866423">
        <ele>654.53699</ele>
        <time>2021-07-02T12:52:43Z</time>
      </trkpt>
      <trkpt lat="42.147526" lon="1.866369">
        <ele>654.20215</ele>
        <time>2021-07-02T12:52:44Z</time>
      </trkpt>
      <trkpt lat="42.147358" lon="1.866284">
        <ele>653.17358</ele>
        <time>2021-07-02T12:52:45Z</time>
      </trkpt>
      <trkpt lat="42.147209" lon="1.866168">
        <ele>653.88477</ele>
        <time>2021-07-02T12:52:46Z</time>
      </trkpt>
      <trkpt lat="42.147076" lon="1.866030">
        <ele>653.33228</ele>
        <time>2021-07-02T12:52:47Z</time>
      </trkpt>
      <trkpt lat="42.146976" lon="1.865884">
        <ele>653.30298</ele>
        <time>2021-07-02T12:52:48Z</time>
      </trkpt>
      <trkpt lat="42.146889" lon="1.865711">
        <ele>652.65491</ele>
        <time>2021-07-02T12:52:49Z</time>
      </trkpt>
      <trkpt lat="42.146805" lon="1.865507">
        <ele>652.61084</ele>
        <time>2021-07-02T12:52:50Z</time>
      </trkpt>
      <trkpt lat="42.146755" lon="1.865307">
        <ele>651.66199</ele>
        <time>2021-07-02T12:52:51Z</time>
      </trkpt>
      <trkpt lat="42.146709" lon="1.865108">
        <ele>650.93494</ele>
        <time>2021-07-02T12:52:52Z</time>
      </trkpt>
      <trkpt lat="42.146667" lon="1.864888">
        <ele>649.99585</ele>
        <time>2021-07-02T12:52:53Z</time>
      </trkpt>
      <trkpt lat="42.146629" lon="1.864675">
        <ele>649.41968</ele>
        <time>2021-07-02T12:52:54Z</time>
      </trkpt>
      <trkpt lat="42.146591" lon="1.864489">
        <ele>647.69470</ele>
        <time>2021-07-02T12:52:55Z</time>
      </trkpt>
      <trkpt lat="42.146553" lon="1.864302">
        <ele>646.50073</ele>
        <time>2021-07-02T12:52:56Z</time>
      </trkpt>
      <trkpt lat="42.146507" lon="1.864112">
        <ele>646.21484</ele>
        <time>2021-07-02T12:52:57Z</time>
      </trkpt>
      <trkpt lat="42.146469" lon="1.863939">
        <ele>645.51929</ele>
        <time>2021-07-02T12:52:58Z</time>
      </trkpt>
      <trkpt lat="42.146412" lon="1.863766">
        <ele>645.77832</ele>
        <time>2021-07-02T12:52:59Z</time>
      </trkpt>
      <trkpt lat="42.146355" lon="1.863564">
        <ele>645.14209</ele>
        <time>2021-07-02T12:53:00Z</time>
      </trkpt>
      <trkpt lat="42.146332" lon="1.863303">
        <ele>644.27002</ele>
        <time>2021-07-02T12:53:01Z</time>
      </trkpt>
      <trkpt lat="42.146076" lon="1.863136">
        <ele>644.73218</ele>
        <time>2021-07-02T12:53:02Z</time>
      </trkpt>
      <trkpt lat="42.145885" lon="1.862994">
        <ele>646.68372</ele>
        <time>2021-07-02T12:53:03Z</time>
      </trkpt>
      <trkpt lat="42.145638" lon="1.862785">
        <ele>646.22461</ele>
        <time>2021-07-02T12:53:04Z</time>
      </trkpt>
      <trkpt lat="42.145432" lon="1.862666">
        <ele>646.72290</ele>
        <time>2021-07-02T12:53:05Z</time>
      </trkpt>
      <trkpt lat="42.145210" lon="1.862576">
        <ele>647.43945</ele>
        <time>2021-07-02T12:53:06Z</time>
      </trkpt>
      <trkpt lat="42.144978" lon="1.862530">
        <ele>648.70129</ele>
        <time>2021-07-02T12:53:07Z</time>
      </trkpt>
      <trkpt lat="42.144753" lon="1.862520">
        <ele>650.15039</ele>
        <time>2021-07-02T12:53:08Z</time>
      </trkpt>
      <trkpt lat="42.144753" lon="1.862520">
        <ele>651.63391</ele>
        <time>2021-07-02T12:53:09Z</time>
      </trkpt>
      <trkpt lat="42.144554" lon="1.862542">
        <ele>652.23511</ele>
        <time>2021-07-02T12:53:10Z</time>
      </trkpt>
      <trkpt lat="42.144337" lon="1.862612">
        <ele>654.02051</ele>
        <time>2021-07-02T12:53:11Z</time>
      </trkpt>
      <trkpt lat="42.144138" lon="1.862707">
        <ele>655.38879</ele>
        <time>2021-07-02T12:53:12Z</time>
      </trkpt>
      <trkpt lat="42.143940" lon="1.862834">
        <ele>656.84912</ele>
        <time>2021-07-02T12:53:13Z</time>
      </trkpt>
      <trkpt lat="42.143749" lon="1.863009">
        <ele>658.46118</ele>
        <time>2021-07-02T12:53:14Z</time>
      </trkpt>
      <trkpt lat="42.143600" lon="1.863185">
        <ele>659.58276</ele>
        <time>2021-07-02T12:53:15Z</time>
      </trkpt>
      <trkpt lat="42.143475" lon="1.863354">
        <ele>661.22778</ele>
        <time>2021-07-02T12:53:16Z</time>
      </trkpt>
      <trkpt lat="42.143333" lon="1.863567">
        <ele>662.99097</ele>
        <time>2021-07-02T12:53:17Z</time>
      </trkpt>
      <trkpt lat="42.143204" lon="1.863771">
        <ele>663.94189</ele>
        <time>2021-07-02T12:53:18Z</time>
      </trkpt>
      <trkpt lat="42.143089" lon="1.863953">
        <ele>665.99670</ele>
        <time>2021-07-02T12:53:19Z</time>
      </trkpt>
      <trkpt lat="42.142975" lon="1.864134">
        <ele>666.38232</ele>
        <time>2021-07-02T12:53:20Z</time>
      </trkpt>
      <trkpt lat="42.142841" lon="1.864346">
        <ele>667.07520</ele>
        <time>2021-07-02T12:53:21Z</time>
      </trkpt>
      <trkpt lat="42.142708" lon="1.864556">
        <ele>667.19287</ele>
        <time>2021-07-02T12:53:22Z</time>
      </trkpt>
      <trkpt lat="42.142559" lon="1.864789">
        <ele>667.28381</ele>
        <time>2021-07-02T12:53:23Z</time>
      </trkpt>
      <trkpt lat="42.142387" lon="1.865046">
        <ele>667.52051</ele>
        <time>2021-07-02T12:53:24Z</time>
      </trkpt>
      <trkpt lat="42.142212" lon="1.865242">
        <ele>669.73047</ele>
        <time>2021-07-02T12:53:25Z</time>
      </trkpt>
      <trkpt lat="42.142006" lon="1.865410">
        <ele>670.98145</ele>
        <time>2021-07-02T12:53:26Z</time>
      </trkpt>
      <trkpt lat="42.141762" lon="1.865542">
        <ele>672.74512</ele>
        <time>2021-07-02T12:53:27Z</time>
      </trkpt>
      <trkpt lat="42.141506" lon="1.865630">
        <ele>674.81934</ele>
        <time>2021-07-02T12:53:28Z</time>
      </trkpt>
      <trkpt lat="42.141232" lon="1.865630">
        <ele>678.36108</ele>
        <time>2021-07-02T12:53:29Z</time>
      </trkpt>
      <trkpt lat="42.140968" lon="1.865634">
        <ele>681.39343</ele>
        <time>2021-07-02T12:53:30Z</time>
      </trkpt>
      <trkpt lat="42.140713" lon="1.865603">
        <ele>683.20557</ele>
        <time>2021-07-02T12:53:31Z</time>
      </trkpt>
      <trkpt lat="42.140560" lon="1.865581">
        <ele>684.63123</ele>
        <time>2021-07-02T12:53:32Z</time>
      </trkpt>
      <trkpt lat="42.140553" lon="1.865580">
        <ele>685.15039</ele>
        <time>2021-07-02T12:53:33Z</time>
      </trkpt>
      <trkpt lat="42.139946" lon="1.865477">
        <ele>687.17944</ele>
        <time>2021-07-02T12:53:34Z</time>
      </trkpt>
      <trkpt lat="42.139622" lon="1.865419">
        <ele>688.34033</ele>
        <time>2021-07-02T12:53:35Z</time>
      </trkpt>
      <trkpt lat="42.139389" lon="1.865379">
        <ele>690.31750</ele>
        <time>2021-07-02T12:53:36Z</time>
      </trkpt>
      <trkpt lat="42.139149" lon="1.865304">
        <ele>690.82568</ele>
        <time>2021-07-02T12:53:37Z</time>
      </trkpt>
      <trkpt lat="42.138901" lon="1.865166">
        <ele>690.60425</ele>
        <time>2021-07-02T12:53:38Z</time>
      </trkpt>
      <trkpt lat="42.138721" lon="1.865011">
        <ele>691.49023</ele>
        <time>2021-07-02T12:53:39Z</time>
      </trkpt>
      <trkpt lat="42.138580" lon="1.864852">
        <ele>691.59827</ele>
        <time>2021-07-02T12:53:40Z</time>
      </trkpt>
      <trkpt lat="42.138374" lon="1.864607">
        <ele>693.12012</ele>
        <time>2021-07-02T12:53:41Z</time>
      </trkpt>
      <trkpt lat="42.138184" lon="1.864375">
        <ele>694.13062</ele>
        <time>2021-07-02T12:53:42Z</time>
      </trkpt>
      <trkpt lat="42.137997" lon="1.864150">
        <ele>694.52917</ele>
        <time>2021-07-02T12:53:43Z</time>
      </trkpt>
      <trkpt lat="42.137997" lon="1.864150">
        <ele>696.03491</ele>
        <time>2021-07-02T12:53:44Z</time>
      </trkpt>
      <trkpt lat="42.137814" lon="1.863954">
        <ele>698.11182</ele>
        <time>2021-07-02T12:53:45Z</time>
      </trkpt>
      <trkpt lat="42.137657" lon="1.863822">
        <ele>698.84180</ele>
        <time>2021-07-02T12:53:46Z</time>
      </trkpt>
      <trkpt lat="42.137486" lon="1.863708">
        <ele>700.23022</ele>
        <time>2021-07-02T12:53:47Z</time>
      </trkpt>
      <trkpt lat="42.137310" lon="1.863628">
        <ele>700.76562</ele>
        <time>2021-07-02T12:53:48Z</time>
      </trkpt>
      <trkpt lat="42.137138" lon="1.863563">
        <ele>700.95410</ele>
        <time>2021-07-02T12:53:49Z</time>
      </trkpt>
      <trkpt lat="42.136936" lon="1.863486">
        <ele>698.22363</ele>
        <time>2021-07-02T12:53:50Z</time>
      </trkpt>
      <trkpt lat="42.136757" lon="1.863418">
        <ele>699.61304</ele>
        <time>2021-07-02T12:53:51Z</time>
      </trkpt>
      <trkpt lat="42.136585" lon="1.863363">
        <ele>699.69434</ele>
        <time>2021-07-02T12:53:52Z</time>
      </trkpt>
      <trkpt lat="42.136414" lon="1.863311">
        <ele>699.42017</ele>
        <time>2021-07-02T12:53:53Z</time>
      </trkpt>
      <trkpt lat="42.136211" lon="1.863243">
        <ele>699.42017</ele>
        <time>2021-07-02T12:53:54Z</time>
      </trkpt>
      <trkpt lat="42.136055" lon="1.863190">
        <ele>699.42017</ele>
        <time>2021-07-02T12:53:55Z</time>
      </trkpt>
      <trkpt lat="42.135994" lon="1.863170">
        <ele>699.42017</ele>
        <time>2021-07-02T12:53:56Z</time>
      </trkpt>
      <trkpt lat="42.135994" lon="1.863170">
        <ele>699.42017</ele>
        <time>2021-07-02T12:53:57Z</time>
      </trkpt>
      <trkpt lat="42.135994" lon="1.863170">
        <ele>699.42017</ele>
        <time>2021-07-02T12:53:58Z</time>
      </trkpt>
      <trkpt lat="42.135994" lon="1.863170">
        <ele>699.42017</ele>
        <time>2021-07-02T12:53:59Z</time>
      </trkpt>
      <trkpt lat="42.135994" lon="1.863170">
        <ele>699.42017</ele>
        <time>2021-07-02T12:54:00Z</time>
      </trkpt>
      <trkpt lat="42.135994" lon="1.863170">
        <ele>699.42017</ele>
        <time>2021-07-02T12:54:01Z</time>
      </trkpt>
      <trkpt lat="42.135994" lon="1.863170">
        <ele>699.42017</ele>
        <time>2021-07-02T12:54:02Z</time>
      </trkpt>
      <trkpt lat="42.135994" lon="1.863170">
        <ele>699.42017</ele>
        <time>2021-07-02T12:54:03Z</time>
      </trkpt>
      <trkpt lat="42.135994" lon="1.863170">
        <ele>699.42017</ele>
        <time>2021-07-02T12:54:04Z</time>
      </trkpt>
      <trkpt lat="42.135994" lon="1.863170">
        <ele>699.42017</ele>
        <time>2021-07-02T12:54:05Z</time>
      </trkpt>
      <trkpt lat="42.135994" lon="1.863170">
        <ele>699.42017</ele>
        <time>2021-07-02T12:54:06Z</time>
      </trkpt>
      <trkpt lat="42.135994" lon="1.863170">
        <ele>699.42017</ele>
        <time>2021-07-02T12:54:07Z</time>
      </trkpt>
      <trkpt lat="42.135994" lon="1.863170">
        <ele>699.42017</ele>
        <time>2021-07-02T12:54:08Z</time>
      </trkpt>
      <trkpt lat="42.135994" lon="1.863170">
        <ele>699.42017</ele>
        <time>2021-07-02T12:54:09Z</time>
      </trkpt>
      <trkpt lat="42.135994" lon="1.863170">
        <ele>699.42017</ele>
        <time>2021-07-02T12:54:10Z</time>
      </trkpt>
      <trkpt lat="42.135994" lon="1.863170">
        <ele>699.42017</ele>
        <time>2021-07-02T12:54:11Z</time>
      </trkpt>
      <trkpt lat="42.135994" lon="1.863170">
        <ele>699.42017</ele>
        <time>2021-07-02T12:54:12Z</time>
      </trkpt>
      <trkpt lat="42.135994" lon="1.863170">
        <ele>699.42017</ele>
        <time>2021-07-02T12:54:13Z</time>
      </trkpt>
      <trkpt lat="42.135994" lon="1.863170">
        <ele>699.42017</ele>
        <time>2021-07-02T12:54:14Z</time>
      </trkpt>
      <trkpt lat="42.135994" lon="1.863170">
        <ele>699.42017</ele>
        <time>2021-07-02T12:54:15Z</time>
      </trkpt>
      <trkpt lat="42.135994" lon="1.863170">
        <ele>703.39600</ele>
        <time>2021-07-02T12:54:16Z</time>
      </trkpt>
      <trkpt lat="42.131794" lon="1.863611">
        <ele>709.64648</ele>
        <time>2021-07-02T12:54:17Z</time>
      </trkpt>
      <trkpt lat="42.131531" lon="1.863700">
        <ele>713.33862</ele>
        <time>2021-07-02T12:54:18Z</time>
      </trkpt>
      <trkpt lat="42.131294" lon="1.863839">
        <ele>715.10901</ele>
        <time>2021-07-02T12:54:19Z</time>
      </trkpt>
      <trkpt lat="42.131039" lon="1.863987">
        <ele>718.48413</ele>
        <time>2021-07-02T12:54:20Z</time>
      </trkpt>
      <trkpt lat="42.130737" lon="1.864154">
        <ele>721.95874</ele>
        <time>2021-07-02T12:54:21Z</time>
      </trkpt>
      <trkpt lat="42.130478" lon="1.864279">
        <ele>724.34229</ele>
        <time>2021-07-02T12:54:22Z</time>
      </trkpt>
      <trkpt lat="42.130207" lon="1.864386">
        <ele>725.97449</ele>
        <time>2021-07-02T12:54:23Z</time>
      </trkpt>
      <trkpt lat="42.129936" lon="1.864484">
        <ele>728.24207</ele>
        <time>2021-07-02T12:54:24Z</time>
      </trkpt>
      <trkpt lat="42.129662" lon="1.864585">
        <ele>730.90771</ele>
        <time>2021-07-02T12:54:25Z</time>
      </trkpt>
      <trkpt lat="42.129414" lon="1.864651">
        <ele>734.04028</ele>
        <time>2021-07-02T12:54:26Z</time>
      </trkpt>
      <trkpt lat="42.129414" lon="1.864651">
        <ele>736.35083</ele>
        <time>2021-07-02T12:54:27Z</time>
      </trkpt>
      <trkpt lat="42.129101" lon="1.864695">
        <ele>739.92139</ele>
        <time>2021-07-02T12:54:28Z</time>
      </trkpt>
      <trkpt lat="42.128857" lon="1.864682">
        <ele>741.25171</ele>
        <time>2021-07-02T12:54:29Z</time>
      </trkpt>
      <trkpt lat="42.128643" lon="1.864631">
        <ele>743.39441</ele>
        <time>2021-07-02T12:54:30Z</time>
      </trkpt>
      <trkpt lat="42.128422" lon="1.864532">
        <ele>745.52808</ele>
        <time>2021-07-02T12:54:31Z</time>
      </trkpt>
      <trkpt lat="42.128220" lon="1.864389">
        <ele>748.06152</ele>
        <time>2021-07-02T12:54:32Z</time>
      </trkpt>
      <trkpt lat="42.128014" lon="1.864175">
        <ele>749.36523</ele>
        <time>2021-07-02T12:54:33Z</time>
      </trkpt>
      <trkpt lat="42.127831" lon="1.863921">
        <ele>751.99695</ele>
        <time>2021-07-02T12:54:34Z</time>
      </trkpt>
      <trkpt lat="42.127693" lon="1.863635">
        <ele>754.03479</ele>
        <time>2021-07-02T12:54:35Z</time>
      </trkpt>
      <trkpt lat="42.127617" lon="1.863363">
        <ele>754.73999</ele>
        <time>2021-07-02T12:54:36Z</time>
      </trkpt>
      <trkpt lat="42.127560" lon="1.863074">
        <ele>755.24902</ele>
        <time>2021-07-02T12:54:37Z</time>
      </trkpt>
      <trkpt lat="42.127514" lon="1.862777">
        <ele>755.46936</ele>
        <time>2021-07-02T12:54:38Z</time>
      </trkpt>
      <trkpt lat="42.127468" lon="1.862493">
        <ele>756.91064</ele>
        <time>2021-07-02T12:54:39Z</time>
      </trkpt>
      <trkpt lat="42.127422" lon="1.862249">
        <ele>757.99084</ele>
        <time>2021-07-02T12:54:40Z</time>
      </trkpt>
      <trkpt lat="42.127346" lon="1.862024">
        <ele>758.35718</ele>
        <time>2021-07-02T12:54:41Z</time>
      </trkpt>
      <trkpt lat="42.127247" lon="1.861802">
        <ele>757.93359</ele>
        <time>2021-07-02T12:54:42Z</time>
      </trkpt>
      <trkpt lat="42.127110" lon="1.861599">
        <ele>757.80322</ele>
        <time>2021-07-02T12:54:43Z</time>
      </trkpt>
      <trkpt lat="42.126972" lon="1.861439">
        <ele>758.20020</ele>
        <time>2021-07-02T12:54:44Z</time>
      </trkpt>
      <trkpt lat="42.126816" lon="1.861293">
        <ele>756.75342</ele>
        <time>2021-07-02T12:54:45Z</time>
      </trkpt>
      <trkpt lat="42.126652" lon="1.861133">
        <ele>757.17310</ele>
        <time>2021-07-02T12:54:46Z</time>
      </trkpt>
      <trkpt lat="42.126511" lon="1.860988">
        <ele>757.07715</ele>
        <time>2021-07-02T12:54:47Z</time>
      </trkpt>
      <trkpt lat="42.126385" lon="1.860839">
        <ele>755.92261</ele>
        <time>2021-07-02T12:54:48Z</time>
      </trkpt>
      <trkpt lat="42.126263" lon="1.860650">
        <ele>754.18945</ele>
        <time>2021-07-02T12:54:49Z</time>
      </trkpt>
      <trkpt lat="42.126163" lon="1.860417">
        <ele>753.45081</ele>
        <time>2021-07-02T12:54:50Z</time>
      </trkpt>
      <trkpt lat="42.126091" lon="1.860193">
        <ele>752.57483</ele>
        <time>2021-07-02T12:54:51Z</time>
      </trkpt>
      <trkpt lat="42.126022" lon="1.859955">
        <ele>752.54016</ele>
        <time>2021-07-02T12:54:52Z</time>
      </trkpt>
      <trkpt lat="42.125954" lon="1.859713">
        <ele>751.69165</ele>
        <time>2021-07-02T12:54:53Z</time>
      </trkpt>
      <trkpt lat="42.125885" lon="1.859475">
        <ele>750.90698</ele>
        <time>2021-07-02T12:54:54Z</time>
      </trkpt>
      <trkpt lat="42.125809" lon="1.859239">
        <ele>750.14233</ele>
        <time>2021-07-02T12:54:55Z</time>
      </trkpt>
      <trkpt lat="42.125721" lon="1.858989">
        <ele>748.33252</ele>
        <time>2021-07-02T12:54:56Z</time>
      </trkpt>
      <trkpt lat="42.125626" lon="1.858764">
        <ele>747.26025</ele>
        <time>2021-07-02T12:54:57Z</time>
      </trkpt>
      <trkpt lat="42.125507" lon="1.858532">
        <ele>746.22766</ele>
        <time>2021-07-02T12:54:58Z</time>
      </trkpt>
      <trkpt lat="42.125389" lon="1.858335">
        <ele>746.17529</ele>
        <time>2021-07-02T12:54:59Z</time>
      </trkpt>
      <trkpt lat="42.125237" lon="1.858137">
        <ele>744.55933</ele>
        <time>2021-07-02T12:55:00Z</time>
      </trkpt>
      <trkpt lat="42.125069" lon="1.857948">
        <ele>744.09082</ele>
        <time>2021-07-02T12:55:01Z</time>
      </trkpt>
      <trkpt lat="42.124893" lon="1.857779">
        <ele>743.50085</ele>
        <time>2021-07-02T12:55:02Z</time>
      </trkpt>
      <trkpt lat="42.124718" lon="1.857654">
        <ele>742.25330</ele>
        <time>2021-07-02T12:55:03Z</time>
      </trkpt>
      <trkpt lat="42.124531" lon="1.857536">
        <ele>742.25879</ele>
        <time>2021-07-02T12:55:04Z</time>
      </trkpt>
      <trkpt lat="42.124531" lon="1.857536">
        <ele>740.94678</ele>
        <time>2021-07-02T12:55:05Z</time>
      </trkpt>
      <trkpt lat="42.124142" lon="1.857361">
        <ele>740.68628</ele>
        <time>2021-07-02T12:55:06Z</time>
      </trkpt>
      <trkpt lat="42.124142" lon="1.857361">
        <ele>741.06812</ele>
        <time>2021-07-02T12:55:07Z</time>
      </trkpt>
      <trkpt lat="42.123920" lon="1.857325">
        <ele>741.15015</ele>
        <time>2021-07-02T12:55:08Z</time>
      </trkpt>
      <trkpt lat="42.123718" lon="1.857296">
        <ele>739.94055</ele>
        <time>2021-07-02T12:55:09Z</time>
      </trkpt>
      <trkpt lat="42.123524" lon="1.857287">
        <ele>739.60181</ele>
        <time>2021-07-02T12:55:10Z</time>
      </trkpt>
      <trkpt lat="42.123341" lon="1.857278">
        <ele>739.07227</ele>
        <time>2021-07-02T12:55:11Z</time>
      </trkpt>
      <trkpt lat="42.123169" lon="1.857270">
        <ele>738.71655</ele>
        <time>2021-07-02T12:55:12Z</time>
      </trkpt>
      <trkpt lat="42.123013" lon="1.857259">
        <ele>739.54358</ele>
        <time>2021-07-02T12:55:13Z</time>
      </trkpt>
      <trkpt lat="42.122852" lon="1.857232">
        <ele>739.64966</ele>
        <time>2021-07-02T12:55:14Z</time>
      </trkpt>
      <trkpt lat="42.122677" lon="1.857169">
        <ele>739.56934</ele>
        <time>2021-07-02T12:55:15Z</time>
      </trkpt>
      <trkpt lat="42.122520" lon="1.857085">
        <ele>739.52075</ele>
        <time>2021-07-02T12:55:16Z</time>
      </trkpt>
      <trkpt lat="42.122356" lon="1.856983">
        <ele>739.75684</ele>
        <time>2021-07-02T12:55:17Z</time>
      </trkpt>
      <trkpt lat="42.122211" lon="1.856886">
        <ele>740.07581</ele>
        <time>2021-07-02T12:55:18Z</time>
      </trkpt>
      <trkpt lat="42.122066" lon="1.856798">
        <ele>740.25854</ele>
        <time>2021-07-02T12:55:19Z</time>
      </trkpt>
      <trkpt lat="42.121906" lon="1.856721">
        <ele>739.31531</ele>
        <time>2021-07-02T12:55:20Z</time>
      </trkpt>
      <trkpt lat="42.121742" lon="1.856684">
        <ele>738.59827</ele>
        <time>2021-07-02T12:55:21Z</time>
      </trkpt>
      <trkpt lat="42.121567" lon="1.856674">
        <ele>737.71887</ele>
        <time>2021-07-02T12:55:22Z</time>
      </trkpt>
      <trkpt lat="42.121391" lon="1.856710">
        <ele>737.12183</ele>
        <time>2021-07-02T12:55:23Z</time>
      </trkpt>
      <trkpt lat="42.121227" lon="1.856773">
        <ele>737.01465</ele>
        <time>2021-07-02T12:55:24Z</time>
      </trkpt>
      <trkpt lat="42.121082" lon="1.856876">
        <ele>736.64661</ele>
        <time>2021-07-02T12:55:25Z</time>
      </trkpt>
      <trkpt lat="42.120953" lon="1.856992">
        <ele>736.52185</ele>
        <time>2021-07-02T12:55:26Z</time>
      </trkpt>
      <trkpt lat="42.120834" lon="1.857132">
        <ele>737.39148</ele>
        <time>2021-07-02T12:55:27Z</time>
      </trkpt>
      <trkpt lat="42.120708" lon="1.857290">
        <ele>737.16333</ele>
        <time>2021-07-02T12:55:28Z</time>
      </trkpt>
      <trkpt lat="42.120594" lon="1.857436">
        <ele>736.93823</ele>
        <time>2021-07-02T12:55:29Z</time>
      </trkpt>
      <trkpt lat="42.120468" lon="1.857595">
        <ele>736.17273</ele>
        <time>2021-07-02T12:55:30Z</time>
      </trkpt>
      <trkpt lat="42.120323" lon="1.857750">
        <ele>736.18933</ele>
        <time>2021-07-02T12:55:31Z</time>
      </trkpt>
      <trkpt lat="42.120190" lon="1.857895">
        <ele>735.21802</ele>
        <time>2021-07-02T12:55:32Z</time>
      </trkpt>
      <trkpt lat="42.120056" lon="1.858004">
        <ele>735.69519</ele>
        <time>2021-07-02T12:55:33Z</time>
      </trkpt>
      <trkpt lat="42.119919" lon="1.858093">
        <ele>735.30566</ele>
        <time>2021-07-02T12:55:34Z</time>
      </trkpt>
      <trkpt lat="42.119732" lon="1.858179">
        <ele>734.90002</ele>
        <time>2021-07-02T12:55:35Z</time>
      </trkpt>
      <trkpt lat="42.119560" lon="1.858227">
        <ele>735.25256</ele>
        <time>2021-07-02T12:55:36Z</time>
      </trkpt>
      <trkpt lat="42.119385" lon="1.858254">
        <ele>733.85693</ele>
        <time>2021-07-02T12:55:37Z</time>
      </trkpt>
      <trkpt lat="42.119240" lon="1.858250">
        <ele>734.39062</ele>
        <time>2021-07-02T12:55:38Z</time>
      </trkpt>
      <trkpt lat="42.119076" lon="1.858233">
        <ele>734.61523</ele>
        <time>2021-07-02T12:55:39Z</time>
      </trkpt>
      <trkpt lat="42.119076" lon="1.858233">
        <ele>735.56299</ele>
        <time>2021-07-02T12:55:40Z</time>
      </trkpt>
      <trkpt lat="42.118904" lon="1.858191">
        <ele>736.05078</ele>
        <time>2021-07-02T12:55:41Z</time>
      </trkpt>
      <trkpt lat="42.118713" lon="1.858107">
        <ele>735.96851</ele>
        <time>2021-07-02T12:55:42Z</time>
      </trkpt>
      <trkpt lat="42.118561" lon="1.858014">
        <ele>735.19800</ele>
        <time>2021-07-02T12:55:43Z</time>
      </trkpt>
      <trkpt lat="42.118404" lon="1.857897">
        <ele>736.32324</ele>
        <time>2021-07-02T12:55:44Z</time>
      </trkpt>
      <trkpt lat="42.118259" lon="1.857735">
        <ele>733.87366</ele>
        <time>2021-07-02T12:55:45Z</time>
      </trkpt>
      <trkpt lat="42.118122" lon="1.857580">
        <ele>732.55688</ele>
        <time>2021-07-02T12:55:46Z</time>
      </trkpt>
      <trkpt lat="42.117989" lon="1.857384">
        <ele>732.06030</ele>
        <time>2021-07-02T12:55:47Z</time>
      </trkpt>
      <trkpt lat="42.117867" lon="1.857191">
        <ele>732.07861</ele>
        <time>2021-07-02T12:55:48Z</time>
      </trkpt>
      <trkpt lat="42.117733" lon="1.856969">
        <ele>731.54517</ele>
        <time>2021-07-02T12:55:49Z</time>
      </trkpt>
      <trkpt lat="42.117603" lon="1.856763">
        <ele>730.49731</ele>
        <time>2021-07-02T12:55:50Z</time>
      </trkpt>
      <trkpt lat="42.117462" lon="1.856556">
        <ele>729.35046</ele>
        <time>2021-07-02T12:55:51Z</time>
      </trkpt>
      <trkpt lat="42.117313" lon="1.856367">
        <ele>727.62036</ele>
        <time>2021-07-02T12:55:52Z</time>
      </trkpt>
      <trkpt lat="42.117172" lon="1.856220">
        <ele>726.42505</ele>
        <time>2021-07-02T12:55:53Z</time>
      </trkpt>
      <trkpt lat="42.117004" lon="1.856093">
        <ele>725.35352</ele>
        <time>2021-07-02T12:55:54Z</time>
      </trkpt>
      <trkpt lat="42.116825" lon="1.855983">
        <ele>723.73120</ele>
        <time>2021-07-02T12:55:55Z</time>
      </trkpt>
      <trkpt lat="42.116642" lon="1.855901">
        <ele>721.88574</ele>
        <time>2021-07-02T12:55:56Z</time>
      </trkpt>
      <trkpt lat="42.116428" lon="1.855853">
        <ele>721.79053</ele>
        <time>2021-07-02T12:55:57Z</time>
      </trkpt>
      <trkpt lat="42.116306" lon="1.855841">
        <ele>720.53369</ele>
        <time>2021-07-02T12:55:58Z</time>
      </trkpt>
      <trkpt lat="42.116100" lon="1.855784">
        <ele>718.61829</ele>
        <time>2021-07-02T12:55:59Z</time>
      </trkpt>
      <trkpt lat="42.115849" lon="1.855727">
        <ele>718.16321</ele>
        <time>2021-07-02T12:56:00Z</time>
      </trkpt>
      <trkpt lat="42.115654" lon="1.855996">
        <ele>717.78235</ele>
        <time>2021-07-02T12:56:01Z</time>
      </trkpt>
      <trkpt lat="42.115459" lon="1.856122">
        <ele>717.26379</ele>
        <time>2021-07-02T12:56:02Z</time>
      </trkpt>
      <trkpt lat="42.115273" lon="1.856295">
        <ele>716.97314</ele>
        <time>2021-07-02T12:56:03Z</time>
      </trkpt>
      <trkpt lat="42.115108" lon="1.856477">
        <ele>714.73047</ele>
        <time>2021-07-02T12:56:04Z</time>
      </trkpt>
      <trkpt lat="42.114956" lon="1.856661">
        <ele>714.18750</ele>
        <time>2021-07-02T12:56:05Z</time>
      </trkpt>
      <trkpt lat="42.114796" lon="1.856899">
        <ele>714.48779</ele>
        <time>2021-07-02T12:56:06Z</time>
      </trkpt>
      <trkpt lat="42.114635" lon="1.857133">
        <ele>714.28992</ele>
        <time>2021-07-02T12:56:07Z</time>
      </trkpt>
      <trkpt lat="42.114479" lon="1.857348">
        <ele>714.19458</ele>
        <time>2021-07-02T12:56:08Z</time>
      </trkpt>
      <trkpt lat="42.114334" lon="1.857550">
        <ele>714.19458</ele>
        <time>2021-07-02T12:56:09Z</time>
      </trkpt>
      <trkpt lat="42.114201" lon="1.857740">
        <ele>714.19458</ele>
        <time>2021-07-02T12:56:10Z</time>
      </trkpt>
      <trkpt lat="42.114197" lon="1.857741">
        <ele>714.19458</ele>
        <time>2021-07-02T12:56:11Z</time>
      </trkpt>
      <trkpt lat="42.114197" lon="1.857741">
        <ele>714.19458</ele>
        <time>2021-07-02T12:56:12Z</time>
      </trkpt>
      <trkpt lat="42.114197" lon="1.857741">
        <ele>714.19458</ele>
        <time>2021-07-02T12:56:13Z</time>
      </trkpt>
      <trkpt lat="42.114197" lon="1.857741">
        <ele>714.19458</ele>
        <time>2021-07-02T12:56:14Z</time>
      </trkpt>
      <trkpt lat="42.114197" lon="1.857741">
        <ele>714.19458</ele>
        <time>2021-07-02T12:56:15Z</time>
      </trkpt>
      <trkpt lat="42.114197" lon="1.857741">
        <ele>714.19458</ele>
        <time>2021-07-02T12:56:16Z</time>
      </trkpt>
      <trkpt lat="42.114197" lon="1.857741">
        <ele>714.19458</ele>
        <time>2021-07-02T12:56:17Z</time>
      </trkpt>
      <trkpt lat="42.114197" lon="1.857741">
        <ele>714.19458</ele>
        <time>2021-07-02T12:56:18Z</time>
      </trkpt>
      <trkpt lat="42.114197" lon="1.857741">
        <ele>714.19458</ele>
        <time>2021-07-02T12:56:19Z</time>
      </trkpt>
      <trkpt lat="42.114197" lon="1.857741">
        <ele>714.19458</ele>
        <time>2021-07-02T12:56:20Z</time>
      </trkpt>
      <trkpt lat="42.114197" lon="1.857741">
        <ele>714.19458</ele>
        <time>2021-07-02T12:56:21Z</time>
      </trkpt>
      <trkpt lat="42.114197" lon="1.857741">
        <ele>714.19458</ele>
        <time>2021-07-02T12:56:22Z</time>
      </trkpt>
      <trkpt lat="42.114197" lon="1.857741">
        <ele>714.19458</ele>
        <time>2021-07-02T12:56:23Z</time>
      </trkpt>
      <trkpt lat="42.114197" lon="1.857741">
        <ele>714.19458</ele>
        <time>2021-07-02T12:56:24Z</time>
      </trkpt>
      <trkpt lat="42.114197" lon="1.857741">
        <ele>714.19458</ele>
        <time>2021-07-02T12:56:25Z</time>
      </trkpt>
      <trkpt lat="42.114197" lon="1.857741">
        <ele>714.19458</ele>
        <time>2021-07-02T12:56:26Z</time>
      </trkpt>
      <trkpt lat="42.114197" lon="1.857741">
        <ele>714.19458</ele>
        <time>2021-07-02T12:56:27Z</time>
      </trkpt>
      <trkpt lat="42.114197" lon="1.857741">
        <ele>714.19458</ele>
        <time>2021-07-02T12:56:28Z</time>
      </trkpt>
      <trkpt lat="42.114197" lon="1.857741">
        <ele>708.36975</ele>
        <time>2021-07-02T12:56:29Z</time>
      </trkpt>
      <trkpt lat="42.114197" lon="1.857741">
        <ele>709.00476</ele>
        <time>2021-07-02T12:56:30Z</time>
      </trkpt>
      <trkpt lat="42.111107" lon="1.860138">
        <ele>709.35046</ele>
        <time>2021-07-02T12:56:31Z</time>
      </trkpt>
      <trkpt lat="42.110912" lon="1.860014">
        <ele>710.39001</ele>
        <time>2021-07-02T12:56:32Z</time>
      </trkpt>
      <trkpt lat="42.110718" lon="1.859967">
        <ele>710.82617</ele>
        <time>2021-07-02T12:56:33Z</time>
      </trkpt>
      <trkpt lat="42.110523" lon="1.859847">
        <ele>711.38892</ele>
        <time>2021-07-02T12:56:34Z</time>
      </trkpt>
      <trkpt lat="42.110321" lon="1.859711">
        <ele>710.52490</ele>
        <time>2021-07-02T12:56:35Z</time>
      </trkpt>
      <trkpt lat="42.110153" lon="1.859558">
        <ele>709.79419</ele>
        <time>2021-07-02T12:56:36Z</time>
      </trkpt>
      <trkpt lat="42.110039" lon="1.859438">
        <ele>710.54639</ele>
        <time>2021-07-02T12:56:37Z</time>
      </trkpt>
      <trkpt lat="42.109882" lon="1.859253">
        <ele>709.01611</ele>
        <time>2021-07-02T12:56:38Z</time>
      </trkpt>
      <trkpt lat="42.109703" lon="1.859004">
        <ele>708.78345</ele>
        <time>2021-07-02T12:56:39Z</time>
      </trkpt>
      <trkpt lat="42.109543" lon="1.858784">
        <ele>708.27588</ele>
        <time>2021-07-02T12:56:40Z</time>
      </trkpt>
      <trkpt lat="42.109394" lon="1.858584">
        <ele>706.22485</ele>
        <time>2021-07-02T12:56:41Z</time>
      </trkpt>
      <trkpt lat="42.109238" lon="1.858399">
        <ele>704.50098</ele>
        <time>2021-07-02T12:56:42Z</time>
      </trkpt>
      <trkpt lat="42.109074" lon="1.858271">
        <ele>703.69482</ele>
        <time>2021-07-02T12:56:43Z</time>
      </trkpt>
      <trkpt lat="42.108902" lon="1.858169">
        <ele>702.47705</ele>
        <time>2021-07-02T12:56:44Z</time>
      </trkpt>
      <trkpt lat="42.108715" lon="1.858100">
        <ele>702.39307</ele>
        <time>2021-07-02T12:56:45Z</time>
      </trkpt>
      <trkpt lat="42.108517" lon="1.858079">
        <ele>701.41748</ele>
        <time>2021-07-02T12:56:46Z</time>
      </trkpt>
      <trkpt lat="42.108276" lon="1.858111">
        <ele>699.74329</ele>
        <time>2021-07-02T12:56:47Z</time>
      </trkpt>
      <trkpt lat="42.108082" lon="1.858191">
        <ele>698.90063</ele>
        <time>2021-07-02T12:56:48Z</time>
      </trkpt>
      <trkpt lat="42.107891" lon="1.858320">
        <ele>697.91260</ele>
        <time>2021-07-02T12:56:49Z</time>
      </trkpt>
      <trkpt lat="42.107719" lon="1.858469">
        <ele>695.86401</ele>
        <time>2021-07-02T12:56:50Z</time>
      </trkpt>
      <trkpt lat="42.107559" lon="1.858639">
        <ele>693.43213</ele>
        <time>2021-07-02T12:56:51Z</time>
      </trkpt>
      <trkpt lat="42.107410" lon="1.858815">
        <ele>692.33044</ele>
        <time>2021-07-02T12:56:52Z</time>
      </trkpt>
      <trkpt lat="42.107262" lon="1.858993">
        <ele>691.08032</ele>
        <time>2021-07-02T12:56:53Z</time>
      </trkpt>
      <trkpt lat="42.107094" lon="1.859176">
        <ele>689.91260</ele>
        <time>2021-07-02T12:56:54Z</time>
      </trkpt>
      <trkpt lat="42.107094" lon="1.859176">
        <ele>689.62549</ele>
        <time>2021-07-02T12:56:55Z</time>
      </trkpt>
      <trkpt lat="42.106945" lon="1.859323">
        <ele>688.44507</ele>
        <time>2021-07-02T12:56:56Z</time>
      </trkpt>
      <trkpt lat="42.106773" lon="1.859458">
        <ele>688.14600</ele>
        <time>2021-07-02T12:56:57Z</time>
      </trkpt>
      <trkpt lat="42.106594" lon="1.859565">
        <ele>687.68701</ele>
        <time>2021-07-02T12:56:58Z</time>
      </trkpt>
      <trkpt lat="42.106400" lon="1.859655">
        <ele>686.73877</ele>
        <time>2021-07-02T12:56:59Z</time>
      </trkpt>
      <trkpt lat="42.106197" lon="1.859714">
        <ele>685.36792</ele>
        <time>2021-07-02T12:57:00Z</time>
      </trkpt>
      <trkpt lat="42.105991" lon="1.859746">
        <ele>684.58777</ele>
        <time>2021-07-02T12:57:01Z</time>
      </trkpt>
      <trkpt lat="42.105770" lon="1.859757">
        <ele>684.38550</ele>
        <time>2021-07-02T12:57:02Z</time>
      </trkpt>
      <trkpt lat="42.105545" lon="1.859765">
        <ele>683.26367</ele>
        <time>2021-07-02T12:57:03Z</time>
      </trkpt>
      <trkpt lat="42.105305" lon="1.859761">
        <ele>682.64209</ele>
        <time>2021-07-02T12:57:04Z</time>
      </trkpt>
      <trkpt lat="42.105083" lon="1.859757">
        <ele>682.15234</ele>
        <time>2021-07-02T12:57:05Z</time>
      </trkpt>
      <trkpt lat="42.104858" lon="1.859750">
        <ele>681.82910</ele>
        <time>2021-07-02T12:57:06Z</time>
      </trkpt>
      <trkpt lat="42.104614" lon="1.859734">
        <ele>679.91187</ele>
        <time>2021-07-02T12:57:07Z</time>
      </trkpt>
      <trkpt lat="42.104382" lon="1.859719">
        <ele>679.12280</ele>
        <time>2021-07-02T12:57:08Z</time>
      </trkpt>
      <trkpt lat="42.104172" lon="1.859690">
        <ele>678.10596</ele>
        <time>2021-07-02T12:57:09Z</time>
      </trkpt>
      <trkpt lat="42.103943" lon="1.859659">
        <ele>677.47498</ele>
        <time>2021-07-02T12:57:10Z</time>
      </trkpt>
      <trkpt lat="42.103725" lon="1.859629">
        <ele>676.54578</ele>
        <time>2021-07-02T12:57:11Z</time>
      </trkpt>
      <trkpt lat="42.103519" lon="1.859582">
        <ele>675.70935</ele>
        <time>2021-07-02T12:57:12Z</time>
      </trkpt>
      <trkpt lat="42.103321" lon="1.859536">
        <ele>674.42163</ele>
        <time>2021-07-02T12:57:13Z</time>
      </trkpt>
      <trkpt lat="42.103119" lon="1.859483">
        <ele>672.84082</ele>
        <time>2021-07-02T12:57:14Z</time>
      </trkpt>
      <trkpt lat="42.102917" lon="1.859427">
        <ele>672.80518</ele>
        <time>2021-07-02T12:57:15Z</time>
      </trkpt>
      <trkpt lat="42.102737" lon="1.859339">
        <ele>672.20007</ele>
        <time>2021-07-02T12:57:16Z</time>
      </trkpt>
      <trkpt lat="42.102531" lon="1.859257">
        <ele>671.69214</ele>
        <time>2021-07-02T12:57:17Z</time>
      </trkpt>
      <trkpt lat="42.102352" lon="1.859171">
        <ele>672.75830</ele>
        <time>2021-07-02T12:57:18Z</time>
      </trkpt>
      <trkpt lat="42.102158" lon="1.859062">
        <ele>672.82031</ele>
        <time>2021-07-02T12:57:19Z</time>
      </trkpt>
      <trkpt lat="42.101974" lon="1.858916">
        <ele>671.83203</ele>
        <time>2021-07-02T12:57:20Z</time>
      </trkpt>
      <trkpt lat="42.101822" lon="1.858772">
        <ele>671.47449</ele>
        <time>2021-07-02T12:57:21Z</time>
      </trkpt>
      <trkpt lat="42.101677" lon="1.858607">
        <ele>670.39844</ele>
        <time>2021-07-02T12:57:22Z</time>
      </trkpt>
      <trkpt lat="42.101543" lon="1.858397">
        <ele>671.03040</ele>
        <time>2021-07-02T12:57:23Z</time>
      </trkpt>
      <trkpt lat="42.101402" lon="1.858200">
        <ele>671.48535</ele>
        <time>2021-07-02T12:57:24Z</time>
      </trkpt>
      <trkpt lat="42.101311" lon="1.857968">
        <ele>672.30957</ele>
        <time>2021-07-02T12:57:25Z</time>
      </trkpt>
      <trkpt lat="42.101311" lon="1.857716">
        <ele>671.82202</ele>
        <time>2021-07-02T12:57:26Z</time>
      </trkpt>
      <trkpt lat="42.100952" lon="1.857685">
        <ele>670.87598</ele>
        <time>2021-07-02T12:57:27Z</time>
      </trkpt>
      <trkpt lat="42.100952" lon="1.857685">
        <ele>669.34363</ele>
        <time>2021-07-02T12:57:28Z</time>
      </trkpt>
      <trkpt lat="42.100830" lon="1.857489">
        <ele>669.89685</ele>
        <time>2021-07-02T12:57:29Z</time>
      </trkpt>
      <trkpt lat="42.100708" lon="1.857283">
        <ele>669.00220</ele>
        <time>2021-07-02T12:57:30Z</time>
      </trkpt>
      <trkpt lat="42.100594" lon="1.857089">
        <ele>668.06812</ele>
        <time>2021-07-02T12:57:31Z</time>
      </trkpt>
      <trkpt lat="42.100483" lon="1.856908">
        <ele>667.58398</ele>
        <time>2021-07-02T12:57:32Z</time>
      </trkpt>
      <trkpt lat="42.100384" lon="1.856736">
        <ele>667.75574</ele>
        <time>2021-07-02T12:57:33Z</time>
      </trkpt>
      <trkpt lat="42.100277" lon="1.856580">
        <ele>666.79980</ele>
        <time>2021-07-02T12:57:34Z</time>
      </trkpt>
      <trkpt lat="42.100166" lon="1.856383">
        <ele>666.21777</ele>
        <time>2021-07-02T12:57:35Z</time>
      </trkpt>
      <trkpt lat="42.100060" lon="1.856157">
        <ele>664.57129</ele>
        <time>2021-07-02T12:57:36Z</time>
      </trkpt>
      <trkpt lat="42.099953" lon="1.855927">
        <ele>663.62964</ele>
        <time>2021-07-02T12:57:37Z</time>
      </trkpt>
      <trkpt lat="42.099850" lon="1.855702">
        <ele>663.27881</ele>
        <time>2021-07-02T12:57:38Z</time>
      </trkpt>
      <trkpt lat="42.099739" lon="1.855494">
        <ele>662.38770</ele>
        <time>2021-07-02T12:57:39Z</time>
      </trkpt>
      <trkpt lat="42.099628" lon="1.855296">
        <ele>661.89062</ele>
        <time>2021-07-02T12:57:40Z</time>
      </trkpt>
      <trkpt lat="42.099510" lon="1.855107">
        <ele>660.52173</ele>
        <time>2021-07-02T12:57:41Z</time>
      </trkpt>
      <trkpt lat="42.099388" lon="1.854934">
        <ele>658.83423</ele>
        <time>2021-07-02T12:57:42Z</time>
      </trkpt>
      <trkpt lat="42.099258" lon="1.854767">
        <ele>657.05664</ele>
        <time>2021-07-02T12:57:43Z</time>
      </trkpt>
      <trkpt lat="42.099121" lon="1.854610">
        <ele>656.04443</ele>
        <time>2021-07-02T12:57:44Z</time>
      </trkpt>
      <trkpt lat="42.098991" lon="1.854472">
        <ele>654.91064</ele>
        <time>2021-07-02T12:57:45Z</time>
      </trkpt>
      <trkpt lat="42.098862" lon="1.854350">
        <ele>654.31079</ele>
        <time>2021-07-02T12:57:46Z</time>
      </trkpt>
      <trkpt lat="42.098740" lon="1.854249">
        <ele>653.64880</ele>
        <time>2021-07-02T12:57:47Z</time>
      </trkpt>
      <trkpt lat="42.098610" lon="1.854148">
        <ele>652.80835</ele>
        <time>2021-07-02T12:57:48Z</time>
      </trkpt>
      <trkpt lat="42.098461" lon="1.854053">
        <ele>651.66724</ele>
        <time>2021-07-02T12:57:49Z</time>
      </trkpt>
      <trkpt lat="42.098320" lon="1.853964">
        <ele>650.79932</ele>
        <time>2021-07-02T12:57:50Z</time>
      </trkpt>
      <trkpt lat="42.098171" lon="1.853891">
        <ele>649.78589</ele>
        <time>2021-07-02T12:57:51Z</time>
      </trkpt>
      <trkpt lat="42.098026" lon="1.853827">
        <ele>649.20374</ele>
        <time>2021-07-02T12:57:52Z</time>
      </trkpt>
      <trkpt lat="42.097897" lon="1.853780">
        <ele>647.71838</ele>
        <time>2021-07-02T12:57:53Z</time>
      </trkpt>
      <trkpt lat="42.097759" lon="1.853735">
        <ele>646.34741</ele>
        <time>2021-07-02T12:57:54Z</time>
      </trkpt>
      <trkpt lat="42.097633" lon="1.853698">
        <ele>645.95020</ele>
        <time>2021-07-02T12:57:55Z</time>
      </trkpt>
      <trkpt lat="42.097488" lon="1.853673">
        <ele>644.19482</ele>
        <time>2021-07-02T12:57:56Z</time>
      </trkpt>
      <trkpt lat="42.097363" lon="1.853650">
        <ele>643.78430</ele>
        <time>2021-07-02T12:57:57Z</time>
      </trkpt>
      <trkpt lat="42.097218" lon="1.853640">
        <ele>642.44348</ele>
        <time>2021-07-02T12:57:58Z</time>
      </trkpt>
      <trkpt lat="42.097069" lon="1.853647">
        <ele>641.54346</ele>
        <time>2021-07-02T12:57:59Z</time>
      </trkpt>
      <trkpt lat="42.096886" lon="1.853665">
        <ele>640.27393</ele>
        <time>2021-07-02T12:58:00Z</time>
      </trkpt>
      <trkpt lat="42.096886" lon="1.853665">
        <ele>639.29688</ele>
        <time>2021-07-02T12:58:01Z</time>
      </trkpt>
      <trkpt lat="42.096684" lon="1.853721">
        <ele>637.78198</ele>
        <time>2021-07-02T12:58:02Z</time>
      </trkpt>
      <trkpt lat="42.096512" lon="1.853765">
        <ele>636.19971</ele>
        <time>2021-07-02T12:58:03Z</time>
      </trkpt>
      <trkpt lat="42.096317" lon="1.853808">
        <ele>634.85840</ele>
        <time>2021-07-02T12:58:04Z</time>
      </trkpt>
      <trkpt lat="42.096115" lon="1.853798">
        <ele>633.34058</ele>
        <time>2021-07-02T12:58:05Z</time>
      </trkpt>
      <trkpt lat="42.095879" lon="1.853809">
        <ele>632.33911</ele>
        <time>2021-07-02T12:58:06Z</time>
      </trkpt>
      <trkpt lat="42.095638" lon="1.853854">
        <ele>631.68152</ele>
        <time>2021-07-02T12:58:07Z</time>
      </trkpt>
      <trkpt lat="42.095379" lon="1.853940">
        <ele>630.71863</ele>
        <time>2021-07-02T12:58:08Z</time>
      </trkpt>
      <trkpt lat="42.095112" lon="1.854015">
        <ele>628.98877</ele>
        <time>2021-07-02T12:58:09Z</time>
      </trkpt>
      <trkpt lat="42.094833" lon="1.854092">
        <ele>624.90869</ele>
        <time>2021-07-02T12:58:10Z</time>
      </trkpt>
      <trkpt lat="42.094570" lon="1.854154">
        <ele>621.48657</ele>
        <time>2021-07-02T12:58:11Z</time>
      </trkpt>
      <trkpt lat="42.094303" lon="1.854198">
        <ele>620.10010</ele>
        <time>2021-07-02T12:58:12Z</time>
      </trkpt>
      <trkpt lat="42.094025" lon="1.854211">
        <ele>617.89514</ele>
        <time>2021-07-02T12:58:13Z</time>
      </trkpt>
      <trkpt lat="42.093742" lon="1.854215">
        <ele>616.59058</ele>
        <time>2021-07-02T12:58:14Z</time>
      </trkpt>
      <trkpt lat="42.093441" lon="1.854184">
        <ele>614.70544</ele>
        <time>2021-07-02T12:58:15Z</time>
      </trkpt>
      <trkpt lat="42.093121" lon="1.854132">
        <ele>613.03589</ele>
        <time>2021-07-02T12:58:16Z</time>
      </trkpt>
      <trkpt lat="42.092796" lon="1.854066">
        <ele>612.44153</ele>
        <time>2021-07-02T12:58:17Z</time>
      </trkpt>
      <trkpt lat="42.092506" lon="1.854006">
        <ele>611.48303</ele>
        <time>2021-07-02T12:58:18Z</time>
      </trkpt>
      <trkpt lat="42.092205" lon="1.853973">
        <ele>610.16296</ele>
        <time>2021-07-02T12:58:19Z</time>
      </trkpt>
      <trkpt lat="42.091892" lon="1.853972">
        <ele>609.14856</ele>
        <time>2021-07-02T12:58:20Z</time>
      </trkpt>
      <trkpt lat="42.091572" lon="1.854014">
        <ele>607.97644</ele>
        <time>2021-07-02T12:58:21Z</time>
      </trkpt>
      <trkpt lat="42.091251" lon="1.854119">
        <ele>605.70703</ele>
        <time>2021-07-02T12:58:22Z</time>
      </trkpt>
      <trkpt lat="42.090927" lon="1.854277">
        <ele>603.34668</ele>
        <time>2021-07-02T12:58:23Z</time>
      </trkpt>
      <trkpt lat="42.090603" lon="1.854489">
        <ele>602.29248</ele>
        <time>2021-07-02T12:58:24Z</time>
      </trkpt>
      <trkpt lat="42.090359" lon="1.854684">
        <ele>601.02295</ele>
        <time>2021-07-02T12:58:25Z</time>
      </trkpt>
      <trkpt lat="42.090149" lon="1.854862">
        <ele>599.52808</ele>
        <time>2021-07-02T12:58:26Z</time>
      </trkpt>
      <trkpt lat="42.089931" lon="1.855052">
        <ele>598.02808</ele>
        <time>2021-07-02T12:58:27Z</time>
      </trkpt>
      <trkpt lat="42.089680" lon="1.855257">
        <ele>596.34790</ele>
        <time>2021-07-02T12:58:28Z</time>
      </trkpt>
      <trkpt lat="42.089584" lon="1.855327">
        <ele>594.72815</ele>
        <time>2021-07-02T12:58:29Z</time>
      </trkpt>
      <trkpt lat="42.089104" lon="1.855562">
        <ele>593.25269</ele>
        <time>2021-07-02T12:58:30Z</time>
      </trkpt>
      <trkpt lat="42.088799" lon="1.855544">
        <ele>591.39856</ele>
        <time>2021-07-02T12:58:31Z</time>
      </trkpt>
      <trkpt lat="42.088531" lon="1.855919">
        <ele>590.55103</ele>
        <time>2021-07-02T12:58:32Z</time>
      </trkpt>
      <trkpt lat="42.088203" lon="1.856035">
        <ele>589.00146</ele>
        <time>2021-07-02T12:58:33Z</time>
      </trkpt>
      <trkpt lat="42.087879" lon="1.856138">
        <ele>587.71436</ele>
        <time>2021-07-02T12:58:34Z</time>
      </trkpt>
      <trkpt lat="42.087879" lon="1.856138">
        <ele>586.75391</ele>
        <time>2021-07-02T12:58:35Z</time>
      </trkpt>
      <trkpt lat="42.087547" lon="1.856245">
        <ele>586.06140</ele>
        <time>2021-07-02T12:58:36Z</time>
      </trkpt>
      <trkpt lat="42.087234" lon="1.856339">
        <ele>585.18665</ele>
        <time>2021-07-02T12:58:37Z</time>
      </trkpt>
      <trkpt lat="42.086929" lon="1.856467">
        <ele>584.60681</ele>
        <time>2021-07-02T12:58:38Z</time>
      </trkpt>
      <trkpt lat="42.086643" lon="1.856639">
        <ele>583.18457</ele>
        <time>2021-07-02T12:58:39Z</time>
      </trkpt>
      <trkpt lat="42.086334" lon="1.856902">
        <ele>581.49707</ele>
        <time>2021-07-02T12:58:40Z</time>
      </trkpt>
      <trkpt lat="42.086048" lon="1.857198">
        <ele>580.89124</ele>
        <time>2021-07-02T12:58:41Z</time>
      </trkpt>
      <trkpt lat="42.085781" lon="1.857485">
        <ele>579.48096</ele>
        <time>2021-07-02T12:58:42Z</time>
      </trkpt>
      <trkpt lat="42.085510" lon="1.857778">
        <ele>578.33130</ele>
        <time>2021-07-02T12:58:43Z</time>
      </trkpt>
      <trkpt lat="42.085228" lon="1.858056">
        <ele>577.99133</ele>
        <time>2021-07-02T12:58:44Z</time>
      </trkpt>
      <trkpt lat="42.084934" lon="1.858350">
        <ele>576.85059</ele>
        <time>2021-07-02T12:58:45Z</time>
      </trkpt>
      <trkpt lat="42.084641" lon="1.858638">
        <ele>576.32227</ele>
        <time>2021-07-02T12:58:46Z</time>
      </trkpt>
      <trkpt lat="42.084347" lon="1.858931">
        <ele>575.68774</ele>
        <time>2021-07-02T12:58:47Z</time>
      </trkpt>
      <trkpt lat="42.084057" lon="1.859218">
        <ele>575.33899</ele>
        <time>2021-07-02T12:58:48Z</time>
      </trkpt>
      <trkpt lat="42.083801" lon="1.859486">
        <ele>574.70593</ele>
        <time>2021-07-02T12:58:49Z</time>
      </trkpt>
      <trkpt lat="42.083546" lon="1.859772">
        <ele>574.08386</ele>
        <time>2021-07-02T12:58:50Z</time>
      </trkpt>
      <trkpt lat="42.083290" lon="1.860060">
        <ele>572.65845</ele>
        <time>2021-07-02T12:58:51Z</time>
      </trkpt>
      <trkpt lat="42.083061" lon="1.860320">
        <ele>572.63916</ele>
        <time>2021-07-02T12:58:52Z</time>
      </trkpt>
      <trkpt lat="42.082840" lon="1.860577">
        <ele>571.10437</ele>
        <time>2021-07-02T12:58:53Z</time>
      </trkpt>
      <trkpt lat="42.082611" lon="1.860855">
        <ele>570.79834</ele>
        <time>2021-07-02T12:58:54Z</time>
      </trkpt>
      <trkpt lat="42.082382" lon="1.861141">
        <ele>568.09241</ele>
        <time>2021-07-02T12:58:55Z</time>
      </trkpt>
      <trkpt lat="42.082165" lon="1.861423">
        <ele>566.75146</ele>
        <time>2021-07-02T12:58:56Z</time>
      </trkpt>
      <trkpt lat="42.081947" lon="1.861704">
        <ele>564.68579</ele>
        <time>2021-07-02T12:58:57Z</time>
      </trkpt>
      <trkpt lat="42.081741" lon="1.861989">
        <ele>562.95776</ele>
        <time>2021-07-02T12:58:58Z</time>
      </trkpt>
      <trkpt lat="42.081528" lon="1.862281">
        <ele>561.68066</ele>
        <time>2021-07-02T12:58:59Z</time>
      </trkpt>
      <trkpt lat="42.081318" lon="1.862577">
        <ele>559.88037</ele>
        <time>2021-07-02T12:59:00Z</time>
      </trkpt>
      <trkpt lat="42.081116" lon="1.862886">
        <ele>559.02295</ele>
        <time>2021-07-02T12:59:01Z</time>
      </trkpt>
      <trkpt lat="42.080902" lon="1.863208">
        <ele>558.17676</ele>
        <time>2021-07-02T12:59:02Z</time>
      </trkpt>
      <trkpt lat="42.080711" lon="1.863501">
        <ele>557.14038</ele>
        <time>2021-07-02T12:59:03Z</time>
      </trkpt>
      <trkpt lat="42.080498" lon="1.863834">
        <ele>555.59998</ele>
        <time>2021-07-02T12:59:04Z</time>
      </trkpt>
      <trkpt lat="42.080311" lon="1.864143">
        <ele>554.64026</ele>
        <time>2021-07-02T12:59:05Z</time>
      </trkpt>
      <trkpt lat="42.080311" lon="1.864143">
        <ele>553.40259</ele>
        <time>2021-07-02T12:59:06Z</time>
      </trkpt>
      <trkpt lat="42.080116" lon="1.864472">
        <ele>552.17700</ele>
        <time>2021-07-02T12:59:07Z</time>
      </trkpt>
      <trkpt lat="42.079929" lon="1.864805">
        <ele>551.30249</ele>
        <time>2021-07-02T12:59:08Z</time>
      </trkpt>
      <trkpt lat="42.079746" lon="1.865137">
        <ele>550.18091</ele>
        <time>2021-07-02T12:59:09Z</time>
      </trkpt>
      <trkpt lat="42.079578" lon="1.865442">
        <ele>548.35229</ele>
        <time>2021-07-02T12:59:10Z</time>
      </trkpt>
      <trkpt lat="42.079407" lon="1.865768">
        <ele>546.70068</ele>
        <time>2021-07-02T12:59:11Z</time>
      </trkpt>
      <trkpt lat="42.079243" lon="1.866074">
        <ele>545.88794</ele>
        <time>2021-07-02T12:59:12Z</time>
      </trkpt>
      <trkpt lat="42.079094" lon="1.866360">
        <ele>544.85522</ele>
        <time>2021-07-02T12:59:13Z</time>
      </trkpt>
      <trkpt lat="42.078953" lon="1.866649">
        <ele>543.45105</ele>
        <time>2021-07-02T12:59:14Z</time>
      </trkpt>
      <trkpt lat="42.078815" lon="1.866923">
        <ele>542.40332</ele>
        <time>2021-07-02T12:59:15Z</time>
      </trkpt>
      <trkpt lat="42.078671" lon="1.867218">
        <ele>541.24219</ele>
        <time>2021-07-02T12:59:16Z</time>
      </trkpt>
      <trkpt lat="42.078526" lon="1.867516">
        <ele>539.99548</ele>
        <time>2021-07-02T12:59:17Z</time>
      </trkpt>
      <trkpt lat="42.078381" lon="1.867816">
        <ele>539.34192</ele>
        <time>2021-07-02T12:59:18Z</time>
      </trkpt>
      <trkpt lat="42.078243" lon="1.868096">
        <ele>538.34387</ele>
        <time>2021-07-02T12:59:19Z</time>
      </trkpt>
      <trkpt lat="42.078110" lon="1.868375">
        <ele>537.48047</ele>
        <time>2021-07-02T12:59:20Z</time>
      </trkpt>
      <trkpt lat="42.077965" lon="1.868672">
        <ele>536.59912</ele>
        <time>2021-07-02T12:59:21Z</time>
      </trkpt>
      <trkpt lat="42.077831" lon="1.868946">
        <ele>535.63782</ele>
        <time>2021-07-02T12:59:22Z</time>
      </trkpt>
      <trkpt lat="42.077686" lon="1.869250">
        <ele>534.69421</ele>
        <time>2021-07-02T12:59:23Z</time>
      </trkpt>
      <trkpt lat="42.077534" lon="1.869560">
        <ele>533.98181</ele>
        <time>2021-07-02T12:59:24Z</time>
      </trkpt>
      <trkpt lat="42.077389" lon="1.869864">
        <ele>532.15039</ele>
        <time>2021-07-02T12:59:25Z</time>
      </trkpt>
      <trkpt lat="42.077225" lon="1.870197">
        <ele>530.87988</ele>
        <time>2021-07-02T12:59:26Z</time>
      </trkpt>
      <trkpt lat="42.077045" lon="1.870560">
        <ele>530.07739</ele>
        <time>2021-07-02T12:59:27Z</time>
      </trkpt>
      <trkpt lat="42.076889" lon="1.870884">
        <ele>529.41211</ele>
        <time>2021-07-02T12:59:28Z</time>
      </trkpt>
      <trkpt lat="42.076717" lon="1.871187">
        <ele>527.93579</ele>
        <time>2021-07-02T12:59:29Z</time>
      </trkpt>
      <trkpt lat="42.076511" lon="1.871540">
        <ele>525.62915</ele>
        <time>2021-07-02T12:59:30Z</time>
      </trkpt>
      <trkpt lat="42.076298" lon="1.871868">
        <ele>523.63770</ele>
        <time>2021-07-02T12:59:31Z</time>
      </trkpt>
      <trkpt lat="42.076046" lon="1.872200">
        <ele>521.30957</ele>
        <time>2021-07-02T12:59:32Z</time>
      </trkpt>
      <trkpt lat="42.075806" lon="1.872487">
        <ele>520.81946</ele>
        <time>2021-07-02T12:59:33Z</time>
      </trkpt>
      <trkpt lat="42.075531" lon="1.872761">
        <ele>519.67505</ele>
        <time>2021-07-02T12:59:34Z</time>
      </trkpt>
      <trkpt lat="42.075237" lon="1.873031">
        <ele>519.69287</ele>
        <time>2021-07-02T12:59:35Z</time>
      </trkpt>
      <trkpt lat="42.074959" lon="1.873247">
        <ele>518.89844</ele>
        <time>2021-07-02T12:59:36Z</time>
      </trkpt>
      <trkpt lat="42.074959" lon="1.873247">
        <ele>518.21680</ele>
        <time>2021-07-02T12:59:37Z</time>
      </trkpt>
      <trkpt lat="42.074650" lon="1.873448">
        <ele>517.97046</ele>
        <time>2021-07-02T12:59:38Z</time>
      </trkpt>
      <trkpt lat="42.074364" lon="1.873614">
        <ele>518.15466</ele>
        <time>2021-07-02T12:59:39Z</time>
      </trkpt>
      <trkpt lat="42.074051" lon="1.873769">
        <ele>517.29956</ele>
        <time>2021-07-02T12:59:40Z</time>
      </trkpt>
      <trkpt lat="42.073730" lon="1.873884">
        <ele>517.61560</ele>
        <time>2021-07-02T12:59:41Z</time>
      </trkpt>
      <trkpt lat="42.073402" lon="1.873991">
        <ele>518.58972</ele>
        <time>2021-07-02T12:59:42Z</time>
      </trkpt>
      <trkpt lat="42.073051" lon="1.874060">
        <ele>519.17676</ele>
        <time>2021-07-02T12:59:43Z</time>
      </trkpt>
      <trkpt lat="42.072704" lon="1.874111">
        <ele>519.14661</ele>
        <time>2021-07-02T12:59:44Z</time>
      </trkpt>
      <trkpt lat="42.072357" lon="1.874145">
        <ele>519.71338</ele>
        <time>2021-07-02T12:59:45Z</time>
      </trkpt>
      <trkpt lat="42.072029" lon="1.874177">
        <ele>519.40381</ele>
        <time>2021-07-02T12:59:46Z</time>
      </trkpt>
      <trkpt lat="42.071682" lon="1.874212">
        <ele>519.00781</ele>
        <time>2021-07-02T12:59:47Z</time>
      </trkpt>
      <trkpt lat="42.071339" lon="1.874251">
        <ele>518.88806</ele>
        <time>2021-07-02T12:59:48Z</time>
      </trkpt>
      <trkpt lat="42.070984" lon="1.874291">
        <ele>518.16650</ele>
        <time>2021-07-02T12:59:49Z</time>
      </trkpt>
      <trkpt lat="42.070625" lon="1.874331">
        <ele>518.34473</ele>
        <time>2021-07-02T12:59:50Z</time>
      </trkpt>
      <trkpt lat="42.070274" lon="1.874371">
        <ele>517.87134</ele>
        <time>2021-07-02T12:59:51Z</time>
      </trkpt>
      <trkpt lat="42.069920" lon="1.874411">
        <ele>517.82251</ele>
        <time>2021-07-02T12:59:52Z</time>
      </trkpt>
      <trkpt lat="42.069553" lon="1.874453">
        <ele>517.33435</ele>
        <time>2021-07-02T12:59:53Z</time>
      </trkpt>
      <trkpt lat="42.069180" lon="1.874495">
        <ele>517.14697</ele>
        <time>2021-07-02T12:59:54Z</time>
      </trkpt>
      <trkpt lat="42.068836" lon="1.874534">
        <ele>517.09839</ele>
        <time>2021-07-02T12:59:55Z</time>
      </trkpt>
      <trkpt lat="42.068493" lon="1.874572">
        <ele>516.78540</ele>
        <time>2021-07-02T12:59:56Z</time>
      </trkpt>
      <trkpt lat="42.068130" lon="1.874612">
        <ele>516.55420</ele>
        <time>2021-07-02T12:59:57Z</time>
      </trkpt>
      <trkpt lat="42.067795" lon="1.874648">
        <ele>516.41650</ele>
        <time>2021-07-02T12:59:58Z</time>
      </trkpt>
      <trkpt lat="42.067432" lon="1.874681">
        <ele>516.46240</ele>
        <time>2021-07-02T12:59:59Z</time>
      </trkpt>
      <trkpt lat="42.067089" lon="1.874718">
        <ele>515.12329</ele>
        <time>2021-07-02T13:00:00Z</time>
      </trkpt>
      <trkpt lat="42.066730" lon="1.874758">
        <ele>514.28613</ele>
        <time>2021-07-02T13:00:01Z</time>
      </trkpt>
      <trkpt lat="42.066387" lon="1.874796">
        <ele>513.37402</ele>
        <time>2021-07-02T13:00:02Z</time>
      </trkpt>
      <trkpt lat="42.066025" lon="1.874836">
        <ele>513.21143</ele>
        <time>2021-07-02T13:00:03Z</time>
      </trkpt>
      <trkpt lat="42.065681" lon="1.874874">
        <ele>511.84668</ele>
        <time>2021-07-02T13:00:04Z</time>
      </trkpt>
      <trkpt lat="42.065289" lon="1.874918">
        <ele>510.27930</ele>
        <time>2021-07-02T13:00:05Z</time>
      </trkpt>
      <trkpt lat="42.064930" lon="1.874957">
        <ele>509.34070</ele>
        <time>2021-07-02T13:00:06Z</time>
      </trkpt>
      <trkpt lat="42.064545" lon="1.875000">
        <ele>507.85986</ele>
        <time>2021-07-02T13:00:07Z</time>
      </trkpt>
      <trkpt lat="42.064194" lon="1.875039">
        <ele>507.23682</ele>
        <time>2021-07-02T13:00:08Z</time>
      </trkpt>
      <trkpt lat="42.064194" lon="1.875039">
        <ele>506.06458</ele>
        <time>2021-07-02T13:00:09Z</time>
      </trkpt>
      <trkpt lat="42.063828" lon="1.875080">
        <ele>504.84656</ele>
        <time>2021-07-02T13:00:10Z</time>
      </trkpt>
      <trkpt lat="42.063477" lon="1.875120">
        <ele>502.96924</ele>
        <time>2021-07-02T13:00:11Z</time>
      </trkpt>
      <trkpt lat="42.063110" lon="1.875162">
        <ele>501.51245</ele>
        <time>2021-07-02T13:00:12Z</time>
      </trkpt>
      <trkpt lat="42.062752" lon="1.875196">
        <ele>499.77295</ele>
        <time>2021-07-02T13:00:13Z</time>
      </trkpt>
      <trkpt lat="42.062401" lon="1.875236">
        <ele>498.13770</ele>
        <time>2021-07-02T13:00:14Z</time>
      </trkpt>
      <trkpt lat="42.062061" lon="1.875273">
        <ele>496.46899</ele>
        <time>2021-07-02T13:00:15Z</time>
      </trkpt>
      <trkpt lat="42.061691" lon="1.875311">
        <ele>495.89941</ele>
        <time>2021-07-02T13:00:16Z</time>
      </trkpt>
      <trkpt lat="42.061317" lon="1.875349">
        <ele>494.33215</ele>
        <time>2021-07-02T13:00:17Z</time>
      </trkpt>
      <trkpt lat="42.060986" lon="1.875383">
        <ele>492.80396</ele>
        <time>2021-07-02T13:00:18Z</time>
      </trkpt>
      <trkpt lat="42.060623" lon="1.875420">
        <ele>491.34644</ele>
        <time>2021-07-02T13:00:19Z</time>
      </trkpt>
      <trkpt lat="42.060265" lon="1.875451">
        <ele>490.83008</ele>
        <time>2021-07-02T13:00:20Z</time>
      </trkpt>
      <trkpt lat="42.059917" lon="1.875470">
        <ele>489.48755</ele>
        <time>2021-07-02T13:00:21Z</time>
      </trkpt>
      <trkpt lat="42.059555" lon="1.875487">
        <ele>488.77332</ele>
        <time>2021-07-02T13:00:22Z</time>
      </trkpt>
      <trkpt lat="42.059231" lon="1.875516">
        <ele>488.62903</ele>
        <time>2021-07-02T13:00:23Z</time>
      </trkpt>
      <trkpt lat="42.058887" lon="1.875536">
        <ele>488.60034</ele>
        <time>2021-07-02T13:00:24Z</time>
      </trkpt>
      <trkpt lat="42.058533" lon="1.875558">
        <ele>488.48926</ele>
        <time>2021-07-02T13:00:25Z</time>
      </trkpt>
      <trkpt lat="42.058163" lon="1.875580">
        <ele>488.41980</ele>
        <time>2021-07-02T13:00:26Z</time>
      </trkpt>
      <trkpt lat="42.057793" lon="1.875602">
        <ele>487.84155</ele>
        <time>2021-07-02T13:00:27Z</time>
      </trkpt>
      <trkpt lat="42.057442" lon="1.875616">
        <ele>487.90051</ele>
        <time>2021-07-02T13:00:28Z</time>
      </trkpt>
      <trkpt lat="42.057068" lon="1.875630">
        <ele>487.43701</ele>
        <time>2021-07-02T13:00:29Z</time>
      </trkpt>
      <trkpt lat="42.056702" lon="1.875644">
        <ele>487.27222</ele>
        <time>2021-07-02T13:00:30Z</time>
      </trkpt>
      <trkpt lat="42.056339" lon="1.875658">
        <ele>487.21301</ele>
        <time>2021-07-02T13:00:31Z</time>
      </trkpt>
      <trkpt lat="42.055988" lon="1.875672">
        <ele>486.30493</ele>
        <time>2021-07-02T13:00:32Z</time>
      </trkpt>
      <trkpt lat="42.055660" lon="1.875679">
        <ele>485.87329</ele>
        <time>2021-07-02T13:00:33Z</time>
      </trkpt>
      <trkpt lat="42.055313" lon="1.875682">
        <ele>485.65796</ele>
        <time>2021-07-02T13:00:34Z</time>
      </trkpt>
      <trkpt lat="42.054939" lon="1.875686">
        <ele>485.69727</ele>
        <time>2021-07-02T13:00:35Z</time>
      </trkpt>
      <trkpt lat="42.054588" lon="1.875689">
        <ele>485.30420</ele>
        <time>2021-07-02T13:00:36Z</time>
      </trkpt>
      <trkpt lat="42.054218" lon="1.875692">
        <ele>485.03491</ele>
        <time>2021-07-02T13:00:37Z</time>
      </trkpt>
      <trkpt lat="42.053871" lon="1.875687">
        <ele>484.97644</ele>
        <time>2021-07-02T13:00:38Z</time>
      </trkpt>
      <trkpt lat="42.053493" lon="1.875682">
        <ele>484.83972</ele>
        <time>2021-07-02T13:00:39Z</time>
      </trkpt>
      <trkpt lat="42.053185" lon="1.875677">
        <ele>485.04358</ele>
        <time>2021-07-02T13:00:40Z</time>
      </trkpt>
      <trkpt lat="42.052784" lon="1.875679">
        <ele>485.16663</ele>
        <time>2021-07-02T13:00:41Z</time>
      </trkpt>
      <trkpt lat="42.052444" lon="1.875692">
        <ele>484.98755</ele>
        <time>2021-07-02T13:00:42Z</time>
      </trkpt>
      <trkpt lat="42.052074" lon="1.875705">
        <ele>484.46826</ele>
        <time>2021-07-02T13:00:43Z</time>
      </trkpt>
      <trkpt lat="42.051716" lon="1.875718">
        <ele>483.58496</ele>
        <time>2021-07-02T13:00:44Z</time>
      </trkpt>
      <trkpt lat="42.051380" lon="1.875730">
        <ele>482.42114</ele>
        <time>2021-07-02T13:00:45Z</time>
      </trkpt>
      <trkpt lat="42.051380" lon="1.875730">
        <ele>481.23120</ele>
        <time>2021-07-02T13:00:46Z</time>
      </trkpt>
      <trkpt lat="42.050999" lon="1.875745">
        <ele>480.31079</ele>
        <time>2021-07-02T13:00:47Z</time>
      </trkpt>
      <trkpt lat="42.050640" lon="1.875771">
        <ele>479.85449</ele>
        <time>2021-07-02T13:00:48Z</time>
      </trkpt>
      <trkpt lat="42.050266" lon="1.875798">
        <ele>479.17041</ele>
        <time>2021-07-02T13:00:49Z</time>
      </trkpt>
      <trkpt lat="42.049927" lon="1.875823">
        <ele>477.34570</ele>
        <time>2021-07-02T13:00:50Z</time>
      </trkpt>
      <trkpt lat="42.049553" lon="1.875857">
        <ele>475.40771</ele>
        <time>2021-07-02T13:00:51Z</time>
      </trkpt>
      <trkpt lat="42.049187" lon="1.875899">
        <ele>474.89624</ele>
        <time>2021-07-02T13:00:52Z</time>
      </trkpt>
      <trkpt lat="42.048813" lon="1.875940">
        <ele>475.32886</ele>
        <time>2021-07-02T13:00:53Z</time>
      </trkpt>
      <trkpt lat="42.048454" lon="1.875980">
        <ele>474.76440</ele>
        <time>2021-07-02T13:00:54Z</time>
      </trkpt>
      <trkpt lat="42.048092" lon="1.876027">
        <ele>473.14380</ele>
        <time>2021-07-02T13:00:55Z</time>
      </trkpt>
      <trkpt lat="42.047722" lon="1.876075">
        <ele>471.19421</ele>
        <time>2021-07-02T13:00:56Z</time>
      </trkpt>
      <trkpt lat="42.047462" lon="1.876108">
        <ele>469.57751</ele>
        <time>2021-07-02T13:00:57Z</time>
      </trkpt>
      <trkpt lat="42.047119" lon="1.876113">
        <ele>468.71667</ele>
        <time>2021-07-02T13:00:58Z</time>
      </trkpt>
      <trkpt lat="42.046646" lon="1.876077">
        <ele>467.56586</ele>
        <time>2021-07-02T13:00:59Z</time>
      </trkpt>
      <trkpt lat="42.046307" lon="1.876021">
        <ele>466.66333</ele>
        <time>2021-07-02T13:01:00Z</time>
      </trkpt>
      <trkpt lat="42.045929" lon="1.876370">
        <ele>466.10748</ele>
        <time>2021-07-02T13:01:01Z</time>
      </trkpt>
      <trkpt lat="42.045547" lon="1.876436">
        <ele>466.27563</ele>
        <time>2021-07-02T13:01:02Z</time>
      </trkpt>
      <trkpt lat="42.045189" lon="1.876477">
        <ele>466.60413</ele>
        <time>2021-07-02T13:01:03Z</time>
      </trkpt>
      <trkpt lat="42.044853" lon="1.876494">
        <ele>466.05780</ele>
        <time>2021-07-02T13:01:04Z</time>
      </trkpt>
      <trkpt lat="42.044479" lon="1.876453">
        <ele>466.06421</ele>
        <time>2021-07-02T13:01:05Z</time>
      </trkpt>
      <trkpt lat="42.044109" lon="1.876379">
        <ele>465.43896</ele>
        <time>2021-07-02T13:01:06Z</time>
      </trkpt>
      <trkpt lat="42.043781" lon="1.876268">
        <ele>464.67413</ele>
        <time>2021-07-02T13:01:07Z</time>
      </trkpt>
      <trkpt lat="42.043472" lon="1.876128">
        <ele>464.93079</ele>
        <time>2021-07-02T13:01:08Z</time>
      </trkpt>
      <trkpt lat="42.043140" lon="1.875944">
        <ele>464.09314</ele>
        <time>2021-07-02T13:01:09Z</time>
      </trkpt>
      <trkpt lat="42.042797" lon="1.875737">
        <ele>464.60510</ele>
        <time>2021-07-02T13:01:10Z</time>
      </trkpt>
      <trkpt lat="42.042461" lon="1.875541">
        <ele>466.71545</ele>
        <time>2021-07-02T13:01:11Z</time>
      </trkpt>
      <trkpt lat="42.042107" lon="1.875370">
        <ele>468.36969</ele>
        <time>2021-07-02T13:01:12Z</time>
      </trkpt>
      <trkpt lat="42.041752" lon="1.875250">
        <ele>469.75891</ele>
        <time>2021-07-02T13:01:13Z</time>
      </trkpt>
      <trkpt lat="42.041752" lon="1.875250">
        <ele>472.39630</ele>
        <time>2021-07-02T13:01:14Z</time>
      </trkpt>
      <trkpt lat="42.041393" lon="1.875160">
        <ele>474.01477</ele>
        <time>2021-07-02T13:01:15Z</time>
      </trkpt>
      <trkpt lat="42.041023" lon="1.875119">
        <ele>473.71674</ele>
        <time>2021-07-02T13:01:16Z</time>
      </trkpt>
      <trkpt lat="42.040672" lon="1.875114">
        <ele>474.52930</ele>
        <time>2021-07-02T13:01:17Z</time>
      </trkpt>
      <trkpt lat="42.040325" lon="1.875139">
        <ele>474.01514</ele>
        <time>2021-07-02T13:01:18Z</time>
      </trkpt>
      <trkpt lat="42.039970" lon="1.875170">
        <ele>473.72223</ele>
        <time>2021-07-02T13:01:19Z</time>
      </trkpt>
      <trkpt lat="42.039604" lon="1.875203">
        <ele>473.04047</ele>
        <time>2021-07-02T13:01:20Z</time>
      </trkpt>
      <trkpt lat="42.039276" lon="1.875231">
        <ele>474.57300</ele>
        <time>2021-07-02T13:01:21Z</time>
      </trkpt>
      <trkpt lat="42.038925" lon="1.875254">
        <ele>476.14258</ele>
        <time>2021-07-02T13:01:22Z</time>
      </trkpt>
      <trkpt lat="42.038567" lon="1.875266">
        <ele>476.99707</ele>
        <time>2021-07-02T13:01:23Z</time>
      </trkpt>
      <trkpt lat="42.038200" lon="1.875271">
        <ele>477.12854</ele>
        <time>2021-07-02T13:01:24Z</time>
      </trkpt>
      <trkpt lat="42.037865" lon="1.875255">
        <ele>478.09473</ele>
        <time>2021-07-02T13:01:25Z</time>
      </trkpt>
      <trkpt lat="42.037498" lon="1.875218">
        <ele>479.23511</ele>
        <time>2021-07-02T13:01:26Z</time>
      </trkpt>
      <trkpt lat="42.037121" lon="1.875150">
        <ele>481.14880</ele>
        <time>2021-07-02T13:01:27Z</time>
      </trkpt>
      <trkpt lat="42.036785" lon="1.875071">
        <ele>483.08118</ele>
        <time>2021-07-02T13:01:28Z</time>
      </trkpt>
      <trkpt lat="42.036430" lon="1.874956">
        <ele>484.55261</ele>
        <time>2021-07-02T13:01:29Z</time>
      </trkpt>
      <trkpt lat="42.036064" lon="1.874821">
        <ele>484.80225</ele>
        <time>2021-07-02T13:01:30Z</time>
      </trkpt>
      <trkpt lat="42.035721" lon="1.874678">
        <ele>487.06250</ele>
        <time>2021-07-02T13:01:31Z</time>
      </trkpt>
      <trkpt lat="42.035397" lon="1.874531">
        <ele>488.37866</ele>
        <time>2021-07-02T13:01:32Z</time>
      </trkpt>
      <trkpt lat="42.035076" lon="1.874380">
        <ele>490.42847</ele>
        <time>2021-07-02T13:01:33Z</time>
      </trkpt>
      <trkpt lat="42.034729" lon="1.874219">
        <ele>490.73853</ele>
        <time>2021-07-02T13:01:34Z</time>
      </trkpt>
      <trkpt lat="42.034492" lon="1.874110">
        <ele>490.86011</ele>
        <time>2021-07-02T13:01:35Z</time>
      </trkpt>
      <trkpt lat="42.034454" lon="1.874076">
        <ele>491.94019</ele>
        <time>2021-07-02T13:01:36Z</time>
      </trkpt>
      <trkpt lat="42.033783" lon="1.873641">
        <ele>493.09619</ele>
        <time>2021-07-02T13:01:37Z</time>
      </trkpt>
      <trkpt lat="42.033363" lon="1.873644">
        <ele>493.34619</ele>
        <time>2021-07-02T13:01:38Z</time>
      </trkpt>
      <trkpt lat="42.033009" lon="1.873554">
        <ele>492.96362</ele>
        <time>2021-07-02T13:01:39Z</time>
      </trkpt>
      <trkpt lat="42.032639" lon="1.873494">
        <ele>492.92529</ele>
        <time>2021-07-02T13:01:40Z</time>
      </trkpt>
      <trkpt lat="42.032288" lon="1.873478">
        <ele>492.57141</ele>
        <time>2021-07-02T13:01:41Z</time>
      </trkpt>
      <trkpt lat="42.031902" lon="1.873511">
        <ele>493.43652</ele>
        <time>2021-07-02T13:01:42Z</time>
      </trkpt>
      <trkpt lat="42.031544" lon="1.873576">
        <ele>491.97156</ele>
        <time>2021-07-02T13:01:43Z</time>
      </trkpt>
      <trkpt lat="42.031178" lon="1.873683">
        <ele>491.35132</ele>
        <time>2021-07-02T13:01:44Z</time>
      </trkpt>
      <trkpt lat="42.031178" lon="1.873683">
        <ele>490.43054</ele>
        <time>2021-07-02T13:01:45Z</time>
      </trkpt>
      <trkpt lat="42.030842" lon="1.873826">
        <ele>490.31787</ele>
        <time>2021-07-02T13:01:46Z</time>
      </trkpt>
      <trkpt lat="42.030495" lon="1.874006">
        <ele>489.12439</ele>
        <time>2021-07-02T13:01:47Z</time>
      </trkpt>
      <trkpt lat="42.030167" lon="1.874224">
        <ele>488.11426</ele>
        <time>2021-07-02T13:01:48Z</time>
      </trkpt>
      <trkpt lat="42.029854" lon="1.874467">
        <ele>486.88135</ele>
        <time>2021-07-02T13:01:49Z</time>
      </trkpt>
      <trkpt lat="42.029575" lon="1.874736">
        <ele>486.28320</ele>
        <time>2021-07-02T13:01:50Z</time>
      </trkpt>
      <trkpt lat="42.029301" lon="1.875012">
        <ele>485.08789</ele>
        <time>2021-07-02T13:01:51Z</time>
      </trkpt>
      <trkpt lat="42.029011" lon="1.875301">
        <ele>484.54663</ele>
        <time>2021-07-02T13:01:52Z</time>
      </trkpt>
      <trkpt lat="42.028717" lon="1.875580">
        <ele>483.69495</ele>
        <time>2021-07-02T13:01:53Z</time>
      </trkpt>
      <trkpt lat="42.028408" lon="1.875836">
        <ele>481.11133</ele>
        <time>2021-07-02T13:01:54Z</time>
      </trkpt>
      <trkpt lat="42.028095" lon="1.876063">
        <ele>479.84351</ele>
        <time>2021-07-02T13:01:55Z</time>
      </trkpt>
      <trkpt lat="42.027775" lon="1.876246">
        <ele>479.64355</ele>
        <time>2021-07-02T13:01:56Z</time>
      </trkpt>
      <trkpt lat="42.027443" lon="1.876402">
        <ele>479.73950</ele>
        <time>2021-07-02T13:01:57Z</time>
      </trkpt>
      <trkpt lat="42.027073" lon="1.876524">
        <ele>480.53223</ele>
        <time>2021-07-02T13:01:58Z</time>
      </trkpt>
      <trkpt lat="42.026722" lon="1.876602">
        <ele>480.03784</ele>
        <time>2021-07-02T13:01:59Z</time>
      </trkpt>
      <trkpt lat="42.026352" lon="1.876667">
        <ele>480.18091</ele>
        <time>2021-07-02T13:02:00Z</time>
      </trkpt>
      <trkpt lat="42.026012" lon="1.876727">
        <ele>480.38867</ele>
        <time>2021-07-02T13:02:01Z</time>
      </trkpt>
      <trkpt lat="42.025673" lon="1.876787">
        <ele>481.06567</ele>
        <time>2021-07-02T13:02:02Z</time>
      </trkpt>
      <trkpt lat="42.025337" lon="1.876873">
        <ele>482.47607</ele>
        <time>2021-07-02T13:02:03Z</time>
      </trkpt>
      <trkpt lat="42.025021" lon="1.876976">
        <ele>483.33789</ele>
        <time>2021-07-02T13:02:04Z</time>
      </trkpt>
      <trkpt lat="42.024742" lon="1.877077">
        <ele>484.14771</ele>
        <time>2021-07-02T13:02:05Z</time>
      </trkpt>
      <trkpt lat="42.024460" lon="1.877191">
        <ele>483.90381</ele>
        <time>2021-07-02T13:02:06Z</time>
      </trkpt>
      <trkpt lat="42.024174" lon="1.877307">
        <ele>482.47632</ele>
        <time>2021-07-02T13:02:07Z</time>
      </trkpt>
      <trkpt lat="42.023895" lon="1.877418">
        <ele>483.78967</ele>
        <time>2021-07-02T13:02:08Z</time>
      </trkpt>
      <trkpt lat="42.023640" lon="1.877521">
        <ele>486.44165</ele>
        <time>2021-07-02T13:02:09Z</time>
      </trkpt>
      <trkpt lat="42.023342" lon="1.877616">
        <ele>486.30688</ele>
        <time>2021-07-02T13:02:10Z</time>
      </trkpt>
      <trkpt lat="42.023071" lon="1.877689">
        <ele>485.85291</ele>
        <time>2021-07-02T13:02:11Z</time>
      </trkpt>
      <trkpt lat="42.022793" lon="1.877735">
        <ele>485.13770</ele>
        <time>2021-07-02T13:02:12Z</time>
      </trkpt>
      <trkpt lat="42.022476" lon="1.877762">
        <ele>485.53064</ele>
        <time>2021-07-02T13:02:13Z</time>
      </trkpt>
      <trkpt lat="42.022179" lon="1.877783">
        <ele>485.49023</ele>
        <time>2021-07-02T13:02:14Z</time>
      </trkpt>
      <trkpt lat="42.021877" lon="1.877803">
        <ele>484.18311</ele>
        <time>2021-07-02T13:02:15Z</time>
      </trkpt>
      <trkpt lat="42.021561" lon="1.877828">
        <ele>483.88989</ele>
        <time>2021-07-02T13:02:16Z</time>
      </trkpt>
      <trkpt lat="42.021244" lon="1.877862">
        <ele>482.73071</ele>
        <time>2021-07-02T13:02:17Z</time>
      </trkpt>
      <trkpt lat="42.020939" lon="1.877900">
        <ele>481.74939</ele>
        <time>2021-07-02T13:02:18Z</time>
      </trkpt>
      <trkpt lat="42.020615" lon="1.877964">
        <ele>482.36816</ele>
        <time>2021-07-02T13:02:19Z</time>
      </trkpt>
      <trkpt lat="42.020615" lon="1.877964">
        <ele>481.41357</ele>
        <time>2021-07-02T13:02:20Z</time>
      </trkpt>
      <trkpt lat="42.020275" lon="1.878042">
        <ele>479.55591</ele>
        <time>2021-07-02T13:02:21Z</time>
      </trkpt>
      <trkpt lat="42.019924" lon="1.878144">
        <ele>478.48804</ele>
        <time>2021-07-02T13:02:22Z</time>
      </trkpt>
      <trkpt lat="42.019592" lon="1.878257">
        <ele>476.93164</ele>
        <time>2021-07-02T13:02:23Z</time>
      </trkpt>
      <trkpt lat="42.019264" lon="1.878381">
        <ele>475.98511</ele>
        <time>2021-07-02T13:02:24Z</time>
      </trkpt>
      <trkpt lat="42.018948" lon="1.878514">
        <ele>474.58984</ele>
        <time>2021-07-02T13:02:25Z</time>
      </trkpt>
      <trkpt lat="42.018723" lon="1.878565">
        <ele>474.42847</ele>
        <time>2021-07-02T13:02:26Z</time>
      </trkpt>
      <trkpt lat="42.018219" lon="1.878785">
        <ele>474.44165</ele>
        <time>2021-07-02T13:02:27Z</time>
      </trkpt>
      <trkpt lat="42.017883" lon="1.878917">
        <ele>474.50244</ele>
        <time>2021-07-02T13:02:28Z</time>
      </trkpt>
      <trkpt lat="42.017574" lon="1.879250">
        <ele>474.68970</ele>
        <time>2021-07-02T13:02:29Z</time>
      </trkpt>
      <trkpt lat="42.017239" lon="1.879432">
        <ele>475.12646</ele>
        <time>2021-07-02T13:02:30Z</time>
      </trkpt>
      <trkpt lat="42.016773" lon="1.879684">
        <ele>475.52734</ele>
        <time>2021-07-02T13:02:31Z</time>
      </trkpt>
      <trkpt lat="42.016537" lon="1.879813">
        <ele>477.14355</ele>
        <time>2021-07-02T13:02:32Z</time>
      </trkpt>
      <trkpt lat="42.016537" lon="1.879813">
        <ele>477.83423</ele>
        <time>2021-07-02T13:02:33Z</time>
      </trkpt>
      <trkpt lat="42.016171" lon="1.880010">
        <ele>478.80005</ele>
        <time>2021-07-02T13:02:34Z</time>
      </trkpt>
      <trkpt lat="42.015808" lon="1.880206">
        <ele>479.20044</ele>
        <time>2021-07-02T13:02:35Z</time>
      </trkpt>
      <trkpt lat="42.015472" lon="1.880387">
        <ele>478.86597</ele>
        <time>2021-07-02T13:02:36Z</time>
      </trkpt>
      <trkpt lat="42.015133" lon="1.880573">
        <ele>479.17078</ele>
        <time>2021-07-02T13:02:37Z</time>
      </trkpt>
      <trkpt lat="42.014797" lon="1.880753">
        <ele>478.98840</ele>
        <time>2021-07-02T13:02:38Z</time>
      </trkpt>
      <trkpt lat="42.014454" lon="1.880939">
        <ele>479.38074</ele>
        <time>2021-07-02T13:02:39Z</time>
      </trkpt>
      <trkpt lat="42.014126" lon="1.881118">
        <ele>479.45435</ele>
        <time>2021-07-02T13:02:40Z</time>
      </trkpt>
      <trkpt lat="42.013790" lon="1.881300">
        <ele>480.21826</ele>
        <time>2021-07-02T13:02:41Z</time>
      </trkpt>
      <trkpt lat="42.013439" lon="1.881489">
        <ele>478.98560</ele>
        <time>2021-07-02T13:02:42Z</time>
      </trkpt>
      <trkpt lat="42.013119" lon="1.881663">
        <ele>478.99219</ele>
        <time>2021-07-02T13:02:43Z</time>
      </trkpt>
      <trkpt lat="42.012802" lon="1.881835">
        <ele>479.16931</ele>
        <time>2021-07-02T13:02:44Z</time>
      </trkpt>
      <trkpt lat="42.012459" lon="1.882020">
        <ele>479.82642</ele>
        <time>2021-07-02T13:02:45Z</time>
      </trkpt>
      <trkpt lat="42.012123" lon="1.882190">
        <ele>478.92383</ele>
        <time>2021-07-02T13:02:46Z</time>
      </trkpt>
      <trkpt lat="42.011787" lon="1.882342">
        <ele>478.99561</ele>
        <time>2021-07-02T13:02:47Z</time>
      </trkpt>
      <trkpt lat="42.011440" lon="1.882464">
        <ele>478.89380</ele>
        <time>2021-07-02T13:02:48Z</time>
      </trkpt>
      <trkpt lat="42.011063" lon="1.882575">
        <ele>479.10449</ele>
        <time>2021-07-02T13:02:49Z</time>
      </trkpt>
      <trkpt lat="42.010715" lon="1.882650">
        <ele>478.52197</ele>
        <time>2021-07-02T13:02:50Z</time>
      </trkpt>
      <trkpt lat="42.010361" lon="1.882708">
        <ele>477.16455</ele>
        <time>2021-07-02T13:02:51Z</time>
      </trkpt>
      <trkpt lat="42.010014" lon="1.882747">
        <ele>476.47314</ele>
        <time>2021-07-02T13:02:52Z</time>
      </trkpt>
      <trkpt lat="42.009670" lon="1.882740">
        <ele>474.90112</ele>
        <time>2021-07-02T13:02:53Z</time>
      </trkpt>
      <trkpt lat="42.009293" lon="1.882708">
        <ele>474.83154</ele>
        <time>2021-07-02T13:02:54Z</time>
      </trkpt>
      <trkpt lat="42.008938" lon="1.882652">
        <ele>474.82117</ele>
        <time>2021-07-02T13:02:55Z</time>
      </trkpt>
      <trkpt lat="42.008595" lon="1.882574">
        <ele>473.55267</ele>
        <time>2021-07-02T13:02:56Z</time>
      </trkpt>
      <trkpt lat="42.008251" lon="1.882476">
        <ele>474.04810</ele>
        <time>2021-07-02T13:02:57Z</time>
      </trkpt>
      <trkpt lat="42.007889" lon="1.882338">
        <ele>473.01953</ele>
        <time>2021-07-02T13:02:58Z</time>
      </trkpt>
      <trkpt lat="42.007545" lon="1.882205">
        <ele>472.61243</ele>
        <time>2021-07-02T13:02:59Z</time>
      </trkpt>
      <trkpt lat="42.007206" lon="1.882069">
        <ele>474.23169</ele>
        <time>2021-07-02T13:03:00Z</time>
      </trkpt>
      <trkpt lat="42.006870" lon="1.881939">
        <ele>475.23022</ele>
        <time>2021-07-02T13:03:01Z</time>
      </trkpt>
      <trkpt lat="42.006565" lon="1.881814">
        <ele>472.54816</ele>
        <time>2021-07-02T13:03:02Z</time>
      </trkpt>
      <trkpt lat="42.006268" lon="1.881697">
        <ele>471.75134</ele>
        <time>2021-07-02T13:03:03Z</time>
      </trkpt>
      <trkpt lat="42.005993" lon="1.881595">
        <ele>471.41229</ele>
        <time>2021-07-02T13:03:04Z</time>
      </trkpt>
      <trkpt lat="42.005711" lon="1.881500">
        <ele>471.13959</ele>
        <time>2021-07-02T13:03:05Z</time>
      </trkpt>
      <trkpt lat="42.005711" lon="1.881500">
        <ele>470.82867</ele>
        <time>2021-07-02T13:03:06Z</time>
      </trkpt>
      <trkpt lat="42.005398" lon="1.881400">
        <ele>471.80304</ele>
        <time>2021-07-02T13:03:07Z</time>
      </trkpt>
      <trkpt lat="42.005116" lon="1.881305">
        <ele>469.37152</ele>
        <time>2021-07-02T13:03:08Z</time>
      </trkpt>
      <trkpt lat="42.004852" lon="1.881219">
        <ele>469.90033</ele>
        <time>2021-07-02T13:03:09Z</time>
      </trkpt>
      <trkpt lat="42.004578" lon="1.881105">
        <ele>469.30530</ele>
        <time>2021-07-02T13:03:10Z</time>
      </trkpt>
      <trkpt lat="42.004288" lon="1.881032">
        <ele>468.53082</ele>
        <time>2021-07-02T13:03:11Z</time>
      </trkpt>
      <trkpt lat="42.004025" lon="1.880973">
        <ele>468.30206</ele>
        <time>2021-07-02T13:03:12Z</time>
      </trkpt>
      <trkpt lat="42.003799" lon="1.880933">
        <ele>466.38342</ele>
        <time>2021-07-02T13:03:13Z</time>
      </trkpt>
      <trkpt lat="42.003540" lon="1.880888">
        <ele>466.24841</ele>
        <time>2021-07-02T13:03:14Z</time>
      </trkpt>
      <trkpt lat="42.003311" lon="1.880858">
        <ele>466.24841</ele>
        <time>2021-07-02T13:03:15Z</time>
      </trkpt>
      <trkpt lat="42.003094" lon="1.880830">
        <ele>466.24841</ele>
        <time>2021-07-02T13:03:16Z</time>
      </trkpt>
      <trkpt lat="42.002975" lon="1.880814">
        <ele>466.24841</ele>
        <time>2021-07-02T13:03:17Z</time>
      </trkpt>
      <trkpt lat="42.002975" lon="1.880814">
        <ele>466.24841</ele>
        <time>2021-07-02T13:03:18Z</time>
      </trkpt>
      <trkpt lat="42.002975" lon="1.880814">
        <ele>466.24841</ele>
        <time>2021-07-02T13:03:19Z</time>
      </trkpt>
      <trkpt lat="42.002975" lon="1.880814">
        <ele>466.24841</ele>
        <time>2021-07-02T13:03:20Z</time>
      </trkpt>
      <trkpt lat="42.002975" lon="1.880814">
        <ele>466.24841</ele>
        <time>2021-07-02T13:03:21Z</time>
      </trkpt>
      <trkpt lat="42.002975" lon="1.880814">
        <ele>466.24841</ele>
        <time>2021-07-02T13:03:22Z</time>
      </trkpt>
      <trkpt lat="42.002975" lon="1.880814">
        <ele>466.24841</ele>
        <time>2021-07-02T13:03:23Z</time>
      </trkpt>
      <trkpt lat="42.002975" lon="1.880814">
        <ele>466.24841</ele>
        <time>2021-07-02T13:03:24Z</time>
      </trkpt>
      <trkpt lat="42.002975" lon="1.880814">
        <ele>466.24841</ele>
        <time>2021-07-02T13:03:25Z</time>
      </trkpt>
      <trkpt lat="42.002975" lon="1.880814">
        <ele>466.24841</ele>
        <time>2021-07-02T13:03:26Z</time>
      </trkpt>
      <trkpt lat="42.002975" lon="1.880814">
        <ele>466.24841</ele>
        <time>2021-07-02T13:03:27Z</time>
      </trkpt>
      <trkpt lat="42.002975" lon="1.880814">
        <ele>466.24841</ele>
        <time>2021-07-02T13:03:28Z</time>
      </trkpt>
      <trkpt lat="42.002975" lon="1.880814">
        <ele>466.24841</ele>
        <time>2021-07-02T13:03:29Z</time>
      </trkpt>
      <trkpt lat="42.002975" lon="1.880814">
        <ele>466.24841</ele>
        <time>2021-07-02T13:03:30Z</time>
      </trkpt>
      <trkpt lat="42.002975" lon="1.880814">
        <ele>466.24841</ele>
        <time>2021-07-02T13:03:31Z</time>
      </trkpt>
      <trkpt lat="42.002975" lon="1.880814">
        <ele>466.24841</ele>
        <time>2021-07-02T13:03:32Z</time>
      </trkpt>
      <trkpt lat="42.002975" lon="1.880814">
        <ele>466.24841</ele>
        <time>2021-07-02T13:03:33Z</time>
      </trkpt>
      <trkpt lat="42.002975" lon="1.880814">
        <ele>466.24841</ele>
        <time>2021-07-02T13:03:34Z</time>
      </trkpt>
      <trkpt lat="42.002975" lon="1.880814">
        <ele>466.24841</ele>
        <time>2021-07-02T13:03:35Z</time>
      </trkpt>
      <trkpt lat="42.002975" lon="1.880814">
        <ele>466.24841</ele>
        <time>2021-07-02T13:03:36Z</time>
      </trkpt>
      <trkpt lat="42.002975" lon="1.880814">
        <ele>466.24841</ele>
        <time>2021-07-02T13:03:37Z</time>
      </trkpt>
      <trkpt lat="42.002975" lon="1.880814">
        <ele>466.24841</ele>
        <time>2021-07-02T13:03:38Z</time>
      </trkpt>
      <trkpt lat="42.002975" lon="1.880814">
        <ele>466.24841</ele>
        <time>2021-07-02T13:03:39Z</time>
      </trkpt>
      <trkpt lat="42.002975" lon="1.880814">
        <ele>466.24841</ele>
        <time>2021-07-02T13:03:40Z</time>
      </trkpt>
      <trkpt lat="42.002975" lon="1.880814">
        <ele>466.24841</ele>
        <time>2021-07-02T13:03:41Z</time>
      </trkpt>
      <trkpt lat="42.002975" lon="1.880814">
        <ele>466.24841</ele>
        <time>2021-07-02T13:03:42Z</time>
      </trkpt>
      <trkpt lat="42.002975" lon="1.880814">
        <ele>466.24841</ele>
        <time>2021-07-02T13:03:43Z</time>
      </trkpt>
      <trkpt lat="42.002975" lon="1.880814">
        <ele>466.24841</ele>
        <time>2021-07-02T13:03:44Z</time>
      </trkpt>
      <trkpt lat="42.002975" lon="1.880814">
        <ele>466.24841</ele>
        <time>2021-07-02T13:03:45Z</time>
      </trkpt>
      <trkpt lat="42.002975" lon="1.880814">
        <ele>466.24841</ele>
        <time>2021-07-02T13:03:46Z</time>
      </trkpt>
      <trkpt lat="42.002975" lon="1.880814">
        <ele>464.63904</ele>
        <time>2021-07-02T13:03:47Z</time>
      </trkpt>
      <trkpt lat="42.002975" lon="1.880814">
        <ele>466.13879</ele>
        <time>2021-07-02T13:03:48Z</time>
      </trkpt>
      <trkpt lat="41.994545" lon="1.883206">
        <ele>468.56104</ele>
        <time>2021-07-02T13:03:49Z</time>
      </trkpt>
      <trkpt lat="41.994289" lon="1.883345">
        <ele>467.95410</ele>
        <time>2021-07-02T13:03:50Z</time>
      </trkpt>
      <trkpt lat="41.994026" lon="1.883520">
        <ele>467.71222</ele>
        <time>2021-07-02T13:03:51Z</time>
      </trkpt>
      <trkpt lat="41.993748" lon="1.883707">
        <ele>467.03149</ele>
        <time>2021-07-02T13:03:52Z</time>
      </trkpt>
      <trkpt lat="41.993492" lon="1.883874">
        <ele>466.07355</ele>
        <time>2021-07-02T13:03:53Z</time>
      </trkpt>
      <trkpt lat="41.993225" lon="1.884034">
        <ele>465.12817</ele>
        <time>2021-07-02T13:03:54Z</time>
      </trkpt>
      <trkpt lat="41.992958" lon="1.884172">
        <ele>463.56781</ele>
        <time>2021-07-02T13:03:55Z</time>
      </trkpt>
      <trkpt lat="41.992680" lon="1.884293">
        <ele>463.29706</ele>
        <time>2021-07-02T13:03:56Z</time>
      </trkpt>
      <trkpt lat="41.992378" lon="1.884400">
        <ele>463.44183</ele>
        <time>2021-07-02T13:03:57Z</time>
      </trkpt>
      <trkpt lat="41.992077" lon="1.884472">
        <ele>463.44409</ele>
        <time>2021-07-02T13:03:58Z</time>
      </trkpt>
      <trkpt lat="41.991783" lon="1.884520">
        <ele>463.40265</ele>
        <time>2021-07-02T13:03:59Z</time>
      </trkpt>
      <trkpt lat="41.991493" lon="1.884561">
        <ele>463.40265</ele>
        <time>2021-07-02T13:04:00Z</time>
      </trkpt>
      <trkpt lat="41.991203" lon="1.884579">
        <ele>463.40265</ele>
        <time>2021-07-02T13:04:01Z</time>
      </trkpt>
      <trkpt lat="41.991150" lon="1.884583">
        <ele>461.20386</ele>
        <time>2021-07-02T13:04:02Z</time>
      </trkpt>
      <trkpt lat="41.991127" lon="1.884584">
        <ele>460.19324</ele>
        <time>2021-07-02T13:04:03Z</time>
      </trkpt>
      <trkpt lat="41.990238" lon="1.884536">
        <ele>458.47119</ele>
        <time>2021-07-02T13:04:04Z</time>
      </trkpt>
      <trkpt lat="41.989986" lon="1.884489">
        <ele>458.28662</ele>
        <time>2021-07-02T13:04:05Z</time>
      </trkpt>
      <trkpt lat="41.989697" lon="1.884416">
        <ele>457.18640</ele>
        <time>2021-07-02T13:04:06Z</time>
      </trkpt>
      <trkpt lat="41.989384" lon="1.884327">
        <ele>457.28040</ele>
        <time>2021-07-02T13:04:07Z</time>
      </trkpt>
      <trkpt lat="41.989128" lon="1.884244">
        <ele>456.14404</ele>
        <time>2021-07-02T13:04:08Z</time>
      </trkpt>
      <trkpt lat="41.989090" lon="1.884221">
        <ele>455.14563</ele>
        <time>2021-07-02T13:04:09Z</time>
      </trkpt>
      <trkpt lat="41.988506" lon="1.883925">
        <ele>455.28699</ele>
        <time>2021-07-02T13:04:10Z</time>
      </trkpt>
      <trkpt lat="41.988506" lon="1.883925">
        <ele>453.98901</ele>
        <time>2021-07-02T13:04:11Z</time>
      </trkpt>
      <trkpt lat="41.988167" lon="1.883778">
        <ele>453.97424</ele>
        <time>2021-07-02T13:04:12Z</time>
      </trkpt>
      <trkpt lat="41.987823" lon="1.883662">
        <ele>453.89258</ele>
        <time>2021-07-02T13:04:13Z</time>
      </trkpt>
      <trkpt lat="41.987423" lon="1.883767">
        <ele>454.03931</ele>
        <time>2021-07-02T13:04:14Z</time>
      </trkpt>
      <trkpt lat="41.987080" lon="1.883744">
        <ele>453.50720</ele>
        <time>2021-07-02T13:04:15Z</time>
      </trkpt>
      <trkpt lat="41.986732" lon="1.883757">
        <ele>452.13245</ele>
        <time>2021-07-02T13:04:16Z</time>
      </trkpt>
      <trkpt lat="41.986378" lon="1.883797">
        <ele>451.86145</ele>
        <time>2021-07-02T13:04:17Z</time>
      </trkpt>
      <trkpt lat="41.986050" lon="1.883864">
        <ele>450.99023</ele>
        <time>2021-07-02T13:04:18Z</time>
      </trkpt>
      <trkpt lat="41.985710" lon="1.883956">
        <ele>449.81775</ele>
        <time>2021-07-02T13:04:19Z</time>
      </trkpt>
      <trkpt lat="41.985378" lon="1.884083">
        <ele>448.59021</ele>
        <time>2021-07-02T13:04:20Z</time>
      </trkpt>
      <trkpt lat="41.985039" lon="1.884229">
        <ele>447.88123</ele>
        <time>2021-07-02T13:04:21Z</time>
      </trkpt>
      <trkpt lat="41.984703" lon="1.884380">
        <ele>446.88721</ele>
        <time>2021-07-02T13:04:22Z</time>
      </trkpt>
      <trkpt lat="41.984364" lon="1.884535">
        <ele>446.43579</ele>
        <time>2021-07-02T13:04:23Z</time>
      </trkpt>
      <trkpt lat="41.984028" lon="1.884688">
        <ele>446.19330</ele>
        <time>2021-07-02T13:04:24Z</time>
      </trkpt>
      <trkpt lat="41.983685" lon="1.884844">
        <ele>445.50305</ele>
        <time>2021-07-02T13:04:25Z</time>
      </trkpt>
      <trkpt lat="41.983334" lon="1.885004">
        <ele>444.28571</ele>
        <time>2021-07-02T13:04:26Z</time>
      </trkpt>
      <trkpt lat="41.982979" lon="1.885165">
        <ele>444.18573</ele>
        <time>2021-07-02T13:04:27Z</time>
      </trkpt>
      <trkpt lat="41.982662" lon="1.885309">
        <ele>442.79260</ele>
        <time>2021-07-02T13:04:28Z</time>
      </trkpt>
      <trkpt lat="41.982307" lon="1.885470">
        <ele>442.98260</ele>
        <time>2021-07-02T13:04:29Z</time>
      </trkpt>
      <trkpt lat="41.981972" lon="1.885622">
        <ele>442.90564</ele>
        <time>2021-07-02T13:04:30Z</time>
      </trkpt>
      <trkpt lat="41.981632" lon="1.885777">
        <ele>442.92993</ele>
        <time>2021-07-02T13:04:31Z</time>
      </trkpt>
      <trkpt lat="41.981289" lon="1.885933">
        <ele>442.15588</ele>
        <time>2021-07-02T13:04:32Z</time>
      </trkpt>
      <trkpt lat="41.980946" lon="1.886088">
        <ele>442.12512</ele>
        <time>2021-07-02T13:04:33Z</time>
      </trkpt>
      <trkpt lat="41.980610" lon="1.886239">
        <ele>443.10437</ele>
        <time>2021-07-02T13:04:34Z</time>
      </trkpt>
      <trkpt lat="41.980263" lon="1.886391">
        <ele>442.19531</ele>
        <time>2021-07-02T13:04:35Z</time>
      </trkpt>
      <trkpt lat="41.979927" lon="1.886534">
        <ele>442.48938</ele>
        <time>2021-07-02T13:04:36Z</time>
      </trkpt>
      <trkpt lat="41.979927" lon="1.886534">
        <ele>443.43048</ele>
        <time>2021-07-02T13:04:37Z</time>
      </trkpt>
      <trkpt lat="41.979607" lon="1.886676">
        <ele>443.81042</ele>
        <time>2021-07-02T13:04:38Z</time>
      </trkpt>
      <trkpt lat="41.979240" lon="1.886824">
        <ele>444.06421</ele>
        <time>2021-07-02T13:04:39Z</time>
      </trkpt>
      <trkpt lat="41.978912" lon="1.886958">
        <ele>444.09387</ele>
        <time>2021-07-02T13:04:40Z</time>
      </trkpt>
      <trkpt lat="41.978561" lon="1.887099">
        <ele>445.36658</ele>
        <time>2021-07-02T13:04:41Z</time>
      </trkpt>
      <trkpt lat="41.978226" lon="1.887227">
        <ele>445.75977</ele>
        <time>2021-07-02T13:04:42Z</time>
      </trkpt>
      <trkpt lat="41.977879" lon="1.887355">
        <ele>446.35126</ele>
        <time>2021-07-02T13:04:43Z</time>
      </trkpt>
      <trkpt lat="41.977535" lon="1.887481">
        <ele>446.70374</ele>
        <time>2021-07-02T13:04:44Z</time>
      </trkpt>
      <trkpt lat="41.977161" lon="1.887616">
        <ele>446.81519</ele>
        <time>2021-07-02T13:04:45Z</time>
      </trkpt>
      <trkpt lat="41.976818" lon="1.887739">
        <ele>445.72906</ele>
        <time>2021-07-02T13:04:46Z</time>
      </trkpt>
      <trkpt lat="41.976471" lon="1.887865">
        <ele>443.39087</ele>
        <time>2021-07-02T13:04:47Z</time>
      </trkpt>
      <trkpt lat="41.976139" lon="1.887994">
        <ele>443.14478</ele>
        <time>2021-07-02T13:04:48Z</time>
      </trkpt>
      <trkpt lat="41.975773" lon="1.888136">
        <ele>442.97760</ele>
        <time>2021-07-02T13:04:49Z</time>
      </trkpt>
      <trkpt lat="41.975437" lon="1.888268">
        <ele>442.39038</ele>
        <time>2021-07-02T13:04:50Z</time>
      </trkpt>
      <trkpt lat="41.975082" lon="1.888415">
        <ele>441.89307</ele>
        <time>2021-07-02T13:04:51Z</time>
      </trkpt>
      <trkpt lat="41.974716" lon="1.888569">
        <ele>440.28479</ele>
        <time>2021-07-02T13:04:52Z</time>
      </trkpt>
      <trkpt lat="41.974373" lon="1.888720">
        <ele>438.85059</ele>
        <time>2021-07-02T13:04:53Z</time>
      </trkpt>
      <trkpt lat="41.974014" lon="1.888880">
        <ele>437.34052</ele>
        <time>2021-07-02T13:04:54Z</time>
      </trkpt>
      <trkpt lat="41.973667" lon="1.889035">
        <ele>434.15613</ele>
        <time>2021-07-02T13:04:55Z</time>
      </trkpt>
      <trkpt lat="41.973312" lon="1.889200">
        <ele>431.83112</ele>
        <time>2021-07-02T13:04:56Z</time>
      </trkpt>
      <trkpt lat="41.972969" lon="1.889361">
        <ele>430.06683</ele>
        <time>2021-07-02T13:04:57Z</time>
      </trkpt>
      <trkpt lat="41.972591" lon="1.889539">
        <ele>427.93073</ele>
        <time>2021-07-02T13:04:58Z</time>
      </trkpt>
      <trkpt lat="41.972233" lon="1.889701">
        <ele>426.29236</ele>
        <time>2021-07-02T13:04:59Z</time>
      </trkpt>
      <trkpt lat="41.971905" lon="1.889842">
        <ele>425.60260</ele>
        <time>2021-07-02T13:05:00Z</time>
      </trkpt>
      <trkpt lat="41.971546" lon="1.889990">
        <ele>424.62024</ele>
        <time>2021-07-02T13:05:01Z</time>
      </trkpt>
      <trkpt lat="41.971191" lon="1.890133">
        <ele>423.37848</ele>
        <time>2021-07-02T13:05:02Z</time>
      </trkpt>
      <trkpt lat="41.970863" lon="1.890262">
        <ele>423.11963</ele>
        <time>2021-07-02T13:05:03Z</time>
      </trkpt>
      <trkpt lat="41.970520" lon="1.890389">
        <ele>421.99725</ele>
        <time>2021-07-02T13:05:04Z</time>
      </trkpt>
      <trkpt lat="41.970520" lon="1.890389">
        <ele>422.40515</ele>
        <time>2021-07-02T13:05:05Z</time>
      </trkpt>
      <trkpt lat="41.969845" lon="1.890634">
        <ele>421.22522</ele>
        <time>2021-07-02T13:05:06Z</time>
      </trkpt>
      <trkpt lat="41.969845" lon="1.890634">
        <ele>421.75146</ele>
        <time>2021-07-02T13:05:07Z</time>
      </trkpt>
      <trkpt lat="41.969490" lon="1.890742">
        <ele>422.77246</ele>
        <time>2021-07-02T13:05:08Z</time>
      </trkpt>
      <trkpt lat="41.969166" lon="1.890825">
        <ele>423.12549</ele>
        <time>2021-07-02T13:05:09Z</time>
      </trkpt>
      <trkpt lat="41.968803" lon="1.890878">
        <ele>425.16083</ele>
        <time>2021-07-02T13:05:10Z</time>
      </trkpt>
      <trkpt lat="41.968460" lon="1.890901">
        <ele>426.17950</ele>
        <time>2021-07-02T13:05:11Z</time>
      </trkpt>
      <trkpt lat="41.968109" lon="1.890877">
        <ele>426.72034</ele>
        <time>2021-07-02T13:05:12Z</time>
      </trkpt>
      <trkpt lat="41.967728" lon="1.890826">
        <ele>428.71289</ele>
        <time>2021-07-02T13:05:13Z</time>
      </trkpt>
      <trkpt lat="41.967361" lon="1.890742">
        <ele>429.41943</ele>
        <time>2021-07-02T13:05:14Z</time>
      </trkpt>
      <trkpt lat="41.967003" lon="1.890610">
        <ele>428.84033</ele>
        <time>2021-07-02T13:05:15Z</time>
      </trkpt>
      <trkpt lat="41.966656" lon="1.890446">
        <ele>429.27332</ele>
        <time>2021-07-02T13:05:16Z</time>
      </trkpt>
      <trkpt lat="41.966324" lon="1.890263">
        <ele>429.79456</ele>
        <time>2021-07-02T13:05:17Z</time>
      </trkpt>
      <trkpt lat="41.966000" lon="1.890023">
        <ele>429.35413</ele>
        <time>2021-07-02T13:05:18Z</time>
      </trkpt>
      <trkpt lat="41.965694" lon="1.889774">
        <ele>429.69727</ele>
        <time>2021-07-02T13:05:19Z</time>
      </trkpt>
      <trkpt lat="41.965607" lon="1.889691">
        <ele>430.16138</ele>
        <time>2021-07-02T13:05:20Z</time>
      </trkpt>
      <trkpt lat="41.965305" lon="1.889306">
        <ele>429.92255</ele>
        <time>2021-07-02T13:05:21Z</time>
      </trkpt>
      <trkpt lat="41.964817" lon="1.888931">
        <ele>429.14771</ele>
        <time>2021-07-02T13:05:22Z</time>
      </trkpt>
      <trkpt lat="41.964508" lon="1.888653">
        <ele>428.16284</ele>
        <time>2021-07-02T13:05:23Z</time>
      </trkpt>
      <trkpt lat="41.964176" lon="1.888400">
        <ele>426.43823</ele>
        <time>2021-07-02T13:05:24Z</time>
      </trkpt>
      <trkpt lat="41.963814" lon="1.888154">
        <ele>426.31122</ele>
        <time>2021-07-02T13:05:25Z</time>
      </trkpt>
      <trkpt lat="41.963486" lon="1.887981">
        <ele>425.38403</ele>
        <time>2021-07-02T13:05:26Z</time>
      </trkpt>
      <trkpt lat="41.963150" lon="1.887823">
        <ele>425.44830</ele>
        <time>2021-07-02T13:05:27Z</time>
      </trkpt>
      <trkpt lat="41.962807" lon="1.887677">
        <ele>425.74329</ele>
        <time>2021-07-02T13:05:28Z</time>
      </trkpt>
      <trkpt lat="41.962463" lon="1.887533">
        <ele>425.46704</ele>
        <time>2021-07-02T13:05:29Z</time>
      </trkpt>
      <trkpt lat="41.962128" lon="1.887391">
        <ele>424.85645</ele>
        <time>2021-07-02T13:05:30Z</time>
      </trkpt>
      <trkpt lat="41.962128" lon="1.887391">
        <ele>423.98328</ele>
        <time>2021-07-02T13:05:31Z</time>
      </trkpt>
      <trkpt lat="41.961781" lon="1.887244">
        <ele>423.64587</ele>
        <time>2021-07-02T13:05:32Z</time>
      </trkpt>
      <trkpt lat="41.961418" lon="1.887098">
        <ele>422.89648</ele>
        <time>2021-07-02T13:05:33Z</time>
      </trkpt>
      <trkpt lat="41.961071" lon="1.886958">
        <ele>421.24854</ele>
        <time>2021-07-02T13:05:34Z</time>
      </trkpt>
      <trkpt lat="41.960762" lon="1.886827">
        <ele>419.66895</ele>
        <time>2021-07-02T13:05:35Z</time>
      </trkpt>
      <trkpt lat="41.960381" lon="1.886669">
        <ele>418.02515</ele>
        <time>2021-07-02T13:05:36Z</time>
      </trkpt>
      <trkpt lat="41.960045" lon="1.886536">
        <ele>415.40308</ele>
        <time>2021-07-02T13:05:37Z</time>
      </trkpt>
      <trkpt lat="41.959686" lon="1.886395">
        <ele>413.18970</ele>
        <time>2021-07-02T13:05:38Z</time>
      </trkpt>
      <trkpt lat="41.959324" lon="1.886263">
        <ele>411.03308</ele>
        <time>2021-07-02T13:05:39Z</time>
      </trkpt>
      <trkpt lat="41.958981" lon="1.886139">
        <ele>409.64099</ele>
        <time>2021-07-02T13:05:40Z</time>
      </trkpt>
      <trkpt lat="41.958618" lon="1.886008">
        <ele>407.86743</ele>
        <time>2021-07-02T13:05:41Z</time>
      </trkpt>
      <trkpt lat="41.958263" lon="1.885886">
        <ele>406.36450</ele>
        <time>2021-07-02T13:05:42Z</time>
      </trkpt>
      <trkpt lat="41.957932" lon="1.885771">
        <ele>405.00928</ele>
        <time>2021-07-02T13:05:43Z</time>
      </trkpt>
      <trkpt lat="41.957565" lon="1.885647">
        <ele>403.23859</ele>
        <time>2021-07-02T13:05:44Z</time>
      </trkpt>
      <trkpt lat="41.957195" lon="1.885528">
        <ele>401.78711</ele>
        <time>2021-07-02T13:05:45Z</time>
      </trkpt>
      <trkpt lat="41.956848" lon="1.885415">
        <ele>400.42480</ele>
        <time>2021-07-02T13:05:46Z</time>
      </trkpt>
      <trkpt lat="41.956497" lon="1.885285">
        <ele>398.08417</ele>
        <time>2021-07-02T13:05:47Z</time>
      </trkpt>
      <trkpt lat="41.956173" lon="1.885153">
        <ele>397.00854</ele>
        <time>2021-07-02T13:05:48Z</time>
      </trkpt>
      <trkpt lat="41.955849" lon="1.885008">
        <ele>395.86310</ele>
        <time>2021-07-02T13:05:49Z</time>
      </trkpt>
      <trkpt lat="41.955502" lon="1.884837">
        <ele>394.14368</ele>
        <time>2021-07-02T13:05:50Z</time>
      </trkpt>
      <trkpt lat="41.955170" lon="1.884665">
        <ele>392.81726</ele>
        <time>2021-07-02T13:05:51Z</time>
      </trkpt>
      <trkpt lat="41.954826" lon="1.884470">
        <ele>391.31458</ele>
        <time>2021-07-02T13:05:52Z</time>
      </trkpt>
      <trkpt lat="41.954456" lon="1.884261">
        <ele>389.33997</ele>
        <time>2021-07-02T13:05:53Z</time>
      </trkpt>
      <trkpt lat="41.954132" lon="1.884093">
        <ele>388.51678</ele>
        <time>2021-07-02T13:05:54Z</time>
      </trkpt>
      <trkpt lat="41.953796" lon="1.883930">
        <ele>387.40210</ele>
        <time>2021-07-02T13:05:55Z</time>
      </trkpt>
      <trkpt lat="41.953457" lon="1.883815">
        <ele>387.05237</ele>
        <time>2021-07-02T13:05:56Z</time>
      </trkpt>
      <trkpt lat="41.953098" lon="1.883727">
        <ele>386.24243</ele>
        <time>2021-07-02T13:05:57Z</time>
      </trkpt>
      <trkpt lat="41.952736" lon="1.883670">
        <ele>386.09241</ele>
        <time>2021-07-02T13:05:58Z</time>
      </trkpt>
      <trkpt lat="41.952381" lon="1.883618">
        <ele>385.96960</ele>
        <time>2021-07-02T13:05:59Z</time>
      </trkpt>
      <trkpt lat="41.952381" lon="1.883618">
        <ele>387.33838</ele>
        <time>2021-07-02T13:06:00Z</time>
      </trkpt>
      <trkpt lat="41.952023" lon="1.883573">
        <ele>387.42957</ele>
        <time>2021-07-02T13:06:01Z</time>
      </trkpt>
      <trkpt lat="41.951679" lon="1.883527">
        <ele>387.81116</ele>
        <time>2021-07-02T13:06:02Z</time>
      </trkpt>
      <trkpt lat="41.951305" lon="1.883475">
        <ele>387.80396</ele>
        <time>2021-07-02T13:06:03Z</time>
      </trkpt>
      <trkpt lat="41.950962" lon="1.883426">
        <ele>388.17480</ele>
        <time>2021-07-02T13:06:04Z</time>
      </trkpt>
      <trkpt lat="41.950623" lon="1.883362">
        <ele>390.21167</ele>
        <time>2021-07-02T13:06:05Z</time>
      </trkpt>
      <trkpt lat="41.950275" lon="1.883284">
        <ele>390.09546</ele>
        <time>2021-07-02T13:06:06Z</time>
      </trkpt>
      <trkpt lat="41.949921" lon="1.883199">
        <ele>389.79468</ele>
        <time>2021-07-02T13:06:07Z</time>
      </trkpt>
      <trkpt lat="41.949539" lon="1.883071">
        <ele>389.81183</ele>
        <time>2021-07-02T13:06:08Z</time>
      </trkpt>
      <trkpt lat="41.949387" lon="1.883018">
        <ele>390.93060</ele>
        <time>2021-07-02T13:06:09Z</time>
      </trkpt>
      <trkpt lat="41.949127" lon="1.882869">
        <ele>391.47278</ele>
        <time>2021-07-02T13:06:10Z</time>
      </trkpt>
      <trkpt lat="41.948956" lon="1.882268">
        <ele>391.97729</ele>
        <time>2021-07-02T13:06:11Z</time>
      </trkpt>
      <trkpt lat="41.948177" lon="1.882456">
        <ele>393.17920</ele>
        <time>2021-07-02T13:06:12Z</time>
      </trkpt>
      <trkpt lat="41.947865" lon="1.882247">
        <ele>392.86157</ele>
        <time>2021-07-02T13:06:13Z</time>
      </trkpt>
      <trkpt lat="41.947556" lon="1.881987">
        <ele>392.32257</ele>
        <time>2021-07-02T13:06:14Z</time>
      </trkpt>
      <trkpt lat="41.947281" lon="1.881717">
        <ele>392.89990</ele>
        <time>2021-07-02T13:06:15Z</time>
      </trkpt>
      <trkpt lat="41.947021" lon="1.881420">
        <ele>393.06873</ele>
        <time>2021-07-02T13:06:16Z</time>
      </trkpt>
      <trkpt lat="41.946770" lon="1.881073">
        <ele>392.88385</ele>
        <time>2021-07-02T13:06:17Z</time>
      </trkpt>
      <trkpt lat="41.946522" lon="1.880705">
        <ele>392.87122</ele>
        <time>2021-07-02T13:06:18Z</time>
      </trkpt>
      <trkpt lat="41.946293" lon="1.880360">
        <ele>393.07178</ele>
        <time>2021-07-02T13:06:19Z</time>
      </trkpt>
      <trkpt lat="41.946033" lon="1.879969">
        <ele>392.24426</ele>
        <time>2021-07-02T13:06:20Z</time>
      </trkpt>
      <trkpt lat="41.945786" lon="1.879609">
        <ele>393.21985</ele>
        <time>2021-07-02T13:06:21Z</time>
      </trkpt>
      <trkpt lat="41.945515" lon="1.879242">
        <ele>392.74023</ele>
        <time>2021-07-02T13:06:22Z</time>
      </trkpt>
      <trkpt lat="41.945248" lon="1.878923">
        <ele>392.49597</ele>
        <time>2021-07-02T13:06:23Z</time>
      </trkpt>
      <trkpt lat="41.945004" lon="1.878664">
        <ele>392.14441</ele>
        <time>2021-07-02T13:06:24Z</time>
      </trkpt>
      <trkpt lat="41.944710" lon="1.878404">
        <ele>392.87354</ele>
        <time>2021-07-02T13:06:25Z</time>
      </trkpt>
      <trkpt lat="41.944412" lon="1.878165">
        <ele>392.98242</ele>
        <time>2021-07-02T13:06:26Z</time>
      </trkpt>
      <trkpt lat="41.944115" lon="1.877968">
        <ele>394.20044</ele>
        <time>2021-07-02T13:06:27Z</time>
      </trkpt>
      <trkpt lat="41.943748" lon="1.877775">
        <ele>395.12915</ele>
        <time>2021-07-02T13:06:28Z</time>
      </trkpt>
      <trkpt lat="41.943443" lon="1.877643">
        <ele>395.90662</ele>
        <time>2021-07-02T13:06:29Z</time>
      </trkpt>
      <trkpt lat="41.943443" lon="1.877643">
        <ele>396.25940</ele>
        <time>2021-07-02T13:06:30Z</time>
      </trkpt>
      <trkpt lat="41.943073" lon="1.877524">
        <ele>396.32019</ele>
        <time>2021-07-02T13:06:31Z</time>
      </trkpt>
      <trkpt lat="41.942734" lon="1.877438">
        <ele>396.55017</ele>
        <time>2021-07-02T13:06:32Z</time>
      </trkpt>
      <trkpt lat="41.942364" lon="1.877356">
        <ele>396.54358</ele>
        <time>2021-07-02T13:06:33Z</time>
      </trkpt>
      <trkpt lat="41.941998" lon="1.877316">
        <ele>396.77124</ele>
        <time>2021-07-02T13:06:34Z</time>
      </trkpt>
      <trkpt lat="41.941666" lon="1.877296">
        <ele>396.79700</ele>
        <time>2021-07-02T13:06:35Z</time>
      </trkpt>
      <trkpt lat="41.941311" lon="1.877278">
        <ele>395.43536</ele>
        <time>2021-07-02T13:06:36Z</time>
      </trkpt>
      <trkpt lat="41.940964" lon="1.877280">
        <ele>395.20209</ele>
        <time>2021-07-02T13:06:37Z</time>
      </trkpt>
      <trkpt lat="41.940586" lon="1.877283">
        <ele>394.69934</ele>
        <time>2021-07-02T13:06:38Z</time>
      </trkpt>
      <trkpt lat="41.940224" lon="1.877264">
        <ele>394.36768</ele>
        <time>2021-07-02T13:06:39Z</time>
      </trkpt>
      <trkpt lat="41.939884" lon="1.877234">
        <ele>394.82300</ele>
        <time>2021-07-02T13:06:40Z</time>
      </trkpt>
      <trkpt lat="41.939507" lon="1.877174">
        <ele>394.36615</ele>
        <time>2021-07-02T13:06:41Z</time>
      </trkpt>
      <trkpt lat="41.939129" lon="1.877087">
        <ele>394.57880</ele>
        <time>2021-07-02T13:06:42Z</time>
      </trkpt>
      <trkpt lat="41.938782" lon="1.876982">
        <ele>395.35846</ele>
        <time>2021-07-02T13:06:43Z</time>
      </trkpt>
      <trkpt lat="41.938427" lon="1.876867">
        <ele>394.61322</ele>
        <time>2021-07-02T13:06:44Z</time>
      </trkpt>
      <trkpt lat="41.938080" lon="1.876755">
        <ele>394.04187</ele>
        <time>2021-07-02T13:06:45Z</time>
      </trkpt>
      <trkpt lat="41.937737" lon="1.876644">
        <ele>393.25793</ele>
        <time>2021-07-02T13:06:46Z</time>
      </trkpt>
      <trkpt lat="41.937366" lon="1.876524">
        <ele>392.25964</ele>
        <time>2021-07-02T13:06:47Z</time>
      </trkpt>
      <trkpt lat="41.936985" lon="1.876400">
        <ele>390.98694</ele>
        <time>2021-07-02T13:06:48Z</time>
      </trkpt>
      <trkpt lat="41.936638" lon="1.876295">
        <ele>390.05994</ele>
        <time>2021-07-02T13:06:49Z</time>
      </trkpt>
      <trkpt lat="41.936287" lon="1.876221">
        <ele>390.12756</ele>
        <time>2021-07-02T13:06:50Z</time>
      </trkpt>
      <trkpt lat="41.935944" lon="1.876181">
        <ele>391.04382</ele>
        <time>2021-07-02T13:06:51Z</time>
      </trkpt>
      <trkpt lat="41.935574" lon="1.876169">
        <ele>391.66895</ele>
        <time>2021-07-02T13:06:52Z</time>
      </trkpt>
      <trkpt lat="41.935215" lon="1.876183">
        <ele>392.30664</ele>
        <time>2021-07-02T13:06:53Z</time>
      </trkpt>
      <trkpt lat="41.934834" lon="1.876259">
        <ele>391.69751</ele>
        <time>2021-07-02T13:06:54Z</time>
      </trkpt>
      <trkpt lat="41.934471" lon="1.876352">
        <ele>393.40112</ele>
        <time>2021-07-02T13:06:55Z</time>
      </trkpt>
      <trkpt lat="41.934135" lon="1.876460">
        <ele>392.69080</ele>
        <time>2021-07-02T13:06:56Z</time>
      </trkpt>
      <trkpt lat="41.933784" lon="1.876573">
        <ele>391.92615</ele>
        <time>2021-07-02T13:06:57Z</time>
      </trkpt>
      <trkpt lat="41.933441" lon="1.876683">
        <ele>390.58093</ele>
        <time>2021-07-02T13:06:58Z</time>
      </trkpt>
      <trkpt lat="41.933441" lon="1.876683">
        <ele>390.85852</ele>
        <time>2021-07-02T13:06:59Z</time>
      </trkpt>
      <trkpt lat="41.933125" lon="1.876782">
        <ele>389.71753</ele>
        <time>2021-07-02T13:07:00Z</time>
      </trkpt>
      <trkpt lat="41.932766" lon="1.876893">
        <ele>388.22778</ele>
        <time>2021-07-02T13:07:01Z</time>
      </trkpt>
      <trkpt lat="41.932407" lon="1.877002">
        <ele>387.64941</ele>
        <time>2021-07-02T13:07:02Z</time>
      </trkpt>
      <trkpt lat="41.932053" lon="1.877112">
        <ele>386.65344</ele>
        <time>2021-07-02T13:07:03Z</time>
      </trkpt>
      <trkpt lat="41.931690" lon="1.877218">
        <ele>387.40045</ele>
        <time>2021-07-02T13:07:04Z</time>
      </trkpt>
      <trkpt lat="41.931320" lon="1.877323">
        <ele>387.30554</ele>
        <time>2021-07-02T13:07:05Z</time>
      </trkpt>
      <trkpt lat="41.930984" lon="1.877419">
        <ele>387.04492</ele>
        <time>2021-07-02T13:07:06Z</time>
      </trkpt>
      <trkpt lat="41.930649" lon="1.877514">
        <ele>388.12366</ele>
        <time>2021-07-02T13:07:07Z</time>
      </trkpt>
      <trkpt lat="41.930294" lon="1.877615">
        <ele>388.53955</ele>
        <time>2021-07-02T13:07:08Z</time>
      </trkpt>
      <trkpt lat="41.929947" lon="1.877715">
        <ele>390.28357</ele>
        <time>2021-07-02T13:07:09Z</time>
      </trkpt>
      <trkpt lat="41.929596" lon="1.877814">
        <ele>391.88416</ele>
        <time>2021-07-02T13:07:10Z</time>
      </trkpt>
      <trkpt lat="41.929226" lon="1.877920">
        <ele>392.65625</ele>
        <time>2021-07-02T13:07:11Z</time>
      </trkpt>
      <trkpt lat="41.928890" lon="1.878024">
        <ele>392.55579</ele>
        <time>2021-07-02T13:07:12Z</time>
      </trkpt>
      <trkpt lat="41.928551" lon="1.878171">
        <ele>392.16089</ele>
        <time>2021-07-02T13:07:13Z</time>
      </trkpt>
      <trkpt lat="41.928192" lon="1.878370">
        <ele>392.85596</ele>
        <time>2021-07-02T13:07:14Z</time>
      </trkpt>
      <trkpt lat="41.927856" lon="1.878587">
        <ele>393.40247</ele>
        <time>2021-07-02T13:07:15Z</time>
      </trkpt>
      <trkpt lat="41.927517" lon="1.878852">
        <ele>393.31384</ele>
        <time>2021-07-02T13:07:16Z</time>
      </trkpt>
      <trkpt lat="41.927208" lon="1.879115">
        <ele>392.19482</ele>
        <time>2021-07-02T13:07:17Z</time>
      </trkpt>
      <trkpt lat="41.926891" lon="1.879375">
        <ele>392.24463</ele>
        <time>2021-07-02T13:07:18Z</time>
      </trkpt>
      <trkpt lat="41.926586" lon="1.879611">
        <ele>391.23273</ele>
        <time>2021-07-02T13:07:19Z</time>
      </trkpt>
      <trkpt lat="41.926258" lon="1.879864">
        <ele>392.41980</ele>
        <time>2021-07-02T13:07:20Z</time>
      </trkpt>
      <trkpt lat="41.925919" lon="1.880096">
        <ele>392.60889</ele>
        <time>2021-07-02T13:07:21Z</time>
      </trkpt>
      <trkpt lat="41.925617" lon="1.880300">
        <ele>392.17352</ele>
        <time>2021-07-02T13:07:22Z</time>
      </trkpt>
      <trkpt lat="41.925278" lon="1.880531">
        <ele>392.39514</ele>
        <time>2021-07-02T13:07:23Z</time>
      </trkpt>
      <trkpt lat="41.924969" lon="1.880743">
        <ele>391.64087</ele>
        <time>2021-07-02T13:07:24Z</time>
      </trkpt>
      <trkpt lat="41.924969" lon="1.880743">
        <ele>390.44873</ele>
        <time>2021-07-02T13:07:25Z</time>
      </trkpt>
      <trkpt lat="41.924633" lon="1.880962">
        <ele>389.41504</ele>
        <time>2021-07-02T13:07:26Z</time>
      </trkpt>
      <trkpt lat="41.924309" lon="1.881151">
        <ele>387.32153</ele>
        <time>2021-07-02T13:07:27Z</time>
      </trkpt>
      <trkpt lat="41.923950" lon="1.881353">
        <ele>384.41248</ele>
        <time>2021-07-02T13:07:28Z</time>
      </trkpt>
      <trkpt lat="41.923588" lon="1.881545">
        <ele>381.45801</ele>
        <time>2021-07-02T13:07:29Z</time>
      </trkpt>
      <trkpt lat="41.923267" lon="1.881725">
        <ele>378.96381</ele>
        <time>2021-07-02T13:07:30Z</time>
      </trkpt>
      <trkpt lat="41.922947" lon="1.881943">
        <ele>375.80835</ele>
        <time>2021-07-02T13:07:31Z</time>
      </trkpt>
      <trkpt lat="41.922623" lon="1.882213">
        <ele>373.80750</ele>
        <time>2021-07-02T13:07:32Z</time>
      </trkpt>
      <trkpt lat="41.922329" lon="1.882517">
        <ele>372.53113</ele>
        <time>2021-07-02T13:07:33Z</time>
      </trkpt>
      <trkpt lat="41.922047" lon="1.882854">
        <ele>370.26575</ele>
        <time>2021-07-02T13:07:34Z</time>
      </trkpt>
      <trkpt lat="41.921944" lon="1.882985">
        <ele>368.48987</ele>
        <time>2021-07-02T13:07:35Z</time>
      </trkpt>
      <trkpt lat="41.921577" lon="1.883355">
        <ele>367.02588</ele>
        <time>2021-07-02T13:07:36Z</time>
      </trkpt>
      <trkpt lat="41.921215" lon="1.883732">
        <ele>365.77148</ele>
        <time>2021-07-02T13:07:37Z</time>
      </trkpt>
      <trkpt lat="41.920910" lon="1.883957">
        <ele>364.57153</ele>
        <time>2021-07-02T13:07:38Z</time>
      </trkpt>
      <trkpt lat="41.920650" lon="1.884298">
        <ele>364.35211</ele>
        <time>2021-07-02T13:07:39Z</time>
      </trkpt>
      <trkpt lat="41.920303" lon="1.884490">
        <ele>363.94531</ele>
        <time>2021-07-02T13:07:40Z</time>
      </trkpt>
      <trkpt lat="41.920002" lon="1.884603">
        <ele>363.39795</ele>
        <time>2021-07-02T13:07:41Z</time>
      </trkpt>
      <trkpt lat="41.919643" lon="1.884701">
        <ele>362.38477</ele>
        <time>2021-07-02T13:07:42Z</time>
      </trkpt>
      <trkpt lat="41.919243" lon="1.884744">
        <ele>362.07068</ele>
        <time>2021-07-02T13:07:43Z</time>
      </trkpt>
      <trkpt lat="41.918911" lon="1.884733">
        <ele>361.40125</ele>
        <time>2021-07-02T13:07:44Z</time>
      </trkpt>
      <trkpt lat="41.918587" lon="1.884686">
        <ele>360.87488</ele>
        <time>2021-07-02T13:07:45Z</time>
      </trkpt>
      <trkpt lat="41.918247" lon="1.884586">
        <ele>361.05402</ele>
        <time>2021-07-02T13:07:46Z</time>
      </trkpt>
      <trkpt lat="41.917915" lon="1.884454">
        <ele>360.82446</ele>
        <time>2021-07-02T13:07:47Z</time>
      </trkpt>
      <trkpt lat="41.917606" lon="1.884285">
        <ele>360.84796</ele>
        <time>2021-07-02T13:07:48Z</time>
      </trkpt>
      <trkpt lat="41.917606" lon="1.884285">
        <ele>361.08301</ele>
        <time>2021-07-02T13:07:49Z</time>
      </trkpt>
      <trkpt lat="41.917057" lon="1.883848">
        <ele>362.08167</ele>
        <time>2021-07-02T13:07:50Z</time>
      </trkpt>
      <trkpt lat="41.917057" lon="1.883848">
        <ele>362.19696</ele>
        <time>2021-07-02T13:07:51Z</time>
      </trkpt>
      <trkpt lat="41.916782" lon="1.883568">
        <ele>361.98181</ele>
        <time>2021-07-02T13:07:52Z</time>
      </trkpt>
      <trkpt lat="41.916519" lon="1.883265">
        <ele>362.19519</ele>
        <time>2021-07-02T13:07:53Z</time>
      </trkpt>
      <trkpt lat="41.916275" lon="1.882952">
        <ele>362.31641</ele>
        <time>2021-07-02T13:07:54Z</time>
      </trkpt>
      <trkpt lat="41.915981" lon="1.882633">
        <ele>363.82910</ele>
        <time>2021-07-02T13:07:55Z</time>
      </trkpt>
      <trkpt lat="41.915707" lon="1.882369">
        <ele>364.42828</ele>
        <time>2021-07-02T13:07:56Z</time>
      </trkpt>
      <trkpt lat="41.915409" lon="1.882134">
        <ele>365.60876</ele>
        <time>2021-07-02T13:07:57Z</time>
      </trkpt>
      <trkpt lat="41.915092" lon="1.881930">
        <ele>366.69580</ele>
        <time>2021-07-02T13:07:58Z</time>
      </trkpt>
      <trkpt lat="41.914757" lon="1.881761">
        <ele>366.44550</ele>
        <time>2021-07-02T13:07:59Z</time>
      </trkpt>
      <trkpt lat="41.914425" lon="1.881634">
        <ele>366.54407</ele>
        <time>2021-07-02T13:08:00Z</time>
      </trkpt>
      <trkpt lat="41.914082" lon="1.881541">
        <ele>367.38953</ele>
        <time>2021-07-02T13:08:01Z</time>
      </trkpt>
      <trkpt lat="41.913708" lon="1.881488">
        <ele>368.23889</ele>
        <time>2021-07-02T13:08:02Z</time>
      </trkpt>
      <trkpt lat="41.913342" lon="1.881478">
        <ele>368.50513</ele>
        <time>2021-07-02T13:08:03Z</time>
      </trkpt>
      <trkpt lat="41.912987" lon="1.881489">
        <ele>368.63806</ele>
        <time>2021-07-02T13:08:04Z</time>
      </trkpt>
      <trkpt lat="41.912624" lon="1.881499">
        <ele>368.49841</ele>
        <time>2021-07-02T13:08:05Z</time>
      </trkpt>
      <trkpt lat="41.912247" lon="1.881493">
        <ele>369.51318</ele>
        <time>2021-07-02T13:08:06Z</time>
      </trkpt>
      <trkpt lat="41.911888" lon="1.881461">
        <ele>368.99786</ele>
        <time>2021-07-02T13:08:07Z</time>
      </trkpt>
      <trkpt lat="41.911526" lon="1.881408">
        <ele>369.02533</ele>
        <time>2021-07-02T13:08:08Z</time>
      </trkpt>
      <trkpt lat="41.911167" lon="1.881332">
        <ele>369.36078</ele>
        <time>2021-07-02T13:08:09Z</time>
      </trkpt>
      <trkpt lat="41.910824" lon="1.881221">
        <ele>369.65747</ele>
        <time>2021-07-02T13:08:10Z</time>
      </trkpt>
      <trkpt lat="41.910507" lon="1.881095">
        <ele>370.14001</ele>
        <time>2021-07-02T13:08:11Z</time>
      </trkpt>
      <trkpt lat="41.910149" lon="1.880927">
        <ele>370.47437</ele>
        <time>2021-07-02T13:08:12Z</time>
      </trkpt>
      <trkpt lat="41.909809" lon="1.880728">
        <ele>370.08734</ele>
        <time>2021-07-02T13:08:13Z</time>
      </trkpt>
      <trkpt lat="41.909504" lon="1.880530">
        <ele>370.27570</ele>
        <time>2021-07-02T13:08:14Z</time>
      </trkpt>
      <trkpt lat="41.909180" lon="1.880287">
        <ele>370.17053</ele>
        <time>2021-07-02T13:08:15Z</time>
      </trkpt>
      <trkpt lat="41.908878" lon="1.880023">
        <ele>370.19031</ele>
        <time>2021-07-02T13:08:16Z</time>
      </trkpt>
      <trkpt lat="41.908592" lon="1.879740">
        <ele>370.58966</ele>
        <time>2021-07-02T13:08:17Z</time>
      </trkpt>
      <trkpt lat="41.908306" lon="1.879438">
        <ele>371.05579</ele>
        <time>2021-07-02T13:08:18Z</time>
      </trkpt>
      <trkpt lat="41.908047" lon="1.879140">
        <ele>371.21265</ele>
        <time>2021-07-02T13:08:19Z</time>
      </trkpt>
      <trkpt lat="41.907784" lon="1.878831">
        <ele>372.16351</ele>
        <time>2021-07-02T13:08:20Z</time>
      </trkpt>
      <trkpt lat="41.907513" lon="1.878517">
        <ele>373.74530</ele>
        <time>2021-07-02T13:08:21Z</time>
      </trkpt>
      <trkpt lat="41.907242" lon="1.878202">
        <ele>375.23871</ele>
        <time>2021-07-02T13:08:22Z</time>
      </trkpt>
      <trkpt lat="41.906971" lon="1.877887">
        <ele>376.64417</ele>
        <time>2021-07-02T13:08:23Z</time>
      </trkpt>
      <trkpt lat="41.906715" lon="1.877590">
        <ele>377.59845</ele>
        <time>2021-07-02T13:08:24Z</time>
      </trkpt>
      <trkpt lat="41.906437" lon="1.877263">
        <ele>378.08289</ele>
        <time>2021-07-02T13:08:25Z</time>
      </trkpt>
      <trkpt lat="41.906158" lon="1.876937">
        <ele>379.16364</ele>
        <time>2021-07-02T13:08:26Z</time>
      </trkpt>
      <trkpt lat="41.906158" lon="1.876937">
        <ele>381.57977</ele>
        <time>2021-07-02T13:08:27Z</time>
      </trkpt>
      <trkpt lat="41.905907" lon="1.876632">
        <ele>382.17676</ele>
        <time>2021-07-02T13:08:28Z</time>
      </trkpt>
      <trkpt lat="41.905647" lon="1.876297">
        <ele>384.27820</ele>
        <time>2021-07-02T13:08:29Z</time>
      </trkpt>
      <trkpt lat="41.905384" lon="1.875961">
        <ele>385.01685</ele>
        <time>2021-07-02T13:08:30Z</time>
      </trkpt>
      <trkpt lat="41.905132" lon="1.875615">
        <ele>385.95679</ele>
        <time>2021-07-02T13:08:31Z</time>
      </trkpt>
      <trkpt lat="41.904877" lon="1.875262">
        <ele>387.79749</ele>
        <time>2021-07-02T13:08:32Z</time>
      </trkpt>
      <trkpt lat="41.904625" lon="1.874910">
        <ele>387.49329</ele>
        <time>2021-07-02T13:08:33Z</time>
      </trkpt>
      <trkpt lat="41.904388" lon="1.874572">
        <ele>386.93341</ele>
        <time>2021-07-02T13:08:34Z</time>
      </trkpt>
      <trkpt lat="41.904140" lon="1.874217">
        <ele>386.90125</ele>
        <time>2021-07-02T13:08:35Z</time>
      </trkpt>
      <trkpt lat="41.904053" lon="1.874094">
        <ele>386.46832</ele>
        <time>2021-07-02T13:08:36Z</time>
      </trkpt>
      <trkpt lat="41.903851" lon="1.873732">
        <ele>387.27966</ele>
        <time>2021-07-02T13:08:37Z</time>
      </trkpt>
      <trkpt lat="41.903458" lon="1.873084">
        <ele>387.34802</ele>
        <time>2021-07-02T13:08:38Z</time>
      </trkpt>
      <trkpt lat="41.903233" lon="1.872705">
        <ele>388.59631</ele>
        <time>2021-07-02T13:08:39Z</time>
      </trkpt>
      <trkpt lat="41.903023" lon="1.872328">
        <ele>388.65967</ele>
        <time>2021-07-02T13:08:40Z</time>
      </trkpt>
      <trkpt lat="41.902630" lon="1.872122">
        <ele>389.05579</ele>
        <time>2021-07-02T13:08:41Z</time>
      </trkpt>
      <trkpt lat="41.902374" lon="1.871774">
        <ele>389.53870</ele>
        <time>2021-07-02T13:08:42Z</time>
      </trkpt>
      <trkpt lat="41.902130" lon="1.871434">
        <ele>389.67725</ele>
        <time>2021-07-02T13:08:43Z</time>
      </trkpt>
      <trkpt lat="41.901878" lon="1.871096">
        <ele>391.12238</ele>
        <time>2021-07-02T13:08:44Z</time>
      </trkpt>
      <trkpt lat="41.901596" lon="1.870733">
        <ele>391.19385</ele>
        <time>2021-07-02T13:08:45Z</time>
      </trkpt>
      <trkpt lat="41.901321" lon="1.870432">
        <ele>390.27600</ele>
        <time>2021-07-02T13:08:46Z</time>
      </trkpt>
      <trkpt lat="41.901024" lon="1.870137">
        <ele>390.13037</ele>
        <time>2021-07-02T13:08:47Z</time>
      </trkpt>
      <trkpt lat="41.900677" lon="1.869864">
        <ele>389.92810</ele>
        <time>2021-07-02T13:08:48Z</time>
      </trkpt>
      <trkpt lat="41.900341" lon="1.869651">
        <ele>389.02185</ele>
        <time>2021-07-02T13:08:49Z</time>
      </trkpt>
      <trkpt lat="41.900005" lon="1.869491">
        <ele>388.19006</ele>
        <time>2021-07-02T13:08:50Z</time>
      </trkpt>
      <trkpt lat="41.899696" lon="1.869380">
        <ele>387.80432</ele>
        <time>2021-07-02T13:08:51Z</time>
      </trkpt>
      <trkpt lat="41.899342" lon="1.869284">
        <ele>386.92407</ele>
        <time>2021-07-02T13:08:52Z</time>
      </trkpt>
      <trkpt lat="41.899342" lon="1.869284">
        <ele>385.50061</ele>
        <time>2021-07-02T13:08:53Z</time>
      </trkpt>
      <trkpt lat="41.898949" lon="1.869236">
        <ele>384.91736</ele>
        <time>2021-07-02T13:08:54Z</time>
      </trkpt>
      <trkpt lat="41.898613" lon="1.869239">
        <ele>383.22552</ele>
        <time>2021-07-02T13:08:55Z</time>
      </trkpt>
      <trkpt lat="41.898258" lon="1.869282">
        <ele>382.22839</ele>
        <time>2021-07-02T13:08:56Z</time>
      </trkpt>
      <trkpt lat="41.897911" lon="1.869357">
        <ele>381.70569</ele>
        <time>2021-07-02T13:08:57Z</time>
      </trkpt>
      <trkpt lat="41.897560" lon="1.869478">
        <ele>381.46814</ele>
        <time>2021-07-02T13:08:58Z</time>
      </trkpt>
      <trkpt lat="41.897247" lon="1.869630">
        <ele>380.39386</ele>
        <time>2021-07-02T13:08:59Z</time>
      </trkpt>
      <trkpt lat="41.896919" lon="1.869810">
        <ele>379.87964</ele>
        <time>2021-07-02T13:09:00Z</time>
      </trkpt>
      <trkpt lat="41.896591" lon="1.870002">
        <ele>380.01404</ele>
        <time>2021-07-02T13:09:01Z</time>
      </trkpt>
      <trkpt lat="41.896263" lon="1.870192">
        <ele>380.21594</ele>
        <time>2021-07-02T13:09:02Z</time>
      </trkpt>
      <trkpt lat="41.895939" lon="1.870380">
        <ele>379.47559</ele>
        <time>2021-07-02T13:09:03Z</time>
      </trkpt>
      <trkpt lat="41.895615" lon="1.870568">
        <ele>379.66028</ele>
        <time>2021-07-02T13:09:04Z</time>
      </trkpt>
      <trkpt lat="41.895275" lon="1.870757">
        <ele>380.22394</ele>
        <time>2021-07-02T13:09:05Z</time>
      </trkpt>
      <trkpt lat="41.894943" lon="1.870954">
        <ele>381.69702</ele>
        <time>2021-07-02T13:09:06Z</time>
      </trkpt>
      <trkpt lat="41.894600" lon="1.871158">
        <ele>381.97864</ele>
        <time>2021-07-02T13:09:07Z</time>
      </trkpt>
      <trkpt lat="41.894272" lon="1.871356">
        <ele>381.94250</ele>
        <time>2021-07-02T13:09:08Z</time>
      </trkpt>
      <trkpt lat="41.893948" lon="1.871547">
        <ele>382.82190</ele>
        <time>2021-07-02T13:09:09Z</time>
      </trkpt>
      <trkpt lat="41.893635" lon="1.871738">
        <ele>382.98828</ele>
        <time>2021-07-02T13:09:10Z</time>
      </trkpt>
      <trkpt lat="41.893288" lon="1.871947">
        <ele>383.16333</ele>
        <time>2021-07-02T13:09:11Z</time>
      </trkpt>
      <trkpt lat="41.892975" lon="1.872144">
        <ele>383.82867</ele>
        <time>2021-07-02T13:09:12Z</time>
      </trkpt>
      <trkpt lat="41.892654" lon="1.872365">
        <ele>383.82544</ele>
        <time>2021-07-02T13:09:13Z</time>
      </trkpt>
      <trkpt lat="41.892311" lon="1.872608">
        <ele>384.52869</ele>
        <time>2021-07-02T13:09:14Z</time>
      </trkpt>
      <trkpt lat="41.891998" lon="1.872854">
        <ele>384.45013</ele>
        <time>2021-07-02T13:09:15Z</time>
      </trkpt>
      <trkpt lat="41.891701" lon="1.873090">
        <ele>385.07312</ele>
        <time>2021-07-02T13:09:16Z</time>
      </trkpt>
      <trkpt lat="41.891396" lon="1.873349">
        <ele>385.61969</ele>
        <time>2021-07-02T13:09:17Z</time>
      </trkpt>
      <trkpt lat="41.891098" lon="1.873601">
        <ele>386.05585</ele>
        <time>2021-07-02T13:09:18Z</time>
      </trkpt>
      <trkpt lat="41.890785" lon="1.873870">
        <ele>386.37793</ele>
        <time>2021-07-02T13:09:19Z</time>
      </trkpt>
      <trkpt lat="41.890621" lon="1.874013">
        <ele>387.51501</ele>
        <time>2021-07-02T13:09:20Z</time>
      </trkpt>
      <trkpt lat="41.890587" lon="1.874033">
        <ele>387.00623</ele>
        <time>2021-07-02T13:09:21Z</time>
      </trkpt>
      <trkpt lat="41.889885" lon="1.874580">
        <ele>386.45361</ele>
        <time>2021-07-02T13:09:22Z</time>
      </trkpt>
      <trkpt lat="41.889885" lon="1.874580">
        <ele>385.82898</ele>
        <time>2021-07-02T13:09:23Z</time>
      </trkpt>
      <trkpt lat="41.889538" lon="1.874839">
        <ele>384.91296</ele>
        <time>2021-07-02T13:09:24Z</time>
      </trkpt>
      <trkpt lat="41.889210" lon="1.875041">
        <ele>384.43835</ele>
        <time>2021-07-02T13:09:25Z</time>
      </trkpt>
      <trkpt lat="41.888947" lon="1.875490">
        <ele>383.94019</ele>
        <time>2021-07-02T13:09:26Z</time>
      </trkpt>
      <trkpt lat="41.888603" lon="1.875759">
        <ele>384.08759</ele>
        <time>2021-07-02T13:09:27Z</time>
      </trkpt>
      <trkpt lat="41.888241" lon="1.876016">
        <ele>383.39514</ele>
        <time>2021-07-02T13:09:28Z</time>
      </trkpt>
      <trkpt lat="41.887917" lon="1.876208">
        <ele>383.07178</ele>
        <time>2021-07-02T13:09:29Z</time>
      </trkpt>
      <trkpt lat="41.887566" lon="1.876397">
        <ele>380.55402</ele>
        <time>2021-07-02T13:09:30Z</time>
      </trkpt>
      <trkpt lat="41.887363" lon="1.876490">
        <ele>379.04565</ele>
        <time>2021-07-02T13:09:31Z</time>
      </trkpt>
      <trkpt lat="41.886951" lon="1.876635">
        <ele>377.83386</ele>
        <time>2021-07-02T13:09:32Z</time>
      </trkpt>
      <trkpt lat="41.886559" lon="1.876751">
        <ele>376.74792</ele>
        <time>2021-07-02T13:09:33Z</time>
      </trkpt>
      <trkpt lat="41.886196" lon="1.876810">
        <ele>375.52588</ele>
        <time>2021-07-02T13:09:34Z</time>
      </trkpt>
      <trkpt lat="41.885838" lon="1.876821">
        <ele>374.98065</ele>
        <time>2021-07-02T13:09:35Z</time>
      </trkpt>
      <trkpt lat="41.885487" lon="1.876799">
        <ele>374.49646</ele>
        <time>2021-07-02T13:09:36Z</time>
      </trkpt>
      <trkpt lat="41.885101" lon="1.876742">
        <ele>374.22058</ele>
        <time>2021-07-02T13:09:37Z</time>
      </trkpt>
      <trkpt lat="41.884750" lon="1.876647">
        <ele>373.67456</ele>
        <time>2021-07-02T13:09:38Z</time>
      </trkpt>
      <trkpt lat="41.884396" lon="1.876519">
        <ele>373.50067</ele>
        <time>2021-07-02T13:09:39Z</time>
      </trkpt>
      <trkpt lat="41.884041" lon="1.876406">
        <ele>373.82043</ele>
        <time>2021-07-02T13:09:40Z</time>
      </trkpt>
      <trkpt lat="41.883724" lon="1.876331">
        <ele>374.20251</ele>
        <time>2021-07-02T13:09:41Z</time>
      </trkpt>
      <trkpt lat="41.883385" lon="1.876277">
        <ele>373.61292</ele>
        <time>2021-07-02T13:09:42Z</time>
      </trkpt>
      <trkpt lat="41.882996" lon="1.876255">
        <ele>372.12915</ele>
        <time>2021-07-02T13:09:43Z</time>
      </trkpt>
      <trkpt lat="41.882633" lon="1.876287">
        <ele>372.24194</ele>
        <time>2021-07-02T13:09:44Z</time>
      </trkpt>
      <trkpt lat="41.882298" lon="1.876357">
        <ele>371.07281</ele>
        <time>2021-07-02T13:09:45Z</time>
      </trkpt>
      <trkpt lat="41.881935" lon="1.876477">
        <ele>368.16479</ele>
        <time>2021-07-02T13:09:46Z</time>
      </trkpt>
      <trkpt lat="41.881584" lon="1.876612">
        <ele>366.22729</ele>
        <time>2021-07-02T13:09:47Z</time>
      </trkpt>
      <trkpt lat="41.881241" lon="1.876778">
        <ele>364.42090</ele>
        <time>2021-07-02T13:09:48Z</time>
      </trkpt>
      <trkpt lat="41.880890" lon="1.876933">
        <ele>363.87793</ele>
        <time>2021-07-02T13:09:49Z</time>
      </trkpt>
      <trkpt lat="41.880527" lon="1.877065">
        <ele>361.97192</ele>
        <time>2021-07-02T13:09:50Z</time>
      </trkpt>
      <trkpt lat="41.880527" lon="1.877065">
        <ele>360.43555</ele>
        <time>2021-07-02T13:09:51Z</time>
      </trkpt>
      <trkpt lat="41.880199" lon="1.877131">
        <ele>358.33875</ele>
        <time>2021-07-02T13:09:52Z</time>
      </trkpt>
      <trkpt lat="41.879833" lon="1.877160">
        <ele>356.57068</ele>
        <time>2021-07-02T13:09:53Z</time>
      </trkpt>
      <trkpt lat="41.879459" lon="1.877160">
        <ele>355.23657</ele>
        <time>2021-07-02T13:09:54Z</time>
      </trkpt>
      <trkpt lat="41.879105" lon="1.877104">
        <ele>353.71613</ele>
        <time>2021-07-02T13:09:55Z</time>
      </trkpt>
      <trkpt lat="41.878754" lon="1.877005">
        <ele>352.25024</ele>
        <time>2021-07-02T13:09:56Z</time>
      </trkpt>
      <trkpt lat="41.878422" lon="1.876868">
        <ele>350.43768</ele>
        <time>2021-07-02T13:09:57Z</time>
      </trkpt>
      <trkpt lat="41.878105" lon="1.876715">
        <ele>349.13971</ele>
        <time>2021-07-02T13:09:58Z</time>
      </trkpt>
      <trkpt lat="41.877785" lon="1.876536">
        <ele>348.58795</ele>
        <time>2021-07-02T13:09:59Z</time>
      </trkpt>
      <trkpt lat="41.877453" lon="1.876353">
        <ele>347.58612</ele>
        <time>2021-07-02T13:10:00Z</time>
      </trkpt>
      <trkpt lat="41.877125" lon="1.876196">
        <ele>346.92334</ele>
        <time>2021-07-02T13:10:01Z</time>
      </trkpt>
      <trkpt lat="41.876778" lon="1.876092">
        <ele>344.94043</ele>
        <time>2021-07-02T13:10:02Z</time>
      </trkpt>
      <trkpt lat="41.876434" lon="1.876005">
        <ele>342.98846</ele>
        <time>2021-07-02T13:10:03Z</time>
      </trkpt>
      <trkpt lat="41.876099" lon="1.875969">
        <ele>342.42041</ele>
        <time>2021-07-02T13:10:04Z</time>
      </trkpt>
      <trkpt lat="41.875732" lon="1.875964">
        <ele>342.88568</ele>
        <time>2021-07-02T13:10:05Z</time>
      </trkpt>
      <trkpt lat="41.875359" lon="1.876013">
        <ele>342.38879</ele>
        <time>2021-07-02T13:10:06Z</time>
      </trkpt>
      <trkpt lat="41.875042" lon="1.876087">
        <ele>341.82532</ele>
        <time>2021-07-02T13:10:07Z</time>
      </trkpt>
      <trkpt lat="41.875042" lon="1.876087">
        <ele>341.07465</ele>
        <time>2021-07-02T13:10:08Z</time>
      </trkpt>
      <trkpt lat="41.874374" lon="1.876164">
        <ele>339.47925</ele>
        <time>2021-07-02T13:10:09Z</time>
      </trkpt>
      <trkpt lat="41.873913" lon="1.876222">
        <ele>338.53772</ele>
        <time>2021-07-02T13:10:10Z</time>
      </trkpt>
      <trkpt lat="41.873543" lon="1.876439">
        <ele>337.93506</ele>
        <time>2021-07-02T13:10:11Z</time>
      </trkpt>
      <trkpt lat="41.873188" lon="1.876428">
        <ele>336.50897</ele>
        <time>2021-07-02T13:10:12Z</time>
      </trkpt>
      <trkpt lat="41.872833" lon="1.876374">
        <ele>334.98450</ele>
        <time>2021-07-02T13:10:13Z</time>
      </trkpt>
      <trkpt lat="41.872471" lon="1.876289">
        <ele>333.99023</ele>
        <time>2021-07-02T13:10:14Z</time>
      </trkpt>
      <trkpt lat="41.872116" lon="1.876155">
        <ele>333.65973</ele>
        <time>2021-07-02T13:10:15Z</time>
      </trkpt>
      <trkpt lat="41.872116" lon="1.876155">
        <ele>332.61096</ele>
        <time>2021-07-02T13:10:16Z</time>
      </trkpt>
      <trkpt lat="41.871746" lon="1.875958">
        <ele>332.93152</ele>
        <time>2021-07-02T13:10:17Z</time>
      </trkpt>
      <trkpt lat="41.871422" lon="1.875730">
        <ele>332.51044</ele>
        <time>2021-07-02T13:10:18Z</time>
      </trkpt>
      <trkpt lat="41.871117" lon="1.875491">
        <ele>332.65521</ele>
        <time>2021-07-02T13:10:19Z</time>
      </trkpt>
      <trkpt lat="41.870865" lon="1.875259">
        <ele>334.61108</ele>
        <time>2021-07-02T13:10:20Z</time>
      </trkpt>
      <trkpt lat="41.870567" lon="1.874983">
        <ele>334.77118</ele>
        <time>2021-07-02T13:10:21Z</time>
      </trkpt>
      <trkpt lat="41.870258" lon="1.874705">
        <ele>337.00244</ele>
        <time>2021-07-02T13:10:22Z</time>
      </trkpt>
      <trkpt lat="41.869968" lon="1.874469">
        <ele>335.92505</ele>
        <time>2021-07-02T13:10:23Z</time>
      </trkpt>
      <trkpt lat="41.869659" lon="1.874239">
        <ele>337.01575</ele>
        <time>2021-07-02T13:10:24Z</time>
      </trkpt>
      <trkpt lat="41.869343" lon="1.874017">
        <ele>337.42188</ele>
        <time>2021-07-02T13:10:25Z</time>
      </trkpt>
      <trkpt lat="41.869053" lon="1.873819">
        <ele>337.80865</ele>
        <time>2021-07-02T13:10:26Z</time>
      </trkpt>
      <trkpt lat="41.868729" lon="1.873598">
        <ele>340.05591</ele>
        <time>2021-07-02T13:10:27Z</time>
      </trkpt>
      <trkpt lat="41.868412" lon="1.873380">
        <ele>342.20160</ele>
        <time>2021-07-02T13:10:28Z</time>
      </trkpt>
      <trkpt lat="41.868092" lon="1.873156">
        <ele>344.09131</ele>
        <time>2021-07-02T13:10:29Z</time>
      </trkpt>
      <trkpt lat="41.867760" lon="1.872929">
        <ele>345.77881</ele>
        <time>2021-07-02T13:10:30Z</time>
      </trkpt>
      <trkpt lat="41.867451" lon="1.872719">
        <ele>347.46838</ele>
        <time>2021-07-02T13:10:31Z</time>
      </trkpt>
      <trkpt lat="41.867161" lon="1.872519">
        <ele>348.68481</ele>
        <time>2021-07-02T13:10:32Z</time>
      </trkpt>
      <trkpt lat="41.866852" lon="1.872309">
        <ele>349.69727</ele>
        <time>2021-07-02T13:10:33Z</time>
      </trkpt>
      <trkpt lat="41.866596" lon="1.872134">
        <ele>350.19141</ele>
        <time>2021-07-02T13:10:34Z</time>
      </trkpt>
      <trkpt lat="41.866329" lon="1.871953">
        <ele>350.30908</ele>
        <time>2021-07-02T13:10:35Z</time>
      </trkpt>
      <trkpt lat="41.866066" lon="1.871772">
        <ele>350.72937</ele>
        <time>2021-07-02T13:10:36Z</time>
      </trkpt>
      <trkpt lat="41.865795" lon="1.871592">
        <ele>350.89929</ele>
        <time>2021-07-02T13:10:37Z</time>
      </trkpt>
      <trkpt lat="41.865536" lon="1.871423">
        <ele>350.58252</ele>
        <time>2021-07-02T13:10:38Z</time>
      </trkpt>
      <trkpt lat="41.865273" lon="1.871272">
        <ele>350.31177</ele>
        <time>2021-07-02T13:10:39Z</time>
      </trkpt>
      <trkpt lat="41.865013" lon="1.871127">
        <ele>349.79370</ele>
        <time>2021-07-02T13:10:40Z</time>
      </trkpt>
      <trkpt lat="41.864716" lon="1.870985">
        <ele>348.93677</ele>
        <time>2021-07-02T13:10:41Z</time>
      </trkpt>
      <trkpt lat="41.864395" lon="1.870854">
        <ele>347.47156</ele>
        <time>2021-07-02T13:10:42Z</time>
      </trkpt>
      <trkpt lat="41.864113" lon="1.870759">
        <ele>346.62616</ele>
        <time>2021-07-02T13:10:43Z</time>
      </trkpt>
      <trkpt lat="41.863804" lon="1.870673">
        <ele>344.14807</ele>
        <time>2021-07-02T13:10:44Z</time>
      </trkpt>
      <trkpt lat="41.863483" lon="1.870604">
        <ele>341.96497</ele>
        <time>2021-07-02T13:10:45Z</time>
      </trkpt>
      <trkpt lat="41.863205" lon="1.870563">
        <ele>340.04187</ele>
        <time>2021-07-02T13:10:46Z</time>
      </trkpt>
      <trkpt lat="41.862934" lon="1.870530">
        <ele>337.80408</ele>
        <time>2021-07-02T13:10:47Z</time>
      </trkpt>
      <trkpt lat="41.862663" lon="1.870507">
        <ele>336.18823</ele>
        <time>2021-07-02T13:10:48Z</time>
      </trkpt>
      <trkpt lat="41.862347" lon="1.870511">
        <ele>334.44989</ele>
        <time>2021-07-02T13:10:49Z</time>
      </trkpt>
      <trkpt lat="41.862064" lon="1.870524">
        <ele>332.39026</ele>
        <time>2021-07-02T13:10:50Z</time>
      </trkpt>
      <trkpt lat="41.862064" lon="1.870524">
        <ele>330.46375</ele>
        <time>2021-07-02T13:10:51Z</time>
      </trkpt>
      <trkpt lat="41.861797" lon="1.870560">
        <ele>329.12842</ele>
        <time>2021-07-02T13:10:52Z</time>
      </trkpt>
      <trkpt lat="41.861534" lon="1.870595">
        <ele>327.90509</ele>
        <time>2021-07-02T13:10:53Z</time>
      </trkpt>
      <trkpt lat="41.861279" lon="1.870643">
        <ele>326.78015</ele>
        <time>2021-07-02T13:10:54Z</time>
      </trkpt>
      <trkpt lat="41.861015" lon="1.870693">
        <ele>327.05835</ele>
        <time>2021-07-02T13:10:55Z</time>
      </trkpt>
      <trkpt lat="41.860737" lon="1.870741">
        <ele>325.75244</ele>
        <time>2021-07-02T13:10:56Z</time>
      </trkpt>
      <trkpt lat="41.860462" lon="1.870785">
        <ele>325.14978</ele>
        <time>2021-07-02T13:10:57Z</time>
      </trkpt>
      <trkpt lat="41.860191" lon="1.870834">
        <ele>324.28528</ele>
        <time>2021-07-02T13:10:58Z</time>
      </trkpt>
      <trkpt lat="41.859913" lon="1.870885">
        <ele>322.68970</ele>
        <time>2021-07-02T13:10:59Z</time>
      </trkpt>
      <trkpt lat="41.859638" lon="1.870934">
        <ele>320.20166</ele>
        <time>2021-07-02T13:11:00Z</time>
      </trkpt>
      <trkpt lat="41.859348" lon="1.870986">
        <ele>319.59357</ele>
        <time>2021-07-02T13:11:01Z</time>
      </trkpt>
      <trkpt lat="41.859055" lon="1.871039">
        <ele>319.10852</ele>
        <time>2021-07-02T13:11:02Z</time>
      </trkpt>
      <trkpt lat="41.858768" lon="1.871089">
        <ele>317.94226</ele>
        <time>2021-07-02T13:11:03Z</time>
      </trkpt>
      <trkpt lat="41.858463" lon="1.871144">
        <ele>318.51532</ele>
        <time>2021-07-02T13:11:04Z</time>
      </trkpt>
      <trkpt lat="41.858128" lon="1.871203">
        <ele>317.66589</ele>
        <time>2021-07-02T13:11:05Z</time>
      </trkpt>
      <trkpt lat="41.857815" lon="1.871278">
        <ele>318.75409</ele>
        <time>2021-07-02T13:11:06Z</time>
      </trkpt>
      <trkpt lat="41.857506" lon="1.871380">
        <ele>317.08752</ele>
        <time>2021-07-02T13:11:07Z</time>
      </trkpt>
      <trkpt lat="41.857166" lon="1.871521">
        <ele>317.00549</ele>
        <time>2021-07-02T13:11:08Z</time>
      </trkpt>
      <trkpt lat="41.856857" lon="1.871703">
        <ele>316.09912</ele>
        <time>2021-07-02T13:11:09Z</time>
      </trkpt>
      <trkpt lat="41.856579" lon="1.871911">
        <ele>314.31726</ele>
        <time>2021-07-02T13:11:10Z</time>
      </trkpt>
      <trkpt lat="41.856274" lon="1.872186">
        <ele>314.21899</ele>
        <time>2021-07-02T13:11:11Z</time>
      </trkpt>
      <trkpt lat="41.855999" lon="1.872480">
        <ele>313.12201</ele>
        <time>2021-07-02T13:11:12Z</time>
      </trkpt>
      <trkpt lat="41.855785" lon="1.872786">
        <ele>312.74207</ele>
        <time>2021-07-02T13:11:13Z</time>
      </trkpt>
      <trkpt lat="41.855553" lon="1.873137">
        <ele>311.69952</ele>
        <time>2021-07-02T13:11:14Z</time>
      </trkpt>
      <trkpt lat="41.855373" lon="1.873498">
        <ele>311.14056</ele>
        <time>2021-07-02T13:11:15Z</time>
      </trkpt>
      <trkpt lat="41.855221" lon="1.873863">
        <ele>310.06616</ele>
        <time>2021-07-02T13:11:16Z</time>
      </trkpt>
      <trkpt lat="41.855083" lon="1.874224">
        <ele>308.72449</ele>
        <time>2021-07-02T13:11:17Z</time>
      </trkpt>
      <trkpt lat="41.855022" lon="1.874333">
        <ele>307.72559</ele>
        <time>2021-07-02T13:11:18Z</time>
      </trkpt>
      <trkpt lat="41.854725" lon="1.875074">
        <ele>307.48785</ele>
        <time>2021-07-02T13:11:19Z</time>
      </trkpt>
      <trkpt lat="41.854725" lon="1.875074">
        <ele>306.27429</ele>
        <time>2021-07-02T13:11:20Z</time>
      </trkpt>
      <trkpt lat="41.854633" lon="1.875557">
        <ele>305.75208</ele>
        <time>2021-07-02T13:11:21Z</time>
      </trkpt>
      <trkpt lat="41.854462" lon="1.875987">
        <ele>304.67334</ele>
        <time>2021-07-02T13:11:22Z</time>
      </trkpt>
      <trkpt lat="41.854252" lon="1.876412">
        <ele>303.57159</ele>
        <time>2021-07-02T13:11:23Z</time>
      </trkpt>
      <trkpt lat="41.854057" lon="1.876766">
        <ele>302.42548</ele>
        <time>2021-07-02T13:11:24Z</time>
      </trkpt>
      <trkpt lat="41.853806" lon="1.877165">
        <ele>302.04187</ele>
        <time>2021-07-02T13:11:25Z</time>
      </trkpt>
      <trkpt lat="41.853554" lon="1.877505">
        <ele>301.74237</ele>
        <time>2021-07-02T13:11:26Z</time>
      </trkpt>
      <trkpt lat="41.853287" lon="1.877860">
        <ele>301.50757</ele>
        <time>2021-07-02T13:11:27Z</time>
      </trkpt>
      <trkpt lat="41.852997" lon="1.878184">
        <ele>300.33411</ele>
        <time>2021-07-02T13:11:28Z</time>
      </trkpt>
      <trkpt lat="41.852711" lon="1.878487">
        <ele>299.65820</ele>
        <time>2021-07-02T13:11:29Z</time>
      </trkpt>
      <trkpt lat="41.852417" lon="1.878779">
        <ele>299.28735</ele>
        <time>2021-07-02T13:11:30Z</time>
      </trkpt>
      <trkpt lat="41.852123" lon="1.879045">
        <ele>298.27997</ele>
        <time>2021-07-02T13:11:31Z</time>
      </trkpt>
      <trkpt lat="41.851810" lon="1.879312">
        <ele>297.47449</ele>
        <time>2021-07-02T13:11:32Z</time>
      </trkpt>
      <trkpt lat="41.851509" lon="1.879548">
        <ele>297.55835</ele>
        <time>2021-07-02T13:11:33Z</time>
      </trkpt>
      <trkpt lat="41.851177" lon="1.879799">
        <ele>297.66504</ele>
        <time>2021-07-02T13:11:34Z</time>
      </trkpt>
      <trkpt lat="41.850864" lon="1.880036">
        <ele>297.32800</ele>
        <time>2021-07-02T13:11:35Z</time>
      </trkpt>
      <trkpt lat="41.850544" lon="1.880278">
        <ele>296.71094</ele>
        <time>2021-07-02T13:11:36Z</time>
      </trkpt>
      <trkpt lat="41.850212" lon="1.880577">
        <ele>296.01599</ele>
        <time>2021-07-02T13:11:37Z</time>
      </trkpt>
      <trkpt lat="41.849907" lon="1.880854">
        <ele>295.49438</ele>
        <time>2021-07-02T13:11:38Z</time>
      </trkpt>
      <trkpt lat="41.849617" lon="1.881136">
        <ele>296.68701</ele>
        <time>2021-07-02T13:11:39Z</time>
      </trkpt>
      <trkpt lat="41.849331" lon="1.881455">
        <ele>297.58167</ele>
        <time>2021-07-02T13:11:40Z</time>
      </trkpt>
      <trkpt lat="41.849072" lon="1.881743">
        <ele>297.47034</ele>
        <time>2021-07-02T13:11:41Z</time>
      </trkpt>
      <trkpt lat="41.848824" lon="1.882046">
        <ele>297.98676</ele>
        <time>2021-07-02T13:11:42Z</time>
      </trkpt>
      <trkpt lat="41.848824" lon="1.882046">
        <ele>297.64429</ele>
        <time>2021-07-02T13:11:43Z</time>
      </trkpt>
      <trkpt lat="41.848564" lon="1.882358">
        <ele>298.34778</ele>
        <time>2021-07-02T13:11:44Z</time>
      </trkpt>
      <trkpt lat="41.848289" lon="1.882681">
        <ele>298.67529</ele>
        <time>2021-07-02T13:11:45Z</time>
      </trkpt>
      <trkpt lat="41.848015" lon="1.882987">
        <ele>299.45355</ele>
        <time>2021-07-02T13:11:46Z</time>
      </trkpt>
      <trkpt lat="41.847729" lon="1.883279">
        <ele>300.52844</ele>
        <time>2021-07-02T13:11:47Z</time>
      </trkpt>
      <trkpt lat="41.847427" lon="1.883555">
        <ele>301.15417</ele>
        <time>2021-07-02T13:11:48Z</time>
      </trkpt>
      <trkpt lat="41.847130" lon="1.883783">
        <ele>301.20624</ele>
        <time>2021-07-02T13:11:49Z</time>
      </trkpt>
      <trkpt lat="41.846802" lon="1.883998">
        <ele>301.27563</ele>
        <time>2021-07-02T13:11:50Z</time>
      </trkpt>
      <trkpt lat="41.846481" lon="1.884175">
        <ele>301.86096</ele>
        <time>2021-07-02T13:11:51Z</time>
      </trkpt>
      <trkpt lat="41.846142" lon="1.884319">
        <ele>303.52124</ele>
        <time>2021-07-02T13:11:52Z</time>
      </trkpt>
      <trkpt lat="41.845829" lon="1.884438">
        <ele>305.49347</ele>
        <time>2021-07-02T13:11:53Z</time>
      </trkpt>
      <trkpt lat="41.845482" lon="1.884523">
        <ele>305.22705</ele>
        <time>2021-07-02T13:11:54Z</time>
      </trkpt>
      <trkpt lat="41.845116" lon="1.884581">
        <ele>304.60907</ele>
        <time>2021-07-02T13:11:55Z</time>
      </trkpt>
      <trkpt lat="41.844765" lon="1.884604">
        <ele>305.70300</ele>
        <time>2021-07-02T13:11:56Z</time>
      </trkpt>
      <trkpt lat="41.844402" lon="1.884593">
        <ele>305.80920</ele>
        <time>2021-07-02T13:11:57Z</time>
      </trkpt>
      <trkpt lat="41.844044" lon="1.884545">
        <ele>304.91125</ele>
        <time>2021-07-02T13:11:58Z</time>
      </trkpt>
      <trkpt lat="41.843693" lon="1.884444">
        <ele>304.65100</ele>
        <time>2021-07-02T13:11:59Z</time>
      </trkpt>
      <trkpt lat="41.843346" lon="1.884313">
        <ele>305.57410</ele>
        <time>2021-07-02T13:12:00Z</time>
      </trkpt>
      <trkpt lat="41.843033" lon="1.884138">
        <ele>303.54846</ele>
        <time>2021-07-02T13:12:01Z</time>
      </trkpt>
      <trkpt lat="41.842712" lon="1.883941">
        <ele>303.70398</ele>
        <time>2021-07-02T13:12:02Z</time>
      </trkpt>
      <trkpt lat="41.842403" lon="1.883695">
        <ele>302.92371</ele>
        <time>2021-07-02T13:12:03Z</time>
      </trkpt>
      <trkpt lat="41.842091" lon="1.883433">
        <ele>302.49396</ele>
        <time>2021-07-02T13:12:04Z</time>
      </trkpt>
      <trkpt lat="41.841785" lon="1.883166">
        <ele>301.83069</ele>
        <time>2021-07-02T13:12:05Z</time>
      </trkpt>
      <trkpt lat="41.841488" lon="1.882907">
        <ele>302.04547</ele>
        <time>2021-07-02T13:12:06Z</time>
      </trkpt>
      <trkpt lat="41.841164" lon="1.882631">
        <ele>301.32678</ele>
        <time>2021-07-02T13:12:07Z</time>
      </trkpt>
      <trkpt lat="41.840855" lon="1.882371">
        <ele>301.29517</ele>
        <time>2021-07-02T13:12:08Z</time>
      </trkpt>
      <trkpt lat="41.840565" lon="1.882127">
        <ele>300.50903</ele>
        <time>2021-07-02T13:12:09Z</time>
      </trkpt>
      <trkpt lat="41.840237" lon="1.881850">
        <ele>299.94128</ele>
        <time>2021-07-02T13:12:10Z</time>
      </trkpt>
      <trkpt lat="41.839943" lon="1.881600">
        <ele>297.52747</ele>
        <time>2021-07-02T13:12:11Z</time>
      </trkpt>
      <trkpt lat="41.839630" lon="1.881340">
        <ele>297.55243</ele>
        <time>2021-07-02T13:12:12Z</time>
      </trkpt>
      <trkpt lat="41.839336" lon="1.881133">
        <ele>296.01184</ele>
        <time>2021-07-02T13:12:13Z</time>
      </trkpt>
      <trkpt lat="41.839046" lon="1.880946">
        <ele>295.82562</ele>
        <time>2021-07-02T13:12:14Z</time>
      </trkpt>
      <trkpt lat="41.839046" lon="1.880946">
        <ele>295.08069</ele>
        <time>2021-07-02T13:12:15Z</time>
      </trkpt>
      <trkpt lat="41.838722" lon="1.880765">
        <ele>294.29663</ele>
        <time>2021-07-02T13:12:16Z</time>
      </trkpt>
      <trkpt lat="41.838097" lon="1.880488">
        <ele>294.18829</ele>
        <time>2021-07-02T13:12:17Z</time>
      </trkpt>
      <trkpt lat="41.838097" lon="1.880488">
        <ele>293.15747</ele>
        <time>2021-07-02T13:12:18Z</time>
      </trkpt>
      <trkpt lat="41.837757" lon="1.880383">
        <ele>292.17059</ele>
        <time>2021-07-02T13:12:19Z</time>
      </trkpt>
      <trkpt lat="41.837410" lon="1.880298">
        <ele>291.36157</ele>
        <time>2021-07-02T13:12:20Z</time>
      </trkpt>
      <trkpt lat="41.837048" lon="1.880251">
        <ele>290.50922</ele>
        <time>2021-07-02T13:12:21Z</time>
      </trkpt>
      <trkpt lat="41.836697" lon="1.880260">
        <ele>289.71667</ele>
        <time>2021-07-02T13:12:22Z</time>
      </trkpt>
      <trkpt lat="41.836357" lon="1.880291">
        <ele>288.23694</ele>
        <time>2021-07-02T13:12:23Z</time>
      </trkpt>
      <trkpt lat="41.836025" lon="1.880394">
        <ele>288.58044</ele>
        <time>2021-07-02T13:12:24Z</time>
      </trkpt>
      <trkpt lat="41.835762" lon="1.880480">
        <ele>287.38062</ele>
        <time>2021-07-02T13:12:25Z</time>
      </trkpt>
      <trkpt lat="41.835438" lon="1.880555">
        <ele>285.90839</ele>
        <time>2021-07-02T13:12:26Z</time>
      </trkpt>
      <trkpt lat="41.834961" lon="1.880788">
        <ele>284.93066</ele>
        <time>2021-07-02T13:12:27Z</time>
      </trkpt>
      <trkpt lat="41.834660" lon="1.880980">
        <ele>284.60657</ele>
        <time>2021-07-02T13:12:28Z</time>
      </trkpt>
      <trkpt lat="41.834347" lon="1.881206">
        <ele>284.78949</ele>
        <time>2021-07-02T13:12:29Z</time>
      </trkpt>
      <trkpt lat="41.834141" lon="1.881629">
        <ele>284.89551</ele>
        <time>2021-07-02T13:12:30Z</time>
      </trkpt>
      <trkpt lat="41.833824" lon="1.881974">
        <ele>285.81372</ele>
        <time>2021-07-02T13:12:31Z</time>
      </trkpt>
      <trkpt lat="41.833519" lon="1.882327">
        <ele>285.40137</ele>
        <time>2021-07-02T13:12:32Z</time>
      </trkpt>
      <trkpt lat="41.833519" lon="1.882327">
        <ele>285.11194</ele>
        <time>2021-07-02T13:12:33Z</time>
      </trkpt>
      <trkpt lat="41.832966" lon="1.882980">
        <ele>284.48816</ele>
        <time>2021-07-02T13:12:34Z</time>
      </trkpt>
      <trkpt lat="41.832706" lon="1.883276">
        <ele>285.13989</ele>
        <time>2021-07-02T13:12:35Z</time>
      </trkpt>
      <trkpt lat="41.832413" lon="1.883580">
        <ele>284.28589</ele>
        <time>2021-07-02T13:12:36Z</time>
      </trkpt>
      <trkpt lat="41.832138" lon="1.883830">
        <ele>284.28735</ele>
        <time>2021-07-02T13:12:37Z</time>
      </trkpt>
      <trkpt lat="41.831837" lon="1.884089">
        <ele>284.77765</ele>
        <time>2021-07-02T13:12:38Z</time>
      </trkpt>
      <trkpt lat="41.831837" lon="1.884089">
        <ele>284.52911</ele>
        <time>2021-07-02T13:12:39Z</time>
      </trkpt>
      <trkpt lat="41.831451" lon="1.884398">
        <ele>284.89563</ele>
        <time>2021-07-02T13:12:40Z</time>
      </trkpt>
      <trkpt lat="41.831120" lon="1.884629">
        <ele>285.60767</ele>
        <time>2021-07-02T13:12:41Z</time>
      </trkpt>
      <trkpt lat="41.830780" lon="1.884849">
        <ele>286.33118</ele>
        <time>2021-07-02T13:12:42Z</time>
      </trkpt>
      <trkpt lat="41.830460" lon="1.885044">
        <ele>286.67963</ele>
        <time>2021-07-02T13:12:43Z</time>
      </trkpt>
      <trkpt lat="41.830124" lon="1.885220">
        <ele>287.19983</ele>
        <time>2021-07-02T13:12:44Z</time>
      </trkpt>
      <trkpt lat="41.829792" lon="1.885393">
        <ele>287.57068</ele>
        <time>2021-07-02T13:12:45Z</time>
      </trkpt>
      <trkpt lat="41.829479" lon="1.885555">
        <ele>287.96118</ele>
        <time>2021-07-02T13:12:46Z</time>
      </trkpt>
      <trkpt lat="41.829147" lon="1.885728">
        <ele>287.91669</ele>
        <time>2021-07-02T13:12:47Z</time>
      </trkpt>
      <trkpt lat="41.828793" lon="1.885912">
        <ele>288.90985</ele>
        <time>2021-07-02T13:12:48Z</time>
      </trkpt>
      <trkpt lat="41.828449" lon="1.886089">
        <ele>289.56396</ele>
        <time>2021-07-02T13:12:49Z</time>
      </trkpt>
      <trkpt lat="41.828133" lon="1.886261">
        <ele>289.02966</ele>
        <time>2021-07-02T13:12:50Z</time>
      </trkpt>
      <trkpt lat="41.827801" lon="1.886442">
        <ele>289.43707</ele>
        <time>2021-07-02T13:12:51Z</time>
      </trkpt>
      <trkpt lat="41.827461" lon="1.886628">
        <ele>289.56323</ele>
        <time>2021-07-02T13:12:52Z</time>
      </trkpt>
      <trkpt lat="41.827129" lon="1.886809">
        <ele>289.95361</ele>
        <time>2021-07-02T13:12:53Z</time>
      </trkpt>
      <trkpt lat="41.826824" lon="1.886995">
        <ele>289.88794</ele>
        <time>2021-07-02T13:12:54Z</time>
      </trkpt>
      <trkpt lat="41.826488" lon="1.887198">
        <ele>290.20630</ele>
        <time>2021-07-02T13:12:55Z</time>
      </trkpt>
      <trkpt lat="41.826153" lon="1.887407">
        <ele>290.80420</ele>
        <time>2021-07-02T13:12:56Z</time>
      </trkpt>
      <trkpt lat="41.825817" lon="1.887626">
        <ele>291.05945</ele>
        <time>2021-07-02T13:12:57Z</time>
      </trkpt>
      <trkpt lat="41.825478" lon="1.887849">
        <ele>291.72955</ele>
        <time>2021-07-02T13:12:58Z</time>
      </trkpt>
      <trkpt lat="41.825157" lon="1.888061">
        <ele>291.91559</ele>
        <time>2021-07-02T13:12:59Z</time>
      </trkpt>
      <trkpt lat="41.824844" lon="1.888282">
        <ele>292.67871</ele>
        <time>2021-07-02T13:13:00Z</time>
      </trkpt>
      <trkpt lat="41.824543" lon="1.888496">
        <ele>292.48230</ele>
        <time>2021-07-02T13:13:01Z</time>
      </trkpt>
      <trkpt lat="41.824230" lon="1.888720">
        <ele>293.65088</ele>
        <time>2021-07-02T13:13:02Z</time>
      </trkpt>
      <trkpt lat="41.823925" lon="1.888940">
        <ele>293.46997</ele>
        <time>2021-07-02T13:13:03Z</time>
      </trkpt>
      <trkpt lat="41.823597" lon="1.889186">
        <ele>293.45276</ele>
        <time>2021-07-02T13:13:04Z</time>
      </trkpt>
      <trkpt lat="41.823257" lon="1.889430">
        <ele>293.85602</ele>
        <time>2021-07-02T13:13:05Z</time>
      </trkpt>
      <trkpt lat="41.822929" lon="1.889652">
        <ele>293.71832</ele>
        <time>2021-07-02T13:13:06Z</time>
      </trkpt>
      <trkpt lat="41.822929" lon="1.889652">
        <ele>295.84735</ele>
        <time>2021-07-02T13:13:07Z</time>
      </trkpt>
      <trkpt lat="41.822601" lon="1.889875">
        <ele>295.50818</ele>
        <time>2021-07-02T13:13:08Z</time>
      </trkpt>
      <trkpt lat="41.822334" lon="1.890055">
        <ele>296.37634</ele>
        <time>2021-07-02T13:13:09Z</time>
      </trkpt>
      <trkpt lat="41.822197" lon="1.890096">
        <ele>297.71399</ele>
        <time>2021-07-02T13:13:10Z</time>
      </trkpt>
      <trkpt lat="41.821571" lon="1.890380">
        <ele>298.67743</ele>
        <time>2021-07-02T13:13:11Z</time>
      </trkpt>
      <trkpt lat="41.821259" lon="1.890537">
        <ele>299.88458</ele>
        <time>2021-07-02T13:13:12Z</time>
      </trkpt>
      <trkpt lat="41.820927" lon="1.890703">
        <ele>300.48206</ele>
        <time>2021-07-02T13:13:13Z</time>
      </trkpt>
      <trkpt lat="41.820576" lon="1.890878">
        <ele>299.11676</ele>
        <time>2021-07-02T13:13:14Z</time>
      </trkpt>
      <trkpt lat="41.820240" lon="1.891055">
        <ele>296.79431</ele>
        <time>2021-07-02T13:13:15Z</time>
      </trkpt>
      <trkpt lat="41.819931" lon="1.891225">
        <ele>295.00000</ele>
        <time>2021-07-02T13:13:16Z</time>
      </trkpt>
      <trkpt lat="41.819588" lon="1.891604">
        <ele>293.34875</ele>
        <time>2021-07-02T13:13:17Z</time>
      </trkpt>
      <trkpt lat="41.819260" lon="1.891848">
        <ele>291.32434</ele>
        <time>2021-07-02T13:13:18Z</time>
      </trkpt>
      <trkpt lat="41.818951" lon="1.892103">
        <ele>289.24536</ele>
        <time>2021-07-02T13:13:19Z</time>
      </trkpt>
      <trkpt lat="41.818604" lon="1.892425">
        <ele>287.12360</ele>
        <time>2021-07-02T13:13:20Z</time>
      </trkpt>
      <trkpt lat="41.818325" lon="1.892723">
        <ele>284.52368</ele>
        <time>2021-07-02T13:13:21Z</time>
      </trkpt>
      <trkpt lat="41.818043" lon="1.893057">
        <ele>283.02997</ele>
        <time>2021-07-02T13:13:22Z</time>
      </trkpt>
      <trkpt lat="41.817783" lon="1.893417">
        <ele>281.45288</ele>
        <time>2021-07-02T13:13:23Z</time>
      </trkpt>
      <trkpt lat="41.817535" lon="1.893777">
        <ele>279.64691</ele>
        <time>2021-07-02T13:13:24Z</time>
      </trkpt>
      <trkpt lat="41.817303" lon="1.894124">
        <ele>277.03540</ele>
        <time>2021-07-02T13:13:25Z</time>
      </trkpt>
      <trkpt lat="41.817032" lon="1.894533">
        <ele>274.72931</ele>
        <time>2021-07-02T13:13:26Z</time>
      </trkpt>
      <trkpt lat="41.816807" lon="1.894877">
        <ele>273.70477</ele>
        <time>2021-07-02T13:13:27Z</time>
      </trkpt>
      <trkpt lat="41.816807" lon="1.894877">
        <ele>272.62775</ele>
        <time>2021-07-02T13:13:28Z</time>
      </trkpt>
      <trkpt lat="41.816284" lon="1.895487">
        <ele>270.84259</ele>
        <time>2021-07-02T13:13:29Z</time>
      </trkpt>
      <trkpt lat="41.815960" lon="1.895739">
        <ele>270.17871</ele>
        <time>2021-07-02T13:13:30Z</time>
      </trkpt>
      <trkpt lat="41.815960" lon="1.895739">
        <ele>270.38708</ele>
        <time>2021-07-02T13:13:31Z</time>
      </trkpt>
      <trkpt lat="41.815666" lon="1.895910">
        <ele>270.31592</ele>
        <time>2021-07-02T13:13:32Z</time>
      </trkpt>
      <trkpt lat="41.815365" lon="1.896038">
        <ele>270.54987</ele>
        <time>2021-07-02T13:13:33Z</time>
      </trkpt>
      <trkpt lat="41.815041" lon="1.896111">
        <ele>270.91943</ele>
        <time>2021-07-02T13:13:34Z</time>
      </trkpt>
      <trkpt lat="41.814720" lon="1.896155">
        <ele>271.46893</ele>
        <time>2021-07-02T13:13:35Z</time>
      </trkpt>
      <trkpt lat="41.814404" lon="1.896188">
        <ele>272.03101</ele>
        <time>2021-07-02T13:13:36Z</time>
      </trkpt>
      <trkpt lat="41.814068" lon="1.896222">
        <ele>271.57025</ele>
        <time>2021-07-02T13:13:37Z</time>
      </trkpt>
      <trkpt lat="41.813744" lon="1.896256">
        <ele>270.32532</ele>
        <time>2021-07-02T13:13:38Z</time>
      </trkpt>
      <trkpt lat="41.813381" lon="1.896293">
        <ele>270.73901</ele>
        <time>2021-07-02T13:13:39Z</time>
      </trkpt>
      <trkpt lat="41.813007" lon="1.896331">
        <ele>270.42725</ele>
        <time>2021-07-02T13:13:40Z</time>
      </trkpt>
      <trkpt lat="41.812641" lon="1.896373">
        <ele>270.90161</ele>
        <time>2021-07-02T13:13:41Z</time>
      </trkpt>
      <trkpt lat="41.812283" lon="1.896419">
        <ele>269.43182</ele>
        <time>2021-07-02T13:13:42Z</time>
      </trkpt>
      <trkpt lat="41.811920" lon="1.896466">
        <ele>270.41846</ele>
        <time>2021-07-02T13:13:43Z</time>
      </trkpt>
      <trkpt lat="41.811562" lon="1.896513">
        <ele>270.12048</ele>
        <time>2021-07-02T13:13:44Z</time>
      </trkpt>
      <trkpt lat="41.811192" lon="1.896560">
        <ele>271.28149</ele>
        <time>2021-07-02T13:13:45Z</time>
      </trkpt>
      <trkpt lat="41.810822" lon="1.896614">
        <ele>270.41064</ele>
        <time>2021-07-02T13:13:46Z</time>
      </trkpt>
      <trkpt lat="41.810455" lon="1.896668">
        <ele>269.86072</ele>
        <time>2021-07-02T13:13:47Z</time>
      </trkpt>
      <trkpt lat="41.810108" lon="1.896719">
        <ele>270.13660</ele>
        <time>2021-07-02T13:13:48Z</time>
      </trkpt>
      <trkpt lat="41.809731" lon="1.896775">
        <ele>269.97180</ele>
        <time>2021-07-02T13:13:49Z</time>
      </trkpt>
      <trkpt lat="41.809364" lon="1.896829">
        <ele>271.39233</ele>
        <time>2021-07-02T13:13:50Z</time>
      </trkpt>
      <trkpt lat="41.809025" lon="1.896879">
        <ele>270.80115</ele>
        <time>2021-07-02T13:13:51Z</time>
      </trkpt>
      <trkpt lat="41.808632" lon="1.896937">
        <ele>270.61768</ele>
        <time>2021-07-02T13:13:52Z</time>
      </trkpt>
      <trkpt lat="41.808266" lon="1.896992">
        <ele>269.79529</ele>
        <time>2021-07-02T13:13:53Z</time>
      </trkpt>
      <trkpt lat="41.807907" lon="1.897058">
        <ele>269.95569</ele>
        <time>2021-07-02T13:13:54Z</time>
      </trkpt>
      <trkpt lat="41.807606" lon="1.897114">
        <ele>270.35889</ele>
        <time>2021-07-02T13:13:55Z</time>
      </trkpt>
      <trkpt lat="41.807266" lon="1.897178">
        <ele>269.34192</ele>
        <time>2021-07-02T13:13:56Z</time>
      </trkpt>
      <trkpt lat="41.807266" lon="1.897178">
        <ele>269.08411</ele>
        <time>2021-07-02T13:13:57Z</time>
      </trkpt>
      <trkpt lat="41.806950" lon="1.897239">
        <ele>268.52283</ele>
        <time>2021-07-02T13:13:58Z</time>
      </trkpt>
      <trkpt lat="41.806637" lon="1.897297">
        <ele>267.20752</ele>
        <time>2021-07-02T13:13:59Z</time>
      </trkpt>
      <trkpt lat="41.806396" lon="1.897346">
        <ele>266.71204</ele>
        <time>2021-07-02T13:14:00Z</time>
      </trkpt>
      <trkpt lat="41.806301" lon="1.897335">
        <ele>266.70148</ele>
        <time>2021-07-02T13:14:01Z</time>
      </trkpt>
      <trkpt lat="41.805832" lon="1.897317">
        <ele>266.66144</ele>
        <time>2021-07-02T13:14:02Z</time>
      </trkpt>
      <trkpt lat="41.805603" lon="1.897216">
        <ele>265.86865</ele>
        <time>2021-07-02T13:14:03Z</time>
      </trkpt>
      <trkpt lat="41.805294" lon="1.897566">
        <ele>264.16284</ele>
        <time>2021-07-02T13:14:04Z</time>
      </trkpt>
      <trkpt lat="41.805038" lon="1.897615">
        <ele>263.51575</ele>
        <time>2021-07-02T13:14:05Z</time>
      </trkpt>
      <trkpt lat="41.804790" lon="1.897668">
        <ele>262.85205</ele>
        <time>2021-07-02T13:14:06Z</time>
      </trkpt>
      <trkpt lat="41.804516" lon="1.897720">
        <ele>261.79999</ele>
        <time>2021-07-02T13:14:07Z</time>
      </trkpt>
      <trkpt lat="41.804256" lon="1.897763">
        <ele>261.72156</ele>
        <time>2021-07-02T13:14:08Z</time>
      </trkpt>
      <trkpt lat="41.804005" lon="1.897806">
        <ele>261.36768</ele>
        <time>2021-07-02T13:14:09Z</time>
      </trkpt>
      <trkpt lat="41.803734" lon="1.897851">
        <ele>260.82452</ele>
        <time>2021-07-02T13:14:10Z</time>
      </trkpt>
      <trkpt lat="41.803478" lon="1.897895">
        <ele>260.51306</ele>
        <time>2021-07-02T13:14:11Z</time>
      </trkpt>
      <trkpt lat="41.803230" lon="1.897936">
        <ele>262.06030</ele>
        <time>2021-07-02T13:14:12Z</time>
      </trkpt>
      <trkpt lat="41.802994" lon="1.897976">
        <ele>262.20569</ele>
        <time>2021-07-02T13:14:13Z</time>
      </trkpt>
      <trkpt lat="41.802765" lon="1.898015">
        <ele>262.43591</ele>
        <time>2021-07-02T13:14:14Z</time>
      </trkpt>
      <trkpt lat="41.802765" lon="1.898015">
        <ele>262.05176</ele>
        <time>2021-07-02T13:14:15Z</time>
      </trkpt>
      <trkpt lat="41.802536" lon="1.898045">
        <ele>261.57080</ele>
        <time>2021-07-02T13:14:16Z</time>
      </trkpt>
      <trkpt lat="41.802292" lon="1.898074">
        <ele>261.53949</ele>
        <time>2021-07-02T13:14:17Z</time>
      </trkpt>
      <trkpt lat="41.802040" lon="1.898104">
        <ele>260.83057</ele>
        <time>2021-07-02T13:14:18Z</time>
      </trkpt>
      <trkpt lat="41.801804" lon="1.898134">
        <ele>260.03143</ele>
        <time>2021-07-02T13:14:19Z</time>
      </trkpt>
      <trkpt lat="41.801579" lon="1.898165">
        <ele>260.55377</ele>
        <time>2021-07-02T13:14:20Z</time>
      </trkpt>
      <trkpt lat="41.801346" lon="1.898189">
        <ele>259.17920</ele>
        <time>2021-07-02T13:14:21Z</time>
      </trkpt>
      <trkpt lat="41.801132" lon="1.898210">
        <ele>259.45227</ele>
        <time>2021-07-02T13:14:22Z</time>
      </trkpt>
      <trkpt lat="41.800915" lon="1.898232">
        <ele>259.57251</ele>
        <time>2021-07-02T13:14:23Z</time>
      </trkpt>
      <trkpt lat="41.800705" lon="1.898253">
        <ele>260.10156</ele>
        <time>2021-07-02T13:14:24Z</time>
      </trkpt>
      <trkpt lat="41.800495" lon="1.898274">
        <ele>261.01624</ele>
        <time>2021-07-02T13:14:25Z</time>
      </trkpt>
      <trkpt lat="41.800278" lon="1.898296">
        <ele>261.14587</ele>
        <time>2021-07-02T13:14:26Z</time>
      </trkpt>
      <trkpt lat="41.800056" lon="1.898318">
        <ele>261.42969</ele>
        <time>2021-07-02T13:14:27Z</time>
      </trkpt>
      <trkpt lat="41.799847" lon="1.898339">
        <ele>262.19238</ele>
        <time>2021-07-02T13:14:28Z</time>
      </trkpt>
      <trkpt lat="41.799610" lon="1.898363">
        <ele>262.62628</ele>
        <time>2021-07-02T13:14:29Z</time>
      </trkpt>
      <trkpt lat="41.799385" lon="1.898389">
        <ele>262.48486</ele>
        <time>2021-07-02T13:14:30Z</time>
      </trkpt>
      <trkpt lat="41.799171" lon="1.898413">
        <ele>263.16797</ele>
        <time>2021-07-02T13:14:31Z</time>
      </trkpt>
      <trkpt lat="41.798973" lon="1.898435">
        <ele>262.73859</ele>
        <time>2021-07-02T13:14:32Z</time>
      </trkpt>
      <trkpt lat="41.798756" lon="1.898466">
        <ele>262.86560</ele>
        <time>2021-07-02T13:14:33Z</time>
      </trkpt>
      <trkpt lat="41.798519" lon="1.898509">
        <ele>262.42554</ele>
        <time>2021-07-02T13:14:34Z</time>
      </trkpt>
      <trkpt lat="41.798260" lon="1.898557">
        <ele>261.92773</ele>
        <time>2021-07-02T13:14:35Z</time>
      </trkpt>
      <trkpt lat="41.798000" lon="1.898610">
        <ele>261.83765</ele>
        <time>2021-07-02T13:14:36Z</time>
      </trkpt>
      <trkpt lat="41.797733" lon="1.898666">
        <ele>262.15393</ele>
        <time>2021-07-02T13:14:37Z</time>
      </trkpt>
      <trkpt lat="41.797455" lon="1.898723">
        <ele>262.52490</ele>
        <time>2021-07-02T13:14:38Z</time>
      </trkpt>
      <trkpt lat="41.797173" lon="1.898778">
        <ele>261.76892</ele>
        <time>2021-07-02T13:14:39Z</time>
      </trkpt>
      <trkpt lat="41.797173" lon="1.898778">
        <ele>262.43054</ele>
        <time>2021-07-02T13:14:40Z</time>
      </trkpt>
      <trkpt lat="41.796860" lon="1.898836">
        <ele>261.39246</ele>
        <time>2021-07-02T13:14:41Z</time>
      </trkpt>
      <trkpt lat="41.796577" lon="1.898870">
        <ele>261.64081</ele>
        <time>2021-07-02T13:14:42Z</time>
      </trkpt>
      <trkpt lat="41.796265" lon="1.898880">
        <ele>262.08624</ele>
        <time>2021-07-02T13:14:43Z</time>
      </trkpt>
      <trkpt lat="41.795963" lon="1.898866">
        <ele>263.17114</ele>
        <time>2021-07-02T13:14:44Z</time>
      </trkpt>
      <trkpt lat="41.795658" lon="1.898834">
        <ele>264.02777</ele>
        <time>2021-07-02T13:14:45Z</time>
      </trkpt>
      <trkpt lat="41.795364" lon="1.898777">
        <ele>264.56421</ele>
        <time>2021-07-02T13:14:46Z</time>
      </trkpt>
      <trkpt lat="41.795059" lon="1.898691">
        <ele>266.50061</ele>
        <time>2021-07-02T13:14:47Z</time>
      </trkpt>
      <trkpt lat="41.794746" lon="1.898582">
        <ele>267.04108</ele>
        <time>2021-07-02T13:14:48Z</time>
      </trkpt>
      <trkpt lat="41.794426" lon="1.898438">
        <ele>267.90344</ele>
        <time>2021-07-02T13:14:49Z</time>
      </trkpt>
      <trkpt lat="41.794117" lon="1.898284">
        <ele>270.10510</ele>
        <time>2021-07-02T13:14:50Z</time>
      </trkpt>
      <trkpt lat="41.793816" lon="1.898092">
        <ele>271.76184</ele>
        <time>2021-07-02T13:14:51Z</time>
      </trkpt>
      <trkpt lat="41.793522" lon="1.897869">
        <ele>272.75952</ele>
        <time>2021-07-02T13:14:52Z</time>
      </trkpt>
      <trkpt lat="41.793224" lon="1.897641">
        <ele>274.58008</ele>
        <time>2021-07-02T13:14:53Z</time>
      </trkpt>
      <trkpt lat="41.792950" lon="1.897411">
        <ele>275.22333</ele>
        <time>2021-07-02T13:14:54Z</time>
      </trkpt>
      <trkpt lat="41.792652" lon="1.897174">
        <ele>276.75482</ele>
        <time>2021-07-02T13:14:55Z</time>
      </trkpt>
      <trkpt lat="41.792511" lon="1.897062">
        <ele>277.76794</ele>
        <time>2021-07-02T13:14:56Z</time>
      </trkpt>
      <trkpt lat="41.792175" lon="1.896691">
        <ele>278.59961</ele>
        <time>2021-07-02T13:14:57Z</time>
      </trkpt>
      <trkpt lat="41.791828" lon="1.896366">
        <ele>278.75793</ele>
        <time>2021-07-02T13:14:58Z</time>
      </trkpt>
      <trkpt lat="41.791595" lon="1.896102">
        <ele>278.97681</ele>
        <time>2021-07-02T13:14:59Z</time>
      </trkpt>
      <trkpt lat="41.791225" lon="1.896005">
        <ele>277.96545</ele>
        <time>2021-07-02T13:15:00Z</time>
      </trkpt>
      <trkpt lat="41.790939" lon="1.895768">
        <ele>277.63501</ele>
        <time>2021-07-02T13:15:01Z</time>
      </trkpt>
      <trkpt lat="41.790600" lon="1.895489">
        <ele>278.13733</ele>
        <time>2021-07-02T13:15:02Z</time>
      </trkpt>
      <trkpt lat="41.790310" lon="1.895251">
        <ele>277.81641</ele>
        <time>2021-07-02T13:15:03Z</time>
      </trkpt>
      <trkpt lat="41.789989" lon="1.894991">
        <ele>277.02576</ele>
        <time>2021-07-02T13:15:04Z</time>
      </trkpt>
      <trkpt lat="41.789989" lon="1.894991">
        <ele>276.49841</ele>
        <time>2021-07-02T13:15:05Z</time>
      </trkpt>
      <trkpt lat="41.789688" lon="1.894746">
        <ele>277.56018</ele>
        <time>2021-07-02T13:15:06Z</time>
      </trkpt>
      <trkpt lat="41.789448" lon="1.894549">
        <ele>277.19104</ele>
        <time>2021-07-02T13:15:07Z</time>
      </trkpt>
      <trkpt lat="41.789215" lon="1.894360">
        <ele>276.46472</ele>
        <time>2021-07-02T13:15:08Z</time>
      </trkpt>
      <trkpt lat="41.788963" lon="1.894157">
        <ele>276.10608</ele>
        <time>2021-07-02T13:15:09Z</time>
      </trkpt>
      <trkpt lat="41.788742" lon="1.893976">
        <ele>276.14984</ele>
        <time>2021-07-02T13:15:10Z</time>
      </trkpt>
      <trkpt lat="41.788528" lon="1.893803">
        <ele>276.81873</ele>
        <time>2021-07-02T13:15:11Z</time>
      </trkpt>
      <trkpt lat="41.788322" lon="1.893635">
        <ele>277.42737</ele>
        <time>2021-07-02T13:15:12Z</time>
      </trkpt>
      <trkpt lat="41.788120" lon="1.893470">
        <ele>277.35583</ele>
        <time>2021-07-02T13:15:13Z</time>
      </trkpt>
      <trkpt lat="41.787945" lon="1.893325">
        <ele>277.26050</ele>
        <time>2021-07-02T13:15:14Z</time>
      </trkpt>
      <trkpt lat="41.787773" lon="1.893189">
        <ele>277.52747</ele>
        <time>2021-07-02T13:15:15Z</time>
      </trkpt>
      <trkpt lat="41.787601" lon="1.893046">
        <ele>277.85443</ele>
        <time>2021-07-02T13:15:16Z</time>
      </trkpt>
      <trkpt lat="41.787418" lon="1.892899">
        <ele>277.64697</ele>
        <time>2021-07-02T13:15:17Z</time>
      </trkpt>
      <trkpt lat="41.787239" lon="1.892751">
        <ele>276.97076</ele>
        <time>2021-07-02T13:15:18Z</time>
      </trkpt>
      <trkpt lat="41.787079" lon="1.892620">
        <ele>277.11157</ele>
        <time>2021-07-02T13:15:19Z</time>
      </trkpt>
      <trkpt lat="41.786915" lon="1.892488">
        <ele>276.99780</ele>
        <time>2021-07-02T13:15:20Z</time>
      </trkpt>
      <trkpt lat="41.786751" lon="1.892353">
        <ele>276.25928</ele>
        <time>2021-07-02T13:15:21Z</time>
      </trkpt>
      <trkpt lat="41.786583" lon="1.892215">
        <ele>276.63086</ele>
        <time>2021-07-02T13:15:22Z</time>
      </trkpt>
      <trkpt lat="41.786415" lon="1.892080">
        <ele>275.89777</ele>
        <time>2021-07-02T13:15:23Z</time>
      </trkpt>
      <trkpt lat="41.786255" lon="1.891946">
        <ele>276.91858</ele>
        <time>2021-07-02T13:15:24Z</time>
      </trkpt>
      <trkpt lat="41.786091" lon="1.891813">
        <ele>276.28735</ele>
        <time>2021-07-02T13:15:25Z</time>
      </trkpt>
      <trkpt lat="41.785938" lon="1.891688">
        <ele>276.52393</ele>
        <time>2021-07-02T13:15:26Z</time>
      </trkpt>
      <trkpt lat="41.785763" lon="1.891544">
        <ele>276.75024</ele>
        <time>2021-07-02T13:15:27Z</time>
      </trkpt>
      <trkpt lat="41.785606" lon="1.891418">
        <ele>275.41058</ele>
        <time>2021-07-02T13:15:28Z</time>
      </trkpt>
      <trkpt lat="41.785606" lon="1.891418">
        <ele>275.72845</ele>
        <time>2021-07-02T13:15:29Z</time>
      </trkpt>
      <trkpt lat="41.785431" lon="1.891274">
        <ele>276.34692</ele>
        <time>2021-07-02T13:15:30Z</time>
      </trkpt>
      <trkpt lat="41.785278" lon="1.891151">
        <ele>277.30798</ele>
        <time>2021-07-02T13:15:31Z</time>
      </trkpt>
      <trkpt lat="41.785122" lon="1.891020">
        <ele>278.02020</ele>
        <time>2021-07-02T13:15:32Z</time>
      </trkpt>
      <trkpt lat="41.784950" lon="1.890880">
        <ele>277.68054</ele>
        <time>2021-07-02T13:15:33Z</time>
      </trkpt>
      <trkpt lat="41.784782" lon="1.890742">
        <ele>278.58325</ele>
        <time>2021-07-02T13:15:34Z</time>
      </trkpt>
      <trkpt lat="41.784622" lon="1.890613">
        <ele>278.33154</ele>
        <time>2021-07-02T13:15:35Z</time>
      </trkpt>
      <trkpt lat="41.784470" lon="1.890489">
        <ele>278.01129</ele>
        <time>2021-07-02T13:15:36Z</time>
      </trkpt>
      <trkpt lat="41.784325" lon="1.890369">
        <ele>277.88062</ele>
        <time>2021-07-02T13:15:37Z</time>
      </trkpt>
      <trkpt lat="41.784149" lon="1.890227">
        <ele>277.75537</ele>
        <time>2021-07-02T13:15:38Z</time>
      </trkpt>
      <trkpt lat="41.783981" lon="1.890090">
        <ele>275.77637</ele>
        <time>2021-07-02T13:15:39Z</time>
      </trkpt>
      <trkpt lat="41.783817" lon="1.889957">
        <ele>274.69165</ele>
        <time>2021-07-02T13:15:40Z</time>
      </trkpt>
      <trkpt lat="41.783669" lon="1.889836">
        <ele>274.49280</ele>
        <time>2021-07-02T13:15:41Z</time>
      </trkpt>
      <trkpt lat="41.783516" lon="1.889714">
        <ele>273.35168</ele>
        <time>2021-07-02T13:15:42Z</time>
      </trkpt>
      <trkpt lat="41.783340" lon="1.889572">
        <ele>273.41785</ele>
        <time>2021-07-02T13:15:43Z</time>
      </trkpt>
      <trkpt lat="41.783176" lon="1.889439">
        <ele>273.45056</ele>
        <time>2021-07-02T13:15:44Z</time>
      </trkpt>
      <trkpt lat="41.783012" lon="1.889303">
        <ele>272.90521</ele>
        <time>2021-07-02T13:15:45Z</time>
      </trkpt>
      <trkpt lat="41.782852" lon="1.889173">
        <ele>273.54041</ele>
        <time>2021-07-02T13:15:46Z</time>
      </trkpt>
      <trkpt lat="41.782692" lon="1.889044">
        <ele>274.48627</ele>
        <time>2021-07-02T13:15:47Z</time>
      </trkpt>
      <trkpt lat="41.782536" lon="1.888917">
        <ele>273.60645</ele>
        <time>2021-07-02T13:15:48Z</time>
      </trkpt>
      <trkpt lat="41.782391" lon="1.888798">
        <ele>274.12561</ele>
        <time>2021-07-02T13:15:49Z</time>
      </trkpt>
      <trkpt lat="41.782223" lon="1.888663">
        <ele>275.16492</ele>
        <time>2021-07-02T13:15:50Z</time>
      </trkpt>
      <trkpt lat="41.782043" lon="1.888519">
        <ele>275.36011</ele>
        <time>2021-07-02T13:15:51Z</time>
      </trkpt>
      <trkpt lat="41.781857" lon="1.888369">
        <ele>274.21161</ele>
        <time>2021-07-02T13:15:52Z</time>
      </trkpt>
      <trkpt lat="41.781845" lon="1.888357">
        <ele>274.81409</ele>
        <time>2021-07-02T13:15:53Z</time>
      </trkpt>
      <trkpt lat="41.781597" lon="1.888070">
        <ele>274.48865</ele>
        <time>2021-07-02T13:15:54Z</time>
      </trkpt>
      <trkpt lat="41.781597" lon="1.888070">
        <ele>274.64307</ele>
        <time>2021-07-02T13:15:55Z</time>
      </trkpt>
      <trkpt lat="41.781296" lon="1.887786">
        <ele>274.57697</ele>
        <time>2021-07-02T13:15:56Z</time>
      </trkpt>
      <trkpt lat="41.781296" lon="1.887786">
        <ele>274.49042</ele>
        <time>2021-07-02T13:15:57Z</time>
      </trkpt>
      <trkpt lat="41.781010" lon="1.887453">
        <ele>274.83923</ele>
        <time>2021-07-02T13:15:58Z</time>
      </trkpt>
      <trkpt lat="41.781010" lon="1.887453">
        <ele>275.12750</ele>
        <time>2021-07-02T13:15:59Z</time>
      </trkpt>
      <trkpt lat="41.780884" lon="1.887271">
        <ele>276.17175</ele>
        <time>2021-07-02T13:16:00Z</time>
      </trkpt>
      <trkpt lat="41.780758" lon="1.887072">
        <ele>277.55444</ele>
        <time>2021-07-02T13:16:01Z</time>
      </trkpt>
      <trkpt lat="41.780647" lon="1.886864">
        <ele>277.91144</ele>
        <time>2021-07-02T13:16:02Z</time>
      </trkpt>
      <trkpt lat="41.780548" lon="1.886655">
        <ele>278.41724</ele>
        <time>2021-07-02T13:16:03Z</time>
      </trkpt>
      <trkpt lat="41.780453" lon="1.886432">
        <ele>279.41864</ele>
        <time>2021-07-02T13:16:04Z</time>
      </trkpt>
      <trkpt lat="41.780373" lon="1.886216">
        <ele>280.75763</ele>
        <time>2021-07-02T13:16:05Z</time>
      </trkpt>
      <trkpt lat="41.780300" lon="1.886020">
        <ele>282.22357</ele>
        <time>2021-07-02T13:16:06Z</time>
      </trkpt>
      <trkpt lat="41.780228" lon="1.885817">
        <ele>283.05225</ele>
        <time>2021-07-02T13:16:07Z</time>
      </trkpt>
      <trkpt lat="41.780144" lon="1.885594">
        <ele>284.17773</ele>
        <time>2021-07-02T13:16:08Z</time>
      </trkpt>
      <trkpt lat="41.780060" lon="1.885367">
        <ele>285.30212</ele>
        <time>2021-07-02T13:16:09Z</time>
      </trkpt>
      <trkpt lat="41.779976" lon="1.885148">
        <ele>285.90497</ele>
        <time>2021-07-02T13:16:10Z</time>
      </trkpt>
      <trkpt lat="41.779896" lon="1.884926">
        <ele>286.50391</ele>
        <time>2021-07-02T13:16:11Z</time>
      </trkpt>
      <trkpt lat="41.779812" lon="1.884697">
        <ele>285.87756</ele>
        <time>2021-07-02T13:16:12Z</time>
      </trkpt>
      <trkpt lat="41.779728" lon="1.884474">
        <ele>286.20532</ele>
        <time>2021-07-02T13:16:13Z</time>
      </trkpt>
      <trkpt lat="41.779640" lon="1.884230">
        <ele>285.86218</ele>
        <time>2021-07-02T13:16:14Z</time>
      </trkpt>
      <trkpt lat="41.779537" lon="1.883940">
        <ele>285.23511</ele>
        <time>2021-07-02T13:16:15Z</time>
      </trkpt>
      <trkpt lat="41.779442" lon="1.883649">
        <ele>285.89172</ele>
        <time>2021-07-02T13:16:16Z</time>
      </trkpt>
      <trkpt lat="41.779346" lon="1.883350">
        <ele>286.32446</ele>
        <time>2021-07-02T13:16:17Z</time>
      </trkpt>
      <trkpt lat="41.779236" lon="1.883012">
        <ele>286.41504</ele>
        <time>2021-07-02T13:16:18Z</time>
      </trkpt>
      <trkpt lat="41.779125" lon="1.882664">
        <ele>285.98889</ele>
        <time>2021-07-02T13:16:19Z</time>
      </trkpt>
      <trkpt lat="41.779022" lon="1.882326">
        <ele>285.96490</ele>
        <time>2021-07-02T13:16:20Z</time>
      </trkpt>
      <trkpt lat="41.778908" lon="1.881988">
        <ele>286.07269</ele>
        <time>2021-07-02T13:16:21Z</time>
      </trkpt>
      <trkpt lat="41.778767" lon="1.881642">
        <ele>286.01215</ele>
        <time>2021-07-02T13:16:22Z</time>
      </trkpt>
      <trkpt lat="41.778629" lon="1.881268">
        <ele>286.22815</ele>
        <time>2021-07-02T13:16:23Z</time>
      </trkpt>
      <trkpt lat="41.778507" lon="1.880924">
        <ele>285.66382</ele>
        <time>2021-07-02T13:16:24Z</time>
      </trkpt>
      <trkpt lat="41.778370" lon="1.880603">
        <ele>286.27905</ele>
        <time>2021-07-02T13:16:25Z</time>
      </trkpt>
      <trkpt lat="41.778217" lon="1.880282">
        <ele>286.68481</ele>
        <time>2021-07-02T13:16:26Z</time>
      </trkpt>
      <trkpt lat="41.778049" lon="1.879965">
        <ele>287.11432</ele>
        <time>2021-07-02T13:16:27Z</time>
      </trkpt>
      <trkpt lat="41.778049" lon="1.879965">
        <ele>287.29492</ele>
        <time>2021-07-02T13:16:28Z</time>
      </trkpt>
      <trkpt lat="41.777660" lon="1.879344">
        <ele>288.47662</ele>
        <time>2021-07-02T13:16:29Z</time>
      </trkpt>
      <trkpt lat="41.777660" lon="1.879344">
        <ele>288.31885</ele>
        <time>2021-07-02T13:16:30Z</time>
      </trkpt>
      <trkpt lat="41.777470" lon="1.879064">
        <ele>288.49115</ele>
        <time>2021-07-02T13:16:31Z</time>
      </trkpt>
      <trkpt lat="41.777271" lon="1.878815">
        <ele>288.78052</ele>
        <time>2021-07-02T13:16:32Z</time>
      </trkpt>
      <trkpt lat="41.777054" lon="1.878567">
        <ele>289.71490</ele>
        <time>2021-07-02T13:16:33Z</time>
      </trkpt>
      <trkpt lat="41.776825" lon="1.878318">
        <ele>289.35419</ele>
        <time>2021-07-02T13:16:34Z</time>
      </trkpt>
      <trkpt lat="41.776611" lon="1.878084">
        <ele>289.58722</ele>
        <time>2021-07-02T13:16:35Z</time>
      </trkpt>
      <trkpt lat="41.776402" lon="1.877876">
        <ele>289.26562</ele>
        <time>2021-07-02T13:16:36Z</time>
      </trkpt>
      <trkpt lat="41.776154" lon="1.877640">
        <ele>290.07312</ele>
        <time>2021-07-02T13:16:37Z</time>
      </trkpt>
      <trkpt lat="41.775921" lon="1.877420">
        <ele>289.47595</ele>
        <time>2021-07-02T13:16:38Z</time>
      </trkpt>
      <trkpt lat="41.775684" lon="1.877199">
        <ele>289.63904</ele>
        <time>2021-07-02T13:16:39Z</time>
      </trkpt>
      <trkpt lat="41.775448" lon="1.876982">
        <ele>289.40466</ele>
        <time>2021-07-02T13:16:40Z</time>
      </trkpt>
      <trkpt lat="41.775284" lon="1.876849">
        <ele>288.09534</ele>
        <time>2021-07-02T13:16:41Z</time>
      </trkpt>
      <trkpt lat="41.775105" lon="1.876628">
        <ele>286.84167</ele>
        <time>2021-07-02T13:16:42Z</time>
      </trkpt>
      <trkpt lat="41.774723" lon="1.876300">
        <ele>285.76648</ele>
        <time>2021-07-02T13:16:43Z</time>
      </trkpt>
      <trkpt lat="41.774471" lon="1.876076">
        <ele>285.05347</ele>
        <time>2021-07-02T13:16:44Z</time>
      </trkpt>
      <trkpt lat="41.774246" lon="1.875819">
        <ele>284.03290</ele>
        <time>2021-07-02T13:16:45Z</time>
      </trkpt>
      <trkpt lat="41.773918" lon="1.875711">
        <ele>282.92395</ele>
        <time>2021-07-02T13:16:46Z</time>
      </trkpt>
      <trkpt lat="41.773670" lon="1.875505">
        <ele>282.60016</ele>
        <time>2021-07-02T13:16:47Z</time>
      </trkpt>
      <trkpt lat="41.773434" lon="1.875316">
        <ele>282.12549</ele>
        <time>2021-07-02T13:16:48Z</time>
      </trkpt>
      <trkpt lat="41.773193" lon="1.875119">
        <ele>281.39966</ele>
        <time>2021-07-02T13:16:49Z</time>
      </trkpt>
      <trkpt lat="41.772957" lon="1.874922">
        <ele>280.04419</ele>
        <time>2021-07-02T13:16:50Z</time>
      </trkpt>
      <trkpt lat="41.772957" lon="1.874922">
        <ele>279.40381</ele>
        <time>2021-07-02T13:16:51Z</time>
      </trkpt>
      <trkpt lat="41.772610" lon="1.874631">
        <ele>279.44849</ele>
        <time>2021-07-02T13:16:52Z</time>
      </trkpt>
      <trkpt lat="41.772324" lon="1.874396">
        <ele>278.79419</ele>
        <time>2021-07-02T13:16:53Z</time>
      </trkpt>
      <trkpt lat="41.772072" lon="1.874187">
        <ele>278.45996</ele>
        <time>2021-07-02T13:16:54Z</time>
      </trkpt>
      <trkpt lat="41.771812" lon="1.873971">
        <ele>277.63745</ele>
        <time>2021-07-02T13:16:55Z</time>
      </trkpt>
      <trkpt lat="41.771561" lon="1.873762">
        <ele>276.72937</ele>
        <time>2021-07-02T13:16:56Z</time>
      </trkpt>
      <trkpt lat="41.771313" lon="1.873556">
        <ele>276.36414</ele>
        <time>2021-07-02T13:16:57Z</time>
      </trkpt>
      <trkpt lat="41.771027" lon="1.873319">
        <ele>275.76306</ele>
        <time>2021-07-02T13:16:58Z</time>
      </trkpt>
      <trkpt lat="41.770760" lon="1.873100">
        <ele>275.02881</ele>
        <time>2021-07-02T13:16:59Z</time>
      </trkpt>
      <trkpt lat="41.770523" lon="1.872904">
        <ele>274.88794</ele>
        <time>2021-07-02T13:17:00Z</time>
      </trkpt>
      <trkpt lat="41.770256" lon="1.872685">
        <ele>274.92554</ele>
        <time>2021-07-02T13:17:01Z</time>
      </trkpt>
      <trkpt lat="41.770004" lon="1.872477">
        <ele>274.74713</ele>
        <time>2021-07-02T13:17:02Z</time>
      </trkpt>
      <trkpt lat="41.769718" lon="1.872243">
        <ele>274.88562</ele>
        <time>2021-07-02T13:17:03Z</time>
      </trkpt>
      <trkpt lat="41.769428" lon="1.872002">
        <ele>274.70422</ele>
        <time>2021-07-02T13:17:04Z</time>
      </trkpt>
      <trkpt lat="41.769173" lon="1.871793">
        <ele>274.10925</ele>
        <time>2021-07-02T13:17:05Z</time>
      </trkpt>
      <trkpt lat="41.768902" lon="1.871570">
        <ele>273.39099</ele>
        <time>2021-07-02T13:17:06Z</time>
      </trkpt>
      <trkpt lat="41.768650" lon="1.871361">
        <ele>273.66571</ele>
        <time>2021-07-02T13:17:07Z</time>
      </trkpt>
      <trkpt lat="41.768391" lon="1.871148">
        <ele>273.75659</ele>
        <time>2021-07-02T13:17:08Z</time>
      </trkpt>
      <trkpt lat="41.768391" lon="1.871148">
        <ele>274.23975</ele>
        <time>2021-07-02T13:17:09Z</time>
      </trkpt>
      <trkpt lat="41.768150" lon="1.870950">
        <ele>274.21021</ele>
        <time>2021-07-02T13:17:10Z</time>
      </trkpt>
      <trkpt lat="41.767910" lon="1.870753">
        <ele>273.95337</ele>
        <time>2021-07-02T13:17:11Z</time>
      </trkpt>
      <trkpt lat="41.767651" lon="1.870539">
        <ele>273.64368</ele>
        <time>2021-07-02T13:17:12Z</time>
      </trkpt>
      <trkpt lat="41.767395" lon="1.870329">
        <ele>273.01807</ele>
        <time>2021-07-02T13:17:13Z</time>
      </trkpt>
      <trkpt lat="41.767143" lon="1.870121">
        <ele>273.06781</ele>
        <time>2021-07-02T13:17:14Z</time>
      </trkpt>
      <trkpt lat="41.766899" lon="1.869919">
        <ele>273.15063</ele>
        <time>2021-07-02T13:17:15Z</time>
      </trkpt>
      <trkpt lat="41.766659" lon="1.869720">
        <ele>272.78943</ele>
        <time>2021-07-02T13:17:16Z</time>
      </trkpt>
      <trkpt lat="41.766441" lon="1.869540">
        <ele>272.95520</ele>
        <time>2021-07-02T13:17:17Z</time>
      </trkpt>
      <trkpt lat="41.766228" lon="1.869361">
        <ele>273.30627</ele>
        <time>2021-07-02T13:17:18Z</time>
      </trkpt>
      <trkpt lat="41.766022" lon="1.869193">
        <ele>272.22729</ele>
        <time>2021-07-02T13:17:19Z</time>
      </trkpt>
      <trkpt lat="41.765823" lon="1.869038">
        <ele>271.95056</ele>
        <time>2021-07-02T13:17:20Z</time>
      </trkpt>
      <trkpt lat="41.765587" lon="1.868853">
        <ele>271.80554</ele>
        <time>2021-07-02T13:17:21Z</time>
      </trkpt>
      <trkpt lat="41.765343" lon="1.868679">
        <ele>272.30627</ele>
        <time>2021-07-02T13:17:22Z</time>
      </trkpt>
      <trkpt lat="41.765106" lon="1.868512">
        <ele>271.75647</ele>
        <time>2021-07-02T13:17:23Z</time>
      </trkpt>
      <trkpt lat="41.764854" lon="1.868333">
        <ele>271.66479</ele>
        <time>2021-07-02T13:17:24Z</time>
      </trkpt>
      <trkpt lat="41.764599" lon="1.868141">
        <ele>271.43677</ele>
        <time>2021-07-02T13:17:25Z</time>
      </trkpt>
      <trkpt lat="41.764366" lon="1.867955">
        <ele>271.16199</ele>
        <time>2021-07-02T13:17:26Z</time>
      </trkpt>
      <trkpt lat="41.764149" lon="1.867752">
        <ele>271.27039</ele>
        <time>2021-07-02T13:17:27Z</time>
      </trkpt>
      <trkpt lat="41.763927" lon="1.867527">
        <ele>271.18738</ele>
        <time>2021-07-02T13:17:28Z</time>
      </trkpt>
      <trkpt lat="41.763691" lon="1.867248">
        <ele>271.25195</ele>
        <time>2021-07-02T13:17:29Z</time>
      </trkpt>
      <trkpt lat="41.763500" lon="1.866980">
        <ele>270.05542</ele>
        <time>2021-07-02T13:17:30Z</time>
      </trkpt>
      <trkpt lat="41.763309" lon="1.866694">
        <ele>269.66052</ele>
        <time>2021-07-02T13:17:31Z</time>
      </trkpt>
      <trkpt lat="41.763149" lon="1.866405">
        <ele>269.55078</ele>
        <time>2021-07-02T13:17:32Z</time>
      </trkpt>
      <trkpt lat="41.763149" lon="1.866405">
        <ele>269.28394</ele>
        <time>2021-07-02T13:17:33Z</time>
      </trkpt>
      <trkpt lat="41.762966" lon="1.866055">
        <ele>268.98596</ele>
        <time>2021-07-02T13:17:34Z</time>
      </trkpt>
      <trkpt lat="41.762821" lon="1.865714">
        <ele>269.06226</ele>
        <time>2021-07-02T13:17:35Z</time>
      </trkpt>
      <trkpt lat="41.762688" lon="1.865361">
        <ele>269.11597</ele>
        <time>2021-07-02T13:17:36Z</time>
      </trkpt>
      <trkpt lat="41.762558" lon="1.865017">
        <ele>269.71008</ele>
        <time>2021-07-02T13:17:37Z</time>
      </trkpt>
      <trkpt lat="41.762440" lon="1.864679">
        <ele>270.29449</ele>
        <time>2021-07-02T13:17:38Z</time>
      </trkpt>
      <trkpt lat="41.762333" lon="1.864371">
        <ele>269.91528</ele>
        <time>2021-07-02T13:17:39Z</time>
      </trkpt>
      <trkpt lat="41.762218" lon="1.864051">
        <ele>269.12286</ele>
        <time>2021-07-02T13:17:40Z</time>
      </trkpt>
      <trkpt lat="41.762089" lon="1.863711">
        <ele>269.13483</ele>
        <time>2021-07-02T13:17:41Z</time>
      </trkpt>
      <trkpt lat="41.761948" lon="1.863356">
        <ele>269.41040</ele>
        <time>2021-07-02T13:17:42Z</time>
      </trkpt>
      <trkpt lat="41.761803" lon="1.863013">
        <ele>269.03223</ele>
        <time>2021-07-02T13:17:43Z</time>
      </trkpt>
      <trkpt lat="41.761669" lon="1.862700">
        <ele>268.60449</ele>
        <time>2021-07-02T13:17:44Z</time>
      </trkpt>
      <trkpt lat="41.761517" lon="1.862359">
        <ele>268.20435</ele>
        <time>2021-07-02T13:17:45Z</time>
      </trkpt>
      <trkpt lat="41.761353" lon="1.862020">
        <ele>268.73083</ele>
        <time>2021-07-02T13:17:46Z</time>
      </trkpt>
      <trkpt lat="41.761185" lon="1.861675">
        <ele>267.78961</ele>
        <time>2021-07-02T13:17:47Z</time>
      </trkpt>
      <trkpt lat="41.760998" lon="1.861332">
        <ele>267.84973</ele>
        <time>2021-07-02T13:17:48Z</time>
      </trkpt>
      <trkpt lat="41.760818" lon="1.861005">
        <ele>268.16571</ele>
        <time>2021-07-02T13:17:49Z</time>
      </trkpt>
      <trkpt lat="41.760612" lon="1.860640">
        <ele>270.27283</ele>
        <time>2021-07-02T13:17:50Z</time>
      </trkpt>
      <trkpt lat="41.760395" lon="1.860286">
        <ele>270.90381</ele>
        <time>2021-07-02T13:17:51Z</time>
      </trkpt>
      <trkpt lat="41.760185" lon="1.859921">
        <ele>271.41907</ele>
        <time>2021-07-02T13:17:52Z</time>
      </trkpt>
      <trkpt lat="41.759975" lon="1.859553">
        <ele>270.66681</ele>
        <time>2021-07-02T13:17:53Z</time>
      </trkpt>
      <trkpt lat="41.759800" lon="1.859262">
        <ele>270.42456</ele>
        <time>2021-07-02T13:17:54Z</time>
      </trkpt>
      <trkpt lat="41.759605" lon="1.858949">
        <ele>270.23682</ele>
        <time>2021-07-02T13:17:55Z</time>
      </trkpt>
      <trkpt lat="41.759418" lon="1.858652">
        <ele>270.01294</ele>
        <time>2021-07-02T13:17:56Z</time>
      </trkpt>
      <trkpt lat="41.759220" lon="1.858347">
        <ele>269.34717</ele>
        <time>2021-07-02T13:17:57Z</time>
      </trkpt>
      <trkpt lat="41.759010" lon="1.858046">
        <ele>269.63708</ele>
        <time>2021-07-02T13:17:58Z</time>
      </trkpt>
      <trkpt lat="41.759010" lon="1.858046">
        <ele>267.94141</ele>
        <time>2021-07-02T13:17:59Z</time>
      </trkpt>
      <trkpt lat="41.758816" lon="1.857776">
        <ele>267.77985</ele>
        <time>2021-07-02T13:18:00Z</time>
      </trkpt>
      <trkpt lat="41.758625" lon="1.857500">
        <ele>266.84912</ele>
        <time>2021-07-02T13:18:01Z</time>
      </trkpt>
      <trkpt lat="41.758438" lon="1.857210">
        <ele>266.13446</ele>
        <time>2021-07-02T13:18:02Z</time>
      </trkpt>
      <trkpt lat="41.758236" lon="1.856893">
        <ele>265.97888</ele>
        <time>2021-07-02T13:18:03Z</time>
      </trkpt>
      <trkpt lat="41.758038" lon="1.856585">
        <ele>265.99622</ele>
        <time>2021-07-02T13:18:04Z</time>
      </trkpt>
      <trkpt lat="41.757839" lon="1.856278">
        <ele>265.70972</ele>
        <time>2021-07-02T13:18:05Z</time>
      </trkpt>
      <trkpt lat="41.757648" lon="1.855974">
        <ele>267.32568</ele>
        <time>2021-07-02T13:18:06Z</time>
      </trkpt>
      <trkpt lat="41.757458" lon="1.855676">
        <ele>267.78467</ele>
        <time>2021-07-02T13:18:07Z</time>
      </trkpt>
      <trkpt lat="41.757271" lon="1.855379">
        <ele>268.60596</ele>
        <time>2021-07-02T13:18:08Z</time>
      </trkpt>
      <trkpt lat="41.757072" lon="1.855069">
        <ele>269.13300</ele>
        <time>2021-07-02T13:18:09Z</time>
      </trkpt>
      <trkpt lat="41.756866" lon="1.854744">
        <ele>269.82587</ele>
        <time>2021-07-02T13:18:10Z</time>
      </trkpt>
      <trkpt lat="41.756660" lon="1.854419">
        <ele>269.57605</ele>
        <time>2021-07-02T13:18:11Z</time>
      </trkpt>
      <trkpt lat="41.756462" lon="1.854109">
        <ele>270.69250</ele>
        <time>2021-07-02T13:18:12Z</time>
      </trkpt>
      <trkpt lat="41.756245" lon="1.853778">
        <ele>271.63660</ele>
        <time>2021-07-02T13:18:13Z</time>
      </trkpt>
      <trkpt lat="41.756054" lon="1.853458">
        <ele>272.44031</ele>
        <time>2021-07-02T13:18:14Z</time>
      </trkpt>
      <trkpt lat="41.755859" lon="1.853100">
        <ele>273.94897</ele>
        <time>2021-07-02T13:18:15Z</time>
      </trkpt>
      <trkpt lat="41.755676" lon="1.852722">
        <ele>275.61285</ele>
        <time>2021-07-02T13:18:16Z</time>
      </trkpt>
      <trkpt lat="41.755524" lon="1.852369">
        <ele>276.08179</ele>
        <time>2021-07-02T13:18:17Z</time>
      </trkpt>
      <trkpt lat="41.755524" lon="1.852369">
        <ele>277.51001</ele>
        <time>2021-07-02T13:18:18Z</time>
      </trkpt>
      <trkpt lat="41.755383" lon="1.852014">
        <ele>278.90271</ele>
        <time>2021-07-02T13:18:19Z</time>
      </trkpt>
      <trkpt lat="41.755161" lon="1.851245">
        <ele>280.83472</ele>
        <time>2021-07-02T13:18:20Z</time>
      </trkpt>
      <trkpt lat="41.755074" lon="1.850896">
        <ele>282.57562</ele>
        <time>2021-07-02T13:18:21Z</time>
      </trkpt>
      <trkpt lat="41.755074" lon="1.850896">
        <ele>283.55585</ele>
        <time>2021-07-02T13:18:22Z</time>
      </trkpt>
      <trkpt lat="41.754967" lon="1.850432">
        <ele>284.77197</ele>
        <time>2021-07-02T13:18:23Z</time>
      </trkpt>
      <trkpt lat="41.754887" lon="1.850067">
        <ele>285.89441</ele>
        <time>2021-07-02T13:18:24Z</time>
      </trkpt>
      <trkpt lat="41.754795" lon="1.849665">
        <ele>287.34320</ele>
        <time>2021-07-02T13:18:25Z</time>
      </trkpt>
      <trkpt lat="41.754707" lon="1.849298">
        <ele>288.50403</ele>
        <time>2021-07-02T13:18:26Z</time>
      </trkpt>
      <trkpt lat="41.754612" lon="1.848950">
        <ele>289.60077</ele>
        <time>2021-07-02T13:18:27Z</time>
      </trkpt>
      <trkpt lat="41.754498" lon="1.848581">
        <ele>290.16101</ele>
        <time>2021-07-02T13:18:28Z</time>
      </trkpt>
      <trkpt lat="41.754375" lon="1.848221">
        <ele>291.04724</ele>
        <time>2021-07-02T13:18:29Z</time>
      </trkpt>
      <trkpt lat="41.754250" lon="1.847863">
        <ele>291.51807</ele>
        <time>2021-07-02T13:18:30Z</time>
      </trkpt>
      <trkpt lat="41.754112" lon="1.847530">
        <ele>291.68237</ele>
        <time>2021-07-02T13:18:31Z</time>
      </trkpt>
      <trkpt lat="41.753960" lon="1.847175">
        <ele>291.86011</ele>
        <time>2021-07-02T13:18:32Z</time>
      </trkpt>
      <trkpt lat="41.753830" lon="1.846864">
        <ele>292.76630</ele>
        <time>2021-07-02T13:18:33Z</time>
      </trkpt>
      <trkpt lat="41.753681" lon="1.846561">
        <ele>293.16431</ele>
        <time>2021-07-02T13:18:34Z</time>
      </trkpt>
      <trkpt lat="41.753513" lon="1.846233">
        <ele>293.58606</ele>
        <time>2021-07-02T13:18:35Z</time>
      </trkpt>
      <trkpt lat="41.753513" lon="1.846233">
        <ele>294.69141</ele>
        <time>2021-07-02T13:18:36Z</time>
      </trkpt>
      <trkpt lat="41.753357" lon="1.845926">
        <ele>294.73254</ele>
        <time>2021-07-02T13:18:37Z</time>
      </trkpt>
      <trkpt lat="41.753216" lon="1.845658">
        <ele>294.82117</ele>
        <time>2021-07-02T13:18:38Z</time>
      </trkpt>
      <trkpt lat="41.753071" lon="1.845375">
        <ele>295.13477</ele>
        <time>2021-07-02T13:18:39Z</time>
      </trkpt>
      <trkpt lat="41.752934" lon="1.845112">
        <ele>295.73279</ele>
        <time>2021-07-02T13:18:40Z</time>
      </trkpt>
      <trkpt lat="41.752789" lon="1.844832">
        <ele>295.45520</ele>
        <time>2021-07-02T13:18:41Z</time>
      </trkpt>
      <trkpt lat="41.752636" lon="1.844538">
        <ele>295.52356</ele>
        <time>2021-07-02T13:18:42Z</time>
      </trkpt>
      <trkpt lat="41.752605" lon="1.844480">
        <ele>295.51996</ele>
        <time>2021-07-02T13:18:43Z</time>
      </trkpt>
      <trkpt lat="41.752510" lon="1.844180">
        <ele>295.71545</ele>
        <time>2021-07-02T13:18:44Z</time>
      </trkpt>
      <trkpt lat="41.752274" lon="1.843614">
        <ele>295.39752</ele>
        <time>2021-07-02T13:18:45Z</time>
      </trkpt>
      <trkpt lat="41.752159" lon="1.843329">
        <ele>295.38757</ele>
        <time>2021-07-02T13:18:46Z</time>
      </trkpt>
      <trkpt lat="41.752045" lon="1.843021">
        <ele>295.46826</ele>
        <time>2021-07-02T13:18:47Z</time>
      </trkpt>
      <trkpt lat="41.751957" lon="1.842738">
        <ele>295.33630</ele>
        <time>2021-07-02T13:18:48Z</time>
      </trkpt>
      <trkpt lat="41.751701" lon="1.842459">
        <ele>295.05542</ele>
        <time>2021-07-02T13:18:49Z</time>
      </trkpt>
      <trkpt lat="41.751564" lon="1.842125">
        <ele>295.08325</ele>
        <time>2021-07-02T13:18:50Z</time>
      </trkpt>
      <trkpt lat="41.751446" lon="1.841807">
        <ele>293.50629</ele>
        <time>2021-07-02T13:18:51Z</time>
      </trkpt>
      <trkpt lat="41.751312" lon="1.841452">
        <ele>292.28064</ele>
        <time>2021-07-02T13:18:52Z</time>
      </trkpt>
      <trkpt lat="41.751194" lon="1.841033">
        <ele>291.84723</ele>
        <time>2021-07-02T13:18:53Z</time>
      </trkpt>
      <trkpt lat="41.751095" lon="1.840727">
        <ele>291.42065</ele>
        <time>2021-07-02T13:18:54Z</time>
      </trkpt>
      <trkpt lat="41.751095" lon="1.840727">
        <ele>291.21753</ele>
        <time>2021-07-02T13:18:55Z</time>
      </trkpt>
      <trkpt lat="41.750938" lon="1.840256">
        <ele>290.48035</ele>
        <time>2021-07-02T13:18:56Z</time>
      </trkpt>
      <trkpt lat="41.750835" lon="1.839956">
        <ele>290.60034</ele>
        <time>2021-07-02T13:18:57Z</time>
      </trkpt>
      <trkpt lat="41.750671" lon="1.839459">
        <ele>290.58459</ele>
        <time>2021-07-02T13:18:58Z</time>
      </trkpt>
      <trkpt lat="41.750534" lon="1.839028">
        <ele>290.31848</ele>
        <time>2021-07-02T13:18:59Z</time>
      </trkpt>
      <trkpt lat="41.750408" lon="1.838618">
        <ele>289.61340</ele>
        <time>2021-07-02T13:19:00Z</time>
      </trkpt>
      <trkpt lat="41.750286" lon="1.838212">
        <ele>289.32513</ele>
        <time>2021-07-02T13:19:01Z</time>
      </trkpt>
      <trkpt lat="41.750149" lon="1.837784">
        <ele>288.13416</ele>
        <time>2021-07-02T13:19:02Z</time>
      </trkpt>
      <trkpt lat="41.750004" lon="1.837364">
        <ele>287.14307</ele>
        <time>2021-07-02T13:19:03Z</time>
      </trkpt>
      <trkpt lat="41.749847" lon="1.836962">
        <ele>285.14880</ele>
        <time>2021-07-02T13:19:04Z</time>
      </trkpt>
      <trkpt lat="41.749672" lon="1.836553">
        <ele>282.35681</ele>
        <time>2021-07-02T13:19:05Z</time>
      </trkpt>
      <trkpt lat="41.749489" lon="1.836173">
        <ele>281.51196</ele>
        <time>2021-07-02T13:19:06Z</time>
      </trkpt>
      <trkpt lat="41.749290" lon="1.835795">
        <ele>280.83252</ele>
        <time>2021-07-02T13:19:07Z</time>
      </trkpt>
      <trkpt lat="41.749077" lon="1.835431">
        <ele>281.41211</ele>
        <time>2021-07-02T13:19:08Z</time>
      </trkpt>
      <trkpt lat="41.748859" lon="1.835094">
        <ele>280.25824</ele>
        <time>2021-07-02T13:19:09Z</time>
      </trkpt>
      <trkpt lat="41.748646" lon="1.834791">
        <ele>279.52460</ele>
        <time>2021-07-02T13:19:10Z</time>
      </trkpt>
      <trkpt lat="41.748402" lon="1.834481">
        <ele>279.12756</ele>
        <time>2021-07-02T13:19:11Z</time>
      </trkpt>
      <trkpt lat="41.748192" lon="1.834219">
        <ele>279.56976</ele>
        <time>2021-07-02T13:19:12Z</time>
      </trkpt>
      <trkpt lat="41.747971" lon="1.833982">
        <ele>279.13562</ele>
        <time>2021-07-02T13:19:13Z</time>
      </trkpt>
      <trkpt lat="41.747730" lon="1.833745">
        <ele>278.84937</ele>
        <time>2021-07-02T13:19:14Z</time>
      </trkpt>
      <trkpt lat="41.747501" lon="1.833518">
        <ele>278.64758</ele>
        <time>2021-07-02T13:19:15Z</time>
      </trkpt>
      <trkpt lat="41.747299" lon="1.833340">
        <ele>278.89502</ele>
        <time>2021-07-02T13:19:16Z</time>
      </trkpt>
      <trkpt lat="41.747032" lon="1.833099">
        <ele>278.83789</ele>
        <time>2021-07-02T13:19:17Z</time>
      </trkpt>
      <trkpt lat="41.746780" lon="1.832869">
        <ele>278.77039</ele>
        <time>2021-07-02T13:19:18Z</time>
      </trkpt>
      <trkpt lat="41.746552" lon="1.832655">
        <ele>278.60437</ele>
        <time>2021-07-02T13:19:19Z</time>
      </trkpt>
      <trkpt lat="41.746552" lon="1.832655">
        <ele>278.63062</ele>
        <time>2021-07-02T13:19:20Z</time>
      </trkpt>
      <trkpt lat="41.746021" lon="1.832109">
        <ele>277.98279</ele>
        <time>2021-07-02T13:19:21Z</time>
      </trkpt>
      <trkpt lat="41.746021" lon="1.832109">
        <ele>277.45947</ele>
        <time>2021-07-02T13:19:22Z</time>
      </trkpt>
      <trkpt lat="41.745770" lon="1.831824">
        <ele>277.68903</ele>
        <time>2021-07-02T13:19:23Z</time>
      </trkpt>
      <trkpt lat="41.745548" lon="1.831550">
        <ele>276.89349</ele>
        <time>2021-07-02T13:19:24Z</time>
      </trkpt>
      <trkpt lat="41.745361" lon="1.831309">
        <ele>276.10315</ele>
        <time>2021-07-02T13:19:25Z</time>
      </trkpt>
      <trkpt lat="41.745136" lon="1.830994">
        <ele>275.30542</ele>
        <time>2021-07-02T13:19:26Z</time>
      </trkpt>
      <trkpt lat="41.744938" lon="1.830696">
        <ele>274.61035</ele>
        <time>2021-07-02T13:19:27Z</time>
      </trkpt>
      <trkpt lat="41.744747" lon="1.830389">
        <ele>273.69470</ele>
        <time>2021-07-02T13:19:28Z</time>
      </trkpt>
      <trkpt lat="41.744568" lon="1.830073">
        <ele>273.01123</ele>
        <time>2021-07-02T13:19:29Z</time>
      </trkpt>
      <trkpt lat="41.744404" lon="1.829785">
        <ele>272.41248</ele>
        <time>2021-07-02T13:19:30Z</time>
      </trkpt>
      <trkpt lat="41.744263" lon="1.829504">
        <ele>271.75195</ele>
        <time>2021-07-02T13:19:31Z</time>
      </trkpt>
      <trkpt lat="41.744122" lon="1.829199">
        <ele>270.46130</ele>
        <time>2021-07-02T13:19:32Z</time>
      </trkpt>
      <trkpt lat="41.743965" lon="1.828872">
        <ele>269.40942</ele>
        <time>2021-07-02T13:19:33Z</time>
      </trkpt>
      <trkpt lat="41.743816" lon="1.828559">
        <ele>268.15332</ele>
        <time>2021-07-02T13:19:34Z</time>
      </trkpt>
      <trkpt lat="41.743671" lon="1.828236">
        <ele>266.72321</ele>
        <time>2021-07-02T13:19:35Z</time>
      </trkpt>
      <trkpt lat="41.743492" lon="1.827830">
        <ele>265.71936</ele>
        <time>2021-07-02T13:19:36Z</time>
      </trkpt>
      <trkpt lat="41.743313" lon="1.827417">
        <ele>263.97308</ele>
        <time>2021-07-02T13:19:37Z</time>
      </trkpt>
      <trkpt lat="41.743107" lon="1.826942">
        <ele>262.33240</ele>
        <time>2021-07-02T13:19:38Z</time>
      </trkpt>
      <trkpt lat="41.742912" lon="1.826508">
        <ele>260.91376</ele>
        <time>2021-07-02T13:19:39Z</time>
      </trkpt>
      <trkpt lat="41.742764" lon="1.826165">
        <ele>259.41199</ele>
        <time>2021-07-02T13:19:40Z</time>
      </trkpt>
      <trkpt lat="41.742569" lon="1.825714">
        <ele>257.98145</ele>
        <time>2021-07-02T13:19:41Z</time>
      </trkpt>
      <trkpt lat="41.742413" lon="1.825345">
        <ele>257.05725</ele>
        <time>2021-07-02T13:19:42Z</time>
      </trkpt>
      <trkpt lat="41.742245" lon="1.824941">
        <ele>256.12610</ele>
        <time>2021-07-02T13:19:43Z</time>
      </trkpt>
      <trkpt lat="41.742100" lon="1.824613">
        <ele>255.49304</ele>
        <time>2021-07-02T13:19:44Z</time>
      </trkpt>
      <trkpt lat="41.741920" lon="1.824206">
        <ele>255.80859</ele>
        <time>2021-07-02T13:19:45Z</time>
      </trkpt>
      <trkpt lat="41.741920" lon="1.824206">
        <ele>255.52936</ele>
        <time>2021-07-02T13:19:46Z</time>
      </trkpt>
      <trkpt lat="41.741745" lon="1.823814">
        <ele>255.52820</ele>
        <time>2021-07-02T13:19:47Z</time>
      </trkpt>
      <trkpt lat="41.741577" lon="1.823430">
        <ele>255.30090</ele>
        <time>2021-07-02T13:19:48Z</time>
      </trkpt>
      <trkpt lat="41.741413" lon="1.823063">
        <ele>255.07721</ele>
        <time>2021-07-02T13:19:49Z</time>
      </trkpt>
      <trkpt lat="41.741249" lon="1.822695">
        <ele>255.23224</ele>
        <time>2021-07-02T13:19:50Z</time>
      </trkpt>
      <trkpt lat="41.741093" lon="1.822339">
        <ele>255.50659</ele>
        <time>2021-07-02T13:19:51Z</time>
      </trkpt>
      <trkpt lat="41.740936" lon="1.821980">
        <ele>255.02551</ele>
        <time>2021-07-02T13:19:52Z</time>
      </trkpt>
      <trkpt lat="41.740799" lon="1.821645">
        <ele>254.42603</ele>
        <time>2021-07-02T13:19:53Z</time>
      </trkpt>
      <trkpt lat="41.740681" lon="1.821315">
        <ele>253.61255</ele>
        <time>2021-07-02T13:19:54Z</time>
      </trkpt>
      <trkpt lat="41.740574" lon="1.820978">
        <ele>252.86682</ele>
        <time>2021-07-02T13:19:55Z</time>
      </trkpt>
      <trkpt lat="41.740471" lon="1.820600">
        <ele>251.82263</ele>
        <time>2021-07-02T13:19:56Z</time>
      </trkpt>
      <trkpt lat="41.740402" lon="1.820236">
        <ele>250.47845</ele>
        <time>2021-07-02T13:19:57Z</time>
      </trkpt>
      <trkpt lat="41.740345" lon="1.819833">
        <ele>249.28955</ele>
        <time>2021-07-02T13:19:58Z</time>
      </trkpt>
      <trkpt lat="41.740318" lon="1.819429">
        <ele>248.47382</ele>
        <time>2021-07-02T13:19:59Z</time>
      </trkpt>
      <trkpt lat="41.740307" lon="1.819019">
        <ele>245.64978</ele>
        <time>2021-07-02T13:20:00Z</time>
      </trkpt>
      <trkpt lat="41.740311" lon="1.818556">
        <ele>244.97717</ele>
        <time>2021-07-02T13:20:01Z</time>
      </trkpt>
      <trkpt lat="41.740318" lon="1.818133">
        <ele>243.72357</ele>
        <time>2021-07-02T13:20:02Z</time>
      </trkpt>
      <trkpt lat="41.740322" lon="1.817713">
        <ele>243.41956</ele>
        <time>2021-07-02T13:20:03Z</time>
      </trkpt>
      <trkpt lat="41.740314" lon="1.817293">
        <ele>243.13092</ele>
        <time>2021-07-02T13:20:04Z</time>
      </trkpt>
      <trkpt lat="41.740276" lon="1.816858">
        <ele>242.05518</ele>
        <time>2021-07-02T13:20:05Z</time>
      </trkpt>
      <trkpt lat="41.740223" lon="1.816441">
        <ele>240.61542</ele>
        <time>2021-07-02T13:20:06Z</time>
      </trkpt>
      <trkpt lat="41.740147" lon="1.815961">
        <ele>239.67334</ele>
        <time>2021-07-02T13:20:07Z</time>
      </trkpt>
      <trkpt lat="41.740074" lon="1.815537">
        <ele>239.20557</ele>
        <time>2021-07-02T13:20:08Z</time>
      </trkpt>
      <trkpt lat="41.739998" lon="1.815087">
        <ele>238.90710</ele>
        <time>2021-07-02T13:20:09Z</time>
      </trkpt>
      <trkpt lat="41.739925" lon="1.814656">
        <ele>238.28601</ele>
        <time>2021-07-02T13:20:10Z</time>
      </trkpt>
      <trkpt lat="41.739845" lon="1.814199">
        <ele>238.08936</ele>
        <time>2021-07-02T13:20:11Z</time>
      </trkpt>
      <trkpt lat="41.739796" lon="1.813900">
        <ele>237.83679</ele>
        <time>2021-07-02T13:20:12Z</time>
      </trkpt>
      <trkpt lat="41.739792" lon="1.813761">
        <ele>237.70215</ele>
        <time>2021-07-02T13:20:13Z</time>
      </trkpt>
      <trkpt lat="41.739693" lon="1.812853">
        <ele>236.70728</ele>
        <time>2021-07-02T13:20:14Z</time>
      </trkpt>
      <trkpt lat="41.739643" lon="1.812464">
        <ele>235.45886</ele>
        <time>2021-07-02T13:20:15Z</time>
      </trkpt>
      <trkpt lat="41.739643" lon="1.812464">
        <ele>235.56348</ele>
        <time>2021-07-02T13:20:16Z</time>
      </trkpt>
      <trkpt lat="41.739578" lon="1.811969">
        <ele>235.12958</ele>
        <time>2021-07-02T13:20:17Z</time>
      </trkpt>
      <trkpt lat="41.739506" lon="1.811572">
        <ele>235.40601</ele>
        <time>2021-07-02T13:20:18Z</time>
      </trkpt>
      <trkpt lat="41.739426" lon="1.811144">
        <ele>234.38824</ele>
        <time>2021-07-02T13:20:19Z</time>
      </trkpt>
      <trkpt lat="41.739349" lon="1.810755">
        <ele>233.83923</ele>
        <time>2021-07-02T13:20:20Z</time>
      </trkpt>
      <trkpt lat="41.739243" lon="1.810347">
        <ele>231.89337</ele>
        <time>2021-07-02T13:20:21Z</time>
      </trkpt>
      <trkpt lat="41.739189" lon="1.810142">
        <ele>230.86121</ele>
        <time>2021-07-02T13:20:22Z</time>
      </trkpt>
      <trkpt lat="41.739113" lon="1.809826">
        <ele>230.50830</ele>
        <time>2021-07-02T13:20:23Z</time>
      </trkpt>
      <trkpt lat="41.738773" lon="1.809185">
        <ele>231.11469</ele>
        <time>2021-07-02T13:20:24Z</time>
      </trkpt>
      <trkpt lat="41.738625" lon="1.808800">
        <ele>231.63586</ele>
        <time>2021-07-02T13:20:25Z</time>
      </trkpt>
      <trkpt lat="41.738430" lon="1.808447">
        <ele>230.83044</ele>
        <time>2021-07-02T13:20:26Z</time>
      </trkpt>
      <trkpt lat="41.738239" lon="1.808099">
        <ele>230.24414</ele>
        <time>2021-07-02T13:20:27Z</time>
      </trkpt>
      <trkpt lat="41.738029" lon="1.807765">
        <ele>228.69946</ele>
        <time>2021-07-02T13:20:28Z</time>
      </trkpt>
      <trkpt lat="41.737846" lon="1.807472">
        <ele>228.46265</ele>
        <time>2021-07-02T13:20:29Z</time>
      </trkpt>
      <trkpt lat="41.737625" lon="1.807133">
        <ele>227.90613</ele>
        <time>2021-07-02T13:20:30Z</time>
      </trkpt>
      <trkpt lat="41.737408" lon="1.806792">
        <ele>228.27234</ele>
        <time>2021-07-02T13:20:31Z</time>
      </trkpt>
      <trkpt lat="41.737186" lon="1.806453">
        <ele>228.49713</ele>
        <time>2021-07-02T13:20:32Z</time>
      </trkpt>
      <trkpt lat="41.736938" lon="1.806084">
        <ele>230.79175</ele>
        <time>2021-07-02T13:20:33Z</time>
      </trkpt>
      <trkpt lat="41.736938" lon="1.806084">
        <ele>231.95752</ele>
        <time>2021-07-02T13:20:34Z</time>
      </trkpt>
      <trkpt lat="41.736713" lon="1.805746">
        <ele>231.66040</ele>
        <time>2021-07-02T13:20:35Z</time>
      </trkpt>
      <trkpt lat="41.736465" lon="1.805388">
        <ele>232.66077</ele>
        <time>2021-07-02T13:20:36Z</time>
      </trkpt>
      <trkpt lat="41.736217" lon="1.805059">
        <ele>234.50806</ele>
        <time>2021-07-02T13:20:37Z</time>
      </trkpt>
      <trkpt lat="41.735970" lon="1.804723">
        <ele>235.47925</ele>
        <time>2021-07-02T13:20:38Z</time>
      </trkpt>
      <trkpt lat="41.735802" lon="1.804523">
        <ele>236.27362</ele>
        <time>2021-07-02T13:20:39Z</time>
      </trkpt>
      <trkpt lat="41.735649" lon="1.804270">
        <ele>236.96112</ele>
        <time>2021-07-02T13:20:40Z</time>
      </trkpt>
      <trkpt lat="41.735271" lon="1.803807">
        <ele>239.11609</ele>
        <time>2021-07-02T13:20:41Z</time>
      </trkpt>
      <trkpt lat="41.735035" lon="1.803513">
        <ele>240.26996</ele>
        <time>2021-07-02T13:20:42Z</time>
      </trkpt>
      <trkpt lat="41.734657" lon="1.803353">
        <ele>242.98187</ele>
        <time>2021-07-02T13:20:43Z</time>
      </trkpt>
      <trkpt lat="41.734367" lon="1.803138">
        <ele>244.89825</ele>
        <time>2021-07-02T13:20:44Z</time>
      </trkpt>
      <trkpt lat="41.734039" lon="1.802941">
        <ele>246.41650</ele>
        <time>2021-07-02T13:20:45Z</time>
      </trkpt>
      <trkpt lat="41.733700" lon="1.802765">
        <ele>246.40613</ele>
        <time>2021-07-02T13:20:46Z</time>
      </trkpt>
      <trkpt lat="41.733341" lon="1.802620">
        <ele>247.93311</ele>
        <time>2021-07-02T13:20:47Z</time>
      </trkpt>
      <trkpt lat="41.733051" lon="1.802504">
        <ele>248.83618</ele>
        <time>2021-07-02T13:20:48Z</time>
      </trkpt>
      <trkpt lat="41.733051" lon="1.802504">
        <ele>249.34735</ele>
        <time>2021-07-02T13:20:49Z</time>
      </trkpt>
      <trkpt lat="41.732464" lon="1.802257">
        <ele>249.87927</ele>
        <time>2021-07-02T13:20:50Z</time>
      </trkpt>
      <trkpt lat="41.732464" lon="1.802257">
        <ele>249.47229</ele>
        <time>2021-07-02T13:20:51Z</time>
      </trkpt>
      <trkpt lat="41.732159" lon="1.802089">
        <ele>249.58923</ele>
        <time>2021-07-02T13:20:52Z</time>
      </trkpt>
      <trkpt lat="41.731606" lon="1.801666">
        <ele>249.84863</ele>
        <time>2021-07-02T13:20:53Z</time>
      </trkpt>
      <trkpt lat="41.731606" lon="1.801666">
        <ele>249.18188</ele>
        <time>2021-07-02T13:20:54Z</time>
      </trkpt>
      <trkpt lat="41.731361" lon="1.801429">
        <ele>248.69128</ele>
        <time>2021-07-02T13:20:55Z</time>
      </trkpt>
      <trkpt lat="41.731144" lon="1.801156">
        <ele>249.00940</ele>
        <time>2021-07-02T13:20:56Z</time>
      </trkpt>
      <trkpt lat="41.730900" lon="1.800808">
        <ele>249.66394</ele>
        <time>2021-07-02T13:20:57Z</time>
      </trkpt>
      <trkpt lat="41.730686" lon="1.800447">
        <ele>251.34808</ele>
        <time>2021-07-02T13:20:58Z</time>
      </trkpt>
      <trkpt lat="41.730495" lon="1.800049">
        <ele>252.98694</ele>
        <time>2021-07-02T13:20:59Z</time>
      </trkpt>
      <trkpt lat="41.730343" lon="1.799668">
        <ele>254.06067</ele>
        <time>2021-07-02T13:21:00Z</time>
      </trkpt>
      <trkpt lat="41.730217" lon="1.799252">
        <ele>254.83496</ele>
        <time>2021-07-02T13:21:01Z</time>
      </trkpt>
      <trkpt lat="41.730118" lon="1.798811">
        <ele>255.68256</ele>
        <time>2021-07-02T13:21:02Z</time>
      </trkpt>
      <trkpt lat="41.730042" lon="1.798345">
        <ele>257.76611</ele>
        <time>2021-07-02T13:21:03Z</time>
      </trkpt>
      <trkpt lat="41.729958" lon="1.797829">
        <ele>259.19153</ele>
        <time>2021-07-02T13:21:04Z</time>
      </trkpt>
      <trkpt lat="41.729877" lon="1.797301">
        <ele>260.05469</ele>
        <time>2021-07-02T13:21:05Z</time>
      </trkpt>
      <trkpt lat="41.729786" lon="1.796778">
        <ele>258.52881</ele>
        <time>2021-07-02T13:21:06Z</time>
      </trkpt>
      <trkpt lat="41.729702" lon="1.796282">
        <ele>259.86902</ele>
        <time>2021-07-02T13:21:07Z</time>
      </trkpt>
      <trkpt lat="41.729626" lon="1.795826">
        <ele>260.82617</ele>
        <time>2021-07-02T13:21:08Z</time>
      </trkpt>
      <trkpt lat="41.729546" lon="1.795326">
        <ele>260.56970</ele>
        <time>2021-07-02T13:21:09Z</time>
      </trkpt>
      <trkpt lat="41.729477" lon="1.794914">
        <ele>260.56665</ele>
        <time>2021-07-02T13:21:10Z</time>
      </trkpt>
      <trkpt lat="41.729404" lon="1.794494">
        <ele>260.77307</ele>
        <time>2021-07-02T13:21:11Z</time>
      </trkpt>
      <trkpt lat="41.729340" lon="1.794060">
        <ele>260.36877</ele>
        <time>2021-07-02T13:21:12Z</time>
      </trkpt>
      <trkpt lat="41.729282" lon="1.793669">
        <ele>260.61658</ele>
        <time>2021-07-02T13:21:13Z</time>
      </trkpt>
      <trkpt lat="41.729237" lon="1.793227">
        <ele>260.41479</ele>
        <time>2021-07-02T13:21:14Z</time>
      </trkpt>
      <trkpt lat="41.729210" lon="1.792836">
        <ele>260.46948</ele>
        <time>2021-07-02T13:21:15Z</time>
      </trkpt>
      <trkpt lat="41.729202" lon="1.792442">
        <ele>260.01312</ele>
        <time>2021-07-02T13:21:16Z</time>
      </trkpt>
      <trkpt lat="41.729202" lon="1.792442">
        <ele>261.41315</ele>
        <time>2021-07-02T13:21:17Z</time>
      </trkpt>
      <trkpt lat="41.729225" lon="1.792008">
        <ele>261.08582</ele>
        <time>2021-07-02T13:21:18Z</time>
      </trkpt>
      <trkpt lat="41.729248" lon="1.791626">
        <ele>262.68567</ele>
        <time>2021-07-02T13:21:19Z</time>
      </trkpt>
      <trkpt lat="41.729332" lon="1.791084">
        <ele>264.60272</ele>
        <time>2021-07-02T13:21:20Z</time>
      </trkpt>
      <trkpt lat="41.729427" lon="1.790720">
        <ele>265.25452</ele>
        <time>2021-07-02T13:21:21Z</time>
      </trkpt>
      <trkpt lat="41.729561" lon="1.790284">
        <ele>265.22565</ele>
        <time>2021-07-02T13:21:22Z</time>
      </trkpt>
      <trkpt lat="41.729698" lon="1.789901">
        <ele>264.81940</ele>
        <time>2021-07-02T13:21:23Z</time>
      </trkpt>
      <trkpt lat="41.729866" lon="1.789537">
        <ele>264.67627</ele>
        <time>2021-07-02T13:21:24Z</time>
      </trkpt>
      <trkpt lat="41.730022" lon="1.789200">
        <ele>266.79657</ele>
        <time>2021-07-02T13:21:25Z</time>
      </trkpt>
      <trkpt lat="41.730186" lon="1.788872">
        <ele>268.54980</ele>
        <time>2021-07-02T13:21:26Z</time>
      </trkpt>
      <trkpt lat="41.730350" lon="1.788539">
        <ele>270.07031</ele>
        <time>2021-07-02T13:21:27Z</time>
      </trkpt>
      <trkpt lat="41.730511" lon="1.788207">
        <ele>270.13074</ele>
        <time>2021-07-02T13:21:28Z</time>
      </trkpt>
      <trkpt lat="41.730663" lon="1.787886">
        <ele>271.49280</ele>
        <time>2021-07-02T13:21:29Z</time>
      </trkpt>
      <trkpt lat="41.730827" lon="1.787546">
        <ele>272.95233</ele>
        <time>2021-07-02T13:21:30Z</time>
      </trkpt>
      <trkpt lat="41.730988" lon="1.787217">
        <ele>274.55066</ele>
        <time>2021-07-02T13:21:31Z</time>
      </trkpt>
      <trkpt lat="41.731167" lon="1.786848">
        <ele>277.03711</ele>
        <time>2021-07-02T13:21:32Z</time>
      </trkpt>
      <trkpt lat="41.731339" lon="1.786500">
        <ele>278.73242</ele>
        <time>2021-07-02T13:21:33Z</time>
      </trkpt>
      <trkpt lat="41.731503" lon="1.786160">
        <ele>281.70300</ele>
        <time>2021-07-02T13:21:34Z</time>
      </trkpt>
      <trkpt lat="41.731667" lon="1.785822">
        <ele>281.96381</ele>
        <time>2021-07-02T13:21:35Z</time>
      </trkpt>
      <trkpt lat="41.731834" lon="1.785501">
        <ele>283.89197</ele>
        <time>2021-07-02T13:21:36Z</time>
      </trkpt>
      <trkpt lat="41.731998" lon="1.785178">
        <ele>285.63892</ele>
        <time>2021-07-02T13:21:37Z</time>
      </trkpt>
      <trkpt lat="41.732159" lon="1.784867">
        <ele>286.73145</ele>
        <time>2021-07-02T13:21:38Z</time>
      </trkpt>
      <trkpt lat="41.732159" lon="1.784867">
        <ele>287.93018</ele>
        <time>2021-07-02T13:21:39Z</time>
      </trkpt>
      <trkpt lat="41.732311" lon="1.784570">
        <ele>289.54333</ele>
        <time>2021-07-02T13:21:40Z</time>
      </trkpt>
      <trkpt lat="41.732479" lon="1.784243">
        <ele>291.24951</ele>
        <time>2021-07-02T13:21:41Z</time>
      </trkpt>
      <trkpt lat="41.732681" lon="1.783844">
        <ele>292.73676</ele>
        <time>2021-07-02T13:21:42Z</time>
      </trkpt>
      <trkpt lat="41.732849" lon="1.783509">
        <ele>293.88611</ele>
        <time>2021-07-02T13:21:43Z</time>
      </trkpt>
      <trkpt lat="41.733017" lon="1.783169">
        <ele>294.36035</ele>
        <time>2021-07-02T13:21:44Z</time>
      </trkpt>
      <trkpt lat="41.733181" lon="1.782833">
        <ele>295.21191</ele>
        <time>2021-07-02T13:21:45Z</time>
      </trkpt>
      <trkpt lat="41.733345" lon="1.782503">
        <ele>296.84705</ele>
        <time>2021-07-02T13:21:46Z</time>
      </trkpt>
      <trkpt lat="41.733536" lon="1.782127">
        <ele>297.02899</ele>
        <time>2021-07-02T13:21:47Z</time>
      </trkpt>
      <trkpt lat="41.733723" lon="1.781749">
        <ele>298.29041</ele>
        <time>2021-07-02T13:21:48Z</time>
      </trkpt>
      <trkpt lat="41.733929" lon="1.781335">
        <ele>299.81189</ele>
        <time>2021-07-02T13:21:49Z</time>
      </trkpt>
      <trkpt lat="41.734131" lon="1.780932">
        <ele>301.00006</ele>
        <time>2021-07-02T13:21:50Z</time>
      </trkpt>
      <trkpt lat="41.734333" lon="1.780530">
        <ele>303.02191</ele>
        <time>2021-07-02T13:21:51Z</time>
      </trkpt>
      <trkpt lat="41.734531" lon="1.780130">
        <ele>302.34656</ele>
        <time>2021-07-02T13:21:52Z</time>
      </trkpt>
      <trkpt lat="41.734737" lon="1.779717">
        <ele>302.12927</ele>
        <time>2021-07-02T13:21:53Z</time>
      </trkpt>
      <trkpt lat="41.734932" lon="1.779323">
        <ele>302.23962</ele>
        <time>2021-07-02T13:21:54Z</time>
      </trkpt>
      <trkpt lat="41.735126" lon="1.778928">
        <ele>302.11536</ele>
        <time>2021-07-02T13:21:55Z</time>
      </trkpt>
      <trkpt lat="41.735325" lon="1.778534">
        <ele>301.96460</ele>
        <time>2021-07-02T13:21:56Z</time>
      </trkpt>
      <trkpt lat="41.735508" lon="1.778161">
        <ele>301.69751</ele>
        <time>2021-07-02T13:21:57Z</time>
      </trkpt>
      <trkpt lat="41.735703" lon="1.777766">
        <ele>302.41992</ele>
        <time>2021-07-02T13:21:58Z</time>
      </trkpt>
      <trkpt lat="41.735912" lon="1.777348">
        <ele>301.67926</ele>
        <time>2021-07-02T13:21:59Z</time>
      </trkpt>
      <trkpt lat="41.736084" lon="1.776975">
        <ele>300.99048</ele>
        <time>2021-07-02T13:22:00Z</time>
      </trkpt>
      <trkpt lat="41.736259" lon="1.776562">
        <ele>301.25806</ele>
        <time>2021-07-02T13:22:01Z</time>
      </trkpt>
      <trkpt lat="41.736389" lon="1.776166">
        <ele>300.94781</ele>
        <time>2021-07-02T13:22:02Z</time>
      </trkpt>
      <trkpt lat="41.736519" lon="1.775702">
        <ele>299.92120</ele>
        <time>2021-07-02T13:22:03Z</time>
      </trkpt>
      <trkpt lat="41.736607" lon="1.775288">
        <ele>299.33337</ele>
        <time>2021-07-02T13:22:04Z</time>
      </trkpt>
      <trkpt lat="41.736671" lon="1.774809">
        <ele>298.38684</ele>
        <time>2021-07-02T13:22:05Z</time>
      </trkpt>
      <trkpt lat="41.736706" lon="1.774376">
        <ele>296.23303</ele>
        <time>2021-07-02T13:22:06Z</time>
      </trkpt>
      <trkpt lat="41.736706" lon="1.774376">
        <ele>295.60217</ele>
        <time>2021-07-02T13:22:07Z</time>
      </trkpt>
      <trkpt lat="41.736713" lon="1.773937">
        <ele>294.13049</ele>
        <time>2021-07-02T13:22:08Z</time>
      </trkpt>
      <trkpt lat="41.736645" lon="1.773000">
        <ele>292.97339</ele>
        <time>2021-07-02T13:22:09Z</time>
      </trkpt>
      <trkpt lat="41.736645" lon="1.773000">
        <ele>291.22876</ele>
        <time>2021-07-02T13:22:10Z</time>
      </trkpt>
      <trkpt lat="41.736565" lon="1.772526">
        <ele>290.87317</ele>
        <time>2021-07-02T13:22:11Z</time>
      </trkpt>
      <trkpt lat="41.736465" lon="1.772102">
        <ele>290.48346</ele>
        <time>2021-07-02T13:22:12Z</time>
      </trkpt>
      <trkpt lat="41.736313" lon="1.771632">
        <ele>290.77533</ele>
        <time>2021-07-02T13:22:13Z</time>
      </trkpt>
      <trkpt lat="41.736149" lon="1.771214">
        <ele>291.03705</ele>
        <time>2021-07-02T13:22:14Z</time>
      </trkpt>
      <trkpt lat="41.735954" lon="1.770812">
        <ele>290.94885</ele>
        <time>2021-07-02T13:22:15Z</time>
      </trkpt>
      <trkpt lat="41.735748" lon="1.770443">
        <ele>291.28668</ele>
        <time>2021-07-02T13:22:16Z</time>
      </trkpt>
      <trkpt lat="41.735500" lon="1.770080">
        <ele>292.00598</ele>
        <time>2021-07-02T13:22:17Z</time>
      </trkpt>
      <trkpt lat="41.735237" lon="1.769762">
        <ele>294.03979</ele>
        <time>2021-07-02T13:22:18Z</time>
      </trkpt>
      <trkpt lat="41.734978" lon="1.769486">
        <ele>295.44080</ele>
        <time>2021-07-02T13:22:19Z</time>
      </trkpt>
      <trkpt lat="41.734707" lon="1.769197">
        <ele>296.92798</ele>
        <time>2021-07-02T13:22:20Z</time>
      </trkpt>
      <trkpt lat="41.734417" lon="1.768903">
        <ele>298.56659</ele>
        <time>2021-07-02T13:22:21Z</time>
      </trkpt>
      <trkpt lat="41.734100" lon="1.768595">
        <ele>299.34692</ele>
        <time>2021-07-02T13:22:22Z</time>
      </trkpt>
      <trkpt lat="41.733795" lon="1.768300">
        <ele>301.10559</ele>
        <time>2021-07-02T13:22:23Z</time>
      </trkpt>
      <trkpt lat="41.733501" lon="1.768015">
        <ele>303.03320</ele>
        <time>2021-07-02T13:22:24Z</time>
      </trkpt>
      <trkpt lat="41.733200" lon="1.767721">
        <ele>304.20203</ele>
        <time>2021-07-02T13:22:25Z</time>
      </trkpt>
      <trkpt lat="41.732918" lon="1.767447">
        <ele>304.71277</ele>
        <time>2021-07-02T13:22:26Z</time>
      </trkpt>
      <trkpt lat="41.732613" lon="1.767148">
        <ele>306.24384</ele>
        <time>2021-07-02T13:22:27Z</time>
      </trkpt>
      <trkpt lat="41.732311" lon="1.766844">
        <ele>307.86377</ele>
        <time>2021-07-02T13:22:28Z</time>
      </trkpt>
      <trkpt lat="41.732056" lon="1.766578">
        <ele>307.74634</ele>
        <time>2021-07-02T13:22:29Z</time>
      </trkpt>
      <trkpt lat="41.731781" lon="1.766293">
        <ele>307.32874</ele>
        <time>2021-07-02T13:22:30Z</time>
      </trkpt>
      <trkpt lat="41.731537" lon="1.765945">
        <ele>308.32617</ele>
        <time>2021-07-02T13:22:31Z</time>
      </trkpt>
      <trkpt lat="41.731331" lon="1.765581">
        <ele>309.11047</ele>
        <time>2021-07-02T13:22:32Z</time>
      </trkpt>
      <trkpt lat="41.731148" lon="1.765182">
        <ele>309.73633</ele>
        <time>2021-07-02T13:22:33Z</time>
      </trkpt>
      <trkpt lat="41.731148" lon="1.765182">
        <ele>310.33704</ele>
        <time>2021-07-02T13:22:34Z</time>
      </trkpt>
      <trkpt lat="41.730991" lon="1.764782">
        <ele>309.85535</ele>
        <time>2021-07-02T13:22:35Z</time>
      </trkpt>
      <trkpt lat="41.730782" lon="1.763997">
        <ele>309.65894</ele>
        <time>2021-07-02T13:22:36Z</time>
      </trkpt>
      <trkpt lat="41.730782" lon="1.763997">
        <ele>309.73834</ele>
        <time>2021-07-02T13:22:37Z</time>
      </trkpt>
      <trkpt lat="41.730713" lon="1.763558">
        <ele>308.67639</ele>
        <time>2021-07-02T13:22:38Z</time>
      </trkpt>
      <trkpt lat="41.730671" lon="1.763128">
        <ele>307.81354</ele>
        <time>2021-07-02T13:22:39Z</time>
      </trkpt>
      <trkpt lat="41.730644" lon="1.762710">
        <ele>307.85071</ele>
        <time>2021-07-02T13:22:40Z</time>
      </trkpt>
      <trkpt lat="41.730652" lon="1.762260">
        <ele>306.65735</ele>
        <time>2021-07-02T13:22:41Z</time>
      </trkpt>
      <trkpt lat="41.730663" lon="1.761784">
        <ele>305.08105</ele>
        <time>2021-07-02T13:22:42Z</time>
      </trkpt>
      <trkpt lat="41.730686" lon="1.761350">
        <ele>304.20221</ele>
        <time>2021-07-02T13:22:43Z</time>
      </trkpt>
      <trkpt lat="41.730713" lon="1.760880">
        <ele>304.14880</ele>
        <time>2021-07-02T13:22:44Z</time>
      </trkpt>
      <trkpt lat="41.730740" lon="1.760434">
        <ele>302.71802</ele>
        <time>2021-07-02T13:22:45Z</time>
      </trkpt>
      <trkpt lat="41.730759" lon="1.759970">
        <ele>301.05518</ele>
        <time>2021-07-02T13:22:46Z</time>
      </trkpt>
      <trkpt lat="41.730778" lon="1.759516">
        <ele>298.35638</ele>
        <time>2021-07-02T13:22:47Z</time>
      </trkpt>
      <trkpt lat="41.730801" lon="1.759086">
        <ele>295.96136</ele>
        <time>2021-07-02T13:22:48Z</time>
      </trkpt>
      <trkpt lat="41.730827" lon="1.758661">
        <ele>295.03052</ele>
        <time>2021-07-02T13:22:49Z</time>
      </trkpt>
      <trkpt lat="41.730850" lon="1.758261">
        <ele>294.35950</ele>
        <time>2021-07-02T13:22:50Z</time>
      </trkpt>
      <trkpt lat="41.730873" lon="1.757887">
        <ele>293.29211</ele>
        <time>2021-07-02T13:22:51Z</time>
      </trkpt>
      <trkpt lat="41.730900" lon="1.757478">
        <ele>291.76843</ele>
        <time>2021-07-02T13:22:52Z</time>
      </trkpt>
      <trkpt lat="41.730930" lon="1.757128">
        <ele>290.24701</ele>
        <time>2021-07-02T13:22:53Z</time>
      </trkpt>
      <trkpt lat="41.730972" lon="1.756720">
        <ele>290.10266</ele>
        <time>2021-07-02T13:22:54Z</time>
      </trkpt>
      <trkpt lat="41.730972" lon="1.756720">
        <ele>290.36853</ele>
        <time>2021-07-02T13:22:55Z</time>
      </trkpt>
      <trkpt lat="41.731026" lon="1.756342">
        <ele>289.71454</ele>
        <time>2021-07-02T13:22:56Z</time>
      </trkpt>
      <trkpt lat="41.731094" lon="1.755988">
        <ele>290.60327</ele>
        <time>2021-07-02T13:22:57Z</time>
      </trkpt>
      <trkpt lat="41.731190" lon="1.755639">
        <ele>289.99829</ele>
        <time>2021-07-02T13:22:58Z</time>
      </trkpt>
      <trkpt lat="41.731247" lon="1.755486">
        <ele>289.40503</ele>
        <time>2021-07-02T13:22:59Z</time>
      </trkpt>
      <trkpt lat="41.731407" lon="1.754941">
        <ele>289.37744</ele>
        <time>2021-07-02T13:23:00Z</time>
      </trkpt>
      <trkpt lat="41.731499" lon="1.754671">
        <ele>288.96826</ele>
        <time>2021-07-02T13:23:01Z</time>
      </trkpt>
      <trkpt lat="41.731590" lon="1.754426">
        <ele>290.36792</ele>
        <time>2021-07-02T13:23:02Z</time>
      </trkpt>
      <trkpt lat="41.731682" lon="1.754214">
        <ele>288.84436</ele>
        <time>2021-07-02T13:23:03Z</time>
      </trkpt>
      <trkpt lat="41.731781" lon="1.754016">
        <ele>289.14764</ele>
        <time>2021-07-02T13:23:04Z</time>
      </trkpt>
      <trkpt lat="41.731869" lon="1.753890">
        <ele>289.21356</ele>
        <time>2021-07-02T13:23:05Z</time>
      </trkpt>
      <trkpt lat="41.731934" lon="1.753847">
        <ele>287.98816</ele>
        <time>2021-07-02T13:23:06Z</time>
      </trkpt>
      <trkpt lat="41.732006" lon="1.753825">
        <ele>287.99731</ele>
        <time>2021-07-02T13:23:07Z</time>
      </trkpt>
      <trkpt lat="41.732098" lon="1.753814">
        <ele>288.77954</ele>
        <time>2021-07-02T13:23:08Z</time>
      </trkpt>
      <trkpt lat="41.732166" lon="1.753814">
        <ele>287.93359</ele>
        <time>2021-07-02T13:23:09Z</time>
      </trkpt>
      <trkpt lat="41.732197" lon="1.753818">
        <ele>288.60083</ele>
        <time>2021-07-02T13:23:10Z</time>
      </trkpt>
      <trkpt lat="41.732208" lon="1.753820">
        <ele>287.16614</ele>
        <time>2021-07-02T13:23:11Z</time>
      </trkpt>
      <trkpt lat="41.732220" lon="1.753822">
        <ele>286.39514</ele>
        <time>2021-07-02T13:23:12Z</time>
      </trkpt>
      <trkpt lat="41.732224" lon="1.753822">
        <ele>286.71606</ele>
        <time>2021-07-02T13:23:13Z</time>
      </trkpt>
      <trkpt lat="41.732224" lon="1.753822">
        <ele>286.81476</ele>
        <time>2021-07-02T13:23:14Z</time>
      </trkpt>
      <trkpt lat="41.732224" lon="1.753822">
        <ele>285.66846</ele>
        <time>2021-07-02T13:23:15Z</time>
      </trkpt>
      <trkpt lat="41.732224" lon="1.753822">
        <ele>285.18884</ele>
        <time>2021-07-02T13:23:16Z</time>
      </trkpt>
      <trkpt lat="41.732224" lon="1.753822">
        <ele>285.03082</ele>
        <time>2021-07-02T13:23:17Z</time>
      </trkpt>
      <trkpt lat="41.732224" lon="1.753822">
        <ele>284.68237</ele>
        <time>2021-07-02T13:23:18Z</time>
      </trkpt>
      <trkpt lat="41.732224" lon="1.753822">
        <ele>284.26392</ele>
        <time>2021-07-02T13:23:19Z</time>
      </trkpt>
      <trkpt lat="41.732224" lon="1.753822">
        <ele>283.52832</ele>
        <time>2021-07-02T13:23:20Z</time>
      </trkpt>
      <trkpt lat="41.732224" lon="1.753822">
        <ele>282.67169</ele>
        <time>2021-07-02T13:23:21Z</time>
      </trkpt>
      <trkpt lat="41.732224" lon="1.753822">
        <ele>282.50507</ele>
        <time>2021-07-02T13:23:22Z</time>
      </trkpt>
      <trkpt lat="41.732224" lon="1.753822">
        <ele>283.54370</ele>
        <time>2021-07-02T13:23:23Z</time>
      </trkpt>
      <trkpt lat="41.732235" lon="1.753824">
        <ele>283.41895</ele>
        <time>2021-07-02T13:23:24Z</time>
      </trkpt>
      <trkpt lat="41.732262" lon="1.753755">
        <ele>282.31738</ele>
        <time>2021-07-02T13:23:25Z</time>
      </trkpt>
      <trkpt lat="41.732273" lon="1.753652">
        <ele>282.26501</ele>
        <time>2021-07-02T13:23:26Z</time>
      </trkpt>
      <trkpt lat="41.732285" lon="1.753548">
        <ele>281.58636</ele>
        <time>2021-07-02T13:23:27Z</time>
      </trkpt>
      <trkpt lat="41.732300" lon="1.753388">
        <ele>282.99976</ele>
        <time>2021-07-02T13:23:28Z</time>
      </trkpt>
      <trkpt lat="41.732319" lon="1.753237">
        <ele>283.00269</ele>
        <time>2021-07-02T13:23:29Z</time>
      </trkpt>
      <trkpt lat="41.732330" lon="1.753069">
        <ele>284.73547</ele>
        <time>2021-07-02T13:23:30Z</time>
      </trkpt>
      <trkpt lat="41.732338" lon="1.752881">
        <ele>284.39661</ele>
        <time>2021-07-02T13:23:31Z</time>
      </trkpt>
      <trkpt lat="41.732330" lon="1.752719">
        <ele>284.66675</ele>
        <time>2021-07-02T13:23:32Z</time>
      </trkpt>
      <trkpt lat="41.732319" lon="1.752585">
        <ele>284.27344</ele>
        <time>2021-07-02T13:23:33Z</time>
      </trkpt>
      <trkpt lat="41.732307" lon="1.752457">
        <ele>283.75562</ele>
        <time>2021-07-02T13:23:34Z</time>
      </trkpt>
      <trkpt lat="41.732296" lon="1.752347">
        <ele>283.42560</ele>
        <time>2021-07-02T13:23:35Z</time>
      </trkpt>
      <trkpt lat="41.732285" lon="1.752235">
        <ele>282.81287</ele>
        <time>2021-07-02T13:23:36Z</time>
      </trkpt>
      <trkpt lat="41.732277" lon="1.752113">
        <ele>281.79840</ele>
        <time>2021-07-02T13:23:37Z</time>
      </trkpt>
      <trkpt lat="41.732269" lon="1.752001">
        <ele>281.81616</ele>
        <time>2021-07-02T13:23:38Z</time>
      </trkpt>
      <trkpt lat="41.732265" lon="1.751892">
        <ele>279.75372</ele>
        <time>2021-07-02T13:23:39Z</time>
      </trkpt>
      <trkpt lat="41.732262" lon="1.751788">
        <ele>279.71997</ele>
        <time>2021-07-02T13:23:40Z</time>
      </trkpt>
      <trkpt lat="41.732258" lon="1.751679">
        <ele>280.11694</ele>
        <time>2021-07-02T13:23:41Z</time>
      </trkpt>
      <trkpt lat="41.732262" lon="1.751563">
        <ele>278.22339</ele>
        <time>2021-07-02T13:23:42Z</time>
      </trkpt>
      <trkpt lat="41.732273" lon="1.751466">
        <ele>277.12927</ele>
        <time>2021-07-02T13:23:43Z</time>
      </trkpt>
      <trkpt lat="41.732285" lon="1.751429">
        <ele>276.99646</ele>
        <time>2021-07-02T13:23:44Z</time>
      </trkpt>
      <trkpt lat="41.732353" lon="1.751197">
        <ele>276.23419</ele>
        <time>2021-07-02T13:23:45Z</time>
      </trkpt>
      <trkpt lat="41.732395" lon="1.751031">
        <ele>276.68054</ele>
        <time>2021-07-02T13:23:46Z</time>
      </trkpt>
      <trkpt lat="41.732430" lon="1.750895">
        <ele>274.70831</ele>
        <time>2021-07-02T13:23:47Z</time>
      </trkpt>
      <trkpt lat="41.732464" lon="1.750752">
        <ele>274.35156</ele>
        <time>2021-07-02T13:23:48Z</time>
      </trkpt>
      <trkpt lat="41.732483" lon="1.750647">
        <ele>274.32361</ele>
        <time>2021-07-02T13:23:49Z</time>
      </trkpt>
      <trkpt lat="41.732483" lon="1.750647">
        <ele>274.56750</ele>
        <time>2021-07-02T13:23:50Z</time>
      </trkpt>
      <trkpt lat="41.732494" lon="1.750528">
        <ele>274.27948</ele>
        <time>2021-07-02T13:23:51Z</time>
      </trkpt>
      <trkpt lat="41.732449" lon="1.750306">
        <ele>274.85046</ele>
        <time>2021-07-02T13:23:52Z</time>
      </trkpt>
      <trkpt lat="41.732449" lon="1.750306">
        <ele>274.92474</ele>
        <time>2021-07-02T13:23:53Z</time>
      </trkpt>
      <trkpt lat="41.732376" lon="1.750215">
        <ele>274.39343</ele>
        <time>2021-07-02T13:23:54Z</time>
      </trkpt>
      <trkpt lat="41.732327" lon="1.750158">
        <ele>274.33801</ele>
        <time>2021-07-02T13:23:55Z</time>
      </trkpt>
      <trkpt lat="41.732258" lon="1.750088">
        <ele>274.22198</ele>
        <time>2021-07-02T13:23:56Z</time>
      </trkpt>
      <trkpt lat="41.732204" lon="1.750031">
        <ele>273.32660</ele>
        <time>2021-07-02T13:23:57Z</time>
      </trkpt>
      <trkpt lat="41.732155" lon="1.749982">
        <ele>274.53589</ele>
        <time>2021-07-02T13:23:58Z</time>
      </trkpt>
      <trkpt lat="41.732105" lon="1.749931">
        <ele>274.55505</ele>
        <time>2021-07-02T13:23:59Z</time>
      </trkpt>
      <trkpt lat="41.732056" lon="1.749878">
        <ele>275.72742</ele>
        <time>2021-07-02T13:24:00Z</time>
      </trkpt>
      <trkpt lat="41.732002" lon="1.749822">
        <ele>275.87952</ele>
        <time>2021-07-02T13:24:01Z</time>
      </trkpt>
      <trkpt lat="41.731937" lon="1.749754">
        <ele>278.47180</ele>
        <time>2021-07-02T13:24:02Z</time>
      </trkpt>
      <trkpt lat="41.731873" lon="1.749686">
        <ele>279.20197</ele>
        <time>2021-07-02T13:24:03Z</time>
      </trkpt>
      <trkpt lat="41.731808" lon="1.749636">
        <ele>279.35046</ele>
        <time>2021-07-02T13:24:04Z</time>
      </trkpt>
      <trkpt lat="41.731743" lon="1.749603">
        <ele>276.10974</ele>
        <time>2021-07-02T13:24:05Z</time>
      </trkpt>
      <trkpt lat="41.731670" lon="1.749586">
        <ele>276.36365</ele>
        <time>2021-07-02T13:24:06Z</time>
      </trkpt>
      <trkpt lat="41.731613" lon="1.749584">
        <ele>277.32617</ele>
        <time>2021-07-02T13:24:07Z</time>
      </trkpt>
      <trkpt lat="41.731537" lon="1.749585">
        <ele>276.83093</ele>
        <time>2021-07-02T13:24:08Z</time>
      </trkpt>
      <trkpt lat="41.731449" lon="1.749577">
        <ele>277.34888</ele>
        <time>2021-07-02T13:24:09Z</time>
      </trkpt>
      <trkpt lat="41.731392" lon="1.749562">
        <ele>277.27783</ele>
        <time>2021-07-02T13:24:10Z</time>
      </trkpt>
      <trkpt lat="41.731339" lon="1.749549">
        <ele>278.84143</ele>
        <time>2021-07-02T13:24:11Z</time>
      </trkpt>
      <trkpt lat="41.731270" lon="1.749532">
        <ele>278.79712</ele>
        <time>2021-07-02T13:24:12Z</time>
      </trkpt>
      <trkpt lat="41.731220" lon="1.749520">
        <ele>270.42502</ele>
        <time>2021-07-02T13:24:13Z</time>
      </trkpt>
      <trkpt lat="41.731159" lon="1.749502">
        <ele>270.51080</ele>
        <time>2021-07-02T13:24:14Z</time>
      </trkpt>
      <trkpt lat="41.731144" lon="1.749495">
        <ele>270.28915</ele>
        <time>2021-07-02T13:24:15Z</time>
      </trkpt>
      <trkpt lat="41.731144" lon="1.749495">
        <ele>270.37311</ele>
        <time>2021-07-02T13:24:16Z</time>
      </trkpt>
      <trkpt lat="41.731133" lon="1.749485">
        <ele>270.43600</ele>
        <time>2021-07-02T13:24:17Z</time>
      </trkpt>
      <trkpt lat="41.731117" lon="1.749473">
        <ele>270.41898</ele>
        <time>2021-07-02T13:24:18Z</time>
      </trkpt>
      <trkpt lat="41.731117" lon="1.749473">
        <ele>269.72623</ele>
        <time>2021-07-02T13:24:19Z</time>
      </trkpt>
      <trkpt lat="41.731117" lon="1.749473">
        <ele>269.59409</ele>
        <time>2021-07-02T13:24:20Z</time>
      </trkpt>
      <trkpt lat="41.731117" lon="1.749473">
        <ele>269.67783</ele>
        <time>2021-07-02T13:24:21Z</time>
      </trkpt>
      <trkpt lat="41.731117" lon="1.749473">
        <ele>269.58847</ele>
        <time>2021-07-02T13:24:22Z</time>
      </trkpt>
      <trkpt lat="41.731117" lon="1.749473">
        <ele>269.62244</ele>
        <time>2021-07-02T13:24:23Z</time>
      </trkpt>
      <trkpt lat="41.731117" lon="1.749473">
        <ele>269.51419</ele>
        <time>2021-07-02T13:24:24Z</time>
      </trkpt>
      <trkpt lat="41.731117" lon="1.749473">
        <ele>269.50671</ele>
        <time>2021-07-02T13:24:25Z</time>
      </trkpt>
      <trkpt lat="41.731117" lon="1.749473">
        <ele>269.52454</ele>
        <time>2021-07-02T13:24:26Z</time>
      </trkpt>
      <trkpt lat="41.731117" lon="1.749473">
        <ele>269.45804</ele>
        <time>2021-07-02T13:24:27Z</time>
      </trkpt>
      <trkpt lat="41.731117" lon="1.749473">
        <ele>269.49860</ele>
        <time>2021-07-02T13:24:28Z</time>
      </trkpt>
      <trkpt lat="41.731117" lon="1.749473">
        <ele>269.54770</ele>
        <time>2021-07-02T13:24:29Z</time>
      </trkpt>
      <trkpt lat="41.731117" lon="1.749473">
        <ele>269.64014</ele>
        <time>2021-07-02T13:24:30Z</time>
      </trkpt>
      <trkpt lat="41.731117" lon="1.749473">
        <ele>269.61267</ele>
        <time>2021-07-02T13:24:31Z</time>
      </trkpt>
      <trkpt lat="41.731117" lon="1.749473">
        <ele>269.43079</ele>
        <time>2021-07-02T13:24:32Z</time>
      </trkpt>
      <trkpt lat="41.731117" lon="1.749473">
        <ele>269.33652</ele>
        <time>2021-07-02T13:24:33Z</time>
      </trkpt>
      <trkpt lat="41.731117" lon="1.749473">
        <ele>269.41608</ele>
        <time>2021-07-02T13:24:34Z</time>
      </trkpt>
      <trkpt lat="41.731117" lon="1.749473">
        <ele>269.32602</ele>
        <time>2021-07-02T13:24:35Z</time>
      </trkpt>
      <trkpt lat="41.731117" lon="1.749473">
        <ele>269.32074</ele>
        <time>2021-07-02T13:24:36Z</time>
      </trkpt>
      <trkpt lat="41.731117" lon="1.749473">
        <ele>269.32480</ele>
        <time>2021-07-02T13:24:37Z</time>
      </trkpt>
      <trkpt lat="41.731117" lon="1.749473">
        <ele>269.30505</ele>
        <time>2021-07-02T13:24:38Z</time>
      </trkpt>
      <trkpt lat="41.731117" lon="1.749473">
        <ele>269.31873</ele>
        <time>2021-07-02T13:24:39Z</time>
      </trkpt>
      <trkpt lat="41.731117" lon="1.749473">
        <ele>269.24286</ele>
        <time>2021-07-02T13:24:40Z</time>
      </trkpt>
      <trkpt lat="41.731117" lon="1.749473">
        <ele>269.34729</ele>
        <time>2021-07-02T13:24:41Z</time>
      </trkpt>
      <trkpt lat="41.731117" lon="1.749473">
        <ele>269.24026</ele>
        <time>2021-07-02T13:24:42Z</time>
      </trkpt>
      <trkpt lat="41.731117" lon="1.749473">
        <ele>269.29022</ele>
        <time>2021-07-02T13:24:43Z</time>
      </trkpt>
      <trkpt lat="41.731533" lon="1.751442">
        <ele>283.60544</ele>
        <time>2021-07-02T13:50:12Z</time>
      </trkpt>
      <trkpt lat="41.731541" lon="1.751480">
        <ele>283.71921</ele>
        <time>2021-07-02T13:50:13Z</time>
      </trkpt>
      <trkpt lat="41.731548" lon="1.751521">
        <ele>284.39157</ele>
        <time>2021-07-02T13:50:14Z</time>
      </trkpt>
      <trkpt lat="41.731548" lon="1.751521">
        <ele>285.31320</ele>
        <time>2021-07-02T13:50:15Z</time>
      </trkpt>
      <trkpt lat="41.731552" lon="1.751545">
        <ele>286.00461</ele>
        <time>2021-07-02T13:50:16Z</time>
      </trkpt>
      <trkpt lat="41.730816" lon="1.749225">
        <ele>285.25504</ele>
        <time>2021-07-02T13:50:17Z</time>
      </trkpt>
      <trkpt lat="41.730766" lon="1.749152">
        <ele>286.63718</ele>
        <time>2021-07-02T13:50:18Z</time>
      </trkpt>
      <trkpt lat="41.730728" lon="1.749047">
        <ele>286.48972</ele>
        <time>2021-07-02T13:50:19Z</time>
      </trkpt>
      <trkpt lat="41.730701" lon="1.748927">
        <ele>286.91379</ele>
        <time>2021-07-02T13:50:20Z</time>
      </trkpt>
      <trkpt lat="41.730671" lon="1.748800">
        <ele>289.24631</ele>
        <time>2021-07-02T13:50:21Z</time>
      </trkpt>
      <trkpt lat="41.730644" lon="1.748693">
        <ele>289.03635</ele>
        <time>2021-07-02T13:50:22Z</time>
      </trkpt>
      <trkpt lat="41.730629" lon="1.748626">
        <ele>289.37155</ele>
        <time>2021-07-02T13:50:23Z</time>
      </trkpt>
      <trkpt lat="41.730618" lon="1.748534">
        <ele>289.91843</ele>
        <time>2021-07-02T13:50:24Z</time>
      </trkpt>
      <trkpt lat="41.730610" lon="1.748446">
        <ele>290.44516</ele>
        <time>2021-07-02T13:50:25Z</time>
      </trkpt>
      <trkpt lat="41.730625" lon="1.748379">
        <ele>290.48801</ele>
        <time>2021-07-02T13:50:26Z</time>
      </trkpt>
      <trkpt lat="41.730709" lon="1.748305">
        <ele>290.39438</ele>
        <time>2021-07-02T13:50:27Z</time>
      </trkpt>
      <trkpt lat="41.730835" lon="1.748366">
        <ele>290.56821</ele>
        <time>2021-07-02T13:50:28Z</time>
      </trkpt>
      <trkpt lat="41.730927" lon="1.748449">
        <ele>290.01901</ele>
        <time>2021-07-02T13:50:29Z</time>
      </trkpt>
      <trkpt lat="41.730972" lon="1.748536">
        <ele>289.88278</ele>
        <time>2021-07-02T13:50:30Z</time>
      </trkpt>
      <trkpt lat="41.731007" lon="1.748704">
        <ele>288.63107</ele>
        <time>2021-07-02T13:50:31Z</time>
      </trkpt>
      <trkpt lat="41.731030" lon="1.748891">
        <ele>287.43759</ele>
        <time>2021-07-02T13:50:32Z</time>
      </trkpt>
      <trkpt lat="41.731071" lon="1.749168">
        <ele>286.66379</ele>
        <time>2021-07-02T13:50:33Z</time>
      </trkpt>
      <trkpt lat="41.731148" lon="1.749475">
        <ele>285.84409</ele>
        <time>2021-07-02T13:50:34Z</time>
      </trkpt>
      <trkpt lat="41.731190" lon="1.749759">
        <ele>284.51053</ele>
        <time>2021-07-02T13:50:35Z</time>
      </trkpt>
      <trkpt lat="41.731255" lon="1.750076">
        <ele>282.80734</ele>
        <time>2021-07-02T13:50:36Z</time>
      </trkpt>
      <trkpt lat="41.731339" lon="1.750447">
        <ele>281.69888</ele>
        <time>2021-07-02T13:50:37Z</time>
      </trkpt>
      <trkpt lat="41.731422" lon="1.750841">
        <ele>280.80893</ele>
        <time>2021-07-02T13:50:38Z</time>
      </trkpt>
      <trkpt lat="41.731495" lon="1.751227">
        <ele>280.60605</ele>
        <time>2021-07-02T13:50:39Z</time>
      </trkpt>
      <trkpt lat="41.731560" lon="1.751605">
        <ele>280.39450</ele>
        <time>2021-07-02T13:50:40Z</time>
      </trkpt>
      <trkpt lat="41.731594" lon="1.752007">
        <ele>280.09366</ele>
        <time>2021-07-02T13:50:41Z</time>
      </trkpt>
      <trkpt lat="41.731609" lon="1.752438">
        <ele>280.09024</ele>
        <time>2021-07-02T13:50:42Z</time>
      </trkpt>
      <trkpt lat="41.731598" lon="1.752859">
        <ele>280.16391</ele>
        <time>2021-07-02T13:50:43Z</time>
      </trkpt>
      <trkpt lat="41.731552" lon="1.753275">
        <ele>279.96860</ele>
        <time>2021-07-02T13:50:44Z</time>
      </trkpt>
      <trkpt lat="41.731491" lon="1.753711">
        <ele>280.43546</ele>
        <time>2021-07-02T13:50:45Z</time>
      </trkpt>
      <trkpt lat="41.731407" lon="1.754102">
        <ele>281.10019</ele>
        <time>2021-07-02T13:50:46Z</time>
      </trkpt>
      <trkpt lat="41.731304" lon="1.754520">
        <ele>281.69284</ele>
        <time>2021-07-02T13:50:47Z</time>
      </trkpt>
      <trkpt lat="41.731201" lon="1.754914">
        <ele>282.38022</ele>
        <time>2021-07-02T13:50:48Z</time>
      </trkpt>
      <trkpt lat="41.731098" lon="1.755316">
        <ele>283.44724</ele>
        <time>2021-07-02T13:50:49Z</time>
      </trkpt>
      <trkpt lat="41.731010" lon="1.755724">
        <ele>284.79025</ele>
        <time>2021-07-02T13:50:50Z</time>
      </trkpt>
      <trkpt lat="41.730930" lon="1.756131">
        <ele>285.14047</ele>
        <time>2021-07-02T13:50:51Z</time>
      </trkpt>
      <trkpt lat="41.730858" lon="1.756594">
        <ele>286.02512</ele>
        <time>2021-07-02T13:50:52Z</time>
      </trkpt>
      <trkpt lat="41.730858" lon="1.756594">
        <ele>286.89230</ele>
        <time>2021-07-02T13:50:53Z</time>
      </trkpt>
      <trkpt lat="41.730804" lon="1.757082">
        <ele>288.66147</ele>
        <time>2021-07-02T13:50:54Z</time>
      </trkpt>
      <trkpt lat="41.730762" lon="1.757576">
        <ele>290.36044</ele>
        <time>2021-07-02T13:50:55Z</time>
      </trkpt>
      <trkpt lat="41.730732" lon="1.758085">
        <ele>292.92355</ele>
        <time>2021-07-02T13:50:56Z</time>
      </trkpt>
      <trkpt lat="41.730709" lon="1.758556">
        <ele>294.68546</ele>
        <time>2021-07-02T13:50:57Z</time>
      </trkpt>
      <trkpt lat="41.730686" lon="1.759031">
        <ele>296.40244</ele>
        <time>2021-07-02T13:50:58Z</time>
      </trkpt>
      <trkpt lat="41.730663" lon="1.759495">
        <ele>298.32950</ele>
        <time>2021-07-02T13:50:59Z</time>
      </trkpt>
      <trkpt lat="41.730633" lon="1.760026">
        <ele>299.96274</ele>
        <time>2021-07-02T13:51:00Z</time>
      </trkpt>
      <trkpt lat="41.730602" lon="1.760530">
        <ele>301.61667</ele>
        <time>2021-07-02T13:51:01Z</time>
      </trkpt>
      <trkpt lat="41.730576" lon="1.761001">
        <ele>303.12485</ele>
        <time>2021-07-02T13:51:02Z</time>
      </trkpt>
      <trkpt lat="41.730553" lon="1.761399">
        <ele>304.60446</ele>
        <time>2021-07-02T13:51:03Z</time>
      </trkpt>
      <trkpt lat="41.730530" lon="1.761775">
        <ele>305.26913</ele>
        <time>2021-07-02T13:51:04Z</time>
      </trkpt>
      <trkpt lat="41.730522" lon="1.762123">
        <ele>305.92215</ele>
        <time>2021-07-02T13:51:05Z</time>
      </trkpt>
      <trkpt lat="41.730518" lon="1.762440">
        <ele>306.18344</ele>
        <time>2021-07-02T13:51:06Z</time>
      </trkpt>
      <trkpt lat="41.730515" lon="1.762733">
        <ele>306.59030</ele>
        <time>2021-07-02T13:51:07Z</time>
      </trkpt>
      <trkpt lat="41.730530" lon="1.763067">
        <ele>307.01138</ele>
        <time>2021-07-02T13:51:08Z</time>
      </trkpt>
      <trkpt lat="41.730564" lon="1.763425">
        <ele>307.46359</ele>
        <time>2021-07-02T13:51:09Z</time>
      </trkpt>
      <trkpt lat="41.730606" lon="1.763749">
        <ele>307.87070</ele>
        <time>2021-07-02T13:51:10Z</time>
      </trkpt>
      <trkpt lat="41.730682" lon="1.764097">
        <ele>307.74765</ele>
        <time>2021-07-02T13:51:11Z</time>
      </trkpt>
      <trkpt lat="41.730762" lon="1.764432">
        <ele>307.98495</ele>
        <time>2021-07-02T13:51:12Z</time>
      </trkpt>
      <trkpt lat="41.730858" lon="1.764749">
        <ele>308.21213</ele>
        <time>2021-07-02T13:51:13Z</time>
      </trkpt>
      <trkpt lat="41.730972" lon="1.765067">
        <ele>308.17722</ele>
        <time>2021-07-02T13:51:14Z</time>
      </trkpt>
      <trkpt lat="41.731102" lon="1.765363">
        <ele>307.97775</ele>
        <time>2021-07-02T13:51:15Z</time>
      </trkpt>
      <trkpt lat="41.731236" lon="1.765644">
        <ele>308.04526</ele>
        <time>2021-07-02T13:51:16Z</time>
      </trkpt>
      <trkpt lat="41.731384" lon="1.765925">
        <ele>307.69260</ele>
        <time>2021-07-02T13:51:17Z</time>
      </trkpt>
      <trkpt lat="41.731541" lon="1.766177">
        <ele>307.18686</ele>
        <time>2021-07-02T13:51:18Z</time>
      </trkpt>
      <trkpt lat="41.731709" lon="1.766414">
        <ele>306.80954</ele>
        <time>2021-07-02T13:51:19Z</time>
      </trkpt>
      <trkpt lat="41.731899" lon="1.766644">
        <ele>305.76205</ele>
        <time>2021-07-02T13:51:20Z</time>
      </trkpt>
      <trkpt lat="41.732094" lon="1.766860">
        <ele>305.24423</ele>
        <time>2021-07-02T13:51:21Z</time>
      </trkpt>
      <trkpt lat="41.732307" lon="1.767075">
        <ele>305.09396</ele>
        <time>2021-07-02T13:51:22Z</time>
      </trkpt>
      <trkpt lat="41.732517" lon="1.767283">
        <ele>304.39938</ele>
        <time>2021-07-02T13:51:23Z</time>
      </trkpt>
      <trkpt lat="41.732746" lon="1.767509">
        <ele>304.12479</ele>
        <time>2021-07-02T13:51:24Z</time>
      </trkpt>
      <trkpt lat="41.732956" lon="1.767715">
        <ele>303.57443</ele>
        <time>2021-07-02T13:51:25Z</time>
      </trkpt>
      <trkpt lat="41.733170" lon="1.767926">
        <ele>302.59457</ele>
        <time>2021-07-02T13:51:26Z</time>
      </trkpt>
      <trkpt lat="41.733376" lon="1.768132">
        <ele>301.75607</ele>
        <time>2021-07-02T13:51:27Z</time>
      </trkpt>
      <trkpt lat="41.733582" lon="1.768335">
        <ele>301.13077</ele>
        <time>2021-07-02T13:51:28Z</time>
      </trkpt>
      <trkpt lat="41.733780" lon="1.768531">
        <ele>300.24240</ele>
        <time>2021-07-02T13:51:29Z</time>
      </trkpt>
      <trkpt lat="41.733780" lon="1.768531">
        <ele>299.32224</ele>
        <time>2021-07-02T13:51:30Z</time>
      </trkpt>
      <trkpt lat="41.733990" lon="1.768737">
        <ele>298.48886</ele>
        <time>2021-07-02T13:51:31Z</time>
      </trkpt>
      <trkpt lat="41.734184" lon="1.768930">
        <ele>297.08975</ele>
        <time>2021-07-02T13:51:32Z</time>
      </trkpt>
      <trkpt lat="41.734379" lon="1.769104">
        <ele>296.20383</ele>
        <time>2021-07-02T13:51:33Z</time>
      </trkpt>
      <trkpt lat="41.734573" lon="1.769283">
        <ele>295.54965</ele>
        <time>2021-07-02T13:51:34Z</time>
      </trkpt>
      <trkpt lat="41.734776" lon="1.769480">
        <ele>294.78378</ele>
        <time>2021-07-02T13:51:35Z</time>
      </trkpt>
      <trkpt lat="41.734982" lon="1.769694">
        <ele>293.91342</ele>
        <time>2021-07-02T13:51:36Z</time>
      </trkpt>
      <trkpt lat="41.735184" lon="1.769916">
        <ele>293.14474</ele>
        <time>2021-07-02T13:51:37Z</time>
      </trkpt>
      <trkpt lat="41.735386" lon="1.770175">
        <ele>291.98996</ele>
        <time>2021-07-02T13:51:38Z</time>
      </trkpt>
      <trkpt lat="41.735565" lon="1.770431">
        <ele>291.38095</ele>
        <time>2021-07-02T13:51:39Z</time>
      </trkpt>
      <trkpt lat="41.735752" lon="1.770721">
        <ele>290.96115</ele>
        <time>2021-07-02T13:51:40Z</time>
      </trkpt>
      <trkpt lat="41.735920" lon="1.771034">
        <ele>290.60977</ele>
        <time>2021-07-02T13:51:41Z</time>
      </trkpt>
      <trkpt lat="41.736069" lon="1.771373">
        <ele>291.05154</ele>
        <time>2021-07-02T13:51:42Z</time>
      </trkpt>
      <trkpt lat="41.736202" lon="1.771726">
        <ele>291.48727</ele>
        <time>2021-07-02T13:51:43Z</time>
      </trkpt>
      <trkpt lat="41.736328" lon="1.772111">
        <ele>291.92184</ele>
        <time>2021-07-02T13:51:44Z</time>
      </trkpt>
      <trkpt lat="41.736423" lon="1.772513">
        <ele>292.16684</ele>
        <time>2021-07-02T13:51:45Z</time>
      </trkpt>
      <trkpt lat="41.736500" lon="1.772922">
        <ele>292.66946</ele>
        <time>2021-07-02T13:51:46Z</time>
      </trkpt>
      <trkpt lat="41.736557" lon="1.773351">
        <ele>293.47189</ele>
        <time>2021-07-02T13:51:47Z</time>
      </trkpt>
      <trkpt lat="41.736580" lon="1.773781">
        <ele>294.45834</ele>
        <time>2021-07-02T13:51:48Z</time>
      </trkpt>
      <trkpt lat="41.736580" lon="1.774212">
        <ele>295.70187</ele>
        <time>2021-07-02T13:51:49Z</time>
      </trkpt>
      <trkpt lat="41.736557" lon="1.774661">
        <ele>296.70908</ele>
        <time>2021-07-02T13:51:50Z</time>
      </trkpt>
      <trkpt lat="41.736500" lon="1.775101">
        <ele>296.93735</ele>
        <time>2021-07-02T13:51:51Z</time>
      </trkpt>
      <trkpt lat="41.736431" lon="1.775516">
        <ele>297.84689</ele>
        <time>2021-07-02T13:51:52Z</time>
      </trkpt>
      <trkpt lat="41.736324" lon="1.775929">
        <ele>298.02072</ele>
        <time>2021-07-02T13:51:53Z</time>
      </trkpt>
      <trkpt lat="41.736198" lon="1.776334">
        <ele>299.48441</ele>
        <time>2021-07-02T13:51:54Z</time>
      </trkpt>
      <trkpt lat="41.736046" lon="1.776717">
        <ele>300.14328</ele>
        <time>2021-07-02T13:51:55Z</time>
      </trkpt>
      <trkpt lat="41.735870" lon="1.777097">
        <ele>300.86868</ele>
        <time>2021-07-02T13:51:56Z</time>
      </trkpt>
      <trkpt lat="41.735683" lon="1.777478">
        <ele>301.31485</ele>
        <time>2021-07-02T13:51:57Z</time>
      </trkpt>
      <trkpt lat="41.735485" lon="1.777878">
        <ele>301.18375</ele>
        <time>2021-07-02T13:51:58Z</time>
      </trkpt>
      <trkpt lat="41.735298" lon="1.778256">
        <ele>301.59286</ele>
        <time>2021-07-02T13:51:59Z</time>
      </trkpt>
      <trkpt lat="41.735104" lon="1.778645">
        <ele>301.17490</ele>
        <time>2021-07-02T13:52:00Z</time>
      </trkpt>
      <trkpt lat="41.734898" lon="1.779054">
        <ele>301.14413</ele>
        <time>2021-07-02T13:52:01Z</time>
      </trkpt>
      <trkpt lat="41.734688" lon="1.779468">
        <ele>300.75327</ele>
        <time>2021-07-02T13:52:02Z</time>
      </trkpt>
      <trkpt lat="41.734688" lon="1.779468">
        <ele>300.42136</ele>
        <time>2021-07-02T13:52:03Z</time>
      </trkpt>
      <trkpt lat="41.734489" lon="1.779871">
        <ele>299.83200</ele>
        <time>2021-07-02T13:52:04Z</time>
      </trkpt>
      <trkpt lat="41.734299" lon="1.780257">
        <ele>299.12125</ele>
        <time>2021-07-02T13:52:05Z</time>
      </trkpt>
      <trkpt lat="41.734100" lon="1.780655">
        <ele>298.18649</ele>
        <time>2021-07-02T13:52:06Z</time>
      </trkpt>
      <trkpt lat="41.733898" lon="1.781070">
        <ele>297.64731</ele>
        <time>2021-07-02T13:52:07Z</time>
      </trkpt>
      <trkpt lat="41.733681" lon="1.781512">
        <ele>297.02072</ele>
        <time>2021-07-02T13:52:08Z</time>
      </trkpt>
      <trkpt lat="41.733479" lon="1.781912">
        <ele>296.15012</ele>
        <time>2021-07-02T13:52:09Z</time>
      </trkpt>
      <trkpt lat="41.733273" lon="1.782320">
        <ele>294.99521</ele>
        <time>2021-07-02T13:52:10Z</time>
      </trkpt>
      <trkpt lat="41.733051" lon="1.782752">
        <ele>293.70212</ele>
        <time>2021-07-02T13:52:11Z</time>
      </trkpt>
      <trkpt lat="41.732819" lon="1.783230">
        <ele>291.83054</ele>
        <time>2021-07-02T13:52:12Z</time>
      </trkpt>
      <trkpt lat="41.732571" lon="1.783745">
        <ele>289.97849</ele>
        <time>2021-07-02T13:52:13Z</time>
      </trkpt>
      <trkpt lat="41.732307" lon="1.784285">
        <ele>287.89792</ele>
        <time>2021-07-02T13:52:14Z</time>
      </trkpt>
      <trkpt lat="41.732056" lon="1.784792">
        <ele>285.93149</ele>
        <time>2021-07-02T13:52:15Z</time>
      </trkpt>
      <trkpt lat="41.731815" lon="1.785277">
        <ele>284.63419</ele>
        <time>2021-07-02T13:52:16Z</time>
      </trkpt>
      <trkpt lat="41.731590" lon="1.785731">
        <ele>283.31992</ele>
        <time>2021-07-02T13:52:17Z</time>
      </trkpt>
      <trkpt lat="41.731346" lon="1.786204">
        <ele>281.06210</ele>
        <time>2021-07-02T13:52:18Z</time>
      </trkpt>
      <trkpt lat="41.731102" lon="1.786675">
        <ele>279.65964</ele>
        <time>2021-07-02T13:52:19Z</time>
      </trkpt>
      <trkpt lat="41.730869" lon="1.787125">
        <ele>279.23373</ele>
        <time>2021-07-02T13:52:20Z</time>
      </trkpt>
      <trkpt lat="41.730640" lon="1.787571">
        <ele>277.42075</ele>
        <time>2021-07-02T13:52:21Z</time>
      </trkpt>
      <trkpt lat="41.730419" lon="1.788020">
        <ele>276.17343</ele>
        <time>2021-07-02T13:52:22Z</time>
      </trkpt>
      <trkpt lat="41.730206" lon="1.788460">
        <ele>275.42471</ele>
        <time>2021-07-02T13:52:23Z</time>
      </trkpt>
      <trkpt lat="41.729969" lon="1.788937">
        <ele>274.45297</ele>
        <time>2021-07-02T13:52:24Z</time>
      </trkpt>
      <trkpt lat="41.729752" lon="1.789384">
        <ele>273.53806</ele>
        <time>2021-07-02T13:52:25Z</time>
      </trkpt>
      <trkpt lat="41.729576" lon="1.789787">
        <ele>273.00998</ele>
        <time>2021-07-02T13:52:26Z</time>
      </trkpt>
      <trkpt lat="41.729427" lon="1.790186">
        <ele>272.92062</ele>
        <time>2021-07-02T13:52:27Z</time>
      </trkpt>
      <trkpt lat="41.729313" lon="1.790593">
        <ele>272.57211</ele>
        <time>2021-07-02T13:52:28Z</time>
      </trkpt>
      <trkpt lat="41.729195" lon="1.791069">
        <ele>271.50595</ele>
        <time>2021-07-02T13:52:29Z</time>
      </trkpt>
      <trkpt lat="41.729115" lon="1.791574">
        <ele>271.16183</ele>
        <time>2021-07-02T13:52:30Z</time>
      </trkpt>
      <trkpt lat="41.729115" lon="1.791574">
        <ele>270.37662</ele>
        <time>2021-07-02T13:52:31Z</time>
      </trkpt>
      <trkpt lat="41.729065" lon="1.792056">
        <ele>270.11935</ele>
        <time>2021-07-02T13:52:32Z</time>
      </trkpt>
      <trkpt lat="41.729046" lon="1.792564">
        <ele>270.11777</ele>
        <time>2021-07-02T13:52:33Z</time>
      </trkpt>
      <trkpt lat="41.729057" lon="1.793035">
        <ele>270.23679</ele>
        <time>2021-07-02T13:52:34Z</time>
      </trkpt>
      <trkpt lat="41.729103" lon="1.793511">
        <ele>270.35385</ele>
        <time>2021-07-02T13:52:35Z</time>
      </trkpt>
      <trkpt lat="41.729172" lon="1.793987">
        <ele>270.39975</ele>
        <time>2021-07-02T13:52:36Z</time>
      </trkpt>
      <trkpt lat="41.729240" lon="1.794427">
        <ele>270.13950</ele>
        <time>2021-07-02T13:52:37Z</time>
      </trkpt>
      <trkpt lat="41.729313" lon="1.794875">
        <ele>269.95859</ele>
        <time>2021-07-02T13:52:38Z</time>
      </trkpt>
      <trkpt lat="41.729382" lon="1.795323">
        <ele>269.46194</ele>
        <time>2021-07-02T13:52:39Z</time>
      </trkpt>
      <trkpt lat="41.729450" lon="1.795738">
        <ele>268.74631</ele>
        <time>2021-07-02T13:52:40Z</time>
      </trkpt>
      <trkpt lat="41.729515" lon="1.796121">
        <ele>268.13290</ele>
        <time>2021-07-02T13:52:41Z</time>
      </trkpt>
      <trkpt lat="41.729576" lon="1.796499">
        <ele>267.62253</ele>
        <time>2021-07-02T13:52:42Z</time>
      </trkpt>
      <trkpt lat="41.729645" lon="1.796921">
        <ele>266.61655</ele>
        <time>2021-07-02T13:52:43Z</time>
      </trkpt>
      <trkpt lat="41.729702" lon="1.797325">
        <ele>265.77847</ele>
        <time>2021-07-02T13:52:44Z</time>
      </trkpt>
      <trkpt lat="41.729774" lon="1.797720">
        <ele>264.31223</ele>
        <time>2021-07-02T13:52:45Z</time>
      </trkpt>
      <trkpt lat="41.729851" lon="1.798172">
        <ele>263.04489</ele>
        <time>2021-07-02T13:52:46Z</time>
      </trkpt>
      <trkpt lat="41.729946" lon="1.798594">
        <ele>261.30405</ele>
        <time>2021-07-02T13:52:47Z</time>
      </trkpt>
      <trkpt lat="41.730034" lon="1.799006">
        <ele>259.75168</ele>
        <time>2021-07-02T13:52:48Z</time>
      </trkpt>
      <trkpt lat="41.730148" lon="1.799401">
        <ele>258.36990</ele>
        <time>2021-07-02T13:52:49Z</time>
      </trkpt>
      <trkpt lat="41.730274" lon="1.799753">
        <ele>256.84348</ele>
        <time>2021-07-02T13:52:50Z</time>
      </trkpt>
      <trkpt lat="41.730427" lon="1.800125">
        <ele>255.24203</ele>
        <time>2021-07-02T13:52:51Z</time>
      </trkpt>
      <trkpt lat="41.730591" lon="1.800469">
        <ele>254.10190</ele>
        <time>2021-07-02T13:52:52Z</time>
      </trkpt>
      <trkpt lat="41.730793" lon="1.800810">
        <ele>253.43527</ele>
        <time>2021-07-02T13:52:53Z</time>
      </trkpt>
      <trkpt lat="41.730988" lon="1.801118">
        <ele>252.73032</ele>
        <time>2021-07-02T13:52:54Z</time>
      </trkpt>
      <trkpt lat="41.730988" lon="1.801118">
        <ele>252.21005</ele>
        <time>2021-07-02T13:52:55Z</time>
      </trkpt>
      <trkpt lat="41.731197" lon="1.801374">
        <ele>251.85349</ele>
        <time>2021-07-02T13:52:56Z</time>
      </trkpt>
      <trkpt lat="41.731445" lon="1.801670">
        <ele>251.26407</ele>
        <time>2021-07-02T13:52:57Z</time>
      </trkpt>
      <trkpt lat="41.731731" lon="1.801931">
        <ele>250.60733</ele>
        <time>2021-07-02T13:52:58Z</time>
      </trkpt>
      <trkpt lat="41.732025" lon="1.802146">
        <ele>248.91599</ele>
        <time>2021-07-02T13:52:59Z</time>
      </trkpt>
      <trkpt lat="41.732281" lon="1.802302">
        <ele>248.14963</ele>
        <time>2021-07-02T13:53:00Z</time>
      </trkpt>
      <trkpt lat="41.732590" lon="1.802447">
        <ele>246.99069</ele>
        <time>2021-07-02T13:53:01Z</time>
      </trkpt>
      <trkpt lat="41.732929" lon="1.802585">
        <ele>246.41068</ele>
        <time>2021-07-02T13:53:02Z</time>
      </trkpt>
      <trkpt lat="41.733250" lon="1.802710">
        <ele>246.30991</ele>
        <time>2021-07-02T13:53:03Z</time>
      </trkpt>
      <trkpt lat="41.733559" lon="1.802842">
        <ele>245.89603</ele>
        <time>2021-07-02T13:53:04Z</time>
      </trkpt>
      <trkpt lat="41.733868" lon="1.802992">
        <ele>246.18076</ele>
        <time>2021-07-02T13:53:05Z</time>
      </trkpt>
      <trkpt lat="41.734180" lon="1.803168">
        <ele>243.79495</ele>
        <time>2021-07-02T13:53:06Z</time>
      </trkpt>
      <trkpt lat="41.734463" lon="1.803341">
        <ele>242.12088</ele>
        <time>2021-07-02T13:53:07Z</time>
      </trkpt>
      <trkpt lat="41.734760" lon="1.803583">
        <ele>240.05759</ele>
        <time>2021-07-02T13:53:08Z</time>
      </trkpt>
      <trkpt lat="41.735043" lon="1.803846">
        <ele>238.51041</ele>
        <time>2021-07-02T13:53:09Z</time>
      </trkpt>
      <trkpt lat="41.735287" lon="1.804111">
        <ele>236.22348</ele>
        <time>2021-07-02T13:53:10Z</time>
      </trkpt>
      <trkpt lat="41.735519" lon="1.804375">
        <ele>234.62119</ele>
        <time>2021-07-02T13:53:11Z</time>
      </trkpt>
      <trkpt lat="41.735779" lon="1.804687">
        <ele>232.92068</ele>
        <time>2021-07-02T13:53:12Z</time>
      </trkpt>
      <trkpt lat="41.736008" lon="1.804981">
        <ele>231.67538</ele>
        <time>2021-07-02T13:53:13Z</time>
      </trkpt>
      <trkpt lat="41.736225" lon="1.805263">
        <ele>229.86386</ele>
        <time>2021-07-02T13:53:14Z</time>
      </trkpt>
      <trkpt lat="41.736450" lon="1.805553">
        <ele>228.82419</ele>
        <time>2021-07-02T13:53:15Z</time>
      </trkpt>
      <trkpt lat="41.736668" lon="1.805857">
        <ele>226.83279</ele>
        <time>2021-07-02T13:53:16Z</time>
      </trkpt>
      <trkpt lat="41.736881" lon="1.806187">
        <ele>225.95602</ele>
        <time>2021-07-02T13:53:17Z</time>
      </trkpt>
      <trkpt lat="41.737095" lon="1.806507">
        <ele>225.28268</ele>
        <time>2021-07-02T13:53:18Z</time>
      </trkpt>
      <trkpt lat="41.737293" lon="1.806819">
        <ele>224.59250</ele>
        <time>2021-07-02T13:53:19Z</time>
      </trkpt>
      <trkpt lat="41.737507" lon="1.807168">
        <ele>224.97934</ele>
        <time>2021-07-02T13:53:20Z</time>
      </trkpt>
      <trkpt lat="41.737709" lon="1.807503">
        <ele>224.70700</ele>
        <time>2021-07-02T13:53:21Z</time>
      </trkpt>
      <trkpt lat="41.737934" lon="1.807835">
        <ele>225.10501</ele>
        <time>2021-07-02T13:53:22Z</time>
      </trkpt>
      <trkpt lat="41.738148" lon="1.808194">
        <ele>225.83591</ele>
        <time>2021-07-02T13:53:23Z</time>
      </trkpt>
      <trkpt lat="41.738354" lon="1.808584">
        <ele>226.49533</ele>
        <time>2021-07-02T13:53:24Z</time>
      </trkpt>
      <trkpt lat="41.738548" lon="1.808991">
        <ele>227.22153</ele>
        <time>2021-07-02T13:53:25Z</time>
      </trkpt>
      <trkpt lat="41.738712" lon="1.809408">
        <ele>228.38712</ele>
        <time>2021-07-02T13:53:26Z</time>
      </trkpt>
      <trkpt lat="41.738876" lon="1.809904">
        <ele>229.69467</ele>
        <time>2021-07-02T13:53:27Z</time>
      </trkpt>
      <trkpt lat="41.739017" lon="1.810421">
        <ele>230.10178</ele>
        <time>2021-07-02T13:53:28Z</time>
      </trkpt>
      <trkpt lat="41.739132" lon="1.810927">
        <ele>230.27731</ele>
        <time>2021-07-02T13:53:29Z</time>
      </trkpt>
      <trkpt lat="41.739235" lon="1.811476">
        <ele>231.22250</ele>
        <time>2021-07-02T13:53:30Z</time>
      </trkpt>
      <trkpt lat="41.739330" lon="1.811991">
        <ele>232.01791</ele>
        <time>2021-07-02T13:53:31Z</time>
      </trkpt>
      <trkpt lat="41.739330" lon="1.811991">
        <ele>232.48166</ele>
        <time>2021-07-02T13:53:32Z</time>
      </trkpt>
      <trkpt lat="41.739418" lon="1.812478">
        <ele>233.42410</ele>
        <time>2021-07-02T13:53:33Z</time>
      </trkpt>
      <trkpt lat="41.739513" lon="1.813008">
        <ele>233.62973</ele>
        <time>2021-07-02T13:53:34Z</time>
      </trkpt>
      <trkpt lat="41.739605" lon="1.813517">
        <ele>234.13834</ele>
        <time>2021-07-02T13:53:35Z</time>
      </trkpt>
      <trkpt lat="41.739693" lon="1.814023">
        <ele>235.80576</ele>
        <time>2021-07-02T13:53:36Z</time>
      </trkpt>
      <trkpt lat="41.739773" lon="1.814505">
        <ele>236.37241</ele>
        <time>2021-07-02T13:53:37Z</time>
      </trkpt>
      <trkpt lat="41.739857" lon="1.815015">
        <ele>236.70633</ele>
        <time>2021-07-02T13:53:38Z</time>
      </trkpt>
      <trkpt lat="41.739948" lon="1.815542">
        <ele>237.96011</ele>
        <time>2021-07-02T13:53:39Z</time>
      </trkpt>
      <trkpt lat="41.740028" lon="1.816029">
        <ele>239.31516</ele>
        <time>2021-07-02T13:53:40Z</time>
      </trkpt>
      <trkpt lat="41.740112" lon="1.816533">
        <ele>240.56271</ele>
        <time>2021-07-02T13:53:41Z</time>
      </trkpt>
      <trkpt lat="41.740173" lon="1.817056">
        <ele>241.33524</ele>
        <time>2021-07-02T13:53:42Z</time>
      </trkpt>
      <trkpt lat="41.740200" lon="1.817567">
        <ele>242.35739</ele>
        <time>2021-07-02T13:53:43Z</time>
      </trkpt>
      <trkpt lat="41.740200" lon="1.818092">
        <ele>243.56039</ele>
        <time>2021-07-02T13:53:44Z</time>
      </trkpt>
      <trkpt lat="41.740192" lon="1.818570">
        <ele>245.36777</ele>
        <time>2021-07-02T13:53:45Z</time>
      </trkpt>
      <trkpt lat="41.740189" lon="1.819041">
        <ele>246.22299</ele>
        <time>2021-07-02T13:53:46Z</time>
      </trkpt>
      <trkpt lat="41.740196" lon="1.819498">
        <ele>247.26633</ele>
        <time>2021-07-02T13:53:47Z</time>
      </trkpt>
      <trkpt lat="41.740246" lon="1.819991">
        <ele>248.25705</ele>
        <time>2021-07-02T13:53:48Z</time>
      </trkpt>
      <trkpt lat="41.740314" lon="1.820429">
        <ele>249.60239</ele>
        <time>2021-07-02T13:53:49Z</time>
      </trkpt>
      <trkpt lat="41.740402" lon="1.820842">
        <ele>250.67740</ele>
        <time>2021-07-02T13:53:50Z</time>
      </trkpt>
      <trkpt lat="41.740524" lon="1.821267">
        <ele>250.64401</ele>
        <time>2021-07-02T13:53:51Z</time>
      </trkpt>
      <trkpt lat="41.740669" lon="1.821669">
        <ele>251.49936</ele>
        <time>2021-07-02T13:53:52Z</time>
      </trkpt>
      <trkpt lat="41.740829" lon="1.822043">
        <ele>251.85739</ele>
        <time>2021-07-02T13:53:53Z</time>
      </trkpt>
      <trkpt lat="41.741001" lon="1.822441">
        <ele>252.37595</ele>
        <time>2021-07-02T13:53:54Z</time>
      </trkpt>
      <trkpt lat="41.741177" lon="1.822845">
        <ele>252.44028</ele>
        <time>2021-07-02T13:53:55Z</time>
      </trkpt>
      <trkpt lat="41.741364" lon="1.823264">
        <ele>252.54788</ele>
        <time>2021-07-02T13:53:56Z</time>
      </trkpt>
      <trkpt lat="41.741539" lon="1.823664">
        <ele>252.60495</ele>
        <time>2021-07-02T13:53:57Z</time>
      </trkpt>
      <trkpt lat="41.741707" lon="1.824041">
        <ele>252.77823</ele>
        <time>2021-07-02T13:53:58Z</time>
      </trkpt>
      <trkpt lat="41.741871" lon="1.824410">
        <ele>253.05826</ele>
        <time>2021-07-02T13:53:59Z</time>
      </trkpt>
      <trkpt lat="41.742043" lon="1.824804">
        <ele>253.49948</ele>
        <time>2021-07-02T13:54:00Z</time>
      </trkpt>
      <trkpt lat="41.742229" lon="1.825229">
        <ele>254.54324</ele>
        <time>2021-07-02T13:54:01Z</time>
      </trkpt>
      <trkpt lat="41.742405" lon="1.825627">
        <ele>255.58676</ele>
        <time>2021-07-02T13:54:02Z</time>
      </trkpt>
      <trkpt lat="41.742577" lon="1.826024">
        <ele>256.43503</ele>
        <time>2021-07-02T13:54:03Z</time>
      </trkpt>
      <trkpt lat="41.742767" lon="1.826461">
        <ele>257.54184</ele>
        <time>2021-07-02T13:54:04Z</time>
      </trkpt>
      <trkpt lat="41.742954" lon="1.826888">
        <ele>259.15652</ele>
        <time>2021-07-02T13:54:05Z</time>
      </trkpt>
      <trkpt lat="41.743118" lon="1.827269">
        <ele>260.36404</ele>
        <time>2021-07-02T13:54:06Z</time>
      </trkpt>
      <trkpt lat="41.743118" lon="1.827269">
        <ele>261.12289</ele>
        <time>2021-07-02T13:54:07Z</time>
      </trkpt>
      <trkpt lat="41.743305" lon="1.827703">
        <ele>262.63168</ele>
        <time>2021-07-02T13:54:08Z</time>
      </trkpt>
      <trkpt lat="41.743481" lon="1.828085">
        <ele>264.04892</ele>
        <time>2021-07-02T13:54:09Z</time>
      </trkpt>
      <trkpt lat="41.743660" lon="1.828479">
        <ele>265.79434</ele>
        <time>2021-07-02T13:54:10Z</time>
      </trkpt>
      <trkpt lat="41.743851" lon="1.828882">
        <ele>267.09567</ele>
        <time>2021-07-02T13:54:11Z</time>
      </trkpt>
      <trkpt lat="41.744038" lon="1.829277">
        <ele>268.37497</ele>
        <time>2021-07-02T13:54:12Z</time>
      </trkpt>
      <trkpt lat="41.744240" lon="1.829698">
        <ele>269.53549</ele>
        <time>2021-07-02T13:54:13Z</time>
      </trkpt>
      <trkpt lat="41.744446" lon="1.830076">
        <ele>270.80014</ele>
        <time>2021-07-02T13:54:14Z</time>
      </trkpt>
      <trkpt lat="41.744659" lon="1.830440">
        <ele>271.64328</ele>
        <time>2021-07-02T13:54:15Z</time>
      </trkpt>
      <trkpt lat="41.744884" lon="1.830803">
        <ele>272.70981</ele>
        <time>2021-07-02T13:54:16Z</time>
      </trkpt>
      <trkpt lat="41.745125" lon="1.831159">
        <ele>273.27151</ele>
        <time>2021-07-02T13:54:17Z</time>
      </trkpt>
      <trkpt lat="41.745358" lon="1.831490">
        <ele>274.26352</ele>
        <time>2021-07-02T13:54:18Z</time>
      </trkpt>
      <trkpt lat="41.745605" lon="1.831805">
        <ele>274.64780</ele>
        <time>2021-07-02T13:54:19Z</time>
      </trkpt>
      <trkpt lat="41.745876" lon="1.832112">
        <ele>274.38193</ele>
        <time>2021-07-02T13:54:20Z</time>
      </trkpt>
      <trkpt lat="41.746155" lon="1.832421">
        <ele>274.62241</ele>
        <time>2021-07-02T13:54:21Z</time>
      </trkpt>
      <trkpt lat="41.746437" lon="1.832704">
        <ele>274.95444</ele>
        <time>2021-07-02T13:54:22Z</time>
      </trkpt>
      <trkpt lat="41.746731" lon="1.832978">
        <ele>275.51981</ele>
        <time>2021-07-02T13:54:23Z</time>
      </trkpt>
      <trkpt lat="41.747040" lon="1.833263">
        <ele>275.83286</ele>
        <time>2021-07-02T13:54:24Z</time>
      </trkpt>
      <trkpt lat="41.747368" lon="1.833557">
        <ele>276.17917</ele>
        <time>2021-07-02T13:54:25Z</time>
      </trkpt>
      <trkpt lat="41.747673" lon="1.833851">
        <ele>276.23679</ele>
        <time>2021-07-02T13:54:26Z</time>
      </trkpt>
      <trkpt lat="41.747955" lon="1.834125">
        <ele>276.93344</ele>
        <time>2021-07-02T13:54:27Z</time>
      </trkpt>
      <trkpt lat="41.748230" lon="1.834445">
        <ele>277.55881</ele>
        <time>2021-07-02T13:54:28Z</time>
      </trkpt>
      <trkpt lat="41.748493" lon="1.834767">
        <ele>277.54623</ele>
        <time>2021-07-02T13:54:29Z</time>
      </trkpt>
      <trkpt lat="41.748753" lon="1.835125">
        <ele>277.37436</ele>
        <time>2021-07-02T13:54:30Z</time>
      </trkpt>
      <trkpt lat="41.749001" lon="1.835507">
        <ele>277.31699</ele>
        <time>2021-07-02T13:54:31Z</time>
      </trkpt>
      <trkpt lat="41.749233" lon="1.835914">
        <ele>277.61166</ele>
        <time>2021-07-02T13:54:32Z</time>
      </trkpt>
      <trkpt lat="41.749443" lon="1.836325">
        <ele>278.17380</ele>
        <time>2021-07-02T13:54:33Z</time>
      </trkpt>
      <trkpt lat="41.749638" lon="1.836722">
        <ele>279.07529</ele>
        <time>2021-07-02T13:54:34Z</time>
      </trkpt>
      <trkpt lat="41.749821" lon="1.837148">
        <ele>279.66696</ele>
        <time>2021-07-02T13:54:35Z</time>
      </trkpt>
      <trkpt lat="41.749821" lon="1.837148">
        <ele>280.61203</ele>
        <time>2021-07-02T13:54:36Z</time>
      </trkpt>
      <trkpt lat="41.749973" lon="1.837599">
        <ele>281.50803</ele>
        <time>2021-07-02T13:54:37Z</time>
      </trkpt>
      <trkpt lat="41.750111" lon="1.838050">
        <ele>282.08823</ele>
        <time>2021-07-02T13:54:38Z</time>
      </trkpt>
      <trkpt lat="41.750252" lon="1.838463">
        <ele>283.09653</ele>
        <time>2021-07-02T13:54:39Z</time>
      </trkpt>
      <trkpt lat="41.750389" lon="1.838880">
        <ele>283.96603</ele>
        <time>2021-07-02T13:54:40Z</time>
      </trkpt>
      <trkpt lat="41.750515" lon="1.839276">
        <ele>285.10141</ele>
        <time>2021-07-02T13:54:41Z</time>
      </trkpt>
      <trkpt lat="41.750629" lon="1.839682">
        <ele>285.78067</ele>
        <time>2021-07-02T13:54:42Z</time>
      </trkpt>
      <trkpt lat="41.750763" lon="1.840110">
        <ele>286.60959</ele>
        <time>2021-07-02T13:54:43Z</time>
      </trkpt>
      <trkpt lat="41.750912" lon="1.840560">
        <ele>287.42526</ele>
        <time>2021-07-02T13:54:44Z</time>
      </trkpt>
      <trkpt lat="41.751060" lon="1.841001">
        <ele>287.90720</ele>
        <time>2021-07-02T13:54:45Z</time>
      </trkpt>
      <trkpt lat="41.751202" lon="1.841433">
        <ele>288.19290</ele>
        <time>2021-07-02T13:54:46Z</time>
      </trkpt>
      <trkpt lat="41.751366" lon="1.841853">
        <ele>289.21915</ele>
        <time>2021-07-02T13:54:47Z</time>
      </trkpt>
      <trkpt lat="41.751530" lon="1.842270">
        <ele>289.72000</ele>
        <time>2021-07-02T13:54:48Z</time>
      </trkpt>
      <trkpt lat="41.751686" lon="1.842663">
        <ele>289.45773</ele>
        <time>2021-07-02T13:54:49Z</time>
      </trkpt>
      <trkpt lat="41.751846" lon="1.843078">
        <ele>289.70187</ele>
        <time>2021-07-02T13:54:50Z</time>
      </trkpt>
      <trkpt lat="41.752022" lon="1.843493">
        <ele>289.53995</ele>
        <time>2021-07-02T13:54:51Z</time>
      </trkpt>
      <trkpt lat="41.752197" lon="1.843882">
        <ele>290.23221</ele>
        <time>2021-07-02T13:54:52Z</time>
      </trkpt>
      <trkpt lat="41.752373" lon="1.844247">
        <ele>290.53860</ele>
        <time>2021-07-02T13:54:53Z</time>
      </trkpt>
      <trkpt lat="41.752563" lon="1.844630">
        <ele>290.34604</ele>
        <time>2021-07-02T13:54:54Z</time>
      </trkpt>
      <trkpt lat="41.752750" lon="1.844995">
        <ele>290.41159</ele>
        <time>2021-07-02T13:54:55Z</time>
      </trkpt>
      <trkpt lat="41.752930" lon="1.845340">
        <ele>291.01108</ele>
        <time>2021-07-02T13:54:56Z</time>
      </trkpt>
      <trkpt lat="41.753128" lon="1.845721">
        <ele>290.97458</ele>
        <time>2021-07-02T13:54:57Z</time>
      </trkpt>
      <trkpt lat="41.753319" lon="1.846079">
        <ele>290.74570</ele>
        <time>2021-07-02T13:54:58Z</time>
      </trkpt>
      <trkpt lat="41.753517" lon="1.846470">
        <ele>290.67331</ele>
        <time>2021-07-02T13:54:59Z</time>
      </trkpt>
      <trkpt lat="41.753727" lon="1.846890">
        <ele>290.55222</ele>
        <time>2021-07-02T13:55:00Z</time>
      </trkpt>
      <trkpt lat="41.753914" lon="1.847305">
        <ele>290.28061</ele>
        <time>2021-07-02T13:55:01Z</time>
      </trkpt>
      <trkpt lat="41.754086" lon="1.847728">
        <ele>289.46542</ele>
        <time>2021-07-02T13:55:02Z</time>
      </trkpt>
      <trkpt lat="41.754246" lon="1.848156">
        <ele>288.42648</ele>
        <time>2021-07-02T13:55:03Z</time>
      </trkpt>
      <trkpt lat="41.754402" lon="1.848603">
        <ele>287.89200</ele>
        <time>2021-07-02T13:55:04Z</time>
      </trkpt>
      <trkpt lat="41.754539" lon="1.849073">
        <ele>287.12241</ele>
        <time>2021-07-02T13:55:05Z</time>
      </trkpt>
      <trkpt lat="41.754665" lon="1.849542">
        <ele>286.13815</ele>
        <time>2021-07-02T13:55:06Z</time>
      </trkpt>
      <trkpt lat="41.754768" lon="1.849996">
        <ele>285.09946</ele>
        <time>2021-07-02T13:55:07Z</time>
      </trkpt>
      <trkpt lat="41.754768" lon="1.849996">
        <ele>284.17020</ele>
        <time>2021-07-02T13:55:08Z</time>
      </trkpt>
      <trkpt lat="41.754875" lon="1.850468">
        <ele>282.65378</ele>
        <time>2021-07-02T13:55:09Z</time>
      </trkpt>
      <trkpt lat="41.754986" lon="1.850962">
        <ele>281.36606</ele>
        <time>2021-07-02T13:55:10Z</time>
      </trkpt>
      <trkpt lat="41.755096" lon="1.851429">
        <ele>280.26956</ele>
        <time>2021-07-02T13:55:11Z</time>
      </trkpt>
      <trkpt lat="41.755226" lon="1.851886">
        <ele>278.25388</ele>
        <time>2021-07-02T13:55:12Z</time>
      </trkpt>
      <trkpt lat="41.755383" lon="1.852309">
        <ele>276.06894</ele>
        <time>2021-07-02T13:55:13Z</time>
      </trkpt>
      <trkpt lat="41.755554" lon="1.852718">
        <ele>274.47702</ele>
        <time>2021-07-02T13:55:14Z</time>
      </trkpt>
      <trkpt lat="41.755745" lon="1.853114">
        <ele>272.90280</ele>
        <time>2021-07-02T13:55:15Z</time>
      </trkpt>
      <trkpt lat="41.755955" lon="1.853495">
        <ele>271.63950</ele>
        <time>2021-07-02T13:55:16Z</time>
      </trkpt>
      <trkpt lat="41.756187" lon="1.853866">
        <ele>270.17624</ele>
        <time>2021-07-02T13:55:17Z</time>
      </trkpt>
      <trkpt lat="41.756424" lon="1.854238">
        <ele>268.73691</ele>
        <time>2021-07-02T13:55:18Z</time>
      </trkpt>
      <trkpt lat="41.756657" lon="1.854603">
        <ele>267.68185</ele>
        <time>2021-07-02T13:55:19Z</time>
      </trkpt>
      <trkpt lat="41.756901" lon="1.854991">
        <ele>266.79532</ele>
        <time>2021-07-02T13:55:20Z</time>
      </trkpt>
      <trkpt lat="41.757137" lon="1.855365">
        <ele>265.66855</ele>
        <time>2021-07-02T13:55:21Z</time>
      </trkpt>
      <trkpt lat="41.757370" lon="1.855729">
        <ele>264.94296</ele>
        <time>2021-07-02T13:55:22Z</time>
      </trkpt>
      <trkpt lat="41.757610" lon="1.856111">
        <ele>264.13156</ele>
        <time>2021-07-02T13:55:23Z</time>
      </trkpt>
      <trkpt lat="41.757877" lon="1.856526">
        <ele>264.19406</ele>
        <time>2021-07-02T13:55:24Z</time>
      </trkpt>
      <trkpt lat="41.758118" lon="1.856907">
        <ele>263.90378</ele>
        <time>2021-07-02T13:55:25Z</time>
      </trkpt>
      <trkpt lat="41.758369" lon="1.857300">
        <ele>263.93027</ele>
        <time>2021-07-02T13:55:26Z</time>
      </trkpt>
      <trkpt lat="41.758621" lon="1.857696">
        <ele>263.93491</ele>
        <time>2021-07-02T13:55:27Z</time>
      </trkpt>
      <trkpt lat="41.758865" lon="1.858082">
        <ele>264.06668</ele>
        <time>2021-07-02T13:55:28Z</time>
      </trkpt>
      <trkpt lat="41.759121" lon="1.858513">
        <ele>264.38834</ele>
        <time>2021-07-02T13:55:29Z</time>
      </trkpt>
      <trkpt lat="41.759396" lon="1.858917">
        <ele>264.56491</ele>
        <time>2021-07-02T13:55:30Z</time>
      </trkpt>
      <trkpt lat="41.759659" lon="1.859313">
        <ele>264.89304</ele>
        <time>2021-07-02T13:55:31Z</time>
      </trkpt>
      <trkpt lat="41.759659" lon="1.859313">
        <ele>264.52591</ele>
        <time>2021-07-02T13:55:32Z</time>
      </trkpt>
      <trkpt lat="41.759930" lon="1.859732">
        <ele>265.12149</ele>
        <time>2021-07-02T13:55:33Z</time>
      </trkpt>
      <trkpt lat="41.760166" lon="1.860120">
        <ele>265.49142</ele>
        <time>2021-07-02T13:55:34Z</time>
      </trkpt>
      <trkpt lat="41.760429" lon="1.860551">
        <ele>265.88412</ele>
        <time>2021-07-02T13:55:35Z</time>
      </trkpt>
      <trkpt lat="41.760685" lon="1.860976">
        <ele>265.98813</ele>
        <time>2021-07-02T13:55:36Z</time>
      </trkpt>
      <trkpt lat="41.760925" lon="1.861413">
        <ele>266.44626</ele>
        <time>2021-07-02T13:55:37Z</time>
      </trkpt>
      <trkpt lat="41.761169" lon="1.861880">
        <ele>266.34042</ele>
        <time>2021-07-02T13:55:38Z</time>
      </trkpt>
      <trkpt lat="41.761402" lon="1.862347">
        <ele>266.66306</ele>
        <time>2021-07-02T13:55:39Z</time>
      </trkpt>
      <trkpt lat="41.761604" lon="1.862804">
        <ele>267.30148</ele>
        <time>2021-07-02T13:55:40Z</time>
      </trkpt>
      <trkpt lat="41.761799" lon="1.863278">
        <ele>267.89999</ele>
        <time>2021-07-02T13:55:41Z</time>
      </trkpt>
      <trkpt lat="41.761978" lon="1.863760">
        <ele>267.93112</ele>
        <time>2021-07-02T13:55:42Z</time>
      </trkpt>
      <trkpt lat="41.762150" lon="1.864242">
        <ele>268.36594</ele>
        <time>2021-07-02T13:55:43Z</time>
      </trkpt>
      <trkpt lat="41.762318" lon="1.864738">
        <ele>268.90195</ele>
        <time>2021-07-02T13:55:44Z</time>
      </trkpt>
      <trkpt lat="41.762478" lon="1.865218">
        <ele>270.63168</ele>
        <time>2021-07-02T13:55:45Z</time>
      </trkpt>
      <trkpt lat="41.762642" lon="1.865652">
        <ele>271.17453</ele>
        <time>2021-07-02T13:55:46Z</time>
      </trkpt>
      <trkpt lat="41.762848" lon="1.866146">
        <ele>271.43417</ele>
        <time>2021-07-02T13:55:47Z</time>
      </trkpt>
      <trkpt lat="41.763062" lon="1.866571">
        <ele>271.22665</ele>
        <time>2021-07-02T13:55:48Z</time>
      </trkpt>
      <trkpt lat="41.763306" lon="1.866956">
        <ele>271.52939</ele>
        <time>2021-07-02T13:55:49Z</time>
      </trkpt>
      <trkpt lat="41.763561" lon="1.867326">
        <ele>271.44186</ele>
        <time>2021-07-02T13:55:50Z</time>
      </trkpt>
      <trkpt lat="41.763847" lon="1.867653">
        <ele>271.12021</ele>
        <time>2021-07-02T13:55:51Z</time>
      </trkpt>
      <trkpt lat="41.764145" lon="1.867961">
        <ele>271.02762</ele>
        <time>2021-07-02T13:55:52Z</time>
      </trkpt>
      <trkpt lat="41.764462" lon="1.868236">
        <ele>270.44260</ele>
        <time>2021-07-02T13:55:53Z</time>
      </trkpt>
      <trkpt lat="41.764805" lon="1.868490">
        <ele>269.83420</ele>
        <time>2021-07-02T13:55:54Z</time>
      </trkpt>
      <trkpt lat="41.765144" lon="1.868742">
        <ele>270.06650</ele>
        <time>2021-07-02T13:55:55Z</time>
      </trkpt>
      <trkpt lat="41.765446" lon="1.868968">
        <ele>270.28653</ele>
        <time>2021-07-02T13:55:56Z</time>
      </trkpt>
      <trkpt lat="41.765770" lon="1.869215">
        <ele>270.58298</ele>
        <time>2021-07-02T13:55:57Z</time>
      </trkpt>
      <trkpt lat="41.766048" lon="1.869428">
        <ele>270.82498</ele>
        <time>2021-07-02T13:55:58Z</time>
      </trkpt>
      <trkpt lat="41.766342" lon="1.869654">
        <ele>271.65573</ele>
        <time>2021-07-02T13:55:59Z</time>
      </trkpt>
      <trkpt lat="41.766628" lon="1.869892">
        <ele>271.68271</ele>
        <time>2021-07-02T13:56:00Z</time>
      </trkpt>
      <trkpt lat="41.766628" lon="1.869892">
        <ele>272.08151</ele>
        <time>2021-07-02T13:56:01Z</time>
      </trkpt>
      <trkpt lat="41.766930" lon="1.870141">
        <ele>273.34579</ele>
        <time>2021-07-02T13:56:02Z</time>
      </trkpt>
      <trkpt lat="41.767189" lon="1.870356">
        <ele>273.51437</ele>
        <time>2021-07-02T13:56:03Z</time>
      </trkpt>
      <trkpt lat="41.767475" lon="1.870593">
        <ele>273.23288</ele>
        <time>2021-07-02T13:56:04Z</time>
      </trkpt>
      <trkpt lat="41.767773" lon="1.870835">
        <ele>273.78214</ele>
        <time>2021-07-02T13:56:05Z</time>
      </trkpt>
      <trkpt lat="41.768089" lon="1.871096">
        <ele>273.47226</ele>
        <time>2021-07-02T13:56:06Z</time>
      </trkpt>
      <trkpt lat="41.768394" lon="1.871349">
        <ele>273.82449</ele>
        <time>2021-07-02T13:56:07Z</time>
      </trkpt>
      <trkpt lat="41.768707" lon="1.871609">
        <ele>274.15860</ele>
        <time>2021-07-02T13:56:08Z</time>
      </trkpt>
      <trkpt lat="41.769032" lon="1.871877">
        <ele>274.19217</ele>
        <time>2021-07-02T13:56:09Z</time>
      </trkpt>
      <trkpt lat="41.769360" lon="1.872148">
        <ele>275.61008</ele>
        <time>2021-07-02T13:56:10Z</time>
      </trkpt>
      <trkpt lat="41.769672" lon="1.872406">
        <ele>276.27451</ele>
        <time>2021-07-02T13:56:11Z</time>
      </trkpt>
      <trkpt lat="41.770020" lon="1.872694">
        <ele>276.38559</ele>
        <time>2021-07-02T13:56:12Z</time>
      </trkpt>
      <trkpt lat="41.770336" lon="1.872957">
        <ele>276.88242</ele>
        <time>2021-07-02T13:56:13Z</time>
      </trkpt>
      <trkpt lat="41.770653" lon="1.873218">
        <ele>277.29611</ele>
        <time>2021-07-02T13:56:14Z</time>
      </trkpt>
      <trkpt lat="41.770981" lon="1.873489">
        <ele>278.31973</ele>
        <time>2021-07-02T13:56:15Z</time>
      </trkpt>
      <trkpt lat="41.771301" lon="1.873754">
        <ele>279.46414</ele>
        <time>2021-07-02T13:56:16Z</time>
      </trkpt>
      <trkpt lat="41.771641" lon="1.874030">
        <ele>280.49161</ele>
        <time>2021-07-02T13:56:17Z</time>
      </trkpt>
      <trkpt lat="41.771961" lon="1.874295">
        <ele>281.88229</ele>
        <time>2021-07-02T13:56:18Z</time>
      </trkpt>
      <trkpt lat="41.772270" lon="1.874552">
        <ele>283.11752</ele>
        <time>2021-07-02T13:56:19Z</time>
      </trkpt>
      <trkpt lat="41.772594" lon="1.874813">
        <ele>283.98764</ele>
        <time>2021-07-02T13:56:20Z</time>
      </trkpt>
      <trkpt lat="41.772930" lon="1.875080">
        <ele>285.51877</ele>
        <time>2021-07-02T13:56:21Z</time>
      </trkpt>
      <trkpt lat="41.773258" lon="1.875347">
        <ele>286.28439</ele>
        <time>2021-07-02T13:56:22Z</time>
      </trkpt>
      <trkpt lat="41.773567" lon="1.875601">
        <ele>287.24503</ele>
        <time>2021-07-02T13:56:23Z</time>
      </trkpt>
      <trkpt lat="41.773869" lon="1.875847">
        <ele>288.47910</ele>
        <time>2021-07-02T13:56:24Z</time>
      </trkpt>
      <trkpt lat="41.774178" lon="1.876100">
        <ele>289.10861</ele>
        <time>2021-07-02T13:56:25Z</time>
      </trkpt>
      <trkpt lat="41.774475" lon="1.876342">
        <ele>290.29514</ele>
        <time>2021-07-02T13:56:26Z</time>
      </trkpt>
      <trkpt lat="41.774757" lon="1.876578">
        <ele>291.49496</ele>
        <time>2021-07-02T13:56:27Z</time>
      </trkpt>
      <trkpt lat="41.775047" lon="1.876819">
        <ele>292.01657</ele>
        <time>2021-07-02T13:56:28Z</time>
      </trkpt>
      <trkpt lat="41.775330" lon="1.877053">
        <ele>292.58786</ele>
        <time>2021-07-02T13:56:29Z</time>
      </trkpt>
      <trkpt lat="41.775585" lon="1.877280">
        <ele>293.45602</ele>
        <time>2021-07-02T13:56:30Z</time>
      </trkpt>
      <trkpt lat="41.775856" lon="1.877530">
        <ele>293.61795</ele>
        <time>2021-07-02T13:56:31Z</time>
      </trkpt>
      <trkpt lat="41.776131" lon="1.877782">
        <ele>293.96902</ele>
        <time>2021-07-02T13:56:32Z</time>
      </trkpt>
      <trkpt lat="41.776131" lon="1.877782">
        <ele>293.89987</ele>
        <time>2021-07-02T13:56:33Z</time>
      </trkpt>
      <trkpt lat="41.776417" lon="1.878060">
        <ele>293.49496</ele>
        <time>2021-07-02T13:56:34Z</time>
      </trkpt>
      <trkpt lat="41.776680" lon="1.878331">
        <ele>293.21140</ele>
        <time>2021-07-02T13:56:35Z</time>
      </trkpt>
      <trkpt lat="41.776966" lon="1.878648">
        <ele>292.78091</ele>
        <time>2021-07-02T13:56:36Z</time>
      </trkpt>
      <trkpt lat="41.777222" lon="1.878947">
        <ele>293.02951</ele>
        <time>2021-07-02T13:56:37Z</time>
      </trkpt>
      <trkpt lat="41.777431" lon="1.879231">
        <ele>293.17001</ele>
        <time>2021-07-02T13:56:38Z</time>
      </trkpt>
      <trkpt lat="41.777679" lon="1.879588">
        <ele>292.93777</ele>
        <time>2021-07-02T13:56:39Z</time>
      </trkpt>
      <trkpt lat="41.777901" lon="1.879943">
        <ele>293.00107</ele>
        <time>2021-07-02T13:56:40Z</time>
      </trkpt>
      <trkpt lat="41.778088" lon="1.880287">
        <ele>293.10605</ele>
        <time>2021-07-02T13:56:41Z</time>
      </trkpt>
      <trkpt lat="41.778290" lon="1.880672">
        <ele>293.08023</ele>
        <time>2021-07-02T13:56:42Z</time>
      </trkpt>
      <trkpt lat="41.778442" lon="1.881104">
        <ele>292.51773</ele>
        <time>2021-07-02T13:56:43Z</time>
      </trkpt>
      <trkpt lat="41.778572" lon="1.881482">
        <ele>292.87900</ele>
        <time>2021-07-02T13:56:44Z</time>
      </trkpt>
      <trkpt lat="41.778698" lon="1.881889">
        <ele>293.58798</ele>
        <time>2021-07-02T13:56:45Z</time>
      </trkpt>
      <trkpt lat="41.778820" lon="1.882336">
        <ele>293.49435</ele>
        <time>2021-07-02T13:56:46Z</time>
      </trkpt>
      <trkpt lat="41.778908" lon="1.882771">
        <ele>293.45090</ele>
        <time>2021-07-02T13:56:47Z</time>
      </trkpt>
      <trkpt lat="41.778980" lon="1.883208">
        <ele>293.52792</ele>
        <time>2021-07-02T13:56:48Z</time>
      </trkpt>
      <trkpt lat="41.778988" lon="1.883229">
        <ele>293.45322</ele>
        <time>2021-07-02T13:56:49Z</time>
      </trkpt>
      <trkpt lat="41.779083" lon="1.883628">
        <ele>293.30057</ele>
        <time>2021-07-02T13:56:50Z</time>
      </trkpt>
      <trkpt lat="41.779156" lon="1.884544">
        <ele>292.79495</ele>
        <time>2021-07-02T13:56:51Z</time>
      </trkpt>
      <trkpt lat="41.779179" lon="1.884967">
        <ele>293.02029</ele>
        <time>2021-07-02T13:56:52Z</time>
      </trkpt>
      <trkpt lat="41.779205" lon="1.885433">
        <ele>292.35153</ele>
        <time>2021-07-02T13:56:53Z</time>
      </trkpt>
      <trkpt lat="41.779224" lon="1.885862">
        <ele>291.51138</ele>
        <time>2021-07-02T13:56:54Z</time>
      </trkpt>
      <trkpt lat="41.779243" lon="1.886323">
        <ele>290.92996</ele>
        <time>2021-07-02T13:56:55Z</time>
      </trkpt>
      <trkpt lat="41.779270" lon="1.886788">
        <ele>289.62314</ele>
        <time>2021-07-02T13:56:56Z</time>
      </trkpt>
      <trkpt lat="41.779335" lon="1.887249">
        <ele>288.72507</ele>
        <time>2021-07-02T13:56:57Z</time>
      </trkpt>
      <trkpt lat="41.779247" lon="1.887732">
        <ele>287.81204</ele>
        <time>2021-07-02T13:56:58Z</time>
      </trkpt>
      <trkpt lat="41.779263" lon="1.888173">
        <ele>287.13858</ele>
        <time>2021-07-02T13:56:59Z</time>
      </trkpt>
      <trkpt lat="41.779278" lon="1.888600">
        <ele>285.50229</ele>
        <time>2021-07-02T13:57:00Z</time>
      </trkpt>
      <trkpt lat="41.779289" lon="1.889013">
        <ele>284.79337</ele>
        <time>2021-07-02T13:57:01Z</time>
      </trkpt>
      <trkpt lat="41.779312" lon="1.889446">
        <ele>284.22299</ele>
        <time>2021-07-02T13:57:02Z</time>
      </trkpt>
      <trkpt lat="41.779331" lon="1.889945">
        <ele>283.47104</ele>
        <time>2021-07-02T13:57:03Z</time>
      </trkpt>
      <trkpt lat="41.779343" lon="1.890405">
        <ele>282.56760</ele>
        <time>2021-07-02T13:57:04Z</time>
      </trkpt>
      <trkpt lat="41.779354" lon="1.890820">
        <ele>281.87296</ele>
        <time>2021-07-02T13:57:05Z</time>
      </trkpt>
      <trkpt lat="41.779366" lon="1.891240">
        <ele>280.63663</ele>
        <time>2021-07-02T13:57:06Z</time>
      </trkpt>
      <trkpt lat="41.779388" lon="1.891651">
        <ele>279.50815</ele>
        <time>2021-07-02T13:57:07Z</time>
      </trkpt>
      <trkpt lat="41.779388" lon="1.891651">
        <ele>278.58713</ele>
        <time>2021-07-02T13:57:08Z</time>
      </trkpt>
      <trkpt lat="41.779408" lon="1.892089">
        <ele>277.78287</ele>
        <time>2021-07-02T13:57:09Z</time>
      </trkpt>
      <trkpt lat="41.779423" lon="1.892473">
        <ele>276.62497</ele>
        <time>2021-07-02T13:57:10Z</time>
      </trkpt>
      <trkpt lat="41.779438" lon="1.892891">
        <ele>275.47849</ele>
        <time>2021-07-02T13:57:11Z</time>
      </trkpt>
      <trkpt lat="41.779453" lon="1.893279">
        <ele>274.25174</ele>
        <time>2021-07-02T13:57:12Z</time>
      </trkpt>
      <trkpt lat="41.779472" lon="1.893712">
        <ele>272.44516</ele>
        <time>2021-07-02T13:57:13Z</time>
      </trkpt>
      <trkpt lat="41.779495" lon="1.894117">
        <ele>271.15396</ele>
        <time>2021-07-02T13:57:14Z</time>
      </trkpt>
      <trkpt lat="41.779514" lon="1.894546">
        <ele>270.19180</ele>
        <time>2021-07-02T13:57:15Z</time>
      </trkpt>
      <trkpt lat="41.779526" lon="1.894944">
        <ele>269.28537</ele>
        <time>2021-07-02T13:57:16Z</time>
      </trkpt>
      <trkpt lat="41.779545" lon="1.895362">
        <ele>268.10226</ele>
        <time>2021-07-02T13:57:17Z</time>
      </trkpt>
      <trkpt lat="41.779556" lon="1.895771">
        <ele>266.94174</ele>
        <time>2021-07-02T13:57:18Z</time>
      </trkpt>
      <trkpt lat="41.779579" lon="1.896208">
        <ele>265.94980</ele>
        <time>2021-07-02T13:57:19Z</time>
      </trkpt>
      <trkpt lat="41.779598" lon="1.896634">
        <ele>265.01474</ele>
        <time>2021-07-02T13:57:20Z</time>
      </trkpt>
      <trkpt lat="41.779621" lon="1.897060">
        <ele>264.50143</ele>
        <time>2021-07-02T13:57:21Z</time>
      </trkpt>
      <trkpt lat="41.779659" lon="1.897474">
        <ele>263.65085</ele>
        <time>2021-07-02T13:57:22Z</time>
      </trkpt>
      <trkpt lat="41.779705" lon="1.897905">
        <ele>262.65732</ele>
        <time>2021-07-02T13:57:23Z</time>
      </trkpt>
      <trkpt lat="41.779762" lon="1.898331">
        <ele>261.11398</ele>
        <time>2021-07-02T13:57:24Z</time>
      </trkpt>
      <trkpt lat="41.779819" lon="1.898755">
        <ele>259.91769</ele>
        <time>2021-07-02T13:57:25Z</time>
      </trkpt>
      <trkpt lat="41.779888" lon="1.899188">
        <ele>258.67758</ele>
        <time>2021-07-02T13:57:26Z</time>
      </trkpt>
      <trkpt lat="41.779968" lon="1.899641">
        <ele>257.42117</ele>
        <time>2021-07-02T13:57:27Z</time>
      </trkpt>
      <trkpt lat="41.780060" lon="1.900062">
        <ele>256.64877</ele>
        <time>2021-07-02T13:57:28Z</time>
      </trkpt>
      <trkpt lat="41.780167" lon="1.900497">
        <ele>255.88168</ele>
        <time>2021-07-02T13:57:29Z</time>
      </trkpt>
      <trkpt lat="41.780266" lon="1.900893">
        <ele>255.28574</ele>
        <time>2021-07-02T13:57:30Z</time>
      </trkpt>
      <trkpt lat="41.780361" lon="1.901279">
        <ele>254.81784</ele>
        <time>2021-07-02T13:57:31Z</time>
      </trkpt>
      <trkpt lat="41.780495" lon="1.901720">
        <ele>254.36533</ele>
        <time>2021-07-02T13:57:32Z</time>
      </trkpt>
      <trkpt lat="41.780636" lon="1.902114">
        <ele>253.88626</ele>
        <time>2021-07-02T13:57:33Z</time>
      </trkpt>
      <trkpt lat="41.780781" lon="1.902485">
        <ele>253.92050</ele>
        <time>2021-07-02T13:57:34Z</time>
      </trkpt>
      <trkpt lat="41.780933" lon="1.902894">
        <ele>254.26572</ele>
        <time>2021-07-02T13:57:35Z</time>
      </trkpt>
      <trkpt lat="41.781101" lon="1.903270">
        <ele>254.07089</ele>
        <time>2021-07-02T13:57:36Z</time>
      </trkpt>
      <trkpt lat="41.781281" lon="1.903657">
        <ele>254.03989</ele>
        <time>2021-07-02T13:57:37Z</time>
      </trkpt>
      <trkpt lat="41.781452" lon="1.904024">
        <ele>254.02023</ele>
        <time>2021-07-02T13:57:38Z</time>
      </trkpt>
      <trkpt lat="41.781651" lon="1.904413">
        <ele>253.43686</ele>
        <time>2021-07-02T13:57:39Z</time>
      </trkpt>
      <trkpt lat="41.781651" lon="1.904413">
        <ele>253.46921</ele>
        <time>2021-07-02T13:57:40Z</time>
      </trkpt>
      <trkpt lat="41.781868" lon="1.904802">
        <ele>253.21371</ele>
        <time>2021-07-02T13:57:41Z</time>
      </trkpt>
      <trkpt lat="41.782104" lon="1.905204">
        <ele>253.39865</ele>
        <time>2021-07-02T13:57:42Z</time>
      </trkpt>
      <trkpt lat="41.782352" lon="1.905624">
        <ele>253.04941</ele>
        <time>2021-07-02T13:57:43Z</time>
      </trkpt>
      <trkpt lat="41.782600" lon="1.906007">
        <ele>252.90457</ele>
        <time>2021-07-02T13:57:44Z</time>
      </trkpt>
      <trkpt lat="41.782841" lon="1.906339">
        <ele>252.73886</ele>
        <time>2021-07-02T13:57:45Z</time>
      </trkpt>
      <trkpt lat="41.783115" lon="1.906695">
        <ele>252.69058</ele>
        <time>2021-07-02T13:57:46Z</time>
      </trkpt>
      <trkpt lat="41.783367" lon="1.906995">
        <ele>252.40219</ele>
        <time>2021-07-02T13:57:47Z</time>
      </trkpt>
      <trkpt lat="41.783630" lon="1.907300">
        <ele>251.36203</ele>
        <time>2021-07-02T13:57:48Z</time>
      </trkpt>
      <trkpt lat="41.783924" lon="1.907611">
        <ele>251.52878</ele>
        <time>2021-07-02T13:57:49Z</time>
      </trkpt>
      <trkpt lat="41.784210" lon="1.907896">
        <ele>251.62888</ele>
        <time>2021-07-02T13:57:50Z</time>
      </trkpt>
      <trkpt lat="41.784512" lon="1.908195">
        <ele>251.81180</ele>
        <time>2021-07-02T13:57:51Z</time>
      </trkpt>
      <trkpt lat="41.784790" lon="1.908483">
        <ele>251.92917</ele>
        <time>2021-07-02T13:57:52Z</time>
      </trkpt>
      <trkpt lat="41.785072" lon="1.908785">
        <ele>252.00388</ele>
        <time>2021-07-02T13:57:53Z</time>
      </trkpt>
      <trkpt lat="41.785362" lon="1.909097">
        <ele>252.03250</ele>
        <time>2021-07-02T13:57:54Z</time>
      </trkpt>
      <trkpt lat="41.785641" lon="1.909395">
        <ele>251.59232</ele>
        <time>2021-07-02T13:57:55Z</time>
      </trkpt>
      <trkpt lat="41.785912" lon="1.909685">
        <ele>251.62582</ele>
        <time>2021-07-02T13:57:56Z</time>
      </trkpt>
      <trkpt lat="41.786190" lon="1.909982">
        <ele>251.33127</ele>
        <time>2021-07-02T13:57:57Z</time>
      </trkpt>
      <trkpt lat="41.786488" lon="1.910301">
        <ele>252.04868</ele>
        <time>2021-07-02T13:57:58Z</time>
      </trkpt>
      <trkpt lat="41.786781" lon="1.910613">
        <ele>252.04080</ele>
        <time>2021-07-02T13:57:59Z</time>
      </trkpt>
      <trkpt lat="41.787071" lon="1.910926">
        <ele>252.25674</ele>
        <time>2021-07-02T13:58:00Z</time>
      </trkpt>
      <trkpt lat="41.787350" lon="1.911224">
        <ele>252.33536</ele>
        <time>2021-07-02T13:58:01Z</time>
      </trkpt>
      <trkpt lat="41.787598" lon="1.911489">
        <ele>252.46762</ele>
        <time>2021-07-02T13:58:02Z</time>
      </trkpt>
      <trkpt lat="41.787888" lon="1.911800">
        <ele>252.55832</ele>
        <time>2021-07-02T13:58:03Z</time>
      </trkpt>
      <trkpt lat="41.788197" lon="1.912127">
        <ele>252.75473</ele>
        <time>2021-07-02T13:58:04Z</time>
      </trkpt>
      <trkpt lat="41.788471" lon="1.912420">
        <ele>252.74063</ele>
        <time>2021-07-02T13:58:05Z</time>
      </trkpt>
      <trkpt lat="41.788921" lon="1.912903">
        <ele>253.30692</ele>
        <time>2021-07-02T13:58:06Z</time>
      </trkpt>
      <trkpt lat="41.789036" lon="1.913021">
        <ele>253.93613</ele>
        <time>2021-07-02T13:58:07Z</time>
      </trkpt>
      <trkpt lat="41.789356" lon="1.913365">
        <ele>253.65677</ele>
        <time>2021-07-02T13:58:08Z</time>
      </trkpt>
      <trkpt lat="41.789780" lon="1.913815">
        <ele>254.33615</ele>
        <time>2021-07-02T13:58:09Z</time>
      </trkpt>
      <trkpt lat="41.789829" lon="1.913871">
        <ele>255.31180</ele>
        <time>2021-07-02T13:58:10Z</time>
      </trkpt>
      <trkpt lat="41.790199" lon="1.914269">
        <ele>255.74118</ele>
        <time>2021-07-02T13:58:11Z</time>
      </trkpt>
      <trkpt lat="41.790199" lon="1.914269">
        <ele>256.23203</ele>
        <time>2021-07-02T13:58:12Z</time>
      </trkpt>
      <trkpt lat="41.790428" lon="1.914516">
        <ele>256.37357</ele>
        <time>2021-07-02T13:58:13Z</time>
      </trkpt>
      <trkpt lat="41.790703" lon="1.914805">
        <ele>256.73380</ele>
        <time>2021-07-02T13:58:14Z</time>
      </trkpt>
      <trkpt lat="41.791016" lon="1.915134">
        <ele>257.32962</ele>
        <time>2021-07-02T13:58:15Z</time>
      </trkpt>
      <trkpt lat="41.791264" lon="1.915395">
        <ele>258.27414</ele>
        <time>2021-07-02T13:58:16Z</time>
      </trkpt>
      <trkpt lat="41.791588" lon="1.915734">
        <ele>258.87582</ele>
        <time>2021-07-02T13:58:17Z</time>
      </trkpt>
      <trkpt lat="41.791836" lon="1.915996">
        <ele>259.26755</ele>
        <time>2021-07-02T13:58:18Z</time>
      </trkpt>
      <trkpt lat="41.792103" lon="1.916275">
        <ele>259.48148</ele>
        <time>2021-07-02T13:58:19Z</time>
      </trkpt>
      <trkpt lat="41.792393" lon="1.916579">
        <ele>260.64865</ele>
        <time>2021-07-02T13:58:20Z</time>
      </trkpt>
      <trkpt lat="41.792675" lon="1.916879">
        <ele>261.59537</ele>
        <time>2021-07-02T13:58:21Z</time>
      </trkpt>
      <trkpt lat="41.792992" lon="1.917210">
        <ele>261.83603</ele>
        <time>2021-07-02T13:58:22Z</time>
      </trkpt>
      <trkpt lat="41.793240" lon="1.917472">
        <ele>262.19937</ele>
        <time>2021-07-02T13:58:23Z</time>
      </trkpt>
      <trkpt lat="41.793530" lon="1.917785">
        <ele>262.64438</ele>
        <time>2021-07-02T13:58:24Z</time>
      </trkpt>
      <trkpt lat="41.793812" lon="1.918107">
        <ele>263.03006</ele>
        <time>2021-07-02T13:58:25Z</time>
      </trkpt>
      <trkpt lat="41.794106" lon="1.918453">
        <ele>263.18027</ele>
        <time>2021-07-02T13:58:26Z</time>
      </trkpt>
      <trkpt lat="41.794373" lon="1.918813">
        <ele>263.53110</ele>
        <time>2021-07-02T13:58:27Z</time>
      </trkpt>
      <trkpt lat="41.794640" lon="1.919189">
        <ele>264.35947</ele>
        <time>2021-07-02T13:58:28Z</time>
      </trkpt>
      <trkpt lat="41.794865" lon="1.919559">
        <ele>264.53897</ele>
        <time>2021-07-02T13:58:29Z</time>
      </trkpt>
      <trkpt lat="41.795086" lon="1.919938">
        <ele>264.75693</ele>
        <time>2021-07-02T13:58:30Z</time>
      </trkpt>
      <trkpt lat="41.795280" lon="1.920295">
        <ele>264.83798</ele>
        <time>2021-07-02T13:58:31Z</time>
      </trkpt>
      <trkpt lat="41.795441" lon="1.920631">
        <ele>265.28647</ele>
        <time>2021-07-02T13:58:32Z</time>
      </trkpt>
      <trkpt lat="41.795605" lon="1.920972">
        <ele>265.46664</ele>
        <time>2021-07-02T13:58:33Z</time>
      </trkpt>
      <trkpt lat="41.795753" lon="1.921332">
        <ele>265.91061</ele>
        <time>2021-07-02T13:58:34Z</time>
      </trkpt>
      <trkpt lat="41.795898" lon="1.921703">
        <ele>266.51328</ele>
        <time>2021-07-02T13:58:35Z</time>
      </trkpt>
      <trkpt lat="41.796032" lon="1.922061">
        <ele>266.70480</ele>
        <time>2021-07-02T13:58:36Z</time>
      </trkpt>
      <trkpt lat="41.796143" lon="1.922379">
        <ele>267.27487</ele>
        <time>2021-07-02T13:58:37Z</time>
      </trkpt>
      <trkpt lat="41.796261" lon="1.922713">
        <ele>267.43088</ele>
        <time>2021-07-02T13:58:38Z</time>
      </trkpt>
      <trkpt lat="41.796379" lon="1.923060">
        <ele>268.14871</ele>
        <time>2021-07-02T13:58:39Z</time>
      </trkpt>
      <trkpt lat="41.796379" lon="1.923060">
        <ele>269.18637</ele>
        <time>2021-07-02T13:58:40Z</time>
      </trkpt>
      <trkpt lat="41.796516" lon="1.923460">
        <ele>269.84872</ele>
        <time>2021-07-02T13:58:41Z</time>
      </trkpt>
      <trkpt lat="41.796646" lon="1.923827">
        <ele>271.09811</ele>
        <time>2021-07-02T13:58:42Z</time>
      </trkpt>
      <trkpt lat="41.796787" lon="1.924195">
        <ele>272.21439</ele>
        <time>2021-07-02T13:58:43Z</time>
      </trkpt>
      <trkpt lat="41.796947" lon="1.924569">
        <ele>272.89633</ele>
        <time>2021-07-02T13:58:44Z</time>
      </trkpt>
      <trkpt lat="41.797115" lon="1.924933">
        <ele>273.52463</ele>
        <time>2021-07-02T13:58:45Z</time>
      </trkpt>
      <trkpt lat="41.797295" lon="1.925294">
        <ele>274.80283</ele>
        <time>2021-07-02T13:58:46Z</time>
      </trkpt>
      <trkpt lat="41.797497" lon="1.925674">
        <ele>275.53745</ele>
        <time>2021-07-02T13:58:47Z</time>
      </trkpt>
      <trkpt lat="41.797714" lon="1.926044">
        <ele>276.26071</ele>
        <time>2021-07-02T13:58:48Z</time>
      </trkpt>
      <trkpt lat="41.797935" lon="1.926407">
        <ele>276.10922</ele>
        <time>2021-07-02T13:58:49Z</time>
      </trkpt>
      <trkpt lat="41.798157" lon="1.926729">
        <ele>276.39743</ele>
        <time>2021-07-02T13:58:50Z</time>
      </trkpt>
      <trkpt lat="41.798401" lon="1.927068">
        <ele>276.95132</ele>
        <time>2021-07-02T13:58:51Z</time>
      </trkpt>
      <trkpt lat="41.798664" lon="1.927403">
        <ele>277.10385</ele>
        <time>2021-07-02T13:58:52Z</time>
      </trkpt>
      <trkpt lat="41.798912" lon="1.927701">
        <ele>277.72903</ele>
        <time>2021-07-02T13:58:53Z</time>
      </trkpt>
      <trkpt lat="41.799202" lon="1.928013">
        <ele>276.98550</ele>
        <time>2021-07-02T13:58:54Z</time>
      </trkpt>
      <trkpt lat="41.799492" lon="1.928310">
        <ele>277.30392</ele>
        <time>2021-07-02T13:58:55Z</time>
      </trkpt>
      <trkpt lat="41.799782" lon="1.928578">
        <ele>277.10019</ele>
        <time>2021-07-02T13:58:56Z</time>
      </trkpt>
      <trkpt lat="41.800091" lon="1.928829">
        <ele>276.71274</ele>
        <time>2021-07-02T13:58:57Z</time>
      </trkpt>
      <trkpt lat="41.800426" lon="1.929100">
        <ele>276.73557</ele>
        <time>2021-07-02T13:58:58Z</time>
      </trkpt>
      <trkpt lat="41.800831" lon="1.929394">
        <ele>276.90781</ele>
        <time>2021-07-02T13:58:59Z</time>
      </trkpt>
      <trkpt lat="41.801018" lon="1.929530">
        <ele>276.68301</ele>
        <time>2021-07-02T13:59:00Z</time>
      </trkpt>
      <trkpt lat="41.801018" lon="1.929530">
        <ele>276.45432</ele>
        <time>2021-07-02T13:59:01Z</time>
      </trkpt>
      <trkpt lat="41.801563" lon="1.930054">
        <ele>276.11252</ele>
        <time>2021-07-02T13:59:02Z</time>
      </trkpt>
      <trkpt lat="41.801563" lon="1.930054">
        <ele>276.25632</ele>
        <time>2021-07-02T13:59:03Z</time>
      </trkpt>
      <trkpt lat="41.802345" lon="1.930553">
        <ele>275.94064</ele>
        <time>2021-07-02T13:59:04Z</time>
      </trkpt>
      <trkpt lat="41.802345" lon="1.930553">
        <ele>275.80087</ele>
        <time>2021-07-02T13:59:05Z</time>
      </trkpt>
      <trkpt lat="41.802631" lon="1.930824">
        <ele>275.51682</ele>
        <time>2021-07-02T13:59:06Z</time>
      </trkpt>
      <trkpt lat="41.802902" lon="1.931090">
        <ele>275.39285</ele>
        <time>2021-07-02T13:59:07Z</time>
      </trkpt>
      <trkpt lat="41.803185" lon="1.931366">
        <ele>275.09500</ele>
        <time>2021-07-02T13:59:08Z</time>
      </trkpt>
      <trkpt lat="41.803436" lon="1.931642">
        <ele>275.36887</ele>
        <time>2021-07-02T13:59:09Z</time>
      </trkpt>
      <trkpt lat="41.803722" lon="1.931989">
        <ele>275.42795</ele>
        <time>2021-07-02T13:59:10Z</time>
      </trkpt>
      <trkpt lat="41.803967" lon="1.932284">
        <ele>275.51962</ele>
        <time>2021-07-02T13:59:11Z</time>
      </trkpt>
      <trkpt lat="41.804226" lon="1.932620">
        <ele>275.12521</ele>
        <time>2021-07-02T13:59:12Z</time>
      </trkpt>
      <trkpt lat="41.804466" lon="1.932957">
        <ele>275.49850</ele>
        <time>2021-07-02T13:59:13Z</time>
      </trkpt>
      <trkpt lat="41.804691" lon="1.933292">
        <ele>276.00925</ele>
        <time>2021-07-02T13:59:14Z</time>
      </trkpt>
      <trkpt lat="41.804924" lon="1.933653">
        <ele>276.07779</ele>
        <time>2021-07-02T13:59:15Z</time>
      </trkpt>
      <trkpt lat="41.805153" lon="1.934030">
        <ele>275.06094</ele>
        <time>2021-07-02T13:59:16Z</time>
      </trkpt>
      <trkpt lat="41.805367" lon="1.934403">
        <ele>275.71298</ele>
        <time>2021-07-02T13:59:17Z</time>
      </trkpt>
      <trkpt lat="41.805546" lon="1.934711">
        <ele>276.26541</ele>
        <time>2021-07-02T13:59:18Z</time>
      </trkpt>
      <trkpt lat="41.805748" lon="1.935108">
        <ele>276.36154</ele>
        <time>2021-07-02T13:59:19Z</time>
      </trkpt>
      <trkpt lat="41.805935" lon="1.935506">
        <ele>275.86032</ele>
        <time>2021-07-02T13:59:20Z</time>
      </trkpt>
      <trkpt lat="41.806114" lon="1.935902">
        <ele>276.06174</ele>
        <time>2021-07-02T13:59:21Z</time>
      </trkpt>
      <trkpt lat="41.806274" lon="1.936286">
        <ele>276.39249</ele>
        <time>2021-07-02T13:59:22Z</time>
      </trkpt>
      <trkpt lat="41.806274" lon="1.936286">
        <ele>276.59561</ele>
        <time>2021-07-02T13:59:23Z</time>
      </trkpt>
      <trkpt lat="41.806438" lon="1.936726">
        <ele>277.29025</ele>
        <time>2021-07-02T13:59:24Z</time>
      </trkpt>
      <trkpt lat="41.806583" lon="1.937140">
        <ele>277.70963</ele>
        <time>2021-07-02T13:59:25Z</time>
      </trkpt>
      <trkpt lat="41.806705" lon="1.937551">
        <ele>277.72775</ele>
        <time>2021-07-02T13:59:26Z</time>
      </trkpt>
      <trkpt lat="41.806938" lon="1.938367">
        <ele>278.60141</ele>
        <time>2021-07-02T13:59:27Z</time>
      </trkpt>
      <trkpt lat="41.807022" lon="1.938728">
        <ele>278.89487</ele>
        <time>2021-07-02T13:59:28Z</time>
      </trkpt>
      <trkpt lat="41.807056" lon="1.938868">
        <ele>279.19333</ele>
        <time>2021-07-02T13:59:29Z</time>
      </trkpt>
      <trkpt lat="41.807182" lon="1.939428">
        <ele>279.52634</ele>
        <time>2021-07-02T13:59:30Z</time>
      </trkpt>
      <trkpt lat="41.807274" lon="1.939836">
        <ele>279.79672</ele>
        <time>2021-07-02T13:59:31Z</time>
      </trkpt>
      <trkpt lat="41.807377" lon="1.940274">
        <ele>280.74423</ele>
        <time>2021-07-02T13:59:32Z</time>
      </trkpt>
      <trkpt lat="41.807480" lon="1.940711">
        <ele>280.48801</ele>
        <time>2021-07-02T13:59:33Z</time>
      </trkpt>
      <trkpt lat="41.807598" lon="1.941217">
        <ele>280.10873</ele>
        <time>2021-07-02T13:59:34Z</time>
      </trkpt>
      <trkpt lat="41.807701" lon="1.941643">
        <ele>280.06766</ele>
        <time>2021-07-02T13:59:35Z</time>
      </trkpt>
      <trkpt lat="41.807812" lon="1.942116">
        <ele>279.79636</ele>
        <time>2021-07-02T13:59:36Z</time>
      </trkpt>
      <trkpt lat="41.807915" lon="1.942553">
        <ele>279.61490</ele>
        <time>2021-07-02T13:59:37Z</time>
      </trkpt>
      <trkpt lat="41.808022" lon="1.943010">
        <ele>279.62766</ele>
        <time>2021-07-02T13:59:38Z</time>
      </trkpt>
      <trkpt lat="41.808132" lon="1.943473">
        <ele>280.12729</ele>
        <time>2021-07-02T13:59:39Z</time>
      </trkpt>
      <trkpt lat="41.808224" lon="1.943881">
        <ele>280.58597</ele>
        <time>2021-07-02T13:59:40Z</time>
      </trkpt>
      <trkpt lat="41.808331" lon="1.944354">
        <ele>280.18106</ele>
        <time>2021-07-02T13:59:41Z</time>
      </trkpt>
      <trkpt lat="41.808472" lon="1.944968">
        <ele>280.60660</ele>
        <time>2021-07-02T13:59:42Z</time>
      </trkpt>
      <trkpt lat="41.808540" lon="1.945276">
        <ele>280.83908</ele>
        <time>2021-07-02T13:59:43Z</time>
      </trkpt>
      <trkpt lat="41.808636" lon="1.945695">
        <ele>280.70602</ele>
        <time>2021-07-02T13:59:44Z</time>
      </trkpt>
      <trkpt lat="41.808743" lon="1.946171">
        <ele>280.91159</ele>
        <time>2021-07-02T13:59:45Z</time>
      </trkpt>
      <trkpt lat="41.808838" lon="1.946582">
        <ele>281.07919</ele>
        <time>2021-07-02T13:59:46Z</time>
      </trkpt>
      <trkpt lat="41.808945" lon="1.947063">
        <ele>281.38889</ele>
        <time>2021-07-02T13:59:47Z</time>
      </trkpt>
      <trkpt lat="41.809052" lon="1.947527">
        <ele>281.44113</ele>
        <time>2021-07-02T13:59:48Z</time>
      </trkpt>
      <trkpt lat="41.809052" lon="1.947527">
        <ele>281.51474</ele>
        <time>2021-07-02T13:59:49Z</time>
      </trkpt>
      <trkpt lat="41.809155" lon="1.947959">
        <ele>282.23251</ele>
        <time>2021-07-02T13:59:50Z</time>
      </trkpt>
      <trkpt lat="41.809246" lon="1.948354">
        <ele>282.19028</ele>
        <time>2021-07-02T13:59:51Z</time>
      </trkpt>
      <trkpt lat="41.809353" lon="1.948796">
        <ele>282.51559</ele>
        <time>2021-07-02T13:59:52Z</time>
      </trkpt>
      <trkpt lat="41.809448" lon="1.949187">
        <ele>283.14059</ele>
        <time>2021-07-02T13:59:53Z</time>
      </trkpt>
      <trkpt lat="41.809559" lon="1.949674">
        <ele>283.56442</ele>
        <time>2021-07-02T13:59:54Z</time>
      </trkpt>
      <trkpt lat="41.809647" lon="1.950092">
        <ele>284.09604</ele>
        <time>2021-07-02T13:59:55Z</time>
      </trkpt>
      <trkpt lat="41.809750" lon="1.950560">
        <ele>284.14426</ele>
        <time>2021-07-02T13:59:56Z</time>
      </trkpt>
      <trkpt lat="41.809837" lon="1.950964">
        <ele>284.71542</ele>
        <time>2021-07-02T13:59:57Z</time>
      </trkpt>
      <trkpt lat="41.809952" lon="1.951477">
        <ele>284.83737</ele>
        <time>2021-07-02T13:59:58Z</time>
      </trkpt>
      <trkpt lat="41.810055" lon="1.951922">
        <ele>284.48471</ele>
        <time>2021-07-02T13:59:59Z</time>
      </trkpt>
      <trkpt lat="41.810154" lon="1.952351">
        <ele>284.75082</ele>
        <time>2021-07-02T14:00:00Z</time>
      </trkpt>
      <trkpt lat="41.810257" lon="1.952799">
        <ele>284.74686</ele>
        <time>2021-07-02T14:00:01Z</time>
      </trkpt>
      <trkpt lat="41.810352" lon="1.953232">
        <ele>285.08994</ele>
        <time>2021-07-02T14:00:02Z</time>
      </trkpt>
      <trkpt lat="41.810452" lon="1.953652">
        <ele>285.24973</ele>
        <time>2021-07-02T14:00:03Z</time>
      </trkpt>
      <trkpt lat="41.810543" lon="1.954054">
        <ele>284.97708</ele>
        <time>2021-07-02T14:00:04Z</time>
      </trkpt>
      <trkpt lat="41.810627" lon="1.954421">
        <ele>286.07242</ele>
        <time>2021-07-02T14:00:05Z</time>
      </trkpt>
      <trkpt lat="41.810719" lon="1.954820">
        <ele>286.96078</ele>
        <time>2021-07-02T14:00:06Z</time>
      </trkpt>
      <trkpt lat="41.810802" lon="1.955178">
        <ele>286.65567</ele>
        <time>2021-07-02T14:00:07Z</time>
      </trkpt>
      <trkpt lat="41.810886" lon="1.955539">
        <ele>287.10452</ele>
        <time>2021-07-02T14:00:08Z</time>
      </trkpt>
      <trkpt lat="41.810982" lon="1.955941">
        <ele>287.55020</ele>
        <time>2021-07-02T14:00:09Z</time>
      </trkpt>
      <trkpt lat="41.811066" lon="1.956310">
        <ele>287.34885</ele>
        <time>2021-07-02T14:00:10Z</time>
      </trkpt>
      <trkpt lat="41.811138" lon="1.956649">
        <ele>287.97153</ele>
        <time>2021-07-02T14:00:11Z</time>
      </trkpt>
      <trkpt lat="41.811226" lon="1.957039">
        <ele>288.18246</ele>
        <time>2021-07-02T14:00:12Z</time>
      </trkpt>
      <trkpt lat="41.811314" lon="1.957439">
        <ele>288.55087</ele>
        <time>2021-07-02T14:00:13Z</time>
      </trkpt>
      <trkpt lat="41.811394" lon="1.957812">
        <ele>288.38742</ele>
        <time>2021-07-02T14:00:14Z</time>
      </trkpt>
      <trkpt lat="41.811481" lon="1.958216">
        <ele>288.12912</ele>
        <time>2021-07-02T14:00:15Z</time>
      </trkpt>
      <trkpt lat="41.811569" lon="1.958614">
        <ele>287.89737</ele>
        <time>2021-07-02T14:00:16Z</time>
      </trkpt>
      <trkpt lat="41.811661" lon="1.959018">
        <ele>288.07401</ele>
        <time>2021-07-02T14:00:17Z</time>
      </trkpt>
      <trkpt lat="41.811745" lon="1.959413">
        <ele>287.84518</ele>
        <time>2021-07-02T14:00:18Z</time>
      </trkpt>
      <trkpt lat="41.811829" lon="1.959794">
        <ele>288.34836</ele>
        <time>2021-07-02T14:00:19Z</time>
      </trkpt>
      <trkpt lat="41.811829" lon="1.959794">
        <ele>288.79086</ele>
        <time>2021-07-02T14:00:20Z</time>
      </trkpt>
      <trkpt lat="41.811932" lon="1.960239">
        <ele>289.24289</ele>
        <time>2021-07-02T14:00:21Z</time>
      </trkpt>
      <trkpt lat="41.812023" lon="1.960619">
        <ele>289.51328</ele>
        <time>2021-07-02T14:00:22Z</time>
      </trkpt>
      <trkpt lat="41.812122" lon="1.960979">
        <ele>290.33426</ele>
        <time>2021-07-02T14:00:23Z</time>
      </trkpt>
      <trkpt lat="41.812233" lon="1.961335">
        <ele>290.44119</ele>
        <time>2021-07-02T14:00:24Z</time>
      </trkpt>
      <trkpt lat="41.812347" lon="1.961682">
        <ele>290.29355</ele>
        <time>2021-07-02T14:00:25Z</time>
      </trkpt>
      <trkpt lat="41.812473" lon="1.962003">
        <ele>290.60300</ele>
        <time>2021-07-02T14:00:26Z</time>
      </trkpt>
      <trkpt lat="41.812618" lon="1.962327">
        <ele>290.57547</ele>
        <time>2021-07-02T14:00:27Z</time>
      </trkpt>
      <trkpt lat="41.812771" lon="1.962644">
        <ele>290.68167</ele>
        <time>2021-07-02T14:00:28Z</time>
      </trkpt>
      <trkpt lat="41.812977" lon="1.962991">
        <ele>290.19772</ele>
        <time>2021-07-02T14:00:29Z</time>
      </trkpt>
      <trkpt lat="41.813175" lon="1.963291">
        <ele>290.77658</ele>
        <time>2021-07-02T14:00:30Z</time>
      </trkpt>
      <trkpt lat="41.813377" lon="1.963575">
        <ele>290.83157</ele>
        <time>2021-07-02T14:00:31Z</time>
      </trkpt>
      <trkpt lat="41.813602" lon="1.963853">
        <ele>291.06424</ele>
        <time>2021-07-02T14:00:32Z</time>
      </trkpt>
      <trkpt lat="41.813850" lon="1.964140">
        <ele>291.60318</ele>
        <time>2021-07-02T14:00:33Z</time>
      </trkpt>
      <trkpt lat="41.814087" lon="1.964373">
        <ele>291.20108</ele>
        <time>2021-07-02T14:00:34Z</time>
      </trkpt>
      <trkpt lat="41.814339" lon="1.964601">
        <ele>291.63754</ele>
        <time>2021-07-02T14:00:35Z</time>
      </trkpt>
      <trkpt lat="41.814598" lon="1.964824">
        <ele>291.44016</ele>
        <time>2021-07-02T14:00:36Z</time>
      </trkpt>
      <trkpt lat="41.814857" lon="1.965013">
        <ele>290.79831</ele>
        <time>2021-07-02T14:00:37Z</time>
      </trkpt>
      <trkpt lat="41.815113" lon="1.965175">
        <ele>290.38705</ele>
        <time>2021-07-02T14:00:38Z</time>
      </trkpt>
      <trkpt lat="41.815376" lon="1.965331">
        <ele>290.49759</ele>
        <time>2021-07-02T14:00:39Z</time>
      </trkpt>
      <trkpt lat="41.815655" lon="1.965475">
        <ele>291.06827</ele>
        <time>2021-07-02T14:00:40Z</time>
      </trkpt>
      <trkpt lat="41.815922" lon="1.965589">
        <ele>291.26059</ele>
        <time>2021-07-02T14:00:41Z</time>
      </trkpt>
      <trkpt lat="41.816193" lon="1.965702">
        <ele>291.39499</ele>
        <time>2021-07-02T14:00:42Z</time>
      </trkpt>
      <trkpt lat="41.816502" lon="1.965817">
        <ele>291.82040</ele>
        <time>2021-07-02T14:00:43Z</time>
      </trkpt>
      <trkpt lat="41.816784" lon="1.965903">
        <ele>292.15366</ele>
        <time>2021-07-02T14:00:44Z</time>
      </trkpt>
      <trkpt lat="41.817085" lon="1.965995">
        <ele>292.04953</ele>
        <time>2021-07-02T14:00:45Z</time>
      </trkpt>
      <trkpt lat="41.817085" lon="1.965995">
        <ele>292.32724</ele>
        <time>2021-07-02T14:00:46Z</time>
      </trkpt>
      <trkpt lat="41.817436" lon="1.966071">
        <ele>292.33188</ele>
        <time>2021-07-02T14:00:47Z</time>
      </trkpt>
      <trkpt lat="41.817753" lon="1.966135">
        <ele>292.79349</ele>
        <time>2021-07-02T14:00:48Z</time>
      </trkpt>
      <trkpt lat="41.818069" lon="1.966191">
        <ele>293.33994</ele>
        <time>2021-07-02T14:00:49Z</time>
      </trkpt>
      <trkpt lat="41.818401" lon="1.966227">
        <ele>293.87900</ele>
        <time>2021-07-02T14:00:50Z</time>
      </trkpt>
      <trkpt lat="41.818825" lon="1.966273">
        <ele>294.24075</ele>
        <time>2021-07-02T14:00:51Z</time>
      </trkpt>
      <trkpt lat="41.819199" lon="1.966313">
        <ele>294.96518</ele>
        <time>2021-07-02T14:00:52Z</time>
      </trkpt>
      <trkpt lat="41.819584" lon="1.966355">
        <ele>295.67563</ele>
        <time>2021-07-02T14:00:53Z</time>
      </trkpt>
      <trkpt lat="41.820004" lon="1.966402">
        <ele>296.15897</ele>
        <time>2021-07-02T14:00:54Z</time>
      </trkpt>
      <trkpt lat="41.820374" lon="1.966443">
        <ele>296.52103</ele>
        <time>2021-07-02T14:00:55Z</time>
      </trkpt>
      <trkpt lat="41.820698" lon="1.966480">
        <ele>297.25943</ele>
        <time>2021-07-02T14:00:56Z</time>
      </trkpt>
      <trkpt lat="41.821091" lon="1.966524">
        <ele>297.81149</ele>
        <time>2021-07-02T14:00:57Z</time>
      </trkpt>
      <trkpt lat="41.821423" lon="1.966561">
        <ele>298.31564</ele>
        <time>2021-07-02T14:00:58Z</time>
      </trkpt>
      <trkpt lat="41.821838" lon="1.966608">
        <ele>298.32285</ele>
        <time>2021-07-02T14:00:59Z</time>
      </trkpt>
      <trkpt lat="41.822224" lon="1.966650">
        <ele>298.40927</ele>
        <time>2021-07-02T14:01:00Z</time>
      </trkpt>
      <trkpt lat="41.822571" lon="1.966689">
        <ele>298.90952</ele>
        <time>2021-07-02T14:01:01Z</time>
      </trkpt>
      <trkpt lat="41.822952" lon="1.966732">
        <ele>299.20914</ele>
        <time>2021-07-02T14:01:02Z</time>
      </trkpt>
      <trkpt lat="41.823315" lon="1.966773">
        <ele>300.74911</ele>
        <time>2021-07-02T14:01:03Z</time>
      </trkpt>
      <trkpt lat="41.823719" lon="1.966819">
        <ele>301.56149</ele>
        <time>2021-07-02T14:01:04Z</time>
      </trkpt>
      <trkpt lat="41.824070" lon="1.966859">
        <ele>303.65866</ele>
        <time>2021-07-02T14:01:05Z</time>
      </trkpt>
      <trkpt lat="41.824417" lon="1.966899">
        <ele>304.04379</ele>
        <time>2021-07-02T14:01:06Z</time>
      </trkpt>
      <trkpt lat="41.824795" lon="1.966942">
        <ele>305.80173</ele>
        <time>2021-07-02T14:01:07Z</time>
      </trkpt>
      <trkpt lat="41.825134" lon="1.966981">
        <ele>306.74667</ele>
        <time>2021-07-02T14:01:08Z</time>
      </trkpt>
      <trkpt lat="41.825485" lon="1.967022">
        <ele>307.59042</ele>
        <time>2021-07-02T14:01:09Z</time>
      </trkpt>
      <trkpt lat="41.825787" lon="1.967057">
        <ele>307.76364</ele>
        <time>2021-07-02T14:01:10Z</time>
      </trkpt>
      <trkpt lat="41.826054" lon="1.967090">
        <ele>310.31784</ele>
        <time>2021-07-02T14:01:11Z</time>
      </trkpt>
      <trkpt lat="41.826359" lon="1.967137">
        <ele>312.60861</ele>
        <time>2021-07-02T14:01:12Z</time>
      </trkpt>
      <trkpt lat="41.826653" lon="1.967198">
        <ele>314.08676</ele>
        <time>2021-07-02T14:01:13Z</time>
      </trkpt>
      <trkpt lat="41.826946" lon="1.967270">
        <ele>314.99301</ele>
        <time>2021-07-02T14:01:14Z</time>
      </trkpt>
      <trkpt lat="41.827263" lon="1.967359">
        <ele>315.27090</ele>
        <time>2021-07-02T14:01:15Z</time>
      </trkpt>
      <trkpt lat="41.827579" lon="1.967469">
        <ele>317.57230</ele>
        <time>2021-07-02T14:01:16Z</time>
      </trkpt>
      <trkpt lat="41.828102" lon="1.967683">
        <ele>318.98697</ele>
        <time>2021-07-02T14:01:17Z</time>
      </trkpt>
      <trkpt lat="41.828190" lon="1.967729">
        <ele>318.32785</ele>
        <time>2021-07-02T14:01:18Z</time>
      </trkpt>
      <trkpt lat="41.828190" lon="1.967729">
        <ele>319.42075</ele>
        <time>2021-07-02T14:01:19Z</time>
      </trkpt>
      <trkpt lat="41.828552" lon="1.967924">
        <ele>320.81058</ele>
        <time>2021-07-02T14:01:20Z</time>
      </trkpt>
      <trkpt lat="41.828896" lon="1.968127">
        <ele>321.18039</ele>
        <time>2021-07-02T14:01:21Z</time>
      </trkpt>
      <trkpt lat="41.829235" lon="1.968340">
        <ele>320.50363</ele>
        <time>2021-07-02T14:01:22Z</time>
      </trkpt>
      <trkpt lat="41.829544" lon="1.968569">
        <ele>320.02097</ele>
        <time>2021-07-02T14:01:23Z</time>
      </trkpt>
      <trkpt lat="41.829845" lon="1.968809">
        <ele>320.60294</ele>
        <time>2021-07-02T14:01:24Z</time>
      </trkpt>
      <trkpt lat="41.830303" lon="1.969208">
        <ele>320.35068</ele>
        <time>2021-07-02T14:01:25Z</time>
      </trkpt>
      <trkpt lat="41.830372" lon="1.969275">
        <ele>320.33194</ele>
        <time>2021-07-02T14:01:26Z</time>
      </trkpt>
      <trkpt lat="41.830719" lon="1.969614">
        <ele>320.62912</ele>
        <time>2021-07-02T14:01:27Z</time>
      </trkpt>
      <trkpt lat="41.830921" lon="1.969837">
        <ele>320.92667</ele>
        <time>2021-07-02T14:01:28Z</time>
      </trkpt>
      <trkpt lat="41.831173" lon="1.970141">
        <ele>321.58780</ele>
        <time>2021-07-02T14:01:29Z</time>
      </trkpt>
      <trkpt lat="41.831406" lon="1.970444">
        <ele>321.27878</ele>
        <time>2021-07-02T14:01:30Z</time>
      </trkpt>
      <trkpt lat="41.831684" lon="1.970806">
        <ele>320.90378</ele>
        <time>2021-07-02T14:01:31Z</time>
      </trkpt>
      <trkpt lat="41.831936" lon="1.971179">
        <ele>320.55649</ele>
        <time>2021-07-02T14:01:32Z</time>
      </trkpt>
      <trkpt lat="41.832218" lon="1.971675">
        <ele>320.88779</ele>
        <time>2021-07-02T14:01:33Z</time>
      </trkpt>
      <trkpt lat="41.832352" lon="1.971911">
        <ele>319.93777</ele>
        <time>2021-07-02T14:01:34Z</time>
      </trkpt>
      <trkpt lat="41.832554" lon="1.972297">
        <ele>319.29379</ele>
        <time>2021-07-02T14:01:35Z</time>
      </trkpt>
      <trkpt lat="41.832737" lon="1.972652">
        <ele>318.89670</ele>
        <time>2021-07-02T14:01:36Z</time>
      </trkpt>
      <trkpt lat="41.832935" lon="1.973051">
        <ele>318.88864</ele>
        <time>2021-07-02T14:01:37Z</time>
      </trkpt>
      <trkpt lat="41.833118" lon="1.973418">
        <ele>318.09726</ele>
        <time>2021-07-02T14:01:38Z</time>
      </trkpt>
      <trkpt lat="41.833328" lon="1.973840">
        <ele>317.83926</ele>
        <time>2021-07-02T14:01:39Z</time>
      </trkpt>
      <trkpt lat="41.833530" lon="1.974273">
        <ele>317.72055</ele>
        <time>2021-07-02T14:01:40Z</time>
      </trkpt>
      <trkpt lat="41.833748" lon="1.974677">
        <ele>317.85410</ele>
        <time>2021-07-02T14:01:41Z</time>
      </trkpt>
      <trkpt lat="41.833958" lon="1.975073">
        <ele>317.76974</ele>
        <time>2021-07-02T14:01:42Z</time>
      </trkpt>
      <trkpt lat="41.834167" lon="1.975459">
        <ele>318.04636</ele>
        <time>2021-07-02T14:01:43Z</time>
      </trkpt>
      <trkpt lat="41.834400" lon="1.975853">
        <ele>318.49600</ele>
        <time>2021-07-02T14:01:44Z</time>
      </trkpt>
      <trkpt lat="41.834618" lon="1.976206">
        <ele>318.91135</ele>
        <time>2021-07-02T14:01:45Z</time>
      </trkpt>
      <trkpt lat="41.834877" lon="1.976601">
        <ele>319.38931</ele>
        <time>2021-07-02T14:01:46Z</time>
      </trkpt>
      <trkpt lat="41.835236" lon="1.977121">
        <ele>319.60751</ele>
        <time>2021-07-02T14:01:47Z</time>
      </trkpt>
      <trkpt lat="41.835342" lon="1.977268">
        <ele>320.48227</ele>
        <time>2021-07-02T14:01:48Z</time>
      </trkpt>
      <trkpt lat="41.835342" lon="1.977268">
        <ele>322.09384</ele>
        <time>2021-07-02T14:01:49Z</time>
      </trkpt>
      <trkpt lat="41.835850" lon="1.977925">
        <ele>323.69870</ele>
        <time>2021-07-02T14:01:50Z</time>
      </trkpt>
      <trkpt lat="41.835850" lon="1.977925">
        <ele>324.91635</ele>
        <time>2021-07-02T14:01:51Z</time>
      </trkpt>
      <trkpt lat="41.836090" lon="1.978223">
        <ele>325.26352</ele>
        <time>2021-07-02T14:01:52Z</time>
      </trkpt>
      <trkpt lat="41.836395" lon="1.978587">
        <ele>326.52939</ele>
        <time>2021-07-02T14:01:53Z</time>
      </trkpt>
      <trkpt lat="41.836655" lon="1.978878">
        <ele>327.34421</ele>
        <time>2021-07-02T14:01:54Z</time>
      </trkpt>
      <trkpt lat="41.836941" lon="1.979173">
        <ele>328.22830</ele>
        <time>2021-07-02T14:01:55Z</time>
      </trkpt>
      <trkpt lat="41.837215" lon="1.979458">
        <ele>329.17941</ele>
        <time>2021-07-02T14:01:56Z</time>
      </trkpt>
      <trkpt lat="41.837540" lon="1.979774">
        <ele>330.07309</ele>
        <time>2021-07-02T14:01:57Z</time>
      </trkpt>
      <trkpt lat="41.838013" lon="1.980210">
        <ele>330.64633</ele>
        <time>2021-07-02T14:01:58Z</time>
      </trkpt>
      <trkpt lat="41.838139" lon="1.980317">
        <ele>331.70114</ele>
        <time>2021-07-02T14:01:59Z</time>
      </trkpt>
      <trkpt lat="41.838478" lon="1.980598">
        <ele>332.50388</ele>
        <time>2021-07-02T14:02:00Z</time>
      </trkpt>
      <trkpt lat="41.838745" lon="1.980809">
        <ele>333.76877</ele>
        <time>2021-07-02T14:02:01Z</time>
      </trkpt>
      <trkpt lat="41.839066" lon="1.981048">
        <ele>334.79874</ele>
        <time>2021-07-02T14:02:02Z</time>
      </trkpt>
      <trkpt lat="41.839451" lon="1.981324">
        <ele>336.37589</ele>
        <time>2021-07-02T14:02:03Z</time>
      </trkpt>
      <trkpt lat="41.839867" lon="1.981592">
        <ele>336.93185</ele>
        <time>2021-07-02T14:02:04Z</time>
      </trkpt>
      <trkpt lat="41.840054" lon="1.981697">
        <ele>337.80643</ele>
        <time>2021-07-02T14:02:05Z</time>
      </trkpt>
      <trkpt lat="41.840405" lon="1.981890">
        <ele>339.27060</ele>
        <time>2021-07-02T14:02:06Z</time>
      </trkpt>
      <trkpt lat="41.840733" lon="1.982052">
        <ele>340.64999</ele>
        <time>2021-07-02T14:02:07Z</time>
      </trkpt>
      <trkpt lat="41.841061" lon="1.982197">
        <ele>342.92099</ele>
        <time>2021-07-02T14:02:08Z</time>
      </trkpt>
      <trkpt lat="41.841412" lon="1.982334">
        <ele>344.90305</ele>
        <time>2021-07-02T14:02:09Z</time>
      </trkpt>
      <trkpt lat="41.841778" lon="1.982457">
        <ele>346.57571</ele>
        <time>2021-07-02T14:02:10Z</time>
      </trkpt>
      <trkpt lat="41.842148" lon="1.982565">
        <ele>348.20010</ele>
        <time>2021-07-02T14:02:11Z</time>
      </trkpt>
      <trkpt lat="41.842468" lon="1.982636">
        <ele>350.40884</ele>
        <time>2021-07-02T14:02:12Z</time>
      </trkpt>
      <trkpt lat="41.842793" lon="1.982702">
        <ele>352.53708</ele>
        <time>2021-07-02T14:02:13Z</time>
      </trkpt>
      <trkpt lat="41.843178" lon="1.982749">
        <ele>354.54660</ele>
        <time>2021-07-02T14:02:14Z</time>
      </trkpt>
      <trkpt lat="41.843525" lon="1.982780">
        <ele>357.07114</ele>
        <time>2021-07-02T14:02:15Z</time>
      </trkpt>
      <trkpt lat="41.843845" lon="1.982798">
        <ele>359.29190</ele>
        <time>2021-07-02T14:02:16Z</time>
      </trkpt>
      <trkpt lat="41.844196" lon="1.982798">
        <ele>360.42984</ele>
        <time>2021-07-02T14:02:17Z</time>
      </trkpt>
      <trkpt lat="41.844547" lon="1.982776">
        <ele>363.58176</ele>
        <time>2021-07-02T14:02:18Z</time>
      </trkpt>
      <trkpt lat="41.844944" lon="1.982738">
        <ele>365.55246</ele>
        <time>2021-07-02T14:02:19Z</time>
      </trkpt>
      <trkpt lat="41.845268" lon="1.982687">
        <ele>367.81674</ele>
        <time>2021-07-02T14:02:20Z</time>
      </trkpt>
      <trkpt lat="41.845612" lon="1.982632">
        <ele>369.96042</ele>
        <time>2021-07-02T14:02:21Z</time>
      </trkpt>
      <trkpt lat="41.845970" lon="1.982564">
        <ele>371.66684</ele>
        <time>2021-07-02T14:02:22Z</time>
      </trkpt>
      <trkpt lat="41.846317" lon="1.982498">
        <ele>373.55380</ele>
        <time>2021-07-02T14:02:23Z</time>
      </trkpt>
      <trkpt lat="41.846317" lon="1.982498">
        <ele>374.58762</ele>
        <time>2021-07-02T14:02:24Z</time>
      </trkpt>
      <trkpt lat="41.846672" lon="1.982431">
        <ele>375.88174</ele>
        <time>2021-07-02T14:02:25Z</time>
      </trkpt>
      <trkpt lat="41.847057" lon="1.982357">
        <ele>376.65421</ele>
        <time>2021-07-02T14:02:26Z</time>
      </trkpt>
      <trkpt lat="41.847431" lon="1.982286">
        <ele>378.69821</ele>
        <time>2021-07-02T14:02:27Z</time>
      </trkpt>
      <trkpt lat="41.847771" lon="1.982221">
        <ele>379.67264</ele>
        <time>2021-07-02T14:02:28Z</time>
      </trkpt>
      <trkpt lat="41.848122" lon="1.982154">
        <ele>381.09140</ele>
        <time>2021-07-02T14:02:29Z</time>
      </trkpt>
      <trkpt lat="41.848434" lon="1.982094">
        <ele>385.59128</ele>
        <time>2021-07-02T14:02:30Z</time>
      </trkpt>
      <trkpt lat="41.848766" lon="1.982034">
        <ele>387.41440</ele>
        <time>2021-07-02T14:02:31Z</time>
      </trkpt>
      <trkpt lat="41.849091" lon="1.982000">
        <ele>388.46158</ele>
        <time>2021-07-02T14:02:32Z</time>
      </trkpt>
      <trkpt lat="41.849468" lon="1.981977">
        <ele>391.66476</ele>
        <time>2021-07-02T14:02:33Z</time>
      </trkpt>
      <trkpt lat="41.849831" lon="1.981975">
        <ele>392.48300</ele>
        <time>2021-07-02T14:02:34Z</time>
      </trkpt>
      <trkpt lat="41.850193" lon="1.981998">
        <ele>393.36703</ele>
        <time>2021-07-02T14:02:35Z</time>
      </trkpt>
      <trkpt lat="41.850586" lon="1.982052">
        <ele>394.09921</ele>
        <time>2021-07-02T14:02:36Z</time>
      </trkpt>
      <trkpt lat="41.850929" lon="1.982126">
        <ele>394.59946</ele>
        <time>2021-07-02T14:02:37Z</time>
      </trkpt>
      <trkpt lat="41.851242" lon="1.982213">
        <ele>395.05099</ele>
        <time>2021-07-02T14:02:38Z</time>
      </trkpt>
      <trkpt lat="41.851601" lon="1.982327">
        <ele>394.82663</ele>
        <time>2021-07-02T14:02:39Z</time>
      </trkpt>
      <trkpt lat="41.851948" lon="1.982474">
        <ele>395.32608</ele>
        <time>2021-07-02T14:02:40Z</time>
      </trkpt>
      <trkpt lat="41.852318" lon="1.982659">
        <ele>398.87558</ele>
        <time>2021-07-02T14:02:41Z</time>
      </trkpt>
      <trkpt lat="41.852638" lon="1.982838">
        <ele>401.72220</ele>
        <time>2021-07-02T14:02:42Z</time>
      </trkpt>
      <trkpt lat="41.852638" lon="1.982838">
        <ele>404.82297</ele>
        <time>2021-07-02T14:02:43Z</time>
      </trkpt>
      <trkpt lat="41.853130" lon="1.983267">
        <ele>408.46481</ele>
        <time>2021-07-02T14:02:44Z</time>
      </trkpt>
      <trkpt lat="41.853546" lon="1.983651">
        <ele>411.67575</ele>
        <time>2021-07-02T14:02:45Z</time>
      </trkpt>
      <trkpt lat="41.853901" lon="1.983837">
        <ele>414.40817</ele>
        <time>2021-07-02T14:02:46Z</time>
      </trkpt>
      <trkpt lat="41.854198" lon="1.984148">
        <ele>418.86526</ele>
        <time>2021-07-02T14:02:47Z</time>
      </trkpt>
      <trkpt lat="41.854198" lon="1.984148">
        <ele>420.71445</ele>
        <time>2021-07-02T14:02:48Z</time>
      </trkpt>
      <trkpt lat="41.854446" lon="1.984427">
        <ele>424.67526</ele>
        <time>2021-07-02T14:02:49Z</time>
      </trkpt>
      <trkpt lat="41.854755" lon="1.984818">
        <ele>427.42087</ele>
        <time>2021-07-02T14:02:50Z</time>
      </trkpt>
      <trkpt lat="41.854984" lon="1.985153">
        <ele>429.19333</ele>
        <time>2021-07-02T14:02:51Z</time>
      </trkpt>
      <trkpt lat="41.855274" lon="1.985619">
        <ele>431.54678</ele>
        <time>2021-07-02T14:02:52Z</time>
      </trkpt>
      <trkpt lat="41.855518" lon="1.986086">
        <ele>433.66428</ele>
        <time>2021-07-02T14:02:53Z</time>
      </trkpt>
      <trkpt lat="41.855698" lon="1.986483">
        <ele>434.99911</ele>
        <time>2021-07-02T14:02:54Z</time>
      </trkpt>
      <trkpt lat="41.855907" lon="1.987039">
        <ele>435.97751</ele>
        <time>2021-07-02T14:02:55Z</time>
      </trkpt>
      <trkpt lat="41.856045" lon="1.987503">
        <ele>437.37155</ele>
        <time>2021-07-02T14:02:56Z</time>
      </trkpt>
      <trkpt lat="41.856144" lon="1.987881">
        <ele>437.97604</ele>
        <time>2021-07-02T14:02:57Z</time>
      </trkpt>
      <trkpt lat="41.856251" lon="1.988358">
        <ele>438.65414</ele>
        <time>2021-07-02T14:02:58Z</time>
      </trkpt>
      <trkpt lat="41.856335" lon="1.988800">
        <ele>439.47940</ele>
        <time>2021-07-02T14:02:59Z</time>
      </trkpt>
      <trkpt lat="41.856422" lon="1.989258">
        <ele>440.85287</ele>
        <time>2021-07-02T14:03:00Z</time>
      </trkpt>
      <trkpt lat="41.856514" lon="1.989743">
        <ele>441.61526</ele>
        <time>2021-07-02T14:03:01Z</time>
      </trkpt>
      <trkpt lat="41.856606" lon="1.990229">
        <ele>442.94687</ele>
        <time>2021-07-02T14:03:02Z</time>
      </trkpt>
      <trkpt lat="41.856693" lon="1.990692">
        <ele>443.73044</ele>
        <time>2021-07-02T14:03:03Z</time>
      </trkpt>
      <trkpt lat="41.856785" lon="1.991164">
        <ele>445.37393</ele>
        <time>2021-07-02T14:03:04Z</time>
      </trkpt>
      <trkpt lat="41.856873" lon="1.991641">
        <ele>446.99008</ele>
        <time>2021-07-02T14:03:05Z</time>
      </trkpt>
      <trkpt lat="41.856956" lon="1.992068">
        <ele>447.73679</ele>
        <time>2021-07-02T14:03:06Z</time>
      </trkpt>
      <trkpt lat="41.857067" lon="1.992576">
        <ele>448.75497</ele>
        <time>2021-07-02T14:03:07Z</time>
      </trkpt>
      <trkpt lat="41.857185" lon="1.993045">
        <ele>450.17490</ele>
        <time>2021-07-02T14:03:08Z</time>
      </trkpt>
      <trkpt lat="41.857185" lon="1.993045">
        <ele>451.57797</ele>
        <time>2021-07-02T14:03:09Z</time>
      </trkpt>
      <trkpt lat="41.857491" lon="1.993939">
        <ele>452.73557</ele>
        <time>2021-07-02T14:03:10Z</time>
      </trkpt>
      <trkpt lat="41.857491" lon="1.993939">
        <ele>453.61996</ele>
        <time>2021-07-02T14:03:11Z</time>
      </trkpt>
      <trkpt lat="41.857685" lon="1.994365">
        <ele>454.75363</ele>
        <time>2021-07-02T14:03:12Z</time>
      </trkpt>
      <trkpt lat="41.857872" lon="1.994737">
        <ele>456.38974</ele>
        <time>2021-07-02T14:03:13Z</time>
      </trkpt>
      <trkpt lat="41.858082" lon="1.995093">
        <ele>457.40201</ele>
        <time>2021-07-02T14:03:14Z</time>
      </trkpt>
      <trkpt lat="41.858330" lon="1.995467">
        <ele>457.96945</ele>
        <time>2021-07-02T14:03:15Z</time>
      </trkpt>
      <trkpt lat="41.858582" lon="1.995789">
        <ele>459.12326</ele>
        <time>2021-07-02T14:03:16Z</time>
      </trkpt>
      <trkpt lat="41.858833" lon="1.996078">
        <ele>459.79037</ele>
        <time>2021-07-02T14:03:17Z</time>
      </trkpt>
      <trkpt lat="41.859131" lon="1.996378">
        <ele>459.64816</ele>
        <time>2021-07-02T14:03:18Z</time>
      </trkpt>
      <trkpt lat="41.859386" lon="1.996606">
        <ele>459.66293</ele>
        <time>2021-07-02T14:03:19Z</time>
      </trkpt>
      <trkpt lat="41.859718" lon="1.996858">
        <ele>458.46420</ele>
        <time>2021-07-02T14:03:20Z</time>
      </trkpt>
      <trkpt lat="41.860058" lon="1.997088">
        <ele>459.03635</ele>
        <time>2021-07-02T14:03:21Z</time>
      </trkpt>
      <trkpt lat="41.860413" lon="1.997320">
        <ele>458.69479</ele>
        <time>2021-07-02T14:03:22Z</time>
      </trkpt>
      <trkpt lat="41.860703" lon="1.997505">
        <ele>458.59250</ele>
        <time>2021-07-02T14:03:23Z</time>
      </trkpt>
      <trkpt lat="41.861065" lon="1.997740">
        <ele>458.43271</ele>
        <time>2021-07-02T14:03:24Z</time>
      </trkpt>
      <trkpt lat="41.861397" lon="1.997975">
        <ele>457.93979</ele>
        <time>2021-07-02T14:03:25Z</time>
      </trkpt>
      <trkpt lat="41.861729" lon="1.998250">
        <ele>457.64365</ele>
        <time>2021-07-02T14:03:26Z</time>
      </trkpt>
      <trkpt lat="41.862045" lon="1.998538">
        <ele>457.78781</ele>
        <time>2021-07-02T14:03:27Z</time>
      </trkpt>
      <trkpt lat="41.862316" lon="1.998815">
        <ele>458.10458</ele>
        <time>2021-07-02T14:03:28Z</time>
      </trkpt>
      <trkpt lat="41.862587" lon="1.999115">
        <ele>458.69577</ele>
        <time>2021-07-02T14:03:29Z</time>
      </trkpt>
      <trkpt lat="41.862843" lon="1.999433">
        <ele>458.85654</ele>
        <time>2021-07-02T14:03:30Z</time>
      </trkpt>
      <trkpt lat="41.863056" lon="1.999727">
        <ele>459.65964</ele>
        <time>2021-07-02T14:03:31Z</time>
      </trkpt>
      <trkpt lat="41.863258" lon="2.000020">
        <ele>460.75406</ele>
        <time>2021-07-02T14:03:32Z</time>
      </trkpt>
      <trkpt lat="41.863441" lon="2.000323">
        <ele>461.17697</ele>
        <time>2021-07-02T14:03:33Z</time>
      </trkpt>
      <trkpt lat="41.863605" lon="2.000600">
        <ele>461.87997</ele>
        <time>2021-07-02T14:03:34Z</time>
      </trkpt>
      <trkpt lat="41.863731" lon="2.000834">
        <ele>462.62375</ele>
        <time>2021-07-02T14:03:35Z</time>
      </trkpt>
      <trkpt lat="41.863731" lon="2.000834">
        <ele>463.31314</ele>
        <time>2021-07-02T14:03:36Z</time>
      </trkpt>
      <trkpt lat="41.863995" lon="2.001366">
        <ele>463.95389</ele>
        <time>2021-07-02T14:03:37Z</time>
      </trkpt>
      <trkpt lat="41.863995" lon="2.001366">
        <ele>464.65079</ele>
        <time>2021-07-02T14:03:38Z</time>
      </trkpt>
      <trkpt lat="41.864140" lon="2.001650">
        <ele>465.34079</ele>
        <time>2021-07-02T14:03:39Z</time>
      </trkpt>
      <trkpt lat="41.864330" lon="2.002027">
        <ele>465.55978</ele>
        <time>2021-07-02T14:03:40Z</time>
      </trkpt>
      <trkpt lat="41.864361" lon="2.002088">
        <ele>466.25845</ele>
        <time>2021-07-02T14:03:41Z</time>
      </trkpt>
      <trkpt lat="41.864582" lon="2.002510">
        <ele>466.66830</ele>
        <time>2021-07-02T14:03:42Z</time>
      </trkpt>
      <trkpt lat="41.864674" lon="2.002657">
        <ele>467.81760</ele>
        <time>2021-07-02T14:03:43Z</time>
      </trkpt>
      <trkpt lat="41.864838" lon="2.002933">
        <ele>468.56009</ele>
        <time>2021-07-02T14:03:44Z</time>
      </trkpt>
      <trkpt lat="41.865021" lon="2.003193">
        <ele>469.31833</ele>
        <time>2021-07-02T14:03:45Z</time>
      </trkpt>
      <trkpt lat="41.865192" lon="2.003422">
        <ele>469.97488</ele>
        <time>2021-07-02T14:03:46Z</time>
      </trkpt>
      <trkpt lat="41.865345" lon="2.003607">
        <ele>470.65286</ele>
        <time>2021-07-02T14:03:47Z</time>
      </trkpt>
      <trkpt lat="41.865513" lon="2.003798">
        <ele>471.29123</ele>
        <time>2021-07-02T14:03:48Z</time>
      </trkpt>
      <trkpt lat="41.865681" lon="2.003973">
        <ele>471.98044</ele>
        <time>2021-07-02T14:03:49Z</time>
      </trkpt>
      <trkpt lat="41.865856" lon="2.004149">
        <ele>473.03763</ele>
        <time>2021-07-02T14:03:50Z</time>
      </trkpt>
      <trkpt lat="41.866062" lon="2.004344">
        <ele>473.74075</ele>
        <time>2021-07-02T14:03:51Z</time>
      </trkpt>
      <trkpt lat="41.866268" lon="2.004538">
        <ele>474.54306</ele>
        <time>2021-07-02T14:03:52Z</time>
      </trkpt>
      <trkpt lat="41.866470" lon="2.004731">
        <ele>474.93625</ele>
        <time>2021-07-02T14:03:53Z</time>
      </trkpt>
      <trkpt lat="41.866676" lon="2.004925">
        <ele>475.86411</ele>
        <time>2021-07-02T14:03:54Z</time>
      </trkpt>
      <trkpt lat="41.866879" lon="2.005132">
        <ele>476.95615</ele>
        <time>2021-07-02T14:03:55Z</time>
      </trkpt>
      <trkpt lat="41.867065" lon="2.005334">
        <ele>478.84702</ele>
        <time>2021-07-02T14:03:56Z</time>
      </trkpt>
      <trkpt lat="41.867252" lon="2.005546">
        <ele>479.94150</ele>
        <time>2021-07-02T14:03:57Z</time>
      </trkpt>
      <trkpt lat="41.867447" lon="2.005777">
        <ele>481.18881</ele>
        <time>2021-07-02T14:03:58Z</time>
      </trkpt>
      <trkpt lat="41.867615" lon="2.006004">
        <ele>482.43588</ele>
        <time>2021-07-02T14:03:59Z</time>
      </trkpt>
      <trkpt lat="41.867802" lon="2.006268">
        <ele>482.99789</ele>
        <time>2021-07-02T14:04:00Z</time>
      </trkpt>
      <trkpt lat="41.867981" lon="2.006539">
        <ele>482.96689</ele>
        <time>2021-07-02T14:04:01Z</time>
      </trkpt>
      <trkpt lat="41.868160" lon="2.006839">
        <ele>483.68857</ele>
        <time>2021-07-02T14:04:02Z</time>
      </trkpt>
      <trkpt lat="41.868343" lon="2.007156">
        <ele>484.25986</ele>
        <time>2021-07-02T14:04:03Z</time>
      </trkpt>
      <trkpt lat="41.868519" lon="2.007465">
        <ele>484.59506</ele>
        <time>2021-07-02T14:04:04Z</time>
      </trkpt>
      <trkpt lat="41.868519" lon="2.007465">
        <ele>484.98715</ele>
        <time>2021-07-02T14:04:05Z</time>
      </trkpt>
      <trkpt lat="41.868690" lon="2.007770">
        <ele>486.35825</ele>
        <time>2021-07-02T14:04:06Z</time>
      </trkpt>
      <trkpt lat="41.868885" lon="2.008116">
        <ele>486.40146</ele>
        <time>2021-07-02T14:04:07Z</time>
      </trkpt>
      <trkpt lat="41.869061" lon="2.008432">
        <ele>487.09470</ele>
        <time>2021-07-02T14:04:08Z</time>
      </trkpt>
      <trkpt lat="41.869267" lon="2.008794">
        <ele>487.67758</ele>
        <time>2021-07-02T14:04:09Z</time>
      </trkpt>
      <trkpt lat="41.869446" lon="2.009114">
        <ele>488.91122</ele>
        <time>2021-07-02T14:04:10Z</time>
      </trkpt>
      <trkpt lat="41.869644" lon="2.009476">
        <ele>490.10312</ele>
        <time>2021-07-02T14:04:11Z</time>
      </trkpt>
      <trkpt lat="41.869877" lon="2.009888">
        <ele>490.62143</ele>
        <time>2021-07-02T14:04:12Z</time>
      </trkpt>
      <trkpt lat="41.870148" lon="2.010376">
        <ele>491.79550</ele>
        <time>2021-07-02T14:04:13Z</time>
      </trkpt>
      <trkpt lat="41.870380" lon="2.010794">
        <ele>493.12021</ele>
        <time>2021-07-02T14:04:14Z</time>
      </trkpt>
      <trkpt lat="41.870670" lon="2.011316">
        <ele>494.32431</ele>
        <time>2021-07-02T14:04:15Z</time>
      </trkpt>
      <trkpt lat="41.870960" lon="2.011826">
        <ele>495.22385</ele>
        <time>2021-07-02T14:04:16Z</time>
      </trkpt>
      <trkpt lat="41.871075" lon="2.012025">
        <ele>496.26108</ele>
        <time>2021-07-02T14:04:17Z</time>
      </trkpt>
      <trkpt lat="41.871338" lon="2.012472">
        <ele>497.61179</ele>
        <time>2021-07-02T14:04:18Z</time>
      </trkpt>
      <trkpt lat="41.871548" lon="2.012806">
        <ele>498.98923</ele>
        <time>2021-07-02T14:04:19Z</time>
      </trkpt>
      <trkpt lat="41.871803" lon="2.013193">
        <ele>500.55087</ele>
        <time>2021-07-02T14:04:20Z</time>
      </trkpt>
      <trkpt lat="41.871979" lon="2.013450">
        <ele>501.81699</ele>
        <time>2021-07-02T14:04:21Z</time>
      </trkpt>
      <trkpt lat="41.872234" lon="2.013797">
        <ele>503.76596</ele>
        <time>2021-07-02T14:04:22Z</time>
      </trkpt>
      <trkpt lat="41.872578" lon="2.014238">
        <ele>505.75668</ele>
        <time>2021-07-02T14:04:23Z</time>
      </trkpt>
      <trkpt lat="41.872852" lon="2.014575">
        <ele>507.70590</ele>
        <time>2021-07-02T14:04:24Z</time>
      </trkpt>
      <trkpt lat="41.873135" lon="2.014921">
        <ele>509.91977</ele>
        <time>2021-07-02T14:04:25Z</time>
      </trkpt>
      <trkpt lat="41.873562" lon="2.015423">
        <ele>511.34824</ele>
        <time>2021-07-02T14:04:26Z</time>
      </trkpt>
      <trkpt lat="41.873562" lon="2.015423">
        <ele>513.31000</ele>
        <time>2021-07-02T14:04:27Z</time>
      </trkpt>
      <trkpt lat="41.873928" lon="2.015855">
        <ele>514.92865</ele>
        <time>2021-07-02T14:04:28Z</time>
      </trkpt>
      <trkpt lat="41.874180" lon="2.016123">
        <ele>516.56158</ele>
        <time>2021-07-02T14:04:29Z</time>
      </trkpt>
      <trkpt lat="41.874474" lon="2.016463">
        <ele>517.83209</ele>
        <time>2021-07-02T14:04:30Z</time>
      </trkpt>
      <trkpt lat="41.874474" lon="2.016463">
        <ele>518.34552</ele>
        <time>2021-07-02T14:04:31Z</time>
      </trkpt>
      <trkpt lat="41.874779" lon="2.016813">
        <ele>520.30804</ele>
        <time>2021-07-02T14:04:32Z</time>
      </trkpt>
      <trkpt lat="41.875038" lon="2.017111">
        <ele>522.42462</ele>
        <time>2021-07-02T14:04:33Z</time>
      </trkpt>
      <trkpt lat="41.875324" lon="2.017456">
        <ele>524.21588</ele>
        <time>2021-07-02T14:04:34Z</time>
      </trkpt>
      <trkpt lat="41.875614" lon="2.017826">
        <ele>526.20563</ele>
        <time>2021-07-02T14:04:35Z</time>
      </trkpt>
      <trkpt lat="41.875858" lon="2.018160">
        <ele>527.27667</ele>
        <time>2021-07-02T14:04:36Z</time>
      </trkpt>
      <trkpt lat="41.876125" lon="2.018523">
        <ele>528.78375</ele>
        <time>2021-07-02T14:04:37Z</time>
      </trkpt>
      <trkpt lat="41.876381" lon="2.018888">
        <ele>529.89471</ele>
        <time>2021-07-02T14:04:38Z</time>
      </trkpt>
      <trkpt lat="41.876617" lon="2.019238">
        <ele>530.09918</ele>
        <time>2021-07-02T14:04:39Z</time>
      </trkpt>
      <trkpt lat="41.876865" lon="2.019627">
        <ele>531.12885</ele>
        <time>2021-07-02T14:04:40Z</time>
      </trkpt>
      <trkpt lat="41.877075" lon="2.019962">
        <ele>531.97467</ele>
        <time>2021-07-02T14:04:41Z</time>
      </trkpt>
      <trkpt lat="41.877300" lon="2.020345">
        <ele>533.41852</ele>
        <time>2021-07-02T14:04:42Z</time>
      </trkpt>
      <trkpt lat="41.877548" lon="2.020781">
        <ele>534.41779</ele>
        <time>2021-07-02T14:04:43Z</time>
      </trkpt>
      <trkpt lat="41.877750" lon="2.021159">
        <ele>535.99213</ele>
        <time>2021-07-02T14:04:44Z</time>
      </trkpt>
      <trkpt lat="41.877960" lon="2.021565">
        <ele>536.81427</ele>
        <time>2021-07-02T14:04:45Z</time>
      </trkpt>
      <trkpt lat="41.878181" lon="2.021996">
        <ele>537.74908</ele>
        <time>2021-07-02T14:04:46Z</time>
      </trkpt>
      <trkpt lat="41.878387" lon="2.022398">
        <ele>538.55280</ele>
        <time>2021-07-02T14:04:47Z</time>
      </trkpt>
      <trkpt lat="41.878590" lon="2.022794">
        <ele>539.39532</ele>
        <time>2021-07-02T14:04:48Z</time>
      </trkpt>
      <trkpt lat="41.878799" lon="2.023204">
        <ele>540.28400</ele>
        <time>2021-07-02T14:04:49Z</time>
      </trkpt>
      <trkpt lat="41.879025" lon="2.023637">
        <ele>541.15997</ele>
        <time>2021-07-02T14:04:50Z</time>
      </trkpt>
      <trkpt lat="41.879223" lon="2.024024">
        <ele>542.34113</ele>
        <time>2021-07-02T14:04:51Z</time>
      </trkpt>
      <trkpt lat="41.879406" lon="2.024392">
        <ele>543.01862</ele>
        <time>2021-07-02T14:04:52Z</time>
      </trkpt>
      <trkpt lat="41.879574" lon="2.024742">
        <ele>543.93658</ele>
        <time>2021-07-02T14:04:53Z</time>
      </trkpt>
      <trkpt lat="41.879745" lon="2.025117">
        <ele>545.27496</ele>
        <time>2021-07-02T14:04:54Z</time>
      </trkpt>
      <trkpt lat="41.879745" lon="2.025117">
        <ele>545.68011</ele>
        <time>2021-07-02T14:04:55Z</time>
      </trkpt>
      <trkpt lat="41.879955" lon="2.025593">
        <ele>546.40704</ele>
        <time>2021-07-02T14:04:56Z</time>
      </trkpt>
      <trkpt lat="41.880310" lon="2.026469">
        <ele>547.02594</ele>
        <time>2021-07-02T14:04:57Z</time>
      </trkpt>
      <trkpt lat="41.880310" lon="2.026469">
        <ele>548.12225</ele>
        <time>2021-07-02T14:04:58Z</time>
      </trkpt>
      <trkpt lat="41.880470" lon="2.026914">
        <ele>549.14166</ele>
        <time>2021-07-02T14:04:59Z</time>
      </trkpt>
      <trkpt lat="41.880604" lon="2.027312">
        <ele>549.86127</ele>
        <time>2021-07-02T14:05:00Z</time>
      </trkpt>
      <trkpt lat="41.880756" lon="2.027801">
        <ele>550.50690</ele>
        <time>2021-07-02T14:05:01Z</time>
      </trkpt>
      <trkpt lat="41.880894" lon="2.028254">
        <ele>550.89874</ele>
        <time>2021-07-02T14:05:02Z</time>
      </trkpt>
      <trkpt lat="41.880997" lon="2.028628">
        <ele>552.33234</ele>
        <time>2021-07-02T14:05:03Z</time>
      </trkpt>
      <trkpt lat="41.881130" lon="2.029102">
        <ele>554.18719</ele>
        <time>2021-07-02T14:05:04Z</time>
      </trkpt>
      <trkpt lat="41.881275" lon="2.029630">
        <ele>555.27228</ele>
        <time>2021-07-02T14:05:05Z</time>
      </trkpt>
      <trkpt lat="41.881393" lon="2.030038">
        <ele>556.57709</ele>
        <time>2021-07-02T14:05:06Z</time>
      </trkpt>
      <trkpt lat="41.881546" lon="2.030521">
        <ele>557.34686</ele>
        <time>2021-07-02T14:05:07Z</time>
      </trkpt>
      <trkpt lat="41.881702" lon="2.030938">
        <ele>558.94769</ele>
        <time>2021-07-02T14:05:08Z</time>
      </trkpt>
      <trkpt lat="41.881874" lon="2.031363">
        <ele>560.89557</ele>
        <time>2021-07-02T14:05:09Z</time>
      </trkpt>
      <trkpt lat="41.882080" lon="2.031803">
        <ele>562.37604</ele>
        <time>2021-07-02T14:05:10Z</time>
      </trkpt>
      <trkpt lat="41.882332" lon="2.032320">
        <ele>564.23273</ele>
        <time>2021-07-02T14:05:11Z</time>
      </trkpt>
      <trkpt lat="41.882545" lon="2.032744">
        <ele>566.17902</ele>
        <time>2021-07-02T14:05:12Z</time>
      </trkpt>
      <trkpt lat="41.882687" lon="2.033022">
        <ele>568.41534</ele>
        <time>2021-07-02T14:05:13Z</time>
      </trkpt>
      <trkpt lat="41.882889" lon="2.033437">
        <ele>570.41583</ele>
        <time>2021-07-02T14:05:14Z</time>
      </trkpt>
      <trkpt lat="41.883076" lon="2.033861">
        <ele>572.30231</ele>
        <time>2021-07-02T14:05:15Z</time>
      </trkpt>
      <trkpt lat="41.883240" lon="2.034295">
        <ele>574.06940</ele>
        <time>2021-07-02T14:05:16Z</time>
      </trkpt>
      <trkpt lat="41.883400" lon="2.034721">
        <ele>576.18219</ele>
        <time>2021-07-02T14:05:17Z</time>
      </trkpt>
      <trkpt lat="41.883545" lon="2.035154">
        <ele>577.96234</ele>
        <time>2021-07-02T14:05:18Z</time>
      </trkpt>
      <trkpt lat="41.883667" lon="2.035590">
        <ele>579.47589</ele>
        <time>2021-07-02T14:05:19Z</time>
      </trkpt>
      <trkpt lat="41.883778" lon="2.036046">
        <ele>581.04388</ele>
        <time>2021-07-02T14:05:20Z</time>
      </trkpt>
      <trkpt lat="41.883869" lon="2.036492">
        <ele>582.31012</ele>
        <time>2021-07-02T14:05:21Z</time>
      </trkpt>
      <trkpt lat="41.883953" lon="2.036964">
        <ele>583.92950</ele>
        <time>2021-07-02T14:05:22Z</time>
      </trkpt>
      <trkpt lat="41.884022" lon="2.037422">
        <ele>585.43073</ele>
        <time>2021-07-02T14:05:23Z</time>
      </trkpt>
      <trkpt lat="41.884090" lon="2.037942">
        <ele>587.42938</ele>
        <time>2021-07-02T14:05:24Z</time>
      </trkpt>
      <trkpt lat="41.884136" lon="2.038413">
        <ele>589.28741</ele>
        <time>2021-07-02T14:05:25Z</time>
      </trkpt>
      <trkpt lat="41.884186" lon="2.038896">
        <ele>591.45074</ele>
        <time>2021-07-02T14:05:26Z</time>
      </trkpt>
      <trkpt lat="41.884186" lon="2.038896">
        <ele>593.38336</ele>
        <time>2021-07-02T14:05:27Z</time>
      </trkpt>
      <trkpt lat="41.884239" lon="2.039374">
        <ele>594.86945</ele>
        <time>2021-07-02T14:05:28Z</time>
      </trkpt>
      <trkpt lat="41.884296" lon="2.039843">
        <ele>596.41364</ele>
        <time>2021-07-02T14:05:29Z</time>
      </trkpt>
      <trkpt lat="41.884354" lon="2.040305">
        <ele>597.84576</ele>
        <time>2021-07-02T14:05:30Z</time>
      </trkpt>
      <trkpt lat="41.884415" lon="2.040795">
        <ele>598.96320</ele>
        <time>2021-07-02T14:05:31Z</time>
      </trkpt>
      <trkpt lat="41.884480" lon="2.041248">
        <ele>599.56720</ele>
        <time>2021-07-02T14:05:32Z</time>
      </trkpt>
      <trkpt lat="41.884563" lon="2.041696">
        <ele>600.34039</ele>
        <time>2021-07-02T14:05:33Z</time>
      </trkpt>
      <trkpt lat="41.884666" lon="2.042229">
        <ele>600.40057</ele>
        <time>2021-07-02T14:05:34Z</time>
      </trkpt>
      <trkpt lat="41.884796" lon="2.042771">
        <ele>601.23651</ele>
        <time>2021-07-02T14:05:35Z</time>
      </trkpt>
      <trkpt lat="41.884953" lon="2.043344">
        <ele>601.38727</ele>
        <time>2021-07-02T14:05:36Z</time>
      </trkpt>
      <trkpt lat="41.885052" lon="2.043675">
        <ele>602.10797</ele>
        <time>2021-07-02T14:05:37Z</time>
      </trkpt>
      <trkpt lat="41.885208" lon="2.044162">
        <ele>602.42755</ele>
        <time>2021-07-02T14:05:38Z</time>
      </trkpt>
      <trkpt lat="41.885365" lon="2.044617">
        <ele>603.30304</ele>
        <time>2021-07-02T14:05:39Z</time>
      </trkpt>
      <trkpt lat="41.885525" lon="2.045064">
        <ele>604.27911</ele>
        <time>2021-07-02T14:05:40Z</time>
      </trkpt>
      <trkpt lat="41.885677" lon="2.045491">
        <ele>605.34698</ele>
        <time>2021-07-02T14:05:41Z</time>
      </trkpt>
      <trkpt lat="41.885845" lon="2.045936">
        <ele>606.12665</ele>
        <time>2021-07-02T14:05:42Z</time>
      </trkpt>
      <trkpt lat="41.886013" lon="2.046385">
        <ele>606.69598</ele>
        <time>2021-07-02T14:05:43Z</time>
      </trkpt>
      <trkpt lat="41.886162" lon="2.046781">
        <ele>607.66718</ele>
        <time>2021-07-02T14:05:44Z</time>
      </trkpt>
      <trkpt lat="41.886330" lon="2.047230">
        <ele>607.86627</ele>
        <time>2021-07-02T14:05:45Z</time>
      </trkpt>
      <trkpt lat="41.886497" lon="2.047681">
        <ele>608.71368</ele>
        <time>2021-07-02T14:05:46Z</time>
      </trkpt>
      <trkpt lat="41.886642" lon="2.048074">
        <ele>609.58344</ele>
        <time>2021-07-02T14:05:47Z</time>
      </trkpt>
      <trkpt lat="41.886822" lon="2.048548">
        <ele>610.69781</ele>
        <time>2021-07-02T14:05:48Z</time>
      </trkpt>
      <trkpt lat="41.886986" lon="2.048980">
        <ele>611.37531</ele>
        <time>2021-07-02T14:05:49Z</time>
      </trkpt>
      <trkpt lat="41.887154" lon="2.049430">
        <ele>612.45734</ele>
        <time>2021-07-02T14:05:50Z</time>
      </trkpt>
      <trkpt lat="41.887302" lon="2.049830">
        <ele>613.15094</ele>
        <time>2021-07-02T14:05:51Z</time>
      </trkpt>
      <trkpt lat="41.887302" lon="2.049830">
        <ele>614.32379</ele>
        <time>2021-07-02T14:05:52Z</time>
      </trkpt>
      <trkpt lat="41.887444" lon="2.050215">
        <ele>614.72369</ele>
        <time>2021-07-02T14:05:53Z</time>
      </trkpt>
      <trkpt lat="41.887611" lon="2.050700">
        <ele>615.22076</ele>
        <time>2021-07-02T14:05:54Z</time>
      </trkpt>
      <trkpt lat="41.887745" lon="2.051111">
        <ele>616.23126</ele>
        <time>2021-07-02T14:05:55Z</time>
      </trkpt>
      <trkpt lat="41.887886" lon="2.051591">
        <ele>616.78473</ele>
        <time>2021-07-02T14:05:56Z</time>
      </trkpt>
      <trkpt lat="41.888000" lon="2.052008">
        <ele>617.55560</ele>
        <time>2021-07-02T14:05:57Z</time>
      </trkpt>
      <trkpt lat="41.888123" lon="2.052491">
        <ele>618.67426</ele>
        <time>2021-07-02T14:05:58Z</time>
      </trkpt>
      <trkpt lat="41.888218" lon="2.052928">
        <ele>619.40973</ele>
        <time>2021-07-02T14:05:59Z</time>
      </trkpt>
      <trkpt lat="41.888329" lon="2.053437">
        <ele>620.99249</ele>
        <time>2021-07-02T14:06:00Z</time>
      </trkpt>
      <trkpt lat="41.888420" lon="2.053880">
        <ele>621.27557</ele>
        <time>2021-07-02T14:06:01Z</time>
      </trkpt>
      <trkpt lat="41.888512" lon="2.054302">
        <ele>621.88995</ele>
        <time>2021-07-02T14:06:02Z</time>
      </trkpt>
      <trkpt lat="41.888622" lon="2.054847">
        <ele>622.11261</ele>
        <time>2021-07-02T14:06:03Z</time>
      </trkpt>
      <trkpt lat="41.888725" lon="2.055329">
        <ele>623.48859</ele>
        <time>2021-07-02T14:06:04Z</time>
      </trkpt>
      <trkpt lat="41.888817" lon="2.055775">
        <ele>623.84454</ele>
        <time>2021-07-02T14:06:05Z</time>
      </trkpt>
      <trkpt lat="41.888908" lon="2.056214">
        <ele>625.16315</ele>
        <time>2021-07-02T14:06:06Z</time>
      </trkpt>
      <trkpt lat="41.889011" lon="2.056718">
        <ele>626.07147</ele>
        <time>2021-07-02T14:06:07Z</time>
      </trkpt>
      <trkpt lat="41.889107" lon="2.057186">
        <ele>626.73578</ele>
        <time>2021-07-02T14:06:08Z</time>
      </trkpt>
      <trkpt lat="41.889198" lon="2.057638">
        <ele>627.88666</ele>
        <time>2021-07-02T14:06:09Z</time>
      </trkpt>
      <trkpt lat="41.889282" lon="2.058063">
        <ele>628.57697</ele>
        <time>2021-07-02T14:06:10Z</time>
      </trkpt>
      <trkpt lat="41.889378" lon="2.058561">
        <ele>629.42535</ele>
        <time>2021-07-02T14:06:11Z</time>
      </trkpt>
      <trkpt lat="41.889481" lon="2.059065">
        <ele>630.45197</ele>
        <time>2021-07-02T14:06:12Z</time>
      </trkpt>
      <trkpt lat="41.889580" lon="2.059526">
        <ele>631.75909</ele>
        <time>2021-07-02T14:06:13Z</time>
      </trkpt>
      <trkpt lat="41.889687" lon="2.060010">
        <ele>633.76398</ele>
        <time>2021-07-02T14:06:14Z</time>
      </trkpt>
      <trkpt lat="41.889790" lon="2.060451">
        <ele>635.68890</ele>
        <time>2021-07-02T14:06:15Z</time>
      </trkpt>
      <trkpt lat="41.889904" lon="2.060870">
        <ele>637.26959</ele>
        <time>2021-07-02T14:06:16Z</time>
      </trkpt>
      <trkpt lat="41.890038" lon="2.061354">
        <ele>638.41046</ele>
        <time>2021-07-02T14:06:17Z</time>
      </trkpt>
      <trkpt lat="41.890186" lon="2.061818">
        <ele>640.05231</ele>
        <time>2021-07-02T14:06:18Z</time>
      </trkpt>
      <trkpt lat="41.890339" lon="2.062252">
        <ele>641.63910</ele>
        <time>2021-07-02T14:06:19Z</time>
      </trkpt>
      <trkpt lat="41.890511" lon="2.062708">
        <ele>643.01422</ele>
        <time>2021-07-02T14:06:20Z</time>
      </trkpt>
      <trkpt lat="41.890694" lon="2.063132">
        <ele>644.53033</ele>
        <time>2021-07-02T14:06:21Z</time>
      </trkpt>
      <trkpt lat="41.890865" lon="2.063525">
        <ele>645.99115</ele>
        <time>2021-07-02T14:06:22Z</time>
      </trkpt>
      <trkpt lat="41.891129" lon="2.064062">
        <ele>647.86261</ele>
        <time>2021-07-02T14:06:23Z</time>
      </trkpt>
      <trkpt lat="41.891338" lon="2.064468">
        <ele>649.09320</ele>
        <time>2021-07-02T14:06:24Z</time>
      </trkpt>
      <trkpt lat="41.891338" lon="2.064468">
        <ele>649.74432</ele>
        <time>2021-07-02T14:06:25Z</time>
      </trkpt>
      <trkpt lat="41.891556" lon="2.064877">
        <ele>651.56451</ele>
        <time>2021-07-02T14:06:26Z</time>
      </trkpt>
      <trkpt lat="41.891750" lon="2.065240">
        <ele>653.04987</ele>
        <time>2021-07-02T14:06:27Z</time>
      </trkpt>
      <trkpt lat="41.891987" lon="2.065683">
        <ele>654.29181</ele>
        <time>2021-07-02T14:06:28Z</time>
      </trkpt>
      <trkpt lat="41.892178" lon="2.066043">
        <ele>655.74567</ele>
        <time>2021-07-02T14:06:29Z</time>
      </trkpt>
      <trkpt lat="41.892395" lon="2.066450">
        <ele>656.04279</ele>
        <time>2021-07-02T14:06:30Z</time>
      </trkpt>
      <trkpt lat="41.892582" lon="2.066799">
        <ele>656.88922</ele>
        <time>2021-07-02T14:06:31Z</time>
      </trkpt>
      <trkpt lat="41.892754" lon="2.067126">
        <ele>658.06866</ele>
        <time>2021-07-02T14:06:32Z</time>
      </trkpt>
      <trkpt lat="41.892902" lon="2.067425">
        <ele>658.99835</ele>
        <time>2021-07-02T14:06:33Z</time>
      </trkpt>
      <trkpt lat="41.893063" lon="2.067795">
        <ele>660.16888</ele>
        <time>2021-07-02T14:06:34Z</time>
      </trkpt>
      <trkpt lat="41.893211" lon="2.068152">
        <ele>660.96637</ele>
        <time>2021-07-02T14:06:35Z</time>
      </trkpt>
      <trkpt lat="41.893341" lon="2.068510">
        <ele>662.11359</ele>
        <time>2021-07-02T14:06:36Z</time>
      </trkpt>
      <trkpt lat="41.893456" lon="2.068854">
        <ele>663.41925</ele>
        <time>2021-07-02T14:06:37Z</time>
      </trkpt>
      <trkpt lat="41.893578" lon="2.069264">
        <ele>664.75983</ele>
        <time>2021-07-02T14:06:38Z</time>
      </trkpt>
      <trkpt lat="41.893673" lon="2.069641">
        <ele>665.43195</ele>
        <time>2021-07-02T14:06:39Z</time>
      </trkpt>
      <trkpt lat="41.893753" lon="2.069993">
        <ele>666.87213</ele>
        <time>2021-07-02T14:06:40Z</time>
      </trkpt>
      <trkpt lat="41.893833" lon="2.070376">
        <ele>668.65436</ele>
        <time>2021-07-02T14:06:41Z</time>
      </trkpt>
      <trkpt lat="41.893921" lon="2.070790">
        <ele>669.77435</ele>
        <time>2021-07-02T14:06:42Z</time>
      </trkpt>
      <trkpt lat="41.894001" lon="2.071177">
        <ele>671.24933</ele>
        <time>2021-07-02T14:06:43Z</time>
      </trkpt>
      <trkpt lat="41.894070" lon="2.071495">
        <ele>672.82013</ele>
        <time>2021-07-02T14:06:44Z</time>
      </trkpt>
      <trkpt lat="41.894142" lon="2.071860">
        <ele>674.44147</ele>
        <time>2021-07-02T14:06:45Z</time>
      </trkpt>
      <trkpt lat="41.894234" lon="2.072227">
        <ele>674.86945</ele>
        <time>2021-07-02T14:06:46Z</time>
      </trkpt>
      <trkpt lat="41.894329" lon="2.072615">
        <ele>675.87897</ele>
        <time>2021-07-02T14:06:47Z</time>
      </trkpt>
      <trkpt lat="41.894424" lon="2.072963">
        <ele>677.63251</ele>
        <time>2021-07-02T14:06:48Z</time>
      </trkpt>
      <trkpt lat="41.894539" lon="2.073322">
        <ele>679.21002</ele>
        <time>2021-07-02T14:06:49Z</time>
      </trkpt>
      <trkpt lat="41.894653" lon="2.073639">
        <ele>680.14606</ele>
        <time>2021-07-02T14:06:50Z</time>
      </trkpt>
      <trkpt lat="41.894779" lon="2.073981">
        <ele>681.56573</ele>
        <time>2021-07-02T14:06:51Z</time>
      </trkpt>
      <trkpt lat="41.894779" lon="2.073981">
        <ele>683.02570</ele>
        <time>2021-07-02T14:06:52Z</time>
      </trkpt>
      <trkpt lat="41.894928" lon="2.074337">
        <ele>684.19965</ele>
        <time>2021-07-02T14:06:53Z</time>
      </trkpt>
      <trkpt lat="41.895241" lon="2.074986">
        <ele>685.48297</ele>
        <time>2021-07-02T14:06:54Z</time>
      </trkpt>
      <trkpt lat="41.895241" lon="2.074986">
        <ele>687.15741</ele>
        <time>2021-07-02T14:06:55Z</time>
      </trkpt>
      <trkpt lat="41.895405" lon="2.075301">
        <ele>688.19464</ele>
        <time>2021-07-02T14:06:56Z</time>
      </trkpt>
      <trkpt lat="41.895576" lon="2.075595">
        <ele>688.91156</ele>
        <time>2021-07-02T14:06:57Z</time>
      </trkpt>
      <trkpt lat="41.895741" lon="2.075855">
        <ele>689.88519</ele>
        <time>2021-07-02T14:06:58Z</time>
      </trkpt>
      <trkpt lat="41.895943" lon="2.076172">
        <ele>691.15692</ele>
        <time>2021-07-02T14:06:59Z</time>
      </trkpt>
      <trkpt lat="41.896126" lon="2.076458">
        <ele>692.35699</ele>
        <time>2021-07-02T14:07:00Z</time>
      </trkpt>
      <trkpt lat="41.896339" lon="2.076780">
        <ele>693.26813</ele>
        <time>2021-07-02T14:07:01Z</time>
      </trkpt>
      <trkpt lat="41.896557" lon="2.077122">
        <ele>694.16779</ele>
        <time>2021-07-02T14:07:02Z</time>
      </trkpt>
      <trkpt lat="41.896751" lon="2.077449">
        <ele>694.70612</ele>
        <time>2021-07-02T14:07:03Z</time>
      </trkpt>
      <trkpt lat="41.896973" lon="2.077864">
        <ele>695.90314</ele>
        <time>2021-07-02T14:07:04Z</time>
      </trkpt>
      <trkpt lat="41.897194" lon="2.078315">
        <ele>697.79181</ele>
        <time>2021-07-02T14:07:05Z</time>
      </trkpt>
      <trkpt lat="41.897419" lon="2.078838">
        <ele>699.27045</ele>
        <time>2021-07-02T14:07:06Z</time>
      </trkpt>
      <trkpt lat="41.897526" lon="2.079105">
        <ele>700.44855</ele>
        <time>2021-07-02T14:07:07Z</time>
      </trkpt>
      <trkpt lat="41.897705" lon="2.079594">
        <ele>702.14410</ele>
        <time>2021-07-02T14:07:08Z</time>
      </trkpt>
      <trkpt lat="41.897842" lon="2.080011">
        <ele>703.89410</ele>
        <time>2021-07-02T14:07:09Z</time>
      </trkpt>
      <trkpt lat="41.898010" lon="2.080521">
        <ele>704.82635</ele>
        <time>2021-07-02T14:07:10Z</time>
      </trkpt>
      <trkpt lat="41.898197" lon="2.081088">
        <ele>706.09821</ele>
        <time>2021-07-02T14:07:11Z</time>
      </trkpt>
      <trkpt lat="41.898342" lon="2.081530">
        <ele>707.49054</ele>
        <time>2021-07-02T14:07:12Z</time>
      </trkpt>
      <trkpt lat="41.898502" lon="2.082015">
        <ele>708.26398</ele>
        <time>2021-07-02T14:07:13Z</time>
      </trkpt>
      <trkpt lat="41.898643" lon="2.082444">
        <ele>709.37396</ele>
        <time>2021-07-02T14:07:14Z</time>
      </trkpt>
      <trkpt lat="41.898788" lon="2.082885">
        <ele>710.11090</ele>
        <time>2021-07-02T14:07:15Z</time>
      </trkpt>
      <trkpt lat="41.898922" lon="2.083286">
        <ele>710.73126</ele>
        <time>2021-07-02T14:07:16Z</time>
      </trkpt>
      <trkpt lat="41.899075" lon="2.083752">
        <ele>711.71271</ele>
        <time>2021-07-02T14:07:17Z</time>
      </trkpt>
      <trkpt lat="41.899235" lon="2.084195">
        <ele>712.40851</ele>
        <time>2021-07-02T14:07:18Z</time>
      </trkpt>
      <trkpt lat="41.899387" lon="2.084601">
        <ele>713.38959</ele>
        <time>2021-07-02T14:07:19Z</time>
      </trkpt>
      <trkpt lat="41.899387" lon="2.084601">
        <ele>714.31256</ele>
        <time>2021-07-02T14:07:20Z</time>
      </trkpt>
      <trkpt lat="41.899776" lon="2.085453">
        <ele>714.99823</ele>
        <time>2021-07-02T14:07:21Z</time>
      </trkpt>
      <trkpt lat="41.899776" lon="2.085453">
        <ele>716.01788</ele>
        <time>2021-07-02T14:07:22Z</time>
      </trkpt>
      <trkpt lat="41.899982" lon="2.085847">
        <ele>717.16266</ele>
        <time>2021-07-02T14:07:23Z</time>
      </trkpt>
      <trkpt lat="41.900192" lon="2.086238">
        <ele>717.56183</ele>
        <time>2021-07-02T14:07:24Z</time>
      </trkpt>
      <trkpt lat="41.900394" lon="2.086613">
        <ele>717.91901</ele>
        <time>2021-07-02T14:07:25Z</time>
      </trkpt>
      <trkpt lat="41.900623" lon="2.087075">
        <ele>718.43829</ele>
        <time>2021-07-02T14:07:26Z</time>
      </trkpt>
      <trkpt lat="41.900826" lon="2.087476">
        <ele>718.92010</ele>
        <time>2021-07-02T14:07:27Z</time>
      </trkpt>
      <trkpt lat="41.901012" lon="2.087894">
        <ele>719.34698</ele>
        <time>2021-07-02T14:07:28Z</time>
      </trkpt>
      <trkpt lat="41.901188" lon="2.088327">
        <ele>720.01556</ele>
        <time>2021-07-02T14:07:29Z</time>
      </trkpt>
      <trkpt lat="41.901333" lon="2.088696">
        <ele>720.94049</ele>
        <time>2021-07-02T14:07:30Z</time>
      </trkpt>
      <trkpt lat="41.901516" lon="2.089183">
        <ele>720.65094</ele>
        <time>2021-07-02T14:07:31Z</time>
      </trkpt>
      <trkpt lat="41.901672" lon="2.089610">
        <ele>720.65057</ele>
        <time>2021-07-02T14:07:32Z</time>
      </trkpt>
      <trkpt lat="41.901897" lon="2.090229">
        <ele>720.51202</ele>
        <time>2021-07-02T14:07:33Z</time>
      </trkpt>
      <trkpt lat="41.902023" lon="2.090641">
        <ele>720.77765</ele>
        <time>2021-07-02T14:07:34Z</time>
      </trkpt>
      <trkpt lat="41.902161" lon="2.091079">
        <ele>720.49713</ele>
        <time>2021-07-02T14:07:35Z</time>
      </trkpt>
      <trkpt lat="41.902283" lon="2.091579">
        <ele>719.87384</ele>
        <time>2021-07-02T14:07:36Z</time>
      </trkpt>
      <trkpt lat="41.902386" lon="2.092016">
        <ele>719.70599</ele>
        <time>2021-07-02T14:07:37Z</time>
      </trkpt>
      <trkpt lat="41.902481" lon="2.092518">
        <ele>719.75616</ele>
        <time>2021-07-02T14:07:38Z</time>
      </trkpt>
      <trkpt lat="41.902557" lon="2.092992">
        <ele>719.60724</ele>
        <time>2021-07-02T14:07:39Z</time>
      </trkpt>
      <trkpt lat="41.902618" lon="2.093473">
        <ele>719.87848</ele>
        <time>2021-07-02T14:07:40Z</time>
      </trkpt>
      <trkpt lat="41.902668" lon="2.093963">
        <ele>719.67975</ele>
        <time>2021-07-02T14:07:41Z</time>
      </trkpt>
      <trkpt lat="41.902702" lon="2.094331">
        <ele>719.97882</ele>
        <time>2021-07-02T14:07:42Z</time>
      </trkpt>
      <trkpt lat="41.902702" lon="2.094331">
        <ele>720.53497</ele>
        <time>2021-07-02T14:07:43Z</time>
      </trkpt>
      <trkpt lat="41.902748" lon="2.094883">
        <ele>720.81012</ele>
        <time>2021-07-02T14:07:44Z</time>
      </trkpt>
      <trkpt lat="41.902817" lon="2.095699">
        <ele>720.91669</ele>
        <time>2021-07-02T14:07:45Z</time>
      </trkpt>
      <trkpt lat="41.902824" lon="2.095802">
        <ele>721.20880</ele>
        <time>2021-07-02T14:07:46Z</time>
      </trkpt>
      <trkpt lat="41.902874" lon="2.096408">
        <ele>721.51324</ele>
        <time>2021-07-02T14:07:47Z</time>
      </trkpt>
      <trkpt lat="41.902908" lon="2.096832">
        <ele>722.17389</ele>
        <time>2021-07-02T14:07:48Z</time>
      </trkpt>
      <trkpt lat="41.902943" lon="2.097288">
        <ele>723.05206</ele>
        <time>2021-07-02T14:07:49Z</time>
      </trkpt>
      <trkpt lat="41.902981" lon="2.097744">
        <ele>724.14020</ele>
        <time>2021-07-02T14:07:50Z</time>
      </trkpt>
      <trkpt lat="41.903023" lon="2.098276">
        <ele>725.16119</ele>
        <time>2021-07-02T14:07:51Z</time>
      </trkpt>
      <trkpt lat="41.903065" lon="2.098759">
        <ele>725.79279</ele>
        <time>2021-07-02T14:07:52Z</time>
      </trkpt>
      <trkpt lat="41.903103" lon="2.099213">
        <ele>726.54962</ele>
        <time>2021-07-02T14:07:53Z</time>
      </trkpt>
      <trkpt lat="41.903141" lon="2.099671">
        <ele>727.13312</ele>
        <time>2021-07-02T14:07:54Z</time>
      </trkpt>
      <trkpt lat="41.903179" lon="2.100157">
        <ele>728.14191</ele>
        <time>2021-07-02T14:07:55Z</time>
      </trkpt>
      <trkpt lat="41.903214" lon="2.100603">
        <ele>728.87494</ele>
        <time>2021-07-02T14:07:56Z</time>
      </trkpt>
      <trkpt lat="41.903252" lon="2.101074">
        <ele>728.44891</ele>
        <time>2021-07-02T14:07:57Z</time>
      </trkpt>
      <trkpt lat="41.903286" lon="2.101497">
        <ele>727.50702</ele>
        <time>2021-07-02T14:07:58Z</time>
      </trkpt>
      <trkpt lat="41.903316" lon="2.101862">
        <ele>727.51678</ele>
        <time>2021-07-02T14:07:59Z</time>
      </trkpt>
      <trkpt lat="41.903355" lon="2.102301">
        <ele>727.52338</ele>
        <time>2021-07-02T14:08:00Z</time>
      </trkpt>
      <trkpt lat="41.903389" lon="2.102730">
        <ele>727.94684</ele>
        <time>2021-07-02T14:08:01Z</time>
      </trkpt>
      <trkpt lat="41.903435" lon="2.103156">
        <ele>727.99164</ele>
        <time>2021-07-02T14:08:02Z</time>
      </trkpt>
      <trkpt lat="41.903484" lon="2.103544">
        <ele>727.93719</ele>
        <time>2021-07-02T14:08:03Z</time>
      </trkpt>
      <trkpt lat="41.903542" lon="2.103903">
        <ele>727.71967</ele>
        <time>2021-07-02T14:08:04Z</time>
      </trkpt>
      <trkpt lat="41.903599" lon="2.104250">
        <ele>727.64447</ele>
        <time>2021-07-02T14:08:05Z</time>
      </trkpt>
      <trkpt lat="41.903683" lon="2.104633">
        <ele>727.97797</ele>
        <time>2021-07-02T14:08:06Z</time>
      </trkpt>
      <trkpt lat="41.903755" lon="2.104961">
        <ele>728.47906</ele>
        <time>2021-07-02T14:08:07Z</time>
      </trkpt>
      <trkpt lat="41.903854" lon="2.105350">
        <ele>729.11932</ele>
        <time>2021-07-02T14:08:08Z</time>
      </trkpt>
      <trkpt lat="41.903954" lon="2.105691">
        <ele>728.37592</ele>
        <time>2021-07-02T14:08:09Z</time>
      </trkpt>
      <trkpt lat="41.904076" lon="2.106079">
        <ele>728.46808</ele>
        <time>2021-07-02T14:08:10Z</time>
      </trkpt>
      <trkpt lat="41.904202" lon="2.106447">
        <ele>728.18365</ele>
        <time>2021-07-02T14:08:11Z</time>
      </trkpt>
      <trkpt lat="41.904331" lon="2.106775">
        <ele>727.90277</ele>
        <time>2021-07-02T14:08:12Z</time>
      </trkpt>
      <trkpt lat="41.904476" lon="2.107115">
        <ele>728.25970</ele>
        <time>2021-07-02T14:08:13Z</time>
      </trkpt>
      <trkpt lat="41.904476" lon="2.107115">
        <ele>728.00922</ele>
        <time>2021-07-02T14:08:14Z</time>
      </trkpt>
      <trkpt lat="41.904613" lon="2.107426">
        <ele>728.30743</ele>
        <time>2021-07-02T14:08:15Z</time>
      </trkpt>
      <trkpt lat="41.904758" lon="2.107728">
        <ele>727.90619</ele>
        <time>2021-07-02T14:08:16Z</time>
      </trkpt>
      <trkpt lat="41.904930" lon="2.108082">
        <ele>727.54059</ele>
        <time>2021-07-02T14:08:17Z</time>
      </trkpt>
      <trkpt lat="41.905075" lon="2.108374">
        <ele>727.94293</ele>
        <time>2021-07-02T14:08:18Z</time>
      </trkpt>
      <trkpt lat="41.905239" lon="2.108705">
        <ele>728.95648</ele>
        <time>2021-07-02T14:08:19Z</time>
      </trkpt>
      <trkpt lat="41.905415" lon="2.109053">
        <ele>729.65399</ele>
        <time>2021-07-02T14:08:20Z</time>
      </trkpt>
      <trkpt lat="41.905586" lon="2.109391">
        <ele>730.56903</ele>
        <time>2021-07-02T14:08:21Z</time>
      </trkpt>
      <trkpt lat="41.905750" lon="2.109718">
        <ele>731.46149</ele>
        <time>2021-07-02T14:08:22Z</time>
      </trkpt>
      <trkpt lat="41.905914" lon="2.110044">
        <ele>732.42645</ele>
        <time>2021-07-02T14:08:23Z</time>
      </trkpt>
      <trkpt lat="41.906097" lon="2.110402">
        <ele>733.76691</ele>
        <time>2021-07-02T14:08:24Z</time>
      </trkpt>
      <trkpt lat="41.906277" lon="2.110754">
        <ele>733.76691</ele>
        <time>2021-07-02T14:08:25Z</time>
      </trkpt>
      <trkpt lat="41.906441" lon="2.111092">
        <ele>735.41974</ele>
        <time>2021-07-02T14:08:26Z</time>
      </trkpt>
      <trkpt lat="41.906635" lon="2.111505">
        <ele>736.12299</ele>
        <time>2021-07-02T14:08:27Z</time>
      </trkpt>
      <trkpt lat="41.906807" lon="2.111918">
        <ele>737.00897</ele>
        <time>2021-07-02T14:08:28Z</time>
      </trkpt>
      <trkpt lat="41.906948" lon="2.112299">
        <ele>737.81757</ele>
        <time>2021-07-02T14:08:29Z</time>
      </trkpt>
      <trkpt lat="41.907070" lon="2.112681">
        <ele>738.12213</ele>
        <time>2021-07-02T14:08:30Z</time>
      </trkpt>
      <trkpt lat="41.907169" lon="2.113083">
        <ele>738.94403</ele>
        <time>2021-07-02T14:08:31Z</time>
      </trkpt>
      <trkpt lat="41.907269" lon="2.113512">
        <ele>739.99408</ele>
        <time>2021-07-02T14:08:32Z</time>
      </trkpt>
      <trkpt lat="41.907349" lon="2.113956">
        <ele>740.74701</ele>
        <time>2021-07-02T14:08:33Z</time>
      </trkpt>
      <trkpt lat="41.907417" lon="2.114322">
        <ele>741.64716</ele>
        <time>2021-07-02T14:08:34Z</time>
      </trkpt>
      <trkpt lat="41.907478" lon="2.114681">
        <ele>742.26776</ele>
        <time>2021-07-02T14:08:35Z</time>
      </trkpt>
      <trkpt lat="41.907551" lon="2.115091">
        <ele>742.65424</ele>
        <time>2021-07-02T14:08:36Z</time>
      </trkpt>
      <trkpt lat="41.907635" lon="2.115485">
        <ele>743.49921</ele>
        <time>2021-07-02T14:08:37Z</time>
      </trkpt>
      <trkpt lat="41.907734" lon="2.115892">
        <ele>744.19000</ele>
        <time>2021-07-02T14:08:38Z</time>
      </trkpt>
      <trkpt lat="41.907734" lon="2.115892">
        <ele>744.96381</ele>
        <time>2021-07-02T14:08:39Z</time>
      </trkpt>
      <trkpt lat="41.907970" lon="2.116644">
        <ele>745.89960</ele>
        <time>2021-07-02T14:08:40Z</time>
      </trkpt>
      <trkpt lat="41.907970" lon="2.116644">
        <ele>746.96173</ele>
        <time>2021-07-02T14:08:41Z</time>
      </trkpt>
      <trkpt lat="41.908112" lon="2.116998">
        <ele>748.37128</ele>
        <time>2021-07-02T14:08:42Z</time>
      </trkpt>
      <trkpt lat="41.908245" lon="2.117312">
        <ele>749.65436</ele>
        <time>2021-07-02T14:08:43Z</time>
      </trkpt>
      <trkpt lat="41.908424" lon="2.117671">
        <ele>750.92218</ele>
        <time>2021-07-02T14:08:44Z</time>
      </trkpt>
      <trkpt lat="41.908604" lon="2.117995">
        <ele>751.97064</ele>
        <time>2021-07-02T14:08:45Z</time>
      </trkpt>
      <trkpt lat="41.908798" lon="2.118319">
        <ele>753.02460</ele>
        <time>2021-07-02T14:08:46Z</time>
      </trkpt>
      <trkpt lat="41.909042" lon="2.118673">
        <ele>754.23700</ele>
        <time>2021-07-02T14:08:47Z</time>
      </trkpt>
      <trkpt lat="41.909325" lon="2.119070">
        <ele>755.57281</ele>
        <time>2021-07-02T14:08:48Z</time>
      </trkpt>
      <trkpt lat="41.909584" lon="2.119436">
        <ele>757.06830</ele>
        <time>2021-07-02T14:08:49Z</time>
      </trkpt>
      <trkpt lat="41.909821" lon="2.119786">
        <ele>758.35370</ele>
        <time>2021-07-02T14:08:50Z</time>
      </trkpt>
      <trkpt lat="41.910076" lon="2.120200">
        <ele>758.81964</ele>
        <time>2021-07-02T14:08:51Z</time>
      </trkpt>
      <trkpt lat="41.910282" lon="2.120584">
        <ele>759.99384</ele>
        <time>2021-07-02T14:08:52Z</time>
      </trkpt>
      <trkpt lat="41.910473" lon="2.120996">
        <ele>761.16083</ele>
        <time>2021-07-02T14:08:53Z</time>
      </trkpt>
      <trkpt lat="41.910645" lon="2.121424">
        <ele>762.20599</ele>
        <time>2021-07-02T14:08:54Z</time>
      </trkpt>
      <trkpt lat="41.910812" lon="2.121895">
        <ele>762.71405</ele>
        <time>2021-07-02T14:08:55Z</time>
      </trkpt>
      <trkpt lat="41.910950" lon="2.122367">
        <ele>762.91205</ele>
        <time>2021-07-02T14:08:56Z</time>
      </trkpt>
      <trkpt lat="41.911072" lon="2.122867">
        <ele>762.91998</ele>
        <time>2021-07-02T14:08:57Z</time>
      </trkpt>
      <trkpt lat="41.911160" lon="2.123354">
        <ele>762.95880</ele>
        <time>2021-07-02T14:08:58Z</time>
      </trkpt>
      <trkpt lat="41.911228" lon="2.123810">
        <ele>762.34271</ele>
        <time>2021-07-02T14:08:59Z</time>
      </trkpt>
      <trkpt lat="41.911270" lon="2.124320">
        <ele>762.61517</ele>
        <time>2021-07-02T14:09:00Z</time>
      </trkpt>
      <trkpt lat="41.911289" lon="2.124820">
        <ele>762.46149</ele>
        <time>2021-07-02T14:09:01Z</time>
      </trkpt>
      <trkpt lat="41.911297" lon="2.125311">
        <ele>761.94598</ele>
        <time>2021-07-02T14:09:02Z</time>
      </trkpt>
      <trkpt lat="41.911297" lon="2.125764">
        <ele>761.45258</ele>
        <time>2021-07-02T14:09:03Z</time>
      </trkpt>
      <trkpt lat="41.911289" lon="2.126267">
        <ele>760.69476</ele>
        <time>2021-07-02T14:09:04Z</time>
      </trkpt>
      <trkpt lat="41.911285" lon="2.126714">
        <ele>759.97479</ele>
        <time>2021-07-02T14:09:05Z</time>
      </trkpt>
      <trkpt lat="41.911285" lon="2.127216">
        <ele>759.67792</ele>
        <time>2021-07-02T14:09:06Z</time>
      </trkpt>
      <trkpt lat="41.911308" lon="2.127697">
        <ele>759.06757</ele>
        <time>2021-07-02T14:09:07Z</time>
      </trkpt>
      <trkpt lat="41.911308" lon="2.127697">
        <ele>758.76971</ele>
        <time>2021-07-02T14:09:08Z</time>
      </trkpt>
      <trkpt lat="41.911362" lon="2.128174">
        <ele>758.56854</ele>
        <time>2021-07-02T14:09:09Z</time>
      </trkpt>
      <trkpt lat="41.911427" lon="2.128571">
        <ele>757.97699</ele>
        <time>2021-07-02T14:09:10Z</time>
      </trkpt>
      <trkpt lat="41.911537" lon="2.129008">
        <ele>757.59979</ele>
        <time>2021-07-02T14:09:11Z</time>
      </trkpt>
      <trkpt lat="41.911678" lon="2.129414">
        <ele>757.98578</ele>
        <time>2021-07-02T14:09:12Z</time>
      </trkpt>
      <trkpt lat="41.911823" lon="2.129758">
        <ele>757.78851</ele>
        <time>2021-07-02T14:09:13Z</time>
      </trkpt>
      <trkpt lat="41.911999" lon="2.130091">
        <ele>757.71088</ele>
        <time>2021-07-02T14:09:14Z</time>
      </trkpt>
      <trkpt lat="41.912182" lon="2.130389">
        <ele>757.99567</ele>
        <time>2021-07-02T14:09:15Z</time>
      </trkpt>
      <trkpt lat="41.912376" lon="2.130659">
        <ele>758.13605</ele>
        <time>2021-07-02T14:09:16Z</time>
      </trkpt>
      <trkpt lat="41.912579" lon="2.130885">
        <ele>758.90863</ele>
        <time>2021-07-02T14:09:17Z</time>
      </trkpt>
      <trkpt lat="41.912777" lon="2.131105">
        <ele>758.93622</ele>
        <time>2021-07-02T14:09:18Z</time>
      </trkpt>
      <trkpt lat="41.912971" lon="2.131296">
        <ele>758.77655</ele>
        <time>2021-07-02T14:09:19Z</time>
      </trkpt>
      <trkpt lat="41.913143" lon="2.131462">
        <ele>758.71735</ele>
        <time>2021-07-02T14:09:20Z</time>
      </trkpt>
      <trkpt lat="41.913307" lon="2.131629">
        <ele>758.74323</ele>
        <time>2021-07-02T14:09:21Z</time>
      </trkpt>
      <trkpt lat="41.913490" lon="2.131810">
        <ele>759.06976</ele>
        <time>2021-07-02T14:09:22Z</time>
      </trkpt>
      <trkpt lat="41.913673" lon="2.131987">
        <ele>759.14716</ele>
        <time>2021-07-02T14:09:23Z</time>
      </trkpt>
      <trkpt lat="41.913841" lon="2.132151">
        <ele>759.21088</ele>
        <time>2021-07-02T14:09:24Z</time>
      </trkpt>
      <trkpt lat="41.914013" lon="2.132318">
        <ele>759.21088</ele>
        <time>2021-07-02T14:09:25Z</time>
      </trkpt>
      <trkpt lat="41.914185" lon="2.132478">
        <ele>759.21088</ele>
        <time>2021-07-02T14:09:26Z</time>
      </trkpt>
      <trkpt lat="41.914234" lon="2.132526">
        <ele>759.21088</ele>
        <time>2021-07-02T14:09:27Z</time>
      </trkpt>
      <trkpt lat="41.914234" lon="2.132526">
        <ele>759.21088</ele>
        <time>2021-07-02T14:09:28Z</time>
      </trkpt>
      <trkpt lat="41.914234" lon="2.132526">
        <ele>759.21088</ele>
        <time>2021-07-02T14:09:29Z</time>
      </trkpt>
      <trkpt lat="41.914234" lon="2.132526">
        <ele>759.21088</ele>
        <time>2021-07-02T14:09:30Z</time>
      </trkpt>
      <trkpt lat="41.914234" lon="2.132526">
        <ele>759.21088</ele>
        <time>2021-07-02T14:09:31Z</time>
      </trkpt>
      <trkpt lat="41.914234" lon="2.132526">
        <ele>759.21088</ele>
        <time>2021-07-02T14:09:32Z</time>
      </trkpt>
      <trkpt lat="41.914234" lon="2.132526">
        <ele>759.21088</ele>
        <time>2021-07-02T14:09:33Z</time>
      </trkpt>
      <trkpt lat="41.914234" lon="2.132526">
        <ele>759.21088</ele>
        <time>2021-07-02T14:09:34Z</time>
      </trkpt>
      <trkpt lat="41.914234" lon="2.132526">
        <ele>759.21088</ele>
        <time>2021-07-02T14:09:35Z</time>
      </trkpt>
      <trkpt lat="41.914234" lon="2.132526">
        <ele>759.21088</ele>
        <time>2021-07-02T14:09:36Z</time>
      </trkpt>
      <trkpt lat="41.914234" lon="2.132526">
        <ele>759.21088</ele>
        <time>2021-07-02T14:09:37Z</time>
      </trkpt>
      <trkpt lat="41.914234" lon="2.132526">
        <ele>759.21088</ele>
        <time>2021-07-02T14:09:38Z</time>
      </trkpt>
      <trkpt lat="41.914234" lon="2.132526">
        <ele>759.21088</ele>
        <time>2021-07-02T14:09:39Z</time>
      </trkpt>
      <trkpt lat="41.914234" lon="2.132526">
        <ele>759.21088</ele>
        <time>2021-07-02T14:09:40Z</time>
      </trkpt>
      <trkpt lat="41.914234" lon="2.132526">
        <ele>759.21088</ele>
        <time>2021-07-02T14:09:41Z</time>
      </trkpt>
      <trkpt lat="41.914234" lon="2.132526">
        <ele>759.21088</ele>
        <time>2021-07-02T14:09:42Z</time>
      </trkpt>
      <trkpt lat="41.914234" lon="2.132526">
        <ele>759.21088</ele>
        <time>2021-07-02T14:09:43Z</time>
      </trkpt>
      <trkpt lat="41.914234" lon="2.132526">
        <ele>759.21088</ele>
        <time>2021-07-02T14:09:44Z</time>
      </trkpt>
      <trkpt lat="41.914234" lon="2.132526">
        <ele>759.21088</ele>
        <time>2021-07-02T14:09:45Z</time>
      </trkpt>
      <trkpt lat="41.914234" lon="2.132526">
        <ele>759.21088</ele>
        <time>2021-07-02T14:09:46Z</time>
      </trkpt>
      <trkpt lat="41.914234" lon="2.132526">
        <ele>759.21088</ele>
        <time>2021-07-02T14:09:47Z</time>
      </trkpt>
      <trkpt lat="41.916676" lon="2.135547">
        <ele>759.21088</ele>
        <time>2021-07-02T14:09:48Z</time>
      </trkpt>
      <trkpt lat="41.916676" lon="2.135547">
        <ele>759.21088</ele>
        <time>2021-07-02T14:09:49Z</time>
      </trkpt>
      <trkpt lat="41.916676" lon="2.135547">
        <ele>759.21088</ele>
        <time>2021-07-02T14:09:50Z</time>
      </trkpt>
      <trkpt lat="41.916676" lon="2.135547">
        <ele>759.07086</ele>
        <time>2021-07-02T14:09:51Z</time>
      </trkpt>
      <trkpt lat="41.916676" lon="2.135547">
        <ele>757.99359</ele>
        <time>2021-07-02T14:09:52Z</time>
      </trkpt>
      <trkpt lat="41.917240" lon="2.136468">
        <ele>758.13593</ele>
        <time>2021-07-02T14:09:53Z</time>
      </trkpt>
      <trkpt lat="41.918427" lon="2.137611">
        <ele>754.34882</ele>
        <time>2021-07-02T14:09:54Z</time>
      </trkpt>
      <trkpt lat="41.919323" lon="2.138135">
        <ele>752.83929</ele>
        <time>2021-07-02T14:09:55Z</time>
      </trkpt>
      <trkpt lat="41.919624" lon="2.138289">
        <ele>751.76190</ele>
        <time>2021-07-02T14:09:56Z</time>
      </trkpt>
      <trkpt lat="41.919930" lon="2.138449">
        <ele>750.33478</ele>
        <time>2021-07-02T14:09:57Z</time>
      </trkpt>
      <trkpt lat="41.920246" lon="2.138638">
        <ele>749.63544</ele>
        <time>2021-07-02T14:09:58Z</time>
      </trkpt>
      <trkpt lat="41.920567" lon="2.138866">
        <ele>747.78058</ele>
        <time>2021-07-02T14:09:59Z</time>
      </trkpt>
      <trkpt lat="41.920860" lon="2.139136">
        <ele>744.75751</ele>
        <time>2021-07-02T14:10:00Z</time>
      </trkpt>
      <trkpt lat="41.921116" lon="2.139376">
        <ele>743.00983</ele>
        <time>2021-07-02T14:10:01Z</time>
      </trkpt>
      <trkpt lat="41.921421" lon="2.139682">
        <ele>740.95258</ele>
        <time>2021-07-02T14:10:02Z</time>
      </trkpt>
      <trkpt lat="41.921726" lon="2.139990">
        <ele>739.58636</ele>
        <time>2021-07-02T14:10:03Z</time>
      </trkpt>
      <trkpt lat="41.921726" lon="2.139990">
        <ele>738.01385</ele>
        <time>2021-07-02T14:10:04Z</time>
      </trkpt>
      <trkpt lat="41.922028" lon="2.140286">
        <ele>736.47919</ele>
        <time>2021-07-02T14:10:05Z</time>
      </trkpt>
      <trkpt lat="41.922630" lon="2.140833">
        <ele>735.46210</ele>
        <time>2021-07-02T14:10:06Z</time>
      </trkpt>
      <trkpt lat="41.922630" lon="2.140833">
        <ele>732.50092</ele>
        <time>2021-07-02T14:10:07Z</time>
      </trkpt>
      <trkpt lat="41.922939" lon="2.141056">
        <ele>731.29901</ele>
        <time>2021-07-02T14:10:08Z</time>
      </trkpt>
      <trkpt lat="41.923256" lon="2.141267">
        <ele>730.22845</ele>
        <time>2021-07-02T14:10:09Z</time>
      </trkpt>
      <trkpt lat="41.923618" lon="2.141468">
        <ele>729.34943</ele>
        <time>2021-07-02T14:10:10Z</time>
      </trkpt>
      <trkpt lat="41.923721" lon="2.141560">
        <ele>728.49347</ele>
        <time>2021-07-02T14:10:11Z</time>
      </trkpt>
      <trkpt lat="41.924271" lon="2.141909">
        <ele>727.40399</ele>
        <time>2021-07-02T14:10:12Z</time>
      </trkpt>
      <trkpt lat="41.924694" lon="2.142065">
        <ele>727.28937</ele>
        <time>2021-07-02T14:10:13Z</time>
      </trkpt>
      <trkpt lat="41.925007" lon="2.142269">
        <ele>726.70856</ele>
        <time>2021-07-02T14:10:14Z</time>
      </trkpt>
      <trkpt lat="41.925323" lon="2.142505">
        <ele>726.62836</ele>
        <time>2021-07-02T14:10:15Z</time>
      </trkpt>
      <trkpt lat="41.925663" lon="2.142789">
        <ele>726.57672</ele>
        <time>2021-07-02T14:10:16Z</time>
      </trkpt>
      <trkpt lat="41.925663" lon="2.142789">
        <ele>725.63104</ele>
        <time>2021-07-02T14:10:17Z</time>
      </trkpt>
      <trkpt lat="41.926289" lon="2.143439">
        <ele>724.82172</ele>
        <time>2021-07-02T14:10:18Z</time>
      </trkpt>
      <trkpt lat="41.926533" lon="2.143748">
        <ele>723.69452</ele>
        <time>2021-07-02T14:10:19Z</time>
      </trkpt>
      <trkpt lat="41.926811" lon="2.144104">
        <ele>722.04169</ele>
        <time>2021-07-02T14:10:20Z</time>
      </trkpt>
      <trkpt lat="41.926811" lon="2.144104">
        <ele>720.61432</ele>
        <time>2021-07-02T14:10:21Z</time>
      </trkpt>
      <trkpt lat="41.927338" lon="2.144784">
        <ele>719.42719</ele>
        <time>2021-07-02T14:10:22Z</time>
      </trkpt>
      <trkpt lat="41.927338" lon="2.144784">
        <ele>717.95575</ele>
        <time>2021-07-02T14:10:23Z</time>
      </trkpt>
      <trkpt lat="41.927605" lon="2.145124">
        <ele>716.85272</ele>
        <time>2021-07-02T14:10:24Z</time>
      </trkpt>
      <trkpt lat="41.927872" lon="2.145457">
        <ele>714.55048</ele>
        <time>2021-07-02T14:10:25Z</time>
      </trkpt>
      <trkpt lat="41.928104" lon="2.145762">
        <ele>712.11176</ele>
        <time>2021-07-02T14:10:26Z</time>
      </trkpt>
      <trkpt lat="41.928547" lon="2.146343">
        <ele>710.03168</ele>
        <time>2021-07-02T14:10:27Z</time>
      </trkpt>
      <trkpt lat="41.928593" lon="2.146405">
        <ele>707.92230</ele>
        <time>2021-07-02T14:10:28Z</time>
      </trkpt>
      <trkpt lat="41.928917" lon="2.146832">
        <ele>706.12933</ele>
        <time>2021-07-02T14:10:29Z</time>
      </trkpt>
      <trkpt lat="41.929188" lon="2.147190">
        <ele>703.90594</ele>
        <time>2021-07-02T14:10:30Z</time>
      </trkpt>
      <trkpt lat="41.929443" lon="2.147527">
        <ele>701.71136</ele>
        <time>2021-07-02T14:10:31Z</time>
      </trkpt>
      <trkpt lat="41.929676" lon="2.147834">
        <ele>696.76898</ele>
        <time>2021-07-02T14:10:32Z</time>
      </trkpt>
      <trkpt lat="41.929970" lon="2.148221">
        <ele>694.02948</ele>
        <time>2021-07-02T14:10:33Z</time>
      </trkpt>
      <trkpt lat="41.930210" lon="2.148539">
        <ele>691.90350</ele>
        <time>2021-07-02T14:10:34Z</time>
      </trkpt>
      <trkpt lat="41.930470" lon="2.148884">
        <ele>689.03607</ele>
        <time>2021-07-02T14:10:35Z</time>
      </trkpt>
      <trkpt lat="41.930706" lon="2.149230">
        <ele>686.36627</ele>
        <time>2021-07-02T14:10:36Z</time>
      </trkpt>
      <trkpt lat="41.930946" lon="2.149606">
        <ele>683.85895</ele>
        <time>2021-07-02T14:10:37Z</time>
      </trkpt>
      <trkpt lat="41.931168" lon="2.149977">
        <ele>681.65851</ele>
        <time>2021-07-02T14:10:38Z</time>
      </trkpt>
      <trkpt lat="41.931389" lon="2.150379">
        <ele>679.55023</ele>
        <time>2021-07-02T14:10:39Z</time>
      </trkpt>
      <trkpt lat="41.931599" lon="2.150784">
        <ele>678.09198</ele>
        <time>2021-07-02T14:10:40Z</time>
      </trkpt>
      <trkpt lat="41.931789" lon="2.151205">
        <ele>677.13373</ele>
        <time>2021-07-02T14:10:41Z</time>
      </trkpt>
      <trkpt lat="41.931961" lon="2.151623">
        <ele>674.10199</ele>
        <time>2021-07-02T14:10:42Z</time>
      </trkpt>
      <trkpt lat="41.932114" lon="2.152015">
        <ele>671.43024</ele>
        <time>2021-07-02T14:10:43Z</time>
      </trkpt>
      <trkpt lat="41.932251" lon="2.152408">
        <ele>669.35944</ele>
        <time>2021-07-02T14:10:44Z</time>
      </trkpt>
      <trkpt lat="41.932384" lon="2.152876">
        <ele>666.87518</ele>
        <time>2021-07-02T14:10:45Z</time>
      </trkpt>
      <trkpt lat="41.932503" lon="2.153356">
        <ele>664.70599</ele>
        <time>2021-07-02T14:10:46Z</time>
      </trkpt>
      <trkpt lat="41.932503" lon="2.153356">
        <ele>661.98370</ele>
        <time>2021-07-02T14:10:47Z</time>
      </trkpt>
      <trkpt lat="41.932613" lon="2.153803">
        <ele>659.57074</ele>
        <time>2021-07-02T14:10:48Z</time>
      </trkpt>
      <trkpt lat="41.932686" lon="2.154179">
        <ele>657.25189</ele>
        <time>2021-07-02T14:10:49Z</time>
      </trkpt>
      <trkpt lat="41.932770" lon="2.154698">
        <ele>655.92914</ele>
        <time>2021-07-02T14:10:50Z</time>
      </trkpt>
      <trkpt lat="41.932842" lon="2.155127">
        <ele>654.61688</ele>
        <time>2021-07-02T14:10:51Z</time>
      </trkpt>
      <trkpt lat="41.932907" lon="2.155665">
        <ele>654.05389</ele>
        <time>2021-07-02T14:10:52Z</time>
      </trkpt>
      <trkpt lat="41.932930" lon="2.156122">
        <ele>652.17548</ele>
        <time>2021-07-02T14:10:53Z</time>
      </trkpt>
      <trkpt lat="41.932957" lon="2.156666">
        <ele>650.68353</ele>
        <time>2021-07-02T14:10:54Z</time>
      </trkpt>
      <trkpt lat="41.932968" lon="2.157172">
        <ele>647.05756</ele>
        <time>2021-07-02T14:10:55Z</time>
      </trkpt>
      <trkpt lat="41.932964" lon="2.157581">
        <ele>646.44269</ele>
        <time>2021-07-02T14:10:56Z</time>
      </trkpt>
      <trkpt lat="41.932926" lon="2.158131">
        <ele>645.52875</ele>
        <time>2021-07-02T14:10:57Z</time>
      </trkpt>
      <trkpt lat="41.932899" lon="2.158589">
        <ele>644.99725</ele>
        <time>2021-07-02T14:10:58Z</time>
      </trkpt>
      <trkpt lat="41.932850" lon="2.159054">
        <ele>644.62177</ele>
        <time>2021-07-02T14:10:59Z</time>
      </trkpt>
      <trkpt lat="41.932781" lon="2.159481">
        <ele>644.77338</ele>
        <time>2021-07-02T14:11:00Z</time>
      </trkpt>
      <trkpt lat="41.932705" lon="2.160000">
        <ele>645.07159</ele>
        <time>2021-07-02T14:11:01Z</time>
      </trkpt>
      <trkpt lat="41.932629" lon="2.160498">
        <ele>645.81122</ele>
        <time>2021-07-02T14:11:02Z</time>
      </trkpt>
      <trkpt lat="41.932556" lon="2.160943">
        <ele>646.46307</ele>
        <time>2021-07-02T14:11:03Z</time>
      </trkpt>
      <trkpt lat="41.932495" lon="2.161408">
        <ele>647.54523</ele>
        <time>2021-07-02T14:11:04Z</time>
      </trkpt>
      <trkpt lat="41.932442" lon="2.161932">
        <ele>648.05621</ele>
        <time>2021-07-02T14:11:05Z</time>
      </trkpt>
      <trkpt lat="41.932407" lon="2.162401">
        <ele>648.51093</ele>
        <time>2021-07-02T14:11:06Z</time>
      </trkpt>
      <trkpt lat="41.932396" lon="2.162849">
        <ele>648.55280</ele>
        <time>2021-07-02T14:11:07Z</time>
      </trkpt>
      <trkpt lat="41.932396" lon="2.163329">
        <ele>648.67010</ele>
        <time>2021-07-02T14:11:08Z</time>
      </trkpt>
      <trkpt lat="41.932404" lon="2.163797">
        <ele>648.46942</ele>
        <time>2021-07-02T14:11:09Z</time>
      </trkpt>
      <trkpt lat="41.932434" lon="2.164323">
        <ele>648.15350</ele>
        <time>2021-07-02T14:11:10Z</time>
      </trkpt>
      <trkpt lat="41.932480" lon="2.164803">
        <ele>648.08978</ele>
        <time>2021-07-02T14:11:11Z</time>
      </trkpt>
      <trkpt lat="41.932529" lon="2.165280">
        <ele>647.76593</ele>
        <time>2021-07-02T14:11:12Z</time>
      </trkpt>
      <trkpt lat="41.932610" lon="2.165795">
        <ele>647.30756</ele>
        <time>2021-07-02T14:11:13Z</time>
      </trkpt>
      <trkpt lat="41.932693" lon="2.166225">
        <ele>646.33527</ele>
        <time>2021-07-02T14:11:14Z</time>
      </trkpt>
      <trkpt lat="41.932796" lon="2.166729">
        <ele>645.47247</ele>
        <time>2021-07-02T14:11:15Z</time>
      </trkpt>
      <trkpt lat="41.932796" lon="2.166729">
        <ele>643.86700</ele>
        <time>2021-07-02T14:11:16Z</time>
      </trkpt>
      <trkpt lat="41.932926" lon="2.167220">
        <ele>642.31024</ele>
        <time>2021-07-02T14:11:17Z</time>
      </trkpt>
      <trkpt lat="41.933048" lon="2.167645">
        <ele>640.95221</ele>
        <time>2021-07-02T14:11:18Z</time>
      </trkpt>
      <trkpt lat="41.933205" lon="2.168101">
        <ele>639.35309</ele>
        <time>2021-07-02T14:11:19Z</time>
      </trkpt>
      <trkpt lat="41.933357" lon="2.168535">
        <ele>637.33759</ele>
        <time>2021-07-02T14:11:20Z</time>
      </trkpt>
      <trkpt lat="41.933533" lon="2.168971">
        <ele>635.76605</ele>
        <time>2021-07-02T14:11:21Z</time>
      </trkpt>
      <trkpt lat="41.933704" lon="2.169371">
        <ele>633.98676</ele>
        <time>2021-07-02T14:11:22Z</time>
      </trkpt>
      <trkpt lat="41.933891" lon="2.169782">
        <ele>632.91718</ele>
        <time>2021-07-02T14:11:23Z</time>
      </trkpt>
      <trkpt lat="41.934074" lon="2.170182">
        <ele>630.90338</ele>
        <time>2021-07-02T14:11:24Z</time>
      </trkpt>
      <trkpt lat="41.934273" lon="2.170616">
        <ele>629.85883</ele>
        <time>2021-07-02T14:11:25Z</time>
      </trkpt>
      <trkpt lat="41.934437" lon="2.170978">
        <ele>628.46234</ele>
        <time>2021-07-02T14:11:26Z</time>
      </trkpt>
      <trkpt lat="41.934669" lon="2.171478">
        <ele>627.44977</ele>
        <time>2021-07-02T14:11:27Z</time>
      </trkpt>
      <trkpt lat="41.934856" lon="2.171891">
        <ele>625.85126</ele>
        <time>2021-07-02T14:11:28Z</time>
      </trkpt>
      <trkpt lat="41.935036" lon="2.172276">
        <ele>624.29193</ele>
        <time>2021-07-02T14:11:29Z</time>
      </trkpt>
      <trkpt lat="41.935226" lon="2.172696">
        <ele>623.08636</ele>
        <time>2021-07-02T14:11:30Z</time>
      </trkpt>
      <trkpt lat="41.935417" lon="2.173114">
        <ele>621.30511</ele>
        <time>2021-07-02T14:11:31Z</time>
      </trkpt>
      <trkpt lat="41.935623" lon="2.173571">
        <ele>620.28192</ele>
        <time>2021-07-02T14:11:32Z</time>
      </trkpt>
      <trkpt lat="41.935829" lon="2.174035">
        <ele>618.30878</ele>
        <time>2021-07-02T14:11:33Z</time>
      </trkpt>
      <trkpt lat="41.936008" lon="2.174464">
        <ele>616.78461</ele>
        <time>2021-07-02T14:11:34Z</time>
      </trkpt>
      <trkpt lat="41.936165" lon="2.174889">
        <ele>614.26361</ele>
        <time>2021-07-02T14:11:35Z</time>
      </trkpt>
      <trkpt lat="41.936295" lon="2.175304">
        <ele>612.98798</ele>
        <time>2021-07-02T14:11:36Z</time>
      </trkpt>
      <trkpt lat="41.936424" lon="2.175767">
        <ele>610.87445</ele>
        <time>2021-07-02T14:11:37Z</time>
      </trkpt>
      <trkpt lat="41.936527" lon="2.176199">
        <ele>609.30621</ele>
        <time>2021-07-02T14:11:38Z</time>
      </trkpt>
      <trkpt lat="41.936611" lon="2.176691">
        <ele>607.23077</ele>
        <time>2021-07-02T14:11:39Z</time>
      </trkpt>
      <trkpt lat="41.936672" lon="2.177125">
        <ele>606.04596</ele>
        <time>2021-07-02T14:11:40Z</time>
      </trkpt>
      <trkpt lat="41.936710" lon="2.177593">
        <ele>604.19574</ele>
        <time>2021-07-02T14:11:41Z</time>
      </trkpt>
      <trkpt lat="41.936745" lon="2.178120">
        <ele>603.25555</ele>
        <time>2021-07-02T14:11:42Z</time>
      </trkpt>
      <trkpt lat="41.936745" lon="2.178603">
        <ele>601.84491</ele>
        <time>2021-07-02T14:11:43Z</time>
      </trkpt>
      <trkpt lat="41.936745" lon="2.178603">
        <ele>600.36664</ele>
        <time>2021-07-02T14:11:44Z</time>
      </trkpt>
      <trkpt lat="41.936726" lon="2.179089">
        <ele>599.24554</ele>
        <time>2021-07-02T14:11:45Z</time>
      </trkpt>
      <trkpt lat="41.936687" lon="2.179475">
        <ele>596.48798</ele>
        <time>2021-07-02T14:11:46Z</time>
      </trkpt>
      <trkpt lat="41.936638" lon="2.180018">
        <ele>594.72235</ele>
        <time>2021-07-02T14:11:47Z</time>
      </trkpt>
      <trkpt lat="41.936573" lon="2.180491">
        <ele>592.30170</ele>
        <time>2021-07-02T14:11:48Z</time>
      </trkpt>
      <trkpt lat="41.936485" lon="2.181000">
        <ele>591.12946</ele>
        <time>2021-07-02T14:11:49Z</time>
      </trkpt>
      <trkpt lat="41.936405" lon="2.181432">
        <ele>589.99359</ele>
        <time>2021-07-02T14:11:50Z</time>
      </trkpt>
      <trkpt lat="41.936279" lon="2.182003">
        <ele>587.96906</ele>
        <time>2021-07-02T14:11:51Z</time>
      </trkpt>
      <trkpt lat="41.936157" lon="2.182494">
        <ele>586.42084</ele>
        <time>2021-07-02T14:11:52Z</time>
      </trkpt>
      <trkpt lat="41.936043" lon="2.182933">
        <ele>585.26703</ele>
        <time>2021-07-02T14:11:53Z</time>
      </trkpt>
      <trkpt lat="41.935898" lon="2.183380">
        <ele>582.85089</ele>
        <time>2021-07-02T14:11:54Z</time>
      </trkpt>
      <trkpt lat="41.935749" lon="2.183819">
        <ele>581.21625</ele>
        <time>2021-07-02T14:11:55Z</time>
      </trkpt>
      <trkpt lat="41.935593" lon="2.184248">
        <ele>579.87250</ele>
        <time>2021-07-02T14:11:56Z</time>
      </trkpt>
      <trkpt lat="41.935417" lon="2.184707">
        <ele>578.01202</ele>
        <time>2021-07-02T14:11:57Z</time>
      </trkpt>
      <trkpt lat="41.935234" lon="2.185162">
        <ele>576.04816</ele>
        <time>2021-07-02T14:11:58Z</time>
      </trkpt>
      <trkpt lat="41.935066" lon="2.185578">
        <ele>574.70465</ele>
        <time>2021-07-02T14:11:59Z</time>
      </trkpt>
      <trkpt lat="41.934895" lon="2.185989">
        <ele>573.73041</ele>
        <time>2021-07-02T14:12:00Z</time>
      </trkpt>
      <trkpt lat="41.934734" lon="2.186386">
        <ele>572.36346</ele>
        <time>2021-07-02T14:12:01Z</time>
      </trkpt>
      <trkpt lat="41.934563" lon="2.186853">
        <ele>571.10797</ele>
        <time>2021-07-02T14:12:02Z</time>
      </trkpt>
      <trkpt lat="41.934418" lon="2.187292">
        <ele>569.75043</ele>
        <time>2021-07-02T14:12:03Z</time>
      </trkpt>
      <trkpt lat="41.934277" lon="2.187745">
        <ele>568.72650</ele>
        <time>2021-07-02T14:12:04Z</time>
      </trkpt>
      <trkpt lat="41.934162" lon="2.188165">
        <ele>568.00653</ele>
        <time>2021-07-02T14:12:05Z</time>
      </trkpt>
      <trkpt lat="41.934162" lon="2.188165">
        <ele>567.39301</ele>
        <time>2021-07-02T14:12:06Z</time>
      </trkpt>
      <trkpt lat="41.934040" lon="2.188672">
        <ele>566.57684</ele>
        <time>2021-07-02T14:12:07Z</time>
      </trkpt>
      <trkpt lat="41.933945" lon="2.189171">
        <ele>565.73431</ele>
        <time>2021-07-02T14:12:08Z</time>
      </trkpt>
      <trkpt lat="41.933868" lon="2.189627">
        <ele>564.90302</ele>
        <time>2021-07-02T14:12:09Z</time>
      </trkpt>
      <trkpt lat="41.933800" lon="2.190069">
        <ele>564.25922</ele>
        <time>2021-07-02T14:12:10Z</time>
      </trkpt>
      <trkpt lat="41.933754" lon="2.190524">
        <ele>563.62103</ele>
        <time>2021-07-02T14:12:11Z</time>
      </trkpt>
      <trkpt lat="41.933704" lon="2.191039">
        <ele>563.24701</ele>
        <time>2021-07-02T14:12:12Z</time>
      </trkpt>
      <trkpt lat="41.933693" lon="2.191505">
        <ele>562.73358</ele>
        <time>2021-07-02T14:12:13Z</time>
      </trkpt>
      <trkpt lat="41.933678" lon="2.192053">
        <ele>560.83075</ele>
        <time>2021-07-02T14:12:14Z</time>
      </trkpt>
      <trkpt lat="41.933681" lon="2.192486">
        <ele>560.06879</ele>
        <time>2021-07-02T14:12:15Z</time>
      </trkpt>
      <trkpt lat="41.933689" lon="2.193029">
        <ele>559.38824</ele>
        <time>2021-07-02T14:12:16Z</time>
      </trkpt>
      <trkpt lat="41.933697" lon="2.193482">
        <ele>559.05145</ele>
        <time>2021-07-02T14:12:17Z</time>
      </trkpt>
      <trkpt lat="41.933708" lon="2.194004">
        <ele>559.16241</ele>
        <time>2021-07-02T14:12:18Z</time>
      </trkpt>
      <trkpt lat="41.933720" lon="2.194442">
        <ele>559.15704</ele>
        <time>2021-07-02T14:12:19Z</time>
      </trkpt>
      <trkpt lat="41.933731" lon="2.194954">
        <ele>559.21747</ele>
        <time>2021-07-02T14:12:20Z</time>
      </trkpt>
      <trkpt lat="41.933743" lon="2.195465">
        <ele>559.13910</ele>
        <time>2021-07-02T14:12:21Z</time>
      </trkpt>
      <trkpt lat="41.933754" lon="2.195945">
        <ele>558.70013</ele>
        <time>2021-07-02T14:12:22Z</time>
      </trkpt>
      <trkpt lat="41.933762" lon="2.196407">
        <ele>558.31635</ele>
        <time>2021-07-02T14:12:23Z</time>
      </trkpt>
      <trkpt lat="41.933769" lon="2.196850">
        <ele>558.33649</ele>
        <time>2021-07-02T14:12:24Z</time>
      </trkpt>
      <trkpt lat="41.933777" lon="2.197349">
        <ele>558.15448</ele>
        <time>2021-07-02T14:12:25Z</time>
      </trkpt>
      <trkpt lat="41.933773" lon="2.197832">
        <ele>557.82440</ele>
        <time>2021-07-02T14:12:26Z</time>
      </trkpt>
      <trkpt lat="41.933762" lon="2.198234">
        <ele>556.18524</ele>
        <time>2021-07-02T14:12:27Z</time>
      </trkpt>
      <trkpt lat="41.933746" lon="2.198593">
        <ele>556.04266</ele>
        <time>2021-07-02T14:12:28Z</time>
      </trkpt>
      <trkpt lat="41.933727" lon="2.198889">
        <ele>555.66449</ele>
        <time>2021-07-02T14:12:29Z</time>
      </trkpt>
      <trkpt lat="41.933670" lon="2.199377">
        <ele>555.08197</ele>
        <time>2021-07-02T14:12:30Z</time>
      </trkpt>
      <trkpt lat="41.933598" lon="2.199891">
        <ele>554.56610</ele>
        <time>2021-07-02T14:12:31Z</time>
      </trkpt>
      <trkpt lat="41.933517" lon="2.200356">
        <ele>555.41425</ele>
        <time>2021-07-02T14:12:32Z</time>
      </trkpt>
      <trkpt lat="41.933517" lon="2.200356">
        <ele>555.27582</ele>
        <time>2021-07-02T14:12:33Z</time>
      </trkpt>
      <trkpt lat="41.933418" lon="2.200824">
        <ele>555.06854</ele>
        <time>2021-07-02T14:12:34Z</time>
      </trkpt>
      <trkpt lat="41.933311" lon="2.201281">
        <ele>554.41327</ele>
        <time>2021-07-02T14:12:35Z</time>
      </trkpt>
      <trkpt lat="41.933197" lon="2.201762">
        <ele>554.55524</ele>
        <time>2021-07-02T14:12:36Z</time>
      </trkpt>
      <trkpt lat="41.933094" lon="2.202202">
        <ele>554.16827</ele>
        <time>2021-07-02T14:12:37Z</time>
      </trkpt>
      <trkpt lat="41.932983" lon="2.202664">
        <ele>553.69928</ele>
        <time>2021-07-02T14:12:38Z</time>
      </trkpt>
      <trkpt lat="41.932880" lon="2.203150">
        <ele>552.94977</ele>
        <time>2021-07-02T14:12:39Z</time>
      </trkpt>
      <trkpt lat="41.932785" lon="2.203627">
        <ele>552.44208</ele>
        <time>2021-07-02T14:12:40Z</time>
      </trkpt>
      <trkpt lat="41.932713" lon="2.204074">
        <ele>551.92755</ele>
        <time>2021-07-02T14:12:41Z</time>
      </trkpt>
      <trkpt lat="41.932655" lon="2.204474">
        <ele>551.41730</ele>
        <time>2021-07-02T14:12:42Z</time>
      </trkpt>
      <trkpt lat="41.932587" lon="2.205028">
        <ele>550.98346</ele>
        <time>2021-07-02T14:12:43Z</time>
      </trkpt>
      <trkpt lat="41.932545" lon="2.205516">
        <ele>550.97565</ele>
        <time>2021-07-02T14:12:44Z</time>
      </trkpt>
      <trkpt lat="41.932514" lon="2.206020">
        <ele>550.29498</ele>
        <time>2021-07-02T14:12:45Z</time>
      </trkpt>
      <trkpt lat="41.932499" lon="2.206512">
        <ele>549.72614</ele>
        <time>2021-07-02T14:12:46Z</time>
      </trkpt>
      <trkpt lat="41.932487" lon="2.206995">
        <ele>549.22540</ele>
        <time>2021-07-02T14:12:47Z</time>
      </trkpt>
      <trkpt lat="41.932491" lon="2.207471">
        <ele>548.98651</ele>
        <time>2021-07-02T14:12:48Z</time>
      </trkpt>
      <trkpt lat="41.932510" lon="2.207941">
        <ele>548.92755</ele>
        <time>2021-07-02T14:12:49Z</time>
      </trkpt>
      <trkpt lat="41.932533" lon="2.208418">
        <ele>548.36176</ele>
        <time>2021-07-02T14:12:50Z</time>
      </trkpt>
      <trkpt lat="41.932583" lon="2.208897">
        <ele>548.57318</ele>
        <time>2021-07-02T14:12:51Z</time>
      </trkpt>
      <trkpt lat="41.932636" lon="2.209384">
        <ele>548.47125</ele>
        <time>2021-07-02T14:12:52Z</time>
      </trkpt>
      <trkpt lat="41.932697" lon="2.209858">
        <ele>548.82550</ele>
        <time>2021-07-02T14:12:53Z</time>
      </trkpt>
      <trkpt lat="41.932755" lon="2.210372">
        <ele>549.11896</ele>
        <time>2021-07-02T14:12:54Z</time>
      </trkpt>
      <trkpt lat="41.932762" lon="2.210463">
        <ele>549.81891</ele>
        <time>2021-07-02T14:12:55Z</time>
      </trkpt>
      <trkpt lat="41.932877" lon="2.211379">
        <ele>550.82306</ele>
        <time>2021-07-02T14:12:56Z</time>
      </trkpt>
      <trkpt lat="41.932877" lon="2.211379">
        <ele>552.35236</ele>
        <time>2021-07-02T14:12:57Z</time>
      </trkpt>
      <trkpt lat="41.933075" lon="2.211926">
        <ele>553.66510</ele>
        <time>2021-07-02T14:12:58Z</time>
      </trkpt>
      <trkpt lat="41.933197" lon="2.212417">
        <ele>555.55084</ele>
        <time>2021-07-02T14:12:59Z</time>
      </trkpt>
      <trkpt lat="41.933308" lon="2.212870">
        <ele>556.77423</ele>
        <time>2021-07-02T14:13:00Z</time>
      </trkpt>
      <trkpt lat="41.933426" lon="2.213336">
        <ele>557.90387</ele>
        <time>2021-07-02T14:13:01Z</time>
      </trkpt>
      <trkpt lat="41.933578" lon="2.213819">
        <ele>559.63824</ele>
        <time>2021-07-02T14:13:02Z</time>
      </trkpt>
      <trkpt lat="41.933704" lon="2.214228">
        <ele>560.48541</ele>
        <time>2021-07-02T14:13:03Z</time>
      </trkpt>
      <trkpt lat="41.933800" lon="2.214540">
        <ele>561.97467</ele>
        <time>2021-07-02T14:13:04Z</time>
      </trkpt>
      <trkpt lat="41.933975" lon="2.215093">
        <ele>562.78595</ele>
        <time>2021-07-02T14:13:05Z</time>
      </trkpt>
      <trkpt lat="41.934162" lon="2.215584">
        <ele>563.35187</ele>
        <time>2021-07-02T14:13:06Z</time>
      </trkpt>
      <trkpt lat="41.934338" lon="2.216050">
        <ele>563.99786</ele>
        <time>2021-07-02T14:13:07Z</time>
      </trkpt>
      <trkpt lat="41.934528" lon="2.216506">
        <ele>564.45660</ele>
        <time>2021-07-02T14:13:08Z</time>
      </trkpt>
      <trkpt lat="41.934692" lon="2.216899">
        <ele>564.52875</ele>
        <time>2021-07-02T14:13:09Z</time>
      </trkpt>
      <trkpt lat="41.934868" lon="2.217296">
        <ele>564.51324</ele>
        <time>2021-07-02T14:13:10Z</time>
      </trkpt>
      <trkpt lat="41.935066" lon="2.217731">
        <ele>564.66779</ele>
        <time>2021-07-02T14:13:11Z</time>
      </trkpt>
      <trkpt lat="41.935249" lon="2.218115">
        <ele>564.80524</ele>
        <time>2021-07-02T14:13:12Z</time>
      </trkpt>
      <trkpt lat="41.935452" lon="2.218514">
        <ele>564.01141</ele>
        <time>2021-07-02T14:13:13Z</time>
      </trkpt>
      <trkpt lat="41.935677" lon="2.218956">
        <ele>563.86578</ele>
        <time>2021-07-02T14:13:14Z</time>
      </trkpt>
      <trkpt lat="41.935879" lon="2.219343">
        <ele>562.91803</ele>
        <time>2021-07-02T14:13:15Z</time>
      </trkpt>
      <trkpt lat="41.936108" lon="2.219789">
        <ele>561.78278</ele>
        <time>2021-07-02T14:13:16Z</time>
      </trkpt>
      <trkpt lat="41.936108" lon="2.219789">
        <ele>560.38519</ele>
        <time>2021-07-02T14:13:17Z</time>
      </trkpt>
      <trkpt lat="41.936317" lon="2.220194">
        <ele>558.97491</ele>
        <time>2021-07-02T14:13:18Z</time>
      </trkpt>
      <trkpt lat="41.936520" lon="2.220580">
        <ele>557.86017</ele>
        <time>2021-07-02T14:13:19Z</time>
      </trkpt>
      <trkpt lat="41.936737" lon="2.220989">
        <ele>555.99469</ele>
        <time>2021-07-02T14:13:20Z</time>
      </trkpt>
      <trkpt lat="41.936935" lon="2.221372">
        <ele>554.52570</ele>
        <time>2021-07-02T14:13:21Z</time>
      </trkpt>
      <trkpt lat="41.937126" lon="2.221735">
        <ele>553.25079</ele>
        <time>2021-07-02T14:13:22Z</time>
      </trkpt>
      <trkpt lat="41.937332" lon="2.222123">
        <ele>551.38727</ele>
        <time>2021-07-02T14:13:23Z</time>
      </trkpt>
      <trkpt lat="41.937561" lon="2.222560">
        <ele>549.59894</ele>
        <time>2021-07-02T14:13:24Z</time>
      </trkpt>
      <trkpt lat="41.937782" lon="2.222987">
        <ele>548.43658</ele>
        <time>2021-07-02T14:13:25Z</time>
      </trkpt>
      <trkpt lat="41.937981" lon="2.223361">
        <ele>546.59296</ele>
        <time>2021-07-02T14:13:26Z</time>
      </trkpt>
      <trkpt lat="41.938206" lon="2.223805">
        <ele>544.88824</ele>
        <time>2021-07-02T14:13:27Z</time>
      </trkpt>
      <trkpt lat="41.938393" lon="2.224201">
        <ele>542.98102</ele>
        <time>2021-07-02T14:13:28Z</time>
      </trkpt>
      <trkpt lat="41.938572" lon="2.224617">
        <ele>541.10822</ele>
        <time>2021-07-02T14:13:29Z</time>
      </trkpt>
      <trkpt lat="41.938740" lon="2.225052">
        <ele>539.74176</ele>
        <time>2021-07-02T14:13:30Z</time>
      </trkpt>
      <trkpt lat="41.938869" lon="2.225451">
        <ele>537.56671</ele>
        <time>2021-07-02T14:13:31Z</time>
      </trkpt>
      <trkpt lat="41.938980" lon="2.225901">
        <ele>536.04376</ele>
        <time>2021-07-02T14:13:32Z</time>
      </trkpt>
      <trkpt lat="41.939083" lon="2.226377">
        <ele>535.13043</ele>
        <time>2021-07-02T14:13:33Z</time>
      </trkpt>
      <trkpt lat="41.939156" lon="2.226829">
        <ele>533.27191</ele>
        <time>2021-07-02T14:13:34Z</time>
      </trkpt>
      <trkpt lat="41.939209" lon="2.227326">
        <ele>529.37494</ele>
        <time>2021-07-02T14:13:35Z</time>
      </trkpt>
      <trkpt lat="41.939243" lon="2.227883">
        <ele>527.14655</ele>
        <time>2021-07-02T14:13:36Z</time>
      </trkpt>
      <trkpt lat="41.939259" lon="2.228385">
        <ele>525.14581</ele>
        <time>2021-07-02T14:13:37Z</time>
      </trkpt>
      <trkpt lat="41.939270" lon="2.228832">
        <ele>524.03961</ele>
        <time>2021-07-02T14:13:38Z</time>
      </trkpt>
      <trkpt lat="41.939297" lon="2.229266">
        <ele>522.03888</ele>
        <time>2021-07-02T14:13:39Z</time>
      </trkpt>
      <trkpt lat="41.939365" lon="2.229707">
        <ele>520.11224</ele>
        <time>2021-07-02T14:13:40Z</time>
      </trkpt>
      <trkpt lat="41.939487" lon="2.230139">
        <ele>518.39337</ele>
        <time>2021-07-02T14:13:41Z</time>
      </trkpt>
      <trkpt lat="41.939671" lon="2.230561">
        <ele>516.72028</ele>
        <time>2021-07-02T14:13:42Z</time>
      </trkpt>
      <trkpt lat="41.939850" lon="2.230873">
        <ele>515.13898</ele>
        <time>2021-07-02T14:13:43Z</time>
      </trkpt>
      <trkpt lat="41.940044" lon="2.231119">
        <ele>514.07990</ele>
        <time>2021-07-02T14:13:44Z</time>
      </trkpt>
      <trkpt lat="41.940285" lon="2.231370">
        <ele>513.25055</ele>
        <time>2021-07-02T14:13:45Z</time>
      </trkpt>
      <trkpt lat="41.940285" lon="2.231370">
        <ele>512.36041</ele>
        <time>2021-07-02T14:13:46Z</time>
      </trkpt>
      <trkpt lat="41.940872" lon="2.231752">
        <ele>511.41025</ele>
        <time>2021-07-02T14:13:47Z</time>
      </trkpt>
      <trkpt lat="41.941113" lon="2.231824">
        <ele>510.41440</ele>
        <time>2021-07-02T14:13:48Z</time>
      </trkpt>
      <trkpt lat="41.941113" lon="2.231824">
        <ele>509.35361</ele>
        <time>2021-07-02T14:13:49Z</time>
      </trkpt>
      <trkpt lat="41.941681" lon="2.231872">
        <ele>508.82504</ele>
        <time>2021-07-02T14:13:50Z</time>
      </trkpt>
      <trkpt lat="41.941681" lon="2.231872">
        <ele>509.15707</ele>
        <time>2021-07-02T14:13:51Z</time>
      </trkpt>
      <trkpt lat="41.941967" lon="2.231823">
        <ele>508.24643</ele>
        <time>2021-07-02T14:13:52Z</time>
      </trkpt>
      <trkpt lat="41.942089" lon="2.231823">
        <ele>507.13486</ele>
        <time>2021-07-02T14:13:53Z</time>
      </trkpt>
      <trkpt lat="41.942623" lon="2.231716">
        <ele>506.67831</ele>
        <time>2021-07-02T14:13:54Z</time>
      </trkpt>
      <trkpt lat="41.942944" lon="2.231630">
        <ele>506.43100</ele>
        <time>2021-07-02T14:13:55Z</time>
      </trkpt>
      <trkpt lat="41.943249" lon="2.231544">
        <ele>506.27817</ele>
        <time>2021-07-02T14:13:56Z</time>
      </trkpt>
      <trkpt lat="41.943562" lon="2.231462">
        <ele>506.37094</ele>
        <time>2021-07-02T14:13:57Z</time>
      </trkpt>
      <trkpt lat="41.943863" lon="2.231412">
        <ele>507.05551</ele>
        <time>2021-07-02T14:13:58Z</time>
      </trkpt>
      <trkpt lat="41.944172" lon="2.231379">
        <ele>507.19589</ele>
        <time>2021-07-02T14:13:59Z</time>
      </trkpt>
      <trkpt lat="41.944481" lon="2.231358">
        <ele>507.94650</ele>
        <time>2021-07-02T14:14:00Z</time>
      </trkpt>
      <trkpt lat="41.944817" lon="2.231364">
        <ele>507.89560</ele>
        <time>2021-07-02T14:14:01Z</time>
      </trkpt>
      <trkpt lat="41.945194" lon="2.231404">
        <ele>507.98935</ele>
        <time>2021-07-02T14:14:02Z</time>
      </trkpt>
      <trkpt lat="41.945526" lon="2.231460">
        <ele>507.51620</ele>
        <time>2021-07-02T14:14:03Z</time>
      </trkpt>
      <trkpt lat="41.945824" lon="2.231543">
        <ele>507.28964</ele>
        <time>2021-07-02T14:14:04Z</time>
      </trkpt>
      <trkpt lat="41.946171" lon="2.231659">
        <ele>506.86105</ele>
        <time>2021-07-02T14:14:05Z</time>
      </trkpt>
      <trkpt lat="41.946484" lon="2.231770">
        <ele>507.43124</ele>
        <time>2021-07-02T14:14:06Z</time>
      </trkpt>
      <trkpt lat="41.946766" lon="2.231888">
        <ele>507.75180</ele>
        <time>2021-07-02T14:14:07Z</time>
      </trkpt>
      <trkpt lat="41.947041" lon="2.232013">
        <ele>508.34360</ele>
        <time>2021-07-02T14:14:08Z</time>
      </trkpt>
      <trkpt lat="41.947361" lon="2.232184">
        <ele>508.04062</ele>
        <time>2021-07-02T14:14:09Z</time>
      </trkpt>
      <trkpt lat="41.947361" lon="2.232184">
        <ele>508.01743</ele>
        <time>2021-07-02T14:14:10Z</time>
      </trkpt>
      <trkpt lat="41.947613" lon="2.232335">
        <ele>508.30783</ele>
        <time>2021-07-02T14:14:11Z</time>
      </trkpt>
      <trkpt lat="41.947918" lon="2.232537">
        <ele>508.36484</ele>
        <time>2021-07-02T14:14:12Z</time>
      </trkpt>
      <trkpt lat="41.948204" lon="2.232745">
        <ele>508.78207</ele>
        <time>2021-07-02T14:14:13Z</time>
      </trkpt>
      <trkpt lat="41.948437" lon="2.232920">
        <ele>509.13681</ele>
        <time>2021-07-02T14:14:14Z</time>
      </trkpt>
      <trkpt lat="41.948730" lon="2.233155">
        <ele>509.44614</ele>
        <time>2021-07-02T14:14:15Z</time>
      </trkpt>
      <trkpt lat="41.949005" lon="2.233397">
        <ele>509.42490</ele>
        <time>2021-07-02T14:14:16Z</time>
      </trkpt>
      <trkpt lat="41.949249" lon="2.233623">
        <ele>508.68100</ele>
        <time>2021-07-02T14:14:17Z</time>
      </trkpt>
      <trkpt lat="41.949482" lon="2.233841">
        <ele>508.19492</ele>
        <time>2021-07-02T14:14:18Z</time>
      </trkpt>
      <trkpt lat="41.949730" lon="2.234073">
        <ele>507.93149</ele>
        <time>2021-07-02T14:14:19Z</time>
      </trkpt>
      <trkpt lat="41.949963" lon="2.234315">
        <ele>507.37912</ele>
        <time>2021-07-02T14:14:20Z</time>
      </trkpt>
      <trkpt lat="41.950180" lon="2.234549">
        <ele>506.85141</ele>
        <time>2021-07-02T14:14:21Z</time>
      </trkpt>
      <trkpt lat="41.950420" lon="2.234825">
        <ele>506.65439</ele>
        <time>2021-07-02T14:14:22Z</time>
      </trkpt>
      <trkpt lat="41.950645" lon="2.235178">
        <ele>506.27451</ele>
        <time>2021-07-02T14:14:23Z</time>
      </trkpt>
      <trkpt lat="41.950958" lon="2.235280">
        <ele>506.04306</ele>
        <time>2021-07-02T14:14:24Z</time>
      </trkpt>
      <trkpt lat="41.951172" lon="2.235584">
        <ele>506.06870</ele>
        <time>2021-07-02T14:14:25Z</time>
      </trkpt>
      <trkpt lat="41.951393" lon="2.235914">
        <ele>505.89047</ele>
        <time>2021-07-02T14:14:26Z</time>
      </trkpt>
      <trkpt lat="41.951645" lon="2.236311">
        <ele>505.82260</ele>
        <time>2021-07-02T14:14:27Z</time>
      </trkpt>
      <trkpt lat="41.951645" lon="2.236311">
        <ele>505.60580</ele>
        <time>2021-07-02T14:14:28Z</time>
      </trkpt>
      <trkpt lat="41.952080" lon="2.237044">
        <ele>505.27231</ele>
        <time>2021-07-02T14:14:29Z</time>
      </trkpt>
      <trkpt lat="41.952305" lon="2.237449">
        <ele>505.22275</ele>
        <time>2021-07-02T14:14:30Z</time>
      </trkpt>
      <trkpt lat="41.952518" lon="2.237839">
        <ele>504.70224</ele>
        <time>2021-07-02T14:14:31Z</time>
      </trkpt>
      <trkpt lat="41.952518" lon="2.237839">
        <ele>504.12863</ele>
        <time>2021-07-02T14:14:32Z</time>
      </trkpt>
      <trkpt lat="41.952892" lon="2.238512">
        <ele>503.50327</ele>
        <time>2021-07-02T14:14:33Z</time>
      </trkpt>
      <trkpt lat="41.953094" lon="2.238879">
        <ele>503.44614</ele>
        <time>2021-07-02T14:14:34Z</time>
      </trkpt>
      <trkpt lat="41.953094" lon="2.238879">
        <ele>503.06528</ele>
        <time>2021-07-02T14:14:35Z</time>
      </trkpt>
      <trkpt lat="41.953255" lon="2.239162">
        <ele>503.34018</ele>
        <time>2021-07-02T14:14:36Z</time>
      </trkpt>
      <trkpt lat="41.953445" lon="2.239507">
        <ele>503.45798</ele>
        <time>2021-07-02T14:14:37Z</time>
      </trkpt>
      <trkpt lat="41.953651" lon="2.239880">
        <ele>503.09262</ele>
        <time>2021-07-02T14:14:38Z</time>
      </trkpt>
      <trkpt lat="41.953846" lon="2.240230">
        <ele>502.66611</ele>
        <time>2021-07-02T14:14:39Z</time>
      </trkpt>
      <trkpt lat="41.954006" lon="2.240516">
        <ele>502.65756</ele>
        <time>2021-07-02T14:14:40Z</time>
      </trkpt>
      <trkpt lat="41.954193" lon="2.240859">
        <ele>502.39951</ele>
        <time>2021-07-02T14:14:41Z</time>
      </trkpt>
      <trkpt lat="41.954376" lon="2.241182">
        <ele>501.86508</ele>
        <time>2021-07-02T14:14:42Z</time>
      </trkpt>
      <trkpt lat="41.954556" lon="2.241502">
        <ele>501.12241</ele>
        <time>2021-07-02T14:14:43Z</time>
      </trkpt>
      <trkpt lat="41.954723" lon="2.241804">
        <ele>501.02744</ele>
        <time>2021-07-02T14:14:44Z</time>
      </trkpt>
      <trkpt lat="41.954906" lon="2.242127">
        <ele>500.48764</ele>
        <time>2021-07-02T14:14:45Z</time>
      </trkpt>
      <trkpt lat="41.955078" lon="2.242424">
        <ele>500.58090</ele>
        <time>2021-07-02T14:14:46Z</time>
      </trkpt>
      <trkpt lat="41.955280" lon="2.242767">
        <ele>500.54306</ele>
        <time>2021-07-02T14:14:47Z</time>
      </trkpt>
      <trkpt lat="41.955425" lon="2.243020">
        <ele>500.17661</ele>
        <time>2021-07-02T14:14:48Z</time>
      </trkpt>
      <trkpt lat="41.955528" lon="2.243304">
        <ele>499.84872</ele>
        <time>2021-07-02T14:14:49Z</time>
      </trkpt>
      <trkpt lat="41.955807" lon="2.243847">
        <ele>499.75131</ele>
        <time>2021-07-02T14:14:50Z</time>
      </trkpt>
      <trkpt lat="41.956005" lon="2.244181">
        <ele>499.66977</ele>
        <time>2021-07-02T14:14:51Z</time>
      </trkpt>
      <trkpt lat="41.956215" lon="2.244528">
        <ele>499.04001</ele>
        <time>2021-07-02T14:14:52Z</time>
      </trkpt>
      <trkpt lat="41.956413" lon="2.244853">
        <ele>498.47470</ele>
        <time>2021-07-02T14:14:53Z</time>
      </trkpt>
      <trkpt lat="41.956631" lon="2.245205">
        <ele>498.09970</ele>
        <time>2021-07-02T14:14:54Z</time>
      </trkpt>
      <trkpt lat="41.956844" lon="2.245555">
        <ele>497.64926</ele>
        <time>2021-07-02T14:14:55Z</time>
      </trkpt>
      <trkpt lat="41.957050" lon="2.245893">
        <ele>497.41513</ele>
        <time>2021-07-02T14:14:56Z</time>
      </trkpt>
      <trkpt lat="41.957256" lon="2.246233">
        <ele>497.57455</ele>
        <time>2021-07-02T14:14:57Z</time>
      </trkpt>
      <trkpt lat="41.957474" lon="2.246621">
        <ele>497.59653</ele>
        <time>2021-07-02T14:14:58Z</time>
      </trkpt>
      <trkpt lat="41.957657" lon="2.247000">
        <ele>497.28281</ele>
        <time>2021-07-02T14:14:59Z</time>
      </trkpt>
      <trkpt lat="41.957657" lon="2.247000">
        <ele>496.72250</ele>
        <time>2021-07-02T14:15:00Z</time>
      </trkpt>
      <trkpt lat="41.957829" lon="2.247423">
        <ele>496.04208</ele>
        <time>2021-07-02T14:15:01Z</time>
      </trkpt>
      <trkpt lat="41.958103" lon="2.248294">
        <ele>495.72311</ele>
        <time>2021-07-02T14:15:02Z</time>
      </trkpt>
      <trkpt lat="41.958103" lon="2.248294">
        <ele>495.16794</ele>
        <time>2021-07-02T14:15:03Z</time>
      </trkpt>
      <trkpt lat="41.958229" lon="2.248758">
        <ele>494.77573</ele>
        <time>2021-07-02T14:15:04Z</time>
      </trkpt>
      <trkpt lat="41.958340" lon="2.249196">
        <ele>494.62119</ele>
        <time>2021-07-02T14:15:05Z</time>
      </trkpt>
      <trkpt lat="41.958458" lon="2.249695">
        <ele>494.47006</ele>
        <time>2021-07-02T14:15:06Z</time>
      </trkpt>
      <trkpt lat="41.958572" lon="2.250150">
        <ele>494.20981</ele>
        <time>2021-07-02T14:15:07Z</time>
      </trkpt>
      <trkpt lat="41.958683" lon="2.250614">
        <ele>493.23373</ele>
        <time>2021-07-02T14:15:08Z</time>
      </trkpt>
      <trkpt lat="41.958794" lon="2.251073">
        <ele>492.35263</ele>
        <time>2021-07-02T14:15:09Z</time>
      </trkpt>
      <trkpt lat="41.958904" lon="2.251540">
        <ele>491.44284</ele>
        <time>2021-07-02T14:15:10Z</time>
      </trkpt>
      <trkpt lat="41.959015" lon="2.251983">
        <ele>489.83261</ele>
        <time>2021-07-02T14:15:11Z</time>
      </trkpt>
      <trkpt lat="41.959118" lon="2.252402">
        <ele>488.61801</ele>
        <time>2021-07-02T14:15:12Z</time>
      </trkpt>
      <trkpt lat="41.959225" lon="2.252853">
        <ele>487.55392</ele>
        <time>2021-07-02T14:15:13Z</time>
      </trkpt>
      <trkpt lat="41.959347" lon="2.253357">
        <ele>486.64828</ele>
        <time>2021-07-02T14:15:14Z</time>
      </trkpt>
      <trkpt lat="41.959457" lon="2.253813">
        <ele>485.54404</ele>
        <time>2021-07-02T14:15:15Z</time>
      </trkpt>
      <trkpt lat="41.959572" lon="2.254297">
        <ele>484.57492</ele>
        <time>2021-07-02T14:15:16Z</time>
      </trkpt>
      <trkpt lat="41.959679" lon="2.254772">
        <ele>483.49496</ele>
        <time>2021-07-02T14:15:17Z</time>
      </trkpt>
      <trkpt lat="41.959778" lon="2.255208">
        <ele>482.82578</ele>
        <time>2021-07-02T14:15:18Z</time>
      </trkpt>
      <trkpt lat="41.959873" lon="2.255674">
        <ele>481.81723</ele>
        <time>2021-07-02T14:15:19Z</time>
      </trkpt>
      <trkpt lat="41.959949" lon="2.256055">
        <ele>480.76376</ele>
        <time>2021-07-02T14:15:20Z</time>
      </trkpt>
      <trkpt lat="41.960030" lon="2.256470">
        <ele>479.98813</ele>
        <time>2021-07-02T14:15:21Z</time>
      </trkpt>
      <trkpt lat="41.960106" lon="2.256870">
        <ele>479.06454</ele>
        <time>2021-07-02T14:15:22Z</time>
      </trkpt>
      <trkpt lat="41.960178" lon="2.257238">
        <ele>478.41818</ele>
        <time>2021-07-02T14:15:23Z</time>
      </trkpt>
      <trkpt lat="41.960251" lon="2.257613">
        <ele>477.64047</ele>
        <time>2021-07-02T14:15:24Z</time>
      </trkpt>
      <trkpt lat="41.960373" lon="2.258308">
        <ele>477.09238</ele>
        <time>2021-07-02T14:15:25Z</time>
      </trkpt>
      <trkpt lat="41.960388" lon="2.258391">
        <ele>476.19882</ele>
        <time>2021-07-02T14:15:26Z</time>
      </trkpt>
      <trkpt lat="41.960472" lon="2.258883">
        <ele>475.82907</ele>
        <time>2021-07-02T14:15:27Z</time>
      </trkpt>
      <trkpt lat="41.960602" lon="2.259616">
        <ele>474.89291</ele>
        <time>2021-07-02T14:15:28Z</time>
      </trkpt>
      <trkpt lat="41.960602" lon="2.259616">
        <ele>474.60202</ele>
        <time>2021-07-02T14:15:29Z</time>
      </trkpt>
      <trkpt lat="41.960674" lon="2.260031">
        <ele>474.36703</ele>
        <time>2021-07-02T14:15:30Z</time>
      </trkpt>
      <trkpt lat="41.960777" lon="2.260625">
        <ele>474.68100</ele>
        <time>2021-07-02T14:15:31Z</time>
      </trkpt>
      <trkpt lat="41.960777" lon="2.260625">
        <ele>474.26718</ele>
        <time>2021-07-02T14:15:32Z</time>
      </trkpt>
      <trkpt lat="41.960850" lon="2.261069">
        <ele>473.37302</ele>
        <time>2021-07-02T14:15:33Z</time>
      </trkpt>
      <trkpt lat="41.960915" lon="2.261510">
        <ele>472.39731</ele>
        <time>2021-07-02T14:15:34Z</time>
      </trkpt>
      <trkpt lat="41.960960" lon="2.261858">
        <ele>472.09427</ele>
        <time>2021-07-02T14:15:35Z</time>
      </trkpt>
      <trkpt lat="41.960949" lon="2.262129">
        <ele>471.80374</ele>
        <time>2021-07-02T14:15:36Z</time>
      </trkpt>
      <trkpt lat="41.960960" lon="2.262964">
        <ele>471.73367</ele>
        <time>2021-07-02T14:15:37Z</time>
      </trkpt>
      <trkpt lat="41.960945" lon="2.263392">
        <ele>471.54776</ele>
        <time>2021-07-02T14:15:38Z</time>
      </trkpt>
      <trkpt lat="41.961040" lon="2.263987">
        <ele>471.12204</ele>
        <time>2021-07-02T14:15:39Z</time>
      </trkpt>
      <trkpt lat="41.961018" lon="2.264500">
        <ele>470.30032</ele>
        <time>2021-07-02T14:15:40Z</time>
      </trkpt>
      <trkpt lat="41.960983" lon="2.265022">
        <ele>469.79019</ele>
        <time>2021-07-02T14:15:41Z</time>
      </trkpt>
      <trkpt lat="41.960922" lon="2.265576">
        <ele>469.64157</ele>
        <time>2021-07-02T14:15:42Z</time>
      </trkpt>
      <trkpt lat="41.960842" lon="2.266082">
        <ele>469.16257</ele>
        <time>2021-07-02T14:15:43Z</time>
      </trkpt>
      <trkpt lat="41.960773" lon="2.266544">
        <ele>467.83878</ele>
        <time>2021-07-02T14:15:44Z</time>
      </trkpt>
      <trkpt lat="41.960674" lon="2.267051">
        <ele>467.04111</ele>
        <time>2021-07-02T14:15:45Z</time>
      </trkpt>
      <trkpt lat="41.960587" lon="2.267485">
        <ele>466.79538</ele>
        <time>2021-07-02T14:15:46Z</time>
      </trkpt>
      <trkpt lat="41.960587" lon="2.267485">
        <ele>466.60977</ele>
        <time>2021-07-02T14:15:47Z</time>
      </trkpt>
      <trkpt lat="41.960487" lon="2.267994">
        <ele>466.24258</ele>
        <time>2021-07-02T14:15:48Z</time>
      </trkpt>
      <trkpt lat="41.960407" lon="2.268496">
        <ele>465.67807</ele>
        <time>2021-07-02T14:15:49Z</time>
      </trkpt>
      <trkpt lat="41.960342" lon="2.268957">
        <ele>465.49020</ele>
        <time>2021-07-02T14:15:50Z</time>
      </trkpt>
      <trkpt lat="41.960297" lon="2.269384">
        <ele>465.47983</ele>
        <time>2021-07-02T14:15:51Z</time>
      </trkpt>
      <trkpt lat="41.960262" lon="2.269930">
        <ele>464.16403</ele>
        <time>2021-07-02T14:15:52Z</time>
      </trkpt>
      <trkpt lat="41.960236" lon="2.270420">
        <ele>464.21005</ele>
        <time>2021-07-02T14:15:53Z</time>
      </trkpt>
      <trkpt lat="41.960236" lon="2.270909">
        <ele>463.71542</ele>
        <time>2021-07-02T14:15:54Z</time>
      </trkpt>
      <trkpt lat="41.960255" lon="2.271377">
        <ele>463.18991</ele>
        <time>2021-07-02T14:15:55Z</time>
      </trkpt>
      <trkpt lat="41.960274" lon="2.271849">
        <ele>462.43680</ele>
        <time>2021-07-02T14:15:56Z</time>
      </trkpt>
      <trkpt lat="41.960300" lon="2.272264">
        <ele>461.71835</ele>
        <time>2021-07-02T14:15:57Z</time>
      </trkpt>
      <trkpt lat="41.960342" lon="2.272810">
        <ele>460.89340</ele>
        <time>2021-07-02T14:15:58Z</time>
      </trkpt>
      <trkpt lat="41.960381" lon="2.273290">
        <ele>460.35617</ele>
        <time>2021-07-02T14:15:59Z</time>
      </trkpt>
      <trkpt lat="41.960415" lon="2.273887">
        <ele>459.42001</ele>
        <time>2021-07-02T14:16:00Z</time>
      </trkpt>
      <trkpt lat="41.960426" lon="2.274409">
        <ele>458.77646</ele>
        <time>2021-07-02T14:16:01Z</time>
      </trkpt>
      <trkpt lat="41.960434" lon="2.274949">
        <ele>458.10727</ele>
        <time>2021-07-02T14:16:02Z</time>
      </trkpt>
      <trkpt lat="41.960423" lon="2.275438">
        <ele>458.12436</ele>
        <time>2021-07-02T14:16:03Z</time>
      </trkpt>
      <trkpt lat="41.960407" lon="2.275909">
        <ele>457.72543</ele>
        <time>2021-07-02T14:16:04Z</time>
      </trkpt>
      <trkpt lat="41.960381" lon="2.276403">
        <ele>457.10611</ele>
        <time>2021-07-02T14:16:05Z</time>
      </trkpt>
      <trkpt lat="41.960381" lon="2.276403">
        <ele>456.87265</ele>
        <time>2021-07-02T14:16:06Z</time>
      </trkpt>
      <trkpt lat="41.960285" lon="2.277336">
        <ele>456.63486</ele>
        <time>2021-07-02T14:16:07Z</time>
      </trkpt>
      <trkpt lat="41.960285" lon="2.277336">
        <ele>456.49094</ele>
        <time>2021-07-02T14:16:08Z</time>
      </trkpt>
      <trkpt lat="41.960224" lon="2.277828">
        <ele>456.89029</ele>
        <time>2021-07-02T14:16:09Z</time>
      </trkpt>
      <trkpt lat="41.960144" lon="2.278310">
        <ele>456.48422</ele>
        <time>2021-07-02T14:16:10Z</time>
      </trkpt>
      <trkpt lat="41.960052" lon="2.278798">
        <ele>456.74289</ele>
        <time>2021-07-02T14:16:11Z</time>
      </trkpt>
      <trkpt lat="41.959957" lon="2.279251">
        <ele>456.87228</ele>
        <time>2021-07-02T14:16:12Z</time>
      </trkpt>
      <trkpt lat="41.959862" lon="2.279708">
        <ele>457.45474</ele>
        <time>2021-07-02T14:16:13Z</time>
      </trkpt>
      <trkpt lat="41.959747" lon="2.280165">
        <ele>457.85104</ele>
        <time>2021-07-02T14:16:14Z</time>
      </trkpt>
      <trkpt lat="41.959633" lon="2.280616">
        <ele>459.42612</ele>
        <time>2021-07-02T14:16:15Z</time>
      </trkpt>
      <trkpt lat="41.959511" lon="2.281059">
        <ele>459.53720</ele>
        <time>2021-07-02T14:16:16Z</time>
      </trkpt>
      <trkpt lat="41.959370" lon="2.281503">
        <ele>460.39767</ele>
        <time>2021-07-02T14:16:17Z</time>
      </trkpt>
      <trkpt lat="41.959240" lon="2.281923">
        <ele>460.95798</ele>
        <time>2021-07-02T14:16:18Z</time>
      </trkpt>
      <trkpt lat="41.959084" lon="2.282340">
        <ele>462.76401</ele>
        <time>2021-07-02T14:16:19Z</time>
      </trkpt>
      <trkpt lat="41.958904" lon="2.282729">
        <ele>463.77298</ele>
        <time>2021-07-02T14:16:20Z</time>
      </trkpt>
      <trkpt lat="41.958729" lon="2.283113">
        <ele>464.49161</ele>
        <time>2021-07-02T14:16:21Z</time>
      </trkpt>
      <trkpt lat="41.958530" lon="2.283492">
        <ele>465.95633</ele>
        <time>2021-07-02T14:16:22Z</time>
      </trkpt>
      <trkpt lat="41.958298" lon="2.283885">
        <ele>467.07217</ele>
        <time>2021-07-02T14:16:23Z</time>
      </trkpt>
      <trkpt lat="41.958061" lon="2.284268">
        <ele>468.39798</ele>
        <time>2021-07-02T14:16:24Z</time>
      </trkpt>
      <trkpt lat="41.957821" lon="2.284652">
        <ele>468.88126</ele>
        <time>2021-07-02T14:16:25Z</time>
      </trkpt>
      <trkpt lat="41.957584" lon="2.285001">
        <ele>469.70743</ele>
        <time>2021-07-02T14:16:26Z</time>
      </trkpt>
      <trkpt lat="41.957367" lon="2.285286">
        <ele>470.29843</ele>
        <time>2021-07-02T14:16:27Z</time>
      </trkpt>
      <trkpt lat="41.957100" lon="2.285636">
        <ele>470.66586</ele>
        <time>2021-07-02T14:16:28Z</time>
      </trkpt>
      <trkpt lat="41.956848" lon="2.285957">
        <ele>470.86234</ele>
        <time>2021-07-02T14:16:29Z</time>
      </trkpt>
      <trkpt lat="41.956821" lon="2.285986">
        <ele>471.04617</ele>
        <time>2021-07-02T14:16:30Z</time>
      </trkpt>
      <trkpt lat="41.956821" lon="2.285986">
        <ele>471.50449</ele>
        <time>2021-07-02T14:16:31Z</time>
      </trkpt>
      <trkpt lat="41.956264" lon="2.286647">
        <ele>471.53311</ele>
        <time>2021-07-02T14:16:32Z</time>
      </trkpt>
      <trkpt lat="41.956211" lon="2.286702">
        <ele>471.75375</ele>
        <time>2021-07-02T14:16:33Z</time>
      </trkpt>
      <trkpt lat="41.955872" lon="2.287053">
        <ele>472.09940</ele>
        <time>2021-07-02T14:16:34Z</time>
      </trkpt>
      <trkpt lat="41.955711" lon="2.287218">
        <ele>472.11136</ele>
        <time>2021-07-02T14:16:35Z</time>
      </trkpt>
      <trkpt lat="41.955437" lon="2.287458">
        <ele>472.06400</ele>
        <time>2021-07-02T14:16:36Z</time>
      </trkpt>
      <trkpt lat="41.955139" lon="2.287714">
        <ele>472.26889</ele>
        <time>2021-07-02T14:16:37Z</time>
      </trkpt>
      <trkpt lat="41.954769" lon="2.288013">
        <ele>472.19418</ele>
        <time>2021-07-02T14:16:38Z</time>
      </trkpt>
      <trkpt lat="41.954491" lon="2.288221">
        <ele>472.50436</ele>
        <time>2021-07-02T14:16:39Z</time>
      </trkpt>
      <trkpt lat="41.954132" lon="2.288464">
        <ele>473.04465</ele>
        <time>2021-07-02T14:16:40Z</time>
      </trkpt>
      <trkpt lat="41.953804" lon="2.288674">
        <ele>473.86258</ele>
        <time>2021-07-02T14:16:41Z</time>
      </trkpt>
      <trkpt lat="41.953472" lon="2.288870">
        <ele>473.51089</ele>
        <time>2021-07-02T14:16:42Z</time>
      </trkpt>
      <trkpt lat="41.953152" lon="2.289040">
        <ele>474.46078</ele>
        <time>2021-07-02T14:16:43Z</time>
      </trkpt>
      <trkpt lat="41.952812" lon="2.289206">
        <ele>475.40488</ele>
        <time>2021-07-02T14:16:44Z</time>
      </trkpt>
      <trkpt lat="41.952484" lon="2.289347">
        <ele>476.52988</ele>
        <time>2021-07-02T14:16:45Z</time>
      </trkpt>
      <trkpt lat="41.952145" lon="2.289482">
        <ele>477.05612</ele>
        <time>2021-07-02T14:16:46Z</time>
      </trkpt>
      <trkpt lat="41.951794" lon="2.289620">
        <ele>478.21017</ele>
        <time>2021-07-02T14:16:47Z</time>
      </trkpt>
      <trkpt lat="41.951447" lon="2.289756">
        <ele>479.67380</ele>
        <time>2021-07-02T14:16:48Z</time>
      </trkpt>
      <trkpt lat="41.951099" lon="2.289893">
        <ele>480.42831</ele>
        <time>2021-07-02T14:16:49Z</time>
      </trkpt>
      <trkpt lat="41.950741" lon="2.290046">
        <ele>480.75400</ele>
        <time>2021-07-02T14:16:50Z</time>
      </trkpt>
      <trkpt lat="41.950401" lon="2.290193">
        <ele>481.01498</ele>
        <time>2021-07-02T14:16:51Z</time>
      </trkpt>
      <trkpt lat="41.950047" lon="2.290365">
        <ele>481.67172</ele>
        <time>2021-07-02T14:16:52Z</time>
      </trkpt>
      <trkpt lat="41.949688" lon="2.290552">
        <ele>482.19345</ele>
        <time>2021-07-02T14:16:53Z</time>
      </trkpt>
      <trkpt lat="41.949371" lon="2.290736">
        <ele>482.92099</ele>
        <time>2021-07-02T14:16:54Z</time>
      </trkpt>
      <trkpt lat="41.949081" lon="2.290916">
        <ele>483.40121</ele>
        <time>2021-07-02T14:16:55Z</time>
      </trkpt>
      <trkpt lat="41.948738" lon="2.291148">
        <ele>483.86057</ele>
        <time>2021-07-02T14:16:56Z</time>
      </trkpt>
      <trkpt lat="41.948452" lon="2.291382">
        <ele>484.23141</ele>
        <time>2021-07-02T14:16:57Z</time>
      </trkpt>
      <trkpt lat="41.948101" lon="2.291673">
        <ele>484.88925</ele>
        <time>2021-07-02T14:16:58Z</time>
      </trkpt>
      <trkpt lat="41.947788" lon="2.291932">
        <ele>485.36044</ele>
        <time>2021-07-02T14:16:59Z</time>
      </trkpt>
      <trkpt lat="41.947788" lon="2.291932">
        <ele>485.98166</ele>
        <time>2021-07-02T14:17:00Z</time>
      </trkpt>
      <trkpt lat="41.947510" lon="2.292153">
        <ele>486.23740</ele>
        <time>2021-07-02T14:17:01Z</time>
      </trkpt>
      <trkpt lat="41.947140" lon="2.292426">
        <ele>486.89792</ele>
        <time>2021-07-02T14:17:02Z</time>
      </trkpt>
      <trkpt lat="41.946819" lon="2.292686">
        <ele>487.63730</ele>
        <time>2021-07-02T14:17:03Z</time>
      </trkpt>
      <trkpt lat="41.946526" lon="2.292928">
        <ele>487.91440</ele>
        <time>2021-07-02T14:17:04Z</time>
      </trkpt>
      <trkpt lat="41.946281" lon="2.293125">
        <ele>488.33286</ele>
        <time>2021-07-02T14:17:05Z</time>
      </trkpt>
      <trkpt lat="41.946018" lon="2.293340">
        <ele>488.74081</ele>
        <time>2021-07-02T14:17:06Z</time>
      </trkpt>
      <trkpt lat="41.945694" lon="2.293604">
        <ele>489.23984</ele>
        <time>2021-07-02T14:17:07Z</time>
      </trkpt>
      <trkpt lat="41.945438" lon="2.293797">
        <ele>489.79184</ele>
        <time>2021-07-02T14:17:08Z</time>
      </trkpt>
      <trkpt lat="41.945221" lon="2.293949">
        <ele>490.30234</ele>
        <time>2021-07-02T14:17:09Z</time>
      </trkpt>
      <trkpt lat="41.945019" lon="2.294090">
        <ele>490.32748</ele>
        <time>2021-07-02T14:17:10Z</time>
      </trkpt>
      <trkpt lat="41.944805" lon="2.294240">
        <ele>491.06760</ele>
        <time>2021-07-02T14:17:11Z</time>
      </trkpt>
      <trkpt lat="41.944611" lon="2.294375">
        <ele>491.31699</ele>
        <time>2021-07-02T14:17:12Z</time>
      </trkpt>
      <trkpt lat="41.944359" lon="2.294535">
        <ele>491.55502</ele>
        <time>2021-07-02T14:17:13Z</time>
      </trkpt>
      <trkpt lat="41.944118" lon="2.294677">
        <ele>491.44687</ele>
        <time>2021-07-02T14:17:14Z</time>
      </trkpt>
      <trkpt lat="41.943871" lon="2.294809">
        <ele>491.72470</ele>
        <time>2021-07-02T14:17:15Z</time>
      </trkpt>
      <trkpt lat="41.943645" lon="2.294927">
        <ele>491.65048</ele>
        <time>2021-07-02T14:17:16Z</time>
      </trkpt>
      <trkpt lat="41.943424" lon="2.295046">
        <ele>491.45053</ele>
        <time>2021-07-02T14:17:17Z</time>
      </trkpt>
      <trkpt lat="41.943172" lon="2.295166">
        <ele>491.55991</ele>
        <time>2021-07-02T14:17:18Z</time>
      </trkpt>
      <trkpt lat="41.942909" lon="2.295287">
        <ele>492.19064</ele>
        <time>2021-07-02T14:17:19Z</time>
      </trkpt>
      <trkpt lat="41.942677" lon="2.295379">
        <ele>492.00961</ele>
        <time>2021-07-02T14:17:20Z</time>
      </trkpt>
      <trkpt lat="41.942368" lon="2.295492">
        <ele>491.86996</ele>
        <time>2021-07-02T14:17:21Z</time>
      </trkpt>
      <trkpt lat="41.942070" lon="2.295596">
        <ele>491.82358</ele>
        <time>2021-07-02T14:17:22Z</time>
      </trkpt>
      <trkpt lat="41.941788" lon="2.295682">
        <ele>492.32907</ele>
        <time>2021-07-02T14:17:23Z</time>
      </trkpt>
      <trkpt lat="41.941498" lon="2.295770">
        <ele>492.74716</ele>
        <time>2021-07-02T14:17:24Z</time>
      </trkpt>
      <trkpt lat="41.941200" lon="2.295852">
        <ele>492.98264</ele>
        <time>2021-07-02T14:17:25Z</time>
      </trkpt>
      <trkpt lat="41.940929" lon="2.295916">
        <ele>493.37802</ele>
        <time>2021-07-02T14:17:26Z</time>
      </trkpt>
      <trkpt lat="41.940632" lon="2.295975">
        <ele>493.58139</ele>
        <time>2021-07-02T14:17:27Z</time>
      </trkpt>
      <trkpt lat="41.940632" lon="2.295975">
        <ele>494.22470</ele>
        <time>2021-07-02T14:17:28Z</time>
      </trkpt>
      <trkpt lat="41.940079" lon="2.296083">
        <ele>494.82748</ele>
        <time>2021-07-02T14:17:29Z</time>
      </trkpt>
      <trkpt lat="41.939957" lon="2.296107">
        <ele>494.76352</ele>
        <time>2021-07-02T14:17:30Z</time>
      </trkpt>
      <trkpt lat="41.939583" lon="2.296181">
        <ele>494.88242</ele>
        <time>2021-07-02T14:17:31Z</time>
      </trkpt>
      <trkpt lat="41.939323" lon="2.296232">
        <ele>495.14584</ele>
        <time>2021-07-02T14:17:32Z</time>
      </trkpt>
      <trkpt lat="41.938988" lon="2.296314">
        <ele>496.12119</ele>
        <time>2021-07-02T14:17:33Z</time>
      </trkpt>
      <trkpt lat="41.938686" lon="2.296387">
        <ele>496.27890</ele>
        <time>2021-07-02T14:17:34Z</time>
      </trkpt>
      <trkpt lat="41.938389" lon="2.296458">
        <ele>496.30673</ele>
        <time>2021-07-02T14:17:35Z</time>
      </trkpt>
      <trkpt lat="41.938023" lon="2.296547">
        <ele>496.52988</ele>
        <time>2021-07-02T14:17:36Z</time>
      </trkpt>
      <trkpt lat="41.937687" lon="2.296628">
        <ele>497.69296</ele>
        <time>2021-07-02T14:17:37Z</time>
      </trkpt>
      <trkpt lat="41.937370" lon="2.296714">
        <ele>498.92880</ele>
        <time>2021-07-02T14:17:38Z</time>
      </trkpt>
      <trkpt lat="41.937000" lon="2.296814">
        <ele>499.56332</ele>
        <time>2021-07-02T14:17:39Z</time>
      </trkpt>
      <trkpt lat="41.936657" lon="2.296914">
        <ele>500.60873</ele>
        <time>2021-07-02T14:17:40Z</time>
      </trkpt>
      <trkpt lat="41.936337" lon="2.297018">
        <ele>501.31967</ele>
        <time>2021-07-02T14:17:41Z</time>
      </trkpt>
      <trkpt lat="41.936047" lon="2.297119">
        <ele>502.84604</ele>
        <time>2021-07-02T14:17:42Z</time>
      </trkpt>
      <trkpt lat="41.935677" lon="2.297248">
        <ele>503.90366</ele>
        <time>2021-07-02T14:17:43Z</time>
      </trkpt>
      <trkpt lat="41.935326" lon="2.297369">
        <ele>504.89999</ele>
        <time>2021-07-02T14:17:44Z</time>
      </trkpt>
      <trkpt lat="41.934998" lon="2.297496">
        <ele>505.71616</ele>
        <time>2021-07-02T14:17:45Z</time>
      </trkpt>
      <trkpt lat="41.934677" lon="2.297619">
        <ele>506.73813</ele>
        <time>2021-07-02T14:17:46Z</time>
      </trkpt>
      <trkpt lat="41.934326" lon="2.297761">
        <ele>507.59872</ele>
        <time>2021-07-02T14:17:47Z</time>
      </trkpt>
      <trkpt lat="41.933987" lon="2.297900">
        <ele>508.28159</ele>
        <time>2021-07-02T14:17:48Z</time>
      </trkpt>
      <trkpt lat="41.933655" lon="2.298036">
        <ele>508.33676</ele>
        <time>2021-07-02T14:17:49Z</time>
      </trkpt>
      <trkpt lat="41.933315" lon="2.298173">
        <ele>508.85507</ele>
        <time>2021-07-02T14:17:50Z</time>
      </trkpt>
      <trkpt lat="41.933022" lon="2.298292">
        <ele>509.37216</ele>
        <time>2021-07-02T14:17:51Z</time>
      </trkpt>
      <trkpt lat="41.932716" lon="2.298426">
        <ele>509.93832</ele>
        <time>2021-07-02T14:17:52Z</time>
      </trkpt>
      <trkpt lat="41.932716" lon="2.298426">
        <ele>510.01767</ele>
        <time>2021-07-02T14:17:53Z</time>
      </trkpt>
      <trkpt lat="41.932346" lon="2.298596">
        <ele>510.68320</ele>
        <time>2021-07-02T14:17:54Z</time>
      </trkpt>
      <trkpt lat="41.932011" lon="2.298770">
        <ele>510.96860</ele>
        <time>2021-07-02T14:17:55Z</time>
      </trkpt>
      <trkpt lat="41.931648" lon="2.298949">
        <ele>511.10654</ele>
        <time>2021-07-02T14:17:56Z</time>
      </trkpt>
      <trkpt lat="41.931648" lon="2.298949">
        <ele>511.62338</ele>
        <time>2021-07-02T14:17:57Z</time>
      </trkpt>
      <trkpt lat="41.931053" lon="2.299261">
        <ele>511.94455</ele>
        <time>2021-07-02T14:17:58Z</time>
      </trkpt>
      <trkpt lat="41.930717" lon="2.299478">
        <ele>511.99753</ele>
        <time>2021-07-02T14:17:59Z</time>
      </trkpt>
      <trkpt lat="41.930412" lon="2.299671">
        <ele>512.30573</ele>
        <time>2021-07-02T14:18:00Z</time>
      </trkpt>
      <trkpt lat="41.930134" lon="2.300077">
        <ele>512.57880</ele>
        <time>2021-07-02T14:18:01Z</time>
      </trkpt>
      <trkpt lat="41.929825" lon="2.300315">
        <ele>512.73859</ele>
        <time>2021-07-02T14:18:02Z</time>
      </trkpt>
      <trkpt lat="41.929543" lon="2.300515">
        <ele>513.57111</ele>
        <time>2021-07-02T14:18:03Z</time>
      </trkpt>
      <trkpt lat="41.929203" lon="2.300736">
        <ele>514.26324</ele>
        <time>2021-07-02T14:18:04Z</time>
      </trkpt>
      <trkpt lat="41.929203" lon="2.300736">
        <ele>514.99982</ele>
        <time>2021-07-02T14:18:05Z</time>
      </trkpt>
      <trkpt lat="41.928600" lon="2.301078">
        <ele>516.79242</ele>
        <time>2021-07-02T14:18:06Z</time>
      </trkpt>
      <trkpt lat="41.928341" lon="2.301205">
        <ele>517.98810</ele>
        <time>2021-07-02T14:18:07Z</time>
      </trkpt>
      <trkpt lat="41.927986" lon="2.301377">
        <ele>519.58087</ele>
        <time>2021-07-02T14:18:08Z</time>
      </trkpt>
      <trkpt lat="41.927551" lon="2.301562">
        <ele>520.19611</ele>
        <time>2021-07-02T14:18:09Z</time>
      </trkpt>
      <trkpt lat="41.927181" lon="2.301718">
        <ele>520.80365</ele>
        <time>2021-07-02T14:18:10Z</time>
      </trkpt>
      <trkpt lat="41.926849" lon="2.301839">
        <ele>520.66583</ele>
        <time>2021-07-02T14:18:11Z</time>
      </trkpt>
      <trkpt lat="41.926529" lon="2.301955">
        <ele>521.05634</ele>
        <time>2021-07-02T14:18:12Z</time>
      </trkpt>
      <trkpt lat="41.926216" lon="2.302057">
        <ele>521.31000</ele>
        <time>2021-07-02T14:18:13Z</time>
      </trkpt>
      <trkpt lat="41.925846" lon="2.302174">
        <ele>521.61578</ele>
        <time>2021-07-02T14:18:14Z</time>
      </trkpt>
      <trkpt lat="41.925499" lon="2.302269">
        <ele>521.77875</ele>
        <time>2021-07-02T14:18:15Z</time>
      </trkpt>
      <trkpt lat="41.925167" lon="2.302362">
        <ele>522.42743</ele>
        <time>2021-07-02T14:18:16Z</time>
      </trkpt>
      <trkpt lat="41.924866" lon="2.302446">
        <ele>522.46869</ele>
        <time>2021-07-02T14:18:17Z</time>
      </trkpt>
      <trkpt lat="41.924553" lon="2.302524">
        <ele>522.62396</ele>
        <time>2021-07-02T14:18:18Z</time>
      </trkpt>
      <trkpt lat="41.924248" lon="2.302599">
        <ele>523.32782</ele>
        <time>2021-07-02T14:18:19Z</time>
      </trkpt>
      <trkpt lat="41.923962" lon="2.302669">
        <ele>524.26727</ele>
        <time>2021-07-02T14:18:20Z</time>
      </trkpt>
      <trkpt lat="41.923645" lon="2.302745">
        <ele>524.84174</ele>
        <time>2021-07-02T14:18:21Z</time>
      </trkpt>
      <trkpt lat="41.923302" lon="2.302829">
        <ele>525.80511</ele>
        <time>2021-07-02T14:18:22Z</time>
      </trkpt>
      <trkpt lat="41.922966" lon="2.302911">
        <ele>526.39349</ele>
        <time>2021-07-02T14:18:23Z</time>
      </trkpt>
      <trkpt lat="41.922638" lon="2.302991">
        <ele>527.10028</ele>
        <time>2021-07-02T14:18:24Z</time>
      </trkpt>
      <trkpt lat="41.922298" lon="2.303074">
        <ele>528.11224</ele>
        <time>2021-07-02T14:18:25Z</time>
      </trkpt>
      <trkpt lat="41.921944" lon="2.303160">
        <ele>529.32147</ele>
        <time>2021-07-02T14:18:26Z</time>
      </trkpt>
      <trkpt lat="41.921623" lon="2.303241">
        <ele>530.36029</ele>
        <time>2021-07-02T14:18:27Z</time>
      </trkpt>
      <trkpt lat="41.921310" lon="2.303321">
        <ele>531.64764</ele>
        <time>2021-07-02T14:18:28Z</time>
      </trkpt>
      <trkpt lat="41.921040" lon="2.303391">
        <ele>532.84174</ele>
        <time>2021-07-02T14:18:29Z</time>
      </trkpt>
      <trkpt lat="41.920696" lon="2.303481">
        <ele>534.15594</ele>
        <time>2021-07-02T14:18:30Z</time>
      </trkpt>
      <trkpt lat="41.920361" lon="2.303586">
        <ele>535.67804</ele>
        <time>2021-07-02T14:18:31Z</time>
      </trkpt>
      <trkpt lat="41.920055" lon="2.303685">
        <ele>537.40594</ele>
        <time>2021-07-02T14:18:32Z</time>
      </trkpt>
      <trkpt lat="41.919655" lon="2.303816">
        <ele>539.30804</ele>
        <time>2021-07-02T14:18:33Z</time>
      </trkpt>
      <trkpt lat="41.919334" lon="2.303919">
        <ele>541.02289</ele>
        <time>2021-07-02T14:18:34Z</time>
      </trkpt>
      <trkpt lat="41.918953" lon="2.304048">
        <ele>543.04413</ele>
        <time>2021-07-02T14:18:35Z</time>
      </trkpt>
      <trkpt lat="41.918953" lon="2.304048">
        <ele>545.60077</ele>
        <time>2021-07-02T14:18:36Z</time>
      </trkpt>
      <trkpt lat="41.918644" lon="2.304165">
        <ele>547.22821</ele>
        <time>2021-07-02T14:18:37Z</time>
      </trkpt>
      <trkpt lat="41.918297" lon="2.304294">
        <ele>549.02863</ele>
        <time>2021-07-02T14:18:38Z</time>
      </trkpt>
      <trkpt lat="41.917938" lon="2.304428">
        <ele>551.14130</ele>
        <time>2021-07-02T14:18:39Z</time>
      </trkpt>
      <trkpt lat="41.917645" lon="2.304547">
        <ele>552.56439</ele>
        <time>2021-07-02T14:18:40Z</time>
      </trkpt>
      <trkpt lat="41.917324" lon="2.304690">
        <ele>554.42035</ele>
        <time>2021-07-02T14:18:41Z</time>
      </trkpt>
      <trkpt lat="41.916977" lon="2.304857">
        <ele>556.50580</ele>
        <time>2021-07-02T14:18:42Z</time>
      </trkpt>
      <trkpt lat="41.916706" lon="2.304999">
        <ele>558.27704</ele>
        <time>2021-07-02T14:18:43Z</time>
      </trkpt>
      <trkpt lat="41.916447" lon="2.305139">
        <ele>560.07123</ele>
        <time>2021-07-02T14:18:44Z</time>
      </trkpt>
      <trkpt lat="41.916149" lon="2.305309">
        <ele>561.67828</ele>
        <time>2021-07-02T14:18:45Z</time>
      </trkpt>
      <trkpt lat="41.915897" lon="2.305464">
        <ele>563.36420</ele>
        <time>2021-07-02T14:18:46Z</time>
      </trkpt>
      <trkpt lat="41.915619" lon="2.305650">
        <ele>564.20087</ele>
        <time>2021-07-02T14:18:47Z</time>
      </trkpt>
      <trkpt lat="41.915321" lon="2.305857">
        <ele>566.58661</ele>
        <time>2021-07-02T14:18:48Z</time>
      </trkpt>
      <trkpt lat="41.915058" lon="2.306043">
        <ele>568.08124</ele>
        <time>2021-07-02T14:18:49Z</time>
      </trkpt>
      <trkpt lat="41.914799" lon="2.306257">
        <ele>569.26691</ele>
        <time>2021-07-02T14:18:50Z</time>
      </trkpt>
      <trkpt lat="41.914536" lon="2.306473">
        <ele>570.45929</ele>
        <time>2021-07-02T14:18:51Z</time>
      </trkpt>
      <trkpt lat="41.914288" lon="2.306700">
        <ele>571.60309</ele>
        <time>2021-07-02T14:18:52Z</time>
      </trkpt>
      <trkpt lat="41.913994" lon="2.306979">
        <ele>573.06708</ele>
        <time>2021-07-02T14:18:53Z</time>
      </trkpt>
      <trkpt lat="41.913712" lon="2.307289">
        <ele>574.50726</ele>
        <time>2021-07-02T14:18:54Z</time>
      </trkpt>
      <trkpt lat="41.913452" lon="2.307568">
        <ele>575.54828</ele>
        <time>2021-07-02T14:18:55Z</time>
      </trkpt>
      <trkpt lat="41.913181" lon="2.307908">
        <ele>576.37482</ele>
        <time>2021-07-02T14:18:56Z</time>
      </trkpt>
      <trkpt lat="41.912930" lon="2.308231">
        <ele>577.05878</ele>
        <time>2021-07-02T14:18:57Z</time>
      </trkpt>
      <trkpt lat="41.912685" lon="2.308580">
        <ele>577.73102</ele>
        <time>2021-07-02T14:18:58Z</time>
      </trkpt>
      <trkpt lat="41.912426" lon="2.308971">
        <ele>578.78363</ele>
        <time>2021-07-02T14:18:59Z</time>
      </trkpt>
      <trkpt lat="41.912193" lon="2.309361">
        <ele>579.60419</ele>
        <time>2021-07-02T14:19:00Z</time>
      </trkpt>
      <trkpt lat="41.911987" lon="2.309702">
        <ele>580.42279</ele>
        <time>2021-07-02T14:19:01Z</time>
      </trkpt>
      <trkpt lat="41.911766" lon="2.310121">
        <ele>581.31769</ele>
        <time>2021-07-02T14:19:02Z</time>
      </trkpt>
      <trkpt lat="41.911568" lon="2.310544">
        <ele>582.03510</ele>
        <time>2021-07-02T14:19:03Z</time>
      </trkpt>
      <trkpt lat="41.911358" lon="2.311000">
        <ele>582.90399</ele>
        <time>2021-07-02T14:19:04Z</time>
      </trkpt>
      <trkpt lat="41.911171" lon="2.311412">
        <ele>583.75323</ele>
        <time>2021-07-02T14:19:05Z</time>
      </trkpt>
      <trkpt lat="41.911171" lon="2.311412">
        <ele>584.48041</ele>
        <time>2021-07-02T14:19:06Z</time>
      </trkpt>
      <trkpt lat="41.910995" lon="2.311790">
        <ele>585.46625</ele>
        <time>2021-07-02T14:19:07Z</time>
      </trkpt>
      <trkpt lat="41.910870" lon="2.312066">
        <ele>586.35028</ele>
        <time>2021-07-02T14:19:08Z</time>
      </trkpt>
      <trkpt lat="41.910725" lon="2.312212">
        <ele>587.12689</ele>
        <time>2021-07-02T14:19:09Z</time>
      </trkpt>
      <trkpt lat="41.910278" lon="2.312998">
        <ele>588.01947</ele>
        <time>2021-07-02T14:19:10Z</time>
      </trkpt>
      <trkpt lat="41.910225" lon="2.313489">
        <ele>589.19574</ele>
        <time>2021-07-02T14:19:11Z</time>
      </trkpt>
      <trkpt lat="41.910046" lon="2.313881">
        <ele>590.20868</ele>
        <time>2021-07-02T14:19:12Z</time>
      </trkpt>
      <trkpt lat="41.909893" lon="2.314221">
        <ele>591.09991</ele>
        <time>2021-07-02T14:19:13Z</time>
      </trkpt>
      <trkpt lat="41.909733" lon="2.314580">
        <ele>592.35419</ele>
        <time>2021-07-02T14:19:14Z</time>
      </trkpt>
      <trkpt lat="41.909569" lon="2.314934">
        <ele>593.67059</ele>
        <time>2021-07-02T14:19:15Z</time>
      </trkpt>
      <trkpt lat="41.909569" lon="2.314934">
        <ele>594.91974</ele>
        <time>2021-07-02T14:19:16Z</time>
      </trkpt>
      <trkpt lat="41.909336" lon="2.315450">
        <ele>596.11371</ele>
        <time>2021-07-02T14:19:17Z</time>
      </trkpt>
      <trkpt lat="41.909225" lon="2.315689">
        <ele>597.21576</ele>
        <time>2021-07-02T14:19:18Z</time>
      </trkpt>
      <trkpt lat="41.909077" lon="2.316012">
        <ele>597.81317</ele>
        <time>2021-07-02T14:19:19Z</time>
      </trkpt>
      <trkpt lat="41.908897" lon="2.316387">
        <ele>598.20038</ele>
        <time>2021-07-02T14:19:20Z</time>
      </trkpt>
      <trkpt lat="41.908760" lon="2.316683">
        <ele>598.20038</ele>
        <time>2021-07-02T14:19:21Z</time>
      </trkpt>
      <trkpt lat="41.908611" lon="2.317005">
        <ele>598.20038</ele>
        <time>2021-07-02T14:19:22Z</time>
      </trkpt>
      <trkpt lat="41.908508" lon="2.317238">
        <ele>598.20038</ele>
        <time>2021-07-02T14:19:23Z</time>
      </trkpt>
      <trkpt lat="41.908508" lon="2.317238">
        <ele>598.20038</ele>
        <time>2021-07-02T14:19:24Z</time>
      </trkpt>
      <trkpt lat="41.908508" lon="2.317238">
        <ele>598.20038</ele>
        <time>2021-07-02T14:19:25Z</time>
      </trkpt>
      <trkpt lat="41.908508" lon="2.317238">
        <ele>598.20038</ele>
        <time>2021-07-02T14:19:26Z</time>
      </trkpt>
      <trkpt lat="41.908508" lon="2.317238">
        <ele>598.20038</ele>
        <time>2021-07-02T14:19:27Z</time>
      </trkpt>
      <trkpt lat="41.908508" lon="2.317238">
        <ele>602.89398</ele>
        <time>2021-07-02T14:19:28Z</time>
      </trkpt>
      <trkpt lat="41.908508" lon="2.317238">
        <ele>606.71954</ele>
        <time>2021-07-02T14:19:29Z</time>
      </trkpt>
      <trkpt lat="41.908115" lon="2.318127">
        <ele>609.59027</ele>
        <time>2021-07-02T14:19:30Z</time>
      </trkpt>
      <trkpt lat="41.907799" lon="2.318966">
        <ele>612.41400</ele>
        <time>2021-07-02T14:19:31Z</time>
      </trkpt>
      <trkpt lat="41.907524" lon="2.319748">
        <ele>614.78339</ele>
        <time>2021-07-02T14:19:32Z</time>
      </trkpt>
      <trkpt lat="41.907272" lon="2.320553">
        <ele>614.71490</ele>
        <time>2021-07-02T14:19:33Z</time>
      </trkpt>
      <trkpt lat="41.907154" lon="2.320971">
        <ele>614.96844</ele>
        <time>2021-07-02T14:19:34Z</time>
      </trkpt>
      <trkpt lat="41.907063" lon="2.321313">
        <ele>614.96844</ele>
        <time>2021-07-02T14:19:35Z</time>
      </trkpt>
      <trkpt lat="41.906967" lon="2.321675">
        <ele>614.96844</ele>
        <time>2021-07-02T14:19:36Z</time>
      </trkpt>
      <trkpt lat="41.906940" lon="2.321784">
        <ele>614.96844</ele>
        <time>2021-07-02T14:19:37Z</time>
      </trkpt>
      <trkpt lat="41.906940" lon="2.321784">
        <ele>618.74237</ele>
        <time>2021-07-02T14:19:38Z</time>
      </trkpt>
      <trkpt lat="41.906940" lon="2.321784">
        <ele>621.63251</ele>
        <time>2021-07-02T14:19:39Z</time>
      </trkpt>
      <trkpt lat="41.906597" lon="2.323159">
        <ele>623.97235</ele>
        <time>2021-07-02T14:19:40Z</time>
      </trkpt>
      <trkpt lat="41.906521" lon="2.323462">
        <ele>626.17523</ele>
        <time>2021-07-02T14:19:41Z</time>
      </trkpt>
      <trkpt lat="41.906437" lon="2.323800">
        <ele>628.11102</ele>
        <time>2021-07-02T14:19:42Z</time>
      </trkpt>
      <trkpt lat="41.906345" lon="2.324167">
        <ele>629.90375</ele>
        <time>2021-07-02T14:19:43Z</time>
      </trkpt>
      <trkpt lat="41.906242" lon="2.324574">
        <ele>631.80890</ele>
        <time>2021-07-02T14:19:44Z</time>
      </trkpt>
      <trkpt lat="41.906151" lon="2.324930">
        <ele>634.02533</ele>
        <time>2021-07-02T14:19:45Z</time>
      </trkpt>
      <trkpt lat="41.906063" lon="2.325273">
        <ele>636.04071</ele>
        <time>2021-07-02T14:19:46Z</time>
      </trkpt>
      <trkpt lat="41.905964" lon="2.325646">
        <ele>637.57990</ele>
        <time>2021-07-02T14:19:47Z</time>
      </trkpt>
      <trkpt lat="41.905872" lon="2.326004">
        <ele>639.21942</ele>
        <time>2021-07-02T14:19:48Z</time>
      </trkpt>
      <trkpt lat="41.905872" lon="2.326004">
        <ele>641.20844</ele>
        <time>2021-07-02T14:19:49Z</time>
      </trkpt>
      <trkpt lat="41.905769" lon="2.326385">
        <ele>642.46796</ele>
        <time>2021-07-02T14:19:50Z</time>
      </trkpt>
      <trkpt lat="41.905659" lon="2.326795">
        <ele>644.50250</ele>
        <time>2021-07-02T14:19:51Z</time>
      </trkpt>
      <trkpt lat="41.905552" lon="2.327150">
        <ele>646.71063</ele>
        <time>2021-07-02T14:19:52Z</time>
      </trkpt>
      <trkpt lat="41.905445" lon="2.327504">
        <ele>648.52728</ele>
        <time>2021-07-02T14:19:53Z</time>
      </trkpt>
      <trkpt lat="41.905308" lon="2.327945">
        <ele>649.62079</ele>
        <time>2021-07-02T14:19:54Z</time>
      </trkpt>
      <trkpt lat="41.905178" lon="2.328328">
        <ele>652.22089</ele>
        <time>2021-07-02T14:19:55Z</time>
      </trkpt>
      <trkpt lat="41.905033" lon="2.328748">
        <ele>654.13129</ele>
        <time>2021-07-02T14:19:56Z</time>
      </trkpt>
      <trkpt lat="41.904907" lon="2.329119">
        <ele>656.09247</ele>
        <time>2021-07-02T14:19:57Z</time>
      </trkpt>
      <trkpt lat="41.904781" lon="2.329482">
        <ele>657.73114</ele>
        <time>2021-07-02T14:19:58Z</time>
      </trkpt>
      <trkpt lat="41.904644" lon="2.329884">
        <ele>659.49506</ele>
        <time>2021-07-02T14:19:59Z</time>
      </trkpt>
      <trkpt lat="41.904514" lon="2.330260">
        <ele>660.90472</ele>
        <time>2021-07-02T14:20:00Z</time>
      </trkpt>
      <trkpt lat="41.904381" lon="2.330669">
        <ele>662.35883</ele>
        <time>2021-07-02T14:20:01Z</time>
      </trkpt>
      <trkpt lat="41.904266" lon="2.331009">
        <ele>664.26141</ele>
        <time>2021-07-02T14:20:02Z</time>
      </trkpt>
      <trkpt lat="41.904137" lon="2.331387">
        <ele>665.90399</ele>
        <time>2021-07-02T14:20:03Z</time>
      </trkpt>
      <trkpt lat="41.904003" lon="2.331787">
        <ele>667.55707</ele>
        <time>2021-07-02T14:20:04Z</time>
      </trkpt>
      <trkpt lat="41.903870" lon="2.332172">
        <ele>669.46698</ele>
        <time>2021-07-02T14:20:05Z</time>
      </trkpt>
      <trkpt lat="41.903744" lon="2.332527">
        <ele>670.86127</ele>
        <time>2021-07-02T14:20:06Z</time>
      </trkpt>
      <trkpt lat="41.903606" lon="2.332908">
        <ele>672.20856</ele>
        <time>2021-07-02T14:20:07Z</time>
      </trkpt>
      <trkpt lat="41.903473" lon="2.333277">
        <ele>674.12006</ele>
        <time>2021-07-02T14:20:08Z</time>
      </trkpt>
      <trkpt lat="41.903355" lon="2.333594">
        <ele>676.31525</ele>
        <time>2021-07-02T14:20:09Z</time>
      </trkpt>
      <trkpt lat="41.903198" lon="2.334014">
        <ele>677.40680</ele>
        <time>2021-07-02T14:20:10Z</time>
      </trkpt>
      <trkpt lat="41.903198" lon="2.334014">
        <ele>678.08368</ele>
        <time>2021-07-02T14:20:11Z</time>
      </trkpt>
      <trkpt lat="41.903072" lon="2.334343">
        <ele>680.55560</ele>
        <time>2021-07-02T14:20:12Z</time>
      </trkpt>
      <trkpt lat="41.902924" lon="2.334744">
        <ele>682.26215</ele>
        <time>2021-07-02T14:20:13Z</time>
      </trkpt>
      <trkpt lat="41.902786" lon="2.335088">
        <ele>684.74579</ele>
        <time>2021-07-02T14:20:14Z</time>
      </trkpt>
      <trkpt lat="41.902641" lon="2.335437">
        <ele>686.37018</ele>
        <time>2021-07-02T14:20:15Z</time>
      </trkpt>
      <trkpt lat="41.902493" lon="2.335777">
        <ele>687.36835</ele>
        <time>2021-07-02T14:20:16Z</time>
      </trkpt>
      <trkpt lat="41.902336" lon="2.336123">
        <ele>689.00970</ele>
        <time>2021-07-02T14:20:17Z</time>
      </trkpt>
      <trkpt lat="41.902199" lon="2.336434">
        <ele>690.07758</ele>
        <time>2021-07-02T14:20:18Z</time>
      </trkpt>
      <trkpt lat="41.902012" lon="2.336831">
        <ele>690.96088</ele>
        <time>2021-07-02T14:20:19Z</time>
      </trkpt>
      <trkpt lat="41.901878" lon="2.337094">
        <ele>691.69061</ele>
        <time>2021-07-02T14:20:20Z</time>
      </trkpt>
      <trkpt lat="41.901699" lon="2.337441">
        <ele>692.47235</ele>
        <time>2021-07-02T14:20:21Z</time>
      </trkpt>
      <trkpt lat="41.901512" lon="2.337807">
        <ele>692.86090</ele>
        <time>2021-07-02T14:20:22Z</time>
      </trkpt>
      <trkpt lat="41.901340" lon="2.338136">
        <ele>693.86017</ele>
        <time>2021-07-02T14:20:23Z</time>
      </trkpt>
      <trkpt lat="41.901180" lon="2.338436">
        <ele>694.26996</ele>
        <time>2021-07-02T14:20:24Z</time>
      </trkpt>
      <trkpt lat="41.901020" lon="2.338750">
        <ele>694.34637</ele>
        <time>2021-07-02T14:20:25Z</time>
      </trkpt>
      <trkpt lat="41.900833" lon="2.339117">
        <ele>694.34637</ele>
        <time>2021-07-02T14:20:26Z</time>
      </trkpt>
      <trkpt lat="41.900650" lon="2.339471">
        <ele>694.34637</ele>
        <time>2021-07-02T14:20:27Z</time>
      </trkpt>
      <trkpt lat="41.900593" lon="2.339582">
        <ele>694.34637</ele>
        <time>2021-07-02T14:20:28Z</time>
      </trkpt>
      <trkpt lat="41.900593" lon="2.339582">
        <ele>694.34637</ele>
        <time>2021-07-02T14:20:29Z</time>
      </trkpt>
      <trkpt lat="41.900593" lon="2.339582">
        <ele>693.87836</ele>
        <time>2021-07-02T14:20:30Z</time>
      </trkpt>
      <trkpt lat="41.900593" lon="2.339582">
        <ele>693.68719</ele>
        <time>2021-07-02T14:20:31Z</time>
      </trkpt>
      <trkpt lat="41.899757" lon="2.341155">
        <ele>693.31183</ele>
        <time>2021-07-02T14:20:32Z</time>
      </trkpt>
      <trkpt lat="41.899570" lon="2.341501">
        <ele>691.58588</ele>
        <time>2021-07-02T14:20:33Z</time>
      </trkpt>
      <trkpt lat="41.899364" lon="2.341890">
        <ele>690.26752</ele>
        <time>2021-07-02T14:20:34Z</time>
      </trkpt>
      <trkpt lat="41.899143" lon="2.342269">
        <ele>689.56000</ele>
        <time>2021-07-02T14:20:35Z</time>
      </trkpt>
      <trkpt lat="41.898930" lon="2.342627">
        <ele>688.76886</ele>
        <time>2021-07-02T14:20:36Z</time>
      </trkpt>
      <trkpt lat="41.898685" lon="2.342986">
        <ele>686.99420</ele>
        <time>2021-07-02T14:20:37Z</time>
      </trkpt>
      <trkpt lat="41.898476" lon="2.343268">
        <ele>684.07343</ele>
        <time>2021-07-02T14:20:38Z</time>
      </trkpt>
      <trkpt lat="41.898235" lon="2.343552">
        <ele>682.62347</ele>
        <time>2021-07-02T14:20:39Z</time>
      </trkpt>
      <trkpt lat="41.897926" lon="2.343881">
        <ele>680.86969</ele>
        <time>2021-07-02T14:20:40Z</time>
      </trkpt>
      <trkpt lat="41.897926" lon="2.343881">
        <ele>678.89484</ele>
        <time>2021-07-02T14:20:41Z</time>
      </trkpt>
      <trkpt lat="41.897297" lon="2.344419">
        <ele>677.02057</ele>
        <time>2021-07-02T14:20:42Z</time>
      </trkpt>
      <trkpt lat="41.897018" lon="2.344614">
        <ele>675.65289</ele>
        <time>2021-07-02T14:20:43Z</time>
      </trkpt>
      <trkpt lat="41.897018" lon="2.344614">
        <ele>673.91168</ele>
        <time>2021-07-02T14:20:44Z</time>
      </trkpt>
      <trkpt lat="41.896393" lon="2.345038">
        <ele>671.94244</ele>
        <time>2021-07-02T14:20:45Z</time>
      </trkpt>
      <trkpt lat="41.896393" lon="2.345038">
        <ele>669.20111</ele>
        <time>2021-07-02T14:20:46Z</time>
      </trkpt>
      <trkpt lat="41.896133" lon="2.345216">
        <ele>667.27008</ele>
        <time>2021-07-02T14:20:47Z</time>
      </trkpt>
      <trkpt lat="41.895805" lon="2.345459">
        <ele>665.26471</ele>
        <time>2021-07-02T14:20:48Z</time>
      </trkpt>
      <trkpt lat="41.895515" lon="2.345720">
        <ele>663.96832</ele>
        <time>2021-07-02T14:20:49Z</time>
      </trkpt>
      <trkpt lat="41.895252" lon="2.346007">
        <ele>661.91803</ele>
        <time>2021-07-02T14:20:50Z</time>
      </trkpt>
      <trkpt lat="41.895012" lon="2.346329">
        <ele>660.33087</ele>
        <time>2021-07-02T14:20:51Z</time>
      </trkpt>
      <trkpt lat="41.894794" lon="2.346668">
        <ele>658.69952</ele>
        <time>2021-07-02T14:20:52Z</time>
      </trkpt>
      <trkpt lat="41.894581" lon="2.347052">
        <ele>657.25201</ele>
        <time>2021-07-02T14:20:53Z</time>
      </trkpt>
      <trkpt lat="41.894379" lon="2.347485">
        <ele>656.42023</ele>
        <time>2021-07-02T14:20:54Z</time>
      </trkpt>
      <trkpt lat="41.894238" lon="2.347885">
        <ele>656.04767</ele>
        <time>2021-07-02T14:20:55Z</time>
      </trkpt>
      <trkpt lat="41.894085" lon="2.348393">
        <ele>655.96124</ele>
        <time>2021-07-02T14:20:56Z</time>
      </trkpt>
      <trkpt lat="41.893974" lon="2.348908">
        <ele>652.82013</ele>
        <time>2021-07-02T14:20:57Z</time>
      </trkpt>
      <trkpt lat="41.893894" lon="2.349392">
        <ele>651.45135</ele>
        <time>2021-07-02T14:20:58Z</time>
      </trkpt>
      <trkpt lat="41.893803" lon="2.349889">
        <ele>649.93634</ele>
        <time>2021-07-02T14:20:59Z</time>
      </trkpt>
      <trkpt lat="41.893730" lon="2.350426">
        <ele>648.66876</ele>
        <time>2021-07-02T14:21:00Z</time>
      </trkpt>
      <trkpt lat="41.893639" lon="2.350954">
        <ele>648.32733</ele>
        <time>2021-07-02T14:21:01Z</time>
      </trkpt>
      <trkpt lat="41.893524" lon="2.351433">
        <ele>648.01666</ele>
        <time>2021-07-02T14:21:02Z</time>
      </trkpt>
      <trkpt lat="41.893391" lon="2.351916">
        <ele>647.38422</ele>
        <time>2021-07-02T14:21:03Z</time>
      </trkpt>
      <trkpt lat="41.893391" lon="2.351916">
        <ele>647.19269</ele>
        <time>2021-07-02T14:21:04Z</time>
      </trkpt>
      <trkpt lat="41.893227" lon="2.352391">
        <ele>646.68951</ele>
        <time>2021-07-02T14:21:05Z</time>
      </trkpt>
      <trkpt lat="41.893036" lon="2.352852">
        <ele>646.55829</ele>
        <time>2021-07-02T14:21:06Z</time>
      </trkpt>
      <trkpt lat="41.892822" lon="2.353298">
        <ele>645.78522</ele>
        <time>2021-07-02T14:21:07Z</time>
      </trkpt>
      <trkpt lat="41.892727" lon="2.353490">
        <ele>644.03009</ele>
        <time>2021-07-02T14:21:08Z</time>
      </trkpt>
      <trkpt lat="41.892616" lon="2.353623">
        <ele>643.05743</ele>
        <time>2021-07-02T14:21:09Z</time>
      </trkpt>
      <trkpt lat="41.892067" lon="2.354538">
        <ele>642.36481</ele>
        <time>2021-07-02T14:21:10Z</time>
      </trkpt>
      <trkpt lat="41.891960" lon="2.354987">
        <ele>641.97565</ele>
        <time>2021-07-02T14:21:11Z</time>
      </trkpt>
      <trkpt lat="41.891769" lon="2.355402">
        <ele>641.34186</ele>
        <time>2021-07-02T14:21:12Z</time>
      </trkpt>
      <trkpt lat="41.891609" lon="2.355798">
        <ele>640.77399</ele>
        <time>2021-07-02T14:21:13Z</time>
      </trkpt>
      <trkpt lat="41.891449" lon="2.356267">
        <ele>640.32941</ele>
        <time>2021-07-02T14:21:14Z</time>
      </trkpt>
      <trkpt lat="41.891315" lon="2.356833">
        <ele>639.70319</ele>
        <time>2021-07-02T14:21:15Z</time>
      </trkpt>
      <trkpt lat="41.891315" lon="2.356833">
        <ele>639.07672</ele>
        <time>2021-07-02T14:21:16Z</time>
      </trkpt>
      <trkpt lat="41.891197" lon="2.357835">
        <ele>638.35187</ele>
        <time>2021-07-02T14:21:17Z</time>
      </trkpt>
      <trkpt lat="41.891197" lon="2.357835">
        <ele>638.09601</ele>
        <time>2021-07-02T14:21:18Z</time>
      </trkpt>
      <trkpt lat="41.891182" lon="2.358368">
        <ele>637.63678</ele>
        <time>2021-07-02T14:21:19Z</time>
      </trkpt>
      <trkpt lat="41.891209" lon="2.358937">
        <ele>636.89630</ele>
        <time>2021-07-02T14:21:20Z</time>
      </trkpt>
      <trkpt lat="41.891270" lon="2.359408">
        <ele>636.49371</ele>
        <time>2021-07-02T14:21:21Z</time>
      </trkpt>
      <trkpt lat="41.891354" lon="2.359870">
        <ele>635.41925</ele>
        <time>2021-07-02T14:21:22Z</time>
      </trkpt>
      <trkpt lat="41.891460" lon="2.360310">
        <ele>633.99469</ele>
        <time>2021-07-02T14:21:23Z</time>
      </trkpt>
      <trkpt lat="41.891621" lon="2.360803">
        <ele>631.93256</ele>
        <time>2021-07-02T14:21:24Z</time>
      </trkpt>
      <trkpt lat="41.891808" lon="2.361257">
        <ele>630.23737</ele>
        <time>2021-07-02T14:21:25Z</time>
      </trkpt>
      <trkpt lat="41.891998" lon="2.361625">
        <ele>628.24933</ele>
        <time>2021-07-02T14:21:26Z</time>
      </trkpt>
      <trkpt lat="41.892254" lon="2.362049">
        <ele>626.37140</ele>
        <time>2021-07-02T14:21:27Z</time>
      </trkpt>
      <trkpt lat="41.892513" lon="2.362401">
        <ele>624.62823</ele>
        <time>2021-07-02T14:21:28Z</time>
      </trkpt>
      <trkpt lat="41.892761" lon="2.362708">
        <ele>621.88251</ele>
        <time>2021-07-02T14:21:29Z</time>
      </trkpt>
      <trkpt lat="41.893059" lon="2.363051">
        <ele>619.92755</ele>
        <time>2021-07-02T14:21:30Z</time>
      </trkpt>
      <trkpt lat="41.893345" lon="2.363382">
        <ele>618.41119</ele>
        <time>2021-07-02T14:21:31Z</time>
      </trkpt>
      <trkpt lat="41.893578" lon="2.363649">
        <ele>616.42853</ele>
        <time>2021-07-02T14:21:32Z</time>
      </trkpt>
      <trkpt lat="41.893826" lon="2.363948">
        <ele>614.77496</ele>
        <time>2021-07-02T14:21:33Z</time>
      </trkpt>
      <trkpt lat="41.894100" lon="2.364319">
        <ele>612.47540</ele>
        <time>2021-07-02T14:21:34Z</time>
      </trkpt>
      <trkpt lat="41.894283" lon="2.364608">
        <ele>610.53766</ele>
        <time>2021-07-02T14:21:35Z</time>
      </trkpt>
      <trkpt lat="41.894512" lon="2.364984">
        <ele>608.35162</ele>
        <time>2021-07-02T14:21:36Z</time>
      </trkpt>
      <trkpt lat="41.894707" lon="2.365398">
        <ele>606.36090</ele>
        <time>2021-07-02T14:21:37Z</time>
      </trkpt>
      <trkpt lat="41.894859" lon="2.365806">
        <ele>604.50519</ele>
        <time>2021-07-02T14:21:38Z</time>
      </trkpt>
      <trkpt lat="41.894997" lon="2.366241">
        <ele>602.39838</ele>
        <time>2021-07-02T14:21:39Z</time>
      </trkpt>
      <trkpt lat="41.895107" lon="2.366645">
        <ele>599.84467</ele>
        <time>2021-07-02T14:21:40Z</time>
      </trkpt>
      <trkpt lat="41.895241" lon="2.367133">
        <ele>597.87067</ele>
        <time>2021-07-02T14:21:41Z</time>
      </trkpt>
      <trkpt lat="41.895329" lon="2.367586">
        <ele>595.32440</ele>
        <time>2021-07-02T14:21:42Z</time>
      </trkpt>
      <trkpt lat="41.895393" lon="2.368063">
        <ele>592.90436</ele>
        <time>2021-07-02T14:21:43Z</time>
      </trkpt>
      <trkpt lat="41.895393" lon="2.368063">
        <ele>590.45392</ele>
        <time>2021-07-02T14:21:44Z</time>
      </trkpt>
      <trkpt lat="41.895462" lon="2.368532">
        <ele>588.31158</ele>
        <time>2021-07-02T14:21:45Z</time>
      </trkpt>
      <trkpt lat="41.895504" lon="2.368963">
        <ele>585.85553</ele>
        <time>2021-07-02T14:21:46Z</time>
      </trkpt>
      <trkpt lat="41.895500" lon="2.369531">
        <ele>582.78693</ele>
        <time>2021-07-02T14:21:47Z</time>
      </trkpt>
      <trkpt lat="41.895451" lon="2.370042">
        <ele>580.78375</ele>
        <time>2021-07-02T14:21:48Z</time>
      </trkpt>
      <trkpt lat="41.895412" lon="2.370520">
        <ele>578.81354</ele>
        <time>2021-07-02T14:21:49Z</time>
      </trkpt>
      <trkpt lat="41.895355" lon="2.370964">
        <ele>577.46442</ele>
        <time>2021-07-02T14:21:50Z</time>
      </trkpt>
      <trkpt lat="41.895294" lon="2.371423">
        <ele>575.64252</ele>
        <time>2021-07-02T14:21:51Z</time>
      </trkpt>
      <trkpt lat="41.895222" lon="2.371878">
        <ele>573.75519</ele>
        <time>2021-07-02T14:21:52Z</time>
      </trkpt>
      <trkpt lat="41.895130" lon="2.372336">
        <ele>571.72064</ele>
        <time>2021-07-02T14:21:53Z</time>
      </trkpt>
      <trkpt lat="41.895046" lon="2.372782">
        <ele>570.25873</ele>
        <time>2021-07-02T14:21:54Z</time>
      </trkpt>
      <trkpt lat="41.894939" lon="2.373215">
        <ele>568.41742</ele>
        <time>2021-07-02T14:21:55Z</time>
      </trkpt>
      <trkpt lat="41.894814" lon="2.373705">
        <ele>566.49994</ele>
        <time>2021-07-02T14:21:56Z</time>
      </trkpt>
      <trkpt lat="41.894688" lon="2.374175">
        <ele>565.11432</ele>
        <time>2021-07-02T14:21:57Z</time>
      </trkpt>
      <trkpt lat="41.894562" lon="2.374646">
        <ele>564.23077</ele>
        <time>2021-07-02T14:21:58Z</time>
      </trkpt>
      <trkpt lat="41.894409" lon="2.375108">
        <ele>563.57208</ele>
        <time>2021-07-02T14:21:59Z</time>
      </trkpt>
      <trkpt lat="41.894241" lon="2.375599">
        <ele>563.21466</ele>
        <time>2021-07-02T14:22:00Z</time>
      </trkpt>
      <trkpt lat="41.894085" lon="2.376032">
        <ele>563.25372</ele>
        <time>2021-07-02T14:22:01Z</time>
      </trkpt>
      <trkpt lat="41.893921" lon="2.376495">
        <ele>563.70514</ele>
        <time>2021-07-02T14:22:02Z</time>
      </trkpt>
      <trkpt lat="41.893719" lon="2.376953">
        <ele>564.51056</ele>
        <time>2021-07-02T14:22:03Z</time>
      </trkpt>
      <trkpt lat="41.893501" lon="2.377430">
        <ele>565.77484</ele>
        <time>2021-07-02T14:22:04Z</time>
      </trkpt>
      <trkpt lat="41.893314" lon="2.377822">
        <ele>566.59406</ele>
        <time>2021-07-02T14:22:05Z</time>
      </trkpt>
      <trkpt lat="41.893314" lon="2.377822">
        <ele>567.57025</ele>
        <time>2021-07-02T14:22:06Z</time>
      </trkpt>
      <trkpt lat="41.892860" lon="2.378662">
        <ele>569.13971</ele>
        <time>2021-07-02T14:22:07Z</time>
      </trkpt>
      <trkpt lat="41.892860" lon="2.378662">
        <ele>569.92145</ele>
        <time>2021-07-02T14:22:08Z</time>
      </trkpt>
      <trkpt lat="41.892345" lon="2.379411">
        <ele>572.08234</ele>
        <time>2021-07-02T14:22:09Z</time>
      </trkpt>
      <trkpt lat="41.892345" lon="2.379411">
        <ele>573.22931</ele>
        <time>2021-07-02T14:22:10Z</time>
      </trkpt>
      <trkpt lat="41.892017" lon="2.379815">
        <ele>575.73224</ele>
        <time>2021-07-02T14:22:11Z</time>
      </trkpt>
      <trkpt lat="41.891716" lon="2.380215">
        <ele>577.38629</ele>
        <time>2021-07-02T14:22:12Z</time>
      </trkpt>
      <trkpt lat="41.891468" lon="2.380545">
        <ele>579.73810</ele>
        <time>2021-07-02T14:22:13Z</time>
      </trkpt>
      <trkpt lat="41.891205" lon="2.380941">
        <ele>582.98724</ele>
        <time>2021-07-02T14:22:14Z</time>
      </trkpt>
      <trkpt lat="41.890987" lon="2.381315">
        <ele>585.25836</ele>
        <time>2021-07-02T14:22:15Z</time>
      </trkpt>
      <trkpt lat="41.890793" lon="2.381717">
        <ele>587.30463</ele>
        <time>2021-07-02T14:22:16Z</time>
      </trkpt>
      <trkpt lat="41.890556" lon="2.382188">
        <ele>590.16083</ele>
        <time>2021-07-02T14:22:17Z</time>
      </trkpt>
      <trkpt lat="41.890347" lon="2.382577">
        <ele>591.31476</ele>
        <time>2021-07-02T14:22:18Z</time>
      </trkpt>
      <trkpt lat="41.890121" lon="2.382957">
        <ele>592.63800</ele>
        <time>2021-07-02T14:22:19Z</time>
      </trkpt>
      <trkpt lat="41.889874" lon="2.383282">
        <ele>593.37531</ele>
        <time>2021-07-02T14:22:20Z</time>
      </trkpt>
      <trkpt lat="41.889626" lon="2.383595">
        <ele>593.91583</ele>
        <time>2021-07-02T14:22:21Z</time>
      </trkpt>
      <trkpt lat="41.889339" lon="2.383914">
        <ele>597.68573</ele>
        <time>2021-07-02T14:22:22Z</time>
      </trkpt>
      <trkpt lat="41.889027" lon="2.384266">
        <ele>600.12897</ele>
        <time>2021-07-02T14:22:23Z</time>
      </trkpt>
      <trkpt lat="41.888783" lon="2.384538">
        <ele>602.44000</ele>
        <time>2021-07-02T14:22:24Z</time>
      </trkpt>
      <trkpt lat="41.888542" lon="2.384809">
        <ele>605.03729</ele>
        <time>2021-07-02T14:22:25Z</time>
      </trkpt>
      <trkpt lat="41.888313" lon="2.385100">
        <ele>606.37433</ele>
        <time>2021-07-02T14:22:26Z</time>
      </trkpt>
      <trkpt lat="41.888130" lon="2.385356">
        <ele>608.64069</ele>
        <time>2021-07-02T14:22:27Z</time>
      </trkpt>
      <trkpt lat="41.887955" lon="2.385633">
        <ele>610.61053</ele>
        <time>2021-07-02T14:22:28Z</time>
      </trkpt>
      <trkpt lat="41.887794" lon="2.385923">
        <ele>612.73810</ele>
        <time>2021-07-02T14:22:29Z</time>
      </trkpt>
      <trkpt lat="41.887653" lon="2.386225">
        <ele>613.96100</ele>
        <time>2021-07-02T14:22:30Z</time>
      </trkpt>
      <trkpt lat="41.887527" lon="2.386501">
        <ele>615.25238</ele>
        <time>2021-07-02T14:22:31Z</time>
      </trkpt>
      <trkpt lat="41.887417" lon="2.386741">
        <ele>616.69916</ele>
        <time>2021-07-02T14:22:32Z</time>
      </trkpt>
      <trkpt lat="41.887318" lon="2.386962">
        <ele>618.08527</ele>
        <time>2021-07-02T14:22:33Z</time>
      </trkpt>
      <trkpt lat="41.887203" lon="2.387212">
        <ele>619.09711</ele>
        <time>2021-07-02T14:22:34Z</time>
      </trkpt>
      <trkpt lat="41.887203" lon="2.387212">
        <ele>620.29181</ele>
        <time>2021-07-02T14:22:35Z</time>
      </trkpt>
      <trkpt lat="41.887096" lon="2.387446">
        <ele>621.60028</ele>
        <time>2021-07-02T14:22:36Z</time>
      </trkpt>
      <trkpt lat="41.886978" lon="2.387699">
        <ele>622.73029</ele>
        <time>2021-07-02T14:22:37Z</time>
      </trkpt>
      <trkpt lat="41.886868" lon="2.387925">
        <ele>624.43036</ele>
        <time>2021-07-02T14:22:38Z</time>
      </trkpt>
      <trkpt lat="41.886734" lon="2.388148">
        <ele>625.75128</ele>
        <time>2021-07-02T14:22:39Z</time>
      </trkpt>
      <trkpt lat="41.886509" lon="2.388498">
        <ele>626.57916</ele>
        <time>2021-07-02T14:22:40Z</time>
      </trkpt>
      <trkpt lat="41.886433" lon="2.388599">
        <ele>627.38629</ele>
        <time>2021-07-02T14:22:41Z</time>
      </trkpt>
      <trkpt lat="41.886215" lon="2.388878">
        <ele>629.59467</ele>
        <time>2021-07-02T14:22:42Z</time>
      </trkpt>
      <trkpt lat="41.886097" lon="2.389023">
        <ele>631.07281</ele>
        <time>2021-07-02T14:22:43Z</time>
      </trkpt>
      <trkpt lat="41.885876" lon="2.389258">
        <ele>631.93317</ele>
        <time>2021-07-02T14:22:44Z</time>
      </trkpt>
      <trkpt lat="41.885654" lon="2.389448">
        <ele>634.11139</ele>
        <time>2021-07-02T14:22:45Z</time>
      </trkpt>
      <trkpt lat="41.885426" lon="2.389636">
        <ele>636.68231</ele>
        <time>2021-07-02T14:22:46Z</time>
      </trkpt>
      <trkpt lat="41.885223" lon="2.389777">
        <ele>639.41791</ele>
        <time>2021-07-02T14:22:47Z</time>
      </trkpt>
      <trkpt lat="41.885002" lon="2.389912">
        <ele>640.97125</ele>
        <time>2021-07-02T14:22:48Z</time>
      </trkpt>
      <trkpt lat="41.884781" lon="2.390049">
        <ele>642.90704</ele>
        <time>2021-07-02T14:22:49Z</time>
      </trkpt>
      <trkpt lat="41.884563" lon="2.390180">
        <ele>644.97113</ele>
        <time>2021-07-02T14:22:50Z</time>
      </trkpt>
      <trkpt lat="41.884300" lon="2.390321">
        <ele>646.77570</ele>
        <time>2021-07-02T14:22:51Z</time>
      </trkpt>
      <trkpt lat="41.884056" lon="2.390452">
        <ele>648.58380</ele>
        <time>2021-07-02T14:22:52Z</time>
      </trkpt>
      <trkpt lat="41.883823" lon="2.390576">
        <ele>650.69757</ele>
        <time>2021-07-02T14:22:53Z</time>
      </trkpt>
      <trkpt lat="41.883629" lon="2.390702">
        <ele>652.40802</ele>
        <time>2021-07-02T14:22:54Z</time>
      </trkpt>
      <trkpt lat="41.883411" lon="2.390841">
        <ele>653.06757</ele>
        <time>2021-07-02T14:22:55Z</time>
      </trkpt>
      <trkpt lat="41.883183" lon="2.391015">
        <ele>654.22516</ele>
        <time>2021-07-02T14:22:56Z</time>
      </trkpt>
      <trkpt lat="41.882965" lon="2.391185">
        <ele>655.30646</ele>
        <time>2021-07-02T14:22:57Z</time>
      </trkpt>
      <trkpt lat="41.882748" lon="2.391392">
        <ele>655.52069</ele>
        <time>2021-07-02T14:22:58Z</time>
      </trkpt>
      <trkpt lat="41.882538" lon="2.391597">
        <ele>655.37482</ele>
        <time>2021-07-02T14:22:59Z</time>
      </trkpt>
      <trkpt lat="41.882351" lon="2.391824">
        <ele>655.37482</ele>
        <time>2021-07-02T14:23:00Z</time>
      </trkpt>
      <trkpt lat="41.882187" lon="2.392030">
        <ele>655.37482</ele>
        <time>2021-07-02T14:23:01Z</time>
      </trkpt>
      <trkpt lat="41.882187" lon="2.392030">
        <ele>655.37482</ele>
        <time>2021-07-02T14:23:02Z</time>
      </trkpt>
      <trkpt lat="41.882187" lon="2.392031">
        <ele>655.37482</ele>
        <time>2021-07-02T14:23:03Z</time>
      </trkpt>
      <trkpt lat="41.882187" lon="2.392031">
        <ele>655.37482</ele>
        <time>2021-07-02T14:23:04Z</time>
      </trkpt>
      <trkpt lat="41.882187" lon="2.392031">
        <ele>655.37482</ele>
        <time>2021-07-02T14:23:05Z</time>
      </trkpt>
      <trkpt lat="41.882187" lon="2.392031">
        <ele>655.37482</ele>
        <time>2021-07-02T14:23:06Z</time>
      </trkpt>
      <trkpt lat="41.882187" lon="2.392031">
        <ele>655.37482</ele>
        <time>2021-07-02T14:23:07Z</time>
      </trkpt>
      <trkpt lat="41.882187" lon="2.392031">
        <ele>655.37482</ele>
        <time>2021-07-02T14:23:08Z</time>
      </trkpt>
      <trkpt lat="41.882187" lon="2.392031">
        <ele>655.37482</ele>
        <time>2021-07-02T14:23:09Z</time>
      </trkpt>
      <trkpt lat="41.882187" lon="2.392031">
        <ele>655.37482</ele>
        <time>2021-07-02T14:23:10Z</time>
      </trkpt>
      <trkpt lat="41.882187" lon="2.392031">
        <ele>655.37482</ele>
        <time>2021-07-02T14:23:11Z</time>
      </trkpt>
      <trkpt lat="41.882187" lon="2.392031">
        <ele>655.37482</ele>
        <time>2021-07-02T14:23:12Z</time>
      </trkpt>
      <trkpt lat="41.882187" lon="2.392031">
        <ele>653.91473</ele>
        <time>2021-07-02T14:23:13Z</time>
      </trkpt>
      <trkpt lat="41.882187" lon="2.392031">
        <ele>657.19806</ele>
        <time>2021-07-02T14:23:14Z</time>
      </trkpt>
      <trkpt lat="41.880775" lon="2.395851">
        <ele>659.73859</ele>
        <time>2021-07-02T14:23:15Z</time>
      </trkpt>
      <trkpt lat="41.880688" lon="2.396060">
        <ele>663.78375</ele>
        <time>2021-07-02T14:23:16Z</time>
      </trkpt>
      <trkpt lat="41.880558" lon="2.396340">
        <ele>667.29572</ele>
        <time>2021-07-02T14:23:17Z</time>
      </trkpt>
      <trkpt lat="41.880405" lon="2.396635">
        <ele>669.63654</ele>
        <time>2021-07-02T14:23:18Z</time>
      </trkpt>
      <trkpt lat="41.880222" lon="2.396986">
        <ele>671.56891</ele>
        <time>2021-07-02T14:23:19Z</time>
      </trkpt>
      <trkpt lat="41.880009" lon="2.397364">
        <ele>672.63580</ele>
        <time>2021-07-02T14:23:20Z</time>
      </trkpt>
      <trkpt lat="41.879799" lon="2.397699">
        <ele>675.43524</ele>
        <time>2021-07-02T14:23:21Z</time>
      </trkpt>
      <trkpt lat="41.879570" lon="2.398032">
        <ele>676.42902</ele>
        <time>2021-07-02T14:23:22Z</time>
      </trkpt>
      <trkpt lat="41.879349" lon="2.398345">
        <ele>678.25079</ele>
        <time>2021-07-02T14:23:23Z</time>
      </trkpt>
      <trkpt lat="41.879105" lon="2.398672">
        <ele>679.95551</ele>
        <time>2021-07-02T14:23:24Z</time>
      </trkpt>
      <trkpt lat="41.878880" lon="2.398947">
        <ele>680.91608</ele>
        <time>2021-07-02T14:23:25Z</time>
      </trkpt>
      <trkpt lat="41.878620" lon="2.399247">
        <ele>682.13531</ele>
        <time>2021-07-02T14:23:26Z</time>
      </trkpt>
      <trkpt lat="41.878620" lon="2.399247">
        <ele>682.01544</ele>
        <time>2021-07-02T14:23:27Z</time>
      </trkpt>
      <trkpt lat="41.878361" lon="2.399532">
        <ele>681.58038</ele>
        <time>2021-07-02T14:23:28Z</time>
      </trkpt>
      <trkpt lat="41.878078" lon="2.399816">
        <ele>681.50140</ele>
        <time>2021-07-02T14:23:29Z</time>
      </trkpt>
      <trkpt lat="41.877785" lon="2.400115">
        <ele>681.14117</ele>
        <time>2021-07-02T14:23:30Z</time>
      </trkpt>
      <trkpt lat="41.877426" lon="2.400441">
        <ele>680.99786</ele>
        <time>2021-07-02T14:23:31Z</time>
      </trkpt>
      <trkpt lat="41.877087" lon="2.400750">
        <ele>680.69781</ele>
        <time>2021-07-02T14:23:32Z</time>
      </trkpt>
      <trkpt lat="41.876854" lon="2.400965">
        <ele>681.07721</ele>
        <time>2021-07-02T14:23:33Z</time>
      </trkpt>
      <trkpt lat="41.876659" lon="2.401088">
        <ele>681.01361</ele>
        <time>2021-07-02T14:23:34Z</time>
      </trkpt>
      <trkpt lat="41.876087" lon="2.401634">
        <ele>681.45270</ele>
        <time>2021-07-02T14:23:35Z</time>
      </trkpt>
      <trkpt lat="41.875813" lon="2.401913">
        <ele>682.31915</ele>
        <time>2021-07-02T14:23:36Z</time>
      </trkpt>
      <trkpt lat="41.875504" lon="2.402229">
        <ele>682.28693</ele>
        <time>2021-07-02T14:23:37Z</time>
      </trkpt>
      <trkpt lat="41.875172" lon="2.402591">
        <ele>683.42401</ele>
        <time>2021-07-02T14:23:38Z</time>
      </trkpt>
      <trkpt lat="41.874962" lon="2.403129">
        <ele>685.06891</ele>
        <time>2021-07-02T14:23:39Z</time>
      </trkpt>
      <trkpt lat="41.874706" lon="2.403542">
        <ele>685.96173</ele>
        <time>2021-07-02T14:23:40Z</time>
      </trkpt>
      <trkpt lat="41.874435" lon="2.403994">
        <ele>687.41718</ele>
        <time>2021-07-02T14:23:41Z</time>
      </trkpt>
      <trkpt lat="41.874107" lon="2.404597">
        <ele>688.17242</ele>
        <time>2021-07-02T14:23:42Z</time>
      </trkpt>
      <trkpt lat="41.874107" lon="2.404597">
        <ele>689.03619</ele>
        <time>2021-07-02T14:23:43Z</time>
      </trkpt>
      <trkpt lat="41.874107" lon="2.404597">
        <ele>689.56989</ele>
        <time>2021-07-02T14:23:44Z</time>
      </trkpt>
      <trkpt lat="41.873550" lon="2.405660">
        <ele>690.06696</ele>
        <time>2021-07-02T14:23:45Z</time>
      </trkpt>
      <trkpt lat="41.873550" lon="2.405660">
        <ele>689.32990</ele>
        <time>2021-07-02T14:23:46Z</time>
      </trkpt>
      <trkpt lat="41.873020" lon="2.406418">
        <ele>688.84955</ele>
        <time>2021-07-02T14:23:47Z</time>
      </trkpt>
      <trkpt lat="41.873020" lon="2.406418">
        <ele>688.05450</ele>
        <time>2021-07-02T14:23:48Z</time>
      </trkpt>
      <trkpt lat="41.872784" lon="2.406668">
        <ele>689.02057</ele>
        <time>2021-07-02T14:23:49Z</time>
      </trkpt>
      <trkpt lat="41.872498" lon="2.406932">
        <ele>688.76801</ele>
        <time>2021-07-02T14:23:50Z</time>
      </trkpt>
      <trkpt lat="41.872169" lon="2.407165">
        <ele>688.53278</ele>
        <time>2021-07-02T14:23:51Z</time>
      </trkpt>
      <trkpt lat="41.871857" lon="2.407361">
        <ele>690.39349</ele>
        <time>2021-07-02T14:23:52Z</time>
      </trkpt>
      <trkpt lat="41.871532" lon="2.407511">
        <ele>691.05023</ele>
        <time>2021-07-02T14:23:53Z</time>
      </trkpt>
      <trkpt lat="41.871136" lon="2.407662">
        <ele>692.58246</ele>
        <time>2021-07-02T14:23:54Z</time>
      </trkpt>
      <trkpt lat="41.870792" lon="2.407793">
        <ele>694.49908</ele>
        <time>2021-07-02T14:23:55Z</time>
      </trkpt>
      <trkpt lat="41.870506" lon="2.407918">
        <ele>695.25714</ele>
        <time>2021-07-02T14:23:56Z</time>
      </trkpt>
      <trkpt lat="41.870228" lon="2.408056">
        <ele>696.52008</ele>
        <time>2021-07-02T14:23:57Z</time>
      </trkpt>
      <trkpt lat="41.869904" lon="2.408261">
        <ele>697.56940</ele>
        <time>2021-07-02T14:23:58Z</time>
      </trkpt>
      <trkpt lat="41.869648" lon="2.408459">
        <ele>698.50177</ele>
        <time>2021-07-02T14:23:59Z</time>
      </trkpt>
      <trkpt lat="41.869370" lon="2.408702">
        <ele>699.05780</ele>
        <time>2021-07-02T14:24:00Z</time>
      </trkpt>
      <trkpt lat="41.869122" lon="2.408972">
        <ele>700.45245</ele>
        <time>2021-07-02T14:24:01Z</time>
      </trkpt>
      <trkpt lat="41.868874" lon="2.409279">
        <ele>701.63434</ele>
        <time>2021-07-02T14:24:02Z</time>
      </trkpt>
      <trkpt lat="41.868656" lon="2.409592">
        <ele>702.03644</ele>
        <time>2021-07-02T14:24:03Z</time>
      </trkpt>
      <trkpt lat="41.868462" lon="2.409933">
        <ele>703.24469</ele>
        <time>2021-07-02T14:24:04Z</time>
      </trkpt>
      <trkpt lat="41.868267" lon="2.410276">
        <ele>704.13959</ele>
        <time>2021-07-02T14:24:05Z</time>
      </trkpt>
      <trkpt lat="41.868092" lon="2.410599">
        <ele>705.37531</ele>
        <time>2021-07-02T14:24:06Z</time>
      </trkpt>
      <trkpt lat="41.867901" lon="2.410960">
        <ele>706.20380</ele>
        <time>2021-07-02T14:24:07Z</time>
      </trkpt>
      <trkpt lat="41.867744" lon="2.411253">
        <ele>707.49664</ele>
        <time>2021-07-02T14:24:08Z</time>
      </trkpt>
      <trkpt lat="41.867554" lon="2.411614">
        <ele>708.23932</ele>
        <time>2021-07-02T14:24:09Z</time>
      </trkpt>
      <trkpt lat="41.867393" lon="2.411944">
        <ele>709.51154</ele>
        <time>2021-07-02T14:24:10Z</time>
      </trkpt>
      <trkpt lat="41.867226" lon="2.412325">
        <ele>710.52448</ele>
        <time>2021-07-02T14:24:11Z</time>
      </trkpt>
      <trkpt lat="41.867081" lon="2.412687">
        <ele>712.38776</ele>
        <time>2021-07-02T14:24:12Z</time>
      </trkpt>
      <trkpt lat="41.866974" lon="2.413050">
        <ele>713.52985</ele>
        <time>2021-07-02T14:24:13Z</time>
      </trkpt>
      <trkpt lat="41.866974" lon="2.413050">
        <ele>715.24811</ele>
        <time>2021-07-02T14:24:14Z</time>
      </trkpt>
      <trkpt lat="41.866852" lon="2.413511">
        <ele>716.66534</ele>
        <time>2021-07-02T14:24:15Z</time>
      </trkpt>
      <trkpt lat="41.866741" lon="2.413968">
        <ele>717.74420</ele>
        <time>2021-07-02T14:24:16Z</time>
      </trkpt>
      <trkpt lat="41.866638" lon="2.414413">
        <ele>718.68073</ele>
        <time>2021-07-02T14:24:17Z</time>
      </trkpt>
      <trkpt lat="41.866547" lon="2.414784">
        <ele>719.52130</ele>
        <time>2021-07-02T14:24:18Z</time>
      </trkpt>
      <trkpt lat="41.866436" lon="2.415180">
        <ele>720.77802</ele>
        <time>2021-07-02T14:24:19Z</time>
      </trkpt>
      <trkpt lat="41.866333" lon="2.415520">
        <ele>720.74664</ele>
        <time>2021-07-02T14:24:20Z</time>
      </trkpt>
      <trkpt lat="41.866226" lon="2.415822">
        <ele>720.67377</ele>
        <time>2021-07-02T14:24:21Z</time>
      </trkpt>
      <trkpt lat="41.866077" lon="2.416209">
        <ele>720.67377</ele>
        <time>2021-07-02T14:24:22Z</time>
      </trkpt>
      <trkpt lat="41.865963" lon="2.416504">
        <ele>720.67377</ele>
        <time>2021-07-02T14:24:23Z</time>
      </trkpt>
      <trkpt lat="41.865879" lon="2.416702">
        <ele>720.67377</ele>
        <time>2021-07-02T14:24:24Z</time>
      </trkpt>
      <trkpt lat="41.865879" lon="2.416702">
        <ele>720.67377</ele>
        <time>2021-07-02T14:24:25Z</time>
      </trkpt>
      <trkpt lat="41.865879" lon="2.416702">
        <ele>720.25897</ele>
        <time>2021-07-02T14:24:26Z</time>
      </trkpt>
      <trkpt lat="41.865879" lon="2.416702">
        <ele>721.31696</ele>
        <time>2021-07-02T14:24:27Z</time>
      </trkpt>
      <trkpt lat="41.865417" lon="2.417665">
        <ele>722.81525</ele>
        <time>2021-07-02T14:24:28Z</time>
      </trkpt>
      <trkpt lat="41.865005" lon="2.418358">
        <ele>723.45355</ele>
        <time>2021-07-02T14:24:29Z</time>
      </trkpt>
      <trkpt lat="41.864620" lon="2.418917">
        <ele>723.70026</ele>
        <time>2021-07-02T14:24:30Z</time>
      </trkpt>
      <trkpt lat="41.864357" lon="2.419294">
        <ele>725.05914</ele>
        <time>2021-07-02T14:24:31Z</time>
      </trkpt>
      <trkpt lat="41.864098" lon="2.419654">
        <ele>725.70905</ele>
        <time>2021-07-02T14:24:32Z</time>
      </trkpt>
      <trkpt lat="41.863808" lon="2.420060">
        <ele>725.96893</ele>
        <time>2021-07-02T14:24:33Z</time>
      </trkpt>
      <trkpt lat="41.863552" lon="2.420406">
        <ele>726.57208</ele>
        <time>2021-07-02T14:24:34Z</time>
      </trkpt>
      <trkpt lat="41.863319" lon="2.420719">
        <ele>727.63812</ele>
        <time>2021-07-02T14:24:35Z</time>
      </trkpt>
      <trkpt lat="41.863052" lon="2.421082">
        <ele>728.34894</ele>
        <time>2021-07-02T14:24:36Z</time>
      </trkpt>
      <trkpt lat="41.862797" lon="2.421434">
        <ele>730.38239</ele>
        <time>2021-07-02T14:24:37Z</time>
      </trkpt>
      <trkpt lat="41.862545" lon="2.421774">
        <ele>732.00104</ele>
        <time>2021-07-02T14:24:38Z</time>
      </trkpt>
      <trkpt lat="41.862286" lon="2.422094">
        <ele>733.91827</ele>
        <time>2021-07-02T14:24:39Z</time>
      </trkpt>
      <trkpt lat="41.861996" lon="2.422404">
        <ele>736.62433</ele>
        <time>2021-07-02T14:24:40Z</time>
      </trkpt>
      <trkpt lat="41.861710" lon="2.422666">
        <ele>737.96759</ele>
        <time>2021-07-02T14:24:41Z</time>
      </trkpt>
      <trkpt lat="41.861458" lon="2.422856">
        <ele>739.12482</ele>
        <time>2021-07-02T14:24:42Z</time>
      </trkpt>
      <trkpt lat="41.861088" lon="2.423078">
        <ele>740.61554</ele>
        <time>2021-07-02T14:24:43Z</time>
      </trkpt>
      <trkpt lat="41.861088" lon="2.423078">
        <ele>741.52521</ele>
        <time>2021-07-02T14:24:44Z</time>
      </trkpt>
      <trkpt lat="41.860798" lon="2.423225">
        <ele>742.53851</ele>
        <time>2021-07-02T14:24:45Z</time>
      </trkpt>
      <trkpt lat="41.860424" lon="2.423372">
        <ele>742.43243</ele>
        <time>2021-07-02T14:24:46Z</time>
      </trkpt>
      <trkpt lat="41.860126" lon="2.423480">
        <ele>743.20306</ele>
        <time>2021-07-02T14:24:47Z</time>
      </trkpt>
      <trkpt lat="41.859814" lon="2.423592">
        <ele>744.00494</ele>
        <time>2021-07-02T14:24:48Z</time>
      </trkpt>
      <trkpt lat="41.859444" lon="2.423727">
        <ele>744.42157</ele>
        <time>2021-07-02T14:24:49Z</time>
      </trkpt>
      <trkpt lat="41.859097" lon="2.423856">
        <ele>745.74298</ele>
        <time>2021-07-02T14:24:50Z</time>
      </trkpt>
      <trkpt lat="41.858788" lon="2.423972">
        <ele>746.62848</ele>
        <time>2021-07-02T14:24:51Z</time>
      </trkpt>
      <trkpt lat="41.858429" lon="2.424107">
        <ele>748.21027</ele>
        <time>2021-07-02T14:24:52Z</time>
      </trkpt>
      <trkpt lat="41.858147" lon="2.424215">
        <ele>750.18268</ele>
        <time>2021-07-02T14:24:53Z</time>
      </trkpt>
      <trkpt lat="41.857807" lon="2.424345">
        <ele>752.80597</ele>
        <time>2021-07-02T14:24:54Z</time>
      </trkpt>
      <trkpt lat="41.857410" lon="2.424501">
        <ele>754.62042</ele>
        <time>2021-07-02T14:24:55Z</time>
      </trkpt>
      <trkpt lat="41.857098" lon="2.424655">
        <ele>756.57928</ele>
        <time>2021-07-02T14:24:56Z</time>
      </trkpt>
      <trkpt lat="41.856812" lon="2.424841">
        <ele>758.62946</ele>
        <time>2021-07-02T14:24:57Z</time>
      </trkpt>
      <trkpt lat="41.856499" lon="2.425076">
        <ele>760.94501</ele>
        <time>2021-07-02T14:24:58Z</time>
      </trkpt>
      <trkpt lat="41.856194" lon="2.425361">
        <ele>762.12701</ele>
        <time>2021-07-02T14:24:59Z</time>
      </trkpt>
      <trkpt lat="41.855900" lon="2.425698">
        <ele>764.44928</ele>
        <time>2021-07-02T14:25:00Z</time>
      </trkpt>
      <trkpt lat="41.855637" lon="2.426062">
        <ele>766.66425</ele>
        <time>2021-07-02T14:25:01Z</time>
      </trkpt>
      <trkpt lat="41.855408" lon="2.426436">
        <ele>769.08990</ele>
        <time>2021-07-02T14:25:02Z</time>
      </trkpt>
      <trkpt lat="41.855236" lon="2.426787">
        <ele>771.33246</ele>
        <time>2021-07-02T14:25:03Z</time>
      </trkpt>
      <trkpt lat="41.855034" lon="2.427275">
        <ele>772.00970</ele>
        <time>2021-07-02T14:25:04Z</time>
      </trkpt>
      <trkpt lat="41.854885" lon="2.427760">
        <ele>771.98126</ele>
        <time>2021-07-02T14:25:05Z</time>
      </trkpt>
      <trkpt lat="41.854744" lon="2.428242">
        <ele>774.10480</ele>
        <time>2021-07-02T14:25:06Z</time>
      </trkpt>
      <trkpt lat="41.854744" lon="2.428242">
        <ele>776.82159</ele>
        <time>2021-07-02T14:25:07Z</time>
      </trkpt>
      <trkpt lat="41.854622" lon="2.428752">
        <ele>779.08807</ele>
        <time>2021-07-02T14:25:08Z</time>
      </trkpt>
      <trkpt lat="41.854553" lon="2.429048">
        <ele>781.63190</ele>
        <time>2021-07-02T14:25:09Z</time>
      </trkpt>
      <trkpt lat="41.854469" lon="2.429231">
        <ele>783.39850</ele>
        <time>2021-07-02T14:25:10Z</time>
      </trkpt>
      <trkpt lat="41.854301" lon="2.430152">
        <ele>784.81366</ele>
        <time>2021-07-02T14:25:11Z</time>
      </trkpt>
      <trkpt lat="41.854210" lon="2.430569">
        <ele>787.53448</ele>
        <time>2021-07-02T14:25:12Z</time>
      </trkpt>
      <trkpt lat="41.854137" lon="2.430893">
        <ele>789.49860</ele>
        <time>2021-07-02T14:25:13Z</time>
      </trkpt>
      <trkpt lat="41.854034" lon="2.431350">
        <ele>791.38934</ele>
        <time>2021-07-02T14:25:14Z</time>
      </trkpt>
      <trkpt lat="41.853951" lon="2.431779">
        <ele>793.33868</ele>
        <time>2021-07-02T14:25:15Z</time>
      </trkpt>
      <trkpt lat="41.853951" lon="2.431779">
        <ele>795.33368</ele>
        <time>2021-07-02T14:25:16Z</time>
      </trkpt>
      <trkpt lat="41.853951" lon="2.431779">
        <ele>796.99200</ele>
        <time>2021-07-02T14:25:17Z</time>
      </trkpt>
      <trkpt lat="41.853737" lon="2.432992">
        <ele>798.56146</ele>
        <time>2021-07-02T14:25:18Z</time>
      </trkpt>
      <trkpt lat="41.853680" lon="2.433402">
        <ele>799.93756</ele>
        <time>2021-07-02T14:25:19Z</time>
      </trkpt>
      <trkpt lat="41.853634" lon="2.433791">
        <ele>800.94098</ele>
        <time>2021-07-02T14:25:20Z</time>
      </trkpt>
      <trkpt lat="41.853596" lon="2.434155">
        <ele>801.83771</ele>
        <time>2021-07-02T14:25:21Z</time>
      </trkpt>
      <trkpt lat="41.853569" lon="2.434483">
        <ele>802.86212</ele>
        <time>2021-07-02T14:25:22Z</time>
      </trkpt>
      <trkpt lat="41.853539" lon="2.434861">
        <ele>803.44781</ele>
        <time>2021-07-02T14:25:23Z</time>
      </trkpt>
      <trkpt lat="41.853512" lon="2.435200">
        <ele>804.00348</ele>
        <time>2021-07-02T14:25:24Z</time>
      </trkpt>
      <trkpt lat="41.853497" lon="2.435587">
        <ele>804.09479</ele>
        <time>2021-07-02T14:25:25Z</time>
      </trkpt>
      <trkpt lat="41.853481" lon="2.435916">
        <ele>804.04974</ele>
        <time>2021-07-02T14:25:26Z</time>
      </trkpt>
      <trkpt lat="41.853462" lon="2.436300">
        <ele>804.15900</ele>
        <time>2021-07-02T14:25:27Z</time>
      </trkpt>
      <trkpt lat="41.853451" lon="2.436687">
        <ele>804.45612</ele>
        <time>2021-07-02T14:25:28Z</time>
      </trkpt>
      <trkpt lat="41.853432" lon="2.437124">
        <ele>804.38434</ele>
        <time>2021-07-02T14:25:29Z</time>
      </trkpt>
      <trkpt lat="41.853416" lon="2.437553">
        <ele>804.12860</ele>
        <time>2021-07-02T14:25:30Z</time>
      </trkpt>
      <trkpt lat="41.853416" lon="2.437553">
        <ele>803.56305</ele>
        <time>2021-07-02T14:25:31Z</time>
      </trkpt>
      <trkpt lat="41.853397" lon="2.438003">
        <ele>802.26422</ele>
        <time>2021-07-02T14:25:32Z</time>
      </trkpt>
      <trkpt lat="41.853367" lon="2.438445">
        <ele>801.47491</ele>
        <time>2021-07-02T14:25:33Z</time>
      </trkpt>
      <trkpt lat="41.853336" lon="2.438879">
        <ele>800.47833</ele>
        <time>2021-07-02T14:25:34Z</time>
      </trkpt>
      <trkpt lat="41.853291" lon="2.439320">
        <ele>799.38666</ele>
        <time>2021-07-02T14:25:35Z</time>
      </trkpt>
      <trkpt lat="41.853226" lon="2.439757">
        <ele>797.75226</ele>
        <time>2021-07-02T14:25:36Z</time>
      </trkpt>
      <trkpt lat="41.853153" lon="2.440207">
        <ele>796.04633</ele>
        <time>2021-07-02T14:25:37Z</time>
      </trkpt>
      <trkpt lat="41.853065" lon="2.440665">
        <ele>794.20831</ele>
        <time>2021-07-02T14:25:38Z</time>
      </trkpt>
      <trkpt lat="41.852959" lon="2.441132">
        <ele>792.39557</ele>
        <time>2021-07-02T14:25:39Z</time>
      </trkpt>
      <trkpt lat="41.852825" lon="2.441623">
        <ele>790.50250</ele>
        <time>2021-07-02T14:25:40Z</time>
      </trkpt>
      <trkpt lat="41.852669" lon="2.442149">
        <ele>787.80206</ele>
        <time>2021-07-02T14:25:41Z</time>
      </trkpt>
      <trkpt lat="41.852501" lon="2.442659">
        <ele>786.10919</ele>
        <time>2021-07-02T14:25:42Z</time>
      </trkpt>
      <trkpt lat="41.852306" lon="2.443184">
        <ele>784.37115</ele>
        <time>2021-07-02T14:25:43Z</time>
      </trkpt>
      <trkpt lat="41.852112" lon="2.443653">
        <ele>783.46124</ele>
        <time>2021-07-02T14:25:44Z</time>
      </trkpt>
      <trkpt lat="41.851902" lon="2.444151">
        <ele>781.72809</ele>
        <time>2021-07-02T14:25:45Z</time>
      </trkpt>
      <trkpt lat="41.851715" lon="2.444616">
        <ele>780.38873</ele>
        <time>2021-07-02T14:25:46Z</time>
      </trkpt>
      <trkpt lat="41.851559" lon="2.445089">
        <ele>779.07013</ele>
        <time>2021-07-02T14:25:47Z</time>
      </trkpt>
      <trkpt lat="41.851475" lon="2.445508">
        <ele>778.44586</ele>
        <time>2021-07-02T14:25:48Z</time>
      </trkpt>
      <trkpt lat="41.851421" lon="2.445948">
        <ele>777.14508</ele>
        <time>2021-07-02T14:25:49Z</time>
      </trkpt>
      <trkpt lat="41.851410" lon="2.446435">
        <ele>775.26971</ele>
        <time>2021-07-02T14:25:50Z</time>
      </trkpt>
      <trkpt lat="41.851444" lon="2.446940">
        <ele>773.64728</ele>
        <time>2021-07-02T14:25:51Z</time>
      </trkpt>
      <trkpt lat="41.851509" lon="2.447431">
        <ele>773.06647</ele>
        <time>2021-07-02T14:25:52Z</time>
      </trkpt>
      <trkpt lat="41.851616" lon="2.447905">
        <ele>770.63068</ele>
        <time>2021-07-02T14:25:53Z</time>
      </trkpt>
      <trkpt lat="41.851765" lon="2.448477">
        <ele>770.63068</ele>
        <time>2021-07-02T14:25:54Z</time>
      </trkpt>
      <trkpt lat="41.851765" lon="2.448477">
        <ele>770.63068</ele>
        <time>2021-07-02T14:25:55Z</time>
      </trkpt>
      <trkpt lat="41.851883" lon="2.448877">
        <ele>770.63068</ele>
        <time>2021-07-02T14:25:56Z</time>
      </trkpt>
      <trkpt lat="41.851894" lon="2.448915">
        <ele>770.63068</ele>
        <time>2021-07-02T14:25:57Z</time>
      </trkpt>
      <trkpt lat="41.851894" lon="2.448915">
        <ele>766.23883</ele>
        <time>2021-07-02T14:25:58Z</time>
      </trkpt>
      <trkpt lat="41.851963" lon="2.449136">
        <ele>766.23883</ele>
        <time>2021-07-02T14:25:59Z</time>
      </trkpt>
      <trkpt lat="41.852104" lon="2.449600">
        <ele>766.23883</ele>
        <time>2021-07-02T14:26:00Z</time>
      </trkpt>
      <trkpt lat="41.852154" lon="2.449770">
        <ele>761.61652</ele>
        <time>2021-07-02T14:26:01Z</time>
      </trkpt>
      <trkpt lat="41.852268" lon="2.450264">
        <ele>759.32440</ele>
        <time>2021-07-02T14:26:02Z</time>
      </trkpt>
      <trkpt lat="41.852345" lon="2.451011">
        <ele>759.32440</ele>
        <time>2021-07-02T14:26:03Z</time>
      </trkpt>
      <trkpt lat="41.852333" lon="2.451489">
        <ele>759.32440</ele>
        <time>2021-07-02T14:26:04Z</time>
      </trkpt>
      <trkpt lat="41.852333" lon="2.451489">
        <ele>759.08380</ele>
        <time>2021-07-02T14:26:05Z</time>
      </trkpt>
      <trkpt lat="41.852306" lon="2.451706">
        <ele>758.12543</ele>
        <time>2021-07-02T14:26:06Z</time>
      </trkpt>
      <trkpt lat="41.852123" lon="2.452539">
        <ele>758.03607</ele>
        <time>2021-07-02T14:26:07Z</time>
      </trkpt>
      <trkpt lat="41.851704" lon="2.453435">
        <ele>758.27753</ele>
        <time>2021-07-02T14:26:08Z</time>
      </trkpt>
      <trkpt lat="41.851402" lon="2.453834">
        <ele>758.20209</ele>
        <time>2021-07-02T14:26:09Z</time>
      </trkpt>
      <trkpt lat="41.851173" lon="2.454068">
        <ele>758.31573</ele>
        <time>2021-07-02T14:26:10Z</time>
      </trkpt>
      <trkpt lat="41.850922" lon="2.454318">
        <ele>757.99713</ele>
        <time>2021-07-02T14:26:11Z</time>
      </trkpt>
      <trkpt lat="41.850708" lon="2.454517">
        <ele>757.92584</ele>
        <time>2021-07-02T14:26:12Z</time>
      </trkpt>
      <trkpt lat="41.850468" lon="2.454743">
        <ele>757.84967</ele>
        <time>2021-07-02T14:26:13Z</time>
      </trkpt>
      <trkpt lat="41.850235" lon="2.454959">
        <ele>757.84967</ele>
        <time>2021-07-02T14:26:14Z</time>
      </trkpt>
      <trkpt lat="41.850235" lon="2.454959">
        <ele>757.84967</ele>
        <time>2021-07-02T14:26:15Z</time>
      </trkpt>
      <trkpt lat="41.850044" lon="2.455139">
        <ele>757.84967</ele>
        <time>2021-07-02T14:26:16Z</time>
      </trkpt>
      <trkpt lat="41.850044" lon="2.455139">
        <ele>757.84967</ele>
        <time>2021-07-02T14:26:17Z</time>
      </trkpt>
      <trkpt lat="41.850044" lon="2.455139">
        <ele>757.84967</ele>
        <time>2021-07-02T14:26:18Z</time>
      </trkpt>
      <trkpt lat="41.850044" lon="2.455139">
        <ele>757.84967</ele>
        <time>2021-07-02T14:26:19Z</time>
      </trkpt>
      <trkpt lat="41.850044" lon="2.455139">
        <ele>757.84967</ele>
        <time>2021-07-02T14:26:20Z</time>
      </trkpt>
      <trkpt lat="41.850044" lon="2.455139">
        <ele>757.94586</ele>
        <time>2021-07-02T14:26:21Z</time>
      </trkpt>
      <trkpt lat="41.850044" lon="2.455139">
        <ele>756.59991</ele>
        <time>2021-07-02T14:26:22Z</time>
      </trkpt>
      <trkpt lat="41.849621" lon="2.455551">
        <ele>755.34442</ele>
        <time>2021-07-02T14:26:23Z</time>
      </trkpt>
      <trkpt lat="41.848988" lon="2.456289">
        <ele>755.34442</ele>
        <time>2021-07-02T14:26:24Z</time>
      </trkpt>
      <trkpt lat="41.848557" lon="2.457002">
        <ele>755.34442</ele>
        <time>2021-07-02T14:26:25Z</time>
      </trkpt>
      <trkpt lat="41.848385" lon="2.457340">
        <ele>753.13214</ele>
        <time>2021-07-02T14:26:26Z</time>
      </trkpt>
      <trkpt lat="41.847889" lon="2.458229">
        <ele>752.13922</ele>
        <time>2021-07-02T14:26:27Z</time>
      </trkpt>
      <trkpt lat="41.847591" lon="2.458641">
        <ele>752.26691</ele>
        <time>2021-07-02T14:26:28Z</time>
      </trkpt>
      <trkpt lat="41.847305" lon="2.458963">
        <ele>750.86407</ele>
        <time>2021-07-02T14:26:29Z</time>
      </trkpt>
      <trkpt lat="41.846996" lon="2.459255">
        <ele>747.24518</ele>
        <time>2021-07-02T14:26:30Z</time>
      </trkpt>
      <trkpt lat="41.846676" lon="2.459496">
        <ele>746.18463</ele>
        <time>2021-07-02T14:26:31Z</time>
      </trkpt>
      <trkpt lat="41.846344" lon="2.459691">
        <ele>745.10028</ele>
        <time>2021-07-02T14:26:32Z</time>
      </trkpt>
      <trkpt lat="41.845928" lon="2.459924">
        <ele>743.80499</ele>
        <time>2021-07-02T14:26:33Z</time>
      </trkpt>
      <trkpt lat="41.845558" lon="2.460132">
        <ele>741.62677</ele>
        <time>2021-07-02T14:26:34Z</time>
      </trkpt>
      <trkpt lat="41.845261" lon="2.460329">
        <ele>740.15155</ele>
        <time>2021-07-02T14:26:35Z</time>
      </trkpt>
      <trkpt lat="41.844955" lon="2.460595">
        <ele>739.84528</ele>
        <time>2021-07-02T14:26:36Z</time>
      </trkpt>
      <trkpt lat="41.844955" lon="2.460595">
        <ele>739.11969</ele>
        <time>2021-07-02T14:26:37Z</time>
      </trkpt>
      <trkpt lat="41.844418" lon="2.461243">
        <ele>739.23688</ele>
        <time>2021-07-02T14:26:38Z</time>
      </trkpt>
      <trkpt lat="41.844418" lon="2.461243">
        <ele>739.02911</ele>
        <time>2021-07-02T14:26:39Z</time>
      </trkpt>
      <trkpt lat="41.844193" lon="2.461618">
        <ele>737.57440</ele>
        <time>2021-07-02T14:26:40Z</time>
      </trkpt>
      <trkpt lat="41.843975" lon="2.462051">
        <ele>736.36664</ele>
        <time>2021-07-02T14:26:41Z</time>
      </trkpt>
      <trkpt lat="41.843697" lon="2.462734">
        <ele>735.67047</ele>
        <time>2021-07-02T14:26:42Z</time>
      </trkpt>
      <trkpt lat="41.843639" lon="2.462898">
        <ele>733.21222</ele>
        <time>2021-07-02T14:26:43Z</time>
      </trkpt>
      <trkpt lat="41.843475" lon="2.463445">
        <ele>731.79523</ele>
        <time>2021-07-02T14:26:44Z</time>
      </trkpt>
      <trkpt lat="41.843361" lon="2.463909">
        <ele>729.83636</ele>
        <time>2021-07-02T14:26:45Z</time>
      </trkpt>
      <trkpt lat="41.843266" lon="2.464403">
        <ele>728.92401</ele>
        <time>2021-07-02T14:26:46Z</time>
      </trkpt>
      <trkpt lat="41.843208" lon="2.464878">
        <ele>727.59430</ele>
        <time>2021-07-02T14:26:47Z</time>
      </trkpt>
      <trkpt lat="41.843174" lon="2.465337">
        <ele>727.20587</ele>
        <time>2021-07-02T14:26:48Z</time>
      </trkpt>
      <trkpt lat="41.843159" lon="2.465908">
        <ele>727.17340</ele>
        <time>2021-07-02T14:26:49Z</time>
      </trkpt>
      <trkpt lat="41.843189" lon="2.466410">
        <ele>726.98578</ele>
        <time>2021-07-02T14:26:50Z</time>
      </trkpt>
      <trkpt lat="41.843246" lon="2.466875">
        <ele>724.44293</ele>
        <time>2021-07-02T14:26:51Z</time>
      </trkpt>
      <trkpt lat="41.843338" lon="2.467352">
        <ele>722.12262</ele>
        <time>2021-07-02T14:26:52Z</time>
      </trkpt>
      <trkpt lat="41.843483" lon="2.467893">
        <ele>719.99493</ele>
        <time>2021-07-02T14:26:53Z</time>
      </trkpt>
      <trkpt lat="41.843674" lon="2.468413">
        <ele>719.15656</ele>
        <time>2021-07-02T14:26:54Z</time>
      </trkpt>
      <trkpt lat="41.843891" lon="2.468880">
        <ele>717.05170</ele>
        <time>2021-07-02T14:26:55Z</time>
      </trkpt>
      <trkpt lat="41.844101" lon="2.469254">
        <ele>715.52838</ele>
        <time>2021-07-02T14:26:56Z</time>
      </trkpt>
      <trkpt lat="41.844398" lon="2.469679">
        <ele>713.29352</ele>
        <time>2021-07-02T14:26:57Z</time>
      </trkpt>
      <trkpt lat="41.844704" lon="2.470081">
        <ele>710.53937</ele>
        <time>2021-07-02T14:26:58Z</time>
      </trkpt>
      <trkpt lat="41.844982" lon="2.470439">
        <ele>708.07355</ele>
        <time>2021-07-02T14:26:59Z</time>
      </trkpt>
      <trkpt lat="41.845291" lon="2.470841">
        <ele>705.55206</ele>
        <time>2021-07-02T14:27:00Z</time>
      </trkpt>
      <trkpt lat="41.845291" lon="2.470841">
        <ele>703.74774</ele>
        <time>2021-07-02T14:27:01Z</time>
      </trkpt>
      <trkpt lat="41.845612" lon="2.471252">
        <ele>701.95221</ele>
        <time>2021-07-02T14:27:02Z</time>
      </trkpt>
      <trkpt lat="41.845905" lon="2.471633">
        <ele>699.58563</ele>
        <time>2021-07-02T14:27:03Z</time>
      </trkpt>
      <trkpt lat="41.846203" lon="2.472015">
        <ele>697.64386</ele>
        <time>2021-07-02T14:27:04Z</time>
      </trkpt>
      <trkpt lat="41.846485" lon="2.472378">
        <ele>695.57843</ele>
        <time>2021-07-02T14:27:05Z</time>
      </trkpt>
      <trkpt lat="41.846745" lon="2.472708">
        <ele>693.46246</ele>
        <time>2021-07-02T14:27:06Z</time>
      </trkpt>
      <trkpt lat="41.847057" lon="2.473106">
        <ele>691.99835</ele>
        <time>2021-07-02T14:27:07Z</time>
      </trkpt>
      <trkpt lat="41.847305" lon="2.473420">
        <ele>689.83356</ele>
        <time>2021-07-02T14:27:08Z</time>
      </trkpt>
      <trkpt lat="41.847595" lon="2.473788">
        <ele>688.18219</ele>
        <time>2021-07-02T14:27:09Z</time>
      </trkpt>
      <trkpt lat="41.847843" lon="2.474106">
        <ele>686.65521</ele>
        <time>2021-07-02T14:27:10Z</time>
      </trkpt>
      <trkpt lat="41.848068" lon="2.474386">
        <ele>685.28180</ele>
        <time>2021-07-02T14:27:11Z</time>
      </trkpt>
      <trkpt lat="41.848358" lon="2.474703">
        <ele>683.52155</ele>
        <time>2021-07-02T14:27:12Z</time>
      </trkpt>
      <trkpt lat="41.848618" lon="2.474973">
        <ele>682.07159</ele>
        <time>2021-07-02T14:27:13Z</time>
      </trkpt>
      <trkpt lat="41.848919" lon="2.475264">
        <ele>681.12347</ele>
        <time>2021-07-02T14:27:14Z</time>
      </trkpt>
      <trkpt lat="41.849201" lon="2.475524">
        <ele>679.55524</ele>
        <time>2021-07-02T14:27:15Z</time>
      </trkpt>
      <trkpt lat="41.849506" lon="2.475796">
        <ele>678.32672</ele>
        <time>2021-07-02T14:27:16Z</time>
      </trkpt>
      <trkpt lat="41.849812" lon="2.476068">
        <ele>677.00446</ele>
        <time>2021-07-02T14:27:17Z</time>
      </trkpt>
      <trkpt lat="41.850124" lon="2.476351">
        <ele>675.57111</ele>
        <time>2021-07-02T14:27:18Z</time>
      </trkpt>
      <trkpt lat="41.850445" lon="2.476637">
        <ele>674.17059</ele>
        <time>2021-07-02T14:27:19Z</time>
      </trkpt>
      <trkpt lat="41.850750" lon="2.476907">
        <ele>672.89825</ele>
        <time>2021-07-02T14:27:20Z</time>
      </trkpt>
      <trkpt lat="41.851051" lon="2.477167">
        <ele>671.75494</ele>
        <time>2021-07-02T14:27:21Z</time>
      </trkpt>
      <trkpt lat="41.851334" lon="2.477424">
        <ele>670.41119</ele>
        <time>2021-07-02T14:27:22Z</time>
      </trkpt>
      <trkpt lat="41.851597" lon="2.477681">
        <ele>669.53595</ele>
        <time>2021-07-02T14:27:23Z</time>
      </trkpt>
      <trkpt lat="41.851837" lon="2.477938">
        <ele>668.53180</ele>
        <time>2021-07-02T14:27:24Z</time>
      </trkpt>
      <trkpt lat="41.852081" lon="2.478247">
        <ele>666.68756</ele>
        <time>2021-07-02T14:27:25Z</time>
      </trkpt>
      <trkpt lat="41.852291" lon="2.478569">
        <ele>665.00177</ele>
        <time>2021-07-02T14:27:26Z</time>
      </trkpt>
      <trkpt lat="41.852493" lon="2.478915">
        <ele>664.26056</ele>
        <time>2021-07-02T14:27:27Z</time>
      </trkpt>
      <trkpt lat="41.852657" lon="2.479255">
        <ele>663.38629</ele>
        <time>2021-07-02T14:27:28Z</time>
      </trkpt>
      <trkpt lat="41.852657" lon="2.479255">
        <ele>662.39996</ele>
        <time>2021-07-02T14:27:29Z</time>
      </trkpt>
      <trkpt lat="41.852840" lon="2.479727">
        <ele>661.11456</ele>
        <time>2021-07-02T14:27:30Z</time>
      </trkpt>
      <trkpt lat="41.852959" lon="2.480123">
        <ele>659.76813</ele>
        <time>2021-07-02T14:27:31Z</time>
      </trkpt>
      <trkpt lat="41.853100" lon="2.480670">
        <ele>658.40594</ele>
        <time>2021-07-02T14:27:32Z</time>
      </trkpt>
      <trkpt lat="41.853203" lon="2.481161">
        <ele>657.24481</ele>
        <time>2021-07-02T14:27:33Z</time>
      </trkpt>
      <trkpt lat="41.853287" lon="2.481637">
        <ele>656.06818</ele>
        <time>2021-07-02T14:27:34Z</time>
      </trkpt>
      <trkpt lat="41.853348" lon="2.482142">
        <ele>654.76825</ele>
        <time>2021-07-02T14:27:35Z</time>
      </trkpt>
      <trkpt lat="41.853390" lon="2.482645">
        <ele>653.69562</ele>
        <time>2021-07-02T14:27:36Z</time>
      </trkpt>
      <trkpt lat="41.853413" lon="2.483129">
        <ele>652.55511</ele>
        <time>2021-07-02T14:27:37Z</time>
      </trkpt>
      <trkpt lat="41.853413" lon="2.483646">
        <ele>651.63336</ele>
        <time>2021-07-02T14:27:38Z</time>
      </trkpt>
      <trkpt lat="41.853401" lon="2.484121">
        <ele>650.80865</ele>
        <time>2021-07-02T14:27:39Z</time>
      </trkpt>
      <trkpt lat="41.853378" lon="2.484521">
        <ele>650.57574</ele>
        <time>2021-07-02T14:27:40Z</time>
      </trkpt>
      <trkpt lat="41.853325" lon="2.485065">
        <ele>650.36603</ele>
        <time>2021-07-02T14:27:41Z</time>
      </trkpt>
      <trkpt lat="41.853275" lon="2.485595">
        <ele>650.06073</ele>
        <time>2021-07-02T14:27:42Z</time>
      </trkpt>
      <trkpt lat="41.853230" lon="2.486089">
        <ele>648.99261</ele>
        <time>2021-07-02T14:27:43Z</time>
      </trkpt>
      <trkpt lat="41.853176" lon="2.486630">
        <ele>647.23749</ele>
        <time>2021-07-02T14:27:44Z</time>
      </trkpt>
      <trkpt lat="41.853130" lon="2.487123">
        <ele>646.39923</ele>
        <time>2021-07-02T14:27:45Z</time>
      </trkpt>
      <trkpt lat="41.853085" lon="2.487566">
        <ele>645.72247</ele>
        <time>2021-07-02T14:27:46Z</time>
      </trkpt>
      <trkpt lat="41.853043" lon="2.488019">
        <ele>645.15485</ele>
        <time>2021-07-02T14:27:47Z</time>
      </trkpt>
      <trkpt lat="41.853001" lon="2.488422">
        <ele>644.65240</ele>
        <time>2021-07-02T14:27:48Z</time>
      </trkpt>
      <trkpt lat="41.852959" lon="2.488879">
        <ele>643.64215</ele>
        <time>2021-07-02T14:27:49Z</time>
      </trkpt>
      <trkpt lat="41.852913" lon="2.489327">
        <ele>642.93829</ele>
        <time>2021-07-02T14:27:50Z</time>
      </trkpt>
      <trkpt lat="41.852867" lon="2.489790">
        <ele>642.07172</ele>
        <time>2021-07-02T14:27:51Z</time>
      </trkpt>
      <trkpt lat="41.852821" lon="2.490254">
        <ele>640.20636</ele>
        <time>2021-07-02T14:27:52Z</time>
      </trkpt>
      <trkpt lat="41.852772" lon="2.490758">
        <ele>639.36871</ele>
        <time>2021-07-02T14:27:53Z</time>
      </trkpt>
      <trkpt lat="41.852726" lon="2.491178">
        <ele>637.45209</ele>
        <time>2021-07-02T14:27:54Z</time>
      </trkpt>
      <trkpt lat="41.852657" lon="2.491687">
        <ele>636.51276</ele>
        <time>2021-07-02T14:27:55Z</time>
      </trkpt>
      <trkpt lat="41.852566" lon="2.492150">
        <ele>635.70831</ele>
        <time>2021-07-02T14:27:56Z</time>
      </trkpt>
      <trkpt lat="41.852470" lon="2.492533">
        <ele>634.45612</ele>
        <time>2021-07-02T14:27:57Z</time>
      </trkpt>
      <trkpt lat="41.852322" lon="2.493026">
        <ele>633.86993</ele>
        <time>2021-07-02T14:27:58Z</time>
      </trkpt>
      <trkpt lat="41.852158" lon="2.493480">
        <ele>633.60992</ele>
        <time>2021-07-02T14:27:59Z</time>
      </trkpt>
      <trkpt lat="41.852158" lon="2.493480">
        <ele>633.12360</ele>
        <time>2021-07-02T14:28:00Z</time>
      </trkpt>
      <trkpt lat="41.852013" lon="2.493834">
        <ele>632.43536</ele>
        <time>2021-07-02T14:28:01Z</time>
      </trkpt>
      <trkpt lat="41.851818" lon="2.494302">
        <ele>631.63043</ele>
        <time>2021-07-02T14:28:02Z</time>
      </trkpt>
      <trkpt lat="41.851688" lon="2.494655">
        <ele>630.71906</ele>
        <time>2021-07-02T14:28:03Z</time>
      </trkpt>
      <trkpt lat="41.851562" lon="2.495063">
        <ele>630.26495</ele>
        <time>2021-07-02T14:28:04Z</time>
      </trkpt>
      <trkpt lat="41.851456" lon="2.495497">
        <ele>630.04694</ele>
        <time>2021-07-02T14:28:05Z</time>
      </trkpt>
      <trkpt lat="41.851379" lon="2.495932">
        <ele>630.04999</ele>
        <time>2021-07-02T14:28:06Z</time>
      </trkpt>
      <trkpt lat="41.851326" lon="2.496362">
        <ele>628.28253</ele>
        <time>2021-07-02T14:28:07Z</time>
      </trkpt>
      <trkpt lat="41.851303" lon="2.496786">
        <ele>626.95734</ele>
        <time>2021-07-02T14:28:08Z</time>
      </trkpt>
      <trkpt lat="41.851288" lon="2.497243">
        <ele>625.80072</ele>
        <time>2021-07-02T14:28:09Z</time>
      </trkpt>
      <trkpt lat="41.851303" lon="2.497613">
        <ele>624.25116</ele>
        <time>2021-07-02T14:28:10Z</time>
      </trkpt>
      <trkpt lat="41.851345" lon="2.498000">
        <ele>622.85895</ele>
        <time>2021-07-02T14:28:11Z</time>
      </trkpt>
      <trkpt lat="41.851395" lon="2.498374">
        <ele>621.97760</ele>
        <time>2021-07-02T14:28:12Z</time>
      </trkpt>
      <trkpt lat="41.851501" lon="2.498985">
        <ele>620.58600</ele>
        <time>2021-07-02T14:28:13Z</time>
      </trkpt>
      <trkpt lat="41.851505" lon="2.499014">
        <ele>619.14642</ele>
        <time>2021-07-02T14:28:14Z</time>
      </trkpt>
      <trkpt lat="41.851624" lon="2.499855">
        <ele>617.35236</ele>
        <time>2021-07-02T14:28:15Z</time>
      </trkpt>
      <trkpt lat="41.851677" lon="2.500131">
        <ele>615.79718</ele>
        <time>2021-07-02T14:28:16Z</time>
      </trkpt>
      <trkpt lat="41.851677" lon="2.500131">
        <ele>613.00677</ele>
        <time>2021-07-02T14:28:17Z</time>
      </trkpt>
      <trkpt lat="41.851952" lon="2.500390">
        <ele>612.63409</ele>
        <time>2021-07-02T14:28:18Z</time>
      </trkpt>
      <trkpt lat="41.852234" lon="2.500966">
        <ele>612.67975</ele>
        <time>2021-07-02T14:28:19Z</time>
      </trkpt>
      <trkpt lat="41.852234" lon="2.500966">
        <ele>612.67975</ele>
        <time>2021-07-02T14:28:20Z</time>
      </trkpt>
      <trkpt lat="41.852379" lon="2.501232">
        <ele>612.67975</ele>
        <time>2021-07-02T14:28:21Z</time>
      </trkpt>
      <trkpt lat="41.852501" lon="2.501457">
        <ele>612.67975</ele>
        <time>2021-07-02T14:28:22Z</time>
      </trkpt>
      <trkpt lat="41.852501" lon="2.501457">
        <ele>612.67975</ele>
        <time>2021-07-02T14:28:23Z</time>
      </trkpt>
      <trkpt lat="41.852501" lon="2.501457">
        <ele>612.67975</ele>
        <time>2021-07-02T14:28:24Z</time>
      </trkpt>
      <trkpt lat="41.852501" lon="2.501457">
        <ele>612.67975</ele>
        <time>2021-07-02T14:28:25Z</time>
      </trkpt>
      <trkpt lat="41.852501" lon="2.501457">
        <ele>612.67975</ele>
        <time>2021-07-02T14:28:26Z</time>
      </trkpt>
      <trkpt lat="41.852501" lon="2.501457">
        <ele>612.67975</ele>
        <time>2021-07-02T14:28:27Z</time>
      </trkpt>
      <trkpt lat="41.852501" lon="2.501457">
        <ele>612.67975</ele>
        <time>2021-07-02T14:28:28Z</time>
      </trkpt>
      <trkpt lat="41.852501" lon="2.501457">
        <ele>612.67975</ele>
        <time>2021-07-02T14:28:29Z</time>
      </trkpt>
      <trkpt lat="41.852501" lon="2.501457">
        <ele>612.67975</ele>
        <time>2021-07-02T14:28:30Z</time>
      </trkpt>
      <trkpt lat="41.852501" lon="2.501457">
        <ele>612.67975</ele>
        <time>2021-07-02T14:28:31Z</time>
      </trkpt>
      <trkpt lat="41.852501" lon="2.501457">
        <ele>612.67975</ele>
        <time>2021-07-02T14:28:32Z</time>
      </trkpt>
      <trkpt lat="41.852501" lon="2.501457">
        <ele>612.67975</ele>
        <time>2021-07-02T14:28:33Z</time>
      </trkpt>
      <trkpt lat="41.852501" lon="2.501457">
        <ele>612.67975</ele>
        <time>2021-07-02T14:28:34Z</time>
      </trkpt>
      <trkpt lat="41.852501" lon="2.501457">
        <ele>612.67975</ele>
        <time>2021-07-02T14:28:35Z</time>
      </trkpt>
      <trkpt lat="41.854656" lon="2.504080">
        <ele>612.40778</ele>
        <time>2021-07-02T14:28:36Z</time>
      </trkpt>
      <trkpt lat="41.854656" lon="2.504080">
        <ele>611.92780</ele>
        <time>2021-07-02T14:28:37Z</time>
      </trkpt>
      <trkpt lat="41.854782" lon="2.504172">
        <ele>607.46368</ele>
        <time>2021-07-02T14:28:38Z</time>
      </trkpt>
      <trkpt lat="41.856117" lon="2.505068">
        <ele>603.89557</ele>
        <time>2021-07-02T14:28:39Z</time>
      </trkpt>
      <trkpt lat="41.856396" lon="2.505246">
        <ele>600.32599</ele>
        <time>2021-07-02T14:28:40Z</time>
      </trkpt>
      <trkpt lat="41.856651" lon="2.505422">
        <ele>597.10431</ele>
        <time>2021-07-02T14:28:41Z</time>
      </trkpt>
      <trkpt lat="41.856907" lon="2.505613">
        <ele>592.61676</ele>
        <time>2021-07-02T14:28:42Z</time>
      </trkpt>
      <trkpt lat="41.857140" lon="2.505807">
        <ele>589.01935</ele>
        <time>2021-07-02T14:28:43Z</time>
      </trkpt>
      <trkpt lat="41.857368" lon="2.506016">
        <ele>587.56427</ele>
        <time>2021-07-02T14:28:44Z</time>
      </trkpt>
      <trkpt lat="41.857582" lon="2.506221">
        <ele>586.15558</ele>
        <time>2021-07-02T14:28:45Z</time>
      </trkpt>
      <trkpt lat="41.857807" lon="2.506491">
        <ele>583.95087</ele>
        <time>2021-07-02T14:28:46Z</time>
      </trkpt>
      <trkpt lat="41.858017" lon="2.506775">
        <ele>581.69830</ele>
        <time>2021-07-02T14:28:47Z</time>
      </trkpt>
      <trkpt lat="41.858200" lon="2.507088">
        <ele>579.35114</ele>
        <time>2021-07-02T14:28:48Z</time>
      </trkpt>
      <trkpt lat="41.858398" lon="2.507528">
        <ele>576.00116</ele>
        <time>2021-07-02T14:28:49Z</time>
      </trkpt>
      <trkpt lat="41.858524" lon="2.507883">
        <ele>574.21344</ele>
        <time>2021-07-02T14:28:50Z</time>
      </trkpt>
      <trkpt lat="41.858631" lon="2.508301">
        <ele>572.23907</ele>
        <time>2021-07-02T14:28:51Z</time>
      </trkpt>
      <trkpt lat="41.858704" lon="2.508751">
        <ele>568.99005</ele>
        <time>2021-07-02T14:28:52Z</time>
      </trkpt>
      <trkpt lat="41.858738" lon="2.509205">
        <ele>566.67267</ele>
        <time>2021-07-02T14:28:53Z</time>
      </trkpt>
      <trkpt lat="41.858738" lon="2.509593">
        <ele>565.13129</ele>
        <time>2021-07-02T14:28:54Z</time>
      </trkpt>
      <trkpt lat="41.858700" lon="2.510062">
        <ele>563.58063</ele>
        <time>2021-07-02T14:28:55Z</time>
      </trkpt>
      <trkpt lat="41.858631" lon="2.510486">
        <ele>562.66119</ele>
        <time>2021-07-02T14:28:56Z</time>
      </trkpt>
      <trkpt lat="41.858540" lon="2.510838">
        <ele>562.38580</ele>
        <time>2021-07-02T14:28:57Z</time>
      </trkpt>
      <trkpt lat="41.858414" lon="2.511221">
        <ele>560.54840</ele>
        <time>2021-07-02T14:28:58Z</time>
      </trkpt>
      <trkpt lat="41.858253" lon="2.511579">
        <ele>559.05328</ele>
        <time>2021-07-02T14:28:59Z</time>
      </trkpt>
      <trkpt lat="41.858253" lon="2.511579">
        <ele>557.62421</ele>
        <time>2021-07-02T14:29:00Z</time>
      </trkpt>
      <trkpt lat="41.858101" lon="2.511875">
        <ele>556.91876</ele>
        <time>2021-07-02T14:29:01Z</time>
      </trkpt>
      <trkpt lat="41.857925" lon="2.512149">
        <ele>556.79120</ele>
        <time>2021-07-02T14:29:02Z</time>
      </trkpt>
      <trkpt lat="41.857719" lon="2.512408">
        <ele>556.40533</ele>
        <time>2021-07-02T14:29:03Z</time>
      </trkpt>
      <trkpt lat="41.857517" lon="2.512640">
        <ele>556.26984</ele>
        <time>2021-07-02T14:29:04Z</time>
      </trkpt>
      <trkpt lat="41.857269" lon="2.512854">
        <ele>557.28839</ele>
        <time>2021-07-02T14:29:05Z</time>
      </trkpt>
      <trkpt lat="41.857018" lon="2.513033">
        <ele>557.15631</ele>
        <time>2021-07-02T14:29:06Z</time>
      </trkpt>
      <trkpt lat="41.856724" lon="2.513195">
        <ele>557.13995</ele>
        <time>2021-07-02T14:29:07Z</time>
      </trkpt>
      <trkpt lat="41.856407" lon="2.513315">
        <ele>559.81195</ele>
        <time>2021-07-02T14:29:08Z</time>
      </trkpt>
      <trkpt lat="41.856064" lon="2.513394">
        <ele>561.51776</ele>
        <time>2021-07-02T14:29:09Z</time>
      </trkpt>
      <trkpt lat="41.855713" lon="2.513440">
        <ele>563.41681</ele>
        <time>2021-07-02T14:29:10Z</time>
      </trkpt>
      <trkpt lat="41.855358" lon="2.513475">
        <ele>564.84821</ele>
        <time>2021-07-02T14:29:11Z</time>
      </trkpt>
      <trkpt lat="41.855030" lon="2.513510">
        <ele>564.84650</ele>
        <time>2021-07-02T14:29:12Z</time>
      </trkpt>
      <trkpt lat="41.854687" lon="2.513575">
        <ele>565.57697</ele>
        <time>2021-07-02T14:29:13Z</time>
      </trkpt>
      <trkpt lat="41.854359" lon="2.513669">
        <ele>565.93304</ele>
        <time>2021-07-02T14:29:14Z</time>
      </trkpt>
      <trkpt lat="41.854015" lon="2.513807">
        <ele>566.24823</ele>
        <time>2021-07-02T14:29:15Z</time>
      </trkpt>
      <trkpt lat="41.853657" lon="2.513996">
        <ele>566.90375</ele>
        <time>2021-07-02T14:29:16Z</time>
      </trkpt>
      <trkpt lat="41.853355" lon="2.514201">
        <ele>566.71283</ele>
        <time>2021-07-02T14:29:17Z</time>
      </trkpt>
      <trkpt lat="41.853058" lon="2.514444">
        <ele>566.54596</ele>
        <time>2021-07-02T14:29:18Z</time>
      </trkpt>
      <trkpt lat="41.852760" lon="2.514728">
        <ele>566.23126</ele>
        <time>2021-07-02T14:29:19Z</time>
      </trkpt>
      <trkpt lat="41.852474" lon="2.515044">
        <ele>565.63153</ele>
        <time>2021-07-02T14:29:20Z</time>
      </trkpt>
      <trkpt lat="41.852219" lon="2.515361">
        <ele>564.41046</ele>
        <time>2021-07-02T14:29:21Z</time>
      </trkpt>
      <trkpt lat="41.851936" lon="2.515738">
        <ele>563.67584</ele>
        <time>2021-07-02T14:29:22Z</time>
      </trkpt>
      <trkpt lat="41.851677" lon="2.516137">
        <ele>562.95734</ele>
        <time>2021-07-02T14:29:23Z</time>
      </trkpt>
      <trkpt lat="41.851452" lon="2.516523">
        <ele>561.76910</ele>
        <time>2021-07-02T14:29:24Z</time>
      </trkpt>
      <trkpt lat="41.851242" lon="2.516901">
        <ele>560.99103</ele>
        <time>2021-07-02T14:29:25Z</time>
      </trkpt>
      <trkpt lat="41.851242" lon="2.516901">
        <ele>560.43378</ele>
        <time>2021-07-02T14:29:26Z</time>
      </trkpt>
      <trkpt lat="41.851009" lon="2.517355">
        <ele>558.94012</ele>
        <time>2021-07-02T14:29:27Z</time>
      </trkpt>
      <trkpt lat="41.850819" lon="2.517735">
        <ele>558.13751</ele>
        <time>2021-07-02T14:29:28Z</time>
      </trkpt>
      <trkpt lat="41.850613" lon="2.518180">
        <ele>557.22833</ele>
        <time>2021-07-02T14:29:29Z</time>
      </trkpt>
      <trkpt lat="41.850414" lon="2.518615">
        <ele>556.46625</ele>
        <time>2021-07-02T14:29:30Z</time>
      </trkpt>
      <trkpt lat="41.850254" lon="2.519041">
        <ele>555.86652</ele>
        <time>2021-07-02T14:29:31Z</time>
      </trkpt>
      <trkpt lat="41.850128" lon="2.519421">
        <ele>555.15997</ele>
        <time>2021-07-02T14:29:32Z</time>
      </trkpt>
      <trkpt lat="41.850018" lon="2.519792">
        <ele>554.33685</ele>
        <time>2021-07-02T14:29:33Z</time>
      </trkpt>
      <trkpt lat="41.849922" lon="2.520161">
        <ele>553.75055</ele>
        <time>2021-07-02T14:29:34Z</time>
      </trkpt>
      <trkpt lat="41.849838" lon="2.520523">
        <ele>553.30267</ele>
        <time>2021-07-02T14:29:35Z</time>
      </trkpt>
      <trkpt lat="41.849773" lon="2.520880">
        <ele>552.49408</ele>
        <time>2021-07-02T14:29:36Z</time>
      </trkpt>
      <trkpt lat="41.849712" lon="2.521209">
        <ele>551.75934</ele>
        <time>2021-07-02T14:29:37Z</time>
      </trkpt>
      <trkpt lat="41.849659" lon="2.521533">
        <ele>551.78827</ele>
        <time>2021-07-02T14:29:38Z</time>
      </trkpt>
      <trkpt lat="41.849617" lon="2.521866">
        <ele>551.74396</ele>
        <time>2021-07-02T14:29:39Z</time>
      </trkpt>
      <trkpt lat="41.849575" lon="2.522188">
        <ele>551.74396</ele>
        <time>2021-07-02T14:29:40Z</time>
      </trkpt>
      <trkpt lat="41.849533" lon="2.522500">
        <ele>551.74396</ele>
        <time>2021-07-02T14:29:41Z</time>
      </trkpt>
      <trkpt lat="41.849522" lon="2.522589">
        <ele>551.74396</ele>
        <time>2021-07-02T14:29:42Z</time>
      </trkpt>
      <trkpt lat="41.849522" lon="2.522589">
        <ele>551.74396</ele>
        <time>2021-07-02T14:29:43Z</time>
      </trkpt>
      <trkpt lat="41.849522" lon="2.522589">
        <ele>551.74396</ele>
        <time>2021-07-02T14:29:44Z</time>
      </trkpt>
      <trkpt lat="41.849522" lon="2.522589">
        <ele>551.74396</ele>
        <time>2021-07-02T14:29:45Z</time>
      </trkpt>
      <trkpt lat="41.849522" lon="2.522589">
        <ele>551.74396</ele>
        <time>2021-07-02T14:29:46Z</time>
      </trkpt>
      <trkpt lat="41.849522" lon="2.522589">
        <ele>551.74396</ele>
        <time>2021-07-02T14:29:47Z</time>
      </trkpt>
      <trkpt lat="41.849522" lon="2.522589">
        <ele>551.74396</ele>
        <time>2021-07-02T14:29:48Z</time>
      </trkpt>
      <trkpt lat="41.849522" lon="2.522589">
        <ele>551.74396</ele>
        <time>2021-07-02T14:29:49Z</time>
      </trkpt>
      <trkpt lat="41.849522" lon="2.522589">
        <ele>551.74396</ele>
        <time>2021-07-02T14:29:50Z</time>
      </trkpt>
      <trkpt lat="41.849522" lon="2.522589">
        <ele>551.74396</ele>
        <time>2021-07-02T14:29:51Z</time>
      </trkpt>
      <trkpt lat="41.849522" lon="2.522589">
        <ele>551.74396</ele>
        <time>2021-07-02T14:29:52Z</time>
      </trkpt>
      <trkpt lat="41.849522" lon="2.522589">
        <ele>551.74396</ele>
        <time>2021-07-02T14:29:53Z</time>
      </trkpt>
      <trkpt lat="41.849522" lon="2.522589">
        <ele>551.74396</ele>
        <time>2021-07-02T14:29:54Z</time>
      </trkpt>
      <trkpt lat="41.849522" lon="2.522589">
        <ele>551.74396</ele>
        <time>2021-07-02T14:29:55Z</time>
      </trkpt>
      <trkpt lat="41.849522" lon="2.522589">
        <ele>551.74396</ele>
        <time>2021-07-02T14:29:56Z</time>
      </trkpt>
      <trkpt lat="41.849522" lon="2.522589">
        <ele>551.74396</ele>
        <time>2021-07-02T14:29:57Z</time>
      </trkpt>
      <trkpt lat="41.849522" lon="2.522589">
        <ele>551.74396</ele>
        <time>2021-07-02T14:29:58Z</time>
      </trkpt>
      <trkpt lat="41.849522" lon="2.522589">
        <ele>551.74396</ele>
        <time>2021-07-02T14:29:59Z</time>
      </trkpt>
      <trkpt lat="41.849522" lon="2.522589">
        <ele>551.74396</ele>
        <time>2021-07-02T14:30:00Z</time>
      </trkpt>
      <trkpt lat="41.849522" lon="2.522589">
        <ele>551.74396</ele>
        <time>2021-07-02T14:30:01Z</time>
      </trkpt>
      <trkpt lat="41.849522" lon="2.522589">
        <ele>551.74396</ele>
        <time>2021-07-02T14:30:02Z</time>
      </trkpt>
      <trkpt lat="41.849522" lon="2.522589">
        <ele>551.74396</ele>
        <time>2021-07-02T14:30:03Z</time>
      </trkpt>
      <trkpt lat="41.849522" lon="2.522589">
        <ele>551.74396</ele>
        <time>2021-07-02T14:30:04Z</time>
      </trkpt>
      <trkpt lat="41.849522" lon="2.522589">
        <ele>551.74396</ele>
        <time>2021-07-02T14:30:05Z</time>
      </trkpt>
      <trkpt lat="41.849522" lon="2.522589">
        <ele>551.74396</ele>
        <time>2021-07-02T14:30:06Z</time>
      </trkpt>
      <trkpt lat="41.849522" lon="2.522589">
        <ele>551.74396</ele>
        <time>2021-07-02T14:30:07Z</time>
      </trkpt>
      <trkpt lat="41.849522" lon="2.522589">
        <ele>551.74396</ele>
        <time>2021-07-02T14:30:08Z</time>
      </trkpt>
      <trkpt lat="41.849522" lon="2.522589">
        <ele>551.74396</ele>
        <time>2021-07-02T14:30:09Z</time>
      </trkpt>
      <trkpt lat="41.849522" lon="2.522589">
        <ele>551.74396</ele>
        <time>2021-07-02T14:30:10Z</time>
      </trkpt>
      <trkpt lat="41.849522" lon="2.522589">
        <ele>551.74396</ele>
        <time>2021-07-02T14:30:11Z</time>
      </trkpt>
      <trkpt lat="41.849522" lon="2.522589">
        <ele>551.74396</ele>
        <time>2021-07-02T14:30:12Z</time>
      </trkpt>
      <trkpt lat="41.849522" lon="2.522589">
        <ele>551.74396</ele>
        <time>2021-07-02T14:30:13Z</time>
      </trkpt>
      <trkpt lat="41.849522" lon="2.522589">
        <ele>551.74396</ele>
        <time>2021-07-02T14:30:14Z</time>
      </trkpt>
      <trkpt lat="41.849522" lon="2.522589">
        <ele>551.74396</ele>
        <time>2021-07-02T14:30:15Z</time>
      </trkpt>
      <trkpt lat="41.849522" lon="2.522589">
        <ele>551.74396</ele>
        <time>2021-07-02T14:30:16Z</time>
      </trkpt>
      <trkpt lat="41.849522" lon="2.522589">
        <ele>551.74396</ele>
        <time>2021-07-02T14:30:17Z</time>
      </trkpt>
      <trkpt lat="41.849522" lon="2.522589">
        <ele>551.74396</ele>
        <time>2021-07-02T14:30:18Z</time>
      </trkpt>
      <trkpt lat="41.849522" lon="2.522589">
        <ele>551.74396</ele>
        <time>2021-07-02T14:30:19Z</time>
      </trkpt>
      <trkpt lat="41.849522" lon="2.522589">
        <ele>551.74396</ele>
        <time>2021-07-02T14:30:20Z</time>
      </trkpt>
      <trkpt lat="41.849522" lon="2.522589">
        <ele>551.74396</ele>
        <time>2021-07-02T14:30:21Z</time>
      </trkpt>
      <trkpt lat="41.849522" lon="2.522589">
        <ele>551.74396</ele>
        <time>2021-07-02T14:30:22Z</time>
      </trkpt>
      <trkpt lat="41.849522" lon="2.522589">
        <ele>551.74396</ele>
        <time>2021-07-02T14:30:23Z</time>
      </trkpt>
      <trkpt lat="41.849522" lon="2.522589">
        <ele>551.74396</ele>
        <time>2021-07-02T14:30:24Z</time>
      </trkpt>
      <trkpt lat="41.849522" lon="2.522589">
        <ele>551.74396</ele>
        <time>2021-07-02T14:30:25Z</time>
      </trkpt>
      <trkpt lat="41.849522" lon="2.522589">
        <ele>551.74396</ele>
        <time>2021-07-02T14:30:26Z</time>
      </trkpt>
      <trkpt lat="41.849522" lon="2.522589">
        <ele>551.74396</ele>
        <time>2021-07-02T14:30:27Z</time>
      </trkpt>
      <trkpt lat="41.849522" lon="2.522589">
        <ele>551.74396</ele>
        <time>2021-07-02T14:30:28Z</time>
      </trkpt>
      <trkpt lat="41.849522" lon="2.522589">
        <ele>551.74396</ele>
        <time>2021-07-02T14:30:29Z</time>
      </trkpt>
      <trkpt lat="41.849522" lon="2.522589">
        <ele>551.74396</ele>
        <time>2021-07-02T14:30:30Z</time>
      </trkpt>
      <trkpt lat="41.849522" lon="2.522589">
        <ele>551.74396</ele>
        <time>2021-07-02T14:30:31Z</time>
      </trkpt>
      <trkpt lat="41.847736" lon="2.533291">
        <ele>551.74396</ele>
        <time>2021-07-02T14:30:32Z</time>
      </trkpt>
      <trkpt lat="41.847736" lon="2.533291">
        <ele>551.74396</ele>
        <time>2021-07-02T14:30:33Z</time>
      </trkpt>
      <trkpt lat="41.847736" lon="2.533291">
        <ele>551.74396</ele>
        <time>2021-07-02T14:30:34Z</time>
      </trkpt>
      <trkpt lat="41.847736" lon="2.533291">
        <ele>544.58051</ele>
        <time>2021-07-02T14:30:35Z</time>
      </trkpt>
      <trkpt lat="41.847919" lon="2.539352">
        <ele>531.81842</ele>
        <time>2021-07-02T14:30:36Z</time>
      </trkpt>
      <trkpt lat="41.847992" lon="2.539679">
        <ele>518.51471</ele>
        <time>2021-07-02T14:30:37Z</time>
      </trkpt>
      <trkpt lat="41.848038" lon="2.539892">
        <ele>511.97202</ele>
        <time>2021-07-02T14:30:38Z</time>
      </trkpt>
      <trkpt lat="41.848091" lon="2.540221">
        <ele>506.99594</ele>
        <time>2021-07-02T14:30:39Z</time>
      </trkpt>
      <trkpt lat="41.848145" lon="2.540542">
        <ele>504.31088</ele>
        <time>2021-07-02T14:30:40Z</time>
      </trkpt>
      <trkpt lat="41.848145" lon="2.540542">
        <ele>501.57150</ele>
        <time>2021-07-02T14:30:41Z</time>
      </trkpt>
      <trkpt lat="41.848179" lon="2.540897">
        <ele>499.82138</ele>
        <time>2021-07-02T14:30:42Z</time>
      </trkpt>
      <trkpt lat="41.848198" lon="2.541198">
        <ele>497.07248</ele>
        <time>2021-07-02T14:30:43Z</time>
      </trkpt>
      <trkpt lat="41.848213" lon="2.541611">
        <ele>495.58871</ele>
        <time>2021-07-02T14:30:44Z</time>
      </trkpt>
      <trkpt lat="41.848221" lon="2.541956">
        <ele>494.20456</ele>
        <time>2021-07-02T14:30:45Z</time>
      </trkpt>
      <trkpt lat="41.848232" lon="2.542377">
        <ele>492.63388</ele>
        <time>2021-07-02T14:30:46Z</time>
      </trkpt>
      <trkpt lat="41.848228" lon="2.542883">
        <ele>489.70834</ele>
        <time>2021-07-02T14:30:47Z</time>
      </trkpt>
      <trkpt lat="41.848228" lon="2.543365">
        <ele>488.09213</ele>
        <time>2021-07-02T14:30:48Z</time>
      </trkpt>
      <trkpt lat="41.848228" lon="2.543897">
        <ele>485.18442</ele>
        <time>2021-07-02T14:30:49Z</time>
      </trkpt>
      <trkpt lat="41.848225" lon="2.544415">
        <ele>483.69089</ele>
        <time>2021-07-02T14:30:50Z</time>
      </trkpt>
      <trkpt lat="41.848225" lon="2.544877">
        <ele>481.82675</ele>
        <time>2021-07-02T14:30:51Z</time>
      </trkpt>
      <trkpt lat="41.848236" lon="2.545451">
        <ele>479.78036</ele>
        <time>2021-07-02T14:30:52Z</time>
      </trkpt>
      <trkpt lat="41.848263" lon="2.545974">
        <ele>477.80331</ele>
        <time>2021-07-02T14:30:53Z</time>
      </trkpt>
      <trkpt lat="41.848297" lon="2.546435">
        <ele>475.17563</ele>
        <time>2021-07-02T14:30:54Z</time>
      </trkpt>
      <trkpt lat="41.848354" lon="2.546897">
        <ele>472.74124</ele>
        <time>2021-07-02T14:30:55Z</time>
      </trkpt>
      <trkpt lat="41.848431" lon="2.547460">
        <ele>471.79013</ele>
        <time>2021-07-02T14:30:56Z</time>
      </trkpt>
      <trkpt lat="41.848526" lon="2.547966">
        <ele>469.11966</ele>
        <time>2021-07-02T14:30:57Z</time>
      </trkpt>
      <trkpt lat="41.848629" lon="2.548451">
        <ele>466.66281</ele>
        <time>2021-07-02T14:30:58Z</time>
      </trkpt>
      <trkpt lat="41.848743" lon="2.548914">
        <ele>464.15152</ele>
        <time>2021-07-02T14:30:59Z</time>
      </trkpt>
      <trkpt lat="41.848869" lon="2.549393">
        <ele>461.28061</ele>
        <time>2021-07-02T14:31:00Z</time>
      </trkpt>
      <trkpt lat="41.849007" lon="2.549902">
        <ele>458.51627</ele>
        <time>2021-07-02T14:31:01Z</time>
      </trkpt>
      <trkpt lat="41.849129" lon="2.550363">
        <ele>455.68082</ele>
        <time>2021-07-02T14:31:02Z</time>
      </trkpt>
      <trkpt lat="41.849243" lon="2.550871">
        <ele>453.51389</ele>
        <time>2021-07-02T14:31:03Z</time>
      </trkpt>
      <trkpt lat="41.849319" lon="2.551363">
        <ele>451.32114</ele>
        <time>2021-07-02T14:31:04Z</time>
      </trkpt>
      <trkpt lat="41.849380" lon="2.551887">
        <ele>449.22336</ele>
        <time>2021-07-02T14:31:05Z</time>
      </trkpt>
      <trkpt lat="41.849442" lon="2.552423">
        <ele>447.54819</ele>
        <time>2021-07-02T14:31:06Z</time>
      </trkpt>
      <trkpt lat="41.849495" lon="2.552897">
        <ele>445.90921</ele>
        <time>2021-07-02T14:31:07Z</time>
      </trkpt>
      <trkpt lat="41.849583" lon="2.553310">
        <ele>444.63644</ele>
        <time>2021-07-02T14:31:08Z</time>
      </trkpt>
      <trkpt lat="41.849709" lon="2.553808">
        <ele>442.72311</ele>
        <time>2021-07-02T14:31:09Z</time>
      </trkpt>
      <trkpt lat="41.849838" lon="2.554237">
        <ele>440.71567</ele>
        <time>2021-07-02T14:31:10Z</time>
      </trkpt>
      <trkpt lat="41.850006" lon="2.554732">
        <ele>438.76602</ele>
        <time>2021-07-02T14:31:11Z</time>
      </trkpt>
      <trkpt lat="41.850159" lon="2.555188">
        <ele>436.32755</ele>
        <time>2021-07-02T14:31:12Z</time>
      </trkpt>
      <trkpt lat="41.850159" lon="2.555188">
        <ele>434.12375</ele>
        <time>2021-07-02T14:31:13Z</time>
      </trkpt>
      <trkpt lat="41.850311" lon="2.555720">
        <ele>432.06076</ele>
        <time>2021-07-02T14:31:14Z</time>
      </trkpt>
      <trkpt lat="41.850399" lon="2.556134">
        <ele>429.59531</ele>
        <time>2021-07-02T14:31:15Z</time>
      </trkpt>
      <trkpt lat="41.850582" lon="2.557242">
        <ele>427.74014</ele>
        <time>2021-07-02T14:31:16Z</time>
      </trkpt>
      <trkpt lat="41.850582" lon="2.557242">
        <ele>426.04916</ele>
        <time>2021-07-02T14:31:17Z</time>
      </trkpt>
      <trkpt lat="41.850670" lon="2.557719">
        <ele>424.44321</ele>
        <time>2021-07-02T14:31:18Z</time>
      </trkpt>
      <trkpt lat="41.850777" lon="2.558187">
        <ele>422.49551</ele>
        <time>2021-07-02T14:31:19Z</time>
      </trkpt>
      <trkpt lat="41.850891" lon="2.558566">
        <ele>420.38681</ele>
        <time>2021-07-02T14:31:20Z</time>
      </trkpt>
      <trkpt lat="41.851067" lon="2.559060">
        <ele>418.31894</ele>
        <time>2021-07-02T14:31:21Z</time>
      </trkpt>
      <trkpt lat="41.851223" lon="2.559418">
        <ele>416.61240</ele>
        <time>2021-07-02T14:31:22Z</time>
      </trkpt>
      <trkpt lat="41.851440" lon="2.559827">
        <ele>414.68527</ele>
        <time>2021-07-02T14:31:23Z</time>
      </trkpt>
      <trkpt lat="41.851677" lon="2.560209">
        <ele>413.26382</ele>
        <time>2021-07-02T14:31:24Z</time>
      </trkpt>
      <trkpt lat="41.851936" lon="2.560582">
        <ele>411.68759</ele>
        <time>2021-07-02T14:31:25Z</time>
      </trkpt>
      <trkpt lat="41.852219" lon="2.560910">
        <ele>409.79245</ele>
        <time>2021-07-02T14:31:26Z</time>
      </trkpt>
      <trkpt lat="41.852509" lon="2.561225">
        <ele>408.81088</ele>
        <time>2021-07-02T14:31:27Z</time>
      </trkpt>
      <trkpt lat="41.852783" lon="2.561520">
        <ele>406.72665</ele>
        <time>2021-07-02T14:31:28Z</time>
      </trkpt>
      <trkpt lat="41.853024" lon="2.561776">
        <ele>404.18552</ele>
        <time>2021-07-02T14:31:29Z</time>
      </trkpt>
      <trkpt lat="41.853264" lon="2.562052">
        <ele>402.14316</ele>
        <time>2021-07-02T14:31:30Z</time>
      </trkpt>
      <trkpt lat="41.853500" lon="2.562353">
        <ele>400.52103</ele>
        <time>2021-07-02T14:31:31Z</time>
      </trkpt>
      <trkpt lat="41.853714" lon="2.562681">
        <ele>398.83603</ele>
        <time>2021-07-02T14:31:32Z</time>
      </trkpt>
      <trkpt lat="41.853947" lon="2.563082">
        <ele>397.59714</ele>
        <time>2021-07-02T14:31:33Z</time>
      </trkpt>
      <trkpt lat="41.854137" lon="2.563499">
        <ele>395.61520</ele>
        <time>2021-07-02T14:31:34Z</time>
      </trkpt>
      <trkpt lat="41.854301" lon="2.563922">
        <ele>393.41312</ele>
        <time>2021-07-02T14:31:35Z</time>
      </trkpt>
      <trkpt lat="41.854450" lon="2.564387">
        <ele>391.28110</ele>
        <time>2021-07-02T14:31:36Z</time>
      </trkpt>
      <trkpt lat="41.854561" lon="2.564840">
        <ele>389.34152</ele>
        <time>2021-07-02T14:31:37Z</time>
      </trkpt>
      <trkpt lat="41.854675" lon="2.565533">
        <ele>387.21786</ele>
        <time>2021-07-02T14:31:38Z</time>
      </trkpt>
      <trkpt lat="41.854710" lon="2.565808">
        <ele>385.68765</ele>
        <time>2021-07-02T14:31:39Z</time>
      </trkpt>
      <trkpt lat="41.854759" lon="2.566347">
        <ele>383.75229</ele>
        <time>2021-07-02T14:31:40Z</time>
      </trkpt>
      <trkpt lat="41.854790" lon="2.566764">
        <ele>382.17123</ele>
        <time>2021-07-02T14:31:41Z</time>
      </trkpt>
      <trkpt lat="41.854820" lon="2.567208">
        <ele>380.42587</ele>
        <time>2021-07-02T14:31:42Z</time>
      </trkpt>
      <trkpt lat="41.854881" lon="2.567683">
        <ele>379.68973</ele>
        <time>2021-07-02T14:31:43Z</time>
      </trkpt>
      <trkpt lat="41.854965" lon="2.568142">
        <ele>377.45718</ele>
        <time>2021-07-02T14:31:44Z</time>
      </trkpt>
      <trkpt lat="41.855103" lon="2.568602">
        <ele>375.55215</ele>
        <time>2021-07-02T14:31:45Z</time>
      </trkpt>
      <trkpt lat="41.855282" lon="2.569057">
        <ele>373.29025</ele>
        <time>2021-07-02T14:31:46Z</time>
      </trkpt>
      <trkpt lat="41.855457" lon="2.569421">
        <ele>370.84683</ele>
        <time>2021-07-02T14:31:47Z</time>
      </trkpt>
      <trkpt lat="41.855457" lon="2.569421">
        <ele>368.67880</ele>
        <time>2021-07-02T14:31:48Z</time>
      </trkpt>
      <trkpt lat="41.855724" lon="2.569845">
        <ele>366.92880</ele>
        <time>2021-07-02T14:31:49Z</time>
      </trkpt>
      <trkpt lat="41.856300" lon="2.570535">
        <ele>364.75607</ele>
        <time>2021-07-02T14:31:50Z</time>
      </trkpt>
      <trkpt lat="41.856300" lon="2.570535">
        <ele>362.82370</ele>
        <time>2021-07-02T14:31:51Z</time>
      </trkpt>
      <trkpt lat="41.856590" lon="2.570824">
        <ele>361.04874</ele>
        <time>2021-07-02T14:31:52Z</time>
      </trkpt>
      <trkpt lat="41.856960" lon="2.571140">
        <ele>359.60666</ele>
        <time>2021-07-02T14:31:53Z</time>
      </trkpt>
      <trkpt lat="41.857269" lon="2.571364">
        <ele>357.47983</ele>
        <time>2021-07-02T14:31:54Z</time>
      </trkpt>
      <trkpt lat="41.857605" lon="2.571577">
        <ele>355.33939</ele>
        <time>2021-07-02T14:31:55Z</time>
      </trkpt>
      <trkpt lat="41.857960" lon="2.571801">
        <ele>353.40573</ele>
        <time>2021-07-02T14:31:56Z</time>
      </trkpt>
      <trkpt lat="41.858322" lon="2.572020">
        <ele>351.34634</ele>
        <time>2021-07-02T14:31:57Z</time>
      </trkpt>
      <trkpt lat="41.858658" lon="2.572268">
        <ele>349.45615</ele>
        <time>2021-07-02T14:31:58Z</time>
      </trkpt>
      <trkpt lat="41.858932" lon="2.572515">
        <ele>348.86655</ele>
        <time>2021-07-02T14:31:59Z</time>
      </trkpt>
      <trkpt lat="41.859180" lon="2.572762">
        <ele>348.38229</ele>
        <time>2021-07-02T14:32:00Z</time>
      </trkpt>
      <trkpt lat="41.859444" lon="2.573090">
        <ele>346.20468</ele>
        <time>2021-07-02T14:32:01Z</time>
      </trkpt>
      <trkpt lat="41.859737" lon="2.573524">
        <ele>344.31271</ele>
        <time>2021-07-02T14:32:02Z</time>
      </trkpt>
      <trkpt lat="41.859974" lon="2.573938">
        <ele>341.49655</ele>
        <time>2021-07-02T14:32:03Z</time>
      </trkpt>
      <trkpt lat="41.860168" lon="2.574364">
        <ele>339.37033</ele>
        <time>2021-07-02T14:32:04Z</time>
      </trkpt>
      <trkpt lat="41.860325" lon="2.574810">
        <ele>336.68942</ele>
        <time>2021-07-02T14:32:05Z</time>
      </trkpt>
      <trkpt lat="41.860458" lon="2.575246">
        <ele>334.29117</ele>
        <time>2021-07-02T14:32:06Z</time>
      </trkpt>
      <trkpt lat="41.860580" lon="2.575697">
        <ele>332.42038</ele>
        <time>2021-07-02T14:32:07Z</time>
      </trkpt>
      <trkpt lat="41.860695" lon="2.576150">
        <ele>330.67160</ele>
        <time>2021-07-02T14:32:08Z</time>
      </trkpt>
      <trkpt lat="41.860817" lon="2.576607">
        <ele>329.03171</ele>
        <time>2021-07-02T14:32:09Z</time>
      </trkpt>
      <trkpt lat="41.860935" lon="2.577035">
        <ele>327.13449</ele>
        <time>2021-07-02T14:32:10Z</time>
      </trkpt>
      <trkpt lat="41.861053" lon="2.577415">
        <ele>325.65677</ele>
        <time>2021-07-02T14:32:11Z</time>
      </trkpt>
      <trkpt lat="41.861053" lon="2.577415">
        <ele>324.18259</ele>
        <time>2021-07-02T14:32:12Z</time>
      </trkpt>
      <trkpt lat="41.861217" lon="2.577891">
        <ele>323.08890</ele>
        <time>2021-07-02T14:32:13Z</time>
      </trkpt>
      <trkpt lat="41.861271" lon="2.578111">
        <ele>322.43112</ele>
        <time>2021-07-02T14:32:14Z</time>
      </trkpt>
      <trkpt lat="41.861481" lon="2.578833">
        <ele>321.99545</ele>
        <time>2021-07-02T14:32:15Z</time>
      </trkpt>
      <trkpt lat="41.861767" lon="2.579215">
        <ele>321.41220</ele>
        <time>2021-07-02T14:32:16Z</time>
      </trkpt>
      <trkpt lat="41.861961" lon="2.579640">
        <ele>320.89285</ele>
        <time>2021-07-02T14:32:17Z</time>
      </trkpt>
      <trkpt lat="41.862179" lon="2.580033">
        <ele>321.03244</ele>
        <time>2021-07-02T14:32:18Z</time>
      </trkpt>
      <trkpt lat="41.862442" lon="2.580484">
        <ele>321.03781</ele>
        <time>2021-07-02T14:32:19Z</time>
      </trkpt>
      <trkpt lat="41.862682" lon="2.580857">
        <ele>321.41525</ele>
        <time>2021-07-02T14:32:20Z</time>
      </trkpt>
      <trkpt lat="41.862930" lon="2.581229">
        <ele>321.61838</ele>
        <time>2021-07-02T14:32:21Z</time>
      </trkpt>
      <trkpt lat="41.862930" lon="2.581229">
        <ele>321.73575</ele>
        <time>2021-07-02T14:32:22Z</time>
      </trkpt>
      <trkpt lat="41.862930" lon="2.581229">
        <ele>321.29282</ele>
        <time>2021-07-02T14:32:23Z</time>
      </trkpt>
      <trkpt lat="41.863739" lon="2.582338">
        <ele>321.12216</ele>
        <time>2021-07-02T14:32:24Z</time>
      </trkpt>
      <trkpt lat="41.863945" lon="2.582673">
        <ele>321.20761</ele>
        <time>2021-07-02T14:32:25Z</time>
      </trkpt>
      <trkpt lat="41.864178" lon="2.583120">
        <ele>321.44962</ele>
        <time>2021-07-02T14:32:26Z</time>
      </trkpt>
      <trkpt lat="41.864178" lon="2.583120">
        <ele>321.68332</ele>
        <time>2021-07-02T14:32:27Z</time>
      </trkpt>
      <trkpt lat="41.864357" lon="2.583566">
        <ele>322.05441</ele>
        <time>2021-07-02T14:32:28Z</time>
      </trkpt>
      <trkpt lat="41.864521" lon="2.584042">
        <ele>320.79904</ele>
        <time>2021-07-02T14:32:29Z</time>
      </trkpt>
      <trkpt lat="41.864628" lon="2.584482">
        <ele>320.33804</ele>
        <time>2021-07-02T14:32:30Z</time>
      </trkpt>
      <trkpt lat="41.864716" lon="2.584957">
        <ele>319.75729</ele>
        <time>2021-07-02T14:32:31Z</time>
      </trkpt>
      <trkpt lat="41.864773" lon="2.585376">
        <ele>320.18112</ele>
        <time>2021-07-02T14:32:32Z</time>
      </trkpt>
      <trkpt lat="41.864799" lon="2.585729">
        <ele>320.33029</ele>
        <time>2021-07-02T14:32:33Z</time>
      </trkpt>
      <trkpt lat="41.864822" lon="2.586084">
        <ele>320.41818</ele>
        <time>2021-07-02T14:32:34Z</time>
      </trkpt>
      <trkpt lat="41.864845" lon="2.586488">
        <ele>320.14169</ele>
        <time>2021-07-02T14:32:35Z</time>
      </trkpt>
      <trkpt lat="41.864868" lon="2.586822">
        <ele>319.48917</ele>
        <time>2021-07-02T14:32:36Z</time>
      </trkpt>
      <trkpt lat="41.864887" lon="2.587170">
        <ele>319.14560</ele>
        <time>2021-07-02T14:32:37Z</time>
      </trkpt>
      <trkpt lat="41.864906" lon="2.587500">
        <ele>318.80997</ele>
        <time>2021-07-02T14:32:38Z</time>
      </trkpt>
      <trkpt lat="41.864933" lon="2.587873">
        <ele>318.47629</ele>
        <time>2021-07-02T14:32:39Z</time>
      </trkpt>
      <trkpt lat="41.864964" lon="2.588211">
        <ele>318.35910</ele>
        <time>2021-07-02T14:32:40Z</time>
      </trkpt>
      <trkpt lat="41.865002" lon="2.588505">
        <ele>318.34128</ele>
        <time>2021-07-02T14:32:41Z</time>
      </trkpt>
      <trkpt lat="41.865059" lon="2.588825">
        <ele>318.34128</ele>
        <time>2021-07-02T14:32:42Z</time>
      </trkpt>
      <trkpt lat="41.865135" lon="2.589155">
        <ele>318.34128</ele>
        <time>2021-07-02T14:32:43Z</time>
      </trkpt>
      <trkpt lat="41.865139" lon="2.589170">
        <ele>318.34128</ele>
        <time>2021-07-02T14:32:44Z</time>
      </trkpt>
      <trkpt lat="41.865139" lon="2.589170">
        <ele>318.34128</ele>
        <time>2021-07-02T14:32:45Z</time>
      </trkpt>
      <trkpt lat="41.865139" lon="2.589170">
        <ele>318.34128</ele>
        <time>2021-07-02T14:32:46Z</time>
      </trkpt>
      <trkpt lat="41.865139" lon="2.589170">
        <ele>318.34128</ele>
        <time>2021-07-02T14:32:47Z</time>
      </trkpt>
      <trkpt lat="41.865139" lon="2.589170">
        <ele>318.34128</ele>
        <time>2021-07-02T14:32:48Z</time>
      </trkpt>
      <trkpt lat="41.865139" lon="2.589170">
        <ele>318.34128</ele>
        <time>2021-07-02T14:32:49Z</time>
      </trkpt>
      <trkpt lat="41.865139" lon="2.589170">
        <ele>317.29044</ele>
        <time>2021-07-02T14:32:50Z</time>
      </trkpt>
      <trkpt lat="41.865257" lon="2.589568">
        <ele>316.23819</ele>
        <time>2021-07-02T14:32:51Z</time>
      </trkpt>
      <trkpt lat="41.866329" lon="2.591566">
        <ele>315.20828</ele>
        <time>2021-07-02T14:32:52Z</time>
      </trkpt>
      <trkpt lat="41.866329" lon="2.591566">
        <ele>315.20920</ele>
        <time>2021-07-02T14:32:53Z</time>
      </trkpt>
      <trkpt lat="41.866421" lon="2.591674">
        <ele>314.10043</ele>
        <time>2021-07-02T14:32:54Z</time>
      </trkpt>
      <trkpt lat="41.866653" lon="2.591931">
        <ele>312.61972</ele>
        <time>2021-07-02T14:32:55Z</time>
      </trkpt>
      <trkpt lat="41.866837" lon="2.592120">
        <ele>311.21976</ele>
        <time>2021-07-02T14:32:56Z</time>
      </trkpt>
      <trkpt lat="41.867088" lon="2.592341">
        <ele>308.88156</ele>
        <time>2021-07-02T14:32:57Z</time>
      </trkpt>
      <trkpt lat="41.867306" lon="2.592505">
        <ele>308.79276</ele>
        <time>2021-07-02T14:32:58Z</time>
      </trkpt>
      <trkpt lat="41.867596" lon="2.592704">
        <ele>307.39328</ele>
        <time>2021-07-02T14:32:59Z</time>
      </trkpt>
      <trkpt lat="41.867874" lon="2.592862">
        <ele>306.11655</ele>
        <time>2021-07-02T14:33:00Z</time>
      </trkpt>
      <trkpt lat="41.868172" lon="2.593002">
        <ele>304.79294</ele>
        <time>2021-07-02T14:33:01Z</time>
      </trkpt>
      <trkpt lat="41.868443" lon="2.593110">
        <ele>303.78818</ele>
        <time>2021-07-02T14:33:02Z</time>
      </trkpt>
      <trkpt lat="41.868759" lon="2.593202">
        <ele>302.52609</ele>
        <time>2021-07-02T14:33:03Z</time>
      </trkpt>
      <trkpt lat="41.869122" lon="2.593274">
        <ele>301.10495</ele>
        <time>2021-07-02T14:33:04Z</time>
      </trkpt>
      <trkpt lat="41.869457" lon="2.593340">
        <ele>299.30258</ele>
        <time>2021-07-02T14:33:05Z</time>
      </trkpt>
      <trkpt lat="41.869762" lon="2.593404">
        <ele>297.71262</ele>
        <time>2021-07-02T14:33:06Z</time>
      </trkpt>
      <trkpt lat="41.870094" lon="2.593473">
        <ele>296.46909</ele>
        <time>2021-07-02T14:33:07Z</time>
      </trkpt>
      <trkpt lat="41.870468" lon="2.593599">
        <ele>295.32468</ele>
        <time>2021-07-02T14:33:08Z</time>
      </trkpt>
      <trkpt lat="41.870800" lon="2.593752">
        <ele>294.08420</ele>
        <time>2021-07-02T14:33:09Z</time>
      </trkpt>
      <trkpt lat="41.871132" lon="2.593941">
        <ele>293.27859</ele>
        <time>2021-07-02T14:33:10Z</time>
      </trkpt>
      <trkpt lat="41.871410" lon="2.594161">
        <ele>292.17429</ele>
        <time>2021-07-02T14:33:11Z</time>
      </trkpt>
      <trkpt lat="41.871716" lon="2.594427">
        <ele>290.90567</ele>
        <time>2021-07-02T14:33:12Z</time>
      </trkpt>
      <trkpt lat="41.872005" lon="2.594729">
        <ele>290.29526</ele>
        <time>2021-07-02T14:33:13Z</time>
      </trkpt>
      <trkpt lat="41.872265" lon="2.595072">
        <ele>288.95663</ele>
        <time>2021-07-02T14:33:14Z</time>
      </trkpt>
      <trkpt lat="41.872265" lon="2.595072">
        <ele>288.81961</ele>
        <time>2021-07-02T14:33:15Z</time>
      </trkpt>
      <trkpt lat="41.872505" lon="2.595427">
        <ele>288.19528</ele>
        <time>2021-07-02T14:33:16Z</time>
      </trkpt>
      <trkpt lat="41.872696" lon="2.595762">
        <ele>287.63327</ele>
        <time>2021-07-02T14:33:17Z</time>
      </trkpt>
      <trkpt lat="41.872910" lon="2.596228">
        <ele>287.13791</ele>
        <time>2021-07-02T14:33:18Z</time>
      </trkpt>
      <trkpt lat="41.873070" lon="2.596675">
        <ele>286.75363</ele>
        <time>2021-07-02T14:33:19Z</time>
      </trkpt>
      <trkpt lat="41.873192" lon="2.597086">
        <ele>286.03415</ele>
        <time>2021-07-02T14:33:20Z</time>
      </trkpt>
      <trkpt lat="41.873295" lon="2.597594">
        <ele>285.15292</ele>
        <time>2021-07-02T14:33:21Z</time>
      </trkpt>
      <trkpt lat="41.873367" lon="2.598112">
        <ele>284.59714</ele>
        <time>2021-07-02T14:33:22Z</time>
      </trkpt>
      <trkpt lat="41.873417" lon="2.598570">
        <ele>283.59116</ele>
        <time>2021-07-02T14:33:23Z</time>
      </trkpt>
      <trkpt lat="41.873470" lon="2.599088">
        <ele>282.52695</ele>
        <time>2021-07-02T14:33:24Z</time>
      </trkpt>
      <trkpt lat="41.873516" lon="2.599537">
        <ele>281.40329</ele>
        <time>2021-07-02T14:33:25Z</time>
      </trkpt>
      <trkpt lat="41.873554" lon="2.599884">
        <ele>280.70627</ele>
        <time>2021-07-02T14:33:26Z</time>
      </trkpt>
      <trkpt lat="41.873600" lon="2.600340">
        <ele>280.53268</ele>
        <time>2021-07-02T14:33:27Z</time>
      </trkpt>
      <trkpt lat="41.873642" lon="2.600742">
        <ele>280.51425</ele>
        <time>2021-07-02T14:33:28Z</time>
      </trkpt>
      <trkpt lat="41.873680" lon="2.601112">
        <ele>280.51425</ele>
        <time>2021-07-02T14:33:29Z</time>
      </trkpt>
      <trkpt lat="41.873718" lon="2.601486">
        <ele>280.51425</ele>
        <time>2021-07-02T14:33:30Z</time>
      </trkpt>
      <trkpt lat="41.873741" lon="2.601668">
        <ele>280.51425</ele>
        <time>2021-07-02T14:33:31Z</time>
      </trkpt>
      <trkpt lat="41.873741" lon="2.601668">
        <ele>280.51425</ele>
        <time>2021-07-02T14:33:32Z</time>
      </trkpt>
      <trkpt lat="41.873741" lon="2.601668">
        <ele>280.51425</ele>
        <time>2021-07-02T14:33:33Z</time>
      </trkpt>
      <trkpt lat="41.873741" lon="2.601668">
        <ele>280.51425</ele>
        <time>2021-07-02T14:33:34Z</time>
      </trkpt>
      <trkpt lat="41.873741" lon="2.601668">
        <ele>280.51425</ele>
        <time>2021-07-02T14:33:35Z</time>
      </trkpt>
      <trkpt lat="41.873741" lon="2.601668">
        <ele>280.51425</ele>
        <time>2021-07-02T14:33:36Z</time>
      </trkpt>
      <trkpt lat="41.873741" lon="2.601668">
        <ele>280.51425</ele>
        <time>2021-07-02T14:33:37Z</time>
      </trkpt>
      <trkpt lat="41.873741" lon="2.601668">
        <ele>280.51425</ele>
        <time>2021-07-02T14:33:38Z</time>
      </trkpt>
      <trkpt lat="41.873741" lon="2.601668">
        <ele>280.51425</ele>
        <time>2021-07-02T14:33:39Z</time>
      </trkpt>
      <trkpt lat="41.873741" lon="2.601668">
        <ele>280.51425</ele>
        <time>2021-07-02T14:33:40Z</time>
      </trkpt>
      <trkpt lat="41.873741" lon="2.601668">
        <ele>280.51425</ele>
        <time>2021-07-02T14:33:41Z</time>
      </trkpt>
      <trkpt lat="41.873741" lon="2.601668">
        <ele>280.51425</ele>
        <time>2021-07-02T14:33:42Z</time>
      </trkpt>
      <trkpt lat="41.873741" lon="2.601668">
        <ele>280.51425</ele>
        <time>2021-07-02T14:33:43Z</time>
      </trkpt>
      <trkpt lat="41.873741" lon="2.601668">
        <ele>275.99496</ele>
        <time>2021-07-02T14:33:44Z</time>
      </trkpt>
      <trkpt lat="41.874249" lon="2.606653">
        <ele>271.79160</ele>
        <time>2021-07-02T14:33:45Z</time>
      </trkpt>
      <trkpt lat="41.874249" lon="2.606653">
        <ele>271.79160</ele>
        <time>2021-07-02T14:33:46Z</time>
      </trkpt>
      <trkpt lat="41.874290" lon="2.607059">
        <ele>266.27060</ele>
        <time>2021-07-02T14:33:47Z</time>
      </trkpt>
      <trkpt lat="41.874313" lon="2.607315">
        <ele>264.40640</ele>
        <time>2021-07-02T14:33:48Z</time>
      </trkpt>
      <trkpt lat="41.874348" lon="2.607649">
        <ele>261.31033</ele>
        <time>2021-07-02T14:33:49Z</time>
      </trkpt>
      <trkpt lat="41.874405" lon="2.608180">
        <ele>258.84286</ele>
        <time>2021-07-02T14:33:50Z</time>
      </trkpt>
      <trkpt lat="41.874447" lon="2.608623">
        <ele>256.76315</ele>
        <time>2021-07-02T14:33:51Z</time>
      </trkpt>
      <trkpt lat="41.874489" lon="2.609041">
        <ele>254.80453</ele>
        <time>2021-07-02T14:33:52Z</time>
      </trkpt>
      <trkpt lat="41.874535" lon="2.609480">
        <ele>252.77628</ele>
        <time>2021-07-02T14:33:53Z</time>
      </trkpt>
      <trkpt lat="41.874588" lon="2.609988">
        <ele>250.78720</ele>
        <time>2021-07-02T14:33:54Z</time>
      </trkpt>
      <trkpt lat="41.874634" lon="2.610448">
        <ele>249.03757</ele>
        <time>2021-07-02T14:33:55Z</time>
      </trkpt>
      <trkpt lat="41.874680" lon="2.610885">
        <ele>247.74136</ele>
        <time>2021-07-02T14:33:56Z</time>
      </trkpt>
      <trkpt lat="41.874718" lon="2.611301">
        <ele>245.60629</ele>
        <time>2021-07-02T14:33:57Z</time>
      </trkpt>
      <trkpt lat="41.874737" lon="2.611773">
        <ele>244.35172</ele>
        <time>2021-07-02T14:33:58Z</time>
      </trkpt>
      <trkpt lat="41.874725" lon="2.612154">
        <ele>243.09787</ele>
        <time>2021-07-02T14:33:59Z</time>
      </trkpt>
      <trkpt lat="41.874680" lon="2.612579">
        <ele>242.21408</ele>
        <time>2021-07-02T14:34:00Z</time>
      </trkpt>
      <trkpt lat="41.874599" lon="2.612981">
        <ele>241.12814</ele>
        <time>2021-07-02T14:34:01Z</time>
      </trkpt>
      <trkpt lat="41.874466" lon="2.613435">
        <ele>240.13010</ele>
        <time>2021-07-02T14:34:02Z</time>
      </trkpt>
      <trkpt lat="41.874317" lon="2.613845">
        <ele>239.13596</ele>
        <time>2021-07-02T14:34:03Z</time>
      </trkpt>
      <trkpt lat="41.874146" lon="2.614262">
        <ele>238.35165</ele>
        <time>2021-07-02T14:34:04Z</time>
      </trkpt>
      <trkpt lat="41.873943" lon="2.614720">
        <ele>237.59372</ele>
        <time>2021-07-02T14:34:05Z</time>
      </trkpt>
      <trkpt lat="41.873760" lon="2.615148">
        <ele>236.47116</ele>
        <time>2021-07-02T14:34:06Z</time>
      </trkpt>
      <trkpt lat="41.873592" lon="2.615598">
        <ele>235.47653</ele>
        <time>2021-07-02T14:34:07Z</time>
      </trkpt>
      <trkpt lat="41.873466" lon="2.616025">
        <ele>234.11679</ele>
        <time>2021-07-02T14:34:08Z</time>
      </trkpt>
      <trkpt lat="41.873371" lon="2.616460">
        <ele>233.18710</ele>
        <time>2021-07-02T14:34:09Z</time>
      </trkpt>
      <trkpt lat="41.873371" lon="2.616460">
        <ele>232.65829</ele>
        <time>2021-07-02T14:34:10Z</time>
      </trkpt>
      <trkpt lat="41.873306" lon="2.616876">
        <ele>232.11581</ele>
        <time>2021-07-02T14:34:11Z</time>
      </trkpt>
      <trkpt lat="41.873272" lon="2.617397">
        <ele>231.42307</ele>
        <time>2021-07-02T14:34:12Z</time>
      </trkpt>
      <trkpt lat="41.873268" lon="2.617887">
        <ele>231.54868</ele>
        <time>2021-07-02T14:34:13Z</time>
      </trkpt>
      <trkpt lat="41.873302" lon="2.618364">
        <ele>231.84940</ele>
        <time>2021-07-02T14:34:14Z</time>
      </trkpt>
      <trkpt lat="41.873356" lon="2.618762">
        <ele>231.73471</ele>
        <time>2021-07-02T14:34:15Z</time>
      </trkpt>
      <trkpt lat="41.873466" lon="2.619260">
        <ele>230.43503</ele>
        <time>2021-07-02T14:34:16Z</time>
      </trkpt>
      <trkpt lat="41.873577" lon="2.619666">
        <ele>230.12308</ele>
        <time>2021-07-02T14:34:17Z</time>
      </trkpt>
      <trkpt lat="41.873714" lon="2.620141">
        <ele>229.18954</ele>
        <time>2021-07-02T14:34:18Z</time>
      </trkpt>
      <trkpt lat="41.873859" lon="2.620594">
        <ele>228.15030</ele>
        <time>2021-07-02T14:34:19Z</time>
      </trkpt>
      <trkpt lat="41.873955" lon="2.621020">
        <ele>227.33835</ele>
        <time>2021-07-02T14:34:20Z</time>
      </trkpt>
      <trkpt lat="41.874050" lon="2.621454">
        <ele>226.58939</ele>
        <time>2021-07-02T14:34:21Z</time>
      </trkpt>
      <trkpt lat="41.874115" lon="2.621856">
        <ele>226.16342</ele>
        <time>2021-07-02T14:34:22Z</time>
      </trkpt>
      <trkpt lat="41.874165" lon="2.622223">
        <ele>225.72702</ele>
        <time>2021-07-02T14:34:23Z</time>
      </trkpt>
      <trkpt lat="41.874233" lon="2.622700">
        <ele>225.57278</ele>
        <time>2021-07-02T14:34:24Z</time>
      </trkpt>
      <trkpt lat="41.874294" lon="2.623138">
        <ele>225.33835</ele>
        <time>2021-07-02T14:34:25Z</time>
      </trkpt>
      <trkpt lat="41.874344" lon="2.623565">
        <ele>224.90634</ele>
        <time>2021-07-02T14:34:26Z</time>
      </trkpt>
      <trkpt lat="41.874386" lon="2.624050">
        <ele>224.34824</ele>
        <time>2021-07-02T14:34:27Z</time>
      </trkpt>
      <trkpt lat="41.874390" lon="2.624475">
        <ele>223.77133</ele>
        <time>2021-07-02T14:34:28Z</time>
      </trkpt>
      <trkpt lat="41.874393" lon="2.624958">
        <ele>223.49533</ele>
        <time>2021-07-02T14:34:29Z</time>
      </trkpt>
      <trkpt lat="41.874397" lon="2.625421">
        <ele>223.07462</ele>
        <time>2021-07-02T14:34:30Z</time>
      </trkpt>
      <trkpt lat="41.874397" lon="2.625927">
        <ele>222.90060</ele>
        <time>2021-07-02T14:34:31Z</time>
      </trkpt>
      <trkpt lat="41.874390" lon="2.626356">
        <ele>222.70596</ele>
        <time>2021-07-02T14:34:32Z</time>
      </trkpt>
      <trkpt lat="41.874390" lon="2.626797">
        <ele>221.99930</ele>
        <time>2021-07-02T14:34:33Z</time>
      </trkpt>
      <trkpt lat="41.874409" lon="2.627288">
        <ele>221.34225</ele>
        <time>2021-07-02T14:34:34Z</time>
      </trkpt>
      <trkpt lat="41.874451" lon="2.627725">
        <ele>221.16153</ele>
        <time>2021-07-02T14:34:35Z</time>
      </trkpt>
      <trkpt lat="41.874496" lon="2.628137">
        <ele>220.89218</ele>
        <time>2021-07-02T14:34:36Z</time>
      </trkpt>
      <trkpt lat="41.874588" lon="2.628662">
        <ele>220.52231</ele>
        <time>2021-07-02T14:34:37Z</time>
      </trkpt>
      <trkpt lat="41.874680" lon="2.629125">
        <ele>220.52768</ele>
        <time>2021-07-02T14:34:38Z</time>
      </trkpt>
      <trkpt lat="41.874680" lon="2.629125">
        <ele>220.11093</ele>
        <time>2021-07-02T14:34:39Z</time>
      </trkpt>
      <trkpt lat="41.874901" lon="2.629928">
        <ele>219.44266</ele>
        <time>2021-07-02T14:34:40Z</time>
      </trkpt>
      <trkpt lat="41.874901" lon="2.629928">
        <ele>218.72922</ele>
        <time>2021-07-02T14:34:41Z</time>
      </trkpt>
      <trkpt lat="41.875057" lon="2.630386">
        <ele>217.87436</ele>
        <time>2021-07-02T14:34:42Z</time>
      </trkpt>
      <trkpt lat="41.875210" lon="2.630810">
        <ele>217.40201</ele>
        <time>2021-07-02T14:34:43Z</time>
      </trkpt>
      <trkpt lat="41.875355" lon="2.631210">
        <ele>216.96860</ele>
        <time>2021-07-02T14:34:44Z</time>
      </trkpt>
      <trkpt lat="41.875473" lon="2.631537">
        <ele>216.20132</ele>
        <time>2021-07-02T14:34:45Z</time>
      </trkpt>
      <trkpt lat="41.875626" lon="2.631990">
        <ele>215.89359</ele>
        <time>2021-07-02T14:34:46Z</time>
      </trkpt>
      <trkpt lat="41.875751" lon="2.632436">
        <ele>215.81937</ele>
        <time>2021-07-02T14:34:47Z</time>
      </trkpt>
      <trkpt lat="41.875858" lon="2.632869">
        <ele>216.37460</ele>
        <time>2021-07-02T14:34:48Z</time>
      </trkpt>
      <trkpt lat="41.875954" lon="2.633308">
        <ele>216.61972</ele>
        <time>2021-07-02T14:34:49Z</time>
      </trkpt>
      <trkpt lat="41.876022" lon="2.633822">
        <ele>217.27292</ele>
        <time>2021-07-02T14:34:50Z</time>
      </trkpt>
      <trkpt lat="41.876091" lon="2.634442">
        <ele>217.57516</ele>
        <time>2021-07-02T14:34:51Z</time>
      </trkpt>
      <trkpt lat="41.876141" lon="2.634974">
        <ele>218.34811</ele>
        <time>2021-07-02T14:34:52Z</time>
      </trkpt>
      <trkpt lat="41.876190" lon="2.635453">
        <ele>219.41818</ele>
        <time>2021-07-02T14:34:53Z</time>
      </trkpt>
      <trkpt lat="41.876270" lon="2.635954">
        <ele>219.93576</ele>
        <time>2021-07-02T14:34:54Z</time>
      </trkpt>
      <trkpt lat="41.876373" lon="2.636432">
        <ele>220.63858</ele>
        <time>2021-07-02T14:34:55Z</time>
      </trkpt>
      <trkpt lat="41.876495" lon="2.636871">
        <ele>220.80270</ele>
        <time>2021-07-02T14:34:56Z</time>
      </trkpt>
      <trkpt lat="41.876640" lon="2.637326">
        <ele>221.01730</ele>
        <time>2021-07-02T14:34:57Z</time>
      </trkpt>
      <trkpt lat="41.876835" lon="2.637799">
        <ele>221.69681</ele>
        <time>2021-07-02T14:34:58Z</time>
      </trkpt>
      <trkpt lat="41.877010" lon="2.638155">
        <ele>222.57858</ele>
        <time>2021-07-02T14:34:59Z</time>
      </trkpt>
      <trkpt lat="41.877216" lon="2.638530">
        <ele>222.44034</ele>
        <time>2021-07-02T14:35:00Z</time>
      </trkpt>
      <trkpt lat="41.877441" lon="2.638899">
        <ele>222.24203</ele>
        <time>2021-07-02T14:35:01Z</time>
      </trkpt>
      <trkpt lat="41.877674" lon="2.639208">
        <ele>222.24985</ele>
        <time>2021-07-02T14:35:02Z</time>
      </trkpt>
      <trkpt lat="41.877922" lon="2.639511">
        <ele>221.61276</ele>
        <time>2021-07-02T14:35:03Z</time>
      </trkpt>
      <trkpt lat="41.878170" lon="2.639777">
        <ele>221.32748</ele>
        <time>2021-07-02T14:35:04Z</time>
      </trkpt>
      <trkpt lat="41.878418" lon="2.640012">
        <ele>221.05978</ele>
        <time>2021-07-02T14:35:05Z</time>
      </trkpt>
      <trkpt lat="41.878418" lon="2.640012">
        <ele>220.16843</ele>
        <time>2021-07-02T14:35:06Z</time>
      </trkpt>
      <trkpt lat="41.878666" lon="2.640228">
        <ele>219.38254</ele>
        <time>2021-07-02T14:35:07Z</time>
      </trkpt>
      <trkpt lat="41.879215" lon="2.640712">
        <ele>217.81918</ele>
        <time>2021-07-02T14:35:08Z</time>
      </trkpt>
      <trkpt lat="41.879215" lon="2.640712">
        <ele>217.17319</ele>
        <time>2021-07-02T14:35:09Z</time>
      </trkpt>
      <trkpt lat="41.879486" lon="2.640973">
        <ele>216.39999</ele>
        <time>2021-07-02T14:35:10Z</time>
      </trkpt>
      <trkpt lat="41.879723" lon="2.641237">
        <ele>215.47836</ele>
        <time>2021-07-02T14:35:11Z</time>
      </trkpt>
      <trkpt lat="41.879917" lon="2.641492">
        <ele>214.96573</ele>
        <time>2021-07-02T14:35:12Z</time>
      </trkpt>
      <trkpt lat="41.880154" lon="2.641831">
        <ele>214.63382</ele>
        <time>2021-07-02T14:35:13Z</time>
      </trkpt>
      <trkpt lat="41.880363" lon="2.642171">
        <ele>214.26962</ele>
        <time>2021-07-02T14:35:14Z</time>
      </trkpt>
      <trkpt lat="41.880550" lon="2.642536">
        <ele>212.69681</ele>
        <time>2021-07-02T14:35:15Z</time>
      </trkpt>
      <trkpt lat="41.880714" lon="2.642901">
        <ele>212.69687</ele>
        <time>2021-07-02T14:35:16Z</time>
      </trkpt>
      <trkpt lat="41.880852" lon="2.643260">
        <ele>211.51547</ele>
        <time>2021-07-02T14:35:17Z</time>
      </trkpt>
      <trkpt lat="41.880962" lon="2.643612">
        <ele>211.42349</ele>
        <time>2021-07-02T14:35:18Z</time>
      </trkpt>
      <trkpt lat="41.881077" lon="2.644018">
        <ele>211.53220</ele>
        <time>2021-07-02T14:35:19Z</time>
      </trkpt>
      <trkpt lat="41.881172" lon="2.644475">
        <ele>211.75754</ele>
        <time>2021-07-02T14:35:20Z</time>
      </trkpt>
      <trkpt lat="41.881256" lon="2.644883">
        <ele>212.46103</ele>
        <time>2021-07-02T14:35:21Z</time>
      </trkpt>
      <trkpt lat="41.881344" lon="2.645307">
        <ele>212.56021</ele>
        <time>2021-07-02T14:35:22Z</time>
      </trkpt>
      <trkpt lat="41.881428" lon="2.645707">
        <ele>213.13278</ele>
        <time>2021-07-02T14:35:23Z</time>
      </trkpt>
      <trkpt lat="41.881535" lon="2.646127">
        <ele>213.82217</ele>
        <time>2021-07-02T14:35:24Z</time>
      </trkpt>
      <trkpt lat="41.881660" lon="2.646517">
        <ele>214.48032</ele>
        <time>2021-07-02T14:35:25Z</time>
      </trkpt>
      <trkpt lat="41.881779" lon="2.646872">
        <ele>214.66476</ele>
        <time>2021-07-02T14:35:26Z</time>
      </trkpt>
      <trkpt lat="41.881912" lon="2.647194">
        <ele>214.39255</ele>
        <time>2021-07-02T14:35:27Z</time>
      </trkpt>
      <trkpt lat="41.882065" lon="2.647527">
        <ele>214.76199</ele>
        <time>2021-07-02T14:35:28Z</time>
      </trkpt>
      <trkpt lat="41.882221" lon="2.647846">
        <ele>215.25705</ele>
        <time>2021-07-02T14:35:29Z</time>
      </trkpt>
      <trkpt lat="41.882404" lon="2.648163">
        <ele>215.01266</ele>
        <time>2021-07-02T14:35:30Z</time>
      </trkpt>
      <trkpt lat="41.882629" lon="2.648517">
        <ele>214.95810</ele>
        <time>2021-07-02T14:35:31Z</time>
      </trkpt>
      <trkpt lat="41.882866" lon="2.648849">
        <ele>215.20016</ele>
        <time>2021-07-02T14:35:32Z</time>
      </trkpt>
      <trkpt lat="41.883095" lon="2.649169">
        <ele>215.43832</ele>
        <time>2021-07-02T14:35:33Z</time>
      </trkpt>
      <trkpt lat="41.883316" lon="2.649479">
        <ele>215.45175</ele>
        <time>2021-07-02T14:35:34Z</time>
      </trkpt>
      <trkpt lat="41.883583" lon="2.649847">
        <ele>215.09274</ele>
        <time>2021-07-02T14:35:35Z</time>
      </trkpt>
      <trkpt lat="41.883816" lon="2.650167">
        <ele>215.30685</ele>
        <time>2021-07-02T14:35:36Z</time>
      </trkpt>
      <trkpt lat="41.884064" lon="2.650511">
        <ele>215.11874</ele>
        <time>2021-07-02T14:35:37Z</time>
      </trkpt>
      <trkpt lat="41.884064" lon="2.650511">
        <ele>214.92807</ele>
        <time>2021-07-02T14:35:38Z</time>
      </trkpt>
      <trkpt lat="41.884315" lon="2.650856">
        <ele>214.85831</ele>
        <time>2021-07-02T14:35:39Z</time>
      </trkpt>
      <trkpt lat="41.884598" lon="2.651242">
        <ele>215.25607</ele>
        <time>2021-07-02T14:35:40Z</time>
      </trkpt>
      <trkpt lat="41.885082" lon="2.651883">
        <ele>215.77402</ele>
        <time>2021-07-02T14:35:41Z</time>
      </trkpt>
      <trkpt lat="41.885082" lon="2.651883">
        <ele>215.16354</ele>
        <time>2021-07-02T14:35:42Z</time>
      </trkpt>
      <trkpt lat="41.885391" lon="2.652243">
        <ele>215.58249</ele>
        <time>2021-07-02T14:35:43Z</time>
      </trkpt>
      <trkpt lat="41.885700" lon="2.652561">
        <ele>215.53519</ele>
        <time>2021-07-02T14:35:44Z</time>
      </trkpt>
      <trkpt lat="41.885986" lon="2.652807">
        <ele>215.44003</ele>
        <time>2021-07-02T14:35:45Z</time>
      </trkpt>
      <trkpt lat="41.886368" lon="2.653090">
        <ele>214.83847</ele>
        <time>2021-07-02T14:35:46Z</time>
      </trkpt>
      <trkpt lat="41.886673" lon="2.653294">
        <ele>214.60922</ele>
        <time>2021-07-02T14:35:47Z</time>
      </trkpt>
      <trkpt lat="41.887096" lon="2.653525">
        <ele>214.50937</ele>
        <time>2021-07-02T14:35:48Z</time>
      </trkpt>
      <trkpt lat="41.887543" lon="2.653732">
        <ele>213.96805</ele>
        <time>2021-07-02T14:35:49Z</time>
      </trkpt>
      <trkpt lat="41.887825" lon="2.653863">
        <ele>214.16330</ele>
        <time>2021-07-02T14:35:50Z</time>
      </trkpt>
      <trkpt lat="41.888184" lon="2.654038">
        <ele>214.50815</ele>
        <time>2021-07-02T14:35:51Z</time>
      </trkpt>
      <trkpt lat="41.888519" lon="2.654240">
        <ele>215.45724</ele>
        <time>2021-07-02T14:35:52Z</time>
      </trkpt>
      <trkpt lat="41.888844" lon="2.654466">
        <ele>216.86447</ele>
        <time>2021-07-02T14:35:53Z</time>
      </trkpt>
      <trkpt lat="41.889149" lon="2.654748">
        <ele>218.23935</ele>
        <time>2021-07-02T14:35:54Z</time>
      </trkpt>
      <trkpt lat="41.889553" lon="2.655266">
        <ele>220.04416</ele>
        <time>2021-07-02T14:35:55Z</time>
      </trkpt>
      <trkpt lat="41.889706" lon="2.655549">
        <ele>221.75241</ele>
        <time>2021-07-02T14:35:56Z</time>
      </trkpt>
      <trkpt lat="41.889912" lon="2.655939">
        <ele>223.15024</ele>
        <time>2021-07-02T14:35:57Z</time>
      </trkpt>
      <trkpt lat="41.890091" lon="2.656282">
        <ele>223.81503</ele>
        <time>2021-07-02T14:35:58Z</time>
      </trkpt>
      <trkpt lat="41.890240" lon="2.656648">
        <ele>224.47446</ele>
        <time>2021-07-02T14:35:59Z</time>
      </trkpt>
      <trkpt lat="41.890388" lon="2.657150">
        <ele>224.96286</ele>
        <time>2021-07-02T14:36:00Z</time>
      </trkpt>
      <trkpt lat="41.890518" lon="2.657591">
        <ele>224.37534</ele>
        <time>2021-07-02T14:36:01Z</time>
      </trkpt>
      <trkpt lat="41.890732" lon="2.658034">
        <ele>223.96616</ele>
        <time>2021-07-02T14:36:02Z</time>
      </trkpt>
      <trkpt lat="41.890854" lon="2.658525">
        <ele>224.28818</ele>
        <time>2021-07-02T14:36:03Z</time>
      </trkpt>
      <trkpt lat="41.890961" lon="2.659025">
        <ele>223.52969</ele>
        <time>2021-07-02T14:36:04Z</time>
      </trkpt>
      <trkpt lat="41.890961" lon="2.659025">
        <ele>222.07016</ele>
        <time>2021-07-02T14:36:05Z</time>
      </trkpt>
      <trkpt lat="41.891037" lon="2.659425">
        <ele>221.73544</ele>
        <time>2021-07-02T14:36:06Z</time>
      </trkpt>
      <trkpt lat="41.891136" lon="2.659965">
        <ele>220.97922</ele>
        <time>2021-07-02T14:36:07Z</time>
      </trkpt>
      <trkpt lat="41.891205" lon="2.660417">
        <ele>218.98923</ele>
        <time>2021-07-02T14:36:08Z</time>
      </trkpt>
      <trkpt lat="41.891205" lon="2.660417">
        <ele>217.42368</ele>
        <time>2021-07-02T14:36:09Z</time>
      </trkpt>
      <trkpt lat="41.891205" lon="2.660417">
        <ele>215.30673</ele>
        <time>2021-07-02T14:36:10Z</time>
      </trkpt>
      <trkpt lat="41.891380" lon="2.661992">
        <ele>213.50180</ele>
        <time>2021-07-02T14:36:11Z</time>
      </trkpt>
      <trkpt lat="41.891407" lon="2.662479">
        <ele>212.11594</ele>
        <time>2021-07-02T14:36:12Z</time>
      </trkpt>
      <trkpt lat="41.891411" lon="2.662998">
        <ele>211.35593</ele>
        <time>2021-07-02T14:36:13Z</time>
      </trkpt>
      <trkpt lat="41.891396" lon="2.663470">
        <ele>209.92398</ele>
        <time>2021-07-02T14:36:14Z</time>
      </trkpt>
      <trkpt lat="41.891361" lon="2.663948">
        <ele>209.39560</ele>
        <time>2021-07-02T14:36:15Z</time>
      </trkpt>
      <trkpt lat="41.891312" lon="2.664409">
        <ele>208.95016</ele>
        <time>2021-07-02T14:36:16Z</time>
      </trkpt>
      <trkpt lat="41.891247" lon="2.664825">
        <ele>208.29745</ele>
        <time>2021-07-02T14:36:17Z</time>
      </trkpt>
      <trkpt lat="41.891190" lon="2.665149">
        <ele>207.39072</ele>
        <time>2021-07-02T14:36:18Z</time>
      </trkpt>
      <trkpt lat="41.891087" lon="2.665583">
        <ele>205.88187</ele>
        <time>2021-07-02T14:36:19Z</time>
      </trkpt>
      <trkpt lat="41.890980" lon="2.666013">
        <ele>204.64438</ele>
        <time>2021-07-02T14:36:20Z</time>
      </trkpt>
      <trkpt lat="41.890980" lon="2.666013">
        <ele>203.56821</ele>
        <time>2021-07-02T14:36:21Z</time>
      </trkpt>
      <trkpt lat="41.890862" lon="2.666396">
        <ele>200.88028</ele>
        <time>2021-07-02T14:36:22Z</time>
      </trkpt>
      <trkpt lat="41.890694" lon="2.666879">
        <ele>199.03513</ele>
        <time>2021-07-02T14:36:23Z</time>
      </trkpt>
      <trkpt lat="41.890514" lon="2.667313">
        <ele>197.39127</ele>
        <time>2021-07-02T14:36:24Z</time>
      </trkpt>
      <trkpt lat="41.890335" lon="2.667735">
        <ele>195.75809</ele>
        <time>2021-07-02T14:36:25Z</time>
      </trkpt>
      <trkpt lat="41.890148" lon="2.668149">
        <ele>194.51315</ele>
        <time>2021-07-02T14:36:26Z</time>
      </trkpt>
      <trkpt lat="41.889969" lon="2.668551">
        <ele>193.61520</ele>
        <time>2021-07-02T14:36:27Z</time>
      </trkpt>
      <trkpt lat="41.889771" lon="2.668999">
        <ele>193.00351</ele>
        <time>2021-07-02T14:36:28Z</time>
      </trkpt>
      <trkpt lat="41.889606" lon="2.669360">
        <ele>192.71182</ele>
        <time>2021-07-02T14:36:29Z</time>
      </trkpt>
      <trkpt lat="41.889431" lon="2.669756">
        <ele>192.75369</ele>
        <time>2021-07-02T14:36:30Z</time>
      </trkpt>
      <trkpt lat="41.889236" lon="2.670193">
        <ele>192.71323</ele>
        <time>2021-07-02T14:36:31Z</time>
      </trkpt>
      <trkpt lat="41.889088" lon="2.670527">
        <ele>192.72708</ele>
        <time>2021-07-02T14:36:32Z</time>
      </trkpt>
      <trkpt lat="41.888916" lon="2.670906">
        <ele>192.98764</ele>
        <time>2021-07-02T14:36:33Z</time>
      </trkpt>
      <trkpt lat="41.888748" lon="2.671279">
        <ele>193.23404</ele>
        <time>2021-07-02T14:36:34Z</time>
      </trkpt>
      <trkpt lat="41.888607" lon="2.671598">
        <ele>192.99246</ele>
        <time>2021-07-02T14:36:35Z</time>
      </trkpt>
      <trkpt lat="41.888435" lon="2.671983">
        <ele>192.83517</ele>
        <time>2021-07-02T14:36:36Z</time>
      </trkpt>
      <trkpt lat="41.888260" lon="2.672377">
        <ele>192.89841</ele>
        <time>2021-07-02T14:36:37Z</time>
      </trkpt>
      <trkpt lat="41.888096" lon="2.672740">
        <ele>192.74069</ele>
        <time>2021-07-02T14:36:38Z</time>
      </trkpt>
      <trkpt lat="41.887939" lon="2.673078">
        <ele>192.67673</ele>
        <time>2021-07-02T14:36:39Z</time>
      </trkpt>
      <trkpt lat="41.887775" lon="2.673423">
        <ele>192.39322</ele>
        <time>2021-07-02T14:36:40Z</time>
      </trkpt>
      <trkpt lat="41.887608" lon="2.673768">
        <ele>192.47861</ele>
        <time>2021-07-02T14:36:41Z</time>
      </trkpt>
      <trkpt lat="41.887432" lon="2.674090">
        <ele>191.99997</ele>
        <time>2021-07-02T14:36:42Z</time>
      </trkpt>
      <trkpt lat="41.887257" lon="2.674410">
        <ele>192.23337</ele>
        <time>2021-07-02T14:36:43Z</time>
      </trkpt>
      <trkpt lat="41.887074" lon="2.674707">
        <ele>191.26541</ele>
        <time>2021-07-02T14:36:44Z</time>
      </trkpt>
      <trkpt lat="41.886883" lon="2.675025">
        <ele>190.88657</ele>
        <time>2021-07-02T14:36:45Z</time>
      </trkpt>
      <trkpt lat="41.886646" lon="2.675405">
        <ele>190.50754</ele>
        <time>2021-07-02T14:36:46Z</time>
      </trkpt>
      <trkpt lat="41.886646" lon="2.675405">
        <ele>190.11948</ele>
        <time>2021-07-02T14:36:47Z</time>
      </trkpt>
      <trkpt lat="41.886341" lon="2.675893">
        <ele>189.47751</ele>
        <time>2021-07-02T14:36:48Z</time>
      </trkpt>
      <trkpt lat="41.886097" lon="2.676284">
        <ele>188.91830</ele>
        <time>2021-07-02T14:36:49Z</time>
      </trkpt>
      <trkpt lat="41.885853" lon="2.676674">
        <ele>188.31326</ele>
        <time>2021-07-02T14:36:50Z</time>
      </trkpt>
      <trkpt lat="41.885616" lon="2.677055">
        <ele>187.69754</ele>
        <time>2021-07-02T14:36:51Z</time>
      </trkpt>
      <trkpt lat="41.885357" lon="2.677470">
        <ele>187.08762</ele>
        <time>2021-07-02T14:36:52Z</time>
      </trkpt>
      <trkpt lat="41.885128" lon="2.677832">
        <ele>186.34360</ele>
        <time>2021-07-02T14:36:53Z</time>
      </trkpt>
      <trkpt lat="41.884857" lon="2.678266">
        <ele>185.63339</ele>
        <time>2021-07-02T14:36:54Z</time>
      </trkpt>
      <trkpt lat="41.884636" lon="2.678638">
        <ele>184.92001</ele>
        <time>2021-07-02T14:36:55Z</time>
      </trkpt>
      <trkpt lat="41.884434" lon="2.679016">
        <ele>183.85373</ele>
        <time>2021-07-02T14:36:56Z</time>
      </trkpt>
      <trkpt lat="41.884220" lon="2.679463">
        <ele>182.88083</ele>
        <time>2021-07-02T14:36:57Z</time>
      </trkpt>
      <trkpt lat="41.884045" lon="2.679858">
        <ele>181.87729</ele>
        <time>2021-07-02T14:36:58Z</time>
      </trkpt>
      <trkpt lat="41.883877" lon="2.680288">
        <ele>180.81436</ele>
        <time>2021-07-02T14:36:59Z</time>
      </trkpt>
      <trkpt lat="41.883732" lon="2.680725">
        <ele>179.60159</ele>
        <time>2021-07-02T14:37:00Z</time>
      </trkpt>
      <trkpt lat="41.883595" lon="2.681188">
        <ele>178.48776</ele>
        <time>2021-07-02T14:37:01Z</time>
      </trkpt>
      <trkpt lat="41.883465" lon="2.681647">
        <ele>177.54214</ele>
        <time>2021-07-02T14:37:02Z</time>
      </trkpt>
      <trkpt lat="41.883339" lon="2.682102">
        <ele>176.82437</ele>
        <time>2021-07-02T14:37:03Z</time>
      </trkpt>
      <trkpt lat="41.883217" lon="2.682550">
        <ele>175.17978</ele>
        <time>2021-07-02T14:37:04Z</time>
      </trkpt>
      <trkpt lat="41.883087" lon="2.683008">
        <ele>174.13596</ele>
        <time>2021-07-02T14:37:05Z</time>
      </trkpt>
      <trkpt lat="41.882969" lon="2.683434">
        <ele>173.28458</ele>
        <time>2021-07-02T14:37:06Z</time>
      </trkpt>
      <trkpt lat="41.882854" lon="2.683855">
        <ele>172.93857</ele>
        <time>2021-07-02T14:37:07Z</time>
      </trkpt>
      <trkpt lat="41.882721" lon="2.684322">
        <ele>172.35446</ele>
        <time>2021-07-02T14:37:08Z</time>
      </trkpt>
      <trkpt lat="41.882572" lon="2.684827">
        <ele>171.37607</ele>
        <time>2021-07-02T14:37:09Z</time>
      </trkpt>
      <trkpt lat="41.882442" lon="2.685233">
        <ele>171.22702</ele>
        <time>2021-07-02T14:37:10Z</time>
      </trkpt>
      <trkpt lat="41.882271" lon="2.685686">
        <ele>171.12918</ele>
        <time>2021-07-02T14:37:11Z</time>
      </trkpt>
      <trkpt lat="41.882107" lon="2.686093">
        <ele>170.84628</ele>
        <time>2021-07-02T14:37:12Z</time>
      </trkpt>
      <trkpt lat="41.881935" lon="2.686475">
        <ele>169.75388</ele>
        <time>2021-07-02T14:37:13Z</time>
      </trkpt>
      <trkpt lat="41.881718" lon="2.686917">
        <ele>169.10208</ele>
        <time>2021-07-02T14:37:14Z</time>
      </trkpt>
      <trkpt lat="41.881718" lon="2.686917">
        <ele>168.32870</ele>
        <time>2021-07-02T14:37:15Z</time>
      </trkpt>
      <trkpt lat="41.881508" lon="2.687302">
        <ele>167.66928</ele>
        <time>2021-07-02T14:37:16Z</time>
      </trkpt>
      <trkpt lat="41.881275" lon="2.687693">
        <ele>167.47641</ele>
        <time>2021-07-02T14:37:17Z</time>
      </trkpt>
      <trkpt lat="41.881016" lon="2.688075">
        <ele>167.07516</ele>
        <time>2021-07-02T14:37:18Z</time>
      </trkpt>
      <trkpt lat="41.880775" lon="2.688431">
        <ele>166.88309</ele>
        <time>2021-07-02T14:37:19Z</time>
      </trkpt>
      <trkpt lat="41.880562" lon="2.688747">
        <ele>165.96909</ele>
        <time>2021-07-02T14:37:20Z</time>
      </trkpt>
      <trkpt lat="41.880291" lon="2.689178">
        <ele>165.24503</ele>
        <time>2021-07-02T14:37:21Z</time>
      </trkpt>
      <trkpt lat="41.880074" lon="2.689572">
        <ele>164.59439</ele>
        <time>2021-07-02T14:37:22Z</time>
      </trkpt>
      <trkpt lat="41.879868" lon="2.689964">
        <ele>163.82260</ele>
        <time>2021-07-02T14:37:23Z</time>
      </trkpt>
      <trkpt lat="41.879681" lon="2.690337">
        <ele>163.25424</ele>
        <time>2021-07-02T14:37:24Z</time>
      </trkpt>
      <trkpt lat="41.879478" lon="2.690787">
        <ele>162.39413</ele>
        <time>2021-07-02T14:37:25Z</time>
      </trkpt>
      <trkpt lat="41.879425" lon="2.690899">
        <ele>161.76645</ele>
        <time>2021-07-02T14:37:26Z</time>
      </trkpt>
      <trkpt lat="41.879173" lon="2.691369">
        <ele>160.61313</ele>
        <time>2021-07-02T14:37:27Z</time>
      </trkpt>
      <trkpt lat="41.878868" lon="2.692078">
        <ele>159.71274</ele>
        <time>2021-07-02T14:37:28Z</time>
      </trkpt>
      <trkpt lat="41.878712" lon="2.692498">
        <ele>159.16238</ele>
        <time>2021-07-02T14:37:29Z</time>
      </trkpt>
      <trkpt lat="41.878704" lon="2.693169">
        <ele>158.30106</ele>
        <time>2021-07-02T14:37:30Z</time>
      </trkpt>
      <trkpt lat="41.878601" lon="2.693668">
        <ele>157.06046</ele>
        <time>2021-07-02T14:37:31Z</time>
      </trkpt>
      <trkpt lat="41.878510" lon="2.694177">
        <ele>156.09634</ele>
        <time>2021-07-02T14:37:32Z</time>
      </trkpt>
      <trkpt lat="41.878441" lon="2.694652">
        <ele>154.88174</ele>
        <time>2021-07-02T14:37:33Z</time>
      </trkpt>
      <trkpt lat="41.878384" lon="2.695199">
        <ele>154.08658</ele>
        <time>2021-07-02T14:37:34Z</time>
      </trkpt>
      <trkpt lat="41.878384" lon="2.695199">
        <ele>153.06326</ele>
        <time>2021-07-02T14:37:35Z</time>
      </trkpt>
      <trkpt lat="41.878384" lon="2.695199">
        <ele>151.82632</ele>
        <time>2021-07-02T14:37:36Z</time>
      </trkpt>
      <trkpt lat="41.878384" lon="2.695199">
        <ele>151.04990</ele>
        <time>2021-07-02T14:37:37Z</time>
      </trkpt>
      <trkpt lat="41.878315" lon="2.697062">
        <ele>151.08450</ele>
        <time>2021-07-02T14:37:38Z</time>
      </trkpt>
      <trkpt lat="41.878338" lon="2.697553">
        <ele>151.27927</ele>
        <time>2021-07-02T14:37:39Z</time>
      </trkpt>
      <trkpt lat="41.878384" lon="2.698221">
        <ele>151.70786</ele>
        <time>2021-07-02T14:37:40Z</time>
      </trkpt>
      <trkpt lat="41.878384" lon="2.698221">
        <ele>152.47580</ele>
        <time>2021-07-02T14:37:41Z</time>
      </trkpt>
      <trkpt lat="41.878433" lon="2.698728">
        <ele>153.64597</ele>
        <time>2021-07-02T14:37:42Z</time>
      </trkpt>
      <trkpt lat="41.878498" lon="2.699264">
        <ele>155.00528</ele>
        <time>2021-07-02T14:37:43Z</time>
      </trkpt>
      <trkpt lat="41.878582" lon="2.699710">
        <ele>156.44943</ele>
        <time>2021-07-02T14:37:44Z</time>
      </trkpt>
      <trkpt lat="41.878689" lon="2.700220">
        <ele>157.54312</ele>
        <time>2021-07-02T14:37:45Z</time>
      </trkpt>
      <trkpt lat="41.878796" lon="2.700638">
        <ele>158.35165</ele>
        <time>2021-07-02T14:37:46Z</time>
      </trkpt>
      <trkpt lat="41.878922" lon="2.701115">
        <ele>158.94803</ele>
        <time>2021-07-02T14:37:47Z</time>
      </trkpt>
      <trkpt lat="41.879047" lon="2.701593">
        <ele>159.34543</ele>
        <time>2021-07-02T14:37:48Z</time>
      </trkpt>
      <trkpt lat="41.879162" lon="2.702034">
        <ele>159.87473</ele>
        <time>2021-07-02T14:37:49Z</time>
      </trkpt>
      <trkpt lat="41.879257" lon="2.702510">
        <ele>159.73215</ele>
        <time>2021-07-02T14:37:50Z</time>
      </trkpt>
      <trkpt lat="41.879353" lon="2.703021">
        <ele>159.82419</ele>
        <time>2021-07-02T14:37:51Z</time>
      </trkpt>
      <trkpt lat="41.879414" lon="2.703497">
        <ele>159.59134</ele>
        <time>2021-07-02T14:37:52Z</time>
      </trkpt>
      <trkpt lat="41.879459" lon="2.703930">
        <ele>159.24857</ele>
        <time>2021-07-02T14:37:53Z</time>
      </trkpt>
      <trkpt lat="41.879498" lon="2.704351">
        <ele>158.53641</ele>
        <time>2021-07-02T14:37:54Z</time>
      </trkpt>
      <trkpt lat="41.879532" lon="2.704780">
        <ele>157.61801</ele>
        <time>2021-07-02T14:37:55Z</time>
      </trkpt>
      <trkpt lat="41.879566" lon="2.705234">
        <ele>156.66507</ele>
        <time>2021-07-02T14:37:56Z</time>
      </trkpt>
      <trkpt lat="41.879608" lon="2.705772">
        <ele>156.19730</ele>
        <time>2021-07-02T14:37:57Z</time>
      </trkpt>
      <trkpt lat="41.879646" lon="2.706284">
        <ele>155.20053</ele>
        <time>2021-07-02T14:37:58Z</time>
      </trkpt>
      <trkpt lat="41.879681" lon="2.706724">
        <ele>154.26395</ele>
        <time>2021-07-02T14:37:59Z</time>
      </trkpt>
      <trkpt lat="41.879719" lon="2.707230">
        <ele>153.14108</ele>
        <time>2021-07-02T14:38:00Z</time>
      </trkpt>
      <trkpt lat="41.879753" lon="2.707678">
        <ele>152.94742</ele>
        <time>2021-07-02T14:38:01Z</time>
      </trkpt>
      <trkpt lat="41.879791" lon="2.708124">
        <ele>152.23660</ele>
        <time>2021-07-02T14:38:02Z</time>
      </trkpt>
      <trkpt lat="41.879791" lon="2.708124">
        <ele>152.09726</ele>
        <time>2021-07-02T14:38:03Z</time>
      </trkpt>
      <trkpt lat="41.879852" lon="2.708948">
        <ele>151.77982</ele>
        <time>2021-07-02T14:38:04Z</time>
      </trkpt>
      <trkpt lat="41.879852" lon="2.708948">
        <ele>152.04721</ele>
        <time>2021-07-02T14:38:05Z</time>
      </trkpt>
      <trkpt lat="41.879883" lon="2.709324">
        <ele>151.73837</ele>
        <time>2021-07-02T14:38:06Z</time>
      </trkpt>
      <trkpt lat="41.879910" lon="2.709687">
        <ele>151.91568</ele>
        <time>2021-07-02T14:38:07Z</time>
      </trkpt>
      <trkpt lat="41.879936" lon="2.710016">
        <ele>151.47720</ele>
        <time>2021-07-02T14:38:08Z</time>
      </trkpt>
      <trkpt lat="41.879959" lon="2.710346">
        <ele>151.56088</ele>
        <time>2021-07-02T14:38:09Z</time>
      </trkpt>
      <trkpt lat="41.879986" lon="2.710655">
        <ele>151.51419</ele>
        <time>2021-07-02T14:38:10Z</time>
      </trkpt>
      <trkpt lat="41.880016" lon="2.711048">
        <ele>151.19620</ele>
        <time>2021-07-02T14:38:11Z</time>
      </trkpt>
      <trkpt lat="41.880043" lon="2.711413">
        <ele>150.94315</ele>
        <time>2021-07-02T14:38:12Z</time>
      </trkpt>
      <trkpt lat="41.880070" lon="2.711744">
        <ele>151.07651</ele>
        <time>2021-07-02T14:38:13Z</time>
      </trkpt>
      <trkpt lat="41.880093" lon="2.712031">
        <ele>150.67435</ele>
        <time>2021-07-02T14:38:14Z</time>
      </trkpt>
      <trkpt lat="41.880123" lon="2.712438">
        <ele>150.29739</ele>
        <time>2021-07-02T14:38:15Z</time>
      </trkpt>
      <trkpt lat="41.880154" lon="2.712819">
        <ele>150.31516</ele>
        <time>2021-07-02T14:38:16Z</time>
      </trkpt>
      <trkpt lat="41.880184" lon="2.713225">
        <ele>150.07840</ele>
        <time>2021-07-02T14:38:17Z</time>
      </trkpt>
      <trkpt lat="41.880219" lon="2.713673">
        <ele>149.67532</ele>
        <time>2021-07-02T14:38:18Z</time>
      </trkpt>
      <trkpt lat="41.880253" lon="2.714132">
        <ele>149.51053</ele>
        <time>2021-07-02T14:38:19Z</time>
      </trkpt>
      <trkpt lat="41.880291" lon="2.714630">
        <ele>149.05453</ele>
        <time>2021-07-02T14:38:20Z</time>
      </trkpt>
      <trkpt lat="41.880329" lon="2.715131">
        <ele>148.33676</ele>
        <time>2021-07-02T14:38:21Z</time>
      </trkpt>
      <trkpt lat="41.880363" lon="2.715542">
        <ele>147.50137</ele>
        <time>2021-07-02T14:38:22Z</time>
      </trkpt>
      <trkpt lat="41.880402" lon="2.716027">
        <ele>146.91428</ele>
        <time>2021-07-02T14:38:23Z</time>
      </trkpt>
      <trkpt lat="41.880440" lon="2.716523">
        <ele>146.26749</ele>
        <time>2021-07-02T14:38:24Z</time>
      </trkpt>
      <trkpt lat="41.880478" lon="2.717033">
        <ele>145.38998</ele>
        <time>2021-07-02T14:38:25Z</time>
      </trkpt>
      <trkpt lat="41.880516" lon="2.717550">
        <ele>144.56778</ele>
        <time>2021-07-02T14:38:26Z</time>
      </trkpt>
      <trkpt lat="41.880554" lon="2.718012">
        <ele>143.88309</ele>
        <time>2021-07-02T14:38:27Z</time>
      </trkpt>
      <trkpt lat="41.880589" lon="2.718464">
        <ele>142.66422</ele>
        <time>2021-07-02T14:38:28Z</time>
      </trkpt>
      <trkpt lat="41.880630" lon="2.719033">
        <ele>141.54587</ele>
        <time>2021-07-02T14:38:29Z</time>
      </trkpt>
      <trkpt lat="41.880665" lon="2.719541">
        <ele>140.89224</ele>
        <time>2021-07-02T14:38:30Z</time>
      </trkpt>
      <trkpt lat="41.880665" lon="2.719541">
        <ele>139.61514</ele>
        <time>2021-07-02T14:38:31Z</time>
      </trkpt>
      <trkpt lat="41.880730" lon="2.720522">
        <ele>139.06058</ele>
        <time>2021-07-02T14:38:32Z</time>
      </trkpt>
      <trkpt lat="41.880730" lon="2.720522">
        <ele>137.92148</ele>
        <time>2021-07-02T14:38:33Z</time>
      </trkpt>
      <trkpt lat="41.880764" lon="2.721023">
        <ele>137.48013</ele>
        <time>2021-07-02T14:38:34Z</time>
      </trkpt>
      <trkpt lat="41.880787" lon="2.721528">
        <ele>136.29715</ele>
        <time>2021-07-02T14:38:35Z</time>
      </trkpt>
      <trkpt lat="41.880798" lon="2.722014">
        <ele>135.53348</ele>
        <time>2021-07-02T14:38:36Z</time>
      </trkpt>
      <trkpt lat="41.880795" lon="2.722570">
        <ele>134.82767</ele>
        <time>2021-07-02T14:38:37Z</time>
      </trkpt>
      <trkpt lat="41.880783" lon="2.723002">
        <ele>133.90250</ele>
        <time>2021-07-02T14:38:38Z</time>
      </trkpt>
      <trkpt lat="41.880741" lon="2.723827">
        <ele>132.80264</ele>
        <time>2021-07-02T14:38:39Z</time>
      </trkpt>
      <trkpt lat="41.880726" lon="2.724066">
        <ele>132.08109</ele>
        <time>2021-07-02T14:38:40Z</time>
      </trkpt>
      <trkpt lat="41.880676" lon="2.724669">
        <ele>131.20023</ele>
        <time>2021-07-02T14:38:41Z</time>
      </trkpt>
      <trkpt lat="41.880627" lon="2.725096">
        <ele>130.52017</ele>
        <time>2021-07-02T14:38:42Z</time>
      </trkpt>
      <trkpt lat="41.880550" lon="2.725700">
        <ele>130.18753</ele>
        <time>2021-07-02T14:38:43Z</time>
      </trkpt>
      <trkpt lat="41.880474" lon="2.726217">
        <ele>129.64114</ele>
        <time>2021-07-02T14:38:44Z</time>
      </trkpt>
      <trkpt lat="41.880390" lon="2.726719">
        <ele>129.05136</ele>
        <time>2021-07-02T14:38:45Z</time>
      </trkpt>
      <trkpt lat="41.880295" lon="2.727249">
        <ele>128.62009</ele>
        <time>2021-07-02T14:38:46Z</time>
      </trkpt>
      <trkpt lat="41.880199" lon="2.727781">
        <ele>128.37369</ele>
        <time>2021-07-02T14:38:47Z</time>
      </trkpt>
      <trkpt lat="41.880108" lon="2.728297">
        <ele>127.67338</ele>
        <time>2021-07-02T14:38:48Z</time>
      </trkpt>
      <trkpt lat="41.880020" lon="2.728782">
        <ele>128.20877</ele>
        <time>2021-07-02T14:38:49Z</time>
      </trkpt>
      <trkpt lat="41.879929" lon="2.729289">
        <ele>128.72983</ele>
        <time>2021-07-02T14:38:50Z</time>
      </trkpt>
      <trkpt lat="41.879841" lon="2.729784">
        <ele>128.23367</ele>
        <time>2021-07-02T14:38:51Z</time>
      </trkpt>
      <trkpt lat="41.879753" lon="2.730270">
        <ele>127.70628</ele>
        <time>2021-07-02T14:38:52Z</time>
      </trkpt>
      <trkpt lat="41.879669" lon="2.730737">
        <ele>127.40379</ele>
        <time>2021-07-02T14:38:53Z</time>
      </trkpt>
      <trkpt lat="41.879585" lon="2.731201">
        <ele>127.37473</ele>
        <time>2021-07-02T14:38:54Z</time>
      </trkpt>
      <trkpt lat="41.879478" lon="2.731764">
        <ele>127.14976</ele>
        <time>2021-07-02T14:38:55Z</time>
      </trkpt>
      <trkpt lat="41.879368" lon="2.732292">
        <ele>127.61680</ele>
        <time>2021-07-02T14:38:56Z</time>
      </trkpt>
      <trkpt lat="41.879253" lon="2.732840">
        <ele>127.65672</ele>
        <time>2021-07-02T14:38:57Z</time>
      </trkpt>
      <trkpt lat="41.879253" lon="2.732840">
        <ele>127.62864</ele>
        <time>2021-07-02T14:38:58Z</time>
      </trkpt>
      <trkpt lat="41.879143" lon="2.733313">
        <ele>128.12234</ele>
        <time>2021-07-02T14:38:59Z</time>
      </trkpt>
      <trkpt lat="41.879021" lon="2.733824">
        <ele>128.31436</ele>
        <time>2021-07-02T14:39:00Z</time>
      </trkpt>
      <trkpt lat="41.878899" lon="2.734287">
        <ele>128.15189</ele>
        <time>2021-07-02T14:39:01Z</time>
      </trkpt>
      <trkpt lat="41.878757" lon="2.734791">
        <ele>128.51523</ele>
        <time>2021-07-02T14:39:02Z</time>
      </trkpt>
      <trkpt lat="41.878632" lon="2.735225">
        <ele>129.08640</ele>
        <time>2021-07-02T14:39:03Z</time>
      </trkpt>
      <trkpt lat="41.878452" lon="2.735802">
        <ele>129.10086</ele>
        <time>2021-07-02T14:39:04Z</time>
      </trkpt>
      <trkpt lat="41.878296" lon="2.736304">
        <ele>128.91269</ele>
        <time>2021-07-02T14:39:05Z</time>
      </trkpt>
      <trkpt lat="41.878147" lon="2.736739">
        <ele>128.29398</ele>
        <time>2021-07-02T14:39:06Z</time>
      </trkpt>
      <trkpt lat="41.877964" lon="2.737294">
        <ele>127.74516</ele>
        <time>2021-07-02T14:39:07Z</time>
      </trkpt>
      <trkpt lat="41.877796" lon="2.737817">
        <ele>127.15116</ele>
        <time>2021-07-02T14:39:08Z</time>
      </trkpt>
      <trkpt lat="41.877647" lon="2.738305">
        <ele>126.59049</ele>
        <time>2021-07-02T14:39:09Z</time>
      </trkpt>
      <trkpt lat="41.877499" lon="2.738793">
        <ele>125.96952</ele>
        <time>2021-07-02T14:39:10Z</time>
      </trkpt>
      <trkpt lat="41.877335" lon="2.739348">
        <ele>124.71616</ele>
        <time>2021-07-02T14:39:11Z</time>
      </trkpt>
      <trkpt lat="41.877190" lon="2.739853">
        <ele>124.10209</ele>
        <time>2021-07-02T14:39:12Z</time>
      </trkpt>
      <trkpt lat="41.877048" lon="2.740340">
        <ele>123.60270</ele>
        <time>2021-07-02T14:39:13Z</time>
      </trkpt>
      <trkpt lat="41.876911" lon="2.740862">
        <ele>123.38102</ele>
        <time>2021-07-02T14:39:14Z</time>
      </trkpt>
      <trkpt lat="41.876781" lon="2.741366">
        <ele>122.94291</ele>
        <time>2021-07-02T14:39:15Z</time>
      </trkpt>
      <trkpt lat="41.876652" lon="2.741887">
        <ele>122.77726</ele>
        <time>2021-07-02T14:39:16Z</time>
      </trkpt>
      <trkpt lat="41.876522" lon="2.742415">
        <ele>122.65690</ele>
        <time>2021-07-02T14:39:17Z</time>
      </trkpt>
      <trkpt lat="41.876408" lon="2.742888">
        <ele>121.68137</ele>
        <time>2021-07-02T14:39:18Z</time>
      </trkpt>
      <trkpt lat="41.876297" lon="2.743411">
        <ele>121.98643</ele>
        <time>2021-07-02T14:39:19Z</time>
      </trkpt>
      <trkpt lat="41.876190" lon="2.743919">
        <ele>121.79838</ele>
        <time>2021-07-02T14:39:20Z</time>
      </trkpt>
      <trkpt lat="41.876091" lon="2.744436">
        <ele>121.41959</ele>
        <time>2021-07-02T14:39:21Z</time>
      </trkpt>
      <trkpt lat="41.876015" lon="2.744862">
        <ele>121.17649</ele>
        <time>2021-07-02T14:39:22Z</time>
      </trkpt>
      <trkpt lat="41.875931" lon="2.745424">
        <ele>120.85880</ele>
        <time>2021-07-02T14:39:23Z</time>
      </trkpt>
      <trkpt lat="41.875832" lon="2.746062">
        <ele>120.43552</ele>
        <time>2021-07-02T14:39:24Z</time>
      </trkpt>
      <trkpt lat="41.875832" lon="2.746062">
        <ele>120.41636</ele>
        <time>2021-07-02T14:39:25Z</time>
      </trkpt>
      <trkpt lat="41.875771" lon="2.746529">
        <ele>120.36082</ele>
        <time>2021-07-02T14:39:26Z</time>
      </trkpt>
      <trkpt lat="41.875694" lon="2.747161">
        <ele>120.01823</ele>
        <time>2021-07-02T14:39:27Z</time>
      </trkpt>
      <trkpt lat="41.875645" lon="2.747647">
        <ele>119.85288</ele>
        <time>2021-07-02T14:39:28Z</time>
      </trkpt>
      <trkpt lat="41.875584" lon="2.748251">
        <ele>119.76774</ele>
        <time>2021-07-02T14:39:29Z</time>
      </trkpt>
      <trkpt lat="41.875549" lon="2.748756">
        <ele>119.74235</ele>
        <time>2021-07-02T14:39:30Z</time>
      </trkpt>
      <trkpt lat="41.875511" lon="2.749300">
        <ele>119.43113</ele>
        <time>2021-07-02T14:39:31Z</time>
      </trkpt>
      <trkpt lat="41.875488" lon="2.749779">
        <ele>118.81284</ele>
        <time>2021-07-02T14:39:32Z</time>
      </trkpt>
      <trkpt lat="41.875465" lon="2.750214">
        <ele>117.94382</ele>
        <time>2021-07-02T14:39:33Z</time>
      </trkpt>
      <trkpt lat="41.875439" lon="2.750746">
        <ele>116.99143</ele>
        <time>2021-07-02T14:39:34Z</time>
      </trkpt>
      <trkpt lat="41.875412" lon="2.751221">
        <ele>116.58109</ele>
        <time>2021-07-02T14:39:35Z</time>
      </trkpt>
      <trkpt lat="41.875389" lon="2.751777">
        <ele>116.99052</ele>
        <time>2021-07-02T14:39:36Z</time>
      </trkpt>
      <trkpt lat="41.875370" lon="2.752304">
        <ele>116.76243</ele>
        <time>2021-07-02T14:39:37Z</time>
      </trkpt>
      <trkpt lat="41.875351" lon="2.752786">
        <ele>116.37669</ele>
        <time>2021-07-02T14:39:38Z</time>
      </trkpt>
      <trkpt lat="41.875320" lon="2.753299">
        <ele>115.94602</ele>
        <time>2021-07-02T14:39:39Z</time>
      </trkpt>
      <trkpt lat="41.875290" lon="2.753758">
        <ele>115.73075</ele>
        <time>2021-07-02T14:39:40Z</time>
      </trkpt>
      <trkpt lat="41.875244" lon="2.754261">
        <ele>115.12321</ele>
        <time>2021-07-02T14:39:41Z</time>
      </trkpt>
      <trkpt lat="41.875198" lon="2.754764">
        <ele>115.21030</ele>
        <time>2021-07-02T14:39:42Z</time>
      </trkpt>
      <trkpt lat="41.875198" lon="2.754764">
        <ele>115.38023</ele>
        <time>2021-07-02T14:39:43Z</time>
      </trkpt>
      <trkpt lat="41.875137" lon="2.755271">
        <ele>114.99583</ele>
        <time>2021-07-02T14:39:44Z</time>
      </trkpt>
      <trkpt lat="41.875004" lon="2.756183">
        <ele>114.54270</ele>
        <time>2021-07-02T14:39:45Z</time>
      </trkpt>
      <trkpt lat="41.875004" lon="2.756183">
        <ele>114.16355</ele>
        <time>2021-07-02T14:39:46Z</time>
      </trkpt>
      <trkpt lat="41.874931" lon="2.756579">
        <ele>113.36155</ele>
        <time>2021-07-02T14:39:47Z</time>
      </trkpt>
      <trkpt lat="41.874744" lon="2.757514">
        <ele>112.84397</ele>
        <time>2021-07-02T14:39:48Z</time>
      </trkpt>
      <trkpt lat="41.874744" lon="2.757514">
        <ele>112.83207</ele>
        <time>2021-07-02T14:39:49Z</time>
      </trkpt>
      <trkpt lat="41.874638" lon="2.757948">
        <ele>112.70908</ele>
        <time>2021-07-02T14:39:50Z</time>
      </trkpt>
      <trkpt lat="41.874516" lon="2.758366">
        <ele>112.40275</ele>
        <time>2021-07-02T14:39:51Z</time>
      </trkpt>
      <trkpt lat="41.874268" lon="2.759043">
        <ele>111.98429</ele>
        <time>2021-07-02T14:39:52Z</time>
      </trkpt>
      <trkpt lat="41.874195" lon="2.759229">
        <ele>112.22562</ele>
        <time>2021-07-02T14:39:53Z</time>
      </trkpt>
      <trkpt lat="41.874004" lon="2.759678">
        <ele>110.93461</ele>
        <time>2021-07-02T14:39:54Z</time>
      </trkpt>
      <trkpt lat="41.873848" lon="2.760002">
        <ele>110.57548</ele>
        <time>2021-07-02T14:39:55Z</time>
      </trkpt>
      <trkpt lat="41.873615" lon="2.760442">
        <ele>110.83775</ele>
        <time>2021-07-02T14:39:56Z</time>
      </trkpt>
      <trkpt lat="41.873402" lon="2.760812">
        <ele>110.92826</ele>
        <time>2021-07-02T14:39:57Z</time>
      </trkpt>
      <trkpt lat="41.873135" lon="2.761237">
        <ele>111.57426</ele>
        <time>2021-07-02T14:39:58Z</time>
      </trkpt>
      <trkpt lat="41.872875" lon="2.761600">
        <ele>111.61423</ele>
        <time>2021-07-02T14:39:59Z</time>
      </trkpt>
      <trkpt lat="41.872639" lon="2.761923">
        <ele>112.18308</ele>
        <time>2021-07-02T14:40:00Z</time>
      </trkpt>
      <trkpt lat="41.872364" lon="2.762297">
        <ele>112.50022</ele>
        <time>2021-07-02T14:40:01Z</time>
      </trkpt>
      <trkpt lat="41.872082" lon="2.762699">
        <ele>112.86173</ele>
        <time>2021-07-02T14:40:02Z</time>
      </trkpt>
      <trkpt lat="41.871857" lon="2.763026">
        <ele>113.35050</ele>
        <time>2021-07-02T14:40:03Z</time>
      </trkpt>
      <trkpt lat="41.871601" lon="2.763397">
        <ele>113.99711</ele>
        <time>2021-07-02T14:40:04Z</time>
      </trkpt>
      <trkpt lat="41.871380" lon="2.763749">
        <ele>114.39591</ele>
        <time>2021-07-02T14:40:05Z</time>
      </trkpt>
      <trkpt lat="41.871143" lon="2.764146">
        <ele>115.06907</ele>
        <time>2021-07-02T14:40:06Z</time>
      </trkpt>
      <trkpt lat="41.870941" lon="2.764494">
        <ele>115.41941</ele>
        <time>2021-07-02T14:40:07Z</time>
      </trkpt>
      <trkpt lat="41.870770" lon="2.764814">
        <ele>115.57340</ele>
        <time>2021-07-02T14:40:08Z</time>
      </trkpt>
      <trkpt lat="41.870564" lon="2.765220">
        <ele>115.72227</ele>
        <time>2021-07-02T14:40:09Z</time>
      </trkpt>
      <trkpt lat="41.870361" lon="2.765646">
        <ele>116.19755</ele>
        <time>2021-07-02T14:40:10Z</time>
      </trkpt>
      <trkpt lat="41.870193" lon="2.766017">
        <ele>116.09928</ele>
        <time>2021-07-02T14:40:11Z</time>
      </trkpt>
      <trkpt lat="41.869900" lon="2.766706">
        <ele>115.90043</ele>
        <time>2021-07-02T14:40:12Z</time>
      </trkpt>
      <trkpt lat="41.869900" lon="2.766706">
        <ele>116.02811</ele>
        <time>2021-07-02T14:40:13Z</time>
      </trkpt>
      <trkpt lat="41.869812" lon="2.766928">
        <ele>115.64121</ele>
        <time>2021-07-02T14:40:14Z</time>
      </trkpt>
      <trkpt lat="41.869621" lon="2.767423">
        <ele>115.73295</ele>
        <time>2021-07-02T14:40:15Z</time>
      </trkpt>
      <trkpt lat="41.869495" lon="2.767797">
        <ele>115.72855</ele>
        <time>2021-07-02T14:40:16Z</time>
      </trkpt>
      <trkpt lat="41.869350" lon="2.768239">
        <ele>115.86643</ele>
        <time>2021-07-02T14:40:17Z</time>
      </trkpt>
      <trkpt lat="41.869217" lon="2.768689">
        <ele>116.06010</ele>
        <time>2021-07-02T14:40:18Z</time>
      </trkpt>
      <trkpt lat="41.869080" lon="2.769167">
        <ele>116.26713</ele>
        <time>2021-07-02T14:40:19Z</time>
      </trkpt>
      <trkpt lat="41.868977" lon="2.769585">
        <ele>116.81113</ele>
        <time>2021-07-02T14:40:20Z</time>
      </trkpt>
      <trkpt lat="41.868862" lon="2.770040">
        <ele>117.11686</ele>
        <time>2021-07-02T14:40:21Z</time>
      </trkpt>
      <trkpt lat="41.868763" lon="2.770507">
        <ele>117.44651</ele>
        <time>2021-07-02T14:40:22Z</time>
      </trkpt>
      <trkpt lat="41.868664" lon="2.771016">
        <ele>118.11985</ele>
        <time>2021-07-02T14:40:23Z</time>
      </trkpt>
      <trkpt lat="41.868595" lon="2.771472">
        <ele>118.56785</ele>
        <time>2021-07-02T14:40:24Z</time>
      </trkpt>
      <trkpt lat="41.868542" lon="2.771874">
        <ele>118.99021</ele>
        <time>2021-07-02T14:40:25Z</time>
      </trkpt>
      <trkpt lat="41.868481" lon="2.772334">
        <ele>119.47959</ele>
        <time>2021-07-02T14:40:26Z</time>
      </trkpt>
      <trkpt lat="41.868427" lon="2.772755">
        <ele>119.57926</ele>
        <time>2021-07-02T14:40:27Z</time>
      </trkpt>
      <trkpt lat="41.868374" lon="2.773197">
        <ele>118.95652</ele>
        <time>2021-07-02T14:40:28Z</time>
      </trkpt>
      <trkpt lat="41.868374" lon="2.773197">
        <ele>119.07981</ele>
        <time>2021-07-02T14:40:29Z</time>
      </trkpt>
      <trkpt lat="41.868271" lon="2.773837">
        <ele>119.60807</ele>
        <time>2021-07-02T14:40:30Z</time>
      </trkpt>
      <trkpt lat="41.868164" lon="2.774493">
        <ele>119.56699</ele>
        <time>2021-07-02T14:40:31Z</time>
      </trkpt>
      <trkpt lat="41.868031" lon="2.774924">
        <ele>119.69505</ele>
        <time>2021-07-02T14:40:32Z</time>
      </trkpt>
      <trkpt lat="41.868160" lon="2.775322">
        <ele>119.98692</ele>
        <time>2021-07-02T14:40:33Z</time>
      </trkpt>
      <trkpt lat="41.868122" lon="2.775790">
        <ele>120.25803</ele>
        <time>2021-07-02T14:40:34Z</time>
      </trkpt>
      <trkpt lat="41.868084" lon="2.776244">
        <ele>120.55033</ele>
        <time>2021-07-02T14:40:35Z</time>
      </trkpt>
      <trkpt lat="41.868053" lon="2.776690">
        <ele>120.69956</ele>
        <time>2021-07-02T14:40:36Z</time>
      </trkpt>
      <trkpt lat="41.868027" lon="2.777052">
        <ele>121.39915</ele>
        <time>2021-07-02T14:40:37Z</time>
      </trkpt>
      <trkpt lat="41.868027" lon="2.777052">
        <ele>121.69077</ele>
        <time>2021-07-02T14:40:38Z</time>
      </trkpt>
      <trkpt lat="41.867958" lon="2.778113">
        <ele>122.24503</ele>
        <time>2021-07-02T14:40:40Z</time>
      </trkpt>
      <trkpt lat="41.867958" lon="2.778113">
        <ele>122.24503</ele>
        <time>2021-07-02T14:40:40Z</time>
      </trkpt>
      <trkpt lat="41.867958" lon="2.778113">
        <ele>122.40366</ele>
        <time>2021-07-02T14:40:41Z</time>
      </trkpt>
      <trkpt lat="41.867939" lon="2.778446">
        <ele>122.24113</ele>
        <time>2021-07-02T14:40:42Z</time>
      </trkpt>
      <trkpt lat="41.867947" lon="2.778573">
        <ele>113.84351</ele>
        <time>2021-07-02T14:40:43Z</time>
      </trkpt>
      <trkpt lat="41.868023" lon="2.778902">
        <ele>113.60812</ele>
        <time>2021-07-02T14:40:44Z</time>
      </trkpt>
      <trkpt lat="41.868134" lon="2.779087">
        <ele>112.64915</ele>
        <time>2021-07-02T14:40:45Z</time>
      </trkpt>
      <trkpt lat="41.868198" lon="2.779171">
        <ele>112.50504</ele>
        <time>2021-07-02T14:40:46Z</time>
      </trkpt>
      <trkpt lat="41.868317" lon="2.779255">
        <ele>111.49599</ele>
        <time>2021-07-02T14:40:47Z</time>
      </trkpt>
      <trkpt lat="41.868465" lon="2.779306">
        <ele>110.56564</ele>
        <time>2021-07-02T14:40:48Z</time>
      </trkpt>
      <trkpt lat="41.868599" lon="2.779314">
        <ele>120.14310</ele>
        <time>2021-07-02T14:40:49Z</time>
      </trkpt>
      <trkpt lat="41.868828" lon="2.779230">
        <ele>119.27665</ele>
        <time>2021-07-02T14:40:50Z</time>
      </trkpt>
      <trkpt lat="41.869038" lon="2.779069">
        <ele>118.42075</ele>
        <time>2021-07-02T14:40:51Z</time>
      </trkpt>
      <trkpt lat="41.869205" lon="2.778896">
        <ele>117.24967</ele>
        <time>2021-07-02T14:40:52Z</time>
      </trkpt>
      <trkpt lat="41.869366" lon="2.778714">
        <ele>108.60413</ele>
        <time>2021-07-02T14:40:53Z</time>
      </trkpt>
      <trkpt lat="41.869499" lon="2.778558">
        <ele>107.42677</ele>
        <time>2021-07-02T14:40:54Z</time>
      </trkpt>
      <trkpt lat="41.869640" lon="2.778417">
        <ele>106.61684</ele>
        <time>2021-07-02T14:40:55Z</time>
      </trkpt>
      <trkpt lat="41.869801" lon="2.778289">
        <ele>106.72894</ele>
        <time>2021-07-02T14:40:56Z</time>
      </trkpt>
      <trkpt lat="41.869965" lon="2.778211">
        <ele>105.49887</ele>
        <time>2021-07-02T14:40:57Z</time>
      </trkpt>
      <trkpt lat="41.870140" lon="2.778157">
        <ele>105.46867</ele>
        <time>2021-07-02T14:40:58Z</time>
      </trkpt>
      <trkpt lat="41.870335" lon="2.778116">
        <ele>111.85233</ele>
        <time>2021-07-02T14:40:59Z</time>
      </trkpt>
      <trkpt lat="41.870525" lon="2.778109">
        <ele>111.63371</ele>
        <time>2021-07-02T14:41:00Z</time>
      </trkpt>
      <trkpt lat="41.870525" lon="2.778109">
        <ele>111.70438</ele>
        <time>2021-07-02T14:41:01Z</time>
      </trkpt>
      <trkpt lat="41.870724" lon="2.778150">
        <ele>111.44321</ele>
        <time>2021-07-02T14:41:02Z</time>
      </trkpt>
      <trkpt lat="41.870907" lon="2.778197">
        <ele>111.38248</ele>
        <time>2021-07-02T14:41:03Z</time>
      </trkpt>
      <trkpt lat="41.871075" lon="2.778241">
        <ele>111.22404</ele>
        <time>2021-07-02T14:41:04Z</time>
      </trkpt>
      <trkpt lat="41.871284" lon="2.778298">
        <ele>110.78178</ele>
        <time>2021-07-02T14:41:05Z</time>
      </trkpt>
      <trkpt lat="41.871483" lon="2.778349">
        <ele>110.58848</ele>
        <time>2021-07-02T14:41:06Z</time>
      </trkpt>
      <trkpt lat="41.871712" lon="2.778408">
        <ele>110.17118</ele>
        <time>2021-07-02T14:41:07Z</time>
      </trkpt>
      <trkpt lat="41.871925" lon="2.778464">
        <ele>109.79740</ele>
        <time>2021-07-02T14:41:08Z</time>
      </trkpt>
      <trkpt lat="41.872108" lon="2.778514">
        <ele>109.53458</ele>
        <time>2021-07-02T14:41:09Z</time>
      </trkpt>
      <trkpt lat="41.872299" lon="2.778565">
        <ele>109.21415</ele>
        <time>2021-07-02T14:41:10Z</time>
      </trkpt>
      <trkpt lat="41.872513" lon="2.778622">
        <ele>108.98215</ele>
        <time>2021-07-02T14:41:11Z</time>
      </trkpt>
      <trkpt lat="41.872715" lon="2.778677">
        <ele>108.77689</ele>
        <time>2021-07-02T14:41:12Z</time>
      </trkpt>
      <trkpt lat="41.872940" lon="2.778738">
        <ele>108.76176</ele>
        <time>2021-07-02T14:41:13Z</time>
      </trkpt>
      <trkpt lat="41.873158" lon="2.778796">
        <ele>108.81937</ele>
        <time>2021-07-02T14:41:14Z</time>
      </trkpt>
      <trkpt lat="41.873409" lon="2.778865">
        <ele>108.84019</ele>
        <time>2021-07-02T14:41:15Z</time>
      </trkpt>
      <trkpt lat="41.873646" lon="2.778928">
        <ele>108.94144</ele>
        <time>2021-07-02T14:41:16Z</time>
      </trkpt>
      <trkpt lat="41.873871" lon="2.778988">
        <ele>109.25932</ele>
        <time>2021-07-02T14:41:17Z</time>
      </trkpt>
      <trkpt lat="41.874092" lon="2.779049">
        <ele>109.91923</ele>
        <time>2021-07-02T14:41:18Z</time>
      </trkpt>
      <trkpt lat="41.874352" lon="2.779118">
        <ele>110.05845</ele>
        <time>2021-07-02T14:41:19Z</time>
      </trkpt>
      <trkpt lat="41.874649" lon="2.779197">
        <ele>110.34086</ele>
        <time>2021-07-02T14:41:20Z</time>
      </trkpt>
      <trkpt lat="41.874950" lon="2.779277">
        <ele>110.60386</ele>
        <time>2021-07-02T14:41:21Z</time>
      </trkpt>
      <trkpt lat="41.875237" lon="2.779354">
        <ele>110.79081</ele>
        <time>2021-07-02T14:41:22Z</time>
      </trkpt>
      <trkpt lat="41.875565" lon="2.779440">
        <ele>110.68937</ele>
        <time>2021-07-02T14:41:23Z</time>
      </trkpt>
      <trkpt lat="41.875893" lon="2.779528">
        <ele>110.90360</ele>
        <time>2021-07-02T14:41:24Z</time>
      </trkpt>
      <trkpt lat="41.876217" lon="2.779614">
        <ele>111.21610</ele>
        <time>2021-07-02T14:41:25Z</time>
      </trkpt>
      <trkpt lat="41.876503" lon="2.779691">
        <ele>111.73972</ele>
        <time>2021-07-02T14:41:26Z</time>
      </trkpt>
      <trkpt lat="41.876823" lon="2.779776">
        <ele>112.00022</ele>
        <time>2021-07-02T14:41:27Z</time>
      </trkpt>
      <trkpt lat="41.877102" lon="2.779850">
        <ele>112.55216</ele>
        <time>2021-07-02T14:41:28Z</time>
      </trkpt>
      <trkpt lat="41.877102" lon="2.779850">
        <ele>113.16697</ele>
        <time>2021-07-02T14:41:29Z</time>
      </trkpt>
      <trkpt lat="41.877468" lon="2.779948">
        <ele>113.10746</ele>
        <time>2021-07-02T14:41:30Z</time>
      </trkpt>
      <trkpt lat="41.877762" lon="2.780026">
        <ele>113.22038</ele>
        <time>2021-07-02T14:41:31Z</time>
      </trkpt>
      <trkpt lat="41.878063" lon="2.780105">
        <ele>113.41001</ele>
        <time>2021-07-02T14:41:32Z</time>
      </trkpt>
      <trkpt lat="41.878384" lon="2.780186">
        <ele>113.25248</ele>
        <time>2021-07-02T14:41:33Z</time>
      </trkpt>
      <trkpt lat="41.878792" lon="2.780294">
        <ele>113.03452</ele>
        <time>2021-07-02T14:41:34Z</time>
      </trkpt>
      <trkpt lat="41.878860" lon="2.780312">
        <ele>112.84965</ele>
        <time>2021-07-02T14:41:35Z</time>
      </trkpt>
      <trkpt lat="41.879250" lon="2.780416">
        <ele>112.68937</ele>
        <time>2021-07-02T14:41:36Z</time>
      </trkpt>
      <trkpt lat="41.879498" lon="2.780482">
        <ele>112.26762</ele>
        <time>2021-07-02T14:41:37Z</time>
      </trkpt>
      <trkpt lat="41.879776" lon="2.780555">
        <ele>112.44559</ele>
        <time>2021-07-02T14:41:38Z</time>
      </trkpt>
      <trkpt lat="41.880093" lon="2.780641">
        <ele>112.12070</ele>
        <time>2021-07-02T14:41:39Z</time>
      </trkpt>
      <trkpt lat="41.880383" lon="2.780720">
        <ele>111.89884</ele>
        <time>2021-07-02T14:41:40Z</time>
      </trkpt>
      <trkpt lat="41.880676" lon="2.780797">
        <ele>112.07481</ele>
        <time>2021-07-02T14:41:41Z</time>
      </trkpt>
      <trkpt lat="41.880993" lon="2.780881">
        <ele>112.53477</ele>
        <time>2021-07-02T14:41:42Z</time>
      </trkpt>
      <trkpt lat="41.881287" lon="2.780959">
        <ele>113.04362</ele>
        <time>2021-07-02T14:41:43Z</time>
      </trkpt>
      <trkpt lat="41.881592" lon="2.781039">
        <ele>112.50126</ele>
        <time>2021-07-02T14:41:44Z</time>
      </trkpt>
      <trkpt lat="41.881878" lon="2.781114">
        <ele>112.34226</ele>
        <time>2021-07-02T14:41:45Z</time>
      </trkpt>
      <trkpt lat="41.882214" lon="2.781203">
        <ele>111.95121</ele>
        <time>2021-07-02T14:41:46Z</time>
      </trkpt>
      <trkpt lat="41.882538" lon="2.781289">
        <ele>112.10892</ele>
        <time>2021-07-02T14:41:47Z</time>
      </trkpt>
      <trkpt lat="41.882835" lon="2.781367">
        <ele>111.49351</ele>
        <time>2021-07-02T14:41:48Z</time>
      </trkpt>
      <trkpt lat="41.883137" lon="2.781447">
        <ele>111.59843</ele>
        <time>2021-07-02T14:41:49Z</time>
      </trkpt>
      <trkpt lat="41.883469" lon="2.781533">
        <ele>111.39494</ele>
        <time>2021-07-02T14:41:50Z</time>
      </trkpt>
      <trkpt lat="41.883778" lon="2.781614">
        <ele>110.87101</ele>
        <time>2021-07-02T14:41:51Z</time>
      </trkpt>
      <trkpt lat="41.884075" lon="2.781692">
        <ele>110.71677</ele>
        <time>2021-07-02T14:41:52Z</time>
      </trkpt>
      <trkpt lat="41.884075" lon="2.781692">
        <ele>110.19401</ele>
        <time>2021-07-02T14:41:53Z</time>
      </trkpt>
      <trkpt lat="41.884388" lon="2.781775">
        <ele>110.07908</ele>
        <time>2021-07-02T14:41:54Z</time>
      </trkpt>
      <trkpt lat="41.884590" lon="2.781831">
        <ele>109.97855</ele>
        <time>2021-07-02T14:41:55Z</time>
      </trkpt>
      <trkpt lat="41.884689" lon="2.781882">
        <ele>109.78642</ele>
        <time>2021-07-02T14:41:56Z</time>
      </trkpt>
      <trkpt lat="41.885307" lon="2.782121">
        <ele>109.23222</ele>
        <time>2021-07-02T14:41:57Z</time>
      </trkpt>
      <trkpt lat="41.885612" lon="2.782231">
        <ele>108.92490</ele>
        <time>2021-07-02T14:41:58Z</time>
      </trkpt>
      <trkpt lat="41.885925" lon="2.782345">
        <ele>108.90269</ele>
        <time>2021-07-02T14:41:59Z</time>
      </trkpt>
      <trkpt lat="41.886253" lon="2.782464">
        <ele>108.76853</ele>
        <time>2021-07-02T14:42:00Z</time>
      </trkpt>
      <trkpt lat="41.886578" lon="2.782359">
        <ele>108.59538</ele>
        <time>2021-07-02T14:42:01Z</time>
      </trkpt>
      <trkpt lat="41.886894" lon="2.782443">
        <ele>109.01847</ele>
        <time>2021-07-02T14:42:02Z</time>
      </trkpt>
      <trkpt lat="41.887272" lon="2.782545">
        <ele>109.75895</ele>
        <time>2021-07-02T14:42:03Z</time>
      </trkpt>
      <trkpt lat="41.887573" lon="2.782627">
        <ele>110.12528</ele>
        <time>2021-07-02T14:42:04Z</time>
      </trkpt>
      <trkpt lat="41.887951" lon="2.782731">
        <ele>110.60258</ele>
        <time>2021-07-02T14:42:05Z</time>
      </trkpt>
      <trkpt lat="41.887951" lon="2.782731">
        <ele>111.08408</ele>
        <time>2021-07-02T14:42:06Z</time>
      </trkpt>
      <trkpt lat="41.888344" lon="2.782839">
        <ele>111.52323</ele>
        <time>2021-07-02T14:42:07Z</time>
      </trkpt>
      <trkpt lat="41.888699" lon="2.782930">
        <ele>112.03440</ele>
        <time>2021-07-02T14:42:08Z</time>
      </trkpt>
      <trkpt lat="41.888699" lon="2.782930">
        <ele>112.07157</ele>
        <time>2021-07-02T14:42:09Z</time>
      </trkpt>
      <trkpt lat="41.888699" lon="2.782930">
        <ele>112.22215</ele>
        <time>2021-07-02T14:42:10Z</time>
      </trkpt>
      <trkpt lat="41.889767" lon="2.783205">
        <ele>112.53129</ele>
        <time>2021-07-02T14:42:11Z</time>
      </trkpt>
      <trkpt lat="41.890030" lon="2.783276">
        <ele>113.13663</ele>
        <time>2021-07-02T14:42:12Z</time>
      </trkpt>
      <trkpt lat="41.890030" lon="2.783276">
        <ele>113.36491</ele>
        <time>2021-07-02T14:42:13Z</time>
      </trkpt>
      <trkpt lat="41.890316" lon="2.783350">
        <ele>113.54557</ele>
        <time>2021-07-02T14:42:14Z</time>
      </trkpt>
      <trkpt lat="41.890648" lon="2.783437">
        <ele>113.74284</ele>
        <time>2021-07-02T14:42:15Z</time>
      </trkpt>
      <trkpt lat="41.890919" lon="2.783508">
        <ele>113.60288</ele>
        <time>2021-07-02T14:42:16Z</time>
      </trkpt>
      <trkpt lat="41.891186" lon="2.783579">
        <ele>113.18229</ele>
        <time>2021-07-02T14:42:17Z</time>
      </trkpt>
      <trkpt lat="41.891483" lon="2.783658">
        <ele>113.23093</ele>
        <time>2021-07-02T14:42:18Z</time>
      </trkpt>
      <trkpt lat="41.891777" lon="2.783736">
        <ele>113.03507</ele>
        <time>2021-07-02T14:42:19Z</time>
      </trkpt>
      <trkpt lat="41.892056" lon="2.783810">
        <ele>112.83036</ele>
        <time>2021-07-02T14:42:20Z</time>
      </trkpt>
      <trkpt lat="41.892330" lon="2.783883">
        <ele>112.52604</ele>
        <time>2021-07-02T14:42:21Z</time>
      </trkpt>
      <trkpt lat="41.892624" lon="2.783966">
        <ele>112.79337</ele>
        <time>2021-07-02T14:42:22Z</time>
      </trkpt>
      <trkpt lat="41.892902" lon="2.784046">
        <ele>112.47611</ele>
        <time>2021-07-02T14:42:23Z</time>
      </trkpt>
      <trkpt lat="41.893169" lon="2.784123">
        <ele>112.90250</ele>
        <time>2021-07-02T14:42:24Z</time>
      </trkpt>
      <trkpt lat="41.893421" lon="2.784196">
        <ele>112.91013</ele>
        <time>2021-07-02T14:42:25Z</time>
      </trkpt>
      <trkpt lat="41.893711" lon="2.784280">
        <ele>113.02213</ele>
        <time>2021-07-02T14:42:26Z</time>
      </trkpt>
      <trkpt lat="41.893997" lon="2.784362">
        <ele>113.25761</ele>
        <time>2021-07-02T14:42:27Z</time>
      </trkpt>
      <trkpt lat="41.894283" lon="2.784454">
        <ele>113.31840</ele>
        <time>2021-07-02T14:42:28Z</time>
      </trkpt>
      <trkpt lat="41.894592" lon="2.784556">
        <ele>113.90519</ele>
        <time>2021-07-02T14:42:29Z</time>
      </trkpt>
      <trkpt lat="41.894897" lon="2.784659">
        <ele>114.02677</ele>
        <time>2021-07-02T14:42:30Z</time>
      </trkpt>
      <trkpt lat="41.895313" lon="2.784812">
        <ele>114.70530</ele>
        <time>2021-07-02T14:42:31Z</time>
      </trkpt>
      <trkpt lat="41.895462" lon="2.784865">
        <ele>114.89933</ele>
        <time>2021-07-02T14:42:32Z</time>
      </trkpt>
      <trkpt lat="41.895851" lon="2.785009">
        <ele>115.64579</ele>
        <time>2021-07-02T14:42:33Z</time>
      </trkpt>
      <trkpt lat="41.896088" lon="2.785101">
        <ele>116.81876</ele>
        <time>2021-07-02T14:42:34Z</time>
      </trkpt>
      <trkpt lat="41.896378" lon="2.785211">
        <ele>117.60313</ele>
        <time>2021-07-02T14:42:35Z</time>
      </trkpt>
      <trkpt lat="41.896648" lon="2.785316">
        <ele>118.69144</ele>
        <time>2021-07-02T14:42:36Z</time>
      </trkpt>
      <trkpt lat="41.896648" lon="2.785316">
        <ele>119.49870</ele>
        <time>2021-07-02T14:42:37Z</time>
      </trkpt>
      <trkpt lat="41.896904" lon="2.785419">
        <ele>120.58292</ele>
        <time>2021-07-02T14:42:38Z</time>
      </trkpt>
      <trkpt lat="41.897457" lon="2.785647">
        <ele>120.96555</ele>
        <time>2021-07-02T14:42:39Z</time>
      </trkpt>
      <trkpt lat="41.897457" lon="2.785647">
        <ele>121.74552</ele>
        <time>2021-07-02T14:42:40Z</time>
      </trkpt>
      <trkpt lat="41.897694" lon="2.785742">
        <ele>121.90134</ele>
        <time>2021-07-02T14:42:41Z</time>
      </trkpt>
      <trkpt lat="41.898006" lon="2.785862">
        <ele>121.86320</ele>
        <time>2021-07-02T14:42:42Z</time>
      </trkpt>
      <trkpt lat="41.898277" lon="2.785967">
        <ele>122.30625</ele>
        <time>2021-07-02T14:42:43Z</time>
      </trkpt>
      <trkpt lat="41.898544" lon="2.786068">
        <ele>122.85423</ele>
        <time>2021-07-02T14:42:44Z</time>
      </trkpt>
      <trkpt lat="41.898834" lon="2.786179">
        <ele>123.32639</ele>
        <time>2021-07-02T14:42:45Z</time>
      </trkpt>
      <trkpt lat="41.899117" lon="2.786284">
        <ele>123.32792</ele>
        <time>2021-07-02T14:42:46Z</time>
      </trkpt>
      <trkpt lat="41.899410" lon="2.786385">
        <ele>122.86845</ele>
        <time>2021-07-02T14:42:47Z</time>
      </trkpt>
      <trkpt lat="41.899700" lon="2.786479">
        <ele>122.86362</ele>
        <time>2021-07-02T14:42:48Z</time>
      </trkpt>
      <trkpt lat="41.900002" lon="2.786578">
        <ele>122.63004</ele>
        <time>2021-07-02T14:42:49Z</time>
      </trkpt>
      <trkpt lat="41.900272" lon="2.786665">
        <ele>122.40903</ele>
        <time>2021-07-02T14:42:50Z</time>
      </trkpt>
      <trkpt lat="41.900547" lon="2.786755">
        <ele>122.19340</ele>
        <time>2021-07-02T14:42:51Z</time>
      </trkpt>
      <trkpt lat="41.900871" lon="2.786863">
        <ele>121.40617</ele>
        <time>2021-07-02T14:42:52Z</time>
      </trkpt>
      <trkpt lat="41.901165" lon="2.786963">
        <ele>120.97916</ele>
        <time>2021-07-02T14:42:53Z</time>
      </trkpt>
      <trkpt lat="41.901443" lon="2.787058">
        <ele>120.54020</ele>
        <time>2021-07-02T14:42:54Z</time>
      </trkpt>
      <trkpt lat="41.901733" lon="2.787164">
        <ele>120.61337</ele>
        <time>2021-07-02T14:42:55Z</time>
      </trkpt>
      <trkpt lat="41.902065" lon="2.787293">
        <ele>120.12546</ele>
        <time>2021-07-02T14:42:56Z</time>
      </trkpt>
      <trkpt lat="41.902344" lon="2.787400">
        <ele>119.74594</ele>
        <time>2021-07-02T14:42:57Z</time>
      </trkpt>
      <trkpt lat="41.902672" lon="2.787527">
        <ele>118.92471</ele>
        <time>2021-07-02T14:42:58Z</time>
      </trkpt>
      <trkpt lat="41.903004" lon="2.787655">
        <ele>118.47812</ele>
        <time>2021-07-02T14:42:59Z</time>
      </trkpt>
      <trkpt lat="41.903282" lon="2.787764">
        <ele>117.86490</ele>
        <time>2021-07-02T14:43:00Z</time>
      </trkpt>
      <trkpt lat="41.903580" lon="2.787881">
        <ele>117.63541</ele>
        <time>2021-07-02T14:43:01Z</time>
      </trkpt>
      <trkpt lat="41.903900" lon="2.788007">
        <ele>117.15768</ele>
        <time>2021-07-02T14:43:02Z</time>
      </trkpt>
      <trkpt lat="41.904182" lon="2.788119">
        <ele>116.98990</ele>
        <time>2021-07-02T14:43:03Z</time>
      </trkpt>
      <trkpt lat="41.904442" lon="2.788220">
        <ele>117.45456</ele>
        <time>2021-07-02T14:43:04Z</time>
      </trkpt>
      <trkpt lat="41.904690" lon="2.788318">
        <ele>116.88260</ele>
        <time>2021-07-02T14:43:05Z</time>
      </trkpt>
      <trkpt lat="41.904980" lon="2.788432">
        <ele>116.41757</ele>
        <time>2021-07-02T14:43:06Z</time>
      </trkpt>
      <trkpt lat="41.905289" lon="2.788560">
        <ele>115.99179</ele>
        <time>2021-07-02T14:43:07Z</time>
      </trkpt>
      <trkpt lat="41.905567" lon="2.788668">
        <ele>115.50113</ele>
        <time>2021-07-02T14:43:08Z</time>
      </trkpt>
      <trkpt lat="41.905853" lon="2.788781">
        <ele>115.15720</ele>
        <time>2021-07-02T14:43:09Z</time>
      </trkpt>
      <trkpt lat="41.906109" lon="2.788868">
        <ele>114.49673</ele>
        <time>2021-07-02T14:43:10Z</time>
      </trkpt>
      <trkpt lat="41.906109" lon="2.788868">
        <ele>114.03769</ele>
        <time>2021-07-02T14:43:11Z</time>
      </trkpt>
      <trkpt lat="41.906410" lon="2.788973">
        <ele>113.41330</ele>
        <time>2021-07-02T14:43:12Z</time>
      </trkpt>
      <trkpt lat="41.906742" lon="2.789087">
        <ele>112.79672</ele>
        <time>2021-07-02T14:43:13Z</time>
      </trkpt>
      <trkpt lat="41.907009" lon="2.789179">
        <ele>112.53751</ele>
        <time>2021-07-02T14:43:14Z</time>
      </trkpt>
      <trkpt lat="41.907318" lon="2.789281">
        <ele>111.93881</ele>
        <time>2021-07-02T14:43:15Z</time>
      </trkpt>
      <trkpt lat="41.907600" lon="2.789372">
        <ele>111.57120</ele>
        <time>2021-07-02T14:43:16Z</time>
      </trkpt>
      <trkpt lat="41.907845" lon="2.789451">
        <ele>111.05197</ele>
        <time>2021-07-02T14:43:17Z</time>
      </trkpt>
      <trkpt lat="41.908154" lon="2.789549">
        <ele>110.39896</ele>
        <time>2021-07-02T14:43:18Z</time>
      </trkpt>
      <trkpt lat="41.908398" lon="2.789624">
        <ele>110.18460</ele>
        <time>2021-07-02T14:43:19Z</time>
      </trkpt>
      <trkpt lat="41.908699" lon="2.789713">
        <ele>109.52878</ele>
        <time>2021-07-02T14:43:20Z</time>
      </trkpt>
      <trkpt lat="41.909016" lon="2.789800">
        <ele>109.26273</ele>
        <time>2021-07-02T14:43:21Z</time>
      </trkpt>
      <trkpt lat="41.909306" lon="2.789880">
        <ele>108.81699</ele>
        <time>2021-07-02T14:43:22Z</time>
      </trkpt>
      <trkpt lat="41.909588" lon="2.789950">
        <ele>108.18002</ele>
        <time>2021-07-02T14:43:23Z</time>
      </trkpt>
      <trkpt lat="41.909870" lon="2.790020">
        <ele>108.23495</ele>
        <time>2021-07-02T14:43:24Z</time>
      </trkpt>
      <trkpt lat="41.910164" lon="2.790090">
        <ele>107.89035</ele>
        <time>2021-07-02T14:43:25Z</time>
      </trkpt>
      <trkpt lat="41.910442" lon="2.790151">
        <ele>107.47336</ele>
        <time>2021-07-02T14:43:26Z</time>
      </trkpt>
      <trkpt lat="41.910698" lon="2.790207">
        <ele>107.19363</ele>
        <time>2021-07-02T14:43:27Z</time>
      </trkpt>
      <trkpt lat="41.910946" lon="2.790261">
        <ele>107.37344</ele>
        <time>2021-07-02T14:43:28Z</time>
      </trkpt>
      <trkpt lat="41.911278" lon="2.790333">
        <ele>107.80112</ele>
        <time>2021-07-02T14:43:29Z</time>
      </trkpt>
      <trkpt lat="41.911583" lon="2.790402">
        <ele>107.72556</ele>
        <time>2021-07-02T14:43:30Z</time>
      </trkpt>
      <trkpt lat="41.911816" lon="2.790462">
        <ele>107.51242</ele>
        <time>2021-07-02T14:43:31Z</time>
      </trkpt>
      <trkpt lat="41.912079" lon="2.790529">
        <ele>107.46280</ele>
        <time>2021-07-02T14:43:32Z</time>
      </trkpt>
      <trkpt lat="41.912422" lon="2.790616">
        <ele>107.13309</ele>
        <time>2021-07-02T14:43:33Z</time>
      </trkpt>
      <trkpt lat="41.912731" lon="2.790694">
        <ele>107.26730</ele>
        <time>2021-07-02T14:43:34Z</time>
      </trkpt>
      <trkpt lat="41.912731" lon="2.790694">
        <ele>107.56442</ele>
        <time>2021-07-02T14:43:35Z</time>
      </trkpt>
      <trkpt lat="41.913040" lon="2.790773">
        <ele>107.67770</ele>
        <time>2021-07-02T14:43:36Z</time>
      </trkpt>
      <trkpt lat="41.913326" lon="2.790851">
        <ele>108.13602</ele>
        <time>2021-07-02T14:43:37Z</time>
      </trkpt>
      <trkpt lat="41.913624" lon="2.790932">
        <ele>108.61642</ele>
        <time>2021-07-02T14:43:38Z</time>
      </trkpt>
      <trkpt lat="41.913902" lon="2.791008">
        <ele>108.65256</ele>
        <time>2021-07-02T14:43:39Z</time>
      </trkpt>
      <trkpt lat="41.914181" lon="2.791093">
        <ele>109.02017</ele>
        <time>2021-07-02T14:43:40Z</time>
      </trkpt>
      <trkpt lat="41.914501" lon="2.791194">
        <ele>109.53171</ele>
        <time>2021-07-02T14:43:41Z</time>
      </trkpt>
      <trkpt lat="41.914768" lon="2.791275">
        <ele>109.58621</ele>
        <time>2021-07-02T14:43:42Z</time>
      </trkpt>
      <trkpt lat="41.915112" lon="2.791382">
        <ele>109.88571</ele>
        <time>2021-07-02T14:43:43Z</time>
      </trkpt>
      <trkpt lat="41.915375" lon="2.791460">
        <ele>109.81924</ele>
        <time>2021-07-02T14:43:44Z</time>
      </trkpt>
      <trkpt lat="41.915672" lon="2.791546">
        <ele>110.37418</ele>
        <time>2021-07-02T14:43:45Z</time>
      </trkpt>
      <trkpt lat="41.915989" lon="2.791632">
        <ele>110.52145</ele>
        <time>2021-07-02T14:43:46Z</time>
      </trkpt>
      <trkpt lat="41.916286" lon="2.791712">
        <ele>111.09628</ele>
        <time>2021-07-02T14:43:47Z</time>
      </trkpt>
      <trkpt lat="41.916584" lon="2.791794">
        <ele>111.27310</ele>
        <time>2021-07-02T14:43:48Z</time>
      </trkpt>
      <trkpt lat="41.916908" lon="2.791868">
        <ele>111.70810</ele>
        <time>2021-07-02T14:43:49Z</time>
      </trkpt>
      <trkpt lat="41.917194" lon="2.791933">
        <ele>111.81589</ele>
        <time>2021-07-02T14:43:50Z</time>
      </trkpt>
      <trkpt lat="41.917454" lon="2.791991">
        <ele>112.13364</ele>
        <time>2021-07-02T14:43:51Z</time>
      </trkpt>
      <trkpt lat="41.917721" lon="2.792051">
        <ele>112.57083</ele>
        <time>2021-07-02T14:43:52Z</time>
      </trkpt>
      <trkpt lat="41.918003" lon="2.792115">
        <ele>113.11655</ele>
        <time>2021-07-02T14:43:53Z</time>
      </trkpt>
      <trkpt lat="41.918308" lon="2.792184">
        <ele>113.60880</ele>
        <time>2021-07-02T14:43:54Z</time>
      </trkpt>
      <trkpt lat="41.918564" lon="2.792241">
        <ele>113.99753</ele>
        <time>2021-07-02T14:43:55Z</time>
      </trkpt>
      <trkpt lat="41.918846" lon="2.792305">
        <ele>114.32455</ele>
        <time>2021-07-02T14:43:56Z</time>
      </trkpt>
      <trkpt lat="41.919113" lon="2.792364">
        <ele>114.91129</ele>
        <time>2021-07-02T14:43:57Z</time>
      </trkpt>
      <trkpt lat="41.919369" lon="2.792417">
        <ele>115.01743</ele>
        <time>2021-07-02T14:43:58Z</time>
      </trkpt>
      <trkpt lat="41.919369" lon="2.792417">
        <ele>115.41629</ele>
        <time>2021-07-02T14:43:59Z</time>
      </trkpt>
      <trkpt lat="41.919861" lon="2.792521">
        <ele>115.80661</ele>
        <time>2021-07-02T14:44:00Z</time>
      </trkpt>
      <trkpt lat="41.919861" lon="2.792521">
        <ele>116.44577</ele>
        <time>2021-07-02T14:44:01Z</time>
      </trkpt>
      <trkpt lat="41.920300" lon="2.792610">
        <ele>117.13565</ele>
        <time>2021-07-02T14:44:02Z</time>
      </trkpt>
      <trkpt lat="41.920300" lon="2.792610">
        <ele>117.32834</ele>
        <time>2021-07-02T14:44:03Z</time>
      </trkpt>
      <trkpt lat="41.920563" lon="2.792659">
        <ele>117.94699</ele>
        <time>2021-07-02T14:44:04Z</time>
      </trkpt>
      <trkpt lat="41.920753" lon="2.792691">
        <ele>118.29233</ele>
        <time>2021-07-02T14:44:05Z</time>
      </trkpt>
      <trkpt lat="41.921021" lon="2.792735">
        <ele>118.62045</ele>
        <time>2021-07-02T14:44:06Z</time>
      </trkpt>
      <trkpt lat="41.921284" lon="2.792778">
        <ele>119.32883</ele>
        <time>2021-07-02T14:44:07Z</time>
      </trkpt>
      <trkpt lat="41.921539" lon="2.792820">
        <ele>119.27219</ele>
        <time>2021-07-02T14:44:08Z</time>
      </trkpt>
      <trkpt lat="41.921799" lon="2.792862">
        <ele>119.83566</ele>
        <time>2021-07-02T14:44:09Z</time>
      </trkpt>
      <trkpt lat="41.922062" lon="2.792906">
        <ele>119.95712</ele>
        <time>2021-07-02T14:44:10Z</time>
      </trkpt>
      <trkpt lat="41.922306" lon="2.792946">
        <ele>120.17746</ele>
        <time>2021-07-02T14:44:11Z</time>
      </trkpt>
      <trkpt lat="41.922470" lon="2.792973">
        <ele>120.24948</ele>
        <time>2021-07-02T14:44:12Z</time>
      </trkpt>
      <trkpt lat="41.922691" lon="2.793104">
        <ele>120.29269</ele>
        <time>2021-07-02T14:44:13Z</time>
      </trkpt>
      <trkpt lat="41.923100" lon="2.793212">
        <ele>120.83444</ele>
        <time>2021-07-02T14:44:14Z</time>
      </trkpt>
      <trkpt lat="41.923351" lon="2.793266">
        <ele>121.42044</ele>
        <time>2021-07-02T14:44:15Z</time>
      </trkpt>
      <trkpt lat="41.923611" lon="2.793321">
        <ele>122.25229</ele>
        <time>2021-07-02T14:44:16Z</time>
      </trkpt>
      <trkpt lat="41.923904" lon="2.793388">
        <ele>122.89804</ele>
        <time>2021-07-02T14:44:17Z</time>
      </trkpt>
      <trkpt lat="41.924152" lon="2.793446">
        <ele>123.58115</ele>
        <time>2021-07-02T14:44:18Z</time>
      </trkpt>
      <trkpt lat="41.924408" lon="2.793506">
        <ele>125.54691</ele>
        <time>2021-07-02T14:44:19Z</time>
      </trkpt>
      <trkpt lat="41.924671" lon="2.793566">
        <ele>125.97702</ele>
        <time>2021-07-02T14:44:20Z</time>
      </trkpt>
      <trkpt lat="41.924950" lon="2.793626">
        <ele>126.69284</ele>
        <time>2021-07-02T14:44:21Z</time>
      </trkpt>
      <trkpt lat="41.925278" lon="2.793300">
        <ele>127.09116</ele>
        <time>2021-07-02T14:44:22Z</time>
      </trkpt>
      <trkpt lat="41.925549" lon="2.793244">
        <ele>127.33383</ele>
        <time>2021-07-02T14:44:23Z</time>
      </trkpt>
      <trkpt lat="41.925831" lon="2.793136">
        <ele>127.26254</ele>
        <time>2021-07-02T14:44:24Z</time>
      </trkpt>
      <trkpt lat="41.926109" lon="2.793020">
        <ele>127.07980</ele>
        <time>2021-07-02T14:44:25Z</time>
      </trkpt>
      <trkpt lat="41.926376" lon="2.792883">
        <ele>126.62064</ele>
        <time>2021-07-02T14:44:26Z</time>
      </trkpt>
      <trkpt lat="41.926376" lon="2.792883">
        <ele>126.43991</ele>
        <time>2021-07-02T14:44:27Z</time>
      </trkpt>
      <trkpt lat="41.926605" lon="2.792725">
        <ele>125.87234</ele>
        <time>2021-07-02T14:44:28Z</time>
      </trkpt>
      <trkpt lat="41.926815" lon="2.792559">
        <ele>125.30594</ele>
        <time>2021-07-02T14:44:29Z</time>
      </trkpt>
      <trkpt lat="41.926815" lon="2.792559">
        <ele>124.87973</ele>
        <time>2021-07-02T14:44:30Z</time>
      </trkpt>
      <trkpt lat="41.927010" lon="2.792384">
        <ele>124.87973</ele>
        <time>2021-07-02T14:44:32Z</time>
      </trkpt>
      <trkpt lat="41.927479" lon="2.791957">
        <ele>124.96109</ele>
        <time>2021-07-02T14:44:32Z</time>
      </trkpt>
      <trkpt lat="41.927479" lon="2.791957">
        <ele>124.57388</ele>
        <time>2021-07-02T14:44:33Z</time>
      </trkpt>
      <trkpt lat="41.927620" lon="2.791825">
        <ele>124.21848</ele>
        <time>2021-07-02T14:44:34Z</time>
      </trkpt>
      <trkpt lat="41.927788" lon="2.791666">
        <ele>123.37711</ele>
        <time>2021-07-02T14:44:35Z</time>
      </trkpt>
      <trkpt lat="41.928047" lon="2.791423">
        <ele>116.30511</ele>
        <time>2021-07-02T14:44:36Z</time>
      </trkpt>
      <trkpt lat="41.928200" lon="2.791284">
        <ele>115.95464</ele>
        <time>2021-07-02T14:44:37Z</time>
      </trkpt>
      <trkpt lat="41.928333" lon="2.791145">
        <ele>115.17574</ele>
        <time>2021-07-02T14:44:38Z</time>
      </trkpt>
      <trkpt lat="41.928455" lon="2.791010">
        <ele>114.45133</ele>
        <time>2021-07-02T14:44:39Z</time>
      </trkpt>
      <trkpt lat="41.928551" lon="2.790903">
        <ele>114.05009</ele>
        <time>2021-07-02T14:44:40Z</time>
      </trkpt>
      <trkpt lat="41.928642" lon="2.790794">
        <ele>113.70819</ele>
        <time>2021-07-02T14:44:41Z</time>
      </trkpt>
      <trkpt lat="41.928715" lon="2.790712">
        <ele>113.66842</ele>
        <time>2021-07-02T14:44:42Z</time>
      </trkpt>
      <trkpt lat="41.928783" lon="2.790634">
        <ele>113.42714</ele>
        <time>2021-07-02T14:44:43Z</time>
      </trkpt>
      <trkpt lat="41.928825" lon="2.790583">
        <ele>113.47629</ele>
        <time>2021-07-02T14:44:44Z</time>
      </trkpt>
      <trkpt lat="41.928852" lon="2.790554">
        <ele>113.69917</ele>
        <time>2021-07-02T14:44:45Z</time>
      </trkpt>
      <trkpt lat="41.928867" lon="2.790535">
        <ele>113.91667</ele>
        <time>2021-07-02T14:44:46Z</time>
      </trkpt>
      <trkpt lat="41.928886" lon="2.790515">
        <ele>114.07677</ele>
        <time>2021-07-02T14:44:47Z</time>
      </trkpt>
      <trkpt lat="41.928898" lon="2.790502">
        <ele>113.91998</ele>
        <time>2021-07-02T14:44:48Z</time>
      </trkpt>
      <trkpt lat="41.928898" lon="2.790502">
        <ele>114.02395</ele>
        <time>2021-07-02T14:44:49Z</time>
      </trkpt>
      <trkpt lat="41.928898" lon="2.790502">
        <ele>114.07462</ele>
        <time>2021-07-02T14:44:50Z</time>
      </trkpt>
      <trkpt lat="41.928898" lon="2.790502">
        <ele>113.87026</ele>
        <time>2021-07-02T14:44:51Z</time>
      </trkpt>
      <trkpt lat="41.928898" lon="2.790502">
        <ele>113.79563</ele>
        <time>2021-07-02T14:44:52Z</time>
      </trkpt>
      <trkpt lat="41.928898" lon="2.790502">
        <ele>114.02326</ele>
        <time>2021-07-02T14:44:53Z</time>
      </trkpt>
      <trkpt lat="41.928898" lon="2.790502">
        <ele>114.19740</ele>
        <time>2021-07-02T14:44:54Z</time>
      </trkpt>
      <trkpt lat="41.928898" lon="2.790502">
        <ele>114.10640</ele>
        <time>2021-07-02T14:44:55Z</time>
      </trkpt>
      <trkpt lat="41.928898" lon="2.790502">
        <ele>114.26185</ele>
        <time>2021-07-02T14:44:56Z</time>
      </trkpt>
      <trkpt lat="41.928898" lon="2.790502">
        <ele>114.32013</ele>
        <time>2021-07-02T14:44:57Z</time>
      </trkpt>
      <trkpt lat="41.928898" lon="2.790502">
        <ele>114.17142</ele>
        <time>2021-07-02T14:44:58Z</time>
      </trkpt>
      <trkpt lat="41.928898" lon="2.790502">
        <ele>114.28608</ele>
        <time>2021-07-02T14:44:59Z</time>
      </trkpt>
      <trkpt lat="41.928898" lon="2.790502">
        <ele>114.30450</ele>
        <time>2021-07-02T14:45:00Z</time>
      </trkpt>
      <trkpt lat="41.928898" lon="2.790502">
        <ele>114.48039</ele>
        <time>2021-07-02T14:45:01Z</time>
      </trkpt>
      <trkpt lat="41.928898" lon="2.790502">
        <ele>114.37294</ele>
        <time>2021-07-02T14:45:02Z</time>
      </trkpt>
      <trkpt lat="41.928898" lon="2.790502">
        <ele>113.91814</ele>
        <time>2021-07-02T14:45:03Z</time>
      </trkpt>
      <trkpt lat="41.928898" lon="2.790502">
        <ele>113.93602</ele>
        <time>2021-07-02T14:45:04Z</time>
      </trkpt>
      <trkpt lat="41.928898" lon="2.790502">
        <ele>113.94441</ele>
        <time>2021-07-02T14:45:05Z</time>
      </trkpt>
      <trkpt lat="41.928898" lon="2.790502">
        <ele>114.13262</ele>
        <time>2021-07-02T14:45:06Z</time>
      </trkpt>
      <trkpt lat="41.928898" lon="2.790502">
        <ele>114.17368</ele>
        <time>2021-07-02T14:45:07Z</time>
      </trkpt>
      <trkpt lat="41.928898" lon="2.790502">
        <ele>114.08097</ele>
        <time>2021-07-02T14:45:08Z</time>
      </trkpt>
      <trkpt lat="41.928905" lon="2.790492">
        <ele>113.93001</ele>
        <time>2021-07-02T14:45:09Z</time>
      </trkpt>
      <trkpt lat="41.928932" lon="2.790459">
        <ele>113.32981</ele>
        <time>2021-07-02T14:45:10Z</time>
      </trkpt>
      <trkpt lat="41.928974" lon="2.790414">
        <ele>113.28998</ele>
        <time>2021-07-02T14:45:11Z</time>
      </trkpt>
      <trkpt lat="41.929001" lon="2.790379">
        <ele>113.22697</ele>
        <time>2021-07-02T14:45:12Z</time>
      </trkpt>
      <trkpt lat="41.929031" lon="2.790344">
        <ele>113.05682</ele>
        <time>2021-07-02T14:45:13Z</time>
      </trkpt>
      <trkpt lat="41.929070" lon="2.790301">
        <ele>112.95851</ele>
        <time>2021-07-02T14:45:14Z</time>
      </trkpt>
      <trkpt lat="41.929108" lon="2.790256">
        <ele>112.91141</ele>
        <time>2021-07-02T14:45:15Z</time>
      </trkpt>
      <trkpt lat="41.929142" lon="2.790213">
        <ele>112.72338</ele>
        <time>2021-07-02T14:45:16Z</time>
      </trkpt>
      <trkpt lat="41.929176" lon="2.790171">
        <ele>112.59951</ele>
        <time>2021-07-02T14:45:17Z</time>
      </trkpt>
      <trkpt lat="41.929218" lon="2.790122">
        <ele>112.65558</ele>
        <time>2021-07-02T14:45:18Z</time>
      </trkpt>
      <trkpt lat="41.929253" lon="2.790082">
        <ele>112.56934</ele>
        <time>2021-07-02T14:45:19Z</time>
      </trkpt>
      <trkpt lat="41.929291" lon="2.790040">
        <ele>112.41451</ele>
        <time>2021-07-02T14:45:20Z</time>
      </trkpt>
      <trkpt lat="41.929337" lon="2.789984">
        <ele>112.52603</ele>
        <time>2021-07-02T14:45:21Z</time>
      </trkpt>
      <trkpt lat="41.929398" lon="2.789911">
        <ele>112.56075</ele>
        <time>2021-07-02T14:45:22Z</time>
      </trkpt>
      <trkpt lat="41.929516" lon="2.789769">
        <ele>112.29987</ele>
        <time>2021-07-02T14:45:23Z</time>
      </trkpt>
      <trkpt lat="41.929615" lon="2.789647">
        <ele>111.87716</ele>
        <time>2021-07-02T14:45:24Z</time>
      </trkpt>
      <trkpt lat="41.929718" lon="2.789523">
        <ele>111.81507</ele>
        <time>2021-07-02T14:45:25Z</time>
      </trkpt>
      <trkpt lat="41.929718" lon="2.789523">
        <ele>111.31812</ele>
        <time>2021-07-02T14:45:26Z</time>
      </trkpt>
      <trkpt lat="41.929829" lon="2.789388">
        <ele>110.58531</ele>
        <time>2021-07-02T14:45:27Z</time>
      </trkpt>
      <trkpt lat="41.929829" lon="2.789388">
        <ele>111.04520</ele>
        <time>2021-07-02T14:45:28Z</time>
      </trkpt>
      <trkpt lat="41.929836" lon="2.789382">
        <ele>111.81382</ele>
        <time>2021-07-02T14:45:29Z</time>
      </trkpt>
      <trkpt lat="41.929836" lon="2.789382">
        <ele>112.01868</ele>
        <time>2021-07-02T14:45:30Z</time>
      </trkpt>
      <trkpt lat="41.929836" lon="2.789382">
        <ele>111.62202</ele>
        <time>2021-07-02T14:45:31Z</time>
      </trkpt>
      <trkpt lat="41.929836" lon="2.789382">
        <ele>111.49674</ele>
        <time>2021-07-02T14:45:32Z</time>
      </trkpt>
      <trkpt lat="41.929836" lon="2.789382">
        <ele>111.48878</ele>
        <time>2021-07-02T14:45:33Z</time>
      </trkpt>
      <trkpt lat="41.929836" lon="2.789382">
        <ele>111.95190</ele>
        <time>2021-07-02T14:45:34Z</time>
      </trkpt>
      <trkpt lat="41.929836" lon="2.789382">
        <ele>111.95328</ele>
        <time>2021-07-02T14:45:35Z</time>
      </trkpt>
      <trkpt lat="41.929836" lon="2.789382">
        <ele>111.76064</ele>
        <time>2021-07-02T14:45:36Z</time>
      </trkpt>
      <trkpt lat="41.929836" lon="2.789382">
        <ele>111.97319</ele>
        <time>2021-07-02T14:45:37Z</time>
      </trkpt>
      <trkpt lat="41.929836" lon="2.789382">
        <ele>111.85117</ele>
        <time>2021-07-02T14:45:38Z</time>
      </trkpt>
      <trkpt lat="41.929836" lon="2.789382">
        <ele>111.73233</ele>
        <time>2021-07-02T14:45:39Z</time>
      </trkpt>
      <trkpt lat="41.929836" lon="2.789382">
        <ele>112.20938</ele>
        <time>2021-07-02T14:45:40Z</time>
      </trkpt>
      <trkpt lat="41.929836" lon="2.789382">
        <ele>111.90191</ele>
        <time>2021-07-02T14:45:41Z</time>
      </trkpt>
      <trkpt lat="41.929836" lon="2.789382">
        <ele>111.73301</ele>
        <time>2021-07-02T14:45:42Z</time>
      </trkpt>
      <trkpt lat="41.929836" lon="2.789382">
        <ele>111.92872</ele>
        <time>2021-07-02T14:45:43Z</time>
      </trkpt>
      <trkpt lat="41.929836" lon="2.789382">
        <ele>112.30666</ele>
        <time>2021-07-02T14:45:44Z</time>
      </trkpt>
      <trkpt lat="41.929855" lon="2.789359">
        <ele>112.70353</ele>
        <time>2021-07-02T14:45:45Z</time>
      </trkpt>
      <trkpt lat="41.929874" lon="2.789333">
        <ele>113.71243</ele>
        <time>2021-07-02T14:45:46Z</time>
      </trkpt>
      <trkpt lat="41.930107" lon="2.789066">
        <ele>119.51602</ele>
        <time>2021-07-02T14:45:47Z</time>
      </trkpt>
      <trkpt lat="41.930229" lon="2.788931">
        <ele>119.97690</ele>
        <time>2021-07-02T14:45:48Z</time>
      </trkpt>
      <trkpt lat="41.930649" lon="2.788471">
        <ele>120.65817</ele>
        <time>2021-07-02T14:45:49Z</time>
      </trkpt>
      <trkpt lat="41.930965" lon="2.788166">
        <ele>121.13089</ele>
        <time>2021-07-02T14:45:50Z</time>
      </trkpt>
      <trkpt lat="41.930965" lon="2.788166">
        <ele>121.20554</ele>
        <time>2021-07-02T14:45:51Z</time>
      </trkpt>
      <trkpt lat="41.931343" lon="2.787859">
        <ele>121.57333</ele>
        <time>2021-07-02T14:45:52Z</time>
      </trkpt>
      <trkpt lat="41.931343" lon="2.787859">
        <ele>121.63480</ele>
        <time>2021-07-02T14:45:53Z</time>
      </trkpt>
      <trkpt lat="41.931557" lon="2.787734">
        <ele>121.50430</ele>
        <time>2021-07-02T14:45:54Z</time>
      </trkpt>
      <trkpt lat="41.931877" lon="2.787563">
        <ele>121.14633</ele>
        <time>2021-07-02T14:45:55Z</time>
      </trkpt>
      <trkpt lat="41.932205" lon="2.787413">
        <ele>120.97903</ele>
        <time>2021-07-02T14:45:56Z</time>
      </trkpt>
      <trkpt lat="41.932545" lon="2.787328">
        <ele>120.75760</ele>
        <time>2021-07-02T14:45:57Z</time>
      </trkpt>
      <trkpt lat="41.932854" lon="2.787290">
        <ele>120.63577</ele>
        <time>2021-07-02T14:45:58Z</time>
      </trkpt>
      <trkpt lat="41.933186" lon="2.787289">
        <ele>119.94595</ele>
        <time>2021-07-02T14:45:59Z</time>
      </trkpt>
      <trkpt lat="41.933483" lon="2.787321">
        <ele>119.81369</ele>
        <time>2021-07-02T14:46:00Z</time>
      </trkpt>
      <trkpt lat="41.933777" lon="2.787374">
        <ele>119.02719</ele>
        <time>2021-07-02T14:46:01Z</time>
      </trkpt>
      <trkpt lat="41.934044" lon="2.787438">
        <ele>119.16129</ele>
        <time>2021-07-02T14:46:02Z</time>
      </trkpt>
      <trkpt lat="41.934330" lon="2.787514">
        <ele>118.90005</ele>
        <time>2021-07-02T14:46:03Z</time>
      </trkpt>
      <trkpt lat="41.934643" lon="2.787600">
        <ele>118.95798</ele>
        <time>2021-07-02T14:46:04Z</time>
      </trkpt>
      <trkpt lat="41.934921" lon="2.787677">
        <ele>117.94907</ele>
        <time>2021-07-02T14:46:05Z</time>
      </trkpt>
      <trkpt lat="41.935223" lon="2.787760">
        <ele>117.86453</ele>
        <time>2021-07-02T14:46:06Z</time>
      </trkpt>
      <trkpt lat="41.935524" lon="2.787848">
        <ele>117.77414</ele>
        <time>2021-07-02T14:46:07Z</time>
      </trkpt>
      <trkpt lat="41.935825" lon="2.787934">
        <ele>117.51151</ele>
        <time>2021-07-02T14:46:08Z</time>
      </trkpt>
      <trkpt lat="41.936142" lon="2.788023">
        <ele>117.71201</ele>
        <time>2021-07-02T14:46:09Z</time>
      </trkpt>
      <trkpt lat="41.936432" lon="2.788104">
        <ele>117.27060</ele>
        <time>2021-07-02T14:46:10Z</time>
      </trkpt>
      <trkpt lat="41.936779" lon="2.788201">
        <ele>116.72202</ele>
        <time>2021-07-02T14:46:11Z</time>
      </trkpt>
      <trkpt lat="41.937111" lon="2.788295">
        <ele>116.14053</ele>
        <time>2021-07-02T14:46:12Z</time>
      </trkpt>
      <trkpt lat="41.937462" lon="2.788393">
        <ele>115.90128</ele>
        <time>2021-07-02T14:46:13Z</time>
      </trkpt>
      <trkpt lat="41.937775" lon="2.788462">
        <ele>115.87338</ele>
        <time>2021-07-02T14:46:14Z</time>
      </trkpt>
      <trkpt lat="41.938087" lon="2.788484">
        <ele>115.06418</ele>
        <time>2021-07-02T14:46:15Z</time>
      </trkpt>
      <trkpt lat="41.938087" lon="2.788484">
        <ele>114.98929</ele>
        <time>2021-07-02T14:46:16Z</time>
      </trkpt>
      <trkpt lat="41.938416" lon="2.788514">
        <ele>114.42911</ele>
        <time>2021-07-02T14:46:17Z</time>
      </trkpt>
      <trkpt lat="41.938744" lon="2.788560">
        <ele>114.04965</ele>
        <time>2021-07-02T14:46:18Z</time>
      </trkpt>
      <trkpt lat="41.939068" lon="2.788606">
        <ele>113.69431</ele>
        <time>2021-07-02T14:46:19Z</time>
      </trkpt>
      <trkpt lat="41.939369" lon="2.788654">
        <ele>113.08395</ele>
        <time>2021-07-02T14:46:20Z</time>
      </trkpt>
      <trkpt lat="41.939682" lon="2.788703">
        <ele>112.74405</ele>
        <time>2021-07-02T14:46:21Z</time>
      </trkpt>
      <trkpt lat="41.939968" lon="2.788748">
        <ele>111.91275</ele>
        <time>2021-07-02T14:46:22Z</time>
      </trkpt>
      <trkpt lat="41.940266" lon="2.788795">
        <ele>112.17300</ele>
        <time>2021-07-02T14:46:23Z</time>
      </trkpt>
      <trkpt lat="41.940571" lon="2.788843">
        <ele>111.63022</ele>
        <time>2021-07-02T14:46:24Z</time>
      </trkpt>
      <trkpt lat="41.940895" lon="2.788894">
        <ele>111.17899</ele>
        <time>2021-07-02T14:46:25Z</time>
      </trkpt>
      <trkpt lat="41.941216" lon="2.788923">
        <ele>110.74136</ele>
        <time>2021-07-02T14:46:26Z</time>
      </trkpt>
      <trkpt lat="41.941555" lon="2.788940">
        <ele>110.31857</ele>
        <time>2021-07-02T14:46:27Z</time>
      </trkpt>
      <trkpt lat="41.941875" lon="2.788953">
        <ele>110.56650</ele>
        <time>2021-07-02T14:46:28Z</time>
      </trkpt>
      <trkpt lat="41.942215" lon="2.788968">
        <ele>110.02280</ele>
        <time>2021-07-02T14:46:29Z</time>
      </trkpt>
      <trkpt lat="41.942547" lon="2.788977">
        <ele>110.01022</ele>
        <time>2021-07-02T14:46:30Z</time>
      </trkpt>
      <trkpt lat="41.942894" lon="2.788977">
        <ele>109.84763</ele>
        <time>2021-07-02T14:46:31Z</time>
      </trkpt>
      <trkpt lat="41.943188" lon="2.788975">
        <ele>109.43735</ele>
        <time>2021-07-02T14:46:32Z</time>
      </trkpt>
      <trkpt lat="41.943470" lon="2.788972">
        <ele>108.97861</ele>
        <time>2021-07-02T14:46:33Z</time>
      </trkpt>
      <trkpt lat="41.943783" lon="2.788958">
        <ele>108.43173</ele>
        <time>2021-07-02T14:46:34Z</time>
      </trkpt>
      <trkpt lat="41.944077" lon="2.788942">
        <ele>108.34030</ele>
        <time>2021-07-02T14:46:35Z</time>
      </trkpt>
      <trkpt lat="41.944370" lon="2.788926">
        <ele>107.53262</ele>
        <time>2021-07-02T14:46:36Z</time>
      </trkpt>
      <trkpt lat="41.944695" lon="2.788905">
        <ele>107.18039</ele>
        <time>2021-07-02T14:46:37Z</time>
      </trkpt>
      <trkpt lat="41.945000" lon="2.788878">
        <ele>106.89157</ele>
        <time>2021-07-02T14:46:38Z</time>
      </trkpt>
      <trkpt lat="41.945297" lon="2.788852">
        <ele>105.99637</ele>
        <time>2021-07-02T14:46:39Z</time>
      </trkpt>
      <trkpt lat="41.945633" lon="2.788823">
        <ele>106.30331</ele>
        <time>2021-07-02T14:46:40Z</time>
      </trkpt>
      <trkpt lat="41.945961" lon="2.788793">
        <ele>106.13095</ele>
        <time>2021-07-02T14:46:41Z</time>
      </trkpt>
      <trkpt lat="41.946262" lon="2.788765">
        <ele>105.18661</ele>
        <time>2021-07-02T14:46:42Z</time>
      </trkpt>
      <trkpt lat="41.946564" lon="2.788733">
        <ele>104.76138</ele>
        <time>2021-07-02T14:46:43Z</time>
      </trkpt>
      <trkpt lat="41.946877" lon="2.788685">
        <ele>104.98550</ele>
        <time>2021-07-02T14:46:44Z</time>
      </trkpt>
      <trkpt lat="41.947186" lon="2.788639">
        <ele>104.74075</ele>
        <time>2021-07-02T14:46:45Z</time>
      </trkpt>
      <trkpt lat="41.947502" lon="2.788588">
        <ele>104.56339</ele>
        <time>2021-07-02T14:46:46Z</time>
      </trkpt>
      <trkpt lat="41.947842" lon="2.788526">
        <ele>104.00009</ele>
        <time>2021-07-02T14:46:47Z</time>
      </trkpt>
      <trkpt lat="41.948124" lon="2.788474">
        <ele>104.08377</ele>
        <time>2021-07-02T14:46:48Z</time>
      </trkpt>
      <trkpt lat="41.948429" lon="2.788404">
        <ele>104.19485</ele>
        <time>2021-07-02T14:46:49Z</time>
      </trkpt>
      <trkpt lat="41.948429" lon="2.788404">
        <ele>104.26694</ele>
        <time>2021-07-02T14:46:50Z</time>
      </trkpt>
      <trkpt lat="41.948776" lon="2.788325">
        <ele>103.94754</ele>
        <time>2021-07-02T14:46:51Z</time>
      </trkpt>
      <trkpt lat="41.949123" lon="2.788246">
        <ele>104.01199</ele>
        <time>2021-07-02T14:46:52Z</time>
      </trkpt>
      <trkpt lat="41.949451" lon="2.788170">
        <ele>103.62198</ele>
        <time>2021-07-02T14:46:53Z</time>
      </trkpt>
      <trkpt lat="41.949726" lon="2.788094">
        <ele>102.94498</ele>
        <time>2021-07-02T14:46:54Z</time>
      </trkpt>
      <trkpt lat="41.950005" lon="2.788014">
        <ele>102.98038</ele>
        <time>2021-07-02T14:46:55Z</time>
      </trkpt>
      <trkpt lat="41.950306" lon="2.787928">
        <ele>102.99484</ele>
        <time>2021-07-02T14:46:56Z</time>
      </trkpt>
      <trkpt lat="41.950607" lon="2.787842">
        <ele>103.02121</ele>
        <time>2021-07-02T14:46:57Z</time>
      </trkpt>
      <trkpt lat="41.950897" lon="2.787756">
        <ele>103.11203</ele>
        <time>2021-07-02T14:46:58Z</time>
      </trkpt>
      <trkpt lat="41.951183" lon="2.787663">
        <ele>103.25967</ele>
        <time>2021-07-02T14:46:59Z</time>
      </trkpt>
      <trkpt lat="41.951473" lon="2.787570">
        <ele>102.76480</ele>
        <time>2021-07-02T14:47:00Z</time>
      </trkpt>
      <trkpt lat="41.951740" lon="2.787482">
        <ele>102.53214</ele>
        <time>2021-07-02T14:47:01Z</time>
      </trkpt>
      <trkpt lat="41.952011" lon="2.787393">
        <ele>102.53781</ele>
        <time>2021-07-02T14:47:02Z</time>
      </trkpt>
      <trkpt lat="41.952332" lon="2.787278">
        <ele>102.14688</ele>
        <time>2021-07-02T14:47:03Z</time>
      </trkpt>
      <trkpt lat="41.952621" lon="2.787169">
        <ele>101.76962</ele>
        <time>2021-07-02T14:47:04Z</time>
      </trkpt>
      <trkpt lat="41.952900" lon="2.787060">
        <ele>101.88217</ele>
        <time>2021-07-02T14:47:05Z</time>
      </trkpt>
      <trkpt lat="41.953159" lon="2.786956">
        <ele>101.29025</ele>
        <time>2021-07-02T14:47:06Z</time>
      </trkpt>
      <trkpt lat="41.953445" lon="2.786841">
        <ele>101.45688</ele>
        <time>2021-07-02T14:47:07Z</time>
      </trkpt>
      <trkpt lat="41.953728" lon="2.786728">
        <ele>100.64182</ele>
        <time>2021-07-02T14:47:08Z</time>
      </trkpt>
      <trkpt lat="41.953976" lon="2.786619">
        <ele>100.42880</ele>
        <time>2021-07-02T14:47:09Z</time>
      </trkpt>
      <trkpt lat="41.954182" lon="2.786523">
        <ele>100.04568</ele>
        <time>2021-07-02T14:47:10Z</time>
      </trkpt>
      <trkpt lat="41.954430" lon="2.786410">
        <ele>99.99802</ele>
        <time>2021-07-02T14:47:11Z</time>
      </trkpt>
      <trkpt lat="41.954639" lon="2.786314">
        <ele>99.59885</ele>
        <time>2021-07-02T14:47:12Z</time>
      </trkpt>
      <trkpt lat="41.954639" lon="2.786314">
        <ele>98.58859</ele>
        <time>2021-07-02T14:47:13Z</time>
      </trkpt>
      <trkpt lat="41.955051" lon="2.786117">
        <ele>97.83676</ele>
        <time>2021-07-02T14:47:14Z</time>
      </trkpt>
      <trkpt lat="41.955051" lon="2.786117">
        <ele>97.81741</ele>
        <time>2021-07-02T14:47:15Z</time>
      </trkpt>
      <trkpt lat="41.955269" lon="2.786014">
        <ele>97.45712</ele>
        <time>2021-07-02T14:47:16Z</time>
      </trkpt>
      <trkpt lat="41.955456" lon="2.785919">
        <ele>97.99832</ele>
        <time>2021-07-02T14:47:17Z</time>
      </trkpt>
      <trkpt lat="41.955673" lon="2.785811">
        <ele>98.00510</ele>
        <time>2021-07-02T14:47:18Z</time>
      </trkpt>
      <trkpt lat="41.955894" lon="2.785694">
        <ele>97.96671</ele>
        <time>2021-07-02T14:47:19Z</time>
      </trkpt>
      <trkpt lat="41.956097" lon="2.785584">
        <ele>97.52719</ele>
        <time>2021-07-02T14:47:20Z</time>
      </trkpt>
      <trkpt lat="41.956364" lon="2.785440">
        <ele>96.61453</ele>
        <time>2021-07-02T14:47:21Z</time>
      </trkpt>
      <trkpt lat="41.956577" lon="2.785324">
        <ele>96.07297</ele>
        <time>2021-07-02T14:47:22Z</time>
      </trkpt>
      <trkpt lat="41.956879" lon="2.785153">
        <ele>96.11606</ele>
        <time>2021-07-02T14:47:23Z</time>
      </trkpt>
      <trkpt lat="41.957169" lon="2.784986">
        <ele>95.67490</ele>
        <time>2021-07-02T14:47:24Z</time>
      </trkpt>
      <trkpt lat="41.957439" lon="2.784827">
        <ele>96.03250</ele>
        <time>2021-07-02T14:47:25Z</time>
      </trkpt>
      <trkpt lat="41.957699" lon="2.784674">
        <ele>94.71573</ele>
        <time>2021-07-02T14:47:26Z</time>
      </trkpt>
      <trkpt lat="41.957943" lon="2.784528">
        <ele>93.76523</ele>
        <time>2021-07-02T14:47:27Z</time>
      </trkpt>
      <trkpt lat="41.958176" lon="2.784383">
        <ele>93.72946</ele>
        <time>2021-07-02T14:47:28Z</time>
      </trkpt>
      <trkpt lat="41.958473" lon="2.784523">
        <ele>93.80832</ele>
        <time>2021-07-02T14:47:29Z</time>
      </trkpt>
      <trkpt lat="41.958755" lon="2.784464">
        <ele>92.96353</ele>
        <time>2021-07-02T14:47:30Z</time>
      </trkpt>
      <trkpt lat="41.959057" lon="2.784474">
        <ele>93.81070</ele>
        <time>2021-07-02T14:47:31Z</time>
      </trkpt>
      <trkpt lat="41.959255" lon="2.784535">
        <ele>93.97775</ele>
        <time>2021-07-02T14:47:32Z</time>
      </trkpt>
      <trkpt lat="41.959396" lon="2.784594">
        <ele>94.24283</ele>
        <time>2021-07-02T14:47:33Z</time>
      </trkpt>
      <trkpt lat="41.959396" lon="2.784594">
        <ele>94.17606</ele>
        <time>2021-07-02T14:47:34Z</time>
      </trkpt>
      <trkpt lat="41.959572" lon="2.784727">
        <ele>94.33682</ele>
        <time>2021-07-02T14:47:35Z</time>
      </trkpt>
      <trkpt lat="41.959717" lon="2.784864">
        <ele>94.27255</ele>
        <time>2021-07-02T14:47:36Z</time>
      </trkpt>
      <trkpt lat="41.959888" lon="2.785062">
        <ele>94.49039</ele>
        <time>2021-07-02T14:47:37Z</time>
      </trkpt>
      <trkpt lat="41.960022" lon="2.785259">
        <ele>94.78067</ele>
        <time>2021-07-02T14:47:38Z</time>
      </trkpt>
      <trkpt lat="41.960133" lon="2.785424">
        <ele>94.61935</ele>
        <time>2021-07-02T14:47:39Z</time>
      </trkpt>
      <trkpt lat="41.960258" lon="2.785648">
        <ele>94.54538</ele>
        <time>2021-07-02T14:47:40Z</time>
      </trkpt>
      <trkpt lat="41.960392" lon="2.785892">
        <ele>92.74605</ele>
        <time>2021-07-02T14:47:41Z</time>
      </trkpt>
      <trkpt lat="41.960484" lon="2.786100">
        <ele>92.31440</ele>
        <time>2021-07-02T14:47:42Z</time>
      </trkpt>
      <trkpt lat="41.960571" lon="2.786290">
        <ele>91.06379</ele>
        <time>2021-07-02T14:47:43Z</time>
      </trkpt>
      <trkpt lat="41.960686" lon="2.786466">
        <ele>90.49506</ele>
        <time>2021-07-02T14:47:44Z</time>
      </trkpt>
      <trkpt lat="41.960754" lon="2.786649">
        <ele>90.62218</ele>
        <time>2021-07-02T14:47:45Z</time>
      </trkpt>
      <trkpt lat="41.960812" lon="2.786801">
        <ele>90.32506</ele>
        <time>2021-07-02T14:47:46Z</time>
      </trkpt>
      <trkpt lat="41.960876" lon="2.786972">
        <ele>90.57650</ele>
        <time>2021-07-02T14:47:47Z</time>
      </trkpt>
      <trkpt lat="41.960934" lon="2.787120">
        <ele>90.44968</ele>
        <time>2021-07-02T14:47:48Z</time>
      </trkpt>
      <trkpt lat="41.961006" lon="2.787311">
        <ele>90.31804</ele>
        <time>2021-07-02T14:47:49Z</time>
      </trkpt>
      <trkpt lat="41.961060" lon="2.787462">
        <ele>89.87994</ele>
        <time>2021-07-02T14:47:50Z</time>
      </trkpt>
      <trkpt lat="41.961109" lon="2.787597">
        <ele>89.79279</ele>
        <time>2021-07-02T14:47:51Z</time>
      </trkpt>
      <trkpt lat="41.961155" lon="2.787728">
        <ele>89.52396</ele>
        <time>2021-07-02T14:47:52Z</time>
      </trkpt>
      <trkpt lat="41.961201" lon="2.787856">
        <ele>89.35541</ele>
        <time>2021-07-02T14:47:53Z</time>
      </trkpt>
      <trkpt lat="41.961239" lon="2.787955">
        <ele>89.14500</ele>
        <time>2021-07-02T14:47:54Z</time>
      </trkpt>
      <trkpt lat="41.961273" lon="2.788051">
        <ele>88.77840</ele>
        <time>2021-07-02T14:47:55Z</time>
      </trkpt>
      <trkpt lat="41.961300" lon="2.788129">
        <ele>88.52155</ele>
        <time>2021-07-02T14:47:56Z</time>
      </trkpt>
      <trkpt lat="41.961327" lon="2.788197">
        <ele>88.87762</ele>
        <time>2021-07-02T14:47:57Z</time>
      </trkpt>
      <trkpt lat="41.961342" lon="2.788247">
        <ele>89.12514</ele>
        <time>2021-07-02T14:47:58Z</time>
      </trkpt>
      <trkpt lat="41.961353" lon="2.788277">
        <ele>89.51646</ele>
        <time>2021-07-02T14:47:59Z</time>
      </trkpt>
      <trkpt lat="41.961353" lon="2.788279">
        <ele>89.81711</ele>
        <time>2021-07-02T14:48:00Z</time>
      </trkpt>
      <trkpt lat="41.961357" lon="2.788283">
        <ele>90.07609</ele>
        <time>2021-07-02T14:48:01Z</time>
      </trkpt>
      <trkpt lat="41.961357" lon="2.788286">
        <ele>90.34348</ele>
        <time>2021-07-02T14:48:02Z</time>
      </trkpt>
      <trkpt lat="41.961369" lon="2.788320">
        <ele>90.61813</ele>
        <time>2021-07-02T14:48:03Z</time>
      </trkpt>
      <trkpt lat="41.961372" lon="2.788324">
        <ele>90.74135</ele>
        <time>2021-07-02T14:48:04Z</time>
      </trkpt>
      <trkpt lat="41.961388" lon="2.788376">
        <ele>90.99707</ele>
        <time>2021-07-02T14:48:05Z</time>
      </trkpt>
      <trkpt lat="41.961388" lon="2.788376">
        <ele>91.06954</ele>
        <time>2021-07-02T14:48:06Z</time>
      </trkpt>
      <trkpt lat="41.961391" lon="2.788381">
        <ele>91.13077</ele>
        <time>2021-07-02T14:48:07Z</time>
      </trkpt>
      <trkpt lat="41.961395" lon="2.788394">
        <ele>91.14442</ele>
        <time>2021-07-02T14:48:08Z</time>
      </trkpt>
      <trkpt lat="41.961395" lon="2.788394">
        <ele>91.19478</ele>
        <time>2021-07-02T14:48:09Z</time>
      </trkpt>
      <trkpt lat="41.961395" lon="2.788394">
        <ele>91.09436</ele>
        <time>2021-07-02T14:48:10Z</time>
      </trkpt>
      <trkpt lat="41.961395" lon="2.788394">
        <ele>91.12229</ele>
        <time>2021-07-02T14:48:11Z</time>
      </trkpt>
      <trkpt lat="41.961395" lon="2.788394">
        <ele>91.15983</ele>
        <time>2021-07-02T14:48:12Z</time>
      </trkpt>
      <trkpt lat="41.961395" lon="2.788394">
        <ele>91.15758</ele>
        <time>2021-07-02T14:48:13Z</time>
      </trkpt>
      <trkpt lat="41.961395" lon="2.788394">
        <ele>91.10840</ele>
        <time>2021-07-02T14:48:14Z</time>
      </trkpt>
      <trkpt lat="41.961395" lon="2.788394">
        <ele>91.17289</ele>
        <time>2021-07-02T14:48:15Z</time>
      </trkpt>
      <trkpt lat="41.961395" lon="2.788394">
        <ele>91.25965</ele>
        <time>2021-07-02T14:48:16Z</time>
      </trkpt>
      <trkpt lat="41.961395" lon="2.788394">
        <ele>91.17043</ele>
        <time>2021-07-02T14:48:17Z</time>
      </trkpt>
      <trkpt lat="41.961395" lon="2.788394">
        <ele>91.22607</ele>
        <time>2021-07-02T14:48:18Z</time>
      </trkpt>
      <trkpt lat="41.961395" lon="2.788394">
        <ele>91.23082</ele>
        <time>2021-07-02T14:48:19Z</time>
      </trkpt>
      <trkpt lat="41.961395" lon="2.788394">
        <ele>91.22464</ele>
        <time>2021-07-02T14:48:20Z</time>
      </trkpt>
      <trkpt lat="41.961395" lon="2.788394">
        <ele>91.15091</ele>
        <time>2021-07-02T14:48:21Z</time>
      </trkpt>
      <trkpt lat="41.961395" lon="2.788394">
        <ele>91.18299</ele>
        <time>2021-07-02T14:48:22Z</time>
      </trkpt>
      <trkpt lat="41.961395" lon="2.788394">
        <ele>91.33335</ele>
        <time>2021-07-02T14:48:23Z</time>
      </trkpt>
      <trkpt lat="41.961395" lon="2.788394">
        <ele>91.40975</ele>
        <time>2021-07-02T14:48:24Z</time>
      </trkpt>
      <trkpt lat="41.961395" lon="2.788394">
        <ele>91.25994</ele>
        <time>2021-07-02T14:48:25Z</time>
      </trkpt>
      <trkpt lat="41.961395" lon="2.788394">
        <ele>91.34426</ele>
        <time>2021-07-02T14:48:26Z</time>
      </trkpt>
      <trkpt lat="41.961395" lon="2.788394">
        <ele>91.53193</ele>
        <time>2021-07-02T14:48:27Z</time>
      </trkpt>
      <trkpt lat="41.961395" lon="2.788394">
        <ele>91.55573</ele>
        <time>2021-07-02T14:48:28Z</time>
      </trkpt>
      <trkpt lat="41.961395" lon="2.788394">
        <ele>91.49921</ele>
        <time>2021-07-02T14:48:29Z</time>
      </trkpt>
      <trkpt lat="41.961395" lon="2.788394">
        <ele>91.44854</ele>
        <time>2021-07-02T14:48:30Z</time>
      </trkpt>
      <trkpt lat="41.961395" lon="2.788394">
        <ele>91.85004</ele>
        <time>2021-07-02T14:48:31Z</time>
      </trkpt>
      <trkpt lat="41.961399" lon="2.788404">
        <ele>91.79999</ele>
        <time>2021-07-02T14:48:32Z</time>
      </trkpt>
      <trkpt lat="41.961426" lon="2.788498">
        <ele>92.03687</ele>
        <time>2021-07-02T14:48:33Z</time>
      </trkpt>
      <trkpt lat="41.961460" lon="2.788604">
        <ele>92.25308</ele>
        <time>2021-07-02T14:48:34Z</time>
      </trkpt>
      <trkpt lat="41.961517" lon="2.788775">
        <ele>92.23112</ele>
        <time>2021-07-02T14:48:35Z</time>
      </trkpt>
      <trkpt lat="41.961559" lon="2.788899">
        <ele>92.25877</ele>
        <time>2021-07-02T14:48:36Z</time>
      </trkpt>
      <trkpt lat="41.961597" lon="2.789006">
        <ele>92.25077</ele>
        <time>2021-07-02T14:48:37Z</time>
      </trkpt>
      <trkpt lat="41.961628" lon="2.789094">
        <ele>92.37804</ele>
        <time>2021-07-02T14:48:38Z</time>
      </trkpt>
      <trkpt lat="41.961666" lon="2.789211">
        <ele>92.13506</ele>
        <time>2021-07-02T14:48:39Z</time>
      </trkpt>
      <trkpt lat="41.961716" lon="2.789347">
        <ele>93.15569</ele>
        <time>2021-07-02T14:48:40Z</time>
      </trkpt>
      <trkpt lat="41.961761" lon="2.789490">
        <ele>92.02770</ele>
        <time>2021-07-02T14:48:41Z</time>
      </trkpt>
      <trkpt lat="41.961807" lon="2.789615">
        <ele>91.92179</ele>
        <time>2021-07-02T14:48:42Z</time>
      </trkpt>
      <trkpt lat="41.961849" lon="2.789726">
        <ele>91.28426</ele>
        <time>2021-07-02T14:48:43Z</time>
      </trkpt>
      <trkpt lat="41.961887" lon="2.789829">
        <ele>90.99406</ele>
        <time>2021-07-02T14:48:44Z</time>
      </trkpt>
      <trkpt lat="41.961933" lon="2.789956">
        <ele>90.72929</ele>
        <time>2021-07-02T14:48:45Z</time>
      </trkpt>
      <trkpt lat="41.961964" lon="2.790044">
        <ele>90.59570</ele>
        <time>2021-07-02T14:48:46Z</time>
      </trkpt>
      <trkpt lat="41.961975" lon="2.790074">
        <ele>90.41641</ele>
        <time>2021-07-02T14:48:47Z</time>
      </trkpt>
      <trkpt lat="41.961979" lon="2.790081">
        <ele>90.49216</ele>
        <time>2021-07-02T14:48:48Z</time>
      </trkpt>
      <trkpt lat="41.961979" lon="2.790081">
        <ele>90.34236</ele>
        <time>2021-07-02T14:48:49Z</time>
      </trkpt>
      <trkpt lat="41.961987" lon="2.790106">
        <ele>90.37805</ele>
        <time>2021-07-02T14:48:50Z</time>
      </trkpt>
      <trkpt lat="41.961998" lon="2.790138">
        <ele>90.31749</ele>
        <time>2021-07-02T14:48:51Z</time>
      </trkpt>
      <trkpt lat="41.962006" lon="2.790154">
        <ele>90.38322</ele>
        <time>2021-07-02T14:48:52Z</time>
      </trkpt>
      <trkpt lat="41.962009" lon="2.790162">
        <ele>90.27478</ele>
        <time>2021-07-02T14:48:53Z</time>
      </trkpt>
      <trkpt lat="41.962013" lon="2.790171">
        <ele>90.34395</ele>
        <time>2021-07-02T14:48:54Z</time>
      </trkpt>
      <trkpt lat="41.962009" lon="2.790183">
        <ele>90.35670</ele>
        <time>2021-07-02T14:48:55Z</time>
      </trkpt>
      <trkpt lat="41.962009" lon="2.790185">
        <ele>90.48418</ele>
        <time>2021-07-02T14:48:56Z</time>
      </trkpt>
      <trkpt lat="41.962009" lon="2.790185">
        <ele>90.68788</ele>
        <time>2021-07-02T14:48:57Z</time>
      </trkpt>
      <trkpt lat="41.962009" lon="2.790185">
        <ele>90.46130</ele>
        <time>2021-07-02T14:48:58Z</time>
      </trkpt>
      <trkpt lat="41.962009" lon="2.790185">
        <ele>90.40502</ele>
        <time>2021-07-02T14:48:59Z</time>
      </trkpt>
      <trkpt lat="41.962009" lon="2.790185">
        <ele>90.52932</ele>
        <time>2021-07-02T14:49:00Z</time>
      </trkpt>
      <trkpt lat="41.962009" lon="2.790185">
        <ele>90.40692</ele>
        <time>2021-07-02T14:49:01Z</time>
      </trkpt>
      <trkpt lat="41.962009" lon="2.790185">
        <ele>90.35899</ele>
        <time>2021-07-02T14:49:02Z</time>
      </trkpt>
      <trkpt lat="41.962009" lon="2.790185">
        <ele>90.49635</ele>
        <time>2021-07-02T14:49:03Z</time>
      </trkpt>
      <trkpt lat="41.962009" lon="2.790185">
        <ele>90.22749</ele>
        <time>2021-07-02T14:49:04Z</time>
      </trkpt>
      <trkpt lat="41.962009" lon="2.790185">
        <ele>90.37401</ele>
        <time>2021-07-02T14:49:05Z</time>
      </trkpt>
      <trkpt lat="41.962006" lon="2.790185">
        <ele>90.97192</ele>
        <time>2021-07-02T14:49:06Z</time>
      </trkpt>
      <trkpt lat="41.961956" lon="2.790233">
        <ele>91.39951</ele>
        <time>2021-07-02T14:49:07Z</time>
      </trkpt>
      <trkpt lat="41.961945" lon="2.790250">
        <ele>91.26685</ele>
        <time>2021-07-02T14:49:08Z</time>
      </trkpt>
      <trkpt lat="41.961876" lon="2.790468">
        <ele>91.09418</ele>
        <time>2021-07-02T14:49:09Z</time>
      </trkpt>
      <trkpt lat="41.961884" lon="2.790609">
        <ele>90.77926</ele>
        <time>2021-07-02T14:49:10Z</time>
      </trkpt>
      <trkpt lat="41.961952" lon="2.790761">
        <ele>90.49191</ele>
        <time>2021-07-02T14:49:11Z</time>
      </trkpt>
      <trkpt lat="41.962051" lon="2.790857">
        <ele>89.98830</ele>
        <time>2021-07-02T14:49:12Z</time>
      </trkpt>
      <trkpt lat="41.962090" lon="2.790875">
        <ele>90.11259</ele>
        <time>2021-07-02T14:49:13Z</time>
      </trkpt>
      <trkpt lat="41.962151" lon="2.790877">
        <ele>90.60148</ele>
        <time>2021-07-02T14:49:14Z</time>
      </trkpt>
      <trkpt lat="41.962322" lon="2.790808">
        <ele>90.25237</ele>
        <time>2021-07-02T14:49:15Z</time>
      </trkpt>
      <trkpt lat="41.962379" lon="2.790720">
        <ele>90.21298</ele>
        <time>2021-07-02T14:49:16Z</time>
      </trkpt>
      <trkpt lat="41.962429" lon="2.790621">
        <ele>90.48441</ele>
        <time>2021-07-02T14:49:17Z</time>
      </trkpt>
      <trkpt lat="41.962448" lon="2.790501">
        <ele>90.34242</ele>
        <time>2021-07-02T14:49:18Z</time>
      </trkpt>
      <trkpt lat="41.962433" lon="2.790410">
        <ele>90.49677</ele>
        <time>2021-07-02T14:49:19Z</time>
      </trkpt>
      <trkpt lat="41.962410" lon="2.790346">
        <ele>90.48666</ele>
        <time>2021-07-02T14:49:20Z</time>
      </trkpt>
      <trkpt lat="41.962769" lon="2.790394">
        <ele>90.54337</ele>
        <time>2021-07-02T14:49:21Z</time>
      </trkpt>
      <trkpt lat="41.962872" lon="2.790357">
        <ele>90.67844</ele>
        <time>2021-07-02T14:49:22Z</time>
      </trkpt>
      <trkpt lat="41.962986" lon="2.790314">
        <ele>90.19325</ele>
        <time>2021-07-02T14:49:23Z</time>
      </trkpt>
      <trkpt lat="41.963097" lon="2.790267">
        <ele>90.30266</ele>
        <time>2021-07-02T14:49:24Z</time>
      </trkpt>
      <trkpt lat="41.963196" lon="2.790225">
        <ele>89.51772</ele>
        <time>2021-07-02T14:49:25Z</time>
      </trkpt>
      <trkpt lat="41.963287" lon="2.790175">
        <ele>89.29664</ele>
        <time>2021-07-02T14:49:26Z</time>
      </trkpt>
      <trkpt lat="41.963379" lon="2.790126">
        <ele>89.01123</ele>
        <time>2021-07-02T14:49:27Z</time>
      </trkpt>
      <trkpt lat="41.963478" lon="2.790074">
        <ele>88.78921</ele>
        <time>2021-07-02T14:49:28Z</time>
      </trkpt>
      <trkpt lat="41.963478" lon="2.790074">
        <ele>88.60095</ele>
        <time>2021-07-02T14:49:29Z</time>
      </trkpt>
      <trkpt lat="41.963577" lon="2.790013">
        <ele>88.69483</ele>
        <time>2021-07-02T14:49:30Z</time>
      </trkpt>
      <trkpt lat="41.963673" lon="2.789954">
        <ele>88.50269</ele>
        <time>2021-07-02T14:49:31Z</time>
      </trkpt>
      <trkpt lat="41.963768" lon="2.789893">
        <ele>88.16612</ele>
        <time>2021-07-02T14:49:32Z</time>
      </trkpt>
      <trkpt lat="41.963863" lon="2.789833">
        <ele>88.02499</ele>
        <time>2021-07-02T14:49:33Z</time>
      </trkpt>
      <trkpt lat="41.963959" lon="2.789772">
        <ele>87.93412</ele>
        <time>2021-07-02T14:49:34Z</time>
      </trkpt>
      <trkpt lat="41.964046" lon="2.789719">
        <ele>87.94526</ele>
        <time>2021-07-02T14:49:35Z</time>
      </trkpt>
      <trkpt lat="41.964123" lon="2.789670">
        <ele>87.69632</ele>
        <time>2021-07-02T14:49:36Z</time>
      </trkpt>
      <trkpt lat="41.964203" lon="2.789620">
        <ele>87.73563</ele>
        <time>2021-07-02T14:49:37Z</time>
      </trkpt>
      <trkpt lat="41.964279" lon="2.789571">
        <ele>87.67661</ele>
        <time>2021-07-02T14:49:38Z</time>
      </trkpt>
      <trkpt lat="41.964355" lon="2.789522">
        <ele>87.63004</ele>
        <time>2021-07-02T14:49:39Z</time>
      </trkpt>
      <trkpt lat="41.964436" lon="2.789468">
        <ele>87.60973</ele>
        <time>2021-07-02T14:49:40Z</time>
      </trkpt>
      <trkpt lat="41.964504" lon="2.789421">
        <ele>87.63497</ele>
        <time>2021-07-02T14:49:41Z</time>
      </trkpt>
      <trkpt lat="41.964581" lon="2.789372">
        <ele>87.73137</ele>
        <time>2021-07-02T14:49:42Z</time>
      </trkpt>
      <trkpt lat="41.964653" lon="2.789320">
        <ele>87.52596</ele>
        <time>2021-07-02T14:49:43Z</time>
      </trkpt>
      <trkpt lat="41.964729" lon="2.789265">
        <ele>87.71022</ele>
        <time>2021-07-02T14:49:44Z</time>
      </trkpt>
      <trkpt lat="41.964802" lon="2.789214">
        <ele>88.22005</ele>
        <time>2021-07-02T14:49:45Z</time>
      </trkpt>
      <trkpt lat="41.964878" lon="2.789159">
        <ele>88.49284</ele>
        <time>2021-07-02T14:49:46Z</time>
      </trkpt>
      <trkpt lat="41.964973" lon="2.789093">
        <ele>88.69688</ele>
        <time>2021-07-02T14:49:47Z</time>
      </trkpt>
      <trkpt lat="41.965088" lon="2.789011">
        <ele>88.90910</ele>
        <time>2021-07-02T14:49:48Z</time>
      </trkpt>
      <trkpt lat="41.965191" lon="2.788936">
        <ele>89.03341</ele>
        <time>2021-07-02T14:49:49Z</time>
      </trkpt>
      <trkpt lat="41.965305" lon="2.788855">
        <ele>89.04603</ele>
        <time>2021-07-02T14:49:50Z</time>
      </trkpt>
      <trkpt lat="41.965431" lon="2.788764">
        <ele>89.26859</ele>
        <time>2021-07-02T14:49:51Z</time>
      </trkpt>
      <trkpt lat="41.965565" lon="2.788670">
        <ele>89.40115</ele>
        <time>2021-07-02T14:49:52Z</time>
      </trkpt>
      <trkpt lat="41.965702" lon="2.788571">
        <ele>89.24027</ele>
        <time>2021-07-02T14:49:53Z</time>
      </trkpt>
      <trkpt lat="41.965824" lon="2.788484">
        <ele>88.96576</ele>
        <time>2021-07-02T14:49:54Z</time>
      </trkpt>
      <trkpt lat="41.965935" lon="2.788407">
        <ele>88.72978</ele>
        <time>2021-07-02T14:49:55Z</time>
      </trkpt>
      <trkpt lat="41.966034" lon="2.788334">
        <ele>89.20887</ele>
        <time>2021-07-02T14:49:56Z</time>
      </trkpt>
      <trkpt lat="41.966164" lon="2.788239">
        <ele>89.58212</ele>
        <time>2021-07-02T14:49:57Z</time>
      </trkpt>
      <trkpt lat="41.966305" lon="2.788136">
        <ele>89.40292</ele>
        <time>2021-07-02T14:49:58Z</time>
      </trkpt>
      <trkpt lat="41.966469" lon="2.788029">
        <ele>89.21664</ele>
        <time>2021-07-02T14:49:59Z</time>
      </trkpt>
      <trkpt lat="41.966564" lon="2.787966">
        <ele>88.77555</ele>
        <time>2021-07-02T14:50:00Z</time>
      </trkpt>
      <trkpt lat="41.966564" lon="2.787966">
        <ele>88.28956</ele>
        <time>2021-07-02T14:50:01Z</time>
      </trkpt>
      <trkpt lat="41.966671" lon="2.787895">
        <ele>88.54375</ele>
        <time>2021-07-02T14:50:02Z</time>
      </trkpt>
      <trkpt lat="41.966759" lon="2.787838">
        <ele>88.49374</ele>
        <time>2021-07-02T14:50:03Z</time>
      </trkpt>
      <trkpt lat="41.966862" lon="2.787857">
        <ele>88.30109</ele>
        <time>2021-07-02T14:50:04Z</time>
      </trkpt>
      <trkpt lat="41.967003" lon="2.787850">
        <ele>88.36594</ele>
        <time>2021-07-02T14:50:05Z</time>
      </trkpt>
      <trkpt lat="41.967075" lon="2.787809">
        <ele>88.15605</ele>
        <time>2021-07-02T14:50:06Z</time>
      </trkpt>
      <trkpt lat="41.967133" lon="2.787726">
        <ele>88.29460</ele>
        <time>2021-07-02T14:50:07Z</time>
      </trkpt>
      <trkpt lat="41.967152" lon="2.787621">
        <ele>88.49717</ele>
        <time>2021-07-02T14:50:08Z</time>
      </trkpt>
      <trkpt lat="41.967152" lon="2.787527">
        <ele>88.32238</ele>
        <time>2021-07-02T14:50:09Z</time>
      </trkpt>
      <trkpt lat="41.967136" lon="2.787449">
        <ele>88.41989</ele>
        <time>2021-07-02T14:50:10Z</time>
      </trkpt>
      <trkpt lat="41.967106" lon="2.787379">
        <ele>88.55418</ele>
        <time>2021-07-02T14:50:11Z</time>
      </trkpt>
      <trkpt lat="41.967064" lon="2.787332">
        <ele>89.10291</ele>
        <time>2021-07-02T14:50:12Z</time>
      </trkpt>
      <trkpt lat="41.967026" lon="2.787299">
        <ele>89.05701</ele>
        <time>2021-07-02T14:50:13Z</time>
      </trkpt>
      <trkpt lat="41.967026" lon="2.787298">
        <ele>90.08777</ele>
        <time>2021-07-02T14:50:14Z</time>
      </trkpt>
      <trkpt lat="41.966942" lon="2.787282">
        <ele>90.76819</ele>
        <time>2021-07-02T14:50:15Z</time>
      </trkpt>
      <trkpt lat="41.966869" lon="2.786818">
        <ele>90.74886</ele>
        <time>2021-07-02T14:50:16Z</time>
      </trkpt>
      <trkpt lat="41.966805" lon="2.786620">
        <ele>90.50194</ele>
        <time>2021-07-02T14:50:17Z</time>
      </trkpt>
      <trkpt lat="41.966724" lon="2.786379">
        <ele>90.87520</ele>
        <time>2021-07-02T14:50:18Z</time>
      </trkpt>
      <trkpt lat="41.966671" lon="2.786213">
        <ele>90.34555</ele>
        <time>2021-07-02T14:50:19Z</time>
      </trkpt>
      <trkpt lat="41.966621" lon="2.786054">
        <ele>90.03605</ele>
        <time>2021-07-02T14:50:20Z</time>
      </trkpt>
      <trkpt lat="41.966560" lon="2.785865">
        <ele>89.73130</ele>
        <time>2021-07-02T14:50:21Z</time>
      </trkpt>
      <trkpt lat="41.966503" lon="2.785693">
        <ele>90.31107</ele>
        <time>2021-07-02T14:50:22Z</time>
      </trkpt>
      <trkpt lat="41.966454" lon="2.785538">
        <ele>91.21983</ele>
        <time>2021-07-02T14:50:23Z</time>
      </trkpt>
      <trkpt lat="41.966396" lon="2.785365">
        <ele>91.46297</ele>
        <time>2021-07-02T14:50:24Z</time>
      </trkpt>
      <trkpt lat="41.966339" lon="2.785188">
        <ele>91.54926</ele>
        <time>2021-07-02T14:50:25Z</time>
      </trkpt>
      <trkpt lat="41.966274" lon="2.784984">
        <ele>91.09982</ele>
        <time>2021-07-02T14:50:26Z</time>
      </trkpt>
      <trkpt lat="41.966217" lon="2.784797">
        <ele>91.85904</ele>
        <time>2021-07-02T14:50:27Z</time>
      </trkpt>
      <trkpt lat="41.966152" lon="2.784603">
        <ele>92.18106</ele>
        <time>2021-07-02T14:50:28Z</time>
      </trkpt>
      <trkpt lat="41.966091" lon="2.784408">
        <ele>91.45281</ele>
        <time>2021-07-02T14:50:29Z</time>
      </trkpt>
      <trkpt lat="41.966038" lon="2.784243">
        <ele>91.75950</ele>
        <time>2021-07-02T14:50:30Z</time>
      </trkpt>
      <trkpt lat="41.965977" lon="2.784048">
        <ele>92.36237</ele>
        <time>2021-07-02T14:50:31Z</time>
      </trkpt>
      <trkpt lat="41.965977" lon="2.784048">
        <ele>91.94431</ele>
        <time>2021-07-02T14:50:32Z</time>
      </trkpt>
      <trkpt lat="41.965908" lon="2.783849">
        <ele>91.54757</ele>
        <time>2021-07-02T14:50:33Z</time>
      </trkpt>
      <trkpt lat="41.965847" lon="2.783671">
        <ele>91.52764</ele>
        <time>2021-07-02T14:50:34Z</time>
      </trkpt>
      <trkpt lat="41.965790" lon="2.783506">
        <ele>91.20742</ele>
        <time>2021-07-02T14:50:35Z</time>
      </trkpt>
      <trkpt lat="41.965736" lon="2.783352">
        <ele>91.37954</ele>
        <time>2021-07-02T14:50:36Z</time>
      </trkpt>
      <trkpt lat="41.965683" lon="2.783195">
        <ele>91.88761</ele>
        <time>2021-07-02T14:50:37Z</time>
      </trkpt>
      <trkpt lat="41.965626" lon="2.783025">
        <ele>91.16415</ele>
        <time>2021-07-02T14:50:38Z</time>
      </trkpt>
      <trkpt lat="41.965580" lon="2.782874">
        <ele>90.19089</ele>
        <time>2021-07-02T14:50:39Z</time>
      </trkpt>
      <trkpt lat="41.965546" lon="2.782766">
        <ele>89.98255</ele>
        <time>2021-07-02T14:50:40Z</time>
      </trkpt>
      <trkpt lat="41.965523" lon="2.782693">
        <ele>89.98392</ele>
        <time>2021-07-02T14:50:41Z</time>
      </trkpt>
      <trkpt lat="41.965500" lon="2.782621">
        <ele>89.84409</ele>
        <time>2021-07-02T14:50:42Z</time>
      </trkpt>
      <trkpt lat="41.965492" lon="2.782548">
        <ele>90.03805</ele>
        <time>2021-07-02T14:50:43Z</time>
      </trkpt>
      <trkpt lat="41.965515" lon="2.782481">
        <ele>90.00909</ele>
        <time>2021-07-02T14:50:44Z</time>
      </trkpt>
      <trkpt lat="41.965538" lon="2.782322">
        <ele>90.20640</ele>
        <time>2021-07-02T14:50:45Z</time>
      </trkpt>
      <trkpt lat="41.965527" lon="2.782195">
        <ele>90.83757</ele>
        <time>2021-07-02T14:50:46Z</time>
      </trkpt>
      <trkpt lat="41.965485" lon="2.782118">
        <ele>90.88814</ele>
        <time>2021-07-02T14:50:47Z</time>
      </trkpt>
      <trkpt lat="41.965427" lon="2.782047">
        <ele>90.68486</ele>
        <time>2021-07-02T14:50:48Z</time>
      </trkpt>
      <trkpt lat="41.965374" lon="2.782010">
        <ele>90.87907</ele>
        <time>2021-07-02T14:50:49Z</time>
      </trkpt>
      <trkpt lat="41.965351" lon="2.781996">
        <ele>91.27647</ele>
        <time>2021-07-02T14:50:50Z</time>
      </trkpt>
      <trkpt lat="41.965351" lon="2.781995">
        <ele>91.97015</ele>
        <time>2021-07-02T14:50:51Z</time>
      </trkpt>
      <trkpt lat="41.965382" lon="2.781608">
        <ele>92.03747</ele>
        <time>2021-07-02T14:50:52Z</time>
      </trkpt>
      <trkpt lat="41.965397" lon="2.781322">
        <ele>91.57642</ele>
        <time>2021-07-02T14:50:53Z</time>
      </trkpt>
      <trkpt lat="41.965401" lon="2.781180">
        <ele>91.24852</ele>
        <time>2021-07-02T14:50:54Z</time>
      </trkpt>
      <trkpt lat="41.965412" lon="2.781060">
        <ele>90.95621</ele>
        <time>2021-07-02T14:50:55Z</time>
      </trkpt>
      <trkpt lat="41.965431" lon="2.780962">
        <ele>90.25713</ele>
        <time>2021-07-02T14:50:56Z</time>
      </trkpt>
      <trkpt lat="41.965431" lon="2.780962">
        <ele>90.16880</ele>
        <time>2021-07-02T14:50:57Z</time>
      </trkpt>
      <trkpt lat="41.965439" lon="2.780942">
        <ele>90.45182</ele>
        <time>2021-07-02T14:50:58Z</time>
      </trkpt>
      <trkpt lat="41.965439" lon="2.780937">
        <ele>90.33646</ele>
        <time>2021-07-02T14:50:59Z</time>
      </trkpt>
      <trkpt lat="41.965508" lon="2.780980">
        <ele>90.65515</ele>
        <time>2021-07-02T14:51:00Z</time>
      </trkpt>
      <trkpt lat="41.965546" lon="2.781039">
        <ele>90.71397</ele>
        <time>2021-07-02T14:51:01Z</time>
      </trkpt>
      <trkpt lat="41.965576" lon="2.781169">
        <ele>91.34654</ele>
        <time>2021-07-02T14:51:02Z</time>
      </trkpt>
      <trkpt lat="41.965595" lon="2.781325">
        <ele>91.33085</ele>
        <time>2021-07-02T14:51:03Z</time>
      </trkpt>
      <trkpt lat="41.965618" lon="2.781451">
        <ele>90.95188</ele>
        <time>2021-07-02T14:51:04Z</time>
      </trkpt>
      <trkpt lat="41.965637" lon="2.781553">
        <ele>90.41495</ele>
        <time>2021-07-02T14:51:05Z</time>
      </trkpt>
      <trkpt lat="41.965652" lon="2.781619">
        <ele>90.45841</ele>
        <time>2021-07-02T14:51:06Z</time>
      </trkpt>
      <trkpt lat="41.965664" lon="2.781665">
        <ele>89.90270</ele>
        <time>2021-07-02T14:51:07Z</time>
      </trkpt>
      <trkpt lat="41.965672" lon="2.781709">
        <ele>89.91312</ele>
        <time>2021-07-02T14:51:08Z</time>
      </trkpt>
      <trkpt lat="41.965675" lon="2.781734">
        <ele>89.70473</ele>
        <time>2021-07-02T14:51:09Z</time>
      </trkpt>
      <trkpt lat="41.965683" lon="2.781780">
        <ele>89.00563</ele>
        <time>2021-07-02T14:51:10Z</time>
      </trkpt>
      <trkpt lat="41.965683" lon="2.781780">
        <ele>89.01839</ele>
        <time>2021-07-02T14:51:11Z</time>
      </trkpt>
      <trkpt lat="41.965683" lon="2.781780">
        <ele>89.01515</ele>
        <time>2021-07-02T14:51:12Z</time>
      </trkpt>
      <trkpt lat="41.965683" lon="2.781780">
        <ele>88.91570</ele>
        <time>2021-07-02T14:51:13Z</time>
      </trkpt>
      <trkpt lat="41.965683" lon="2.781780">
        <ele>88.83230</ele>
        <time>2021-07-02T14:51:14Z</time>
      </trkpt>
      <trkpt lat="41.965683" lon="2.781780">
        <ele>88.93446</ele>
        <time>2021-07-02T14:51:15Z</time>
      </trkpt>
      <trkpt lat="41.965683" lon="2.781780">
        <ele>88.89977</ele>
        <time>2021-07-02T14:51:16Z</time>
      </trkpt>
      <trkpt lat="41.965683" lon="2.781780">
        <ele>88.81191</ele>
        <time>2021-07-02T14:51:17Z</time>
      </trkpt>
      <trkpt lat="41.965683" lon="2.781780">
        <ele>88.77988</ele>
        <time>2021-07-02T14:51:18Z</time>
      </trkpt>
      <trkpt lat="41.965683" lon="2.781780">
        <ele>88.80998</ele>
        <time>2021-07-02T14:51:19Z</time>
      </trkpt>
      <trkpt lat="41.965683" lon="2.781780">
        <ele>88.54720</ele>
        <time>2021-07-02T14:51:20Z</time>
      </trkpt>
      <trkpt lat="41.965683" lon="2.781780">
        <ele>88.56046</ele>
        <time>2021-07-02T14:51:21Z</time>
      </trkpt>
      <trkpt lat="41.965683" lon="2.781780">
        <ele>88.55528</ele>
        <time>2021-07-02T14:51:22Z</time>
      </trkpt>
      <trkpt lat="41.965683" lon="2.781780">
        <ele>88.57050</ele>
        <time>2021-07-02T14:51:23Z</time>
      </trkpt>
      <trkpt lat="41.965683" lon="2.781780">
        <ele>88.37875</ele>
        <time>2021-07-02T14:51:24Z</time>
      </trkpt>
      <trkpt lat="41.965683" lon="2.781780">
        <ele>88.33154</ele>
        <time>2021-07-02T14:51:25Z</time>
      </trkpt>
      <trkpt lat="41.965683" lon="2.781780">
        <ele>88.28834</ele>
        <time>2021-07-02T14:51:26Z</time>
      </trkpt>
      <trkpt lat="41.965683" lon="2.781780">
        <ele>88.30297</ele>
        <time>2021-07-02T14:51:27Z</time>
      </trkpt>
      <trkpt lat="41.965683" lon="2.781780">
        <ele>88.29565</ele>
        <time>2021-07-02T14:51:28Z</time>
      </trkpt>
      <trkpt lat="41.965683" lon="2.781780">
        <ele>88.28905</ele>
        <time>2021-07-02T14:51:29Z</time>
      </trkpt>
      <trkpt lat="41.965683" lon="2.781780">
        <ele>88.10493</ele>
        <time>2021-07-02T14:51:30Z</time>
      </trkpt>
      <trkpt lat="41.965683" lon="2.781780">
        <ele>88.25049</ele>
        <time>2021-07-02T14:51:31Z</time>
      </trkpt>
      <trkpt lat="41.965683" lon="2.781780">
        <ele>88.06596</ele>
        <time>2021-07-02T14:51:32Z</time>
      </trkpt>
      <trkpt lat="41.965683" lon="2.781780">
        <ele>88.29363</ele>
        <time>2021-07-02T14:51:33Z</time>
      </trkpt>
      <trkpt lat="41.965683" lon="2.781780">
        <ele>88.41931</ele>
        <time>2021-07-02T14:51:34Z</time>
      </trkpt>
      <trkpt lat="41.965683" lon="2.781780">
        <ele>88.46453</ele>
        <time>2021-07-02T14:51:35Z</time>
      </trkpt>
      <trkpt lat="41.965683" lon="2.781780">
        <ele>88.46024</ele>
        <time>2021-07-02T14:51:36Z</time>
      </trkpt>
      <trkpt lat="41.965683" lon="2.781780">
        <ele>88.48608</ele>
        <time>2021-07-02T14:51:37Z</time>
      </trkpt>
      <trkpt lat="41.965683" lon="2.781780">
        <ele>88.47786</ele>
        <time>2021-07-02T14:51:38Z</time>
      </trkpt>
      <trkpt lat="41.965683" lon="2.781780">
        <ele>88.51072</ele>
        <time>2021-07-02T14:51:39Z</time>
      </trkpt>
      <trkpt lat="41.965683" lon="2.781780">
        <ele>88.44363</ele>
        <time>2021-07-02T14:51:40Z</time>
      </trkpt>
      <trkpt lat="41.965683" lon="2.781780">
        <ele>88.47569</ele>
        <time>2021-07-02T14:51:41Z</time>
      </trkpt>
      <trkpt lat="41.965683" lon="2.781780">
        <ele>88.48871</ele>
        <time>2021-07-02T14:51:42Z</time>
      </trkpt>
      <trkpt lat="41.965683" lon="2.781780">
        <ele>88.54991</ele>
        <time>2021-07-02T14:51:43Z</time>
      </trkpt>
      <trkpt lat="41.965683" lon="2.781780">
        <ele>88.48898</ele>
        <time>2021-07-02T14:51:44Z</time>
      </trkpt>
      <trkpt lat="41.965683" lon="2.781780">
        <ele>88.47858</ele>
        <time>2021-07-02T14:51:45Z</time>
      </trkpt>
      <trkpt lat="41.965683" lon="2.781780">
        <ele>88.51804</ele>
        <time>2021-07-02T14:51:46Z</time>
      </trkpt>
      <trkpt lat="41.965683" lon="2.781780">
        <ele>88.64921</ele>
        <time>2021-07-02T14:51:47Z</time>
      </trkpt>
      <trkpt lat="41.965683" lon="2.781780">
        <ele>88.60042</ele>
        <time>2021-07-02T14:51:48Z</time>
      </trkpt>
      <trkpt lat="41.965683" lon="2.781780">
        <ele>88.55212</ele>
        <time>2021-07-02T14:51:49Z</time>
      </trkpt>
      <trkpt lat="41.965683" lon="2.781780">
        <ele>88.41000</ele>
        <time>2021-07-02T14:51:50Z</time>
      </trkpt>
      <trkpt lat="41.965683" lon="2.781780">
        <ele>88.58908</ele>
        <time>2021-07-02T14:51:51Z</time>
      </trkpt>
      <trkpt lat="41.965683" lon="2.781780">
        <ele>88.56311</ele>
        <time>2021-07-02T14:51:52Z</time>
      </trkpt>
      <trkpt lat="41.965683" lon="2.781780">
        <ele>88.50260</ele>
        <time>2021-07-02T14:51:53Z</time>
      </trkpt>
      <trkpt lat="41.965683" lon="2.781780">
        <ele>88.64123</ele>
        <time>2021-07-02T14:51:54Z</time>
      </trkpt>
      <trkpt lat="41.965683" lon="2.781780">
        <ele>88.63465</ele>
        <time>2021-07-02T14:51:55Z</time>
      </trkpt>
      <trkpt lat="41.965683" lon="2.781780">
        <ele>88.65840</ele>
        <time>2021-07-02T14:51:56Z</time>
      </trkpt>
      <trkpt lat="41.965683" lon="2.781780">
        <ele>88.70240</ele>
        <time>2021-07-02T14:51:57Z</time>
      </trkpt>
      <trkpt lat="41.965683" lon="2.781780">
        <ele>88.72375</ele>
        <time>2021-07-02T14:51:58Z</time>
      </trkpt>
      <trkpt lat="41.965683" lon="2.781780">
        <ele>88.81808</ele>
        <time>2021-07-02T14:51:59Z</time>
      </trkpt>
      <trkpt lat="41.965683" lon="2.781780">
        <ele>88.89815</ele>
        <time>2021-07-02T14:52:00Z</time>
      </trkpt>
      <trkpt lat="41.965683" lon="2.781780">
        <ele>88.98090</ele>
        <time>2021-07-02T14:52:01Z</time>
      </trkpt>
      <trkpt lat="41.965683" lon="2.781780">
        <ele>89.00613</ele>
        <time>2021-07-02T14:52:02Z</time>
      </trkpt>
      <trkpt lat="41.965683" lon="2.781780">
        <ele>89.15237</ele>
        <time>2021-07-02T14:52:03Z</time>
      </trkpt>
      <trkpt lat="41.965683" lon="2.781780">
        <ele>88.96397</ele>
        <time>2021-07-02T14:52:04Z</time>
      </trkpt>
      <trkpt lat="41.965683" lon="2.781780">
        <ele>89.02528</ele>
        <time>2021-07-02T14:52:05Z</time>
      </trkpt>
      <trkpt lat="41.965683" lon="2.781780">
        <ele>88.98449</ele>
        <time>2021-07-02T14:53:33Z</time>
      </trkpt>
      <trkpt lat="41.965683" lon="2.781780">
        <ele>88.89160</ele>
        <time>2021-07-02T14:53:34Z</time>
      </trkpt>
      <trkpt lat="41.965683" lon="2.781780">
        <ele>88.82179</ele>
        <time>2021-07-02T14:53:35Z</time>
      </trkpt>
      <trkpt lat="41.965683" lon="2.781780">
        <ele>88.96450</ele>
        <time>2021-07-02T14:53:36Z</time>
      </trkpt>
      <trkpt lat="41.965683" lon="2.781780">
        <ele>88.83437</ele>
        <time>2021-07-02T14:53:37Z</time>
      </trkpt>
      <trkpt lat="41.965683" lon="2.781780">
        <ele>88.91367</ele>
        <time>2021-07-02T14:53:38Z</time>
      </trkpt>
      <trkpt lat="41.965683" lon="2.781780">
        <ele>88.73989</ele>
        <time>2021-07-02T14:53:39Z</time>
      </trkpt>
      <trkpt lat="41.965683" lon="2.781780">
        <ele>88.76709</ele>
        <time>2021-07-02T14:53:40Z</time>
      </trkpt>
      <trkpt lat="41.965683" lon="2.781780">
        <ele>88.79832</ele>
        <time>2021-07-02T14:53:41Z</time>
      </trkpt>
      <trkpt lat="41.965683" lon="2.781780">
        <ele>88.82238</ele>
        <time>2021-07-02T14:53:42Z</time>
      </trkpt>
      <trkpt lat="41.965683" lon="2.781780">
        <ele>88.88757</ele>
        <time>2021-07-02T14:53:43Z</time>
      </trkpt>
      <trkpt lat="41.965683" lon="2.781780">
        <ele>88.83574</ele>
        <time>2021-07-02T14:53:44Z</time>
      </trkpt>
      <trkpt lat="41.965683" lon="2.781780">
        <ele>88.81621</ele>
        <time>2021-07-02T14:53:45Z</time>
      </trkpt>
      <trkpt lat="41.965683" lon="2.781780">
        <ele>88.84032</ele>
        <time>2021-07-02T14:53:46Z</time>
      </trkpt>
      <trkpt lat="41.965683" lon="2.781780">
        <ele>88.87398</ele>
        <time>2021-07-02T14:53:47Z</time>
      </trkpt>
      <trkpt lat="41.965683" lon="2.781780">
        <ele>88.80868</ele>
        <time>2021-07-02T14:53:48Z</time>
      </trkpt>
      <trkpt lat="41.965683" lon="2.781780">
        <ele>89.01468</ele>
        <time>2021-07-02T14:53:49Z</time>
      </trkpt>
      <trkpt lat="41.965683" lon="2.781780">
        <ele>89.07381</ele>
        <time>2021-07-02T14:53:50Z</time>
      </trkpt>
      <trkpt lat="41.965683" lon="2.781780">
        <ele>88.89340</ele>
        <time>2021-07-02T14:53:51Z</time>
      </trkpt>
      <trkpt lat="41.965683" lon="2.781780">
        <ele>88.94135</ele>
        <time>2021-07-02T14:53:52Z</time>
      </trkpt>
      <trkpt lat="41.965683" lon="2.781780">
        <ele>89.00852</ele>
        <time>2021-07-02T14:53:53Z</time>
      </trkpt>
      <trkpt lat="41.965683" lon="2.781780">
        <ele>89.07690</ele>
        <time>2021-07-02T14:53:54Z</time>
      </trkpt>
      <trkpt lat="41.965683" lon="2.781780">
        <ele>89.06235</ele>
        <time>2021-07-02T14:53:55Z</time>
      </trkpt>
      <trkpt lat="41.965683" lon="2.781780">
        <ele>89.03786</ele>
        <time>2021-07-02T14:53:56Z</time>
      </trkpt>
      <trkpt lat="41.965683" lon="2.781780">
        <ele>89.09638</ele>
        <time>2021-07-02T14:53:57Z</time>
      </trkpt>
      <trkpt lat="41.965683" lon="2.781780">
        <ele>89.23494</ele>
        <time>2021-07-02T14:53:58Z</time>
      </trkpt>
      <trkpt lat="41.965683" lon="2.781780">
        <ele>89.22398</ele>
        <time>2021-07-02T14:53:59Z</time>
      </trkpt>
      <trkpt lat="41.965683" lon="2.781780">
        <ele>89.05279</ele>
        <time>2021-07-02T14:54:00Z</time>
      </trkpt>
      <trkpt lat="41.965683" lon="2.781780">
        <ele>88.92728</ele>
        <time>2021-07-02T14:54:01Z</time>
      </trkpt>
      <trkpt lat="41.965683" lon="2.781780">
        <ele>88.88691</ele>
        <time>2021-07-02T14:54:02Z</time>
      </trkpt>
      <trkpt lat="41.965683" lon="2.781780">
        <ele>88.92941</ele>
        <time>2021-07-02T14:54:03Z</time>
      </trkpt>
      <trkpt lat="41.965683" lon="2.781780">
        <ele>88.89957</ele>
        <time>2021-07-02T14:54:04Z</time>
      </trkpt>
      <trkpt lat="41.965683" lon="2.781780">
        <ele>88.90723</ele>
        <time>2021-07-02T14:54:05Z</time>
      </trkpt>
      <trkpt lat="41.965683" lon="2.781780">
        <ele>88.94812</ele>
        <time>2021-07-02T14:54:06Z</time>
      </trkpt>
      <trkpt lat="41.965683" lon="2.781780">
        <ele>88.90212</ele>
        <time>2021-07-02T14:54:07Z</time>
      </trkpt>
      <trkpt lat="41.965683" lon="2.781780">
        <ele>88.89525</ele>
        <time>2021-07-02T14:54:08Z</time>
      </trkpt>
      <trkpt lat="41.965683" lon="2.781780">
        <ele>88.88834</ele>
        <time>2021-07-02T14:54:09Z</time>
      </trkpt>
      <trkpt lat="41.965683" lon="2.781780">
        <ele>88.74426</ele>
        <time>2021-07-02T14:54:10Z</time>
      </trkpt>
      <trkpt lat="41.965683" lon="2.781780">
        <ele>88.83385</ele>
        <time>2021-07-02T14:54:11Z</time>
      </trkpt>
      <trkpt lat="41.965683" lon="2.781780">
        <ele>88.90356</ele>
        <time>2021-07-02T14:54:12Z</time>
      </trkpt>
      <trkpt lat="41.965683" lon="2.781780">
        <ele>88.61649</ele>
        <time>2021-07-02T14:54:13Z</time>
      </trkpt>
      <trkpt lat="41.965683" lon="2.781780">
        <ele>88.61017</ele>
        <time>2021-07-02T14:54:14Z</time>
      </trkpt>
      <trkpt lat="41.965683" lon="2.781780">
        <ele>88.76251</ele>
        <time>2021-07-02T14:54:15Z</time>
      </trkpt>
      <trkpt lat="41.965683" lon="2.781780">
        <ele>88.65751</ele>
        <time>2021-07-02T14:54:16Z</time>
      </trkpt>
      <trkpt lat="41.965683" lon="2.781780">
        <ele>88.83311</ele>
        <time>2021-07-02T14:54:17Z</time>
      </trkpt>
      <trkpt lat="41.965683" lon="2.781780">
        <ele>88.94711</ele>
        <time>2021-07-02T14:54:18Z</time>
      </trkpt>
      <trkpt lat="41.965683" lon="2.781780">
        <ele>88.97113</ele>
        <time>2021-07-02T14:54:19Z</time>
      </trkpt>
      <trkpt lat="41.965683" lon="2.781780">
        <ele>89.05826</ele>
        <time>2021-07-02T14:54:20Z</time>
      </trkpt>
      <trkpt lat="41.965683" lon="2.781780">
        <ele>89.06689</ele>
        <time>2021-07-02T14:54:21Z</time>
      </trkpt>
      <trkpt lat="41.965683" lon="2.781780">
        <ele>89.12496</ele>
        <time>2021-07-02T14:54:22Z</time>
      </trkpt>
      <trkpt lat="41.965683" lon="2.781780">
        <ele>89.16166</ele>
        <time>2021-07-02T14:54:23Z</time>
      </trkpt>
      <trkpt lat="41.965683" lon="2.781780">
        <ele>89.09875</ele>
        <time>2021-07-02T14:54:24Z</time>
      </trkpt>
      <trkpt lat="41.965683" lon="2.781780">
        <ele>89.23216</ele>
        <time>2021-07-02T14:54:25Z</time>
      </trkpt>
      <trkpt lat="41.965683" lon="2.781780">
        <ele>89.19747</ele>
        <time>2021-07-02T14:54:26Z</time>
      </trkpt>
      <trkpt lat="41.965683" lon="2.781780">
        <ele>89.06990</ele>
        <time>2021-07-02T14:54:27Z</time>
      </trkpt>
      <trkpt lat="41.965683" lon="2.781780">
        <ele>89.14487</ele>
        <time>2021-07-02T14:54:28Z</time>
      </trkpt>
      <trkpt lat="41.965683" lon="2.781780">
        <ele>89.21868</ele>
        <time>2021-07-02T14:54:29Z</time>
      </trkpt>
      <trkpt lat="41.965683" lon="2.781780">
        <ele>89.16118</ele>
        <time>2021-07-02T14:54:30Z</time>
      </trkpt>
      <trkpt lat="41.965683" lon="2.781780">
        <ele>89.06479</ele>
        <time>2021-07-02T14:54:31Z</time>
      </trkpt>
      <trkpt lat="41.965683" lon="2.781780">
        <ele>89.13181</ele>
        <time>2021-07-02T14:54:32Z</time>
      </trkpt>
      <trkpt lat="41.965683" lon="2.781780">
        <ele>89.07256</ele>
        <time>2021-07-02T14:54:33Z</time>
      </trkpt>
      <trkpt lat="41.965683" lon="2.781780">
        <ele>89.15835</ele>
        <time>2021-07-02T14:54:34Z</time>
      </trkpt>
      <trkpt lat="41.965683" lon="2.781780">
        <ele>89.12849</ele>
        <time>2021-07-02T14:54:35Z</time>
      </trkpt>
      <trkpt lat="41.965683" lon="2.781780">
        <ele>89.17745</ele>
        <time>2021-07-02T14:54:36Z</time>
      </trkpt>
      <trkpt lat="41.965683" lon="2.781780">
        <ele>89.24234</ele>
        <time>2021-07-02T14:54:37Z</time>
      </trkpt>
      <trkpt lat="41.965683" lon="2.781780">
        <ele>89.20920</ele>
        <time>2021-07-02T14:54:38Z</time>
      </trkpt>
      <trkpt lat="41.965683" lon="2.781780">
        <ele>89.11537</ele>
        <time>2021-07-02T14:54:39Z</time>
      </trkpt>
      <trkpt lat="41.965683" lon="2.781780">
        <ele>89.09457</ele>
        <time>2021-07-02T14:54:40Z</time>
      </trkpt>
      <trkpt lat="41.965683" lon="2.781780">
        <ele>89.07632</ele>
        <time>2021-07-02T14:54:41Z</time>
      </trkpt>
      <trkpt lat="41.965683" lon="2.781780">
        <ele>89.15828</ele>
        <time>2021-07-02T14:54:42Z</time>
      </trkpt>
      <trkpt lat="41.965683" lon="2.781780">
        <ele>89.14335</ele>
        <time>2021-07-02T14:54:43Z</time>
      </trkpt>
      <trkpt lat="41.965683" lon="2.781780">
        <ele>89.32355</ele>
        <time>2021-07-02T14:54:44Z</time>
      </trkpt>
      <trkpt lat="41.965683" lon="2.781780">
        <ele>89.25180</ele>
        <time>2021-07-02T14:54:45Z</time>
      </trkpt>
      <trkpt lat="41.965683" lon="2.781780">
        <ele>89.32755</ele>
        <time>2021-07-02T14:54:46Z</time>
      </trkpt>
      <trkpt lat="41.965683" lon="2.781780">
        <ele>89.08849</ele>
        <time>2021-07-02T14:54:47Z</time>
      </trkpt>
      <trkpt lat="41.965683" lon="2.781780">
        <ele>89.16061</ele>
        <time>2021-07-02T14:54:48Z</time>
      </trkpt>
      <trkpt lat="41.965683" lon="2.781780">
        <ele>89.23535</ele>
        <time>2021-07-02T14:54:49Z</time>
      </trkpt>
      <trkpt lat="41.965683" lon="2.781780">
        <ele>89.24118</ele>
        <time>2021-07-02T14:54:50Z</time>
      </trkpt>
      <trkpt lat="41.965683" lon="2.781780">
        <ele>89.15253</ele>
        <time>2021-07-02T14:54:51Z</time>
      </trkpt>
      <trkpt lat="41.965683" lon="2.781780">
        <ele>89.21551</ele>
        <time>2021-07-02T14:54:52Z</time>
      </trkpt>
      <trkpt lat="41.965683" lon="2.781780">
        <ele>89.22433</ele>
        <time>2021-07-02T14:54:53Z</time>
      </trkpt>
      <trkpt lat="41.965683" lon="2.781780">
        <ele>88.95307</ele>
        <time>2021-07-02T14:54:54Z</time>
      </trkpt>
      <trkpt lat="41.965683" lon="2.781780">
        <ele>88.88349</ele>
        <time>2021-07-02T14:54:55Z</time>
      </trkpt>
      <trkpt lat="41.965683" lon="2.781780">
        <ele>88.89131</ele>
        <time>2021-07-02T14:54:56Z</time>
      </trkpt>
      <trkpt lat="41.965683" lon="2.781780">
        <ele>88.66539</ele>
        <time>2021-07-02T14:54:57Z</time>
      </trkpt>
      <trkpt lat="41.965683" lon="2.781780">
        <ele>88.80313</ele>
        <time>2021-07-02T14:54:58Z</time>
      </trkpt>
      <trkpt lat="41.965683" lon="2.781780">
        <ele>89.28452</ele>
        <time>2021-07-02T14:54:59Z</time>
      </trkpt>
      <trkpt lat="41.965683" lon="2.781780">
        <ele>89.39327</ele>
        <time>2021-07-02T14:55:00Z</time>
      </trkpt>
      <trkpt lat="41.965683" lon="2.781780">
        <ele>89.30370</ele>
        <time>2021-07-02T14:55:01Z</time>
      </trkpt>
      <trkpt lat="41.965683" lon="2.781780">
        <ele>89.20349</ele>
        <time>2021-07-02T14:55:02Z</time>
      </trkpt>
      <trkpt lat="41.965683" lon="2.781780">
        <ele>89.19444</ele>
        <time>2021-07-02T14:55:03Z</time>
      </trkpt>
      <trkpt lat="41.965683" lon="2.781780">
        <ele>89.16351</ele>
        <time>2021-07-02T14:55:04Z</time>
      </trkpt>
      <trkpt lat="41.965683" lon="2.781780">
        <ele>89.13795</ele>
        <time>2021-07-02T14:55:05Z</time>
      </trkpt>
      <trkpt lat="41.965683" lon="2.781780">
        <ele>88.99188</ele>
        <time>2021-07-02T14:55:06Z</time>
      </trkpt>
      <trkpt lat="41.965683" lon="2.781780">
        <ele>88.85518</ele>
        <time>2021-07-02T14:55:07Z</time>
      </trkpt>
      <trkpt lat="41.965683" lon="2.781780">
        <ele>88.97182</ele>
        <time>2021-07-02T14:55:08Z</time>
      </trkpt>
      <trkpt lat="41.965683" lon="2.781780">
        <ele>89.05782</ele>
        <time>2021-07-02T14:55:09Z</time>
      </trkpt>
      <trkpt lat="41.965683" lon="2.781780">
        <ele>89.01162</ele>
        <time>2021-07-02T14:55:10Z</time>
      </trkpt>
      <trkpt lat="41.965683" lon="2.781780">
        <ele>88.91246</ele>
        <time>2021-07-02T14:55:11Z</time>
      </trkpt>
      <trkpt lat="41.965683" lon="2.781780">
        <ele>88.99488</ele>
        <time>2021-07-02T14:55:12Z</time>
      </trkpt>
      <trkpt lat="41.965683" lon="2.781780">
        <ele>88.83782</ele>
        <time>2021-07-02T14:55:13Z</time>
      </trkpt>
      <trkpt lat="41.965683" lon="2.781780">
        <ele>88.82270</ele>
        <time>2021-07-02T14:55:14Z</time>
      </trkpt>
      <trkpt lat="41.965683" lon="2.781780">
        <ele>88.94656</ele>
        <time>2021-07-02T14:55:15Z</time>
      </trkpt>
      <trkpt lat="41.965683" lon="2.781780">
        <ele>89.13009</ele>
        <time>2021-07-02T14:55:16Z</time>
      </trkpt>
      <trkpt lat="41.965683" lon="2.781780">
        <ele>89.15981</ele>
        <time>2021-07-02T14:55:17Z</time>
      </trkpt>
      <trkpt lat="41.965683" lon="2.781780">
        <ele>89.12143</ele>
        <time>2021-07-02T14:55:18Z</time>
      </trkpt>
      <trkpt lat="41.965683" lon="2.781780">
        <ele>89.32935</ele>
        <time>2021-07-02T14:55:19Z</time>
      </trkpt>
      <trkpt lat="41.965683" lon="2.781780">
        <ele>89.34733</ele>
        <time>2021-07-02T14:55:20Z</time>
      </trkpt>
      <trkpt lat="41.965683" lon="2.781780">
        <ele>89.25087</ele>
        <time>2021-07-02T14:55:21Z</time>
      </trkpt>
      <trkpt lat="41.965683" lon="2.781780">
        <ele>89.20834</ele>
        <time>2021-07-02T14:55:22Z</time>
      </trkpt>
      <trkpt lat="41.965683" lon="2.781780">
        <ele>89.30816</ele>
        <time>2021-07-02T14:55:23Z</time>
      </trkpt>
      <trkpt lat="41.965683" lon="2.781780">
        <ele>89.17063</ele>
        <time>2021-07-02T14:55:24Z</time>
      </trkpt>
      <trkpt lat="41.965683" lon="2.781780">
        <ele>89.25285</ele>
        <time>2021-07-02T14:55:25Z</time>
      </trkpt>
      <trkpt lat="41.965683" lon="2.781780">
        <ele>89.42266</ele>
        <time>2021-07-02T14:55:26Z</time>
      </trkpt>
      <trkpt lat="41.965683" lon="2.781780">
        <ele>89.31786</ele>
        <time>2021-07-02T14:55:27Z</time>
      </trkpt>
      <trkpt lat="41.965683" lon="2.781780">
        <ele>89.31638</ele>
        <time>2021-07-02T14:55:28Z</time>
      </trkpt>
      <trkpt lat="41.965683" lon="2.781780">
        <ele>89.46614</ele>
        <time>2021-07-02T14:55:29Z</time>
      </trkpt>
      <trkpt lat="41.965683" lon="2.781780">
        <ele>89.37286</ele>
        <time>2021-07-02T14:55:30Z</time>
      </trkpt>
      <trkpt lat="41.965683" lon="2.781780">
        <ele>89.36058</ele>
        <time>2021-07-02T14:55:31Z</time>
      </trkpt>
      <trkpt lat="41.965683" lon="2.781780">
        <ele>89.41550</ele>
        <time>2021-07-02T14:55:32Z</time>
      </trkpt>
      <trkpt lat="41.965683" lon="2.781780">
        <ele>89.39322</ele>
        <time>2021-07-02T14:55:33Z</time>
      </trkpt>
      <trkpt lat="41.965683" lon="2.781780">
        <ele>89.35812</ele>
        <time>2021-07-02T14:55:34Z</time>
      </trkpt>
      <trkpt lat="41.965683" lon="2.781780">
        <ele>89.41223</ele>
        <time>2021-07-02T14:55:35Z</time>
      </trkpt>
      <trkpt lat="41.965683" lon="2.781780">
        <ele>89.34013</ele>
        <time>2021-07-02T14:55:36Z</time>
      </trkpt>
      <trkpt lat="41.965683" lon="2.781780">
        <ele>89.31761</ele>
        <time>2021-07-02T14:55:37Z</time>
      </trkpt>
      <trkpt lat="41.965683" lon="2.781780">
        <ele>89.38407</ele>
        <time>2021-07-02T14:55:38Z</time>
      </trkpt>
      <trkpt lat="41.965683" lon="2.781780">
        <ele>89.44196</ele>
        <time>2021-07-02T14:55:39Z</time>
      </trkpt>
      <trkpt lat="41.965683" lon="2.781780">
        <ele>89.35939</ele>
        <time>2021-07-02T14:55:40Z</time>
      </trkpt>
      <trkpt lat="41.965683" lon="2.781780">
        <ele>89.30965</ele>
        <time>2021-07-02T14:55:41Z</time>
      </trkpt>
      <trkpt lat="41.965683" lon="2.781780">
        <ele>89.31665</ele>
        <time>2021-07-02T14:55:42Z</time>
      </trkpt>
      <trkpt lat="41.965683" lon="2.781780">
        <ele>89.40176</ele>
        <time>2021-07-02T14:55:43Z</time>
      </trkpt>
      <trkpt lat="41.965683" lon="2.781780">
        <ele>89.39497</ele>
        <time>2021-07-02T14:55:44Z</time>
      </trkpt>
      <trkpt lat="41.965683" lon="2.781780">
        <ele>89.35236</ele>
        <time>2021-07-02T14:55:45Z</time>
      </trkpt>
      <trkpt lat="41.965683" lon="2.781780">
        <ele>89.32884</ele>
        <time>2021-07-02T14:55:46Z</time>
      </trkpt>
      <trkpt lat="41.965683" lon="2.781780">
        <ele>89.34528</ele>
        <time>2021-07-02T14:55:47Z</time>
      </trkpt>
      <trkpt lat="41.965683" lon="2.781780">
        <ele>89.36700</ele>
        <time>2021-07-02T14:55:48Z</time>
      </trkpt>
      <trkpt lat="41.965683" lon="2.781780">
        <ele>89.35546</ele>
        <time>2021-07-02T14:55:49Z</time>
      </trkpt>
      <trkpt lat="41.965683" lon="2.781780">
        <ele>89.35521</ele>
        <time>2021-07-02T14:55:50Z</time>
      </trkpt>
      <trkpt lat="41.965683" lon="2.781780">
        <ele>89.30312</ele>
        <time>2021-07-02T14:55:51Z</time>
      </trkpt>
      <trkpt lat="41.965683" lon="2.781780">
        <ele>89.29003</ele>
        <time>2021-07-02T14:55:52Z</time>
      </trkpt>
      <trkpt lat="41.965683" lon="2.781780">
        <ele>89.27740</ele>
        <time>2021-07-02T14:55:53Z</time>
      </trkpt>
      <trkpt lat="41.965683" lon="2.781780">
        <ele>89.32253</ele>
        <time>2021-07-02T14:55:54Z</time>
      </trkpt>
      <trkpt lat="41.965683" lon="2.781780">
        <ele>89.37550</ele>
        <time>2021-07-02T14:55:55Z</time>
      </trkpt>
      <trkpt lat="41.965683" lon="2.781780">
        <ele>89.35178</ele>
        <time>2021-07-02T14:55:56Z</time>
      </trkpt>
      <trkpt lat="41.965683" lon="2.781780">
        <ele>89.39572</ele>
        <time>2021-07-02T14:55:57Z</time>
      </trkpt>
      <trkpt lat="41.965683" lon="2.781780">
        <ele>89.32572</ele>
        <time>2021-07-02T14:55:58Z</time>
      </trkpt>
      <trkpt lat="41.965683" lon="2.781780">
        <ele>89.25049</ele>
        <time>2021-07-02T14:55:59Z</time>
      </trkpt>
      <trkpt lat="41.965683" lon="2.781780">
        <ele>89.22346</ele>
        <time>2021-07-02T14:56:00Z</time>
      </trkpt>
      <trkpt lat="41.965683" lon="2.781780">
        <ele>89.32470</ele>
        <time>2021-07-02T14:56:01Z</time>
      </trkpt>
      <trkpt lat="41.965683" lon="2.781780">
        <ele>89.43285</ele>
        <time>2021-07-02T14:56:02Z</time>
      </trkpt>
      <trkpt lat="41.965683" lon="2.781780">
        <ele>89.39298</ele>
        <time>2021-07-02T14:56:03Z</time>
      </trkpt>
      <trkpt lat="41.965683" lon="2.781780">
        <ele>89.43551</ele>
        <time>2021-07-02T14:56:04Z</time>
      </trkpt>
      <trkpt lat="41.965683" lon="2.781780">
        <ele>89.51720</ele>
        <time>2021-07-02T14:56:05Z</time>
      </trkpt>
      <trkpt lat="41.965683" lon="2.781780">
        <ele>89.47645</ele>
        <time>2021-07-02T14:56:06Z</time>
      </trkpt>
      <trkpt lat="41.965683" lon="2.781780">
        <ele>89.51340</ele>
        <time>2021-07-02T14:56:07Z</time>
      </trkpt>
      <trkpt lat="41.965683" lon="2.781780">
        <ele>89.59435</ele>
        <time>2021-07-02T14:56:08Z</time>
      </trkpt>
      <trkpt lat="41.965683" lon="2.781780">
        <ele>89.57079</ele>
        <time>2021-07-02T14:56:09Z</time>
      </trkpt>
      <trkpt lat="41.965683" lon="2.781780">
        <ele>89.53503</ele>
        <time>2021-07-02T14:56:10Z</time>
      </trkpt>
      <trkpt lat="41.965683" lon="2.781780">
        <ele>89.54263</ele>
        <time>2021-07-02T14:56:11Z</time>
      </trkpt>
      <trkpt lat="41.965683" lon="2.781780">
        <ele>89.66320</ele>
        <time>2021-07-02T14:56:12Z</time>
      </trkpt>
      <trkpt lat="41.965683" lon="2.781780">
        <ele>89.58137</ele>
        <time>2021-07-02T14:56:13Z</time>
      </trkpt>
      <trkpt lat="41.965683" lon="2.781780">
        <ele>89.59859</ele>
        <time>2021-07-02T14:56:14Z</time>
      </trkpt>
      <trkpt lat="41.965683" lon="2.781780">
        <ele>89.55518</ele>
        <time>2021-07-02T14:56:15Z</time>
      </trkpt>
      <trkpt lat="41.965683" lon="2.781780">
        <ele>89.55936</ele>
        <time>2021-07-02T14:56:16Z</time>
      </trkpt>
      <trkpt lat="41.965683" lon="2.781780">
        <ele>89.52129</ele>
        <time>2021-07-02T14:56:17Z</time>
      </trkpt>
      <trkpt lat="41.965683" lon="2.781780">
        <ele>89.66399</ele>
        <time>2021-07-02T14:56:18Z</time>
      </trkpt>
      <trkpt lat="41.965683" lon="2.781780">
        <ele>89.67142</ele>
        <time>2021-07-02T14:56:19Z</time>
      </trkpt>
      <trkpt lat="41.965683" lon="2.781780">
        <ele>89.59557</ele>
        <time>2021-07-02T14:56:20Z</time>
      </trkpt>
      <trkpt lat="41.965683" lon="2.781780">
        <ele>89.50179</ele>
        <time>2021-07-02T14:56:21Z</time>
      </trkpt>
      <trkpt lat="41.965683" lon="2.781780">
        <ele>89.59466</ele>
        <time>2021-07-02T14:56:22Z</time>
      </trkpt>
      <trkpt lat="41.965683" lon="2.781780">
        <ele>89.49562</ele>
        <time>2021-07-02T14:56:23Z</time>
      </trkpt>
      <trkpt lat="41.965683" lon="2.781780">
        <ele>89.49554</ele>
        <time>2021-07-02T14:56:24Z</time>
      </trkpt>
      <trkpt lat="41.965683" lon="2.781780">
        <ele>89.47631</ele>
        <time>2021-07-02T14:56:25Z</time>
      </trkpt>
      <trkpt lat="41.965683" lon="2.781780">
        <ele>89.48508</ele>
        <time>2021-07-02T14:56:26Z</time>
      </trkpt>
      <trkpt lat="41.965683" lon="2.781780">
        <ele>89.49768</ele>
        <time>2021-07-02T14:56:27Z</time>
      </trkpt>
      <trkpt lat="41.965683" lon="2.781780">
        <ele>89.40186</ele>
        <time>2021-07-02T14:56:28Z</time>
      </trkpt>
      <trkpt lat="41.965683" lon="2.781780">
        <ele>89.44770</ele>
        <time>2021-07-02T14:56:29Z</time>
      </trkpt>
      <trkpt lat="41.965683" lon="2.781780">
        <ele>89.47585</ele>
        <time>2021-07-02T14:56:30Z</time>
      </trkpt>
      <trkpt lat="41.965683" lon="2.781780">
        <ele>89.47392</ele>
        <time>2021-07-02T14:56:31Z</time>
      </trkpt>
      <trkpt lat="41.965683" lon="2.781780">
        <ele>89.42525</ele>
        <time>2021-07-02T14:56:32Z</time>
      </trkpt>
      <trkpt lat="41.965683" lon="2.781780">
        <ele>89.47462</ele>
        <time>2021-07-02T14:56:33Z</time>
      </trkpt>
      <trkpt lat="41.965683" lon="2.781780">
        <ele>89.49104</ele>
        <time>2021-07-02T14:56:34Z</time>
      </trkpt>
      <trkpt lat="41.965683" lon="2.781780">
        <ele>89.42533</ele>
        <time>2021-07-02T14:56:35Z</time>
      </trkpt>
      <trkpt lat="41.965683" lon="2.781780">
        <ele>89.48277</ele>
        <time>2021-07-02T14:56:36Z</time>
      </trkpt>
      <trkpt lat="41.965683" lon="2.781780">
        <ele>89.53167</ele>
        <time>2021-07-02T14:56:37Z</time>
      </trkpt>
      <trkpt lat="41.965683" lon="2.781780">
        <ele>89.46217</ele>
        <time>2021-07-02T14:56:38Z</time>
      </trkpt>
      <trkpt lat="41.965683" lon="2.781780">
        <ele>89.47785</ele>
        <time>2021-07-02T14:56:39Z</time>
      </trkpt>
      <trkpt lat="41.965683" lon="2.781780">
        <ele>89.48973</ele>
        <time>2021-07-02T14:56:40Z</time>
      </trkpt>
      <trkpt lat="41.965683" lon="2.781780">
        <ele>89.70039</ele>
        <time>2021-07-02T14:56:41Z</time>
      </trkpt>
      <trkpt lat="41.965683" lon="2.781780">
        <ele>89.82459</ele>
        <time>2021-07-02T14:56:42Z</time>
      </trkpt>
      <trkpt lat="41.965683" lon="2.781780">
        <ele>89.76083</ele>
        <time>2021-07-02T14:56:43Z</time>
      </trkpt>
      <trkpt lat="41.965683" lon="2.781780">
        <ele>89.79082</ele>
        <time>2021-07-02T14:56:44Z</time>
      </trkpt>
      <trkpt lat="41.965683" lon="2.781780">
        <ele>89.74924</ele>
        <time>2021-07-02T14:56:45Z</time>
      </trkpt>
      <trkpt lat="41.965683" lon="2.781780">
        <ele>89.81179</ele>
        <time>2021-07-02T14:56:46Z</time>
      </trkpt>
      <trkpt lat="41.965683" lon="2.781780">
        <ele>89.70588</ele>
        <time>2021-07-02T14:56:47Z</time>
      </trkpt>
      <trkpt lat="41.965683" lon="2.781780">
        <ele>89.65784</ele>
        <time>2021-07-02T14:56:48Z</time>
      </trkpt>
      <trkpt lat="41.965683" lon="2.781780">
        <ele>89.66239</ele>
        <time>2021-07-02T14:56:49Z</time>
      </trkpt>
      <trkpt lat="41.965683" lon="2.781780">
        <ele>89.64510</ele>
        <time>2021-07-02T14:56:50Z</time>
      </trkpt>
      <trkpt lat="41.965683" lon="2.781780">
        <ele>89.65494</ele>
        <time>2021-07-02T14:56:51Z</time>
      </trkpt>
      <trkpt lat="41.965683" lon="2.781780">
        <ele>89.65579</ele>
        <time>2021-07-02T14:56:52Z</time>
      </trkpt>
      <trkpt lat="41.965683" lon="2.781780">
        <ele>89.68593</ele>
        <time>2021-07-02T14:56:53Z</time>
      </trkpt>
      <trkpt lat="41.965683" lon="2.781780">
        <ele>89.66506</ele>
        <time>2021-07-02T14:56:54Z</time>
      </trkpt>
      <trkpt lat="41.965683" lon="2.781780">
        <ele>89.66615</ele>
        <time>2021-07-02T14:56:55Z</time>
      </trkpt>
      <trkpt lat="41.965683" lon="2.781780">
        <ele>89.66359</ele>
        <time>2021-07-02T14:56:56Z</time>
      </trkpt>
      <trkpt lat="41.965683" lon="2.781780">
        <ele>89.81307</ele>
        <time>2021-07-02T14:56:57Z</time>
      </trkpt>
      <trkpt lat="41.965683" lon="2.781780">
        <ele>89.74003</ele>
        <time>2021-07-02T14:56:58Z</time>
      </trkpt>
      <trkpt lat="41.965683" lon="2.781780">
        <ele>89.74682</ele>
        <time>2021-07-02T14:56:59Z</time>
      </trkpt>
      <trkpt lat="41.965683" lon="2.781780">
        <ele>89.71336</ele>
        <time>2021-07-02T14:57:00Z</time>
      </trkpt>
      <trkpt lat="41.965683" lon="2.781780">
        <ele>89.52918</ele>
        <time>2021-07-02T14:57:01Z</time>
      </trkpt>
      <trkpt lat="41.965683" lon="2.781780">
        <ele>89.53736</ele>
        <time>2021-07-02T14:57:02Z</time>
      </trkpt>
      <trkpt lat="41.965683" lon="2.781780">
        <ele>89.51575</ele>
        <time>2021-07-02T14:57:03Z</time>
      </trkpt>
      <trkpt lat="41.965683" lon="2.781780">
        <ele>89.48758</ele>
        <time>2021-07-02T14:57:04Z</time>
      </trkpt>
      <trkpt lat="41.965683" lon="2.781780">
        <ele>89.56738</ele>
        <time>2021-07-02T14:57:05Z</time>
      </trkpt>
      <trkpt lat="41.965683" lon="2.781780">
        <ele>89.53204</ele>
        <time>2021-07-02T14:57:06Z</time>
      </trkpt>
      <trkpt lat="41.965683" lon="2.781780">
        <ele>89.54963</ele>
        <time>2021-07-02T14:57:07Z</time>
      </trkpt>
      <trkpt lat="41.965683" lon="2.781780">
        <ele>89.90205</ele>
        <time>2021-07-02T14:57:08Z</time>
      </trkpt>
      <trkpt lat="41.965683" lon="2.781780">
        <ele>89.82011</ele>
        <time>2021-07-02T14:57:09Z</time>
      </trkpt>
      <trkpt lat="41.965683" lon="2.781780">
        <ele>89.81850</ele>
        <time>2021-07-02T14:57:10Z</time>
      </trkpt>
      <trkpt lat="41.965683" lon="2.781780">
        <ele>89.75568</ele>
        <time>2021-07-02T14:57:11Z</time>
      </trkpt>
      <trkpt lat="41.965683" lon="2.781780">
        <ele>89.50599</ele>
        <time>2021-07-02T14:57:12Z</time>
      </trkpt>
      <trkpt lat="41.965683" lon="2.781780">
        <ele>89.56960</ele>
        <time>2021-07-02T14:57:13Z</time>
      </trkpt>
      <trkpt lat="41.965683" lon="2.781780">
        <ele>89.57661</ele>
        <time>2021-07-02T14:57:14Z</time>
      </trkpt>
      <trkpt lat="41.965683" lon="2.781780">
        <ele>89.61042</ele>
        <time>2021-07-02T14:57:15Z</time>
      </trkpt>
      <trkpt lat="41.965683" lon="2.781780">
        <ele>89.56851</ele>
        <time>2021-07-02T14:57:16Z</time>
      </trkpt>
      <trkpt lat="41.965683" lon="2.781780">
        <ele>89.58565</ele>
        <time>2021-07-02T14:57:17Z</time>
      </trkpt>
      <trkpt lat="41.965683" lon="2.781780">
        <ele>89.59857</ele>
        <time>2021-07-02T14:57:18Z</time>
      </trkpt>
      <trkpt lat="41.965683" lon="2.781780">
        <ele>89.65707</ele>
        <time>2021-07-02T14:57:19Z</time>
      </trkpt>
      <trkpt lat="41.965683" lon="2.781780">
        <ele>89.57286</ele>
        <time>2021-07-02T14:57:20Z</time>
      </trkpt>
      <trkpt lat="41.965683" lon="2.781780">
        <ele>89.63886</ele>
        <time>2021-07-02T14:57:21Z</time>
      </trkpt>
      <trkpt lat="41.965683" lon="2.781780">
        <ele>89.65918</ele>
        <time>2021-07-02T14:57:22Z</time>
      </trkpt>
      <trkpt lat="41.965683" lon="2.781780">
        <ele>89.68394</ele>
        <time>2021-07-02T14:57:23Z</time>
      </trkpt>
      <trkpt lat="41.965683" lon="2.781780">
        <ele>89.69940</ele>
        <time>2021-07-02T14:57:24Z</time>
      </trkpt>
      <trkpt lat="41.965683" lon="2.781780">
        <ele>89.56970</ele>
        <time>2021-07-02T14:57:25Z</time>
      </trkpt>
      <trkpt lat="41.965683" lon="2.781780">
        <ele>89.51917</ele>
        <time>2021-07-02T14:57:26Z</time>
      </trkpt>
      <trkpt lat="41.965683" lon="2.781780">
        <ele>89.43170</ele>
        <time>2021-07-02T14:57:27Z</time>
      </trkpt>
      <trkpt lat="41.965683" lon="2.781780">
        <ele>89.38930</ele>
        <time>2021-07-02T14:57:28Z</time>
      </trkpt>
      <trkpt lat="41.965683" lon="2.781780">
        <ele>89.51873</ele>
        <time>2021-07-02T14:57:29Z</time>
      </trkpt>
      <trkpt lat="41.965683" lon="2.781780">
        <ele>89.49401</ele>
        <time>2021-07-02T14:57:30Z</time>
      </trkpt>
      <trkpt lat="41.965683" lon="2.781780">
        <ele>89.54378</ele>
        <time>2021-07-02T14:57:31Z</time>
      </trkpt>
      <trkpt lat="41.965683" lon="2.781780">
        <ele>89.37137</ele>
        <time>2021-07-02T14:57:32Z</time>
      </trkpt>
      <trkpt lat="41.965683" lon="2.781780">
        <ele>89.41488</ele>
        <time>2021-07-02T14:57:33Z</time>
      </trkpt>
      <trkpt lat="41.965683" lon="2.781780">
        <ele>89.52164</ele>
        <time>2021-07-02T14:57:34Z</time>
      </trkpt>
      <trkpt lat="41.965683" lon="2.781780">
        <ele>89.56596</ele>
        <time>2021-07-02T14:57:35Z</time>
      </trkpt>
      <trkpt lat="41.965683" lon="2.781780">
        <ele>89.55170</ele>
        <time>2021-07-02T14:57:36Z</time>
      </trkpt>
      <trkpt lat="41.965683" lon="2.781780">
        <ele>89.46028</ele>
        <time>2021-07-02T14:57:37Z</time>
      </trkpt>
      <trkpt lat="41.965683" lon="2.781780">
        <ele>89.38506</ele>
        <time>2021-07-02T14:57:38Z</time>
      </trkpt>
      <trkpt lat="41.965683" lon="2.781780">
        <ele>89.41637</ele>
        <time>2021-07-02T14:57:39Z</time>
      </trkpt>
      <trkpt lat="41.965683" lon="2.781780">
        <ele>89.40052</ele>
        <time>2021-07-02T14:57:40Z</time>
      </trkpt>
      <trkpt lat="41.965683" lon="2.781780">
        <ele>89.33030</ele>
        <time>2021-07-02T14:57:41Z</time>
      </trkpt>
      <trkpt lat="41.965683" lon="2.781780">
        <ele>89.36741</ele>
        <time>2021-07-02T14:57:42Z</time>
      </trkpt>
      <trkpt lat="41.965683" lon="2.781780">
        <ele>89.29103</ele>
        <time>2021-07-02T14:57:43Z</time>
      </trkpt>
      <trkpt lat="41.965683" lon="2.781780">
        <ele>89.47518</ele>
        <time>2021-07-02T14:57:44Z</time>
      </trkpt>
      <trkpt lat="41.965683" lon="2.781780">
        <ele>89.55907</ele>
        <time>2021-07-02T14:57:45Z</time>
      </trkpt>
      <trkpt lat="41.965683" lon="2.781780">
        <ele>89.43307</ele>
        <time>2021-07-02T14:57:46Z</time>
      </trkpt>
      <trkpt lat="41.965683" lon="2.781780">
        <ele>89.48741</ele>
        <time>2021-07-02T14:57:47Z</time>
      </trkpt>
      <trkpt lat="41.965683" lon="2.781780">
        <ele>89.40122</ele>
        <time>2021-07-02T14:57:48Z</time>
      </trkpt>
      <trkpt lat="41.965683" lon="2.781780">
        <ele>89.35838</ele>
        <time>2021-07-02T14:57:49Z</time>
      </trkpt>
      <trkpt lat="41.965683" lon="2.781780">
        <ele>89.39906</ele>
        <time>2021-07-02T14:57:50Z</time>
      </trkpt>
      <trkpt lat="41.965683" lon="2.781780">
        <ele>89.42585</ele>
        <time>2021-07-02T14:57:51Z</time>
      </trkpt>
      <trkpt lat="41.965683" lon="2.781780">
        <ele>89.59839</ele>
        <time>2021-07-02T14:57:52Z</time>
      </trkpt>
      <trkpt lat="41.965683" lon="2.781780">
        <ele>89.33171</ele>
        <time>2021-07-02T14:57:53Z</time>
      </trkpt>
      <trkpt lat="41.965683" lon="2.781780">
        <ele>89.39485</ele>
        <time>2021-07-02T14:57:54Z</time>
      </trkpt>
      <trkpt lat="41.965683" lon="2.781780">
        <ele>89.57111</ele>
        <time>2021-07-02T14:57:55Z</time>
      </trkpt>
      <trkpt lat="41.965683" lon="2.781780">
        <ele>89.22838</ele>
        <time>2021-07-02T14:57:56Z</time>
      </trkpt>
      <trkpt lat="41.965683" lon="2.781780">
        <ele>89.35129</ele>
        <time>2021-07-02T14:57:57Z</time>
      </trkpt>
      <trkpt lat="41.965683" lon="2.781780">
        <ele>89.46452</ele>
        <time>2021-07-02T14:57:58Z</time>
      </trkpt>
      <trkpt lat="41.965683" lon="2.781780">
        <ele>89.44012</ele>
        <time>2021-07-02T14:57:59Z</time>
      </trkpt>
      <trkpt lat="41.965683" lon="2.781780">
        <ele>89.35204</ele>
        <time>2021-07-02T14:58:00Z</time>
      </trkpt>
      <trkpt lat="41.965683" lon="2.781780">
        <ele>89.58658</ele>
        <time>2021-07-02T14:58:01Z</time>
      </trkpt>
      <trkpt lat="41.965683" lon="2.781780">
        <ele>89.28411</ele>
        <time>2021-07-02T14:58:02Z</time>
      </trkpt>
      <trkpt lat="41.965683" lon="2.781780">
        <ele>89.21157</ele>
        <time>2021-07-02T14:58:03Z</time>
      </trkpt>
      <trkpt lat="41.965683" lon="2.781780">
        <ele>89.24860</ele>
        <time>2021-07-02T14:58:04Z</time>
      </trkpt>
      <trkpt lat="41.965683" lon="2.781780">
        <ele>89.27608</ele>
        <time>2021-07-02T14:58:05Z</time>
      </trkpt>
      <trkpt lat="41.965683" lon="2.781780">
        <ele>89.32970</ele>
        <time>2021-07-02T14:58:06Z</time>
      </trkpt>
      <trkpt lat="41.965683" lon="2.781780">
        <ele>89.18606</ele>
        <time>2021-07-02T14:58:07Z</time>
      </trkpt>
      <trkpt lat="41.965683" lon="2.781780">
        <ele>89.03017</ele>
        <time>2021-07-02T14:58:08Z</time>
      </trkpt>
      <trkpt lat="41.965683" lon="2.781780">
        <ele>84.68021</ele>
        <time>2021-07-02T14:58:09Z</time>
      </trkpt>
      <trkpt lat="41.965683" lon="2.781780">
        <ele>83.97232</ele>
        <time>2021-07-02T14:58:10Z</time>
      </trkpt>
      <trkpt lat="41.965683" lon="2.781780">
        <ele>85.75110</ele>
        <time>2021-07-02T14:58:11Z</time>
      </trkpt>
      <trkpt lat="41.965683" lon="2.781780">
        <ele>84.65968</ele>
        <time>2021-07-02T14:58:12Z</time>
      </trkpt>
      <trkpt lat="41.965683" lon="2.781780">
        <ele>83.92229</ele>
        <time>2021-07-02T14:58:13Z</time>
      </trkpt>
      <trkpt lat="41.965687" lon="2.781813">
        <ele>83.63863</ele>
        <time>2021-07-02T14:58:14Z</time>
      </trkpt>
      <trkpt lat="41.965691" lon="2.781838">
        <ele>83.43823</ele>
        <time>2021-07-02T14:58:15Z</time>
      </trkpt>
      <trkpt lat="41.965691" lon="2.781841">
        <ele>83.35954</ele>
        <time>2021-07-02T14:58:16Z</time>
      </trkpt>
      <trkpt lat="41.965694" lon="2.781847">
        <ele>83.37851</ele>
        <time>2021-07-02T14:58:17Z</time>
      </trkpt>
      <trkpt lat="41.965698" lon="2.781890">
        <ele>83.34316</ele>
        <time>2021-07-02T14:58:18Z</time>
      </trkpt>
      <trkpt lat="41.965706" lon="2.781927">
        <ele>87.74937</ele>
        <time>2021-07-02T14:58:19Z</time>
      </trkpt>
      <trkpt lat="41.965694" lon="2.781980">
        <ele>90.23917</ele>
        <time>2021-07-02T14:58:20Z</time>
      </trkpt>
      <trkpt lat="41.965675" lon="2.782006">
        <ele>91.37943</ele>
        <time>2021-07-02T14:58:21Z</time>
      </trkpt>
      <trkpt lat="41.965630" lon="2.782071">
        <ele>91.33115</ele>
        <time>2021-07-02T14:58:22Z</time>
      </trkpt>
      <trkpt lat="41.965588" lon="2.782098">
        <ele>91.39025</ele>
        <time>2021-07-02T14:58:23Z</time>
      </trkpt>
      <trkpt lat="41.965549" lon="2.782116">
        <ele>91.84653</ele>
        <time>2021-07-02T14:58:24Z</time>
      </trkpt>
      <trkpt lat="41.965534" lon="2.782121">
        <ele>92.29777</ele>
        <time>2021-07-02T14:58:25Z</time>
      </trkpt>
      <trkpt lat="41.965508" lon="2.782131">
        <ele>92.28719</ele>
        <time>2021-07-02T14:58:26Z</time>
      </trkpt>
      <trkpt lat="41.965431" lon="2.782055">
        <ele>92.33492</ele>
        <time>2021-07-02T14:58:27Z</time>
      </trkpt>
      <trkpt lat="41.965370" lon="2.782007">
        <ele>92.25982</ele>
        <time>2021-07-02T14:58:28Z</time>
      </trkpt>
      <trkpt lat="41.965271" lon="2.782016">
        <ele>94.24682</ele>
        <time>2021-07-02T14:58:29Z</time>
      </trkpt>
      <trkpt lat="41.965221" lon="2.782033">
        <ele>96.51505</ele>
        <time>2021-07-02T14:58:30Z</time>
      </trkpt>
      <trkpt lat="41.965103" lon="2.781694">
        <ele>98.33846</ele>
        <time>2021-07-02T14:58:31Z</time>
      </trkpt>
      <trkpt lat="41.965046" lon="2.781517">
        <ele>99.22787</ele>
        <time>2021-07-02T14:58:32Z</time>
      </trkpt>
      <trkpt lat="41.964935" lon="2.781204">
        <ele>99.72459</ele>
        <time>2021-07-02T14:58:33Z</time>
      </trkpt>
      <trkpt lat="41.964867" lon="2.781027">
        <ele>100.18021</ele>
        <time>2021-07-02T14:58:34Z</time>
      </trkpt>
      <trkpt lat="41.964802" lon="2.780851">
        <ele>100.38564</ele>
        <time>2021-07-02T14:58:35Z</time>
      </trkpt>
      <trkpt lat="41.964737" lon="2.780665">
        <ele>101.43557</ele>
        <time>2021-07-02T14:58:36Z</time>
      </trkpt>
      <trkpt lat="41.964668" lon="2.780482">
        <ele>101.91533</ele>
        <time>2021-07-02T14:58:37Z</time>
      </trkpt>
      <trkpt lat="41.964622" lon="2.780314">
        <ele>101.63785</ele>
        <time>2021-07-02T14:58:38Z</time>
      </trkpt>
      <trkpt lat="41.964569" lon="2.780133">
        <ele>102.20116</ele>
        <time>2021-07-02T14:58:39Z</time>
      </trkpt>
      <trkpt lat="41.964516" lon="2.779965">
        <ele>102.26405</ele>
        <time>2021-07-02T14:58:40Z</time>
      </trkpt>
      <trkpt lat="41.964458" lon="2.779783">
        <ele>101.86269</ele>
        <time>2021-07-02T14:58:41Z</time>
      </trkpt>
      <trkpt lat="41.964397" lon="2.779596">
        <ele>101.30052</ele>
        <time>2021-07-02T14:58:42Z</time>
      </trkpt>
      <trkpt lat="41.964336" lon="2.779410">
        <ele>100.66058</ele>
        <time>2021-07-02T14:58:43Z</time>
      </trkpt>
      <trkpt lat="41.964279" lon="2.779235">
        <ele>100.07404</ele>
        <time>2021-07-02T14:58:44Z</time>
      </trkpt>
      <trkpt lat="41.964279" lon="2.779235">
        <ele>99.19529</ele>
        <time>2021-07-02T14:58:45Z</time>
      </trkpt>
      <trkpt lat="41.964233" lon="2.779093">
        <ele>98.39394</ele>
        <time>2021-07-02T14:58:46Z</time>
      </trkpt>
      <trkpt lat="41.964191" lon="2.778965">
        <ele>97.66177</ele>
        <time>2021-07-02T14:58:47Z</time>
      </trkpt>
      <trkpt lat="41.964134" lon="2.778817">
        <ele>97.11108</ele>
        <time>2021-07-02T14:58:48Z</time>
      </trkpt>
      <trkpt lat="41.964069" lon="2.778647">
        <ele>97.07531</ele>
        <time>2021-07-02T14:58:49Z</time>
      </trkpt>
      <trkpt lat="41.964005" lon="2.778473">
        <ele>96.70542</ele>
        <time>2021-07-02T14:58:50Z</time>
      </trkpt>
      <trkpt lat="41.963928" lon="2.778272">
        <ele>96.44601</ele>
        <time>2021-07-02T14:58:51Z</time>
      </trkpt>
      <trkpt lat="41.963871" lon="2.778114">
        <ele>95.54175</ele>
        <time>2021-07-02T14:58:52Z</time>
      </trkpt>
      <trkpt lat="41.963821" lon="2.777979">
        <ele>95.37576</ele>
        <time>2021-07-02T14:58:53Z</time>
      </trkpt>
      <trkpt lat="41.963772" lon="2.777853">
        <ele>95.32288</ele>
        <time>2021-07-02T14:58:54Z</time>
      </trkpt>
      <trkpt lat="41.963730" lon="2.777736">
        <ele>95.14652</ele>
        <time>2021-07-02T14:58:55Z</time>
      </trkpt>
      <trkpt lat="41.963696" lon="2.777646">
        <ele>95.62534</ele>
        <time>2021-07-02T14:58:56Z</time>
      </trkpt>
      <trkpt lat="41.963646" lon="2.777517">
        <ele>96.10198</ele>
        <time>2021-07-02T14:58:57Z</time>
      </trkpt>
      <trkpt lat="41.963589" lon="2.777393">
        <ele>96.07893</ele>
        <time>2021-07-02T14:58:58Z</time>
      </trkpt>
      <trkpt lat="41.963520" lon="2.777253">
        <ele>96.10141</ele>
        <time>2021-07-02T14:58:59Z</time>
      </trkpt>
      <trkpt lat="41.963451" lon="2.777111">
        <ele>96.44166</ele>
        <time>2021-07-02T14:59:00Z</time>
      </trkpt>
      <trkpt lat="41.963379" lon="2.776987">
        <ele>96.63036</ele>
        <time>2021-07-02T14:59:01Z</time>
      </trkpt>
      <trkpt lat="41.963326" lon="2.776910">
        <ele>96.33875</ele>
        <time>2021-07-02T14:59:02Z</time>
      </trkpt>
      <trkpt lat="41.963272" lon="2.776830">
        <ele>95.82800</ele>
        <time>2021-07-02T14:59:03Z</time>
      </trkpt>
      <trkpt lat="41.963219" lon="2.776766">
        <ele>95.06935</ele>
        <time>2021-07-02T14:59:04Z</time>
      </trkpt>
      <trkpt lat="41.963192" lon="2.776735">
        <ele>95.14359</ele>
        <time>2021-07-02T14:59:05Z</time>
      </trkpt>
      <trkpt lat="41.963192" lon="2.776735">
        <ele>94.93864</ele>
        <time>2021-07-02T14:59:06Z</time>
      </trkpt>
      <trkpt lat="41.963192" lon="2.776735">
        <ele>95.02277</ele>
        <time>2021-07-02T14:59:07Z</time>
      </trkpt>
      <trkpt lat="41.963192" lon="2.776735">
        <ele>95.12614</ele>
        <time>2021-07-02T14:59:08Z</time>
      </trkpt>
      <trkpt lat="41.963188" lon="2.776732">
        <ele>95.02715</ele>
        <time>2021-07-02T14:59:09Z</time>
      </trkpt>
      <trkpt lat="41.963177" lon="2.776718">
        <ele>94.79420</ele>
        <time>2021-07-02T14:59:10Z</time>
      </trkpt>
      <trkpt lat="41.963158" lon="2.776699">
        <ele>94.72116</ele>
        <time>2021-07-02T14:59:11Z</time>
      </trkpt>
      <trkpt lat="41.963242" lon="2.776536">
        <ele>95.18274</ele>
        <time>2021-07-02T14:59:12Z</time>
      </trkpt>
      <trkpt lat="41.963264" lon="2.776509">
        <ele>94.78011</ele>
        <time>2021-07-02T14:59:13Z</time>
      </trkpt>
      <trkpt lat="41.963341" lon="2.776460">
        <ele>94.88780</ele>
        <time>2021-07-02T14:59:14Z</time>
      </trkpt>
      <trkpt lat="41.963440" lon="2.776394">
        <ele>95.00424</ele>
        <time>2021-07-02T14:59:15Z</time>
      </trkpt>
      <trkpt lat="41.963512" lon="2.776329">
        <ele>94.87429</ele>
        <time>2021-07-02T14:59:16Z</time>
      </trkpt>
      <trkpt lat="41.963570" lon="2.776280">
        <ele>94.90702</ele>
        <time>2021-07-02T14:59:17Z</time>
      </trkpt>
      <trkpt lat="41.963570" lon="2.776280">
        <ele>94.98173</ele>
        <time>2021-07-02T14:59:18Z</time>
      </trkpt>
      <trkpt lat="41.963627" lon="2.776229">
        <ele>95.29761</ele>
        <time>2021-07-02T14:59:19Z</time>
      </trkpt>
      <trkpt lat="41.963680" lon="2.776182">
        <ele>96.07258</ele>
        <time>2021-07-02T14:59:20Z</time>
      </trkpt>
      <trkpt lat="41.963745" lon="2.776134">
        <ele>95.15813</ele>
        <time>2021-07-02T14:59:21Z</time>
      </trkpt>
      <trkpt lat="41.963829" lon="2.776068">
        <ele>96.45109</ele>
        <time>2021-07-02T14:59:22Z</time>
      </trkpt>
      <trkpt lat="41.963921" lon="2.775999">
        <ele>96.21577</ele>
        <time>2021-07-02T14:59:23Z</time>
      </trkpt>
      <trkpt lat="41.964069" lon="2.775883">
        <ele>96.68383</ele>
        <time>2021-07-02T14:59:24Z</time>
      </trkpt>
      <trkpt lat="41.964134" lon="2.775832">
        <ele>96.52871</ele>
        <time>2021-07-02T14:59:25Z</time>
      </trkpt>
      <trkpt lat="41.964233" lon="2.775753">
        <ele>96.10420</ele>
        <time>2021-07-02T14:59:26Z</time>
      </trkpt>
      <trkpt lat="41.964394" lon="2.775632">
        <ele>95.88619</ele>
        <time>2021-07-02T14:59:27Z</time>
      </trkpt>
      <trkpt lat="41.964447" lon="2.775588">
        <ele>96.35720</ele>
        <time>2021-07-02T14:59:28Z</time>
      </trkpt>
      <trkpt lat="41.964520" lon="2.775534">
        <ele>96.74634</ele>
        <time>2021-07-02T14:59:29Z</time>
      </trkpt>
      <trkpt lat="41.964600" lon="2.775470">
        <ele>96.61463</ele>
        <time>2021-07-02T14:59:30Z</time>
      </trkpt>
      <trkpt lat="41.964714" lon="2.775378">
        <ele>96.38461</ele>
        <time>2021-07-02T14:59:31Z</time>
      </trkpt>
      <trkpt lat="41.964802" lon="2.775304">
        <ele>96.35513</ele>
        <time>2021-07-02T14:59:32Z</time>
      </trkpt>
      <trkpt lat="41.964867" lon="2.775250">
        <ele>96.70614</ele>
        <time>2021-07-02T14:59:33Z</time>
      </trkpt>
      <trkpt lat="41.964935" lon="2.775193">
        <ele>96.41545</ele>
        <time>2021-07-02T14:59:34Z</time>
      </trkpt>
      <trkpt lat="41.965019" lon="2.775121">
        <ele>96.70576</ele>
        <time>2021-07-02T14:59:35Z</time>
      </trkpt>
      <trkpt lat="41.965130" lon="2.775028">
        <ele>96.81742</ele>
        <time>2021-07-02T14:59:36Z</time>
      </trkpt>
      <trkpt lat="41.965256" lon="2.774924">
        <ele>96.35390</ele>
        <time>2021-07-02T14:59:37Z</time>
      </trkpt>
      <trkpt lat="41.965359" lon="2.774838">
        <ele>96.50608</ele>
        <time>2021-07-02T14:59:38Z</time>
      </trkpt>
      <trkpt lat="41.965443" lon="2.774766">
        <ele>96.51924</ele>
        <time>2021-07-02T14:59:39Z</time>
      </trkpt>
      <trkpt lat="41.965527" lon="2.774695">
        <ele>96.95496</ele>
        <time>2021-07-02T14:59:40Z</time>
      </trkpt>
      <trkpt lat="41.965630" lon="2.774614">
        <ele>97.30035</ele>
        <time>2021-07-02T14:59:41Z</time>
      </trkpt>
      <trkpt lat="41.965752" lon="2.774524">
        <ele>96.82535</ele>
        <time>2021-07-02T14:59:42Z</time>
      </trkpt>
      <trkpt lat="41.965862" lon="2.774441">
        <ele>96.53249</ele>
        <time>2021-07-02T14:59:43Z</time>
      </trkpt>
      <trkpt lat="41.965946" lon="2.774381">
        <ele>96.57054</ele>
        <time>2021-07-02T14:59:44Z</time>
      </trkpt>
      <trkpt lat="41.966011" lon="2.774333">
        <ele>96.43227</ele>
        <time>2021-07-02T14:59:45Z</time>
      </trkpt>
      <trkpt lat="41.966068" lon="2.774291">
        <ele>96.28458</ele>
        <time>2021-07-02T14:59:46Z</time>
      </trkpt>
      <trkpt lat="41.966114" lon="2.774257">
        <ele>96.42648</ele>
        <time>2021-07-02T14:59:47Z</time>
      </trkpt>
      <trkpt lat="41.966114" lon="2.774257">
        <ele>96.22945</ele>
        <time>2021-07-02T14:59:48Z</time>
      </trkpt>
      <trkpt lat="41.966145" lon="2.774234">
        <ele>96.42815</ele>
        <time>2021-07-02T14:59:49Z</time>
      </trkpt>
      <trkpt lat="41.966148" lon="2.774231">
        <ele>96.59366</ele>
        <time>2021-07-02T14:59:50Z</time>
      </trkpt>
      <trkpt lat="41.966171" lon="2.774215">
        <ele>96.26627</ele>
        <time>2021-07-02T14:59:51Z</time>
      </trkpt>
      <trkpt lat="41.966202" lon="2.774193">
        <ele>96.30222</ele>
        <time>2021-07-02T14:59:52Z</time>
      </trkpt>
      <trkpt lat="41.966213" lon="2.774185">
        <ele>96.41550</ele>
        <time>2021-07-02T14:59:53Z</time>
      </trkpt>
      <trkpt lat="41.966236" lon="2.774166">
        <ele>96.47630</ele>
        <time>2021-07-02T14:59:54Z</time>
      </trkpt>
      <trkpt lat="41.966270" lon="2.774144">
        <ele>96.34499</ele>
        <time>2021-07-02T14:59:55Z</time>
      </trkpt>
      <trkpt lat="41.966293" lon="2.774125">
        <ele>97.24002</ele>
        <time>2021-07-02T14:59:56Z</time>
      </trkpt>
      <trkpt lat="41.966328" lon="2.774099">
        <ele>96.63963</ele>
        <time>2021-07-02T14:59:57Z</time>
      </trkpt>
      <trkpt lat="41.966389" lon="2.774056">
        <ele>96.72411</ele>
        <time>2021-07-02T14:59:58Z</time>
      </trkpt>
      <trkpt lat="41.966465" lon="2.773998">
        <ele>96.90529</ele>
        <time>2021-07-02T14:59:59Z</time>
      </trkpt>
      <trkpt lat="41.966511" lon="2.773967">
        <ele>96.91403</ele>
        <time>2021-07-02T15:00:00Z</time>
      </trkpt>
      <trkpt lat="41.966557" lon="2.773932">
        <ele>96.89872</ele>
        <time>2021-07-02T15:00:01Z</time>
      </trkpt>
      <trkpt lat="41.966602" lon="2.773898">
        <ele>97.15957</ele>
        <time>2021-07-02T15:00:02Z</time>
      </trkpt>
      <trkpt lat="41.966644" lon="2.773840">
        <ele>97.16592</ele>
        <time>2021-07-02T15:00:03Z</time>
      </trkpt>
      <trkpt lat="41.966694" lon="2.773805">
        <ele>96.93430</ele>
        <time>2021-07-02T15:00:04Z</time>
      </trkpt>
      <trkpt lat="41.966743" lon="2.773768">
        <ele>96.82675</ele>
        <time>2021-07-02T15:00:05Z</time>
      </trkpt>
      <trkpt lat="41.966827" lon="2.773707">
        <ele>96.84717</ele>
        <time>2021-07-02T15:00:06Z</time>
      </trkpt>
      <trkpt lat="41.966888" lon="2.773663">
        <ele>96.71710</ele>
        <time>2021-07-02T15:00:07Z</time>
      </trkpt>
      <trkpt lat="41.966938" lon="2.773629">
        <ele>96.63725</ele>
        <time>2021-07-02T15:00:08Z</time>
      </trkpt>
      <trkpt lat="41.966980" lon="2.773598">
        <ele>96.61076</ele>
        <time>2021-07-02T15:00:09Z</time>
      </trkpt>
      <trkpt lat="41.967022" lon="2.773568">
        <ele>96.33114</ele>
        <time>2021-07-02T15:00:10Z</time>
      </trkpt>
      <trkpt lat="41.967064" lon="2.773537">
        <ele>96.14523</ele>
        <time>2021-07-02T15:00:11Z</time>
      </trkpt>
      <trkpt lat="41.967110" lon="2.773505">
        <ele>96.21346</ele>
        <time>2021-07-02T15:00:12Z</time>
      </trkpt>
      <trkpt lat="41.967167" lon="2.773464">
        <ele>96.20411</ele>
        <time>2021-07-02T15:00:13Z</time>
      </trkpt>
      <trkpt lat="41.967247" lon="2.773409">
        <ele>96.18453</ele>
        <time>2021-07-02T15:00:14Z</time>
      </trkpt>
      <trkpt lat="41.967327" lon="2.773363">
        <ele>96.50723</ele>
        <time>2021-07-02T15:00:15Z</time>
      </trkpt>
      <trkpt lat="41.967327" lon="2.773363">
        <ele>96.34844</ele>
        <time>2021-07-02T15:00:16Z</time>
      </trkpt>
      <trkpt lat="41.967377" lon="2.773337">
        <ele>96.25687</ele>
        <time>2021-07-02T15:00:17Z</time>
      </trkpt>
      <trkpt lat="41.967438" lon="2.773305">
        <ele>96.02303</ele>
        <time>2021-07-02T15:00:18Z</time>
      </trkpt>
      <trkpt lat="41.967518" lon="2.773273">
        <ele>96.12384</ele>
        <time>2021-07-02T15:00:19Z</time>
      </trkpt>
      <trkpt lat="41.967587" lon="2.773245">
        <ele>95.87562</ele>
        <time>2021-07-02T15:00:20Z</time>
      </trkpt>
      <trkpt lat="41.967663" lon="2.773215">
        <ele>95.88647</ele>
        <time>2021-07-02T15:00:21Z</time>
      </trkpt>
      <trkpt lat="41.967743" lon="2.773200">
        <ele>95.83605</ele>
        <time>2021-07-02T15:00:22Z</time>
      </trkpt>
      <trkpt lat="41.967834" lon="2.773184">
        <ele>95.77289</ele>
        <time>2021-07-02T15:00:23Z</time>
      </trkpt>
      <trkpt lat="41.967930" lon="2.773168">
        <ele>95.65620</ele>
        <time>2021-07-02T15:00:24Z</time>
      </trkpt>
      <trkpt lat="41.967999" lon="2.773157">
        <ele>95.45341</ele>
        <time>2021-07-02T15:00:25Z</time>
      </trkpt>
      <trkpt lat="41.968067" lon="2.773146">
        <ele>95.25711</ele>
        <time>2021-07-02T15:00:26Z</time>
      </trkpt>
      <trkpt lat="41.968155" lon="2.773132">
        <ele>95.29111</ele>
        <time>2021-07-02T15:00:27Z</time>
      </trkpt>
      <trkpt lat="41.968224" lon="2.773121">
        <ele>95.40775</ele>
        <time>2021-07-02T15:00:28Z</time>
      </trkpt>
      <trkpt lat="41.968285" lon="2.773112">
        <ele>95.35825</ele>
        <time>2021-07-02T15:00:29Z</time>
      </trkpt>
      <trkpt lat="41.968330" lon="2.773105">
        <ele>95.17281</ele>
        <time>2021-07-02T15:00:30Z</time>
      </trkpt>
      <trkpt lat="41.968380" lon="2.773097">
        <ele>95.06694</ele>
        <time>2021-07-02T15:00:31Z</time>
      </trkpt>
      <trkpt lat="41.968430" lon="2.773089">
        <ele>95.02477</ele>
        <time>2021-07-02T15:00:32Z</time>
      </trkpt>
      <trkpt lat="41.968491" lon="2.773080">
        <ele>95.11523</ele>
        <time>2021-07-02T15:00:33Z</time>
      </trkpt>
      <trkpt lat="41.968555" lon="2.773070">
        <ele>95.63359</ele>
        <time>2021-07-02T15:00:34Z</time>
      </trkpt>
      <trkpt lat="41.968647" lon="2.773056">
        <ele>95.95016</ele>
        <time>2021-07-02T15:00:35Z</time>
      </trkpt>
      <trkpt lat="41.968781" lon="2.773035">
        <ele>95.49983</ele>
        <time>2021-07-02T15:00:36Z</time>
      </trkpt>
      <trkpt lat="41.968941" lon="2.773010">
        <ele>94.10698</ele>
        <time>2021-07-02T15:00:37Z</time>
      </trkpt>
      <trkpt lat="41.969040" lon="2.772995">
        <ele>94.17409</ele>
        <time>2021-07-02T15:00:38Z</time>
      </trkpt>
      <trkpt lat="41.969105" lon="2.772985">
        <ele>93.99429</ele>
        <time>2021-07-02T15:00:39Z</time>
      </trkpt>
      <trkpt lat="41.969173" lon="2.772974">
        <ele>93.79685</ele>
        <time>2021-07-02T15:00:40Z</time>
      </trkpt>
      <trkpt lat="41.969231" lon="2.772965">
        <ele>93.87540</ele>
        <time>2021-07-02T15:00:41Z</time>
      </trkpt>
      <trkpt lat="41.969284" lon="2.772957">
        <ele>93.81898</ele>
        <time>2021-07-02T15:00:42Z</time>
      </trkpt>
      <trkpt lat="41.969318" lon="2.772952">
        <ele>93.76360</ele>
        <time>2021-07-02T15:00:43Z</time>
      </trkpt>
      <trkpt lat="41.969337" lon="2.772957">
        <ele>93.62746</ele>
        <time>2021-07-02T15:00:44Z</time>
      </trkpt>
      <trkpt lat="41.969345" lon="2.772962">
        <ele>93.56968</ele>
        <time>2021-07-02T15:00:45Z</time>
      </trkpt>
      <trkpt lat="41.969360" lon="2.772971">
        <ele>93.50455</ele>
        <time>2021-07-02T15:00:46Z</time>
      </trkpt>
      <trkpt lat="41.969364" lon="2.772974">
        <ele>93.48656</ele>
        <time>2021-07-02T15:00:47Z</time>
      </trkpt>
      <trkpt lat="41.969410" lon="2.772998">
        <ele>93.52949</ele>
        <time>2021-07-02T15:00:48Z</time>
      </trkpt>
      <trkpt lat="41.969444" lon="2.773013">
        <ele>93.46360</ele>
        <time>2021-07-02T15:00:49Z</time>
      </trkpt>
      <trkpt lat="41.969444" lon="2.773013">
        <ele>93.54030</ele>
        <time>2021-07-02T15:00:50Z</time>
      </trkpt>
      <trkpt lat="41.969482" lon="2.773028">
        <ele>93.66708</ele>
        <time>2021-07-02T15:00:51Z</time>
      </trkpt>
      <trkpt lat="41.969517" lon="2.773051">
        <ele>93.61352</ele>
        <time>2021-07-02T15:00:52Z</time>
      </trkpt>
      <trkpt lat="41.969521" lon="2.773081">
        <ele>93.59073</ele>
        <time>2021-07-02T15:00:53Z</time>
      </trkpt>
      <trkpt lat="41.969536" lon="2.773138">
        <ele>93.42770</ele>
        <time>2021-07-02T15:00:54Z</time>
      </trkpt>
      <trkpt lat="41.969555" lon="2.773188">
        <ele>93.47826</ele>
        <time>2021-07-02T15:00:55Z</time>
      </trkpt>
      <trkpt lat="41.969593" lon="2.773218">
        <ele>93.40151</ele>
        <time>2021-07-02T15:00:56Z</time>
      </trkpt>
      <trkpt lat="41.969631" lon="2.773228">
        <ele>93.44917</ele>
        <time>2021-07-02T15:00:57Z</time>
      </trkpt>
      <trkpt lat="41.969666" lon="2.773233">
        <ele>93.48336</ele>
        <time>2021-07-02T15:00:58Z</time>
      </trkpt>
      <trkpt lat="41.969700" lon="2.773223">
        <ele>93.70842</ele>
        <time>2021-07-02T15:00:59Z</time>
      </trkpt>
      <trkpt lat="41.969738" lon="2.773189">
        <ele>93.63400</ele>
        <time>2021-07-02T15:01:00Z</time>
      </trkpt>
      <trkpt lat="41.969761" lon="2.773135">
        <ele>93.58337</ele>
        <time>2021-07-02T15:01:01Z</time>
      </trkpt>
      <trkpt lat="41.969769" lon="2.773089">
        <ele>93.69751</ele>
        <time>2021-07-02T15:01:02Z</time>
      </trkpt>
      <trkpt lat="41.969772" lon="2.773036">
        <ele>93.87961</ele>
        <time>2021-07-02T15:01:03Z</time>
      </trkpt>
      <trkpt lat="41.969761" lon="2.772964">
        <ele>94.02740</ele>
        <time>2021-07-02T15:01:04Z</time>
      </trkpt>
      <trkpt lat="41.969734" lon="2.772902">
        <ele>94.12646</ele>
        <time>2021-07-02T15:01:05Z</time>
      </trkpt>
      <trkpt lat="41.969685" lon="2.772856">
        <ele>94.31026</ele>
        <time>2021-07-02T15:01:06Z</time>
      </trkpt>
      <trkpt lat="41.969666" lon="2.772787">
        <ele>94.04374</ele>
        <time>2021-07-02T15:01:07Z</time>
      </trkpt>
      <trkpt lat="41.969639" lon="2.772646">
        <ele>93.89520</ele>
        <time>2021-07-02T15:01:08Z</time>
      </trkpt>
      <trkpt lat="41.969616" lon="2.772529">
        <ele>93.88426</ele>
        <time>2021-07-02T15:01:09Z</time>
      </trkpt>
      <trkpt lat="41.969604" lon="2.772428">
        <ele>94.29795</ele>
        <time>2021-07-02T15:01:10Z</time>
      </trkpt>
      <trkpt lat="41.969593" lon="2.772354">
        <ele>94.24539</ele>
        <time>2021-07-02T15:01:11Z</time>
      </trkpt>
      <trkpt lat="41.969582" lon="2.772261">
        <ele>95.62465</ele>
        <time>2021-07-02T15:01:12Z</time>
      </trkpt>
      <trkpt lat="41.969566" lon="2.772154">
        <ele>95.75745</ele>
        <time>2021-07-02T15:01:13Z</time>
      </trkpt>
      <trkpt lat="41.969555" lon="2.772062">
        <ele>95.68713</ele>
        <time>2021-07-02T15:01:14Z</time>
      </trkpt>
      <trkpt lat="41.969543" lon="2.771979">
        <ele>95.18399</ele>
        <time>2021-07-02T15:01:15Z</time>
      </trkpt>
      <trkpt lat="41.969528" lon="2.771858">
        <ele>95.15314</ele>
        <time>2021-07-02T15:01:16Z</time>
      </trkpt>
      <trkpt lat="41.969513" lon="2.771729">
        <ele>95.10918</ele>
        <time>2021-07-02T15:01:17Z</time>
      </trkpt>
      <trkpt lat="41.969498" lon="2.771608">
        <ele>94.60583</ele>
        <time>2021-07-02T15:01:18Z</time>
      </trkpt>
      <trkpt lat="41.969482" lon="2.771486">
        <ele>94.94325</ele>
        <time>2021-07-02T15:01:19Z</time>
      </trkpt>
      <trkpt lat="41.969482" lon="2.771486">
        <ele>95.03819</ele>
        <time>2021-07-02T15:01:20Z</time>
      </trkpt>
      <trkpt lat="41.969475" lon="2.771357">
        <ele>94.37550</ele>
        <time>2021-07-02T15:01:21Z</time>
      </trkpt>
      <trkpt lat="41.969467" lon="2.771238">
        <ele>94.47539</ele>
        <time>2021-07-02T15:01:22Z</time>
      </trkpt>
      <trkpt lat="41.969463" lon="2.771123">
        <ele>94.64698</ele>
        <time>2021-07-02T15:01:23Z</time>
      </trkpt>
      <trkpt lat="41.969460" lon="2.771045">
        <ele>94.72004</ele>
        <time>2021-07-02T15:01:24Z</time>
      </trkpt>
      <trkpt lat="41.969456" lon="2.770951">
        <ele>94.57412</ele>
        <time>2021-07-02T15:01:25Z</time>
      </trkpt>
      <trkpt lat="41.969452" lon="2.770844">
        <ele>94.47305</ele>
        <time>2021-07-02T15:01:26Z</time>
      </trkpt>
      <trkpt lat="41.969444" lon="2.770754">
        <ele>94.61621</ele>
        <time>2021-07-02T15:01:27Z</time>
      </trkpt>
      <trkpt lat="41.969490" lon="2.770709">
        <ele>94.49151</ele>
        <time>2021-07-02T15:01:28Z</time>
      </trkpt>
      <trkpt lat="41.969582" lon="2.770531">
        <ele>94.53025</ele>
        <time>2021-07-02T15:01:29Z</time>
      </trkpt>
      <trkpt lat="41.969582" lon="2.770493">
        <ele>94.64431</ele>
        <time>2021-07-02T15:01:30Z</time>
      </trkpt>
      <trkpt lat="41.969566" lon="2.770423">
        <ele>94.96250</ele>
        <time>2021-07-02T15:01:31Z</time>
      </trkpt>
      <trkpt lat="41.969555" lon="2.770402">
        <ele>94.95728</ele>
        <time>2021-07-02T15:01:32Z</time>
      </trkpt>
      <trkpt lat="41.969528" lon="2.770361">
        <ele>94.94833</ele>
        <time>2021-07-02T15:01:33Z</time>
      </trkpt>
      <trkpt lat="41.969460" lon="2.770322">
        <ele>94.91821</ele>
        <time>2021-07-02T15:01:34Z</time>
      </trkpt>
      <trkpt lat="41.969421" lon="2.770300">
        <ele>94.80721</ele>
        <time>2021-07-02T15:01:35Z</time>
      </trkpt>
      <trkpt lat="41.969414" lon="2.770174">
        <ele>94.95930</ele>
        <time>2021-07-02T15:01:36Z</time>
      </trkpt>
      <trkpt lat="41.969406" lon="2.769974">
        <ele>94.84752</ele>
        <time>2021-07-02T15:01:37Z</time>
      </trkpt>
      <trkpt lat="41.969398" lon="2.769861">
        <ele>94.95660</ele>
        <time>2021-07-02T15:01:38Z</time>
      </trkpt>
      <trkpt lat="41.969395" lon="2.769754">
        <ele>95.22044</ele>
        <time>2021-07-02T15:01:39Z</time>
      </trkpt>
      <trkpt lat="41.969387" lon="2.769646">
        <ele>94.92525</ele>
        <time>2021-07-02T15:01:40Z</time>
      </trkpt>
      <trkpt lat="41.969383" lon="2.769526">
        <ele>95.51526</ele>
        <time>2021-07-02T15:01:41Z</time>
      </trkpt>
      <trkpt lat="41.969376" lon="2.769399">
        <ele>95.63604</ele>
        <time>2021-07-02T15:01:42Z</time>
      </trkpt>
      <trkpt lat="41.969364" lon="2.769270">
        <ele>95.62231</ele>
        <time>2021-07-02T15:01:43Z</time>
      </trkpt>
      <trkpt lat="41.969357" lon="2.769140">
        <ele>95.33894</ele>
        <time>2021-07-02T15:01:44Z</time>
      </trkpt>
      <trkpt lat="41.969349" lon="2.769004">
        <ele>96.14275</ele>
        <time>2021-07-02T15:01:45Z</time>
      </trkpt>
      <trkpt lat="41.969337" lon="2.768875">
        <ele>96.54793</ele>
        <time>2021-07-02T15:01:46Z</time>
      </trkpt>
      <trkpt lat="41.969330" lon="2.768727">
        <ele>95.79561</ele>
        <time>2021-07-02T15:01:47Z</time>
      </trkpt>
      <trkpt lat="41.969322" lon="2.768543">
        <ele>95.06380</ele>
        <time>2021-07-02T15:01:48Z</time>
      </trkpt>
      <trkpt lat="41.969315" lon="2.768362">
        <ele>95.91060</ele>
        <time>2021-07-02T15:01:49Z</time>
      </trkpt>
      <trkpt lat="41.969307" lon="2.768207">
        <ele>95.74258</ele>
        <time>2021-07-02T15:01:50Z</time>
      </trkpt>
      <trkpt lat="41.969299" lon="2.768059">
        <ele>95.55727</ele>
        <time>2021-07-02T15:01:51Z</time>
      </trkpt>
      <trkpt lat="41.969292" lon="2.767886">
        <ele>95.71731</ele>
        <time>2021-07-02T15:01:52Z</time>
      </trkpt>
      <trkpt lat="41.969288" lon="2.767716">
        <ele>95.72873</ele>
        <time>2021-07-02T15:01:53Z</time>
      </trkpt>
      <trkpt lat="41.969284" lon="2.767555">
        <ele>95.63292</ele>
        <time>2021-07-02T15:01:54Z</time>
      </trkpt>
      <trkpt lat="41.969284" lon="2.767555">
        <ele>96.40187</ele>
        <time>2021-07-02T15:01:55Z</time>
      </trkpt>
      <trkpt lat="41.969280" lon="2.767368">
        <ele>95.79734</ele>
        <time>2021-07-02T15:01:56Z</time>
      </trkpt>
      <trkpt lat="41.969276" lon="2.767165">
        <ele>96.80890</ele>
        <time>2021-07-02T15:01:57Z</time>
      </trkpt>
      <trkpt lat="41.969273" lon="2.766960">
        <ele>96.53595</ele>
        <time>2021-07-02T15:01:58Z</time>
      </trkpt>
      <trkpt lat="41.969280" lon="2.766758">
        <ele>96.06510</ele>
        <time>2021-07-02T15:01:59Z</time>
      </trkpt>
      <trkpt lat="41.969292" lon="2.766522">
        <ele>96.47748</ele>
        <time>2021-07-02T15:02:00Z</time>
      </trkpt>
      <trkpt lat="41.969315" lon="2.766300">
        <ele>96.81412</ele>
        <time>2021-07-02T15:02:01Z</time>
      </trkpt>
      <trkpt lat="41.969341" lon="2.766098">
        <ele>96.60700</ele>
        <time>2021-07-02T15:02:02Z</time>
      </trkpt>
      <trkpt lat="41.969372" lon="2.765893">
        <ele>96.51793</ele>
        <time>2021-07-02T15:02:03Z</time>
      </trkpt>
      <trkpt lat="41.969398" lon="2.765703">
        <ele>96.22831</ele>
        <time>2021-07-02T15:02:04Z</time>
      </trkpt>
      <trkpt lat="41.969437" lon="2.765493">
        <ele>97.10995</ele>
        <time>2021-07-02T15:02:05Z</time>
      </trkpt>
      <trkpt lat="41.969482" lon="2.765272">
        <ele>96.76823</ele>
        <time>2021-07-02T15:02:06Z</time>
      </trkpt>
      <trkpt lat="41.969524" lon="2.765041">
        <ele>91.78934</ele>
        <time>2021-07-02T15:02:07Z</time>
      </trkpt>
      <trkpt lat="41.969570" lon="2.764786">
        <ele>91.70297</ele>
        <time>2021-07-02T15:02:08Z</time>
      </trkpt>
      <trkpt lat="41.969616" lon="2.764530">
        <ele>91.90988</ele>
        <time>2021-07-02T15:02:09Z</time>
      </trkpt>
      <trkpt lat="41.969666" lon="2.764285">
        <ele>91.59946</ele>
        <time>2021-07-02T15:02:10Z</time>
      </trkpt>
      <trkpt lat="41.969707" lon="2.764048">
        <ele>91.27731</ele>
        <time>2021-07-02T15:02:11Z</time>
      </trkpt>
      <trkpt lat="41.969753" lon="2.763793">
        <ele>91.64090</ele>
        <time>2021-07-02T15:02:12Z</time>
      </trkpt>
      <trkpt lat="41.969795" lon="2.763548">
        <ele>92.33469</ele>
        <time>2021-07-02T15:02:13Z</time>
      </trkpt>
      <trkpt lat="41.969841" lon="2.763291">
        <ele>92.96640</ele>
        <time>2021-07-02T15:02:14Z</time>
      </trkpt>
      <trkpt lat="41.969883" lon="2.763044">
        <ele>92.95432</ele>
        <time>2021-07-02T15:02:15Z</time>
      </trkpt>
      <trkpt lat="41.969940" lon="2.762804">
        <ele>96.81968</ele>
        <time>2021-07-02T15:02:16Z</time>
      </trkpt>
      <trkpt lat="41.970001" lon="2.762556">
        <ele>96.43955</ele>
        <time>2021-07-02T15:02:17Z</time>
      </trkpt>
      <trkpt lat="41.970055" lon="2.762330">
        <ele>96.48260</ele>
        <time>2021-07-02T15:02:18Z</time>
      </trkpt>
      <trkpt lat="41.970112" lon="2.762096">
        <ele>97.01657</ele>
        <time>2021-07-02T15:02:19Z</time>
      </trkpt>
      <trkpt lat="41.970165" lon="2.761861">
        <ele>97.46371</ele>
        <time>2021-07-02T15:02:20Z</time>
      </trkpt>
      <trkpt lat="41.970215" lon="2.761624">
        <ele>92.75577</ele>
        <time>2021-07-02T15:02:21Z</time>
      </trkpt>
      <trkpt lat="41.970264" lon="2.761378">
        <ele>93.43503</ele>
        <time>2021-07-02T15:02:22Z</time>
      </trkpt>
      <trkpt lat="41.970310" lon="2.761126">
        <ele>93.23972</ele>
        <time>2021-07-02T15:02:23Z</time>
      </trkpt>
      <trkpt lat="41.970367" lon="2.760865">
        <ele>93.63943</ele>
        <time>2021-07-02T15:02:24Z</time>
      </trkpt>
      <trkpt lat="41.970367" lon="2.760865">
        <ele>93.95193</ele>
        <time>2021-07-02T15:02:25Z</time>
      </trkpt>
      <trkpt lat="41.970425" lon="2.760604">
        <ele>93.51151</ele>
        <time>2021-07-02T15:02:26Z</time>
      </trkpt>
      <trkpt lat="41.970486" lon="2.760331">
        <ele>93.99313</ele>
        <time>2021-07-02T15:02:27Z</time>
      </trkpt>
      <trkpt lat="41.970547" lon="2.760062">
        <ele>93.98636</ele>
        <time>2021-07-02T15:02:28Z</time>
      </trkpt>
      <trkpt lat="41.970608" lon="2.759776">
        <ele>93.73196</ele>
        <time>2021-07-02T15:02:29Z</time>
      </trkpt>
      <trkpt lat="41.970661" lon="2.759507">
        <ele>93.13351</ele>
        <time>2021-07-02T15:02:30Z</time>
      </trkpt>
      <trkpt lat="41.970711" lon="2.759261">
        <ele>93.48593</ele>
        <time>2021-07-02T15:02:31Z</time>
      </trkpt>
      <trkpt lat="41.970757" lon="2.759002">
        <ele>94.01877</ele>
        <time>2021-07-02T15:02:32Z</time>
      </trkpt>
      <trkpt lat="41.970798" lon="2.758759">
        <ele>94.00430</ele>
        <time>2021-07-02T15:02:33Z</time>
      </trkpt>
      <trkpt lat="41.970860" lon="2.758479">
        <ele>93.61234</ele>
        <time>2021-07-02T15:02:34Z</time>
      </trkpt>
      <trkpt lat="41.970909" lon="2.758222">
        <ele>95.00345</ele>
        <time>2021-07-02T15:02:35Z</time>
      </trkpt>
      <trkpt lat="41.970947" lon="2.757957">
        <ele>94.71097</ele>
        <time>2021-07-02T15:02:36Z</time>
      </trkpt>
      <trkpt lat="41.970970" lon="2.757690">
        <ele>94.65244</ele>
        <time>2021-07-02T15:02:37Z</time>
      </trkpt>
      <trkpt lat="41.970982" lon="2.757376">
        <ele>95.29373</ele>
        <time>2021-07-02T15:02:38Z</time>
      </trkpt>
      <trkpt lat="41.970955" lon="2.757063">
        <ele>95.34921</ele>
        <time>2021-07-02T15:02:39Z</time>
      </trkpt>
      <trkpt lat="41.970894" lon="2.756748">
        <ele>95.93112</ele>
        <time>2021-07-02T15:02:40Z</time>
      </trkpt>
      <trkpt lat="41.970840" lon="2.756463">
        <ele>96.89816</ele>
        <time>2021-07-02T15:02:41Z</time>
      </trkpt>
      <trkpt lat="41.970795" lon="2.756205">
        <ele>97.29745</ele>
        <time>2021-07-02T15:02:42Z</time>
      </trkpt>
      <trkpt lat="41.970741" lon="2.755923">
        <ele>97.66220</ele>
        <time>2021-07-02T15:02:43Z</time>
      </trkpt>
      <trkpt lat="41.970695" lon="2.755646">
        <ele>98.40781</ele>
        <time>2021-07-02T15:02:44Z</time>
      </trkpt>
      <trkpt lat="41.970646" lon="2.755377">
        <ele>98.23349</ele>
        <time>2021-07-02T15:02:45Z</time>
      </trkpt>
      <trkpt lat="41.970600" lon="2.755111">
        <ele>98.46426</ele>
        <time>2021-07-02T15:02:46Z</time>
      </trkpt>
      <trkpt lat="41.970551" lon="2.754840">
        <ele>98.87454</ele>
        <time>2021-07-02T15:02:47Z</time>
      </trkpt>
      <trkpt lat="41.970493" lon="2.754578">
        <ele>99.52853</ele>
        <time>2021-07-02T15:02:48Z</time>
      </trkpt>
      <trkpt lat="41.970428" lon="2.754323">
        <ele>100.13669</ele>
        <time>2021-07-02T15:02:49Z</time>
      </trkpt>
      <trkpt lat="41.970364" lon="2.754062">
        <ele>100.58664</ele>
        <time>2021-07-02T15:02:50Z</time>
      </trkpt>
      <trkpt lat="41.970299" lon="2.753815">
        <ele>102.35800</ele>
        <time>2021-07-02T15:02:51Z</time>
      </trkpt>
      <trkpt lat="41.970226" lon="2.753578">
        <ele>102.67136</ele>
        <time>2021-07-02T15:02:52Z</time>
      </trkpt>
      <trkpt lat="41.970146" lon="2.753323">
        <ele>102.74966</ele>
        <time>2021-07-02T15:02:53Z</time>
      </trkpt>
      <trkpt lat="41.970070" lon="2.753090">
        <ele>102.42227</ele>
        <time>2021-07-02T15:02:54Z</time>
      </trkpt>
      <trkpt lat="41.969986" lon="2.752850">
        <ele>103.45023</ele>
        <time>2021-07-02T15:02:55Z</time>
      </trkpt>
      <trkpt lat="41.969902" lon="2.752604">
        <ele>104.09659</ele>
        <time>2021-07-02T15:02:56Z</time>
      </trkpt>
      <trkpt lat="41.969814" lon="2.752368">
        <ele>104.03232</ele>
        <time>2021-07-02T15:02:57Z</time>
      </trkpt>
      <trkpt lat="41.969719" lon="2.752130">
        <ele>104.93710</ele>
        <time>2021-07-02T15:02:58Z</time>
      </trkpt>
      <trkpt lat="41.969719" lon="2.752130">
        <ele>104.55344</ele>
        <time>2021-07-02T15:02:59Z</time>
      </trkpt>
      <trkpt lat="41.969635" lon="2.751909">
        <ele>104.21054</ele>
        <time>2021-07-02T15:03:00Z</time>
      </trkpt>
      <trkpt lat="41.969509" lon="2.751696">
        <ele>103.86240</ele>
        <time>2021-07-02T15:03:01Z</time>
      </trkpt>
      <trkpt lat="41.969368" lon="2.751478">
        <ele>103.55649</ele>
        <time>2021-07-02T15:03:02Z</time>
      </trkpt>
      <trkpt lat="41.969227" lon="2.751266">
        <ele>103.11301</ele>
        <time>2021-07-02T15:03:03Z</time>
      </trkpt>
      <trkpt lat="41.969093" lon="2.751068">
        <ele>102.98227</ele>
        <time>2021-07-02T15:03:04Z</time>
      </trkpt>
      <trkpt lat="41.968952" lon="2.750855">
        <ele>103.26572</ele>
        <time>2021-07-02T15:03:05Z</time>
      </trkpt>
      <trkpt lat="41.968815" lon="2.750651">
        <ele>103.08078</ele>
        <time>2021-07-02T15:03:06Z</time>
      </trkpt>
      <trkpt lat="41.968685" lon="2.750445">
        <ele>102.70956</ele>
        <time>2021-07-02T15:03:07Z</time>
      </trkpt>
      <trkpt lat="41.968548" lon="2.750211">
        <ele>102.57980</ele>
        <time>2021-07-02T15:03:08Z</time>
      </trkpt>
      <trkpt lat="41.968426" lon="2.749999">
        <ele>102.85721</ele>
        <time>2021-07-02T15:03:09Z</time>
      </trkpt>
      <trkpt lat="41.968304" lon="2.749786">
        <ele>102.44540</ele>
        <time>2021-07-02T15:03:10Z</time>
      </trkpt>
      <trkpt lat="41.968185" lon="2.749554">
        <ele>102.21115</ele>
        <time>2021-07-02T15:03:11Z</time>
      </trkpt>
      <trkpt lat="41.968094" lon="2.749332">
        <ele>101.80820</ele>
        <time>2021-07-02T15:03:12Z</time>
      </trkpt>
      <trkpt lat="41.968014" lon="2.749087">
        <ele>101.86063</ele>
        <time>2021-07-02T15:03:13Z</time>
      </trkpt>
      <trkpt lat="41.967941" lon="2.748823">
        <ele>100.94394</ele>
        <time>2021-07-02T15:03:14Z</time>
      </trkpt>
      <trkpt lat="41.967888" lon="2.748584">
        <ele>101.32846</ele>
        <time>2021-07-02T15:03:15Z</time>
      </trkpt>
      <trkpt lat="41.967838" lon="2.748322">
        <ele>100.90714</ele>
        <time>2021-07-02T15:03:16Z</time>
      </trkpt>
      <trkpt lat="41.967796" lon="2.748075">
        <ele>100.05405</ele>
        <time>2021-07-02T15:03:17Z</time>
      </trkpt>
      <trkpt lat="41.967747" lon="2.747826">
        <ele>99.67239</ele>
        <time>2021-07-02T15:03:18Z</time>
      </trkpt>
      <trkpt lat="41.967697" lon="2.747579">
        <ele>99.99747</ele>
        <time>2021-07-02T15:03:19Z</time>
      </trkpt>
      <trkpt lat="41.967648" lon="2.747338">
        <ele>99.72824</ele>
        <time>2021-07-02T15:03:20Z</time>
      </trkpt>
      <trkpt lat="41.967598" lon="2.747101">
        <ele>105.36761</ele>
        <time>2021-07-02T15:03:21Z</time>
      </trkpt>
      <trkpt lat="41.967552" lon="2.746866">
        <ele>105.57492</ele>
        <time>2021-07-02T15:03:22Z</time>
      </trkpt>
      <trkpt lat="41.967506" lon="2.746641">
        <ele>104.71793</ele>
        <time>2021-07-02T15:03:23Z</time>
      </trkpt>
      <trkpt lat="41.967468" lon="2.746444">
        <ele>104.34428</ele>
        <time>2021-07-02T15:03:24Z</time>
      </trkpt>
      <trkpt lat="41.967434" lon="2.746283">
        <ele>103.75287</ele>
        <time>2021-07-02T15:03:25Z</time>
      </trkpt>
      <trkpt lat="41.967434" lon="2.746283">
        <ele>102.61073</ele>
        <time>2021-07-02T15:03:26Z</time>
      </trkpt>
      <trkpt lat="41.967403" lon="2.746133">
        <ele>101.75134</ele>
        <time>2021-07-02T15:03:27Z</time>
      </trkpt>
      <trkpt lat="41.967381" lon="2.746000">
        <ele>101.03590</ele>
        <time>2021-07-02T15:03:28Z</time>
      </trkpt>
      <trkpt lat="41.967358" lon="2.745900">
        <ele>101.48437</ele>
        <time>2021-07-02T15:03:29Z</time>
      </trkpt>
      <trkpt lat="41.967339" lon="2.745801">
        <ele>101.07980</ele>
        <time>2021-07-02T15:03:30Z</time>
      </trkpt>
      <trkpt lat="41.967327" lon="2.745745">
        <ele>100.89056</ele>
        <time>2021-07-02T15:03:31Z</time>
      </trkpt>
      <trkpt lat="41.967316" lon="2.745689">
        <ele>100.57564</ele>
        <time>2021-07-02T15:03:32Z</time>
      </trkpt>
      <trkpt lat="41.967297" lon="2.745602">
        <ele>100.42789</ele>
        <time>2021-07-02T15:03:33Z</time>
      </trkpt>
      <trkpt lat="41.967289" lon="2.745556">
        <ele>100.21217</ele>
        <time>2021-07-02T15:03:34Z</time>
      </trkpt>
      <trkpt lat="41.967278" lon="2.745504">
        <ele>100.11118</ele>
        <time>2021-07-02T15:03:35Z</time>
      </trkpt>
      <trkpt lat="41.967266" lon="2.745442">
        <ele>100.09721</ele>
        <time>2021-07-02T15:03:36Z</time>
      </trkpt>
      <trkpt lat="41.967255" lon="2.745390">
        <ele>100.31856</ele>
        <time>2021-07-02T15:03:37Z</time>
      </trkpt>
      <trkpt lat="41.967304" lon="2.745363">
        <ele>99.95654</ele>
        <time>2021-07-02T15:03:38Z</time>
      </trkpt>
      <trkpt lat="41.967392" lon="2.745241">
        <ele>99.88914</ele>
        <time>2021-07-02T15:03:39Z</time>
      </trkpt>
      <trkpt lat="41.967403" lon="2.745138">
        <ele>100.10189</ele>
        <time>2021-07-02T15:03:40Z</time>
      </trkpt>
      <trkpt lat="41.967403" lon="2.745112">
        <ele>100.28463</ele>
        <time>2021-07-02T15:03:41Z</time>
      </trkpt>
      <trkpt lat="41.967388" lon="2.745040">
        <ele>100.77661</ele>
        <time>2021-07-02T15:03:42Z</time>
      </trkpt>
      <trkpt lat="41.967342" lon="2.744950">
        <ele>100.15648</ele>
        <time>2021-07-02T15:03:43Z</time>
      </trkpt>
      <trkpt lat="41.967285" lon="2.744902">
        <ele>100.34454</ele>
        <time>2021-07-02T15:03:44Z</time>
      </trkpt>
      <trkpt lat="41.967220" lon="2.744897">
        <ele>100.53034</ele>
        <time>2021-07-02T15:03:45Z</time>
      </trkpt>
      <trkpt lat="41.967167" lon="2.744911">
        <ele>100.64542</ele>
        <time>2021-07-02T15:03:46Z</time>
      </trkpt>
      <trkpt lat="41.967113" lon="2.744741">
        <ele>100.67431</ele>
        <time>2021-07-02T15:03:47Z</time>
      </trkpt>
      <trkpt lat="41.967075" lon="2.744545">
        <ele>100.55701</ele>
        <time>2021-07-02T15:03:48Z</time>
      </trkpt>
      <trkpt lat="41.967060" lon="2.744453">
        <ele>100.26803</ele>
        <time>2021-07-02T15:03:49Z</time>
      </trkpt>
      <trkpt lat="41.967045" lon="2.744363">
        <ele>100.30975</ele>
        <time>2021-07-02T15:03:50Z</time>
      </trkpt>
      <trkpt lat="41.967026" lon="2.744273">
        <ele>100.16570</ele>
        <time>2021-07-02T15:03:51Z</time>
      </trkpt>
      <trkpt lat="41.967007" lon="2.744165">
        <ele>100.16648</ele>
        <time>2021-07-02T15:03:52Z</time>
      </trkpt>
      <trkpt lat="41.966984" lon="2.744047">
        <ele>99.84182</ele>
        <time>2021-07-02T15:03:53Z</time>
      </trkpt>
      <trkpt lat="41.966984" lon="2.744047">
        <ele>99.78642</ele>
        <time>2021-07-02T15:03:54Z</time>
      </trkpt>
      <trkpt lat="41.966923" lon="2.743815">
        <ele>99.69670</ele>
        <time>2021-07-02T15:03:55Z</time>
      </trkpt>
      <trkpt lat="41.966923" lon="2.743815">
        <ele>99.66463</ele>
        <time>2021-07-02T15:03:56Z</time>
      </trkpt>
      <trkpt lat="41.966900" lon="2.743707">
        <ele>99.68568</ele>
        <time>2021-07-02T15:03:57Z</time>
      </trkpt>
      <trkpt lat="41.966877" lon="2.743582">
        <ele>99.80186</ele>
        <time>2021-07-02T15:03:58Z</time>
      </trkpt>
      <trkpt lat="41.966854" lon="2.743464">
        <ele>99.83784</ele>
        <time>2021-07-02T15:03:59Z</time>
      </trkpt>
      <trkpt lat="41.966824" lon="2.743314">
        <ele>99.86160</ele>
        <time>2021-07-02T15:04:00Z</time>
      </trkpt>
      <trkpt lat="41.966801" lon="2.743188">
        <ele>99.83339</ele>
        <time>2021-07-02T15:04:01Z</time>
      </trkpt>
      <trkpt lat="41.966770" lon="2.743044">
        <ele>99.81490</ele>
        <time>2021-07-02T15:04:02Z</time>
      </trkpt>
      <trkpt lat="41.966747" lon="2.742927">
        <ele>100.28431</ele>
        <time>2021-07-02T15:04:03Z</time>
      </trkpt>
      <trkpt lat="41.966721" lon="2.742778">
        <ele>99.96721</ele>
        <time>2021-07-02T15:04:04Z</time>
      </trkpt>
      <trkpt lat="41.966694" lon="2.742643">
        <ele>100.50577</ele>
        <time>2021-07-02T15:04:05Z</time>
      </trkpt>
      <trkpt lat="41.966667" lon="2.742506">
        <ele>100.52354</ele>
        <time>2021-07-02T15:04:06Z</time>
      </trkpt>
      <trkpt lat="41.966644" lon="2.742380">
        <ele>100.80965</ele>
        <time>2021-07-02T15:04:07Z</time>
      </trkpt>
      <trkpt lat="41.966618" lon="2.742229">
        <ele>100.32179</ele>
        <time>2021-07-02T15:04:08Z</time>
      </trkpt>
      <trkpt lat="41.966595" lon="2.742107">
        <ele>99.68403</ele>
        <time>2021-07-02T15:04:09Z</time>
      </trkpt>
      <trkpt lat="41.966572" lon="2.741993">
        <ele>99.60316</ele>
        <time>2021-07-02T15:04:10Z</time>
      </trkpt>
      <trkpt lat="41.966560" lon="2.741942">
        <ele>99.31436</ele>
        <time>2021-07-02T15:04:11Z</time>
      </trkpt>
      <trkpt lat="41.966553" lon="2.741912">
        <ele>99.30549</ele>
        <time>2021-07-02T15:04:12Z</time>
      </trkpt>
      <trkpt lat="41.966549" lon="2.741892">
        <ele>99.09471</ele>
        <time>2021-07-02T15:04:13Z</time>
      </trkpt>
      <trkpt lat="41.966549" lon="2.741889">
        <ele>98.89485</ele>
        <time>2021-07-02T15:04:14Z</time>
      </trkpt>
      <trkpt lat="41.966541" lon="2.741848">
        <ele>99.39442</ele>
        <time>2021-07-02T15:04:15Z</time>
      </trkpt>
      <trkpt lat="41.966518" lon="2.741739">
        <ele>99.66006</ele>
        <time>2021-07-02T15:04:16Z</time>
      </trkpt>
      <trkpt lat="41.966492" lon="2.741629">
        <ele>100.15855</ele>
        <time>2021-07-02T15:04:17Z</time>
      </trkpt>
      <trkpt lat="41.966469" lon="2.741519">
        <ele>100.33259</ele>
        <time>2021-07-02T15:04:18Z</time>
      </trkpt>
      <trkpt lat="41.966438" lon="2.741386">
        <ele>100.70006</ele>
        <time>2021-07-02T15:04:19Z</time>
      </trkpt>
      <trkpt lat="41.966408" lon="2.741239">
        <ele>100.86642</ele>
        <time>2021-07-02T15:04:20Z</time>
      </trkpt>
      <trkpt lat="41.966373" lon="2.741098">
        <ele>101.60968</ele>
        <time>2021-07-02T15:04:21Z</time>
      </trkpt>
      <trkpt lat="41.966343" lon="2.740958">
        <ele>102.18562</ele>
        <time>2021-07-02T15:04:22Z</time>
      </trkpt>
      <trkpt lat="41.966316" lon="2.740816">
        <ele>101.94643</ele>
        <time>2021-07-02T15:04:23Z</time>
      </trkpt>
      <trkpt lat="41.966316" lon="2.740816">
        <ele>101.59456</ele>
        <time>2021-07-02T15:04:24Z</time>
      </trkpt>
      <trkpt lat="41.966267" lon="2.740537">
        <ele>101.61751</ele>
        <time>2021-07-02T15:04:25Z</time>
      </trkpt>
      <trkpt lat="41.966267" lon="2.740537">
        <ele>101.01109</ele>
        <time>2021-07-02T15:04:26Z</time>
      </trkpt>
      <trkpt lat="41.966244" lon="2.740409">
        <ele>101.12669</ele>
        <time>2021-07-02T15:04:27Z</time>
      </trkpt>
      <trkpt lat="41.966225" lon="2.740287">
        <ele>101.62348</ele>
        <time>2021-07-02T15:04:28Z</time>
      </trkpt>
      <trkpt lat="41.966202" lon="2.740146">
        <ele>101.48252</ele>
        <time>2021-07-02T15:04:29Z</time>
      </trkpt>
      <trkpt lat="41.966187" lon="2.739999">
        <ele>101.66316</ele>
        <time>2021-07-02T15:04:30Z</time>
      </trkpt>
      <trkpt lat="41.966190" lon="2.739897">
        <ele>101.45177</ele>
        <time>2021-07-02T15:04:31Z</time>
      </trkpt>
      <trkpt lat="41.966194" lon="2.739784">
        <ele>101.62736</ele>
        <time>2021-07-02T15:04:32Z</time>
      </trkpt>
      <trkpt lat="41.966198" lon="2.739705">
        <ele>101.62514</ele>
        <time>2021-07-02T15:04:33Z</time>
      </trkpt>
      <trkpt lat="41.966202" lon="2.739612">
        <ele>101.55199</ele>
        <time>2021-07-02T15:04:34Z</time>
      </trkpt>
      <trkpt lat="41.966209" lon="2.739509">
        <ele>101.69342</ele>
        <time>2021-07-02T15:04:35Z</time>
      </trkpt>
      <trkpt lat="41.966217" lon="2.739448">
        <ele>101.85839</ele>
        <time>2021-07-02T15:04:36Z</time>
      </trkpt>
      <trkpt lat="41.966225" lon="2.739387">
        <ele>101.77534</ele>
        <time>2021-07-02T15:04:37Z</time>
      </trkpt>
      <trkpt lat="41.966232" lon="2.739333">
        <ele>101.43504</ele>
        <time>2021-07-02T15:04:38Z</time>
      </trkpt>
      <trkpt lat="41.966244" lon="2.739262">
        <ele>100.96341</ele>
        <time>2021-07-02T15:04:39Z</time>
      </trkpt>
      <trkpt lat="41.966255" lon="2.739185">
        <ele>101.17593</ele>
        <time>2021-07-02T15:04:40Z</time>
      </trkpt>
      <trkpt lat="41.966263" lon="2.739093">
        <ele>101.17486</ele>
        <time>2021-07-02T15:04:41Z</time>
      </trkpt>
      <trkpt lat="41.966270" lon="2.739024">
        <ele>101.67406</ele>
        <time>2021-07-02T15:04:42Z</time>
      </trkpt>
      <trkpt lat="41.966278" lon="2.738965">
        <ele>101.61459</ele>
        <time>2021-07-02T15:04:43Z</time>
      </trkpt>
      <trkpt lat="41.966286" lon="2.738889">
        <ele>102.22382</ele>
        <time>2021-07-02T15:04:44Z</time>
      </trkpt>
      <trkpt lat="41.966297" lon="2.738789">
        <ele>102.66351</ele>
        <time>2021-07-02T15:04:45Z</time>
      </trkpt>
      <trkpt lat="41.966309" lon="2.738699">
        <ele>102.81172</ele>
        <time>2021-07-02T15:04:46Z</time>
      </trkpt>
      <trkpt lat="41.966316" lon="2.738626">
        <ele>102.41100</ele>
        <time>2021-07-02T15:04:47Z</time>
      </trkpt>
      <trkpt lat="41.966324" lon="2.738559">
        <ele>102.62362</ele>
        <time>2021-07-02T15:04:48Z</time>
      </trkpt>
      <trkpt lat="41.966335" lon="2.738487">
        <ele>102.38428</ele>
        <time>2021-07-02T15:04:49Z</time>
      </trkpt>
      <trkpt lat="41.966339" lon="2.738422">
        <ele>102.27803</ele>
        <time>2021-07-02T15:04:50Z</time>
      </trkpt>
      <trkpt lat="41.966351" lon="2.738353">
        <ele>102.02422</ele>
        <time>2021-07-02T15:04:51Z</time>
      </trkpt>
      <trkpt lat="41.966358" lon="2.738265">
        <ele>101.86052</ele>
        <time>2021-07-02T15:04:52Z</time>
      </trkpt>
      <trkpt lat="41.966370" lon="2.738162">
        <ele>101.81576</ele>
        <time>2021-07-02T15:04:53Z</time>
      </trkpt>
      <trkpt lat="41.966381" lon="2.738066">
        <ele>101.71643</ele>
        <time>2021-07-02T15:04:54Z</time>
      </trkpt>
      <trkpt lat="41.966381" lon="2.738066">
        <ele>101.91409</ele>
        <time>2021-07-02T15:04:55Z</time>
      </trkpt>
      <trkpt lat="41.966393" lon="2.737971">
        <ele>102.11523</ele>
        <time>2021-07-02T15:04:56Z</time>
      </trkpt>
      <trkpt lat="41.966400" lon="2.737886">
        <ele>102.04742</ele>
        <time>2021-07-02T15:04:57Z</time>
      </trkpt>
      <trkpt lat="41.966412" lon="2.737802">
        <ele>102.30139</ele>
        <time>2021-07-02T15:04:58Z</time>
      </trkpt>
      <trkpt lat="41.966423" lon="2.737702">
        <ele>102.28028</ele>
        <time>2021-07-02T15:04:59Z</time>
      </trkpt>
      <trkpt lat="41.966431" lon="2.737632">
        <ele>102.35734</ele>
        <time>2021-07-02T15:05:00Z</time>
      </trkpt>
      <trkpt lat="41.966438" lon="2.737567">
        <ele>102.37884</ele>
        <time>2021-07-02T15:05:01Z</time>
      </trkpt>
      <trkpt lat="41.966450" lon="2.737488">
        <ele>102.34765</ele>
        <time>2021-07-02T15:05:02Z</time>
      </trkpt>
      <trkpt lat="41.966457" lon="2.737399">
        <ele>102.17459</ele>
        <time>2021-07-02T15:05:03Z</time>
      </trkpt>
      <trkpt lat="41.966469" lon="2.737307">
        <ele>102.43723</ele>
        <time>2021-07-02T15:05:04Z</time>
      </trkpt>
      <trkpt lat="41.966480" lon="2.737224">
        <ele>102.60564</ele>
        <time>2021-07-02T15:05:05Z</time>
      </trkpt>
      <trkpt lat="41.966492" lon="2.737128">
        <ele>102.61076</ele>
        <time>2021-07-02T15:05:06Z</time>
      </trkpt>
      <trkpt lat="41.966503" lon="2.737030">
        <ele>102.78541</ele>
        <time>2021-07-02T15:05:07Z</time>
      </trkpt>
      <trkpt lat="41.966518" lon="2.736902">
        <ele>102.84677</ele>
        <time>2021-07-02T15:05:08Z</time>
      </trkpt>
      <trkpt lat="41.966530" lon="2.736801">
        <ele>102.82894</ele>
        <time>2021-07-02T15:05:09Z</time>
      </trkpt>
      <trkpt lat="41.966545" lon="2.736688">
        <ele>102.79200</ele>
        <time>2021-07-02T15:05:10Z</time>
      </trkpt>
      <trkpt lat="41.966560" lon="2.736561">
        <ele>102.79476</ele>
        <time>2021-07-02T15:05:11Z</time>
      </trkpt>
      <trkpt lat="41.966576" lon="2.736450">
        <ele>102.60155</ele>
        <time>2021-07-02T15:05:12Z</time>
      </trkpt>
      <trkpt lat="41.966587" lon="2.736346">
        <ele>102.86591</ele>
        <time>2021-07-02T15:05:13Z</time>
      </trkpt>
      <trkpt lat="41.966599" lon="2.736240">
        <ele>102.92818</ele>
        <time>2021-07-02T15:05:14Z</time>
      </trkpt>
      <trkpt lat="41.966614" lon="2.736139">
        <ele>102.97404</ele>
        <time>2021-07-02T15:05:15Z</time>
      </trkpt>
      <trkpt lat="41.966621" lon="2.736046">
        <ele>103.05318</ele>
        <time>2021-07-02T15:05:16Z</time>
      </trkpt>
      <trkpt lat="41.966637" lon="2.735928">
        <ele>103.28970</ele>
        <time>2021-07-02T15:05:17Z</time>
      </trkpt>
      <trkpt lat="41.966652" lon="2.735818">
        <ele>103.45852</ele>
        <time>2021-07-02T15:05:18Z</time>
      </trkpt>
      <trkpt lat="41.966663" lon="2.735716">
        <ele>103.85585</ele>
        <time>2021-07-02T15:05:19Z</time>
      </trkpt>
      <trkpt lat="41.966679" lon="2.735595">
        <ele>104.77450</ele>
        <time>2021-07-02T15:05:20Z</time>
      </trkpt>
      <trkpt lat="41.966679" lon="2.735595">
        <ele>104.44807</ele>
        <time>2021-07-02T15:05:21Z</time>
      </trkpt>
      <trkpt lat="41.966694" lon="2.735456">
        <ele>104.94219</ele>
        <time>2021-07-02T15:05:22Z</time>
      </trkpt>
      <trkpt lat="41.966705" lon="2.735308">
        <ele>103.35946</ele>
        <time>2021-07-02T15:05:23Z</time>
      </trkpt>
      <trkpt lat="41.966721" lon="2.735162">
        <ele>103.69653</ele>
        <time>2021-07-02T15:05:24Z</time>
      </trkpt>
      <trkpt lat="41.966736" lon="2.735019">
        <ele>103.59951</ele>
        <time>2021-07-02T15:05:25Z</time>
      </trkpt>
      <trkpt lat="41.966747" lon="2.734881">
        <ele>104.13831</ele>
        <time>2021-07-02T15:05:26Z</time>
      </trkpt>
      <trkpt lat="41.966763" lon="2.734734">
        <ele>104.34905</ele>
        <time>2021-07-02T15:05:27Z</time>
      </trkpt>
      <trkpt lat="41.966782" lon="2.734555">
        <ele>104.71038</ele>
        <time>2021-07-02T15:05:28Z</time>
      </trkpt>
      <trkpt lat="41.966797" lon="2.734396">
        <ele>104.80077</ele>
        <time>2021-07-02T15:05:29Z</time>
      </trkpt>
      <trkpt lat="41.966812" lon="2.734217">
        <ele>104.66428</ele>
        <time>2021-07-02T15:05:30Z</time>
      </trkpt>
      <trkpt lat="41.966831" lon="2.734057">
        <ele>104.96062</ele>
        <time>2021-07-02T15:05:31Z</time>
      </trkpt>
      <trkpt lat="41.966843" lon="2.733947">
        <ele>105.15522</ele>
        <time>2021-07-02T15:05:32Z</time>
      </trkpt>
      <trkpt lat="41.966858" lon="2.733812">
        <ele>105.25449</ele>
        <time>2021-07-02T15:05:33Z</time>
      </trkpt>
      <trkpt lat="41.966873" lon="2.733683">
        <ele>105.31825</ele>
        <time>2021-07-02T15:05:34Z</time>
      </trkpt>
      <trkpt lat="41.966888" lon="2.733556">
        <ele>105.72239</ele>
        <time>2021-07-02T15:05:35Z</time>
      </trkpt>
      <trkpt lat="41.966904" lon="2.733413">
        <ele>105.32205</ele>
        <time>2021-07-02T15:05:36Z</time>
      </trkpt>
      <trkpt lat="41.966923" lon="2.733268">
        <ele>105.30622</ele>
        <time>2021-07-02T15:05:37Z</time>
      </trkpt>
      <trkpt lat="41.966938" lon="2.733130">
        <ele>105.17381</ele>
        <time>2021-07-02T15:05:38Z</time>
      </trkpt>
      <trkpt lat="41.966953" lon="2.733002">
        <ele>105.33367</ele>
        <time>2021-07-02T15:05:39Z</time>
      </trkpt>
      <trkpt lat="41.966969" lon="2.732872">
        <ele>105.29240</ele>
        <time>2021-07-02T15:05:40Z</time>
      </trkpt>
      <trkpt lat="41.966980" lon="2.732745">
        <ele>105.25240</ele>
        <time>2021-07-02T15:05:41Z</time>
      </trkpt>
      <trkpt lat="41.966995" lon="2.732627">
        <ele>105.19413</ele>
        <time>2021-07-02T15:05:42Z</time>
      </trkpt>
      <trkpt lat="41.967007" lon="2.732509">
        <ele>105.40158</ele>
        <time>2021-07-02T15:05:43Z</time>
      </trkpt>
      <trkpt lat="41.967018" lon="2.732399">
        <ele>104.79873</ele>
        <time>2021-07-02T15:05:44Z</time>
      </trkpt>
      <trkpt lat="41.967030" lon="2.732309">
        <ele>104.97220</ele>
        <time>2021-07-02T15:05:45Z</time>
      </trkpt>
      <trkpt lat="41.967037" lon="2.732240">
        <ele>105.21427</ele>
        <time>2021-07-02T15:05:46Z</time>
      </trkpt>
      <trkpt lat="41.967064" lon="2.732183">
        <ele>105.02306</ele>
        <time>2021-07-02T15:05:47Z</time>
      </trkpt>
      <trkpt lat="41.967087" lon="2.732133">
        <ele>105.24123</ele>
        <time>2021-07-02T15:05:48Z</time>
      </trkpt>
      <trkpt lat="41.967106" lon="2.732092">
        <ele>105.57406</ele>
        <time>2021-07-02T15:05:49Z</time>
      </trkpt>
      <trkpt lat="41.967136" lon="2.732061">
        <ele>105.63824</ele>
        <time>2021-07-02T15:05:50Z</time>
      </trkpt>
      <trkpt lat="41.967175" lon="2.732032">
        <ele>105.51797</ele>
        <time>2021-07-02T15:05:51Z</time>
      </trkpt>
      <trkpt lat="41.967201" lon="2.731999">
        <ele>105.59884</ele>
        <time>2021-07-02T15:05:52Z</time>
      </trkpt>
      <trkpt lat="41.967216" lon="2.731934">
        <ele>105.56163</ele>
        <time>2021-07-02T15:05:53Z</time>
      </trkpt>
      <trkpt lat="41.967216" lon="2.731934">
        <ele>105.64867</ele>
        <time>2021-07-02T15:05:54Z</time>
      </trkpt>
      <trkpt lat="41.967224" lon="2.731877">
        <ele>105.45815</ele>
        <time>2021-07-02T15:05:55Z</time>
      </trkpt>
      <trkpt lat="41.967224" lon="2.731824">
        <ele>106.29552</ele>
        <time>2021-07-02T15:05:56Z</time>
      </trkpt>
      <trkpt lat="41.967220" lon="2.731779">
        <ele>106.11383</ele>
        <time>2021-07-02T15:05:57Z</time>
      </trkpt>
      <trkpt lat="41.967201" lon="2.731735">
        <ele>105.97131</ele>
        <time>2021-07-02T15:05:58Z</time>
      </trkpt>
      <trkpt lat="41.967152" lon="2.731653">
        <ele>105.39346</ele>
        <time>2021-07-02T15:05:59Z</time>
      </trkpt>
      <trkpt lat="41.967140" lon="2.731583">
        <ele>105.11216</ele>
        <time>2021-07-02T15:06:00Z</time>
      </trkpt>
      <trkpt lat="41.967125" lon="2.731472">
        <ele>104.89269</ele>
        <time>2021-07-02T15:06:01Z</time>
      </trkpt>
      <trkpt lat="41.967117" lon="2.731388">
        <ele>104.95335</ele>
        <time>2021-07-02T15:06:02Z</time>
      </trkpt>
      <trkpt lat="41.967133" lon="2.731291">
        <ele>105.23248</ele>
        <time>2021-07-02T15:06:03Z</time>
      </trkpt>
      <trkpt lat="41.967148" lon="2.731185">
        <ele>105.28419</ele>
        <time>2021-07-02T15:06:04Z</time>
      </trkpt>
      <trkpt lat="41.967163" lon="2.731082">
        <ele>105.22176</ele>
        <time>2021-07-02T15:06:05Z</time>
      </trkpt>
      <trkpt lat="41.967178" lon="2.730985">
        <ele>105.63844</ele>
        <time>2021-07-02T15:06:06Z</time>
      </trkpt>
      <trkpt lat="41.967190" lon="2.730901">
        <ele>105.54150</ele>
        <time>2021-07-02T15:06:07Z</time>
      </trkpt>
      <trkpt lat="41.967205" lon="2.730763">
        <ele>105.68348</ele>
        <time>2021-07-02T15:06:08Z</time>
      </trkpt>
      <trkpt lat="41.967220" lon="2.730642">
        <ele>105.55934</ele>
        <time>2021-07-02T15:06:09Z</time>
      </trkpt>
      <trkpt lat="41.967236" lon="2.730510">
        <ele>105.76161</ele>
        <time>2021-07-02T15:06:10Z</time>
      </trkpt>
      <trkpt lat="41.967251" lon="2.730371">
        <ele>105.84785</ele>
        <time>2021-07-02T15:06:11Z</time>
      </trkpt>
      <trkpt lat="41.967270" lon="2.730239">
        <ele>105.69960</ele>
        <time>2021-07-02T15:06:12Z</time>
      </trkpt>
      <trkpt lat="41.967285" lon="2.730093">
        <ele>105.75147</ele>
        <time>2021-07-02T15:06:13Z</time>
      </trkpt>
      <trkpt lat="41.967300" lon="2.729948">
        <ele>105.58815</ele>
        <time>2021-07-02T15:06:14Z</time>
      </trkpt>
      <trkpt lat="41.967319" lon="2.729796">
        <ele>106.36465</ele>
        <time>2021-07-02T15:06:15Z</time>
      </trkpt>
      <trkpt lat="41.967335" lon="2.729638">
        <ele>106.78091</ele>
        <time>2021-07-02T15:06:16Z</time>
      </trkpt>
      <trkpt lat="41.967358" lon="2.729465">
        <ele>106.91125</ele>
        <time>2021-07-02T15:06:17Z</time>
      </trkpt>
      <trkpt lat="41.967377" lon="2.729293">
        <ele>106.87325</ele>
        <time>2021-07-02T15:06:18Z</time>
      </trkpt>
      <trkpt lat="41.967392" lon="2.729132">
        <ele>107.40497</ele>
        <time>2021-07-02T15:06:19Z</time>
      </trkpt>
      <trkpt lat="41.967415" lon="2.728960">
        <ele>107.59499</ele>
        <time>2021-07-02T15:06:20Z</time>
      </trkpt>
      <trkpt lat="41.967434" lon="2.728777">
        <ele>108.42153</ele>
        <time>2021-07-02T15:06:21Z</time>
      </trkpt>
      <trkpt lat="41.967457" lon="2.728573">
        <ele>108.44280</ele>
        <time>2021-07-02T15:06:22Z</time>
      </trkpt>
      <trkpt lat="41.967480" lon="2.728379">
        <ele>110.19840</ele>
        <time>2021-07-02T15:06:23Z</time>
      </trkpt>
      <trkpt lat="41.967480" lon="2.728379">
        <ele>105.96060</ele>
        <time>2021-07-02T15:06:24Z</time>
      </trkpt>
      <trkpt lat="41.967537" lon="2.727862">
        <ele>104.83279</ele>
        <time>2021-07-02T15:06:25Z</time>
      </trkpt>
      <trkpt lat="41.967537" lon="2.727862">
        <ele>105.42697</ele>
        <time>2021-07-02T15:06:26Z</time>
      </trkpt>
      <trkpt lat="41.967567" lon="2.727597">
        <ele>105.16080</ele>
        <time>2021-07-02T15:06:27Z</time>
      </trkpt>
      <trkpt lat="41.967598" lon="2.727309">
        <ele>104.47079</ele>
        <time>2021-07-02T15:06:28Z</time>
      </trkpt>
      <trkpt lat="41.967636" lon="2.726981">
        <ele>104.76791</ele>
        <time>2021-07-02T15:06:29Z</time>
      </trkpt>
      <trkpt lat="41.967667" lon="2.726717">
        <ele>105.03256</ele>
        <time>2021-07-02T15:06:30Z</time>
      </trkpt>
      <trkpt lat="41.967697" lon="2.726434">
        <ele>104.87265</ele>
        <time>2021-07-02T15:06:31Z</time>
      </trkpt>
      <trkpt lat="41.967731" lon="2.726168">
        <ele>104.99631</ele>
        <time>2021-07-02T15:06:32Z</time>
      </trkpt>
      <trkpt lat="41.967770" lon="2.725876">
        <ele>104.86642</ele>
        <time>2021-07-02T15:06:33Z</time>
      </trkpt>
      <trkpt lat="41.967800" lon="2.725622">
        <ele>105.18759</ele>
        <time>2021-07-02T15:06:34Z</time>
      </trkpt>
      <trkpt lat="41.967842" lon="2.725284">
        <ele>104.99503</ele>
        <time>2021-07-02T15:06:35Z</time>
      </trkpt>
      <trkpt lat="41.967876" lon="2.724983">
        <ele>104.94876</ele>
        <time>2021-07-02T15:06:36Z</time>
      </trkpt>
      <trkpt lat="41.967911" lon="2.724641">
        <ele>104.71817</ele>
        <time>2021-07-02T15:06:37Z</time>
      </trkpt>
      <trkpt lat="41.967937" lon="2.724322">
        <ele>104.78464</ele>
        <time>2021-07-02T15:06:38Z</time>
      </trkpt>
      <trkpt lat="41.967964" lon="2.723996">
        <ele>105.36368</ele>
        <time>2021-07-02T15:06:39Z</time>
      </trkpt>
      <trkpt lat="41.967995" lon="2.723668">
        <ele>105.69974</ele>
        <time>2021-07-02T15:06:40Z</time>
      </trkpt>
      <trkpt lat="41.968025" lon="2.723317">
        <ele>105.90506</ele>
        <time>2021-07-02T15:06:41Z</time>
      </trkpt>
      <trkpt lat="41.968060" lon="2.722952">
        <ele>106.19675</ele>
        <time>2021-07-02T15:06:42Z</time>
      </trkpt>
      <trkpt lat="41.968082" lon="2.722599">
        <ele>106.68173</ele>
        <time>2021-07-02T15:06:43Z</time>
      </trkpt>
      <trkpt lat="41.968094" lon="2.722276">
        <ele>107.29306</ele>
        <time>2021-07-02T15:06:44Z</time>
      </trkpt>
      <trkpt lat="41.968086" lon="2.721943">
        <ele>107.67868</ele>
        <time>2021-07-02T15:06:45Z</time>
      </trkpt>
      <trkpt lat="41.968143" lon="2.721609">
        <ele>107.78433</ele>
        <time>2021-07-02T15:06:46Z</time>
      </trkpt>
      <trkpt lat="41.968193" lon="2.721298">
        <ele>108.35629</ele>
        <time>2021-07-02T15:06:47Z</time>
      </trkpt>
      <trkpt lat="41.968269" lon="2.720938">
        <ele>108.26144</ele>
        <time>2021-07-02T15:06:48Z</time>
      </trkpt>
      <trkpt lat="41.968346" lon="2.720643">
        <ele>108.04660</ele>
        <time>2021-07-02T15:06:49Z</time>
      </trkpt>
      <trkpt lat="41.968426" lon="2.720403">
        <ele>107.55789</ele>
        <time>2021-07-02T15:06:50Z</time>
      </trkpt>
      <trkpt lat="41.968533" lon="2.720182">
        <ele>107.75607</ele>
        <time>2021-07-02T15:06:51Z</time>
      </trkpt>
      <trkpt lat="41.968678" lon="2.719978">
        <ele>107.53036</ele>
        <time>2021-07-02T15:06:52Z</time>
      </trkpt>
      <trkpt lat="41.968876" lon="2.719743">
        <ele>106.89291</ele>
        <time>2021-07-02T15:06:53Z</time>
      </trkpt>
      <trkpt lat="41.969112" lon="2.719465">
        <ele>106.58762</ele>
        <time>2021-07-02T15:06:54Z</time>
      </trkpt>
      <trkpt lat="41.969376" lon="2.719151">
        <ele>106.61911</ele>
        <time>2021-07-02T15:06:55Z</time>
      </trkpt>
      <trkpt lat="41.969639" lon="2.718841">
        <ele>106.44730</ele>
        <time>2021-07-02T15:06:56Z</time>
      </trkpt>
      <trkpt lat="41.969864" lon="2.718492">
        <ele>106.34372</ele>
        <time>2021-07-02T15:06:57Z</time>
      </trkpt>
      <trkpt lat="41.970070" lon="2.718234">
        <ele>106.51871</ele>
        <time>2021-07-02T15:06:58Z</time>
      </trkpt>
      <trkpt lat="41.970070" lon="2.718234">
        <ele>106.20602</ele>
        <time>2021-07-02T15:06:59Z</time>
      </trkpt>
      <trkpt lat="41.970291" lon="2.717957">
        <ele>106.03415</ele>
        <time>2021-07-02T15:07:00Z</time>
      </trkpt>
      <trkpt lat="41.970520" lon="2.717672">
        <ele>106.03201</ele>
        <time>2021-07-02T15:07:01Z</time>
      </trkpt>
      <trkpt lat="41.970760" lon="2.717373">
        <ele>105.89865</ele>
        <time>2021-07-02T15:07:02Z</time>
      </trkpt>
      <trkpt lat="41.970993" lon="2.717081">
        <ele>105.92276</ele>
        <time>2021-07-02T15:07:03Z</time>
      </trkpt>
      <trkpt lat="41.971210" lon="2.716810">
        <ele>105.83353</ele>
        <time>2021-07-02T15:07:04Z</time>
      </trkpt>
      <trkpt lat="41.971432" lon="2.716538">
        <ele>106.43137</ele>
        <time>2021-07-02T15:07:05Z</time>
      </trkpt>
      <trkpt lat="41.971645" lon="2.716271">
        <ele>106.60788</ele>
        <time>2021-07-02T15:07:06Z</time>
      </trkpt>
      <trkpt lat="41.971882" lon="2.715976">
        <ele>107.18027</ele>
        <time>2021-07-02T15:07:07Z</time>
      </trkpt>
      <trkpt lat="41.972103" lon="2.715699">
        <ele>106.79971</ele>
        <time>2021-07-02T15:07:08Z</time>
      </trkpt>
      <trkpt lat="41.972321" lon="2.715430">
        <ele>106.97092</ele>
        <time>2021-07-02T15:07:09Z</time>
      </trkpt>
      <trkpt lat="41.972534" lon="2.715166">
        <ele>106.78354</ele>
        <time>2021-07-02T15:07:10Z</time>
      </trkpt>
      <trkpt lat="41.972755" lon="2.714887">
        <ele>107.27646</ele>
        <time>2021-07-02T15:07:11Z</time>
      </trkpt>
      <trkpt lat="41.972965" lon="2.714625">
        <ele>107.49222</ele>
        <time>2021-07-02T15:07:12Z</time>
      </trkpt>
      <trkpt lat="41.973160" lon="2.714387">
        <ele>107.75381</ele>
        <time>2021-07-02T15:07:13Z</time>
      </trkpt>
      <trkpt lat="41.973366" lon="2.714131">
        <ele>107.98459</ele>
        <time>2021-07-02T15:07:14Z</time>
      </trkpt>
      <trkpt lat="41.973564" lon="2.713880">
        <ele>108.30118</ele>
        <time>2021-07-02T15:07:15Z</time>
      </trkpt>
      <trkpt lat="41.973763" lon="2.713635">
        <ele>108.40683</ele>
        <time>2021-07-02T15:07:16Z</time>
      </trkpt>
      <trkpt lat="41.973961" lon="2.713390">
        <ele>108.42056</ele>
        <time>2021-07-02T15:07:17Z</time>
      </trkpt>
      <trkpt lat="41.974155" lon="2.713145">
        <ele>108.71323</ele>
        <time>2021-07-02T15:07:18Z</time>
      </trkpt>
      <trkpt lat="41.974361" lon="2.712889">
        <ele>109.36710</ele>
        <time>2021-07-02T15:07:19Z</time>
      </trkpt>
      <trkpt lat="41.974560" lon="2.712643">
        <ele>109.66422</ele>
        <time>2021-07-02T15:07:20Z</time>
      </trkpt>
      <trkpt lat="41.974762" lon="2.712390">
        <ele>109.44174</ele>
        <time>2021-07-02T15:07:21Z</time>
      </trkpt>
      <trkpt lat="41.974991" lon="2.712106">
        <ele>109.86569</ele>
        <time>2021-07-02T15:07:22Z</time>
      </trkpt>
      <trkpt lat="41.975208" lon="2.711833">
        <ele>110.13943</ele>
        <time>2021-07-02T15:07:23Z</time>
      </trkpt>
      <trkpt lat="41.975430" lon="2.711557">
        <ele>109.88077</ele>
        <time>2021-07-02T15:07:24Z</time>
      </trkpt>
      <trkpt lat="41.975430" lon="2.711557">
        <ele>109.55252</ele>
        <time>2021-07-02T15:07:25Z</time>
      </trkpt>
      <trkpt lat="41.975647" lon="2.711287">
        <ele>109.55106</ele>
        <time>2021-07-02T15:07:26Z</time>
      </trkpt>
      <trkpt lat="41.975861" lon="2.711022">
        <ele>110.14352</ele>
        <time>2021-07-02T15:07:27Z</time>
      </trkpt>
      <trkpt lat="41.976067" lon="2.710768">
        <ele>110.24741</ele>
        <time>2021-07-02T15:07:28Z</time>
      </trkpt>
      <trkpt lat="41.976280" lon="2.710502">
        <ele>110.36032</ele>
        <time>2021-07-02T15:07:29Z</time>
      </trkpt>
      <trkpt lat="41.976479" lon="2.710255">
        <ele>110.65225</ele>
        <time>2021-07-02T15:07:30Z</time>
      </trkpt>
      <trkpt lat="41.976681" lon="2.710003">
        <ele>110.69852</ele>
        <time>2021-07-02T15:07:31Z</time>
      </trkpt>
      <trkpt lat="41.976879" lon="2.709752">
        <ele>110.68173</ele>
        <time>2021-07-02T15:07:32Z</time>
      </trkpt>
      <trkpt lat="41.977074" lon="2.709508">
        <ele>110.59427</ele>
        <time>2021-07-02T15:07:33Z</time>
      </trkpt>
      <trkpt lat="41.977287" lon="2.709228">
        <ele>110.78946</ele>
        <time>2021-07-02T15:07:34Z</time>
      </trkpt>
      <trkpt lat="41.977501" lon="2.708966">
        <ele>110.67551</ele>
        <time>2021-07-02T15:07:35Z</time>
      </trkpt>
      <trkpt lat="41.977699" lon="2.708716">
        <ele>111.14371</ele>
        <time>2021-07-02T15:07:36Z</time>
      </trkpt>
      <trkpt lat="41.977871" lon="2.708502">
        <ele>111.32291</ele>
        <time>2021-07-02T15:07:37Z</time>
      </trkpt>
      <trkpt lat="41.978039" lon="2.708277">
        <ele>111.93204</ele>
        <time>2021-07-02T15:07:38Z</time>
      </trkpt>
      <trkpt lat="41.978191" lon="2.708042">
        <ele>112.35397</ele>
        <time>2021-07-02T15:07:39Z</time>
      </trkpt>
      <trkpt lat="41.978321" lon="2.707763">
        <ele>112.91428</ele>
        <time>2021-07-02T15:07:40Z</time>
      </trkpt>
      <trkpt lat="41.978405" lon="2.707498">
        <ele>113.53793</ele>
        <time>2021-07-02T15:07:41Z</time>
      </trkpt>
      <trkpt lat="41.978458" lon="2.707221">
        <ele>113.89505</ele>
        <time>2021-07-02T15:07:42Z</time>
      </trkpt>
      <trkpt lat="41.978535" lon="2.706844">
        <ele>114.29288</ele>
        <time>2021-07-02T15:07:43Z</time>
      </trkpt>
      <trkpt lat="41.978615" lon="2.706419">
        <ele>114.08310</ele>
        <time>2021-07-02T15:07:44Z</time>
      </trkpt>
      <trkpt lat="41.978680" lon="2.706030">
        <ele>114.19229</ele>
        <time>2021-07-02T15:07:45Z</time>
      </trkpt>
      <trkpt lat="41.978737" lon="2.705694">
        <ele>113.81821</ele>
        <time>2021-07-02T15:07:46Z</time>
      </trkpt>
      <trkpt lat="41.978786" lon="2.705397">
        <ele>114.45383</ele>
        <time>2021-07-02T15:07:47Z</time>
      </trkpt>
      <trkpt lat="41.978828" lon="2.705091">
        <ele>113.73569</ele>
        <time>2021-07-02T15:07:48Z</time>
      </trkpt>
      <trkpt lat="41.978851" lon="2.704756">
        <ele>113.36819</ele>
        <time>2021-07-02T15:07:49Z</time>
      </trkpt>
      <trkpt lat="41.978840" lon="2.704425">
        <ele>113.15866</ele>
        <time>2021-07-02T15:07:50Z</time>
      </trkpt>
      <trkpt lat="41.978821" lon="2.704092">
        <ele>113.18344</ele>
        <time>2021-07-02T15:07:51Z</time>
      </trkpt>
      <trkpt lat="41.978798" lon="2.703751">
        <ele>113.31052</ele>
        <time>2021-07-02T15:07:52Z</time>
      </trkpt>
      <trkpt lat="41.978783" lon="2.703383">
        <ele>113.17569</ele>
        <time>2021-07-02T15:07:53Z</time>
      </trkpt>
      <trkpt lat="41.978764" lon="2.703041">
        <ele>113.33200</ele>
        <time>2021-07-02T15:07:54Z</time>
      </trkpt>
      <trkpt lat="41.978748" lon="2.702705">
        <ele>113.29312</ele>
        <time>2021-07-02T15:07:55Z</time>
      </trkpt>
      <trkpt lat="41.978737" lon="2.702396">
        <ele>113.52975</ele>
        <time>2021-07-02T15:07:56Z</time>
      </trkpt>
      <trkpt lat="41.978737" lon="2.702396">
        <ele>114.13681</ele>
        <time>2021-07-02T15:07:57Z</time>
      </trkpt>
      <trkpt lat="41.978722" lon="2.702113">
        <ele>114.01474</ele>
        <time>2021-07-02T15:07:58Z</time>
      </trkpt>
      <trkpt lat="41.978703" lon="2.701806">
        <ele>113.91550</ele>
        <time>2021-07-02T15:07:59Z</time>
      </trkpt>
      <trkpt lat="41.978649" lon="2.701519">
        <ele>113.78598</ele>
        <time>2021-07-02T15:08:00Z</time>
      </trkpt>
      <trkpt lat="41.978542" lon="2.701237">
        <ele>113.42209</ele>
        <time>2021-07-02T15:08:01Z</time>
      </trkpt>
      <trkpt lat="41.978394" lon="2.700983">
        <ele>113.38699</ele>
        <time>2021-07-02T15:08:02Z</time>
      </trkpt>
      <trkpt lat="41.978230" lon="2.700759">
        <ele>112.93033</ele>
        <time>2021-07-02T15:08:03Z</time>
      </trkpt>
      <trkpt lat="41.978031" lon="2.700587">
        <ele>113.74887</ele>
        <time>2021-07-02T15:08:04Z</time>
      </trkpt>
      <trkpt lat="41.977848" lon="2.700470">
        <ele>113.52383</ele>
        <time>2021-07-02T15:08:05Z</time>
      </trkpt>
      <trkpt lat="41.977638" lon="2.700332">
        <ele>113.46640</ele>
        <time>2021-07-02T15:08:06Z</time>
      </trkpt>
      <trkpt lat="41.977440" lon="2.700145">
        <ele>113.48593</ele>
        <time>2021-07-02T15:08:07Z</time>
      </trkpt>
      <trkpt lat="41.977299" lon="2.699907">
        <ele>112.96439</ele>
        <time>2021-07-02T15:08:08Z</time>
      </trkpt>
      <trkpt lat="41.977200" lon="2.699658">
        <ele>112.76804</ele>
        <time>2021-07-02T15:08:09Z</time>
      </trkpt>
      <trkpt lat="41.977089" lon="2.699373">
        <ele>111.89999</ele>
        <time>2021-07-02T15:08:10Z</time>
      </trkpt>
      <trkpt lat="41.976955" lon="2.699043">
        <ele>112.26706</ele>
        <time>2021-07-02T15:08:11Z</time>
      </trkpt>
      <trkpt lat="41.976860" lon="2.698804">
        <ele>112.40573</ele>
        <time>2021-07-02T15:08:12Z</time>
      </trkpt>
      <trkpt lat="41.976772" lon="2.698579">
        <ele>112.17953</ele>
        <time>2021-07-02T15:08:13Z</time>
      </trkpt>
      <trkpt lat="41.976685" lon="2.698344">
        <ele>112.44540</ele>
        <time>2021-07-02T15:08:14Z</time>
      </trkpt>
      <trkpt lat="41.976593" lon="2.698110">
        <ele>112.17911</ele>
        <time>2021-07-02T15:08:15Z</time>
      </trkpt>
      <trkpt lat="41.976501" lon="2.697887">
        <ele>112.80862</ele>
        <time>2021-07-02T15:08:16Z</time>
      </trkpt>
      <trkpt lat="41.976414" lon="2.697668">
        <ele>114.56107</ele>
        <time>2021-07-02T15:08:17Z</time>
      </trkpt>
      <trkpt lat="41.976334" lon="2.697442">
        <ele>115.13364</ele>
        <time>2021-07-02T15:08:18Z</time>
      </trkpt>
      <trkpt lat="41.976284" lon="2.697183">
        <ele>116.03098</ele>
        <time>2021-07-02T15:08:19Z</time>
      </trkpt>
      <trkpt lat="41.976227" lon="2.696898">
        <ele>116.90524</ele>
        <time>2021-07-02T15:08:20Z</time>
      </trkpt>
      <trkpt lat="41.976170" lon="2.696656">
        <ele>117.07382</ele>
        <time>2021-07-02T15:08:21Z</time>
      </trkpt>
      <trkpt lat="41.976116" lon="2.696425">
        <ele>117.68698</ele>
        <time>2021-07-02T15:08:22Z</time>
      </trkpt>
      <trkpt lat="41.976048" lon="2.696167">
        <ele>116.62788</ele>
        <time>2021-07-02T15:08:23Z</time>
      </trkpt>
      <trkpt lat="41.975952" lon="2.695935">
        <ele>116.39270</ele>
        <time>2021-07-02T15:08:24Z</time>
      </trkpt>
      <trkpt lat="41.975952" lon="2.695935">
        <ele>116.48648</ele>
        <time>2021-07-02T15:08:25Z</time>
      </trkpt>
      <trkpt lat="41.975861" lon="2.695752">
        <ele>116.55032</ele>
        <time>2021-07-02T15:08:26Z</time>
      </trkpt>
      <trkpt lat="41.975754" lon="2.695545">
        <ele>116.19778</ele>
        <time>2021-07-02T15:08:27Z</time>
      </trkpt>
      <trkpt lat="41.975624" lon="2.695338">
        <ele>115.99136</ele>
        <time>2021-07-02T15:08:28Z</time>
      </trkpt>
      <trkpt lat="41.975513" lon="2.695134">
        <ele>115.96698</ele>
        <time>2021-07-02T15:08:29Z</time>
      </trkpt>
      <trkpt lat="41.975410" lon="2.694941">
        <ele>117.17834</ele>
        <time>2021-07-02T15:08:30Z</time>
      </trkpt>
      <trkpt lat="41.975330" lon="2.694764">
        <ele>116.43600</ele>
        <time>2021-07-02T15:08:31Z</time>
      </trkpt>
      <trkpt lat="41.975231" lon="2.694555">
        <ele>116.46036</ele>
        <time>2021-07-02T15:08:32Z</time>
      </trkpt>
      <trkpt lat="41.975124" lon="2.694326">
        <ele>116.90079</ele>
        <time>2021-07-02T15:08:33Z</time>
      </trkpt>
      <trkpt lat="41.975029" lon="2.694116">
        <ele>116.94638</ele>
        <time>2021-07-02T15:08:34Z</time>
      </trkpt>
      <trkpt lat="41.974926" lon="2.693892">
        <ele>117.22897</ele>
        <time>2021-07-02T15:08:35Z</time>
      </trkpt>
      <trkpt lat="41.974831" lon="2.693691">
        <ele>117.29471</ele>
        <time>2021-07-02T15:08:36Z</time>
      </trkpt>
      <trkpt lat="41.974697" lon="2.693472">
        <ele>117.54642</ele>
        <time>2021-07-02T15:08:37Z</time>
      </trkpt>
      <trkpt lat="41.974579" lon="2.693266">
        <ele>117.59647</ele>
        <time>2021-07-02T15:08:38Z</time>
      </trkpt>
      <trkpt lat="41.974468" lon="2.693074">
        <ele>116.18630</ele>
        <time>2021-07-02T15:08:39Z</time>
      </trkpt>
      <trkpt lat="41.974361" lon="2.692872">
        <ele>116.11253</ele>
        <time>2021-07-02T15:08:40Z</time>
      </trkpt>
      <trkpt lat="41.974255" lon="2.692671">
        <ele>116.13408</ele>
        <time>2021-07-02T15:08:41Z</time>
      </trkpt>
      <trkpt lat="41.974171" lon="2.692469">
        <ele>116.73911</ele>
        <time>2021-07-02T15:08:42Z</time>
      </trkpt>
      <trkpt lat="41.974098" lon="2.692244">
        <ele>116.22427</ele>
        <time>2021-07-02T15:08:43Z</time>
      </trkpt>
      <trkpt lat="41.974022" lon="2.691970">
        <ele>117.30966</ele>
        <time>2021-07-02T15:08:44Z</time>
      </trkpt>
      <trkpt lat="41.973930" lon="2.691636">
        <ele>117.32407</ele>
        <time>2021-07-02T15:08:45Z</time>
      </trkpt>
      <trkpt lat="41.973835" lon="2.691303">
        <ele>117.28854</ele>
        <time>2021-07-02T15:08:46Z</time>
      </trkpt>
      <trkpt lat="41.973763" lon="2.691034">
        <ele>116.78091</ele>
        <time>2021-07-02T15:08:47Z</time>
      </trkpt>
      <trkpt lat="41.973763" lon="2.691034">
        <ele>116.28342</ele>
        <time>2021-07-02T15:08:48Z</time>
      </trkpt>
      <trkpt lat="41.973686" lon="2.690756">
        <ele>116.93564</ele>
        <time>2021-07-02T15:08:49Z</time>
      </trkpt>
      <trkpt lat="41.973606" lon="2.690475">
        <ele>117.27567</ele>
        <time>2021-07-02T15:08:50Z</time>
      </trkpt>
      <trkpt lat="41.973545" lon="2.690253">
        <ele>117.47397</ele>
        <time>2021-07-02T15:08:51Z</time>
      </trkpt>
      <trkpt lat="41.973473" lon="2.689993">
        <ele>117.88589</ele>
        <time>2021-07-02T15:08:52Z</time>
      </trkpt>
      <trkpt lat="41.973412" lon="2.689765">
        <ele>118.81485</ele>
        <time>2021-07-02T15:08:53Z</time>
      </trkpt>
      <trkpt lat="41.973331" lon="2.689488">
        <ele>118.89438</ele>
        <time>2021-07-02T15:08:54Z</time>
      </trkpt>
      <trkpt lat="41.973259" lon="2.689262">
        <ele>118.73056</ele>
        <time>2021-07-02T15:08:55Z</time>
      </trkpt>
      <trkpt lat="41.973152" lon="2.688979">
        <ele>118.63535</ele>
        <time>2021-07-02T15:08:56Z</time>
      </trkpt>
      <trkpt lat="41.973053" lon="2.688744">
        <ele>118.61148</ele>
        <time>2021-07-02T15:08:57Z</time>
      </trkpt>
      <trkpt lat="41.972927" lon="2.688486">
        <ele>118.53232</ele>
        <time>2021-07-02T15:08:58Z</time>
      </trkpt>
      <trkpt lat="41.972813" lon="2.688245">
        <ele>118.20633</ele>
        <time>2021-07-02T15:08:59Z</time>
      </trkpt>
      <trkpt lat="41.972694" lon="2.688007">
        <ele>118.46249</ele>
        <time>2021-07-02T15:09:00Z</time>
      </trkpt>
      <trkpt lat="41.972588" lon="2.687786">
        <ele>117.01425</ele>
        <time>2021-07-02T15:09:01Z</time>
      </trkpt>
      <trkpt lat="41.972485" lon="2.687580">
        <ele>116.79301</ele>
        <time>2021-07-02T15:09:02Z</time>
      </trkpt>
      <trkpt lat="41.972401" lon="2.687388">
        <ele>116.65224</ele>
        <time>2021-07-02T15:09:03Z</time>
      </trkpt>
      <trkpt lat="41.972332" lon="2.687154">
        <ele>120.03128</ele>
        <time>2021-07-02T15:09:04Z</time>
      </trkpt>
      <trkpt lat="41.972298" lon="2.686953">
        <ele>120.40756</ele>
        <time>2021-07-02T15:09:05Z</time>
      </trkpt>
      <trkpt lat="41.972267" lon="2.686662">
        <ele>119.82651</ele>
        <time>2021-07-02T15:09:06Z</time>
      </trkpt>
      <trkpt lat="41.972248" lon="2.686361">
        <ele>119.98154</ele>
        <time>2021-07-02T15:09:07Z</time>
      </trkpt>
      <trkpt lat="41.972233" lon="2.686078">
        <ele>117.71621</ele>
        <time>2021-07-02T15:09:08Z</time>
      </trkpt>
      <trkpt lat="41.972221" lon="2.685851">
        <ele>117.53936</ele>
        <time>2021-07-02T15:09:09Z</time>
      </trkpt>
      <trkpt lat="41.972214" lon="2.685642">
        <ele>116.08938</ele>
        <time>2021-07-02T15:09:10Z</time>
      </trkpt>
      <trkpt lat="41.972206" lon="2.685443">
        <ele>115.52061</ele>
        <time>2021-07-02T15:09:11Z</time>
      </trkpt>
      <trkpt lat="41.972202" lon="2.685272">
        <ele>115.03927</ele>
        <time>2021-07-02T15:09:12Z</time>
      </trkpt>
      <trkpt lat="41.972195" lon="2.685112">
        <ele>114.54693</ele>
        <time>2021-07-02T15:09:13Z</time>
      </trkpt>
      <trkpt lat="41.972187" lon="2.684946">
        <ele>114.48083</ele>
        <time>2021-07-02T15:09:14Z</time>
      </trkpt>
      <trkpt lat="41.972179" lon="2.684781">
        <ele>114.22166</ele>
        <time>2021-07-02T15:09:15Z</time>
      </trkpt>
      <trkpt lat="41.972176" lon="2.684614">
        <ele>114.22166</ele>
        <time>2021-07-02T15:09:16Z</time>
      </trkpt>
      <trkpt lat="41.972168" lon="2.684444">
        <ele>114.55507</ele>
        <time>2021-07-02T15:09:17Z</time>
      </trkpt>
      <trkpt lat="41.972168" lon="2.684444">
        <ele>114.77137</ele>
        <time>2021-07-02T15:09:18Z</time>
      </trkpt>
      <trkpt lat="41.972160" lon="2.684295">
        <ele>114.08239</ele>
        <time>2021-07-02T15:09:19Z</time>
      </trkpt>
      <trkpt lat="41.972153" lon="2.684042">
        <ele>113.79289</ele>
        <time>2021-07-02T15:09:20Z</time>
      </trkpt>
      <trkpt lat="41.972153" lon="2.684042">
        <ele>113.82233</ele>
        <time>2021-07-02T15:09:21Z</time>
      </trkpt>
      <trkpt lat="41.972149" lon="2.683920">
        <ele>114.06362</ele>
        <time>2021-07-02T15:09:22Z</time>
      </trkpt>
      <trkpt lat="41.972141" lon="2.683817">
        <ele>114.25550</ele>
        <time>2021-07-02T15:09:23Z</time>
      </trkpt>
      <trkpt lat="41.972137" lon="2.683701">
        <ele>114.37141</ele>
        <time>2021-07-02T15:09:24Z</time>
      </trkpt>
      <trkpt lat="41.972134" lon="2.683609">
        <ele>114.36695</ele>
        <time>2021-07-02T15:09:25Z</time>
      </trkpt>
      <trkpt lat="41.972126" lon="2.683512">
        <ele>114.45040</ele>
        <time>2021-07-02T15:09:26Z</time>
      </trkpt>
      <trkpt lat="41.972122" lon="2.683428">
        <ele>114.46358</ele>
        <time>2021-07-02T15:09:27Z</time>
      </trkpt>
      <trkpt lat="41.972118" lon="2.683349">
        <ele>114.36378</ele>
        <time>2021-07-02T15:09:28Z</time>
      </trkpt>
      <trkpt lat="41.972115" lon="2.683264">
        <ele>114.22131</ele>
        <time>2021-07-02T15:09:29Z</time>
      </trkpt>
      <trkpt lat="41.972115" lon="2.683198">
        <ele>114.35918</ele>
        <time>2021-07-02T15:09:30Z</time>
      </trkpt>
      <trkpt lat="41.972111" lon="2.683117">
        <ele>114.44876</ele>
        <time>2021-07-02T15:09:31Z</time>
      </trkpt>
      <trkpt lat="41.972103" lon="2.683004">
        <ele>114.69625</ele>
        <time>2021-07-02T15:09:32Z</time>
      </trkpt>
      <trkpt lat="41.972095" lon="2.682869">
        <ele>114.89198</ele>
        <time>2021-07-02T15:09:33Z</time>
      </trkpt>
      <trkpt lat="41.972088" lon="2.682705">
        <ele>115.83497</ele>
        <time>2021-07-02T15:09:34Z</time>
      </trkpt>
      <trkpt lat="41.972080" lon="2.682521">
        <ele>116.08252</ele>
        <time>2021-07-02T15:09:35Z</time>
      </trkpt>
      <trkpt lat="41.972073" lon="2.682356">
        <ele>116.02008</ele>
        <time>2021-07-02T15:09:36Z</time>
      </trkpt>
      <trkpt lat="41.972065" lon="2.682176">
        <ele>116.03828</ele>
        <time>2021-07-02T15:09:37Z</time>
      </trkpt>
      <trkpt lat="41.972054" lon="2.681933">
        <ele>116.90128</ele>
        <time>2021-07-02T15:09:38Z</time>
      </trkpt>
      <trkpt lat="41.972042" lon="2.681704">
        <ele>117.23998</ele>
        <time>2021-07-02T15:09:39Z</time>
      </trkpt>
      <trkpt lat="41.972031" lon="2.681477">
        <ele>117.44815</ele>
        <time>2021-07-02T15:09:40Z</time>
      </trkpt>
      <trkpt lat="41.972019" lon="2.681228">
        <ele>117.90883</ele>
        <time>2021-07-02T15:09:41Z</time>
      </trkpt>
      <trkpt lat="41.972008" lon="2.680970">
        <ele>118.51315</ele>
        <time>2021-07-02T15:09:42Z</time>
      </trkpt>
      <trkpt lat="41.972008" lon="2.680970">
        <ele>117.54401</ele>
        <time>2021-07-02T15:09:43Z</time>
      </trkpt>
      <trkpt lat="41.971985" lon="2.680475">
        <ele>118.13948</ele>
        <time>2021-07-02T15:09:44Z</time>
      </trkpt>
      <trkpt lat="41.971985" lon="2.680475">
        <ele>118.82623</ele>
        <time>2021-07-02T15:09:45Z</time>
      </trkpt>
      <trkpt lat="41.971970" lon="2.680234">
        <ele>119.05299</ele>
        <time>2021-07-02T15:09:46Z</time>
      </trkpt>
      <trkpt lat="41.971958" lon="2.679983">
        <ele>119.77502</ele>
        <time>2021-07-02T15:09:47Z</time>
      </trkpt>
      <trkpt lat="41.971947" lon="2.679748">
        <ele>120.66849</ele>
        <time>2021-07-02T15:09:48Z</time>
      </trkpt>
      <trkpt lat="41.971931" lon="2.679527">
        <ele>122.10725</ele>
        <time>2021-07-02T15:09:49Z</time>
      </trkpt>
      <trkpt lat="41.971920" lon="2.679269">
        <ele>121.16100</ele>
        <time>2021-07-02T15:09:50Z</time>
      </trkpt>
      <trkpt lat="41.971916" lon="2.679024">
        <ele>120.54619</ele>
        <time>2021-07-02T15:09:51Z</time>
      </trkpt>
      <trkpt lat="41.971905" lon="2.678776">
        <ele>121.28743</ele>
        <time>2021-07-02T15:09:52Z</time>
      </trkpt>
      <trkpt lat="41.971889" lon="2.678495">
        <ele>121.71904</ele>
        <time>2021-07-02T15:09:53Z</time>
      </trkpt>
      <trkpt lat="41.971878" lon="2.678250">
        <ele>122.83357</ele>
        <time>2021-07-02T15:09:54Z</time>
      </trkpt>
      <trkpt lat="41.971874" lon="2.678043">
        <ele>123.35415</ele>
        <time>2021-07-02T15:09:55Z</time>
      </trkpt>
      <trkpt lat="41.971867" lon="2.677770">
        <ele>123.82632</ele>
        <time>2021-07-02T15:09:56Z</time>
      </trkpt>
      <trkpt lat="41.971851" lon="2.677513">
        <ele>123.50743</ele>
        <time>2021-07-02T15:09:57Z</time>
      </trkpt>
      <trkpt lat="41.971840" lon="2.677272">
        <ele>123.13519</ele>
        <time>2021-07-02T15:09:58Z</time>
      </trkpt>
      <trkpt lat="41.971828" lon="2.677033">
        <ele>123.45923</ele>
        <time>2021-07-02T15:09:59Z</time>
      </trkpt>
      <trkpt lat="41.971817" lon="2.676784">
        <ele>124.17245</ele>
        <time>2021-07-02T15:10:00Z</time>
      </trkpt>
      <trkpt lat="41.971809" lon="2.676637">
        <ele>124.82787</ele>
        <time>2021-07-02T15:10:01Z</time>
      </trkpt>
      <trkpt lat="41.971786" lon="2.676400">
        <ele>124.84199</ele>
        <time>2021-07-02T15:10:02Z</time>
      </trkpt>
      <trkpt lat="41.971760" lon="2.676267">
        <ele>124.63766</ele>
        <time>2021-07-02T15:10:03Z</time>
      </trkpt>
      <trkpt lat="41.971703" lon="2.676059">
        <ele>124.52613</ele>
        <time>2021-07-02T15:10:04Z</time>
      </trkpt>
      <trkpt lat="41.971638" lon="2.675894">
        <ele>124.80936</ele>
        <time>2021-07-02T15:10:05Z</time>
      </trkpt>
      <trkpt lat="41.971546" lon="2.675744">
        <ele>125.20937</ele>
        <time>2021-07-02T15:10:06Z</time>
      </trkpt>
      <trkpt lat="41.971443" lon="2.675591">
        <ele>125.51209</ele>
        <time>2021-07-02T15:10:07Z</time>
      </trkpt>
      <trkpt lat="41.971321" lon="2.675408">
        <ele>125.76852</ele>
        <time>2021-07-02T15:10:08Z</time>
      </trkpt>
      <trkpt lat="41.971321" lon="2.675408">
        <ele>125.11434</ele>
        <time>2021-07-02T15:10:09Z</time>
      </trkpt>
      <trkpt lat="41.971218" lon="2.675255">
        <ele>124.77318</ele>
        <time>2021-07-02T15:10:10Z</time>
      </trkpt>
      <trkpt lat="41.971119" lon="2.675107">
        <ele>125.17924</ele>
        <time>2021-07-02T15:10:11Z</time>
      </trkpt>
      <trkpt lat="41.971024" lon="2.674971">
        <ele>124.84030</ele>
        <time>2021-07-02T15:10:12Z</time>
      </trkpt>
      <trkpt lat="41.970932" lon="2.674837">
        <ele>125.04207</ele>
        <time>2021-07-02T15:10:13Z</time>
      </trkpt>
      <trkpt lat="41.970829" lon="2.674687">
        <ele>125.09660</ele>
        <time>2021-07-02T15:10:14Z</time>
      </trkpt>
      <trkpt lat="41.970737" lon="2.674549">
        <ele>125.22395</ele>
        <time>2021-07-02T15:10:15Z</time>
      </trkpt>
      <trkpt lat="41.970642" lon="2.674413">
        <ele>125.20766</ele>
        <time>2021-07-02T15:10:16Z</time>
      </trkpt>
      <trkpt lat="41.970543" lon="2.674266">
        <ele>125.10382</ele>
        <time>2021-07-02T15:10:17Z</time>
      </trkpt>
      <trkpt lat="41.970467" lon="2.674156">
        <ele>125.88712</ele>
        <time>2021-07-02T15:10:18Z</time>
      </trkpt>
      <trkpt lat="41.970364" lon="2.674004">
        <ele>126.05258</ele>
        <time>2021-07-02T15:10:19Z</time>
      </trkpt>
      <trkpt lat="41.970249" lon="2.673846">
        <ele>125.94910</ele>
        <time>2021-07-02T15:10:20Z</time>
      </trkpt>
      <trkpt lat="41.970150" lon="2.673718">
        <ele>125.82413</ele>
        <time>2021-07-02T15:10:21Z</time>
      </trkpt>
      <trkpt lat="41.970047" lon="2.673582">
        <ele>126.12949</ele>
        <time>2021-07-02T15:10:22Z</time>
      </trkpt>
      <trkpt lat="41.969948" lon="2.673456">
        <ele>126.83026</ele>
        <time>2021-07-02T15:10:23Z</time>
      </trkpt>
      <trkpt lat="41.969849" lon="2.673327">
        <ele>127.31427</ele>
        <time>2021-07-02T15:10:24Z</time>
      </trkpt>
      <trkpt lat="41.969765" lon="2.673214">
        <ele>128.06107</ele>
        <time>2021-07-02T15:10:25Z</time>
      </trkpt>
      <trkpt lat="41.969688" lon="2.673076">
        <ele>126.89942</ele>
        <time>2021-07-02T15:10:26Z</time>
      </trkpt>
      <trkpt lat="41.969578" lon="2.673012">
        <ele>126.09842</ele>
        <time>2021-07-02T15:10:27Z</time>
      </trkpt>
      <trkpt lat="41.969414" lon="2.672953">
        <ele>125.95897</ele>
        <time>2021-07-02T15:10:28Z</time>
      </trkpt>
      <trkpt lat="41.969307" lon="2.672930">
        <ele>125.33636</ele>
        <time>2021-07-02T15:10:29Z</time>
      </trkpt>
      <trkpt lat="41.969200" lon="2.672918">
        <ele>124.85074</ele>
        <time>2021-07-02T15:10:30Z</time>
      </trkpt>
      <trkpt lat="41.969131" lon="2.672910">
        <ele>124.24283</ele>
        <time>2021-07-02T15:10:31Z</time>
      </trkpt>
      <trkpt lat="41.969074" lon="2.672904">
        <ele>123.87456</ele>
        <time>2021-07-02T15:10:32Z</time>
      </trkpt>
      <trkpt lat="41.969067" lon="2.672903">
        <ele>124.07719</ele>
        <time>2021-07-02T15:10:33Z</time>
      </trkpt>
      <trkpt lat="41.969028" lon="2.672811">
        <ele>124.09193</ele>
        <time>2021-07-02T15:10:34Z</time>
      </trkpt>
      <trkpt lat="41.969025" lon="2.672669">
        <ele>123.99117</ele>
        <time>2021-07-02T15:10:35Z</time>
      </trkpt>
      <trkpt lat="41.969025" lon="2.672618">
        <ele>123.93583</ele>
        <time>2021-07-02T15:10:36Z</time>
      </trkpt>
      <trkpt lat="41.969025" lon="2.672573">
        <ele>124.06153</ele>
        <time>2021-07-02T15:10:37Z</time>
      </trkpt>
      <trkpt lat="41.969021" lon="2.672539">
        <ele>123.98334</ele>
        <time>2021-07-02T15:10:38Z</time>
      </trkpt>
      <trkpt lat="41.969021" lon="2.672488">
        <ele>123.83871</ele>
        <time>2021-07-02T15:10:39Z</time>
      </trkpt>
      <trkpt lat="41.969021" lon="2.672488">
        <ele>123.92317</ele>
        <time>2021-07-02T15:10:40Z</time>
      </trkpt>
      <trkpt lat="41.969021" lon="2.672449">
        <ele>124.15164</ele>
        <time>2021-07-02T15:10:41Z</time>
      </trkpt>
      <trkpt lat="41.969021" lon="2.672444">
        <ele>124.01218</ele>
        <time>2021-07-02T15:10:42Z</time>
      </trkpt>
      <trkpt lat="41.969021" lon="2.672402">
        <ele>124.12614</ele>
        <time>2021-07-02T15:10:43Z</time>
      </trkpt>
      <trkpt lat="41.969017" lon="2.672359">
        <ele>124.10288</ele>
        <time>2021-07-02T15:10:44Z</time>
      </trkpt>
      <trkpt lat="41.969017" lon="2.672312">
        <ele>124.26778</ele>
        <time>2021-07-02T15:10:45Z</time>
      </trkpt>
      <trkpt lat="41.969013" lon="2.672248">
        <ele>124.23182</ele>
        <time>2021-07-02T15:10:46Z</time>
      </trkpt>
      <trkpt lat="41.969013" lon="2.672175">
        <ele>124.19185</ele>
        <time>2021-07-02T15:10:47Z</time>
      </trkpt>
      <trkpt lat="41.969009" lon="2.672121">
        <ele>124.36536</ele>
        <time>2021-07-02T15:10:48Z</time>
      </trkpt>
      <trkpt lat="41.969009" lon="2.672055">
        <ele>124.60194</ele>
        <time>2021-07-02T15:10:49Z</time>
      </trkpt>
      <trkpt lat="41.969006" lon="2.671984">
        <ele>124.69268</ele>
        <time>2021-07-02T15:10:50Z</time>
      </trkpt>
      <trkpt lat="41.969002" lon="2.671899">
        <ele>124.55812</ele>
        <time>2021-07-02T15:10:51Z</time>
      </trkpt>
      <trkpt lat="41.968994" lon="2.671825">
        <ele>124.61237</ele>
        <time>2021-07-02T15:10:52Z</time>
      </trkpt>
      <trkpt lat="41.968990" lon="2.671772">
        <ele>124.69772</ele>
        <time>2021-07-02T15:10:53Z</time>
      </trkpt>
      <trkpt lat="41.968987" lon="2.671700">
        <ele>124.59290</ele>
        <time>2021-07-02T15:10:54Z</time>
      </trkpt>
      <trkpt lat="41.968971" lon="2.671582">
        <ele>124.15417</ele>
        <time>2021-07-02T15:10:55Z</time>
      </trkpt>
      <trkpt lat="41.968967" lon="2.671488">
        <ele>123.93871</ele>
        <time>2021-07-02T15:10:56Z</time>
      </trkpt>
      <trkpt lat="41.968960" lon="2.671392">
        <ele>123.77547</ele>
        <time>2021-07-02T15:10:57Z</time>
      </trkpt>
      <trkpt lat="41.968956" lon="2.671343">
        <ele>123.68066</ele>
        <time>2021-07-02T15:10:58Z</time>
      </trkpt>
      <trkpt lat="41.968956" lon="2.671270">
        <ele>123.32488</ele>
        <time>2021-07-02T15:10:59Z</time>
      </trkpt>
      <trkpt lat="41.968960" lon="2.671226">
        <ele>123.30425</ele>
        <time>2021-07-02T15:11:00Z</time>
      </trkpt>
      <trkpt lat="41.968964" lon="2.671194">
        <ele>123.35656</ele>
        <time>2021-07-02T15:11:01Z</time>
      </trkpt>
      <trkpt lat="41.968971" lon="2.671153">
        <ele>122.96443</ele>
        <time>2021-07-02T15:11:02Z</time>
      </trkpt>
      <trkpt lat="41.968990" lon="2.671097">
        <ele>122.83691</ele>
        <time>2021-07-02T15:11:03Z</time>
      </trkpt>
      <trkpt lat="41.968758" lon="2.671041">
        <ele>123.12492</ele>
        <time>2021-07-02T15:11:04Z</time>
      </trkpt>
      <trkpt lat="41.968693" lon="2.670964">
        <ele>122.90569</ele>
        <time>2021-07-02T15:11:05Z</time>
      </trkpt>
      <trkpt lat="41.968624" lon="2.670886">
        <ele>122.78316</ele>
        <time>2021-07-02T15:11:06Z</time>
      </trkpt>
      <trkpt lat="41.968567" lon="2.670821">
        <ele>122.71622</ele>
        <time>2021-07-02T15:11:07Z</time>
      </trkpt>
      <trkpt lat="41.968502" lon="2.670743">
        <ele>122.34939</ele>
        <time>2021-07-02T15:11:08Z</time>
      </trkpt>
      <trkpt lat="41.968502" lon="2.670743">
        <ele>122.68215</ele>
        <time>2021-07-02T15:11:09Z</time>
      </trkpt>
      <trkpt lat="41.968445" lon="2.670677">
        <ele>122.65441</ele>
        <time>2021-07-02T15:11:10Z</time>
      </trkpt>
      <trkpt lat="41.968346" lon="2.670523">
        <ele>122.35628</ele>
        <time>2021-07-02T15:11:11Z</time>
      </trkpt>
      <trkpt lat="41.968346" lon="2.670523">
        <ele>122.37038</ele>
        <time>2021-07-02T15:11:12Z</time>
      </trkpt>
      <trkpt lat="41.968311" lon="2.670451">
        <ele>122.48285</ele>
        <time>2021-07-02T15:11:13Z</time>
      </trkpt>
      <trkpt lat="41.968292" lon="2.670404">
        <ele>122.59998</ele>
        <time>2021-07-02T15:11:14Z</time>
      </trkpt>
      <trkpt lat="41.968292" lon="2.670404">
        <ele>122.54070</ele>
        <time>2021-07-02T15:11:15Z</time>
      </trkpt>
      <trkpt lat="41.968292" lon="2.670404">
        <ele>121.49880</ele>
        <time>2021-07-02T15:11:16Z</time>
      </trkpt>
      <trkpt lat="41.968273" lon="2.670363">
        <ele>121.35689</ele>
        <time>2021-07-02T15:11:17Z</time>
      </trkpt>
      <trkpt lat="41.968147" lon="2.670041">
        <ele>121.73054</ele>
        <time>2021-07-02T15:11:18Z</time>
      </trkpt>
      <trkpt lat="41.968044" lon="2.670111">
        <ele>122.44451</ele>
        <time>2021-07-02T15:11:19Z</time>
      </trkpt>
      <trkpt lat="41.967995" lon="2.670148">
        <ele>122.13284</ele>
        <time>2021-07-02T15:11:20Z</time>
      </trkpt>
      <trkpt lat="41.967926" lon="2.670196">
        <ele>122.51851</ele>
        <time>2021-07-02T15:11:21Z</time>
      </trkpt>
      <trkpt lat="41.967827" lon="2.670268">
        <ele>122.83459</ele>
        <time>2021-07-02T15:11:22Z</time>
      </trkpt>
      <trkpt lat="41.967808" lon="2.670283">
        <ele>123.42121</ele>
        <time>2021-07-02T15:11:23Z</time>
      </trkpt>
      <trkpt lat="41.967808" lon="2.670283">
        <ele>123.46510</ele>
        <time>2021-07-02T15:11:24Z</time>
      </trkpt>
      <trkpt lat="41.967682" lon="2.670376">
        <ele>122.67789</ele>
        <time>2021-07-02T15:11:25Z</time>
      </trkpt>
      <trkpt lat="41.967472" lon="2.670547">
        <ele>122.86115</ele>
        <time>2021-07-02T15:11:26Z</time>
      </trkpt>
      <trkpt lat="41.967396" lon="2.670611">
        <ele>122.89138</ele>
        <time>2021-07-02T15:11:27Z</time>
      </trkpt>
      <trkpt lat="41.967396" lon="2.670611">
        <ele>122.55012</ele>
        <time>2021-07-02T15:11:28Z</time>
      </trkpt>
      <trkpt lat="41.967297" lon="2.670693">
        <ele>122.25182</ele>
        <time>2021-07-02T15:11:29Z</time>
      </trkpt>
      <trkpt lat="41.967220" lon="2.670759">
        <ele>122.23204</ele>
        <time>2021-07-02T15:11:30Z</time>
      </trkpt>
      <trkpt lat="41.967197" lon="2.670777">
        <ele>122.48508</ele>
        <time>2021-07-02T15:11:31Z</time>
      </trkpt>
      <trkpt lat="41.967197" lon="2.670777">
        <ele>122.33338</ele>
        <time>2021-07-02T15:11:32Z</time>
      </trkpt>
      <trkpt lat="41.967197" lon="2.670777">
        <ele>122.43603</ele>
        <time>2021-07-02T15:11:33Z</time>
      </trkpt>
      <trkpt lat="41.967197" lon="2.670779">
        <ele>122.10143</ele>
        <time>2021-07-02T15:11:34Z</time>
      </trkpt>
      <trkpt lat="41.967007" lon="2.670933">
        <ele>121.87604</ele>
        <time>2021-07-02T15:11:35Z</time>
      </trkpt>
      <trkpt lat="41.966949" lon="2.670979">
        <ele>121.75400</ele>
        <time>2021-07-02T15:11:36Z</time>
      </trkpt>
      <trkpt lat="41.966915" lon="2.671005">
        <ele>121.81224</ele>
        <time>2021-07-02T15:11:37Z</time>
      </trkpt>
      <trkpt lat="41.966915" lon="2.671005">
        <ele>121.79649</ele>
        <time>2021-07-02T15:11:38Z</time>
      </trkpt>
      <trkpt lat="41.966915" lon="2.671005">
        <ele>121.78375</ele>
        <time>2021-07-02T15:11:39Z</time>
      </trkpt>
      <trkpt lat="41.966915" lon="2.671005">
        <ele>121.71289</ele>
        <time>2021-07-02T15:11:40Z</time>
      </trkpt>
      <trkpt lat="41.966915" lon="2.671005">
        <ele>121.29538</ele>
        <time>2021-07-02T15:11:41Z</time>
      </trkpt>
      <trkpt lat="41.966915" lon="2.671005">
        <ele>121.11613</ele>
        <time>2021-07-02T15:11:42Z</time>
      </trkpt>
      <trkpt lat="41.966915" lon="2.671005">
        <ele>120.85558</ele>
        <time>2021-07-02T15:11:43Z</time>
      </trkpt>
      <trkpt lat="41.966915" lon="2.671005">
        <ele>120.85232</ele>
        <time>2021-07-02T15:11:44Z</time>
      </trkpt>
      <trkpt lat="41.966915" lon="2.671005">
        <ele>120.92833</ele>
        <time>2021-07-02T15:11:45Z</time>
      </trkpt>
      <trkpt lat="41.966915" lon="2.671005">
        <ele>121.06432</ele>
        <time>2021-07-02T15:11:46Z</time>
      </trkpt>
      <trkpt lat="41.966915" lon="2.671005">
        <ele>120.97540</ele>
        <time>2021-07-02T15:11:47Z</time>
      </trkpt>
      <trkpt lat="41.966915" lon="2.671005">
        <ele>120.82759</ele>
        <time>2021-07-02T15:11:48Z</time>
      </trkpt>
      <trkpt lat="41.966915" lon="2.671005">
        <ele>120.72383</ele>
        <time>2021-07-02T15:11:49Z</time>
      </trkpt>
      <trkpt lat="41.966915" lon="2.671005">
        <ele>120.80372</ele>
        <time>2021-07-02T15:11:50Z</time>
      </trkpt>
      <trkpt lat="41.966915" lon="2.671005">
        <ele>120.75150</ele>
        <time>2021-07-02T15:11:51Z</time>
      </trkpt>
      <trkpt lat="41.966915" lon="2.671005">
        <ele>120.63803</ele>
        <time>2021-07-02T15:11:52Z</time>
      </trkpt>
      <trkpt lat="41.966915" lon="2.671005">
        <ele>116.26420</ele>
        <time>2021-07-02T15:11:53Z</time>
      </trkpt>
      <trkpt lat="41.966915" lon="2.671005">
        <ele>115.68936</ele>
        <time>2021-07-02T15:11:54Z</time>
      </trkpt>
      <trkpt lat="41.966915" lon="2.671005">
        <ele>115.83749</ele>
        <time>2021-07-02T15:11:55Z</time>
      </trkpt>
      <trkpt lat="41.966915" lon="2.671005">
        <ele>116.00211</ele>
        <time>2021-07-02T15:11:56Z</time>
      </trkpt>
      <trkpt lat="41.966915" lon="2.671005">
        <ele>115.39716</ele>
        <time>2021-07-02T15:11:57Z</time>
      </trkpt>
      <trkpt lat="41.966915" lon="2.671005">
        <ele>115.19016</ele>
        <time>2021-07-02T15:11:58Z</time>
      </trkpt>
      <trkpt lat="41.966915" lon="2.671005">
        <ele>115.11155</ele>
        <time>2021-07-02T15:11:59Z</time>
      </trkpt>
      <trkpt lat="41.966915" lon="2.671005">
        <ele>115.02814</ele>
        <time>2021-07-02T15:12:00Z</time>
      </trkpt>
      <trkpt lat="41.966915" lon="2.671005">
        <ele>115.14252</ele>
        <time>2021-07-02T15:12:01Z</time>
      </trkpt>
      <trkpt lat="41.966915" lon="2.671005">
        <ele>114.99393</ele>
        <time>2021-07-02T15:12:02Z</time>
      </trkpt>
      <trkpt lat="41.966915" lon="2.671005">
        <ele>117.55466</ele>
        <time>2021-07-02T15:12:03Z</time>
      </trkpt>
      <trkpt lat="41.966915" lon="2.671005">
        <ele>120.64173</ele>
        <time>2021-07-02T15:12:04Z</time>
      </trkpt>
      <trkpt lat="41.966915" lon="2.671005">
        <ele>121.68297</ele>
        <time>2021-07-02T15:12:05Z</time>
      </trkpt>
      <trkpt lat="41.966915" lon="2.671005">
        <ele>121.78123</ele>
        <time>2021-07-02T15:12:06Z</time>
      </trkpt>
      <trkpt lat="41.966915" lon="2.671005">
        <ele>121.85592</ele>
        <time>2021-07-02T15:12:07Z</time>
      </trkpt>
      <trkpt lat="41.966915" lon="2.671005">
        <ele>121.73864</ele>
        <time>2021-07-02T15:12:08Z</time>
      </trkpt>
      <trkpt lat="41.966915" lon="2.671005">
        <ele>121.79543</ele>
        <time>2021-07-02T15:12:09Z</time>
      </trkpt>
      <trkpt lat="41.966915" lon="2.671005">
        <ele>121.79443</ele>
        <time>2021-07-02T15:12:10Z</time>
      </trkpt>
      <trkpt lat="41.966915" lon="2.671005">
        <ele>121.83566</ele>
        <time>2021-07-02T15:12:11Z</time>
      </trkpt>
      <trkpt lat="41.966988" lon="2.670947">
        <ele>121.87084</ele>
        <time>2021-07-02T15:12:12Z</time>
      </trkpt>
      <trkpt lat="41.967018" lon="2.670921">
        <ele>121.87261</ele>
        <time>2021-07-02T15:12:13Z</time>
      </trkpt>
      <trkpt lat="41.967083" lon="2.670872">
        <ele>121.99636</ele>
        <time>2021-07-02T15:12:14Z</time>
      </trkpt>
      <trkpt lat="41.967182" lon="2.670791">
        <ele>122.30301</ele>
        <time>2021-07-02T15:12:15Z</time>
      </trkpt>
      <trkpt lat="41.967251" lon="2.670735">
        <ele>121.91238</ele>
        <time>2021-07-02T15:12:16Z</time>
      </trkpt>
      <trkpt lat="41.967312" lon="2.670682">
        <ele>121.75478</ele>
        <time>2021-07-02T15:12:17Z</time>
      </trkpt>
      <trkpt lat="41.967377" lon="2.670625">
        <ele>121.80433</ele>
        <time>2021-07-02T15:12:18Z</time>
      </trkpt>
      <trkpt lat="41.967445" lon="2.670568">
        <ele>121.88269</ele>
        <time>2021-07-02T15:12:19Z</time>
      </trkpt>
      <trkpt lat="41.967518" lon="2.670509">
        <ele>121.85416</ele>
        <time>2021-07-02T15:12:20Z</time>
      </trkpt>
      <trkpt lat="41.967602" lon="2.670440">
        <ele>122.00491</ele>
        <time>2021-07-02T15:12:21Z</time>
      </trkpt>
      <trkpt lat="41.967682" lon="2.670375">
        <ele>122.23145</ele>
        <time>2021-07-02T15:12:22Z</time>
      </trkpt>
      <trkpt lat="41.967758" lon="2.670314">
        <ele>121.93003</ele>
        <time>2021-07-02T15:12:23Z</time>
      </trkpt>
      <trkpt lat="41.967842" lon="2.670257">
        <ele>121.60445</ele>
        <time>2021-07-02T15:12:24Z</time>
      </trkpt>
      <trkpt lat="41.967915" lon="2.670204">
        <ele>121.28236</ele>
        <time>2021-07-02T15:12:25Z</time>
      </trkpt>
      <trkpt lat="41.967915" lon="2.670204">
        <ele>121.15392</ele>
        <time>2021-07-02T15:12:26Z</time>
      </trkpt>
      <trkpt lat="41.968006" lon="2.670140">
        <ele>120.90559</ele>
        <time>2021-07-02T15:12:27Z</time>
      </trkpt>
      <trkpt lat="41.968071" lon="2.670094">
        <ele>120.83293</ele>
        <time>2021-07-02T15:12:28Z</time>
      </trkpt>
      <trkpt lat="41.968121" lon="2.670057">
        <ele>120.91485</ele>
        <time>2021-07-02T15:12:29Z</time>
      </trkpt>
      <trkpt lat="41.968159" lon="2.670067">
        <ele>121.10400</ele>
        <time>2021-07-02T15:12:30Z</time>
      </trkpt>
      <trkpt lat="41.968208" lon="2.670197">
        <ele>121.17285</ele>
        <time>2021-07-02T15:12:31Z</time>
      </trkpt>
      <trkpt lat="41.968220" lon="2.670228">
        <ele>121.32899</ele>
        <time>2021-07-02T15:12:32Z</time>
      </trkpt>
      <trkpt lat="41.968254" lon="2.670311">
        <ele>121.41785</ele>
        <time>2021-07-02T15:12:33Z</time>
      </trkpt>
      <trkpt lat="41.968315" lon="2.670457">
        <ele>121.46358</ele>
        <time>2021-07-02T15:12:34Z</time>
      </trkpt>
      <trkpt lat="41.968349" lon="2.670539">
        <ele>121.41639</ele>
        <time>2021-07-02T15:12:35Z</time>
      </trkpt>
      <trkpt lat="41.968380" lon="2.670595">
        <ele>121.26583</ele>
        <time>2021-07-02T15:12:36Z</time>
      </trkpt>
      <trkpt lat="41.968414" lon="2.670646">
        <ele>121.31654</ele>
        <time>2021-07-02T15:12:37Z</time>
      </trkpt>
      <trkpt lat="41.968445" lon="2.670680">
        <ele>121.37045</ele>
        <time>2021-07-02T15:12:38Z</time>
      </trkpt>
      <trkpt lat="41.968494" lon="2.670736">
        <ele>121.44907</ele>
        <time>2021-07-02T15:12:39Z</time>
      </trkpt>
      <trkpt lat="41.968544" lon="2.670794">
        <ele>122.10586</ele>
        <time>2021-07-02T15:12:40Z</time>
      </trkpt>
      <trkpt lat="41.968609" lon="2.670868">
        <ele>122.43156</ele>
        <time>2021-07-02T15:12:41Z</time>
      </trkpt>
      <trkpt lat="41.968670" lon="2.670940">
        <ele>122.45377</ele>
        <time>2021-07-02T15:12:42Z</time>
      </trkpt>
      <trkpt lat="41.968739" lon="2.671022">
        <ele>122.28979</ele>
        <time>2021-07-02T15:12:43Z</time>
      </trkpt>
      <trkpt lat="41.968807" lon="2.671100">
        <ele>122.44131</ele>
        <time>2021-07-02T15:12:44Z</time>
      </trkpt>
      <trkpt lat="41.968868" lon="2.671161">
        <ele>122.67509</ele>
        <time>2021-07-02T15:12:45Z</time>
      </trkpt>
      <trkpt lat="41.968906" lon="2.671190">
        <ele>122.81211</ele>
        <time>2021-07-02T15:12:46Z</time>
      </trkpt>
      <trkpt lat="41.968922" lon="2.671201">
        <ele>122.94981</ele>
        <time>2021-07-02T15:12:47Z</time>
      </trkpt>
      <trkpt lat="41.968925" lon="2.671203">
        <ele>123.11417</ele>
        <time>2021-07-02T15:12:48Z</time>
      </trkpt>
      <trkpt lat="41.968929" lon="2.671205">
        <ele>123.01322</ele>
        <time>2021-07-02T15:12:49Z</time>
      </trkpt>
      <trkpt lat="41.968952" lon="2.671221">
        <ele>122.93621</ele>
        <time>2021-07-02T15:12:50Z</time>
      </trkpt>
      <trkpt lat="41.968971" lon="2.671146">
        <ele>123.25671</ele>
        <time>2021-07-02T15:12:51Z</time>
      </trkpt>
      <trkpt lat="41.969017" lon="2.671033">
        <ele>123.75307</ele>
        <time>2021-07-02T15:12:52Z</time>
      </trkpt>
      <trkpt lat="41.969082" lon="2.670954">
        <ele>124.00952</ele>
        <time>2021-07-02T15:12:53Z</time>
      </trkpt>
      <trkpt lat="41.969143" lon="2.670910">
        <ele>123.72785</ele>
        <time>2021-07-02T15:12:54Z</time>
      </trkpt>
      <trkpt lat="41.969215" lon="2.670862">
        <ele>124.37969</ele>
        <time>2021-07-02T15:12:55Z</time>
      </trkpt>
      <trkpt lat="41.969337" lon="2.670835">
        <ele>124.29906</ele>
        <time>2021-07-02T15:12:56Z</time>
      </trkpt>
      <trkpt lat="41.969509" lon="2.670797">
        <ele>124.52252</ele>
        <time>2021-07-02T15:12:57Z</time>
      </trkpt>
      <trkpt lat="41.969681" lon="2.670763">
        <ele>124.71384</ele>
        <time>2021-07-02T15:12:58Z</time>
      </trkpt>
      <trkpt lat="41.969681" lon="2.670763">
        <ele>129.42990</ele>
        <time>2021-07-02T15:12:59Z</time>
      </trkpt>
      <trkpt lat="41.969883" lon="2.670732">
        <ele>129.38840</ele>
        <time>2021-07-02T15:13:00Z</time>
      </trkpt>
      <trkpt lat="41.970085" lon="2.670695">
        <ele>129.09354</ele>
        <time>2021-07-02T15:13:01Z</time>
      </trkpt>
      <trkpt lat="41.970299" lon="2.670656">
        <ele>128.73215</ele>
        <time>2021-07-02T15:13:02Z</time>
      </trkpt>
      <trkpt lat="41.970505" lon="2.670618">
        <ele>128.33249</ele>
        <time>2021-07-02T15:13:03Z</time>
      </trkpt>
      <trkpt lat="41.970680" lon="2.670586">
        <ele>128.12369</ele>
        <time>2021-07-02T15:13:04Z</time>
      </trkpt>
      <trkpt lat="41.970882" lon="2.670547">
        <ele>127.25314</ele>
        <time>2021-07-02T15:13:05Z</time>
      </trkpt>
      <trkpt lat="41.971092" lon="2.670506">
        <ele>127.01138</ele>
        <time>2021-07-02T15:13:06Z</time>
      </trkpt>
      <trkpt lat="41.971348" lon="2.670456">
        <ele>126.78128</ele>
        <time>2021-07-02T15:13:07Z</time>
      </trkpt>
      <trkpt lat="41.971603" lon="2.670406">
        <ele>127.35648</ele>
        <time>2021-07-02T15:13:08Z</time>
      </trkpt>
      <trkpt lat="41.971851" lon="2.670357">
        <ele>126.81589</ele>
        <time>2021-07-02T15:13:09Z</time>
      </trkpt>
      <trkpt lat="41.972092" lon="2.670309">
        <ele>127.81955</ele>
        <time>2021-07-02T15:13:10Z</time>
      </trkpt>
      <trkpt lat="41.972294" lon="2.670272">
        <ele>127.75937</ele>
        <time>2021-07-02T15:13:11Z</time>
      </trkpt>
      <trkpt lat="41.972504" lon="2.670234">
        <ele>127.95212</ele>
        <time>2021-07-02T15:13:12Z</time>
      </trkpt>
      <trkpt lat="41.972702" lon="2.670213">
        <ele>124.23091</ele>
        <time>2021-07-02T15:13:13Z</time>
      </trkpt>
      <trkpt lat="41.972874" lon="2.670237">
        <ele>124.08946</ele>
        <time>2021-07-02T15:13:14Z</time>
      </trkpt>
      <trkpt lat="41.973007" lon="2.670304">
        <ele>124.23046</ele>
        <time>2021-07-02T15:13:15Z</time>
      </trkpt>
      <trkpt lat="41.973137" lon="2.670406">
        <ele>123.97591</ele>
        <time>2021-07-02T15:13:16Z</time>
      </trkpt>
      <trkpt lat="41.973221" lon="2.670488">
        <ele>123.85708</ele>
        <time>2021-07-02T15:13:17Z</time>
      </trkpt>
      <trkpt lat="41.973335" lon="2.670606">
        <ele>123.47599</ele>
        <time>2021-07-02T15:13:18Z</time>
      </trkpt>
      <trkpt lat="41.973446" lon="2.670714">
        <ele>123.95244</ele>
        <time>2021-07-02T15:13:19Z</time>
      </trkpt>
      <trkpt lat="41.973576" lon="2.670833">
        <ele>124.10500</ele>
        <time>2021-07-02T15:13:20Z</time>
      </trkpt>
      <trkpt lat="41.973721" lon="2.670940">
        <ele>124.52117</ele>
        <time>2021-07-02T15:13:21Z</time>
      </trkpt>
      <trkpt lat="41.973850" lon="2.670981">
        <ele>125.69057</ele>
        <time>2021-07-02T15:13:22Z</time>
      </trkpt>
      <trkpt lat="41.973984" lon="2.670990">
        <ele>126.68101</ele>
        <time>2021-07-02T15:13:23Z</time>
      </trkpt>
      <trkpt lat="41.974125" lon="2.670958">
        <ele>128.36124</ele>
        <time>2021-07-02T15:13:24Z</time>
      </trkpt>
      <trkpt lat="41.974258" lon="2.670887">
        <ele>130.76904</ele>
        <time>2021-07-02T15:13:25Z</time>
      </trkpt>
      <trkpt lat="41.974396" lon="2.670810">
        <ele>131.23009</ele>
        <time>2021-07-02T15:13:26Z</time>
      </trkpt>
      <trkpt lat="41.974533" lon="2.670733">
        <ele>131.33971</ele>
        <time>2021-07-02T15:13:27Z</time>
      </trkpt>
      <trkpt lat="41.974640" lon="2.670678">
        <ele>132.65334</ele>
        <time>2021-07-02T15:13:28Z</time>
      </trkpt>
      <trkpt lat="41.974747" lon="2.670654">
        <ele>133.35034</ele>
        <time>2021-07-02T15:13:29Z</time>
      </trkpt>
      <trkpt lat="41.974869" lon="2.670649">
        <ele>133.92178</ele>
        <time>2021-07-02T15:13:30Z</time>
      </trkpt>
      <trkpt lat="41.974979" lon="2.670692">
        <ele>135.14864</ele>
        <time>2021-07-02T15:13:31Z</time>
      </trkpt>
      <trkpt lat="41.974979" lon="2.670692">
        <ele>137.79198</ele>
        <time>2021-07-02T15:13:32Z</time>
      </trkpt>
      <trkpt lat="41.975090" lon="2.670751">
        <ele>139.48465</ele>
        <time>2021-07-02T15:13:33Z</time>
      </trkpt>
      <trkpt lat="41.975193" lon="2.670856">
        <ele>140.37308</ele>
        <time>2021-07-02T15:13:34Z</time>
      </trkpt>
      <trkpt lat="41.975330" lon="2.671003">
        <ele>142.99635</ele>
        <time>2021-07-02T15:13:35Z</time>
      </trkpt>
      <trkpt lat="41.975471" lon="2.671159">
        <ele>143.38264</ele>
        <time>2021-07-02T15:13:36Z</time>
      </trkpt>
      <trkpt lat="41.975613" lon="2.671329">
        <ele>143.67305</ele>
        <time>2021-07-02T15:13:37Z</time>
      </trkpt>
      <trkpt lat="41.975727" lon="2.671482">
        <ele>142.80479</ele>
        <time>2021-07-02T15:13:38Z</time>
      </trkpt>
      <trkpt lat="41.975826" lon="2.671618">
        <ele>142.10886</ele>
        <time>2021-07-02T15:13:39Z</time>
      </trkpt>
      <trkpt lat="41.975933" lon="2.671761">
        <ele>141.70068</ele>
        <time>2021-07-02T15:13:40Z</time>
      </trkpt>
      <trkpt lat="41.976070" lon="2.671947">
        <ele>142.39758</ele>
        <time>2021-07-02T15:13:41Z</time>
      </trkpt>
      <trkpt lat="41.976212" lon="2.672143">
        <ele>142.60843</ele>
        <time>2021-07-02T15:13:42Z</time>
      </trkpt>
      <trkpt lat="41.976334" lon="2.672333">
        <ele>140.68587</ele>
        <time>2021-07-02T15:13:43Z</time>
      </trkpt>
      <trkpt lat="41.976425" lon="2.672475">
        <ele>138.74600</ele>
        <time>2021-07-02T15:13:44Z</time>
      </trkpt>
      <trkpt lat="41.976547" lon="2.672614">
        <ele>135.40508</ele>
        <time>2021-07-02T15:13:45Z</time>
      </trkpt>
      <trkpt lat="41.976650" lon="2.672656">
        <ele>135.16792</ele>
        <time>2021-07-02T15:13:46Z</time>
      </trkpt>
      <trkpt lat="41.976715" lon="2.672649">
        <ele>134.88571</ele>
        <time>2021-07-02T15:13:47Z</time>
      </trkpt>
      <trkpt lat="41.976795" lon="2.672615">
        <ele>134.73842</ele>
        <time>2021-07-02T15:13:48Z</time>
      </trkpt>
      <trkpt lat="41.976818" lon="2.672606">
        <ele>133.99913</ele>
        <time>2021-07-02T15:13:49Z</time>
      </trkpt>
      <trkpt lat="41.977039" lon="2.672534">
        <ele>133.33351</ele>
        <time>2021-07-02T15:13:50Z</time>
      </trkpt>
      <trkpt lat="41.977306" lon="2.672493">
        <ele>132.23604</ele>
        <time>2021-07-02T15:13:51Z</time>
      </trkpt>
      <trkpt lat="41.977432" lon="2.672466">
        <ele>130.79300</ele>
        <time>2021-07-02T15:13:52Z</time>
      </trkpt>
      <trkpt lat="41.977581" lon="2.672406">
        <ele>129.30148</ele>
        <time>2021-07-02T15:13:53Z</time>
      </trkpt>
      <trkpt lat="41.977730" lon="2.672328">
        <ele>127.47098</ele>
        <time>2021-07-02T15:13:54Z</time>
      </trkpt>
      <trkpt lat="41.977871" lon="2.672293">
        <ele>125.19120</ele>
        <time>2021-07-02T15:13:55Z</time>
      </trkpt>
      <trkpt lat="41.977924" lon="2.672326">
        <ele>125.03444</ele>
        <time>2021-07-02T15:13:56Z</time>
      </trkpt>
      <trkpt lat="41.977924" lon="2.672326">
        <ele>125.02197</ele>
        <time>2021-07-02T15:13:57Z</time>
      </trkpt>
      <trkpt lat="41.977985" lon="2.672394">
        <ele>125.34716</ele>
        <time>2021-07-02T15:13:58Z</time>
      </trkpt>
      <trkpt lat="41.978016" lon="2.672458">
        <ele>126.52997</ele>
        <time>2021-07-02T15:13:59Z</time>
      </trkpt>
      <trkpt lat="41.978077" lon="2.672615">
        <ele>127.61509</ele>
        <time>2021-07-02T15:14:00Z</time>
      </trkpt>
      <trkpt lat="41.978146" lon="2.672798">
        <ele>128.41049</ele>
        <time>2021-07-02T15:14:01Z</time>
      </trkpt>
      <trkpt lat="41.978245" lon="2.673030">
        <ele>126.52483</ele>
        <time>2021-07-02T15:14:02Z</time>
      </trkpt>
      <trkpt lat="41.978359" lon="2.673319">
        <ele>125.46547</ele>
        <time>2021-07-02T15:14:03Z</time>
      </trkpt>
      <trkpt lat="41.978443" lon="2.673549">
        <ele>124.58029</ele>
        <time>2021-07-02T15:14:04Z</time>
      </trkpt>
      <trkpt lat="41.978497" lon="2.673688">
        <ele>123.52644</ele>
        <time>2021-07-02T15:14:05Z</time>
      </trkpt>
      <trkpt lat="41.978519" lon="2.673831">
        <ele>122.69624</ele>
        <time>2021-07-02T15:14:06Z</time>
      </trkpt>
      <trkpt lat="41.978504" lon="2.673919">
        <ele>122.87747</ele>
        <time>2021-07-02T15:14:07Z</time>
      </trkpt>
      <trkpt lat="41.978436" lon="2.674032">
        <ele>123.50165</ele>
        <time>2021-07-02T15:14:08Z</time>
      </trkpt>
      <trkpt lat="41.978405" lon="2.674062">
        <ele>125.57854</ele>
        <time>2021-07-02T15:14:09Z</time>
      </trkpt>
      <trkpt lat="41.978367" lon="2.674096">
        <ele>126.25752</ele>
        <time>2021-07-02T15:14:10Z</time>
      </trkpt>
      <trkpt lat="41.978214" lon="2.674218">
        <ele>126.90675</ele>
        <time>2021-07-02T15:14:11Z</time>
      </trkpt>
      <trkpt lat="41.977989" lon="2.674393">
        <ele>127.75036</ele>
        <time>2021-07-02T15:14:12Z</time>
      </trkpt>
      <trkpt lat="41.977863" lon="2.674512">
        <ele>127.71535</ele>
        <time>2021-07-02T15:14:13Z</time>
      </trkpt>
      <trkpt lat="41.977718" lon="2.674693">
        <ele>126.77910</ele>
        <time>2021-07-02T15:14:14Z</time>
      </trkpt>
      <trkpt lat="41.977619" lon="2.674889">
        <ele>126.53523</ele>
        <time>2021-07-02T15:14:15Z</time>
      </trkpt>
      <trkpt lat="41.977600" lon="2.675070">
        <ele>126.72031</ele>
        <time>2021-07-02T15:14:16Z</time>
      </trkpt>
      <trkpt lat="41.977627" lon="2.675219">
        <ele>127.98200</ele>
        <time>2021-07-02T15:14:17Z</time>
      </trkpt>
      <trkpt lat="41.977650" lon="2.675301">
        <ele>127.86608</ele>
        <time>2021-07-02T15:14:18Z</time>
      </trkpt>
      <trkpt lat="41.977680" lon="2.675406">
        <ele>129.77594</ele>
        <time>2021-07-02T15:14:19Z</time>
      </trkpt>
      <trkpt lat="41.977753" lon="2.675624">
        <ele>127.84641</ele>
        <time>2021-07-02T15:14:20Z</time>
      </trkpt>
      <trkpt lat="41.977840" lon="2.675890">
        <ele>127.44034</ele>
        <time>2021-07-02T15:14:21Z</time>
      </trkpt>
      <trkpt lat="41.977840" lon="2.675890">
        <ele>127.10019</ele>
        <time>2021-07-02T15:14:22Z</time>
      </trkpt>
      <trkpt lat="41.977982" lon="2.676377">
        <ele>127.53238</ele>
        <time>2021-07-02T15:14:23Z</time>
      </trkpt>
      <trkpt lat="41.978046" lon="2.676657">
        <ele>126.95847</ele>
        <time>2021-07-02T15:14:24Z</time>
      </trkpt>
      <trkpt lat="41.978142" lon="2.677324">
        <ele>127.00833</ele>
        <time>2021-07-02T15:14:25Z</time>
      </trkpt>
      <trkpt lat="41.978142" lon="2.677324">
        <ele>127.10776</ele>
        <time>2021-07-02T15:14:26Z</time>
      </trkpt>
      <trkpt lat="41.978188" lon="2.677681">
        <ele>127.44266</ele>
        <time>2021-07-02T15:14:27Z</time>
      </trkpt>
      <trkpt lat="41.978226" lon="2.678013">
        <ele>127.12131</ele>
        <time>2021-07-02T15:14:28Z</time>
      </trkpt>
      <trkpt lat="41.978275" lon="2.678415">
        <ele>126.40939</ele>
        <time>2021-07-02T15:14:29Z</time>
      </trkpt>
      <trkpt lat="41.978325" lon="2.678818">
        <ele>126.55313</ele>
        <time>2021-07-02T15:14:30Z</time>
      </trkpt>
      <trkpt lat="41.978363" lon="2.679154">
        <ele>126.27444</ele>
        <time>2021-07-02T15:14:31Z</time>
      </trkpt>
      <trkpt lat="41.978397" lon="2.679442">
        <ele>126.27444</ele>
        <time>2021-07-02T15:14:32Z</time>
      </trkpt>
      <trkpt lat="41.978455" lon="2.679762">
        <ele>125.84604</ele>
        <time>2021-07-02T15:14:33Z</time>
      </trkpt>
      <trkpt lat="41.978512" lon="2.679960">
        <ele>125.99185</ele>
        <time>2021-07-02T15:14:34Z</time>
      </trkpt>
      <trkpt lat="41.978580" lon="2.680157">
        <ele>120.76329</ele>
        <time>2021-07-02T15:14:35Z</time>
      </trkpt>
      <trkpt lat="41.978642" lon="2.680384">
        <ele>118.95521</ele>
        <time>2021-07-02T15:14:36Z</time>
      </trkpt>
      <trkpt lat="41.978710" lon="2.680610">
        <ele>119.09772</ele>
        <time>2021-07-02T15:14:37Z</time>
      </trkpt>
      <trkpt lat="41.978775" lon="2.680727">
        <ele>119.26385</ele>
        <time>2021-07-02T15:14:38Z</time>
      </trkpt>
      <trkpt lat="41.978867" lon="2.680830">
        <ele>119.82113</ele>
        <time>2021-07-02T15:14:39Z</time>
      </trkpt>
      <trkpt lat="41.979015" lon="2.680939">
        <ele>120.20252</ele>
        <time>2021-07-02T15:14:40Z</time>
      </trkpt>
      <trkpt lat="41.979221" lon="2.681136">
        <ele>120.40458</ele>
        <time>2021-07-02T15:14:41Z</time>
      </trkpt>
      <trkpt lat="41.979359" lon="2.681329">
        <ele>121.09881</ele>
        <time>2021-07-02T15:14:42Z</time>
      </trkpt>
      <trkpt lat="41.979431" lon="2.681462">
        <ele>126.13437</ele>
        <time>2021-07-02T15:14:43Z</time>
      </trkpt>
      <trkpt lat="41.979431" lon="2.681462">
        <ele>126.16013</ele>
        <time>2021-07-02T15:14:44Z</time>
      </trkpt>
      <trkpt lat="41.979546" lon="2.681655">
        <ele>125.62949</ele>
        <time>2021-07-02T15:14:45Z</time>
      </trkpt>
      <trkpt lat="41.979694" lon="2.681886">
        <ele>125.84525</ele>
        <time>2021-07-02T15:14:46Z</time>
      </trkpt>
      <trkpt lat="41.979824" lon="2.682072">
        <ele>126.35202</ele>
        <time>2021-07-02T15:14:47Z</time>
      </trkpt>
      <trkpt lat="41.979977" lon="2.682245">
        <ele>126.23129</ele>
        <time>2021-07-02T15:14:48Z</time>
      </trkpt>
      <trkpt lat="41.980164" lon="2.682444">
        <ele>127.09042</ele>
        <time>2021-07-02T15:14:49Z</time>
      </trkpt>
      <trkpt lat="41.980328" lon="2.682615">
        <ele>127.62521</ele>
        <time>2021-07-02T15:14:50Z</time>
      </trkpt>
      <trkpt lat="41.980522" lon="2.682787">
        <ele>128.26584</ele>
        <time>2021-07-02T15:14:51Z</time>
      </trkpt>
      <trkpt lat="41.980736" lon="2.682980">
        <ele>123.51553</ele>
        <time>2021-07-02T15:14:52Z</time>
      </trkpt>
      <trkpt lat="41.980873" lon="2.683118">
        <ele>123.51553</ele>
        <time>2021-07-02T15:14:53Z</time>
      </trkpt>
      <trkpt lat="41.980980" lon="2.683258">
        <ele>124.95600</ele>
        <time>2021-07-02T15:14:54Z</time>
      </trkpt>
      <trkpt lat="41.981068" lon="2.683454">
        <ele>126.57108</ele>
        <time>2021-07-02T15:14:55Z</time>
      </trkpt>
      <trkpt lat="41.981110" lon="2.683597">
        <ele>128.34976</ele>
        <time>2021-07-02T15:14:56Z</time>
      </trkpt>
      <trkpt lat="41.981159" lon="2.683798">
        <ele>128.15903</ele>
        <time>2021-07-02T15:14:57Z</time>
      </trkpt>
      <trkpt lat="41.981220" lon="2.684048">
        <ele>127.79367</ele>
        <time>2021-07-02T15:14:58Z</time>
      </trkpt>
      <trkpt lat="41.981304" lon="2.684372">
        <ele>125.97797</ele>
        <time>2021-07-02T15:14:59Z</time>
      </trkpt>
      <trkpt lat="41.981358" lon="2.684614">
        <ele>126.23231</ele>
        <time>2021-07-02T15:15:00Z</time>
      </trkpt>
      <trkpt lat="41.981384" lon="2.684847">
        <ele>126.78764</ele>
        <time>2021-07-02T15:15:01Z</time>
      </trkpt>
      <trkpt lat="41.981377" lon="2.685054">
        <ele>127.37612</ele>
        <time>2021-07-02T15:15:02Z</time>
      </trkpt>
      <trkpt lat="41.981339" lon="2.685320">
        <ele>126.91680</ele>
        <time>2021-07-02T15:15:03Z</time>
      </trkpt>
      <trkpt lat="41.981304" lon="2.685554">
        <ele>126.61436</ele>
        <time>2021-07-02T15:15:04Z</time>
      </trkpt>
      <trkpt lat="41.981308" lon="2.685762">
        <ele>126.61436</ele>
        <time>2021-07-02T15:15:05Z</time>
      </trkpt>
      <trkpt lat="41.981346" lon="2.685996">
        <ele>127.28179</ele>
        <time>2021-07-02T15:15:06Z</time>
      </trkpt>
      <trkpt lat="41.981407" lon="2.686263">
        <ele>127.44972</ele>
        <time>2021-07-02T15:15:07Z</time>
      </trkpt>
      <trkpt lat="41.981476" lon="2.686465">
        <ele>127.03136</ele>
        <time>2021-07-02T15:15:08Z</time>
      </trkpt>
      <trkpt lat="41.981537" lon="2.686515">
        <ele>127.02064</ele>
        <time>2021-07-02T15:15:09Z</time>
      </trkpt>
      <trkpt lat="41.981590" lon="2.686521">
        <ele>127.68152</ele>
        <time>2021-07-02T15:15:10Z</time>
      </trkpt>
      <trkpt lat="41.981667" lon="2.686486">
        <ele>128.07646</ele>
        <time>2021-07-02T15:15:11Z</time>
      </trkpt>
      <trkpt lat="41.981667" lon="2.686486">
        <ele>128.94452</ele>
        <time>2021-07-02T15:15:12Z</time>
      </trkpt>
      <trkpt lat="41.981724" lon="2.686407">
        <ele>128.94452</ele>
        <time>2021-07-02T15:15:13Z</time>
      </trkpt>
      <trkpt lat="41.981785" lon="2.686330">
        <ele>129.02888</ele>
        <time>2021-07-02T15:15:14Z</time>
      </trkpt>
      <trkpt lat="41.981956" lon="2.686245">
        <ele>128.84583</ele>
        <time>2021-07-02T15:15:15Z</time>
      </trkpt>
      <trkpt lat="41.982040" lon="2.686253">
        <ele>129.03711</ele>
        <time>2021-07-02T15:15:16Z</time>
      </trkpt>
      <trkpt lat="41.982128" lon="2.686291">
        <ele>131.06854</ele>
        <time>2021-07-02T15:15:17Z</time>
      </trkpt>
      <trkpt lat="41.982208" lon="2.686389">
        <ele>132.02100</ele>
        <time>2021-07-02T15:15:18Z</time>
      </trkpt>
      <trkpt lat="41.982311" lon="2.686546">
        <ele>133.85448</ele>
        <time>2021-07-02T15:15:19Z</time>
      </trkpt>
      <trkpt lat="41.982468" lon="2.686729">
        <ele>135.13631</ele>
        <time>2021-07-02T15:15:20Z</time>
      </trkpt>
      <trkpt lat="41.982616" lon="2.686844">
        <ele>135.16573</ele>
        <time>2021-07-02T15:15:21Z</time>
      </trkpt>
      <trkpt lat="41.982758" lon="2.686945">
        <ele>135.18011</ele>
        <time>2021-07-02T15:15:22Z</time>
      </trkpt>
      <trkpt lat="41.982918" lon="2.687023">
        <ele>135.96481</ele>
        <time>2021-07-02T15:15:23Z</time>
      </trkpt>
      <trkpt lat="41.982983" lon="2.687043">
        <ele>136.44617</ele>
        <time>2021-07-02T15:15:24Z</time>
      </trkpt>
      <trkpt lat="41.983086" lon="2.687074">
        <ele>137.13393</ele>
        <time>2021-07-02T15:15:25Z</time>
      </trkpt>
      <trkpt lat="41.983269" lon="2.687113">
        <ele>136.63484</ele>
        <time>2021-07-02T15:15:26Z</time>
      </trkpt>
      <trkpt lat="41.983414" lon="2.687128">
        <ele>137.22644</ele>
        <time>2021-07-02T15:15:27Z</time>
      </trkpt>
      <trkpt lat="41.983616" lon="2.687124">
        <ele>136.76357</ele>
        <time>2021-07-02T15:15:28Z</time>
      </trkpt>
      <trkpt lat="41.983768" lon="2.687115">
        <ele>136.41418</ele>
        <time>2021-07-02T15:15:29Z</time>
      </trkpt>
      <trkpt lat="41.983894" lon="2.687087">
        <ele>136.07097</ele>
        <time>2021-07-02T15:15:30Z</time>
      </trkpt>
      <trkpt lat="41.983986" lon="2.687015">
        <ele>136.28821</ele>
        <time>2021-07-02T15:15:31Z</time>
      </trkpt>
      <trkpt lat="41.984024" lon="2.686981">
        <ele>136.65334</ele>
        <time>2021-07-02T15:15:32Z</time>
      </trkpt>
      <trkpt lat="41.984165" lon="2.686857">
        <ele>137.25723</ele>
        <time>2021-07-02T15:15:33Z</time>
      </trkpt>
      <trkpt lat="41.984318" lon="2.686744">
        <ele>138.31694</ele>
        <time>2021-07-02T15:15:34Z</time>
      </trkpt>
      <trkpt lat="41.984463" lon="2.686667">
        <ele>138.03563</ele>
        <time>2021-07-02T15:15:35Z</time>
      </trkpt>
      <trkpt lat="41.984631" lon="2.686611">
        <ele>137.33554</ele>
        <time>2021-07-02T15:15:36Z</time>
      </trkpt>
      <trkpt lat="41.984760" lon="2.686620">
        <ele>137.05374</ele>
        <time>2021-07-02T15:15:37Z</time>
      </trkpt>
      <trkpt lat="41.984852" lon="2.686643">
        <ele>137.23552</ele>
        <time>2021-07-02T15:15:38Z</time>
      </trkpt>
      <trkpt lat="41.985027" lon="2.686674">
        <ele>137.29070</ele>
        <time>2021-07-02T15:15:39Z</time>
      </trkpt>
      <trkpt lat="41.985027" lon="2.686674">
        <ele>137.46614</ele>
        <time>2021-07-02T15:15:40Z</time>
      </trkpt>
      <trkpt lat="41.985214" lon="2.686651">
        <ele>137.39677</ele>
        <time>2021-07-02T15:15:41Z</time>
      </trkpt>
      <trkpt lat="41.985401" lon="2.686600">
        <ele>138.02219</ele>
        <time>2021-07-02T15:15:42Z</time>
      </trkpt>
      <trkpt lat="41.985554" lon="2.686522">
        <ele>138.75005</ele>
        <time>2021-07-02T15:15:43Z</time>
      </trkpt>
      <trkpt lat="41.985668" lon="2.686419">
        <ele>138.88641</ele>
        <time>2021-07-02T15:15:44Z</time>
      </trkpt>
      <trkpt lat="41.985790" lon="2.686266">
        <ele>138.76569</ele>
        <time>2021-07-02T15:15:45Z</time>
      </trkpt>
      <trkpt lat="41.985859" lon="2.686125">
        <ele>138.79254</ele>
        <time>2021-07-02T15:15:46Z</time>
      </trkpt>
      <trkpt lat="41.985893" lon="2.685974">
        <ele>138.70213</ele>
        <time>2021-07-02T15:15:47Z</time>
      </trkpt>
      <trkpt lat="41.985905" lon="2.685836">
        <ele>138.38124</ele>
        <time>2021-07-02T15:15:48Z</time>
      </trkpt>
      <trkpt lat="41.985893" lon="2.685700">
        <ele>138.31015</ele>
        <time>2021-07-02T15:15:49Z</time>
      </trkpt>
      <trkpt lat="41.985893" lon="2.685536">
        <ele>138.31015</ele>
        <time>2021-07-02T15:15:50Z</time>
      </trkpt>
      <trkpt lat="41.985912" lon="2.685435">
        <ele>139.05762</ele>
        <time>2021-07-02T15:15:51Z</time>
      </trkpt>
      <trkpt lat="41.985973" lon="2.685305">
        <ele>139.60425</ele>
        <time>2021-07-02T15:15:52Z</time>
      </trkpt>
      <trkpt lat="41.986069" lon="2.685211">
        <ele>140.05731</ele>
        <time>2021-07-02T15:15:53Z</time>
      </trkpt>
      <trkpt lat="41.986141" lon="2.685175">
        <ele>141.60751</ele>
        <time>2021-07-02T15:15:54Z</time>
      </trkpt>
      <trkpt lat="41.986217" lon="2.685164">
        <ele>142.11833</ele>
        <time>2021-07-02T15:15:55Z</time>
      </trkpt>
      <trkpt lat="41.986290" lon="2.685168">
        <ele>141.44853</ele>
        <time>2021-07-02T15:15:56Z</time>
      </trkpt>
      <trkpt lat="41.986565" lon="2.685225">
        <ele>140.69955</ele>
        <time>2021-07-02T15:15:57Z</time>
      </trkpt>
      <trkpt lat="41.986565" lon="2.685225">
        <ele>139.74042</ele>
        <time>2021-07-02T15:15:58Z</time>
      </trkpt>
      <trkpt lat="41.986790" lon="2.685312">
        <ele>139.74107</ele>
        <time>2021-07-02T15:15:59Z</time>
      </trkpt>
      <trkpt lat="41.986874" lon="2.685324">
        <ele>139.57181</ele>
        <time>2021-07-02T15:16:00Z</time>
      </trkpt>
      <trkpt lat="41.986992" lon="2.685300">
        <ele>139.41499</ele>
        <time>2021-07-02T15:16:01Z</time>
      </trkpt>
      <trkpt lat="41.987083" lon="2.685233">
        <ele>140.06779</ele>
        <time>2021-07-02T15:16:02Z</time>
      </trkpt>
      <trkpt lat="41.987160" lon="2.685112">
        <ele>141.42827</ele>
        <time>2021-07-02T15:16:03Z</time>
      </trkpt>
      <trkpt lat="41.987213" lon="2.684959">
        <ele>142.25221</ele>
        <time>2021-07-02T15:16:04Z</time>
      </trkpt>
      <trkpt lat="41.987270" lon="2.684774">
        <ele>141.91202</ele>
        <time>2021-07-02T15:16:05Z</time>
      </trkpt>
      <trkpt lat="41.987347" lon="2.684517">
        <ele>142.08582</ele>
        <time>2021-07-02T15:16:06Z</time>
      </trkpt>
      <trkpt lat="41.987415" lon="2.684317">
        <ele>142.08708</ele>
        <time>2021-07-02T15:16:07Z</time>
      </trkpt>
      <trkpt lat="41.987476" lon="2.684205">
        <ele>143.03024</ele>
        <time>2021-07-02T15:16:08Z</time>
      </trkpt>
      <trkpt lat="41.987537" lon="2.684154">
        <ele>143.35495</ele>
        <time>2021-07-02T15:16:09Z</time>
      </trkpt>
      <trkpt lat="41.987598" lon="2.684106">
        <ele>144.33629</ele>
        <time>2021-07-02T15:16:10Z</time>
      </trkpt>
      <trkpt lat="41.987732" lon="2.683998">
        <ele>143.03351</ele>
        <time>2021-07-02T15:16:11Z</time>
      </trkpt>
      <trkpt lat="41.987839" lon="2.683908">
        <ele>143.10602</ele>
        <time>2021-07-02T15:16:12Z</time>
      </trkpt>
      <trkpt lat="41.987885" lon="2.683828">
        <ele>143.79169</ele>
        <time>2021-07-02T15:16:13Z</time>
      </trkpt>
      <trkpt lat="41.987926" lon="2.683707">
        <ele>144.63383</ele>
        <time>2021-07-02T15:16:14Z</time>
      </trkpt>
      <trkpt lat="41.987934" lon="2.683551">
        <ele>145.38329</ele>
        <time>2021-07-02T15:16:15Z</time>
      </trkpt>
      <trkpt lat="41.987915" lon="2.683371">
        <ele>146.54228</ele>
        <time>2021-07-02T15:16:16Z</time>
      </trkpt>
      <trkpt lat="41.987869" lon="2.683131">
        <ele>147.13161</ele>
        <time>2021-07-02T15:16:17Z</time>
      </trkpt>
      <trkpt lat="41.987827" lon="2.682899">
        <ele>148.52306</ele>
        <time>2021-07-02T15:16:18Z</time>
      </trkpt>
      <trkpt lat="41.987797" lon="2.682733">
        <ele>148.32430</ele>
        <time>2021-07-02T15:16:19Z</time>
      </trkpt>
      <trkpt lat="41.987793" lon="2.682568">
        <ele>148.40285</ele>
        <time>2021-07-02T15:16:20Z</time>
      </trkpt>
      <trkpt lat="41.987808" lon="2.682451">
        <ele>149.62187</ele>
        <time>2021-07-02T15:16:21Z</time>
      </trkpt>
      <trkpt lat="41.987846" lon="2.682332">
        <ele>151.83653</ele>
        <time>2021-07-02T15:16:22Z</time>
      </trkpt>
      <trkpt lat="41.987919" lon="2.682128">
        <ele>153.10670</ele>
        <time>2021-07-02T15:16:23Z</time>
      </trkpt>
      <trkpt lat="41.988010" lon="2.681922">
        <ele>153.54164</ele>
        <time>2021-07-02T15:16:24Z</time>
      </trkpt>
      <trkpt lat="41.988110" lon="2.681705">
        <ele>156.11188</ele>
        <time>2021-07-02T15:16:25Z</time>
      </trkpt>
      <trkpt lat="41.988213" lon="2.681471">
        <ele>156.23732</ele>
        <time>2021-07-02T15:16:26Z</time>
      </trkpt>
      <trkpt lat="41.988304" lon="2.681268">
        <ele>156.18138</ele>
        <time>2021-07-02T15:16:27Z</time>
      </trkpt>
      <trkpt lat="41.988400" lon="2.681091">
        <ele>155.13054</ele>
        <time>2021-07-02T15:16:28Z</time>
      </trkpt>
      <trkpt lat="41.988400" lon="2.681091">
        <ele>155.13054</ele>
        <time>2021-07-02T15:16:29Z</time>
      </trkpt>
      <trkpt lat="41.988560" lon="2.681015">
        <ele>155.50816</ele>
        <time>2021-07-02T15:16:30Z</time>
      </trkpt>
      <trkpt lat="41.988621" lon="2.681025">
        <ele>156.26585</ele>
        <time>2021-07-02T15:16:31Z</time>
      </trkpt>
      <trkpt lat="41.988686" lon="2.681049">
        <ele>158.55481</ele>
        <time>2021-07-02T15:16:32Z</time>
      </trkpt>
      <trkpt lat="41.988773" lon="2.681071">
        <ele>158.19032</ele>
        <time>2021-07-02T15:16:33Z</time>
      </trkpt>
      <trkpt lat="41.988956" lon="2.681080">
        <ele>158.13838</ele>
        <time>2021-07-02T15:16:34Z</time>
      </trkpt>
      <trkpt lat="41.989162" lon="2.681093">
        <ele>157.81180</ele>
        <time>2021-07-02T15:16:35Z</time>
      </trkpt>
      <trkpt lat="41.989361" lon="2.681114">
        <ele>157.33437</ele>
        <time>2021-07-02T15:16:36Z</time>
      </trkpt>
      <trkpt lat="41.989517" lon="2.681160">
        <ele>156.58031</ele>
        <time>2021-07-02T15:16:37Z</time>
      </trkpt>
      <trkpt lat="41.989517" lon="2.681160">
        <ele>156.18466</ele>
        <time>2021-07-02T15:16:38Z</time>
      </trkpt>
      <trkpt lat="41.989586" lon="2.681237">
        <ele>155.87756</ele>
        <time>2021-07-02T15:16:39Z</time>
      </trkpt>
      <trkpt lat="41.989662" lon="2.681347">
        <ele>156.07281</ele>
        <time>2021-07-02T15:16:40Z</time>
      </trkpt>
      <trkpt lat="41.989689" lon="2.681372">
        <ele>156.36470</ele>
        <time>2021-07-02T15:16:41Z</time>
      </trkpt>
      <trkpt lat="41.989815" lon="2.681410">
        <ele>157.54903</ele>
        <time>2021-07-02T15:16:42Z</time>
      </trkpt>
      <trkpt lat="41.989887" lon="2.681379">
        <ele>157.99773</ele>
        <time>2021-07-02T15:16:43Z</time>
      </trkpt>
      <trkpt lat="41.989975" lon="2.681345">
        <ele>159.45410</ele>
        <time>2021-07-02T15:16:44Z</time>
      </trkpt>
      <trkpt lat="41.990093" lon="2.681300">
        <ele>160.52173</ele>
        <time>2021-07-02T15:16:45Z</time>
      </trkpt>
      <trkpt lat="41.990417" lon="2.681255">
        <ele>159.73740</ele>
        <time>2021-07-02T15:16:46Z</time>
      </trkpt>
      <trkpt lat="41.990589" lon="2.681226">
        <ele>160.76645</ele>
        <time>2021-07-02T15:16:47Z</time>
      </trkpt>
      <trkpt lat="41.990757" lon="2.681175">
        <ele>161.48776</ele>
        <time>2021-07-02T15:16:48Z</time>
      </trkpt>
      <trkpt lat="41.990974" lon="2.681095">
        <ele>162.29381</ele>
        <time>2021-07-02T15:16:49Z</time>
      </trkpt>
      <trkpt lat="41.991165" lon="2.681008">
        <ele>162.10460</ele>
        <time>2021-07-02T15:16:50Z</time>
      </trkpt>
      <trkpt lat="41.991287" lon="2.680935">
        <ele>162.13441</ele>
        <time>2021-07-02T15:16:51Z</time>
      </trkpt>
      <trkpt lat="41.991356" lon="2.680862">
        <ele>164.50800</ele>
        <time>2021-07-02T15:16:52Z</time>
      </trkpt>
      <trkpt lat="41.991413" lon="2.680755">
        <ele>164.82864</ele>
        <time>2021-07-02T15:16:53Z</time>
      </trkpt>
      <trkpt lat="41.991474" lon="2.680609">
        <ele>166.74649</ele>
        <time>2021-07-02T15:16:54Z</time>
      </trkpt>
      <trkpt lat="41.991539" lon="2.680400">
        <ele>166.98065</ele>
        <time>2021-07-02T15:16:55Z</time>
      </trkpt>
      <trkpt lat="41.991604" lon="2.680156">
        <ele>167.01364</ele>
        <time>2021-07-02T15:16:56Z</time>
      </trkpt>
      <trkpt lat="41.991657" lon="2.679989">
        <ele>167.41830</ele>
        <time>2021-07-02T15:16:57Z</time>
      </trkpt>
      <trkpt lat="41.991718" lon="2.679883">
        <ele>169.49077</ele>
        <time>2021-07-02T15:16:58Z</time>
      </trkpt>
      <trkpt lat="41.991776" lon="2.679793">
        <ele>172.50548</ele>
        <time>2021-07-02T15:16:59Z</time>
      </trkpt>
      <trkpt lat="41.991894" lon="2.679578">
        <ele>168.28323</ele>
        <time>2021-07-02T15:17:00Z</time>
      </trkpt>
      <trkpt lat="41.992039" lon="2.679349">
        <ele>170.10068</ele>
        <time>2021-07-02T15:17:01Z</time>
      </trkpt>
      <trkpt lat="41.992180" lon="2.679152">
        <ele>171.56570</ele>
        <time>2021-07-02T15:17:02Z</time>
      </trkpt>
      <trkpt lat="41.992352" lon="2.678897">
        <ele>175.89983</ele>
        <time>2021-07-02T15:17:03Z</time>
      </trkpt>
      <trkpt lat="41.992443" lon="2.678718">
        <ele>176.23399</ele>
        <time>2021-07-02T15:17:04Z</time>
      </trkpt>
      <trkpt lat="41.992443" lon="2.678718">
        <ele>177.65918</ele>
        <time>2021-07-02T15:17:05Z</time>
      </trkpt>
      <trkpt lat="41.992516" lon="2.678546">
        <ele>179.71301</ele>
        <time>2021-07-02T15:17:06Z</time>
      </trkpt>
      <trkpt lat="41.992599" lon="2.678365">
        <ele>181.02797</ele>
        <time>2021-07-02T15:17:07Z</time>
      </trkpt>
      <trkpt lat="41.992714" lon="2.678187">
        <ele>181.02797</ele>
        <time>2021-07-02T15:17:08Z</time>
      </trkpt>
      <trkpt lat="41.992847" lon="2.678014">
        <ele>180.81508</ele>
        <time>2021-07-02T15:17:09Z</time>
      </trkpt>
      <trkpt lat="41.992970" lon="2.677859">
        <ele>181.18672</ele>
        <time>2021-07-02T15:17:10Z</time>
      </trkpt>
      <trkpt lat="41.993050" lon="2.677720">
        <ele>182.14915</ele>
        <time>2021-07-02T15:17:11Z</time>
      </trkpt>
      <trkpt lat="41.993107" lon="2.677559">
        <ele>182.53101</ele>
        <time>2021-07-02T15:17:12Z</time>
      </trkpt>
      <trkpt lat="41.993172" lon="2.677364">
        <ele>183.39542</ele>
        <time>2021-07-02T15:17:13Z</time>
      </trkpt>
      <trkpt lat="41.993252" lon="2.677152">
        <ele>184.28273</ele>
        <time>2021-07-02T15:17:14Z</time>
      </trkpt>
      <trkpt lat="41.993279" lon="2.676987">
        <ele>183.88185</ele>
        <time>2021-07-02T15:17:15Z</time>
      </trkpt>
      <trkpt lat="41.993294" lon="2.676783">
        <ele>183.53616</ele>
        <time>2021-07-02T15:17:16Z</time>
      </trkpt>
      <trkpt lat="41.993210" lon="2.676564">
        <ele>184.64604</ele>
        <time>2021-07-02T15:17:17Z</time>
      </trkpt>
      <trkpt lat="41.993195" lon="2.676540">
        <ele>184.63284</ele>
        <time>2021-07-02T15:17:18Z</time>
      </trkpt>
      <trkpt lat="41.993137" lon="2.676457">
        <ele>185.06367</ele>
        <time>2021-07-02T15:17:19Z</time>
      </trkpt>
      <trkpt lat="41.993122" lon="2.676321">
        <ele>185.69627</ele>
        <time>2021-07-02T15:17:20Z</time>
      </trkpt>
      <trkpt lat="41.993210" lon="2.676169">
        <ele>186.66043</ele>
        <time>2021-07-02T15:17:21Z</time>
      </trkpt>
      <trkpt lat="41.993256" lon="2.676130">
        <ele>189.17700</ele>
        <time>2021-07-02T15:17:22Z</time>
      </trkpt>
      <trkpt lat="41.993343" lon="2.676056">
        <ele>191.82745</ele>
        <time>2021-07-02T15:17:23Z</time>
      </trkpt>
      <trkpt lat="41.993496" lon="2.675923">
        <ele>191.88998</ele>
        <time>2021-07-02T15:17:24Z</time>
      </trkpt>
      <trkpt lat="41.993744" lon="2.675683">
        <ele>193.08310</ele>
        <time>2021-07-02T15:17:25Z</time>
      </trkpt>
      <trkpt lat="41.993893" lon="2.675489">
        <ele>192.83701</ele>
        <time>2021-07-02T15:17:26Z</time>
      </trkpt>
      <trkpt lat="41.994041" lon="2.675295">
        <ele>192.36301</ele>
        <time>2021-07-02T15:17:27Z</time>
      </trkpt>
      <trkpt lat="41.994198" lon="2.675101">
        <ele>193.40744</ele>
        <time>2021-07-02T15:17:28Z</time>
      </trkpt>
      <trkpt lat="41.994308" lon="2.674931">
        <ele>194.33670</ele>
        <time>2021-07-02T15:17:29Z</time>
      </trkpt>
      <trkpt lat="41.994419" lon="2.674715">
        <ele>195.61661</ele>
        <time>2021-07-02T15:17:30Z</time>
      </trkpt>
      <trkpt lat="41.994530" lon="2.674474">
        <ele>197.03629</ele>
        <time>2021-07-02T15:17:31Z</time>
      </trkpt>
      <trkpt lat="41.994602" lon="2.674212">
        <ele>197.69711</ele>
        <time>2021-07-02T15:17:32Z</time>
      </trkpt>
      <trkpt lat="41.994602" lon="2.674212">
        <ele>198.84567</ele>
        <time>2021-07-02T15:17:33Z</time>
      </trkpt>
      <trkpt lat="41.994659" lon="2.673949">
        <ele>198.94321</ele>
        <time>2021-07-02T15:17:34Z</time>
      </trkpt>
      <trkpt lat="41.994759" lon="2.673715">
        <ele>198.61258</ele>
        <time>2021-07-02T15:17:35Z</time>
      </trkpt>
      <trkpt lat="41.994873" lon="2.673450">
        <ele>201.48575</ele>
        <time>2021-07-02T15:17:36Z</time>
      </trkpt>
      <trkpt lat="41.994942" lon="2.673208">
        <ele>201.67308</ele>
        <time>2021-07-02T15:17:37Z</time>
      </trkpt>
      <trkpt lat="41.994991" lon="2.673012">
        <ele>202.74062</ele>
        <time>2021-07-02T15:17:38Z</time>
      </trkpt>
      <trkpt lat="41.995003" lon="2.672846">
        <ele>203.87732</ele>
        <time>2021-07-02T15:17:39Z</time>
      </trkpt>
      <trkpt lat="41.994991" lon="2.672631">
        <ele>203.76755</ele>
        <time>2021-07-02T15:17:40Z</time>
      </trkpt>
      <trkpt lat="41.994980" lon="2.672398">
        <ele>204.12819</ele>
        <time>2021-07-02T15:17:41Z</time>
      </trkpt>
      <trkpt lat="41.994946" lon="2.672170">
        <ele>204.32376</ele>
        <time>2021-07-02T15:17:42Z</time>
      </trkpt>
      <trkpt lat="41.994884" lon="2.672013">
        <ele>203.56755</ele>
        <time>2021-07-02T15:17:43Z</time>
      </trkpt>
      <trkpt lat="41.994846" lon="2.671851">
        <ele>203.43880</ele>
        <time>2021-07-02T15:17:44Z</time>
      </trkpt>
      <trkpt lat="41.994869" lon="2.671763">
        <ele>203.62440</ele>
        <time>2021-07-02T15:17:45Z</time>
      </trkpt>
      <trkpt lat="41.994888" lon="2.671737">
        <ele>203.96410</ele>
        <time>2021-07-02T15:17:46Z</time>
      </trkpt>
      <trkpt lat="41.994926" lon="2.671716">
        <ele>205.49265</ele>
        <time>2021-07-02T15:17:47Z</time>
      </trkpt>
      <trkpt lat="41.994968" lon="2.671708">
        <ele>205.76698</ele>
        <time>2021-07-02T15:17:48Z</time>
      </trkpt>
      <trkpt lat="41.994976" lon="2.671710">
        <ele>205.88167</ele>
        <time>2021-07-02T15:17:49Z</time>
      </trkpt>
      <trkpt lat="41.995056" lon="2.671755">
        <ele>206.43607</ele>
        <time>2021-07-02T15:17:50Z</time>
      </trkpt>
      <trkpt lat="41.995251" lon="2.671907">
        <ele>206.61888</ele>
        <time>2021-07-02T15:17:51Z</time>
      </trkpt>
      <trkpt lat="41.995365" lon="2.671853">
        <ele>207.90372</ele>
        <time>2021-07-02T15:17:52Z</time>
      </trkpt>
      <trkpt lat="41.995419" lon="2.671787">
        <ele>210.90819</ele>
        <time>2021-07-02T15:17:53Z</time>
      </trkpt>
      <trkpt lat="41.995537" lon="2.671648">
        <ele>211.72574</ele>
        <time>2021-07-02T15:17:54Z</time>
      </trkpt>
      <trkpt lat="41.995750" lon="2.671457">
        <ele>212.15750</ele>
        <time>2021-07-02T15:17:55Z</time>
      </trkpt>
      <trkpt lat="41.995953" lon="2.671297">
        <ele>212.19057</ele>
        <time>2021-07-02T15:17:56Z</time>
      </trkpt>
      <trkpt lat="41.996113" lon="2.671198">
        <ele>211.53828</ele>
        <time>2021-07-02T15:17:57Z</time>
      </trkpt>
      <trkpt lat="41.996216" lon="2.671086">
        <ele>211.56290</ele>
        <time>2021-07-02T15:17:58Z</time>
      </trkpt>
      <trkpt lat="41.996239" lon="2.670981">
        <ele>211.73618</ele>
        <time>2021-07-02T15:17:59Z</time>
      </trkpt>
      <trkpt lat="41.996239" lon="2.670981">
        <ele>212.24411</ele>
        <time>2021-07-02T15:18:00Z</time>
      </trkpt>
      <trkpt lat="41.996239" lon="2.670780">
        <ele>212.56769</ele>
        <time>2021-07-02T15:18:01Z</time>
      </trkpt>
      <trkpt lat="41.996239" lon="2.670780">
        <ele>212.62167</ele>
        <time>2021-07-02T15:18:02Z</time>
      </trkpt>
      <trkpt lat="41.996262" lon="2.670665">
        <ele>213.11279</ele>
        <time>2021-07-02T15:18:03Z</time>
      </trkpt>
      <trkpt lat="41.996326" lon="2.670579">
        <ele>214.60672</ele>
        <time>2021-07-02T15:18:04Z</time>
      </trkpt>
      <trkpt lat="41.996422" lon="2.670569">
        <ele>214.72466</ele>
        <time>2021-07-02T15:18:05Z</time>
      </trkpt>
      <trkpt lat="41.996567" lon="2.670572">
        <ele>215.37120</ele>
        <time>2021-07-02T15:18:06Z</time>
      </trkpt>
      <trkpt lat="41.996658" lon="2.670496">
        <ele>218.61555</ele>
        <time>2021-07-02T15:18:07Z</time>
      </trkpt>
      <trkpt lat="41.996735" lon="2.670377">
        <ele>220.68211</ele>
        <time>2021-07-02T15:18:08Z</time>
      </trkpt>
      <trkpt lat="41.996807" lon="2.670229">
        <ele>217.99313</ele>
        <time>2021-07-02T15:18:09Z</time>
      </trkpt>
      <trkpt lat="41.996914" lon="2.670006">
        <ele>219.01199</ele>
        <time>2021-07-02T15:18:10Z</time>
      </trkpt>
      <trkpt lat="41.997009" lon="2.669809">
        <ele>224.26611</ele>
        <time>2021-07-02T15:18:11Z</time>
      </trkpt>
      <trkpt lat="41.997177" lon="2.669470">
        <ele>224.77969</ele>
        <time>2021-07-02T15:18:12Z</time>
      </trkpt>
      <trkpt lat="41.997250" lon="2.669318">
        <ele>224.66260</ele>
        <time>2021-07-02T15:18:13Z</time>
      </trkpt>
      <trkpt lat="41.997337" lon="2.669137">
        <ele>225.17305</ele>
        <time>2021-07-02T15:18:14Z</time>
      </trkpt>
      <trkpt lat="41.997414" lon="2.668963">
        <ele>225.21881</ele>
        <time>2021-07-02T15:18:15Z</time>
      </trkpt>
      <trkpt lat="41.997501" lon="2.668809">
        <ele>227.28825</ele>
        <time>2021-07-02T15:18:16Z</time>
      </trkpt>
      <trkpt lat="41.997547" lon="2.668727">
        <ele>227.45656</ele>
        <time>2021-07-02T15:18:17Z</time>
      </trkpt>
      <trkpt lat="41.997677" lon="2.668568">
        <ele>226.79123</ele>
        <time>2021-07-02T15:18:18Z</time>
      </trkpt>
      <trkpt lat="41.997810" lon="2.668438">
        <ele>226.82617</ele>
        <time>2021-07-02T15:18:19Z</time>
      </trkpt>
      <trkpt lat="41.997883" lon="2.668428">
        <ele>227.74792</ele>
        <time>2021-07-02T15:18:20Z</time>
      </trkpt>
      <trkpt lat="41.997940" lon="2.668430">
        <ele>229.84920</ele>
        <time>2021-07-02T15:18:21Z</time>
      </trkpt>
      <trkpt lat="41.998070" lon="2.668435">
        <ele>231.32526</ele>
        <time>2021-07-02T15:18:22Z</time>
      </trkpt>
      <trkpt lat="41.998260" lon="2.668431">
        <ele>231.96140</ele>
        <time>2021-07-02T15:18:23Z</time>
      </trkpt>
      <trkpt lat="41.998470" lon="2.668415">
        <ele>233.20802</ele>
        <time>2021-07-02T15:18:24Z</time>
      </trkpt>
      <trkpt lat="41.998707" lon="2.668405">
        <ele>233.40082</ele>
        <time>2021-07-02T15:18:25Z</time>
      </trkpt>
      <trkpt lat="41.998886" lon="2.668412">
        <ele>234.05257</ele>
        <time>2021-07-02T15:18:26Z</time>
      </trkpt>
      <trkpt lat="41.999058" lon="2.668471">
        <ele>236.30742</ele>
        <time>2021-07-02T15:18:27Z</time>
      </trkpt>
      <trkpt lat="41.999245" lon="2.668516">
        <ele>236.86241</ele>
        <time>2021-07-02T15:18:28Z</time>
      </trkpt>
      <trkpt lat="41.999451" lon="2.668529">
        <ele>238.96915</ele>
        <time>2021-07-02T15:18:29Z</time>
      </trkpt>
      <trkpt lat="41.999451" lon="2.668529">
        <ele>240.20456</ele>
        <time>2021-07-02T15:18:30Z</time>
      </trkpt>
      <trkpt lat="41.999638" lon="2.668490">
        <ele>240.78244</ele>
        <time>2021-07-02T15:18:31Z</time>
      </trkpt>
      <trkpt lat="41.999832" lon="2.668404">
        <ele>241.15182</ele>
        <time>2021-07-02T15:18:32Z</time>
      </trkpt>
      <trkpt lat="42.000031" lon="2.668312">
        <ele>241.79294</ele>
        <time>2021-07-02T15:18:33Z</time>
      </trkpt>
      <trkpt lat="42.000256" lon="2.668209">
        <ele>242.89017</ele>
        <time>2021-07-02T15:18:34Z</time>
      </trkpt>
      <trkpt lat="42.000423" lon="2.668133">
        <ele>242.58597</ele>
        <time>2021-07-02T15:18:35Z</time>
      </trkpt>
      <trkpt lat="42.000568" lon="2.668083">
        <ele>243.17110</ele>
        <time>2021-07-02T15:18:36Z</time>
      </trkpt>
      <trkpt lat="42.000710" lon="2.668099">
        <ele>243.79588</ele>
        <time>2021-07-02T15:18:37Z</time>
      </trkpt>
      <trkpt lat="42.000828" lon="2.668156">
        <ele>246.63133</ele>
        <time>2021-07-02T15:18:38Z</time>
      </trkpt>
      <trkpt lat="42.000977" lon="2.668244">
        <ele>247.51521</ele>
        <time>2021-07-02T15:18:39Z</time>
      </trkpt>
      <trkpt lat="42.001144" lon="2.668356">
        <ele>247.80589</ele>
        <time>2021-07-02T15:18:40Z</time>
      </trkpt>
      <trkpt lat="42.001301" lon="2.668466">
        <ele>246.94673</ele>
        <time>2021-07-02T15:18:41Z</time>
      </trkpt>
      <trkpt lat="42.001377" lon="2.668559">
        <ele>246.20895</ele>
        <time>2021-07-02T15:18:42Z</time>
      </trkpt>
      <trkpt lat="42.001419" lon="2.668675">
        <ele>246.10770</ele>
        <time>2021-07-02T15:18:43Z</time>
      </trkpt>
      <trkpt lat="42.001396" lon="2.668764">
        <ele>247.30673</ele>
        <time>2021-07-02T15:18:44Z</time>
      </trkpt>
      <trkpt lat="42.001354" lon="2.668820">
        <ele>247.44757</ele>
        <time>2021-07-02T15:18:45Z</time>
      </trkpt>
      <trkpt lat="42.001354" lon="2.668820">
        <ele>248.08746</ele>
        <time>2021-07-02T15:18:46Z</time>
      </trkpt>
      <trkpt lat="42.001343" lon="2.668834">
        <ele>249.27496</ele>
        <time>2021-07-02T15:18:47Z</time>
      </trkpt>
      <trkpt lat="42.001274" lon="2.668850">
        <ele>250.63611</ele>
        <time>2021-07-02T15:18:48Z</time>
      </trkpt>
      <trkpt lat="42.001244" lon="2.668848">
        <ele>251.82692</ele>
        <time>2021-07-02T15:18:49Z</time>
      </trkpt>
      <trkpt lat="42.001179" lon="2.668816">
        <ele>252.29904</ele>
        <time>2021-07-02T15:18:50Z</time>
      </trkpt>
      <trkpt lat="42.001003" lon="2.668716">
        <ele>253.20981</ele>
        <time>2021-07-02T15:18:51Z</time>
      </trkpt>
      <trkpt lat="42.000744" lon="2.668658">
        <ele>253.64351</ele>
        <time>2021-07-02T15:18:52Z</time>
      </trkpt>
      <trkpt lat="42.000576" lon="2.668750">
        <ele>253.76651</ele>
        <time>2021-07-02T15:18:53Z</time>
      </trkpt>
      <trkpt lat="42.000481" lon="2.668875">
        <ele>253.90926</ele>
        <time>2021-07-02T15:18:54Z</time>
      </trkpt>
      <trkpt lat="42.000458" lon="2.669009">
        <ele>255.15005</ele>
        <time>2021-07-02T15:18:55Z</time>
      </trkpt>
      <trkpt lat="42.000473" lon="2.669142">
        <ele>256.95120</ele>
        <time>2021-07-02T15:18:56Z</time>
      </trkpt>
      <trkpt lat="42.000542" lon="2.669296">
        <ele>258.12918</ele>
        <time>2021-07-02T15:18:57Z</time>
      </trkpt>
      <trkpt lat="42.000626" lon="2.669437">
        <ele>258.22635</ele>
        <time>2021-07-02T15:18:58Z</time>
      </trkpt>
      <trkpt lat="42.000809" lon="2.669758">
        <ele>259.51132</ele>
        <time>2021-07-02T15:18:59Z</time>
      </trkpt>
      <trkpt lat="42.000984" lon="2.670124">
        <ele>259.72031</ele>
        <time>2021-07-02T15:19:00Z</time>
      </trkpt>
      <trkpt lat="42.001129" lon="2.670442">
        <ele>260.34921</ele>
        <time>2021-07-02T15:19:01Z</time>
      </trkpt>
      <trkpt lat="42.001240" lon="2.670680">
        <ele>261.70297</ele>
        <time>2021-07-02T15:19:02Z</time>
      </trkpt>
      <trkpt lat="42.001347" lon="2.670894">
        <ele>262.71774</ele>
        <time>2021-07-02T15:19:03Z</time>
      </trkpt>
      <trkpt lat="42.001347" lon="2.670894">
        <ele>263.36960</ele>
        <time>2021-07-02T15:19:04Z</time>
      </trkpt>
      <trkpt lat="42.001472" lon="2.671083">
        <ele>266.69785</ele>
        <time>2021-07-02T15:19:05Z</time>
      </trkpt>
      <trkpt lat="42.001610" lon="2.671250">
        <ele>268.01498</ele>
        <time>2021-07-02T15:19:06Z</time>
      </trkpt>
      <trkpt lat="42.001755" lon="2.671395">
        <ele>270.33163</ele>
        <time>2021-07-02T15:19:07Z</time>
      </trkpt>
      <trkpt lat="42.001896" lon="2.671554">
        <ele>270.76096</ele>
        <time>2021-07-02T15:19:08Z</time>
      </trkpt>
      <trkpt lat="42.002029" lon="2.671727">
        <ele>270.86194</ele>
        <time>2021-07-02T15:19:09Z</time>
      </trkpt>
      <trkpt lat="42.002171" lon="2.671982">
        <ele>270.36942</ele>
        <time>2021-07-02T15:19:10Z</time>
      </trkpt>
      <trkpt lat="42.002228" lon="2.672191">
        <ele>270.11548</ele>
        <time>2021-07-02T15:19:11Z</time>
      </trkpt>
      <trkpt lat="42.002235" lon="2.672374">
        <ele>271.81653</ele>
        <time>2021-07-02T15:19:12Z</time>
      </trkpt>
      <trkpt lat="42.002224" lon="2.672537">
        <ele>272.29575</ele>
        <time>2021-07-02T15:19:13Z</time>
      </trkpt>
      <trkpt lat="42.002197" lon="2.672754">
        <ele>276.96567</ele>
        <time>2021-07-02T15:19:14Z</time>
      </trkpt>
      <trkpt lat="42.002178" lon="2.673058">
        <ele>277.62234</ele>
        <time>2021-07-02T15:19:15Z</time>
      </trkpt>
      <trkpt lat="42.002190" lon="2.673279">
        <ele>275.23016</ele>
        <time>2021-07-02T15:19:16Z</time>
      </trkpt>
      <trkpt lat="42.002205" lon="2.673591">
        <ele>275.11588</ele>
        <time>2021-07-02T15:19:17Z</time>
      </trkpt>
      <trkpt lat="42.002216" lon="2.673827">
        <ele>274.06476</ele>
        <time>2021-07-02T15:19:18Z</time>
      </trkpt>
      <trkpt lat="42.002251" lon="2.674039">
        <ele>273.67120</ele>
        <time>2021-07-02T15:19:19Z</time>
      </trkpt>
      <trkpt lat="42.002312" lon="2.674197">
        <ele>273.21930</ele>
        <time>2021-07-02T15:19:20Z</time>
      </trkpt>
      <trkpt lat="42.002399" lon="2.674317">
        <ele>273.52448</ele>
        <time>2021-07-02T15:19:21Z</time>
      </trkpt>
      <trkpt lat="42.002518" lon="2.674411">
        <ele>273.65216</ele>
        <time>2021-07-02T15:19:22Z</time>
      </trkpt>
      <trkpt lat="42.002659" lon="2.674409">
        <ele>274.30878</ele>
        <time>2021-07-02T15:19:23Z</time>
      </trkpt>
      <trkpt lat="42.002747" lon="2.674374">
        <ele>274.84869</ele>
        <time>2021-07-02T15:19:24Z</time>
      </trkpt>
      <trkpt lat="42.002823" lon="2.674323">
        <ele>275.46194</ele>
        <time>2021-07-02T15:19:25Z</time>
      </trkpt>
      <trkpt lat="42.002823" lon="2.674323">
        <ele>275.82712</ele>
        <time>2021-07-02T15:19:26Z</time>
      </trkpt>
      <trkpt lat="42.003254" lon="2.674039">
        <ele>276.34824</ele>
        <time>2021-07-02T15:19:27Z</time>
      </trkpt>
      <trkpt lat="42.003254" lon="2.674039">
        <ele>276.34824</ele>
        <time>2021-07-02T15:19:28Z</time>
      </trkpt>
      <trkpt lat="42.003422" lon="2.673992">
        <ele>283.98398</ele>
        <time>2021-07-02T15:19:29Z</time>
      </trkpt>
      <trkpt lat="42.003571" lon="2.674006">
        <ele>284.49081</ele>
        <time>2021-07-02T15:19:30Z</time>
      </trkpt>
      <trkpt lat="42.003777" lon="2.674027">
        <ele>284.51706</ele>
        <time>2021-07-02T15:19:31Z</time>
      </trkpt>
      <trkpt lat="42.004013" lon="2.674051">
        <ele>285.45151</ele>
        <time>2021-07-02T15:19:32Z</time>
      </trkpt>
      <trkpt lat="42.004269" lon="2.674053">
        <ele>280.33826</ele>
        <time>2021-07-02T15:19:33Z</time>
      </trkpt>
      <trkpt lat="42.004490" lon="2.674033">
        <ele>279.40445</ele>
        <time>2021-07-02T15:19:34Z</time>
      </trkpt>
      <trkpt lat="42.004646" lon="2.673987">
        <ele>279.93219</ele>
        <time>2021-07-02T15:19:35Z</time>
      </trkpt>
      <trkpt lat="42.004742" lon="2.673922">
        <ele>280.55942</ele>
        <time>2021-07-02T15:19:36Z</time>
      </trkpt>
      <trkpt lat="42.004837" lon="2.673806">
        <ele>280.51044</ele>
        <time>2021-07-02T15:19:37Z</time>
      </trkpt>
      <trkpt lat="42.004978" lon="2.673630">
        <ele>280.55765</ele>
        <time>2021-07-02T15:19:38Z</time>
      </trkpt>
      <trkpt lat="42.005119" lon="2.673534">
        <ele>279.76489</ele>
        <time>2021-07-02T15:19:39Z</time>
      </trkpt>
      <trkpt lat="42.005241" lon="2.673556">
        <ele>279.83087</ele>
        <time>2021-07-02T15:19:40Z</time>
      </trkpt>
      <trkpt lat="42.005333" lon="2.673640">
        <ele>280.56049</ele>
        <time>2021-07-02T15:19:41Z</time>
      </trkpt>
      <trkpt lat="42.005379" lon="2.673691">
        <ele>282.30466</ele>
        <time>2021-07-02T15:19:42Z</time>
      </trkpt>
      <trkpt lat="42.005489" lon="2.673825">
        <ele>282.99869</ele>
        <time>2021-07-02T15:19:43Z</time>
      </trkpt>
      <trkpt lat="42.005630" lon="2.673930">
        <ele>283.12039</ele>
        <time>2021-07-02T15:19:44Z</time>
      </trkpt>
      <trkpt lat="42.005798" lon="2.674035">
        <ele>291.34103</ele>
        <time>2021-07-02T15:19:45Z</time>
      </trkpt>
      <trkpt lat="42.005955" lon="2.674196">
        <ele>292.09726</ele>
        <time>2021-07-02T15:19:46Z</time>
      </trkpt>
      <trkpt lat="42.006107" lon="2.674382">
        <ele>292.09726</ele>
        <time>2021-07-02T15:19:47Z</time>
      </trkpt>
      <trkpt lat="42.006245" lon="2.674546">
        <ele>285.18216</ele>
        <time>2021-07-02T15:19:48Z</time>
      </trkpt>
      <trkpt lat="42.006393" lon="2.674648">
        <ele>283.47433</ele>
        <time>2021-07-02T15:19:49Z</time>
      </trkpt>
      <trkpt lat="42.006481" lon="2.674662">
        <ele>283.76257</ele>
        <time>2021-07-02T15:19:50Z</time>
      </trkpt>
      <trkpt lat="42.006561" lon="2.674643">
        <ele>283.97906</ele>
        <time>2021-07-02T15:19:51Z</time>
      </trkpt>
      <trkpt lat="42.006657" lon="2.674594">
        <ele>283.71735</ele>
        <time>2021-07-02T15:19:52Z</time>
      </trkpt>
      <trkpt lat="42.006744" lon="2.674491">
        <ele>284.17569</ele>
        <time>2021-07-02T15:19:53Z</time>
      </trkpt>
      <trkpt lat="42.006790" lon="2.674341">
        <ele>284.35400</ele>
        <time>2021-07-02T15:19:54Z</time>
      </trkpt>
      <trkpt lat="42.006821" lon="2.674139">
        <ele>285.26184</ele>
        <time>2021-07-02T15:19:55Z</time>
      </trkpt>
      <trkpt lat="42.006821" lon="2.674139">
        <ele>285.90240</ele>
        <time>2021-07-02T15:19:56Z</time>
      </trkpt>
      <trkpt lat="42.006840" lon="2.673899">
        <ele>285.36697</ele>
        <time>2021-07-02T15:19:57Z</time>
      </trkpt>
      <trkpt lat="42.006870" lon="2.673541">
        <ele>284.89166</ele>
        <time>2021-07-02T15:19:58Z</time>
      </trkpt>
      <trkpt lat="42.006908" lon="2.673333">
        <ele>283.72049</ele>
        <time>2021-07-02T15:19:59Z</time>
      </trkpt>
      <trkpt lat="42.006966" lon="2.673213">
        <ele>283.64496</ele>
        <time>2021-07-02T15:20:00Z</time>
      </trkpt>
      <trkpt lat="42.007050" lon="2.673132">
        <ele>284.54065</ele>
        <time>2021-07-02T15:20:01Z</time>
      </trkpt>
      <trkpt lat="42.007133" lon="2.673104">
        <ele>284.58063</ele>
        <time>2021-07-02T15:20:02Z</time>
      </trkpt>
      <trkpt lat="42.007236" lon="2.673072">
        <ele>283.76923</ele>
        <time>2021-07-02T15:20:03Z</time>
      </trkpt>
      <trkpt lat="42.007355" lon="2.673041">
        <ele>283.81631</ele>
        <time>2021-07-02T15:20:04Z</time>
      </trkpt>
      <trkpt lat="42.007538" lon="2.672945">
        <ele>284.17902</ele>
        <time>2021-07-02T15:20:05Z</time>
      </trkpt>
      <trkpt lat="42.007633" lon="2.672835">
        <ele>284.49951</ele>
        <time>2021-07-02T15:20:06Z</time>
      </trkpt>
      <trkpt lat="42.007759" lon="2.672685">
        <ele>284.59836</ele>
        <time>2021-07-02T15:20:07Z</time>
      </trkpt>
      <trkpt lat="42.007912" lon="2.672540">
        <ele>284.15201</ele>
        <time>2021-07-02T15:20:08Z</time>
      </trkpt>
      <trkpt lat="42.008072" lon="2.672463">
        <ele>283.96411</ele>
        <time>2021-07-02T15:20:09Z</time>
      </trkpt>
      <trkpt lat="42.008202" lon="2.672446">
        <ele>283.89514</ele>
        <time>2021-07-02T15:20:10Z</time>
      </trkpt>
      <trkpt lat="42.008362" lon="2.672464">
        <ele>284.02591</ele>
        <time>2021-07-02T15:20:11Z</time>
      </trkpt>
      <trkpt lat="42.008480" lon="2.672509">
        <ele>284.29895</ele>
        <time>2021-07-02T15:20:12Z</time>
      </trkpt>
      <trkpt lat="42.008595" lon="2.672616">
        <ele>284.45480</ele>
        <time>2021-07-02T15:20:13Z</time>
      </trkpt>
      <trkpt lat="42.008759" lon="2.672800">
        <ele>284.41129</ele>
        <time>2021-07-02T15:20:14Z</time>
      </trkpt>
      <trkpt lat="42.008915" lon="2.672958">
        <ele>284.90475</ele>
        <time>2021-07-02T15:20:15Z</time>
      </trkpt>
      <trkpt lat="42.009075" lon="2.673076">
        <ele>292.54782</ele>
        <time>2021-07-02T15:20:16Z</time>
      </trkpt>
      <trkpt lat="42.009254" lon="2.673173">
        <ele>292.16342</ele>
        <time>2021-07-02T15:20:17Z</time>
      </trkpt>
      <trkpt lat="42.009502" lon="2.673235">
        <ele>292.88541</ele>
        <time>2021-07-02T15:20:18Z</time>
      </trkpt>
      <trkpt lat="42.009502" lon="2.673235">
        <ele>286.09961</ele>
        <time>2021-07-02T15:20:19Z</time>
      </trkpt>
      <trkpt lat="42.009705" lon="2.673290">
        <ele>285.24188</ele>
        <time>2021-07-02T15:20:20Z</time>
      </trkpt>
      <trkpt lat="42.009869" lon="2.673371">
        <ele>292.86740</ele>
        <time>2021-07-02T15:20:21Z</time>
      </trkpt>
      <trkpt lat="42.010017" lon="2.673497">
        <ele>292.68661</ele>
        <time>2021-07-02T15:20:22Z</time>
      </trkpt>
      <trkpt lat="42.010174" lon="2.673653">
        <ele>292.87241</ele>
        <time>2021-07-02T15:20:23Z</time>
      </trkpt>
      <trkpt lat="42.010361" lon="2.673858">
        <ele>292.82883</ele>
        <time>2021-07-02T15:20:24Z</time>
      </trkpt>
      <trkpt lat="42.010529" lon="2.674047">
        <ele>292.50131</ele>
        <time>2021-07-02T15:20:25Z</time>
      </trkpt>
      <trkpt lat="42.010700" lon="2.674251">
        <ele>284.59952</ele>
        <time>2021-07-02T15:20:26Z</time>
      </trkpt>
      <trkpt lat="42.010853" lon="2.674452">
        <ele>283.24042</ele>
        <time>2021-07-02T15:20:27Z</time>
      </trkpt>
      <trkpt lat="42.010983" lon="2.674622">
        <ele>282.73764</ele>
        <time>2021-07-02T15:20:28Z</time>
      </trkpt>
      <trkpt lat="42.011089" lon="2.674695">
        <ele>282.73764</ele>
        <time>2021-07-02T15:20:29Z</time>
      </trkpt>
      <trkpt lat="42.011169" lon="2.674711">
        <ele>283.25995</ele>
        <time>2021-07-02T15:20:30Z</time>
      </trkpt>
      <trkpt lat="42.011501" lon="2.674744">
        <ele>282.41763</ele>
        <time>2021-07-02T15:20:31Z</time>
      </trkpt>
      <trkpt lat="42.011501" lon="2.674744">
        <ele>281.99609</ele>
        <time>2021-07-02T15:20:32Z</time>
      </trkpt>
      <trkpt lat="42.011623" lon="2.674730">
        <ele>281.18143</ele>
        <time>2021-07-02T15:20:33Z</time>
      </trkpt>
      <trkpt lat="42.011742" lon="2.674634">
        <ele>280.86926</ele>
        <time>2021-07-02T15:20:34Z</time>
      </trkpt>
      <trkpt lat="42.011814" lon="2.674524">
        <ele>281.63840</ele>
        <time>2021-07-02T15:20:35Z</time>
      </trkpt>
      <trkpt lat="42.011871" lon="2.674393">
        <ele>281.83466</ele>
        <time>2021-07-02T15:20:36Z</time>
      </trkpt>
      <trkpt lat="42.011936" lon="2.674218">
        <ele>281.15527</ele>
        <time>2021-07-02T15:20:37Z</time>
      </trkpt>
      <trkpt lat="42.012024" lon="2.674013">
        <ele>280.89069</ele>
        <time>2021-07-02T15:20:38Z</time>
      </trkpt>
      <trkpt lat="42.012131" lon="2.673880">
        <ele>280.65512</ele>
        <time>2021-07-02T15:20:39Z</time>
      </trkpt>
      <trkpt lat="42.012215" lon="2.673848">
        <ele>281.23679</ele>
        <time>2021-07-02T15:20:40Z</time>
      </trkpt>
      <trkpt lat="42.012360" lon="2.673837">
        <ele>281.77023</ele>
        <time>2021-07-02T15:20:41Z</time>
      </trkpt>
      <trkpt lat="42.012550" lon="2.673816">
        <ele>282.14020</ele>
        <time>2021-07-02T15:20:42Z</time>
      </trkpt>
      <trkpt lat="42.012550" lon="2.673816">
        <ele>282.04483</ele>
        <time>2021-07-02T15:20:43Z</time>
      </trkpt>
      <trkpt lat="42.012703" lon="2.673760">
        <ele>280.84686</ele>
        <time>2021-07-02T15:20:44Z</time>
      </trkpt>
      <trkpt lat="42.012878" lon="2.673681">
        <ele>280.46866</ele>
        <time>2021-07-02T15:20:45Z</time>
      </trkpt>
      <trkpt lat="42.013012" lon="2.673685">
        <ele>280.61105</ele>
        <time>2021-07-02T15:20:46Z</time>
      </trkpt>
      <trkpt lat="42.013058" lon="2.673719">
        <ele>281.70508</ele>
        <time>2021-07-02T15:20:47Z</time>
      </trkpt>
      <trkpt lat="42.013126" lon="2.673797">
        <ele>281.64609</ele>
        <time>2021-07-02T15:20:48Z</time>
      </trkpt>
      <trkpt lat="42.013252" lon="2.673947">
        <ele>281.76105</ele>
        <time>2021-07-02T15:20:49Z</time>
      </trkpt>
      <trkpt lat="42.013390" lon="2.674040">
        <ele>281.82376</ele>
        <time>2021-07-02T15:20:50Z</time>
      </trkpt>
      <trkpt lat="42.013535" lon="2.674064">
        <ele>282.52328</ele>
        <time>2021-07-02T15:20:51Z</time>
      </trkpt>
      <trkpt lat="42.013680" lon="2.674038">
        <ele>282.52328</ele>
        <time>2021-07-02T15:20:52Z</time>
      </trkpt>
      <trkpt lat="42.013836" lon="2.673996">
        <ele>283.46887</ele>
        <time>2021-07-02T15:20:53Z</time>
      </trkpt>
      <trkpt lat="42.014008" lon="2.673949">
        <ele>282.96164</ele>
        <time>2021-07-02T15:20:54Z</time>
      </trkpt>
      <trkpt lat="42.014236" lon="2.673889">
        <ele>282.75735</ele>
        <time>2021-07-02T15:20:55Z</time>
      </trkpt>
      <trkpt lat="42.014404" lon="2.673788">
        <ele>292.23636</ele>
        <time>2021-07-02T15:20:56Z</time>
      </trkpt>
      <trkpt lat="42.014534" lon="2.673674">
        <ele>292.47629</ele>
        <time>2021-07-02T15:20:57Z</time>
      </trkpt>
      <trkpt lat="42.014713" lon="2.673515">
        <ele>284.24707</ele>
        <time>2021-07-02T15:20:58Z</time>
      </trkpt>
      <trkpt lat="42.014908" lon="2.673325">
        <ele>284.14435</ele>
        <time>2021-07-02T15:20:59Z</time>
      </trkpt>
      <trkpt lat="42.015011" lon="2.673182">
        <ele>283.61963</ele>
        <time>2021-07-02T15:21:00Z</time>
      </trkpt>
      <trkpt lat="42.015110" lon="2.672973">
        <ele>283.03958</ele>
        <time>2021-07-02T15:21:01Z</time>
      </trkpt>
      <trkpt lat="42.015175" lon="2.672758">
        <ele>283.18747</ele>
        <time>2021-07-02T15:21:02Z</time>
      </trkpt>
      <trkpt lat="42.015190" lon="2.672637">
        <ele>283.08868</ele>
        <time>2021-07-02T15:21:03Z</time>
      </trkpt>
      <trkpt lat="42.015182" lon="2.672459">
        <ele>283.19769</ele>
        <time>2021-07-02T15:21:04Z</time>
      </trkpt>
      <trkpt lat="42.015190" lon="2.672288">
        <ele>282.72726</ele>
        <time>2021-07-02T15:21:05Z</time>
      </trkpt>
      <trkpt lat="42.015190" lon="2.672288">
        <ele>282.51617</ele>
        <time>2021-07-02T15:21:06Z</time>
      </trkpt>
      <trkpt lat="42.015224" lon="2.672168">
        <ele>282.55530</ele>
        <time>2021-07-02T15:21:07Z</time>
      </trkpt>
      <trkpt lat="42.015282" lon="2.672100">
        <ele>283.27539</ele>
        <time>2021-07-02T15:21:08Z</time>
      </trkpt>
      <trkpt lat="42.015350" lon="2.672072">
        <ele>284.63943</ele>
        <time>2021-07-02T15:21:09Z</time>
      </trkpt>
      <trkpt lat="42.015400" lon="2.672069">
        <ele>283.89185</ele>
        <time>2021-07-02T15:21:10Z</time>
      </trkpt>
      <trkpt lat="42.015472" lon="2.672080">
        <ele>283.70215</ele>
        <time>2021-07-02T15:21:11Z</time>
      </trkpt>
      <trkpt lat="42.015686" lon="2.672084">
        <ele>283.68918</ele>
        <time>2021-07-02T15:21:12Z</time>
      </trkpt>
      <trkpt lat="42.015766" lon="2.672035">
        <ele>284.04907</ele>
        <time>2021-07-02T15:21:13Z</time>
      </trkpt>
      <trkpt lat="42.015839" lon="2.671902">
        <ele>284.04907</ele>
        <time>2021-07-02T15:21:14Z</time>
      </trkpt>
      <trkpt lat="42.015846" lon="2.671766">
        <ele>285.44064</ele>
        <time>2021-07-02T15:21:15Z</time>
      </trkpt>
      <trkpt lat="42.015812" lon="2.671589">
        <ele>287.15579</ele>
        <time>2021-07-02T15:21:16Z</time>
      </trkpt>
      <trkpt lat="42.015774" lon="2.671417">
        <ele>287.99561</ele>
        <time>2021-07-02T15:21:17Z</time>
      </trkpt>
      <trkpt lat="42.015728" lon="2.671160">
        <ele>287.56058</ele>
        <time>2021-07-02T15:21:18Z</time>
      </trkpt>
      <trkpt lat="42.015663" lon="2.670895">
        <ele>286.30313</ele>
        <time>2021-07-02T15:21:19Z</time>
      </trkpt>
      <trkpt lat="42.015617" lon="2.670718">
        <ele>285.82162</ele>
        <time>2021-07-02T15:21:20Z</time>
      </trkpt>
      <trkpt lat="42.015556" lon="2.670545">
        <ele>285.50778</ele>
        <time>2021-07-02T15:21:21Z</time>
      </trkpt>
      <trkpt lat="42.015549" lon="2.670506">
        <ele>285.29752</ele>
        <time>2021-07-02T15:21:22Z</time>
      </trkpt>
      <trkpt lat="42.015560" lon="2.670343">
        <ele>286.22879</ele>
        <time>2021-07-02T15:21:23Z</time>
      </trkpt>
      <trkpt lat="42.015636" lon="2.670206">
        <ele>286.31323</ele>
        <time>2021-07-02T15:21:24Z</time>
      </trkpt>
      <trkpt lat="42.015747" lon="2.670076">
        <ele>286.57874</ele>
        <time>2021-07-02T15:21:25Z</time>
      </trkpt>
      <trkpt lat="42.015850" lon="2.669887">
        <ele>286.64780</ele>
        <time>2021-07-02T15:21:26Z</time>
      </trkpt>
      <trkpt lat="42.015896" lon="2.669688">
        <ele>286.77222</ele>
        <time>2021-07-02T15:21:27Z</time>
      </trkpt>
      <trkpt lat="42.015930" lon="2.669492">
        <ele>286.77222</ele>
        <time>2021-07-02T15:21:28Z</time>
      </trkpt>
      <trkpt lat="42.015976" lon="2.669358">
        <ele>286.10025</ele>
        <time>2021-07-02T15:21:29Z</time>
      </trkpt>
      <trkpt lat="42.016052" lon="2.669258">
        <ele>286.46326</ele>
        <time>2021-07-02T15:21:30Z</time>
      </trkpt>
      <trkpt lat="42.016136" lon="2.669200">
        <ele>287.39386</ele>
        <time>2021-07-02T15:21:31Z</time>
      </trkpt>
      <trkpt lat="42.016136" lon="2.669200">
        <ele>287.06528</ele>
        <time>2021-07-02T15:21:32Z</time>
      </trkpt>
      <trkpt lat="42.016216" lon="2.669160">
        <ele>286.56210</ele>
        <time>2021-07-02T15:21:33Z</time>
      </trkpt>
      <trkpt lat="42.016323" lon="2.669112">
        <ele>285.71689</ele>
        <time>2021-07-02T15:21:34Z</time>
      </trkpt>
      <trkpt lat="42.016449" lon="2.669069">
        <ele>286.13190</ele>
        <time>2021-07-02T15:21:35Z</time>
      </trkpt>
      <trkpt lat="42.016556" lon="2.669086">
        <ele>286.14914</ele>
        <time>2021-07-02T15:21:36Z</time>
      </trkpt>
      <trkpt lat="42.016640" lon="2.669162">
        <ele>286.96625</ele>
        <time>2021-07-02T15:21:37Z</time>
      </trkpt>
      <trkpt lat="42.016735" lon="2.669426">
        <ele>287.81668</ele>
        <time>2021-07-02T15:21:38Z</time>
      </trkpt>
      <trkpt lat="42.016792" lon="2.669596">
        <ele>288.98782</ele>
        <time>2021-07-02T15:21:39Z</time>
      </trkpt>
      <trkpt lat="42.016888" lon="2.669811">
        <ele>296.01572</ele>
        <time>2021-07-02T15:21:40Z</time>
      </trkpt>
      <trkpt lat="42.016994" lon="2.670019">
        <ele>289.95697</ele>
        <time>2021-07-02T15:21:41Z</time>
      </trkpt>
      <trkpt lat="42.017136" lon="2.670278">
        <ele>288.35199</ele>
        <time>2021-07-02T15:21:42Z</time>
      </trkpt>
      <trkpt lat="42.017269" lon="2.670480">
        <ele>287.70215</ele>
        <time>2021-07-02T15:21:43Z</time>
      </trkpt>
      <trkpt lat="42.017380" lon="2.670540">
        <ele>288.09271</ele>
        <time>2021-07-02T15:21:44Z</time>
      </trkpt>
      <trkpt lat="42.017460" lon="2.670541">
        <ele>288.05807</ele>
        <time>2021-07-02T15:21:45Z</time>
      </trkpt>
      <trkpt lat="42.017544" lon="2.670518">
        <ele>289.23874</ele>
        <time>2021-07-02T15:21:46Z</time>
      </trkpt>
      <trkpt lat="42.017647" lon="2.670441">
        <ele>297.67880</ele>
        <time>2021-07-02T15:21:47Z</time>
      </trkpt>
      <trkpt lat="42.017792" lon="2.670325">
        <ele>290.92987</ele>
        <time>2021-07-02T15:21:48Z</time>
      </trkpt>
      <trkpt lat="42.018028" lon="2.670139">
        <ele>290.68808</ele>
        <time>2021-07-02T15:21:49Z</time>
      </trkpt>
      <trkpt lat="42.018192" lon="2.670077">
        <ele>290.85925</ele>
        <time>2021-07-02T15:21:50Z</time>
      </trkpt>
      <trkpt lat="42.018326" lon="2.670080">
        <ele>291.14532</ele>
        <time>2021-07-02T15:21:51Z</time>
      </trkpt>
      <trkpt lat="42.018326" lon="2.670080">
        <ele>291.14532</ele>
        <time>2021-07-02T15:21:52Z</time>
      </trkpt>
      <trkpt lat="42.018326" lon="2.670080">
        <ele>290.81583</ele>
        <time>2021-07-02T15:21:53Z</time>
      </trkpt>
      <trkpt lat="42.018658" lon="2.670141">
        <ele>291.18433</ele>
        <time>2021-07-02T15:21:54Z</time>
      </trkpt>
      <trkpt lat="42.018799" lon="2.670122">
        <ele>292.24619</ele>
        <time>2021-07-02T15:21:55Z</time>
      </trkpt>
      <trkpt lat="42.018887" lon="2.670082">
        <ele>292.37927</ele>
        <time>2021-07-02T15:21:56Z</time>
      </trkpt>
      <trkpt lat="42.019104" lon="2.669940">
        <ele>291.69019</ele>
        <time>2021-07-02T15:21:57Z</time>
      </trkpt>
      <trkpt lat="42.019253" lon="2.669758">
        <ele>290.32410</ele>
        <time>2021-07-02T15:21:58Z</time>
      </trkpt>
      <trkpt lat="42.019253" lon="2.669758">
        <ele>289.13196</ele>
        <time>2021-07-02T15:21:59Z</time>
      </trkpt>
      <trkpt lat="42.019360" lon="2.669601">
        <ele>287.59720</ele>
        <time>2021-07-02T15:22:00Z</time>
      </trkpt>
      <trkpt lat="42.019501" lon="2.669452">
        <ele>285.92554</ele>
        <time>2021-07-02T15:22:01Z</time>
      </trkpt>
      <trkpt lat="42.019642" lon="2.669386">
        <ele>285.89566</ele>
        <time>2021-07-02T15:22:02Z</time>
      </trkpt>
      <trkpt lat="42.019760" lon="2.669387">
        <ele>285.70273</ele>
        <time>2021-07-02T15:22:03Z</time>
      </trkpt>
      <trkpt lat="42.019901" lon="2.669458">
        <ele>285.82877</ele>
        <time>2021-07-02T15:22:04Z</time>
      </trkpt>
      <trkpt lat="42.020012" lon="2.669562">
        <ele>284.57840</ele>
        <time>2021-07-02T15:22:05Z</time>
      </trkpt>
      <trkpt lat="42.020096" lon="2.669641">
        <ele>283.66861</ele>
        <time>2021-07-02T15:22:06Z</time>
      </trkpt>
      <trkpt lat="42.020325" lon="2.669776">
        <ele>283.18622</ele>
        <time>2021-07-02T15:22:07Z</time>
      </trkpt>
      <trkpt lat="42.020405" lon="2.669764">
        <ele>282.77942</ele>
        <time>2021-07-02T15:22:08Z</time>
      </trkpt>
      <trkpt lat="42.020535" lon="2.669707">
        <ele>281.97467</ele>
        <time>2021-07-02T15:22:09Z</time>
      </trkpt>
      <trkpt lat="42.020683" lon="2.669620">
        <ele>281.15585</ele>
        <time>2021-07-02T15:22:10Z</time>
      </trkpt>
      <trkpt lat="42.020821" lon="2.669468">
        <ele>280.62823</ele>
        <time>2021-07-02T15:22:11Z</time>
      </trkpt>
      <trkpt lat="42.020901" lon="2.669334">
        <ele>280.62823</ele>
        <time>2021-07-02T15:22:12Z</time>
      </trkpt>
      <trkpt lat="42.021004" lon="2.669170">
        <ele>279.15067</ele>
        <time>2021-07-02T15:22:13Z</time>
      </trkpt>
      <trkpt lat="42.021118" lon="2.669050">
        <ele>279.22592</ele>
        <time>2021-07-02T15:22:14Z</time>
      </trkpt>
      <trkpt lat="42.021233" lon="2.668955">
        <ele>277.51556</ele>
        <time>2021-07-02T15:22:15Z</time>
      </trkpt>
      <trkpt lat="42.021347" lon="2.668863">
        <ele>277.51556</ele>
        <time>2021-07-02T15:22:16Z</time>
      </trkpt>
      <trkpt lat="42.021473" lon="2.668784">
        <ele>275.41360</ele>
        <time>2021-07-02T15:22:17Z</time>
      </trkpt>
      <trkpt lat="42.021702" lon="2.668710">
        <ele>274.93213</ele>
        <time>2021-07-02T15:22:18Z</time>
      </trkpt>
      <trkpt lat="42.021816" lon="2.668699">
        <ele>284.42142</ele>
        <time>2021-07-02T15:22:19Z</time>
      </trkpt>
      <trkpt lat="42.022022" lon="2.668725">
        <ele>273.75989</ele>
        <time>2021-07-02T15:22:20Z</time>
      </trkpt>
      <trkpt lat="42.022240" lon="2.668789">
        <ele>272.13327</ele>
        <time>2021-07-02T15:22:21Z</time>
      </trkpt>
      <trkpt lat="42.022419" lon="2.668837">
        <ele>269.54660</ele>
        <time>2021-07-02T15:22:22Z</time>
      </trkpt>
      <trkpt lat="42.022533" lon="2.668842">
        <ele>268.94125</ele>
        <time>2021-07-02T15:22:23Z</time>
      </trkpt>
      <trkpt lat="42.022621" lon="2.668821">
        <ele>268.44818</ele>
        <time>2021-07-02T15:22:24Z</time>
      </trkpt>
      <trkpt lat="42.022621" lon="2.668821">
        <ele>267.31100</ele>
        <time>2021-07-02T15:22:25Z</time>
      </trkpt>
      <trkpt lat="42.022728" lon="2.668751">
        <ele>267.07413</ele>
        <time>2021-07-02T15:22:26Z</time>
      </trkpt>
      <trkpt lat="42.022820" lon="2.668626">
        <ele>267.08810</ele>
        <time>2021-07-02T15:22:27Z</time>
      </trkpt>
      <trkpt lat="42.022888" lon="2.668472">
        <ele>267.03622</ele>
        <time>2021-07-02T15:22:28Z</time>
      </trkpt>
      <trkpt lat="42.022942" lon="2.668274">
        <ele>266.53198</ele>
        <time>2021-07-02T15:22:29Z</time>
      </trkpt>
      <trkpt lat="42.022987" lon="2.668073">
        <ele>266.53198</ele>
        <time>2021-07-02T15:22:30Z</time>
      </trkpt>
      <trkpt lat="42.023064" lon="2.667791">
        <ele>263.54108</ele>
        <time>2021-07-02T15:22:31Z</time>
      </trkpt>
      <trkpt lat="42.023148" lon="2.667589">
        <ele>262.93359</ele>
        <time>2021-07-02T15:22:32Z</time>
      </trkpt>
      <trkpt lat="42.023224" lon="2.667470">
        <ele>262.26324</ele>
        <time>2021-07-02T15:22:33Z</time>
      </trkpt>
      <trkpt lat="42.023315" lon="2.667363">
        <ele>262.16110</ele>
        <time>2021-07-02T15:22:34Z</time>
      </trkpt>
      <trkpt lat="42.023411" lon="2.667248">
        <ele>261.03671</ele>
        <time>2021-07-02T15:22:35Z</time>
      </trkpt>
      <trkpt lat="42.023476" lon="2.667050">
        <ele>261.13934</ele>
        <time>2021-07-02T15:22:36Z</time>
      </trkpt>
      <trkpt lat="42.023487" lon="2.666856">
        <ele>261.27304</ele>
        <time>2021-07-02T15:22:37Z</time>
      </trkpt>
      <trkpt lat="42.023472" lon="2.666596">
        <ele>271.73520</ele>
        <time>2021-07-02T15:22:38Z</time>
      </trkpt>
      <trkpt lat="42.023407" lon="2.666357">
        <ele>258.49924</ele>
        <time>2021-07-02T15:22:39Z</time>
      </trkpt>
      <trkpt lat="42.023315" lon="2.666091">
        <ele>256.57373</ele>
        <time>2021-07-02T15:22:40Z</time>
      </trkpt>
      <trkpt lat="42.023266" lon="2.665918">
        <ele>256.27536</ele>
        <time>2021-07-02T15:22:41Z</time>
      </trkpt>
      <trkpt lat="42.023258" lon="2.665740">
        <ele>254.21443</ele>
        <time>2021-07-02T15:22:42Z</time>
      </trkpt>
      <trkpt lat="42.023319" lon="2.665594">
        <ele>253.58286</ele>
        <time>2021-07-02T15:22:43Z</time>
      </trkpt>
      <trkpt lat="42.023403" lon="2.665512">
        <ele>253.79051</ele>
        <time>2021-07-02T15:22:44Z</time>
      </trkpt>
      <trkpt lat="42.023457" lon="2.665495">
        <ele>253.36887</ele>
        <time>2021-07-02T15:22:45Z</time>
      </trkpt>
      <trkpt lat="42.023476" lon="2.665494">
        <ele>253.36887</ele>
        <time>2021-07-02T15:22:46Z</time>
      </trkpt>
      <trkpt lat="42.023579" lon="2.665510">
        <ele>252.51225</ele>
        <time>2021-07-02T15:22:47Z</time>
      </trkpt>
      <trkpt lat="42.023705" lon="2.665570">
        <ele>252.06673</ele>
        <time>2021-07-02T15:22:48Z</time>
      </trkpt>
      <trkpt lat="42.023804" lon="2.665614">
        <ele>251.71809</ele>
        <time>2021-07-02T15:22:49Z</time>
      </trkpt>
      <trkpt lat="42.023998" lon="2.665630">
        <ele>251.16827</ele>
        <time>2021-07-02T15:22:50Z</time>
      </trkpt>
      <trkpt lat="42.024189" lon="2.665569">
        <ele>251.06424</ele>
        <time>2021-07-02T15:22:51Z</time>
      </trkpt>
      <trkpt lat="42.024326" lon="2.665532">
        <ele>247.90756</ele>
        <time>2021-07-02T15:22:52Z</time>
      </trkpt>
      <trkpt lat="42.024559" lon="2.665548">
        <ele>245.90268</ele>
        <time>2021-07-02T15:22:53Z</time>
      </trkpt>
      <trkpt lat="42.024559" lon="2.665548">
        <ele>244.86450</ele>
        <time>2021-07-02T15:22:54Z</time>
      </trkpt>
      <trkpt lat="42.024750" lon="2.665580">
        <ele>243.67003</ele>
        <time>2021-07-02T15:22:55Z</time>
      </trkpt>
      <trkpt lat="42.024895" lon="2.665595">
        <ele>242.32936</ele>
        <time>2021-07-02T15:22:56Z</time>
      </trkpt>
      <trkpt lat="42.025009" lon="2.665549">
        <ele>242.18570</ele>
        <time>2021-07-02T15:22:57Z</time>
      </trkpt>
      <trkpt lat="42.025101" lon="2.665476">
        <ele>242.66367</ele>
        <time>2021-07-02T15:22:58Z</time>
      </trkpt>
      <trkpt lat="42.025162" lon="2.665390">
        <ele>242.36597</ele>
        <time>2021-07-02T15:22:59Z</time>
      </trkpt>
      <trkpt lat="42.025265" lon="2.665227">
        <ele>241.83249</ele>
        <time>2021-07-02T15:23:00Z</time>
      </trkpt>
      <trkpt lat="42.025414" lon="2.664873">
        <ele>252.55344</ele>
        <time>2021-07-02T15:23:01Z</time>
      </trkpt>
      <trkpt lat="42.025467" lon="2.664631">
        <ele>252.36411</ele>
        <time>2021-07-02T15:23:02Z</time>
      </trkpt>
      <trkpt lat="42.025505" lon="2.664380">
        <ele>239.69139</ele>
        <time>2021-07-02T15:23:03Z</time>
      </trkpt>
      <trkpt lat="42.025551" lon="2.664104">
        <ele>238.29698</ele>
        <time>2021-07-02T15:23:04Z</time>
      </trkpt>
      <trkpt lat="42.025600" lon="2.663852">
        <ele>236.47792</ele>
        <time>2021-07-02T15:23:05Z</time>
      </trkpt>
      <trkpt lat="42.025669" lon="2.663693">
        <ele>236.15996</ele>
        <time>2021-07-02T15:23:06Z</time>
      </trkpt>
      <trkpt lat="42.025734" lon="2.663583">
        <ele>235.55011</ele>
        <time>2021-07-02T15:23:07Z</time>
      </trkpt>
      <trkpt lat="42.025810" lon="2.663492">
        <ele>235.70563</ele>
        <time>2021-07-02T15:23:08Z</time>
      </trkpt>
      <trkpt lat="42.025936" lon="2.663361">
        <ele>234.31512</ele>
        <time>2021-07-02T15:23:09Z</time>
      </trkpt>
      <trkpt lat="42.026104" lon="2.663233">
        <ele>233.35941</ele>
        <time>2021-07-02T15:23:10Z</time>
      </trkpt>
      <trkpt lat="42.026291" lon="2.663080">
        <ele>232.71681</ele>
        <time>2021-07-02T15:23:11Z</time>
      </trkpt>
      <trkpt lat="42.026382" lon="2.662982">
        <ele>231.46812</ele>
        <time>2021-07-02T15:23:12Z</time>
      </trkpt>
      <trkpt lat="42.026524" lon="2.662804">
        <ele>228.84703</ele>
        <time>2021-07-02T15:23:13Z</time>
      </trkpt>
      <trkpt lat="42.026627" lon="2.662640">
        <ele>227.69090</ele>
        <time>2021-07-02T15:23:14Z</time>
      </trkpt>
      <trkpt lat="42.026714" lon="2.662526">
        <ele>226.94238</ele>
        <time>2021-07-02T15:23:15Z</time>
      </trkpt>
      <trkpt lat="42.026802" lon="2.662459">
        <ele>226.11765</ele>
        <time>2021-07-02T15:23:16Z</time>
      </trkpt>
      <trkpt lat="42.026909" lon="2.662446">
        <ele>225.55522</ele>
        <time>2021-07-02T15:23:17Z</time>
      </trkpt>
      <trkpt lat="42.027023" lon="2.662496">
        <ele>224.79028</ele>
        <time>2021-07-02T15:23:18Z</time>
      </trkpt>
      <trkpt lat="42.027023" lon="2.662496">
        <ele>224.79028</ele>
        <time>2021-07-02T15:23:19Z</time>
      </trkpt>
      <trkpt lat="42.027149" lon="2.662601">
        <ele>221.97363</ele>
        <time>2021-07-02T15:23:20Z</time>
      </trkpt>
      <trkpt lat="42.027229" lon="2.662670">
        <ele>221.70967</ele>
        <time>2021-07-02T15:23:21Z</time>
      </trkpt>
      <trkpt lat="42.027241" lon="2.662679">
        <ele>221.67406</ele>
        <time>2021-07-02T15:23:22Z</time>
      </trkpt>
      <trkpt lat="42.027245" lon="2.662683">
        <ele>221.69333</ele>
        <time>2021-07-02T15:23:23Z</time>
      </trkpt>
      <trkpt lat="42.027267" lon="2.662701">
        <ele>221.74730</ele>
        <time>2021-07-02T15:23:24Z</time>
      </trkpt>
      <trkpt lat="42.027302" lon="2.662656">
        <ele>221.83041</ele>
        <time>2021-07-02T15:23:25Z</time>
      </trkpt>
      <trkpt lat="42.027351" lon="2.662563">
        <ele>222.05389</ele>
        <time>2021-07-02T15:23:26Z</time>
      </trkpt>
      <trkpt lat="42.027401" lon="2.662472">
        <ele>222.26706</ele>
        <time>2021-07-02T15:23:27Z</time>
      </trkpt>
      <trkpt lat="42.027451" lon="2.662377">
        <ele>222.41225</ele>
        <time>2021-07-02T15:23:28Z</time>
      </trkpt>
      <trkpt lat="42.027515" lon="2.662259">
        <ele>223.00406</ele>
        <time>2021-07-02T15:23:29Z</time>
      </trkpt>
      <trkpt lat="42.027580" lon="2.662133">
        <ele>224.47032</ele>
        <time>2021-07-02T15:23:30Z</time>
      </trkpt>
      <trkpt lat="42.027672" lon="2.661966">
        <ele>224.80035</ele>
        <time>2021-07-02T15:23:31Z</time>
      </trkpt>
      <trkpt lat="42.027779" lon="2.661767">
        <ele>231.64682</ele>
        <time>2021-07-02T15:23:32Z</time>
      </trkpt>
      <trkpt lat="42.027901" lon="2.661539">
        <ele>232.23325</ele>
        <time>2021-07-02T15:23:33Z</time>
      </trkpt>
      <trkpt lat="42.028027" lon="2.661288">
        <ele>232.51645</ele>
        <time>2021-07-02T15:23:34Z</time>
      </trkpt>
      <trkpt lat="42.028141" lon="2.661061">
        <ele>232.59555</ele>
        <time>2021-07-02T15:23:35Z</time>
      </trkpt>
      <trkpt lat="42.028240" lon="2.660862">
        <ele>232.61954</ele>
        <time>2021-07-02T15:23:36Z</time>
      </trkpt>
      <trkpt lat="42.028355" lon="2.660639">
        <ele>233.16824</ele>
        <time>2021-07-02T15:23:37Z</time>
      </trkpt>
      <trkpt lat="42.028465" lon="2.660417">
        <ele>233.44351</ele>
        <time>2021-07-02T15:23:38Z</time>
      </trkpt>
      <trkpt lat="42.028580" lon="2.660191">
        <ele>233.54898</ele>
        <time>2021-07-02T15:23:39Z</time>
      </trkpt>
      <trkpt lat="42.028721" lon="2.659937">
        <ele>233.85446</ele>
        <time>2021-07-02T15:23:40Z</time>
      </trkpt>
      <trkpt lat="42.028877" lon="2.659668">
        <ele>234.02902</ele>
        <time>2021-07-02T15:23:41Z</time>
      </trkpt>
      <trkpt lat="42.029015" lon="2.659424">
        <ele>234.14096</ele>
        <time>2021-07-02T15:23:42Z</time>
      </trkpt>
      <trkpt lat="42.029163" lon="2.659168">
        <ele>234.45865</ele>
        <time>2021-07-02T15:23:43Z</time>
      </trkpt>
      <trkpt lat="42.029308" lon="2.658895">
        <ele>235.29800</ele>
        <time>2021-07-02T15:23:44Z</time>
      </trkpt>
      <trkpt lat="42.029449" lon="2.658632">
        <ele>235.74026</ele>
        <time>2021-07-02T15:23:45Z</time>
      </trkpt>
      <trkpt lat="42.029594" lon="2.658358">
        <ele>235.54245</ele>
        <time>2021-07-02T15:23:46Z</time>
      </trkpt>
      <trkpt lat="42.029739" lon="2.658087">
        <ele>235.54282</ele>
        <time>2021-07-02T15:23:47Z</time>
      </trkpt>
      <trkpt lat="42.029869" lon="2.657841">
        <ele>235.90182</ele>
        <time>2021-07-02T15:23:48Z</time>
      </trkpt>
      <trkpt lat="42.030006" lon="2.657580">
        <ele>236.41879</ele>
        <time>2021-07-02T15:23:49Z</time>
      </trkpt>
      <trkpt lat="42.030140" lon="2.657332">
        <ele>236.57162</ele>
        <time>2021-07-02T15:23:50Z</time>
      </trkpt>
      <trkpt lat="42.030140" lon="2.657332">
        <ele>237.10239</ele>
        <time>2021-07-02T15:23:51Z</time>
      </trkpt>
      <trkpt lat="42.030277" lon="2.657073">
        <ele>237.67709</ele>
        <time>2021-07-02T15:23:52Z</time>
      </trkpt>
      <trkpt lat="42.030403" lon="2.656832">
        <ele>238.46115</ele>
        <time>2021-07-02T15:23:53Z</time>
      </trkpt>
      <trkpt lat="42.030552" lon="2.656557">
        <ele>239.02524</ele>
        <time>2021-07-02T15:23:54Z</time>
      </trkpt>
      <trkpt lat="42.030682" lon="2.656312">
        <ele>239.45547</ele>
        <time>2021-07-02T15:23:55Z</time>
      </trkpt>
      <trkpt lat="42.030830" lon="2.656036">
        <ele>239.82773</ele>
        <time>2021-07-02T15:23:56Z</time>
      </trkpt>
      <trkpt lat="42.030960" lon="2.655791">
        <ele>240.51865</ele>
        <time>2021-07-02T15:23:57Z</time>
      </trkpt>
      <trkpt lat="42.031094" lon="2.655538">
        <ele>241.17172</ele>
        <time>2021-07-02T15:23:58Z</time>
      </trkpt>
      <trkpt lat="42.031227" lon="2.655286">
        <ele>241.52194</ele>
        <time>2021-07-02T15:23:59Z</time>
      </trkpt>
      <trkpt lat="42.031368" lon="2.655020">
        <ele>241.81693</ele>
        <time>2021-07-02T15:24:00Z</time>
      </trkpt>
      <trkpt lat="42.031498" lon="2.654772">
        <ele>242.29379</ele>
        <time>2021-07-02T15:24:01Z</time>
      </trkpt>
      <trkpt lat="42.031624" lon="2.654538">
        <ele>242.78818</ele>
        <time>2021-07-02T15:24:02Z</time>
      </trkpt>
      <trkpt lat="42.031765" lon="2.654267">
        <ele>243.02707</ele>
        <time>2021-07-02T15:24:03Z</time>
      </trkpt>
      <trkpt lat="42.031895" lon="2.654021">
        <ele>242.90695</ele>
        <time>2021-07-02T15:24:04Z</time>
      </trkpt>
      <trkpt lat="42.032028" lon="2.653765">
        <ele>242.91904</ele>
        <time>2021-07-02T15:24:05Z</time>
      </trkpt>
      <trkpt lat="42.032169" lon="2.653498">
        <ele>242.93558</ele>
        <time>2021-07-02T15:24:06Z</time>
      </trkpt>
      <trkpt lat="42.032318" lon="2.653214">
        <ele>242.84201</ele>
        <time>2021-07-02T15:24:07Z</time>
      </trkpt>
      <trkpt lat="42.032463" lon="2.652940">
        <ele>242.74289</ele>
        <time>2021-07-02T15:24:08Z</time>
      </trkpt>
      <trkpt lat="42.032627" lon="2.652630">
        <ele>243.08530</ele>
        <time>2021-07-02T15:24:09Z</time>
      </trkpt>
      <trkpt lat="42.032787" lon="2.652328">
        <ele>242.74948</ele>
        <time>2021-07-02T15:24:10Z</time>
      </trkpt>
      <trkpt lat="42.032948" lon="2.652028">
        <ele>242.59128</ele>
        <time>2021-07-02T15:24:11Z</time>
      </trkpt>
      <trkpt lat="42.033127" lon="2.651697">
        <ele>243.13132</ele>
        <time>2021-07-02T15:24:12Z</time>
      </trkpt>
      <trkpt lat="42.033291" lon="2.651387">
        <ele>243.47482</ele>
        <time>2021-07-02T15:24:13Z</time>
      </trkpt>
      <trkpt lat="42.033463" lon="2.651067">
        <ele>243.47482</ele>
        <time>2021-07-02T15:24:14Z</time>
      </trkpt>
      <trkpt lat="42.033642" lon="2.650730">
        <ele>243.05826</ele>
        <time>2021-07-02T15:24:15Z</time>
      </trkpt>
      <trkpt lat="42.033810" lon="2.650413">
        <ele>243.16721</ele>
        <time>2021-07-02T15:24:16Z</time>
      </trkpt>
      <trkpt lat="42.033810" lon="2.650413">
        <ele>243.60574</ele>
        <time>2021-07-02T15:24:17Z</time>
      </trkpt>
      <trkpt lat="42.033958" lon="2.650133">
        <ele>244.57376</ele>
        <time>2021-07-02T15:24:18Z</time>
      </trkpt>
      <trkpt lat="42.034100" lon="2.649867">
        <ele>244.98398</ele>
        <time>2021-07-02T15:24:19Z</time>
      </trkpt>
      <trkpt lat="42.034225" lon="2.649613">
        <ele>245.47586</ele>
        <time>2021-07-02T15:24:20Z</time>
      </trkpt>
      <trkpt lat="42.034355" lon="2.649363">
        <ele>246.29636</ele>
        <time>2021-07-02T15:24:21Z</time>
      </trkpt>
      <trkpt lat="42.034473" lon="2.649144">
        <ele>241.41525</ele>
        <time>2021-07-02T15:24:22Z</time>
      </trkpt>
      <trkpt lat="42.034588" lon="2.648930">
        <ele>241.35373</ele>
        <time>2021-07-02T15:24:23Z</time>
      </trkpt>
      <trkpt lat="42.034698" lon="2.648762">
        <ele>241.07687</ele>
        <time>2021-07-02T15:24:24Z</time>
      </trkpt>
      <trkpt lat="42.034817" lon="2.648619">
        <ele>241.46405</ele>
        <time>2021-07-02T15:24:25Z</time>
      </trkpt>
      <trkpt lat="42.034950" lon="2.648536">
        <ele>241.53613</ele>
        <time>2021-07-02T15:24:26Z</time>
      </trkpt>
      <trkpt lat="42.035114" lon="2.648436">
        <ele>241.52657</ele>
        <time>2021-07-02T15:24:27Z</time>
      </trkpt>
      <trkpt lat="42.035282" lon="2.648347">
        <ele>241.17935</ele>
        <time>2021-07-02T15:24:28Z</time>
      </trkpt>
      <trkpt lat="42.035469" lon="2.648297">
        <ele>240.88869</ele>
        <time>2021-07-02T15:24:29Z</time>
      </trkpt>
      <trkpt lat="42.035633" lon="2.648251">
        <ele>240.79402</ele>
        <time>2021-07-02T15:24:30Z</time>
      </trkpt>
      <trkpt lat="42.035774" lon="2.648212">
        <ele>240.25339</ele>
        <time>2021-07-02T15:24:31Z</time>
      </trkpt>
      <trkpt lat="42.035908" lon="2.648171">
        <ele>240.04247</ele>
        <time>2021-07-02T15:24:32Z</time>
      </trkpt>
      <trkpt lat="42.036041" lon="2.648130">
        <ele>239.82933</ele>
        <time>2021-07-02T15:24:33Z</time>
      </trkpt>
      <trkpt lat="42.036160" lon="2.648094">
        <ele>239.36925</ele>
        <time>2021-07-02T15:24:34Z</time>
      </trkpt>
      <trkpt lat="42.036274" lon="2.648059">
        <ele>239.19623</ele>
        <time>2021-07-02T15:24:35Z</time>
      </trkpt>
      <trkpt lat="42.036293" lon="2.648054">
        <ele>239.12105</ele>
        <time>2021-07-02T15:24:36Z</time>
      </trkpt>
      <trkpt lat="42.036293" lon="2.648054">
        <ele>239.02139</ele>
        <time>2021-07-02T15:24:37Z</time>
      </trkpt>
      <trkpt lat="42.036385" lon="2.648003">
        <ele>239.24954</ele>
        <time>2021-07-02T15:24:38Z</time>
      </trkpt>
      <trkpt lat="42.036617" lon="2.647693">
        <ele>239.24205</ele>
        <time>2021-07-02T15:24:39Z</time>
      </trkpt>
      <trkpt lat="42.036720" lon="2.647548">
        <ele>240.17967</ele>
        <time>2021-07-02T15:24:40Z</time>
      </trkpt>
      <trkpt lat="42.036842" lon="2.647404">
        <ele>239.03117</ele>
        <time>2021-07-02T15:24:41Z</time>
      </trkpt>
      <trkpt lat="42.036953" lon="2.647248">
        <ele>238.85287</ele>
        <time>2021-07-02T15:24:42Z</time>
      </trkpt>
      <trkpt lat="42.037025" lon="2.647101">
        <ele>238.58591</ele>
        <time>2021-07-02T15:24:43Z</time>
      </trkpt>
      <trkpt lat="42.037086" lon="2.646970">
        <ele>238.19113</ele>
        <time>2021-07-02T15:24:44Z</time>
      </trkpt>
      <trkpt lat="42.037140" lon="2.646851">
        <ele>237.87881</ele>
        <time>2021-07-02T15:24:45Z</time>
      </trkpt>
      <trkpt lat="42.037186" lon="2.646740">
        <ele>237.71407</ele>
        <time>2021-07-02T15:24:46Z</time>
      </trkpt>
      <trkpt lat="42.037228" lon="2.646640">
        <ele>237.69328</ele>
        <time>2021-07-02T15:24:47Z</time>
      </trkpt>
      <trkpt lat="42.037266" lon="2.646547">
        <ele>237.72087</ele>
        <time>2021-07-02T15:24:48Z</time>
      </trkpt>
      <trkpt lat="42.037304" lon="2.646460">
        <ele>237.53760</ele>
        <time>2021-07-02T15:24:49Z</time>
      </trkpt>
      <trkpt lat="42.037338" lon="2.646384">
        <ele>237.45735</ele>
        <time>2021-07-02T15:24:50Z</time>
      </trkpt>
      <trkpt lat="42.037365" lon="2.646314">
        <ele>237.60635</ele>
        <time>2021-07-02T15:24:51Z</time>
      </trkpt>
      <trkpt lat="42.037395" lon="2.646238">
        <ele>237.73721</ele>
        <time>2021-07-02T15:24:52Z</time>
      </trkpt>
      <trkpt lat="42.037422" lon="2.646166">
        <ele>237.95164</ele>
        <time>2021-07-02T15:24:53Z</time>
      </trkpt>
      <trkpt lat="42.037422" lon="2.646166">
        <ele>238.45782</ele>
        <time>2021-07-02T15:24:54Z</time>
      </trkpt>
      <trkpt lat="42.037449" lon="2.646096">
        <ele>239.10251</ele>
        <time>2021-07-02T15:24:55Z</time>
      </trkpt>
      <trkpt lat="42.037483" lon="2.645999">
        <ele>239.77815</ele>
        <time>2021-07-02T15:24:56Z</time>
      </trkpt>
      <trkpt lat="42.037537" lon="2.645855">
        <ele>240.37340</ele>
        <time>2021-07-02T15:24:57Z</time>
      </trkpt>
      <trkpt lat="42.037601" lon="2.645693">
        <ele>240.99251</ele>
        <time>2021-07-02T15:24:58Z</time>
      </trkpt>
      <trkpt lat="42.037670" lon="2.645527">
        <ele>241.48909</ele>
        <time>2021-07-02T15:24:59Z</time>
      </trkpt>
      <trkpt lat="42.037727" lon="2.645381">
        <ele>241.65642</ele>
        <time>2021-07-02T15:25:00Z</time>
      </trkpt>
      <trkpt lat="42.037792" lon="2.645222">
        <ele>243.49086</ele>
        <time>2021-07-02T15:25:01Z</time>
      </trkpt>
      <trkpt lat="42.037865" lon="2.645061">
        <ele>243.68991</ele>
        <time>2021-07-02T15:25:02Z</time>
      </trkpt>
      <trkpt lat="42.037949" lon="2.644884">
        <ele>244.10193</ele>
        <time>2021-07-02T15:25:03Z</time>
      </trkpt>
      <trkpt lat="42.038055" lon="2.644699">
        <ele>244.73001</ele>
        <time>2021-07-02T15:25:04Z</time>
      </trkpt>
      <trkpt lat="42.038143" lon="2.644559">
        <ele>245.83614</ele>
        <time>2021-07-02T15:25:05Z</time>
      </trkpt>
      <trkpt lat="42.038242" lon="2.644410">
        <ele>248.00815</ele>
        <time>2021-07-02T15:25:06Z</time>
      </trkpt>
      <trkpt lat="42.038410" lon="2.644189">
        <ele>249.01315</ele>
        <time>2021-07-02T15:25:07Z</time>
      </trkpt>
      <trkpt lat="42.038555" lon="2.644000">
        <ele>247.89749</ele>
        <time>2021-07-02T15:25:08Z</time>
      </trkpt>
      <trkpt lat="42.038715" lon="2.643785">
        <ele>249.07651</ele>
        <time>2021-07-02T15:25:09Z</time>
      </trkpt>
      <trkpt lat="42.038891" lon="2.643557">
        <ele>248.96793</ele>
        <time>2021-07-02T15:25:10Z</time>
      </trkpt>
      <trkpt lat="42.039070" lon="2.643314">
        <ele>248.71555</ele>
        <time>2021-07-02T15:25:11Z</time>
      </trkpt>
      <trkpt lat="42.039261" lon="2.643075">
        <ele>248.90891</ele>
        <time>2021-07-02T15:25:12Z</time>
      </trkpt>
      <trkpt lat="42.039436" lon="2.642851">
        <ele>248.94321</ele>
        <time>2021-07-02T15:25:13Z</time>
      </trkpt>
      <trkpt lat="42.039577" lon="2.642672">
        <ele>249.22775</ele>
        <time>2021-07-02T15:25:14Z</time>
      </trkpt>
      <trkpt lat="42.039703" lon="2.642510">
        <ele>247.39415</ele>
        <time>2021-07-02T15:25:15Z</time>
      </trkpt>
      <trkpt lat="42.039825" lon="2.642341">
        <ele>247.44809</ele>
        <time>2021-07-02T15:25:16Z</time>
      </trkpt>
      <trkpt lat="42.039886" lon="2.642213">
        <ele>247.87617</ele>
        <time>2021-07-02T15:25:17Z</time>
      </trkpt>
      <trkpt lat="42.039932" lon="2.642055">
        <ele>247.45070</ele>
        <time>2021-07-02T15:25:18Z</time>
      </trkpt>
      <trkpt lat="42.039963" lon="2.641884">
        <ele>246.94374</ele>
        <time>2021-07-02T15:25:19Z</time>
      </trkpt>
      <trkpt lat="42.039997" lon="2.641621">
        <ele>246.05574</ele>
        <time>2021-07-02T15:25:20Z</time>
      </trkpt>
      <trkpt lat="42.040054" lon="2.641465">
        <ele>245.82483</ele>
        <time>2021-07-02T15:25:21Z</time>
      </trkpt>
      <trkpt lat="42.040115" lon="2.641408">
        <ele>246.32295</ele>
        <time>2021-07-02T15:25:22Z</time>
      </trkpt>
      <trkpt lat="42.040115" lon="2.641408">
        <ele>246.55287</ele>
        <time>2021-07-02T15:25:23Z</time>
      </trkpt>
      <trkpt lat="42.040215" lon="2.641385">
        <ele>246.87216</ele>
        <time>2021-07-02T15:25:24Z</time>
      </trkpt>
      <trkpt lat="42.040333" lon="2.641408">
        <ele>247.86316</ele>
        <time>2021-07-02T15:25:25Z</time>
      </trkpt>
      <trkpt lat="42.040440" lon="2.641441">
        <ele>248.56328</ele>
        <time>2021-07-02T15:25:26Z</time>
      </trkpt>
      <trkpt lat="42.040672" lon="2.641512">
        <ele>248.63014</ele>
        <time>2021-07-02T15:25:27Z</time>
      </trkpt>
      <trkpt lat="42.040848" lon="2.641576">
        <ele>250.70847</ele>
        <time>2021-07-02T15:25:28Z</time>
      </trkpt>
      <trkpt lat="42.041008" lon="2.641711">
        <ele>248.79143</ele>
        <time>2021-07-02T15:25:29Z</time>
      </trkpt>
      <trkpt lat="42.041161" lon="2.641865">
        <ele>248.81735</ele>
        <time>2021-07-02T15:25:30Z</time>
      </trkpt>
      <trkpt lat="42.041340" lon="2.642046">
        <ele>249.06186</ele>
        <time>2021-07-02T15:25:31Z</time>
      </trkpt>
      <trkpt lat="42.041470" lon="2.642125">
        <ele>249.58672</ele>
        <time>2021-07-02T15:25:32Z</time>
      </trkpt>
      <trkpt lat="42.041603" lon="2.642126">
        <ele>250.00623</ele>
        <time>2021-07-02T15:25:33Z</time>
      </trkpt>
      <trkpt lat="42.041725" lon="2.642107">
        <ele>253.93887</ele>
        <time>2021-07-02T15:25:34Z</time>
      </trkpt>
      <trkpt lat="42.041901" lon="2.642054">
        <ele>254.28732</ele>
        <time>2021-07-02T15:25:35Z</time>
      </trkpt>
      <trkpt lat="42.042145" lon="2.641980">
        <ele>255.07956</ele>
        <time>2021-07-02T15:25:36Z</time>
      </trkpt>
      <trkpt lat="42.042385" lon="2.641909">
        <ele>255.98715</ele>
        <time>2021-07-02T15:25:37Z</time>
      </trkpt>
      <trkpt lat="42.042629" lon="2.641835">
        <ele>256.76266</ele>
        <time>2021-07-02T15:25:38Z</time>
      </trkpt>
      <trkpt lat="42.042870" lon="2.641763">
        <ele>257.76877</ele>
        <time>2021-07-02T15:25:39Z</time>
      </trkpt>
      <trkpt lat="42.043076" lon="2.641669">
        <ele>258.25150</ele>
        <time>2021-07-02T15:25:40Z</time>
      </trkpt>
      <trkpt lat="42.043289" lon="2.641553">
        <ele>258.30051</ele>
        <time>2021-07-02T15:25:41Z</time>
      </trkpt>
      <trkpt lat="42.043503" lon="2.641437">
        <ele>259.37735</ele>
        <time>2021-07-02T15:25:42Z</time>
      </trkpt>
      <trkpt lat="42.043716" lon="2.641320">
        <ele>260.63931</ele>
        <time>2021-07-02T15:25:43Z</time>
      </trkpt>
      <trkpt lat="42.043926" lon="2.641205">
        <ele>261.70432</ele>
        <time>2021-07-02T15:25:44Z</time>
      </trkpt>
      <trkpt lat="42.044151" lon="2.641084">
        <ele>261.91843</ele>
        <time>2021-07-02T15:25:45Z</time>
      </trkpt>
      <trkpt lat="42.044353" lon="2.640930">
        <ele>262.34940</ele>
        <time>2021-07-02T15:25:46Z</time>
      </trkpt>
      <trkpt lat="42.044498" lon="2.640770">
        <ele>262.56638</ele>
        <time>2021-07-02T15:25:47Z</time>
      </trkpt>
      <trkpt lat="42.044621" lon="2.640575">
        <ele>263.12009</ele>
        <time>2021-07-02T15:25:48Z</time>
      </trkpt>
      <trkpt lat="42.044762" lon="2.640305">
        <ele>264.41019</ele>
        <time>2021-07-02T15:25:49Z</time>
      </trkpt>
      <trkpt lat="42.044914" lon="2.640012">
        <ele>264.94766</ele>
        <time>2021-07-02T15:25:50Z</time>
      </trkpt>
      <trkpt lat="42.045071" lon="2.639708">
        <ele>265.68900</ele>
        <time>2021-07-02T15:25:51Z</time>
      </trkpt>
      <trkpt lat="42.045071" lon="2.639708">
        <ele>266.63998</ele>
        <time>2021-07-02T15:25:52Z</time>
      </trkpt>
      <trkpt lat="42.045231" lon="2.639400">
        <ele>267.51981</ele>
        <time>2021-07-02T15:25:53Z</time>
      </trkpt>
      <trkpt lat="42.045395" lon="2.639076">
        <ele>268.32034</ele>
        <time>2021-07-02T15:25:54Z</time>
      </trkpt>
      <trkpt lat="42.045563" lon="2.638754">
        <ele>268.83841</ele>
        <time>2021-07-02T15:25:55Z</time>
      </trkpt>
      <trkpt lat="42.045757" lon="2.638364">
        <ele>269.03586</ele>
        <time>2021-07-02T15:25:56Z</time>
      </trkpt>
      <trkpt lat="42.045906" lon="2.638066">
        <ele>269.79745</ele>
        <time>2021-07-02T15:25:57Z</time>
      </trkpt>
      <trkpt lat="42.046051" lon="2.637778">
        <ele>269.85690</ele>
        <time>2021-07-02T15:25:58Z</time>
      </trkpt>
      <trkpt lat="42.046227" lon="2.637450">
        <ele>269.94461</ele>
        <time>2021-07-02T15:25:59Z</time>
      </trkpt>
      <trkpt lat="42.046410" lon="2.637114">
        <ele>270.41464</ele>
        <time>2021-07-02T15:26:00Z</time>
      </trkpt>
      <trkpt lat="42.046543" lon="2.636864">
        <ele>271.24545</ele>
        <time>2021-07-02T15:26:01Z</time>
      </trkpt>
      <trkpt lat="42.046677" lon="2.636580">
        <ele>271.34848</ele>
        <time>2021-07-02T15:26:02Z</time>
      </trkpt>
      <trkpt lat="42.046791" lon="2.636346">
        <ele>271.62210</ele>
        <time>2021-07-02T15:26:03Z</time>
      </trkpt>
      <trkpt lat="42.046913" lon="2.636090">
        <ele>266.89130</ele>
        <time>2021-07-02T15:26:04Z</time>
      </trkpt>
      <trkpt lat="42.047016" lon="2.635883">
        <ele>266.42264</ele>
        <time>2021-07-02T15:26:05Z</time>
      </trkpt>
      <trkpt lat="42.047108" lon="2.635671">
        <ele>265.99832</ele>
        <time>2021-07-02T15:26:06Z</time>
      </trkpt>
      <trkpt lat="42.047138" lon="2.635508">
        <ele>266.51306</ele>
        <time>2021-07-02T15:26:07Z</time>
      </trkpt>
      <trkpt lat="42.047142" lon="2.635323">
        <ele>266.07956</ele>
        <time>2021-07-02T15:26:08Z</time>
      </trkpt>
      <trkpt lat="42.047180" lon="2.635140">
        <ele>266.95917</ele>
        <time>2021-07-02T15:26:09Z</time>
      </trkpt>
      <trkpt lat="42.047234" lon="2.635001">
        <ele>267.41086</ele>
        <time>2021-07-02T15:26:10Z</time>
      </trkpt>
      <trkpt lat="42.047325" lon="2.634889">
        <ele>268.06659</ele>
        <time>2021-07-02T15:26:11Z</time>
      </trkpt>
      <trkpt lat="42.047424" lon="2.634774">
        <ele>268.82352</ele>
        <time>2021-07-02T15:26:12Z</time>
      </trkpt>
      <trkpt lat="42.047546" lon="2.634629">
        <ele>267.99173</ele>
        <time>2021-07-02T15:26:13Z</time>
      </trkpt>
      <trkpt lat="42.047665" lon="2.634495">
        <ele>267.40707</ele>
        <time>2021-07-02T15:26:14Z</time>
      </trkpt>
      <trkpt lat="42.047760" lon="2.634384">
        <ele>267.13452</ele>
        <time>2021-07-02T15:26:15Z</time>
      </trkpt>
      <trkpt lat="42.047886" lon="2.634303">
        <ele>267.06183</ele>
        <time>2021-07-02T15:26:16Z</time>
      </trkpt>
      <trkpt lat="42.047989" lon="2.634234">
        <ele>266.84000</ele>
        <time>2021-07-02T15:26:17Z</time>
      </trkpt>
      <trkpt lat="42.048092" lon="2.634182">
        <ele>267.03195</ele>
        <time>2021-07-02T15:26:18Z</time>
      </trkpt>
      <trkpt lat="42.048183" lon="2.634141">
        <ele>266.87097</ele>
        <time>2021-07-02T15:26:19Z</time>
      </trkpt>
      <trkpt lat="42.048264" lon="2.634098">
        <ele>266.75650</ele>
        <time>2021-07-02T15:26:20Z</time>
      </trkpt>
      <trkpt lat="42.048344" lon="2.634053">
        <ele>266.55258</ele>
        <time>2021-07-02T15:26:21Z</time>
      </trkpt>
      <trkpt lat="42.048382" lon="2.634460">
        <ele>266.13049</ele>
        <time>2021-07-02T15:26:22Z</time>
      </trkpt>
      <trkpt lat="42.048477" lon="2.634612">
        <ele>266.13049</ele>
        <time>2021-07-02T15:26:23Z</time>
      </trkpt>
      <trkpt lat="42.048588" lon="2.634765">
        <ele>264.70364</ele>
        <time>2021-07-02T15:26:24Z</time>
      </trkpt>
      <trkpt lat="42.048588" lon="2.634765">
        <ele>263.75473</ele>
        <time>2021-07-02T15:26:25Z</time>
      </trkpt>
      <trkpt lat="42.048737" lon="2.634940">
        <ele>262.62537</ele>
        <time>2021-07-02T15:26:26Z</time>
      </trkpt>
      <trkpt lat="42.048847" lon="2.634997">
        <ele>262.81497</ele>
        <time>2021-07-02T15:26:27Z</time>
      </trkpt>
      <trkpt lat="42.048958" lon="2.634975">
        <ele>263.21243</ele>
        <time>2021-07-02T15:26:28Z</time>
      </trkpt>
      <trkpt lat="42.048992" lon="2.634966">
        <ele>263.34912</ele>
        <time>2021-07-02T15:26:29Z</time>
      </trkpt>
      <trkpt lat="42.049068" lon="2.634942">
        <ele>264.24170</ele>
        <time>2021-07-02T15:26:30Z</time>
      </trkpt>
      <trkpt lat="42.049175" lon="2.634909">
        <ele>264.95392</ele>
        <time>2021-07-02T15:26:31Z</time>
      </trkpt>
      <trkpt lat="42.049393" lon="2.634836">
        <ele>265.57779</ele>
        <time>2021-07-02T15:26:32Z</time>
      </trkpt>
      <trkpt lat="42.049492" lon="2.634800">
        <ele>267.15787</ele>
        <time>2021-07-02T15:26:33Z</time>
      </trkpt>
      <trkpt lat="42.049633" lon="2.634749">
        <ele>267.92429</ele>
        <time>2021-07-02T15:26:34Z</time>
      </trkpt>
      <trkpt lat="42.049755" lon="2.634705">
        <ele>268.49701</ele>
        <time>2021-07-02T15:26:35Z</time>
      </trkpt>
      <trkpt lat="42.049877" lon="2.634659">
        <ele>269.76514</ele>
        <time>2021-07-02T15:26:36Z</time>
      </trkpt>
      <trkpt lat="42.050007" lon="2.634638">
        <ele>271.01840</ele>
        <time>2021-07-02T15:26:37Z</time>
      </trkpt>
      <trkpt lat="42.050098" lon="2.634629">
        <ele>272.02945</ele>
        <time>2021-07-02T15:26:38Z</time>
      </trkpt>
      <trkpt lat="42.050259" lon="2.634646">
        <ele>272.40533</ele>
        <time>2021-07-02T15:26:39Z</time>
      </trkpt>
      <trkpt lat="42.050426" lon="2.634665">
        <ele>273.03635</ele>
        <time>2021-07-02T15:26:40Z</time>
      </trkpt>
      <trkpt lat="42.050579" lon="2.634711">
        <ele>273.44104</ele>
        <time>2021-07-02T15:26:41Z</time>
      </trkpt>
      <trkpt lat="42.050716" lon="2.634764">
        <ele>273.72726</ele>
        <time>2021-07-02T15:26:42Z</time>
      </trkpt>
      <trkpt lat="42.050850" lon="2.634843">
        <ele>274.89096</ele>
        <time>2021-07-02T15:26:43Z</time>
      </trkpt>
      <trkpt lat="42.050999" lon="2.634938">
        <ele>275.29877</ele>
        <time>2021-07-02T15:26:44Z</time>
      </trkpt>
      <trkpt lat="42.051140" lon="2.635051">
        <ele>275.42838</ele>
        <time>2021-07-02T15:26:45Z</time>
      </trkpt>
      <trkpt lat="42.051285" lon="2.635161">
        <ele>275.88516</ele>
        <time>2021-07-02T15:26:46Z</time>
      </trkpt>
      <trkpt lat="42.051422" lon="2.635288">
        <ele>277.13000</ele>
        <time>2021-07-02T15:26:47Z</time>
      </trkpt>
      <trkpt lat="42.051571" lon="2.635425">
        <ele>277.16464</ele>
        <time>2021-07-02T15:26:48Z</time>
      </trkpt>
      <trkpt lat="42.051716" lon="2.635580">
        <ele>276.89938</ele>
        <time>2021-07-02T15:26:49Z</time>
      </trkpt>
      <trkpt lat="42.051838" lon="2.635714">
        <ele>276.33612</ele>
        <time>2021-07-02T15:26:50Z</time>
      </trkpt>
      <trkpt lat="42.051922" lon="2.635835">
        <ele>276.19092</ele>
        <time>2021-07-02T15:26:51Z</time>
      </trkpt>
      <trkpt lat="42.051964" lon="2.635953">
        <ele>276.11029</ele>
        <time>2021-07-02T15:26:52Z</time>
      </trkpt>
      <trkpt lat="42.051983" lon="2.636062">
        <ele>276.45273</ele>
        <time>2021-07-02T15:26:53Z</time>
      </trkpt>
      <trkpt lat="42.051991" lon="2.636162">
        <ele>276.99945</ele>
        <time>2021-07-02T15:26:54Z</time>
      </trkpt>
      <trkpt lat="42.051994" lon="2.636303">
        <ele>277.18301</ele>
        <time>2021-07-02T15:26:55Z</time>
      </trkpt>
      <trkpt lat="42.051994" lon="2.636303">
        <ele>277.67685</ele>
        <time>2021-07-02T15:26:56Z</time>
      </trkpt>
      <trkpt lat="42.051983" lon="2.636518">
        <ele>278.26431</ele>
        <time>2021-07-02T15:26:57Z</time>
      </trkpt>
      <trkpt lat="42.051975" lon="2.636719">
        <ele>278.52097</ele>
        <time>2021-07-02T15:26:58Z</time>
      </trkpt>
      <trkpt lat="42.051971" lon="2.636915">
        <ele>278.52802</ele>
        <time>2021-07-02T15:26:59Z</time>
      </trkpt>
      <trkpt lat="42.051971" lon="2.637126">
        <ele>278.62814</ele>
        <time>2021-07-02T15:27:00Z</time>
      </trkpt>
      <trkpt lat="42.051987" lon="2.637352">
        <ele>279.10788</ele>
        <time>2021-07-02T15:27:01Z</time>
      </trkpt>
      <trkpt lat="42.052044" lon="2.637576">
        <ele>280.09732</ele>
        <time>2021-07-02T15:27:02Z</time>
      </trkpt>
      <trkpt lat="42.052109" lon="2.637788">
        <ele>280.91229</ele>
        <time>2021-07-02T15:27:03Z</time>
      </trkpt>
      <trkpt lat="42.052174" lon="2.637998">
        <ele>282.26965</ele>
        <time>2021-07-02T15:27:04Z</time>
      </trkpt>
      <trkpt lat="42.052174" lon="2.637999">
        <ele>283.42752</ele>
        <time>2021-07-02T15:27:05Z</time>
      </trkpt>
      <trkpt lat="42.052204" lon="2.638102">
        <ele>284.37097</ele>
        <time>2021-07-02T15:27:06Z</time>
      </trkpt>
      <trkpt lat="42.052383" lon="2.638713">
        <ele>285.80939</ele>
        <time>2021-07-02T15:27:07Z</time>
      </trkpt>
      <trkpt lat="42.052444" lon="2.638913">
        <ele>286.90860</ele>
        <time>2021-07-02T15:27:08Z</time>
      </trkpt>
      <trkpt lat="42.052521" lon="2.639161">
        <ele>287.66742</ele>
        <time>2021-07-02T15:27:09Z</time>
      </trkpt>
      <trkpt lat="42.052589" lon="2.639391">
        <ele>289.18689</ele>
        <time>2021-07-02T15:27:10Z</time>
      </trkpt>
      <trkpt lat="42.052658" lon="2.639615">
        <ele>289.72714</ele>
        <time>2021-07-02T15:27:11Z</time>
      </trkpt>
      <trkpt lat="42.052711" lon="2.639789">
        <ele>290.56912</ele>
        <time>2021-07-02T15:27:12Z</time>
      </trkpt>
      <trkpt lat="42.052769" lon="2.639970">
        <ele>290.66885</ele>
        <time>2021-07-02T15:27:13Z</time>
      </trkpt>
      <trkpt lat="42.052853" lon="2.640113">
        <ele>292.22699</ele>
        <time>2021-07-02T15:27:14Z</time>
      </trkpt>
      <trkpt lat="42.052971" lon="2.640265">
        <ele>292.51590</ele>
        <time>2021-07-02T15:27:15Z</time>
      </trkpt>
      <trkpt lat="42.053108" lon="2.640344">
        <ele>293.54810</ele>
        <time>2021-07-02T15:27:16Z</time>
      </trkpt>
      <trkpt lat="42.053242" lon="2.640401">
        <ele>294.99973</ele>
        <time>2021-07-02T15:27:17Z</time>
      </trkpt>
      <trkpt lat="42.053398" lon="2.640456">
        <ele>295.79147</ele>
        <time>2021-07-02T15:27:18Z</time>
      </trkpt>
      <trkpt lat="42.053589" lon="2.640521">
        <ele>300.16342</ele>
        <time>2021-07-02T15:27:19Z</time>
      </trkpt>
      <trkpt lat="42.053589" lon="2.640521">
        <ele>301.23093</ele>
        <time>2021-07-02T15:27:20Z</time>
      </trkpt>
      <trkpt lat="42.053978" lon="2.640651">
        <ele>302.47372</ele>
        <time>2021-07-02T15:27:21Z</time>
      </trkpt>
      <trkpt lat="42.053978" lon="2.640651">
        <ele>303.85641</ele>
        <time>2021-07-02T15:27:22Z</time>
      </trkpt>
      <trkpt lat="42.054195" lon="2.640724">
        <ele>305.02426</ele>
        <time>2021-07-02T15:27:23Z</time>
      </trkpt>
      <trkpt lat="42.054386" lon="2.640788">
        <ele>300.60153</ele>
        <time>2021-07-02T15:27:24Z</time>
      </trkpt>
      <trkpt lat="42.054600" lon="2.640858">
        <ele>300.64694</ele>
        <time>2021-07-02T15:27:25Z</time>
      </trkpt>
      <trkpt lat="42.054771" lon="2.640917">
        <ele>301.40823</ele>
        <time>2021-07-02T15:27:26Z</time>
      </trkpt>
      <trkpt lat="42.054916" lon="2.640989">
        <ele>302.40591</ele>
        <time>2021-07-02T15:27:27Z</time>
      </trkpt>
      <trkpt lat="42.055069" lon="2.641081">
        <ele>302.78845</ele>
        <time>2021-07-02T15:27:28Z</time>
      </trkpt>
      <trkpt lat="42.055214" lon="2.641231">
        <ele>302.78845</ele>
        <time>2021-07-02T15:27:29Z</time>
      </trkpt>
      <trkpt lat="42.055298" lon="2.641340">
        <ele>304.41843</ele>
        <time>2021-07-02T15:27:30Z</time>
      </trkpt>
      <trkpt lat="42.055378" lon="2.641487">
        <ele>306.21878</ele>
        <time>2021-07-02T15:27:31Z</time>
      </trkpt>
      <trkpt lat="42.055473" lon="2.641697">
        <ele>306.92258</ele>
        <time>2021-07-02T15:27:32Z</time>
      </trkpt>
      <trkpt lat="42.055550" lon="2.641858">
        <ele>307.36633</ele>
        <time>2021-07-02T15:27:33Z</time>
      </trkpt>
      <trkpt lat="42.055660" lon="2.642016">
        <ele>308.27118</ele>
        <time>2021-07-02T15:27:34Z</time>
      </trkpt>
      <trkpt lat="42.055725" lon="2.642110">
        <ele>308.51953</ele>
        <time>2021-07-02T15:27:35Z</time>
      </trkpt>
      <trkpt lat="42.055805" lon="2.642232">
        <ele>309.03305</ele>
        <time>2021-07-02T15:27:36Z</time>
      </trkpt>
      <trkpt lat="42.055878" lon="2.642338">
        <ele>309.75772</ele>
        <time>2021-07-02T15:27:37Z</time>
      </trkpt>
      <trkpt lat="42.055954" lon="2.642448">
        <ele>310.14755</ele>
        <time>2021-07-02T15:27:38Z</time>
      </trkpt>
      <trkpt lat="42.056030" lon="2.642560">
        <ele>310.08951</ele>
        <time>2021-07-02T15:27:39Z</time>
      </trkpt>
      <trkpt lat="42.056103" lon="2.642670">
        <ele>310.15872</ele>
        <time>2021-07-02T15:27:40Z</time>
      </trkpt>
      <trkpt lat="42.056171" lon="2.642767">
        <ele>310.63779</ele>
        <time>2021-07-02T15:27:41Z</time>
      </trkpt>
      <trkpt lat="42.056232" lon="2.642857">
        <ele>310.85867</ele>
        <time>2021-07-02T15:27:42Z</time>
      </trkpt>
      <trkpt lat="42.056271" lon="2.642918">
        <ele>311.02557</ele>
        <time>2021-07-02T15:27:43Z</time>
      </trkpt>
      <trkpt lat="42.056313" lon="2.642985">
        <ele>311.55930</ele>
        <time>2021-07-02T15:27:44Z</time>
      </trkpt>
      <trkpt lat="42.056347" lon="2.643038">
        <ele>311.52219</ele>
        <time>2021-07-02T15:27:45Z</time>
      </trkpt>
      <trkpt lat="42.056381" lon="2.643092">
        <ele>311.49615</ele>
        <time>2021-07-02T15:27:46Z</time>
      </trkpt>
      <trkpt lat="42.056396" lon="2.643117">
        <ele>311.72229</ele>
        <time>2021-07-02T15:27:47Z</time>
      </trkpt>
      <trkpt lat="42.056400" lon="2.643126">
        <ele>312.06717</ele>
        <time>2021-07-02T15:27:48Z</time>
      </trkpt>
      <trkpt lat="42.056412" lon="2.643143">
        <ele>312.32147</ele>
        <time>2021-07-02T15:27:49Z</time>
      </trkpt>
      <trkpt lat="42.056419" lon="2.643158">
        <ele>312.69589</ele>
        <time>2021-07-02T15:27:50Z</time>
      </trkpt>
      <trkpt lat="42.056431" lon="2.643170">
        <ele>312.87231</ele>
        <time>2021-07-02T15:27:51Z</time>
      </trkpt>
      <trkpt lat="42.056252" lon="2.643149">
        <ele>313.26410</ele>
        <time>2021-07-02T15:27:52Z</time>
      </trkpt>
      <trkpt lat="42.056252" lon="2.643149">
        <ele>313.09674</ele>
        <time>2021-07-02T15:27:53Z</time>
      </trkpt>
      <trkpt lat="42.056240" lon="2.643149">
        <ele>312.76965</ele>
        <time>2021-07-02T15:27:54Z</time>
      </trkpt>
      <trkpt lat="42.056213" lon="2.643148">
        <ele>312.87579</ele>
        <time>2021-07-02T15:27:55Z</time>
      </trkpt>
      <trkpt lat="42.056175" lon="2.643147">
        <ele>312.46994</ele>
        <time>2021-07-02T15:27:56Z</time>
      </trkpt>
      <trkpt lat="42.056168" lon="2.643147">
        <ele>312.26447</ele>
        <time>2021-07-02T15:27:57Z</time>
      </trkpt>
      <trkpt lat="42.056103" lon="2.643145">
        <ele>311.97070</ele>
        <time>2021-07-02T15:27:58Z</time>
      </trkpt>
      <trkpt lat="42.056084" lon="2.643145">
        <ele>311.80737</ele>
        <time>2021-07-02T15:27:59Z</time>
      </trkpt>
      <trkpt lat="42.056152" lon="2.642744">
        <ele>311.75809</ele>
        <time>2021-07-02T15:28:00Z</time>
      </trkpt>
      <trkpt lat="42.056107" lon="2.642673">
        <ele>311.65515</ele>
        <time>2021-07-02T15:28:01Z</time>
      </trkpt>
      <trkpt lat="42.056080" lon="2.642633">
        <ele>311.67609</ele>
        <time>2021-07-02T15:28:02Z</time>
      </trkpt>
      <trkpt lat="42.056061" lon="2.642607">
        <ele>311.51550</ele>
        <time>2021-07-02T15:28:03Z</time>
      </trkpt>
      <trkpt lat="42.056038" lon="2.642572">
        <ele>311.40952</ele>
        <time>2021-07-02T15:28:04Z</time>
      </trkpt>
      <trkpt lat="42.056011" lon="2.642534">
        <ele>311.71454</ele>
        <time>2021-07-02T15:28:05Z</time>
      </trkpt>
      <trkpt lat="42.055843" lon="2.642771">
        <ele>311.87262</ele>
        <time>2021-07-02T15:28:06Z</time>
      </trkpt>
      <trkpt lat="42.055843" lon="2.642776">
        <ele>311.93466</ele>
        <time>2021-07-02T15:28:07Z</time>
      </trkpt>
      <trkpt lat="42.055843" lon="2.642776">
        <ele>312.14572</ele>
        <time>2021-07-02T15:28:08Z</time>
      </trkpt>
      <trkpt lat="42.055836" lon="2.642781">
        <ele>312.18832</ele>
        <time>2021-07-02T15:28:09Z</time>
      </trkpt>
      <trkpt lat="42.055828" lon="2.642808">
        <ele>312.05411</ele>
        <time>2021-07-02T15:28:10Z</time>
      </trkpt>
      <trkpt lat="42.055836" lon="2.642802">
        <ele>311.26312</ele>
        <time>2021-07-02T15:28:11Z</time>
      </trkpt>
      <trkpt lat="42.055836" lon="2.642802">
        <ele>311.18774</ele>
        <time>2021-07-02T15:28:12Z</time>
      </trkpt>
      <trkpt lat="42.055836" lon="2.642802">
        <ele>311.21448</ele>
        <time>2021-07-02T15:28:13Z</time>
      </trkpt>
      <trkpt lat="42.055840" lon="2.642801">
        <ele>311.16513</ele>
        <time>2021-07-02T15:28:14Z</time>
      </trkpt>
      <trkpt lat="42.055840" lon="2.642801">
        <ele>311.15207</ele>
        <time>2021-07-02T15:28:15Z</time>
      </trkpt>
      <trkpt lat="42.055840" lon="2.642801">
        <ele>311.14084</ele>
        <time>2021-07-02T15:28:16Z</time>
      </trkpt>
      <trkpt lat="42.055840" lon="2.642807">
        <ele>310.96600</ele>
        <time>2021-07-02T15:28:17Z</time>
      </trkpt>
      <trkpt lat="42.055840" lon="2.642807">
        <ele>311.39545</ele>
        <time>2021-07-02T15:28:18Z</time>
      </trkpt>
      <trkpt lat="42.055840" lon="2.642809">
        <ele>311.42920</ele>
        <time>2021-07-02T15:28:19Z</time>
      </trkpt>
      <trkpt lat="42.055843" lon="2.642814">
        <ele>311.42792</ele>
        <time>2021-07-02T15:28:20Z</time>
      </trkpt>
      <trkpt lat="42.055843" lon="2.642822">
        <ele>311.35907</ele>
        <time>2021-07-02T15:28:21Z</time>
      </trkpt>
      <trkpt lat="42.055843" lon="2.642825">
        <ele>311.11618</ele>
        <time>2021-07-02T15:28:22Z</time>
      </trkpt>
      <trkpt lat="42.055843" lon="2.642825">
        <ele>310.98172</ele>
        <time>2021-07-02T15:28:23Z</time>
      </trkpt>
      <trkpt lat="42.055843" lon="2.642825">
        <ele>310.84665</ele>
        <time>2021-07-02T15:28:24Z</time>
      </trkpt>
      <trkpt lat="42.055843" lon="2.642825">
        <ele>310.80048</ele>
        <time>2021-07-02T15:28:25Z</time>
      </trkpt>
      <trkpt lat="42.055843" lon="2.642825">
        <ele>310.85114</ele>
        <time>2021-07-02T15:28:26Z</time>
      </trkpt>
      <trkpt lat="42.055843" lon="2.642825">
        <ele>310.84540</ele>
        <time>2021-07-02T15:28:27Z</time>
      </trkpt>
      <trkpt lat="42.055843" lon="2.642825">
        <ele>311.00482</ele>
        <time>2021-07-02T15:28:28Z</time>
      </trkpt>
      <trkpt lat="42.055843" lon="2.642825">
        <ele>310.94522</ele>
        <time>2021-07-02T15:28:29Z</time>
      </trkpt>
      <trkpt lat="42.055843" lon="2.642825">
        <ele>310.99527</ele>
        <time>2021-07-02T15:28:30Z</time>
      </trkpt>
      <trkpt lat="42.055843" lon="2.642825">
        <ele>310.98001</ele>
        <time>2021-07-02T15:28:31Z</time>
      </trkpt>
      <trkpt lat="42.055843" lon="2.642825">
        <ele>311.20667</ele>
        <time>2021-07-02T15:28:32Z</time>
      </trkpt>
      <trkpt lat="42.055843" lon="2.642825">
        <ele>311.18924</ele>
        <time>2021-07-02T15:28:33Z</time>
      </trkpt>
      <trkpt lat="42.055843" lon="2.642825">
        <ele>311.10150</ele>
        <time>2021-07-02T15:28:34Z</time>
      </trkpt>
      <trkpt lat="42.055855" lon="2.642806">
        <ele>311.12772</ele>
        <time>2021-07-02T15:28:35Z</time>
      </trkpt>
      <trkpt lat="42.055855" lon="2.642806">
        <ele>311.10043</ele>
        <time>2021-07-02T15:28:36Z</time>
      </trkpt>
      <trkpt lat="42.055855" lon="2.642806">
        <ele>311.16467</ele>
        <time>2021-07-02T15:28:37Z</time>
      </trkpt>
      <trkpt lat="42.055855" lon="2.642806">
        <ele>311.16467</ele>
        <time>2021-07-02T15:28:38Z</time>
      </trkpt>
      <trkpt lat="42.055855" lon="2.642806">
        <ele>311.08289</ele>
        <time>2021-07-02T15:28:39Z</time>
      </trkpt>
      <trkpt lat="42.055855" lon="2.642806">
        <ele>311.08011</ele>
        <time>2021-07-02T15:28:40Z</time>
      </trkpt>
      <trkpt lat="42.055855" lon="2.642806">
        <ele>311.06628</ele>
        <time>2021-07-02T15:28:41Z</time>
      </trkpt>
      <trkpt lat="42.055855" lon="2.642806">
        <ele>310.90027</ele>
        <time>2021-07-02T15:28:42Z</time>
      </trkpt>
      <trkpt lat="42.055855" lon="2.642806">
        <ele>310.81839</ele>
        <time>2021-07-02T15:28:43Z</time>
      </trkpt>
      <trkpt lat="42.055855" lon="2.642806">
        <ele>311.04965</ele>
        <time>2021-07-02T15:28:44Z</time>
      </trkpt>
      <trkpt lat="42.055855" lon="2.642806">
        <ele>311.04965</ele>
        <time>2021-07-02T15:28:45Z</time>
      </trkpt>
      <trkpt lat="42.055855" lon="2.642806">
        <ele>311.21725</ele>
        <time>2021-07-02T15:28:46Z</time>
      </trkpt>
      <trkpt lat="42.055855" lon="2.642806">
        <ele>311.15405</ele>
        <time>2021-07-02T15:28:47Z</time>
      </trkpt>
      <trkpt lat="42.055855" lon="2.642806">
        <ele>311.15405</ele>
        <time>2021-07-02T15:28:48Z</time>
      </trkpt>
      <trkpt lat="42.055855" lon="2.642806">
        <ele>310.92953</ele>
        <time>2021-07-02T15:28:49Z</time>
      </trkpt>
      <trkpt lat="42.055855" lon="2.642806">
        <ele>310.91113</ele>
        <time>2021-07-02T15:28:50Z</time>
      </trkpt>
      <trkpt lat="42.055855" lon="2.642806">
        <ele>310.97260</ele>
        <time>2021-07-02T15:28:51Z</time>
      </trkpt>
      <trkpt lat="42.055855" lon="2.642806">
        <ele>310.90775</ele>
        <time>2021-07-02T15:28:52Z</time>
      </trkpt>
      <trkpt lat="42.055855" lon="2.642806">
        <ele>310.98343</ele>
        <time>2021-07-02T15:28:53Z</time>
      </trkpt>
      <trkpt lat="42.055855" lon="2.642806">
        <ele>311.05859</ele>
        <time>2021-07-02T15:28:54Z</time>
      </trkpt>
      <trkpt lat="42.055855" lon="2.642806">
        <ele>310.96643</ele>
        <time>2021-07-02T15:28:55Z</time>
      </trkpt>
      <trkpt lat="42.055855" lon="2.642806">
        <ele>311.09439</ele>
        <time>2021-07-02T15:28:56Z</time>
      </trkpt>
      <trkpt lat="42.055855" lon="2.642806">
        <ele>311.27905</ele>
        <time>2021-07-02T15:28:57Z</time>
      </trkpt>
      <trkpt lat="42.055855" lon="2.642806">
        <ele>311.26456</ele>
        <time>2021-07-02T15:28:58Z</time>
      </trkpt>
      <trkpt lat="42.055855" lon="2.642806">
        <ele>311.29221</ele>
        <time>2021-07-02T15:28:59Z</time>
      </trkpt>
      <trkpt lat="42.055855" lon="2.642806">
        <ele>311.18863</ele>
        <time>2021-07-02T15:29:00Z</time>
      </trkpt>
      <trkpt lat="42.055855" lon="2.642806">
        <ele>311.08768</ele>
        <time>2021-07-02T15:29:01Z</time>
      </trkpt>
      <trkpt lat="42.055855" lon="2.642806">
        <ele>306.11316</ele>
        <time>2021-07-02T15:29:02Z</time>
      </trkpt>
      <trkpt lat="42.055889" lon="2.642793">
        <ele>306.11316</ele>
        <time>2021-07-02T15:29:03Z</time>
      </trkpt>
      <trkpt lat="42.055889" lon="2.642797">
        <ele>307.76099</ele>
        <time>2021-07-02T15:29:04Z</time>
      </trkpt>
      <trkpt lat="42.055889" lon="2.642797">
        <ele>305.60034</ele>
        <time>2021-07-02T15:29:05Z</time>
      </trkpt>
      <trkpt lat="42.055893" lon="2.642797">
        <ele>305.60034</ele>
        <time>2021-07-02T15:29:06Z</time>
      </trkpt>
      <trkpt lat="42.055885" lon="2.642794">
        <ele>304.97720</ele>
        <time>2021-07-02T15:29:07Z</time>
      </trkpt>
      <trkpt lat="42.055874" lon="2.642792">
        <ele>305.59079</ele>
        <time>2021-07-02T15:29:10Z</time>
      </trkpt>
      <trkpt lat="42.055874" lon="2.642792">
        <ele>305.59079</ele>
        <time>2021-07-02T15:29:10Z</time>
      </trkpt>
      <trkpt lat="42.055874" lon="2.642792">
        <ele>305.59079</ele>
        <time>2021-07-02T15:29:10Z</time>
      </trkpt>
      <trkpt lat="42.055874" lon="2.642792">
        <ele>305.60153</ele>
        <time>2021-07-02T15:29:11Z</time>
      </trkpt>
      <trkpt lat="42.055874" lon="2.642792">
        <ele>305.81293</ele>
        <time>2021-07-02T15:29:14Z</time>
      </trkpt>
      <trkpt lat="42.055874" lon="2.642792">
        <ele>305.73349</ele>
        <time>2021-07-02T15:29:14Z</time>
      </trkpt>
      <trkpt lat="42.055874" lon="2.642792">
        <ele>305.93115</ele>
        <time>2021-07-02T15:29:15Z</time>
      </trkpt>
      <trkpt lat="42.055862" lon="2.642761">
        <ele>306.12973</ele>
        <time>2021-07-02T15:29:16Z</time>
      </trkpt>
      <trkpt lat="42.055862" lon="2.642756">
        <ele>305.15225</ele>
        <time>2021-07-02T15:29:17Z</time>
      </trkpt>
      <trkpt lat="42.055862" lon="2.642746">
        <ele>304.71341</ele>
        <time>2021-07-02T15:29:18Z</time>
      </trkpt>
      <trkpt lat="42.055862" lon="2.642736">
        <ele>307.04630</ele>
        <time>2021-07-02T15:29:19Z</time>
      </trkpt>
      <trkpt lat="42.055862" lon="2.642736">
        <ele>306.31137</ele>
        <time>2021-07-02T15:29:20Z</time>
      </trkpt>
      <trkpt lat="42.055862" lon="2.642736">
        <ele>306.47470</ele>
        <time>2021-07-02T15:29:21Z</time>
      </trkpt>
      <trkpt lat="42.055862" lon="2.642743">
        <ele>306.45831</ele>
        <time>2021-07-02T15:29:22Z</time>
      </trkpt>
      <trkpt lat="42.055862" lon="2.642765">
        <ele>306.27927</ele>
        <time>2021-07-02T15:29:23Z</time>
      </trkpt>
      <trkpt lat="42.055866" lon="2.642776">
        <ele>306.13394</ele>
        <time>2021-07-02T15:29:24Z</time>
      </trkpt>
      <trkpt lat="42.055866" lon="2.642776">
        <ele>306.30890</ele>
        <time>2021-07-02T15:29:25Z</time>
      </trkpt>
      <trkpt lat="42.055874" lon="2.642777">
        <ele>306.16898</ele>
        <time>2021-07-02T15:29:26Z</time>
      </trkpt>
      <trkpt lat="42.055882" lon="2.642777">
        <ele>306.22849</ele>
        <time>2021-07-02T15:29:27Z</time>
      </trkpt>
      <trkpt lat="42.055885" lon="2.642777">
        <ele>305.91827</ele>
        <time>2021-07-02T15:29:28Z</time>
      </trkpt>
      <trkpt lat="42.055893" lon="2.642775">
        <ele>305.99457</ele>
        <time>2021-07-02T15:29:29Z</time>
      </trkpt>
      <trkpt lat="42.055904" lon="2.642772">
        <ele>306.40475</ele>
        <time>2021-07-02T15:29:30Z</time>
      </trkpt>
      <trkpt lat="42.055897" lon="2.642764">
        <ele>306.58035</ele>
        <time>2021-07-02T15:29:31Z</time>
      </trkpt>
      <trkpt lat="42.055885" lon="2.642762">
        <ele>306.26666</ele>
        <time>2021-07-02T15:29:32Z</time>
      </trkpt>
      <trkpt lat="42.055885" lon="2.642762">
        <ele>306.40863</ele>
        <time>2021-07-02T15:29:33Z</time>
      </trkpt>
      <trkpt lat="42.055885" lon="2.642762">
        <ele>306.24457</ele>
        <time>2021-07-02T15:29:34Z</time>
      </trkpt>
      <trkpt lat="42.055885" lon="2.642762">
        <ele>306.18451</ele>
        <time>2021-07-02T15:29:35Z</time>
      </trkpt>
      <trkpt lat="42.055885" lon="2.642762">
        <ele>306.20792</ele>
        <time>2021-07-02T15:29:36Z</time>
      </trkpt>
      <trkpt lat="42.055885" lon="2.642762">
        <ele>306.05588</ele>
        <time>2021-07-02T15:29:37Z</time>
      </trkpt>
      <trkpt lat="42.055885" lon="2.642762">
        <ele>306.11023</ele>
        <time>2021-07-02T15:29:38Z</time>
      </trkpt>
      <trkpt lat="42.055855" lon="2.642752">
        <ele>305.93286</ele>
        <time>2021-07-02T15:29:39Z</time>
      </trkpt>
      <trkpt lat="42.055847" lon="2.642747">
        <ele>306.47318</ele>
        <time>2021-07-02T15:29:40Z</time>
      </trkpt>
      <trkpt lat="42.055840" lon="2.642734">
        <ele>306.40375</ele>
        <time>2021-07-02T15:29:41Z</time>
      </trkpt>
      <trkpt lat="42.055836" lon="2.642723">
        <ele>305.94318</ele>
        <time>2021-07-02T15:29:42Z</time>
      </trkpt>
      <trkpt lat="42.055840" lon="2.642719">
        <ele>306.23257</ele>
        <time>2021-07-02T15:29:43Z</time>
      </trkpt>
      <trkpt lat="42.055843" lon="2.642708">
        <ele>306.45294</ele>
        <time>2021-07-02T15:29:44Z</time>
      </trkpt>
      <trkpt lat="42.055840" lon="2.642703">
        <ele>305.55872</ele>
        <time>2021-07-02T15:29:45Z</time>
      </trkpt>
      <trkpt lat="42.055836" lon="2.642698">
        <ele>305.42575</ele>
        <time>2021-07-02T15:29:46Z</time>
      </trkpt>
      <trkpt lat="42.055832" lon="2.642691">
        <ele>306.20050</ele>
        <time>2021-07-02T15:29:47Z</time>
      </trkpt>
      <trkpt lat="42.055832" lon="2.642690">
        <ele>306.05426</ele>
        <time>2021-07-02T15:29:48Z</time>
      </trkpt>
      <trkpt lat="42.055832" lon="2.642687">
        <ele>305.86163</ele>
        <time>2021-07-02T15:29:49Z</time>
      </trkpt>
      <trkpt lat="42.055836" lon="2.642676">
        <ele>305.95639</ele>
        <time>2021-07-02T15:29:50Z</time>
      </trkpt>
      <trkpt lat="42.055843" lon="2.642675">
        <ele>305.97348</ele>
        <time>2021-07-02T15:29:51Z</time>
      </trkpt>
      <trkpt lat="42.055847" lon="2.642668">
        <ele>306.25903</ele>
        <time>2021-07-02T15:29:52Z</time>
      </trkpt>
      <trkpt lat="42.055851" lon="2.642666">
        <ele>306.20798</ele>
        <time>2021-07-02T15:29:53Z</time>
      </trkpt>
      <trkpt lat="42.055855" lon="2.642662">
        <ele>306.29904</ele>
        <time>2021-07-02T15:29:54Z</time>
      </trkpt>
      <trkpt lat="42.055866" lon="2.642664">
        <ele>306.05930</ele>
        <time>2021-07-02T15:29:55Z</time>
      </trkpt>
      <trkpt lat="42.055874" lon="2.642668">
        <ele>306.45428</ele>
        <time>2021-07-02T15:29:56Z</time>
      </trkpt>
      <trkpt lat="42.055882" lon="2.642669">
        <ele>306.26166</ele>
        <time>2021-07-02T15:29:57Z</time>
      </trkpt>
      <trkpt lat="42.055885" lon="2.642678">
        <ele>306.28668</ele>
        <time>2021-07-02T15:29:58Z</time>
      </trkpt>
      <trkpt lat="42.055889" lon="2.642682">
        <ele>306.58572</ele>
        <time>2021-07-02T15:29:59Z</time>
      </trkpt>
      <trkpt lat="42.055897" lon="2.642681">
        <ele>305.49258</ele>
        <time>2021-07-02T15:30:00Z</time>
      </trkpt>
      <trkpt lat="42.055897" lon="2.642676">
        <ele>306.04074</ele>
        <time>2021-07-02T15:30:01Z</time>
      </trkpt>
      <trkpt lat="42.055897" lon="2.642676">
        <ele>306.35703</ele>
        <time>2021-07-02T15:30:02Z</time>
      </trkpt>
      <trkpt lat="42.055897" lon="2.642677">
        <ele>305.32352</ele>
        <time>2021-07-02T15:30:03Z</time>
      </trkpt>
      <trkpt lat="42.055889" lon="2.642675">
        <ele>306.00769</ele>
        <time>2021-07-02T15:30:04Z</time>
      </trkpt>
      <trkpt lat="42.055889" lon="2.642675">
        <ele>305.85855</ele>
        <time>2021-07-02T15:30:05Z</time>
      </trkpt>
      <trkpt lat="42.055885" lon="2.642686">
        <ele>306.40027</ele>
        <time>2021-07-02T15:30:06Z</time>
      </trkpt>
      <trkpt lat="42.055885" lon="2.642700">
        <ele>306.08386</ele>
        <time>2021-07-02T15:30:07Z</time>
      </trkpt>
      <trkpt lat="42.055882" lon="2.642707">
        <ele>305.99683</ele>
        <time>2021-07-02T15:30:08Z</time>
      </trkpt>
      <trkpt lat="42.055882" lon="2.642707">
        <ele>305.89236</ele>
        <time>2021-07-02T15:30:09Z</time>
      </trkpt>
      <trkpt lat="42.055882" lon="2.642707">
        <ele>305.94174</ele>
        <time>2021-07-02T15:30:10Z</time>
      </trkpt>
      <trkpt lat="42.055885" lon="2.642720">
        <ele>305.92706</ele>
        <time>2021-07-02T15:30:11Z</time>
      </trkpt>
      <trkpt lat="42.055885" lon="2.642720">
        <ele>306.12784</ele>
        <time>2021-07-02T15:30:12Z</time>
      </trkpt>
      <trkpt lat="42.055885" lon="2.642720">
        <ele>306.15543</ele>
        <time>2021-07-02T15:30:13Z</time>
      </trkpt>
      <trkpt lat="42.055885" lon="2.642720">
        <ele>306.10468</ele>
        <time>2021-07-02T15:30:14Z</time>
      </trkpt>
      <trkpt lat="42.055885" lon="2.642720">
        <ele>306.37027</ele>
        <time>2021-07-02T15:30:15Z</time>
      </trkpt>
      <trkpt lat="42.055885" lon="2.642720">
        <ele>305.97333</ele>
        <time>2021-07-02T15:30:16Z</time>
      </trkpt>
      <trkpt lat="42.055885" lon="2.642720">
        <ele>305.88855</ele>
        <time>2021-07-02T15:30:17Z</time>
      </trkpt>
      <trkpt lat="42.055885" lon="2.642720">
        <ele>306.10635</ele>
        <time>2021-07-02T15:30:18Z</time>
      </trkpt>
      <trkpt lat="42.055885" lon="2.642717">
        <ele>305.98309</ele>
        <time>2021-07-02T15:30:19Z</time>
      </trkpt>
      <trkpt lat="42.055885" lon="2.642723">
        <ele>306.17416</ele>
        <time>2021-07-02T15:30:20Z</time>
      </trkpt>
      <trkpt lat="42.055882" lon="2.642732">
        <ele>306.11905</ele>
        <time>2021-07-02T15:30:21Z</time>
      </trkpt>
      <trkpt lat="42.055882" lon="2.642732">
        <ele>306.30505</ele>
        <time>2021-07-02T15:30:22Z</time>
      </trkpt>
      <trkpt lat="42.055889" lon="2.642735">
        <ele>306.13141</ele>
        <time>2021-07-02T15:30:23Z</time>
      </trkpt>
      <trkpt lat="42.055889" lon="2.642735">
        <ele>305.85541</ele>
        <time>2021-07-02T15:30:24Z</time>
      </trkpt>
      <trkpt lat="42.055893" lon="2.642731">
        <ele>306.26910</ele>
        <time>2021-07-02T15:30:25Z</time>
      </trkpt>
      <trkpt lat="42.055897" lon="2.642726">
        <ele>306.23413</ele>
        <time>2021-07-02T15:30:26Z</time>
      </trkpt>
      <trkpt lat="42.055897" lon="2.642726">
        <ele>306.05414</ele>
        <time>2021-07-02T15:30:27Z</time>
      </trkpt>
      <trkpt lat="42.055901" lon="2.642715">
        <ele>306.03091</ele>
        <time>2021-07-02T15:30:28Z</time>
      </trkpt>
      <trkpt lat="42.055897" lon="2.642706">
        <ele>305.97595</ele>
        <time>2021-07-02T15:30:29Z</time>
      </trkpt>
      <trkpt lat="42.055897" lon="2.642706">
        <ele>305.80762</ele>
        <time>2021-07-02T15:30:30Z</time>
      </trkpt>
      <trkpt lat="42.055885" lon="2.642694">
        <ele>306.39023</ele>
        <time>2021-07-02T15:30:31Z</time>
      </trkpt>
      <trkpt lat="42.055885" lon="2.642694">
        <ele>305.97485</ele>
        <time>2021-07-02T15:30:32Z</time>
      </trkpt>
      <trkpt lat="42.055885" lon="2.642694">
        <ele>306.03784</ele>
        <time>2021-07-02T15:30:33Z</time>
      </trkpt>
      <trkpt lat="42.055874" lon="2.642687">
        <ele>305.61563</ele>
        <time>2021-07-02T15:30:34Z</time>
      </trkpt>
      <trkpt lat="42.055870" lon="2.642704">
        <ele>305.81470</ele>
        <time>2021-07-02T15:30:35Z</time>
      </trkpt>
      <trkpt lat="42.055870" lon="2.642723">
        <ele>306.35706</ele>
        <time>2021-07-02T15:30:36Z</time>
      </trkpt>
      <trkpt lat="42.055866" lon="2.642735">
        <ele>306.35449</ele>
        <time>2021-07-02T15:30:37Z</time>
      </trkpt>
      <trkpt lat="42.055866" lon="2.642735">
        <ele>305.94705</ele>
        <time>2021-07-02T15:30:38Z</time>
      </trkpt>
      <trkpt lat="42.055870" lon="2.642738">
        <ele>305.89694</ele>
        <time>2021-07-02T15:30:39Z</time>
      </trkpt>
      <trkpt lat="42.055870" lon="2.642737">
        <ele>306.09537</ele>
        <time>2021-07-02T15:30:40Z</time>
      </trkpt>
      <trkpt lat="42.055866" lon="2.642731">
        <ele>306.07132</ele>
        <time>2021-07-02T15:30:41Z</time>
      </trkpt>
      <trkpt lat="42.055870" lon="2.642722">
        <ele>306.12573</ele>
        <time>2021-07-02T15:30:42Z</time>
      </trkpt>
      <trkpt lat="42.055870" lon="2.642722">
        <ele>306.11801</ele>
        <time>2021-07-02T15:30:43Z</time>
      </trkpt>
      <trkpt lat="42.055870" lon="2.642722">
        <ele>305.93414</ele>
        <time>2021-07-02T15:30:44Z</time>
      </trkpt>
      <trkpt lat="42.055862" lon="2.642702">
        <ele>306.14825</ele>
        <time>2021-07-02T15:30:45Z</time>
      </trkpt>
      <trkpt lat="42.055862" lon="2.642702">
        <ele>305.90771</ele>
        <time>2021-07-02T15:30:46Z</time>
      </trkpt>
      <trkpt lat="42.055862" lon="2.642702">
        <ele>305.92697</ele>
        <time>2021-07-02T15:30:47Z</time>
      </trkpt>
      <trkpt lat="42.055866" lon="2.642700">
        <ele>306.15002</ele>
        <time>2021-07-02T15:30:48Z</time>
      </trkpt>
      <trkpt lat="42.055862" lon="2.642691">
        <ele>306.37625</ele>
        <time>2021-07-02T15:30:49Z</time>
      </trkpt>
      <trkpt lat="42.055862" lon="2.642682">
        <ele>305.20584</ele>
        <time>2021-07-02T15:30:50Z</time>
      </trkpt>
      <trkpt lat="42.055866" lon="2.642676">
        <ele>305.85809</ele>
        <time>2021-07-02T15:30:51Z</time>
      </trkpt>
      <trkpt lat="42.055866" lon="2.642676">
        <ele>305.75970</ele>
        <time>2021-07-02T15:30:52Z</time>
      </trkpt>
      <trkpt lat="42.055866" lon="2.642681">
        <ele>305.76099</ele>
        <time>2021-07-02T15:30:53Z</time>
      </trkpt>
      <trkpt lat="42.055866" lon="2.642681">
        <ele>305.61359</ele>
        <time>2021-07-02T15:30:54Z</time>
      </trkpt>
      <trkpt lat="42.055862" lon="2.642680">
        <ele>305.83862</ele>
        <time>2021-07-02T15:30:55Z</time>
      </trkpt>
      <trkpt lat="42.055855" lon="2.642683">
        <ele>305.85287</ele>
        <time>2021-07-02T15:30:56Z</time>
      </trkpt>
      <trkpt lat="42.055855" lon="2.642686">
        <ele>305.39584</ele>
        <time>2021-07-02T15:30:57Z</time>
      </trkpt>
      <trkpt lat="42.055855" lon="2.642688">
        <ele>305.61920</ele>
        <time>2021-07-02T15:30:58Z</time>
      </trkpt>
      <trkpt lat="42.055855" lon="2.642694">
        <ele>305.74493</ele>
        <time>2021-07-02T15:30:59Z</time>
      </trkpt>
      <trkpt lat="42.055859" lon="2.642697">
        <ele>305.51743</ele>
        <time>2021-07-02T15:31:00Z</time>
      </trkpt>
      <trkpt lat="42.055859" lon="2.642697">
        <ele>306.30615</ele>
        <time>2021-07-02T15:31:01Z</time>
      </trkpt>
      <trkpt lat="42.055862" lon="2.642702">
        <ele>304.80960</ele>
        <time>2021-07-02T15:31:02Z</time>
      </trkpt>
      <trkpt lat="42.055862" lon="2.642702">
        <ele>306.64166</ele>
        <time>2021-07-02T15:31:03Z</time>
      </trkpt>
      <trkpt lat="42.055859" lon="2.642707">
        <ele>305.38455</ele>
        <time>2021-07-02T15:31:04Z</time>
      </trkpt>
      <trkpt lat="42.055855" lon="2.642710">
        <ele>305.27634</ele>
        <time>2021-07-02T15:31:05Z</time>
      </trkpt>
      <trkpt lat="42.055855" lon="2.642713">
        <ele>306.12814</ele>
        <time>2021-07-02T15:31:06Z</time>
      </trkpt>
      <trkpt lat="42.055847" lon="2.642714">
        <ele>305.77234</ele>
        <time>2021-07-02T15:31:07Z</time>
      </trkpt>
      <trkpt lat="42.055843" lon="2.642712">
        <ele>304.93008</ele>
        <time>2021-07-02T15:31:08Z</time>
      </trkpt>
      <trkpt lat="42.055843" lon="2.642707">
        <ele>305.46490</ele>
        <time>2021-07-02T15:31:09Z</time>
      </trkpt>
      <trkpt lat="42.055840" lon="2.642701">
        <ele>305.59122</ele>
        <time>2021-07-02T15:31:10Z</time>
      </trkpt>
      <trkpt lat="42.055840" lon="2.642701">
        <ele>305.51022</ele>
        <time>2021-07-02T15:31:11Z</time>
      </trkpt>
      <trkpt lat="42.055843" lon="2.642690">
        <ele>305.26205</ele>
        <time>2021-07-02T15:31:12Z</time>
      </trkpt>
      <trkpt lat="42.055855" lon="2.642690">
        <ele>305.77893</ele>
        <time>2021-07-02T15:31:13Z</time>
      </trkpt>
      <trkpt lat="42.055866" lon="2.642696">
        <ele>305.58334</ele>
        <time>2021-07-02T15:31:14Z</time>
      </trkpt>
      <trkpt lat="42.055893" lon="2.642698">
        <ele>305.84061</ele>
        <time>2021-07-02T15:31:15Z</time>
      </trkpt>
      <trkpt lat="42.055897" lon="2.642700">
        <ele>306.53455</ele>
        <time>2021-07-02T15:31:16Z</time>
      </trkpt>
      <trkpt lat="42.055897" lon="2.642700">
        <ele>306.53455</ele>
        <time>2021-07-02T15:31:17Z</time>
      </trkpt>
      <trkpt lat="42.055904" lon="2.642701">
        <ele>306.18750</ele>
        <time>2021-07-02T15:31:18Z</time>
      </trkpt>
      <trkpt lat="42.055908" lon="2.642719">
        <ele>305.84818</ele>
        <time>2021-07-02T15:31:19Z</time>
      </trkpt>
      <trkpt lat="42.055908" lon="2.642719">
        <ele>305.60312</ele>
        <time>2021-07-02T15:31:20Z</time>
      </trkpt>
      <trkpt lat="42.055908" lon="2.642719">
        <ele>306.27151</ele>
        <time>2021-07-02T15:31:21Z</time>
      </trkpt>
      <trkpt lat="42.055908" lon="2.642719">
        <ele>305.73062</ele>
        <time>2021-07-02T15:31:23Z</time>
      </trkpt>
      <trkpt lat="42.055908" lon="2.642719">
        <ele>305.73062</ele>
        <time>2021-07-02T15:31:23Z</time>
      </trkpt>
      <trkpt lat="42.055908" lon="2.642719">
        <ele>305.60822</ele>
        <time>2021-07-02T15:31:24Z</time>
      </trkpt>
      <trkpt lat="42.055908" lon="2.642719">
        <ele>305.76828</ele>
        <time>2021-07-02T15:31:25Z</time>
      </trkpt>
      <trkpt lat="42.055897" lon="2.642778">
        <ele>305.69363</ele>
        <time>2021-07-02T15:31:26Z</time>
      </trkpt>
      <trkpt lat="42.055897" lon="2.642779">
        <ele>304.67471</ele>
        <time>2021-07-02T15:31:27Z</time>
      </trkpt>
      <trkpt lat="42.055897" lon="2.642779">
        <ele>306.08246</ele>
        <time>2021-07-02T15:31:28Z</time>
      </trkpt>
      <trkpt lat="42.055897" lon="2.642779">
        <ele>305.60712</ele>
        <time>2021-07-02T15:31:29Z</time>
      </trkpt>
      <trkpt lat="42.055897" lon="2.642779">
        <ele>305.27740</ele>
        <time>2021-07-02T15:31:30Z</time>
      </trkpt>
      <trkpt lat="42.055897" lon="2.642779">
        <ele>305.86658</ele>
        <time>2021-07-02T15:31:31Z</time>
      </trkpt>
      <trkpt lat="42.055897" lon="2.642779">
        <ele>305.72095</ele>
        <time>2021-07-02T15:31:32Z</time>
      </trkpt>
      <trkpt lat="42.055885" lon="2.642764">
        <ele>305.57806</ele>
        <time>2021-07-02T15:31:33Z</time>
      </trkpt>
      <trkpt lat="42.055882" lon="2.642762">
        <ele>304.76074</ele>
        <time>2021-07-02T15:31:34Z</time>
      </trkpt>
      <trkpt lat="42.055882" lon="2.642762">
        <ele>305.88400</ele>
        <time>2021-07-02T15:31:35Z</time>
      </trkpt>
      <trkpt lat="42.055882" lon="2.642762">
        <ele>305.41678</ele>
        <time>2021-07-02T15:31:36Z</time>
      </trkpt>
      <trkpt lat="42.055882" lon="2.642762">
        <ele>305.30737</ele>
        <time>2021-07-02T15:31:37Z</time>
      </trkpt>
      <trkpt lat="42.055882" lon="2.642762">
        <ele>305.09424</ele>
        <time>2021-07-02T15:31:38Z</time>
      </trkpt>
      <trkpt lat="42.055882" lon="2.642762">
        <ele>305.18167</ele>
        <time>2021-07-02T15:31:39Z</time>
      </trkpt>
      <trkpt lat="42.055882" lon="2.642762">
        <ele>305.19449</ele>
        <time>2021-07-02T15:31:40Z</time>
      </trkpt>
      <trkpt lat="42.055882" lon="2.642762">
        <ele>305.12357</ele>
        <time>2021-07-02T15:31:41Z</time>
      </trkpt>
      <trkpt lat="42.055882" lon="2.642762">
        <ele>305.14838</ele>
        <time>2021-07-02T15:31:42Z</time>
      </trkpt>
      <trkpt lat="42.055882" lon="2.642762">
        <ele>305.15274</ele>
        <time>2021-07-02T15:31:43Z</time>
      </trkpt>
      <trkpt lat="42.055878" lon="2.642777">
        <ele>305.85104</ele>
        <time>2021-07-02T15:31:44Z</time>
      </trkpt>
      <trkpt lat="42.055874" lon="2.642775">
        <ele>305.13477</ele>
        <time>2021-07-02T15:31:45Z</time>
      </trkpt>
      <trkpt lat="42.055870" lon="2.642771">
        <ele>305.96719</ele>
        <time>2021-07-02T15:31:46Z</time>
      </trkpt>
      <trkpt lat="42.055870" lon="2.642771">
        <ele>305.42761</ele>
        <time>2021-07-02T15:31:47Z</time>
      </trkpt>
      <trkpt lat="42.055862" lon="2.642771">
        <ele>305.67218</ele>
        <time>2021-07-02T15:31:48Z</time>
      </trkpt>
      <trkpt lat="42.055862" lon="2.642771">
        <ele>304.47070</ele>
        <time>2021-07-02T15:31:49Z</time>
      </trkpt>
      <trkpt lat="42.055855" lon="2.642769">
        <ele>306.42905</ele>
        <time>2021-07-02T15:31:50Z</time>
      </trkpt>
      <trkpt lat="42.055855" lon="2.642769">
        <ele>305.43964</ele>
        <time>2021-07-02T15:31:51Z</time>
      </trkpt>
      <trkpt lat="42.055847" lon="2.642770">
        <ele>305.78381</ele>
        <time>2021-07-02T15:31:52Z</time>
      </trkpt>
      <trkpt lat="42.055847" lon="2.642770">
        <ele>305.60126</ele>
        <time>2021-07-02T15:31:53Z</time>
      </trkpt>
      <trkpt lat="42.055847" lon="2.642769">
        <ele>306.62402</ele>
        <time>2021-07-02T15:31:54Z</time>
      </trkpt>
      <trkpt lat="42.055847" lon="2.642769">
        <ele>305.76819</ele>
        <time>2021-07-02T15:31:55Z</time>
      </trkpt>
      <trkpt lat="42.055847" lon="2.642768">
        <ele>305.67767</ele>
        <time>2021-07-02T15:31:56Z</time>
      </trkpt>
      <trkpt lat="42.055847" lon="2.642771">
        <ele>305.58685</ele>
        <time>2021-07-02T15:31:57Z</time>
      </trkpt>
      <trkpt lat="42.055851" lon="2.642771">
        <ele>305.53354</ele>
        <time>2021-07-02T15:31:58Z</time>
      </trkpt>
      <trkpt lat="42.055859" lon="2.642771">
        <ele>305.56174</ele>
        <time>2021-07-02T15:31:59Z</time>
      </trkpt>
      <trkpt lat="42.055855" lon="2.642765">
        <ele>305.32867</ele>
        <time>2021-07-02T15:32:00Z</time>
      </trkpt>
      <trkpt lat="42.055851" lon="2.642764">
        <ele>305.38168</ele>
        <time>2021-07-02T15:32:01Z</time>
      </trkpt>
      <trkpt lat="42.055851" lon="2.642764">
        <ele>305.91962</ele>
        <time>2021-07-02T15:32:02Z</time>
      </trkpt>
      <trkpt lat="42.055840" lon="2.642763">
        <ele>305.45761</ele>
        <time>2021-07-02T15:32:03Z</time>
      </trkpt>
      <trkpt lat="42.055840" lon="2.642764">
        <ele>305.86844</ele>
        <time>2021-07-02T15:32:04Z</time>
      </trkpt>
      <trkpt lat="42.055840" lon="2.642764">
        <ele>305.52588</ele>
        <time>2021-07-02T15:32:05Z</time>
      </trkpt>
      <trkpt lat="42.055840" lon="2.642764">
        <ele>305.62271</ele>
        <time>2021-07-02T15:32:06Z</time>
      </trkpt>
      <trkpt lat="42.055840" lon="2.642764">
        <ele>305.63843</ele>
        <time>2021-07-02T15:32:07Z</time>
      </trkpt>
      <trkpt lat="42.055836" lon="2.642756">
        <ele>305.25488</ele>
        <time>2021-07-02T15:32:08Z</time>
      </trkpt>
      <trkpt lat="42.055836" lon="2.642756">
        <ele>305.39005</ele>
        <time>2021-07-02T15:32:09Z</time>
      </trkpt>
      <trkpt lat="42.055836" lon="2.642756">
        <ele>305.50327</ele>
        <time>2021-07-02T15:32:10Z</time>
      </trkpt>
      <trkpt lat="42.055832" lon="2.642758">
        <ele>305.30750</ele>
        <time>2021-07-02T15:32:11Z</time>
      </trkpt>
      <trkpt lat="42.055832" lon="2.642758">
        <ele>306.33884</ele>
        <time>2021-07-02T15:32:12Z</time>
      </trkpt>
      <trkpt lat="42.055832" lon="2.642758">
        <ele>305.74408</ele>
        <time>2021-07-02T15:32:13Z</time>
      </trkpt>
      <trkpt lat="42.055832" lon="2.642758">
        <ele>305.39703</ele>
        <time>2021-07-02T15:32:14Z</time>
      </trkpt>
      <trkpt lat="42.055832" lon="2.642758">
        <ele>305.74454</ele>
        <time>2021-07-02T15:32:15Z</time>
      </trkpt>
      <trkpt lat="42.055832" lon="2.642758">
        <ele>305.59583</ele>
        <time>2021-07-02T15:32:16Z</time>
      </trkpt>
      <trkpt lat="42.055832" lon="2.642758">
        <ele>305.58984</ele>
        <time>2021-07-02T15:32:17Z</time>
      </trkpt>
      <trkpt lat="42.055832" lon="2.642758">
        <ele>305.54214</ele>
        <time>2021-07-02T15:32:18Z</time>
      </trkpt>
      <trkpt lat="42.055832" lon="2.642758">
        <ele>305.66089</ele>
        <time>2021-07-02T15:32:19Z</time>
      </trkpt>
      <trkpt lat="42.055832" lon="2.642758">
        <ele>305.46948</ele>
        <time>2021-07-02T15:32:20Z</time>
      </trkpt>
      <trkpt lat="42.055828" lon="2.642738">
        <ele>305.56482</ele>
        <time>2021-07-02T15:32:21Z</time>
      </trkpt>
      <trkpt lat="42.055828" lon="2.642738">
        <ele>305.66803</ele>
        <time>2021-07-02T15:32:22Z</time>
      </trkpt>
      <trkpt lat="42.055828" lon="2.642738">
        <ele>305.54517</ele>
        <time>2021-07-02T15:32:23Z</time>
      </trkpt>
      <trkpt lat="42.055828" lon="2.642738">
        <ele>305.68756</ele>
        <time>2021-07-02T15:32:24Z</time>
      </trkpt>
      <trkpt lat="42.055824" lon="2.642729">
        <ele>305.68726</ele>
        <time>2021-07-02T15:32:25Z</time>
      </trkpt>
      <trkpt lat="42.055820" lon="2.642729">
        <ele>305.60760</ele>
        <time>2021-07-02T15:32:26Z</time>
      </trkpt>
      <trkpt lat="42.055817" lon="2.642730">
        <ele>305.59250</ele>
        <time>2021-07-02T15:32:27Z</time>
      </trkpt>
      <trkpt lat="42.055820" lon="2.642730">
        <ele>306.11734</ele>
        <time>2021-07-02T15:32:28Z</time>
      </trkpt>
      <trkpt lat="42.055820" lon="2.642727">
        <ele>305.52786</ele>
        <time>2021-07-02T15:32:29Z</time>
      </trkpt>
      <trkpt lat="42.055813" lon="2.642721">
        <ele>305.78323</ele>
        <time>2021-07-02T15:32:30Z</time>
      </trkpt>
      <trkpt lat="42.055805" lon="2.642717">
        <ele>305.60632</ele>
        <time>2021-07-02T15:32:31Z</time>
      </trkpt>
      <trkpt lat="42.055805" lon="2.642717">
        <ele>305.75641</ele>
        <time>2021-07-02T15:32:32Z</time>
      </trkpt>
      <trkpt lat="42.055813" lon="2.642720">
        <ele>305.74075</ele>
        <time>2021-07-02T15:32:33Z</time>
      </trkpt>
      <trkpt lat="42.055813" lon="2.642720">
        <ele>305.75870</ele>
        <time>2021-07-02T15:32:34Z</time>
      </trkpt>
      <trkpt lat="42.055832" lon="2.642741">
        <ele>306.16745</ele>
        <time>2021-07-02T15:32:35Z</time>
      </trkpt>
      <trkpt lat="42.055851" lon="2.642765">
        <ele>306.03781</ele>
        <time>2021-07-02T15:32:36Z</time>
      </trkpt>
      <trkpt lat="42.055874" lon="2.642791">
        <ele>305.93481</ele>
        <time>2021-07-02T15:32:37Z</time>
      </trkpt>
      <trkpt lat="42.055885" lon="2.642801">
        <ele>305.92007</ele>
        <time>2021-07-02T15:32:38Z</time>
      </trkpt>
      <trkpt lat="42.055889" lon="2.642800">
        <ele>305.49005</ele>
        <time>2021-07-02T15:32:39Z</time>
      </trkpt>
      <trkpt lat="42.055897" lon="2.642806">
        <ele>305.75226</ele>
        <time>2021-07-02T15:32:40Z</time>
      </trkpt>
      <trkpt lat="42.055897" lon="2.642806">
        <ele>305.75226</ele>
        <time>2021-07-02T15:32:41Z</time>
      </trkpt>
      <trkpt lat="42.055897" lon="2.642814">
        <ele>305.57465</ele>
        <time>2021-07-02T15:32:43Z</time>
      </trkpt>
      <trkpt lat="42.055897" lon="2.642814">
        <ele>305.57465</ele>
        <time>2021-07-02T15:32:43Z</time>
      </trkpt>
      <trkpt lat="42.055897" lon="2.642814">
        <ele>305.68472</ele>
        <time>2021-07-02T15:32:44Z</time>
      </trkpt>
      <trkpt lat="42.055889" lon="2.642811">
        <ele>305.71994</ele>
        <time>2021-07-02T15:32:46Z</time>
      </trkpt>
      <trkpt lat="42.055889" lon="2.642811">
        <ele>305.71994</ele>
        <time>2021-07-02T15:32:47Z</time>
      </trkpt>
    </trkseg>
  </trk>
</gpx>
